<?xml version="1.0" encoding="UTF-8" standalone="no" ?>
<gpx xmlns="http://www.topografix.com/GPX/1/1" xmlns:xsi="http://www.w3.org/2001/XMLSchema-instance" xsi:schemaLocation="http://www.topografix.com/GPX/1/1 http://www.topografix.com/GPX/1/1/gpx.xsd" version="1.1" creator="VisuGPX - https://www.visugpx.com">
  <metadata>
    <name>JCC Pipoloooooooo</name>
    <desc><![CDATA[Total: 206.5km]]></desc>
  </metadata>
  <trk>
    <name><![CDATA[JCC_Pipolooooooo]]></name>
    <desc><![CDATA[Total: 206.5km]]></desc>
    <trkseg>
      <trkpt lat="46.90936" lon="6.33688">
        <ele>819</ele>
        <time>2019-05-04T04:20:00Z</time>
      </trkpt>
      <trkpt lat="46.90931" lon="6.33715">
        <ele>819</ele>
        <time>2019-05-04T04:20:14Z</time>
      </trkpt>
      <trkpt lat="46.90926" lon="6.33744">
        <ele>820</ele>
        <time>2019-05-04T04:20:29Z</time>
      </trkpt>
      <trkpt lat="46.9092" lon="6.33771">
        <ele>820</ele>
        <time>2019-05-04T04:20:43Z</time>
      </trkpt>
      <trkpt lat="46.90919" lon="6.33775">
        <ele>820</ele>
        <time>2019-05-04T04:20:45Z</time>
      </trkpt>
      <trkpt lat="46.90912" lon="6.33802">
        <ele>820</ele>
        <time>2019-05-04T04:20:59Z</time>
      </trkpt>
      <trkpt lat="46.90905" lon="6.33827">
        <ele>820</ele>
        <time>2019-05-04T04:21:12Z</time>
      </trkpt>
      <trkpt lat="46.90898" lon="6.33854">
        <ele>821</ele>
        <time>2019-05-04T04:21:27Z</time>
      </trkpt>
      <trkpt lat="46.90898" lon="6.33857">
        <ele>821</ele>
        <time>2019-05-04T04:21:28Z</time>
      </trkpt>
      <trkpt lat="46.90896" lon="6.33865">
        <ele>821</ele>
        <time>2019-05-04T04:21:32Z</time>
      </trkpt>
      <trkpt lat="46.90901" lon="6.33894">
        <ele>821</ele>
        <time>2019-05-04T04:21:47Z</time>
      </trkpt>
      <trkpt lat="46.90889" lon="6.33918">
        <ele>821</ele>
        <time>2019-05-04T04:22:02Z</time>
      </trkpt>
      <trkpt lat="46.90874" lon="6.33938">
        <ele>821</ele>
        <time>2019-05-04T04:22:16Z</time>
      </trkpt>
      <trkpt lat="46.90873" lon="6.33942">
        <ele>821</ele>
        <time>2019-05-04T04:22:19Z</time>
      </trkpt>
      <trkpt lat="46.90867" lon="6.33962">
        <ele>821</ele>
        <time>2019-05-04T04:22:29Z</time>
      </trkpt>
      <trkpt lat="46.9086" lon="6.33986">
        <ele>821</ele>
        <time>2019-05-04T04:22:42Z</time>
      </trkpt>
      <trkpt lat="46.90854" lon="6.34012">
        <ele>821</ele>
        <time>2019-05-04T04:22:56Z</time>
      </trkpt>
      <trkpt lat="46.90847" lon="6.34037">
        <ele>821</ele>
        <time>2019-05-04T04:23:10Z</time>
      </trkpt>
      <trkpt lat="46.90726" lon="6.34484">
        <ele>824</ele>
        <time>2019-05-04T04:27:07Z</time>
      </trkpt>
      <trkpt lat="46.90723" lon="6.34499">
        <ele>824</ele>
        <time>2019-05-04T04:27:15Z</time>
      </trkpt>
      <trkpt lat="46.90611" lon="6.34925">
        <ele>829</ele>
        <time>2019-05-04T04:31:01Z</time>
      </trkpt>
      <trkpt lat="46.90597" lon="6.34916">
        <ele>829</ele>
        <time>2019-05-04T04:31:12Z</time>
      </trkpt>
      <trkpt lat="46.90578" lon="6.34913">
        <ele>829</ele>
        <time>2019-05-04T04:31:26Z</time>
      </trkpt>
      <trkpt lat="46.90415" lon="6.35132">
        <ele>829</ele>
        <time>2019-05-04T04:34:05Z</time>
      </trkpt>
      <trkpt lat="46.90399" lon="6.35158">
        <ele>830</ele>
        <time>2019-05-04T04:34:23Z</time>
      </trkpt>
      <trkpt lat="46.90391" lon="6.3518">
        <ele>831</ele>
        <time>2019-05-04T04:34:35Z</time>
      </trkpt>
      <trkpt lat="46.90185" lon="6.35527">
        <ele>834</ele>
        <time>2019-05-04T04:38:22Z</time>
      </trkpt>
      <trkpt lat="46.90169" lon="6.35528">
        <ele>835</ele>
        <time>2019-05-04T04:38:34Z</time>
      </trkpt>
      <trkpt lat="46.90156" lon="6.35548">
        <ele>834</ele>
        <time>2019-05-04T04:38:48Z</time>
      </trkpt>
      <trkpt lat="46.89982" lon="6.359">
        <ele>831</ele>
        <time>2019-05-04T04:42:22Z</time>
      </trkpt>
      <trkpt lat="46.89952" lon="6.35903">
        <ele>832</ele>
        <time>2019-05-04T04:42:44Z</time>
      </trkpt>
      <trkpt lat="46.89934" lon="6.35914">
        <ele>832</ele>
        <time>2019-05-04T04:42:58Z</time>
      </trkpt>
      <trkpt lat="46.89915" lon="6.35905">
        <ele>832</ele>
        <time>2019-05-04T04:43:13Z</time>
      </trkpt>
      <trkpt lat="46.89653" lon="6.36078">
        <ele>833</ele>
        <time>2019-05-04T04:46:40Z</time>
      </trkpt>
      <trkpt lat="46.89642" lon="6.36099">
        <ele>832</ele>
        <time>2019-05-04T04:46:54Z</time>
      </trkpt>
      <trkpt lat="46.89628" lon="6.36101">
        <ele>831</ele>
        <time>2019-05-04T04:47:03Z</time>
      </trkpt>
      <trkpt lat="46.89618" lon="6.36123">
        <ele>830</ele>
        <time>2019-05-04T04:47:17Z</time>
      </trkpt>
      <trkpt lat="46.89421" lon="6.36444">
        <ele>835</ele>
        <time>2019-05-04T04:50:50Z</time>
      </trkpt>
      <trkpt lat="46.8944" lon="6.36456">
        <ele>835</ele>
        <time>2019-05-04T04:51:04Z</time>
      </trkpt>
      <trkpt lat="46.89442" lon="6.36483">
        <ele>836</ele>
        <time>2019-05-04T04:51:18Z</time>
      </trkpt>
      <trkpt lat="46.89422" lon="6.36844">
        <ele>849</ele>
        <time>2019-05-04T04:54:17Z</time>
      </trkpt>
      <trkpt lat="46.89413" lon="6.36876">
        <ele>852</ele>
        <time>2019-05-04T04:54:34Z</time>
      </trkpt>
      <trkpt lat="46.89397" lon="6.36888">
        <ele>854</ele>
        <time>2019-05-04T04:54:47Z</time>
      </trkpt>
      <trkpt lat="46.89385" lon="6.36882">
        <ele>854</ele>
        <time>2019-05-04T04:54:57Z</time>
      </trkpt>
      <trkpt lat="46.89079" lon="6.36898">
        <ele>881</ele>
        <time>2019-05-04T04:58:38Z</time>
      </trkpt>
      <trkpt lat="46.89069" lon="6.36897">
        <ele>882</ele>
        <time>2019-05-04T04:58:46Z</time>
      </trkpt>
      <trkpt lat="46.89061" lon="6.36896">
        <ele>884</ele>
        <time>2019-05-04T04:58:51Z</time>
      </trkpt>
      <trkpt lat="46.89052" lon="6.36891">
        <ele>884</ele>
        <time>2019-05-04T04:58:59Z</time>
      </trkpt>
      <trkpt lat="46.89046" lon="6.36889">
        <ele>885</ele>
        <time>2019-05-04T04:59:03Z</time>
      </trkpt>
      <trkpt lat="46.89058" lon="6.36906">
        <ele>886</ele>
        <time>2019-05-04T04:59:15Z</time>
      </trkpt>
      <trkpt lat="46.88851" lon="6.37087">
        <ele>958</ele>
        <time>2019-05-04T05:02:15Z</time>
      </trkpt>
      <trkpt lat="46.88846" lon="6.37086">
        <ele>958</ele>
        <time>2019-05-04T05:02:19Z</time>
      </trkpt>
      <trkpt lat="46.88792" lon="6.36935">
        <ele>947</ele>
        <time>2019-05-04T05:03:44Z</time>
      </trkpt>
      <trkpt lat="46.88797" lon="6.36956">
        <ele>950</ele>
        <time>2019-05-04T05:03:55Z</time>
      </trkpt>
      <trkpt lat="46.88763" lon="6.36987">
        <ele>960</ele>
        <time>2019-05-04T05:04:24Z</time>
      </trkpt>
      <trkpt lat="46.88753" lon="6.36997">
        <ele>963</ele>
        <time>2019-05-04T05:04:34Z</time>
      </trkpt>
      <trkpt lat="46.88758" lon="6.37">
        <ele>963</ele>
        <time>2019-05-04T05:04:38Z</time>
      </trkpt>
      <trkpt lat="46.88762" lon="6.36992">
        <ele>961</ele>
        <time>2019-05-04T05:04:43Z</time>
      </trkpt>
      <trkpt lat="46.88676" lon="6.36945">
        <ele>967</ele>
        <time>2019-05-04T05:05:49Z</time>
      </trkpt>
      <trkpt lat="46.88666" lon="6.36986">
        <ele>975</ele>
        <time>2019-05-04T05:06:11Z</time>
      </trkpt>
      <trkpt lat="46.88646" lon="6.37013">
        <ele>982</ele>
        <time>2019-05-04T05:06:32Z</time>
      </trkpt>
      <trkpt lat="46.88435" lon="6.36981">
        <ele>993</ele>
        <time>2019-05-04T05:09:05Z</time>
      </trkpt>
      <trkpt lat="46.88415" lon="6.36982">
        <ele>992</ele>
        <time>2019-05-04T05:09:19Z</time>
      </trkpt>
      <trkpt lat="46.88407" lon="6.37023">
        <ele>995</ele>
        <time>2019-05-04T05:09:41Z</time>
      </trkpt>
      <trkpt lat="46.88473" lon="6.36798">
        <ele>950</ele>
        <time>2019-05-04T05:11:45Z</time>
      </trkpt>
      <trkpt lat="46.88465" lon="6.36802">
        <ele>952</ele>
        <time>2019-05-04T05:11:52Z</time>
      </trkpt>
      <trkpt lat="46.88457" lon="6.36811">
        <ele>956</ele>
        <time>2019-05-04T05:11:59Z</time>
      </trkpt>
      <trkpt lat="46.88245" lon="6.37071">
        <ele>917</ele>
        <time>2019-05-04T05:15:21Z</time>
      </trkpt>
      <trkpt lat="46.88247" lon="6.37072">
        <ele>918</ele>
        <time>2019-05-04T05:15:23Z</time>
      </trkpt>
      <trkpt lat="46.8824" lon="6.37071">
        <ele>914</ele>
        <time>2019-05-04T05:15:28Z</time>
      </trkpt>
      <trkpt lat="46.88345" lon="6.37222">
        <ele>998</ele>
        <time>2019-05-04T05:17:27Z</time>
      </trkpt>
      <trkpt lat="46.88319" lon="6.37216">
        <ele>980</ele>
        <time>2019-05-04T05:17:49Z</time>
      </trkpt>
      <trkpt lat="46.88303" lon="6.37203">
        <ele>967</ele>
        <time>2019-05-04T05:18:05Z</time>
      </trkpt>
      <trkpt lat="46.88302" lon="6.37211">
        <ele>967</ele>
        <time>2019-05-04T05:18:10Z</time>
      </trkpt>
      <trkpt lat="46.88302" lon="6.37223">
        <ele>969</ele>
        <time>2019-05-04T05:18:15Z</time>
      </trkpt>
      <trkpt lat="46.88181" lon="6.3762">
        <ele>997</ele>
        <time>2019-05-04T05:21:51Z</time>
      </trkpt>
      <trkpt lat="46.8819" lon="6.37642">
        <ele>1007</ele>
        <time>2019-05-04T05:22:06Z</time>
      </trkpt>
      <trkpt lat="46.88192" lon="6.37644">
        <ele>1008</ele>
        <time>2019-05-04T05:22:07Z</time>
      </trkpt>
      <trkpt lat="46.8819" lon="6.37663">
        <ele>1013</ele>
        <time>2019-05-04T05:22:17Z</time>
      </trkpt>
      <trkpt lat="46.88197" lon="6.37679">
        <ele>1020</ele>
        <time>2019-05-04T05:22:28Z</time>
      </trkpt>
      <trkpt lat="46.88163" lon="6.37853">
        <ele>1053</ele>
        <time>2019-05-04T05:24:00Z</time>
      </trkpt>
      <trkpt lat="46.88157" lon="6.37857">
        <ele>1053</ele>
        <time>2019-05-04T05:24:05Z</time>
      </trkpt>
      <trkpt lat="46.88157" lon="6.37854">
        <ele>1053</ele>
        <time>2019-05-04T05:24:06Z</time>
      </trkpt>
      <trkpt lat="46.88153" lon="6.3785">
        <ele>1052</ele>
        <time>2019-05-04T05:24:10Z</time>
      </trkpt>
      <trkpt lat="46.88153" lon="6.37849">
        <ele>1052</ele>
        <time>2019-05-04T05:24:10Z</time>
      </trkpt>
      <trkpt lat="46.88155" lon="6.37852">
        <ele>1052</ele>
        <time>2019-05-04T05:24:12Z</time>
      </trkpt>
      <trkpt lat="46.88012" lon="6.37836">
        <ele>1036</ele>
        <time>2019-05-04T05:25:56Z</time>
      </trkpt>
      <trkpt lat="46.88007" lon="6.37843">
        <ele>1038</ele>
        <time>2019-05-04T05:26:01Z</time>
      </trkpt>
      <trkpt lat="46.87995" lon="6.37849">
        <ele>1039</ele>
        <time>2019-05-04T05:26:11Z</time>
      </trkpt>
      <trkpt lat="46.87974" lon="6.37852">
        <ele>1037</ele>
        <time>2019-05-04T05:26:26Z</time>
      </trkpt>
      <trkpt lat="46.87956" lon="6.37856">
        <ele>1037</ele>
        <time>2019-05-04T05:26:39Z</time>
      </trkpt>
      <trkpt lat="46.87646" lon="6.37781">
        <ele>1004</ele>
        <time>2019-05-04T05:30:27Z</time>
      </trkpt>
      <trkpt lat="46.87653" lon="6.37783">
        <ele>1006</ele>
        <time>2019-05-04T05:30:32Z</time>
      </trkpt>
      <trkpt lat="46.87654" lon="6.37782">
        <ele>1006</ele>
        <time>2019-05-04T05:30:33Z</time>
      </trkpt>
      <trkpt lat="46.87655" lon="6.3778">
        <ele>1006</ele>
        <time>2019-05-04T05:30:34Z</time>
      </trkpt>
      <trkpt lat="46.87657" lon="6.37774">
        <ele>1006</ele>
        <time>2019-05-04T05:30:37Z</time>
      </trkpt>
      <trkpt lat="46.87582" lon="6.3772">
        <ele>936</ele>
        <time>2019-05-04T05:31:53Z</time>
      </trkpt>
      <trkpt lat="46.87574" lon="6.37726">
        <ele>937</ele>
        <time>2019-05-04T05:32:00Z</time>
      </trkpt>
      <trkpt lat="46.87521" lon="6.3779">
        <ele>950</ele>
        <time>2019-05-04T05:32:50Z</time>
      </trkpt>
      <trkpt lat="46.87515" lon="6.37794">
        <ele>949</ele>
        <time>2019-05-04T05:32:55Z</time>
      </trkpt>
      <trkpt lat="46.87515" lon="6.37798">
        <ele>951</ele>
        <time>2019-05-04T05:32:58Z</time>
      </trkpt>
      <trkpt lat="46.87516" lon="6.37801">
        <ele>952</ele>
        <time>2019-05-04T05:32:59Z</time>
      </trkpt>
      <trkpt lat="46.87516" lon="6.37804">
        <ele>953</ele>
        <time>2019-05-04T05:33:01Z</time>
      </trkpt>
      <trkpt lat="46.87515" lon="6.37806">
        <ele>954</ele>
        <time>2019-05-04T05:33:02Z</time>
      </trkpt>
      <trkpt lat="46.87514" lon="6.37812">
        <ele>956</ele>
        <time>2019-05-04T05:33:06Z</time>
      </trkpt>
      <trkpt lat="46.87503" lon="6.37811">
        <ele>951</ele>
        <time>2019-05-04T05:33:14Z</time>
      </trkpt>
      <trkpt lat="46.87497" lon="6.37819">
        <ele>952</ele>
        <time>2019-05-04T05:33:20Z</time>
      </trkpt>
      <trkpt lat="46.87495" lon="6.37821">
        <ele>953</ele>
        <time>2019-05-04T05:33:22Z</time>
      </trkpt>
      <trkpt lat="46.87474" lon="6.37806">
        <ele>938</ele>
        <time>2019-05-04T05:33:41Z</time>
      </trkpt>
      <trkpt lat="46.87471" lon="6.37814">
        <ele>940</ele>
        <time>2019-05-04T05:33:46Z</time>
      </trkpt>
      <trkpt lat="46.8747" lon="6.37817">
        <ele>941</ele>
        <time>2019-05-04T05:33:48Z</time>
      </trkpt>
      <trkpt lat="46.87447" lon="6.37747">
        <ele>903</ele>
        <time>2019-05-04T05:34:34Z</time>
      </trkpt>
      <trkpt lat="46.87451" lon="6.37745">
        <ele>904</ele>
        <time>2019-05-04T05:34:37Z</time>
      </trkpt>
      <trkpt lat="46.87456" lon="6.37742">
        <ele>904</ele>
        <time>2019-05-04T05:34:41Z</time>
      </trkpt>
      <trkpt lat="46.87459" lon="6.37741">
        <ele>905</ele>
        <time>2019-05-04T05:34:43Z</time>
      </trkpt>
      <trkpt lat="46.87476" lon="6.37751">
        <ele>914</ele>
        <time>2019-05-04T05:34:58Z</time>
      </trkpt>
      <trkpt lat="46.87478" lon="6.37754">
        <ele>916</ele>
        <time>2019-05-04T05:35:00Z</time>
      </trkpt>
      <trkpt lat="46.87477" lon="6.37751">
        <ele>915</ele>
        <time>2019-05-04T05:35:02Z</time>
      </trkpt>
      <trkpt lat="46.87478" lon="6.37754">
        <ele>916</ele>
        <time>2019-05-04T05:35:03Z</time>
      </trkpt>
      <trkpt lat="46.87466" lon="6.37611">
        <ele>885</ele>
        <time>2019-05-04T05:36:17Z</time>
      </trkpt>
      <trkpt lat="46.87436" lon="6.37648">
        <ele>889</ele>
        <time>2019-05-04T05:36:45Z</time>
      </trkpt>
      <trkpt lat="46.87413" lon="6.37645">
        <ele>891</ele>
        <time>2019-05-04T05:37:03Z</time>
      </trkpt>
      <trkpt lat="46.87402" lon="6.37673">
        <ele>885</ele>
        <time>2019-05-04T05:37:19Z</time>
      </trkpt>
      <trkpt lat="46.87383" lon="6.37686">
        <ele>881</ele>
        <time>2019-05-04T05:37:35Z</time>
      </trkpt>
      <trkpt lat="46.8724" lon="6.37977">
        <ele>870</ele>
        <time>2019-05-04T05:40:32Z</time>
      </trkpt>
      <trkpt lat="46.87235" lon="6.3798">
        <ele>869</ele>
        <time>2019-05-04T05:40:36Z</time>
      </trkpt>
      <trkpt lat="46.87228" lon="6.37999">
        <ele>867</ele>
        <time>2019-05-04T05:40:47Z</time>
      </trkpt>
      <trkpt lat="46.87231" lon="6.38028">
        <ele>867</ele>
        <time>2019-05-04T05:41:01Z</time>
      </trkpt>
      <trkpt lat="46.87268" lon="6.38507">
        <ele>866</ele>
        <time>2019-05-04T05:45:00Z</time>
      </trkpt>
      <trkpt lat="46.87259" lon="6.38526">
        <ele>865</ele>
        <time>2019-05-04T05:45:12Z</time>
      </trkpt>
      <trkpt lat="46.87259" lon="6.38553">
        <ele>866</ele>
        <time>2019-05-04T05:45:25Z</time>
      </trkpt>
      <trkpt lat="46.87288" lon="6.3899">
        <ele>876</ele>
        <time>2019-05-04T05:49:02Z</time>
      </trkpt>
      <trkpt lat="46.87301" lon="6.39027">
        <ele>881</ele>
        <time>2019-05-04T05:49:23Z</time>
      </trkpt>
      <trkpt lat="46.87276" lon="6.39034">
        <ele>874</ele>
        <time>2019-05-04T05:49:42Z</time>
      </trkpt>
      <trkpt lat="46.87274" lon="6.39056">
        <ele>874</ele>
        <time>2019-05-04T05:49:54Z</time>
      </trkpt>
      <trkpt lat="46.87311" lon="6.39453">
        <ele>872</ele>
        <time>2019-05-04T05:53:12Z</time>
      </trkpt>
      <trkpt lat="46.87298" lon="6.39493">
        <ele>869</ele>
        <time>2019-05-04T05:53:34Z</time>
      </trkpt>
      <trkpt lat="46.87294" lon="6.39505">
        <ele>868</ele>
        <time>2019-05-04T05:53:40Z</time>
      </trkpt>
      <trkpt lat="46.87288" lon="6.39531">
        <ele>867</ele>
        <time>2019-05-04T05:53:54Z</time>
      </trkpt>
      <trkpt lat="46.87302" lon="6.39685">
        <ele>869</ele>
        <time>2019-05-04T05:55:11Z</time>
      </trkpt>
      <trkpt lat="46.87303" lon="6.39694">
        <ele>869</ele>
        <time>2019-05-04T05:55:15Z</time>
      </trkpt>
      <trkpt lat="46.87247" lon="6.39786">
        <ele>873</ele>
        <time>2019-05-04T05:56:16Z</time>
      </trkpt>
      <trkpt lat="46.87225" lon="6.39859">
        <ele>886</ele>
        <time>2019-05-04T05:56:56Z</time>
      </trkpt>
      <trkpt lat="46.87232" lon="6.39872">
        <ele>887</ele>
        <time>2019-05-04T05:57:04Z</time>
      </trkpt>
      <trkpt lat="46.87318" lon="6.40206">
        <ele>905</ele>
        <time>2019-05-04T06:00:02Z</time>
      </trkpt>
      <trkpt lat="46.87319" lon="6.40242">
        <ele>907</ele>
        <time>2019-05-04T06:00:20Z</time>
      </trkpt>
      <trkpt lat="46.87328" lon="6.40258">
        <ele>905</ele>
        <time>2019-05-04T06:00:30Z</time>
      </trkpt>
      <trkpt lat="46.8731" lon="6.40278">
        <ele>911</ele>
        <time>2019-05-04T06:00:46Z</time>
      </trkpt>
      <trkpt lat="46.873" lon="6.40287">
        <ele>913</ele>
        <time>2019-05-04T06:00:55Z</time>
      </trkpt>
      <trkpt lat="46.87133" lon="6.40585">
        <ele>924</ele>
        <time>2019-05-04T06:04:06Z</time>
      </trkpt>
      <trkpt lat="46.87149" lon="6.40604">
        <ele>923</ele>
        <time>2019-05-04T06:04:21Z</time>
      </trkpt>
      <trkpt lat="46.87161" lon="6.40627">
        <ele>925</ele>
        <time>2019-05-04T06:04:35Z</time>
      </trkpt>
      <trkpt lat="46.87312" lon="6.40949">
        <ele>945</ele>
        <time>2019-05-04T06:07:48Z</time>
      </trkpt>
      <trkpt lat="46.87317" lon="6.40963">
        <ele>946</ele>
        <time>2019-05-04T06:07:56Z</time>
      </trkpt>
      <trkpt lat="46.87322" lon="6.40991">
        <ele>947</ele>
        <time>2019-05-04T06:08:11Z</time>
      </trkpt>
      <trkpt lat="46.87474" lon="6.41411">
        <ele>946</ele>
        <time>2019-05-04T06:12:06Z</time>
      </trkpt>
      <trkpt lat="46.87482" lon="6.41437">
        <ele>946</ele>
        <time>2019-05-04T06:12:20Z</time>
      </trkpt>
      <trkpt lat="46.87506" lon="6.41781">
        <ele>961</ele>
        <time>2019-05-04T06:15:11Z</time>
      </trkpt>
      <trkpt lat="46.87501" lon="6.41778">
        <ele>962</ele>
        <time>2019-05-04T06:15:15Z</time>
      </trkpt>
      <trkpt lat="46.87488" lon="6.41766">
        <ele>964</ele>
        <time>2019-05-04T06:15:27Z</time>
      </trkpt>
      <trkpt lat="46.87481" lon="6.41753">
        <ele>965</ele>
        <time>2019-05-04T06:15:34Z</time>
      </trkpt>
      <trkpt lat="46.87476" lon="6.41738">
        <ele>965</ele>
        <time>2019-05-04T06:15:43Z</time>
      </trkpt>
      <trkpt lat="46.87342" lon="6.41438">
        <ele>976</ele>
        <time>2019-05-04T06:18:40Z</time>
      </trkpt>
      <trkpt lat="46.8733" lon="6.41439">
        <ele>978</ele>
        <time>2019-05-04T06:18:49Z</time>
      </trkpt>
      <trkpt lat="46.8732" lon="6.41433">
        <ele>979</ele>
        <time>2019-05-04T06:18:57Z</time>
      </trkpt>
      <trkpt lat="46.87309" lon="6.41426">
        <ele>981</ele>
        <time>2019-05-04T06:19:06Z</time>
      </trkpt>
      <trkpt lat="46.87296" lon="6.41411">
        <ele>982</ele>
        <time>2019-05-04T06:19:18Z</time>
      </trkpt>
      <trkpt lat="46.87288" lon="6.41402">
        <ele>983</ele>
        <time>2019-05-04T06:19:25Z</time>
      </trkpt>
      <trkpt lat="46.87091" lon="6.41411">
        <ele>1014</ele>
        <time>2019-05-04T06:21:49Z</time>
      </trkpt>
      <trkpt lat="46.87104" lon="6.41426">
        <ele>1014</ele>
        <time>2019-05-04T06:22:00Z</time>
      </trkpt>
      <trkpt lat="46.87131" lon="6.41421">
        <ele>1007</ele>
        <time>2019-05-04T06:22:20Z</time>
      </trkpt>
      <trkpt lat="46.8713" lon="6.41426">
        <ele>1008</ele>
        <time>2019-05-04T06:22:23Z</time>
      </trkpt>
      <trkpt lat="46.87145" lon="6.4144">
        <ele>1008</ele>
        <time>2019-05-04T06:22:36Z</time>
      </trkpt>
      <trkpt lat="46.87149" lon="6.41444">
        <ele>1007</ele>
        <time>2019-05-04T06:22:39Z</time>
      </trkpt>
      <trkpt lat="46.87024" lon="6.41505">
        <ele>1037</ele>
        <time>2019-05-04T06:24:16Z</time>
      </trkpt>
      <trkpt lat="46.87046" lon="6.41541">
        <ele>1035</ele>
        <time>2019-05-04T06:24:40Z</time>
      </trkpt>
      <trkpt lat="46.87063" lon="6.41566">
        <ele>1033</ele>
        <time>2019-05-04T06:24:58Z</time>
      </trkpt>
      <trkpt lat="46.87069" lon="6.41574">
        <ele>1033</ele>
        <time>2019-05-04T06:25:03Z</time>
      </trkpt>
      <trkpt lat="46.87082" lon="6.41609">
        <ele>1033</ele>
        <time>2019-05-04T06:25:23Z</time>
      </trkpt>
      <trkpt lat="46.8724" lon="6.41806">
        <ele>1036</ele>
        <time>2019-05-04T06:27:53Z</time>
      </trkpt>
      <trkpt lat="46.8724" lon="6.41806">
        <ele>1036</ele>
        <time>2019-05-04T06:27:53Z</time>
      </trkpt>
      <trkpt lat="46.87257" lon="6.41832">
        <ele>1035</ele>
        <time>2019-05-04T06:28:11Z</time>
      </trkpt>
      <trkpt lat="46.87368" lon="6.42178">
        <ele>1040</ele>
        <time>2019-05-04T06:31:20Z</time>
      </trkpt>
      <trkpt lat="46.87354" lon="6.42174">
        <ele>1041</ele>
        <time>2019-05-04T06:31:30Z</time>
      </trkpt>
      <trkpt lat="46.87359" lon="6.42188">
        <ele>1042</ele>
        <time>2019-05-04T06:31:38Z</time>
      </trkpt>
      <trkpt lat="46.87357" lon="6.42201">
        <ele>1043</ele>
        <time>2019-05-04T06:31:45Z</time>
      </trkpt>
      <trkpt lat="46.87507" lon="6.42556">
        <ele>1059</ele>
        <time>2019-05-04T06:35:12Z</time>
      </trkpt>
      <trkpt lat="46.87494" lon="6.42582">
        <ele>1060</ele>
        <time>2019-05-04T06:35:27Z</time>
      </trkpt>
      <trkpt lat="46.8749" lon="6.42607">
        <ele>1060</ele>
        <time>2019-05-04T06:35:40Z</time>
      </trkpt>
      <trkpt lat="46.8762" lon="6.42955">
        <ele>1067</ele>
        <time>2019-05-04T06:38:57Z</time>
      </trkpt>
      <trkpt lat="46.87623" lon="6.4296">
        <ele>1067</ele>
        <time>2019-05-04T06:39:00Z</time>
      </trkpt>
      <trkpt lat="46.87641" lon="6.42969">
        <ele>1068</ele>
        <time>2019-05-04T06:39:13Z</time>
      </trkpt>
      <trkpt lat="46.87609" lon="6.42968">
        <ele>1068</ele>
        <time>2019-05-04T06:39:36Z</time>
      </trkpt>
      <trkpt lat="46.87697" lon="6.43219">
        <ele>1071</ele>
        <time>2019-05-04T06:41:56Z</time>
      </trkpt>
      <trkpt lat="46.87703" lon="6.43227">
        <ele>1071</ele>
        <time>2019-05-04T06:42:01Z</time>
      </trkpt>
      <trkpt lat="46.87701" lon="6.43219">
        <ele>1071</ele>
        <time>2019-05-04T06:42:05Z</time>
      </trkpt>
      <trkpt lat="46.87687" lon="6.43225">
        <ele>1073</ele>
        <time>2019-05-04T06:42:16Z</time>
      </trkpt>
      <trkpt lat="46.87679" lon="6.43249">
        <ele>1074</ele>
        <time>2019-05-04T06:42:30Z</time>
      </trkpt>
      <trkpt lat="46.87668" lon="6.43276">
        <ele>1077</ele>
        <time>2019-05-04T06:42:45Z</time>
      </trkpt>
      <trkpt lat="46.87617" lon="6.43604">
        <ele>1118</ele>
        <time>2019-05-04T06:45:34Z</time>
      </trkpt>
      <trkpt lat="46.87615" lon="6.43627">
        <ele>1119</ele>
        <time>2019-05-04T06:45:45Z</time>
      </trkpt>
      <trkpt lat="46.87663" lon="6.43643">
        <ele>1110</ele>
        <time>2019-05-04T06:46:21Z</time>
      </trkpt>
      <trkpt lat="46.87688" lon="6.43663">
        <ele>1107</ele>
        <time>2019-05-04T06:46:42Z</time>
      </trkpt>
      <trkpt lat="46.87671" lon="6.43671">
        <ele>1110</ele>
        <time>2019-05-04T06:46:55Z</time>
      </trkpt>
      <trkpt lat="46.87661" lon="6.4367">
        <ele>1112</ele>
        <time>2019-05-04T06:47:03Z</time>
      </trkpt>
      <trkpt lat="46.8762" lon="6.43749">
        <ele>1117</ele>
        <time>2019-05-04T06:47:52Z</time>
      </trkpt>
      <trkpt lat="46.87626" lon="6.43759">
        <ele>1116</ele>
        <time>2019-05-04T06:47:58Z</time>
      </trkpt>
      <trkpt lat="46.87626" lon="6.43759">
        <ele>1116</ele>
        <time>2019-05-04T06:47:58Z</time>
      </trkpt>
      <trkpt lat="46.87603" lon="6.43756">
        <ele>1117</ele>
        <time>2019-05-04T06:48:14Z</time>
      </trkpt>
      <trkpt lat="46.87604" lon="6.43759">
        <ele>1117</ele>
        <time>2019-05-04T06:48:16Z</time>
      </trkpt>
      <trkpt lat="46.87595" lon="6.43772">
        <ele>1117</ele>
        <time>2019-05-04T06:48:25Z</time>
      </trkpt>
      <trkpt lat="46.8743" lon="6.43831">
        <ele>1128</ele>
        <time>2019-05-04T06:50:28Z</time>
      </trkpt>
      <trkpt lat="46.87431" lon="6.43826">
        <ele>1128</ele>
        <time>2019-05-04T06:50:31Z</time>
      </trkpt>
      <trkpt lat="46.87404" lon="6.43847">
        <ele>1133</ele>
        <time>2019-05-04T06:50:53Z</time>
      </trkpt>
      <trkpt lat="46.87375" lon="6.43737">
        <ele>1149</ele>
        <time>2019-05-04T06:51:52Z</time>
      </trkpt>
      <trkpt lat="46.87397" lon="6.44046">
        <ele>1154</ele>
        <time>2019-05-04T06:54:25Z</time>
      </trkpt>
      <trkpt lat="46.87379" lon="6.4403">
        <ele>1155</ele>
        <time>2019-05-04T06:54:40Z</time>
      </trkpt>
      <trkpt lat="46.87407" lon="6.44034">
        <ele>1151</ele>
        <time>2019-05-04T06:55:01Z</time>
      </trkpt>
      <trkpt lat="46.87409" lon="6.44033">
        <ele>1151</ele>
        <time>2019-05-04T06:55:02Z</time>
      </trkpt>
      <trkpt lat="46.87401" lon="6.44046">
        <ele>1154</ele>
        <time>2019-05-04T06:55:11Z</time>
      </trkpt>
      <trkpt lat="46.87138" lon="6.43911">
        <ele>1175</ele>
        <time>2019-05-04T06:58:32Z</time>
      </trkpt>
      <trkpt lat="46.87284" lon="6.44145">
        <ele>1163</ele>
        <time>2019-05-04T07:01:09Z</time>
      </trkpt>
      <trkpt lat="46.8726" lon="6.44151">
        <ele>1163</ele>
        <time>2019-05-04T07:01:26Z</time>
      </trkpt>
      <trkpt lat="46.87264" lon="6.44159">
        <ele>1163</ele>
        <time>2019-05-04T07:01:31Z</time>
      </trkpt>
      <trkpt lat="46.87082" lon="6.44297">
        <ele>1179</ele>
        <time>2019-05-04T07:04:00Z</time>
      </trkpt>
      <trkpt lat="46.87092" lon="6.44315">
        <ele>1179</ele>
        <time>2019-05-04T07:04:12Z</time>
      </trkpt>
      <trkpt lat="46.87142" lon="6.4443">
        <ele>1178</ele>
        <time>2019-05-04T07:05:19Z</time>
      </trkpt>
      <trkpt lat="46.87135" lon="6.44468">
        <ele>1178</ele>
        <time>2019-05-04T07:05:39Z</time>
      </trkpt>
      <trkpt lat="46.8713" lon="6.44481">
        <ele>1178</ele>
        <time>2019-05-04T07:05:46Z</time>
      </trkpt>
      <trkpt lat="46.8712" lon="6.44501">
        <ele>1179</ele>
        <time>2019-05-04T07:05:58Z</time>
      </trkpt>
      <trkpt lat="46.87122" lon="6.44504">
        <ele>1179</ele>
        <time>2019-05-04T07:06:00Z</time>
      </trkpt>
      <trkpt lat="46.87181" lon="6.44936">
        <ele>1179</ele>
        <time>2019-05-04T07:09:38Z</time>
      </trkpt>
      <trkpt lat="46.87163" lon="6.44965">
        <ele>1177</ele>
        <time>2019-05-04T07:09:57Z</time>
      </trkpt>
      <trkpt lat="46.87166" lon="6.44961">
        <ele>1177</ele>
        <time>2019-05-04T07:10:00Z</time>
      </trkpt>
      <trkpt lat="46.87168" lon="6.44956">
        <ele>1178</ele>
        <time>2019-05-04T07:10:03Z</time>
      </trkpt>
      <trkpt lat="46.8693" lon="6.45211">
        <ele>1170</ele>
        <time>2019-05-04T07:13:36Z</time>
      </trkpt>
      <trkpt lat="46.86923" lon="6.45237">
        <ele>1169</ele>
        <time>2019-05-04T07:13:50Z</time>
      </trkpt>
      <trkpt lat="46.86912" lon="6.4526">
        <ele>1167</ele>
        <time>2019-05-04T07:14:04Z</time>
      </trkpt>
      <trkpt lat="46.86906" lon="6.45284">
        <ele>1166</ele>
        <time>2019-05-04T07:14:17Z</time>
      </trkpt>
      <trkpt lat="46.86902" lon="6.453">
        <ele>1165</ele>
        <time>2019-05-04T07:14:25Z</time>
      </trkpt>
      <trkpt lat="46.869" lon="6.45329">
        <ele>1165</ele>
        <time>2019-05-04T07:14:39Z</time>
      </trkpt>
      <trkpt lat="46.86899" lon="6.45333">
        <ele>1164</ele>
        <time>2019-05-04T07:14:42Z</time>
      </trkpt>
      <trkpt lat="46.86898" lon="6.45346">
        <ele>1164</ele>
        <time>2019-05-04T07:14:48Z</time>
      </trkpt>
      <trkpt lat="46.86897" lon="6.45367">
        <ele>1163</ele>
        <time>2019-05-04T07:14:58Z</time>
      </trkpt>
      <trkpt lat="46.86897" lon="6.45387">
        <ele>1163</ele>
        <time>2019-05-04T07:15:09Z</time>
      </trkpt>
      <trkpt lat="46.86898" lon="6.45407">
        <ele>1163</ele>
        <time>2019-05-04T07:15:18Z</time>
      </trkpt>
      <trkpt lat="46.869" lon="6.45424">
        <ele>1163</ele>
        <time>2019-05-04T07:15:27Z</time>
      </trkpt>
      <trkpt lat="46.86896" lon="6.4544">
        <ele>1162</ele>
        <time>2019-05-04T07:15:36Z</time>
      </trkpt>
      <trkpt lat="46.86894" lon="6.4545">
        <ele>1162</ele>
        <time>2019-05-04T07:15:41Z</time>
      </trkpt>
      <trkpt lat="46.86891" lon="6.45464">
        <ele>1161</ele>
        <time>2019-05-04T07:15:48Z</time>
      </trkpt>
      <trkpt lat="46.86888" lon="6.45476">
        <ele>1160</ele>
        <time>2019-05-04T07:15:54Z</time>
      </trkpt>
      <trkpt lat="46.86885" lon="6.45487">
        <ele>1159</ele>
        <time>2019-05-04T07:16:00Z</time>
      </trkpt>
      <trkpt lat="46.86881" lon="6.45504">
        <ele>1158</ele>
        <time>2019-05-04T07:16:09Z</time>
      </trkpt>
      <trkpt lat="46.8688" lon="6.45513">
        <ele>1157</ele>
        <time>2019-05-04T07:16:14Z</time>
      </trkpt>
      <trkpt lat="46.86878" lon="6.45521">
        <ele>1157</ele>
        <time>2019-05-04T07:16:18Z</time>
      </trkpt>
      <trkpt lat="46.8687" lon="6.45546">
        <ele>1154</ele>
        <time>2019-05-04T07:16:32Z</time>
      </trkpt>
      <trkpt lat="46.86868" lon="6.4555">
        <ele>1154</ele>
        <time>2019-05-04T07:16:34Z</time>
      </trkpt>
      <trkpt lat="46.86863" lon="6.45563">
        <ele>1153</ele>
        <time>2019-05-04T07:16:41Z</time>
      </trkpt>
      <trkpt lat="46.86854" lon="6.45575">
        <ele>1151</ele>
        <time>2019-05-04T07:16:50Z</time>
      </trkpt>
      <trkpt lat="46.86848" lon="6.45577">
        <ele>1150</ele>
        <time>2019-05-04T07:16:55Z</time>
      </trkpt>
      <trkpt lat="46.86845" lon="6.45576">
        <ele>1150</ele>
        <time>2019-05-04T07:16:57Z</time>
      </trkpt>
      <trkpt lat="46.86826" lon="6.45585">
        <ele>1147</ele>
        <time>2019-05-04T07:17:11Z</time>
      </trkpt>
      <trkpt lat="46.86816" lon="6.45589">
        <ele>1146</ele>
        <time>2019-05-04T07:17:19Z</time>
      </trkpt>
      <trkpt lat="46.86804" lon="6.45594">
        <ele>1145</ele>
        <time>2019-05-04T07:17:28Z</time>
      </trkpt>
      <trkpt lat="46.86788" lon="6.45602">
        <ele>1143</ele>
        <time>2019-05-04T07:17:40Z</time>
      </trkpt>
      <trkpt lat="46.86778" lon="6.45605">
        <ele>1142</ele>
        <time>2019-05-04T07:17:48Z</time>
      </trkpt>
      <trkpt lat="46.86767" lon="6.45607">
        <ele>1141</ele>
        <time>2019-05-04T07:17:56Z</time>
      </trkpt>
      <trkpt lat="46.86756" lon="6.45606">
        <ele>1140</ele>
        <time>2019-05-04T07:18:04Z</time>
      </trkpt>
      <trkpt lat="46.86743" lon="6.45603">
        <ele>1138</ele>
        <time>2019-05-04T07:18:14Z</time>
      </trkpt>
      <trkpt lat="46.86731" lon="6.45607">
        <ele>1137</ele>
        <time>2019-05-04T07:18:23Z</time>
      </trkpt>
      <trkpt lat="46.86722" lon="6.45614">
        <ele>1136</ele>
        <time>2019-05-04T07:18:30Z</time>
      </trkpt>
      <trkpt lat="46.86712" lon="6.45626">
        <ele>1135</ele>
        <time>2019-05-04T07:18:39Z</time>
      </trkpt>
      <trkpt lat="46.86704" lon="6.45645">
        <ele>1134</ele>
        <time>2019-05-04T07:18:50Z</time>
      </trkpt>
      <trkpt lat="46.86702" lon="6.45653">
        <ele>1134</ele>
        <time>2019-05-04T07:18:54Z</time>
      </trkpt>
      <trkpt lat="46.86702" lon="6.45683">
        <ele>1133</ele>
        <time>2019-05-04T07:19:09Z</time>
      </trkpt>
      <trkpt lat="46.86713" lon="6.45704">
        <ele>1134</ele>
        <time>2019-05-04T07:19:22Z</time>
      </trkpt>
      <trkpt lat="46.86724" lon="6.45725">
        <ele>1134</ele>
        <time>2019-05-04T07:19:35Z</time>
      </trkpt>
      <trkpt lat="46.86737" lon="6.45744">
        <ele>1134</ele>
        <time>2019-05-04T07:19:49Z</time>
      </trkpt>
      <trkpt lat="46.86754" lon="6.45762">
        <ele>1135</ele>
        <time>2019-05-04T07:20:04Z</time>
      </trkpt>
      <trkpt lat="46.86767" lon="6.45774">
        <ele>1136</ele>
        <time>2019-05-04T07:20:15Z</time>
      </trkpt>
      <trkpt lat="46.86776" lon="6.45778">
        <ele>1136</ele>
        <time>2019-05-04T07:20:22Z</time>
      </trkpt>
      <trkpt lat="46.86793" lon="6.45785">
        <ele>1138</ele>
        <time>2019-05-04T07:20:35Z</time>
      </trkpt>
      <trkpt lat="46.8681" lon="6.45801">
        <ele>1138</ele>
        <time>2019-05-04T07:20:50Z</time>
      </trkpt>
      <trkpt lat="46.86821" lon="6.45824">
        <ele>1138</ele>
        <time>2019-05-04T07:21:03Z</time>
      </trkpt>
      <trkpt lat="46.86826" lon="6.45852">
        <ele>1136</ele>
        <time>2019-05-04T07:21:18Z</time>
      </trkpt>
      <trkpt lat="46.86832" lon="6.4588">
        <ele>1135</ele>
        <time>2019-05-04T07:21:32Z</time>
      </trkpt>
      <trkpt lat="46.86834" lon="6.45888">
        <ele>1135</ele>
        <time>2019-05-04T07:21:37Z</time>
      </trkpt>
      <trkpt lat="46.8684" lon="6.45913">
        <ele>1134</ele>
        <time>2019-05-04T07:21:50Z</time>
      </trkpt>
      <trkpt lat="46.86842" lon="6.45917">
        <ele>1133</ele>
        <time>2019-05-04T07:21:52Z</time>
      </trkpt>
      <trkpt lat="46.86848" lon="6.45946">
        <ele>1132</ele>
        <time>2019-05-04T07:22:07Z</time>
      </trkpt>
      <trkpt lat="46.86849" lon="6.45962">
        <ele>1133</ele>
        <time>2019-05-04T07:22:15Z</time>
      </trkpt>
      <trkpt lat="46.86851" lon="6.4599">
        <ele>1133</ele>
        <time>2019-05-04T07:22:29Z</time>
      </trkpt>
      <trkpt lat="46.86852" lon="6.46018">
        <ele>1134</ele>
        <time>2019-05-04T07:22:43Z</time>
      </trkpt>
      <trkpt lat="46.86852" lon="6.46034">
        <ele>1134</ele>
        <time>2019-05-04T07:22:51Z</time>
      </trkpt>
      <trkpt lat="46.86851" lon="6.46062">
        <ele>1133</ele>
        <time>2019-05-04T07:23:05Z</time>
      </trkpt>
      <trkpt lat="46.86851" lon="6.4609">
        <ele>1132</ele>
        <time>2019-05-04T07:23:19Z</time>
      </trkpt>
      <trkpt lat="46.8685" lon="6.46099">
        <ele>1132</ele>
        <time>2019-05-04T07:23:23Z</time>
      </trkpt>
      <trkpt lat="46.8685" lon="6.4612">
        <ele>1132</ele>
        <time>2019-05-04T07:23:34Z</time>
      </trkpt>
      <trkpt lat="46.86849" lon="6.46148">
        <ele>1132</ele>
        <time>2019-05-04T07:23:47Z</time>
      </trkpt>
      <trkpt lat="46.86847" lon="6.46175">
        <ele>1132</ele>
        <time>2019-05-04T07:24:01Z</time>
      </trkpt>
      <trkpt lat="46.86846" lon="6.46181">
        <ele>1132</ele>
        <time>2019-05-04T07:24:04Z</time>
      </trkpt>
      <trkpt lat="46.86844" lon="6.46192">
        <ele>1132</ele>
        <time>2019-05-04T07:24:10Z</time>
      </trkpt>
      <trkpt lat="46.86843" lon="6.46219">
        <ele>1134</ele>
        <time>2019-05-04T07:24:23Z</time>
      </trkpt>
      <trkpt lat="46.86844" lon="6.46231">
        <ele>1135</ele>
        <time>2019-05-04T07:24:29Z</time>
      </trkpt>
      <trkpt lat="46.86847" lon="6.46223">
        <ele>1135</ele>
        <time>2019-05-04T07:24:34Z</time>
      </trkpt>
      <trkpt lat="46.86847" lon="6.4622">
        <ele>1135</ele>
        <time>2019-05-04T07:24:35Z</time>
      </trkpt>
      <trkpt lat="46.86845" lon="6.46214">
        <ele>1134</ele>
        <time>2019-05-04T07:24:38Z</time>
      </trkpt>
      <trkpt lat="46.86848" lon="6.46204">
        <ele>1134</ele>
        <time>2019-05-04T07:24:44Z</time>
      </trkpt>
      <trkpt lat="46.86849" lon="6.46205">
        <ele>1134</ele>
        <time>2019-05-04T07:24:45Z</time>
      </trkpt>
      <trkpt lat="46.86848" lon="6.46209">
        <ele>1134</ele>
        <time>2019-05-04T07:24:47Z</time>
      </trkpt>
      <trkpt lat="46.86852" lon="6.46209">
        <ele>1135</ele>
        <time>2019-05-04T07:24:50Z</time>
      </trkpt>
      <trkpt lat="46.86852" lon="6.4621">
        <ele>1135</ele>
        <time>2019-05-04T07:24:51Z</time>
      </trkpt>
      <trkpt lat="46.86846" lon="6.46216">
        <ele>1134</ele>
        <time>2019-05-04T07:24:55Z</time>
      </trkpt>
      <trkpt lat="46.86844" lon="6.46214">
        <ele>1134</ele>
        <time>2019-05-04T07:24:57Z</time>
      </trkpt>
      <trkpt lat="46.86845" lon="6.46211">
        <ele>1134</ele>
        <time>2019-05-04T07:24:59Z</time>
      </trkpt>
      <trkpt lat="46.86849" lon="6.46215">
        <ele>1135</ele>
        <time>2019-05-04T07:25:03Z</time>
      </trkpt>
      <trkpt lat="46.86851" lon="6.46216">
        <ele>1135</ele>
        <time>2019-05-04T07:25:04Z</time>
      </trkpt>
      <trkpt lat="46.86853" lon="6.46224">
        <ele>1136</ele>
        <time>2019-05-04T07:25:09Z</time>
      </trkpt>
      <trkpt lat="46.86853" lon="6.46244">
        <ele>1137</ele>
        <time>2019-05-04T07:25:18Z</time>
      </trkpt>
      <trkpt lat="46.86846" lon="6.46255">
        <ele>1137</ele>
        <time>2019-05-04T07:25:26Z</time>
      </trkpt>
      <trkpt lat="46.86836" lon="6.46266">
        <ele>1137</ele>
        <time>2019-05-04T07:25:34Z</time>
      </trkpt>
      <trkpt lat="46.86833" lon="6.46279">
        <ele>1138</ele>
        <time>2019-05-04T07:25:41Z</time>
      </trkpt>
      <trkpt lat="46.86827" lon="6.46308">
        <ele>1140</ele>
        <time>2019-05-04T07:25:56Z</time>
      </trkpt>
      <trkpt lat="46.86827" lon="6.46312">
        <ele>1140</ele>
        <time>2019-05-04T07:25:58Z</time>
      </trkpt>
      <trkpt lat="46.86823" lon="6.46341">
        <ele>1143</ele>
        <time>2019-05-04T07:26:13Z</time>
      </trkpt>
      <trkpt lat="46.86821" lon="6.46352">
        <ele>1144</ele>
        <time>2019-05-04T07:26:19Z</time>
      </trkpt>
      <trkpt lat="46.86814" lon="6.4638">
        <ele>1144</ele>
        <time>2019-05-04T07:26:34Z</time>
      </trkpt>
      <trkpt lat="46.86812" lon="6.46394">
        <ele>1144</ele>
        <time>2019-05-04T07:26:41Z</time>
      </trkpt>
      <trkpt lat="46.8681" lon="6.46414">
        <ele>1144</ele>
        <time>2019-05-04T07:26:50Z</time>
      </trkpt>
      <trkpt lat="46.86808" lon="6.46418">
        <ele>1144</ele>
        <time>2019-05-04T07:26:53Z</time>
      </trkpt>
      <trkpt lat="46.8681" lon="6.46447">
        <ele>1145</ele>
        <time>2019-05-04T07:27:07Z</time>
      </trkpt>
      <trkpt lat="46.86816" lon="6.46475">
        <ele>1146</ele>
        <time>2019-05-04T07:27:22Z</time>
      </trkpt>
      <trkpt lat="46.86815" lon="6.46491">
        <ele>1145</ele>
        <time>2019-05-04T07:27:30Z</time>
      </trkpt>
      <trkpt lat="46.86816" lon="6.46506">
        <ele>1145</ele>
        <time>2019-05-04T07:27:38Z</time>
      </trkpt>
      <trkpt lat="46.86816" lon="6.46535">
        <ele>1145</ele>
        <time>2019-05-04T07:27:52Z</time>
      </trkpt>
      <trkpt lat="46.86813" lon="6.46561">
        <ele>1144</ele>
        <time>2019-05-04T07:28:05Z</time>
      </trkpt>
      <trkpt lat="46.86806" lon="6.4659">
        <ele>1143</ele>
        <time>2019-05-04T07:28:20Z</time>
      </trkpt>
      <trkpt lat="46.86804" lon="6.46594">
        <ele>1143</ele>
        <time>2019-05-04T07:28:23Z</time>
      </trkpt>
      <trkpt lat="46.86799" lon="6.46625">
        <ele>1142</ele>
        <time>2019-05-04T07:28:38Z</time>
      </trkpt>
      <trkpt lat="46.86799" lon="6.46634">
        <ele>1142</ele>
        <time>2019-05-04T07:28:43Z</time>
      </trkpt>
      <trkpt lat="46.86798" lon="6.46661">
        <ele>1141</ele>
        <time>2019-05-04T07:28:56Z</time>
      </trkpt>
      <trkpt lat="46.86798" lon="6.4669">
        <ele>1139</ele>
        <time>2019-05-04T07:29:11Z</time>
      </trkpt>
      <trkpt lat="46.86796" lon="6.46718">
        <ele>1138</ele>
        <time>2019-05-04T07:29:25Z</time>
      </trkpt>
      <trkpt lat="46.86796" lon="6.46735">
        <ele>1136</ele>
        <time>2019-05-04T07:29:33Z</time>
      </trkpt>
      <trkpt lat="46.868" lon="6.4675">
        <ele>1135</ele>
        <time>2019-05-04T07:29:41Z</time>
      </trkpt>
      <trkpt lat="46.86804" lon="6.46759">
        <ele>1135</ele>
        <time>2019-05-04T07:29:46Z</time>
      </trkpt>
      <trkpt lat="46.86806" lon="6.46766">
        <ele>1135</ele>
        <time>2019-05-04T07:29:50Z</time>
      </trkpt>
      <trkpt lat="46.8681" lon="6.46772">
        <ele>1135</ele>
        <time>2019-05-04T07:29:54Z</time>
      </trkpt>
      <trkpt lat="46.86816" lon="6.46782">
        <ele>1134</ele>
        <time>2019-05-04T07:30:01Z</time>
      </trkpt>
      <trkpt lat="46.86828" lon="6.46802">
        <ele>1134</ele>
        <time>2019-05-04T07:30:14Z</time>
      </trkpt>
      <trkpt lat="46.86829" lon="6.46806">
        <ele>1133</ele>
        <time>2019-05-04T07:30:16Z</time>
      </trkpt>
      <trkpt lat="46.86833" lon="6.46821">
        <ele>1133</ele>
        <time>2019-05-04T07:30:24Z</time>
      </trkpt>
      <trkpt lat="46.8684" lon="6.46836">
        <ele>1132</ele>
        <time>2019-05-04T07:30:33Z</time>
      </trkpt>
      <trkpt lat="46.86841" lon="6.46837">
        <ele>1132</ele>
        <time>2019-05-04T07:30:34Z</time>
      </trkpt>
      <trkpt lat="46.86852" lon="6.46844">
        <ele>1132</ele>
        <time>2019-05-04T07:30:43Z</time>
      </trkpt>
      <trkpt lat="46.86854" lon="6.46846">
        <ele>1132</ele>
        <time>2019-05-04T07:30:45Z</time>
      </trkpt>
      <trkpt lat="46.86854" lon="6.46847">
        <ele>1132</ele>
        <time>2019-05-04T07:30:45Z</time>
      </trkpt>
      <trkpt lat="46.86855" lon="6.46853">
        <ele>1131</ele>
        <time>2019-05-04T07:30:48Z</time>
      </trkpt>
      <trkpt lat="46.86863" lon="6.46866">
        <ele>1130</ele>
        <time>2019-05-04T07:30:57Z</time>
      </trkpt>
      <trkpt lat="46.86865" lon="6.46874">
        <ele>1129</ele>
        <time>2019-05-04T07:31:01Z</time>
      </trkpt>
      <trkpt lat="46.8687" lon="6.46881">
        <ele>1127</ele>
        <time>2019-05-04T07:31:06Z</time>
      </trkpt>
      <trkpt lat="46.86873" lon="6.46887">
        <ele>1127</ele>
        <time>2019-05-04T07:31:10Z</time>
      </trkpt>
      <trkpt lat="46.86873" lon="6.46888">
        <ele>1126</ele>
        <time>2019-05-04T07:31:11Z</time>
      </trkpt>
      <trkpt lat="46.86874" lon="6.46892">
        <ele>1126</ele>
        <time>2019-05-04T07:31:13Z</time>
      </trkpt>
      <trkpt lat="46.86874" lon="6.46894">
        <ele>1125</ele>
        <time>2019-05-04T07:31:14Z</time>
      </trkpt>
      <trkpt lat="46.86874" lon="6.46895">
        <ele>1125</ele>
        <time>2019-05-04T07:31:15Z</time>
      </trkpt>
      <trkpt lat="46.86877" lon="6.46904">
        <ele>1124</ele>
        <time>2019-05-04T07:31:20Z</time>
      </trkpt>
      <trkpt lat="46.86885" lon="6.46923">
        <ele>1121</ele>
        <time>2019-05-04T07:31:31Z</time>
      </trkpt>
      <trkpt lat="46.86888" lon="6.46933">
        <ele>1119</ele>
        <time>2019-05-04T07:31:36Z</time>
      </trkpt>
      <trkpt lat="46.8689" lon="6.46943">
        <ele>1118</ele>
        <time>2019-05-04T07:31:42Z</time>
      </trkpt>
      <trkpt lat="46.86892" lon="6.46952">
        <ele>1117</ele>
        <time>2019-05-04T07:31:46Z</time>
      </trkpt>
      <trkpt lat="46.86899" lon="6.46967">
        <ele>1115</ele>
        <time>2019-05-04T07:31:56Z</time>
      </trkpt>
      <trkpt lat="46.869" lon="6.46972">
        <ele>1115</ele>
        <time>2019-05-04T07:31:58Z</time>
      </trkpt>
      <trkpt lat="46.86901" lon="6.46973">
        <ele>1114</ele>
        <time>2019-05-04T07:31:59Z</time>
      </trkpt>
      <trkpt lat="46.86901" lon="6.4697">
        <ele>1115</ele>
        <time>2019-05-04T07:32:01Z</time>
      </trkpt>
      <trkpt lat="46.86901" lon="6.46978">
        <ele>1114</ele>
        <time>2019-05-04T07:32:05Z</time>
      </trkpt>
      <trkpt lat="46.86901" lon="6.4698">
        <ele>1114</ele>
        <time>2019-05-04T07:32:06Z</time>
      </trkpt>
      <trkpt lat="46.86899" lon="6.47008">
        <ele>1111</ele>
        <time>2019-05-04T07:32:20Z</time>
      </trkpt>
      <trkpt lat="46.86899" lon="6.47035">
        <ele>1109</ele>
        <time>2019-05-04T07:32:34Z</time>
      </trkpt>
      <trkpt lat="46.8689" lon="6.47062">
        <ele>1109</ele>
        <time>2019-05-04T07:32:48Z</time>
      </trkpt>
      <trkpt lat="46.86874" lon="6.47075">
        <ele>1110</ele>
        <time>2019-05-04T07:33:02Z</time>
      </trkpt>
      <trkpt lat="46.86859" lon="6.47087">
        <ele>1110</ele>
        <time>2019-05-04T07:33:14Z</time>
      </trkpt>
      <trkpt lat="46.86843" lon="6.47105">
        <ele>1109</ele>
        <time>2019-05-04T07:33:29Z</time>
      </trkpt>
      <trkpt lat="46.86829" lon="6.47118">
        <ele>1109</ele>
        <time>2019-05-04T07:33:41Z</time>
      </trkpt>
      <trkpt lat="46.86812" lon="6.47136">
        <ele>1108</ele>
        <time>2019-05-04T07:33:56Z</time>
      </trkpt>
      <trkpt lat="46.86797" lon="6.47155">
        <ele>1108</ele>
        <time>2019-05-04T07:34:10Z</time>
      </trkpt>
      <trkpt lat="46.8679" lon="6.47162">
        <ele>1107</ele>
        <time>2019-05-04T07:34:16Z</time>
      </trkpt>
      <trkpt lat="46.86774" lon="6.47178">
        <ele>1107</ele>
        <time>2019-05-04T07:34:31Z</time>
      </trkpt>
      <trkpt lat="46.86759" lon="6.47193">
        <ele>1106</ele>
        <time>2019-05-04T07:34:44Z</time>
      </trkpt>
      <trkpt lat="46.86741" lon="6.4721">
        <ele>1106</ele>
        <time>2019-05-04T07:34:59Z</time>
      </trkpt>
      <trkpt lat="46.86734" lon="6.47219">
        <ele>1106</ele>
        <time>2019-05-04T07:35:06Z</time>
      </trkpt>
      <trkpt lat="46.8672" lon="6.47236">
        <ele>1106</ele>
        <time>2019-05-04T07:35:19Z</time>
      </trkpt>
      <trkpt lat="46.86704" lon="6.47253">
        <ele>1105</ele>
        <time>2019-05-04T07:35:33Z</time>
      </trkpt>
      <trkpt lat="46.8669" lon="6.47269">
        <ele>1104</ele>
        <time>2019-05-04T07:35:46Z</time>
      </trkpt>
      <trkpt lat="46.86685" lon="6.47274">
        <ele>1104</ele>
        <time>2019-05-04T07:35:51Z</time>
      </trkpt>
      <trkpt lat="46.86669" lon="6.47291">
        <ele>1104</ele>
        <time>2019-05-04T07:36:05Z</time>
      </trkpt>
      <trkpt lat="46.86665" lon="6.47295">
        <ele>1103</ele>
        <time>2019-05-04T07:36:09Z</time>
      </trkpt>
      <trkpt lat="46.86649" lon="6.47311">
        <ele>1103</ele>
        <time>2019-05-04T07:36:22Z</time>
      </trkpt>
      <trkpt lat="46.86633" lon="6.47327">
        <ele>1103</ele>
        <time>2019-05-04T07:36:36Z</time>
      </trkpt>
      <trkpt lat="46.86618" lon="6.47344">
        <ele>1103</ele>
        <time>2019-05-04T07:36:50Z</time>
      </trkpt>
      <trkpt lat="46.86613" lon="6.47349">
        <ele>1103</ele>
        <time>2019-05-04T07:36:55Z</time>
      </trkpt>
      <trkpt lat="46.86598" lon="6.47366">
        <ele>1103</ele>
        <time>2019-05-04T07:37:08Z</time>
      </trkpt>
      <trkpt lat="46.86582" lon="6.47382">
        <ele>1103</ele>
        <time>2019-05-04T07:37:22Z</time>
      </trkpt>
      <trkpt lat="46.86568" lon="6.47399">
        <ele>1103</ele>
        <time>2019-05-04T07:37:35Z</time>
      </trkpt>
      <trkpt lat="46.86554" lon="6.47416">
        <ele>1103</ele>
        <time>2019-05-04T07:37:49Z</time>
      </trkpt>
      <trkpt lat="46.86537" lon="6.47433">
        <ele>1103</ele>
        <time>2019-05-04T07:38:03Z</time>
      </trkpt>
      <trkpt lat="46.86533" lon="6.47437">
        <ele>1103</ele>
        <time>2019-05-04T07:38:07Z</time>
      </trkpt>
      <trkpt lat="46.86517" lon="6.47454">
        <ele>1102</ele>
        <time>2019-05-04T07:38:21Z</time>
      </trkpt>
      <trkpt lat="46.86502" lon="6.47473">
        <ele>1102</ele>
        <time>2019-05-04T07:38:35Z</time>
      </trkpt>
      <trkpt lat="46.86493" lon="6.47493">
        <ele>1102</ele>
        <time>2019-05-04T07:38:47Z</time>
      </trkpt>
      <trkpt lat="46.86485" lon="6.47516">
        <ele>1102</ele>
        <time>2019-05-04T07:39:00Z</time>
      </trkpt>
      <trkpt lat="46.86483" lon="6.47524">
        <ele>1102</ele>
        <time>2019-05-04T07:39:04Z</time>
      </trkpt>
      <trkpt lat="46.86478" lon="6.4755">
        <ele>1103</ele>
        <time>2019-05-04T07:39:17Z</time>
      </trkpt>
      <trkpt lat="46.86476" lon="6.4758">
        <ele>1104</ele>
        <time>2019-05-04T07:39:32Z</time>
      </trkpt>
      <trkpt lat="46.86476" lon="6.47584">
        <ele>1104</ele>
        <time>2019-05-04T07:39:35Z</time>
      </trkpt>
      <trkpt lat="46.86478" lon="6.47613">
        <ele>1105</ele>
        <time>2019-05-04T07:39:49Z</time>
      </trkpt>
      <trkpt lat="46.8648" lon="6.47632">
        <ele>1104</ele>
        <time>2019-05-04T07:39:58Z</time>
      </trkpt>
      <trkpt lat="46.86479" lon="6.47653">
        <ele>1104</ele>
        <time>2019-05-04T07:40:09Z</time>
      </trkpt>
      <trkpt lat="46.86479" lon="6.47682">
        <ele>1103</ele>
        <time>2019-05-04T07:40:23Z</time>
      </trkpt>
      <trkpt lat="46.86486" lon="6.47708">
        <ele>1102</ele>
        <time>2019-05-04T07:40:37Z</time>
      </trkpt>
      <trkpt lat="46.86488" lon="6.47712">
        <ele>1102</ele>
        <time>2019-05-04T07:40:40Z</time>
      </trkpt>
      <trkpt lat="46.86496" lon="6.47739">
        <ele>1099</ele>
        <time>2019-05-04T07:40:54Z</time>
      </trkpt>
      <trkpt lat="46.86496" lon="6.47744">
        <ele>1099</ele>
        <time>2019-05-04T07:40:57Z</time>
      </trkpt>
      <trkpt lat="46.86501" lon="6.47772">
        <ele>1097</ele>
        <time>2019-05-04T07:41:11Z</time>
      </trkpt>
      <trkpt lat="46.86505" lon="6.47791">
        <ele>1096</ele>
        <time>2019-05-04T07:41:21Z</time>
      </trkpt>
      <trkpt lat="46.86507" lon="6.478">
        <ele>1095</ele>
        <time>2019-05-04T07:41:26Z</time>
      </trkpt>
      <trkpt lat="46.86508" lon="6.47819">
        <ele>1094</ele>
        <time>2019-05-04T07:41:35Z</time>
      </trkpt>
      <trkpt lat="46.8651" lon="6.47837">
        <ele>1093</ele>
        <time>2019-05-04T07:41:44Z</time>
      </trkpt>
      <trkpt lat="46.86512" lon="6.47855">
        <ele>1091</ele>
        <time>2019-05-04T07:41:53Z</time>
      </trkpt>
      <trkpt lat="46.86511" lon="6.47871">
        <ele>1091</ele>
        <time>2019-05-04T07:42:01Z</time>
      </trkpt>
      <trkpt lat="46.86513" lon="6.47888">
        <ele>1090</ele>
        <time>2019-05-04T07:42:10Z</time>
      </trkpt>
      <trkpt lat="46.86516" lon="6.47912">
        <ele>1090</ele>
        <time>2019-05-04T07:42:22Z</time>
      </trkpt>
      <trkpt lat="46.86521" lon="6.47936">
        <ele>1089</ele>
        <time>2019-05-04T07:42:34Z</time>
      </trkpt>
      <trkpt lat="46.86527" lon="6.47952">
        <ele>1089</ele>
        <time>2019-05-04T07:42:43Z</time>
      </trkpt>
      <trkpt lat="46.86535" lon="6.47968">
        <ele>1088</ele>
        <time>2019-05-04T07:42:53Z</time>
      </trkpt>
      <trkpt lat="46.86542" lon="6.47983">
        <ele>1088</ele>
        <time>2019-05-04T07:43:02Z</time>
      </trkpt>
      <trkpt lat="46.8655" lon="6.47997">
        <ele>1088</ele>
        <time>2019-05-04T07:43:11Z</time>
      </trkpt>
      <trkpt lat="46.86562" lon="6.48018">
        <ele>1088</ele>
        <time>2019-05-04T07:43:25Z</time>
      </trkpt>
      <trkpt lat="46.86572" lon="6.4804">
        <ele>1087</ele>
        <time>2019-05-04T07:43:38Z</time>
      </trkpt>
      <trkpt lat="46.86574" lon="6.48044">
        <ele>1087</ele>
        <time>2019-05-04T07:43:40Z</time>
      </trkpt>
      <trkpt lat="46.86579" lon="6.48057">
        <ele>1086</ele>
        <time>2019-05-04T07:43:47Z</time>
      </trkpt>
      <trkpt lat="46.86581" lon="6.4807">
        <ele>1085</ele>
        <time>2019-05-04T07:43:54Z</time>
      </trkpt>
      <trkpt lat="46.86584" lon="6.48085">
        <ele>1084</ele>
        <time>2019-05-04T07:44:02Z</time>
      </trkpt>
      <trkpt lat="46.86583" lon="6.481">
        <ele>1082</ele>
        <time>2019-05-04T07:44:09Z</time>
      </trkpt>
      <trkpt lat="46.8659" lon="6.48119">
        <ele>1081</ele>
        <time>2019-05-04T07:44:20Z</time>
      </trkpt>
      <trkpt lat="46.86596" lon="6.48134">
        <ele>1080</ele>
        <time>2019-05-04T07:44:29Z</time>
      </trkpt>
      <trkpt lat="46.86597" lon="6.48158">
        <ele>1077</ele>
        <time>2019-05-04T07:44:41Z</time>
      </trkpt>
      <trkpt lat="46.86605" lon="6.48186">
        <ele>1075</ele>
        <time>2019-05-04T07:44:56Z</time>
      </trkpt>
      <trkpt lat="46.86607" lon="6.48196">
        <ele>1074</ele>
        <time>2019-05-04T07:45:01Z</time>
      </trkpt>
      <trkpt lat="46.86606" lon="6.48206">
        <ele>1073</ele>
        <time>2019-05-04T07:45:06Z</time>
      </trkpt>
      <trkpt lat="46.86606" lon="6.48222">
        <ele>1072</ele>
        <time>2019-05-04T07:45:14Z</time>
      </trkpt>
      <trkpt lat="46.86609" lon="6.48252">
        <ele>1069</ele>
        <time>2019-05-04T07:45:30Z</time>
      </trkpt>
      <trkpt lat="46.8661" lon="6.48257">
        <ele>1069</ele>
        <time>2019-05-04T07:45:32Z</time>
      </trkpt>
      <trkpt lat="46.8661" lon="6.48271">
        <ele>1068</ele>
        <time>2019-05-04T07:45:39Z</time>
      </trkpt>
      <trkpt lat="46.86609" lon="6.48281">
        <ele>1067</ele>
        <time>2019-05-04T07:45:44Z</time>
      </trkpt>
      <trkpt lat="46.86607" lon="6.48291">
        <ele>1066</ele>
        <time>2019-05-04T07:45:49Z</time>
      </trkpt>
      <trkpt lat="46.86605" lon="6.48301">
        <ele>1065</ele>
        <time>2019-05-04T07:45:54Z</time>
      </trkpt>
      <trkpt lat="46.86602" lon="6.48321">
        <ele>1063</ele>
        <time>2019-05-04T07:46:04Z</time>
      </trkpt>
      <trkpt lat="46.86598" lon="6.48349">
        <ele>1060</ele>
        <time>2019-05-04T07:46:19Z</time>
      </trkpt>
      <trkpt lat="46.86597" lon="6.48358">
        <ele>1059</ele>
        <time>2019-05-04T07:46:24Z</time>
      </trkpt>
      <trkpt lat="46.86593" lon="6.48387">
        <ele>1056</ele>
        <time>2019-05-04T07:46:38Z</time>
      </trkpt>
      <trkpt lat="46.86591" lon="6.48413">
        <ele>1054</ele>
        <time>2019-05-04T07:46:51Z</time>
      </trkpt>
      <trkpt lat="46.8659" lon="6.48417">
        <ele>1054</ele>
        <time>2019-05-04T07:46:53Z</time>
      </trkpt>
      <trkpt lat="46.86588" lon="6.48445">
        <ele>1052</ele>
        <time>2019-05-04T07:47:07Z</time>
      </trkpt>
      <trkpt lat="46.86588" lon="6.48449">
        <ele>1052</ele>
        <time>2019-05-04T07:47:10Z</time>
      </trkpt>
      <trkpt lat="46.86585" lon="6.48473">
        <ele>1051</ele>
        <time>2019-05-04T07:47:21Z</time>
      </trkpt>
      <trkpt lat="46.86584" lon="6.48502">
        <ele>1050</ele>
        <time>2019-05-04T07:47:36Z</time>
      </trkpt>
      <trkpt lat="46.86582" lon="6.48531">
        <ele>1050</ele>
        <time>2019-05-04T07:47:50Z</time>
      </trkpt>
      <trkpt lat="46.86588" lon="6.48555">
        <ele>1049</ele>
        <time>2019-05-04T07:48:03Z</time>
      </trkpt>
      <trkpt lat="46.86594" lon="6.48579">
        <ele>1048</ele>
        <time>2019-05-04T07:48:16Z</time>
      </trkpt>
      <trkpt lat="46.86594" lon="6.48588">
        <ele>1048</ele>
        <time>2019-05-04T07:48:20Z</time>
      </trkpt>
      <trkpt lat="46.86593" lon="6.48604">
        <ele>1047</ele>
        <time>2019-05-04T07:48:28Z</time>
      </trkpt>
      <trkpt lat="46.8659" lon="6.48632">
        <ele>1046</ele>
        <time>2019-05-04T07:48:42Z</time>
      </trkpt>
      <trkpt lat="46.86586" lon="6.4865">
        <ele>1045</ele>
        <time>2019-05-04T07:48:51Z</time>
      </trkpt>
      <trkpt lat="46.86585" lon="6.48659">
        <ele>1045</ele>
        <time>2019-05-04T07:48:56Z</time>
      </trkpt>
      <trkpt lat="46.86584" lon="6.48673">
        <ele>1045</ele>
        <time>2019-05-04T07:49:03Z</time>
      </trkpt>
      <trkpt lat="46.86586" lon="6.48691">
        <ele>1044</ele>
        <time>2019-05-04T07:49:12Z</time>
      </trkpt>
      <trkpt lat="46.86587" lon="6.48718">
        <ele>1043</ele>
        <time>2019-05-04T07:49:25Z</time>
      </trkpt>
      <trkpt lat="46.86598" lon="6.4874">
        <ele>1042</ele>
        <time>2019-05-04T07:49:39Z</time>
      </trkpt>
      <trkpt lat="46.866" lon="6.48746">
        <ele>1042</ele>
        <time>2019-05-04T07:49:42Z</time>
      </trkpt>
      <trkpt lat="46.86604" lon="6.48755">
        <ele>1041</ele>
        <time>2019-05-04T07:49:48Z</time>
      </trkpt>
      <trkpt lat="46.86615" lon="6.4878">
        <ele>1040</ele>
        <time>2019-05-04T07:50:02Z</time>
      </trkpt>
      <trkpt lat="46.86625" lon="6.48804">
        <ele>1040</ele>
        <time>2019-05-04T07:50:16Z</time>
      </trkpt>
      <trkpt lat="46.86632" lon="6.48831">
        <ele>1040</ele>
        <time>2019-05-04T07:50:31Z</time>
      </trkpt>
      <trkpt lat="46.86636" lon="6.4886">
        <ele>1039</ele>
        <time>2019-05-04T07:50:45Z</time>
      </trkpt>
      <trkpt lat="46.86635" lon="6.48887">
        <ele>1038</ele>
        <time>2019-05-04T07:50:59Z</time>
      </trkpt>
      <trkpt lat="46.86628" lon="6.489">
        <ele>1037</ele>
        <time>2019-05-04T07:51:07Z</time>
      </trkpt>
      <trkpt lat="46.86622" lon="6.48926">
        <ele>1035</ele>
        <time>2019-05-04T07:51:21Z</time>
      </trkpt>
      <trkpt lat="46.86624" lon="6.48932">
        <ele>1035</ele>
        <time>2019-05-04T07:51:24Z</time>
      </trkpt>
      <trkpt lat="46.86639" lon="6.48952">
        <ele>1036</ele>
        <time>2019-05-04T07:51:39Z</time>
      </trkpt>
      <trkpt lat="46.86654" lon="6.48969">
        <ele>1036</ele>
        <time>2019-05-04T07:51:52Z</time>
      </trkpt>
      <trkpt lat="46.8667" lon="6.48982">
        <ele>1037</ele>
        <time>2019-05-04T07:52:06Z</time>
      </trkpt>
      <trkpt lat="46.8668" lon="6.48994">
        <ele>1037</ele>
        <time>2019-05-04T07:52:15Z</time>
      </trkpt>
      <trkpt lat="46.86682" lon="6.49005">
        <ele>1037</ele>
        <time>2019-05-04T07:52:20Z</time>
      </trkpt>
      <trkpt lat="46.86685" lon="6.49018">
        <ele>1037</ele>
        <time>2019-05-04T07:52:27Z</time>
      </trkpt>
      <trkpt lat="46.86692" lon="6.4904">
        <ele>1037</ele>
        <time>2019-05-04T07:52:39Z</time>
      </trkpt>
      <trkpt lat="46.86688" lon="6.49048">
        <ele>1036</ele>
        <time>2019-05-04T07:52:44Z</time>
      </trkpt>
      <trkpt lat="46.86678" lon="6.49057">
        <ele>1034</ele>
        <time>2019-05-04T07:52:53Z</time>
      </trkpt>
      <trkpt lat="46.8667" lon="6.49054">
        <ele>1034</ele>
        <time>2019-05-04T07:52:59Z</time>
      </trkpt>
      <trkpt lat="46.86664" lon="6.49053">
        <ele>1033</ele>
        <time>2019-05-04T07:53:03Z</time>
      </trkpt>
      <trkpt lat="46.86659" lon="6.49052">
        <ele>1033</ele>
        <time>2019-05-04T07:53:06Z</time>
      </trkpt>
      <trkpt lat="46.86646" lon="6.49068">
        <ele>1031</ele>
        <time>2019-05-04T07:53:19Z</time>
      </trkpt>
      <trkpt lat="46.86634" lon="6.49082">
        <ele>1029</ele>
        <time>2019-05-04T07:53:30Z</time>
      </trkpt>
      <trkpt lat="46.86617" lon="6.49093">
        <ele>1026</ele>
        <time>2019-05-04T07:53:43Z</time>
      </trkpt>
      <trkpt lat="46.86608" lon="6.49095">
        <ele>1025</ele>
        <time>2019-05-04T07:53:50Z</time>
      </trkpt>
      <trkpt lat="46.86598" lon="6.49093">
        <ele>1025</ele>
        <time>2019-05-04T07:53:57Z</time>
      </trkpt>
      <trkpt lat="46.86588" lon="6.4909">
        <ele>1024</ele>
        <time>2019-05-04T07:54:04Z</time>
      </trkpt>
      <trkpt lat="46.86581" lon="6.49083">
        <ele>1024</ele>
        <time>2019-05-04T07:54:11Z</time>
      </trkpt>
      <trkpt lat="46.86565" lon="6.49068">
        <ele>1023</ele>
        <time>2019-05-04T07:54:24Z</time>
      </trkpt>
      <trkpt lat="46.86549" lon="6.49053">
        <ele>1022</ele>
        <time>2019-05-04T07:54:38Z</time>
      </trkpt>
      <trkpt lat="46.86544" lon="6.49048">
        <ele>1021</ele>
        <time>2019-05-04T07:54:43Z</time>
      </trkpt>
      <trkpt lat="46.86539" lon="6.49042">
        <ele>1021</ele>
        <time>2019-05-04T07:54:47Z</time>
      </trkpt>
      <trkpt lat="46.86531" lon="6.49033">
        <ele>1020</ele>
        <time>2019-05-04T07:54:55Z</time>
      </trkpt>
      <trkpt lat="46.86523" lon="6.49019">
        <ele>1021</ele>
        <time>2019-05-04T07:55:04Z</time>
      </trkpt>
      <trkpt lat="46.86516" lon="6.48996">
        <ele>1023</ele>
        <time>2019-05-04T07:55:16Z</time>
      </trkpt>
      <trkpt lat="46.86516" lon="6.48978">
        <ele>1024</ele>
        <time>2019-05-04T07:55:25Z</time>
      </trkpt>
      <trkpt lat="46.86516" lon="6.48951">
        <ele>1026</ele>
        <time>2019-05-04T07:55:39Z</time>
      </trkpt>
      <trkpt lat="46.8651" lon="6.48937">
        <ele>1027</ele>
        <time>2019-05-04T07:55:47Z</time>
      </trkpt>
      <trkpt lat="46.86501" lon="6.48939">
        <ele>1028</ele>
        <time>2019-05-04T07:55:53Z</time>
      </trkpt>
      <trkpt lat="46.86496" lon="6.48946">
        <ele>1028</ele>
        <time>2019-05-04T07:55:58Z</time>
      </trkpt>
      <trkpt lat="46.86493" lon="6.48954">
        <ele>1027</ele>
        <time>2019-05-04T07:56:03Z</time>
      </trkpt>
      <trkpt lat="46.86491" lon="6.48972">
        <ele>1027</ele>
        <time>2019-05-04T07:56:12Z</time>
      </trkpt>
      <trkpt lat="46.86487" lon="6.49003">
        <ele>1025</ele>
        <time>2019-05-04T07:56:28Z</time>
      </trkpt>
      <trkpt lat="46.86486" lon="6.4903">
        <ele>1024</ele>
        <time>2019-05-04T07:56:41Z</time>
      </trkpt>
      <trkpt lat="46.86488" lon="6.49038">
        <ele>1023</ele>
        <time>2019-05-04T07:56:46Z</time>
      </trkpt>
      <trkpt lat="46.86489" lon="6.49052">
        <ele>1022</ele>
        <time>2019-05-04T07:56:52Z</time>
      </trkpt>
      <trkpt lat="46.86485" lon="6.49069">
        <ele>1022</ele>
        <time>2019-05-04T07:57:01Z</time>
      </trkpt>
      <trkpt lat="46.86484" lon="6.49081">
        <ele>1021</ele>
        <time>2019-05-04T07:57:07Z</time>
      </trkpt>
      <trkpt lat="46.86483" lon="6.49088">
        <ele>1021</ele>
        <time>2019-05-04T07:57:11Z</time>
      </trkpt>
      <trkpt lat="46.86483" lon="6.49092">
        <ele>1021</ele>
        <time>2019-05-04T07:57:13Z</time>
      </trkpt>
      <trkpt lat="46.86479" lon="6.49109">
        <ele>1020</ele>
        <time>2019-05-04T07:57:22Z</time>
      </trkpt>
      <trkpt lat="46.86474" lon="6.49127">
        <ele>1018</ele>
        <time>2019-05-04T07:57:32Z</time>
      </trkpt>
      <trkpt lat="46.86468" lon="6.49147">
        <ele>1016</ele>
        <time>2019-05-04T07:57:43Z</time>
      </trkpt>
      <trkpt lat="46.86463" lon="6.49166">
        <ele>1013</ele>
        <time>2019-05-04T07:57:52Z</time>
      </trkpt>
      <trkpt lat="46.8646" lon="6.49183">
        <ele>1011</ele>
        <time>2019-05-04T07:58:01Z</time>
      </trkpt>
      <trkpt lat="46.8646" lon="6.49204">
        <ele>1007</ele>
        <time>2019-05-04T07:58:12Z</time>
      </trkpt>
      <trkpt lat="46.86455" lon="6.49225">
        <ele>1002</ele>
        <time>2019-05-04T07:58:24Z</time>
      </trkpt>
      <trkpt lat="46.86452" lon="6.49237">
        <ele>999</ele>
        <time>2019-05-04T07:58:30Z</time>
      </trkpt>
      <trkpt lat="46.86447" lon="6.49244">
        <ele>997</ele>
        <time>2019-05-04T07:58:35Z</time>
      </trkpt>
      <trkpt lat="46.86438" lon="6.4925">
        <ele>995</ele>
        <time>2019-05-04T07:58:43Z</time>
      </trkpt>
      <trkpt lat="46.86426" lon="6.49252">
        <ele>994</ele>
        <time>2019-05-04T07:58:51Z</time>
      </trkpt>
      <trkpt lat="46.86416" lon="6.49253">
        <ele>993</ele>
        <time>2019-05-04T07:58:59Z</time>
      </trkpt>
      <trkpt lat="46.86403" lon="6.49256">
        <ele>992</ele>
        <time>2019-05-04T07:59:08Z</time>
      </trkpt>
      <trkpt lat="46.86394" lon="6.49258">
        <ele>991</ele>
        <time>2019-05-04T07:59:15Z</time>
      </trkpt>
      <trkpt lat="46.86382" lon="6.49263">
        <ele>990</ele>
        <time>2019-05-04T07:59:23Z</time>
      </trkpt>
      <trkpt lat="46.86371" lon="6.49273">
        <ele>988</ele>
        <time>2019-05-04T07:59:33Z</time>
      </trkpt>
      <trkpt lat="46.86366" lon="6.49287">
        <ele>989</ele>
        <time>2019-05-04T07:59:41Z</time>
      </trkpt>
      <trkpt lat="46.86371" lon="6.49286">
        <ele>989</ele>
        <time>2019-05-04T07:59:44Z</time>
      </trkpt>
      <trkpt lat="46.86375" lon="6.49284">
        <ele>989</ele>
        <time>2019-05-04T07:59:47Z</time>
      </trkpt>
      <trkpt lat="46.86392" lon="6.49293">
        <ele>989</ele>
        <time>2019-05-04T08:00:00Z</time>
      </trkpt>
      <trkpt lat="46.86405" lon="6.49301">
        <ele>989</ele>
        <time>2019-05-04T08:00:10Z</time>
      </trkpt>
      <trkpt lat="46.86401" lon="6.49301">
        <ele>989</ele>
        <time>2019-05-04T08:00:13Z</time>
      </trkpt>
      <trkpt lat="46.86399" lon="6.493">
        <ele>989</ele>
        <time>2019-05-04T08:00:15Z</time>
      </trkpt>
      <trkpt lat="46.86381" lon="6.49289">
        <ele>989</ele>
        <time>2019-05-04T08:00:29Z</time>
      </trkpt>
      <trkpt lat="46.86371" lon="6.49287">
        <ele>989</ele>
        <time>2019-05-04T08:00:36Z</time>
      </trkpt>
      <trkpt lat="46.86368" lon="6.49287">
        <ele>989</ele>
        <time>2019-05-04T08:00:38Z</time>
      </trkpt>
      <trkpt lat="46.86366" lon="6.49292">
        <ele>990</ele>
        <time>2019-05-04T08:00:41Z</time>
      </trkpt>
      <trkpt lat="46.86366" lon="6.49298">
        <ele>990</ele>
        <time>2019-05-04T08:00:44Z</time>
      </trkpt>
      <trkpt lat="46.86378" lon="6.49317">
        <ele>991</ele>
        <time>2019-05-04T08:00:57Z</time>
      </trkpt>
      <trkpt lat="46.86383" lon="6.49322">
        <ele>991</ele>
        <time>2019-05-04T08:01:01Z</time>
      </trkpt>
      <trkpt lat="46.86392" lon="6.49335">
        <ele>991</ele>
        <time>2019-05-04T08:01:10Z</time>
      </trkpt>
      <trkpt lat="46.86405" lon="6.49352">
        <ele>990</ele>
        <time>2019-05-04T08:01:23Z</time>
      </trkpt>
      <trkpt lat="46.86408" lon="6.49355">
        <ele>990</ele>
        <time>2019-05-04T08:01:26Z</time>
      </trkpt>
      <trkpt lat="46.86415" lon="6.49369">
        <ele>992</ele>
        <time>2019-05-04T08:01:35Z</time>
      </trkpt>
      <trkpt lat="46.86414" lon="6.49371">
        <ele>993</ele>
        <time>2019-05-04T08:01:36Z</time>
      </trkpt>
      <trkpt lat="46.864" lon="6.49364">
        <ele>993</ele>
        <time>2019-05-04T08:01:47Z</time>
      </trkpt>
      <trkpt lat="46.86397" lon="6.49364">
        <ele>994</ele>
        <time>2019-05-04T08:01:49Z</time>
      </trkpt>
      <trkpt lat="46.8639" lon="6.49367">
        <ele>995</ele>
        <time>2019-05-04T08:01:54Z</time>
      </trkpt>
      <trkpt lat="46.86388" lon="6.49369">
        <ele>996</ele>
        <time>2019-05-04T08:01:56Z</time>
      </trkpt>
      <trkpt lat="46.86385" lon="6.49373">
        <ele>998</ele>
        <time>2019-05-04T08:01:59Z</time>
      </trkpt>
      <trkpt lat="46.86382" lon="6.49375">
        <ele>999</ele>
        <time>2019-05-04T08:02:02Z</time>
      </trkpt>
      <trkpt lat="46.86376" lon="6.49376">
        <ele>1000</ele>
        <time>2019-05-04T08:02:06Z</time>
      </trkpt>
      <trkpt lat="46.8637" lon="6.49377">
        <ele>1002</ele>
        <time>2019-05-04T08:02:11Z</time>
      </trkpt>
      <trkpt lat="46.86366" lon="6.49379">
        <ele>1003</ele>
        <time>2019-05-04T08:02:14Z</time>
      </trkpt>
      <trkpt lat="46.86364" lon="6.49383">
        <ele>1005</ele>
        <time>2019-05-04T08:02:17Z</time>
      </trkpt>
      <trkpt lat="46.86362" lon="6.49386">
        <ele>1007</ele>
        <time>2019-05-04T08:02:19Z</time>
      </trkpt>
      <trkpt lat="46.86363" lon="6.4939">
        <ele>1008</ele>
        <time>2019-05-04T08:02:21Z</time>
      </trkpt>
      <trkpt lat="46.86364" lon="6.49395">
        <ele>1009</ele>
        <time>2019-05-04T08:02:24Z</time>
      </trkpt>
      <trkpt lat="46.86365" lon="6.49397">
        <ele>1010</ele>
        <time>2019-05-04T08:02:25Z</time>
      </trkpt>
      <trkpt lat="46.86365" lon="6.49405">
        <ele>1012</ele>
        <time>2019-05-04T08:02:29Z</time>
      </trkpt>
      <trkpt lat="46.86366" lon="6.49412">
        <ele>1015</ele>
        <time>2019-05-04T08:02:33Z</time>
      </trkpt>
      <trkpt lat="46.86367" lon="6.49418">
        <ele>1017</ele>
        <time>2019-05-04T08:02:37Z</time>
      </trkpt>
      <trkpt lat="46.86369" lon="6.49422">
        <ele>1018</ele>
        <time>2019-05-04T08:02:39Z</time>
      </trkpt>
      <trkpt lat="46.86371" lon="6.49425">
        <ele>1018</ele>
        <time>2019-05-04T08:02:41Z</time>
      </trkpt>
      <trkpt lat="46.86371" lon="6.49427">
        <ele>1019</ele>
        <time>2019-05-04T08:02:43Z</time>
      </trkpt>
      <trkpt lat="46.86371" lon="6.49429">
        <ele>1020</ele>
        <time>2019-05-04T08:02:44Z</time>
      </trkpt>
      <trkpt lat="46.86372" lon="6.49431">
        <ele>1020</ele>
        <time>2019-05-04T08:02:45Z</time>
      </trkpt>
      <trkpt lat="46.86372" lon="6.49431">
        <ele>1020</ele>
        <time>2019-05-04T08:02:45Z</time>
      </trkpt>
      <trkpt lat="46.8637" lon="6.49432">
        <ele>1021</ele>
        <time>2019-05-04T08:02:46Z</time>
      </trkpt>
      <trkpt lat="46.86369" lon="6.49432">
        <ele>1022</ele>
        <time>2019-05-04T08:02:47Z</time>
      </trkpt>
      <trkpt lat="46.86367" lon="6.49434">
        <ele>1022</ele>
        <time>2019-05-04T08:02:49Z</time>
      </trkpt>
      <trkpt lat="46.86366" lon="6.49433">
        <ele>1022</ele>
        <time>2019-05-04T08:02:49Z</time>
      </trkpt>
      <trkpt lat="46.86365" lon="6.49434">
        <ele>1023</ele>
        <time>2019-05-04T08:02:50Z</time>
      </trkpt>
      <trkpt lat="46.86361" lon="6.49432">
        <ele>1024</ele>
        <time>2019-05-04T08:02:53Z</time>
      </trkpt>
      <trkpt lat="46.8636" lon="6.49433">
        <ele>1024</ele>
        <time>2019-05-04T08:02:54Z</time>
      </trkpt>
      <trkpt lat="46.86358" lon="6.49435">
        <ele>1025</ele>
        <time>2019-05-04T08:02:56Z</time>
      </trkpt>
      <trkpt lat="46.86357" lon="6.49435">
        <ele>1026</ele>
        <time>2019-05-04T08:02:57Z</time>
      </trkpt>
      <trkpt lat="46.86354" lon="6.49434">
        <ele>1026</ele>
        <time>2019-05-04T08:02:59Z</time>
      </trkpt>
      <trkpt lat="46.86353" lon="6.49433">
        <ele>1026</ele>
        <time>2019-05-04T08:03:00Z</time>
      </trkpt>
      <trkpt lat="46.86352" lon="6.49433">
        <ele>1026</ele>
        <time>2019-05-04T08:03:01Z</time>
      </trkpt>
      <trkpt lat="46.8635" lon="6.49432">
        <ele>1027</ele>
        <time>2019-05-04T08:03:03Z</time>
      </trkpt>
      <trkpt lat="46.86349" lon="6.49431">
        <ele>1027</ele>
        <time>2019-05-04T08:03:03Z</time>
      </trkpt>
      <trkpt lat="46.86349" lon="6.49431">
        <ele>1027</ele>
        <time>2019-05-04T08:03:04Z</time>
      </trkpt>
      <trkpt lat="46.86348" lon="6.49431">
        <ele>1027</ele>
        <time>2019-05-04T08:03:04Z</time>
      </trkpt>
      <trkpt lat="46.86348" lon="6.49431">
        <ele>1027</ele>
        <time>2019-05-04T08:03:04Z</time>
      </trkpt>
      <trkpt lat="46.86348" lon="6.49432">
        <ele>1027</ele>
        <time>2019-05-04T08:03:05Z</time>
      </trkpt>
      <trkpt lat="46.86346" lon="6.4943">
        <ele>1027</ele>
        <time>2019-05-04T08:03:06Z</time>
      </trkpt>
      <trkpt lat="46.86345" lon="6.49432">
        <ele>1028</ele>
        <time>2019-05-04T08:03:08Z</time>
      </trkpt>
      <trkpt lat="46.86343" lon="6.49433">
        <ele>1029</ele>
        <time>2019-05-04T08:03:10Z</time>
      </trkpt>
      <trkpt lat="46.86342" lon="6.49434">
        <ele>1030</ele>
        <time>2019-05-04T08:03:11Z</time>
      </trkpt>
      <trkpt lat="46.86339" lon="6.49435">
        <ele>1031</ele>
        <time>2019-05-04T08:03:13Z</time>
      </trkpt>
      <trkpt lat="46.86337" lon="6.49434">
        <ele>1031</ele>
        <time>2019-05-04T08:03:14Z</time>
      </trkpt>
      <trkpt lat="46.86333" lon="6.49435">
        <ele>1032</ele>
        <time>2019-05-04T08:03:17Z</time>
      </trkpt>
      <trkpt lat="46.86332" lon="6.49435">
        <ele>1033</ele>
        <time>2019-05-04T08:03:18Z</time>
      </trkpt>
      <trkpt lat="46.86327" lon="6.49435">
        <ele>1034</ele>
        <time>2019-05-04T08:03:22Z</time>
      </trkpt>
      <trkpt lat="46.86325" lon="6.49435">
        <ele>1035</ele>
        <time>2019-05-04T08:03:23Z</time>
      </trkpt>
      <trkpt lat="46.86323" lon="6.49435">
        <ele>1035</ele>
        <time>2019-05-04T08:03:25Z</time>
      </trkpt>
      <trkpt lat="46.86319" lon="6.49434">
        <ele>1036</ele>
        <time>2019-05-04T08:03:28Z</time>
      </trkpt>
      <trkpt lat="46.86317" lon="6.49434">
        <ele>1037</ele>
        <time>2019-05-04T08:03:30Z</time>
      </trkpt>
      <trkpt lat="46.86315" lon="6.49434">
        <ele>1037</ele>
        <time>2019-05-04T08:03:31Z</time>
      </trkpt>
      <trkpt lat="46.86314" lon="6.49434">
        <ele>1038</ele>
        <time>2019-05-04T08:03:32Z</time>
      </trkpt>
      <trkpt lat="46.86312" lon="6.49433">
        <ele>1038</ele>
        <time>2019-05-04T08:03:34Z</time>
      </trkpt>
      <trkpt lat="46.86309" lon="6.49432">
        <ele>1039</ele>
        <time>2019-05-04T08:03:36Z</time>
      </trkpt>
      <trkpt lat="46.86308" lon="6.49431">
        <ele>1038</ele>
        <time>2019-05-04T08:03:37Z</time>
      </trkpt>
      <trkpt lat="46.86306" lon="6.49431">
        <ele>1039</ele>
        <time>2019-05-04T08:03:39Z</time>
      </trkpt>
      <trkpt lat="46.86301" lon="6.49431">
        <ele>1041</ele>
        <time>2019-05-04T08:03:43Z</time>
      </trkpt>
      <trkpt lat="46.86297" lon="6.49431">
        <ele>1042</ele>
        <time>2019-05-04T08:03:46Z</time>
      </trkpt>
      <trkpt lat="46.86293" lon="6.4943">
        <ele>1043</ele>
        <time>2019-05-04T08:03:49Z</time>
      </trkpt>
      <trkpt lat="46.86292" lon="6.4943">
        <ele>1043</ele>
        <time>2019-05-04T08:03:49Z</time>
      </trkpt>
      <trkpt lat="46.86289" lon="6.49429">
        <ele>1043</ele>
        <time>2019-05-04T08:03:51Z</time>
      </trkpt>
      <trkpt lat="46.86282" lon="6.49431">
        <ele>1046</ele>
        <time>2019-05-04T08:03:57Z</time>
      </trkpt>
      <trkpt lat="46.86281" lon="6.49432">
        <ele>1046</ele>
        <time>2019-05-04T08:03:58Z</time>
      </trkpt>
      <trkpt lat="46.86281" lon="6.49432">
        <ele>1047</ele>
        <time>2019-05-04T08:03:58Z</time>
      </trkpt>
      <trkpt lat="46.86278" lon="6.49433">
        <ele>1047</ele>
        <time>2019-05-04T08:04:00Z</time>
      </trkpt>
      <trkpt lat="46.86277" lon="6.49433">
        <ele>1048</ele>
        <time>2019-05-04T08:04:01Z</time>
      </trkpt>
      <trkpt lat="46.86275" lon="6.49434">
        <ele>1048</ele>
        <time>2019-05-04T08:04:03Z</time>
      </trkpt>
      <trkpt lat="46.86274" lon="6.49434">
        <ele>1048</ele>
        <time>2019-05-04T08:04:04Z</time>
      </trkpt>
      <trkpt lat="46.86272" lon="6.49434">
        <ele>1049</ele>
        <time>2019-05-04T08:04:05Z</time>
      </trkpt>
      <trkpt lat="46.8627" lon="6.49436">
        <ele>1049</ele>
        <time>2019-05-04T08:04:07Z</time>
      </trkpt>
      <trkpt lat="46.86269" lon="6.49438">
        <ele>1050</ele>
        <time>2019-05-04T08:04:08Z</time>
      </trkpt>
      <trkpt lat="46.86269" lon="6.49439">
        <ele>1050</ele>
        <time>2019-05-04T08:04:10Z</time>
      </trkpt>
      <trkpt lat="46.86263" lon="6.49442">
        <ele>1052</ele>
        <time>2019-05-04T08:04:14Z</time>
      </trkpt>
      <trkpt lat="46.86253" lon="6.49445">
        <ele>1053</ele>
        <time>2019-05-04T08:04:21Z</time>
      </trkpt>
      <trkpt lat="46.86245" lon="6.49454">
        <ele>1055</ele>
        <time>2019-05-04T08:04:28Z</time>
      </trkpt>
      <trkpt lat="46.86243" lon="6.49458">
        <ele>1056</ele>
        <time>2019-05-04T08:04:31Z</time>
      </trkpt>
      <trkpt lat="46.86241" lon="6.4946">
        <ele>1056</ele>
        <time>2019-05-04T08:04:32Z</time>
      </trkpt>
      <trkpt lat="46.86236" lon="6.49465">
        <ele>1057</ele>
        <time>2019-05-04T08:04:37Z</time>
      </trkpt>
      <trkpt lat="46.86233" lon="6.49472">
        <ele>1058</ele>
        <time>2019-05-04T08:04:42Z</time>
      </trkpt>
      <trkpt lat="46.86227" lon="6.4947">
        <ele>1059</ele>
        <time>2019-05-04T08:04:45Z</time>
      </trkpt>
      <trkpt lat="46.86222" lon="6.49471">
        <ele>1060</ele>
        <time>2019-05-04T08:04:49Z</time>
      </trkpt>
      <trkpt lat="46.86219" lon="6.4947">
        <ele>1060</ele>
        <time>2019-05-04T08:04:52Z</time>
      </trkpt>
      <trkpt lat="46.86218" lon="6.49469">
        <ele>1060</ele>
        <time>2019-05-04T08:04:53Z</time>
      </trkpt>
      <trkpt lat="46.86216" lon="6.49468">
        <ele>1061</ele>
        <time>2019-05-04T08:04:54Z</time>
      </trkpt>
      <trkpt lat="46.86212" lon="6.49468">
        <ele>1061</ele>
        <time>2019-05-04T08:04:57Z</time>
      </trkpt>
      <trkpt lat="46.86209" lon="6.49468">
        <ele>1062</ele>
        <time>2019-05-04T08:04:59Z</time>
      </trkpt>
      <trkpt lat="46.86207" lon="6.49469">
        <ele>1062</ele>
        <time>2019-05-04T08:05:01Z</time>
      </trkpt>
      <trkpt lat="46.86203" lon="6.49472">
        <ele>1063</ele>
        <time>2019-05-04T08:05:04Z</time>
      </trkpt>
      <trkpt lat="46.86196" lon="6.49476">
        <ele>1064</ele>
        <time>2019-05-04T08:05:10Z</time>
      </trkpt>
      <trkpt lat="46.86192" lon="6.49478">
        <ele>1065</ele>
        <time>2019-05-04T08:05:13Z</time>
      </trkpt>
      <trkpt lat="46.86183" lon="6.49478">
        <ele>1066</ele>
        <time>2019-05-04T08:05:19Z</time>
      </trkpt>
      <trkpt lat="46.86178" lon="6.49477">
        <ele>1066</ele>
        <time>2019-05-04T08:05:23Z</time>
      </trkpt>
      <trkpt lat="46.86175" lon="6.49478">
        <ele>1066</ele>
        <time>2019-05-04T08:05:25Z</time>
      </trkpt>
      <trkpt lat="46.86174" lon="6.49479">
        <ele>1067</ele>
        <time>2019-05-04T08:05:26Z</time>
      </trkpt>
      <trkpt lat="46.86172" lon="6.49479">
        <ele>1067</ele>
        <time>2019-05-04T08:05:28Z</time>
      </trkpt>
      <trkpt lat="46.8617" lon="6.4948">
        <ele>1067</ele>
        <time>2019-05-04T08:05:29Z</time>
      </trkpt>
      <trkpt lat="46.86169" lon="6.4948">
        <ele>1067</ele>
        <time>2019-05-04T08:05:30Z</time>
      </trkpt>
      <trkpt lat="46.86166" lon="6.49479">
        <ele>1067</ele>
        <time>2019-05-04T08:05:32Z</time>
      </trkpt>
      <trkpt lat="46.86161" lon="6.49479">
        <ele>1068</ele>
        <time>2019-05-04T08:05:36Z</time>
      </trkpt>
      <trkpt lat="46.86155" lon="6.49479">
        <ele>1068</ele>
        <time>2019-05-04T08:05:40Z</time>
      </trkpt>
      <trkpt lat="46.8615" lon="6.49479">
        <ele>1069</ele>
        <time>2019-05-04T08:05:44Z</time>
      </trkpt>
      <trkpt lat="46.86148" lon="6.4948">
        <ele>1069</ele>
        <time>2019-05-04T08:05:45Z</time>
      </trkpt>
      <trkpt lat="46.86144" lon="6.49481">
        <ele>1070</ele>
        <time>2019-05-04T08:05:48Z</time>
      </trkpt>
      <trkpt lat="46.86138" lon="6.49484">
        <ele>1070</ele>
        <time>2019-05-04T08:05:53Z</time>
      </trkpt>
      <trkpt lat="46.86125" lon="6.49483">
        <ele>1071</ele>
        <time>2019-05-04T08:06:02Z</time>
      </trkpt>
      <trkpt lat="46.86113" lon="6.49475">
        <ele>1072</ele>
        <time>2019-05-04T08:06:12Z</time>
      </trkpt>
      <trkpt lat="46.86106" lon="6.49468">
        <ele>1072</ele>
        <time>2019-05-04T08:06:18Z</time>
      </trkpt>
      <trkpt lat="46.86102" lon="6.49464">
        <ele>1072</ele>
        <time>2019-05-04T08:06:21Z</time>
      </trkpt>
      <trkpt lat="46.86099" lon="6.49461">
        <ele>1072</ele>
        <time>2019-05-04T08:06:24Z</time>
      </trkpt>
      <trkpt lat="46.86093" lon="6.49457">
        <ele>1072</ele>
        <time>2019-05-04T08:06:29Z</time>
      </trkpt>
      <trkpt lat="46.86086" lon="6.49456">
        <ele>1072</ele>
        <time>2019-05-04T08:06:33Z</time>
      </trkpt>
      <trkpt lat="46.86077" lon="6.49449">
        <ele>1072</ele>
        <time>2019-05-04T08:06:41Z</time>
      </trkpt>
      <trkpt lat="46.8607" lon="6.49447">
        <ele>1072</ele>
        <time>2019-05-04T08:06:46Z</time>
      </trkpt>
      <trkpt lat="46.86065" lon="6.49446">
        <ele>1072</ele>
        <time>2019-05-04T08:06:50Z</time>
      </trkpt>
      <trkpt lat="46.86063" lon="6.49449">
        <ele>1072</ele>
        <time>2019-05-04T08:06:52Z</time>
      </trkpt>
      <trkpt lat="46.86061" lon="6.49454">
        <ele>1072</ele>
        <time>2019-05-04T08:06:55Z</time>
      </trkpt>
      <trkpt lat="46.8606" lon="6.49459">
        <ele>1072</ele>
        <time>2019-05-04T08:06:57Z</time>
      </trkpt>
      <trkpt lat="46.86049" lon="6.49483">
        <ele>1073</ele>
        <time>2019-05-04T08:07:12Z</time>
      </trkpt>
      <trkpt lat="46.8604" lon="6.49507">
        <ele>1074</ele>
        <time>2019-05-04T08:07:25Z</time>
      </trkpt>
      <trkpt lat="46.8603" lon="6.49532">
        <ele>1075</ele>
        <time>2019-05-04T08:07:40Z</time>
      </trkpt>
      <trkpt lat="46.86021" lon="6.49554">
        <ele>1077</ele>
        <time>2019-05-04T08:07:53Z</time>
      </trkpt>
      <trkpt lat="46.86017" lon="6.49564">
        <ele>1077</ele>
        <time>2019-05-04T08:07:58Z</time>
      </trkpt>
      <trkpt lat="46.86014" lon="6.49572">
        <ele>1078</ele>
        <time>2019-05-04T08:08:03Z</time>
      </trkpt>
      <trkpt lat="46.86005" lon="6.49597">
        <ele>1079</ele>
        <time>2019-05-04T08:08:17Z</time>
      </trkpt>
      <trkpt lat="46.86003" lon="6.49612">
        <ele>1080</ele>
        <time>2019-05-04T08:08:24Z</time>
      </trkpt>
      <trkpt lat="46.86" lon="6.49639">
        <ele>1080</ele>
        <time>2019-05-04T08:08:38Z</time>
      </trkpt>
      <trkpt lat="46.85995" lon="6.49667">
        <ele>1080</ele>
        <time>2019-05-04T08:08:52Z</time>
      </trkpt>
      <trkpt lat="46.85991" lon="6.49672">
        <ele>1080</ele>
        <time>2019-05-04T08:08:56Z</time>
      </trkpt>
      <trkpt lat="46.85981" lon="6.49686">
        <ele>1080</ele>
        <time>2019-05-04T08:09:06Z</time>
      </trkpt>
      <trkpt lat="46.85967" lon="6.49703">
        <ele>1080</ele>
        <time>2019-05-04T08:09:20Z</time>
      </trkpt>
      <trkpt lat="46.85967" lon="6.49707">
        <ele>1080</ele>
        <time>2019-05-04T08:09:21Z</time>
      </trkpt>
      <trkpt lat="46.85963" lon="6.49708">
        <ele>1080</ele>
        <time>2019-05-04T08:09:25Z</time>
      </trkpt>
      <trkpt lat="46.85957" lon="6.49708">
        <ele>1080</ele>
        <time>2019-05-04T08:09:29Z</time>
      </trkpt>
      <trkpt lat="46.85941" lon="6.49704">
        <ele>1080</ele>
        <time>2019-05-04T08:09:41Z</time>
      </trkpt>
      <trkpt lat="46.85931" lon="6.49699">
        <ele>1079</ele>
        <time>2019-05-04T08:09:48Z</time>
      </trkpt>
      <trkpt lat="46.85911" lon="6.49692">
        <ele>1078</ele>
        <time>2019-05-04T08:10:03Z</time>
      </trkpt>
      <trkpt lat="46.859" lon="6.49688">
        <ele>1077</ele>
        <time>2019-05-04T08:10:11Z</time>
      </trkpt>
      <trkpt lat="46.85882" lon="6.49686">
        <ele>1076</ele>
        <time>2019-05-04T08:10:24Z</time>
      </trkpt>
      <trkpt lat="46.85866" lon="6.49689">
        <ele>1075</ele>
        <time>2019-05-04T08:10:36Z</time>
      </trkpt>
      <trkpt lat="46.85847" lon="6.49701">
        <ele>1077</ele>
        <time>2019-05-04T08:10:51Z</time>
      </trkpt>
      <trkpt lat="46.85845" lon="6.49703">
        <ele>1078</ele>
        <time>2019-05-04T08:10:53Z</time>
      </trkpt>
      <trkpt lat="46.8583" lon="6.49721">
        <ele>1081</ele>
        <time>2019-05-04T08:11:07Z</time>
      </trkpt>
      <trkpt lat="46.85823" lon="6.49745">
        <ele>1083</ele>
        <time>2019-05-04T08:11:20Z</time>
      </trkpt>
      <trkpt lat="46.8582" lon="6.49771">
        <ele>1085</ele>
        <time>2019-05-04T08:11:33Z</time>
      </trkpt>
      <trkpt lat="46.8582" lon="6.49774">
        <ele>1085</ele>
        <time>2019-05-04T08:11:35Z</time>
      </trkpt>
      <trkpt lat="46.85819" lon="6.49803">
        <ele>1091</ele>
        <time>2019-05-04T08:11:50Z</time>
      </trkpt>
      <trkpt lat="46.8582" lon="6.49821">
        <ele>1094</ele>
        <time>2019-05-04T08:11:59Z</time>
      </trkpt>
      <trkpt lat="46.8582" lon="6.49843">
        <ele>1097</ele>
        <time>2019-05-04T08:12:10Z</time>
      </trkpt>
      <trkpt lat="46.85819" lon="6.49854">
        <ele>1100</ele>
        <time>2019-05-04T08:12:16Z</time>
      </trkpt>
      <trkpt lat="46.85819" lon="6.49882">
        <ele>1103</ele>
        <time>2019-05-04T08:12:30Z</time>
      </trkpt>
      <trkpt lat="46.85818" lon="6.49886">
        <ele>1104</ele>
        <time>2019-05-04T08:12:32Z</time>
      </trkpt>
      <trkpt lat="46.85819" lon="6.49902">
        <ele>1105</ele>
        <time>2019-05-04T08:12:40Z</time>
      </trkpt>
      <trkpt lat="46.85821" lon="6.49925">
        <ele>1106</ele>
        <time>2019-05-04T08:12:51Z</time>
      </trkpt>
      <trkpt lat="46.85824" lon="6.49944">
        <ele>1106</ele>
        <time>2019-05-04T08:13:01Z</time>
      </trkpt>
      <trkpt lat="46.85828" lon="6.49959">
        <ele>1106</ele>
        <time>2019-05-04T08:13:09Z</time>
      </trkpt>
      <trkpt lat="46.85829" lon="6.49965">
        <ele>1106</ele>
        <time>2019-05-04T08:13:12Z</time>
      </trkpt>
      <trkpt lat="46.8583" lon="6.4997">
        <ele>1106</ele>
        <time>2019-05-04T08:13:14Z</time>
      </trkpt>
      <trkpt lat="46.85833" lon="6.4998">
        <ele>1105</ele>
        <time>2019-05-04T08:13:20Z</time>
      </trkpt>
      <trkpt lat="46.85833" lon="6.4998">
        <ele>1105</ele>
        <time>2019-05-04T08:13:20Z</time>
      </trkpt>
      <trkpt lat="46.85835" lon="6.49986">
        <ele>1105</ele>
        <time>2019-05-04T08:13:24Z</time>
      </trkpt>
      <trkpt lat="46.85835" lon="6.49995">
        <ele>1105</ele>
        <time>2019-05-04T08:13:28Z</time>
      </trkpt>
      <trkpt lat="46.85838" lon="6.50013">
        <ele>1106</ele>
        <time>2019-05-04T08:13:37Z</time>
      </trkpt>
      <trkpt lat="46.85839" lon="6.50026">
        <ele>1106</ele>
        <time>2019-05-04T08:13:44Z</time>
      </trkpt>
      <trkpt lat="46.8584" lon="6.50039">
        <ele>1107</ele>
        <time>2019-05-04T08:13:50Z</time>
      </trkpt>
      <trkpt lat="46.85846" lon="6.50059">
        <ele>1106</ele>
        <time>2019-05-04T08:14:01Z</time>
      </trkpt>
      <trkpt lat="46.85846" lon="6.5007">
        <ele>1107</ele>
        <time>2019-05-04T08:14:06Z</time>
      </trkpt>
      <trkpt lat="46.85848" lon="6.5008">
        <ele>1107</ele>
        <time>2019-05-04T08:14:12Z</time>
      </trkpt>
      <trkpt lat="46.85847" lon="6.50096">
        <ele>1109</ele>
        <time>2019-05-04T08:14:20Z</time>
      </trkpt>
      <trkpt lat="46.85845" lon="6.50107">
        <ele>1111</ele>
        <time>2019-05-04T08:14:26Z</time>
      </trkpt>
      <trkpt lat="46.85843" lon="6.50114">
        <ele>1111</ele>
        <time>2019-05-04T08:14:29Z</time>
      </trkpt>
      <trkpt lat="46.85842" lon="6.50118">
        <ele>1112</ele>
        <time>2019-05-04T08:14:31Z</time>
      </trkpt>
      <trkpt lat="46.85839" lon="6.5013">
        <ele>1113</ele>
        <time>2019-05-04T08:14:38Z</time>
      </trkpt>
      <trkpt lat="46.85837" lon="6.50147">
        <ele>1114</ele>
        <time>2019-05-04T08:14:46Z</time>
      </trkpt>
      <trkpt lat="46.85827" lon="6.50161">
        <ele>1116</ele>
        <time>2019-05-04T08:14:57Z</time>
      </trkpt>
      <trkpt lat="46.85825" lon="6.50165">
        <ele>1116</ele>
        <time>2019-05-04T08:14:59Z</time>
      </trkpt>
      <trkpt lat="46.85824" lon="6.50166">
        <ele>1117</ele>
        <time>2019-05-04T08:15:00Z</time>
      </trkpt>
      <trkpt lat="46.8582" lon="6.50179">
        <ele>1118</ele>
        <time>2019-05-04T08:15:07Z</time>
      </trkpt>
      <trkpt lat="46.85816" lon="6.5019">
        <ele>1118</ele>
        <time>2019-05-04T08:15:13Z</time>
      </trkpt>
      <trkpt lat="46.8581" lon="6.50199">
        <ele>1119</ele>
        <time>2019-05-04T08:15:20Z</time>
      </trkpt>
      <trkpt lat="46.85808" lon="6.50203">
        <ele>1119</ele>
        <time>2019-05-04T08:15:22Z</time>
      </trkpt>
      <trkpt lat="46.85807" lon="6.50207">
        <ele>1119</ele>
        <time>2019-05-04T08:15:24Z</time>
      </trkpt>
      <trkpt lat="46.85806" lon="6.50209">
        <ele>1119</ele>
        <time>2019-05-04T08:15:25Z</time>
      </trkpt>
      <trkpt lat="46.85804" lon="6.50215">
        <ele>1119</ele>
        <time>2019-05-04T08:15:29Z</time>
      </trkpt>
      <trkpt lat="46.85802" lon="6.50217">
        <ele>1119</ele>
        <time>2019-05-04T08:15:30Z</time>
      </trkpt>
      <trkpt lat="46.85798" lon="6.50221">
        <ele>1119</ele>
        <time>2019-05-04T08:15:34Z</time>
      </trkpt>
      <trkpt lat="46.85786" lon="6.50229">
        <ele>1121</ele>
        <time>2019-05-04T08:15:43Z</time>
      </trkpt>
      <trkpt lat="46.85769" lon="6.5024">
        <ele>1119</ele>
        <time>2019-05-04T08:15:57Z</time>
      </trkpt>
      <trkpt lat="46.85765" lon="6.50242">
        <ele>1119</ele>
        <time>2019-05-04T08:16:00Z</time>
      </trkpt>
      <trkpt lat="46.85757" lon="6.50251">
        <ele>1118</ele>
        <time>2019-05-04T08:16:07Z</time>
      </trkpt>
      <trkpt lat="46.85743" lon="6.50247">
        <ele>1117</ele>
        <time>2019-05-04T08:16:18Z</time>
      </trkpt>
      <trkpt lat="46.85726" lon="6.50238">
        <ele>1116</ele>
        <time>2019-05-04T08:16:31Z</time>
      </trkpt>
      <trkpt lat="46.85714" lon="6.50231">
        <ele>1116</ele>
        <time>2019-05-04T08:16:40Z</time>
      </trkpt>
      <trkpt lat="46.85702" lon="6.50217">
        <ele>1116</ele>
        <time>2019-05-04T08:16:51Z</time>
      </trkpt>
      <trkpt lat="46.85684" lon="6.50207">
        <ele>1116</ele>
        <time>2019-05-04T08:17:05Z</time>
      </trkpt>
      <trkpt lat="46.85672" lon="6.50199">
        <ele>1116</ele>
        <time>2019-05-04T08:17:15Z</time>
      </trkpt>
      <trkpt lat="46.85654" lon="6.50185">
        <ele>1116</ele>
        <time>2019-05-04T08:17:29Z</time>
      </trkpt>
      <trkpt lat="46.85637" lon="6.50172">
        <ele>1116</ele>
        <time>2019-05-04T08:17:43Z</time>
      </trkpt>
      <trkpt lat="46.85619" lon="6.50165">
        <ele>1115</ele>
        <time>2019-05-04T08:17:56Z</time>
      </trkpt>
      <trkpt lat="46.85601" lon="6.50161">
        <ele>1115</ele>
        <time>2019-05-04T08:18:10Z</time>
      </trkpt>
      <trkpt lat="46.85591" lon="6.50159">
        <ele>1116</ele>
        <time>2019-05-04T08:18:17Z</time>
      </trkpt>
      <trkpt lat="46.85571" lon="6.50157">
        <ele>1116</ele>
        <time>2019-05-04T08:18:32Z</time>
      </trkpt>
      <trkpt lat="46.85553" lon="6.50158">
        <ele>1116</ele>
        <time>2019-05-04T08:18:45Z</time>
      </trkpt>
      <trkpt lat="46.85546" lon="6.5016">
        <ele>1116</ele>
        <time>2019-05-04T08:18:50Z</time>
      </trkpt>
      <trkpt lat="46.85525" lon="6.50161">
        <ele>1117</ele>
        <time>2019-05-04T08:19:05Z</time>
      </trkpt>
      <trkpt lat="46.85505" lon="6.50156">
        <ele>1118</ele>
        <time>2019-05-04T08:19:19Z</time>
      </trkpt>
      <trkpt lat="46.85491" lon="6.50151">
        <ele>1118</ele>
        <time>2019-05-04T08:19:30Z</time>
      </trkpt>
      <trkpt lat="46.85471" lon="6.50145">
        <ele>1119</ele>
        <time>2019-05-04T08:19:45Z</time>
      </trkpt>
      <trkpt lat="46.85451" lon="6.50138">
        <ele>1119</ele>
        <time>2019-05-04T08:19:59Z</time>
      </trkpt>
      <trkpt lat="46.85445" lon="6.50136">
        <ele>1119</ele>
        <time>2019-05-04T08:20:04Z</time>
      </trkpt>
      <trkpt lat="46.85442" lon="6.50139">
        <ele>1119</ele>
        <time>2019-05-04T08:20:07Z</time>
      </trkpt>
      <trkpt lat="46.85436" lon="6.50142">
        <ele>1119</ele>
        <time>2019-05-04T08:20:12Z</time>
      </trkpt>
      <trkpt lat="46.85428" lon="6.50148">
        <ele>1119</ele>
        <time>2019-05-04T08:20:18Z</time>
      </trkpt>
      <trkpt lat="46.85423" lon="6.50157">
        <ele>1119</ele>
        <time>2019-05-04T08:20:23Z</time>
      </trkpt>
      <trkpt lat="46.85415" lon="6.50181">
        <ele>1119</ele>
        <time>2019-05-04T08:20:37Z</time>
      </trkpt>
      <trkpt lat="46.85415" lon="6.50192">
        <ele>1120</ele>
        <time>2019-05-04T08:20:42Z</time>
      </trkpt>
      <trkpt lat="46.85413" lon="6.50206">
        <ele>1121</ele>
        <time>2019-05-04T08:20:49Z</time>
      </trkpt>
      <trkpt lat="46.85413" lon="6.50213">
        <ele>1122</ele>
        <time>2019-05-04T08:20:53Z</time>
      </trkpt>
      <trkpt lat="46.85413" lon="6.50214">
        <ele>1122</ele>
        <time>2019-05-04T08:20:54Z</time>
      </trkpt>
      <trkpt lat="46.85413" lon="6.50218">
        <ele>1122</ele>
        <time>2019-05-04T08:20:56Z</time>
      </trkpt>
      <trkpt lat="46.85412" lon="6.50223">
        <ele>1123</ele>
        <time>2019-05-04T08:20:58Z</time>
      </trkpt>
      <trkpt lat="46.85412" lon="6.50223">
        <ele>1123</ele>
        <time>2019-05-04T08:20:58Z</time>
      </trkpt>
      <trkpt lat="46.85412" lon="6.50222">
        <ele>1123</ele>
        <time>2019-05-04T08:20:59Z</time>
      </trkpt>
      <trkpt lat="46.85418" lon="6.5022">
        <ele>1122</ele>
        <time>2019-05-04T08:21:03Z</time>
      </trkpt>
      <trkpt lat="46.8543" lon="6.50219">
        <ele>1122</ele>
        <time>2019-05-04T08:21:12Z</time>
      </trkpt>
      <trkpt lat="46.85433" lon="6.50231">
        <ele>1123</ele>
        <time>2019-05-04T08:21:19Z</time>
      </trkpt>
      <trkpt lat="46.85427" lon="6.50259">
        <ele>1126</ele>
        <time>2019-05-04T08:21:33Z</time>
      </trkpt>
      <trkpt lat="46.85423" lon="6.50277">
        <ele>1128</ele>
        <time>2019-05-04T08:21:43Z</time>
      </trkpt>
      <trkpt lat="46.85425" lon="6.50285">
        <ele>1129</ele>
        <time>2019-05-04T08:21:47Z</time>
      </trkpt>
      <trkpt lat="46.85431" lon="6.50301">
        <ele>1130</ele>
        <time>2019-05-04T08:21:56Z</time>
      </trkpt>
      <trkpt lat="46.85434" lon="6.5031">
        <ele>1131</ele>
        <time>2019-05-04T08:22:01Z</time>
      </trkpt>
      <trkpt lat="46.85447" lon="6.50329">
        <ele>1133</ele>
        <time>2019-05-04T08:22:14Z</time>
      </trkpt>
      <trkpt lat="46.85459" lon="6.5035">
        <ele>1134</ele>
        <time>2019-05-04T08:22:28Z</time>
      </trkpt>
      <trkpt lat="46.8546" lon="6.50353">
        <ele>1134</ele>
        <time>2019-05-04T08:22:30Z</time>
      </trkpt>
      <trkpt lat="46.85473" lon="6.50375">
        <ele>1135</ele>
        <time>2019-05-04T08:22:44Z</time>
      </trkpt>
      <trkpt lat="46.85487" lon="6.50396">
        <ele>1135</ele>
        <time>2019-05-04T08:22:58Z</time>
      </trkpt>
      <trkpt lat="46.85488" lon="6.50398">
        <ele>1135</ele>
        <time>2019-05-04T08:23:00Z</time>
      </trkpt>
      <trkpt lat="46.85491" lon="6.50402">
        <ele>1135</ele>
        <time>2019-05-04T08:23:03Z</time>
      </trkpt>
      <trkpt lat="46.85499" lon="6.50417">
        <ele>1134</ele>
        <time>2019-05-04T08:23:12Z</time>
      </trkpt>
      <trkpt lat="46.855" lon="6.50418">
        <ele>1135</ele>
        <time>2019-05-04T08:23:13Z</time>
      </trkpt>
      <trkpt lat="46.85505" lon="6.5042">
        <ele>1134</ele>
        <time>2019-05-04T08:23:17Z</time>
      </trkpt>
      <trkpt lat="46.85506" lon="6.50421">
        <ele>1134</ele>
        <time>2019-05-04T08:23:18Z</time>
      </trkpt>
      <trkpt lat="46.85517" lon="6.50434">
        <ele>1132</ele>
        <time>2019-05-04T08:23:29Z</time>
      </trkpt>
      <trkpt lat="46.85529" lon="6.50448">
        <ele>1131</ele>
        <time>2019-05-04T08:23:40Z</time>
      </trkpt>
      <trkpt lat="46.85534" lon="6.50476">
        <ele>1132</ele>
        <time>2019-05-04T08:23:54Z</time>
      </trkpt>
      <trkpt lat="46.85534" lon="6.50486">
        <ele>1133</ele>
        <time>2019-05-04T08:23:59Z</time>
      </trkpt>
      <trkpt lat="46.85535" lon="6.505">
        <ele>1134</ele>
        <time>2019-05-04T08:24:06Z</time>
      </trkpt>
      <trkpt lat="46.85539" lon="6.50517">
        <ele>1135</ele>
        <time>2019-05-04T08:24:15Z</time>
      </trkpt>
      <trkpt lat="46.85542" lon="6.50526">
        <ele>1136</ele>
        <time>2019-05-04T08:24:20Z</time>
      </trkpt>
      <trkpt lat="46.85539" lon="6.50553">
        <ele>1138</ele>
        <time>2019-05-04T08:24:33Z</time>
      </trkpt>
      <trkpt lat="46.85539" lon="6.50556">
        <ele>1138</ele>
        <time>2019-05-04T08:24:35Z</time>
      </trkpt>
      <trkpt lat="46.85544" lon="6.50578">
        <ele>1139</ele>
        <time>2019-05-04T08:24:47Z</time>
      </trkpt>
      <trkpt lat="46.85545" lon="6.50596">
        <ele>1140</ele>
        <time>2019-05-04T08:24:56Z</time>
      </trkpt>
      <trkpt lat="46.85545" lon="6.50606">
        <ele>1141</ele>
        <time>2019-05-04T08:25:00Z</time>
      </trkpt>
      <trkpt lat="46.85546" lon="6.50625">
        <ele>1140</ele>
        <time>2019-05-04T08:25:10Z</time>
      </trkpt>
      <trkpt lat="46.85542" lon="6.50631">
        <ele>1141</ele>
        <time>2019-05-04T08:25:14Z</time>
      </trkpt>
      <trkpt lat="46.85536" lon="6.50639">
        <ele>1141</ele>
        <time>2019-05-04T08:25:20Z</time>
      </trkpt>
      <trkpt lat="46.85533" lon="6.50641">
        <ele>1142</ele>
        <time>2019-05-04T08:25:23Z</time>
      </trkpt>
      <trkpt lat="46.85532" lon="6.50648">
        <ele>1141</ele>
        <time>2019-05-04T08:25:26Z</time>
      </trkpt>
      <trkpt lat="46.85522" lon="6.50673">
        <ele>1142</ele>
        <time>2019-05-04T08:25:40Z</time>
      </trkpt>
      <trkpt lat="46.85521" lon="6.50677">
        <ele>1142</ele>
        <time>2019-05-04T08:25:42Z</time>
      </trkpt>
      <trkpt lat="46.8552" lon="6.50704">
        <ele>1142</ele>
        <time>2019-05-04T08:25:56Z</time>
      </trkpt>
      <trkpt lat="46.85516" lon="6.50722">
        <ele>1142</ele>
        <time>2019-05-04T08:26:05Z</time>
      </trkpt>
      <trkpt lat="46.85504" lon="6.50742">
        <ele>1142</ele>
        <time>2019-05-04T08:26:18Z</time>
      </trkpt>
      <trkpt lat="46.85492" lon="6.50762">
        <ele>1142</ele>
        <time>2019-05-04T08:26:32Z</time>
      </trkpt>
      <trkpt lat="46.85486" lon="6.50787">
        <ele>1141</ele>
        <time>2019-05-04T08:26:45Z</time>
      </trkpt>
      <trkpt lat="46.85472" lon="6.5081">
        <ele>1141</ele>
        <time>2019-05-04T08:27:00Z</time>
      </trkpt>
      <trkpt lat="46.85453" lon="6.50819">
        <ele>1141</ele>
        <time>2019-05-04T08:27:14Z</time>
      </trkpt>
      <trkpt lat="46.85447" lon="6.50821">
        <ele>1141</ele>
        <time>2019-05-04T08:27:18Z</time>
      </trkpt>
      <trkpt lat="46.85429" lon="6.50829">
        <ele>1140</ele>
        <time>2019-05-04T08:27:33Z</time>
      </trkpt>
      <trkpt lat="46.85411" lon="6.50818">
        <ele>1140</ele>
        <time>2019-05-04T08:27:46Z</time>
      </trkpt>
      <trkpt lat="46.85392" lon="6.50813">
        <ele>1139</ele>
        <time>2019-05-04T08:28:00Z</time>
      </trkpt>
      <trkpt lat="46.85377" lon="6.50811">
        <ele>1139</ele>
        <time>2019-05-04T08:28:11Z</time>
      </trkpt>
      <trkpt lat="46.85369" lon="6.5081">
        <ele>1139</ele>
        <time>2019-05-04T08:28:17Z</time>
      </trkpt>
      <trkpt lat="46.8535" lon="6.50814">
        <ele>1136</ele>
        <time>2019-05-04T08:28:31Z</time>
      </trkpt>
      <trkpt lat="46.85333" lon="6.50823">
        <ele>1133</ele>
        <time>2019-05-04T08:28:44Z</time>
      </trkpt>
      <trkpt lat="46.85322" lon="6.50826">
        <ele>1131</ele>
        <time>2019-05-04T08:28:52Z</time>
      </trkpt>
      <trkpt lat="46.85304" lon="6.50817">
        <ele>1130</ele>
        <time>2019-05-04T08:29:06Z</time>
      </trkpt>
      <trkpt lat="46.85296" lon="6.50813">
        <ele>1130</ele>
        <time>2019-05-04T08:29:12Z</time>
      </trkpt>
      <trkpt lat="46.85277" lon="6.50807">
        <ele>1129</ele>
        <time>2019-05-04T08:29:26Z</time>
      </trkpt>
      <trkpt lat="46.85272" lon="6.50806">
        <ele>1128</ele>
        <time>2019-05-04T08:29:30Z</time>
      </trkpt>
      <trkpt lat="46.85266" lon="6.50804">
        <ele>1128</ele>
        <time>2019-05-04T08:29:35Z</time>
      </trkpt>
      <trkpt lat="46.8526" lon="6.50802">
        <ele>1127</ele>
        <time>2019-05-04T08:29:39Z</time>
      </trkpt>
      <trkpt lat="46.85251" lon="6.50799">
        <ele>1127</ele>
        <time>2019-05-04T08:29:46Z</time>
      </trkpt>
      <trkpt lat="46.85238" lon="6.50795">
        <ele>1126</ele>
        <time>2019-05-04T08:29:55Z</time>
      </trkpt>
      <trkpt lat="46.85231" lon="6.50795">
        <ele>1125</ele>
        <time>2019-05-04T08:30:01Z</time>
      </trkpt>
      <trkpt lat="46.85223" lon="6.50793">
        <ele>1124</ele>
        <time>2019-05-04T08:30:07Z</time>
      </trkpt>
      <trkpt lat="46.85212" lon="6.50792">
        <ele>1123</ele>
        <time>2019-05-04T08:30:14Z</time>
      </trkpt>
      <trkpt lat="46.85195" lon="6.50791">
        <ele>1121</ele>
        <time>2019-05-04T08:30:27Z</time>
      </trkpt>
      <trkpt lat="46.85185" lon="6.50789">
        <ele>1120</ele>
        <time>2019-05-04T08:30:34Z</time>
      </trkpt>
      <trkpt lat="46.8518" lon="6.50787">
        <ele>1119</ele>
        <time>2019-05-04T08:30:38Z</time>
      </trkpt>
      <trkpt lat="46.85171" lon="6.50784">
        <ele>1118</ele>
        <time>2019-05-04T08:30:45Z</time>
      </trkpt>
      <trkpt lat="46.85163" lon="6.5078">
        <ele>1118</ele>
        <time>2019-05-04T08:30:50Z</time>
      </trkpt>
      <trkpt lat="46.85152" lon="6.50779">
        <ele>1117</ele>
        <time>2019-05-04T08:30:59Z</time>
      </trkpt>
      <trkpt lat="46.85139" lon="6.50782">
        <ele>1114</ele>
        <time>2019-05-04T08:31:08Z</time>
      </trkpt>
      <trkpt lat="46.85133" lon="6.50787">
        <ele>1112</ele>
        <time>2019-05-04T08:31:14Z</time>
      </trkpt>
      <trkpt lat="46.85127" lon="6.50792">
        <ele>1110</ele>
        <time>2019-05-04T08:31:18Z</time>
      </trkpt>
      <trkpt lat="46.85116" lon="6.50801">
        <ele>1105</ele>
        <time>2019-05-04T08:31:28Z</time>
      </trkpt>
      <trkpt lat="46.85102" lon="6.50803">
        <ele>1101</ele>
        <time>2019-05-04T08:31:39Z</time>
      </trkpt>
      <trkpt lat="46.8509" lon="6.50797">
        <ele>1099</ele>
        <time>2019-05-04T08:31:48Z</time>
      </trkpt>
      <trkpt lat="46.85083" lon="6.50794">
        <ele>1099</ele>
        <time>2019-05-04T08:31:53Z</time>
      </trkpt>
      <trkpt lat="46.85072" lon="6.50789">
        <ele>1098</ele>
        <time>2019-05-04T08:32:02Z</time>
      </trkpt>
      <trkpt lat="46.85062" lon="6.50778">
        <ele>1099</ele>
        <time>2019-05-04T08:32:11Z</time>
      </trkpt>
      <trkpt lat="46.85049" lon="6.50763">
        <ele>1100</ele>
        <time>2019-05-04T08:32:22Z</time>
      </trkpt>
      <trkpt lat="46.85047" lon="6.50762">
        <ele>1100</ele>
        <time>2019-05-04T08:32:24Z</time>
      </trkpt>
      <trkpt lat="46.85044" lon="6.50758">
        <ele>1100</ele>
        <time>2019-05-04T08:32:27Z</time>
      </trkpt>
      <trkpt lat="46.85036" lon="6.50752">
        <ele>1100</ele>
        <time>2019-05-04T08:32:34Z</time>
      </trkpt>
      <trkpt lat="46.85025" lon="6.50748">
        <ele>1099</ele>
        <time>2019-05-04T08:32:42Z</time>
      </trkpt>
      <trkpt lat="46.85014" lon="6.50745">
        <ele>1097</ele>
        <time>2019-05-04T08:32:50Z</time>
      </trkpt>
      <trkpt lat="46.85001" lon="6.50734">
        <ele>1097</ele>
        <time>2019-05-04T08:33:01Z</time>
      </trkpt>
      <trkpt lat="46.84996" lon="6.50731">
        <ele>1097</ele>
        <time>2019-05-04T08:33:05Z</time>
      </trkpt>
      <trkpt lat="46.84988" lon="6.50726">
        <ele>1097</ele>
        <time>2019-05-04T08:33:11Z</time>
      </trkpt>
      <trkpt lat="46.8497" lon="6.50711">
        <ele>1098</ele>
        <time>2019-05-04T08:33:26Z</time>
      </trkpt>
      <trkpt lat="46.84968" lon="6.50709">
        <ele>1098</ele>
        <time>2019-05-04T08:33:28Z</time>
      </trkpt>
      <trkpt lat="46.8496" lon="6.50704">
        <ele>1097</ele>
        <time>2019-05-04T08:33:34Z</time>
      </trkpt>
      <trkpt lat="46.84955" lon="6.50703">
        <ele>1097</ele>
        <time>2019-05-04T08:33:37Z</time>
      </trkpt>
      <trkpt lat="46.84946" lon="6.50705">
        <ele>1094</ele>
        <time>2019-05-04T08:33:45Z</time>
      </trkpt>
      <trkpt lat="46.84934" lon="6.50704">
        <ele>1090</ele>
        <time>2019-05-04T08:33:53Z</time>
      </trkpt>
      <trkpt lat="46.84927" lon="6.50703">
        <ele>1088</ele>
        <time>2019-05-04T08:33:59Z</time>
      </trkpt>
      <trkpt lat="46.8492" lon="6.50701">
        <ele>1086</ele>
        <time>2019-05-04T08:34:04Z</time>
      </trkpt>
      <trkpt lat="46.84912" lon="6.50698">
        <ele>1084</ele>
        <time>2019-05-04T08:34:10Z</time>
      </trkpt>
      <trkpt lat="46.84902" lon="6.50693">
        <ele>1082</ele>
        <time>2019-05-04T08:34:18Z</time>
      </trkpt>
      <trkpt lat="46.84896" lon="6.50691">
        <ele>1080</ele>
        <time>2019-05-04T08:34:23Z</time>
      </trkpt>
      <trkpt lat="46.84887" lon="6.50684">
        <ele>1079</ele>
        <time>2019-05-04T08:34:30Z</time>
      </trkpt>
      <trkpt lat="46.84877" lon="6.50677">
        <ele>1079</ele>
        <time>2019-05-04T08:34:38Z</time>
      </trkpt>
      <trkpt lat="46.84873" lon="6.50676">
        <ele>1078</ele>
        <time>2019-05-04T08:34:41Z</time>
      </trkpt>
      <trkpt lat="46.84867" lon="6.50679">
        <ele>1075</ele>
        <time>2019-05-04T08:34:46Z</time>
      </trkpt>
      <trkpt lat="46.84864" lon="6.50687">
        <ele>1070</ele>
        <time>2019-05-04T08:34:52Z</time>
      </trkpt>
      <trkpt lat="46.84865" lon="6.50694">
        <ele>1068</ele>
        <time>2019-05-04T08:34:55Z</time>
      </trkpt>
      <trkpt lat="46.84867" lon="6.50698">
        <ele>1067</ele>
        <time>2019-05-04T08:34:58Z</time>
      </trkpt>
      <trkpt lat="46.84869" lon="6.50702">
        <ele>1067</ele>
        <time>2019-05-04T08:35:00Z</time>
      </trkpt>
      <trkpt lat="46.84872" lon="6.50706">
        <ele>1067</ele>
        <time>2019-05-04T08:35:03Z</time>
      </trkpt>
      <trkpt lat="46.84878" lon="6.50717">
        <ele>1066</ele>
        <time>2019-05-04T08:35:10Z</time>
      </trkpt>
      <trkpt lat="46.84881" lon="6.50723">
        <ele>1065</ele>
        <time>2019-05-04T08:35:14Z</time>
      </trkpt>
      <trkpt lat="46.84885" lon="6.50726">
        <ele>1065</ele>
        <time>2019-05-04T08:35:17Z</time>
      </trkpt>
      <trkpt lat="46.84888" lon="6.50737">
        <ele>1063</ele>
        <time>2019-05-04T08:35:23Z</time>
      </trkpt>
      <trkpt lat="46.84892" lon="6.50741">
        <ele>1063</ele>
        <time>2019-05-04T08:35:26Z</time>
      </trkpt>
      <trkpt lat="46.84895" lon="6.50742">
        <ele>1064</ele>
        <time>2019-05-04T08:35:29Z</time>
      </trkpt>
      <trkpt lat="46.84902" lon="6.50747">
        <ele>1065</ele>
        <time>2019-05-04T08:35:34Z</time>
      </trkpt>
      <trkpt lat="46.84903" lon="6.5075">
        <ele>1064</ele>
        <time>2019-05-04T08:35:36Z</time>
      </trkpt>
      <trkpt lat="46.84902" lon="6.50753">
        <ele>1063</ele>
        <time>2019-05-04T08:35:37Z</time>
      </trkpt>
      <trkpt lat="46.849" lon="6.50753">
        <ele>1062</ele>
        <time>2019-05-04T08:35:39Z</time>
      </trkpt>
      <trkpt lat="46.84897" lon="6.5075">
        <ele>1062</ele>
        <time>2019-05-04T08:35:42Z</time>
      </trkpt>
      <trkpt lat="46.84892" lon="6.50745">
        <ele>1062</ele>
        <time>2019-05-04T08:35:46Z</time>
      </trkpt>
      <trkpt lat="46.84888" lon="6.50742">
        <ele>1062</ele>
        <time>2019-05-04T08:35:49Z</time>
      </trkpt>
      <trkpt lat="46.84883" lon="6.50739">
        <ele>1061</ele>
        <time>2019-05-04T08:35:53Z</time>
      </trkpt>
      <trkpt lat="46.84876" lon="6.50731">
        <ele>1061</ele>
        <time>2019-05-04T08:36:00Z</time>
      </trkpt>
      <trkpt lat="46.84865" lon="6.50722">
        <ele>1059</ele>
        <time>2019-05-04T08:36:09Z</time>
      </trkpt>
      <trkpt lat="46.84859" lon="6.5072">
        <ele>1058</ele>
        <time>2019-05-04T08:36:13Z</time>
      </trkpt>
      <trkpt lat="46.84848" lon="6.50714">
        <ele>1056</ele>
        <time>2019-05-04T08:36:22Z</time>
      </trkpt>
      <trkpt lat="46.84845" lon="6.50708">
        <ele>1056</ele>
        <time>2019-05-04T08:36:26Z</time>
      </trkpt>
      <trkpt lat="46.84841" lon="6.50702">
        <ele>1057</ele>
        <time>2019-05-04T08:36:30Z</time>
      </trkpt>
      <trkpt lat="46.84827" lon="6.50689">
        <ele>1056</ele>
        <time>2019-05-04T08:36:42Z</time>
      </trkpt>
      <trkpt lat="46.84822" lon="6.50685">
        <ele>1056</ele>
        <time>2019-05-04T08:36:46Z</time>
      </trkpt>
      <trkpt lat="46.84814" lon="6.50683">
        <ele>1054</ele>
        <time>2019-05-04T08:36:52Z</time>
      </trkpt>
      <trkpt lat="46.8481" lon="6.50695">
        <ele>1048</ele>
        <time>2019-05-04T08:37:00Z</time>
      </trkpt>
      <trkpt lat="46.84811" lon="6.50703">
        <ele>1045</ele>
        <time>2019-05-04T08:37:04Z</time>
      </trkpt>
      <trkpt lat="46.84812" lon="6.50706">
        <ele>1045</ele>
        <time>2019-05-04T08:37:06Z</time>
      </trkpt>
      <trkpt lat="46.84813" lon="6.50712">
        <ele>1044</ele>
        <time>2019-05-04T08:37:09Z</time>
      </trkpt>
      <trkpt lat="46.84814" lon="6.50719">
        <ele>1042</ele>
        <time>2019-05-04T08:37:13Z</time>
      </trkpt>
      <trkpt lat="46.84821" lon="6.50734">
        <ele>1040</ele>
        <time>2019-05-04T08:37:22Z</time>
      </trkpt>
      <trkpt lat="46.8483" lon="6.50739">
        <ele>1041</ele>
        <time>2019-05-04T08:37:28Z</time>
      </trkpt>
      <trkpt lat="46.84838" lon="6.50749">
        <ele>1042</ele>
        <time>2019-05-04T08:37:36Z</time>
      </trkpt>
      <trkpt lat="46.84839" lon="6.50751">
        <ele>1041</ele>
        <time>2019-05-04T08:37:37Z</time>
      </trkpt>
      <trkpt lat="46.84841" lon="6.50754">
        <ele>1041</ele>
        <time>2019-05-04T08:37:39Z</time>
      </trkpt>
      <trkpt lat="46.84846" lon="6.50758">
        <ele>1042</ele>
        <time>2019-05-04T08:37:43Z</time>
      </trkpt>
      <trkpt lat="46.84853" lon="6.50768">
        <ele>1042</ele>
        <time>2019-05-04T08:37:51Z</time>
      </trkpt>
      <trkpt lat="46.84859" lon="6.50772">
        <ele>1043</ele>
        <time>2019-05-04T08:37:55Z</time>
      </trkpt>
      <trkpt lat="46.84871" lon="6.50792">
        <ele>1041</ele>
        <time>2019-05-04T08:38:08Z</time>
      </trkpt>
      <trkpt lat="46.84874" lon="6.50798">
        <ele>1041</ele>
        <time>2019-05-04T08:38:12Z</time>
      </trkpt>
      <trkpt lat="46.84882" lon="6.50812">
        <ele>1039</ele>
        <time>2019-05-04T08:38:21Z</time>
      </trkpt>
      <trkpt lat="46.84887" lon="6.50819">
        <ele>1038</ele>
        <time>2019-05-04T08:38:26Z</time>
      </trkpt>
      <trkpt lat="46.84893" lon="6.50825">
        <ele>1038</ele>
        <time>2019-05-04T08:38:31Z</time>
      </trkpt>
      <trkpt lat="46.84897" lon="6.50832">
        <ele>1037</ele>
        <time>2019-05-04T08:38:36Z</time>
      </trkpt>
      <trkpt lat="46.84905" lon="6.50841">
        <ele>1037</ele>
        <time>2019-05-04T08:38:43Z</time>
      </trkpt>
      <trkpt lat="46.84918" lon="6.5085">
        <ele>1037</ele>
        <time>2019-05-04T08:38:54Z</time>
      </trkpt>
      <trkpt lat="46.84927" lon="6.50854">
        <ele>1038</ele>
        <time>2019-05-04T08:39:01Z</time>
      </trkpt>
      <trkpt lat="46.84935" lon="6.50857">
        <ele>1039</ele>
        <time>2019-05-04T08:39:06Z</time>
      </trkpt>
      <trkpt lat="46.84941" lon="6.5086">
        <ele>1040</ele>
        <time>2019-05-04T08:39:11Z</time>
      </trkpt>
      <trkpt lat="46.84948" lon="6.50865">
        <ele>1039</ele>
        <time>2019-05-04T08:39:17Z</time>
      </trkpt>
      <trkpt lat="46.84966" lon="6.50868">
        <ele>1042</ele>
        <time>2019-05-04T08:39:30Z</time>
      </trkpt>
      <trkpt lat="46.84973" lon="6.5088">
        <ele>1038</ele>
        <time>2019-05-04T08:39:38Z</time>
      </trkpt>
      <trkpt lat="46.84978" lon="6.50886">
        <ele>1036</ele>
        <time>2019-05-04T08:39:43Z</time>
      </trkpt>
      <trkpt lat="46.84984" lon="6.50892">
        <ele>1035</ele>
        <time>2019-05-04T08:39:48Z</time>
      </trkpt>
      <trkpt lat="46.84991" lon="6.50897">
        <ele>1033</ele>
        <time>2019-05-04T08:39:54Z</time>
      </trkpt>
      <trkpt lat="46.85003" lon="6.50905">
        <ele>1032</ele>
        <time>2019-05-04T08:40:04Z</time>
      </trkpt>
      <trkpt lat="46.85014" lon="6.50909">
        <ele>1032</ele>
        <time>2019-05-04T08:40:12Z</time>
      </trkpt>
      <trkpt lat="46.85021" lon="6.50916">
        <ele>1030</ele>
        <time>2019-05-04T08:40:18Z</time>
      </trkpt>
      <trkpt lat="46.85034" lon="6.50932">
        <ele>1024</ele>
        <time>2019-05-04T08:40:31Z</time>
      </trkpt>
      <trkpt lat="46.85041" lon="6.50941">
        <ele>1021</ele>
        <time>2019-05-04T08:40:38Z</time>
      </trkpt>
      <trkpt lat="46.85047" lon="6.50946">
        <ele>1022</ele>
        <time>2019-05-04T08:40:43Z</time>
      </trkpt>
      <trkpt lat="46.85057" lon="6.50952">
        <ele>1024</ele>
        <time>2019-05-04T08:40:51Z</time>
      </trkpt>
      <trkpt lat="46.85058" lon="6.50959">
        <ele>1023</ele>
        <time>2019-05-04T08:40:55Z</time>
      </trkpt>
      <trkpt lat="46.85056" lon="6.50976">
        <ele>1021</ele>
        <time>2019-05-04T08:41:03Z</time>
      </trkpt>
      <trkpt lat="46.85058" lon="6.50975">
        <ele>1021</ele>
        <time>2019-05-04T08:41:05Z</time>
      </trkpt>
      <trkpt lat="46.85056" lon="6.50989">
        <ele>1019</ele>
        <time>2019-05-04T08:41:12Z</time>
      </trkpt>
      <trkpt lat="46.85055" lon="6.51008">
        <ele>1017</ele>
        <time>2019-05-04T08:41:21Z</time>
      </trkpt>
      <trkpt lat="46.85056" lon="6.5101">
        <ele>1017</ele>
        <time>2019-05-04T08:41:23Z</time>
      </trkpt>
      <trkpt lat="46.85057" lon="6.51009">
        <ele>1017</ele>
        <time>2019-05-04T08:41:23Z</time>
      </trkpt>
      <trkpt lat="46.8506" lon="6.51006">
        <ele>1018</ele>
        <time>2019-05-04T08:41:26Z</time>
      </trkpt>
      <trkpt lat="46.85044" lon="6.51021">
        <ele>1017</ele>
        <time>2019-05-04T08:41:40Z</time>
      </trkpt>
      <trkpt lat="46.85039" lon="6.5103">
        <ele>1018</ele>
        <time>2019-05-04T08:41:46Z</time>
      </trkpt>
      <trkpt lat="46.85039" lon="6.51058">
        <ele>1024</ele>
        <time>2019-05-04T08:42:00Z</time>
      </trkpt>
      <trkpt lat="46.85047" lon="6.51047">
        <ele>1021</ele>
        <time>2019-05-04T08:42:09Z</time>
      </trkpt>
      <trkpt lat="46.8506" lon="6.51033">
        <ele>1017</ele>
        <time>2019-05-04T08:42:21Z</time>
      </trkpt>
      <trkpt lat="46.85064" lon="6.51032">
        <ele>1016</ele>
        <time>2019-05-04T08:42:23Z</time>
      </trkpt>
      <trkpt lat="46.85069" lon="6.51033">
        <ele>1016</ele>
        <time>2019-05-04T08:42:27Z</time>
      </trkpt>
      <trkpt lat="46.85085" lon="6.51047">
        <ele>1018</ele>
        <time>2019-05-04T08:42:41Z</time>
      </trkpt>
      <trkpt lat="46.85089" lon="6.5105">
        <ele>1019</ele>
        <time>2019-05-04T08:42:44Z</time>
      </trkpt>
      <trkpt lat="46.85097" lon="6.51056">
        <ele>1019</ele>
        <time>2019-05-04T08:42:51Z</time>
      </trkpt>
      <trkpt lat="46.85112" lon="6.51073">
        <ele>1021</ele>
        <time>2019-05-04T08:43:04Z</time>
      </trkpt>
      <trkpt lat="46.8512" lon="6.51084">
        <ele>1023</ele>
        <time>2019-05-04T08:43:13Z</time>
      </trkpt>
      <trkpt lat="46.85136" lon="6.51095">
        <ele>1022</ele>
        <time>2019-05-04T08:43:25Z</time>
      </trkpt>
      <trkpt lat="46.85155" lon="6.51101">
        <ele>1018</ele>
        <time>2019-05-04T08:43:39Z</time>
      </trkpt>
      <trkpt lat="46.85165" lon="6.51102">
        <ele>1016</ele>
        <time>2019-05-04T08:43:46Z</time>
      </trkpt>
      <trkpt lat="46.85173" lon="6.51116">
        <ele>1015</ele>
        <time>2019-05-04T08:43:56Z</time>
      </trkpt>
      <trkpt lat="46.8518" lon="6.51125">
        <ele>1015</ele>
        <time>2019-05-04T08:44:03Z</time>
      </trkpt>
      <trkpt lat="46.85186" lon="6.51131">
        <ele>1014</ele>
        <time>2019-05-04T08:44:08Z</time>
      </trkpt>
      <trkpt lat="46.85198" lon="6.51152">
        <ele>1015</ele>
        <time>2019-05-04T08:44:21Z</time>
      </trkpt>
      <trkpt lat="46.85217" lon="6.51163">
        <ele>1014</ele>
        <time>2019-05-04T08:44:36Z</time>
      </trkpt>
      <trkpt lat="46.85219" lon="6.51165">
        <ele>1014</ele>
        <time>2019-05-04T08:44:38Z</time>
      </trkpt>
      <trkpt lat="46.85222" lon="6.51176">
        <ele>1014</ele>
        <time>2019-05-04T08:44:44Z</time>
      </trkpt>
      <trkpt lat="46.85221" lon="6.51182">
        <ele>1015</ele>
        <time>2019-05-04T08:44:47Z</time>
      </trkpt>
      <trkpt lat="46.85219" lon="6.51186">
        <ele>1016</ele>
        <time>2019-05-04T08:44:50Z</time>
      </trkpt>
      <trkpt lat="46.85218" lon="6.51203">
        <ele>1020</ele>
        <time>2019-05-04T08:44:59Z</time>
      </trkpt>
      <trkpt lat="46.85219" lon="6.51207">
        <ele>1021</ele>
        <time>2019-05-04T08:45:01Z</time>
      </trkpt>
      <trkpt lat="46.85219" lon="6.51209">
        <ele>1021</ele>
        <time>2019-05-04T08:45:01Z</time>
      </trkpt>
      <trkpt lat="46.8522" lon="6.51211">
        <ele>1021</ele>
        <time>2019-05-04T08:45:02Z</time>
      </trkpt>
      <trkpt lat="46.85219" lon="6.51212">
        <ele>1022</ele>
        <time>2019-05-04T08:45:04Z</time>
      </trkpt>
      <trkpt lat="46.85215" lon="6.51213">
        <ele>1023</ele>
        <time>2019-05-04T08:45:06Z</time>
      </trkpt>
      <trkpt lat="46.85213" lon="6.51215">
        <ele>1024</ele>
        <time>2019-05-04T08:45:08Z</time>
      </trkpt>
      <trkpt lat="46.8521" lon="6.51215">
        <ele>1025</ele>
        <time>2019-05-04T08:45:10Z</time>
      </trkpt>
      <trkpt lat="46.8521" lon="6.51213">
        <ele>1025</ele>
        <time>2019-05-04T08:45:11Z</time>
      </trkpt>
      <trkpt lat="46.85209" lon="6.51214">
        <ele>1025</ele>
        <time>2019-05-04T08:45:12Z</time>
      </trkpt>
      <trkpt lat="46.85199" lon="6.51212">
        <ele>1027</ele>
        <time>2019-05-04T08:45:19Z</time>
      </trkpt>
      <trkpt lat="46.85198" lon="6.51212">
        <ele>1027</ele>
        <time>2019-05-04T08:45:20Z</time>
      </trkpt>
      <trkpt lat="46.85196" lon="6.51211">
        <ele>1028</ele>
        <time>2019-05-04T08:45:21Z</time>
      </trkpt>
      <trkpt lat="46.85191" lon="6.51205">
        <ele>1027</ele>
        <time>2019-05-04T08:45:27Z</time>
      </trkpt>
      <trkpt lat="46.85189" lon="6.51203">
        <ele>1027</ele>
        <time>2019-05-04T08:45:28Z</time>
      </trkpt>
      <trkpt lat="46.85186" lon="6.512">
        <ele>1027</ele>
        <time>2019-05-04T08:45:31Z</time>
      </trkpt>
      <trkpt lat="46.85182" lon="6.51195">
        <ele>1027</ele>
        <time>2019-05-04T08:45:34Z</time>
      </trkpt>
      <trkpt lat="46.85164" lon="6.51182">
        <ele>1030</ele>
        <time>2019-05-04T08:45:49Z</time>
      </trkpt>
      <trkpt lat="46.85158" lon="6.51182">
        <ele>1032</ele>
        <time>2019-05-04T08:45:53Z</time>
      </trkpt>
      <trkpt lat="46.85152" lon="6.51179">
        <ele>1033</ele>
        <time>2019-05-04T08:45:58Z</time>
      </trkpt>
      <trkpt lat="46.8515" lon="6.51178">
        <ele>1034</ele>
        <time>2019-05-04T08:46:00Z</time>
      </trkpt>
      <trkpt lat="46.85144" lon="6.51178">
        <ele>1035</ele>
        <time>2019-05-04T08:46:04Z</time>
      </trkpt>
      <trkpt lat="46.85142" lon="6.51177">
        <ele>1036</ele>
        <time>2019-05-04T08:46:06Z</time>
      </trkpt>
      <trkpt lat="46.85139" lon="6.51176">
        <ele>1037</ele>
        <time>2019-05-04T08:46:08Z</time>
      </trkpt>
      <trkpt lat="46.85134" lon="6.51175">
        <ele>1038</ele>
        <time>2019-05-04T08:46:12Z</time>
      </trkpt>
      <trkpt lat="46.85146" lon="6.51166">
        <ele>1032</ele>
        <time>2019-05-04T08:46:22Z</time>
      </trkpt>
      <trkpt lat="46.85144" lon="6.51161">
        <ele>1032</ele>
        <time>2019-05-04T08:46:25Z</time>
      </trkpt>
      <trkpt lat="46.85141" lon="6.51158">
        <ele>1032</ele>
        <time>2019-05-04T08:46:27Z</time>
      </trkpt>
      <trkpt lat="46.85141" lon="6.51157">
        <ele>1032</ele>
        <time>2019-05-04T08:46:28Z</time>
      </trkpt>
      <trkpt lat="46.85139" lon="6.51155">
        <ele>1032</ele>
        <time>2019-05-04T08:46:30Z</time>
      </trkpt>
      <trkpt lat="46.85134" lon="6.51155">
        <ele>1034</ele>
        <time>2019-05-04T08:46:33Z</time>
      </trkpt>
      <trkpt lat="46.85132" lon="6.51155">
        <ele>1034</ele>
        <time>2019-05-04T08:46:35Z</time>
      </trkpt>
      <trkpt lat="46.85124" lon="6.51154">
        <ele>1036</ele>
        <time>2019-05-04T08:46:40Z</time>
      </trkpt>
      <trkpt lat="46.85117" lon="6.51154">
        <ele>1038</ele>
        <time>2019-05-04T08:46:46Z</time>
      </trkpt>
      <trkpt lat="46.85099" lon="6.51154">
        <ele>1040</ele>
        <time>2019-05-04T08:46:59Z</time>
      </trkpt>
      <trkpt lat="46.85089" lon="6.51153">
        <ele>1041</ele>
        <time>2019-05-04T08:47:07Z</time>
      </trkpt>
      <trkpt lat="46.85078" lon="6.51147">
        <ele>1041</ele>
        <time>2019-05-04T08:47:15Z</time>
      </trkpt>
      <trkpt lat="46.85077" lon="6.51145">
        <ele>1041</ele>
        <time>2019-05-04T08:47:16Z</time>
      </trkpt>
      <trkpt lat="46.85073" lon="6.51142">
        <ele>1040</ele>
        <time>2019-05-04T08:47:19Z</time>
      </trkpt>
      <trkpt lat="46.8507" lon="6.51136">
        <ele>1039</ele>
        <time>2019-05-04T08:47:23Z</time>
      </trkpt>
      <trkpt lat="46.85063" lon="6.51129">
        <ele>1038</ele>
        <time>2019-05-04T08:47:29Z</time>
      </trkpt>
      <trkpt lat="46.85058" lon="6.51126">
        <ele>1038</ele>
        <time>2019-05-04T08:47:33Z</time>
      </trkpt>
      <trkpt lat="46.85054" lon="6.51123">
        <ele>1038</ele>
        <time>2019-05-04T08:47:36Z</time>
      </trkpt>
      <trkpt lat="46.85051" lon="6.5112">
        <ele>1038</ele>
        <time>2019-05-04T08:47:39Z</time>
      </trkpt>
      <trkpt lat="46.85046" lon="6.51118">
        <ele>1038</ele>
        <time>2019-05-04T08:47:43Z</time>
      </trkpt>
      <trkpt lat="46.85042" lon="6.51117">
        <ele>1038</ele>
        <time>2019-05-04T08:47:46Z</time>
      </trkpt>
      <trkpt lat="46.85034" lon="6.51111">
        <ele>1037</ele>
        <time>2019-05-04T08:47:52Z</time>
      </trkpt>
      <trkpt lat="46.85024" lon="6.5111">
        <ele>1038</ele>
        <time>2019-05-04T08:48:00Z</time>
      </trkpt>
      <trkpt lat="46.85018" lon="6.51108">
        <ele>1039</ele>
        <time>2019-05-04T08:48:04Z</time>
      </trkpt>
      <trkpt lat="46.85016" lon="6.51108">
        <ele>1039</ele>
        <time>2019-05-04T08:48:05Z</time>
      </trkpt>
      <trkpt lat="46.85015" lon="6.51108">
        <ele>1039</ele>
        <time>2019-05-04T08:48:06Z</time>
      </trkpt>
      <trkpt lat="46.85007" lon="6.51107">
        <ele>1040</ele>
        <time>2019-05-04T08:48:12Z</time>
      </trkpt>
      <trkpt lat="46.85006" lon="6.51107">
        <ele>1040</ele>
        <time>2019-05-04T08:48:13Z</time>
      </trkpt>
      <trkpt lat="46.85005" lon="6.51108">
        <ele>1040</ele>
        <time>2019-05-04T08:48:13Z</time>
      </trkpt>
      <trkpt lat="46.85003" lon="6.51108">
        <ele>1041</ele>
        <time>2019-05-04T08:48:15Z</time>
      </trkpt>
      <trkpt lat="46.84999" lon="6.51108">
        <ele>1041</ele>
        <time>2019-05-04T08:48:18Z</time>
      </trkpt>
      <trkpt lat="46.84997" lon="6.51108">
        <ele>1041</ele>
        <time>2019-05-04T08:48:20Z</time>
      </trkpt>
      <trkpt lat="46.84993" lon="6.5111">
        <ele>1043</ele>
        <time>2019-05-04T08:48:23Z</time>
      </trkpt>
      <trkpt lat="46.84983" lon="6.51113">
        <ele>1045</ele>
        <time>2019-05-04T08:48:30Z</time>
      </trkpt>
      <trkpt lat="46.84983" lon="6.51112">
        <ele>1044</ele>
        <time>2019-05-04T08:48:31Z</time>
      </trkpt>
      <trkpt lat="46.84981" lon="6.51111">
        <ele>1044</ele>
        <time>2019-05-04T08:48:32Z</time>
      </trkpt>
      <trkpt lat="46.84977" lon="6.5111">
        <ele>1045</ele>
        <time>2019-05-04T08:48:36Z</time>
      </trkpt>
      <trkpt lat="46.84976" lon="6.51109">
        <ele>1044</ele>
        <time>2019-05-04T08:48:37Z</time>
      </trkpt>
      <trkpt lat="46.84976" lon="6.51109">
        <ele>1044</ele>
        <time>2019-05-04T08:48:37Z</time>
      </trkpt>
      <trkpt lat="46.84975" lon="6.51108">
        <ele>1044</ele>
        <time>2019-05-04T08:48:38Z</time>
      </trkpt>
      <trkpt lat="46.84975" lon="6.51109">
        <ele>1045</ele>
        <time>2019-05-04T08:48:38Z</time>
      </trkpt>
      <trkpt lat="46.84971" lon="6.51109">
        <ele>1045</ele>
        <time>2019-05-04T08:48:41Z</time>
      </trkpt>
      <trkpt lat="46.84967" lon="6.51109">
        <ele>1046</ele>
        <time>2019-05-04T08:48:44Z</time>
      </trkpt>
      <trkpt lat="46.84958" lon="6.5111">
        <ele>1047</ele>
        <time>2019-05-04T08:48:51Z</time>
      </trkpt>
      <trkpt lat="46.84954" lon="6.51111">
        <ele>1048</ele>
        <time>2019-05-04T08:48:54Z</time>
      </trkpt>
      <trkpt lat="46.84951" lon="6.51112">
        <ele>1049</ele>
        <time>2019-05-04T08:48:56Z</time>
      </trkpt>
      <trkpt lat="46.8494" lon="6.51111">
        <ele>1052</ele>
        <time>2019-05-04T08:49:04Z</time>
      </trkpt>
      <trkpt lat="46.84936" lon="6.5111">
        <ele>1052</ele>
        <time>2019-05-04T08:49:07Z</time>
      </trkpt>
      <trkpt lat="46.84926" lon="6.51111">
        <ele>1056</ele>
        <time>2019-05-04T08:49:14Z</time>
      </trkpt>
      <trkpt lat="46.84918" lon="6.51111">
        <ele>1059</ele>
        <time>2019-05-04T08:49:21Z</time>
      </trkpt>
      <trkpt lat="46.84917" lon="6.51111">
        <ele>1059</ele>
        <time>2019-05-04T08:49:22Z</time>
      </trkpt>
      <trkpt lat="46.84909" lon="6.51108">
        <ele>1061</ele>
        <time>2019-05-04T08:49:27Z</time>
      </trkpt>
      <trkpt lat="46.84905" lon="6.51107">
        <ele>1062</ele>
        <time>2019-05-04T08:49:31Z</time>
      </trkpt>
      <trkpt lat="46.84904" lon="6.51106">
        <ele>1062</ele>
        <time>2019-05-04T08:49:32Z</time>
      </trkpt>
      <trkpt lat="46.84899" lon="6.51105">
        <ele>1063</ele>
        <time>2019-05-04T08:49:36Z</time>
      </trkpt>
      <trkpt lat="46.84896" lon="6.51103">
        <ele>1063</ele>
        <time>2019-05-04T08:49:37Z</time>
      </trkpt>
      <trkpt lat="46.84899" lon="6.51103">
        <ele>1062</ele>
        <time>2019-05-04T08:49:40Z</time>
      </trkpt>
      <trkpt lat="46.84901" lon="6.51104">
        <ele>1062</ele>
        <time>2019-05-04T08:49:41Z</time>
      </trkpt>
      <trkpt lat="46.84903" lon="6.51105">
        <ele>1062</ele>
        <time>2019-05-04T08:49:43Z</time>
      </trkpt>
      <trkpt lat="46.84904" lon="6.51106">
        <ele>1062</ele>
        <time>2019-05-04T08:49:44Z</time>
      </trkpt>
      <trkpt lat="46.84911" lon="6.51108">
        <ele>1060</ele>
        <time>2019-05-04T08:49:49Z</time>
      </trkpt>
      <trkpt lat="46.84913" lon="6.5111">
        <ele>1060</ele>
        <time>2019-05-04T08:49:51Z</time>
      </trkpt>
      <trkpt lat="46.84922" lon="6.51115">
        <ele>1059</ele>
        <time>2019-05-04T08:49:58Z</time>
      </trkpt>
      <trkpt lat="46.84928" lon="6.51124">
        <ele>1061</ele>
        <time>2019-05-04T08:50:04Z</time>
      </trkpt>
      <trkpt lat="46.8493" lon="6.51127">
        <ele>1061</ele>
        <time>2019-05-04T08:50:06Z</time>
      </trkpt>
      <trkpt lat="46.84934" lon="6.51133">
        <ele>1062</ele>
        <time>2019-05-04T08:50:10Z</time>
      </trkpt>
      <trkpt lat="46.84938" lon="6.51137">
        <ele>1062</ele>
        <time>2019-05-04T08:50:14Z</time>
      </trkpt>
      <trkpt lat="46.84943" lon="6.51144">
        <ele>1062</ele>
        <time>2019-05-04T08:50:18Z</time>
      </trkpt>
      <trkpt lat="46.84943" lon="6.51145">
        <ele>1062</ele>
        <time>2019-05-04T08:50:19Z</time>
      </trkpt>
      <trkpt lat="46.84948" lon="6.51156">
        <ele>1064</ele>
        <time>2019-05-04T08:50:26Z</time>
      </trkpt>
      <trkpt lat="46.84951" lon="6.51159">
        <ele>1065</ele>
        <time>2019-05-04T08:50:28Z</time>
      </trkpt>
      <trkpt lat="46.84954" lon="6.51165">
        <ele>1066</ele>
        <time>2019-05-04T08:50:32Z</time>
      </trkpt>
      <trkpt lat="46.84963" lon="6.51175">
        <ele>1068</ele>
        <time>2019-05-04T08:50:40Z</time>
      </trkpt>
      <trkpt lat="46.84965" lon="6.51177">
        <ele>1068</ele>
        <time>2019-05-04T08:50:42Z</time>
      </trkpt>
      <trkpt lat="46.84967" lon="6.51182">
        <ele>1069</ele>
        <time>2019-05-04T08:50:45Z</time>
      </trkpt>
      <trkpt lat="46.84968" lon="6.51183">
        <ele>1069</ele>
        <time>2019-05-04T08:50:46Z</time>
      </trkpt>
      <trkpt lat="46.84973" lon="6.51187">
        <ele>1069</ele>
        <time>2019-05-04T08:50:50Z</time>
      </trkpt>
      <trkpt lat="46.84977" lon="6.5119">
        <ele>1069</ele>
        <time>2019-05-04T08:50:53Z</time>
      </trkpt>
      <trkpt lat="46.84986" lon="6.51201">
        <ele>1070</ele>
        <time>2019-05-04T08:51:02Z</time>
      </trkpt>
      <trkpt lat="46.84996" lon="6.51207">
        <ele>1070</ele>
        <time>2019-05-04T08:51:09Z</time>
      </trkpt>
      <trkpt lat="46.84998" lon="6.51208">
        <ele>1069</ele>
        <time>2019-05-04T08:51:11Z</time>
      </trkpt>
      <trkpt lat="46.85005" lon="6.5121">
        <ele>1068</ele>
        <time>2019-05-04T08:51:16Z</time>
      </trkpt>
      <trkpt lat="46.85012" lon="6.51212">
        <ele>1067</ele>
        <time>2019-05-04T08:51:22Z</time>
      </trkpt>
      <trkpt lat="46.85028" lon="6.51212">
        <ele>1063</ele>
        <time>2019-05-04T08:51:33Z</time>
      </trkpt>
      <trkpt lat="46.85031" lon="6.51214">
        <ele>1063</ele>
        <time>2019-05-04T08:51:36Z</time>
      </trkpt>
      <trkpt lat="46.85039" lon="6.51221">
        <ele>1064</ele>
        <time>2019-05-04T08:51:43Z</time>
      </trkpt>
      <trkpt lat="46.85039" lon="6.51228">
        <ele>1066</ele>
        <time>2019-05-04T08:51:46Z</time>
      </trkpt>
      <trkpt lat="46.85042" lon="6.51237">
        <ele>1068</ele>
        <time>2019-05-04T08:51:51Z</time>
      </trkpt>
      <trkpt lat="46.85045" lon="6.51245">
        <ele>1070</ele>
        <time>2019-05-04T08:51:56Z</time>
      </trkpt>
      <trkpt lat="46.85049" lon="6.51252">
        <ele>1071</ele>
        <time>2019-05-04T08:52:00Z</time>
      </trkpt>
      <trkpt lat="46.85051" lon="6.51255">
        <ele>1071</ele>
        <time>2019-05-04T08:52:02Z</time>
      </trkpt>
      <trkpt lat="46.85052" lon="6.51258">
        <ele>1072</ele>
        <time>2019-05-04T08:52:04Z</time>
      </trkpt>
      <trkpt lat="46.85054" lon="6.51261">
        <ele>1073</ele>
        <time>2019-05-04T08:52:07Z</time>
      </trkpt>
      <trkpt lat="46.85053" lon="6.5127">
        <ele>1075</ele>
        <time>2019-05-04T08:52:12Z</time>
      </trkpt>
      <trkpt lat="46.85055" lon="6.51275">
        <ele>1076</ele>
        <time>2019-05-04T08:52:14Z</time>
      </trkpt>
      <trkpt lat="46.85057" lon="6.51282">
        <ele>1078</ele>
        <time>2019-05-04T08:52:19Z</time>
      </trkpt>
      <trkpt lat="46.85061" lon="6.5129">
        <ele>1080</ele>
        <time>2019-05-04T08:52:24Z</time>
      </trkpt>
      <trkpt lat="46.85062" lon="6.51291">
        <ele>1081</ele>
        <time>2019-05-04T08:52:25Z</time>
      </trkpt>
      <trkpt lat="46.85069" lon="6.51303">
        <ele>1083</ele>
        <time>2019-05-04T08:52:32Z</time>
      </trkpt>
      <trkpt lat="46.85075" lon="6.51308">
        <ele>1084</ele>
        <time>2019-05-04T08:52:38Z</time>
      </trkpt>
      <trkpt lat="46.8508" lon="6.5132">
        <ele>1086</ele>
        <time>2019-05-04T08:52:45Z</time>
      </trkpt>
      <trkpt lat="46.85089" lon="6.51324">
        <ele>1086</ele>
        <time>2019-05-04T08:52:51Z</time>
      </trkpt>
      <trkpt lat="46.85089" lon="6.51324">
        <ele>1086</ele>
        <time>2019-05-04T08:52:51Z</time>
      </trkpt>
      <trkpt lat="46.85092" lon="6.51325">
        <ele>1086</ele>
        <time>2019-05-04T08:52:54Z</time>
      </trkpt>
      <trkpt lat="46.85105" lon="6.51323">
        <ele>1082</ele>
        <time>2019-05-04T08:53:04Z</time>
      </trkpt>
      <trkpt lat="46.85111" lon="6.51324">
        <ele>1081</ele>
        <time>2019-05-04T08:53:08Z</time>
      </trkpt>
      <trkpt lat="46.85119" lon="6.51331">
        <ele>1082</ele>
        <time>2019-05-04T08:53:15Z</time>
      </trkpt>
      <trkpt lat="46.85132" lon="6.51341">
        <ele>1082</ele>
        <time>2019-05-04T08:53:25Z</time>
      </trkpt>
      <trkpt lat="46.85138" lon="6.51347">
        <ele>1083</ele>
        <time>2019-05-04T08:53:31Z</time>
      </trkpt>
      <trkpt lat="46.85142" lon="6.51352">
        <ele>1084</ele>
        <time>2019-05-04T08:53:35Z</time>
      </trkpt>
      <trkpt lat="46.85146" lon="6.51361">
        <ele>1086</ele>
        <time>2019-05-04T08:53:40Z</time>
      </trkpt>
      <trkpt lat="46.85148" lon="6.51364">
        <ele>1086</ele>
        <time>2019-05-04T08:53:42Z</time>
      </trkpt>
      <trkpt lat="46.85151" lon="6.51365">
        <ele>1086</ele>
        <time>2019-05-04T08:53:44Z</time>
      </trkpt>
      <trkpt lat="46.85155" lon="6.51368">
        <ele>1086</ele>
        <time>2019-05-04T08:53:47Z</time>
      </trkpt>
      <trkpt lat="46.85156" lon="6.51372">
        <ele>1087</ele>
        <time>2019-05-04T08:53:50Z</time>
      </trkpt>
      <trkpt lat="46.8516" lon="6.51375">
        <ele>1087</ele>
        <time>2019-05-04T08:53:53Z</time>
      </trkpt>
      <trkpt lat="46.85161" lon="6.51376">
        <ele>1087</ele>
        <time>2019-05-04T08:53:54Z</time>
      </trkpt>
      <trkpt lat="46.85163" lon="6.51381">
        <ele>1088</ele>
        <time>2019-05-04T08:53:57Z</time>
      </trkpt>
      <trkpt lat="46.85166" lon="6.51384">
        <ele>1088</ele>
        <time>2019-05-04T08:53:59Z</time>
      </trkpt>
      <trkpt lat="46.85168" lon="6.51389">
        <ele>1089</ele>
        <time>2019-05-04T08:54:02Z</time>
      </trkpt>
      <trkpt lat="46.85176" lon="6.51401">
        <ele>1091</ele>
        <time>2019-05-04T08:54:11Z</time>
      </trkpt>
      <trkpt lat="46.85176" lon="6.5142">
        <ele>1097</ele>
        <time>2019-05-04T08:54:21Z</time>
      </trkpt>
      <trkpt lat="46.85175" lon="6.51429">
        <ele>1099</ele>
        <time>2019-05-04T08:54:25Z</time>
      </trkpt>
      <trkpt lat="46.85176" lon="6.51433">
        <ele>1100</ele>
        <time>2019-05-04T08:54:28Z</time>
      </trkpt>
      <trkpt lat="46.85176" lon="6.51437">
        <ele>1102</ele>
        <time>2019-05-04T08:54:30Z</time>
      </trkpt>
      <trkpt lat="46.85179" lon="6.51442">
        <ele>1102</ele>
        <time>2019-05-04T08:54:34Z</time>
      </trkpt>
      <trkpt lat="46.85182" lon="6.51445">
        <ele>1102</ele>
        <time>2019-05-04T08:54:36Z</time>
      </trkpt>
      <trkpt lat="46.8519" lon="6.51455">
        <ele>1103</ele>
        <time>2019-05-04T08:54:43Z</time>
      </trkpt>
      <trkpt lat="46.85194" lon="6.51463">
        <ele>1104</ele>
        <time>2019-05-04T08:54:49Z</time>
      </trkpt>
      <trkpt lat="46.85194" lon="6.51472">
        <ele>1106</ele>
        <time>2019-05-04T08:54:53Z</time>
      </trkpt>
      <trkpt lat="46.85202" lon="6.51477">
        <ele>1105</ele>
        <time>2019-05-04T08:55:00Z</time>
      </trkpt>
      <trkpt lat="46.85207" lon="6.51484">
        <ele>1105</ele>
        <time>2019-05-04T08:55:04Z</time>
      </trkpt>
      <trkpt lat="46.85211" lon="6.51488">
        <ele>1105</ele>
        <time>2019-05-04T08:55:08Z</time>
      </trkpt>
      <trkpt lat="46.85218" lon="6.51496">
        <ele>1104</ele>
        <time>2019-05-04T08:55:14Z</time>
      </trkpt>
      <trkpt lat="46.8522" lon="6.51501">
        <ele>1105</ele>
        <time>2019-05-04T08:55:17Z</time>
      </trkpt>
      <trkpt lat="46.85225" lon="6.51508">
        <ele>1105</ele>
        <time>2019-05-04T08:55:23Z</time>
      </trkpt>
      <trkpt lat="46.85227" lon="6.5151">
        <ele>1105</ele>
        <time>2019-05-04T08:55:24Z</time>
      </trkpt>
      <trkpt lat="46.8523" lon="6.51518">
        <ele>1106</ele>
        <time>2019-05-04T08:55:29Z</time>
      </trkpt>
      <trkpt lat="46.8523" lon="6.51519">
        <ele>1106</ele>
        <time>2019-05-04T08:55:29Z</time>
      </trkpt>
      <trkpt lat="46.85235" lon="6.51525">
        <ele>1105</ele>
        <time>2019-05-04T08:55:34Z</time>
      </trkpt>
      <trkpt lat="46.85242" lon="6.51551">
        <ele>1109</ele>
        <time>2019-05-04T08:55:48Z</time>
      </trkpt>
      <trkpt lat="46.85254" lon="6.51574">
        <ele>1108</ele>
        <time>2019-05-04T08:56:03Z</time>
      </trkpt>
      <trkpt lat="46.85256" lon="6.51584">
        <ele>1108</ele>
        <time>2019-05-04T08:56:08Z</time>
      </trkpt>
      <trkpt lat="46.85256" lon="6.51611">
        <ele>1114</ele>
        <time>2019-05-04T08:56:22Z</time>
      </trkpt>
      <trkpt lat="46.85258" lon="6.51637">
        <ele>1116</ele>
        <time>2019-05-04T08:56:35Z</time>
      </trkpt>
      <trkpt lat="46.85269" lon="6.51661">
        <ele>1112</ele>
        <time>2019-05-04T08:56:49Z</time>
      </trkpt>
      <trkpt lat="46.85275" lon="6.51687">
        <ele>1111</ele>
        <time>2019-05-04T08:57:03Z</time>
      </trkpt>
      <trkpt lat="46.8528" lon="6.51715">
        <ele>1110</ele>
        <time>2019-05-04T08:57:17Z</time>
      </trkpt>
      <trkpt lat="46.85277" lon="6.5174">
        <ele>1117</ele>
        <time>2019-05-04T08:57:31Z</time>
      </trkpt>
      <trkpt lat="46.85273" lon="6.51757">
        <ele>1122</ele>
        <time>2019-05-04T08:57:40Z</time>
      </trkpt>
      <trkpt lat="46.85272" lon="6.51773">
        <ele>1125</ele>
        <time>2019-05-04T08:57:48Z</time>
      </trkpt>
      <trkpt lat="46.85272" lon="6.51777">
        <ele>1126</ele>
        <time>2019-05-04T08:57:51Z</time>
      </trkpt>
      <trkpt lat="46.85276" lon="6.51804">
        <ele>1125</ele>
        <time>2019-05-04T08:58:04Z</time>
      </trkpt>
      <trkpt lat="46.85288" lon="6.51823">
        <ele>1118</ele>
        <time>2019-05-04T08:58:18Z</time>
      </trkpt>
      <trkpt lat="46.8529" lon="6.51839">
        <ele>1118</ele>
        <time>2019-05-04T08:58:26Z</time>
      </trkpt>
      <trkpt lat="46.85301" lon="6.51861">
        <ele>1114</ele>
        <time>2019-05-04T08:58:40Z</time>
      </trkpt>
      <trkpt lat="46.85303" lon="6.5187">
        <ele>1114</ele>
        <time>2019-05-04T08:58:44Z</time>
      </trkpt>
      <trkpt lat="46.85302" lon="6.51873">
        <ele>1114</ele>
        <time>2019-05-04T08:58:46Z</time>
      </trkpt>
      <trkpt lat="46.85301" lon="6.519">
        <ele>1116</ele>
        <time>2019-05-04T08:58:59Z</time>
      </trkpt>
      <trkpt lat="46.85297" lon="6.51924">
        <ele>1119</ele>
        <time>2019-05-04T08:59:11Z</time>
      </trkpt>
      <trkpt lat="46.85298" lon="6.51935">
        <ele>1119</ele>
        <time>2019-05-04T08:59:17Z</time>
      </trkpt>
      <trkpt lat="46.85296" lon="6.51949">
        <ele>1121</ele>
        <time>2019-05-04T08:59:24Z</time>
      </trkpt>
      <trkpt lat="46.85284" lon="6.51975">
        <ele>1125</ele>
        <time>2019-05-04T08:59:40Z</time>
      </trkpt>
      <trkpt lat="46.8527" lon="6.51993">
        <ele>1132</ele>
        <time>2019-05-04T08:59:54Z</time>
      </trkpt>
      <trkpt lat="46.85257" lon="6.52011">
        <ele>1140</ele>
        <time>2019-05-04T09:00:09Z</time>
      </trkpt>
      <trkpt lat="46.85241" lon="6.52029">
        <ele>1148</ele>
        <time>2019-05-04T09:00:24Z</time>
      </trkpt>
      <trkpt lat="46.85233" lon="6.52057">
        <ele>1148</ele>
        <time>2019-05-04T09:00:39Z</time>
      </trkpt>
      <trkpt lat="46.85232" lon="6.52061">
        <ele>1148</ele>
        <time>2019-05-04T09:00:41Z</time>
      </trkpt>
      <trkpt lat="46.85231" lon="6.52091">
        <ele>1144</ele>
        <time>2019-05-04T09:00:56Z</time>
      </trkpt>
      <trkpt lat="46.85244" lon="6.52113">
        <ele>1136</ele>
        <time>2019-05-04T09:01:11Z</time>
      </trkpt>
      <trkpt lat="46.85258" lon="6.52132">
        <ele>1131</ele>
        <time>2019-05-04T09:01:26Z</time>
      </trkpt>
      <trkpt lat="46.85268" lon="6.52142">
        <ele>1129</ele>
        <time>2019-05-04T09:01:34Z</time>
      </trkpt>
      <trkpt lat="46.85275" lon="6.52156">
        <ele>1127</ele>
        <time>2019-05-04T09:01:43Z</time>
      </trkpt>
      <trkpt lat="46.8528" lon="6.5217">
        <ele>1127</ele>
        <time>2019-05-04T09:01:51Z</time>
      </trkpt>
      <trkpt lat="46.85288" lon="6.52185">
        <ele>1130</ele>
        <time>2019-05-04T09:02:01Z</time>
      </trkpt>
      <trkpt lat="46.85303" lon="6.52206">
        <ele>1134</ele>
        <time>2019-05-04T09:02:16Z</time>
      </trkpt>
      <trkpt lat="46.85309" lon="6.52214">
        <ele>1135</ele>
        <time>2019-05-04T09:02:22Z</time>
      </trkpt>
      <trkpt lat="46.85307" lon="6.52213">
        <ele>1135</ele>
        <time>2019-05-04T09:02:24Z</time>
      </trkpt>
      <trkpt lat="46.85298" lon="6.5221">
        <ele>1133</ele>
        <time>2019-05-04T09:02:30Z</time>
      </trkpt>
      <trkpt lat="46.85294" lon="6.52205">
        <ele>1132</ele>
        <time>2019-05-04T09:02:34Z</time>
      </trkpt>
      <trkpt lat="46.85292" lon="6.52203">
        <ele>1131</ele>
        <time>2019-05-04T09:02:36Z</time>
      </trkpt>
      <trkpt lat="46.85278" lon="6.52184">
        <ele>1129</ele>
        <time>2019-05-04T09:02:50Z</time>
      </trkpt>
      <trkpt lat="46.85271" lon="6.52174">
        <ele>1130</ele>
        <time>2019-05-04T09:02:57Z</time>
      </trkpt>
      <trkpt lat="46.85258" lon="6.52151">
        <ele>1132</ele>
        <time>2019-05-04T09:03:12Z</time>
      </trkpt>
      <trkpt lat="46.85254" lon="6.52144">
        <ele>1133</ele>
        <time>2019-05-04T09:03:16Z</time>
      </trkpt>
      <trkpt lat="46.85245" lon="6.52133">
        <ele>1136</ele>
        <time>2019-05-04T09:03:25Z</time>
      </trkpt>
      <trkpt lat="46.85243" lon="6.52128">
        <ele>1137</ele>
        <time>2019-05-04T09:03:28Z</time>
      </trkpt>
      <trkpt lat="46.85241" lon="6.52123">
        <ele>1137</ele>
        <time>2019-05-04T09:03:31Z</time>
      </trkpt>
      <trkpt lat="46.85238" lon="6.52122">
        <ele>1139</ele>
        <time>2019-05-04T09:03:33Z</time>
      </trkpt>
      <trkpt lat="46.85238" lon="6.52114">
        <ele>1138</ele>
        <time>2019-05-04T09:03:38Z</time>
      </trkpt>
      <trkpt lat="46.85243" lon="6.52121">
        <ele>1137</ele>
        <time>2019-05-04T09:03:42Z</time>
      </trkpt>
      <trkpt lat="46.85244" lon="6.52123">
        <ele>1136</ele>
        <time>2019-05-04T09:03:44Z</time>
      </trkpt>
      <trkpt lat="46.85241" lon="6.52128">
        <ele>1138</ele>
        <time>2019-05-04T09:03:48Z</time>
      </trkpt>
      <trkpt lat="46.85239" lon="6.52127">
        <ele>1138</ele>
        <time>2019-05-04T09:03:49Z</time>
      </trkpt>
      <trkpt lat="46.85233" lon="6.52122">
        <ele>1140</ele>
        <time>2019-05-04T09:03:54Z</time>
      </trkpt>
      <trkpt lat="46.85232" lon="6.5212">
        <ele>1141</ele>
        <time>2019-05-04T09:03:55Z</time>
      </trkpt>
      <trkpt lat="46.8523" lon="6.52122">
        <ele>1142</ele>
        <time>2019-05-04T09:03:57Z</time>
      </trkpt>
      <trkpt lat="46.85229" lon="6.52122">
        <ele>1142</ele>
        <time>2019-05-04T09:03:58Z</time>
      </trkpt>
      <trkpt lat="46.85228" lon="6.52123">
        <ele>1142</ele>
        <time>2019-05-04T09:03:59Z</time>
      </trkpt>
      <trkpt lat="46.85228" lon="6.52123">
        <ele>1142</ele>
        <time>2019-05-04T09:03:59Z</time>
      </trkpt>
      <trkpt lat="46.85225" lon="6.52122">
        <ele>1143</ele>
        <time>2019-05-04T09:04:01Z</time>
      </trkpt>
      <trkpt lat="46.85225" lon="6.52122">
        <ele>1143</ele>
        <time>2019-05-04T09:04:01Z</time>
      </trkpt>
      <trkpt lat="46.85224" lon="6.52123">
        <ele>1144</ele>
        <time>2019-05-04T09:04:02Z</time>
      </trkpt>
      <trkpt lat="46.85221" lon="6.52123">
        <ele>1145</ele>
        <time>2019-05-04T09:04:05Z</time>
      </trkpt>
      <trkpt lat="46.8522" lon="6.52123">
        <ele>1146</ele>
        <time>2019-05-04T09:04:06Z</time>
      </trkpt>
      <trkpt lat="46.85219" lon="6.52123">
        <ele>1146</ele>
        <time>2019-05-04T09:04:07Z</time>
      </trkpt>
      <trkpt lat="46.85218" lon="6.52124">
        <ele>1146</ele>
        <time>2019-05-04T09:04:07Z</time>
      </trkpt>
      <trkpt lat="46.85218" lon="6.52124">
        <ele>1146</ele>
        <time>2019-05-04T09:04:08Z</time>
      </trkpt>
      <trkpt lat="46.85217" lon="6.52126">
        <ele>1146</ele>
        <time>2019-05-04T09:04:09Z</time>
      </trkpt>
      <trkpt lat="46.85213" lon="6.52128">
        <ele>1148</ele>
        <time>2019-05-04T09:04:12Z</time>
      </trkpt>
      <trkpt lat="46.85211" lon="6.52129">
        <ele>1148</ele>
        <time>2019-05-04T09:04:13Z</time>
      </trkpt>
      <trkpt lat="46.85212" lon="6.52129">
        <ele>1148</ele>
        <time>2019-05-04T09:04:13Z</time>
      </trkpt>
      <trkpt lat="46.85209" lon="6.52129">
        <ele>1149</ele>
        <time>2019-05-04T09:04:15Z</time>
      </trkpt>
      <trkpt lat="46.85207" lon="6.5213">
        <ele>1150</ele>
        <time>2019-05-04T09:04:17Z</time>
      </trkpt>
      <trkpt lat="46.85206" lon="6.52131">
        <ele>1150</ele>
        <time>2019-05-04T09:04:18Z</time>
      </trkpt>
      <trkpt lat="46.85206" lon="6.52133">
        <ele>1150</ele>
        <time>2019-05-04T09:04:19Z</time>
      </trkpt>
      <trkpt lat="46.85204" lon="6.52135">
        <ele>1151</ele>
        <time>2019-05-04T09:04:21Z</time>
      </trkpt>
      <trkpt lat="46.85204" lon="6.52136">
        <ele>1151</ele>
        <time>2019-05-04T09:04:21Z</time>
      </trkpt>
      <trkpt lat="46.85204" lon="6.52137">
        <ele>1150</ele>
        <time>2019-05-04T09:04:22Z</time>
      </trkpt>
      <trkpt lat="46.85202" lon="6.52138">
        <ele>1151</ele>
        <time>2019-05-04T09:04:24Z</time>
      </trkpt>
      <trkpt lat="46.852" lon="6.52138">
        <ele>1152</ele>
        <time>2019-05-04T09:04:25Z</time>
      </trkpt>
      <trkpt lat="46.852" lon="6.52138">
        <ele>1152</ele>
        <time>2019-05-04T09:04:26Z</time>
      </trkpt>
      <trkpt lat="46.85198" lon="6.52138">
        <ele>1152</ele>
        <time>2019-05-04T09:04:27Z</time>
      </trkpt>
      <trkpt lat="46.85198" lon="6.52138">
        <ele>1152</ele>
        <time>2019-05-04T09:04:27Z</time>
      </trkpt>
      <trkpt lat="46.85197" lon="6.52138">
        <ele>1153</ele>
        <time>2019-05-04T09:04:28Z</time>
      </trkpt>
      <trkpt lat="46.85196" lon="6.52138">
        <ele>1153</ele>
        <time>2019-05-04T09:04:29Z</time>
      </trkpt>
      <trkpt lat="46.85195" lon="6.52139">
        <ele>1153</ele>
        <time>2019-05-04T09:04:29Z</time>
      </trkpt>
      <trkpt lat="46.85194" lon="6.52139">
        <ele>1153</ele>
        <time>2019-05-04T09:04:30Z</time>
      </trkpt>
      <trkpt lat="46.85194" lon="6.5214">
        <ele>1153</ele>
        <time>2019-05-04T09:04:31Z</time>
      </trkpt>
      <trkpt lat="46.85194" lon="6.52141">
        <ele>1153</ele>
        <time>2019-05-04T09:04:31Z</time>
      </trkpt>
      <trkpt lat="46.85194" lon="6.52139">
        <ele>1153</ele>
        <time>2019-05-04T09:04:32Z</time>
      </trkpt>
      <trkpt lat="46.85194" lon="6.52138">
        <ele>1154</ele>
        <time>2019-05-04T09:04:33Z</time>
      </trkpt>
      <trkpt lat="46.85193" lon="6.52135">
        <ele>1154</ele>
        <time>2019-05-04T09:04:34Z</time>
      </trkpt>
      <trkpt lat="46.85193" lon="6.52133">
        <ele>1154</ele>
        <time>2019-05-04T09:04:36Z</time>
      </trkpt>
      <trkpt lat="46.85192" lon="6.52133">
        <ele>1155</ele>
        <time>2019-05-04T09:04:37Z</time>
      </trkpt>
      <trkpt lat="46.85183" lon="6.52135">
        <ele>1157</ele>
        <time>2019-05-04T09:04:43Z</time>
      </trkpt>
      <trkpt lat="46.85183" lon="6.52136">
        <ele>1157</ele>
        <time>2019-05-04T09:04:44Z</time>
      </trkpt>
      <trkpt lat="46.85183" lon="6.52136">
        <ele>1157</ele>
        <time>2019-05-04T09:04:44Z</time>
      </trkpt>
      <trkpt lat="46.85186" lon="6.52132">
        <ele>1156</ele>
        <time>2019-05-04T09:04:47Z</time>
      </trkpt>
      <trkpt lat="46.85186" lon="6.52129">
        <ele>1156</ele>
        <time>2019-05-04T09:04:49Z</time>
      </trkpt>
      <trkpt lat="46.85187" lon="6.52125">
        <ele>1156</ele>
        <time>2019-05-04T09:04:50Z</time>
      </trkpt>
      <trkpt lat="46.85182" lon="6.52131">
        <ele>1157</ele>
        <time>2019-05-04T09:04:55Z</time>
      </trkpt>
      <trkpt lat="46.85178" lon="6.52133">
        <ele>1158</ele>
        <time>2019-05-04T09:04:59Z</time>
      </trkpt>
      <trkpt lat="46.85165" lon="6.5214">
        <ele>1161</ele>
        <time>2019-05-04T09:05:08Z</time>
      </trkpt>
      <trkpt lat="46.85163" lon="6.52142">
        <ele>1162</ele>
        <time>2019-05-04T09:05:10Z</time>
      </trkpt>
      <trkpt lat="46.85158" lon="6.52142">
        <ele>1164</ele>
        <time>2019-05-04T09:05:14Z</time>
      </trkpt>
      <trkpt lat="46.85157" lon="6.52144">
        <ele>1164</ele>
        <time>2019-05-04T09:05:16Z</time>
      </trkpt>
      <trkpt lat="46.85151" lon="6.52144">
        <ele>1165</ele>
        <time>2019-05-04T09:05:20Z</time>
      </trkpt>
      <trkpt lat="46.85149" lon="6.52143">
        <ele>1166</ele>
        <time>2019-05-04T09:05:22Z</time>
      </trkpt>
      <trkpt lat="46.85146" lon="6.52141">
        <ele>1167</ele>
        <time>2019-05-04T09:05:24Z</time>
      </trkpt>
      <trkpt lat="46.85146" lon="6.52139">
        <ele>1167</ele>
        <time>2019-05-04T09:05:25Z</time>
      </trkpt>
      <trkpt lat="46.85137" lon="6.52119">
        <ele>1170</ele>
        <time>2019-05-04T09:05:37Z</time>
      </trkpt>
      <trkpt lat="46.85139" lon="6.5212">
        <ele>1170</ele>
        <time>2019-05-04T09:05:37Z</time>
      </trkpt>
      <trkpt lat="46.8514" lon="6.52125">
        <ele>1169</ele>
        <time>2019-05-04T09:05:40Z</time>
      </trkpt>
      <trkpt lat="46.85142" lon="6.52127">
        <ele>1168</ele>
        <time>2019-05-04T09:05:42Z</time>
      </trkpt>
      <trkpt lat="46.85146" lon="6.5213">
        <ele>1167</ele>
        <time>2019-05-04T09:05:45Z</time>
      </trkpt>
      <trkpt lat="46.85147" lon="6.52131">
        <ele>1167</ele>
        <time>2019-05-04T09:05:46Z</time>
      </trkpt>
      <trkpt lat="46.85148" lon="6.52133">
        <ele>1167</ele>
        <time>2019-05-04T09:05:47Z</time>
      </trkpt>
      <trkpt lat="46.8515" lon="6.52135">
        <ele>1166</ele>
        <time>2019-05-04T09:05:50Z</time>
      </trkpt>
      <trkpt lat="46.85164" lon="6.52154">
        <ele>1161</ele>
        <time>2019-05-04T09:06:03Z</time>
      </trkpt>
      <trkpt lat="46.8517" lon="6.5216">
        <ele>1159</ele>
        <time>2019-05-04T09:06:09Z</time>
      </trkpt>
      <trkpt lat="46.85181" lon="6.52182">
        <ele>1154</ele>
        <time>2019-05-04T09:06:23Z</time>
      </trkpt>
      <trkpt lat="46.8519" lon="6.52206">
        <ele>1151</ele>
        <time>2019-05-04T09:06:36Z</time>
      </trkpt>
      <trkpt lat="46.8519" lon="6.52208">
        <ele>1151</ele>
        <time>2019-05-04T09:06:38Z</time>
      </trkpt>
      <trkpt lat="46.85191" lon="6.52214">
        <ele>1151</ele>
        <time>2019-05-04T09:06:40Z</time>
      </trkpt>
      <trkpt lat="46.85194" lon="6.52223">
        <ele>1150</ele>
        <time>2019-05-04T09:06:46Z</time>
      </trkpt>
      <trkpt lat="46.85206" lon="6.52243">
        <ele>1147</ele>
        <time>2019-05-04T09:06:59Z</time>
      </trkpt>
      <trkpt lat="46.85208" lon="6.52247">
        <ele>1147</ele>
        <time>2019-05-04T09:07:01Z</time>
      </trkpt>
      <trkpt lat="46.85206" lon="6.52268">
        <ele>1148</ele>
        <time>2019-05-04T09:07:12Z</time>
      </trkpt>
      <trkpt lat="46.85201" lon="6.52284">
        <ele>1149</ele>
        <time>2019-05-04T09:07:21Z</time>
      </trkpt>
      <trkpt lat="46.85193" lon="6.52301">
        <ele>1150</ele>
        <time>2019-05-04T09:07:31Z</time>
      </trkpt>
      <trkpt lat="46.85186" lon="6.52312">
        <ele>1153</ele>
        <time>2019-05-04T09:07:39Z</time>
      </trkpt>
      <trkpt lat="46.85175" lon="6.52331">
        <ele>1156</ele>
        <time>2019-05-04T09:07:51Z</time>
      </trkpt>
      <trkpt lat="46.8517" lon="6.52343">
        <ele>1158</ele>
        <time>2019-05-04T09:07:58Z</time>
      </trkpt>
      <trkpt lat="46.85168" lon="6.52349">
        <ele>1158</ele>
        <time>2019-05-04T09:08:02Z</time>
      </trkpt>
      <trkpt lat="46.8517" lon="6.52361">
        <ele>1157</ele>
        <time>2019-05-04T09:08:08Z</time>
      </trkpt>
      <trkpt lat="46.85173" lon="6.52368">
        <ele>1155</ele>
        <time>2019-05-04T09:08:13Z</time>
      </trkpt>
      <trkpt lat="46.8518" lon="6.5238">
        <ele>1151</ele>
        <time>2019-05-04T09:08:21Z</time>
      </trkpt>
      <trkpt lat="46.85185" lon="6.52391">
        <ele>1148</ele>
        <time>2019-05-04T09:08:27Z</time>
      </trkpt>
      <trkpt lat="46.85192" lon="6.52409">
        <ele>1144</ele>
        <time>2019-05-04T09:08:38Z</time>
      </trkpt>
      <trkpt lat="46.85195" lon="6.52423">
        <ele>1142</ele>
        <time>2019-05-04T09:08:46Z</time>
      </trkpt>
      <trkpt lat="46.85198" lon="6.5245">
        <ele>1139</ele>
        <time>2019-05-04T09:08:59Z</time>
      </trkpt>
      <trkpt lat="46.85193" lon="6.52464">
        <ele>1140</ele>
        <time>2019-05-04T09:09:07Z</time>
      </trkpt>
      <trkpt lat="46.85191" lon="6.52476">
        <ele>1141</ele>
        <time>2019-05-04T09:09:13Z</time>
      </trkpt>
      <trkpt lat="46.8519" lon="6.52488">
        <ele>1140</ele>
        <time>2019-05-04T09:09:19Z</time>
      </trkpt>
      <trkpt lat="46.85198" lon="6.52504">
        <ele>1137</ele>
        <time>2019-05-04T09:09:29Z</time>
      </trkpt>
      <trkpt lat="46.85198" lon="6.52506">
        <ele>1137</ele>
        <time>2019-05-04T09:09:30Z</time>
      </trkpt>
      <trkpt lat="46.85197" lon="6.52507">
        <ele>1137</ele>
        <time>2019-05-04T09:09:31Z</time>
      </trkpt>
      <trkpt lat="46.85197" lon="6.52507">
        <ele>1138</ele>
        <time>2019-05-04T09:09:31Z</time>
      </trkpt>
      <trkpt lat="46.85203" lon="6.52515">
        <ele>1137</ele>
        <time>2019-05-04T09:09:37Z</time>
      </trkpt>
      <trkpt lat="46.85202" lon="6.52521">
        <ele>1137</ele>
        <time>2019-05-04T09:09:40Z</time>
      </trkpt>
      <trkpt lat="46.85196" lon="6.52546">
        <ele>1138</ele>
        <time>2019-05-04T09:09:53Z</time>
      </trkpt>
      <trkpt lat="46.85205" lon="6.52564">
        <ele>1137</ele>
        <time>2019-05-04T09:10:05Z</time>
      </trkpt>
      <trkpt lat="46.85214" lon="6.52577">
        <ele>1136</ele>
        <time>2019-05-04T09:10:14Z</time>
      </trkpt>
      <trkpt lat="46.85221" lon="6.52587">
        <ele>1136</ele>
        <time>2019-05-04T09:10:21Z</time>
      </trkpt>
      <trkpt lat="46.85222" lon="6.52595">
        <ele>1136</ele>
        <time>2019-05-04T09:10:25Z</time>
      </trkpt>
      <trkpt lat="46.85222" lon="6.52596">
        <ele>1136</ele>
        <time>2019-05-04T09:10:25Z</time>
      </trkpt>
      <trkpt lat="46.85222" lon="6.526">
        <ele>1136</ele>
        <time>2019-05-04T09:10:27Z</time>
      </trkpt>
      <trkpt lat="46.8522" lon="6.52606">
        <ele>1136</ele>
        <time>2019-05-04T09:10:30Z</time>
      </trkpt>
      <trkpt lat="46.8522" lon="6.52607">
        <ele>1136</ele>
        <time>2019-05-04T09:10:31Z</time>
      </trkpt>
      <trkpt lat="46.85214" lon="6.52614">
        <ele>1138</ele>
        <time>2019-05-04T09:10:36Z</time>
      </trkpt>
      <trkpt lat="46.85209" lon="6.52619">
        <ele>1140</ele>
        <time>2019-05-04T09:10:41Z</time>
      </trkpt>
      <trkpt lat="46.85202" lon="6.52618">
        <ele>1141</ele>
        <time>2019-05-04T09:10:46Z</time>
      </trkpt>
      <trkpt lat="46.85195" lon="6.52617">
        <ele>1142</ele>
        <time>2019-05-04T09:10:51Z</time>
      </trkpt>
      <trkpt lat="46.8519" lon="6.52613">
        <ele>1143</ele>
        <time>2019-05-04T09:10:55Z</time>
      </trkpt>
      <trkpt lat="46.85181" lon="6.52613">
        <ele>1146</ele>
        <time>2019-05-04T09:11:02Z</time>
      </trkpt>
      <trkpt lat="46.85174" lon="6.52611">
        <ele>1147</ele>
        <time>2019-05-04T09:11:08Z</time>
      </trkpt>
      <trkpt lat="46.85169" lon="6.52602">
        <ele>1148</ele>
        <time>2019-05-04T09:11:13Z</time>
      </trkpt>
      <trkpt lat="46.85163" lon="6.52595">
        <ele>1149</ele>
        <time>2019-05-04T09:11:18Z</time>
      </trkpt>
      <trkpt lat="46.85158" lon="6.5259">
        <ele>1151</ele>
        <time>2019-05-04T09:11:23Z</time>
      </trkpt>
      <trkpt lat="46.85151" lon="6.52582">
        <ele>1153</ele>
        <time>2019-05-04T09:11:30Z</time>
      </trkpt>
      <trkpt lat="46.85142" lon="6.52572">
        <ele>1155</ele>
        <time>2019-05-04T09:11:38Z</time>
      </trkpt>
      <trkpt lat="46.8514" lon="6.52571">
        <ele>1156</ele>
        <time>2019-05-04T09:11:40Z</time>
      </trkpt>
      <trkpt lat="46.85135" lon="6.52567">
        <ele>1157</ele>
        <time>2019-05-04T09:11:44Z</time>
      </trkpt>
      <trkpt lat="46.85134" lon="6.52566">
        <ele>1157</ele>
        <time>2019-05-04T09:11:44Z</time>
      </trkpt>
      <trkpt lat="46.85129" lon="6.52565">
        <ele>1158</ele>
        <time>2019-05-04T09:11:48Z</time>
      </trkpt>
      <trkpt lat="46.85123" lon="6.52566">
        <ele>1160</ele>
        <time>2019-05-04T09:11:53Z</time>
      </trkpt>
      <trkpt lat="46.85115" lon="6.52566">
        <ele>1163</ele>
        <time>2019-05-04T09:11:59Z</time>
      </trkpt>
      <trkpt lat="46.85107" lon="6.52569">
        <ele>1165</ele>
        <time>2019-05-04T09:12:05Z</time>
      </trkpt>
      <trkpt lat="46.85099" lon="6.5257">
        <ele>1168</ele>
        <time>2019-05-04T09:12:11Z</time>
      </trkpt>
      <trkpt lat="46.85093" lon="6.52573">
        <ele>1170</ele>
        <time>2019-05-04T09:12:16Z</time>
      </trkpt>
      <trkpt lat="46.85091" lon="6.52573">
        <ele>1170</ele>
        <time>2019-05-04T09:12:18Z</time>
      </trkpt>
      <trkpt lat="46.8509" lon="6.52573">
        <ele>1171</ele>
        <time>2019-05-04T09:12:19Z</time>
      </trkpt>
      <trkpt lat="46.85085" lon="6.52575">
        <ele>1172</ele>
        <time>2019-05-04T09:12:22Z</time>
      </trkpt>
      <trkpt lat="46.8508" lon="6.52577">
        <ele>1174</ele>
        <time>2019-05-04T09:12:26Z</time>
      </trkpt>
      <trkpt lat="46.85069" lon="6.52581">
        <ele>1177</ele>
        <time>2019-05-04T09:12:34Z</time>
      </trkpt>
      <trkpt lat="46.85063" lon="6.52584">
        <ele>1179</ele>
        <time>2019-05-04T09:12:39Z</time>
      </trkpt>
      <trkpt lat="46.85062" lon="6.52584">
        <ele>1179</ele>
        <time>2019-05-04T09:12:40Z</time>
      </trkpt>
      <trkpt lat="46.85059" lon="6.52583">
        <ele>1180</ele>
        <time>2019-05-04T09:12:42Z</time>
      </trkpt>
      <trkpt lat="46.85057" lon="6.52582">
        <ele>1181</ele>
        <time>2019-05-04T09:12:44Z</time>
      </trkpt>
      <trkpt lat="46.85054" lon="6.52581">
        <ele>1182</ele>
        <time>2019-05-04T09:12:47Z</time>
      </trkpt>
      <trkpt lat="46.85043" lon="6.52582">
        <ele>1185</ele>
        <time>2019-05-04T09:12:54Z</time>
      </trkpt>
      <trkpt lat="46.85038" lon="6.52582">
        <ele>1186</ele>
        <time>2019-05-04T09:12:58Z</time>
      </trkpt>
      <trkpt lat="46.85037" lon="6.52581">
        <ele>1187</ele>
        <time>2019-05-04T09:12:59Z</time>
      </trkpt>
      <trkpt lat="46.85037" lon="6.5258">
        <ele>1187</ele>
        <time>2019-05-04T09:13:00Z</time>
      </trkpt>
      <trkpt lat="46.85037" lon="6.52581">
        <ele>1187</ele>
        <time>2019-05-04T09:13:00Z</time>
      </trkpt>
      <trkpt lat="46.85037" lon="6.52581">
        <ele>1187</ele>
        <time>2019-05-04T09:13:01Z</time>
      </trkpt>
      <trkpt lat="46.85035" lon="6.5258">
        <ele>1188</ele>
        <time>2019-05-04T09:13:02Z</time>
      </trkpt>
      <trkpt lat="46.85032" lon="6.52583">
        <ele>1188</ele>
        <time>2019-05-04T09:13:04Z</time>
      </trkpt>
      <trkpt lat="46.85032" lon="6.52585">
        <ele>1188</ele>
        <time>2019-05-04T09:13:05Z</time>
      </trkpt>
      <trkpt lat="46.85031" lon="6.52586">
        <ele>1189</ele>
        <time>2019-05-04T09:13:07Z</time>
      </trkpt>
      <trkpt lat="46.8503" lon="6.52586">
        <ele>1189</ele>
        <time>2019-05-04T09:13:07Z</time>
      </trkpt>
      <trkpt lat="46.85027" lon="6.52587">
        <ele>1190</ele>
        <time>2019-05-04T09:13:10Z</time>
      </trkpt>
      <trkpt lat="46.85022" lon="6.52588">
        <ele>1191</ele>
        <time>2019-05-04T09:13:13Z</time>
      </trkpt>
      <trkpt lat="46.8502" lon="6.52588">
        <ele>1192</ele>
        <time>2019-05-04T09:13:15Z</time>
      </trkpt>
      <trkpt lat="46.85012" lon="6.52588">
        <ele>1194</ele>
        <time>2019-05-04T09:13:21Z</time>
      </trkpt>
      <trkpt lat="46.84998" lon="6.52585">
        <ele>1198</ele>
        <time>2019-05-04T09:13:31Z</time>
      </trkpt>
      <trkpt lat="46.84998" lon="6.52583">
        <ele>1199</ele>
        <time>2019-05-04T09:13:32Z</time>
      </trkpt>
      <trkpt lat="46.84996" lon="6.52578">
        <ele>1199</ele>
        <time>2019-05-04T09:13:35Z</time>
      </trkpt>
      <trkpt lat="46.84996" lon="6.52577">
        <ele>1199</ele>
        <time>2019-05-04T09:13:35Z</time>
      </trkpt>
      <trkpt lat="46.84995" lon="6.52578">
        <ele>1199</ele>
        <time>2019-05-04T09:13:36Z</time>
      </trkpt>
      <trkpt lat="46.84994" lon="6.52576">
        <ele>1200</ele>
        <time>2019-05-04T09:13:37Z</time>
      </trkpt>
      <trkpt lat="46.84997" lon="6.52571">
        <ele>1199</ele>
        <time>2019-05-04T09:13:41Z</time>
      </trkpt>
      <trkpt lat="46.84997" lon="6.52569">
        <ele>1199</ele>
        <time>2019-05-04T09:13:42Z</time>
      </trkpt>
      <trkpt lat="46.84997" lon="6.52568">
        <ele>1199</ele>
        <time>2019-05-04T09:13:42Z</time>
      </trkpt>
      <trkpt lat="46.84996" lon="6.52569">
        <ele>1199</ele>
        <time>2019-05-04T09:13:43Z</time>
      </trkpt>
      <trkpt lat="46.84993" lon="6.52569">
        <ele>1200</ele>
        <time>2019-05-04T09:13:45Z</time>
      </trkpt>
      <trkpt lat="46.84989" lon="6.5257">
        <ele>1202</ele>
        <time>2019-05-04T09:13:48Z</time>
      </trkpt>
      <trkpt lat="46.84985" lon="6.52571">
        <ele>1203</ele>
        <time>2019-05-04T09:13:52Z</time>
      </trkpt>
      <trkpt lat="46.84982" lon="6.52573">
        <ele>1204</ele>
        <time>2019-05-04T09:13:54Z</time>
      </trkpt>
      <trkpt lat="46.84977" lon="6.52577">
        <ele>1205</ele>
        <time>2019-05-04T09:13:58Z</time>
      </trkpt>
      <trkpt lat="46.84969" lon="6.52579">
        <ele>1207</ele>
        <time>2019-05-04T09:14:04Z</time>
      </trkpt>
      <trkpt lat="46.84964" lon="6.52583">
        <ele>1209</ele>
        <time>2019-05-04T09:14:09Z</time>
      </trkpt>
      <trkpt lat="46.84963" lon="6.52583">
        <ele>1209</ele>
        <time>2019-05-04T09:14:09Z</time>
      </trkpt>
      <trkpt lat="46.8496" lon="6.52582">
        <ele>1210</ele>
        <time>2019-05-04T09:14:12Z</time>
      </trkpt>
      <trkpt lat="46.84953" lon="6.5258">
        <ele>1212</ele>
        <time>2019-05-04T09:14:16Z</time>
      </trkpt>
      <trkpt lat="46.84951" lon="6.5258">
        <ele>1213</ele>
        <time>2019-05-04T09:14:18Z</time>
      </trkpt>
      <trkpt lat="46.84947" lon="6.5258">
        <ele>1214</ele>
        <time>2019-05-04T09:14:21Z</time>
      </trkpt>
      <trkpt lat="46.84939" lon="6.52582">
        <ele>1217</ele>
        <time>2019-05-04T09:14:27Z</time>
      </trkpt>
      <trkpt lat="46.84937" lon="6.52582">
        <ele>1217</ele>
        <time>2019-05-04T09:14:29Z</time>
      </trkpt>
      <trkpt lat="46.84932" lon="6.52579">
        <ele>1220</ele>
        <time>2019-05-04T09:14:33Z</time>
      </trkpt>
      <trkpt lat="46.84931" lon="6.52578">
        <ele>1220</ele>
        <time>2019-05-04T09:14:34Z</time>
      </trkpt>
      <trkpt lat="46.84923" lon="6.52579">
        <ele>1223</ele>
        <time>2019-05-04T09:14:40Z</time>
      </trkpt>
      <trkpt lat="46.84919" lon="6.52583">
        <ele>1224</ele>
        <time>2019-05-04T09:14:43Z</time>
      </trkpt>
      <trkpt lat="46.84918" lon="6.52585">
        <ele>1224</ele>
        <time>2019-05-04T09:14:45Z</time>
      </trkpt>
      <trkpt lat="46.84916" lon="6.52587">
        <ele>1225</ele>
        <time>2019-05-04T09:14:47Z</time>
      </trkpt>
      <trkpt lat="46.84915" lon="6.52588">
        <ele>1225</ele>
        <time>2019-05-04T09:14:48Z</time>
      </trkpt>
      <trkpt lat="46.84912" lon="6.52589">
        <ele>1226</ele>
        <time>2019-05-04T09:14:50Z</time>
      </trkpt>
      <trkpt lat="46.8491" lon="6.5259">
        <ele>1227</ele>
        <time>2019-05-04T09:14:52Z</time>
      </trkpt>
      <trkpt lat="46.84909" lon="6.52591">
        <ele>1227</ele>
        <time>2019-05-04T09:14:53Z</time>
      </trkpt>
      <trkpt lat="46.84908" lon="6.52591">
        <ele>1228</ele>
        <time>2019-05-04T09:14:54Z</time>
      </trkpt>
      <trkpt lat="46.84906" lon="6.52592">
        <ele>1228</ele>
        <time>2019-05-04T09:14:55Z</time>
      </trkpt>
      <trkpt lat="46.84904" lon="6.52593">
        <ele>1229</ele>
        <time>2019-05-04T09:14:56Z</time>
      </trkpt>
      <trkpt lat="46.849" lon="6.52594">
        <ele>1230</ele>
        <time>2019-05-04T09:15:00Z</time>
      </trkpt>
      <trkpt lat="46.84899" lon="6.52595">
        <ele>1231</ele>
        <time>2019-05-04T09:15:01Z</time>
      </trkpt>
      <trkpt lat="46.84893" lon="6.52598">
        <ele>1232</ele>
        <time>2019-05-04T09:15:05Z</time>
      </trkpt>
      <trkpt lat="46.84889" lon="6.526">
        <ele>1234</ele>
        <time>2019-05-04T09:15:09Z</time>
      </trkpt>
      <trkpt lat="46.84887" lon="6.52601">
        <ele>1234</ele>
        <time>2019-05-04T09:15:10Z</time>
      </trkpt>
      <trkpt lat="46.84885" lon="6.52602">
        <ele>1235</ele>
        <time>2019-05-04T09:15:12Z</time>
      </trkpt>
      <trkpt lat="46.84883" lon="6.52602">
        <ele>1236</ele>
        <time>2019-05-04T09:15:14Z</time>
      </trkpt>
      <trkpt lat="46.84884" lon="6.526">
        <ele>1236</ele>
        <time>2019-05-04T09:15:15Z</time>
      </trkpt>
      <trkpt lat="46.84883" lon="6.52599">
        <ele>1236</ele>
        <time>2019-05-04T09:15:15Z</time>
      </trkpt>
      <trkpt lat="46.84883" lon="6.52599">
        <ele>1236</ele>
        <time>2019-05-04T09:15:15Z</time>
      </trkpt>
      <trkpt lat="46.84882" lon="6.52598">
        <ele>1236</ele>
        <time>2019-05-04T09:15:16Z</time>
      </trkpt>
      <trkpt lat="46.84881" lon="6.52599">
        <ele>1237</ele>
        <time>2019-05-04T09:15:17Z</time>
      </trkpt>
      <trkpt lat="46.84882" lon="6.52598">
        <ele>1237</ele>
        <time>2019-05-04T09:15:17Z</time>
      </trkpt>
      <trkpt lat="46.84882" lon="6.52598">
        <ele>1236</ele>
        <time>2019-05-04T09:15:18Z</time>
      </trkpt>
      <trkpt lat="46.84881" lon="6.52598">
        <ele>1237</ele>
        <time>2019-05-04T09:15:19Z</time>
      </trkpt>
      <trkpt lat="46.84879" lon="6.52598">
        <ele>1238</ele>
        <time>2019-05-04T09:15:21Z</time>
      </trkpt>
      <trkpt lat="46.84878" lon="6.52599">
        <ele>1238</ele>
        <time>2019-05-04T09:15:21Z</time>
      </trkpt>
      <trkpt lat="46.84876" lon="6.52598">
        <ele>1239</ele>
        <time>2019-05-04T09:15:23Z</time>
      </trkpt>
      <trkpt lat="46.84872" lon="6.52597">
        <ele>1240</ele>
        <time>2019-05-04T09:15:26Z</time>
      </trkpt>
      <trkpt lat="46.8487" lon="6.52598">
        <ele>1241</ele>
        <time>2019-05-04T09:15:28Z</time>
      </trkpt>
      <trkpt lat="46.84868" lon="6.52598">
        <ele>1242</ele>
        <time>2019-05-04T09:15:29Z</time>
      </trkpt>
      <trkpt lat="46.84865" lon="6.52599">
        <ele>1243</ele>
        <time>2019-05-04T09:15:32Z</time>
      </trkpt>
      <trkpt lat="46.84864" lon="6.52601">
        <ele>1243</ele>
        <time>2019-05-04T09:15:33Z</time>
      </trkpt>
      <trkpt lat="46.8486" lon="6.52601">
        <ele>1244</ele>
        <time>2019-05-04T09:15:36Z</time>
      </trkpt>
      <trkpt lat="46.84853" lon="6.52603">
        <ele>1246</ele>
        <time>2019-05-04T09:15:41Z</time>
      </trkpt>
      <trkpt lat="46.84852" lon="6.52604">
        <ele>1247</ele>
        <time>2019-05-04T09:15:42Z</time>
      </trkpt>
      <trkpt lat="46.84848" lon="6.52606">
        <ele>1248</ele>
        <time>2019-05-04T09:15:45Z</time>
      </trkpt>
      <trkpt lat="46.84845" lon="6.52609">
        <ele>1248</ele>
        <time>2019-05-04T09:15:47Z</time>
      </trkpt>
      <trkpt lat="46.84845" lon="6.5261">
        <ele>1249</ele>
        <time>2019-05-04T09:15:48Z</time>
      </trkpt>
      <trkpt lat="46.84842" lon="6.52612">
        <ele>1250</ele>
        <time>2019-05-04T09:15:51Z</time>
      </trkpt>
      <trkpt lat="46.84842" lon="6.52612">
        <ele>1250</ele>
        <time>2019-05-04T09:15:51Z</time>
      </trkpt>
      <trkpt lat="46.84841" lon="6.52612">
        <ele>1251</ele>
        <time>2019-05-04T09:15:52Z</time>
      </trkpt>
      <trkpt lat="46.8484" lon="6.52612">
        <ele>1251</ele>
        <time>2019-05-04T09:15:53Z</time>
      </trkpt>
      <trkpt lat="46.84837" lon="6.52614">
        <ele>1252</ele>
        <time>2019-05-04T09:15:55Z</time>
      </trkpt>
      <trkpt lat="46.84835" lon="6.52617">
        <ele>1254</ele>
        <time>2019-05-04T09:15:57Z</time>
      </trkpt>
      <trkpt lat="46.84835" lon="6.52617">
        <ele>1254</ele>
        <time>2019-05-04T09:15:57Z</time>
      </trkpt>
      <trkpt lat="46.84836" lon="6.52617">
        <ele>1253</ele>
        <time>2019-05-04T09:15:58Z</time>
      </trkpt>
      <trkpt lat="46.84838" lon="6.52615">
        <ele>1253</ele>
        <time>2019-05-04T09:16:00Z</time>
      </trkpt>
      <trkpt lat="46.84836" lon="6.52611">
        <ele>1252</ele>
        <time>2019-05-04T09:16:02Z</time>
      </trkpt>
      <trkpt lat="46.84838" lon="6.52607">
        <ele>1251</ele>
        <time>2019-05-04T09:16:04Z</time>
      </trkpt>
      <trkpt lat="46.8484" lon="6.52605">
        <ele>1251</ele>
        <time>2019-05-04T09:16:06Z</time>
      </trkpt>
      <trkpt lat="46.84842" lon="6.52605">
        <ele>1250</ele>
        <time>2019-05-04T09:16:07Z</time>
      </trkpt>
      <trkpt lat="46.84843" lon="6.52605">
        <ele>1249</ele>
        <time>2019-05-04T09:16:09Z</time>
      </trkpt>
      <trkpt lat="46.84845" lon="6.52605">
        <ele>1249</ele>
        <time>2019-05-04T09:16:10Z</time>
      </trkpt>
      <trkpt lat="46.84847" lon="6.52604">
        <ele>1248</ele>
        <time>2019-05-04T09:16:12Z</time>
      </trkpt>
      <trkpt lat="46.8485" lon="6.52602">
        <ele>1247</ele>
        <time>2019-05-04T09:16:14Z</time>
      </trkpt>
      <trkpt lat="46.84851" lon="6.52601">
        <ele>1247</ele>
        <time>2019-05-04T09:16:15Z</time>
      </trkpt>
      <trkpt lat="46.84851" lon="6.52596">
        <ele>1248</ele>
        <time>2019-05-04T09:16:17Z</time>
      </trkpt>
      <trkpt lat="46.84845" lon="6.52593">
        <ele>1250</ele>
        <time>2019-05-04T09:16:22Z</time>
      </trkpt>
      <trkpt lat="46.84844" lon="6.52592">
        <ele>1250</ele>
        <time>2019-05-04T09:16:23Z</time>
      </trkpt>
      <trkpt lat="46.8484" lon="6.52592">
        <ele>1251</ele>
        <time>2019-05-04T09:16:26Z</time>
      </trkpt>
      <trkpt lat="46.84839" lon="6.52592">
        <ele>1252</ele>
        <time>2019-05-04T09:16:27Z</time>
      </trkpt>
      <trkpt lat="46.84837" lon="6.52593">
        <ele>1253</ele>
        <time>2019-05-04T09:16:29Z</time>
      </trkpt>
      <trkpt lat="46.84835" lon="6.52598">
        <ele>1253</ele>
        <time>2019-05-04T09:16:31Z</time>
      </trkpt>
      <trkpt lat="46.84834" lon="6.52599">
        <ele>1253</ele>
        <time>2019-05-04T09:16:32Z</time>
      </trkpt>
      <trkpt lat="46.84834" lon="6.526">
        <ele>1253</ele>
        <time>2019-05-04T09:16:33Z</time>
      </trkpt>
      <trkpt lat="46.84832" lon="6.52601">
        <ele>1253</ele>
        <time>2019-05-04T09:16:34Z</time>
      </trkpt>
      <trkpt lat="46.84831" lon="6.52602">
        <ele>1254</ele>
        <time>2019-05-04T09:16:35Z</time>
      </trkpt>
      <trkpt lat="46.8483" lon="6.52599">
        <ele>1254</ele>
        <time>2019-05-04T09:16:37Z</time>
      </trkpt>
      <trkpt lat="46.84824" lon="6.52588">
        <ele>1257</ele>
        <time>2019-05-04T09:16:44Z</time>
      </trkpt>
      <trkpt lat="46.8482" lon="6.52586">
        <ele>1259</ele>
        <time>2019-05-04T09:16:47Z</time>
      </trkpt>
      <trkpt lat="46.8482" lon="6.52585">
        <ele>1259</ele>
        <time>2019-05-04T09:16:47Z</time>
      </trkpt>
      <trkpt lat="46.8482" lon="6.52585">
        <ele>1259</ele>
        <time>2019-05-04T09:16:48Z</time>
      </trkpt>
      <trkpt lat="46.84819" lon="6.52585">
        <ele>1259</ele>
        <time>2019-05-04T09:16:48Z</time>
      </trkpt>
      <trkpt lat="46.84819" lon="6.52585">
        <ele>1259</ele>
        <time>2019-05-04T09:16:48Z</time>
      </trkpt>
      <trkpt lat="46.84819" lon="6.52584">
        <ele>1259</ele>
        <time>2019-05-04T09:16:49Z</time>
      </trkpt>
      <trkpt lat="46.84819" lon="6.52584">
        <ele>1259</ele>
        <time>2019-05-04T09:16:49Z</time>
      </trkpt>
      <trkpt lat="46.84818" lon="6.52583">
        <ele>1260</ele>
        <time>2019-05-04T09:16:50Z</time>
      </trkpt>
      <trkpt lat="46.84821" lon="6.52582">
        <ele>1259</ele>
        <time>2019-05-04T09:16:52Z</time>
      </trkpt>
      <trkpt lat="46.84821" lon="6.52583">
        <ele>1259</ele>
        <time>2019-05-04T09:16:53Z</time>
      </trkpt>
      <trkpt lat="46.84821" lon="6.52583">
        <ele>1259</ele>
        <time>2019-05-04T09:16:53Z</time>
      </trkpt>
      <trkpt lat="46.84818" lon="6.52583">
        <ele>1260</ele>
        <time>2019-05-04T09:16:55Z</time>
      </trkpt>
      <trkpt lat="46.84813" lon="6.5258">
        <ele>1261</ele>
        <time>2019-05-04T09:16:58Z</time>
      </trkpt>
      <trkpt lat="46.84807" lon="6.52578">
        <ele>1264</ele>
        <time>2019-05-04T09:17:04Z</time>
      </trkpt>
      <trkpt lat="46.84803" lon="6.52579">
        <ele>1265</ele>
        <time>2019-05-04T09:17:06Z</time>
      </trkpt>
      <trkpt lat="46.84802" lon="6.52581">
        <ele>1265</ele>
        <time>2019-05-04T09:17:08Z</time>
      </trkpt>
      <trkpt lat="46.84801" lon="6.52582">
        <ele>1265</ele>
        <time>2019-05-04T09:17:09Z</time>
      </trkpt>
      <trkpt lat="46.848" lon="6.52583">
        <ele>1265</ele>
        <time>2019-05-04T09:17:09Z</time>
      </trkpt>
      <trkpt lat="46.84799" lon="6.52585">
        <ele>1266</ele>
        <time>2019-05-04T09:17:11Z</time>
      </trkpt>
      <trkpt lat="46.848" lon="6.52586">
        <ele>1265</ele>
        <time>2019-05-04T09:17:12Z</time>
      </trkpt>
      <trkpt lat="46.84797" lon="6.52588">
        <ele>1266</ele>
        <time>2019-05-04T09:17:14Z</time>
      </trkpt>
      <trkpt lat="46.84793" lon="6.52586">
        <ele>1267</ele>
        <time>2019-05-04T09:17:17Z</time>
      </trkpt>
      <trkpt lat="46.84792" lon="6.52588">
        <ele>1268</ele>
        <time>2019-05-04T09:17:18Z</time>
      </trkpt>
      <trkpt lat="46.84792" lon="6.5259">
        <ele>1268</ele>
        <time>2019-05-04T09:17:19Z</time>
      </trkpt>
      <trkpt lat="46.84791" lon="6.52591">
        <ele>1268</ele>
        <time>2019-05-04T09:17:20Z</time>
      </trkpt>
      <trkpt lat="46.84788" lon="6.52594">
        <ele>1269</ele>
        <time>2019-05-04T09:17:22Z</time>
      </trkpt>
      <trkpt lat="46.84786" lon="6.52597">
        <ele>1269</ele>
        <time>2019-05-04T09:17:24Z</time>
      </trkpt>
      <trkpt lat="46.84786" lon="6.52598">
        <ele>1269</ele>
        <time>2019-05-04T09:17:25Z</time>
      </trkpt>
      <trkpt lat="46.84786" lon="6.52599">
        <ele>1269</ele>
        <time>2019-05-04T09:17:25Z</time>
      </trkpt>
      <trkpt lat="46.84784" lon="6.52601">
        <ele>1269</ele>
        <time>2019-05-04T09:17:27Z</time>
      </trkpt>
      <trkpt lat="46.84784" lon="6.52602">
        <ele>1270</ele>
        <time>2019-05-04T09:17:28Z</time>
      </trkpt>
      <trkpt lat="46.84781" lon="6.52604">
        <ele>1270</ele>
        <time>2019-05-04T09:17:30Z</time>
      </trkpt>
      <trkpt lat="46.8478" lon="6.52604">
        <ele>1271</ele>
        <time>2019-05-04T09:17:31Z</time>
      </trkpt>
      <trkpt lat="46.84779" lon="6.52606">
        <ele>1271</ele>
        <time>2019-05-04T09:17:32Z</time>
      </trkpt>
      <trkpt lat="46.84779" lon="6.52609">
        <ele>1271</ele>
        <time>2019-05-04T09:17:33Z</time>
      </trkpt>
      <trkpt lat="46.84779" lon="6.52612">
        <ele>1271</ele>
        <time>2019-05-04T09:17:35Z</time>
      </trkpt>
      <trkpt lat="46.84777" lon="6.52618">
        <ele>1273</ele>
        <time>2019-05-04T09:17:38Z</time>
      </trkpt>
      <trkpt lat="46.84776" lon="6.52619">
        <ele>1273</ele>
        <time>2019-05-04T09:17:39Z</time>
      </trkpt>
      <trkpt lat="46.84775" lon="6.5262">
        <ele>1274</ele>
        <time>2019-05-04T09:17:41Z</time>
      </trkpt>
      <trkpt lat="46.84772" lon="6.52623">
        <ele>1275</ele>
        <time>2019-05-04T09:17:43Z</time>
      </trkpt>
      <trkpt lat="46.84771" lon="6.52625">
        <ele>1276</ele>
        <time>2019-05-04T09:17:44Z</time>
      </trkpt>
      <trkpt lat="46.8477" lon="6.52627">
        <ele>1276</ele>
        <time>2019-05-04T09:17:46Z</time>
      </trkpt>
      <trkpt lat="46.84767" lon="6.52633">
        <ele>1278</ele>
        <time>2019-05-04T09:17:49Z</time>
      </trkpt>
      <trkpt lat="46.84764" lon="6.52642">
        <ele>1281</ele>
        <time>2019-05-04T09:17:55Z</time>
      </trkpt>
      <trkpt lat="46.84764" lon="6.52643">
        <ele>1281</ele>
        <time>2019-05-04T09:17:56Z</time>
      </trkpt>
      <trkpt lat="46.84767" lon="6.52646">
        <ele>1280</ele>
        <time>2019-05-04T09:17:58Z</time>
      </trkpt>
      <trkpt lat="46.84767" lon="6.52649">
        <ele>1281</ele>
        <time>2019-05-04T09:18:00Z</time>
      </trkpt>
      <trkpt lat="46.8476" lon="6.52652">
        <ele>1284</ele>
        <time>2019-05-04T09:18:06Z</time>
      </trkpt>
      <trkpt lat="46.84757" lon="6.52652">
        <ele>1285</ele>
        <time>2019-05-04T09:18:07Z</time>
      </trkpt>
      <trkpt lat="46.8475" lon="6.52653">
        <ele>1288</ele>
        <time>2019-05-04T09:18:13Z</time>
      </trkpt>
      <trkpt lat="46.84749" lon="6.52654">
        <ele>1289</ele>
        <time>2019-05-04T09:18:14Z</time>
      </trkpt>
      <trkpt lat="46.84747" lon="6.52653">
        <ele>1289</ele>
        <time>2019-05-04T09:18:16Z</time>
      </trkpt>
      <trkpt lat="46.84746" lon="6.5266">
        <ele>1290</ele>
        <time>2019-05-04T09:18:19Z</time>
      </trkpt>
      <trkpt lat="46.84746" lon="6.52662">
        <ele>1291</ele>
        <time>2019-05-04T09:18:20Z</time>
      </trkpt>
      <trkpt lat="46.84746" lon="6.52664">
        <ele>1291</ele>
        <time>2019-05-04T09:18:21Z</time>
      </trkpt>
      <trkpt lat="46.84746" lon="6.52665">
        <ele>1291</ele>
        <time>2019-05-04T09:18:22Z</time>
      </trkpt>
      <trkpt lat="46.84751" lon="6.52668">
        <ele>1289</ele>
        <time>2019-05-04T09:18:26Z</time>
      </trkpt>
      <trkpt lat="46.8475" lon="6.5267">
        <ele>1290</ele>
        <time>2019-05-04T09:18:27Z</time>
      </trkpt>
      <trkpt lat="46.84749" lon="6.5267">
        <ele>1291</ele>
        <time>2019-05-04T09:18:28Z</time>
      </trkpt>
      <trkpt lat="46.84749" lon="6.52671">
        <ele>1291</ele>
        <time>2019-05-04T09:18:28Z</time>
      </trkpt>
      <trkpt lat="46.84746" lon="6.52672">
        <ele>1292</ele>
        <time>2019-05-04T09:18:30Z</time>
      </trkpt>
      <trkpt lat="46.84745" lon="6.52673">
        <ele>1292</ele>
        <time>2019-05-04T09:18:32Z</time>
      </trkpt>
      <trkpt lat="46.84743" lon="6.52675">
        <ele>1293</ele>
        <time>2019-05-04T09:18:33Z</time>
      </trkpt>
      <trkpt lat="46.84742" lon="6.52677">
        <ele>1294</ele>
        <time>2019-05-04T09:18:34Z</time>
      </trkpt>
      <trkpt lat="46.84742" lon="6.52677">
        <ele>1294</ele>
        <time>2019-05-04T09:18:35Z</time>
      </trkpt>
      <trkpt lat="46.84742" lon="6.52677">
        <ele>1294</ele>
        <time>2019-05-04T09:18:35Z</time>
      </trkpt>
      <trkpt lat="46.84744" lon="6.52678">
        <ele>1293</ele>
        <time>2019-05-04T09:18:36Z</time>
      </trkpt>
      <trkpt lat="46.84745" lon="6.5268">
        <ele>1293</ele>
        <time>2019-05-04T09:18:37Z</time>
      </trkpt>
      <trkpt lat="46.84744" lon="6.52682">
        <ele>1294</ele>
        <time>2019-05-04T09:18:39Z</time>
      </trkpt>
      <trkpt lat="46.84743" lon="6.52683">
        <ele>1294</ele>
        <time>2019-05-04T09:18:40Z</time>
      </trkpt>
      <trkpt lat="46.84744" lon="6.52685">
        <ele>1294</ele>
        <time>2019-05-04T09:18:41Z</time>
      </trkpt>
      <trkpt lat="46.84747" lon="6.52687">
        <ele>1293</ele>
        <time>2019-05-04T09:18:43Z</time>
      </trkpt>
      <trkpt lat="46.84747" lon="6.52688">
        <ele>1293</ele>
        <time>2019-05-04T09:18:44Z</time>
      </trkpt>
      <trkpt lat="46.84754" lon="6.52699">
        <ele>1292</ele>
        <time>2019-05-04T09:18:51Z</time>
      </trkpt>
      <trkpt lat="46.84756" lon="6.52701">
        <ele>1292</ele>
        <time>2019-05-04T09:18:53Z</time>
      </trkpt>
      <trkpt lat="46.84757" lon="6.52702">
        <ele>1292</ele>
        <time>2019-05-04T09:18:54Z</time>
      </trkpt>
      <trkpt lat="46.84759" lon="6.52706">
        <ele>1291</ele>
        <time>2019-05-04T09:18:56Z</time>
      </trkpt>
      <trkpt lat="46.8476" lon="6.52707">
        <ele>1291</ele>
        <time>2019-05-04T09:18:57Z</time>
      </trkpt>
      <trkpt lat="46.84762" lon="6.5271">
        <ele>1291</ele>
        <time>2019-05-04T09:19:00Z</time>
      </trkpt>
      <trkpt lat="46.84763" lon="6.5271">
        <ele>1291</ele>
        <time>2019-05-04T09:19:00Z</time>
      </trkpt>
      <trkpt lat="46.84763" lon="6.52711">
        <ele>1290</ele>
        <time>2019-05-04T09:19:01Z</time>
      </trkpt>
      <trkpt lat="46.84764" lon="6.52713">
        <ele>1290</ele>
        <time>2019-05-04T09:19:02Z</time>
      </trkpt>
      <trkpt lat="46.84763" lon="6.52714">
        <ele>1291</ele>
        <time>2019-05-04T09:19:04Z</time>
      </trkpt>
      <trkpt lat="46.84758" lon="6.52716">
        <ele>1293</ele>
        <time>2019-05-04T09:19:07Z</time>
      </trkpt>
      <trkpt lat="46.84757" lon="6.5271">
        <ele>1293</ele>
        <time>2019-05-04T09:19:10Z</time>
      </trkpt>
      <trkpt lat="46.84758" lon="6.52707">
        <ele>1292</ele>
        <time>2019-05-04T09:19:12Z</time>
      </trkpt>
      <trkpt lat="46.84754" lon="6.52701">
        <ele>1292</ele>
        <time>2019-05-04T09:19:16Z</time>
      </trkpt>
      <trkpt lat="46.84754" lon="6.527">
        <ele>1292</ele>
        <time>2019-05-04T09:19:17Z</time>
      </trkpt>
      <trkpt lat="46.84754" lon="6.52695">
        <ele>1291</ele>
        <time>2019-05-04T09:19:19Z</time>
      </trkpt>
      <trkpt lat="46.84756" lon="6.52701">
        <ele>1291</ele>
        <time>2019-05-04T09:19:22Z</time>
      </trkpt>
      <trkpt lat="46.84756" lon="6.52707">
        <ele>1293</ele>
        <time>2019-05-04T09:19:26Z</time>
      </trkpt>
      <trkpt lat="46.84755" lon="6.5271">
        <ele>1294</ele>
        <time>2019-05-04T09:19:28Z</time>
      </trkpt>
      <trkpt lat="46.84756" lon="6.52712">
        <ele>1293</ele>
        <time>2019-05-04T09:19:29Z</time>
      </trkpt>
      <trkpt lat="46.84757" lon="6.52713">
        <ele>1293</ele>
        <time>2019-05-04T09:19:30Z</time>
      </trkpt>
      <trkpt lat="46.84758" lon="6.52715">
        <ele>1293</ele>
        <time>2019-05-04T09:19:31Z</time>
      </trkpt>
      <trkpt lat="46.84758" lon="6.52716">
        <ele>1293</ele>
        <time>2019-05-04T09:19:31Z</time>
      </trkpt>
      <trkpt lat="46.84759" lon="6.52718">
        <ele>1293</ele>
        <time>2019-05-04T09:19:32Z</time>
      </trkpt>
      <trkpt lat="46.84765" lon="6.52719">
        <ele>1292</ele>
        <time>2019-05-04T09:19:36Z</time>
      </trkpt>
      <trkpt lat="46.84765" lon="6.5272">
        <ele>1291</ele>
        <time>2019-05-04T09:19:37Z</time>
      </trkpt>
      <trkpt lat="46.84766" lon="6.52723">
        <ele>1292</ele>
        <time>2019-05-04T09:19:39Z</time>
      </trkpt>
      <trkpt lat="46.84766" lon="6.52725">
        <ele>1292</ele>
        <time>2019-05-04T09:19:40Z</time>
      </trkpt>
      <trkpt lat="46.84772" lon="6.52728">
        <ele>1290</ele>
        <time>2019-05-04T09:19:45Z</time>
      </trkpt>
      <trkpt lat="46.84777" lon="6.5273">
        <ele>1289</ele>
        <time>2019-05-04T09:19:48Z</time>
      </trkpt>
      <trkpt lat="46.84778" lon="6.5273">
        <ele>1288</ele>
        <time>2019-05-04T09:19:49Z</time>
      </trkpt>
      <trkpt lat="46.84782" lon="6.52731">
        <ele>1287</ele>
        <time>2019-05-04T09:19:52Z</time>
      </trkpt>
      <trkpt lat="46.84786" lon="6.52735">
        <ele>1288</ele>
        <time>2019-05-04T09:19:56Z</time>
      </trkpt>
      <trkpt lat="46.84788" lon="6.52739">
        <ele>1288</ele>
        <time>2019-05-04T09:19:58Z</time>
      </trkpt>
      <trkpt lat="46.84788" lon="6.5274">
        <ele>1289</ele>
        <time>2019-05-04T09:19:59Z</time>
      </trkpt>
      <trkpt lat="46.84788" lon="6.5274">
        <ele>1289</ele>
        <time>2019-05-04T09:20:00Z</time>
      </trkpt>
      <trkpt lat="46.84787" lon="6.52745">
        <ele>1290</ele>
        <time>2019-05-04T09:20:02Z</time>
      </trkpt>
      <trkpt lat="46.84787" lon="6.52749">
        <ele>1290</ele>
        <time>2019-05-04T09:20:04Z</time>
      </trkpt>
      <trkpt lat="46.84788" lon="6.52753">
        <ele>1291</ele>
        <time>2019-05-04T09:20:06Z</time>
      </trkpt>
      <trkpt lat="46.84787" lon="6.52755">
        <ele>1292</ele>
        <time>2019-05-04T09:20:07Z</time>
      </trkpt>
      <trkpt lat="46.84786" lon="6.52758">
        <ele>1292</ele>
        <time>2019-05-04T09:20:09Z</time>
      </trkpt>
      <trkpt lat="46.84786" lon="6.5276">
        <ele>1293</ele>
        <time>2019-05-04T09:20:10Z</time>
      </trkpt>
      <trkpt lat="46.84786" lon="6.52762">
        <ele>1293</ele>
        <time>2019-05-04T09:20:11Z</time>
      </trkpt>
      <trkpt lat="46.84785" lon="6.52764">
        <ele>1294</ele>
        <time>2019-05-04T09:20:12Z</time>
      </trkpt>
      <trkpt lat="46.84783" lon="6.52765">
        <ele>1294</ele>
        <time>2019-05-04T09:20:14Z</time>
      </trkpt>
      <trkpt lat="46.84782" lon="6.52769">
        <ele>1295</ele>
        <time>2019-05-04T09:20:16Z</time>
      </trkpt>
      <trkpt lat="46.84782" lon="6.5277">
        <ele>1295</ele>
        <time>2019-05-04T09:20:16Z</time>
      </trkpt>
      <trkpt lat="46.84781" lon="6.52772">
        <ele>1295</ele>
        <time>2019-05-04T09:20:17Z</time>
      </trkpt>
      <trkpt lat="46.8478" lon="6.52773">
        <ele>1296</ele>
        <time>2019-05-04T09:20:19Z</time>
      </trkpt>
      <trkpt lat="46.8478" lon="6.52775">
        <ele>1296</ele>
        <time>2019-05-04T09:20:20Z</time>
      </trkpt>
      <trkpt lat="46.84779" lon="6.52777">
        <ele>1297</ele>
        <time>2019-05-04T09:20:21Z</time>
      </trkpt>
      <trkpt lat="46.84778" lon="6.52781">
        <ele>1298</ele>
        <time>2019-05-04T09:20:23Z</time>
      </trkpt>
      <trkpt lat="46.84776" lon="6.52783">
        <ele>1300</ele>
        <time>2019-05-04T09:20:25Z</time>
      </trkpt>
      <trkpt lat="46.84776" lon="6.52784">
        <ele>1300</ele>
        <time>2019-05-04T09:20:26Z</time>
      </trkpt>
      <trkpt lat="46.84774" lon="6.52789">
        <ele>1302</ele>
        <time>2019-05-04T09:20:29Z</time>
      </trkpt>
      <trkpt lat="46.84774" lon="6.5279">
        <ele>1302</ele>
        <time>2019-05-04T09:20:29Z</time>
      </trkpt>
      <trkpt lat="46.84773" lon="6.52792">
        <ele>1303</ele>
        <time>2019-05-04T09:20:31Z</time>
      </trkpt>
      <trkpt lat="46.84773" lon="6.52795">
        <ele>1304</ele>
        <time>2019-05-04T09:20:32Z</time>
      </trkpt>
      <trkpt lat="46.84772" lon="6.52798">
        <ele>1305</ele>
        <time>2019-05-04T09:20:34Z</time>
      </trkpt>
      <trkpt lat="46.8477" lon="6.528">
        <ele>1306</ele>
        <time>2019-05-04T09:20:36Z</time>
      </trkpt>
      <trkpt lat="46.84768" lon="6.52801">
        <ele>1307</ele>
        <time>2019-05-04T09:20:38Z</time>
      </trkpt>
      <trkpt lat="46.84763" lon="6.52806">
        <ele>1310</ele>
        <time>2019-05-04T09:20:43Z</time>
      </trkpt>
      <trkpt lat="46.8476" lon="6.52808">
        <ele>1312</ele>
        <time>2019-05-04T09:20:45Z</time>
      </trkpt>
      <trkpt lat="46.84756" lon="6.52809">
        <ele>1313</ele>
        <time>2019-05-04T09:20:48Z</time>
      </trkpt>
      <trkpt lat="46.84755" lon="6.5281">
        <ele>1314</ele>
        <time>2019-05-04T09:20:49Z</time>
      </trkpt>
      <trkpt lat="46.8475" lon="6.52814">
        <ele>1317</ele>
        <time>2019-05-04T09:20:54Z</time>
      </trkpt>
      <trkpt lat="46.84749" lon="6.52816">
        <ele>1318</ele>
        <time>2019-05-04T09:20:55Z</time>
      </trkpt>
      <trkpt lat="46.84749" lon="6.52818">
        <ele>1318</ele>
        <time>2019-05-04T09:20:56Z</time>
      </trkpt>
      <trkpt lat="46.84746" lon="6.5282">
        <ele>1320</ele>
        <time>2019-05-04T09:20:58Z</time>
      </trkpt>
      <trkpt lat="46.84745" lon="6.52821">
        <ele>1320</ele>
        <time>2019-05-04T09:20:59Z</time>
      </trkpt>
      <trkpt lat="46.84743" lon="6.52823">
        <ele>1322</ele>
        <time>2019-05-04T09:21:01Z</time>
      </trkpt>
      <trkpt lat="46.8474" lon="6.52825">
        <ele>1323</ele>
        <time>2019-05-04T09:21:04Z</time>
      </trkpt>
      <trkpt lat="46.84738" lon="6.52827">
        <ele>1325</ele>
        <time>2019-05-04T09:21:06Z</time>
      </trkpt>
      <trkpt lat="46.84736" lon="6.52829">
        <ele>1326</ele>
        <time>2019-05-04T09:21:08Z</time>
      </trkpt>
      <trkpt lat="46.84734" lon="6.52833">
        <ele>1327</ele>
        <time>2019-05-04T09:21:11Z</time>
      </trkpt>
      <trkpt lat="46.84733" lon="6.52835">
        <ele>1328</ele>
        <time>2019-05-04T09:21:12Z</time>
      </trkpt>
      <trkpt lat="46.84731" lon="6.52837">
        <ele>1329</ele>
        <time>2019-05-04T09:21:14Z</time>
      </trkpt>
      <trkpt lat="46.84729" lon="6.52839">
        <ele>1331</ele>
        <time>2019-05-04T09:21:16Z</time>
      </trkpt>
      <trkpt lat="46.84727" lon="6.52841">
        <ele>1332</ele>
        <time>2019-05-04T09:21:18Z</time>
      </trkpt>
      <trkpt lat="46.84726" lon="6.52842">
        <ele>1333</ele>
        <time>2019-05-04T09:21:19Z</time>
      </trkpt>
      <trkpt lat="46.84726" lon="6.52844">
        <ele>1333</ele>
        <time>2019-05-04T09:21:20Z</time>
      </trkpt>
      <trkpt lat="46.84723" lon="6.52847">
        <ele>1335</ele>
        <time>2019-05-04T09:21:23Z</time>
      </trkpt>
      <trkpt lat="46.84722" lon="6.52848">
        <ele>1336</ele>
        <time>2019-05-04T09:21:24Z</time>
      </trkpt>
      <trkpt lat="46.8472" lon="6.52849">
        <ele>1337</ele>
        <time>2019-05-04T09:21:25Z</time>
      </trkpt>
      <trkpt lat="46.84719" lon="6.52849">
        <ele>1337</ele>
        <time>2019-05-04T09:21:26Z</time>
      </trkpt>
      <trkpt lat="46.84718" lon="6.52849">
        <ele>1338</ele>
        <time>2019-05-04T09:21:27Z</time>
      </trkpt>
      <trkpt lat="46.84711" lon="6.52849">
        <ele>1340</ele>
        <time>2019-05-04T09:21:32Z</time>
      </trkpt>
      <trkpt lat="46.8471" lon="6.52848">
        <ele>1341</ele>
        <time>2019-05-04T09:21:33Z</time>
      </trkpt>
      <trkpt lat="46.84709" lon="6.52848">
        <ele>1341</ele>
        <time>2019-05-04T09:21:34Z</time>
      </trkpt>
      <trkpt lat="46.84705" lon="6.52848">
        <ele>1342</ele>
        <time>2019-05-04T09:21:37Z</time>
      </trkpt>
      <trkpt lat="46.84705" lon="6.52848">
        <ele>1342</ele>
        <time>2019-05-04T09:21:37Z</time>
      </trkpt>
      <trkpt lat="46.84706" lon="6.52852">
        <ele>1343</ele>
        <time>2019-05-04T09:21:39Z</time>
      </trkpt>
      <trkpt lat="46.84701" lon="6.52854">
        <ele>1345</ele>
        <time>2019-05-04T09:21:43Z</time>
      </trkpt>
      <trkpt lat="46.84698" lon="6.52856">
        <ele>1347</ele>
        <time>2019-05-04T09:21:45Z</time>
      </trkpt>
      <trkpt lat="46.84687" lon="6.52852">
        <ele>1352</ele>
        <time>2019-05-04T09:21:54Z</time>
      </trkpt>
      <trkpt lat="46.84684" lon="6.52853">
        <ele>1353</ele>
        <time>2019-05-04T09:21:56Z</time>
      </trkpt>
      <trkpt lat="46.84687" lon="6.52852">
        <ele>1352</ele>
        <time>2019-05-04T09:21:59Z</time>
      </trkpt>
      <trkpt lat="46.84688" lon="6.52855">
        <ele>1352</ele>
        <time>2019-05-04T09:22:00Z</time>
      </trkpt>
      <trkpt lat="46.84687" lon="6.5286">
        <ele>1354</ele>
        <time>2019-05-04T09:22:03Z</time>
      </trkpt>
      <trkpt lat="46.84686" lon="6.52865">
        <ele>1356</ele>
        <time>2019-05-04T09:22:06Z</time>
      </trkpt>
      <trkpt lat="46.84686" lon="6.52868">
        <ele>1357</ele>
        <time>2019-05-04T09:22:07Z</time>
      </trkpt>
      <trkpt lat="46.84686" lon="6.52871">
        <ele>1358</ele>
        <time>2019-05-04T09:22:09Z</time>
      </trkpt>
      <trkpt lat="46.84689" lon="6.52874">
        <ele>1357</ele>
        <time>2019-05-04T09:22:12Z</time>
      </trkpt>
      <trkpt lat="46.84689" lon="6.52878">
        <ele>1359</ele>
        <time>2019-05-04T09:22:14Z</time>
      </trkpt>
      <trkpt lat="46.84689" lon="6.5288">
        <ele>1359</ele>
        <time>2019-05-04T09:22:15Z</time>
      </trkpt>
      <trkpt lat="46.84691" lon="6.52882">
        <ele>1359</ele>
        <time>2019-05-04T09:22:17Z</time>
      </trkpt>
      <trkpt lat="46.84694" lon="6.52885">
        <ele>1358</ele>
        <time>2019-05-04T09:22:20Z</time>
      </trkpt>
      <trkpt lat="46.84695" lon="6.52887">
        <ele>1359</ele>
        <time>2019-05-04T09:22:21Z</time>
      </trkpt>
      <trkpt lat="46.84693" lon="6.52892">
        <ele>1361</ele>
        <time>2019-05-04T09:22:24Z</time>
      </trkpt>
      <trkpt lat="46.84693" lon="6.52895">
        <ele>1363</ele>
        <time>2019-05-04T09:22:26Z</time>
      </trkpt>
      <trkpt lat="46.84691" lon="6.52898">
        <ele>1364</ele>
        <time>2019-05-04T09:22:28Z</time>
      </trkpt>
      <trkpt lat="46.8469" lon="6.529">
        <ele>1366</ele>
        <time>2019-05-04T09:22:30Z</time>
      </trkpt>
      <trkpt lat="46.8469" lon="6.52903">
        <ele>1367</ele>
        <time>2019-05-04T09:22:31Z</time>
      </trkpt>
      <trkpt lat="46.84691" lon="6.52906">
        <ele>1367</ele>
        <time>2019-05-04T09:22:33Z</time>
      </trkpt>
      <trkpt lat="46.84686" lon="6.52912">
        <ele>1372</ele>
        <time>2019-05-04T09:22:39Z</time>
      </trkpt>
      <trkpt lat="46.84687" lon="6.52915">
        <ele>1372</ele>
        <time>2019-05-04T09:22:41Z</time>
      </trkpt>
      <trkpt lat="46.84688" lon="6.52916">
        <ele>1372</ele>
        <time>2019-05-04T09:22:42Z</time>
      </trkpt>
      <trkpt lat="46.84688" lon="6.52919">
        <ele>1373</ele>
        <time>2019-05-04T09:22:43Z</time>
      </trkpt>
      <trkpt lat="46.8469" lon="6.52921">
        <ele>1373</ele>
        <time>2019-05-04T09:22:45Z</time>
      </trkpt>
      <trkpt lat="46.84692" lon="6.52924">
        <ele>1373</ele>
        <time>2019-05-04T09:22:47Z</time>
      </trkpt>
      <trkpt lat="46.84694" lon="6.52925">
        <ele>1372</ele>
        <time>2019-05-04T09:22:49Z</time>
      </trkpt>
      <trkpt lat="46.84695" lon="6.52927">
        <ele>1372</ele>
        <time>2019-05-04T09:22:50Z</time>
      </trkpt>
      <trkpt lat="46.84698" lon="6.52929">
        <ele>1371</ele>
        <time>2019-05-04T09:22:53Z</time>
      </trkpt>
      <trkpt lat="46.84699" lon="6.52932">
        <ele>1372</ele>
        <time>2019-05-04T09:22:54Z</time>
      </trkpt>
      <trkpt lat="46.84698" lon="6.52934">
        <ele>1373</ele>
        <time>2019-05-04T09:22:55Z</time>
      </trkpt>
      <trkpt lat="46.84696" lon="6.52936">
        <ele>1375</ele>
        <time>2019-05-04T09:22:58Z</time>
      </trkpt>
      <trkpt lat="46.84696" lon="6.52941">
        <ele>1376</ele>
        <time>2019-05-04T09:23:00Z</time>
      </trkpt>
      <trkpt lat="46.84696" lon="6.52944">
        <ele>1377</ele>
        <time>2019-05-04T09:23:02Z</time>
      </trkpt>
      <trkpt lat="46.84699" lon="6.52949">
        <ele>1378</ele>
        <time>2019-05-04T09:23:05Z</time>
      </trkpt>
      <trkpt lat="46.847" lon="6.52953">
        <ele>1378</ele>
        <time>2019-05-04T09:23:07Z</time>
      </trkpt>
      <trkpt lat="46.847" lon="6.52954">
        <ele>1379</ele>
        <time>2019-05-04T09:23:08Z</time>
      </trkpt>
      <trkpt lat="46.84699" lon="6.52956">
        <ele>1380</ele>
        <time>2019-05-04T09:23:09Z</time>
      </trkpt>
      <trkpt lat="46.84697" lon="6.52962">
        <ele>1382</ele>
        <time>2019-05-04T09:23:13Z</time>
      </trkpt>
      <trkpt lat="46.84697" lon="6.52966">
        <ele>1384</ele>
        <time>2019-05-04T09:23:15Z</time>
      </trkpt>
      <trkpt lat="46.84697" lon="6.5297">
        <ele>1385</ele>
        <time>2019-05-04T09:23:17Z</time>
      </trkpt>
      <trkpt lat="46.84694" lon="6.52975">
        <ele>1388</ele>
        <time>2019-05-04T09:23:21Z</time>
      </trkpt>
      <trkpt lat="46.84695" lon="6.52977">
        <ele>1388</ele>
        <time>2019-05-04T09:23:22Z</time>
      </trkpt>
      <trkpt lat="46.84698" lon="6.5298">
        <ele>1388</ele>
        <time>2019-05-04T09:23:25Z</time>
      </trkpt>
      <trkpt lat="46.84704" lon="6.52981">
        <ele>1386</ele>
        <time>2019-05-04T09:23:29Z</time>
      </trkpt>
      <trkpt lat="46.84705" lon="6.52981">
        <ele>1385</ele>
        <time>2019-05-04T09:23:30Z</time>
      </trkpt>
      <trkpt lat="46.84707" lon="6.52983">
        <ele>1385</ele>
        <time>2019-05-04T09:23:32Z</time>
      </trkpt>
      <trkpt lat="46.84711" lon="6.52985">
        <ele>1384</ele>
        <time>2019-05-04T09:23:35Z</time>
      </trkpt>
      <trkpt lat="46.84712" lon="6.52986">
        <ele>1384</ele>
        <time>2019-05-04T09:23:36Z</time>
      </trkpt>
      <trkpt lat="46.84716" lon="6.52989">
        <ele>1384</ele>
        <time>2019-05-04T09:23:39Z</time>
      </trkpt>
      <trkpt lat="46.84717" lon="6.52993">
        <ele>1385</ele>
        <time>2019-05-04T09:23:42Z</time>
      </trkpt>
      <trkpt lat="46.84717" lon="6.52997">
        <ele>1386</ele>
        <time>2019-05-04T09:23:43Z</time>
      </trkpt>
      <trkpt lat="46.84718" lon="6.52998">
        <ele>1386</ele>
        <time>2019-05-04T09:23:44Z</time>
      </trkpt>
      <trkpt lat="46.8472" lon="6.53009">
        <ele>1388</ele>
        <time>2019-05-04T09:23:50Z</time>
      </trkpt>
      <trkpt lat="46.84724" lon="6.53017">
        <ele>1390</ele>
        <time>2019-05-04T09:23:55Z</time>
      </trkpt>
      <trkpt lat="46.84729" lon="6.53028">
        <ele>1391</ele>
        <time>2019-05-04T09:24:02Z</time>
      </trkpt>
      <trkpt lat="46.84734" lon="6.53039">
        <ele>1393</ele>
        <time>2019-05-04T09:24:08Z</time>
      </trkpt>
      <trkpt lat="46.84736" lon="6.53044">
        <ele>1395</ele>
        <time>2019-05-04T09:24:11Z</time>
      </trkpt>
      <trkpt lat="46.84732" lon="6.5305">
        <ele>1398</ele>
        <time>2019-05-04T09:24:16Z</time>
      </trkpt>
      <trkpt lat="46.84728" lon="6.53053">
        <ele>1400</ele>
        <time>2019-05-04T09:24:19Z</time>
      </trkpt>
      <trkpt lat="46.84727" lon="6.53054">
        <ele>1401</ele>
        <time>2019-05-04T09:24:21Z</time>
      </trkpt>
      <trkpt lat="46.84723" lon="6.53064">
        <ele>1406</ele>
        <time>2019-05-04T09:24:27Z</time>
      </trkpt>
      <trkpt lat="46.84732" lon="6.5307">
        <ele>1405</ele>
        <time>2019-05-04T09:24:34Z</time>
      </trkpt>
      <trkpt lat="46.84737" lon="6.53071">
        <ele>1403</ele>
        <time>2019-05-04T09:24:38Z</time>
      </trkpt>
      <trkpt lat="46.84744" lon="6.53076">
        <ele>1403</ele>
        <time>2019-05-04T09:24:43Z</time>
      </trkpt>
      <trkpt lat="46.8475" lon="6.53081">
        <ele>1402</ele>
        <time>2019-05-04T09:24:48Z</time>
      </trkpt>
      <trkpt lat="46.84752" lon="6.53075">
        <ele>1399</ele>
        <time>2019-05-04T09:24:52Z</time>
      </trkpt>
      <trkpt lat="46.84759" lon="6.53084">
        <ele>1400</ele>
        <time>2019-05-04T09:24:59Z</time>
      </trkpt>
      <trkpt lat="46.84762" lon="6.53086">
        <ele>1400</ele>
        <time>2019-05-04T09:25:01Z</time>
      </trkpt>
      <trkpt lat="46.84763" lon="6.53088">
        <ele>1400</ele>
        <time>2019-05-04T09:25:02Z</time>
      </trkpt>
      <trkpt lat="46.84768" lon="6.53098">
        <ele>1402</ele>
        <time>2019-05-04T09:25:09Z</time>
      </trkpt>
      <trkpt lat="46.84769" lon="6.53101">
        <ele>1402</ele>
        <time>2019-05-04T09:25:10Z</time>
      </trkpt>
      <trkpt lat="46.84783" lon="6.53118">
        <ele>1403</ele>
        <time>2019-05-04T09:25:24Z</time>
      </trkpt>
      <trkpt lat="46.84791" lon="6.53129">
        <ele>1405</ele>
        <time>2019-05-04T09:25:31Z</time>
      </trkpt>
      <trkpt lat="46.84798" lon="6.53145">
        <ele>1408</ele>
        <time>2019-05-04T09:25:41Z</time>
      </trkpt>
      <trkpt lat="46.84806" lon="6.53156">
        <ele>1408</ele>
        <time>2019-05-04T09:25:49Z</time>
      </trkpt>
      <trkpt lat="46.84808" lon="6.53158">
        <ele>1408</ele>
        <time>2019-05-04T09:25:51Z</time>
      </trkpt>
      <trkpt lat="46.84812" lon="6.53164">
        <ele>1409</ele>
        <time>2019-05-04T09:25:55Z</time>
      </trkpt>
      <trkpt lat="46.84818" lon="6.53172">
        <ele>1410</ele>
        <time>2019-05-04T09:26:01Z</time>
      </trkpt>
      <trkpt lat="46.84822" lon="6.5318">
        <ele>1411</ele>
        <time>2019-05-04T09:26:06Z</time>
      </trkpt>
      <trkpt lat="46.84824" lon="6.53185">
        <ele>1412</ele>
        <time>2019-05-04T09:26:09Z</time>
      </trkpt>
      <trkpt lat="46.84825" lon="6.53187">
        <ele>1413</ele>
        <time>2019-05-04T09:26:10Z</time>
      </trkpt>
      <trkpt lat="46.84826" lon="6.5319">
        <ele>1414</ele>
        <time>2019-05-04T09:26:12Z</time>
      </trkpt>
      <trkpt lat="46.84829" lon="6.53197">
        <ele>1414</ele>
        <time>2019-05-04T09:26:16Z</time>
      </trkpt>
      <trkpt lat="46.84835" lon="6.53207">
        <ele>1415</ele>
        <time>2019-05-04T09:26:22Z</time>
      </trkpt>
      <trkpt lat="46.84842" lon="6.53219">
        <ele>1416</ele>
        <time>2019-05-04T09:26:30Z</time>
      </trkpt>
      <trkpt lat="46.84849" lon="6.53229">
        <ele>1416</ele>
        <time>2019-05-04T09:26:37Z</time>
      </trkpt>
      <trkpt lat="46.84855" lon="6.53241">
        <ele>1417</ele>
        <time>2019-05-04T09:26:45Z</time>
      </trkpt>
      <trkpt lat="46.8486" lon="6.5325">
        <ele>1417</ele>
        <time>2019-05-04T09:26:51Z</time>
      </trkpt>
      <trkpt lat="46.84865" lon="6.5326">
        <ele>1418</ele>
        <time>2019-05-04T09:26:57Z</time>
      </trkpt>
      <trkpt lat="46.84867" lon="6.53262">
        <ele>1418</ele>
        <time>2019-05-04T09:26:58Z</time>
      </trkpt>
      <trkpt lat="46.84868" lon="6.53263">
        <ele>1418</ele>
        <time>2019-05-04T09:26:59Z</time>
      </trkpt>
      <trkpt lat="46.84873" lon="6.53272">
        <ele>1419</ele>
        <time>2019-05-04T09:27:05Z</time>
      </trkpt>
      <trkpt lat="46.84877" lon="6.5328">
        <ele>1420</ele>
        <time>2019-05-04T09:27:10Z</time>
      </trkpt>
      <trkpt lat="46.84878" lon="6.53281">
        <ele>1421</ele>
        <time>2019-05-04T09:27:11Z</time>
      </trkpt>
      <trkpt lat="46.84877" lon="6.53283">
        <ele>1421</ele>
        <time>2019-05-04T09:27:12Z</time>
      </trkpt>
      <trkpt lat="46.84878" lon="6.53285">
        <ele>1422</ele>
        <time>2019-05-04T09:27:14Z</time>
      </trkpt>
      <trkpt lat="46.8488" lon="6.53288">
        <ele>1422</ele>
        <time>2019-05-04T09:27:16Z</time>
      </trkpt>
      <trkpt lat="46.84882" lon="6.53291">
        <ele>1423</ele>
        <time>2019-05-04T09:27:18Z</time>
      </trkpt>
      <trkpt lat="46.84883" lon="6.53292">
        <ele>1423</ele>
        <time>2019-05-04T09:27:18Z</time>
      </trkpt>
      <trkpt lat="46.84883" lon="6.53296">
        <ele>1424</ele>
        <time>2019-05-04T09:27:20Z</time>
      </trkpt>
      <trkpt lat="46.84884" lon="6.53299">
        <ele>1425</ele>
        <time>2019-05-04T09:27:22Z</time>
      </trkpt>
      <trkpt lat="46.84879" lon="6.53303">
        <ele>1428</ele>
        <time>2019-05-04T09:27:27Z</time>
      </trkpt>
      <trkpt lat="46.84878" lon="6.53309">
        <ele>1430</ele>
        <time>2019-05-04T09:27:30Z</time>
      </trkpt>
      <trkpt lat="46.84877" lon="6.53313">
        <ele>1431</ele>
        <time>2019-05-04T09:27:32Z</time>
      </trkpt>
      <trkpt lat="46.84876" lon="6.53314">
        <ele>1432</ele>
        <time>2019-05-04T09:27:33Z</time>
      </trkpt>
      <trkpt lat="46.84877" lon="6.53317">
        <ele>1433</ele>
        <time>2019-05-04T09:27:35Z</time>
      </trkpt>
      <trkpt lat="46.84876" lon="6.53322">
        <ele>1435</ele>
        <time>2019-05-04T09:27:38Z</time>
      </trkpt>
      <trkpt lat="46.84875" lon="6.53325">
        <ele>1436</ele>
        <time>2019-05-04T09:27:39Z</time>
      </trkpt>
      <trkpt lat="46.84873" lon="6.53327">
        <ele>1437</ele>
        <time>2019-05-04T09:27:41Z</time>
      </trkpt>
      <trkpt lat="46.84871" lon="6.53329">
        <ele>1438</ele>
        <time>2019-05-04T09:27:43Z</time>
      </trkpt>
      <trkpt lat="46.84868" lon="6.5333">
        <ele>1440</ele>
        <time>2019-05-04T09:27:46Z</time>
      </trkpt>
      <trkpt lat="46.84867" lon="6.53332">
        <ele>1441</ele>
        <time>2019-05-04T09:27:47Z</time>
      </trkpt>
      <trkpt lat="46.84864" lon="6.53335">
        <ele>1442</ele>
        <time>2019-05-04T09:27:50Z</time>
      </trkpt>
      <trkpt lat="46.84863" lon="6.53336">
        <ele>1443</ele>
        <time>2019-05-04T09:27:51Z</time>
      </trkpt>
      <trkpt lat="46.84863" lon="6.53337">
        <ele>1443</ele>
        <time>2019-05-04T09:27:51Z</time>
      </trkpt>
      <trkpt lat="46.84861" lon="6.53338">
        <ele>1444</ele>
        <time>2019-05-04T09:27:53Z</time>
      </trkpt>
      <trkpt lat="46.84861" lon="6.5334">
        <ele>1445</ele>
        <time>2019-05-04T09:27:54Z</time>
      </trkpt>
      <trkpt lat="46.8486" lon="6.53341">
        <ele>1446</ele>
        <time>2019-05-04T09:27:55Z</time>
      </trkpt>
      <trkpt lat="46.84859" lon="6.53344">
        <ele>1447</ele>
        <time>2019-05-04T09:27:57Z</time>
      </trkpt>
      <trkpt lat="46.84858" lon="6.53346">
        <ele>1447</ele>
        <time>2019-05-04T09:27:58Z</time>
      </trkpt>
      <trkpt lat="46.84858" lon="6.53349">
        <ele>1449</ele>
        <time>2019-05-04T09:28:00Z</time>
      </trkpt>
      <trkpt lat="46.84858" lon="6.53351">
        <ele>1449</ele>
        <time>2019-05-04T09:28:01Z</time>
      </trkpt>
      <trkpt lat="46.84859" lon="6.53356">
        <ele>1451</ele>
        <time>2019-05-04T09:28:04Z</time>
      </trkpt>
      <trkpt lat="46.84859" lon="6.53361">
        <ele>1452</ele>
        <time>2019-05-04T09:28:06Z</time>
      </trkpt>
      <trkpt lat="46.84859" lon="6.53364">
        <ele>1453</ele>
        <time>2019-05-04T09:28:08Z</time>
      </trkpt>
      <trkpt lat="46.84859" lon="6.53366">
        <ele>1453</ele>
        <time>2019-05-04T09:28:09Z</time>
      </trkpt>
      <trkpt lat="46.84859" lon="6.53368">
        <ele>1454</ele>
        <time>2019-05-04T09:28:10Z</time>
      </trkpt>
      <trkpt lat="46.84859" lon="6.53371">
        <ele>1455</ele>
        <time>2019-05-04T09:28:12Z</time>
      </trkpt>
      <trkpt lat="46.84856" lon="6.53372">
        <ele>1456</ele>
        <time>2019-05-04T09:28:14Z</time>
      </trkpt>
      <trkpt lat="46.84854" lon="6.53371">
        <ele>1456</ele>
        <time>2019-05-04T09:28:16Z</time>
      </trkpt>
      <trkpt lat="46.84848" lon="6.5337">
        <ele>1458</ele>
        <time>2019-05-04T09:28:20Z</time>
      </trkpt>
      <trkpt lat="46.84848" lon="6.53372">
        <ele>1458</ele>
        <time>2019-05-04T09:28:21Z</time>
      </trkpt>
      <trkpt lat="46.84846" lon="6.53372">
        <ele>1459</ele>
        <time>2019-05-04T09:28:23Z</time>
      </trkpt>
      <trkpt lat="46.84844" lon="6.53373">
        <ele>1460</ele>
        <time>2019-05-04T09:28:24Z</time>
      </trkpt>
      <trkpt lat="46.84843" lon="6.53373">
        <ele>1460</ele>
        <time>2019-05-04T09:28:25Z</time>
      </trkpt>
      <trkpt lat="46.84843" lon="6.53373">
        <ele>1460</ele>
        <time>2019-05-04T09:28:25Z</time>
      </trkpt>
      <trkpt lat="46.84843" lon="6.53375">
        <ele>1461</ele>
        <time>2019-05-04T09:28:26Z</time>
      </trkpt>
      <trkpt lat="46.84843" lon="6.53376">
        <ele>1461</ele>
        <time>2019-05-04T09:28:27Z</time>
      </trkpt>
      <trkpt lat="46.84844" lon="6.53376">
        <ele>1461</ele>
        <time>2019-05-04T09:28:27Z</time>
      </trkpt>
      <trkpt lat="46.84843" lon="6.53381">
        <ele>1462</ele>
        <time>2019-05-04T09:28:30Z</time>
      </trkpt>
      <trkpt lat="46.84842" lon="6.53384">
        <ele>1463</ele>
        <time>2019-05-04T09:28:32Z</time>
      </trkpt>
      <trkpt lat="46.8484" lon="6.53389">
        <ele>1465</ele>
        <time>2019-05-04T09:28:35Z</time>
      </trkpt>
      <trkpt lat="46.84839" lon="6.53391">
        <ele>1466</ele>
        <time>2019-05-04T09:28:36Z</time>
      </trkpt>
      <trkpt lat="46.84838" lon="6.53393">
        <ele>1467</ele>
        <time>2019-05-04T09:28:38Z</time>
      </trkpt>
      <trkpt lat="46.8484" lon="6.53396">
        <ele>1467</ele>
        <time>2019-05-04T09:28:40Z</time>
      </trkpt>
      <trkpt lat="46.84842" lon="6.53401">
        <ele>1468</ele>
        <time>2019-05-04T09:28:43Z</time>
      </trkpt>
      <trkpt lat="46.84842" lon="6.53404">
        <ele>1469</ele>
        <time>2019-05-04T09:28:44Z</time>
      </trkpt>
      <trkpt lat="46.84839" lon="6.53407">
        <ele>1471</ele>
        <time>2019-05-04T09:28:47Z</time>
      </trkpt>
      <trkpt lat="46.84836" lon="6.53407">
        <ele>1472</ele>
        <time>2019-05-04T09:28:50Z</time>
      </trkpt>
      <trkpt lat="46.84834" lon="6.5341">
        <ele>1473</ele>
        <time>2019-05-04T09:28:52Z</time>
      </trkpt>
      <trkpt lat="46.84835" lon="6.53414">
        <ele>1474</ele>
        <time>2019-05-04T09:28:54Z</time>
      </trkpt>
      <trkpt lat="46.84836" lon="6.53418">
        <ele>1475</ele>
        <time>2019-05-04T09:28:56Z</time>
      </trkpt>
      <trkpt lat="46.84834" lon="6.53422">
        <ele>1477</ele>
        <time>2019-05-04T09:28:59Z</time>
      </trkpt>
      <trkpt lat="46.84833" lon="6.53425">
        <ele>1478</ele>
        <time>2019-05-04T09:29:01Z</time>
      </trkpt>
      <trkpt lat="46.8483" lon="6.53428">
        <ele>1480</ele>
        <time>2019-05-04T09:29:04Z</time>
      </trkpt>
      <trkpt lat="46.84829" lon="6.5343">
        <ele>1480</ele>
        <time>2019-05-04T09:29:05Z</time>
      </trkpt>
      <trkpt lat="46.84828" lon="6.53433">
        <ele>1482</ele>
        <time>2019-05-04T09:29:07Z</time>
      </trkpt>
      <trkpt lat="46.84826" lon="6.53437">
        <ele>1483</ele>
        <time>2019-05-04T09:29:10Z</time>
      </trkpt>
      <trkpt lat="46.84827" lon="6.5344">
        <ele>1484</ele>
        <time>2019-05-04T09:29:12Z</time>
      </trkpt>
      <trkpt lat="46.84827" lon="6.53444">
        <ele>1485</ele>
        <time>2019-05-04T09:29:14Z</time>
      </trkpt>
      <trkpt lat="46.84828" lon="6.53447">
        <ele>1486</ele>
        <time>2019-05-04T09:29:15Z</time>
      </trkpt>
      <trkpt lat="46.84827" lon="6.53451">
        <ele>1487</ele>
        <time>2019-05-04T09:29:17Z</time>
      </trkpt>
      <trkpt lat="46.8483" lon="6.53454">
        <ele>1487</ele>
        <time>2019-05-04T09:29:20Z</time>
      </trkpt>
      <trkpt lat="46.84832" lon="6.53458">
        <ele>1488</ele>
        <time>2019-05-04T09:29:22Z</time>
      </trkpt>
      <trkpt lat="46.84834" lon="6.53461">
        <ele>1488</ele>
        <time>2019-05-04T09:29:25Z</time>
      </trkpt>
      <trkpt lat="46.84834" lon="6.53464">
        <ele>1489</ele>
        <time>2019-05-04T09:29:26Z</time>
      </trkpt>
      <trkpt lat="46.84834" lon="6.53468">
        <ele>1490</ele>
        <time>2019-05-04T09:29:28Z</time>
      </trkpt>
      <trkpt lat="46.84834" lon="6.53472">
        <ele>1491</ele>
        <time>2019-05-04T09:29:31Z</time>
      </trkpt>
      <trkpt lat="46.84833" lon="6.53478">
        <ele>1493</ele>
        <time>2019-05-04T09:29:34Z</time>
      </trkpt>
      <trkpt lat="46.84839" lon="6.5348">
        <ele>1493</ele>
        <time>2019-05-04T09:29:38Z</time>
      </trkpt>
      <trkpt lat="46.84838" lon="6.53483">
        <ele>1494</ele>
        <time>2019-05-04T09:29:40Z</time>
      </trkpt>
      <trkpt lat="46.8484" lon="6.53487">
        <ele>1494</ele>
        <time>2019-05-04T09:29:42Z</time>
      </trkpt>
      <trkpt lat="46.84842" lon="6.53488">
        <ele>1494</ele>
        <time>2019-05-04T09:29:44Z</time>
      </trkpt>
      <trkpt lat="46.84843" lon="6.53492">
        <ele>1495</ele>
        <time>2019-05-04T09:29:46Z</time>
      </trkpt>
      <trkpt lat="46.84845" lon="6.53495">
        <ele>1496</ele>
        <time>2019-05-04T09:29:48Z</time>
      </trkpt>
      <trkpt lat="46.84844" lon="6.53496">
        <ele>1496</ele>
        <time>2019-05-04T09:29:48Z</time>
      </trkpt>
      <trkpt lat="46.84846" lon="6.53498">
        <ele>1496</ele>
        <time>2019-05-04T09:29:50Z</time>
      </trkpt>
      <trkpt lat="46.84846" lon="6.53498">
        <ele>1496</ele>
        <time>2019-05-04T09:29:50Z</time>
      </trkpt>
      <trkpt lat="46.84849" lon="6.53499">
        <ele>1496</ele>
        <time>2019-05-04T09:29:52Z</time>
      </trkpt>
      <trkpt lat="46.84849" lon="6.535">
        <ele>1496</ele>
        <time>2019-05-04T09:29:53Z</time>
      </trkpt>
      <trkpt lat="46.84849" lon="6.53499">
        <ele>1496</ele>
        <time>2019-05-04T09:29:53Z</time>
      </trkpt>
      <trkpt lat="46.84851" lon="6.53501">
        <ele>1496</ele>
        <time>2019-05-04T09:29:55Z</time>
      </trkpt>
      <trkpt lat="46.84853" lon="6.53502">
        <ele>1496</ele>
        <time>2019-05-04T09:29:56Z</time>
      </trkpt>
      <trkpt lat="46.84851" lon="6.53506">
        <ele>1497</ele>
        <time>2019-05-04T09:29:59Z</time>
      </trkpt>
      <trkpt lat="46.84847" lon="6.53507">
        <ele>1499</ele>
        <time>2019-05-04T09:30:02Z</time>
      </trkpt>
      <trkpt lat="46.84846" lon="6.53508">
        <ele>1499</ele>
        <time>2019-05-04T09:30:03Z</time>
      </trkpt>
      <trkpt lat="46.84842" lon="6.53515">
        <ele>1503</ele>
        <time>2019-05-04T09:30:08Z</time>
      </trkpt>
      <trkpt lat="46.84842" lon="6.53517">
        <ele>1503</ele>
        <time>2019-05-04T09:30:09Z</time>
      </trkpt>
      <trkpt lat="46.84845" lon="6.53524">
        <ele>1505</ele>
        <time>2019-05-04T09:30:13Z</time>
      </trkpt>
      <trkpt lat="46.84847" lon="6.53531">
        <ele>1506</ele>
        <time>2019-05-04T09:30:17Z</time>
      </trkpt>
      <trkpt lat="46.84848" lon="6.53532">
        <ele>1506</ele>
        <time>2019-05-04T09:30:18Z</time>
      </trkpt>
      <trkpt lat="46.84851" lon="6.53536">
        <ele>1507</ele>
        <time>2019-05-04T09:30:21Z</time>
      </trkpt>
      <trkpt lat="46.84852" lon="6.53539">
        <ele>1508</ele>
        <time>2019-05-04T09:30:23Z</time>
      </trkpt>
      <trkpt lat="46.84855" lon="6.53542">
        <ele>1508</ele>
        <time>2019-05-04T09:30:26Z</time>
      </trkpt>
      <trkpt lat="46.84858" lon="6.53543">
        <ele>1508</ele>
        <time>2019-05-04T09:30:28Z</time>
      </trkpt>
      <trkpt lat="46.84859" lon="6.53544">
        <ele>1508</ele>
        <time>2019-05-04T09:30:29Z</time>
      </trkpt>
      <trkpt lat="46.8486" lon="6.53544">
        <ele>1508</ele>
        <time>2019-05-04T09:30:29Z</time>
      </trkpt>
      <trkpt lat="46.84861" lon="6.53546">
        <ele>1509</ele>
        <time>2019-05-04T09:30:31Z</time>
      </trkpt>
      <trkpt lat="46.84864" lon="6.53551">
        <ele>1510</ele>
        <time>2019-05-04T09:30:34Z</time>
      </trkpt>
      <trkpt lat="46.84864" lon="6.53552">
        <ele>1511</ele>
        <time>2019-05-04T09:30:35Z</time>
      </trkpt>
      <trkpt lat="46.84866" lon="6.53555">
        <ele>1511</ele>
        <time>2019-05-04T09:30:37Z</time>
      </trkpt>
      <trkpt lat="46.8487" lon="6.53557">
        <ele>1511</ele>
        <time>2019-05-04T09:30:40Z</time>
      </trkpt>
      <trkpt lat="46.84871" lon="6.53558">
        <ele>1511</ele>
        <time>2019-05-04T09:30:41Z</time>
      </trkpt>
      <trkpt lat="46.84879" lon="6.53563">
        <ele>1512</ele>
        <time>2019-05-04T09:30:47Z</time>
      </trkpt>
      <trkpt lat="46.8488" lon="6.53564">
        <ele>1512</ele>
        <time>2019-05-04T09:30:48Z</time>
      </trkpt>
      <trkpt lat="46.84881" lon="6.53566">
        <ele>1512</ele>
        <time>2019-05-04T09:30:49Z</time>
      </trkpt>
      <trkpt lat="46.8488" lon="6.53566">
        <ele>1512</ele>
        <time>2019-05-04T09:30:50Z</time>
      </trkpt>
      <trkpt lat="46.8488" lon="6.53567">
        <ele>1513</ele>
        <time>2019-05-04T09:30:51Z</time>
      </trkpt>
      <trkpt lat="46.8488" lon="6.53567">
        <ele>1513</ele>
        <time>2019-05-04T09:30:51Z</time>
      </trkpt>
      <trkpt lat="46.84879" lon="6.53569">
        <ele>1514</ele>
        <time>2019-05-04T09:30:52Z</time>
      </trkpt>
      <trkpt lat="46.84881" lon="6.5357">
        <ele>1514</ele>
        <time>2019-05-04T09:30:53Z</time>
      </trkpt>
      <trkpt lat="46.8488" lon="6.5357">
        <ele>1514</ele>
        <time>2019-05-04T09:30:54Z</time>
      </trkpt>
      <trkpt lat="46.84881" lon="6.53569">
        <ele>1513</ele>
        <time>2019-05-04T09:30:56Z</time>
      </trkpt>
      <trkpt lat="46.84883" lon="6.5357">
        <ele>1513</ele>
        <time>2019-05-04T09:30:57Z</time>
      </trkpt>
      <trkpt lat="46.84889" lon="6.53581">
        <ele>1516</ele>
        <time>2019-05-04T09:31:04Z</time>
      </trkpt>
      <trkpt lat="46.8489" lon="6.53587">
        <ele>1518</ele>
        <time>2019-05-04T09:31:07Z</time>
      </trkpt>
      <trkpt lat="46.84886" lon="6.53591">
        <ele>1520</ele>
        <time>2019-05-04T09:31:12Z</time>
      </trkpt>
      <trkpt lat="46.84884" lon="6.53593">
        <ele>1521</ele>
        <time>2019-05-04T09:31:13Z</time>
      </trkpt>
      <trkpt lat="46.84883" lon="6.53594">
        <ele>1522</ele>
        <time>2019-05-04T09:31:14Z</time>
      </trkpt>
      <trkpt lat="46.8488" lon="6.53597">
        <ele>1523</ele>
        <time>2019-05-04T09:31:17Z</time>
      </trkpt>
      <trkpt lat="46.84879" lon="6.53598">
        <ele>1524</ele>
        <time>2019-05-04T09:31:18Z</time>
      </trkpt>
      <trkpt lat="46.84878" lon="6.53601">
        <ele>1525</ele>
        <time>2019-05-04T09:31:20Z</time>
      </trkpt>
      <trkpt lat="46.84876" lon="6.53606">
        <ele>1528</ele>
        <time>2019-05-04T09:31:23Z</time>
      </trkpt>
      <trkpt lat="46.84875" lon="6.53607">
        <ele>1528</ele>
        <time>2019-05-04T09:31:24Z</time>
      </trkpt>
      <trkpt lat="46.84875" lon="6.53609">
        <ele>1529</ele>
        <time>2019-05-04T09:31:25Z</time>
      </trkpt>
      <trkpt lat="46.84874" lon="6.53611">
        <ele>1530</ele>
        <time>2019-05-04T09:31:27Z</time>
      </trkpt>
      <trkpt lat="46.84875" lon="6.53615">
        <ele>1530</ele>
        <time>2019-05-04T09:31:29Z</time>
      </trkpt>
      <trkpt lat="46.84877" lon="6.53618">
        <ele>1530</ele>
        <time>2019-05-04T09:31:31Z</time>
      </trkpt>
      <trkpt lat="46.84879" lon="6.53619">
        <ele>1530</ele>
        <time>2019-05-04T09:31:33Z</time>
      </trkpt>
      <trkpt lat="46.84884" lon="6.53622">
        <ele>1530</ele>
        <time>2019-05-04T09:31:36Z</time>
      </trkpt>
      <trkpt lat="46.84885" lon="6.53625">
        <ele>1530</ele>
        <time>2019-05-04T09:31:38Z</time>
      </trkpt>
      <trkpt lat="46.84885" lon="6.53626">
        <ele>1530</ele>
        <time>2019-05-04T09:31:38Z</time>
      </trkpt>
      <trkpt lat="46.84885" lon="6.53626">
        <ele>1531</ele>
        <time>2019-05-04T09:31:39Z</time>
      </trkpt>
      <trkpt lat="46.84884" lon="6.53629">
        <ele>1531</ele>
        <time>2019-05-04T09:31:40Z</time>
      </trkpt>
      <trkpt lat="46.84884" lon="6.53631">
        <ele>1532</ele>
        <time>2019-05-04T09:31:41Z</time>
      </trkpt>
      <trkpt lat="46.84885" lon="6.53633">
        <ele>1532</ele>
        <time>2019-05-04T09:31:43Z</time>
      </trkpt>
      <trkpt lat="46.84886" lon="6.53636">
        <ele>1532</ele>
        <time>2019-05-04T09:31:44Z</time>
      </trkpt>
      <trkpt lat="46.84887" lon="6.53638">
        <ele>1533</ele>
        <time>2019-05-04T09:31:45Z</time>
      </trkpt>
      <trkpt lat="46.84885" lon="6.53641">
        <ele>1533</ele>
        <time>2019-05-04T09:31:47Z</time>
      </trkpt>
      <trkpt lat="46.84884" lon="6.53642">
        <ele>1534</ele>
        <time>2019-05-04T09:31:48Z</time>
      </trkpt>
      <trkpt lat="46.84881" lon="6.53646">
        <ele>1535</ele>
        <time>2019-05-04T09:31:51Z</time>
      </trkpt>
      <trkpt lat="46.84879" lon="6.53647">
        <ele>1535</ele>
        <time>2019-05-04T09:31:53Z</time>
      </trkpt>
      <trkpt lat="46.84877" lon="6.53649">
        <ele>1536</ele>
        <time>2019-05-04T09:31:54Z</time>
      </trkpt>
      <trkpt lat="46.84876" lon="6.5365">
        <ele>1536</ele>
        <time>2019-05-04T09:31:56Z</time>
      </trkpt>
      <trkpt lat="46.84875" lon="6.53654">
        <ele>1537</ele>
        <time>2019-05-04T09:31:58Z</time>
      </trkpt>
      <trkpt lat="46.84874" lon="6.53658">
        <ele>1537</ele>
        <time>2019-05-04T09:32:00Z</time>
      </trkpt>
      <trkpt lat="46.84871" lon="6.5366">
        <ele>1538</ele>
        <time>2019-05-04T09:32:02Z</time>
      </trkpt>
      <trkpt lat="46.8487" lon="6.53664">
        <ele>1539</ele>
        <time>2019-05-04T09:32:05Z</time>
      </trkpt>
      <trkpt lat="46.8487" lon="6.53666">
        <ele>1539</ele>
        <time>2019-05-04T09:32:06Z</time>
      </trkpt>
      <trkpt lat="46.84869" lon="6.53667">
        <ele>1539</ele>
        <time>2019-05-04T09:32:06Z</time>
      </trkpt>
      <trkpt lat="46.8487" lon="6.53672">
        <ele>1540</ele>
        <time>2019-05-04T09:32:09Z</time>
      </trkpt>
      <trkpt lat="46.84874" lon="6.53676">
        <ele>1541</ele>
        <time>2019-05-04T09:32:13Z</time>
      </trkpt>
      <trkpt lat="46.84869" lon="6.53672">
        <ele>1540</ele>
        <time>2019-05-04T09:32:17Z</time>
      </trkpt>
      <trkpt lat="46.84869" lon="6.53669">
        <ele>1540</ele>
        <time>2019-05-04T09:32:18Z</time>
      </trkpt>
      <trkpt lat="46.84868" lon="6.53666">
        <ele>1539</ele>
        <time>2019-05-04T09:32:20Z</time>
      </trkpt>
      <trkpt lat="46.84876" lon="6.53676">
        <ele>1541</ele>
        <time>2019-05-04T09:32:28Z</time>
      </trkpt>
      <trkpt lat="46.84879" lon="6.53678">
        <ele>1541</ele>
        <time>2019-05-04T09:32:30Z</time>
      </trkpt>
      <trkpt lat="46.84881" lon="6.5368">
        <ele>1541</ele>
        <time>2019-05-04T09:32:32Z</time>
      </trkpt>
      <trkpt lat="46.84881" lon="6.53681">
        <ele>1542</ele>
        <time>2019-05-04T09:32:33Z</time>
      </trkpt>
      <trkpt lat="46.84886" lon="6.53683">
        <ele>1542</ele>
        <time>2019-05-04T09:32:36Z</time>
      </trkpt>
      <trkpt lat="46.84887" lon="6.53684">
        <ele>1542</ele>
        <time>2019-05-04T09:32:37Z</time>
      </trkpt>
      <trkpt lat="46.84888" lon="6.53684">
        <ele>1542</ele>
        <time>2019-05-04T09:32:38Z</time>
      </trkpt>
      <trkpt lat="46.84893" lon="6.53686">
        <ele>1543</ele>
        <time>2019-05-04T09:32:41Z</time>
      </trkpt>
      <trkpt lat="46.84898" lon="6.53689">
        <ele>1544</ele>
        <time>2019-05-04T09:32:46Z</time>
      </trkpt>
      <trkpt lat="46.84902" lon="6.53692">
        <ele>1545</ele>
        <time>2019-05-04T09:32:49Z</time>
      </trkpt>
      <trkpt lat="46.84904" lon="6.53694">
        <ele>1545</ele>
        <time>2019-05-04T09:32:50Z</time>
      </trkpt>
      <trkpt lat="46.84905" lon="6.53694">
        <ele>1545</ele>
        <time>2019-05-04T09:32:51Z</time>
      </trkpt>
      <trkpt lat="46.84908" lon="6.53698">
        <ele>1545</ele>
        <time>2019-05-04T09:32:54Z</time>
      </trkpt>
      <trkpt lat="46.84911" lon="6.53701">
        <ele>1546</ele>
        <time>2019-05-04T09:32:57Z</time>
      </trkpt>
      <trkpt lat="46.8492" lon="6.5371">
        <ele>1547</ele>
        <time>2019-05-04T09:33:05Z</time>
      </trkpt>
      <trkpt lat="46.84923" lon="6.53713">
        <ele>1547</ele>
        <time>2019-05-04T09:33:07Z</time>
      </trkpt>
      <trkpt lat="46.84927" lon="6.5372">
        <ele>1548</ele>
        <time>2019-05-04T09:33:12Z</time>
      </trkpt>
      <trkpt lat="46.84929" lon="6.53723">
        <ele>1549</ele>
        <time>2019-05-04T09:33:14Z</time>
      </trkpt>
      <trkpt lat="46.8493" lon="6.53725">
        <ele>1549</ele>
        <time>2019-05-04T09:33:15Z</time>
      </trkpt>
      <trkpt lat="46.84933" lon="6.53728">
        <ele>1550</ele>
        <time>2019-05-04T09:33:18Z</time>
      </trkpt>
      <trkpt lat="46.84941" lon="6.53737">
        <ele>1552</ele>
        <time>2019-05-04T09:33:26Z</time>
      </trkpt>
      <trkpt lat="46.84946" lon="6.53744">
        <ele>1553</ele>
        <time>2019-05-04T09:33:31Z</time>
      </trkpt>
      <trkpt lat="46.8495" lon="6.53757">
        <ele>1555</ele>
        <time>2019-05-04T09:33:38Z</time>
      </trkpt>
      <trkpt lat="46.84953" lon="6.53767">
        <ele>1557</ele>
        <time>2019-05-04T09:33:43Z</time>
      </trkpt>
      <trkpt lat="46.84953" lon="6.53769">
        <ele>1557</ele>
        <time>2019-05-04T09:33:44Z</time>
      </trkpt>
      <trkpt lat="46.84954" lon="6.53771">
        <ele>1558</ele>
        <time>2019-05-04T09:33:45Z</time>
      </trkpt>
      <trkpt lat="46.84956" lon="6.53774">
        <ele>1559</ele>
        <time>2019-05-04T09:33:48Z</time>
      </trkpt>
      <trkpt lat="46.84957" lon="6.53778">
        <ele>1559</ele>
        <time>2019-05-04T09:33:50Z</time>
      </trkpt>
      <trkpt lat="46.84959" lon="6.53785">
        <ele>1560</ele>
        <time>2019-05-04T09:33:54Z</time>
      </trkpt>
      <trkpt lat="46.8496" lon="6.53788">
        <ele>1560</ele>
        <time>2019-05-04T09:33:55Z</time>
      </trkpt>
      <trkpt lat="46.84963" lon="6.53797">
        <ele>1561</ele>
        <time>2019-05-04T09:34:00Z</time>
      </trkpt>
      <trkpt lat="46.84965" lon="6.53801">
        <ele>1562</ele>
        <time>2019-05-04T09:34:03Z</time>
      </trkpt>
      <trkpt lat="46.84968" lon="6.53804">
        <ele>1562</ele>
        <time>2019-05-04T09:34:05Z</time>
      </trkpt>
      <trkpt lat="46.8497" lon="6.53808">
        <ele>1563</ele>
        <time>2019-05-04T09:34:08Z</time>
      </trkpt>
      <trkpt lat="46.84973" lon="6.53812">
        <ele>1564</ele>
        <time>2019-05-04T09:34:11Z</time>
      </trkpt>
      <trkpt lat="46.84975" lon="6.53813">
        <ele>1564</ele>
        <time>2019-05-04T09:34:12Z</time>
      </trkpt>
      <trkpt lat="46.84977" lon="6.53816">
        <ele>1565</ele>
        <time>2019-05-04T09:34:15Z</time>
      </trkpt>
      <trkpt lat="46.84978" lon="6.53819">
        <ele>1565</ele>
        <time>2019-05-04T09:34:16Z</time>
      </trkpt>
      <trkpt lat="46.84978" lon="6.53821">
        <ele>1565</ele>
        <time>2019-05-04T09:34:17Z</time>
      </trkpt>
      <trkpt lat="46.8498" lon="6.53824">
        <ele>1566</ele>
        <time>2019-05-04T09:34:19Z</time>
      </trkpt>
      <trkpt lat="46.84985" lon="6.53835">
        <ele>1567</ele>
        <time>2019-05-04T09:34:26Z</time>
      </trkpt>
      <trkpt lat="46.8499" lon="6.53845">
        <ele>1569</ele>
        <time>2019-05-04T09:34:32Z</time>
      </trkpt>
      <trkpt lat="46.84993" lon="6.53853">
        <ele>1570</ele>
        <time>2019-05-04T09:34:37Z</time>
      </trkpt>
      <trkpt lat="46.84997" lon="6.53864">
        <ele>1570</ele>
        <time>2019-05-04T09:34:43Z</time>
      </trkpt>
      <trkpt lat="46.84998" lon="6.53881">
        <ele>1569</ele>
        <time>2019-05-04T09:34:51Z</time>
      </trkpt>
      <trkpt lat="46.84997" lon="6.53883">
        <ele>1568</ele>
        <time>2019-05-04T09:34:52Z</time>
      </trkpt>
      <trkpt lat="46.85" lon="6.53892">
        <ele>1568</ele>
        <time>2019-05-04T09:34:57Z</time>
      </trkpt>
      <trkpt lat="46.85001" lon="6.53895">
        <ele>1568</ele>
        <time>2019-05-04T09:34:59Z</time>
      </trkpt>
      <trkpt lat="46.85006" lon="6.53894">
        <ele>1569</ele>
        <time>2019-05-04T09:35:02Z</time>
      </trkpt>
      <trkpt lat="46.85014" lon="6.53886">
        <ele>1572</ele>
        <time>2019-05-04T09:35:10Z</time>
      </trkpt>
      <trkpt lat="46.85022" lon="6.53889">
        <ele>1574</ele>
        <time>2019-05-04T09:35:16Z</time>
      </trkpt>
      <trkpt lat="46.85023" lon="6.5389">
        <ele>1574</ele>
        <time>2019-05-04T09:35:17Z</time>
      </trkpt>
      <trkpt lat="46.85033" lon="6.53887">
        <ele>1577</ele>
        <time>2019-05-04T09:35:24Z</time>
      </trkpt>
      <trkpt lat="46.85037" lon="6.53884">
        <ele>1578</ele>
        <time>2019-05-04T09:35:28Z</time>
      </trkpt>
      <trkpt lat="46.8504" lon="6.53883">
        <ele>1578</ele>
        <time>2019-05-04T09:35:30Z</time>
      </trkpt>
      <trkpt lat="46.85045" lon="6.5388">
        <ele>1579</ele>
        <time>2019-05-04T09:35:34Z</time>
      </trkpt>
      <trkpt lat="46.85048" lon="6.53881">
        <ele>1579</ele>
        <time>2019-05-04T09:35:36Z</time>
      </trkpt>
      <trkpt lat="46.85051" lon="6.53882">
        <ele>1579</ele>
        <time>2019-05-04T09:35:38Z</time>
      </trkpt>
      <trkpt lat="46.85061" lon="6.53893">
        <ele>1579</ele>
        <time>2019-05-04T09:35:47Z</time>
      </trkpt>
      <trkpt lat="46.85063" lon="6.53897">
        <ele>1579</ele>
        <time>2019-05-04T09:35:50Z</time>
      </trkpt>
      <trkpt lat="46.85065" lon="6.53901">
        <ele>1579</ele>
        <time>2019-05-04T09:35:52Z</time>
      </trkpt>
      <trkpt lat="46.85067" lon="6.5391">
        <ele>1578</ele>
        <time>2019-05-04T09:35:57Z</time>
      </trkpt>
      <trkpt lat="46.85068" lon="6.53911">
        <ele>1578</ele>
        <time>2019-05-04T09:35:58Z</time>
      </trkpt>
      <trkpt lat="46.85064" lon="6.53922">
        <ele>1576</ele>
        <time>2019-05-04T09:36:05Z</time>
      </trkpt>
      <trkpt lat="46.85064" lon="6.53924">
        <ele>1576</ele>
        <time>2019-05-04T09:36:06Z</time>
      </trkpt>
      <trkpt lat="46.85063" lon="6.53931">
        <ele>1575</ele>
        <time>2019-05-04T09:36:09Z</time>
      </trkpt>
      <trkpt lat="46.85062" lon="6.53935">
        <ele>1575</ele>
        <time>2019-05-04T09:36:11Z</time>
      </trkpt>
      <trkpt lat="46.85056" lon="6.53937">
        <ele>1574</ele>
        <time>2019-05-04T09:36:16Z</time>
      </trkpt>
      <trkpt lat="46.85049" lon="6.53935">
        <ele>1573</ele>
        <time>2019-05-04T09:36:21Z</time>
      </trkpt>
      <trkpt lat="46.8504" lon="6.53931">
        <ele>1573</ele>
        <time>2019-05-04T09:36:27Z</time>
      </trkpt>
      <trkpt lat="46.85028" lon="6.53925">
        <ele>1571</ele>
        <time>2019-05-04T09:36:37Z</time>
      </trkpt>
      <trkpt lat="46.85024" lon="6.53923">
        <ele>1571</ele>
        <time>2019-05-04T09:36:40Z</time>
      </trkpt>
      <trkpt lat="46.85018" lon="6.53922">
        <ele>1569</ele>
        <time>2019-05-04T09:36:45Z</time>
      </trkpt>
      <trkpt lat="46.85004" lon="6.5392">
        <ele>1566</ele>
        <time>2019-05-04T09:36:55Z</time>
      </trkpt>
      <trkpt lat="46.84998" lon="6.53919">
        <ele>1565</ele>
        <time>2019-05-04T09:36:59Z</time>
      </trkpt>
      <trkpt lat="46.84993" lon="6.53917">
        <ele>1563</ele>
        <time>2019-05-04T09:37:03Z</time>
      </trkpt>
      <trkpt lat="46.84986" lon="6.53914">
        <ele>1562</ele>
        <time>2019-05-04T09:37:09Z</time>
      </trkpt>
      <trkpt lat="46.84983" lon="6.53913">
        <ele>1561</ele>
        <time>2019-05-04T09:37:11Z</time>
      </trkpt>
      <trkpt lat="46.84979" lon="6.53912">
        <ele>1560</ele>
        <time>2019-05-04T09:37:14Z</time>
      </trkpt>
      <trkpt lat="46.84975" lon="6.53912">
        <ele>1559</ele>
        <time>2019-05-04T09:37:17Z</time>
      </trkpt>
      <trkpt lat="46.84971" lon="6.53914">
        <ele>1558</ele>
        <time>2019-05-04T09:37:20Z</time>
      </trkpt>
      <trkpt lat="46.84968" lon="6.53917">
        <ele>1557</ele>
        <time>2019-05-04T09:37:23Z</time>
      </trkpt>
      <trkpt lat="46.84962" lon="6.53916">
        <ele>1556</ele>
        <time>2019-05-04T09:37:27Z</time>
      </trkpt>
      <trkpt lat="46.84963" lon="6.53917">
        <ele>1556</ele>
        <time>2019-05-04T09:37:27Z</time>
      </trkpt>
      <trkpt lat="46.84964" lon="6.53916">
        <ele>1556</ele>
        <time>2019-05-04T09:37:28Z</time>
      </trkpt>
      <trkpt lat="46.84974" lon="6.53913">
        <ele>1559</ele>
        <time>2019-05-04T09:37:36Z</time>
      </trkpt>
      <trkpt lat="46.84972" lon="6.53912">
        <ele>1558</ele>
        <time>2019-05-04T09:37:38Z</time>
      </trkpt>
      <trkpt lat="46.84978" lon="6.53913">
        <ele>1560</ele>
        <time>2019-05-04T09:37:43Z</time>
      </trkpt>
      <trkpt lat="46.84981" lon="6.53913">
        <ele>1561</ele>
        <time>2019-05-04T09:37:45Z</time>
      </trkpt>
      <trkpt lat="46.84983" lon="6.53912">
        <ele>1561</ele>
        <time>2019-05-04T09:37:47Z</time>
      </trkpt>
      <trkpt lat="46.84985" lon="6.53912">
        <ele>1562</ele>
        <time>2019-05-04T09:37:48Z</time>
      </trkpt>
      <trkpt lat="46.84987" lon="6.53913">
        <ele>1562</ele>
        <time>2019-05-04T09:37:49Z</time>
      </trkpt>
      <trkpt lat="46.84992" lon="6.53915">
        <ele>1563</ele>
        <time>2019-05-04T09:37:53Z</time>
      </trkpt>
      <trkpt lat="46.84994" lon="6.53916">
        <ele>1564</ele>
        <time>2019-05-04T09:37:55Z</time>
      </trkpt>
      <trkpt lat="46.84997" lon="6.53917">
        <ele>1564</ele>
        <time>2019-05-04T09:37:57Z</time>
      </trkpt>
      <trkpt lat="46.85" lon="6.53917">
        <ele>1565</ele>
        <time>2019-05-04T09:38:00Z</time>
      </trkpt>
      <trkpt lat="46.85002" lon="6.53917">
        <ele>1566</ele>
        <time>2019-05-04T09:38:01Z</time>
      </trkpt>
      <trkpt lat="46.85006" lon="6.53918">
        <ele>1566</ele>
        <time>2019-05-04T09:38:04Z</time>
      </trkpt>
      <trkpt lat="46.85007" lon="6.5392">
        <ele>1567</ele>
        <time>2019-05-04T09:38:05Z</time>
      </trkpt>
      <trkpt lat="46.8501" lon="6.53922">
        <ele>1567</ele>
        <time>2019-05-04T09:38:07Z</time>
      </trkpt>
      <trkpt lat="46.85014" lon="6.53923">
        <ele>1568</ele>
        <time>2019-05-04T09:38:10Z</time>
      </trkpt>
      <trkpt lat="46.85015" lon="6.53923">
        <ele>1568</ele>
        <time>2019-05-04T09:38:12Z</time>
      </trkpt>
      <trkpt lat="46.85017" lon="6.53924">
        <ele>1569</ele>
        <time>2019-05-04T09:38:13Z</time>
      </trkpt>
      <trkpt lat="46.85024" lon="6.53924">
        <ele>1571</ele>
        <time>2019-05-04T09:38:19Z</time>
      </trkpt>
      <trkpt lat="46.85029" lon="6.53924">
        <ele>1572</ele>
        <time>2019-05-04T09:38:22Z</time>
      </trkpt>
      <trkpt lat="46.85034" lon="6.53925">
        <ele>1573</ele>
        <time>2019-05-04T09:38:26Z</time>
      </trkpt>
      <trkpt lat="46.85039" lon="6.53928">
        <ele>1573</ele>
        <time>2019-05-04T09:38:30Z</time>
      </trkpt>
      <trkpt lat="46.85046" lon="6.5393">
        <ele>1573</ele>
        <time>2019-05-04T09:38:35Z</time>
      </trkpt>
      <trkpt lat="46.85046" lon="6.53929">
        <ele>1574</ele>
        <time>2019-05-04T09:38:35Z</time>
      </trkpt>
      <trkpt lat="46.85046" lon="6.53928">
        <ele>1574</ele>
        <time>2019-05-04T09:38:36Z</time>
      </trkpt>
      <trkpt lat="46.85046" lon="6.53925">
        <ele>1574</ele>
        <time>2019-05-04T09:38:37Z</time>
      </trkpt>
      <trkpt lat="46.85046" lon="6.53922">
        <ele>1574</ele>
        <time>2019-05-04T09:38:39Z</time>
      </trkpt>
      <trkpt lat="46.85046" lon="6.53919">
        <ele>1575</ele>
        <time>2019-05-04T09:38:41Z</time>
      </trkpt>
      <trkpt lat="46.85051" lon="6.53915">
        <ele>1576</ele>
        <time>2019-05-04T09:38:45Z</time>
      </trkpt>
      <trkpt lat="46.85053" lon="6.53914">
        <ele>1576</ele>
        <time>2019-05-04T09:38:46Z</time>
      </trkpt>
      <trkpt lat="46.85062" lon="6.5391">
        <ele>1577</ele>
        <time>2019-05-04T09:38:53Z</time>
      </trkpt>
      <trkpt lat="46.85064" lon="6.53908">
        <ele>1578</ele>
        <time>2019-05-04T09:38:55Z</time>
      </trkpt>
      <trkpt lat="46.85072" lon="6.53904">
        <ele>1579</ele>
        <time>2019-05-04T09:39:01Z</time>
      </trkpt>
      <trkpt lat="46.8508" lon="6.53901">
        <ele>1580</ele>
        <time>2019-05-04T09:39:07Z</time>
      </trkpt>
      <trkpt lat="46.85084" lon="6.539">
        <ele>1581</ele>
        <time>2019-05-04T09:39:10Z</time>
      </trkpt>
      <trkpt lat="46.85089" lon="6.53899">
        <ele>1581</ele>
        <time>2019-05-04T09:39:14Z</time>
      </trkpt>
      <trkpt lat="46.85091" lon="6.53899">
        <ele>1582</ele>
        <time>2019-05-04T09:39:15Z</time>
      </trkpt>
      <trkpt lat="46.85093" lon="6.53897">
        <ele>1582</ele>
        <time>2019-05-04T09:39:17Z</time>
      </trkpt>
      <trkpt lat="46.85095" lon="6.53894">
        <ele>1582</ele>
        <time>2019-05-04T09:39:19Z</time>
      </trkpt>
      <trkpt lat="46.85098" lon="6.53892">
        <ele>1583</ele>
        <time>2019-05-04T09:39:22Z</time>
      </trkpt>
      <trkpt lat="46.85103" lon="6.53888">
        <ele>1584</ele>
        <time>2019-05-04T09:39:26Z</time>
      </trkpt>
      <trkpt lat="46.85108" lon="6.53882">
        <ele>1585</ele>
        <time>2019-05-04T09:39:31Z</time>
      </trkpt>
      <trkpt lat="46.85109" lon="6.5388">
        <ele>1585</ele>
        <time>2019-05-04T09:39:32Z</time>
      </trkpt>
      <trkpt lat="46.85112" lon="6.53879">
        <ele>1585</ele>
        <time>2019-05-04T09:39:34Z</time>
      </trkpt>
      <trkpt lat="46.85112" lon="6.53879">
        <ele>1585</ele>
        <time>2019-05-04T09:39:34Z</time>
      </trkpt>
      <trkpt lat="46.85113" lon="6.53879">
        <ele>1586</ele>
        <time>2019-05-04T09:39:35Z</time>
      </trkpt>
      <trkpt lat="46.85115" lon="6.53878">
        <ele>1585</ele>
        <time>2019-05-04T09:39:37Z</time>
      </trkpt>
      <trkpt lat="46.85118" lon="6.53876">
        <ele>1585</ele>
        <time>2019-05-04T09:39:39Z</time>
      </trkpt>
      <trkpt lat="46.85125" lon="6.53874">
        <ele>1584</ele>
        <time>2019-05-04T09:39:44Z</time>
      </trkpt>
      <trkpt lat="46.85139" lon="6.5387">
        <ele>1581</ele>
        <time>2019-05-04T09:39:54Z</time>
      </trkpt>
      <trkpt lat="46.85144" lon="6.53867">
        <ele>1580</ele>
        <time>2019-05-04T09:39:59Z</time>
      </trkpt>
      <trkpt lat="46.85149" lon="6.53865">
        <ele>1578</ele>
        <time>2019-05-04T09:40:03Z</time>
      </trkpt>
      <trkpt lat="46.85157" lon="6.53863">
        <ele>1576</ele>
        <time>2019-05-04T09:40:09Z</time>
      </trkpt>
      <trkpt lat="46.85164" lon="6.53858">
        <ele>1574</ele>
        <time>2019-05-04T09:40:14Z</time>
      </trkpt>
      <trkpt lat="46.85168" lon="6.53852">
        <ele>1571</ele>
        <time>2019-05-04T09:40:19Z</time>
      </trkpt>
      <trkpt lat="46.85171" lon="6.53845">
        <ele>1568</ele>
        <time>2019-05-04T09:40:23Z</time>
      </trkpt>
      <trkpt lat="46.85171" lon="6.53844">
        <ele>1568</ele>
        <time>2019-05-04T09:40:24Z</time>
      </trkpt>
      <trkpt lat="46.85171" lon="6.53844">
        <ele>1568</ele>
        <time>2019-05-04T09:40:24Z</time>
      </trkpt>
      <trkpt lat="46.85171" lon="6.5384">
        <ele>1566</ele>
        <time>2019-05-04T09:40:26Z</time>
      </trkpt>
      <trkpt lat="46.85171" lon="6.53838">
        <ele>1566</ele>
        <time>2019-05-04T09:40:27Z</time>
      </trkpt>
      <trkpt lat="46.8517" lon="6.53836">
        <ele>1565</ele>
        <time>2019-05-04T09:40:28Z</time>
      </trkpt>
      <trkpt lat="46.8517" lon="6.53833">
        <ele>1564</ele>
        <time>2019-05-04T09:40:30Z</time>
      </trkpt>
      <trkpt lat="46.85173" lon="6.5383">
        <ele>1562</ele>
        <time>2019-05-04T09:40:33Z</time>
      </trkpt>
      <trkpt lat="46.85173" lon="6.53829">
        <ele>1562</ele>
        <time>2019-05-04T09:40:33Z</time>
      </trkpt>
      <trkpt lat="46.85173" lon="6.53835">
        <ele>1564</ele>
        <time>2019-05-04T09:40:37Z</time>
      </trkpt>
      <trkpt lat="46.85171" lon="6.53837">
        <ele>1565</ele>
        <time>2019-05-04T09:40:39Z</time>
      </trkpt>
      <trkpt lat="46.85172" lon="6.53837">
        <ele>1565</ele>
        <time>2019-05-04T09:40:39Z</time>
      </trkpt>
      <trkpt lat="46.85167" lon="6.53838">
        <ele>1567</ele>
        <time>2019-05-04T09:40:43Z</time>
      </trkpt>
      <trkpt lat="46.85157" lon="6.53839">
        <ele>1570</ele>
        <time>2019-05-04T09:40:50Z</time>
      </trkpt>
      <trkpt lat="46.85154" lon="6.53837">
        <ele>1570</ele>
        <time>2019-05-04T09:40:53Z</time>
      </trkpt>
      <trkpt lat="46.85148" lon="6.53836">
        <ele>1571</ele>
        <time>2019-05-04T09:40:57Z</time>
      </trkpt>
      <trkpt lat="46.85145" lon="6.53834">
        <ele>1572</ele>
        <time>2019-05-04T09:40:59Z</time>
      </trkpt>
      <trkpt lat="46.85138" lon="6.5383">
        <ele>1573</ele>
        <time>2019-05-04T09:41:05Z</time>
      </trkpt>
      <trkpt lat="46.85136" lon="6.53829">
        <ele>1573</ele>
        <time>2019-05-04T09:41:06Z</time>
      </trkpt>
      <trkpt lat="46.85135" lon="6.53827">
        <ele>1573</ele>
        <time>2019-05-04T09:41:08Z</time>
      </trkpt>
      <trkpt lat="46.85144" lon="6.53829">
        <ele>1571</ele>
        <time>2019-05-04T09:41:14Z</time>
      </trkpt>
      <trkpt lat="46.8515" lon="6.53831">
        <ele>1570</ele>
        <time>2019-05-04T09:41:19Z</time>
      </trkpt>
      <trkpt lat="46.85167" lon="6.53837">
        <ele>1566</ele>
        <time>2019-05-04T09:41:32Z</time>
      </trkpt>
      <trkpt lat="46.85171" lon="6.53837">
        <ele>1565</ele>
        <time>2019-05-04T09:41:34Z</time>
      </trkpt>
      <trkpt lat="46.85172" lon="6.53845">
        <ele>1568</ele>
        <time>2019-05-04T09:41:39Z</time>
      </trkpt>
      <trkpt lat="46.85173" lon="6.53848">
        <ele>1569</ele>
        <time>2019-05-04T09:41:41Z</time>
      </trkpt>
      <trkpt lat="46.85167" lon="6.53859">
        <ele>1574</ele>
        <time>2019-05-04T09:41:49Z</time>
      </trkpt>
      <trkpt lat="46.85163" lon="6.53863">
        <ele>1575</ele>
        <time>2019-05-04T09:41:52Z</time>
      </trkpt>
      <trkpt lat="46.85159" lon="6.53868">
        <ele>1576</ele>
        <time>2019-05-04T09:41:56Z</time>
      </trkpt>
      <trkpt lat="46.85152" lon="6.53869">
        <ele>1578</ele>
        <time>2019-05-04T09:42:01Z</time>
      </trkpt>
      <trkpt lat="46.85144" lon="6.53872">
        <ele>1580</ele>
        <time>2019-05-04T09:42:07Z</time>
      </trkpt>
      <trkpt lat="46.85138" lon="6.53874">
        <ele>1581</ele>
        <time>2019-05-04T09:42:11Z</time>
      </trkpt>
      <trkpt lat="46.8512" lon="6.53878">
        <ele>1585</ele>
        <time>2019-05-04T09:42:25Z</time>
      </trkpt>
      <trkpt lat="46.85119" lon="6.5388">
        <ele>1585</ele>
        <time>2019-05-04T09:42:26Z</time>
      </trkpt>
      <trkpt lat="46.85113" lon="6.53884">
        <ele>1585</ele>
        <time>2019-05-04T09:42:31Z</time>
      </trkpt>
      <trkpt lat="46.85107" lon="6.53889">
        <ele>1584</ele>
        <time>2019-05-04T09:42:36Z</time>
      </trkpt>
      <trkpt lat="46.85101" lon="6.53897">
        <ele>1583</ele>
        <time>2019-05-04T09:42:42Z</time>
      </trkpt>
      <trkpt lat="46.85097" lon="6.53901">
        <ele>1582</ele>
        <time>2019-05-04T09:42:45Z</time>
      </trkpt>
      <trkpt lat="46.85095" lon="6.53903">
        <ele>1582</ele>
        <time>2019-05-04T09:42:47Z</time>
      </trkpt>
      <trkpt lat="46.85092" lon="6.53906">
        <ele>1581</ele>
        <time>2019-05-04T09:42:49Z</time>
      </trkpt>
      <trkpt lat="46.85088" lon="6.53907">
        <ele>1581</ele>
        <time>2019-05-04T09:42:52Z</time>
      </trkpt>
      <trkpt lat="46.85071" lon="6.5391">
        <ele>1578</ele>
        <time>2019-05-04T09:43:05Z</time>
      </trkpt>
      <trkpt lat="46.85067" lon="6.53913">
        <ele>1578</ele>
        <time>2019-05-04T09:43:09Z</time>
      </trkpt>
      <trkpt lat="46.85064" lon="6.53917">
        <ele>1577</ele>
        <time>2019-05-04T09:43:12Z</time>
      </trkpt>
      <trkpt lat="46.85064" lon="6.53926">
        <ele>1576</ele>
        <time>2019-05-04T09:43:16Z</time>
      </trkpt>
      <trkpt lat="46.85062" lon="6.53934">
        <ele>1575</ele>
        <time>2019-05-04T09:43:20Z</time>
      </trkpt>
      <trkpt lat="46.85057" lon="6.53937">
        <ele>1574</ele>
        <time>2019-05-04T09:43:24Z</time>
      </trkpt>
      <trkpt lat="46.85048" lon="6.53934">
        <ele>1573</ele>
        <time>2019-05-04T09:43:31Z</time>
      </trkpt>
      <trkpt lat="46.85029" lon="6.53926">
        <ele>1571</ele>
        <time>2019-05-04T09:43:45Z</time>
      </trkpt>
      <trkpt lat="46.85021" lon="6.53924">
        <ele>1570</ele>
        <time>2019-05-04T09:43:51Z</time>
      </trkpt>
      <trkpt lat="46.85014" lon="6.53923">
        <ele>1568</ele>
        <time>2019-05-04T09:43:57Z</time>
      </trkpt>
      <trkpt lat="46.85011" lon="6.53923">
        <ele>1567</ele>
        <time>2019-05-04T09:43:58Z</time>
      </trkpt>
      <trkpt lat="46.85009" lon="6.53922">
        <ele>1567</ele>
        <time>2019-05-04T09:44:00Z</time>
      </trkpt>
      <trkpt lat="46.85005" lon="6.5392">
        <ele>1566</ele>
        <time>2019-05-04T09:44:04Z</time>
      </trkpt>
      <trkpt lat="46.85003" lon="6.5392">
        <ele>1566</ele>
        <time>2019-05-04T09:44:05Z</time>
      </trkpt>
      <trkpt lat="46.84998" lon="6.53918">
        <ele>1564</ele>
        <time>2019-05-04T09:44:09Z</time>
      </trkpt>
      <trkpt lat="46.84991" lon="6.53916">
        <ele>1563</ele>
        <time>2019-05-04T09:44:14Z</time>
      </trkpt>
      <trkpt lat="46.84977" lon="6.53912">
        <ele>1560</ele>
        <time>2019-05-04T09:44:24Z</time>
      </trkpt>
      <trkpt lat="46.84973" lon="6.53912">
        <ele>1559</ele>
        <time>2019-05-04T09:44:27Z</time>
      </trkpt>
      <trkpt lat="46.84969" lon="6.53915">
        <ele>1557</ele>
        <time>2019-05-04T09:44:31Z</time>
      </trkpt>
      <trkpt lat="46.84966" lon="6.5392">
        <ele>1556</ele>
        <time>2019-05-04T09:44:34Z</time>
      </trkpt>
      <trkpt lat="46.84967" lon="6.53925">
        <ele>1556</ele>
        <time>2019-05-04T09:44:37Z</time>
      </trkpt>
      <trkpt lat="46.84967" lon="6.53925">
        <ele>1556</ele>
        <time>2019-05-04T09:44:37Z</time>
      </trkpt>
      <trkpt lat="46.84966" lon="6.53922">
        <ele>1556</ele>
        <time>2019-05-04T09:44:39Z</time>
      </trkpt>
      <trkpt lat="46.84949" lon="6.53926">
        <ele>1551</ele>
        <time>2019-05-04T09:44:52Z</time>
      </trkpt>
      <trkpt lat="46.84941" lon="6.53928">
        <ele>1549</ele>
        <time>2019-05-04T09:44:57Z</time>
      </trkpt>
      <trkpt lat="46.84933" lon="6.5393">
        <ele>1547</ele>
        <time>2019-05-04T09:45:03Z</time>
      </trkpt>
      <trkpt lat="46.84929" lon="6.53932">
        <ele>1546</ele>
        <time>2019-05-04T09:45:07Z</time>
      </trkpt>
      <trkpt lat="46.84928" lon="6.53932">
        <ele>1545</ele>
        <time>2019-05-04T09:45:08Z</time>
      </trkpt>
      <trkpt lat="46.84926" lon="6.53931">
        <ele>1545</ele>
        <time>2019-05-04T09:45:09Z</time>
      </trkpt>
      <trkpt lat="46.8492" lon="6.53933">
        <ele>1543</ele>
        <time>2019-05-04T09:45:13Z</time>
      </trkpt>
      <trkpt lat="46.84917" lon="6.53935">
        <ele>1543</ele>
        <time>2019-05-04T09:45:16Z</time>
      </trkpt>
      <trkpt lat="46.84914" lon="6.53935">
        <ele>1542</ele>
        <time>2019-05-04T09:45:18Z</time>
      </trkpt>
      <trkpt lat="46.84909" lon="6.53936">
        <ele>1540</ele>
        <time>2019-05-04T09:45:22Z</time>
      </trkpt>
      <trkpt lat="46.84907" lon="6.53937">
        <ele>1540</ele>
        <time>2019-05-04T09:45:24Z</time>
      </trkpt>
      <trkpt lat="46.84901" lon="6.53938">
        <ele>1538</ele>
        <time>2019-05-04T09:45:28Z</time>
      </trkpt>
      <trkpt lat="46.84895" lon="6.53939">
        <ele>1537</ele>
        <time>2019-05-04T09:45:33Z</time>
      </trkpt>
      <trkpt lat="46.84892" lon="6.53941">
        <ele>1536</ele>
        <time>2019-05-04T09:45:35Z</time>
      </trkpt>
      <trkpt lat="46.84889" lon="6.53941">
        <ele>1535</ele>
        <time>2019-05-04T09:45:37Z</time>
      </trkpt>
      <trkpt lat="46.84883" lon="6.53945">
        <ele>1534</ele>
        <time>2019-05-04T09:45:42Z</time>
      </trkpt>
      <trkpt lat="46.84875" lon="6.5395">
        <ele>1532</ele>
        <time>2019-05-04T09:45:48Z</time>
      </trkpt>
      <trkpt lat="46.8487" lon="6.53952">
        <ele>1530</ele>
        <time>2019-05-04T09:45:52Z</time>
      </trkpt>
      <trkpt lat="46.84865" lon="6.53954">
        <ele>1529</ele>
        <time>2019-05-04T09:45:56Z</time>
      </trkpt>
      <trkpt lat="46.84857" lon="6.53957">
        <ele>1528</ele>
        <time>2019-05-04T09:46:02Z</time>
      </trkpt>
      <trkpt lat="46.84836" lon="6.53962">
        <ele>1524</ele>
        <time>2019-05-04T09:46:17Z</time>
      </trkpt>
      <trkpt lat="46.84833" lon="6.53963">
        <ele>1524</ele>
        <time>2019-05-04T09:46:20Z</time>
      </trkpt>
      <trkpt lat="46.84827" lon="6.53965">
        <ele>1522</ele>
        <time>2019-05-04T09:46:25Z</time>
      </trkpt>
      <trkpt lat="46.8482" lon="6.53968">
        <ele>1521</ele>
        <time>2019-05-04T09:46:30Z</time>
      </trkpt>
      <trkpt lat="46.84817" lon="6.53969">
        <ele>1521</ele>
        <time>2019-05-04T09:46:32Z</time>
      </trkpt>
      <trkpt lat="46.84815" lon="6.53969">
        <ele>1520</ele>
        <time>2019-05-04T09:46:34Z</time>
      </trkpt>
      <trkpt lat="46.84811" lon="6.53971">
        <ele>1519</ele>
        <time>2019-05-04T09:46:37Z</time>
      </trkpt>
      <trkpt lat="46.84806" lon="6.53972">
        <ele>1519</ele>
        <time>2019-05-04T09:46:41Z</time>
      </trkpt>
      <trkpt lat="46.84801" lon="6.53974">
        <ele>1518</ele>
        <time>2019-05-04T09:46:44Z</time>
      </trkpt>
      <trkpt lat="46.84794" lon="6.53976">
        <ele>1517</ele>
        <time>2019-05-04T09:46:49Z</time>
      </trkpt>
      <trkpt lat="46.84787" lon="6.53977">
        <ele>1515</ele>
        <time>2019-05-04T09:46:55Z</time>
      </trkpt>
      <trkpt lat="46.84781" lon="6.53979">
        <ele>1514</ele>
        <time>2019-05-04T09:46:59Z</time>
      </trkpt>
      <trkpt lat="46.84778" lon="6.53981">
        <ele>1513</ele>
        <time>2019-05-04T09:47:02Z</time>
      </trkpt>
      <trkpt lat="46.84772" lon="6.53983">
        <ele>1512</ele>
        <time>2019-05-04T09:47:06Z</time>
      </trkpt>
      <trkpt lat="46.84762" lon="6.53985">
        <ele>1510</ele>
        <time>2019-05-04T09:47:13Z</time>
      </trkpt>
      <trkpt lat="46.84755" lon="6.53987">
        <ele>1509</ele>
        <time>2019-05-04T09:47:19Z</time>
      </trkpt>
      <trkpt lat="46.84752" lon="6.53988">
        <ele>1508</ele>
        <time>2019-05-04T09:47:21Z</time>
      </trkpt>
      <trkpt lat="46.84745" lon="6.5399">
        <ele>1507</ele>
        <time>2019-05-04T09:47:26Z</time>
      </trkpt>
      <trkpt lat="46.84733" lon="6.53993">
        <ele>1504</ele>
        <time>2019-05-04T09:47:35Z</time>
      </trkpt>
      <trkpt lat="46.84729" lon="6.53994">
        <ele>1503</ele>
        <time>2019-05-04T09:47:38Z</time>
      </trkpt>
      <trkpt lat="46.84726" lon="6.53995">
        <ele>1502</ele>
        <time>2019-05-04T09:47:41Z</time>
      </trkpt>
      <trkpt lat="46.84722" lon="6.53995">
        <ele>1501</ele>
        <time>2019-05-04T09:47:44Z</time>
      </trkpt>
      <trkpt lat="46.84714" lon="6.53997">
        <ele>1500</ele>
        <time>2019-05-04T09:47:49Z</time>
      </trkpt>
      <trkpt lat="46.84708" lon="6.54">
        <ele>1498</ele>
        <time>2019-05-04T09:47:54Z</time>
      </trkpt>
      <trkpt lat="46.84701" lon="6.54002">
        <ele>1496</ele>
        <time>2019-05-04T09:47:59Z</time>
      </trkpt>
      <trkpt lat="46.84695" lon="6.54004">
        <ele>1495</ele>
        <time>2019-05-04T09:48:04Z</time>
      </trkpt>
      <trkpt lat="46.84689" lon="6.5401">
        <ele>1494</ele>
        <time>2019-05-04T09:48:09Z</time>
      </trkpt>
      <trkpt lat="46.84686" lon="6.54012">
        <ele>1493</ele>
        <time>2019-05-04T09:48:12Z</time>
      </trkpt>
      <trkpt lat="46.84682" lon="6.54013">
        <ele>1492</ele>
        <time>2019-05-04T09:48:15Z</time>
      </trkpt>
      <trkpt lat="46.84679" lon="6.54014">
        <ele>1492</ele>
        <time>2019-05-04T09:48:17Z</time>
      </trkpt>
      <trkpt lat="46.84669" lon="6.54016">
        <ele>1490</ele>
        <time>2019-05-04T09:48:24Z</time>
      </trkpt>
      <trkpt lat="46.8465" lon="6.5402">
        <ele>1487</ele>
        <time>2019-05-04T09:48:38Z</time>
      </trkpt>
      <trkpt lat="46.84644" lon="6.5402">
        <ele>1486</ele>
        <time>2019-05-04T09:48:42Z</time>
      </trkpt>
      <trkpt lat="46.84638" lon="6.54021">
        <ele>1485</ele>
        <time>2019-05-04T09:48:47Z</time>
      </trkpt>
      <trkpt lat="46.84632" lon="6.54023">
        <ele>1484</ele>
        <time>2019-05-04T09:48:52Z</time>
      </trkpt>
      <trkpt lat="46.84625" lon="6.54023">
        <ele>1483</ele>
        <time>2019-05-04T09:48:57Z</time>
      </trkpt>
      <trkpt lat="46.84618" lon="6.54024">
        <ele>1482</ele>
        <time>2019-05-04T09:49:01Z</time>
      </trkpt>
      <trkpt lat="46.84612" lon="6.54027">
        <ele>1481</ele>
        <time>2019-05-04T09:49:06Z</time>
      </trkpt>
      <trkpt lat="46.84608" lon="6.54027">
        <ele>1480</ele>
        <time>2019-05-04T09:49:09Z</time>
      </trkpt>
      <trkpt lat="46.84604" lon="6.54026">
        <ele>1479</ele>
        <time>2019-05-04T09:49:12Z</time>
      </trkpt>
      <trkpt lat="46.84601" lon="6.54025">
        <ele>1479</ele>
        <time>2019-05-04T09:49:14Z</time>
      </trkpt>
      <trkpt lat="46.84599" lon="6.54026">
        <ele>1479</ele>
        <time>2019-05-04T09:49:16Z</time>
      </trkpt>
      <trkpt lat="46.84596" lon="6.54027">
        <ele>1478</ele>
        <time>2019-05-04T09:49:18Z</time>
      </trkpt>
      <trkpt lat="46.84591" lon="6.54031">
        <ele>1477</ele>
        <time>2019-05-04T09:49:22Z</time>
      </trkpt>
      <trkpt lat="46.84585" lon="6.5404">
        <ele>1475</ele>
        <time>2019-05-04T09:49:29Z</time>
      </trkpt>
      <trkpt lat="46.84581" lon="6.54045">
        <ele>1474</ele>
        <time>2019-05-04T09:49:33Z</time>
      </trkpt>
      <trkpt lat="46.84576" lon="6.54049">
        <ele>1473</ele>
        <time>2019-05-04T09:49:37Z</time>
      </trkpt>
      <trkpt lat="46.8457" lon="6.54051">
        <ele>1472</ele>
        <time>2019-05-04T09:49:41Z</time>
      </trkpt>
      <trkpt lat="46.84565" lon="6.54053">
        <ele>1471</ele>
        <time>2019-05-04T09:49:45Z</time>
      </trkpt>
      <trkpt lat="46.84559" lon="6.54054">
        <ele>1471</ele>
        <time>2019-05-04T09:49:49Z</time>
      </trkpt>
      <trkpt lat="46.84548" lon="6.54058">
        <ele>1469</ele>
        <time>2019-05-04T09:49:58Z</time>
      </trkpt>
      <trkpt lat="46.84531" lon="6.54064">
        <ele>1466</ele>
        <time>2019-05-04T09:50:11Z</time>
      </trkpt>
      <trkpt lat="46.84524" lon="6.54065">
        <ele>1465</ele>
        <time>2019-05-04T09:50:15Z</time>
      </trkpt>
      <trkpt lat="46.84518" lon="6.54065">
        <ele>1465</ele>
        <time>2019-05-04T09:50:20Z</time>
      </trkpt>
      <trkpt lat="46.8451" lon="6.54066">
        <ele>1464</ele>
        <time>2019-05-04T09:50:26Z</time>
      </trkpt>
      <trkpt lat="46.84491" lon="6.54072">
        <ele>1461</ele>
        <time>2019-05-04T09:50:40Z</time>
      </trkpt>
      <trkpt lat="46.84488" lon="6.54073">
        <ele>1461</ele>
        <time>2019-05-04T09:50:42Z</time>
      </trkpt>
      <trkpt lat="46.84474" lon="6.54079">
        <ele>1459</ele>
        <time>2019-05-04T09:50:53Z</time>
      </trkpt>
      <trkpt lat="46.84461" lon="6.54081">
        <ele>1457</ele>
        <time>2019-05-04T09:51:02Z</time>
      </trkpt>
      <trkpt lat="46.84454" lon="6.54075">
        <ele>1457</ele>
        <time>2019-05-04T09:51:08Z</time>
      </trkpt>
      <trkpt lat="46.84446" lon="6.54071">
        <ele>1456</ele>
        <time>2019-05-04T09:51:14Z</time>
      </trkpt>
      <trkpt lat="46.8443" lon="6.54076">
        <ele>1454</ele>
        <time>2019-05-04T09:51:27Z</time>
      </trkpt>
      <trkpt lat="46.84424" lon="6.54078">
        <ele>1453</ele>
        <time>2019-05-04T09:51:31Z</time>
      </trkpt>
      <trkpt lat="46.84419" lon="6.54082">
        <ele>1452</ele>
        <time>2019-05-04T09:51:35Z</time>
      </trkpt>
      <trkpt lat="46.84416" lon="6.54088">
        <ele>1451</ele>
        <time>2019-05-04T09:51:39Z</time>
      </trkpt>
      <trkpt lat="46.84413" lon="6.54092">
        <ele>1450</ele>
        <time>2019-05-04T09:51:42Z</time>
      </trkpt>
      <trkpt lat="46.8441" lon="6.54096">
        <ele>1449</ele>
        <time>2019-05-04T09:51:45Z</time>
      </trkpt>
      <trkpt lat="46.84404" lon="6.54099">
        <ele>1449</ele>
        <time>2019-05-04T09:51:49Z</time>
      </trkpt>
      <trkpt lat="46.84393" lon="6.54106">
        <ele>1447</ele>
        <time>2019-05-04T09:51:58Z</time>
      </trkpt>
      <trkpt lat="46.84386" lon="6.5411">
        <ele>1446</ele>
        <time>2019-05-04T09:52:04Z</time>
      </trkpt>
      <trkpt lat="46.84381" lon="6.54109">
        <ele>1445</ele>
        <time>2019-05-04T09:52:07Z</time>
      </trkpt>
      <trkpt lat="46.84381" lon="6.5411">
        <ele>1445</ele>
        <time>2019-05-04T09:52:07Z</time>
      </trkpt>
      <trkpt lat="46.84376" lon="6.54111">
        <ele>1444</ele>
        <time>2019-05-04T09:52:11Z</time>
      </trkpt>
      <trkpt lat="46.84375" lon="6.54111">
        <ele>1444</ele>
        <time>2019-05-04T09:52:12Z</time>
      </trkpt>
      <trkpt lat="46.84368" lon="6.54105">
        <ele>1444</ele>
        <time>2019-05-04T09:52:18Z</time>
      </trkpt>
      <trkpt lat="46.84362" lon="6.54103">
        <ele>1443</ele>
        <time>2019-05-04T09:52:22Z</time>
      </trkpt>
      <trkpt lat="46.84354" lon="6.54101">
        <ele>1442</ele>
        <time>2019-05-04T09:52:28Z</time>
      </trkpt>
      <trkpt lat="46.84347" lon="6.54099">
        <ele>1441</ele>
        <time>2019-05-04T09:52:33Z</time>
      </trkpt>
      <trkpt lat="46.84336" lon="6.54094">
        <ele>1440</ele>
        <time>2019-05-04T09:52:41Z</time>
      </trkpt>
      <trkpt lat="46.84319" lon="6.54082">
        <ele>1438</ele>
        <time>2019-05-04T09:52:55Z</time>
      </trkpt>
      <trkpt lat="46.84317" lon="6.5408">
        <ele>1438</ele>
        <time>2019-05-04T09:52:57Z</time>
      </trkpt>
      <trkpt lat="46.84305" lon="6.5407">
        <ele>1437</ele>
        <time>2019-05-04T09:53:07Z</time>
      </trkpt>
      <trkpt lat="46.843" lon="6.54066">
        <ele>1436</ele>
        <time>2019-05-04T09:53:11Z</time>
      </trkpt>
      <trkpt lat="46.843" lon="6.54065">
        <ele>1436</ele>
        <time>2019-05-04T09:53:12Z</time>
      </trkpt>
      <trkpt lat="46.84297" lon="6.54044">
        <ele>1436</ele>
        <time>2019-05-04T09:53:22Z</time>
      </trkpt>
      <trkpt lat="46.84298" lon="6.54037">
        <ele>1437</ele>
        <time>2019-05-04T09:53:26Z</time>
      </trkpt>
      <trkpt lat="46.843" lon="6.54025">
        <ele>1438</ele>
        <time>2019-05-04T09:53:32Z</time>
      </trkpt>
      <trkpt lat="46.843" lon="6.54025">
        <ele>1438</ele>
        <time>2019-05-04T09:53:32Z</time>
      </trkpt>
      <trkpt lat="46.843" lon="6.54033">
        <ele>1437</ele>
        <time>2019-05-04T09:53:36Z</time>
      </trkpt>
      <trkpt lat="46.84297" lon="6.54043">
        <ele>1436</ele>
        <time>2019-05-04T09:53:42Z</time>
      </trkpt>
      <trkpt lat="46.84293" lon="6.54052">
        <ele>1435</ele>
        <time>2019-05-04T09:53:47Z</time>
      </trkpt>
      <trkpt lat="46.84289" lon="6.54065">
        <ele>1434</ele>
        <time>2019-05-04T09:53:54Z</time>
      </trkpt>
      <trkpt lat="46.84285" lon="6.54077">
        <ele>1433</ele>
        <time>2019-05-04T09:54:01Z</time>
      </trkpt>
      <trkpt lat="46.84282" lon="6.54076">
        <ele>1433</ele>
        <time>2019-05-04T09:54:03Z</time>
      </trkpt>
      <trkpt lat="46.84275" lon="6.54072">
        <ele>1432</ele>
        <time>2019-05-04T09:54:08Z</time>
      </trkpt>
      <trkpt lat="46.84266" lon="6.54073">
        <ele>1430</ele>
        <time>2019-05-04T09:54:15Z</time>
      </trkpt>
      <trkpt lat="46.84262" lon="6.54071">
        <ele>1430</ele>
        <time>2019-05-04T09:54:18Z</time>
      </trkpt>
      <trkpt lat="46.8425" lon="6.54069">
        <ele>1428</ele>
        <time>2019-05-04T09:54:27Z</time>
      </trkpt>
      <trkpt lat="46.84247" lon="6.54066">
        <ele>1427</ele>
        <time>2019-05-04T09:54:29Z</time>
      </trkpt>
      <trkpt lat="46.84247" lon="6.54066">
        <ele>1427</ele>
        <time>2019-05-04T09:54:29Z</time>
      </trkpt>
      <trkpt lat="46.84247" lon="6.54065">
        <ele>1427</ele>
        <time>2019-05-04T09:54:30Z</time>
      </trkpt>
      <trkpt lat="46.84241" lon="6.54077">
        <ele>1426</ele>
        <time>2019-05-04T09:54:37Z</time>
      </trkpt>
      <trkpt lat="46.84246" lon="6.54076">
        <ele>1427</ele>
        <time>2019-05-04T09:54:41Z</time>
      </trkpt>
      <trkpt lat="46.84249" lon="6.54073">
        <ele>1427</ele>
        <time>2019-05-04T09:54:43Z</time>
      </trkpt>
      <trkpt lat="46.8425" lon="6.54072">
        <ele>1428</ele>
        <time>2019-05-04T09:54:45Z</time>
      </trkpt>
      <trkpt lat="46.8425" lon="6.5407">
        <ele>1428</ele>
        <time>2019-05-04T09:54:46Z</time>
      </trkpt>
      <trkpt lat="46.84252" lon="6.54065">
        <ele>1428</ele>
        <time>2019-05-04T09:54:48Z</time>
      </trkpt>
      <trkpt lat="46.84252" lon="6.54061">
        <ele>1428</ele>
        <time>2019-05-04T09:54:50Z</time>
      </trkpt>
      <trkpt lat="46.8425" lon="6.54056">
        <ele>1428</ele>
        <time>2019-05-04T09:54:53Z</time>
      </trkpt>
      <trkpt lat="46.84251" lon="6.54051">
        <ele>1429</ele>
        <time>2019-05-04T09:54:56Z</time>
      </trkpt>
      <trkpt lat="46.84253" lon="6.54048">
        <ele>1429</ele>
        <time>2019-05-04T09:54:58Z</time>
      </trkpt>
      <trkpt lat="46.84254" lon="6.54044">
        <ele>1429</ele>
        <time>2019-05-04T09:55:00Z</time>
      </trkpt>
      <trkpt lat="46.84254" lon="6.54043">
        <ele>1429</ele>
        <time>2019-05-04T09:55:01Z</time>
      </trkpt>
      <trkpt lat="46.84253" lon="6.5404">
        <ele>1429</ele>
        <time>2019-05-04T09:55:02Z</time>
      </trkpt>
      <trkpt lat="46.84254" lon="6.54037">
        <ele>1430</ele>
        <time>2019-05-04T09:55:04Z</time>
      </trkpt>
      <trkpt lat="46.84255" lon="6.54033">
        <ele>1430</ele>
        <time>2019-05-04T09:55:06Z</time>
      </trkpt>
      <trkpt lat="46.84256" lon="6.54027">
        <ele>1430</ele>
        <time>2019-05-04T09:55:09Z</time>
      </trkpt>
      <trkpt lat="46.84256" lon="6.54017">
        <ele>1431</ele>
        <time>2019-05-04T09:55:14Z</time>
      </trkpt>
      <trkpt lat="46.84255" lon="6.54012">
        <ele>1431</ele>
        <time>2019-05-04T09:55:17Z</time>
      </trkpt>
      <trkpt lat="46.84255" lon="6.5401">
        <ele>1431</ele>
        <time>2019-05-04T09:55:18Z</time>
      </trkpt>
      <trkpt lat="46.84254" lon="6.54004">
        <ele>1432</ele>
        <time>2019-05-04T09:55:21Z</time>
      </trkpt>
      <trkpt lat="46.84254" lon="6.54">
        <ele>1432</ele>
        <time>2019-05-04T09:55:23Z</time>
      </trkpt>
      <trkpt lat="46.84254" lon="6.53996">
        <ele>1432</ele>
        <time>2019-05-04T09:55:25Z</time>
      </trkpt>
      <trkpt lat="46.84255" lon="6.53995">
        <ele>1432</ele>
        <time>2019-05-04T09:55:26Z</time>
      </trkpt>
      <trkpt lat="46.84256" lon="6.53992">
        <ele>1433</ele>
        <time>2019-05-04T09:55:28Z</time>
      </trkpt>
      <trkpt lat="46.84257" lon="6.53984">
        <ele>1433</ele>
        <time>2019-05-04T09:55:31Z</time>
      </trkpt>
      <trkpt lat="46.84258" lon="6.53978">
        <ele>1434</ele>
        <time>2019-05-04T09:55:34Z</time>
      </trkpt>
      <trkpt lat="46.84258" lon="6.53975">
        <ele>1434</ele>
        <time>2019-05-04T09:55:36Z</time>
      </trkpt>
      <trkpt lat="46.8426" lon="6.53971">
        <ele>1435</ele>
        <time>2019-05-04T09:55:38Z</time>
      </trkpt>
      <trkpt lat="46.84263" lon="6.53966">
        <ele>1436</ele>
        <time>2019-05-04T09:55:42Z</time>
      </trkpt>
      <trkpt lat="46.84266" lon="6.53959">
        <ele>1437</ele>
        <time>2019-05-04T09:55:46Z</time>
      </trkpt>
      <trkpt lat="46.84268" lon="6.53953">
        <ele>1437</ele>
        <time>2019-05-04T09:55:49Z</time>
      </trkpt>
      <trkpt lat="46.84269" lon="6.53946">
        <ele>1438</ele>
        <time>2019-05-04T09:55:53Z</time>
      </trkpt>
      <trkpt lat="46.84269" lon="6.53942">
        <ele>1438</ele>
        <time>2019-05-04T09:55:55Z</time>
      </trkpt>
      <trkpt lat="46.84274" lon="6.53932">
        <ele>1440</ele>
        <time>2019-05-04T09:56:01Z</time>
      </trkpt>
      <trkpt lat="46.84276" lon="6.53927">
        <ele>1441</ele>
        <time>2019-05-04T09:56:04Z</time>
      </trkpt>
      <trkpt lat="46.84276" lon="6.53919">
        <ele>1442</ele>
        <time>2019-05-04T09:56:08Z</time>
      </trkpt>
      <trkpt lat="46.84276" lon="6.53913">
        <ele>1442</ele>
        <time>2019-05-04T09:56:11Z</time>
      </trkpt>
      <trkpt lat="46.84275" lon="6.53908">
        <ele>1443</ele>
        <time>2019-05-04T09:56:14Z</time>
      </trkpt>
      <trkpt lat="46.84275" lon="6.53903">
        <ele>1443</ele>
        <time>2019-05-04T09:56:16Z</time>
      </trkpt>
      <trkpt lat="46.84275" lon="6.53896">
        <ele>1444</ele>
        <time>2019-05-04T09:56:19Z</time>
      </trkpt>
      <trkpt lat="46.84273" lon="6.53881">
        <ele>1445</ele>
        <time>2019-05-04T09:56:27Z</time>
      </trkpt>
      <trkpt lat="46.84267" lon="6.53857">
        <ele>1446</ele>
        <time>2019-05-04T09:56:40Z</time>
      </trkpt>
      <trkpt lat="46.84261" lon="6.53832">
        <ele>1448</ele>
        <time>2019-05-04T09:56:53Z</time>
      </trkpt>
      <trkpt lat="46.84259" lon="6.53806">
        <ele>1450</ele>
        <time>2019-05-04T09:57:06Z</time>
      </trkpt>
      <trkpt lat="46.84253" lon="6.53783">
        <ele>1451</ele>
        <time>2019-05-04T09:57:18Z</time>
      </trkpt>
      <trkpt lat="46.84247" lon="6.53774">
        <ele>1451</ele>
        <time>2019-05-04T09:57:24Z</time>
      </trkpt>
      <trkpt lat="46.84236" lon="6.53772">
        <ele>1449</ele>
        <time>2019-05-04T09:57:32Z</time>
      </trkpt>
      <trkpt lat="46.8422" lon="6.53762">
        <ele>1447</ele>
        <time>2019-05-04T09:57:45Z</time>
      </trkpt>
      <trkpt lat="46.84218" lon="6.5376">
        <ele>1447</ele>
        <time>2019-05-04T09:57:47Z</time>
      </trkpt>
      <trkpt lat="46.8421" lon="6.53734">
        <ele>1447</ele>
        <time>2019-05-04T09:58:01Z</time>
      </trkpt>
      <trkpt lat="46.84208" lon="6.53728">
        <ele>1447</ele>
        <time>2019-05-04T09:58:04Z</time>
      </trkpt>
      <trkpt lat="46.84199" lon="6.53702">
        <ele>1447</ele>
        <time>2019-05-04T09:58:19Z</time>
      </trkpt>
      <trkpt lat="46.84195" lon="6.53674">
        <ele>1447</ele>
        <time>2019-05-04T09:58:33Z</time>
      </trkpt>
      <trkpt lat="46.84191" lon="6.53646">
        <ele>1448</ele>
        <time>2019-05-04T09:58:47Z</time>
      </trkpt>
      <trkpt lat="46.84187" lon="6.53619">
        <ele>1448</ele>
        <time>2019-05-04T09:59:01Z</time>
      </trkpt>
      <trkpt lat="46.84187" lon="6.53613">
        <ele>1449</ele>
        <time>2019-05-04T09:59:04Z</time>
      </trkpt>
      <trkpt lat="46.84185" lon="6.53609">
        <ele>1449</ele>
        <time>2019-05-04T09:59:06Z</time>
      </trkpt>
      <trkpt lat="46.84184" lon="6.53608">
        <ele>1448</ele>
        <time>2019-05-04T09:59:07Z</time>
      </trkpt>
      <trkpt lat="46.84181" lon="6.53605">
        <ele>1448</ele>
        <time>2019-05-04T09:59:10Z</time>
      </trkpt>
      <trkpt lat="46.84176" lon="6.53593">
        <ele>1448</ele>
        <time>2019-05-04T09:59:17Z</time>
      </trkpt>
      <trkpt lat="46.84168" lon="6.5357">
        <ele>1448</ele>
        <time>2019-05-04T09:59:30Z</time>
      </trkpt>
      <trkpt lat="46.84164" lon="6.53541">
        <ele>1449</ele>
        <time>2019-05-04T09:59:44Z</time>
      </trkpt>
      <trkpt lat="46.84164" lon="6.53538">
        <ele>1449</ele>
        <time>2019-05-04T09:59:46Z</time>
      </trkpt>
      <trkpt lat="46.84157" lon="6.53515">
        <ele>1449</ele>
        <time>2019-05-04T09:59:58Z</time>
      </trkpt>
      <trkpt lat="46.84152" lon="6.53495">
        <ele>1450</ele>
        <time>2019-05-04T10:00:09Z</time>
      </trkpt>
      <trkpt lat="46.8415" lon="6.53484">
        <ele>1450</ele>
        <time>2019-05-04T10:00:15Z</time>
      </trkpt>
      <trkpt lat="46.84143" lon="6.53457">
        <ele>1451</ele>
        <time>2019-05-04T10:00:29Z</time>
      </trkpt>
      <trkpt lat="46.84132" lon="6.53433">
        <ele>1451</ele>
        <time>2019-05-04T10:00:43Z</time>
      </trkpt>
      <trkpt lat="46.84123" lon="6.53408">
        <ele>1451</ele>
        <time>2019-05-04T10:00:57Z</time>
      </trkpt>
      <trkpt lat="46.84113" lon="6.53386">
        <ele>1450</ele>
        <time>2019-05-04T10:01:10Z</time>
      </trkpt>
      <trkpt lat="46.84102" lon="6.53361">
        <ele>1451</ele>
        <time>2019-05-04T10:01:25Z</time>
      </trkpt>
      <trkpt lat="46.84092" lon="6.53339">
        <ele>1452</ele>
        <time>2019-05-04T10:01:38Z</time>
      </trkpt>
      <trkpt lat="46.84081" lon="6.53316">
        <ele>1452</ele>
        <time>2019-05-04T10:01:52Z</time>
      </trkpt>
      <trkpt lat="46.8407" lon="6.53293">
        <ele>1453</ele>
        <time>2019-05-04T10:02:05Z</time>
      </trkpt>
      <trkpt lat="46.84055" lon="6.53274">
        <ele>1452</ele>
        <time>2019-05-04T10:02:20Z</time>
      </trkpt>
      <trkpt lat="46.84045" lon="6.53251">
        <ele>1453</ele>
        <time>2019-05-04T10:02:34Z</time>
      </trkpt>
      <trkpt lat="46.84042" lon="6.53241">
        <ele>1453</ele>
        <time>2019-05-04T10:02:39Z</time>
      </trkpt>
      <trkpt lat="46.84034" lon="6.53214">
        <ele>1454</ele>
        <time>2019-05-04T10:02:53Z</time>
      </trkpt>
      <trkpt lat="46.84025" lon="6.53191">
        <ele>1454</ele>
        <time>2019-05-04T10:03:07Z</time>
      </trkpt>
      <trkpt lat="46.84017" lon="6.53175">
        <ele>1455</ele>
        <time>2019-05-04T10:03:16Z</time>
      </trkpt>
      <trkpt lat="46.8401" lon="6.53159">
        <ele>1456</ele>
        <time>2019-05-04T10:03:26Z</time>
      </trkpt>
      <trkpt lat="46.83999" lon="6.53134">
        <ele>1457</ele>
        <time>2019-05-04T10:03:40Z</time>
      </trkpt>
      <trkpt lat="46.83994" lon="6.53127">
        <ele>1457</ele>
        <time>2019-05-04T10:03:46Z</time>
      </trkpt>
      <trkpt lat="46.83981" lon="6.53106">
        <ele>1456</ele>
        <time>2019-05-04T10:04:00Z</time>
      </trkpt>
      <trkpt lat="46.83976" lon="6.5309">
        <ele>1457</ele>
        <time>2019-05-04T10:04:08Z</time>
      </trkpt>
      <trkpt lat="46.8397" lon="6.53074">
        <ele>1457</ele>
        <time>2019-05-04T10:04:18Z</time>
      </trkpt>
      <trkpt lat="46.83959" lon="6.53053">
        <ele>1457</ele>
        <time>2019-05-04T10:04:31Z</time>
      </trkpt>
      <trkpt lat="46.83948" lon="6.53029">
        <ele>1458</ele>
        <time>2019-05-04T10:04:45Z</time>
      </trkpt>
      <trkpt lat="46.83939" lon="6.53016">
        <ele>1457</ele>
        <time>2019-05-04T10:04:54Z</time>
      </trkpt>
      <trkpt lat="46.83931" lon="6.53009">
        <ele>1457</ele>
        <time>2019-05-04T10:05:01Z</time>
      </trkpt>
      <trkpt lat="46.83925" lon="6.52999">
        <ele>1457</ele>
        <time>2019-05-04T10:05:08Z</time>
      </trkpt>
      <trkpt lat="46.83911" lon="6.52979">
        <ele>1456</ele>
        <time>2019-05-04T10:05:22Z</time>
      </trkpt>
      <trkpt lat="46.83906" lon="6.52969">
        <ele>1456</ele>
        <time>2019-05-04T10:05:28Z</time>
      </trkpt>
      <trkpt lat="46.83892" lon="6.5295">
        <ele>1455</ele>
        <time>2019-05-04T10:05:41Z</time>
      </trkpt>
      <trkpt lat="46.83878" lon="6.52932">
        <ele>1455</ele>
        <time>2019-05-04T10:05:55Z</time>
      </trkpt>
      <trkpt lat="46.83863" lon="6.52914">
        <ele>1454</ele>
        <time>2019-05-04T10:06:09Z</time>
      </trkpt>
      <trkpt lat="46.83852" lon="6.52897">
        <ele>1455</ele>
        <time>2019-05-04T10:06:21Z</time>
      </trkpt>
      <trkpt lat="46.83844" lon="6.52888">
        <ele>1456</ele>
        <time>2019-05-04T10:06:28Z</time>
      </trkpt>
      <trkpt lat="46.83828" lon="6.52869">
        <ele>1456</ele>
        <time>2019-05-04T10:06:43Z</time>
      </trkpt>
      <trkpt lat="46.83824" lon="6.52865">
        <ele>1456</ele>
        <time>2019-05-04T10:06:46Z</time>
      </trkpt>
      <trkpt lat="46.83808" lon="6.52849">
        <ele>1456</ele>
        <time>2019-05-04T10:07:00Z</time>
      </trkpt>
      <trkpt lat="46.83794" lon="6.52826">
        <ele>1455</ele>
        <time>2019-05-04T10:07:15Z</time>
      </trkpt>
      <trkpt lat="46.83779" lon="6.52808">
        <ele>1454</ele>
        <time>2019-05-04T10:07:30Z</time>
      </trkpt>
      <trkpt lat="46.83763" lon="6.5279">
        <ele>1453</ele>
        <time>2019-05-04T10:07:44Z</time>
      </trkpt>
      <trkpt lat="46.83751" lon="6.52778">
        <ele>1452</ele>
        <time>2019-05-04T10:07:55Z</time>
      </trkpt>
      <trkpt lat="46.83744" lon="6.5277">
        <ele>1452</ele>
        <time>2019-05-04T10:08:01Z</time>
      </trkpt>
      <trkpt lat="46.83731" lon="6.52747">
        <ele>1451</ele>
        <time>2019-05-04T10:08:16Z</time>
      </trkpt>
      <trkpt lat="46.83723" lon="6.5272">
        <ele>1452</ele>
        <time>2019-05-04T10:08:31Z</time>
      </trkpt>
      <trkpt lat="46.83712" lon="6.52695">
        <ele>1451</ele>
        <time>2019-05-04T10:08:45Z</time>
      </trkpt>
      <trkpt lat="46.83703" lon="6.52679">
        <ele>1450</ele>
        <time>2019-05-04T10:08:56Z</time>
      </trkpt>
      <trkpt lat="46.83691" lon="6.52655">
        <ele>1449</ele>
        <time>2019-05-04T10:09:10Z</time>
      </trkpt>
      <trkpt lat="46.83684" lon="6.52642">
        <ele>1448</ele>
        <time>2019-05-04T10:09:19Z</time>
      </trkpt>
      <trkpt lat="46.83674" lon="6.52619">
        <ele>1447</ele>
        <time>2019-05-04T10:09:32Z</time>
      </trkpt>
      <trkpt lat="46.83661" lon="6.52596">
        <ele>1447</ele>
        <time>2019-05-04T10:09:47Z</time>
      </trkpt>
      <trkpt lat="46.83658" lon="6.52583">
        <ele>1446</ele>
        <time>2019-05-04T10:09:54Z</time>
      </trkpt>
      <trkpt lat="46.83656" lon="6.52554">
        <ele>1447</ele>
        <time>2019-05-04T10:10:08Z</time>
      </trkpt>
      <trkpt lat="46.83645" lon="6.52529">
        <ele>1446</ele>
        <time>2019-05-04T10:10:23Z</time>
      </trkpt>
      <trkpt lat="46.83632" lon="6.5251">
        <ele>1445</ele>
        <time>2019-05-04T10:10:36Z</time>
      </trkpt>
      <trkpt lat="46.83629" lon="6.52504">
        <ele>1445</ele>
        <time>2019-05-04T10:10:40Z</time>
      </trkpt>
      <trkpt lat="46.83628" lon="6.52501">
        <ele>1444</ele>
        <time>2019-05-04T10:10:42Z</time>
      </trkpt>
      <trkpt lat="46.83629" lon="6.52487">
        <ele>1444</ele>
        <time>2019-05-04T10:10:49Z</time>
      </trkpt>
      <trkpt lat="46.83631" lon="6.5248">
        <ele>1444</ele>
        <time>2019-05-04T10:10:52Z</time>
      </trkpt>
      <trkpt lat="46.83635" lon="6.52453">
        <ele>1444</ele>
        <time>2019-05-04T10:11:06Z</time>
      </trkpt>
      <trkpt lat="46.83635" lon="6.52443">
        <ele>1444</ele>
        <time>2019-05-04T10:11:11Z</time>
      </trkpt>
      <trkpt lat="46.83637" lon="6.52432">
        <ele>1444</ele>
        <time>2019-05-04T10:11:17Z</time>
      </trkpt>
      <trkpt lat="46.83638" lon="6.52419">
        <ele>1444</ele>
        <time>2019-05-04T10:11:23Z</time>
      </trkpt>
      <trkpt lat="46.83637" lon="6.52393">
        <ele>1444</ele>
        <time>2019-05-04T10:11:36Z</time>
      </trkpt>
      <trkpt lat="46.83637" lon="6.52391">
        <ele>1444</ele>
        <time>2019-05-04T10:11:37Z</time>
      </trkpt>
      <trkpt lat="46.8364" lon="6.52381">
        <ele>1444</ele>
        <time>2019-05-04T10:11:42Z</time>
      </trkpt>
      <trkpt lat="46.83639" lon="6.52378">
        <ele>1444</ele>
        <time>2019-05-04T10:11:44Z</time>
      </trkpt>
      <trkpt lat="46.83642" lon="6.52379">
        <ele>1445</ele>
        <time>2019-05-04T10:11:46Z</time>
      </trkpt>
      <trkpt lat="46.83643" lon="6.5238">
        <ele>1445</ele>
        <time>2019-05-04T10:11:46Z</time>
      </trkpt>
      <trkpt lat="46.83651" lon="6.52374">
        <ele>1446</ele>
        <time>2019-05-04T10:11:53Z</time>
      </trkpt>
      <trkpt lat="46.83659" lon="6.52365">
        <ele>1448</ele>
        <time>2019-05-04T10:12:01Z</time>
      </trkpt>
      <trkpt lat="46.83663" lon="6.52362">
        <ele>1448</ele>
        <time>2019-05-04T10:12:04Z</time>
      </trkpt>
      <trkpt lat="46.83664" lon="6.52359">
        <ele>1448</ele>
        <time>2019-05-04T10:12:05Z</time>
      </trkpt>
      <trkpt lat="46.83664" lon="6.52358">
        <ele>1448</ele>
        <time>2019-05-04T10:12:06Z</time>
      </trkpt>
      <trkpt lat="46.83657" lon="6.52335">
        <ele>1444</ele>
        <time>2019-05-04T10:12:19Z</time>
      </trkpt>
      <trkpt lat="46.83655" lon="6.52335">
        <ele>1444</ele>
        <time>2019-05-04T10:12:20Z</time>
      </trkpt>
      <trkpt lat="46.8366" lon="6.52318">
        <ele>1442</ele>
        <time>2019-05-04T10:12:29Z</time>
      </trkpt>
      <trkpt lat="46.8366" lon="6.52316">
        <ele>1442</ele>
        <time>2019-05-04T10:12:30Z</time>
      </trkpt>
      <trkpt lat="46.83659" lon="6.52309">
        <ele>1440</ele>
        <time>2019-05-04T10:12:34Z</time>
      </trkpt>
      <trkpt lat="46.83656" lon="6.52304">
        <ele>1440</ele>
        <time>2019-05-04T10:12:37Z</time>
      </trkpt>
      <trkpt lat="46.83655" lon="6.52303">
        <ele>1439</ele>
        <time>2019-05-04T10:12:39Z</time>
      </trkpt>
      <trkpt lat="46.83653" lon="6.52302">
        <ele>1439</ele>
        <time>2019-05-04T10:12:40Z</time>
      </trkpt>
      <trkpt lat="46.83652" lon="6.52301">
        <ele>1439</ele>
        <time>2019-05-04T10:12:41Z</time>
      </trkpt>
      <trkpt lat="46.83651" lon="6.523">
        <ele>1438</ele>
        <time>2019-05-04T10:12:42Z</time>
      </trkpt>
      <trkpt lat="46.8365" lon="6.523">
        <ele>1438</ele>
        <time>2019-05-04T10:12:43Z</time>
      </trkpt>
      <trkpt lat="46.83648" lon="6.52297">
        <ele>1438</ele>
        <time>2019-05-04T10:12:44Z</time>
      </trkpt>
      <trkpt lat="46.83645" lon="6.52296">
        <ele>1437</ele>
        <time>2019-05-04T10:12:47Z</time>
      </trkpt>
      <trkpt lat="46.83644" lon="6.52294">
        <ele>1437</ele>
        <time>2019-05-04T10:12:48Z</time>
      </trkpt>
      <trkpt lat="46.83642" lon="6.52293">
        <ele>1437</ele>
        <time>2019-05-04T10:12:50Z</time>
      </trkpt>
      <trkpt lat="46.8364" lon="6.52289">
        <ele>1436</ele>
        <time>2019-05-04T10:12:52Z</time>
      </trkpt>
      <trkpt lat="46.83636" lon="6.52287">
        <ele>1435</ele>
        <time>2019-05-04T10:12:55Z</time>
      </trkpt>
      <trkpt lat="46.83631" lon="6.52281">
        <ele>1434</ele>
        <time>2019-05-04T10:13:00Z</time>
      </trkpt>
      <trkpt lat="46.83626" lon="6.52274">
        <ele>1433</ele>
        <time>2019-05-04T10:13:05Z</time>
      </trkpt>
      <trkpt lat="46.83622" lon="6.52266">
        <ele>1431</ele>
        <time>2019-05-04T10:13:10Z</time>
      </trkpt>
      <trkpt lat="46.83621" lon="6.52264">
        <ele>1431</ele>
        <time>2019-05-04T10:13:11Z</time>
      </trkpt>
      <trkpt lat="46.83619" lon="6.52262">
        <ele>1430</ele>
        <time>2019-05-04T10:13:13Z</time>
      </trkpt>
      <trkpt lat="46.83618" lon="6.5226">
        <ele>1430</ele>
        <time>2019-05-04T10:13:14Z</time>
      </trkpt>
      <trkpt lat="46.83616" lon="6.52258">
        <ele>1430</ele>
        <time>2019-05-04T10:13:16Z</time>
      </trkpt>
      <trkpt lat="46.83615" lon="6.52257">
        <ele>1429</ele>
        <time>2019-05-04T10:13:17Z</time>
      </trkpt>
      <trkpt lat="46.83613" lon="6.52256">
        <ele>1429</ele>
        <time>2019-05-04T10:13:19Z</time>
      </trkpt>
      <trkpt lat="46.8361" lon="6.52256">
        <ele>1429</ele>
        <time>2019-05-04T10:13:21Z</time>
      </trkpt>
      <trkpt lat="46.83606" lon="6.52252">
        <ele>1428</ele>
        <time>2019-05-04T10:13:24Z</time>
      </trkpt>
      <trkpt lat="46.83602" lon="6.5225">
        <ele>1427</ele>
        <time>2019-05-04T10:13:28Z</time>
      </trkpt>
      <trkpt lat="46.83597" lon="6.52246">
        <ele>1425</ele>
        <time>2019-05-04T10:13:32Z</time>
      </trkpt>
      <trkpt lat="46.83593" lon="6.52241">
        <ele>1424</ele>
        <time>2019-05-04T10:13:35Z</time>
      </trkpt>
      <trkpt lat="46.83589" lon="6.52237">
        <ele>1423</ele>
        <time>2019-05-04T10:13:39Z</time>
      </trkpt>
      <trkpt lat="46.83584" lon="6.52232">
        <ele>1422</ele>
        <time>2019-05-04T10:13:44Z</time>
      </trkpt>
      <trkpt lat="46.83579" lon="6.52227">
        <ele>1421</ele>
        <time>2019-05-04T10:13:48Z</time>
      </trkpt>
      <trkpt lat="46.83574" lon="6.52223">
        <ele>1420</ele>
        <time>2019-05-04T10:13:52Z</time>
      </trkpt>
      <trkpt lat="46.83569" lon="6.52219">
        <ele>1419</ele>
        <time>2019-05-04T10:13:56Z</time>
      </trkpt>
      <trkpt lat="46.83562" lon="6.52215">
        <ele>1417</ele>
        <time>2019-05-04T10:14:02Z</time>
      </trkpt>
      <trkpt lat="46.83552" lon="6.52214">
        <ele>1416</ele>
        <time>2019-05-04T10:14:09Z</time>
      </trkpt>
      <trkpt lat="46.83547" lon="6.52212">
        <ele>1415</ele>
        <time>2019-05-04T10:14:13Z</time>
      </trkpt>
      <trkpt lat="46.83538" lon="6.52206">
        <ele>1414</ele>
        <time>2019-05-04T10:14:20Z</time>
      </trkpt>
      <trkpt lat="46.83527" lon="6.522">
        <ele>1412</ele>
        <time>2019-05-04T10:14:29Z</time>
      </trkpt>
      <trkpt lat="46.83517" lon="6.52195">
        <ele>1411</ele>
        <time>2019-05-04T10:14:36Z</time>
      </trkpt>
      <trkpt lat="46.83511" lon="6.52191">
        <ele>1410</ele>
        <time>2019-05-04T10:14:41Z</time>
      </trkpt>
      <trkpt lat="46.83494" lon="6.5218">
        <ele>1409</ele>
        <time>2019-05-04T10:14:55Z</time>
      </trkpt>
      <trkpt lat="46.83486" lon="6.52174">
        <ele>1409</ele>
        <time>2019-05-04T10:15:01Z</time>
      </trkpt>
      <trkpt lat="46.83481" lon="6.52171">
        <ele>1408</ele>
        <time>2019-05-04T10:15:05Z</time>
      </trkpt>
      <trkpt lat="46.83474" lon="6.52166">
        <ele>1408</ele>
        <time>2019-05-04T10:15:11Z</time>
      </trkpt>
      <trkpt lat="46.83468" lon="6.52159">
        <ele>1408</ele>
        <time>2019-05-04T10:15:17Z</time>
      </trkpt>
      <trkpt lat="46.83463" lon="6.5215">
        <ele>1408</ele>
        <time>2019-05-04T10:15:22Z</time>
      </trkpt>
      <trkpt lat="46.83456" lon="6.52126">
        <ele>1408</ele>
        <time>2019-05-04T10:15:35Z</time>
      </trkpt>
      <trkpt lat="46.83458" lon="6.52119">
        <ele>1408</ele>
        <time>2019-05-04T10:15:39Z</time>
      </trkpt>
      <trkpt lat="46.83463" lon="6.52099">
        <ele>1411</ele>
        <time>2019-05-04T10:15:50Z</time>
      </trkpt>
      <trkpt lat="46.83467" lon="6.52092">
        <ele>1412</ele>
        <time>2019-05-04T10:15:54Z</time>
      </trkpt>
      <trkpt lat="46.83469" lon="6.52088">
        <ele>1413</ele>
        <time>2019-05-04T10:15:56Z</time>
      </trkpt>
      <trkpt lat="46.83469" lon="6.52087">
        <ele>1413</ele>
        <time>2019-05-04T10:15:57Z</time>
      </trkpt>
      <trkpt lat="46.83469" lon="6.52081">
        <ele>1414</ele>
        <time>2019-05-04T10:16:00Z</time>
      </trkpt>
      <trkpt lat="46.83468" lon="6.52077">
        <ele>1415</ele>
        <time>2019-05-04T10:16:02Z</time>
      </trkpt>
      <trkpt lat="46.83469" lon="6.52074">
        <ele>1415</ele>
        <time>2019-05-04T10:16:04Z</time>
      </trkpt>
      <trkpt lat="46.83469" lon="6.52072">
        <ele>1416</ele>
        <time>2019-05-04T10:16:05Z</time>
      </trkpt>
      <trkpt lat="46.83472" lon="6.52065">
        <ele>1417</ele>
        <time>2019-05-04T10:16:09Z</time>
      </trkpt>
      <trkpt lat="46.83473" lon="6.52062">
        <ele>1417</ele>
        <time>2019-05-04T10:16:11Z</time>
      </trkpt>
      <trkpt lat="46.83472" lon="6.5206">
        <ele>1418</ele>
        <time>2019-05-04T10:16:12Z</time>
      </trkpt>
      <trkpt lat="46.83471" lon="6.52057">
        <ele>1418</ele>
        <time>2019-05-04T10:16:14Z</time>
      </trkpt>
      <trkpt lat="46.83471" lon="6.52052">
        <ele>1419</ele>
        <time>2019-05-04T10:16:16Z</time>
      </trkpt>
      <trkpt lat="46.8347" lon="6.52047">
        <ele>1420</ele>
        <time>2019-05-04T10:16:19Z</time>
      </trkpt>
      <trkpt lat="46.8347" lon="6.52045">
        <ele>1420</ele>
        <time>2019-05-04T10:16:20Z</time>
      </trkpt>
      <trkpt lat="46.8347" lon="6.52044">
        <ele>1420</ele>
        <time>2019-05-04T10:16:21Z</time>
      </trkpt>
      <trkpt lat="46.83471" lon="6.52048">
        <ele>1420</ele>
        <time>2019-05-04T10:16:23Z</time>
      </trkpt>
      <trkpt lat="46.8347" lon="6.5205">
        <ele>1419</ele>
        <time>2019-05-04T10:16:24Z</time>
      </trkpt>
      <trkpt lat="46.83469" lon="6.52052">
        <ele>1419</ele>
        <time>2019-05-04T10:16:25Z</time>
      </trkpt>
      <trkpt lat="46.83463" lon="6.52052">
        <ele>1419</ele>
        <time>2019-05-04T10:16:29Z</time>
      </trkpt>
      <trkpt lat="46.83457" lon="6.52055">
        <ele>1418</ele>
        <time>2019-05-04T10:16:34Z</time>
      </trkpt>
      <trkpt lat="46.83456" lon="6.52054">
        <ele>1418</ele>
        <time>2019-05-04T10:16:35Z</time>
      </trkpt>
      <trkpt lat="46.83454" lon="6.52051">
        <ele>1419</ele>
        <time>2019-05-04T10:16:37Z</time>
      </trkpt>
      <trkpt lat="46.83454" lon="6.52049">
        <ele>1419</ele>
        <time>2019-05-04T10:16:38Z</time>
      </trkpt>
      <trkpt lat="46.83455" lon="6.52043">
        <ele>1420</ele>
        <time>2019-05-04T10:16:41Z</time>
      </trkpt>
      <trkpt lat="46.8346" lon="6.52025">
        <ele>1423</ele>
        <time>2019-05-04T10:16:51Z</time>
      </trkpt>
      <trkpt lat="46.83459" lon="6.52022">
        <ele>1424</ele>
        <time>2019-05-04T10:16:53Z</time>
      </trkpt>
      <trkpt lat="46.83457" lon="6.52021">
        <ele>1424</ele>
        <time>2019-05-04T10:16:54Z</time>
      </trkpt>
      <trkpt lat="46.83458" lon="6.52022">
        <ele>1424</ele>
        <time>2019-05-04T10:16:56Z</time>
      </trkpt>
      <trkpt lat="46.83461" lon="6.52024">
        <ele>1424</ele>
        <time>2019-05-04T10:16:58Z</time>
      </trkpt>
      <trkpt lat="46.83461" lon="6.52013">
        <ele>1425</ele>
        <time>2019-05-04T10:17:04Z</time>
      </trkpt>
      <trkpt lat="46.83459" lon="6.52012">
        <ele>1426</ele>
        <time>2019-05-04T10:17:05Z</time>
      </trkpt>
      <trkpt lat="46.8346" lon="6.5201">
        <ele>1426</ele>
        <time>2019-05-04T10:17:06Z</time>
      </trkpt>
      <trkpt lat="46.8346" lon="6.52007">
        <ele>1427</ele>
        <time>2019-05-04T10:17:08Z</time>
      </trkpt>
      <trkpt lat="46.83456" lon="6.52">
        <ele>1428</ele>
        <time>2019-05-04T10:17:12Z</time>
      </trkpt>
      <trkpt lat="46.83456" lon="6.51999">
        <ele>1428</ele>
        <time>2019-05-04T10:17:13Z</time>
      </trkpt>
      <trkpt lat="46.83455" lon="6.51998">
        <ele>1428</ele>
        <time>2019-05-04T10:17:13Z</time>
      </trkpt>
      <trkpt lat="46.83454" lon="6.51995">
        <ele>1429</ele>
        <time>2019-05-04T10:17:15Z</time>
      </trkpt>
      <trkpt lat="46.83454" lon="6.51995">
        <ele>1429</ele>
        <time>2019-05-04T10:17:15Z</time>
      </trkpt>
      <trkpt lat="46.83454" lon="6.51991">
        <ele>1429</ele>
        <time>2019-05-04T10:17:18Z</time>
      </trkpt>
      <trkpt lat="46.83455" lon="6.51987">
        <ele>1430</ele>
        <time>2019-05-04T10:17:20Z</time>
      </trkpt>
      <trkpt lat="46.83456" lon="6.51986">
        <ele>1430</ele>
        <time>2019-05-04T10:17:20Z</time>
      </trkpt>
      <trkpt lat="46.83457" lon="6.51984">
        <ele>1431</ele>
        <time>2019-05-04T10:17:22Z</time>
      </trkpt>
      <trkpt lat="46.83457" lon="6.51982">
        <ele>1431</ele>
        <time>2019-05-04T10:17:23Z</time>
      </trkpt>
      <trkpt lat="46.83457" lon="6.51979">
        <ele>1431</ele>
        <time>2019-05-04T10:17:24Z</time>
      </trkpt>
      <trkpt lat="46.83458" lon="6.51975">
        <ele>1432</ele>
        <time>2019-05-04T10:17:27Z</time>
      </trkpt>
      <trkpt lat="46.83459" lon="6.51973">
        <ele>1433</ele>
        <time>2019-05-04T10:17:28Z</time>
      </trkpt>
      <trkpt lat="46.83465" lon="6.51965">
        <ele>1434</ele>
        <time>2019-05-04T10:17:34Z</time>
      </trkpt>
      <trkpt lat="46.83466" lon="6.51964">
        <ele>1434</ele>
        <time>2019-05-04T10:17:34Z</time>
      </trkpt>
      <trkpt lat="46.83468" lon="6.51961">
        <ele>1435</ele>
        <time>2019-05-04T10:17:37Z</time>
      </trkpt>
      <trkpt lat="46.8347" lon="6.51959">
        <ele>1435</ele>
        <time>2019-05-04T10:17:38Z</time>
      </trkpt>
      <trkpt lat="46.83475" lon="6.51959">
        <ele>1435</ele>
        <time>2019-05-04T10:17:42Z</time>
      </trkpt>
      <trkpt lat="46.83479" lon="6.51959">
        <ele>1435</ele>
        <time>2019-05-04T10:17:45Z</time>
      </trkpt>
      <trkpt lat="46.83484" lon="6.5196">
        <ele>1435</ele>
        <time>2019-05-04T10:17:48Z</time>
      </trkpt>
      <trkpt lat="46.83486" lon="6.5196">
        <ele>1435</ele>
        <time>2019-05-04T10:17:50Z</time>
      </trkpt>
      <trkpt lat="46.83488" lon="6.5196">
        <ele>1435</ele>
        <time>2019-05-04T10:17:51Z</time>
      </trkpt>
      <trkpt lat="46.83488" lon="6.51959">
        <ele>1436</ele>
        <time>2019-05-04T10:17:52Z</time>
      </trkpt>
      <trkpt lat="46.8349" lon="6.51957">
        <ele>1436</ele>
        <time>2019-05-04T10:17:54Z</time>
      </trkpt>
      <trkpt lat="46.83494" lon="6.51957">
        <ele>1436</ele>
        <time>2019-05-04T10:17:56Z</time>
      </trkpt>
      <trkpt lat="46.83497" lon="6.51955">
        <ele>1436</ele>
        <time>2019-05-04T10:17:59Z</time>
      </trkpt>
      <trkpt lat="46.83499" lon="6.51952">
        <ele>1437</ele>
        <time>2019-05-04T10:18:01Z</time>
      </trkpt>
      <trkpt lat="46.83499" lon="6.5195">
        <ele>1437</ele>
        <time>2019-05-04T10:18:02Z</time>
      </trkpt>
      <trkpt lat="46.835" lon="6.51949">
        <ele>1437</ele>
        <time>2019-05-04T10:18:02Z</time>
      </trkpt>
      <trkpt lat="46.835" lon="6.51948">
        <ele>1438</ele>
        <time>2019-05-04T10:18:04Z</time>
      </trkpt>
      <trkpt lat="46.83501" lon="6.51946">
        <ele>1438</ele>
        <time>2019-05-04T10:18:05Z</time>
      </trkpt>
      <trkpt lat="46.83502" lon="6.51944">
        <ele>1438</ele>
        <time>2019-05-04T10:18:06Z</time>
      </trkpt>
      <trkpt lat="46.83503" lon="6.5194">
        <ele>1439</ele>
        <time>2019-05-04T10:18:08Z</time>
      </trkpt>
      <trkpt lat="46.83504" lon="6.51937">
        <ele>1440</ele>
        <time>2019-05-04T10:18:10Z</time>
      </trkpt>
      <trkpt lat="46.83502" lon="6.51933">
        <ele>1440</ele>
        <time>2019-05-04T10:18:12Z</time>
      </trkpt>
      <trkpt lat="46.83499" lon="6.51929">
        <ele>1441</ele>
        <time>2019-05-04T10:18:15Z</time>
      </trkpt>
      <trkpt lat="46.83497" lon="6.51927">
        <ele>1441</ele>
        <time>2019-05-04T10:18:17Z</time>
      </trkpt>
      <trkpt lat="46.83493" lon="6.51921">
        <ele>1443</ele>
        <time>2019-05-04T10:18:21Z</time>
      </trkpt>
      <trkpt lat="46.83492" lon="6.51917">
        <ele>1443</ele>
        <time>2019-05-04T10:18:24Z</time>
      </trkpt>
      <trkpt lat="46.8349" lon="6.51914">
        <ele>1444</ele>
        <time>2019-05-04T10:18:25Z</time>
      </trkpt>
      <trkpt lat="46.83492" lon="6.5191">
        <ele>1445</ele>
        <time>2019-05-04T10:18:28Z</time>
      </trkpt>
      <trkpt lat="46.83492" lon="6.51905">
        <ele>1446</ele>
        <time>2019-05-04T10:18:30Z</time>
      </trkpt>
      <trkpt lat="46.83494" lon="6.51901">
        <ele>1446</ele>
        <time>2019-05-04T10:18:33Z</time>
      </trkpt>
      <trkpt lat="46.83495" lon="6.51897">
        <ele>1447</ele>
        <time>2019-05-04T10:18:35Z</time>
      </trkpt>
      <trkpt lat="46.83495" lon="6.51893">
        <ele>1448</ele>
        <time>2019-05-04T10:18:37Z</time>
      </trkpt>
      <trkpt lat="46.83493" lon="6.51891">
        <ele>1448</ele>
        <time>2019-05-04T10:18:39Z</time>
      </trkpt>
      <trkpt lat="46.83492" lon="6.51886">
        <ele>1449</ele>
        <time>2019-05-04T10:18:41Z</time>
      </trkpt>
      <trkpt lat="46.83491" lon="6.51881">
        <ele>1450</ele>
        <time>2019-05-04T10:18:44Z</time>
      </trkpt>
      <trkpt lat="46.8349" lon="6.51878">
        <ele>1451</ele>
        <time>2019-05-04T10:18:46Z</time>
      </trkpt>
      <trkpt lat="46.83488" lon="6.51876">
        <ele>1451</ele>
        <time>2019-05-04T10:18:48Z</time>
      </trkpt>
      <trkpt lat="46.83487" lon="6.51872">
        <ele>1452</ele>
        <time>2019-05-04T10:18:50Z</time>
      </trkpt>
      <trkpt lat="46.83487" lon="6.51869">
        <ele>1453</ele>
        <time>2019-05-04T10:18:52Z</time>
      </trkpt>
      <trkpt lat="46.83486" lon="6.51863">
        <ele>1454</ele>
        <time>2019-05-04T10:18:54Z</time>
      </trkpt>
      <trkpt lat="46.83486" lon="6.51861">
        <ele>1454</ele>
        <time>2019-05-04T10:18:56Z</time>
      </trkpt>
      <trkpt lat="46.83483" lon="6.51858">
        <ele>1455</ele>
        <time>2019-05-04T10:18:58Z</time>
      </trkpt>
      <trkpt lat="46.8348" lon="6.51855">
        <ele>1455</ele>
        <time>2019-05-04T10:19:00Z</time>
      </trkpt>
      <trkpt lat="46.83479" lon="6.51853">
        <ele>1456</ele>
        <time>2019-05-04T10:19:02Z</time>
      </trkpt>
      <trkpt lat="46.83474" lon="6.51848">
        <ele>1456</ele>
        <time>2019-05-04T10:19:06Z</time>
      </trkpt>
      <trkpt lat="46.83474" lon="6.51846">
        <ele>1457</ele>
        <time>2019-05-04T10:19:08Z</time>
      </trkpt>
      <trkpt lat="46.83473" lon="6.51839">
        <ele>1457</ele>
        <time>2019-05-04T10:19:11Z</time>
      </trkpt>
      <trkpt lat="46.83471" lon="6.51837">
        <ele>1458</ele>
        <time>2019-05-04T10:19:13Z</time>
      </trkpt>
      <trkpt lat="46.83471" lon="6.51836">
        <ele>1458</ele>
        <time>2019-05-04T10:19:13Z</time>
      </trkpt>
      <trkpt lat="46.83469" lon="6.51832">
        <ele>1458</ele>
        <time>2019-05-04T10:19:16Z</time>
      </trkpt>
      <trkpt lat="46.83466" lon="6.51829">
        <ele>1459</ele>
        <time>2019-05-04T10:19:18Z</time>
      </trkpt>
      <trkpt lat="46.83463" lon="6.51826">
        <ele>1460</ele>
        <time>2019-05-04T10:19:21Z</time>
      </trkpt>
      <trkpt lat="46.8346" lon="6.51823">
        <ele>1461</ele>
        <time>2019-05-04T10:19:24Z</time>
      </trkpt>
      <trkpt lat="46.83458" lon="6.51819">
        <ele>1461</ele>
        <time>2019-05-04T10:19:26Z</time>
      </trkpt>
      <trkpt lat="46.83457" lon="6.51818">
        <ele>1461</ele>
        <time>2019-05-04T10:19:27Z</time>
      </trkpt>
      <trkpt lat="46.83456" lon="6.51816">
        <ele>1462</ele>
        <time>2019-05-04T10:19:29Z</time>
      </trkpt>
      <trkpt lat="46.83454" lon="6.51813">
        <ele>1463</ele>
        <time>2019-05-04T10:19:31Z</time>
      </trkpt>
      <trkpt lat="46.83452" lon="6.5181">
        <ele>1463</ele>
        <time>2019-05-04T10:19:33Z</time>
      </trkpt>
      <trkpt lat="46.83452" lon="6.51807">
        <ele>1464</ele>
        <time>2019-05-04T10:19:34Z</time>
      </trkpt>
      <trkpt lat="46.83452" lon="6.51802">
        <ele>1464</ele>
        <time>2019-05-04T10:19:37Z</time>
      </trkpt>
      <trkpt lat="46.83451" lon="6.51799">
        <ele>1465</ele>
        <time>2019-05-04T10:19:39Z</time>
      </trkpt>
      <trkpt lat="46.8345" lon="6.51796">
        <ele>1466</ele>
        <time>2019-05-04T10:19:41Z</time>
      </trkpt>
      <trkpt lat="46.83449" lon="6.51794">
        <ele>1466</ele>
        <time>2019-05-04T10:19:42Z</time>
      </trkpt>
      <trkpt lat="46.83448" lon="6.51788">
        <ele>1467</ele>
        <time>2019-05-04T10:19:45Z</time>
      </trkpt>
      <trkpt lat="46.83447" lon="6.51781">
        <ele>1468</ele>
        <time>2019-05-04T10:19:49Z</time>
      </trkpt>
      <trkpt lat="46.83447" lon="6.5178">
        <ele>1468</ele>
        <time>2019-05-04T10:19:49Z</time>
      </trkpt>
      <trkpt lat="46.83446" lon="6.51777">
        <ele>1469</ele>
        <time>2019-05-04T10:19:51Z</time>
      </trkpt>
      <trkpt lat="46.83445" lon="6.51774">
        <ele>1468</ele>
        <time>2019-05-04T10:19:53Z</time>
      </trkpt>
      <trkpt lat="46.83443" lon="6.51772">
        <ele>1468</ele>
        <time>2019-05-04T10:19:54Z</time>
      </trkpt>
      <trkpt lat="46.83439" lon="6.51762">
        <ele>1467</ele>
        <time>2019-05-04T10:20:00Z</time>
      </trkpt>
      <trkpt lat="46.83437" lon="6.51759">
        <ele>1467</ele>
        <time>2019-05-04T10:20:02Z</time>
      </trkpt>
      <trkpt lat="46.83434" lon="6.51752">
        <ele>1466</ele>
        <time>2019-05-04T10:20:06Z</time>
      </trkpt>
      <trkpt lat="46.8343" lon="6.51743">
        <ele>1466</ele>
        <time>2019-05-04T10:20:12Z</time>
      </trkpt>
      <trkpt lat="46.83421" lon="6.51732">
        <ele>1464</ele>
        <time>2019-05-04T10:20:20Z</time>
      </trkpt>
      <trkpt lat="46.83421" lon="6.51731">
        <ele>1464</ele>
        <time>2019-05-04T10:20:21Z</time>
      </trkpt>
      <trkpt lat="46.8342" lon="6.51728">
        <ele>1464</ele>
        <time>2019-05-04T10:20:22Z</time>
      </trkpt>
      <trkpt lat="46.83416" lon="6.51722">
        <ele>1464</ele>
        <time>2019-05-04T10:20:26Z</time>
      </trkpt>
      <trkpt lat="46.8341" lon="6.51718">
        <ele>1463</ele>
        <time>2019-05-04T10:20:31Z</time>
      </trkpt>
      <trkpt lat="46.83404" lon="6.51713">
        <ele>1463</ele>
        <time>2019-05-04T10:20:36Z</time>
      </trkpt>
      <trkpt lat="46.8339" lon="6.51693">
        <ele>1462</ele>
        <time>2019-05-04T10:20:50Z</time>
      </trkpt>
      <trkpt lat="46.8338" lon="6.51671">
        <ele>1460</ele>
        <time>2019-05-04T10:21:03Z</time>
      </trkpt>
      <trkpt lat="46.83376" lon="6.51664">
        <ele>1459</ele>
        <time>2019-05-04T10:21:08Z</time>
      </trkpt>
      <trkpt lat="46.83363" lon="6.5165">
        <ele>1458</ele>
        <time>2019-05-04T10:21:19Z</time>
      </trkpt>
      <trkpt lat="46.83363" lon="6.51649">
        <ele>1458</ele>
        <time>2019-05-04T10:21:20Z</time>
      </trkpt>
      <trkpt lat="46.83367" lon="6.5165">
        <ele>1458</ele>
        <time>2019-05-04T10:21:22Z</time>
      </trkpt>
      <trkpt lat="46.83367" lon="6.5165">
        <ele>1458</ele>
        <time>2019-05-04T10:21:23Z</time>
      </trkpt>
      <trkpt lat="46.83367" lon="6.5165">
        <ele>1458</ele>
        <time>2019-05-04T10:21:23Z</time>
      </trkpt>
      <trkpt lat="46.83368" lon="6.5165">
        <ele>1458</ele>
        <time>2019-05-04T10:21:23Z</time>
      </trkpt>
      <trkpt lat="46.83363" lon="6.51645">
        <ele>1458</ele>
        <time>2019-05-04T10:21:27Z</time>
      </trkpt>
      <trkpt lat="46.83362" lon="6.51642">
        <ele>1457</ele>
        <time>2019-05-04T10:21:29Z</time>
      </trkpt>
      <trkpt lat="46.83352" lon="6.51624">
        <ele>1453</ele>
        <time>2019-05-04T10:21:41Z</time>
      </trkpt>
      <trkpt lat="46.83346" lon="6.51618">
        <ele>1451</ele>
        <time>2019-05-04T10:21:46Z</time>
      </trkpt>
      <trkpt lat="46.83341" lon="6.51614">
        <ele>1449</ele>
        <time>2019-05-04T10:21:51Z</time>
      </trkpt>
      <trkpt lat="46.83339" lon="6.51614">
        <ele>1448</ele>
        <time>2019-05-04T10:21:52Z</time>
      </trkpt>
      <trkpt lat="46.83337" lon="6.51613">
        <ele>1447</ele>
        <time>2019-05-04T10:21:54Z</time>
      </trkpt>
      <trkpt lat="46.83333" lon="6.51611">
        <ele>1446</ele>
        <time>2019-05-04T10:21:57Z</time>
      </trkpt>
      <trkpt lat="46.83332" lon="6.51611">
        <ele>1446</ele>
        <time>2019-05-04T10:21:58Z</time>
      </trkpt>
      <trkpt lat="46.8333" lon="6.51612">
        <ele>1445</ele>
        <time>2019-05-04T10:21:59Z</time>
      </trkpt>
      <trkpt lat="46.83329" lon="6.51616">
        <ele>1445</ele>
        <time>2019-05-04T10:22:01Z</time>
      </trkpt>
      <trkpt lat="46.83328" lon="6.51618">
        <ele>1444</ele>
        <time>2019-05-04T10:22:03Z</time>
      </trkpt>
      <trkpt lat="46.83326" lon="6.5162">
        <ele>1444</ele>
        <time>2019-05-04T10:22:04Z</time>
      </trkpt>
      <trkpt lat="46.83321" lon="6.51622">
        <ele>1442</ele>
        <time>2019-05-04T10:22:08Z</time>
      </trkpt>
      <trkpt lat="46.83319" lon="6.51621">
        <ele>1442</ele>
        <time>2019-05-04T10:22:10Z</time>
      </trkpt>
      <trkpt lat="46.83314" lon="6.51616">
        <ele>1440</ele>
        <time>2019-05-04T10:22:14Z</time>
      </trkpt>
      <trkpt lat="46.83313" lon="6.51613">
        <ele>1439</ele>
        <time>2019-05-04T10:22:16Z</time>
      </trkpt>
      <trkpt lat="46.83309" lon="6.51607">
        <ele>1438</ele>
        <time>2019-05-04T10:22:20Z</time>
      </trkpt>
      <trkpt lat="46.83308" lon="6.51603">
        <ele>1437</ele>
        <time>2019-05-04T10:22:22Z</time>
      </trkpt>
      <trkpt lat="46.83308" lon="6.516">
        <ele>1437</ele>
        <time>2019-05-04T10:22:24Z</time>
      </trkpt>
      <trkpt lat="46.83307" lon="6.51598">
        <ele>1436</ele>
        <time>2019-05-04T10:22:25Z</time>
      </trkpt>
      <trkpt lat="46.83307" lon="6.51596">
        <ele>1436</ele>
        <time>2019-05-04T10:22:26Z</time>
      </trkpt>
      <trkpt lat="46.83306" lon="6.51593">
        <ele>1436</ele>
        <time>2019-05-04T10:22:27Z</time>
      </trkpt>
      <trkpt lat="46.83304" lon="6.51588">
        <ele>1434</ele>
        <time>2019-05-04T10:22:31Z</time>
      </trkpt>
      <trkpt lat="46.83294" lon="6.51568">
        <ele>1430</ele>
        <time>2019-05-04T10:22:43Z</time>
      </trkpt>
      <trkpt lat="46.8329" lon="6.51559">
        <ele>1428</ele>
        <time>2019-05-04T10:22:48Z</time>
      </trkpt>
      <trkpt lat="46.8329" lon="6.51556">
        <ele>1428</ele>
        <time>2019-05-04T10:22:50Z</time>
      </trkpt>
      <trkpt lat="46.8329" lon="6.51552">
        <ele>1428</ele>
        <time>2019-05-04T10:22:52Z</time>
      </trkpt>
      <trkpt lat="46.83288" lon="6.51546">
        <ele>1427</ele>
        <time>2019-05-04T10:22:55Z</time>
      </trkpt>
      <trkpt lat="46.83286" lon="6.51543">
        <ele>1426</ele>
        <time>2019-05-04T10:22:57Z</time>
      </trkpt>
      <trkpt lat="46.83285" lon="6.5154">
        <ele>1426</ele>
        <time>2019-05-04T10:22:59Z</time>
      </trkpt>
      <trkpt lat="46.83283" lon="6.51536">
        <ele>1425</ele>
        <time>2019-05-04T10:23:01Z</time>
      </trkpt>
      <trkpt lat="46.83282" lon="6.51533">
        <ele>1425</ele>
        <time>2019-05-04T10:23:04Z</time>
      </trkpt>
      <trkpt lat="46.83278" lon="6.51526">
        <ele>1423</ele>
        <time>2019-05-04T10:23:08Z</time>
      </trkpt>
      <trkpt lat="46.83275" lon="6.51521">
        <ele>1421</ele>
        <time>2019-05-04T10:23:12Z</time>
      </trkpt>
      <trkpt lat="46.83268" lon="6.51505">
        <ele>1416</ele>
        <time>2019-05-04T10:23:22Z</time>
      </trkpt>
      <trkpt lat="46.83265" lon="6.51498">
        <ele>1414</ele>
        <time>2019-05-04T10:23:26Z</time>
      </trkpt>
      <trkpt lat="46.83263" lon="6.51495">
        <ele>1413</ele>
        <time>2019-05-04T10:23:28Z</time>
      </trkpt>
      <trkpt lat="46.8326" lon="6.51487">
        <ele>1411</ele>
        <time>2019-05-04T10:23:33Z</time>
      </trkpt>
      <trkpt lat="46.83258" lon="6.51479">
        <ele>1409</ele>
        <time>2019-05-04T10:23:37Z</time>
      </trkpt>
      <trkpt lat="46.83256" lon="6.51475">
        <ele>1408</ele>
        <time>2019-05-04T10:23:40Z</time>
      </trkpt>
      <trkpt lat="46.83254" lon="6.51467">
        <ele>1406</ele>
        <time>2019-05-04T10:23:44Z</time>
      </trkpt>
      <trkpt lat="46.83251" lon="6.51453">
        <ele>1403</ele>
        <time>2019-05-04T10:23:52Z</time>
      </trkpt>
      <trkpt lat="46.8325" lon="6.51449">
        <ele>1403</ele>
        <time>2019-05-04T10:23:54Z</time>
      </trkpt>
      <trkpt lat="46.83249" lon="6.51446">
        <ele>1402</ele>
        <time>2019-05-04T10:23:56Z</time>
      </trkpt>
      <trkpt lat="46.83247" lon="6.51443">
        <ele>1401</ele>
        <time>2019-05-04T10:23:58Z</time>
      </trkpt>
      <trkpt lat="46.83246" lon="6.5144">
        <ele>1400</ele>
        <time>2019-05-04T10:23:59Z</time>
      </trkpt>
      <trkpt lat="46.83243" lon="6.51435">
        <ele>1399</ele>
        <time>2019-05-04T10:24:03Z</time>
      </trkpt>
      <trkpt lat="46.8324" lon="6.51431">
        <ele>1397</ele>
        <time>2019-05-04T10:24:06Z</time>
      </trkpt>
      <trkpt lat="46.83236" lon="6.51425">
        <ele>1395</ele>
        <time>2019-05-04T10:24:10Z</time>
      </trkpt>
      <trkpt lat="46.83236" lon="6.51419">
        <ele>1394</ele>
        <time>2019-05-04T10:24:13Z</time>
      </trkpt>
      <trkpt lat="46.83235" lon="6.51417">
        <ele>1394</ele>
        <time>2019-05-04T10:24:14Z</time>
      </trkpt>
      <trkpt lat="46.83235" lon="6.51414">
        <ele>1393</ele>
        <time>2019-05-04T10:24:16Z</time>
      </trkpt>
      <trkpt lat="46.83233" lon="6.51412">
        <ele>1393</ele>
        <time>2019-05-04T10:24:17Z</time>
      </trkpt>
      <trkpt lat="46.83232" lon="6.51409">
        <ele>1392</ele>
        <time>2019-05-04T10:24:19Z</time>
      </trkpt>
      <trkpt lat="46.83231" lon="6.51406">
        <ele>1391</ele>
        <time>2019-05-04T10:24:21Z</time>
      </trkpt>
      <trkpt lat="46.83229" lon="6.51401">
        <ele>1390</ele>
        <time>2019-05-04T10:24:24Z</time>
      </trkpt>
      <trkpt lat="46.83228" lon="6.51399">
        <ele>1390</ele>
        <time>2019-05-04T10:24:25Z</time>
      </trkpt>
      <trkpt lat="46.83227" lon="6.51399">
        <ele>1389</ele>
        <time>2019-05-04T10:24:26Z</time>
      </trkpt>
      <trkpt lat="46.83221" lon="6.51398">
        <ele>1388</ele>
        <time>2019-05-04T10:24:30Z</time>
      </trkpt>
      <trkpt lat="46.83218" lon="6.51396">
        <ele>1387</ele>
        <time>2019-05-04T10:24:33Z</time>
      </trkpt>
      <trkpt lat="46.83217" lon="6.51392">
        <ele>1386</ele>
        <time>2019-05-04T10:24:35Z</time>
      </trkpt>
      <trkpt lat="46.83213" lon="6.51387">
        <ele>1384</ele>
        <time>2019-05-04T10:24:39Z</time>
      </trkpt>
      <trkpt lat="46.8321" lon="6.51383">
        <ele>1383</ele>
        <time>2019-05-04T10:24:42Z</time>
      </trkpt>
      <trkpt lat="46.83208" lon="6.51378">
        <ele>1381</ele>
        <time>2019-05-04T10:24:45Z</time>
      </trkpt>
      <trkpt lat="46.83207" lon="6.51376">
        <ele>1381</ele>
        <time>2019-05-04T10:24:47Z</time>
      </trkpt>
      <trkpt lat="46.83206" lon="6.51375">
        <ele>1380</ele>
        <time>2019-05-04T10:24:48Z</time>
      </trkpt>
      <trkpt lat="46.83204" lon="6.51374">
        <ele>1380</ele>
        <time>2019-05-04T10:24:49Z</time>
      </trkpt>
      <trkpt lat="46.83199" lon="6.51373">
        <ele>1378</ele>
        <time>2019-05-04T10:24:53Z</time>
      </trkpt>
      <trkpt lat="46.83198" lon="6.51372">
        <ele>1378</ele>
        <time>2019-05-04T10:24:54Z</time>
      </trkpt>
      <trkpt lat="46.83197" lon="6.51369">
        <ele>1377</ele>
        <time>2019-05-04T10:24:55Z</time>
      </trkpt>
      <trkpt lat="46.83196" lon="6.51365">
        <ele>1376</ele>
        <time>2019-05-04T10:24:58Z</time>
      </trkpt>
      <trkpt lat="46.83195" lon="6.51363">
        <ele>1376</ele>
        <time>2019-05-04T10:24:59Z</time>
      </trkpt>
      <trkpt lat="46.83195" lon="6.51361">
        <ele>1376</ele>
        <time>2019-05-04T10:25:00Z</time>
      </trkpt>
      <trkpt lat="46.83193" lon="6.51359">
        <ele>1375</ele>
        <time>2019-05-04T10:25:02Z</time>
      </trkpt>
      <trkpt lat="46.83187" lon="6.51356">
        <ele>1373</ele>
        <time>2019-05-04T10:25:06Z</time>
      </trkpt>
      <trkpt lat="46.83185" lon="6.51353">
        <ele>1371</ele>
        <time>2019-05-04T10:25:09Z</time>
      </trkpt>
      <trkpt lat="46.83184" lon="6.51352">
        <ele>1371</ele>
        <time>2019-05-04T10:25:10Z</time>
      </trkpt>
      <trkpt lat="46.83184" lon="6.51351">
        <ele>1370</ele>
        <time>2019-05-04T10:25:10Z</time>
      </trkpt>
      <trkpt lat="46.8318" lon="6.51343">
        <ele>1368</ele>
        <time>2019-05-04T10:25:15Z</time>
      </trkpt>
      <trkpt lat="46.83177" lon="6.51335">
        <ele>1366</ele>
        <time>2019-05-04T10:25:20Z</time>
      </trkpt>
      <trkpt lat="46.83175" lon="6.51333">
        <ele>1365</ele>
        <time>2019-05-04T10:25:22Z</time>
      </trkpt>
      <trkpt lat="46.83174" lon="6.51332">
        <ele>1364</ele>
        <time>2019-05-04T10:25:23Z</time>
      </trkpt>
      <trkpt lat="46.83172" lon="6.51332">
        <ele>1364</ele>
        <time>2019-05-04T10:25:24Z</time>
      </trkpt>
      <trkpt lat="46.8317" lon="6.51333">
        <ele>1363</ele>
        <time>2019-05-04T10:25:26Z</time>
      </trkpt>
      <trkpt lat="46.83166" lon="6.51335">
        <ele>1363</ele>
        <time>2019-05-04T10:25:29Z</time>
      </trkpt>
      <trkpt lat="46.83164" lon="6.51336">
        <ele>1362</ele>
        <time>2019-05-04T10:25:31Z</time>
      </trkpt>
      <trkpt lat="46.83162" lon="6.51335">
        <ele>1361</ele>
        <time>2019-05-04T10:25:32Z</time>
      </trkpt>
      <trkpt lat="46.83161" lon="6.51333">
        <ele>1361</ele>
        <time>2019-05-04T10:25:33Z</time>
      </trkpt>
      <trkpt lat="46.8316" lon="6.51329">
        <ele>1360</ele>
        <time>2019-05-04T10:25:36Z</time>
      </trkpt>
      <trkpt lat="46.83159" lon="6.51326">
        <ele>1359</ele>
        <time>2019-05-04T10:25:38Z</time>
      </trkpt>
      <trkpt lat="46.83159" lon="6.51325">
        <ele>1359</ele>
        <time>2019-05-04T10:25:38Z</time>
      </trkpt>
      <trkpt lat="46.83159" lon="6.51323">
        <ele>1358</ele>
        <time>2019-05-04T10:25:39Z</time>
      </trkpt>
      <trkpt lat="46.83157" lon="6.51319">
        <ele>1357</ele>
        <time>2019-05-04T10:25:42Z</time>
      </trkpt>
      <trkpt lat="46.83154" lon="6.51318">
        <ele>1356</ele>
        <time>2019-05-04T10:25:44Z</time>
      </trkpt>
      <trkpt lat="46.83153" lon="6.51319">
        <ele>1356</ele>
        <time>2019-05-04T10:25:45Z</time>
      </trkpt>
      <trkpt lat="46.8315" lon="6.51319">
        <ele>1355</ele>
        <time>2019-05-04T10:25:47Z</time>
      </trkpt>
      <trkpt lat="46.83148" lon="6.51318">
        <ele>1354</ele>
        <time>2019-05-04T10:25:48Z</time>
      </trkpt>
      <trkpt lat="46.83143" lon="6.51316">
        <ele>1353</ele>
        <time>2019-05-04T10:25:52Z</time>
      </trkpt>
      <trkpt lat="46.83142" lon="6.51315">
        <ele>1352</ele>
        <time>2019-05-04T10:25:54Z</time>
      </trkpt>
      <trkpt lat="46.8314" lon="6.51314">
        <ele>1351</ele>
        <time>2019-05-04T10:25:55Z</time>
      </trkpt>
      <trkpt lat="46.83137" lon="6.5131">
        <ele>1350</ele>
        <time>2019-05-04T10:25:58Z</time>
      </trkpt>
      <trkpt lat="46.83135" lon="6.51306">
        <ele>1348</ele>
        <time>2019-05-04T10:26:01Z</time>
      </trkpt>
      <trkpt lat="46.83133" lon="6.51302">
        <ele>1347</ele>
        <time>2019-05-04T10:26:04Z</time>
      </trkpt>
      <trkpt lat="46.83131" lon="6.51299">
        <ele>1347</ele>
        <time>2019-05-04T10:26:05Z</time>
      </trkpt>
      <trkpt lat="46.83129" lon="6.51297">
        <ele>1346</ele>
        <time>2019-05-04T10:26:07Z</time>
      </trkpt>
      <trkpt lat="46.83127" lon="6.51296">
        <ele>1345</ele>
        <time>2019-05-04T10:26:09Z</time>
      </trkpt>
      <trkpt lat="46.83126" lon="6.51293">
        <ele>1344</ele>
        <time>2019-05-04T10:26:10Z</time>
      </trkpt>
      <trkpt lat="46.83123" lon="6.5129">
        <ele>1343</ele>
        <time>2019-05-04T10:26:13Z</time>
      </trkpt>
      <trkpt lat="46.83121" lon="6.51288">
        <ele>1342</ele>
        <time>2019-05-04T10:26:15Z</time>
      </trkpt>
      <trkpt lat="46.83121" lon="6.51286">
        <ele>1341</ele>
        <time>2019-05-04T10:26:16Z</time>
      </trkpt>
      <trkpt lat="46.83119" lon="6.51276">
        <ele>1340</ele>
        <time>2019-05-04T10:26:21Z</time>
      </trkpt>
      <trkpt lat="46.83114" lon="6.51267">
        <ele>1337</ele>
        <time>2019-05-04T10:26:27Z</time>
      </trkpt>
      <trkpt lat="46.83111" lon="6.51262">
        <ele>1335</ele>
        <time>2019-05-04T10:26:31Z</time>
      </trkpt>
      <trkpt lat="46.83108" lon="6.51259">
        <ele>1334</ele>
        <time>2019-05-04T10:26:33Z</time>
      </trkpt>
      <trkpt lat="46.83107" lon="6.51256">
        <ele>1333</ele>
        <time>2019-05-04T10:26:36Z</time>
      </trkpt>
      <trkpt lat="46.83105" lon="6.51254">
        <ele>1332</ele>
        <time>2019-05-04T10:26:37Z</time>
      </trkpt>
      <trkpt lat="46.83103" lon="6.51251">
        <ele>1332</ele>
        <time>2019-05-04T10:26:39Z</time>
      </trkpt>
      <trkpt lat="46.83102" lon="6.5125">
        <ele>1331</ele>
        <time>2019-05-04T10:26:41Z</time>
      </trkpt>
      <trkpt lat="46.83098" lon="6.51248">
        <ele>1329</ele>
        <time>2019-05-04T10:26:44Z</time>
      </trkpt>
      <trkpt lat="46.83094" lon="6.51246">
        <ele>1328</ele>
        <time>2019-05-04T10:26:47Z</time>
      </trkpt>
      <trkpt lat="46.83089" lon="6.51243">
        <ele>1326</ele>
        <time>2019-05-04T10:26:51Z</time>
      </trkpt>
      <trkpt lat="46.83085" lon="6.51236">
        <ele>1324</ele>
        <time>2019-05-04T10:26:56Z</time>
      </trkpt>
      <trkpt lat="46.83082" lon="6.5123">
        <ele>1322</ele>
        <time>2019-05-04T10:27:00Z</time>
      </trkpt>
      <trkpt lat="46.83079" lon="6.51226">
        <ele>1321</ele>
        <time>2019-05-04T10:27:03Z</time>
      </trkpt>
      <trkpt lat="46.83075" lon="6.51222">
        <ele>1319</ele>
        <time>2019-05-04T10:27:06Z</time>
      </trkpt>
      <trkpt lat="46.83072" lon="6.51221">
        <ele>1318</ele>
        <time>2019-05-04T10:27:09Z</time>
      </trkpt>
      <trkpt lat="46.8307" lon="6.51222">
        <ele>1318</ele>
        <time>2019-05-04T10:27:10Z</time>
      </trkpt>
      <trkpt lat="46.83065" lon="6.51222">
        <ele>1316</ele>
        <time>2019-05-04T10:27:14Z</time>
      </trkpt>
      <trkpt lat="46.8306" lon="6.5122">
        <ele>1314</ele>
        <time>2019-05-04T10:27:18Z</time>
      </trkpt>
      <trkpt lat="46.83055" lon="6.51219">
        <ele>1313</ele>
        <time>2019-05-04T10:27:22Z</time>
      </trkpt>
      <trkpt lat="46.83052" lon="6.51219">
        <ele>1312</ele>
        <time>2019-05-04T10:27:24Z</time>
      </trkpt>
      <trkpt lat="46.83047" lon="6.5122">
        <ele>1310</ele>
        <time>2019-05-04T10:27:27Z</time>
      </trkpt>
      <trkpt lat="46.83047" lon="6.51215">
        <ele>1310</ele>
        <time>2019-05-04T10:27:30Z</time>
      </trkpt>
      <trkpt lat="46.83046" lon="6.5121">
        <ele>1309</ele>
        <time>2019-05-04T10:27:33Z</time>
      </trkpt>
      <trkpt lat="46.83046" lon="6.51207">
        <ele>1309</ele>
        <time>2019-05-04T10:27:34Z</time>
      </trkpt>
      <trkpt lat="46.83044" lon="6.51203">
        <ele>1308</ele>
        <time>2019-05-04T10:27:36Z</time>
      </trkpt>
      <trkpt lat="46.83043" lon="6.51187">
        <ele>1306</ele>
        <time>2019-05-04T10:27:44Z</time>
      </trkpt>
      <trkpt lat="46.83046" lon="6.51167">
        <ele>1305</ele>
        <time>2019-05-04T10:27:54Z</time>
      </trkpt>
      <trkpt lat="46.83048" lon="6.51151">
        <ele>1304</ele>
        <time>2019-05-04T10:28:03Z</time>
      </trkpt>
      <trkpt lat="46.83049" lon="6.51136">
        <ele>1303</ele>
        <time>2019-05-04T10:28:10Z</time>
      </trkpt>
      <trkpt lat="46.83051" lon="6.51126">
        <ele>1302</ele>
        <time>2019-05-04T10:28:15Z</time>
      </trkpt>
      <trkpt lat="46.83054" lon="6.51116">
        <ele>1302</ele>
        <time>2019-05-04T10:28:20Z</time>
      </trkpt>
      <trkpt lat="46.83056" lon="6.51106">
        <ele>1301</ele>
        <time>2019-05-04T10:28:26Z</time>
      </trkpt>
      <trkpt lat="46.83059" lon="6.51095">
        <ele>1300</ele>
        <time>2019-05-04T10:28:32Z</time>
      </trkpt>
      <trkpt lat="46.83062" lon="6.51089">
        <ele>1300</ele>
        <time>2019-05-04T10:28:35Z</time>
      </trkpt>
      <trkpt lat="46.83063" lon="6.51088">
        <ele>1300</ele>
        <time>2019-05-04T10:28:36Z</time>
      </trkpt>
      <trkpt lat="46.83061" lon="6.51096">
        <ele>1301</ele>
        <time>2019-05-04T10:28:40Z</time>
      </trkpt>
      <trkpt lat="46.8306" lon="6.51099">
        <ele>1301</ele>
        <time>2019-05-04T10:28:42Z</time>
      </trkpt>
      <trkpt lat="46.83058" lon="6.511">
        <ele>1301</ele>
        <time>2019-05-04T10:28:44Z</time>
      </trkpt>
      <trkpt lat="46.83048" lon="6.511">
        <ele>1298</ele>
        <time>2019-05-04T10:28:51Z</time>
      </trkpt>
      <trkpt lat="46.83047" lon="6.511">
        <ele>1298</ele>
        <time>2019-05-04T10:28:52Z</time>
      </trkpt>
      <trkpt lat="46.83045" lon="6.51099">
        <ele>1297</ele>
        <time>2019-05-04T10:28:54Z</time>
      </trkpt>
      <trkpt lat="46.83039" lon="6.51094">
        <ele>1295</ele>
        <time>2019-05-04T10:28:59Z</time>
      </trkpt>
      <trkpt lat="46.83034" lon="6.51088">
        <ele>1292</ele>
        <time>2019-05-04T10:29:04Z</time>
      </trkpt>
      <trkpt lat="46.83031" lon="6.51081">
        <ele>1290</ele>
        <time>2019-05-04T10:29:08Z</time>
      </trkpt>
      <trkpt lat="46.8303" lon="6.51074">
        <ele>1289</ele>
        <time>2019-05-04T10:29:12Z</time>
      </trkpt>
      <trkpt lat="46.8303" lon="6.51072">
        <ele>1289</ele>
        <time>2019-05-04T10:29:13Z</time>
      </trkpt>
      <trkpt lat="46.8303" lon="6.51064">
        <ele>1287</ele>
        <time>2019-05-04T10:29:17Z</time>
      </trkpt>
      <trkpt lat="46.83031" lon="6.51056">
        <ele>1286</ele>
        <time>2019-05-04T10:29:21Z</time>
      </trkpt>
      <trkpt lat="46.8303" lon="6.51048">
        <ele>1285</ele>
        <time>2019-05-04T10:29:25Z</time>
      </trkpt>
      <trkpt lat="46.83028" lon="6.5104">
        <ele>1283</ele>
        <time>2019-05-04T10:29:29Z</time>
      </trkpt>
      <trkpt lat="46.83025" lon="6.51033">
        <ele>1281</ele>
        <time>2019-05-04T10:29:34Z</time>
      </trkpt>
      <trkpt lat="46.83022" lon="6.51026">
        <ele>1279</ele>
        <time>2019-05-04T10:29:38Z</time>
      </trkpt>
      <trkpt lat="46.83021" lon="6.51021">
        <ele>1278</ele>
        <time>2019-05-04T10:29:41Z</time>
      </trkpt>
      <trkpt lat="46.83018" lon="6.51014">
        <ele>1276</ele>
        <time>2019-05-04T10:29:45Z</time>
      </trkpt>
      <trkpt lat="46.83015" lon="6.51004">
        <ele>1274</ele>
        <time>2019-05-04T10:29:50Z</time>
      </trkpt>
      <trkpt lat="46.83014" lon="6.50999">
        <ele>1272</ele>
        <time>2019-05-04T10:29:53Z</time>
      </trkpt>
      <trkpt lat="46.83011" lon="6.50994">
        <ele>1271</ele>
        <time>2019-05-04T10:29:56Z</time>
      </trkpt>
      <trkpt lat="46.83011" lon="6.50987">
        <ele>1269</ele>
        <time>2019-05-04T10:30:00Z</time>
      </trkpt>
      <trkpt lat="46.83011" lon="6.50978">
        <ele>1268</ele>
        <time>2019-05-04T10:30:05Z</time>
      </trkpt>
      <trkpt lat="46.83013" lon="6.50963">
        <ele>1266</ele>
        <time>2019-05-04T10:30:12Z</time>
      </trkpt>
      <trkpt lat="46.83014" lon="6.50959">
        <ele>1265</ele>
        <time>2019-05-04T10:30:15Z</time>
      </trkpt>
      <trkpt lat="46.83014" lon="6.50955">
        <ele>1265</ele>
        <time>2019-05-04T10:30:17Z</time>
      </trkpt>
      <trkpt lat="46.83013" lon="6.50946">
        <ele>1263</ele>
        <time>2019-05-04T10:30:21Z</time>
      </trkpt>
      <trkpt lat="46.83011" lon="6.50937">
        <ele>1261</ele>
        <time>2019-05-04T10:30:26Z</time>
      </trkpt>
      <trkpt lat="46.83011" lon="6.50932">
        <ele>1260</ele>
        <time>2019-05-04T10:30:29Z</time>
      </trkpt>
      <trkpt lat="46.83011" lon="6.50926">
        <ele>1259</ele>
        <time>2019-05-04T10:30:32Z</time>
      </trkpt>
      <trkpt lat="46.83011" lon="6.50921">
        <ele>1258</ele>
        <time>2019-05-04T10:30:34Z</time>
      </trkpt>
      <trkpt lat="46.8301" lon="6.50911">
        <ele>1256</ele>
        <time>2019-05-04T10:30:40Z</time>
      </trkpt>
      <trkpt lat="46.83009" lon="6.50905">
        <ele>1255</ele>
        <time>2019-05-04T10:30:42Z</time>
      </trkpt>
      <trkpt lat="46.83007" lon="6.50894">
        <ele>1252</ele>
        <time>2019-05-04T10:30:49Z</time>
      </trkpt>
      <trkpt lat="46.83006" lon="6.50888">
        <ele>1251</ele>
        <time>2019-05-04T10:30:52Z</time>
      </trkpt>
      <trkpt lat="46.83006" lon="6.50882">
        <ele>1250</ele>
        <time>2019-05-04T10:30:54Z</time>
      </trkpt>
      <trkpt lat="46.83005" lon="6.50878">
        <ele>1249</ele>
        <time>2019-05-04T10:30:57Z</time>
      </trkpt>
      <trkpt lat="46.83003" lon="6.5087">
        <ele>1247</ele>
        <time>2019-05-04T10:31:01Z</time>
      </trkpt>
      <trkpt lat="46.83002" lon="6.50867">
        <ele>1246</ele>
        <time>2019-05-04T10:31:03Z</time>
      </trkpt>
      <trkpt lat="46.83001" lon="6.50863">
        <ele>1245</ele>
        <time>2019-05-04T10:31:05Z</time>
      </trkpt>
      <trkpt lat="46.82998" lon="6.50859">
        <ele>1244</ele>
        <time>2019-05-04T10:31:08Z</time>
      </trkpt>
      <trkpt lat="46.82996" lon="6.50855">
        <ele>1243</ele>
        <time>2019-05-04T10:31:11Z</time>
      </trkpt>
      <trkpt lat="46.82994" lon="6.5085">
        <ele>1243</ele>
        <time>2019-05-04T10:31:13Z</time>
      </trkpt>
      <trkpt lat="46.82993" lon="6.50846">
        <ele>1242</ele>
        <time>2019-05-04T10:31:16Z</time>
      </trkpt>
      <trkpt lat="46.82989" lon="6.50837">
        <ele>1241</ele>
        <time>2019-05-04T10:31:21Z</time>
      </trkpt>
      <trkpt lat="46.82986" lon="6.50827">
        <ele>1240</ele>
        <time>2019-05-04T10:31:27Z</time>
      </trkpt>
      <trkpt lat="46.82983" lon="6.50823">
        <ele>1240</ele>
        <time>2019-05-04T10:31:29Z</time>
      </trkpt>
      <trkpt lat="46.8298" lon="6.50818">
        <ele>1239</ele>
        <time>2019-05-04T10:31:33Z</time>
      </trkpt>
      <trkpt lat="46.82975" lon="6.5081">
        <ele>1238</ele>
        <time>2019-05-04T10:31:38Z</time>
      </trkpt>
      <trkpt lat="46.8297" lon="6.50802">
        <ele>1237</ele>
        <time>2019-05-04T10:31:44Z</time>
      </trkpt>
      <trkpt lat="46.82965" lon="6.50795">
        <ele>1236</ele>
        <time>2019-05-04T10:31:49Z</time>
      </trkpt>
      <trkpt lat="46.82962" lon="6.50788">
        <ele>1235</ele>
        <time>2019-05-04T10:31:53Z</time>
      </trkpt>
      <trkpt lat="46.82956" lon="6.50777">
        <ele>1234</ele>
        <time>2019-05-04T10:31:59Z</time>
      </trkpt>
      <trkpt lat="46.82952" lon="6.50767">
        <ele>1234</ele>
        <time>2019-05-04T10:32:05Z</time>
      </trkpt>
      <trkpt lat="46.82951" lon="6.5076">
        <ele>1234</ele>
        <time>2019-05-04T10:32:09Z</time>
      </trkpt>
      <trkpt lat="46.82946" lon="6.50749">
        <ele>1234</ele>
        <time>2019-05-04T10:32:15Z</time>
      </trkpt>
      <trkpt lat="46.82931" lon="6.50748">
        <ele>1232</ele>
        <time>2019-05-04T10:32:26Z</time>
      </trkpt>
      <trkpt lat="46.82923" lon="6.50746">
        <ele>1231</ele>
        <time>2019-05-04T10:32:32Z</time>
      </trkpt>
      <trkpt lat="46.82917" lon="6.50745">
        <ele>1231</ele>
        <time>2019-05-04T10:32:36Z</time>
      </trkpt>
      <trkpt lat="46.82908" lon="6.50743">
        <ele>1230</ele>
        <time>2019-05-04T10:32:43Z</time>
      </trkpt>
      <trkpt lat="46.82899" lon="6.50741">
        <ele>1228</ele>
        <time>2019-05-04T10:32:50Z</time>
      </trkpt>
      <trkpt lat="46.82893" lon="6.50741">
        <ele>1228</ele>
        <time>2019-05-04T10:32:54Z</time>
      </trkpt>
      <trkpt lat="46.82886" lon="6.50743">
        <ele>1227</ele>
        <time>2019-05-04T10:32:59Z</time>
      </trkpt>
      <trkpt lat="46.8288" lon="6.50743">
        <ele>1226</ele>
        <time>2019-05-04T10:33:03Z</time>
      </trkpt>
      <trkpt lat="46.82871" lon="6.50742">
        <ele>1225</ele>
        <time>2019-05-04T10:33:10Z</time>
      </trkpt>
      <trkpt lat="46.82865" lon="6.50741">
        <ele>1224</ele>
        <time>2019-05-04T10:33:14Z</time>
      </trkpt>
      <trkpt lat="46.82857" lon="6.5074">
        <ele>1222</ele>
        <time>2019-05-04T10:33:20Z</time>
      </trkpt>
      <trkpt lat="46.82846" lon="6.50738">
        <ele>1220</ele>
        <time>2019-05-04T10:33:29Z</time>
      </trkpt>
      <trkpt lat="46.8284" lon="6.50736">
        <ele>1218</ele>
        <time>2019-05-04T10:33:33Z</time>
      </trkpt>
      <trkpt lat="46.82834" lon="6.50734">
        <ele>1217</ele>
        <time>2019-05-04T10:33:38Z</time>
      </trkpt>
      <trkpt lat="46.82823" lon="6.5073">
        <ele>1214</ele>
        <time>2019-05-04T10:33:46Z</time>
      </trkpt>
      <trkpt lat="46.82817" lon="6.50727">
        <ele>1213</ele>
        <time>2019-05-04T10:33:51Z</time>
      </trkpt>
      <trkpt lat="46.82812" lon="6.50723">
        <ele>1212</ele>
        <time>2019-05-04T10:33:55Z</time>
      </trkpt>
      <trkpt lat="46.82808" lon="6.5072">
        <ele>1211</ele>
        <time>2019-05-04T10:33:58Z</time>
      </trkpt>
      <trkpt lat="46.82802" lon="6.50716">
        <ele>1210</ele>
        <time>2019-05-04T10:34:03Z</time>
      </trkpt>
      <trkpt lat="46.82797" lon="6.50713">
        <ele>1209</ele>
        <time>2019-05-04T10:34:07Z</time>
      </trkpt>
      <trkpt lat="46.82791" lon="6.50711">
        <ele>1208</ele>
        <time>2019-05-04T10:34:12Z</time>
      </trkpt>
      <trkpt lat="46.82784" lon="6.50708">
        <ele>1207</ele>
        <time>2019-05-04T10:34:16Z</time>
      </trkpt>
      <trkpt lat="46.82779" lon="6.50705">
        <ele>1205</ele>
        <time>2019-05-04T10:34:21Z</time>
      </trkpt>
      <trkpt lat="46.82773" lon="6.50704">
        <ele>1204</ele>
        <time>2019-05-04T10:34:25Z</time>
      </trkpt>
      <trkpt lat="46.82768" lon="6.50702">
        <ele>1203</ele>
        <time>2019-05-04T10:34:29Z</time>
      </trkpt>
      <trkpt lat="46.82764" lon="6.50699">
        <ele>1202</ele>
        <time>2019-05-04T10:34:32Z</time>
      </trkpt>
      <trkpt lat="46.82759" lon="6.50694">
        <ele>1201</ele>
        <time>2019-05-04T10:34:37Z</time>
      </trkpt>
      <trkpt lat="46.8275" lon="6.50688">
        <ele>1199</ele>
        <time>2019-05-04T10:34:44Z</time>
      </trkpt>
      <trkpt lat="46.82733" lon="6.5068">
        <ele>1195</ele>
        <time>2019-05-04T10:34:57Z</time>
      </trkpt>
      <trkpt lat="46.82724" lon="6.50675">
        <ele>1193</ele>
        <time>2019-05-04T10:35:04Z</time>
      </trkpt>
      <trkpt lat="46.82718" lon="6.50672">
        <ele>1191</ele>
        <time>2019-05-04T10:35:09Z</time>
      </trkpt>
      <trkpt lat="46.82713" lon="6.50669">
        <ele>1190</ele>
        <time>2019-05-04T10:35:13Z</time>
      </trkpt>
      <trkpt lat="46.82707" lon="6.50664">
        <ele>1189</ele>
        <time>2019-05-04T10:35:18Z</time>
      </trkpt>
      <trkpt lat="46.82702" lon="6.5066">
        <ele>1188</ele>
        <time>2019-05-04T10:35:22Z</time>
      </trkpt>
      <trkpt lat="46.82697" lon="6.50657">
        <ele>1187</ele>
        <time>2019-05-04T10:35:26Z</time>
      </trkpt>
      <trkpt lat="46.82692" lon="6.50655">
        <ele>1186</ele>
        <time>2019-05-04T10:35:30Z</time>
      </trkpt>
      <trkpt lat="46.82685" lon="6.50654">
        <ele>1184</ele>
        <time>2019-05-04T10:35:35Z</time>
      </trkpt>
      <trkpt lat="46.82672" lon="6.50649">
        <ele>1181</ele>
        <time>2019-05-04T10:35:45Z</time>
      </trkpt>
      <trkpt lat="46.82659" lon="6.50643">
        <ele>1178</ele>
        <time>2019-05-04T10:35:55Z</time>
      </trkpt>
      <trkpt lat="46.82653" lon="6.50639">
        <ele>1176</ele>
        <time>2019-05-04T10:36:00Z</time>
      </trkpt>
      <trkpt lat="46.82646" lon="6.50636">
        <ele>1175</ele>
        <time>2019-05-04T10:36:05Z</time>
      </trkpt>
      <trkpt lat="46.8264" lon="6.50631">
        <ele>1174</ele>
        <time>2019-05-04T10:36:10Z</time>
      </trkpt>
      <trkpt lat="46.82634" lon="6.50627">
        <ele>1172</ele>
        <time>2019-05-04T10:36:15Z</time>
      </trkpt>
      <trkpt lat="46.82625" lon="6.50619">
        <ele>1170</ele>
        <time>2019-05-04T10:36:23Z</time>
      </trkpt>
      <trkpt lat="46.82616" lon="6.50614">
        <ele>1168</ele>
        <time>2019-05-04T10:36:30Z</time>
      </trkpt>
      <trkpt lat="46.82608" lon="6.50608">
        <ele>1166</ele>
        <time>2019-05-04T10:36:37Z</time>
      </trkpt>
      <trkpt lat="46.82602" lon="6.50605">
        <ele>1164</ele>
        <time>2019-05-04T10:36:42Z</time>
      </trkpt>
      <trkpt lat="46.82596" lon="6.50601">
        <ele>1163</ele>
        <time>2019-05-04T10:36:47Z</time>
      </trkpt>
      <trkpt lat="46.8259" lon="6.50597">
        <ele>1161</ele>
        <time>2019-05-04T10:36:51Z</time>
      </trkpt>
      <trkpt lat="46.82584" lon="6.50593">
        <ele>1160</ele>
        <time>2019-05-04T10:36:56Z</time>
      </trkpt>
      <trkpt lat="46.82578" lon="6.5059">
        <ele>1158</ele>
        <time>2019-05-04T10:37:01Z</time>
      </trkpt>
      <trkpt lat="46.82577" lon="6.5059">
        <ele>1158</ele>
        <time>2019-05-04T10:37:02Z</time>
      </trkpt>
      <trkpt lat="46.82577" lon="6.5059">
        <ele>1157</ele>
        <time>2019-05-04T10:37:02Z</time>
      </trkpt>
      <trkpt lat="46.82577" lon="6.5059">
        <ele>1157</ele>
        <time>2019-05-04T10:37:02Z</time>
      </trkpt>
      <trkpt lat="46.82577" lon="6.5059">
        <ele>1157</ele>
        <time>2019-05-04T10:37:03Z</time>
      </trkpt>
      <trkpt lat="46.82575" lon="6.50599">
        <ele>1156</ele>
        <time>2019-05-04T10:37:07Z</time>
      </trkpt>
      <trkpt lat="46.8257" lon="6.50591">
        <ele>1155</ele>
        <time>2019-05-04T10:37:13Z</time>
      </trkpt>
      <trkpt lat="46.82556" lon="6.50581">
        <ele>1151</ele>
        <time>2019-05-04T10:37:24Z</time>
      </trkpt>
      <trkpt lat="46.82548" lon="6.50576">
        <ele>1149</ele>
        <time>2019-05-04T10:37:30Z</time>
      </trkpt>
      <trkpt lat="46.82537" lon="6.50569">
        <ele>1146</ele>
        <time>2019-05-04T10:37:40Z</time>
      </trkpt>
      <trkpt lat="46.8253" lon="6.50563">
        <ele>1144</ele>
        <time>2019-05-04T10:37:45Z</time>
      </trkpt>
      <trkpt lat="46.82523" lon="6.50559">
        <ele>1142</ele>
        <time>2019-05-04T10:37:51Z</time>
      </trkpt>
      <trkpt lat="46.82515" lon="6.50553">
        <ele>1140</ele>
        <time>2019-05-04T10:37:57Z</time>
      </trkpt>
      <trkpt lat="46.82508" lon="6.50548">
        <ele>1138</ele>
        <time>2019-05-04T10:38:03Z</time>
      </trkpt>
      <trkpt lat="46.82501" lon="6.50541">
        <ele>1137</ele>
        <time>2019-05-04T10:38:09Z</time>
      </trkpt>
      <trkpt lat="46.82495" lon="6.50535">
        <ele>1135</ele>
        <time>2019-05-04T10:38:15Z</time>
      </trkpt>
      <trkpt lat="46.82491" lon="6.50532">
        <ele>1134</ele>
        <time>2019-05-04T10:38:18Z</time>
      </trkpt>
      <trkpt lat="46.82488" lon="6.50529">
        <ele>1133</ele>
        <time>2019-05-04T10:38:21Z</time>
      </trkpt>
      <trkpt lat="46.82482" lon="6.50523">
        <ele>1131</ele>
        <time>2019-05-04T10:38:26Z</time>
      </trkpt>
      <trkpt lat="46.82479" lon="6.5052">
        <ele>1131</ele>
        <time>2019-05-04T10:38:29Z</time>
      </trkpt>
      <trkpt lat="46.82476" lon="6.50517">
        <ele>1130</ele>
        <time>2019-05-04T10:38:31Z</time>
      </trkpt>
      <trkpt lat="46.82474" lon="6.50514">
        <ele>1129</ele>
        <time>2019-05-04T10:38:34Z</time>
      </trkpt>
      <trkpt lat="46.82469" lon="6.50507">
        <ele>1128</ele>
        <time>2019-05-04T10:38:39Z</time>
      </trkpt>
      <trkpt lat="46.82464" lon="6.50501">
        <ele>1127</ele>
        <time>2019-05-04T10:38:43Z</time>
      </trkpt>
      <trkpt lat="46.82458" lon="6.50497">
        <ele>1125</ele>
        <time>2019-05-04T10:38:48Z</time>
      </trkpt>
      <trkpt lat="46.82452" lon="6.50492">
        <ele>1124</ele>
        <time>2019-05-04T10:38:53Z</time>
      </trkpt>
      <trkpt lat="46.82447" lon="6.50486">
        <ele>1123</ele>
        <time>2019-05-04T10:38:58Z</time>
      </trkpt>
      <trkpt lat="46.82441" lon="6.50481">
        <ele>1122</ele>
        <time>2019-05-04T10:39:03Z</time>
      </trkpt>
      <trkpt lat="46.82436" lon="6.50476">
        <ele>1121</ele>
        <time>2019-05-04T10:39:08Z</time>
      </trkpt>
      <trkpt lat="46.8243" lon="6.5047">
        <ele>1120</ele>
        <time>2019-05-04T10:39:13Z</time>
      </trkpt>
      <trkpt lat="46.82424" lon="6.50465">
        <ele>1119</ele>
        <time>2019-05-04T10:39:18Z</time>
      </trkpt>
      <trkpt lat="46.82416" lon="6.50459">
        <ele>1117</ele>
        <time>2019-05-04T10:39:24Z</time>
      </trkpt>
      <trkpt lat="46.82408" lon="6.50453">
        <ele>1115</ele>
        <time>2019-05-04T10:39:31Z</time>
      </trkpt>
      <trkpt lat="46.824" lon="6.50447">
        <ele>1114</ele>
        <time>2019-05-04T10:39:38Z</time>
      </trkpt>
      <trkpt lat="46.82393" lon="6.50441">
        <ele>1112</ele>
        <time>2019-05-04T10:39:43Z</time>
      </trkpt>
      <trkpt lat="46.82389" lon="6.50437">
        <ele>1111</ele>
        <time>2019-05-04T10:39:47Z</time>
      </trkpt>
      <trkpt lat="46.82384" lon="6.50433">
        <ele>1110</ele>
        <time>2019-05-04T10:39:51Z</time>
      </trkpt>
      <trkpt lat="46.82379" lon="6.50429">
        <ele>1108</ele>
        <time>2019-05-04T10:39:55Z</time>
      </trkpt>
      <trkpt lat="46.82374" lon="6.50425">
        <ele>1107</ele>
        <time>2019-05-04T10:40:00Z</time>
      </trkpt>
      <trkpt lat="46.82369" lon="6.50421">
        <ele>1106</ele>
        <time>2019-05-04T10:40:04Z</time>
      </trkpt>
      <trkpt lat="46.82364" lon="6.50417">
        <ele>1105</ele>
        <time>2019-05-04T10:40:09Z</time>
      </trkpt>
      <trkpt lat="46.82358" lon="6.50412">
        <ele>1104</ele>
        <time>2019-05-04T10:40:13Z</time>
      </trkpt>
      <trkpt lat="46.82353" lon="6.50408">
        <ele>1102</ele>
        <time>2019-05-04T10:40:18Z</time>
      </trkpt>
      <trkpt lat="46.82344" lon="6.50402">
        <ele>1101</ele>
        <time>2019-05-04T10:40:25Z</time>
      </trkpt>
      <trkpt lat="46.82338" lon="6.50398">
        <ele>1100</ele>
        <time>2019-05-04T10:40:29Z</time>
      </trkpt>
      <trkpt lat="46.82333" lon="6.50395">
        <ele>1099</ele>
        <time>2019-05-04T10:40:33Z</time>
      </trkpt>
      <trkpt lat="46.82328" lon="6.50392">
        <ele>1098</ele>
        <time>2019-05-04T10:40:37Z</time>
      </trkpt>
      <trkpt lat="46.82323" lon="6.50388">
        <ele>1097</ele>
        <time>2019-05-04T10:40:41Z</time>
      </trkpt>
      <trkpt lat="46.82317" lon="6.50382">
        <ele>1096</ele>
        <time>2019-05-04T10:40:47Z</time>
      </trkpt>
      <trkpt lat="46.82313" lon="6.50377">
        <ele>1095</ele>
        <time>2019-05-04T10:40:51Z</time>
      </trkpt>
      <trkpt lat="46.82309" lon="6.50373">
        <ele>1094</ele>
        <time>2019-05-04T10:40:54Z</time>
      </trkpt>
      <trkpt lat="46.82306" lon="6.50368">
        <ele>1094</ele>
        <time>2019-05-04T10:40:58Z</time>
      </trkpt>
      <trkpt lat="46.82303" lon="6.5036">
        <ele>1093</ele>
        <time>2019-05-04T10:41:02Z</time>
      </trkpt>
      <trkpt lat="46.82301" lon="6.50351">
        <ele>1093</ele>
        <time>2019-05-04T10:41:07Z</time>
      </trkpt>
      <trkpt lat="46.82299" lon="6.50344">
        <ele>1093</ele>
        <time>2019-05-04T10:41:11Z</time>
      </trkpt>
      <trkpt lat="46.82295" lon="6.50334">
        <ele>1092</ele>
        <time>2019-05-04T10:41:17Z</time>
      </trkpt>
      <trkpt lat="46.82292" lon="6.50324">
        <ele>1091</ele>
        <time>2019-05-04T10:41:22Z</time>
      </trkpt>
      <trkpt lat="46.82286" lon="6.50319">
        <ele>1090</ele>
        <time>2019-05-04T10:41:27Z</time>
      </trkpt>
      <trkpt lat="46.82284" lon="6.5032">
        <ele>1090</ele>
        <time>2019-05-04T10:41:29Z</time>
      </trkpt>
      <trkpt lat="46.82279" lon="6.5032">
        <ele>1089</ele>
        <time>2019-05-04T10:41:32Z</time>
      </trkpt>
      <trkpt lat="46.82274" lon="6.50318">
        <ele>1089</ele>
        <time>2019-05-04T10:41:36Z</time>
      </trkpt>
      <trkpt lat="46.82268" lon="6.50318">
        <ele>1088</ele>
        <time>2019-05-04T10:41:40Z</time>
      </trkpt>
      <trkpt lat="46.82261" lon="6.50313">
        <ele>1088</ele>
        <time>2019-05-04T10:41:46Z</time>
      </trkpt>
      <trkpt lat="46.82257" lon="6.50306">
        <ele>1087</ele>
        <time>2019-05-04T10:41:51Z</time>
      </trkpt>
      <trkpt lat="46.82255" lon="6.50301">
        <ele>1087</ele>
        <time>2019-05-04T10:41:53Z</time>
      </trkpt>
      <trkpt lat="46.82253" lon="6.50299">
        <ele>1087</ele>
        <time>2019-05-04T10:41:55Z</time>
      </trkpt>
      <trkpt lat="46.82247" lon="6.50291">
        <ele>1087</ele>
        <time>2019-05-04T10:42:01Z</time>
      </trkpt>
      <trkpt lat="46.82238" lon="6.50282">
        <ele>1086</ele>
        <time>2019-05-04T10:42:09Z</time>
      </trkpt>
      <trkpt lat="46.82226" lon="6.50272">
        <ele>1085</ele>
        <time>2019-05-04T10:42:19Z</time>
      </trkpt>
      <trkpt lat="46.82223" lon="6.50267">
        <ele>1084</ele>
        <time>2019-05-04T10:42:23Z</time>
      </trkpt>
      <trkpt lat="46.82219" lon="6.50261">
        <ele>1084</ele>
        <time>2019-05-04T10:42:26Z</time>
      </trkpt>
      <trkpt lat="46.82211" lon="6.50253">
        <ele>1083</ele>
        <time>2019-05-04T10:42:34Z</time>
      </trkpt>
      <trkpt lat="46.82204" lon="6.50247">
        <ele>1082</ele>
        <time>2019-05-04T10:42:40Z</time>
      </trkpt>
      <trkpt lat="46.82195" lon="6.50233">
        <ele>1081</ele>
        <time>2019-05-04T10:42:49Z</time>
      </trkpt>
      <trkpt lat="46.8219" lon="6.50228">
        <ele>1080</ele>
        <time>2019-05-04T10:42:54Z</time>
      </trkpt>
      <trkpt lat="46.82188" lon="6.50226">
        <ele>1080</ele>
        <time>2019-05-04T10:42:55Z</time>
      </trkpt>
      <trkpt lat="46.82185" lon="6.50222">
        <ele>1080</ele>
        <time>2019-05-04T10:42:58Z</time>
      </trkpt>
      <trkpt lat="46.82186" lon="6.5022">
        <ele>1080</ele>
        <time>2019-05-04T10:42:59Z</time>
      </trkpt>
      <trkpt lat="46.82187" lon="6.50215">
        <ele>1080</ele>
        <time>2019-05-04T10:43:02Z</time>
      </trkpt>
      <trkpt lat="46.82194" lon="6.50203">
        <ele>1080</ele>
        <time>2019-05-04T10:43:09Z</time>
      </trkpt>
      <trkpt lat="46.82195" lon="6.50207">
        <ele>1080</ele>
        <time>2019-05-04T10:43:12Z</time>
      </trkpt>
      <trkpt lat="46.82195" lon="6.5021">
        <ele>1080</ele>
        <time>2019-05-04T10:43:13Z</time>
      </trkpt>
      <trkpt lat="46.82199" lon="6.50219">
        <ele>1081</ele>
        <time>2019-05-04T10:43:18Z</time>
      </trkpt>
      <trkpt lat="46.82205" lon="6.50231">
        <ele>1081</ele>
        <time>2019-05-04T10:43:25Z</time>
      </trkpt>
      <trkpt lat="46.82205" lon="6.50232">
        <ele>1082</ele>
        <time>2019-05-04T10:43:26Z</time>
      </trkpt>
      <trkpt lat="46.82206" lon="6.50236">
        <ele>1082</ele>
        <time>2019-05-04T10:43:28Z</time>
      </trkpt>
      <trkpt lat="46.82212" lon="6.50244">
        <ele>1082</ele>
        <time>2019-05-04T10:43:34Z</time>
      </trkpt>
      <trkpt lat="46.82216" lon="6.50245">
        <ele>1083</ele>
        <time>2019-05-04T10:43:37Z</time>
      </trkpt>
      <trkpt lat="46.82227" lon="6.50256">
        <ele>1084</ele>
        <time>2019-05-04T10:43:47Z</time>
      </trkpt>
      <trkpt lat="46.82228" lon="6.50259">
        <ele>1084</ele>
        <time>2019-05-04T10:43:48Z</time>
      </trkpt>
      <trkpt lat="46.8223" lon="6.50264">
        <ele>1085</ele>
        <time>2019-05-04T10:43:51Z</time>
      </trkpt>
      <trkpt lat="46.82232" lon="6.50266">
        <ele>1085</ele>
        <time>2019-05-04T10:43:53Z</time>
      </trkpt>
      <trkpt lat="46.82234" lon="6.50268">
        <ele>1085</ele>
        <time>2019-05-04T10:43:55Z</time>
      </trkpt>
      <trkpt lat="46.8224" lon="6.50273">
        <ele>1086</ele>
        <time>2019-05-04T10:44:00Z</time>
      </trkpt>
      <trkpt lat="46.82249" lon="6.5028">
        <ele>1087</ele>
        <time>2019-05-04T10:44:07Z</time>
      </trkpt>
      <trkpt lat="46.82254" lon="6.50285">
        <ele>1087</ele>
        <time>2019-05-04T10:44:12Z</time>
      </trkpt>
      <trkpt lat="46.82255" lon="6.50286">
        <ele>1087</ele>
        <time>2019-05-04T10:44:13Z</time>
      </trkpt>
      <trkpt lat="46.82256" lon="6.50285">
        <ele>1088</ele>
        <time>2019-05-04T10:44:14Z</time>
      </trkpt>
      <trkpt lat="46.82258" lon="6.50283">
        <ele>1088</ele>
        <time>2019-05-04T10:44:16Z</time>
      </trkpt>
      <trkpt lat="46.82263" lon="6.50277">
        <ele>1088</ele>
        <time>2019-05-04T10:44:20Z</time>
      </trkpt>
      <trkpt lat="46.82268" lon="6.50259">
        <ele>1088</ele>
        <time>2019-05-04T10:44:30Z</time>
      </trkpt>
      <trkpt lat="46.82264" lon="6.50256">
        <ele>1087</ele>
        <time>2019-05-04T10:44:33Z</time>
      </trkpt>
      <trkpt lat="46.82267" lon="6.50252">
        <ele>1087</ele>
        <time>2019-05-04T10:44:36Z</time>
      </trkpt>
      <trkpt lat="46.8227" lon="6.50248">
        <ele>1087</ele>
        <time>2019-05-04T10:44:38Z</time>
      </trkpt>
      <trkpt lat="46.82276" lon="6.50239">
        <ele>1087</ele>
        <time>2019-05-04T10:44:44Z</time>
      </trkpt>
      <trkpt lat="46.82279" lon="6.5024">
        <ele>1087</ele>
        <time>2019-05-04T10:44:47Z</time>
      </trkpt>
      <trkpt lat="46.82282" lon="6.50241">
        <ele>1088</ele>
        <time>2019-05-04T10:44:49Z</time>
      </trkpt>
      <trkpt lat="46.82285" lon="6.50245">
        <ele>1088</ele>
        <time>2019-05-04T10:44:52Z</time>
      </trkpt>
      <trkpt lat="46.82296" lon="6.50254">
        <ele>1090</ele>
        <time>2019-05-04T10:45:01Z</time>
      </trkpt>
      <trkpt lat="46.82299" lon="6.50255">
        <ele>1090</ele>
        <time>2019-05-04T10:45:03Z</time>
      </trkpt>
      <trkpt lat="46.82303" lon="6.5026">
        <ele>1091</ele>
        <time>2019-05-04T10:45:07Z</time>
      </trkpt>
      <trkpt lat="46.82304" lon="6.50313">
        <ele>1093</ele>
        <time>2019-05-04T10:45:33Z</time>
      </trkpt>
      <trkpt lat="46.82299" lon="6.5032">
        <ele>1092</ele>
        <time>2019-05-04T10:45:39Z</time>
      </trkpt>
      <trkpt lat="46.82303" lon="6.50313">
        <ele>1093</ele>
        <time>2019-05-04T10:45:43Z</time>
      </trkpt>
      <trkpt lat="46.823" lon="6.50315">
        <ele>1092</ele>
        <time>2019-05-04T10:45:46Z</time>
      </trkpt>
      <trkpt lat="46.82286" lon="6.50327">
        <ele>1090</ele>
        <time>2019-05-04T10:45:57Z</time>
      </trkpt>
      <trkpt lat="46.82284" lon="6.50326">
        <ele>1090</ele>
        <time>2019-05-04T10:45:59Z</time>
      </trkpt>
      <trkpt lat="46.8228" lon="6.50322">
        <ele>1089</ele>
        <time>2019-05-04T10:46:03Z</time>
      </trkpt>
      <trkpt lat="46.82274" lon="6.50319">
        <ele>1089</ele>
        <time>2019-05-04T10:46:07Z</time>
      </trkpt>
      <trkpt lat="46.82265" lon="6.5032">
        <ele>1088</ele>
        <time>2019-05-04T10:46:14Z</time>
      </trkpt>
      <trkpt lat="46.82261" lon="6.50315">
        <ele>1088</ele>
        <time>2019-05-04T10:46:17Z</time>
      </trkpt>
      <trkpt lat="46.82257" lon="6.50309">
        <ele>1087</ele>
        <time>2019-05-04T10:46:21Z</time>
      </trkpt>
      <trkpt lat="46.82255" lon="6.50308">
        <ele>1087</ele>
        <time>2019-05-04T10:46:23Z</time>
      </trkpt>
      <trkpt lat="46.8225" lon="6.50305">
        <ele>1087</ele>
        <time>2019-05-04T10:46:27Z</time>
      </trkpt>
      <trkpt lat="46.82248" lon="6.50304">
        <ele>1086</ele>
        <time>2019-05-04T10:46:29Z</time>
      </trkpt>
      <trkpt lat="46.8224" lon="6.50292">
        <ele>1086</ele>
        <time>2019-05-04T10:46:37Z</time>
      </trkpt>
      <trkpt lat="46.82232" lon="6.50283">
        <ele>1085</ele>
        <time>2019-05-04T10:46:44Z</time>
      </trkpt>
      <trkpt lat="46.8223" lon="6.50278">
        <ele>1085</ele>
        <time>2019-05-04T10:46:47Z</time>
      </trkpt>
      <trkpt lat="46.82229" lon="6.50267">
        <ele>1085</ele>
        <time>2019-05-04T10:46:53Z</time>
      </trkpt>
      <trkpt lat="46.82211" lon="6.50252">
        <ele>1083</ele>
        <time>2019-05-04T10:47:08Z</time>
      </trkpt>
      <trkpt lat="46.82205" lon="6.50248">
        <ele>1082</ele>
        <time>2019-05-04T10:47:12Z</time>
      </trkpt>
      <trkpt lat="46.82201" lon="6.5024">
        <ele>1081</ele>
        <time>2019-05-04T10:47:17Z</time>
      </trkpt>
      <trkpt lat="46.82184" lon="6.50237">
        <ele>1080</ele>
        <time>2019-05-04T10:47:30Z</time>
      </trkpt>
      <trkpt lat="46.82181" lon="6.50238">
        <ele>1080</ele>
        <time>2019-05-04T10:47:32Z</time>
      </trkpt>
      <trkpt lat="46.82179" lon="6.50241">
        <ele>1080</ele>
        <time>2019-05-04T10:47:34Z</time>
      </trkpt>
      <trkpt lat="46.82179" lon="6.50244">
        <ele>1080</ele>
        <time>2019-05-04T10:47:36Z</time>
      </trkpt>
      <trkpt lat="46.82177" lon="6.50254">
        <ele>1080</ele>
        <time>2019-05-04T10:47:41Z</time>
      </trkpt>
      <trkpt lat="46.82175" lon="6.5027">
        <ele>1080</ele>
        <time>2019-05-04T10:47:49Z</time>
      </trkpt>
      <trkpt lat="46.82175" lon="6.50267">
        <ele>1080</ele>
        <time>2019-05-04T10:47:50Z</time>
      </trkpt>
      <trkpt lat="46.8217" lon="6.50262">
        <ele>1079</ele>
        <time>2019-05-04T10:47:54Z</time>
      </trkpt>
      <trkpt lat="46.82152" lon="6.50269">
        <ele>1078</ele>
        <time>2019-05-04T10:48:08Z</time>
      </trkpt>
      <trkpt lat="46.8214" lon="6.50273">
        <ele>1077</ele>
        <time>2019-05-04T10:48:17Z</time>
      </trkpt>
      <trkpt lat="46.82135" lon="6.50275">
        <ele>1076</ele>
        <time>2019-05-04T10:48:21Z</time>
      </trkpt>
      <trkpt lat="46.82125" lon="6.50281">
        <ele>1075</ele>
        <time>2019-05-04T10:48:28Z</time>
      </trkpt>
      <trkpt lat="46.82114" lon="6.50279">
        <ele>1074</ele>
        <time>2019-05-04T10:48:36Z</time>
      </trkpt>
      <trkpt lat="46.82111" lon="6.50276">
        <ele>1074</ele>
        <time>2019-05-04T10:48:39Z</time>
      </trkpt>
      <trkpt lat="46.82093" lon="6.50277">
        <ele>1073</ele>
        <time>2019-05-04T10:48:52Z</time>
      </trkpt>
      <trkpt lat="46.82091" lon="6.50278">
        <ele>1073</ele>
        <time>2019-05-04T10:48:54Z</time>
      </trkpt>
      <trkpt lat="46.82074" lon="6.50291">
        <ele>1073</ele>
        <time>2019-05-04T10:49:07Z</time>
      </trkpt>
      <trkpt lat="46.82066" lon="6.50295">
        <ele>1072</ele>
        <time>2019-05-04T10:49:14Z</time>
      </trkpt>
      <trkpt lat="46.82063" lon="6.50294">
        <ele>1072</ele>
        <time>2019-05-04T10:49:15Z</time>
      </trkpt>
      <trkpt lat="46.82059" lon="6.50287">
        <ele>1072</ele>
        <time>2019-05-04T10:49:20Z</time>
      </trkpt>
      <trkpt lat="46.82056" lon="6.50281">
        <ele>1072</ele>
        <time>2019-05-04T10:49:24Z</time>
      </trkpt>
      <trkpt lat="46.82041" lon="6.50261">
        <ele>1072</ele>
        <time>2019-05-04T10:49:38Z</time>
      </trkpt>
      <trkpt lat="46.82025" lon="6.50247">
        <ele>1071</ele>
        <time>2019-05-04T10:49:52Z</time>
      </trkpt>
      <trkpt lat="46.82022" lon="6.50245">
        <ele>1071</ele>
        <time>2019-05-04T10:49:55Z</time>
      </trkpt>
      <trkpt lat="46.82013" lon="6.50234">
        <ele>1071</ele>
        <time>2019-05-04T10:50:03Z</time>
      </trkpt>
      <trkpt lat="46.82004" lon="6.50221">
        <ele>1071</ele>
        <time>2019-05-04T10:50:12Z</time>
      </trkpt>
      <trkpt lat="46.82001" lon="6.50209">
        <ele>1071</ele>
        <time>2019-05-04T10:50:18Z</time>
      </trkpt>
      <trkpt lat="46.81992" lon="6.50185">
        <ele>1070</ele>
        <time>2019-05-04T10:50:32Z</time>
      </trkpt>
      <trkpt lat="46.8199" lon="6.50183">
        <ele>1070</ele>
        <time>2019-05-04T10:50:33Z</time>
      </trkpt>
      <trkpt lat="46.81973" lon="6.50171">
        <ele>1069</ele>
        <time>2019-05-04T10:50:47Z</time>
      </trkpt>
      <trkpt lat="46.81966" lon="6.50164">
        <ele>1068</ele>
        <time>2019-05-04T10:50:53Z</time>
      </trkpt>
      <trkpt lat="46.8196" lon="6.50154">
        <ele>1067</ele>
        <time>2019-05-04T10:51:00Z</time>
      </trkpt>
      <trkpt lat="46.81954" lon="6.50147">
        <ele>1067</ele>
        <time>2019-05-04T10:51:05Z</time>
      </trkpt>
      <trkpt lat="46.81952" lon="6.50147">
        <ele>1067</ele>
        <time>2019-05-04T10:51:07Z</time>
      </trkpt>
      <trkpt lat="46.8195" lon="6.50134">
        <ele>1066</ele>
        <time>2019-05-04T10:51:13Z</time>
      </trkpt>
      <trkpt lat="46.81949" lon="6.50136">
        <ele>1066</ele>
        <time>2019-05-04T10:51:14Z</time>
      </trkpt>
      <trkpt lat="46.81948" lon="6.50147">
        <ele>1067</ele>
        <time>2019-05-04T10:51:20Z</time>
      </trkpt>
      <trkpt lat="46.81935" lon="6.50148">
        <ele>1066</ele>
        <time>2019-05-04T10:51:29Z</time>
      </trkpt>
      <trkpt lat="46.81925" lon="6.50161">
        <ele>1066</ele>
        <time>2019-05-04T10:51:39Z</time>
      </trkpt>
      <trkpt lat="46.81908" lon="6.50157">
        <ele>1065</ele>
        <time>2019-05-04T10:51:51Z</time>
      </trkpt>
      <trkpt lat="46.8189" lon="6.50148">
        <ele>1064</ele>
        <time>2019-05-04T10:52:05Z</time>
      </trkpt>
      <trkpt lat="46.81875" lon="6.50143">
        <ele>1063</ele>
        <time>2019-05-04T10:52:16Z</time>
      </trkpt>
      <trkpt lat="46.81864" lon="6.50141">
        <ele>1063</ele>
        <time>2019-05-04T10:52:24Z</time>
      </trkpt>
      <trkpt lat="46.81846" lon="6.50137">
        <ele>1061</ele>
        <time>2019-05-04T10:52:38Z</time>
      </trkpt>
      <trkpt lat="46.81835" lon="6.50134">
        <ele>1060</ele>
        <time>2019-05-04T10:52:46Z</time>
      </trkpt>
      <trkpt lat="46.81823" lon="6.50131">
        <ele>1059</ele>
        <time>2019-05-04T10:52:54Z</time>
      </trkpt>
      <trkpt lat="46.81806" lon="6.50126">
        <ele>1057</ele>
        <time>2019-05-04T10:53:07Z</time>
      </trkpt>
      <trkpt lat="46.81788" lon="6.50116">
        <ele>1056</ele>
        <time>2019-05-04T10:53:21Z</time>
      </trkpt>
      <trkpt lat="46.81779" lon="6.50111">
        <ele>1055</ele>
        <time>2019-05-04T10:53:28Z</time>
      </trkpt>
      <trkpt lat="46.81763" lon="6.50101">
        <ele>1053</ele>
        <time>2019-05-04T10:53:40Z</time>
      </trkpt>
      <trkpt lat="46.81752" lon="6.50094">
        <ele>1052</ele>
        <time>2019-05-04T10:53:49Z</time>
      </trkpt>
      <trkpt lat="46.81741" lon="6.50087">
        <ele>1051</ele>
        <time>2019-05-04T10:53:58Z</time>
      </trkpt>
      <trkpt lat="46.81727" lon="6.50079">
        <ele>1050</ele>
        <time>2019-05-04T10:54:09Z</time>
      </trkpt>
      <trkpt lat="46.81716" lon="6.50072">
        <ele>1049</ele>
        <time>2019-05-04T10:54:17Z</time>
      </trkpt>
      <trkpt lat="46.81698" lon="6.50073">
        <ele>1048</ele>
        <time>2019-05-04T10:54:31Z</time>
      </trkpt>
      <trkpt lat="46.81688" lon="6.50073">
        <ele>1047</ele>
        <time>2019-05-04T10:54:37Z</time>
      </trkpt>
      <trkpt lat="46.81679" lon="6.50065">
        <ele>1047</ele>
        <time>2019-05-04T10:54:45Z</time>
      </trkpt>
      <trkpt lat="46.81663" lon="6.50046">
        <ele>1046</ele>
        <time>2019-05-04T10:55:00Z</time>
      </trkpt>
      <trkpt lat="46.81659" lon="6.50041">
        <ele>1045</ele>
        <time>2019-05-04T10:55:04Z</time>
      </trkpt>
      <trkpt lat="46.81651" lon="6.50033">
        <ele>1045</ele>
        <time>2019-05-04T10:55:11Z</time>
      </trkpt>
      <trkpt lat="46.81635" lon="6.50016">
        <ele>1044</ele>
        <time>2019-05-04T10:55:25Z</time>
      </trkpt>
      <trkpt lat="46.81621" lon="6.50007">
        <ele>1043</ele>
        <time>2019-05-04T10:55:36Z</time>
      </trkpt>
      <trkpt lat="46.81614" lon="6.50001">
        <ele>1043</ele>
        <time>2019-05-04T10:55:42Z</time>
      </trkpt>
      <trkpt lat="46.81611" lon="6.49997">
        <ele>1043</ele>
        <time>2019-05-04T10:55:45Z</time>
      </trkpt>
      <trkpt lat="46.81594" lon="6.49985">
        <ele>1041</ele>
        <time>2019-05-04T10:55:59Z</time>
      </trkpt>
      <trkpt lat="46.81588" lon="6.4997">
        <ele>1041</ele>
        <time>2019-05-04T10:56:07Z</time>
      </trkpt>
      <trkpt lat="46.81583" lon="6.4994">
        <ele>1041</ele>
        <time>2019-05-04T10:56:23Z</time>
      </trkpt>
      <trkpt lat="46.81577" lon="6.49914">
        <ele>1041</ele>
        <time>2019-05-04T10:56:36Z</time>
      </trkpt>
      <trkpt lat="46.81569" lon="6.4989">
        <ele>1040</ele>
        <time>2019-05-04T10:56:49Z</time>
      </trkpt>
      <trkpt lat="46.81562" lon="6.49873">
        <ele>1039</ele>
        <time>2019-05-04T10:56:59Z</time>
      </trkpt>
      <trkpt lat="46.8155" lon="6.49854">
        <ele>1038</ele>
        <time>2019-05-04T10:57:12Z</time>
      </trkpt>
      <trkpt lat="46.81539" lon="6.49831">
        <ele>1038</ele>
        <time>2019-05-04T10:57:26Z</time>
      </trkpt>
      <trkpt lat="46.81531" lon="6.49815">
        <ele>1037</ele>
        <time>2019-05-04T10:57:36Z</time>
      </trkpt>
      <trkpt lat="46.81527" lon="6.49809">
        <ele>1037</ele>
        <time>2019-05-04T10:57:40Z</time>
      </trkpt>
      <trkpt lat="46.81524" lon="6.49798">
        <ele>1038</ele>
        <time>2019-05-04T10:57:46Z</time>
      </trkpt>
      <trkpt lat="46.81517" lon="6.49772">
        <ele>1039</ele>
        <time>2019-05-04T10:58:00Z</time>
      </trkpt>
      <trkpt lat="46.81511" lon="6.49752">
        <ele>1040</ele>
        <time>2019-05-04T10:58:11Z</time>
      </trkpt>
      <trkpt lat="46.81507" lon="6.49747">
        <ele>1041</ele>
        <time>2019-05-04T10:58:15Z</time>
      </trkpt>
      <trkpt lat="46.8149" lon="6.49747">
        <ele>1042</ele>
        <time>2019-05-04T10:58:27Z</time>
      </trkpt>
      <trkpt lat="46.81475" lon="6.49753">
        <ele>1042</ele>
        <time>2019-05-04T10:58:38Z</time>
      </trkpt>
      <trkpt lat="46.81458" lon="6.49765">
        <ele>1043</ele>
        <time>2019-05-04T10:58:52Z</time>
      </trkpt>
      <trkpt lat="46.81446" lon="6.49772">
        <ele>1043</ele>
        <time>2019-05-04T10:59:01Z</time>
      </trkpt>
      <trkpt lat="46.81428" lon="6.49778">
        <ele>1042</ele>
        <time>2019-05-04T10:59:15Z</time>
      </trkpt>
      <trkpt lat="46.81415" lon="6.49776">
        <ele>1042</ele>
        <time>2019-05-04T10:59:24Z</time>
      </trkpt>
      <trkpt lat="46.81408" lon="6.49775">
        <ele>1042</ele>
        <time>2019-05-04T10:59:29Z</time>
      </trkpt>
      <trkpt lat="46.81398" lon="6.49771">
        <ele>1041</ele>
        <time>2019-05-04T10:59:37Z</time>
      </trkpt>
      <trkpt lat="46.8138" lon="6.49765">
        <ele>1041</ele>
        <time>2019-05-04T10:59:50Z</time>
      </trkpt>
      <trkpt lat="46.81362" lon="6.49759">
        <ele>1041</ele>
        <time>2019-05-04T11:00:03Z</time>
      </trkpt>
      <trkpt lat="46.8136" lon="6.49758">
        <ele>1041</ele>
        <time>2019-05-04T11:00:05Z</time>
      </trkpt>
      <trkpt lat="46.81342" lon="6.49749">
        <ele>1041</ele>
        <time>2019-05-04T11:00:18Z</time>
      </trkpt>
      <trkpt lat="46.81337" lon="6.49744">
        <ele>1041</ele>
        <time>2019-05-04T11:00:23Z</time>
      </trkpt>
      <trkpt lat="46.81328" lon="6.49736">
        <ele>1041</ele>
        <time>2019-05-04T11:00:30Z</time>
      </trkpt>
      <trkpt lat="46.81323" lon="6.49733">
        <ele>1041</ele>
        <time>2019-05-04T11:00:34Z</time>
      </trkpt>
      <trkpt lat="46.81317" lon="6.4973">
        <ele>1041</ele>
        <time>2019-05-04T11:00:39Z</time>
      </trkpt>
      <trkpt lat="46.81302" lon="6.49719">
        <ele>1041</ele>
        <time>2019-05-04T11:00:51Z</time>
      </trkpt>
      <trkpt lat="46.81284" lon="6.49709">
        <ele>1041</ele>
        <time>2019-05-04T11:01:05Z</time>
      </trkpt>
      <trkpt lat="46.81265" lon="6.49698">
        <ele>1041</ele>
        <time>2019-05-04T11:01:20Z</time>
      </trkpt>
      <trkpt lat="46.81257" lon="6.49693">
        <ele>1041</ele>
        <time>2019-05-04T11:01:26Z</time>
      </trkpt>
      <trkpt lat="46.8124" lon="6.49683">
        <ele>1041</ele>
        <time>2019-05-04T11:01:39Z</time>
      </trkpt>
      <trkpt lat="46.81222" lon="6.49672">
        <ele>1041</ele>
        <time>2019-05-04T11:01:54Z</time>
      </trkpt>
      <trkpt lat="46.81217" lon="6.4967">
        <ele>1041</ele>
        <time>2019-05-04T11:01:57Z</time>
      </trkpt>
      <trkpt lat="46.81204" lon="6.49656">
        <ele>1042</ele>
        <time>2019-05-04T11:02:08Z</time>
      </trkpt>
      <trkpt lat="46.8119" lon="6.49636">
        <ele>1043</ele>
        <time>2019-05-04T11:02:23Z</time>
      </trkpt>
      <trkpt lat="46.81171" lon="6.49629">
        <ele>1044</ele>
        <time>2019-05-04T11:02:37Z</time>
      </trkpt>
      <trkpt lat="46.81161" lon="6.4963">
        <ele>1043</ele>
        <time>2019-05-04T11:02:44Z</time>
      </trkpt>
      <trkpt lat="46.81144" lon="6.4962">
        <ele>1044</ele>
        <time>2019-05-04T11:02:58Z</time>
      </trkpt>
      <trkpt lat="46.81125" lon="6.49612">
        <ele>1045</ele>
        <time>2019-05-04T11:03:12Z</time>
      </trkpt>
      <trkpt lat="46.81109" lon="6.49607">
        <ele>1045</ele>
        <time>2019-05-04T11:03:24Z</time>
      </trkpt>
      <trkpt lat="46.81094" lon="6.49604">
        <ele>1045</ele>
        <time>2019-05-04T11:03:35Z</time>
      </trkpt>
      <trkpt lat="46.81088" lon="6.49604">
        <ele>1045</ele>
        <time>2019-05-04T11:03:39Z</time>
      </trkpt>
      <trkpt lat="46.8108" lon="6.49606">
        <ele>1045</ele>
        <time>2019-05-04T11:03:45Z</time>
      </trkpt>
      <trkpt lat="46.8107" lon="6.49612">
        <ele>1044</ele>
        <time>2019-05-04T11:03:53Z</time>
      </trkpt>
      <trkpt lat="46.81059" lon="6.49634">
        <ele>1043</ele>
        <time>2019-05-04T11:04:06Z</time>
      </trkpt>
      <trkpt lat="46.81056" lon="6.49639">
        <ele>1042</ele>
        <time>2019-05-04T11:04:10Z</time>
      </trkpt>
      <trkpt lat="46.81052" lon="6.49648">
        <ele>1042</ele>
        <time>2019-05-04T11:04:15Z</time>
      </trkpt>
      <trkpt lat="46.8105" lon="6.49656">
        <ele>1042</ele>
        <time>2019-05-04T11:04:19Z</time>
      </trkpt>
      <trkpt lat="46.81046" lon="6.49666">
        <ele>1042</ele>
        <time>2019-05-04T11:04:25Z</time>
      </trkpt>
      <trkpt lat="46.81046" lon="6.49668">
        <ele>1042</ele>
        <time>2019-05-04T11:04:26Z</time>
      </trkpt>
      <trkpt lat="46.81045" lon="6.49671">
        <ele>1042</ele>
        <time>2019-05-04T11:04:28Z</time>
      </trkpt>
      <trkpt lat="46.81044" lon="6.49698">
        <ele>1041</ele>
        <time>2019-05-04T11:04:41Z</time>
      </trkpt>
      <trkpt lat="46.81036" lon="6.49711">
        <ele>1043</ele>
        <time>2019-05-04T11:04:50Z</time>
      </trkpt>
      <trkpt lat="46.81032" lon="6.49723">
        <ele>1043</ele>
        <time>2019-05-04T11:04:56Z</time>
      </trkpt>
      <trkpt lat="46.81031" lon="6.49733">
        <ele>1044</ele>
        <time>2019-05-04T11:05:01Z</time>
      </trkpt>
      <trkpt lat="46.8103" lon="6.4974">
        <ele>1044</ele>
        <time>2019-05-04T11:05:05Z</time>
      </trkpt>
      <trkpt lat="46.81023" lon="6.49765">
        <ele>1046</ele>
        <time>2019-05-04T11:05:18Z</time>
      </trkpt>
      <trkpt lat="46.81022" lon="6.49766">
        <ele>1046</ele>
        <time>2019-05-04T11:05:19Z</time>
      </trkpt>
      <trkpt lat="46.81016" lon="6.49775">
        <ele>1047</ele>
        <time>2019-05-04T11:05:25Z</time>
      </trkpt>
      <trkpt lat="46.81011" lon="6.4978">
        <ele>1048</ele>
        <time>2019-05-04T11:05:30Z</time>
      </trkpt>
      <trkpt lat="46.81006" lon="6.49786">
        <ele>1049</ele>
        <time>2019-05-04T11:05:34Z</time>
      </trkpt>
      <trkpt lat="46.81005" lon="6.49789">
        <ele>1049</ele>
        <time>2019-05-04T11:05:36Z</time>
      </trkpt>
      <trkpt lat="46.81" lon="6.49796">
        <ele>1050</ele>
        <time>2019-05-04T11:05:41Z</time>
      </trkpt>
      <trkpt lat="46.80996" lon="6.49803">
        <ele>1051</ele>
        <time>2019-05-04T11:05:46Z</time>
      </trkpt>
      <trkpt lat="46.80991" lon="6.4981">
        <ele>1052</ele>
        <time>2019-05-04T11:05:51Z</time>
      </trkpt>
      <trkpt lat="46.80982" lon="6.49819">
        <ele>1054</ele>
        <time>2019-05-04T11:05:59Z</time>
      </trkpt>
      <trkpt lat="46.80976" lon="6.49824">
        <ele>1056</ele>
        <time>2019-05-04T11:06:04Z</time>
      </trkpt>
      <trkpt lat="46.80971" lon="6.49831">
        <ele>1057</ele>
        <time>2019-05-04T11:06:09Z</time>
      </trkpt>
      <trkpt lat="46.80966" lon="6.49844">
        <ele>1060</ele>
        <time>2019-05-04T11:06:16Z</time>
      </trkpt>
      <trkpt lat="46.80964" lon="6.49847">
        <ele>1060</ele>
        <time>2019-05-04T11:06:19Z</time>
      </trkpt>
      <trkpt lat="46.80951" lon="6.49858">
        <ele>1064</ele>
        <time>2019-05-04T11:06:30Z</time>
      </trkpt>
      <trkpt lat="46.80949" lon="6.4986">
        <ele>1065</ele>
        <time>2019-05-04T11:06:32Z</time>
      </trkpt>
      <trkpt lat="46.80944" lon="6.49865">
        <ele>1066</ele>
        <time>2019-05-04T11:06:36Z</time>
      </trkpt>
      <trkpt lat="46.80943" lon="6.49869">
        <ele>1066</ele>
        <time>2019-05-04T11:06:38Z</time>
      </trkpt>
      <trkpt lat="46.80937" lon="6.49878">
        <ele>1067</ele>
        <time>2019-05-04T11:06:44Z</time>
      </trkpt>
      <trkpt lat="46.80934" lon="6.49883">
        <ele>1068</ele>
        <time>2019-05-04T11:06:48Z</time>
      </trkpt>
      <trkpt lat="46.80929" lon="6.49891">
        <ele>1068</ele>
        <time>2019-05-04T11:06:53Z</time>
      </trkpt>
      <trkpt lat="46.80923" lon="6.499">
        <ele>1070</ele>
        <time>2019-05-04T11:06:59Z</time>
      </trkpt>
      <trkpt lat="46.80918" lon="6.49908">
        <ele>1070</ele>
        <time>2019-05-04T11:07:05Z</time>
      </trkpt>
      <trkpt lat="46.80913" lon="6.49919">
        <ele>1072</ele>
        <time>2019-05-04T11:07:12Z</time>
      </trkpt>
      <trkpt lat="46.80909" lon="6.49929">
        <ele>1073</ele>
        <time>2019-05-04T11:07:17Z</time>
      </trkpt>
      <trkpt lat="46.80906" lon="6.49933">
        <ele>1073</ele>
        <time>2019-05-04T11:07:20Z</time>
      </trkpt>
      <trkpt lat="46.80899" lon="6.4994">
        <ele>1074</ele>
        <time>2019-05-04T11:07:26Z</time>
      </trkpt>
      <trkpt lat="46.80891" lon="6.49949">
        <ele>1076</ele>
        <time>2019-05-04T11:07:34Z</time>
      </trkpt>
      <trkpt lat="46.80882" lon="6.4996">
        <ele>1078</ele>
        <time>2019-05-04T11:07:42Z</time>
      </trkpt>
      <trkpt lat="46.80876" lon="6.49972">
        <ele>1081</ele>
        <time>2019-05-04T11:07:50Z</time>
      </trkpt>
      <trkpt lat="46.80876" lon="6.49976">
        <ele>1081</ele>
        <time>2019-05-04T11:07:52Z</time>
      </trkpt>
      <trkpt lat="46.80876" lon="6.4998">
        <ele>1082</ele>
        <time>2019-05-04T11:07:54Z</time>
      </trkpt>
      <trkpt lat="46.80876" lon="6.49987">
        <ele>1083</ele>
        <time>2019-05-04T11:07:57Z</time>
      </trkpt>
      <trkpt lat="46.80875" lon="6.49991">
        <ele>1083</ele>
        <time>2019-05-04T11:07:59Z</time>
      </trkpt>
      <trkpt lat="46.80875" lon="6.49993">
        <ele>1084</ele>
        <time>2019-05-04T11:08:01Z</time>
      </trkpt>
      <trkpt lat="46.80875" lon="6.49995">
        <ele>1084</ele>
        <time>2019-05-04T11:08:02Z</time>
      </trkpt>
      <trkpt lat="46.80875" lon="6.49995">
        <ele>1084</ele>
        <time>2019-05-04T11:08:02Z</time>
      </trkpt>
      <trkpt lat="46.80877" lon="6.49994">
        <ele>1083</ele>
        <time>2019-05-04T11:08:03Z</time>
      </trkpt>
      <trkpt lat="46.80876" lon="6.49998">
        <ele>1084</ele>
        <time>2019-05-04T11:08:05Z</time>
      </trkpt>
      <trkpt lat="46.80875" lon="6.50004">
        <ele>1085</ele>
        <time>2019-05-04T11:08:08Z</time>
      </trkpt>
      <trkpt lat="46.80874" lon="6.50008">
        <ele>1086</ele>
        <time>2019-05-04T11:08:11Z</time>
      </trkpt>
      <trkpt lat="46.80873" lon="6.50012">
        <ele>1086</ele>
        <time>2019-05-04T11:08:13Z</time>
      </trkpt>
      <trkpt lat="46.80871" lon="6.5002">
        <ele>1088</ele>
        <time>2019-05-04T11:08:17Z</time>
      </trkpt>
      <trkpt lat="46.80869" lon="6.50034">
        <ele>1090</ele>
        <time>2019-05-04T11:08:24Z</time>
      </trkpt>
      <trkpt lat="46.80868" lon="6.5004">
        <ele>1091</ele>
        <time>2019-05-04T11:08:27Z</time>
      </trkpt>
      <trkpt lat="46.80868" lon="6.50044">
        <ele>1092</ele>
        <time>2019-05-04T11:08:29Z</time>
      </trkpt>
      <trkpt lat="46.80868" lon="6.50049">
        <ele>1092</ele>
        <time>2019-05-04T11:08:32Z</time>
      </trkpt>
      <trkpt lat="46.80868" lon="6.50051">
        <ele>1093</ele>
        <time>2019-05-04T11:08:33Z</time>
      </trkpt>
      <trkpt lat="46.80868" lon="6.50059">
        <ele>1093</ele>
        <time>2019-05-04T11:08:37Z</time>
      </trkpt>
      <trkpt lat="46.80862" lon="6.50074">
        <ele>1097</ele>
        <time>2019-05-04T11:08:46Z</time>
      </trkpt>
      <trkpt lat="46.80861" lon="6.50076">
        <ele>1097</ele>
        <time>2019-05-04T11:08:48Z</time>
      </trkpt>
      <trkpt lat="46.80859" lon="6.50081">
        <ele>1098</ele>
        <time>2019-05-04T11:08:50Z</time>
      </trkpt>
      <trkpt lat="46.80858" lon="6.50084">
        <ele>1099</ele>
        <time>2019-05-04T11:08:52Z</time>
      </trkpt>
      <trkpt lat="46.80857" lon="6.50089">
        <ele>1100</ele>
        <time>2019-05-04T11:08:54Z</time>
      </trkpt>
      <trkpt lat="46.80857" lon="6.50093">
        <ele>1100</ele>
        <time>2019-05-04T11:08:57Z</time>
      </trkpt>
      <trkpt lat="46.80855" lon="6.50095">
        <ele>1101</ele>
        <time>2019-05-04T11:08:59Z</time>
      </trkpt>
      <trkpt lat="46.8085" lon="6.50098">
        <ele>1103</ele>
        <time>2019-05-04T11:09:02Z</time>
      </trkpt>
      <trkpt lat="46.80848" lon="6.50098">
        <ele>1104</ele>
        <time>2019-05-04T11:09:04Z</time>
      </trkpt>
      <trkpt lat="46.80845" lon="6.50099">
        <ele>1105</ele>
        <time>2019-05-04T11:09:06Z</time>
      </trkpt>
      <trkpt lat="46.80842" lon="6.501">
        <ele>1106</ele>
        <time>2019-05-04T11:09:09Z</time>
      </trkpt>
      <trkpt lat="46.80839" lon="6.501">
        <ele>1107</ele>
        <time>2019-05-04T11:09:11Z</time>
      </trkpt>
      <trkpt lat="46.80834" lon="6.50098">
        <ele>1108</ele>
        <time>2019-05-04T11:09:14Z</time>
      </trkpt>
      <trkpt lat="46.80831" lon="6.50095">
        <ele>1109</ele>
        <time>2019-05-04T11:09:17Z</time>
      </trkpt>
      <trkpt lat="46.80827" lon="6.50095">
        <ele>1110</ele>
        <time>2019-05-04T11:09:20Z</time>
      </trkpt>
      <trkpt lat="46.80816" lon="6.50096">
        <ele>1113</ele>
        <time>2019-05-04T11:09:29Z</time>
      </trkpt>
      <trkpt lat="46.80816" lon="6.50093">
        <ele>1113</ele>
        <time>2019-05-04T11:09:30Z</time>
      </trkpt>
      <trkpt lat="46.80811" lon="6.50091">
        <ele>1114</ele>
        <time>2019-05-04T11:09:33Z</time>
      </trkpt>
      <trkpt lat="46.8081" lon="6.5009">
        <ele>1114</ele>
        <time>2019-05-04T11:09:34Z</time>
      </trkpt>
      <trkpt lat="46.80806" lon="6.50086">
        <ele>1115</ele>
        <time>2019-05-04T11:09:38Z</time>
      </trkpt>
      <trkpt lat="46.80795" lon="6.50083">
        <ele>1118</ele>
        <time>2019-05-04T11:09:46Z</time>
      </trkpt>
      <trkpt lat="46.80796" lon="6.50077">
        <ele>1117</ele>
        <time>2019-05-04T11:09:50Z</time>
      </trkpt>
      <trkpt lat="46.80798" lon="6.50061">
        <ele>1115</ele>
        <time>2019-05-04T11:09:57Z</time>
      </trkpt>
      <trkpt lat="46.80799" lon="6.50062">
        <ele>1114</ele>
        <time>2019-05-04T11:09:59Z</time>
      </trkpt>
      <trkpt lat="46.80801" lon="6.50062">
        <ele>1114</ele>
        <time>2019-05-04T11:10:00Z</time>
      </trkpt>
      <trkpt lat="46.80805" lon="6.50054">
        <ele>1111</ele>
        <time>2019-05-04T11:10:05Z</time>
      </trkpt>
      <trkpt lat="46.80804" lon="6.50052">
        <ele>1112</ele>
        <time>2019-05-04T11:10:07Z</time>
      </trkpt>
      <trkpt lat="46.80803" lon="6.50049">
        <ele>1112</ele>
        <time>2019-05-04T11:10:08Z</time>
      </trkpt>
      <trkpt lat="46.80801" lon="6.50049">
        <ele>1112</ele>
        <time>2019-05-04T11:10:10Z</time>
      </trkpt>
      <trkpt lat="46.80799" lon="6.50048">
        <ele>1112</ele>
        <time>2019-05-04T11:10:11Z</time>
      </trkpt>
      <trkpt lat="46.80787" lon="6.50048">
        <ele>1116</ele>
        <time>2019-05-04T11:10:20Z</time>
      </trkpt>
      <trkpt lat="46.80786" lon="6.50047">
        <ele>1116</ele>
        <time>2019-05-04T11:10:21Z</time>
      </trkpt>
      <trkpt lat="46.80782" lon="6.50045">
        <ele>1117</ele>
        <time>2019-05-04T11:10:24Z</time>
      </trkpt>
      <trkpt lat="46.80784" lon="6.50041">
        <ele>1116</ele>
        <time>2019-05-04T11:10:27Z</time>
      </trkpt>
      <trkpt lat="46.80794" lon="6.50029">
        <ele>1112</ele>
        <time>2019-05-04T11:10:37Z</time>
      </trkpt>
      <trkpt lat="46.8079" lon="6.50028">
        <ele>1113</ele>
        <time>2019-05-04T11:10:40Z</time>
      </trkpt>
      <trkpt lat="46.80771" lon="6.50027">
        <ele>1119</ele>
        <time>2019-05-04T11:10:54Z</time>
      </trkpt>
      <trkpt lat="46.80763" lon="6.50025">
        <ele>1122</ele>
        <time>2019-05-04T11:11:00Z</time>
      </trkpt>
      <trkpt lat="46.80755" lon="6.50018">
        <ele>1123</ele>
        <time>2019-05-04T11:11:07Z</time>
      </trkpt>
      <trkpt lat="46.80739" lon="6.50007">
        <ele>1127</ele>
        <time>2019-05-04T11:11:20Z</time>
      </trkpt>
      <trkpt lat="46.80736" lon="6.50005">
        <ele>1128</ele>
        <time>2019-05-04T11:11:22Z</time>
      </trkpt>
      <trkpt lat="46.8073" lon="6.50004">
        <ele>1130</ele>
        <time>2019-05-04T11:11:27Z</time>
      </trkpt>
      <trkpt lat="46.80722" lon="6.50002">
        <ele>1133</ele>
        <time>2019-05-04T11:11:33Z</time>
      </trkpt>
      <trkpt lat="46.80719" lon="6.50002">
        <ele>1134</ele>
        <time>2019-05-04T11:11:36Z</time>
      </trkpt>
      <trkpt lat="46.80711" lon="6.49998">
        <ele>1137</ele>
        <time>2019-05-04T11:11:42Z</time>
      </trkpt>
      <trkpt lat="46.80703" lon="6.49997">
        <ele>1140</ele>
        <time>2019-05-04T11:11:48Z</time>
      </trkpt>
      <trkpt lat="46.80701" lon="6.49996">
        <ele>1140</ele>
        <time>2019-05-04T11:11:50Z</time>
      </trkpt>
      <trkpt lat="46.80695" lon="6.4999">
        <ele>1142</ele>
        <time>2019-05-04T11:11:55Z</time>
      </trkpt>
      <trkpt lat="46.80694" lon="6.49988">
        <ele>1142</ele>
        <time>2019-05-04T11:11:56Z</time>
      </trkpt>
      <trkpt lat="46.80693" lon="6.49987">
        <ele>1143</ele>
        <time>2019-05-04T11:11:57Z</time>
      </trkpt>
      <trkpt lat="46.80691" lon="6.49983">
        <ele>1143</ele>
        <time>2019-05-04T11:11:59Z</time>
      </trkpt>
      <trkpt lat="46.80691" lon="6.49979">
        <ele>1142</ele>
        <time>2019-05-04T11:12:02Z</time>
      </trkpt>
      <trkpt lat="46.80688" lon="6.49978">
        <ele>1144</ele>
        <time>2019-05-04T11:12:04Z</time>
      </trkpt>
      <trkpt lat="46.8069" lon="6.49973">
        <ele>1142</ele>
        <time>2019-05-04T11:12:07Z</time>
      </trkpt>
      <trkpt lat="46.80689" lon="6.4997">
        <ele>1141</ele>
        <time>2019-05-04T11:12:09Z</time>
      </trkpt>
      <trkpt lat="46.8069" lon="6.49966">
        <ele>1140</ele>
        <time>2019-05-04T11:12:11Z</time>
      </trkpt>
      <trkpt lat="46.80691" lon="6.49964">
        <ele>1139</ele>
        <time>2019-05-04T11:12:12Z</time>
      </trkpt>
      <trkpt lat="46.80692" lon="6.49961">
        <ele>1138</ele>
        <time>2019-05-04T11:12:14Z</time>
      </trkpt>
      <trkpt lat="46.80692" lon="6.49959">
        <ele>1137</ele>
        <time>2019-05-04T11:12:15Z</time>
      </trkpt>
      <trkpt lat="46.80693" lon="6.49956">
        <ele>1136</ele>
        <time>2019-05-04T11:12:17Z</time>
      </trkpt>
      <trkpt lat="46.80695" lon="6.49952">
        <ele>1134</ele>
        <time>2019-05-04T11:12:20Z</time>
      </trkpt>
      <trkpt lat="46.80695" lon="6.49951">
        <ele>1134</ele>
        <time>2019-05-04T11:12:20Z</time>
      </trkpt>
      <trkpt lat="46.80694" lon="6.49952">
        <ele>1135</ele>
        <time>2019-05-04T11:12:21Z</time>
      </trkpt>
      <trkpt lat="46.80693" lon="6.49953">
        <ele>1135</ele>
        <time>2019-05-04T11:12:22Z</time>
      </trkpt>
      <trkpt lat="46.80689" lon="6.49956">
        <ele>1138</ele>
        <time>2019-05-04T11:12:26Z</time>
      </trkpt>
      <trkpt lat="46.80687" lon="6.49959">
        <ele>1140</ele>
        <time>2019-05-04T11:12:28Z</time>
      </trkpt>
      <trkpt lat="46.80685" lon="6.49961">
        <ele>1142</ele>
        <time>2019-05-04T11:12:30Z</time>
      </trkpt>
      <trkpt lat="46.80685" lon="6.49962">
        <ele>1142</ele>
        <time>2019-05-04T11:12:31Z</time>
      </trkpt>
      <trkpt lat="46.80683" lon="6.49967">
        <ele>1145</ele>
        <time>2019-05-04T11:12:34Z</time>
      </trkpt>
      <trkpt lat="46.80683" lon="6.49968">
        <ele>1145</ele>
        <time>2019-05-04T11:12:35Z</time>
      </trkpt>
      <trkpt lat="46.80682" lon="6.49972">
        <ele>1146</ele>
        <time>2019-05-04T11:12:37Z</time>
      </trkpt>
      <trkpt lat="46.80682" lon="6.49973">
        <ele>1147</ele>
        <time>2019-05-04T11:12:38Z</time>
      </trkpt>
      <trkpt lat="46.80682" lon="6.49974">
        <ele>1147</ele>
        <time>2019-05-04T11:12:38Z</time>
      </trkpt>
      <trkpt lat="46.80682" lon="6.4998">
        <ele>1148</ele>
        <time>2019-05-04T11:12:41Z</time>
      </trkpt>
      <trkpt lat="46.80682" lon="6.49981">
        <ele>1148</ele>
        <time>2019-05-04T11:12:42Z</time>
      </trkpt>
      <trkpt lat="46.80684" lon="6.49981">
        <ele>1147</ele>
        <time>2019-05-04T11:12:44Z</time>
      </trkpt>
      <trkpt lat="46.80683" lon="6.49979">
        <ele>1147</ele>
        <time>2019-05-04T11:12:45Z</time>
      </trkpt>
      <trkpt lat="46.80679" lon="6.49977">
        <ele>1149</ele>
        <time>2019-05-04T11:12:49Z</time>
      </trkpt>
      <trkpt lat="46.80678" lon="6.49977">
        <ele>1150</ele>
        <time>2019-05-04T11:12:50Z</time>
      </trkpt>
      <trkpt lat="46.80676" lon="6.49974">
        <ele>1150</ele>
        <time>2019-05-04T11:12:52Z</time>
      </trkpt>
      <trkpt lat="46.80674" lon="6.49968">
        <ele>1150</ele>
        <time>2019-05-04T11:12:55Z</time>
      </trkpt>
      <trkpt lat="46.80673" lon="6.49966">
        <ele>1150</ele>
        <time>2019-05-04T11:12:57Z</time>
      </trkpt>
      <trkpt lat="46.80671" lon="6.49962">
        <ele>1151</ele>
        <time>2019-05-04T11:12:59Z</time>
      </trkpt>
      <trkpt lat="46.80673" lon="6.49957">
        <ele>1148</ele>
        <time>2019-05-04T11:13:03Z</time>
      </trkpt>
      <trkpt lat="46.80672" lon="6.49954">
        <ele>1148</ele>
        <time>2019-05-04T11:13:04Z</time>
      </trkpt>
      <trkpt lat="46.80671" lon="6.49949">
        <ele>1148</ele>
        <time>2019-05-04T11:13:07Z</time>
      </trkpt>
      <trkpt lat="46.80667" lon="6.49947">
        <ele>1149</ele>
        <time>2019-05-04T11:13:10Z</time>
      </trkpt>
      <trkpt lat="46.80667" lon="6.49945">
        <ele>1149</ele>
        <time>2019-05-04T11:13:11Z</time>
      </trkpt>
      <trkpt lat="46.80666" lon="6.49945">
        <ele>1150</ele>
        <time>2019-05-04T11:13:12Z</time>
      </trkpt>
      <trkpt lat="46.80663" lon="6.49946">
        <ele>1152</ele>
        <time>2019-05-04T11:13:15Z</time>
      </trkpt>
      <trkpt lat="46.80661" lon="6.49945">
        <ele>1153</ele>
        <time>2019-05-04T11:13:16Z</time>
      </trkpt>
      <trkpt lat="46.80661" lon="6.49943">
        <ele>1152</ele>
        <time>2019-05-04T11:13:17Z</time>
      </trkpt>
      <trkpt lat="46.80663" lon="6.4994">
        <ele>1151</ele>
        <time>2019-05-04T11:13:19Z</time>
      </trkpt>
      <trkpt lat="46.80666" lon="6.49934">
        <ele>1148</ele>
        <time>2019-05-04T11:13:24Z</time>
      </trkpt>
      <trkpt lat="46.80663" lon="6.49932">
        <ele>1149</ele>
        <time>2019-05-04T11:13:26Z</time>
      </trkpt>
      <trkpt lat="46.80661" lon="6.49931">
        <ele>1150</ele>
        <time>2019-05-04T11:13:27Z</time>
      </trkpt>
      <trkpt lat="46.80658" lon="6.49926">
        <ele>1151</ele>
        <time>2019-05-04T11:13:31Z</time>
      </trkpt>
      <trkpt lat="46.80656" lon="6.49924">
        <ele>1151</ele>
        <time>2019-05-04T11:13:32Z</time>
      </trkpt>
      <trkpt lat="46.80658" lon="6.4992">
        <ele>1150</ele>
        <time>2019-05-04T11:13:35Z</time>
      </trkpt>
      <trkpt lat="46.80649" lon="6.49904">
        <ele>1151</ele>
        <time>2019-05-04T11:13:45Z</time>
      </trkpt>
      <trkpt lat="46.8065" lon="6.49899">
        <ele>1150</ele>
        <time>2019-05-04T11:13:48Z</time>
      </trkpt>
      <trkpt lat="46.80648" lon="6.49886">
        <ele>1147</ele>
        <time>2019-05-04T11:13:55Z</time>
      </trkpt>
      <trkpt lat="46.80648" lon="6.49881">
        <ele>1147</ele>
        <time>2019-05-04T11:13:57Z</time>
      </trkpt>
      <trkpt lat="46.8064" lon="6.49872">
        <ele>1149</ele>
        <time>2019-05-04T11:14:05Z</time>
      </trkpt>
      <trkpt lat="46.80616" lon="6.49865">
        <ele>1158</ele>
        <time>2019-05-04T11:14:23Z</time>
      </trkpt>
      <trkpt lat="46.80612" lon="6.49855">
        <ele>1158</ele>
        <time>2019-05-04T11:14:29Z</time>
      </trkpt>
      <trkpt lat="46.80609" lon="6.49852">
        <ele>1160</ele>
        <time>2019-05-04T11:14:32Z</time>
      </trkpt>
      <trkpt lat="46.8061" lon="6.49849">
        <ele>1159</ele>
        <time>2019-05-04T11:14:34Z</time>
      </trkpt>
      <trkpt lat="46.80611" lon="6.49847">
        <ele>1158</ele>
        <time>2019-05-04T11:14:35Z</time>
      </trkpt>
      <trkpt lat="46.80611" lon="6.49847">
        <ele>1158</ele>
        <time>2019-05-04T11:14:35Z</time>
      </trkpt>
      <trkpt lat="46.80608" lon="6.49848">
        <ele>1160</ele>
        <time>2019-05-04T11:14:38Z</time>
      </trkpt>
      <trkpt lat="46.80608" lon="6.49845">
        <ele>1159</ele>
        <time>2019-05-04T11:14:40Z</time>
      </trkpt>
      <trkpt lat="46.80605" lon="6.49845">
        <ele>1161</ele>
        <time>2019-05-04T11:14:42Z</time>
      </trkpt>
      <trkpt lat="46.80604" lon="6.49846">
        <ele>1162</ele>
        <time>2019-05-04T11:14:43Z</time>
      </trkpt>
      <trkpt lat="46.80603" lon="6.49846">
        <ele>1163</ele>
        <time>2019-05-04T11:14:45Z</time>
      </trkpt>
      <trkpt lat="46.80601" lon="6.49845">
        <ele>1164</ele>
        <time>2019-05-04T11:14:46Z</time>
      </trkpt>
      <trkpt lat="46.80602" lon="6.49844">
        <ele>1163</ele>
        <time>2019-05-04T11:14:47Z</time>
      </trkpt>
      <trkpt lat="46.80601" lon="6.49844">
        <ele>1164</ele>
        <time>2019-05-04T11:14:48Z</time>
      </trkpt>
      <trkpt lat="46.80599" lon="6.4984">
        <ele>1164</ele>
        <time>2019-05-04T11:14:50Z</time>
      </trkpt>
      <trkpt lat="46.80597" lon="6.49836">
        <ele>1165</ele>
        <time>2019-05-04T11:14:52Z</time>
      </trkpt>
      <trkpt lat="46.80599" lon="6.49831">
        <ele>1163</ele>
        <time>2019-05-04T11:14:56Z</time>
      </trkpt>
      <trkpt lat="46.80596" lon="6.49827">
        <ele>1164</ele>
        <time>2019-05-04T11:14:59Z</time>
      </trkpt>
      <trkpt lat="46.80593" lon="6.49825">
        <ele>1165</ele>
        <time>2019-05-04T11:15:01Z</time>
      </trkpt>
      <trkpt lat="46.80593" lon="6.49824">
        <ele>1165</ele>
        <time>2019-05-04T11:15:02Z</time>
      </trkpt>
      <trkpt lat="46.80593" lon="6.4982">
        <ele>1164</ele>
        <time>2019-05-04T11:15:04Z</time>
      </trkpt>
      <trkpt lat="46.80592" lon="6.49818">
        <ele>1164</ele>
        <time>2019-05-04T11:15:05Z</time>
      </trkpt>
      <trkpt lat="46.80594" lon="6.49815">
        <ele>1163</ele>
        <time>2019-05-04T11:15:07Z</time>
      </trkpt>
      <trkpt lat="46.806" lon="6.498">
        <ele>1156</ele>
        <time>2019-05-04T11:15:17Z</time>
      </trkpt>
      <trkpt lat="46.80601" lon="6.49798">
        <ele>1155</ele>
        <time>2019-05-04T11:15:18Z</time>
      </trkpt>
      <trkpt lat="46.806" lon="6.49797">
        <ele>1155</ele>
        <time>2019-05-04T11:15:19Z</time>
      </trkpt>
      <trkpt lat="46.80597" lon="6.49793">
        <ele>1157</ele>
        <time>2019-05-04T11:15:22Z</time>
      </trkpt>
      <trkpt lat="46.80598" lon="6.49791">
        <ele>1155</ele>
        <time>2019-05-04T11:15:24Z</time>
      </trkpt>
      <trkpt lat="46.80598" lon="6.49785">
        <ele>1154</ele>
        <time>2019-05-04T11:15:27Z</time>
      </trkpt>
      <trkpt lat="46.80595" lon="6.49778">
        <ele>1155</ele>
        <time>2019-05-04T11:15:31Z</time>
      </trkpt>
      <trkpt lat="46.80592" lon="6.49777">
        <ele>1157</ele>
        <time>2019-05-04T11:15:34Z</time>
      </trkpt>
      <trkpt lat="46.8059" lon="6.49776">
        <ele>1158</ele>
        <time>2019-05-04T11:15:36Z</time>
      </trkpt>
      <trkpt lat="46.80583" lon="6.49771">
        <ele>1161</ele>
        <time>2019-05-04T11:15:42Z</time>
      </trkpt>
      <trkpt lat="46.80579" lon="6.49766">
        <ele>1162</ele>
        <time>2019-05-04T11:15:45Z</time>
      </trkpt>
      <trkpt lat="46.8057" lon="6.49768">
        <ele>1167</ele>
        <time>2019-05-04T11:15:52Z</time>
      </trkpt>
      <trkpt lat="46.80562" lon="6.49768">
        <ele>1172</ele>
        <time>2019-05-04T11:15:59Z</time>
      </trkpt>
      <trkpt lat="46.80557" lon="6.49763">
        <ele>1174</ele>
        <time>2019-05-04T11:16:04Z</time>
      </trkpt>
      <trkpt lat="46.80558" lon="6.49758">
        <ele>1173</ele>
        <time>2019-05-04T11:16:06Z</time>
      </trkpt>
      <trkpt lat="46.80558" lon="6.49756">
        <ele>1172</ele>
        <time>2019-05-04T11:16:07Z</time>
      </trkpt>
      <trkpt lat="46.80553" lon="6.4975">
        <ele>1174</ele>
        <time>2019-05-04T11:16:12Z</time>
      </trkpt>
      <trkpt lat="46.80552" lon="6.4975">
        <ele>1174</ele>
        <time>2019-05-04T11:16:13Z</time>
      </trkpt>
      <trkpt lat="46.8055" lon="6.49749">
        <ele>1175</ele>
        <time>2019-05-04T11:16:14Z</time>
      </trkpt>
      <trkpt lat="46.80549" lon="6.49749">
        <ele>1176</ele>
        <time>2019-05-04T11:16:16Z</time>
      </trkpt>
      <trkpt lat="46.80549" lon="6.49749">
        <ele>1176</ele>
        <time>2019-05-04T11:16:16Z</time>
      </trkpt>
      <trkpt lat="46.80548" lon="6.49749">
        <ele>1177</ele>
        <time>2019-05-04T11:16:17Z</time>
      </trkpt>
      <trkpt lat="46.80544" lon="6.4975">
        <ele>1179</ele>
        <time>2019-05-04T11:16:20Z</time>
      </trkpt>
      <trkpt lat="46.80542" lon="6.49751">
        <ele>1180</ele>
        <time>2019-05-04T11:16:21Z</time>
      </trkpt>
      <trkpt lat="46.80542" lon="6.49749">
        <ele>1179</ele>
        <time>2019-05-04T11:16:23Z</time>
      </trkpt>
      <trkpt lat="46.8054" lon="6.49748">
        <ele>1181</ele>
        <time>2019-05-04T11:16:25Z</time>
      </trkpt>
      <trkpt lat="46.80541" lon="6.49745">
        <ele>1179</ele>
        <time>2019-05-04T11:16:27Z</time>
      </trkpt>
      <trkpt lat="46.80539" lon="6.49746">
        <ele>1181</ele>
        <time>2019-05-04T11:16:29Z</time>
      </trkpt>
      <trkpt lat="46.80538" lon="6.49744">
        <ele>1181</ele>
        <time>2019-05-04T11:16:30Z</time>
      </trkpt>
      <trkpt lat="46.80543" lon="6.49737">
        <ele>1177</ele>
        <time>2019-05-04T11:16:36Z</time>
      </trkpt>
      <trkpt lat="46.80542" lon="6.49734">
        <ele>1177</ele>
        <time>2019-05-04T11:16:37Z</time>
      </trkpt>
      <trkpt lat="46.80544" lon="6.4973">
        <ele>1175</ele>
        <time>2019-05-04T11:16:40Z</time>
      </trkpt>
      <trkpt lat="46.80541" lon="6.4973">
        <ele>1176</ele>
        <time>2019-05-04T11:16:42Z</time>
      </trkpt>
      <trkpt lat="46.80541" lon="6.49729">
        <ele>1177</ele>
        <time>2019-05-04T11:16:43Z</time>
      </trkpt>
      <trkpt lat="46.8054" lon="6.49728">
        <ele>1177</ele>
        <time>2019-05-04T11:16:44Z</time>
      </trkpt>
      <trkpt lat="46.80534" lon="6.49727">
        <ele>1180</ele>
        <time>2019-05-04T11:16:49Z</time>
      </trkpt>
      <trkpt lat="46.80517" lon="6.49721">
        <ele>1189</ele>
        <time>2019-05-04T11:17:02Z</time>
      </trkpt>
      <trkpt lat="46.80513" lon="6.49719">
        <ele>1191</ele>
        <time>2019-05-04T11:17:06Z</time>
      </trkpt>
      <trkpt lat="46.80509" lon="6.49717">
        <ele>1193</ele>
        <time>2019-05-04T11:17:09Z</time>
      </trkpt>
      <trkpt lat="46.80508" lon="6.49714">
        <ele>1193</ele>
        <time>2019-05-04T11:17:11Z</time>
      </trkpt>
      <trkpt lat="46.80507" lon="6.49714">
        <ele>1194</ele>
        <time>2019-05-04T11:17:12Z</time>
      </trkpt>
      <trkpt lat="46.80503" lon="6.49715">
        <ele>1196</ele>
        <time>2019-05-04T11:17:15Z</time>
      </trkpt>
      <trkpt lat="46.80498" lon="6.49717">
        <ele>1200</ele>
        <time>2019-05-04T11:17:20Z</time>
      </trkpt>
      <trkpt lat="46.80498" lon="6.49716">
        <ele>1200</ele>
        <time>2019-05-04T11:17:20Z</time>
      </trkpt>
      <trkpt lat="46.80497" lon="6.49715">
        <ele>1200</ele>
        <time>2019-05-04T11:17:21Z</time>
      </trkpt>
      <trkpt lat="46.80498" lon="6.49711">
        <ele>1199</ele>
        <time>2019-05-04T11:17:23Z</time>
      </trkpt>
      <trkpt lat="46.80498" lon="6.49705">
        <ele>1198</ele>
        <time>2019-05-04T11:17:26Z</time>
      </trkpt>
      <trkpt lat="46.80497" lon="6.49705">
        <ele>1199</ele>
        <time>2019-05-04T11:17:27Z</time>
      </trkpt>
      <trkpt lat="46.80495" lon="6.49703">
        <ele>1200</ele>
        <time>2019-05-04T11:17:29Z</time>
      </trkpt>
      <trkpt lat="46.80494" lon="6.49701">
        <ele>1200</ele>
        <time>2019-05-04T11:17:30Z</time>
      </trkpt>
      <trkpt lat="46.80494" lon="6.49697">
        <ele>1199</ele>
        <time>2019-05-04T11:17:32Z</time>
      </trkpt>
      <trkpt lat="46.80494" lon="6.49693">
        <ele>1198</ele>
        <time>2019-05-04T11:17:35Z</time>
      </trkpt>
      <trkpt lat="46.80494" lon="6.49689">
        <ele>1197</ele>
        <time>2019-05-04T11:17:37Z</time>
      </trkpt>
      <trkpt lat="46.80494" lon="6.49686">
        <ele>1197</ele>
        <time>2019-05-04T11:17:38Z</time>
      </trkpt>
      <trkpt lat="46.80492" lon="6.49684">
        <ele>1198</ele>
        <time>2019-05-04T11:17:40Z</time>
      </trkpt>
      <trkpt lat="46.8049" lon="6.49681">
        <ele>1199</ele>
        <time>2019-05-04T11:17:42Z</time>
      </trkpt>
      <trkpt lat="46.80489" lon="6.49679">
        <ele>1199</ele>
        <time>2019-05-04T11:17:43Z</time>
      </trkpt>
      <trkpt lat="46.80488" lon="6.49675">
        <ele>1199</ele>
        <time>2019-05-04T11:17:46Z</time>
      </trkpt>
      <trkpt lat="46.80488" lon="6.49671">
        <ele>1199</ele>
        <time>2019-05-04T11:17:47Z</time>
      </trkpt>
      <trkpt lat="46.80489" lon="6.49669">
        <ele>1198</ele>
        <time>2019-05-04T11:17:49Z</time>
      </trkpt>
      <trkpt lat="46.80486" lon="6.49668">
        <ele>1200</ele>
        <time>2019-05-04T11:17:51Z</time>
      </trkpt>
      <trkpt lat="46.80485" lon="6.49668">
        <ele>1200</ele>
        <time>2019-05-04T11:17:52Z</time>
      </trkpt>
      <trkpt lat="46.80481" lon="6.49666">
        <ele>1202</ele>
        <time>2019-05-04T11:17:55Z</time>
      </trkpt>
      <trkpt lat="46.80481" lon="6.49666">
        <ele>1203</ele>
        <time>2019-05-04T11:17:56Z</time>
      </trkpt>
      <trkpt lat="46.80482" lon="6.49664">
        <ele>1202</ele>
        <time>2019-05-04T11:17:57Z</time>
      </trkpt>
      <trkpt lat="46.8048" lon="6.49664">
        <ele>1203</ele>
        <time>2019-05-04T11:17:59Z</time>
      </trkpt>
      <trkpt lat="46.80472" lon="6.49666">
        <ele>1208</ele>
        <time>2019-05-04T11:18:06Z</time>
      </trkpt>
      <trkpt lat="46.8047" lon="6.49666">
        <ele>1209</ele>
        <time>2019-05-04T11:18:07Z</time>
      </trkpt>
      <trkpt lat="46.80467" lon="6.49665">
        <ele>1211</ele>
        <time>2019-05-04T11:18:10Z</time>
      </trkpt>
      <trkpt lat="46.80464" lon="6.49666">
        <ele>1213</ele>
        <time>2019-05-04T11:18:12Z</time>
      </trkpt>
      <trkpt lat="46.80466" lon="6.49662">
        <ele>1212</ele>
        <time>2019-05-04T11:18:14Z</time>
      </trkpt>
      <trkpt lat="46.80468" lon="6.49658">
        <ele>1209</ele>
        <time>2019-05-04T11:18:18Z</time>
      </trkpt>
      <trkpt lat="46.80464" lon="6.49658">
        <ele>1213</ele>
        <time>2019-05-04T11:18:22Z</time>
      </trkpt>
      <trkpt lat="46.80464" lon="6.49657">
        <ele>1212</ele>
        <time>2019-05-04T11:18:23Z</time>
      </trkpt>
      <trkpt lat="46.80461" lon="6.49657">
        <ele>1214</ele>
        <time>2019-05-04T11:18:25Z</time>
      </trkpt>
      <trkpt lat="46.80461" lon="6.49657">
        <ele>1214</ele>
        <time>2019-05-04T11:18:25Z</time>
      </trkpt>
      <trkpt lat="46.8046" lon="6.49656">
        <ele>1214</ele>
        <time>2019-05-04T11:18:26Z</time>
      </trkpt>
      <trkpt lat="46.80462" lon="6.49652">
        <ele>1213</ele>
        <time>2019-05-04T11:18:28Z</time>
      </trkpt>
      <trkpt lat="46.80463" lon="6.49648">
        <ele>1211</ele>
        <time>2019-05-04T11:18:31Z</time>
      </trkpt>
      <trkpt lat="46.80464" lon="6.49646">
        <ele>1210</ele>
        <time>2019-05-04T11:18:32Z</time>
      </trkpt>
      <trkpt lat="46.80464" lon="6.49646">
        <ele>1210</ele>
        <time>2019-05-04T11:18:33Z</time>
      </trkpt>
      <trkpt lat="46.80467" lon="6.49638">
        <ele>1207</ele>
        <time>2019-05-04T11:18:38Z</time>
      </trkpt>
      <trkpt lat="46.80466" lon="6.49638">
        <ele>1208</ele>
        <time>2019-05-04T11:18:38Z</time>
      </trkpt>
      <trkpt lat="46.80464" lon="6.49638">
        <ele>1209</ele>
        <time>2019-05-04T11:18:40Z</time>
      </trkpt>
      <trkpt lat="46.80463" lon="6.49638">
        <ele>1210</ele>
        <time>2019-05-04T11:18:41Z</time>
      </trkpt>
      <trkpt lat="46.80465" lon="6.49634">
        <ele>1208</ele>
        <time>2019-05-04T11:18:43Z</time>
      </trkpt>
      <trkpt lat="46.80462" lon="6.49633">
        <ele>1210</ele>
        <time>2019-05-04T11:18:46Z</time>
      </trkpt>
      <trkpt lat="46.80463" lon="6.49629">
        <ele>1209</ele>
        <time>2019-05-04T11:18:47Z</time>
      </trkpt>
      <trkpt lat="46.80463" lon="6.49623">
        <ele>1208</ele>
        <time>2019-05-04T11:18:51Z</time>
      </trkpt>
      <trkpt lat="46.80465" lon="6.49619">
        <ele>1206</ele>
        <time>2019-05-04T11:18:54Z</time>
      </trkpt>
      <trkpt lat="46.80468" lon="6.49613">
        <ele>1203</ele>
        <time>2019-05-04T11:18:58Z</time>
      </trkpt>
      <trkpt lat="46.80467" lon="6.49612">
        <ele>1204</ele>
        <time>2019-05-04T11:18:59Z</time>
      </trkpt>
      <trkpt lat="46.80467" lon="6.49611">
        <ele>1204</ele>
        <time>2019-05-04T11:18:59Z</time>
      </trkpt>
      <trkpt lat="46.80462" lon="6.49609">
        <ele>1206</ele>
        <time>2019-05-04T11:19:03Z</time>
      </trkpt>
      <trkpt lat="46.80457" lon="6.4961">
        <ele>1210</ele>
        <time>2019-05-04T11:19:08Z</time>
      </trkpt>
      <trkpt lat="46.80454" lon="6.49611">
        <ele>1212</ele>
        <time>2019-05-04T11:19:10Z</time>
      </trkpt>
      <trkpt lat="46.80448" lon="6.49611">
        <ele>1216</ele>
        <time>2019-05-04T11:19:15Z</time>
      </trkpt>
      <trkpt lat="46.80441" lon="6.49612">
        <ele>1220</ele>
        <time>2019-05-04T11:19:20Z</time>
      </trkpt>
      <trkpt lat="46.80438" lon="6.49612">
        <ele>1222</ele>
        <time>2019-05-04T11:19:23Z</time>
      </trkpt>
      <trkpt lat="46.80434" lon="6.49609">
        <ele>1224</ele>
        <time>2019-05-04T11:19:27Z</time>
      </trkpt>
      <trkpt lat="46.80431" lon="6.49606">
        <ele>1225</ele>
        <time>2019-05-04T11:19:29Z</time>
      </trkpt>
      <trkpt lat="46.80428" lon="6.49603">
        <ele>1226</ele>
        <time>2019-05-04T11:19:32Z</time>
      </trkpt>
      <trkpt lat="46.80427" lon="6.49599">
        <ele>1226</ele>
        <time>2019-05-04T11:19:34Z</time>
      </trkpt>
      <trkpt lat="46.80424" lon="6.49597">
        <ele>1228</ele>
        <time>2019-05-04T11:19:37Z</time>
      </trkpt>
      <trkpt lat="46.80424" lon="6.49596">
        <ele>1228</ele>
        <time>2019-05-04T11:19:37Z</time>
      </trkpt>
      <trkpt lat="46.80422" lon="6.49594">
        <ele>1229</ele>
        <time>2019-05-04T11:19:39Z</time>
      </trkpt>
      <trkpt lat="46.80423" lon="6.49591">
        <ele>1227</ele>
        <time>2019-05-04T11:19:41Z</time>
      </trkpt>
      <trkpt lat="46.80421" lon="6.4959">
        <ele>1228</ele>
        <time>2019-05-04T11:19:43Z</time>
      </trkpt>
      <trkpt lat="46.80423" lon="6.49588">
        <ele>1227</ele>
        <time>2019-05-04T11:19:45Z</time>
      </trkpt>
      <trkpt lat="46.80423" lon="6.49585">
        <ele>1226</ele>
        <time>2019-05-04T11:19:46Z</time>
      </trkpt>
      <trkpt lat="46.80424" lon="6.49581">
        <ele>1225</ele>
        <time>2019-05-04T11:19:48Z</time>
      </trkpt>
      <trkpt lat="46.80422" lon="6.49581">
        <ele>1226</ele>
        <time>2019-05-04T11:19:50Z</time>
      </trkpt>
      <trkpt lat="46.80417" lon="6.49576">
        <ele>1228</ele>
        <time>2019-05-04T11:19:54Z</time>
      </trkpt>
      <trkpt lat="46.80417" lon="6.49576">
        <ele>1228</ele>
        <time>2019-05-04T11:19:54Z</time>
      </trkpt>
      <trkpt lat="46.80416" lon="6.49574">
        <ele>1229</ele>
        <time>2019-05-04T11:19:56Z</time>
      </trkpt>
      <trkpt lat="46.80416" lon="6.4957">
        <ele>1228</ele>
        <time>2019-05-04T11:19:58Z</time>
      </trkpt>
      <trkpt lat="46.80416" lon="6.49571">
        <ele>1228</ele>
        <time>2019-05-04T11:19:58Z</time>
      </trkpt>
      <trkpt lat="46.80417" lon="6.49568">
        <ele>1227</ele>
        <time>2019-05-04T11:20:00Z</time>
      </trkpt>
      <trkpt lat="46.80418" lon="6.49563">
        <ele>1226</ele>
        <time>2019-05-04T11:20:03Z</time>
      </trkpt>
      <trkpt lat="46.80416" lon="6.4956">
        <ele>1226</ele>
        <time>2019-05-04T11:20:04Z</time>
      </trkpt>
      <trkpt lat="46.80417" lon="6.49558">
        <ele>1225</ele>
        <time>2019-05-04T11:20:06Z</time>
      </trkpt>
      <trkpt lat="46.80416" lon="6.49558">
        <ele>1226</ele>
        <time>2019-05-04T11:20:07Z</time>
      </trkpt>
      <trkpt lat="46.80416" lon="6.49557">
        <ele>1226</ele>
        <time>2019-05-04T11:20:07Z</time>
      </trkpt>
      <trkpt lat="46.80414" lon="6.49556">
        <ele>1227</ele>
        <time>2019-05-04T11:20:09Z</time>
      </trkpt>
      <trkpt lat="46.80413" lon="6.49557">
        <ele>1228</ele>
        <time>2019-05-04T11:20:10Z</time>
      </trkpt>
      <trkpt lat="46.8041" lon="6.49556">
        <ele>1229</ele>
        <time>2019-05-04T11:20:12Z</time>
      </trkpt>
      <trkpt lat="46.80407" lon="6.49555">
        <ele>1231</ele>
        <time>2019-05-04T11:20:15Z</time>
      </trkpt>
      <trkpt lat="46.80406" lon="6.49554">
        <ele>1231</ele>
        <time>2019-05-04T11:20:15Z</time>
      </trkpt>
      <trkpt lat="46.80407" lon="6.4955">
        <ele>1230</ele>
        <time>2019-05-04T11:20:17Z</time>
      </trkpt>
      <trkpt lat="46.80408" lon="6.49548">
        <ele>1229</ele>
        <time>2019-05-04T11:20:19Z</time>
      </trkpt>
      <trkpt lat="46.80406" lon="6.49547">
        <ele>1230</ele>
        <time>2019-05-04T11:20:20Z</time>
      </trkpt>
      <trkpt lat="46.80405" lon="6.49546">
        <ele>1231</ele>
        <time>2019-05-04T11:20:22Z</time>
      </trkpt>
      <trkpt lat="46.80404" lon="6.49545">
        <ele>1231</ele>
        <time>2019-05-04T11:20:22Z</time>
      </trkpt>
      <trkpt lat="46.80402" lon="6.49546">
        <ele>1233</ele>
        <time>2019-05-04T11:20:24Z</time>
      </trkpt>
      <trkpt lat="46.80401" lon="6.49546">
        <ele>1233</ele>
        <time>2019-05-04T11:20:25Z</time>
      </trkpt>
      <trkpt lat="46.80397" lon="6.49548">
        <ele>1236</ele>
        <time>2019-05-04T11:20:29Z</time>
      </trkpt>
      <trkpt lat="46.80393" lon="6.49547">
        <ele>1239</ele>
        <time>2019-05-04T11:20:33Z</time>
      </trkpt>
      <trkpt lat="46.80393" lon="6.49546">
        <ele>1238</ele>
        <time>2019-05-04T11:20:34Z</time>
      </trkpt>
      <trkpt lat="46.80389" lon="6.49545">
        <ele>1241</ele>
        <time>2019-05-04T11:20:37Z</time>
      </trkpt>
      <trkpt lat="46.80387" lon="6.49545">
        <ele>1242</ele>
        <time>2019-05-04T11:20:38Z</time>
      </trkpt>
      <trkpt lat="46.80386" lon="6.49546">
        <ele>1243</ele>
        <time>2019-05-04T11:20:40Z</time>
      </trkpt>
      <trkpt lat="46.80385" lon="6.49547">
        <ele>1244</ele>
        <time>2019-05-04T11:20:41Z</time>
      </trkpt>
      <trkpt lat="46.80384" lon="6.49547">
        <ele>1245</ele>
        <time>2019-05-04T11:20:42Z</time>
      </trkpt>
      <trkpt lat="46.80388" lon="6.49541">
        <ele>1241</ele>
        <time>2019-05-04T11:20:47Z</time>
      </trkpt>
      <trkpt lat="46.80388" lon="6.4954">
        <ele>1241</ele>
        <time>2019-05-04T11:20:48Z</time>
      </trkpt>
      <trkpt lat="46.80388" lon="6.49535">
        <ele>1240</ele>
        <time>2019-05-04T11:20:50Z</time>
      </trkpt>
      <trkpt lat="46.80389" lon="6.49534">
        <ele>1239</ele>
        <time>2019-05-04T11:20:51Z</time>
      </trkpt>
      <trkpt lat="46.80389" lon="6.49534">
        <ele>1239</ele>
        <time>2019-05-04T11:20:51Z</time>
      </trkpt>
      <trkpt lat="46.80394" lon="6.49527">
        <ele>1235</ele>
        <time>2019-05-04T11:20:57Z</time>
      </trkpt>
      <trkpt lat="46.80396" lon="6.49523">
        <ele>1232</ele>
        <time>2019-05-04T11:21:00Z</time>
      </trkpt>
      <trkpt lat="46.80388" lon="6.49524">
        <ele>1238</ele>
        <time>2019-05-04T11:21:07Z</time>
      </trkpt>
      <trkpt lat="46.80384" lon="6.49524">
        <ele>1240</ele>
        <time>2019-05-04T11:21:10Z</time>
      </trkpt>
      <trkpt lat="46.80379" lon="6.49526">
        <ele>1244</ele>
        <time>2019-05-04T11:21:15Z</time>
      </trkpt>
      <trkpt lat="46.80375" lon="6.49524">
        <ele>1246</ele>
        <time>2019-05-04T11:21:18Z</time>
      </trkpt>
      <trkpt lat="46.80376" lon="6.4952">
        <ele>1245</ele>
        <time>2019-05-04T11:21:20Z</time>
      </trkpt>
      <trkpt lat="46.80374" lon="6.4952">
        <ele>1246</ele>
        <time>2019-05-04T11:21:22Z</time>
      </trkpt>
      <trkpt lat="46.80366" lon="6.49521">
        <ele>1251</ele>
        <time>2019-05-04T11:21:28Z</time>
      </trkpt>
      <trkpt lat="46.80361" lon="6.49525">
        <ele>1255</ele>
        <time>2019-05-04T11:21:33Z</time>
      </trkpt>
      <trkpt lat="46.8036" lon="6.49526">
        <ele>1256</ele>
        <time>2019-05-04T11:21:35Z</time>
      </trkpt>
      <trkpt lat="46.8036" lon="6.49528">
        <ele>1257</ele>
        <time>2019-05-04T11:21:36Z</time>
      </trkpt>
      <trkpt lat="46.80359" lon="6.49529">
        <ele>1257</ele>
        <time>2019-05-04T11:21:36Z</time>
      </trkpt>
      <trkpt lat="46.80359" lon="6.4953">
        <ele>1258</ele>
        <time>2019-05-04T11:21:37Z</time>
      </trkpt>
      <trkpt lat="46.80359" lon="6.49531">
        <ele>1258</ele>
        <time>2019-05-04T11:21:38Z</time>
      </trkpt>
      <trkpt lat="46.80355" lon="6.49534">
        <ele>1261</ele>
        <time>2019-05-04T11:21:41Z</time>
      </trkpt>
      <trkpt lat="46.80352" lon="6.49539">
        <ele>1264</ele>
        <time>2019-05-04T11:21:45Z</time>
      </trkpt>
      <trkpt lat="46.80357" lon="6.49543">
        <ele>1261</ele>
        <time>2019-05-04T11:21:50Z</time>
      </trkpt>
      <trkpt lat="46.80358" lon="6.49547">
        <ele>1261</ele>
        <time>2019-05-04T11:21:52Z</time>
      </trkpt>
      <trkpt lat="46.80358" lon="6.49549">
        <ele>1262</ele>
        <time>2019-05-04T11:21:54Z</time>
      </trkpt>
      <trkpt lat="46.80358" lon="6.49552">
        <ele>1262</ele>
        <time>2019-05-04T11:21:55Z</time>
      </trkpt>
      <trkpt lat="46.8036" lon="6.4956">
        <ele>1262</ele>
        <time>2019-05-04T11:21:59Z</time>
      </trkpt>
      <trkpt lat="46.80363" lon="6.49563">
        <ele>1261</ele>
        <time>2019-05-04T11:22:02Z</time>
      </trkpt>
      <trkpt lat="46.80364" lon="6.49576">
        <ele>1261</ele>
        <time>2019-05-04T11:22:08Z</time>
      </trkpt>
      <trkpt lat="46.80365" lon="6.49584">
        <ele>1262</ele>
        <time>2019-05-04T11:22:12Z</time>
      </trkpt>
      <trkpt lat="46.80369" lon="6.49598">
        <ele>1262</ele>
        <time>2019-05-04T11:22:20Z</time>
      </trkpt>
      <trkpt lat="46.80371" lon="6.49624">
        <ele>1265</ele>
        <time>2019-05-04T11:22:33Z</time>
      </trkpt>
      <trkpt lat="46.80374" lon="6.49631">
        <ele>1264</ele>
        <time>2019-05-04T11:22:37Z</time>
      </trkpt>
      <trkpt lat="46.80383" lon="6.49654">
        <ele>1263</ele>
        <time>2019-05-04T11:22:50Z</time>
      </trkpt>
      <trkpt lat="46.80385" lon="6.49657">
        <ele>1262</ele>
        <time>2019-05-04T11:22:52Z</time>
      </trkpt>
      <trkpt lat="46.80391" lon="6.49665">
        <ele>1260</ele>
        <time>2019-05-04T11:22:58Z</time>
      </trkpt>
      <trkpt lat="46.80391" lon="6.49669">
        <ele>1261</ele>
        <time>2019-05-04T11:23:00Z</time>
      </trkpt>
      <trkpt lat="46.80402" lon="6.49691">
        <ele>1257</ele>
        <time>2019-05-04T11:23:14Z</time>
      </trkpt>
      <trkpt lat="46.80404" lon="6.49702">
        <ele>1257</ele>
        <time>2019-05-04T11:23:20Z</time>
      </trkpt>
      <trkpt lat="46.80412" lon="6.49719">
        <ele>1255</ele>
        <time>2019-05-04T11:23:30Z</time>
      </trkpt>
      <trkpt lat="46.80413" lon="6.4972">
        <ele>1254</ele>
        <time>2019-05-04T11:23:31Z</time>
      </trkpt>
      <trkpt lat="46.80413" lon="6.49723">
        <ele>1255</ele>
        <time>2019-05-04T11:23:32Z</time>
      </trkpt>
      <trkpt lat="46.80411" lon="6.49725">
        <ele>1256</ele>
        <time>2019-05-04T11:23:34Z</time>
      </trkpt>
      <trkpt lat="46.80408" lon="6.49727">
        <ele>1259</ele>
        <time>2019-05-04T11:23:37Z</time>
      </trkpt>
      <trkpt lat="46.80405" lon="6.49727">
        <ele>1260</ele>
        <time>2019-05-04T11:23:39Z</time>
      </trkpt>
      <trkpt lat="46.80405" lon="6.49723">
        <ele>1259</ele>
        <time>2019-05-04T11:23:41Z</time>
      </trkpt>
      <trkpt lat="46.80406" lon="6.49717">
        <ele>1258</ele>
        <time>2019-05-04T11:23:44Z</time>
      </trkpt>
      <trkpt lat="46.80406" lon="6.49715">
        <ele>1258</ele>
        <time>2019-05-04T11:23:45Z</time>
      </trkpt>
      <trkpt lat="46.80406" lon="6.49714">
        <ele>1258</ele>
        <time>2019-05-04T11:23:46Z</time>
      </trkpt>
      <trkpt lat="46.80405" lon="6.49708">
        <ele>1258</ele>
        <time>2019-05-04T11:23:49Z</time>
      </trkpt>
      <trkpt lat="46.80404" lon="6.49704">
        <ele>1258</ele>
        <time>2019-05-04T11:23:51Z</time>
      </trkpt>
      <trkpt lat="46.80402" lon="6.49701">
        <ele>1258</ele>
        <time>2019-05-04T11:23:53Z</time>
      </trkpt>
      <trkpt lat="46.80399" lon="6.49699">
        <ele>1260</ele>
        <time>2019-05-04T11:23:56Z</time>
      </trkpt>
      <trkpt lat="46.80396" lon="6.49699">
        <ele>1262</ele>
        <time>2019-05-04T11:23:59Z</time>
      </trkpt>
      <trkpt lat="46.80392" lon="6.49697">
        <ele>1264</ele>
        <time>2019-05-04T11:24:02Z</time>
      </trkpt>
      <trkpt lat="46.80389" lon="6.49696">
        <ele>1266</ele>
        <time>2019-05-04T11:24:04Z</time>
      </trkpt>
      <trkpt lat="46.80388" lon="6.49695">
        <ele>1266</ele>
        <time>2019-05-04T11:24:05Z</time>
      </trkpt>
      <trkpt lat="46.80388" lon="6.4969">
        <ele>1266</ele>
        <time>2019-05-04T11:24:08Z</time>
      </trkpt>
      <trkpt lat="46.80391" lon="6.49681">
        <ele>1263</ele>
        <time>2019-05-04T11:24:13Z</time>
      </trkpt>
      <trkpt lat="46.80389" lon="6.49679">
        <ele>1263</ele>
        <time>2019-05-04T11:24:14Z</time>
      </trkpt>
      <trkpt lat="46.80389" lon="6.49676">
        <ele>1263</ele>
        <time>2019-05-04T11:24:15Z</time>
      </trkpt>
      <trkpt lat="46.80387" lon="6.49674">
        <ele>1264</ele>
        <time>2019-05-04T11:24:17Z</time>
      </trkpt>
      <trkpt lat="46.80387" lon="6.49673">
        <ele>1263</ele>
        <time>2019-05-04T11:24:18Z</time>
      </trkpt>
      <trkpt lat="46.80384" lon="6.49672">
        <ele>1265</ele>
        <time>2019-05-04T11:24:21Z</time>
      </trkpt>
      <trkpt lat="46.80381" lon="6.49669">
        <ele>1267</ele>
        <time>2019-05-04T11:24:23Z</time>
      </trkpt>
      <trkpt lat="46.80381" lon="6.49665">
        <ele>1266</ele>
        <time>2019-05-04T11:24:26Z</time>
      </trkpt>
      <trkpt lat="46.8038" lon="6.49662">
        <ele>1266</ele>
        <time>2019-05-04T11:24:27Z</time>
      </trkpt>
      <trkpt lat="46.8038" lon="6.49658">
        <ele>1265</ele>
        <time>2019-05-04T11:24:29Z</time>
      </trkpt>
      <trkpt lat="46.80379" lon="6.49654">
        <ele>1265</ele>
        <time>2019-05-04T11:24:32Z</time>
      </trkpt>
      <trkpt lat="46.8038" lon="6.4965">
        <ele>1264</ele>
        <time>2019-05-04T11:24:33Z</time>
      </trkpt>
      <trkpt lat="46.80378" lon="6.49646">
        <ele>1265</ele>
        <time>2019-05-04T11:24:36Z</time>
      </trkpt>
      <trkpt lat="46.80377" lon="6.49645">
        <ele>1265</ele>
        <time>2019-05-04T11:24:37Z</time>
      </trkpt>
      <trkpt lat="46.80375" lon="6.49644">
        <ele>1266</ele>
        <time>2019-05-04T11:24:39Z</time>
      </trkpt>
      <trkpt lat="46.80374" lon="6.49643">
        <ele>1267</ele>
        <time>2019-05-04T11:24:40Z</time>
      </trkpt>
      <trkpt lat="46.80373" lon="6.4964">
        <ele>1267</ele>
        <time>2019-05-04T11:24:41Z</time>
      </trkpt>
      <trkpt lat="46.80371" lon="6.49638">
        <ele>1268</ele>
        <time>2019-05-04T11:24:43Z</time>
      </trkpt>
      <trkpt lat="46.80371" lon="6.49637">
        <ele>1267</ele>
        <time>2019-05-04T11:24:44Z</time>
      </trkpt>
      <trkpt lat="46.80371" lon="6.49633">
        <ele>1267</ele>
        <time>2019-05-04T11:24:46Z</time>
      </trkpt>
      <trkpt lat="46.80372" lon="6.49629">
        <ele>1266</ele>
        <time>2019-05-04T11:24:48Z</time>
      </trkpt>
      <trkpt lat="46.80371" lon="6.49626">
        <ele>1265</ele>
        <time>2019-05-04T11:24:50Z</time>
      </trkpt>
      <trkpt lat="46.80371" lon="6.49621">
        <ele>1264</ele>
        <time>2019-05-04T11:24:53Z</time>
      </trkpt>
      <trkpt lat="46.80368" lon="6.4962">
        <ele>1267</ele>
        <time>2019-05-04T11:24:56Z</time>
      </trkpt>
      <trkpt lat="46.80366" lon="6.49621">
        <ele>1268</ele>
        <time>2019-05-04T11:24:57Z</time>
      </trkpt>
      <trkpt lat="46.80364" lon="6.4962">
        <ele>1269</ele>
        <time>2019-05-04T11:24:59Z</time>
      </trkpt>
      <trkpt lat="46.80353" lon="6.49621">
        <ele>1276</ele>
        <time>2019-05-04T11:25:08Z</time>
      </trkpt>
      <trkpt lat="46.8035" lon="6.49622">
        <ele>1279</ele>
        <time>2019-05-04T11:25:11Z</time>
      </trkpt>
      <trkpt lat="46.80341" lon="6.49627">
        <ele>1286</ele>
        <time>2019-05-04T11:25:19Z</time>
      </trkpt>
      <trkpt lat="46.80333" lon="6.49632">
        <ele>1292</ele>
        <time>2019-05-04T11:25:26Z</time>
      </trkpt>
      <trkpt lat="46.80329" lon="6.49625">
        <ele>1294</ele>
        <time>2019-05-04T11:25:31Z</time>
      </trkpt>
      <trkpt lat="46.8033" lon="6.49624">
        <ele>1293</ele>
        <time>2019-05-04T11:25:32Z</time>
      </trkpt>
      <trkpt lat="46.8033" lon="6.49621">
        <ele>1292</ele>
        <time>2019-05-04T11:25:34Z</time>
      </trkpt>
      <trkpt lat="46.80328" lon="6.49617">
        <ele>1293</ele>
        <time>2019-05-04T11:25:36Z</time>
      </trkpt>
      <trkpt lat="46.80325" lon="6.49615">
        <ele>1295</ele>
        <time>2019-05-04T11:25:39Z</time>
      </trkpt>
      <trkpt lat="46.80324" lon="6.49614">
        <ele>1295</ele>
        <time>2019-05-04T11:25:40Z</time>
      </trkpt>
      <trkpt lat="46.80323" lon="6.49612">
        <ele>1295</ele>
        <time>2019-05-04T11:25:41Z</time>
      </trkpt>
      <trkpt lat="46.80321" lon="6.49611">
        <ele>1297</ele>
        <time>2019-05-04T11:25:43Z</time>
      </trkpt>
      <trkpt lat="46.8032" lon="6.4961">
        <ele>1297</ele>
        <time>2019-05-04T11:25:44Z</time>
      </trkpt>
      <trkpt lat="46.80316" lon="6.49608">
        <ele>1299</ele>
        <time>2019-05-04T11:25:47Z</time>
      </trkpt>
      <trkpt lat="46.80313" lon="6.49606">
        <ele>1301</ele>
        <time>2019-05-04T11:25:50Z</time>
      </trkpt>
      <trkpt lat="46.80311" lon="6.49602">
        <ele>1302</ele>
        <time>2019-05-04T11:25:52Z</time>
      </trkpt>
      <trkpt lat="46.8031" lon="6.49597">
        <ele>1302</ele>
        <time>2019-05-04T11:25:55Z</time>
      </trkpt>
      <trkpt lat="46.80307" lon="6.49591">
        <ele>1303</ele>
        <time>2019-05-04T11:25:59Z</time>
      </trkpt>
      <trkpt lat="46.80304" lon="6.49589">
        <ele>1304</ele>
        <time>2019-05-04T11:26:01Z</time>
      </trkpt>
      <trkpt lat="46.80304" lon="6.49585">
        <ele>1304</ele>
        <time>2019-05-04T11:26:03Z</time>
      </trkpt>
      <trkpt lat="46.80303" lon="6.49584">
        <ele>1304</ele>
        <time>2019-05-04T11:26:03Z</time>
      </trkpt>
      <trkpt lat="46.80301" lon="6.49581">
        <ele>1305</ele>
        <time>2019-05-04T11:26:05Z</time>
      </trkpt>
      <trkpt lat="46.803" lon="6.49579">
        <ele>1306</ele>
        <time>2019-05-04T11:26:07Z</time>
      </trkpt>
      <trkpt lat="46.803" lon="6.49578">
        <ele>1306</ele>
        <time>2019-05-04T11:26:07Z</time>
      </trkpt>
      <trkpt lat="46.80298" lon="6.49577">
        <ele>1307</ele>
        <time>2019-05-04T11:26:09Z</time>
      </trkpt>
      <trkpt lat="46.80297" lon="6.49574">
        <ele>1308</ele>
        <time>2019-05-04T11:26:11Z</time>
      </trkpt>
      <trkpt lat="46.80296" lon="6.49573">
        <ele>1308</ele>
        <time>2019-05-04T11:26:11Z</time>
      </trkpt>
      <trkpt lat="46.80293" lon="6.49571">
        <ele>1310</ele>
        <time>2019-05-04T11:26:14Z</time>
      </trkpt>
      <trkpt lat="46.8029" lon="6.49571">
        <ele>1312</ele>
        <time>2019-05-04T11:26:17Z</time>
      </trkpt>
      <trkpt lat="46.80288" lon="6.49571">
        <ele>1313</ele>
        <time>2019-05-04T11:26:18Z</time>
      </trkpt>
      <trkpt lat="46.80285" lon="6.49568">
        <ele>1315</ele>
        <time>2019-05-04T11:26:21Z</time>
      </trkpt>
      <trkpt lat="46.80284" lon="6.49567">
        <ele>1316</ele>
        <time>2019-05-04T11:26:23Z</time>
      </trkpt>
      <trkpt lat="46.80281" lon="6.49563">
        <ele>1317</ele>
        <time>2019-05-04T11:26:25Z</time>
      </trkpt>
      <trkpt lat="46.80279" lon="6.49557">
        <ele>1317</ele>
        <time>2019-05-04T11:26:29Z</time>
      </trkpt>
      <trkpt lat="46.80279" lon="6.49556">
        <ele>1317</ele>
        <time>2019-05-04T11:26:29Z</time>
      </trkpt>
      <trkpt lat="46.80279" lon="6.49552">
        <ele>1317</ele>
        <time>2019-05-04T11:26:31Z</time>
      </trkpt>
      <trkpt lat="46.80276" lon="6.49549">
        <ele>1318</ele>
        <time>2019-05-04T11:26:33Z</time>
      </trkpt>
      <trkpt lat="46.80276" lon="6.49545">
        <ele>1318</ele>
        <time>2019-05-04T11:26:36Z</time>
      </trkpt>
      <trkpt lat="46.80275" lon="6.49544">
        <ele>1318</ele>
        <time>2019-05-04T11:26:37Z</time>
      </trkpt>
      <trkpt lat="46.80274" lon="6.49543">
        <ele>1319</ele>
        <time>2019-05-04T11:26:38Z</time>
      </trkpt>
      <trkpt lat="46.80272" lon="6.4954">
        <ele>1320</ele>
        <time>2019-05-04T11:26:40Z</time>
      </trkpt>
      <trkpt lat="46.80271" lon="6.49536">
        <ele>1320</ele>
        <time>2019-05-04T11:26:42Z</time>
      </trkpt>
      <trkpt lat="46.8027" lon="6.49535">
        <ele>1320</ele>
        <time>2019-05-04T11:26:43Z</time>
      </trkpt>
      <trkpt lat="46.8027" lon="6.49531">
        <ele>1319</ele>
        <time>2019-05-04T11:26:45Z</time>
      </trkpt>
      <trkpt lat="46.8027" lon="6.4953">
        <ele>1319</ele>
        <time>2019-05-04T11:26:45Z</time>
      </trkpt>
      <trkpt lat="46.8027" lon="6.49529">
        <ele>1320</ele>
        <time>2019-05-04T11:26:46Z</time>
      </trkpt>
      <trkpt lat="46.80269" lon="6.49527">
        <ele>1320</ele>
        <time>2019-05-04T11:26:47Z</time>
      </trkpt>
      <trkpt lat="46.80266" lon="6.49526">
        <ele>1322</ele>
        <time>2019-05-04T11:26:50Z</time>
      </trkpt>
      <trkpt lat="46.80262" lon="6.49524">
        <ele>1324</ele>
        <time>2019-05-04T11:26:53Z</time>
      </trkpt>
      <trkpt lat="46.80256" lon="6.49521">
        <ele>1328</ele>
        <time>2019-05-04T11:26:58Z</time>
      </trkpt>
      <trkpt lat="46.8025" lon="6.49517">
        <ele>1332</ele>
        <time>2019-05-04T11:27:04Z</time>
      </trkpt>
      <trkpt lat="46.80246" lon="6.49512">
        <ele>1334</ele>
        <time>2019-05-04T11:27:08Z</time>
      </trkpt>
      <trkpt lat="46.80244" lon="6.4951">
        <ele>1334</ele>
        <time>2019-05-04T11:27:09Z</time>
      </trkpt>
      <trkpt lat="46.80245" lon="6.49507">
        <ele>1333</ele>
        <time>2019-05-04T11:27:11Z</time>
      </trkpt>
      <trkpt lat="46.80246" lon="6.49503">
        <ele>1332</ele>
        <time>2019-05-04T11:27:13Z</time>
      </trkpt>
      <trkpt lat="46.80247" lon="6.49501">
        <ele>1332</ele>
        <time>2019-05-04T11:27:14Z</time>
      </trkpt>
      <trkpt lat="46.80247" lon="6.49496">
        <ele>1331</ele>
        <time>2019-05-04T11:27:16Z</time>
      </trkpt>
      <trkpt lat="46.80248" lon="6.49496">
        <ele>1330</ele>
        <time>2019-05-04T11:27:17Z</time>
      </trkpt>
      <trkpt lat="46.80248" lon="6.49494">
        <ele>1330</ele>
        <time>2019-05-04T11:27:18Z</time>
      </trkpt>
      <trkpt lat="46.80249" lon="6.49494">
        <ele>1329</ele>
        <time>2019-05-04T11:27:19Z</time>
      </trkpt>
      <trkpt lat="46.8025" lon="6.49493">
        <ele>1329</ele>
        <time>2019-05-04T11:27:20Z</time>
      </trkpt>
      <trkpt lat="46.80251" lon="6.4949">
        <ele>1327</ele>
        <time>2019-05-04T11:27:22Z</time>
      </trkpt>
      <trkpt lat="46.80247" lon="6.49488">
        <ele>1330</ele>
        <time>2019-05-04T11:27:25Z</time>
      </trkpt>
      <trkpt lat="46.80246" lon="6.49488">
        <ele>1331</ele>
        <time>2019-05-04T11:27:26Z</time>
      </trkpt>
      <trkpt lat="46.80244" lon="6.49486">
        <ele>1331</ele>
        <time>2019-05-04T11:27:28Z</time>
      </trkpt>
      <trkpt lat="46.80241" lon="6.49484">
        <ele>1333</ele>
        <time>2019-05-04T11:27:31Z</time>
      </trkpt>
      <trkpt lat="46.80239" lon="6.49482">
        <ele>1334</ele>
        <time>2019-05-04T11:27:32Z</time>
      </trkpt>
      <trkpt lat="46.80239" lon="6.4948">
        <ele>1334</ele>
        <time>2019-05-04T11:27:33Z</time>
      </trkpt>
      <trkpt lat="46.80236" lon="6.49477">
        <ele>1336</ele>
        <time>2019-05-04T11:27:36Z</time>
      </trkpt>
      <trkpt lat="46.8023" lon="6.49475">
        <ele>1340</ele>
        <time>2019-05-04T11:27:41Z</time>
      </trkpt>
      <trkpt lat="46.80226" lon="6.49469">
        <ele>1342</ele>
        <time>2019-05-04T11:27:45Z</time>
      </trkpt>
      <trkpt lat="46.80223" lon="6.49465">
        <ele>1344</ele>
        <time>2019-05-04T11:27:49Z</time>
      </trkpt>
      <trkpt lat="46.80222" lon="6.49463">
        <ele>1344</ele>
        <time>2019-05-04T11:27:50Z</time>
      </trkpt>
      <trkpt lat="46.80222" lon="6.49461">
        <ele>1344</ele>
        <time>2019-05-04T11:27:51Z</time>
      </trkpt>
      <trkpt lat="46.8022" lon="6.49459">
        <ele>1345</ele>
        <time>2019-05-04T11:27:53Z</time>
      </trkpt>
      <trkpt lat="46.8022" lon="6.49458">
        <ele>1345</ele>
        <time>2019-05-04T11:27:53Z</time>
      </trkpt>
      <trkpt lat="46.80218" lon="6.49455">
        <ele>1346</ele>
        <time>2019-05-04T11:27:55Z</time>
      </trkpt>
      <trkpt lat="46.80217" lon="6.49454">
        <ele>1347</ele>
        <time>2019-05-04T11:27:56Z</time>
      </trkpt>
      <trkpt lat="46.80213" lon="6.49452">
        <ele>1349</ele>
        <time>2019-05-04T11:28:00Z</time>
      </trkpt>
      <trkpt lat="46.80213" lon="6.49451">
        <ele>1350</ele>
        <time>2019-05-04T11:28:01Z</time>
      </trkpt>
      <trkpt lat="46.80212" lon="6.4945">
        <ele>1350</ele>
        <time>2019-05-04T11:28:02Z</time>
      </trkpt>
      <trkpt lat="46.80209" lon="6.49447">
        <ele>1352</ele>
        <time>2019-05-04T11:28:04Z</time>
      </trkpt>
      <trkpt lat="46.80208" lon="6.49446">
        <ele>1353</ele>
        <time>2019-05-04T11:28:06Z</time>
      </trkpt>
      <trkpt lat="46.80207" lon="6.49445">
        <ele>1353</ele>
        <time>2019-05-04T11:28:06Z</time>
      </trkpt>
      <trkpt lat="46.80204" lon="6.49444">
        <ele>1355</ele>
        <time>2019-05-04T11:28:09Z</time>
      </trkpt>
      <trkpt lat="46.80203" lon="6.49444">
        <ele>1355</ele>
        <time>2019-05-04T11:28:10Z</time>
      </trkpt>
      <trkpt lat="46.80203" lon="6.49442">
        <ele>1356</ele>
        <time>2019-05-04T11:28:11Z</time>
      </trkpt>
      <trkpt lat="46.80203" lon="6.49441">
        <ele>1356</ele>
        <time>2019-05-04T11:28:12Z</time>
      </trkpt>
      <trkpt lat="46.80201" lon="6.4944">
        <ele>1357</ele>
        <time>2019-05-04T11:28:13Z</time>
      </trkpt>
      <trkpt lat="46.802" lon="6.49439">
        <ele>1357</ele>
        <time>2019-05-04T11:28:14Z</time>
      </trkpt>
      <trkpt lat="46.802" lon="6.49438">
        <ele>1357</ele>
        <time>2019-05-04T11:28:14Z</time>
      </trkpt>
      <trkpt lat="46.802" lon="6.49436">
        <ele>1357</ele>
        <time>2019-05-04T11:28:16Z</time>
      </trkpt>
      <trkpt lat="46.802" lon="6.49438">
        <ele>1357</ele>
        <time>2019-05-04T11:28:17Z</time>
      </trkpt>
      <trkpt lat="46.80201" lon="6.49442">
        <ele>1357</ele>
        <time>2019-05-04T11:28:19Z</time>
      </trkpt>
      <trkpt lat="46.80201" lon="6.49447">
        <ele>1357</ele>
        <time>2019-05-04T11:28:21Z</time>
      </trkpt>
      <trkpt lat="46.80199" lon="6.4945">
        <ele>1359</ele>
        <time>2019-05-04T11:28:24Z</time>
      </trkpt>
      <trkpt lat="46.80199" lon="6.49451">
        <ele>1359</ele>
        <time>2019-05-04T11:28:24Z</time>
      </trkpt>
      <trkpt lat="46.80198" lon="6.49454">
        <ele>1360</ele>
        <time>2019-05-04T11:28:26Z</time>
      </trkpt>
      <trkpt lat="46.80198" lon="6.49455">
        <ele>1361</ele>
        <time>2019-05-04T11:28:27Z</time>
      </trkpt>
      <trkpt lat="46.80193" lon="6.49459">
        <ele>1364</ele>
        <time>2019-05-04T11:28:31Z</time>
      </trkpt>
      <trkpt lat="46.80194" lon="6.4946">
        <ele>1364</ele>
        <time>2019-05-04T11:28:31Z</time>
      </trkpt>
      <trkpt lat="46.80195" lon="6.49461">
        <ele>1363</ele>
        <time>2019-05-04T11:28:33Z</time>
      </trkpt>
      <trkpt lat="46.80192" lon="6.49466">
        <ele>1365</ele>
        <time>2019-05-04T11:28:37Z</time>
      </trkpt>
      <trkpt lat="46.80192" lon="6.49468">
        <ele>1365</ele>
        <time>2019-05-04T11:28:38Z</time>
      </trkpt>
      <trkpt lat="46.80192" lon="6.4947">
        <ele>1365</ele>
        <time>2019-05-04T11:28:39Z</time>
      </trkpt>
      <trkpt lat="46.80192" lon="6.49471">
        <ele>1366</ele>
        <time>2019-05-04T11:28:40Z</time>
      </trkpt>
      <trkpt lat="46.80191" lon="6.49478">
        <ele>1367</ele>
        <time>2019-05-04T11:28:43Z</time>
      </trkpt>
      <trkpt lat="46.8019" lon="6.49479">
        <ele>1367</ele>
        <time>2019-05-04T11:28:44Z</time>
      </trkpt>
      <trkpt lat="46.80189" lon="6.49484">
        <ele>1368</ele>
        <time>2019-05-04T11:28:46Z</time>
      </trkpt>
      <trkpt lat="46.80189" lon="6.49486">
        <ele>1369</ele>
        <time>2019-05-04T11:28:48Z</time>
      </trkpt>
      <trkpt lat="46.80188" lon="6.4949">
        <ele>1370</ele>
        <time>2019-05-04T11:28:50Z</time>
      </trkpt>
      <trkpt lat="46.80187" lon="6.49495">
        <ele>1371</ele>
        <time>2019-05-04T11:28:53Z</time>
      </trkpt>
      <trkpt lat="46.80187" lon="6.49497">
        <ele>1371</ele>
        <time>2019-05-04T11:28:54Z</time>
      </trkpt>
      <trkpt lat="46.80187" lon="6.49503">
        <ele>1372</ele>
        <time>2019-05-04T11:28:57Z</time>
      </trkpt>
      <trkpt lat="46.80187" lon="6.49505">
        <ele>1372</ele>
        <time>2019-05-04T11:28:58Z</time>
      </trkpt>
      <trkpt lat="46.80188" lon="6.49509">
        <ele>1372</ele>
        <time>2019-05-04T11:29:00Z</time>
      </trkpt>
      <trkpt lat="46.80185" lon="6.49513">
        <ele>1373</ele>
        <time>2019-05-04T11:29:03Z</time>
      </trkpt>
      <trkpt lat="46.80185" lon="6.49516">
        <ele>1374</ele>
        <time>2019-05-04T11:29:04Z</time>
      </trkpt>
      <trkpt lat="46.80185" lon="6.49517">
        <ele>1374</ele>
        <time>2019-05-04T11:29:05Z</time>
      </trkpt>
      <trkpt lat="46.80184" lon="6.4952">
        <ele>1375</ele>
        <time>2019-05-04T11:29:07Z</time>
      </trkpt>
      <trkpt lat="46.80185" lon="6.49523">
        <ele>1375</ele>
        <time>2019-05-04T11:29:08Z</time>
      </trkpt>
      <trkpt lat="46.80185" lon="6.49525">
        <ele>1375</ele>
        <time>2019-05-04T11:29:09Z</time>
      </trkpt>
      <trkpt lat="46.80185" lon="6.49526">
        <ele>1375</ele>
        <time>2019-05-04T11:29:10Z</time>
      </trkpt>
      <trkpt lat="46.80185" lon="6.49528">
        <ele>1375</ele>
        <time>2019-05-04T11:29:11Z</time>
      </trkpt>
      <trkpt lat="46.80184" lon="6.49531">
        <ele>1376</ele>
        <time>2019-05-04T11:29:12Z</time>
      </trkpt>
      <trkpt lat="46.80182" lon="6.49534">
        <ele>1377</ele>
        <time>2019-05-04T11:29:14Z</time>
      </trkpt>
      <trkpt lat="46.80182" lon="6.49538">
        <ele>1378</ele>
        <time>2019-05-04T11:29:17Z</time>
      </trkpt>
      <trkpt lat="46.80182" lon="6.49539">
        <ele>1377</ele>
        <time>2019-05-04T11:29:17Z</time>
      </trkpt>
      <trkpt lat="46.80183" lon="6.49539">
        <ele>1377</ele>
        <time>2019-05-04T11:29:18Z</time>
      </trkpt>
      <trkpt lat="46.80182" lon="6.49545">
        <ele>1378</ele>
        <time>2019-05-04T11:29:21Z</time>
      </trkpt>
      <trkpt lat="46.8018" lon="6.49548">
        <ele>1379</ele>
        <time>2019-05-04T11:29:23Z</time>
      </trkpt>
      <trkpt lat="46.80179" lon="6.49551">
        <ele>1380</ele>
        <time>2019-05-04T11:29:25Z</time>
      </trkpt>
      <trkpt lat="46.80178" lon="6.49554">
        <ele>1381</ele>
        <time>2019-05-04T11:29:27Z</time>
      </trkpt>
      <trkpt lat="46.80177" lon="6.49558">
        <ele>1381</ele>
        <time>2019-05-04T11:29:29Z</time>
      </trkpt>
      <trkpt lat="46.80177" lon="6.49559">
        <ele>1382</ele>
        <time>2019-05-04T11:29:30Z</time>
      </trkpt>
      <trkpt lat="46.80178" lon="6.49561">
        <ele>1381</ele>
        <time>2019-05-04T11:29:31Z</time>
      </trkpt>
      <trkpt lat="46.80177" lon="6.49562">
        <ele>1382</ele>
        <time>2019-05-04T11:29:32Z</time>
      </trkpt>
      <trkpt lat="46.80176" lon="6.49565">
        <ele>1383</ele>
        <time>2019-05-04T11:29:34Z</time>
      </trkpt>
      <trkpt lat="46.80175" lon="6.49567">
        <ele>1383</ele>
        <time>2019-05-04T11:29:35Z</time>
      </trkpt>
      <trkpt lat="46.80176" lon="6.4957">
        <ele>1383</ele>
        <time>2019-05-04T11:29:36Z</time>
      </trkpt>
      <trkpt lat="46.80172" lon="6.49577">
        <ele>1385</ele>
        <time>2019-05-04T11:29:40Z</time>
      </trkpt>
      <trkpt lat="46.80172" lon="6.49579">
        <ele>1385</ele>
        <time>2019-05-04T11:29:42Z</time>
      </trkpt>
      <trkpt lat="46.80168" lon="6.49588">
        <ele>1388</ele>
        <time>2019-05-04T11:29:47Z</time>
      </trkpt>
      <trkpt lat="46.80168" lon="6.49589">
        <ele>1388</ele>
        <time>2019-05-04T11:29:48Z</time>
      </trkpt>
      <trkpt lat="46.80171" lon="6.49591">
        <ele>1387</ele>
        <time>2019-05-04T11:29:50Z</time>
      </trkpt>
      <trkpt lat="46.80171" lon="6.49591">
        <ele>1387</ele>
        <time>2019-05-04T11:29:50Z</time>
      </trkpt>
      <trkpt lat="46.80171" lon="6.49592">
        <ele>1387</ele>
        <time>2019-05-04T11:29:51Z</time>
      </trkpt>
      <trkpt lat="46.80171" lon="6.49593">
        <ele>1387</ele>
        <time>2019-05-04T11:29:51Z</time>
      </trkpt>
      <trkpt lat="46.80173" lon="6.49594">
        <ele>1386</ele>
        <time>2019-05-04T11:29:53Z</time>
      </trkpt>
      <trkpt lat="46.80174" lon="6.49596">
        <ele>1386</ele>
        <time>2019-05-04T11:29:54Z</time>
      </trkpt>
      <trkpt lat="46.80176" lon="6.49598">
        <ele>1386</ele>
        <time>2019-05-04T11:29:56Z</time>
      </trkpt>
      <trkpt lat="46.80176" lon="6.49599">
        <ele>1385</ele>
        <time>2019-05-04T11:29:57Z</time>
      </trkpt>
      <trkpt lat="46.80176" lon="6.49602">
        <ele>1386</ele>
        <time>2019-05-04T11:29:59Z</time>
      </trkpt>
      <trkpt lat="46.80175" lon="6.49608">
        <ele>1387</ele>
        <time>2019-05-04T11:30:02Z</time>
      </trkpt>
      <trkpt lat="46.80175" lon="6.49612">
        <ele>1387</ele>
        <time>2019-05-04T11:30:04Z</time>
      </trkpt>
      <trkpt lat="46.80174" lon="6.49615">
        <ele>1387</ele>
        <time>2019-05-04T11:30:05Z</time>
      </trkpt>
      <trkpt lat="46.80174" lon="6.49618">
        <ele>1387</ele>
        <time>2019-05-04T11:30:07Z</time>
      </trkpt>
      <trkpt lat="46.80172" lon="6.49625">
        <ele>1388</ele>
        <time>2019-05-04T11:30:10Z</time>
      </trkpt>
      <trkpt lat="46.80171" lon="6.49626">
        <ele>1388</ele>
        <time>2019-05-04T11:30:11Z</time>
      </trkpt>
      <trkpt lat="46.8017" lon="6.49628">
        <ele>1389</ele>
        <time>2019-05-04T11:30:13Z</time>
      </trkpt>
      <trkpt lat="46.80168" lon="6.49631">
        <ele>1389</ele>
        <time>2019-05-04T11:30:15Z</time>
      </trkpt>
      <trkpt lat="46.80167" lon="6.49633">
        <ele>1389</ele>
        <time>2019-05-04T11:30:16Z</time>
      </trkpt>
      <trkpt lat="46.80167" lon="6.49636">
        <ele>1390</ele>
        <time>2019-05-04T11:30:17Z</time>
      </trkpt>
      <trkpt lat="46.80167" lon="6.49637">
        <ele>1390</ele>
        <time>2019-05-04T11:30:18Z</time>
      </trkpt>
      <trkpt lat="46.80168" lon="6.4964">
        <ele>1389</ele>
        <time>2019-05-04T11:30:19Z</time>
      </trkpt>
      <trkpt lat="46.80168" lon="6.49641">
        <ele>1389</ele>
        <time>2019-05-04T11:30:20Z</time>
      </trkpt>
      <trkpt lat="46.80167" lon="6.49643">
        <ele>1390</ele>
        <time>2019-05-04T11:30:21Z</time>
      </trkpt>
      <trkpt lat="46.80165" lon="6.49645">
        <ele>1390</ele>
        <time>2019-05-04T11:30:24Z</time>
      </trkpt>
      <trkpt lat="46.80165" lon="6.49647">
        <ele>1390</ele>
        <time>2019-05-04T11:30:24Z</time>
      </trkpt>
      <trkpt lat="46.80163" lon="6.49653">
        <ele>1391</ele>
        <time>2019-05-04T11:30:28Z</time>
      </trkpt>
      <trkpt lat="46.80164" lon="6.49658">
        <ele>1390</ele>
        <time>2019-05-04T11:30:30Z</time>
      </trkpt>
      <trkpt lat="46.80163" lon="6.49663">
        <ele>1390</ele>
        <time>2019-05-04T11:30:33Z</time>
      </trkpt>
      <trkpt lat="46.80162" lon="6.49671">
        <ele>1391</ele>
        <time>2019-05-04T11:30:37Z</time>
      </trkpt>
      <trkpt lat="46.80162" lon="6.4967">
        <ele>1391</ele>
        <time>2019-05-04T11:30:37Z</time>
      </trkpt>
      <trkpt lat="46.80155" lon="6.4967">
        <ele>1392</ele>
        <time>2019-05-04T11:30:42Z</time>
      </trkpt>
      <trkpt lat="46.80153" lon="6.49668">
        <ele>1393</ele>
        <time>2019-05-04T11:30:44Z</time>
      </trkpt>
      <trkpt lat="46.80149" lon="6.49666">
        <ele>1393</ele>
        <time>2019-05-04T11:30:47Z</time>
      </trkpt>
      <trkpt lat="46.80148" lon="6.49665">
        <ele>1393</ele>
        <time>2019-05-04T11:30:47Z</time>
      </trkpt>
      <trkpt lat="46.80145" lon="6.49665">
        <ele>1394</ele>
        <time>2019-05-04T11:30:50Z</time>
      </trkpt>
      <trkpt lat="46.80143" lon="6.49663">
        <ele>1395</ele>
        <time>2019-05-04T11:30:51Z</time>
      </trkpt>
      <trkpt lat="46.80143" lon="6.49662">
        <ele>1395</ele>
        <time>2019-05-04T11:30:52Z</time>
      </trkpt>
      <trkpt lat="46.80141" lon="6.49661">
        <ele>1395</ele>
        <time>2019-05-04T11:30:53Z</time>
      </trkpt>
      <trkpt lat="46.8014" lon="6.49661">
        <ele>1395</ele>
        <time>2019-05-04T11:30:54Z</time>
      </trkpt>
      <trkpt lat="46.80139" lon="6.49658">
        <ele>1396</ele>
        <time>2019-05-04T11:30:56Z</time>
      </trkpt>
      <trkpt lat="46.80137" lon="6.49655">
        <ele>1396</ele>
        <time>2019-05-04T11:30:58Z</time>
      </trkpt>
      <trkpt lat="46.80137" lon="6.49653">
        <ele>1397</ele>
        <time>2019-05-04T11:30:59Z</time>
      </trkpt>
      <trkpt lat="46.80136" lon="6.49652">
        <ele>1397</ele>
        <time>2019-05-04T11:30:59Z</time>
      </trkpt>
      <trkpt lat="46.80133" lon="6.49651">
        <ele>1398</ele>
        <time>2019-05-04T11:31:02Z</time>
      </trkpt>
      <trkpt lat="46.80132" lon="6.49649">
        <ele>1398</ele>
        <time>2019-05-04T11:31:03Z</time>
      </trkpt>
      <trkpt lat="46.80131" lon="6.49648">
        <ele>1398</ele>
        <time>2019-05-04T11:31:04Z</time>
      </trkpt>
      <trkpt lat="46.80128" lon="6.49645">
        <ele>1400</ele>
        <time>2019-05-04T11:31:07Z</time>
      </trkpt>
      <trkpt lat="46.80127" lon="6.49643">
        <ele>1400</ele>
        <time>2019-05-04T11:31:08Z</time>
      </trkpt>
      <trkpt lat="46.80126" lon="6.49639">
        <ele>1401</ele>
        <time>2019-05-04T11:31:10Z</time>
      </trkpt>
      <trkpt lat="46.80122" lon="6.49635">
        <ele>1402</ele>
        <time>2019-05-04T11:31:14Z</time>
      </trkpt>
      <trkpt lat="46.80119" lon="6.49632">
        <ele>1403</ele>
        <time>2019-05-04T11:31:17Z</time>
      </trkpt>
      <trkpt lat="46.80119" lon="6.49631">
        <ele>1403</ele>
        <time>2019-05-04T11:31:17Z</time>
      </trkpt>
      <trkpt lat="46.80116" lon="6.49627">
        <ele>1405</ele>
        <time>2019-05-04T11:31:20Z</time>
      </trkpt>
      <trkpt lat="46.80115" lon="6.49626">
        <ele>1405</ele>
        <time>2019-05-04T11:31:21Z</time>
      </trkpt>
      <trkpt lat="46.80113" lon="6.49621">
        <ele>1406</ele>
        <time>2019-05-04T11:31:24Z</time>
      </trkpt>
      <trkpt lat="46.80105" lon="6.49608">
        <ele>1405</ele>
        <time>2019-05-04T11:31:32Z</time>
      </trkpt>
      <trkpt lat="46.80104" lon="6.49606">
        <ele>1404</ele>
        <time>2019-05-04T11:31:34Z</time>
      </trkpt>
      <trkpt lat="46.80102" lon="6.49605">
        <ele>1404</ele>
        <time>2019-05-04T11:31:35Z</time>
      </trkpt>
      <trkpt lat="46.80101" lon="6.49603">
        <ele>1404</ele>
        <time>2019-05-04T11:31:37Z</time>
      </trkpt>
      <trkpt lat="46.80102" lon="6.496">
        <ele>1404</ele>
        <time>2019-05-04T11:31:38Z</time>
      </trkpt>
      <trkpt lat="46.80101" lon="6.49594">
        <ele>1404</ele>
        <time>2019-05-04T11:31:41Z</time>
      </trkpt>
      <trkpt lat="46.80101" lon="6.49592">
        <ele>1404</ele>
        <time>2019-05-04T11:31:42Z</time>
      </trkpt>
      <trkpt lat="46.80099" lon="6.49591">
        <ele>1404</ele>
        <time>2019-05-04T11:31:43Z</time>
      </trkpt>
      <trkpt lat="46.80096" lon="6.49587">
        <ele>1403</ele>
        <time>2019-05-04T11:31:46Z</time>
      </trkpt>
      <trkpt lat="46.80094" lon="6.49587">
        <ele>1402</ele>
        <time>2019-05-04T11:31:48Z</time>
      </trkpt>
      <trkpt lat="46.80092" lon="6.49582">
        <ele>1402</ele>
        <time>2019-05-04T11:31:51Z</time>
      </trkpt>
      <trkpt lat="46.80092" lon="6.49581">
        <ele>1402</ele>
        <time>2019-05-04T11:31:52Z</time>
      </trkpt>
      <trkpt lat="46.80091" lon="6.49578">
        <ele>1402</ele>
        <time>2019-05-04T11:31:53Z</time>
      </trkpt>
      <trkpt lat="46.80089" lon="6.49577">
        <ele>1402</ele>
        <time>2019-05-04T11:31:54Z</time>
      </trkpt>
      <trkpt lat="46.8009" lon="6.49576">
        <ele>1402</ele>
        <time>2019-05-04T11:31:55Z</time>
      </trkpt>
      <trkpt lat="46.80089" lon="6.49575">
        <ele>1402</ele>
        <time>2019-05-04T11:31:55Z</time>
      </trkpt>
      <trkpt lat="46.80089" lon="6.49575">
        <ele>1402</ele>
        <time>2019-05-04T11:31:56Z</time>
      </trkpt>
      <trkpt lat="46.80086" lon="6.49572">
        <ele>1401</ele>
        <time>2019-05-04T11:31:58Z</time>
      </trkpt>
      <trkpt lat="46.80086" lon="6.49569">
        <ele>1402</ele>
        <time>2019-05-04T11:32:00Z</time>
      </trkpt>
      <trkpt lat="46.80084" lon="6.49564">
        <ele>1402</ele>
        <time>2019-05-04T11:32:03Z</time>
      </trkpt>
      <trkpt lat="46.80084" lon="6.49564">
        <ele>1402</ele>
        <time>2019-05-04T11:32:03Z</time>
      </trkpt>
      <trkpt lat="46.80082" lon="6.49562">
        <ele>1402</ele>
        <time>2019-05-04T11:32:05Z</time>
      </trkpt>
      <trkpt lat="46.8008" lon="6.49559">
        <ele>1401</ele>
        <time>2019-05-04T11:32:07Z</time>
      </trkpt>
      <trkpt lat="46.80079" lon="6.49555">
        <ele>1402</ele>
        <time>2019-05-04T11:32:09Z</time>
      </trkpt>
      <trkpt lat="46.80079" lon="6.49554">
        <ele>1402</ele>
        <time>2019-05-04T11:32:10Z</time>
      </trkpt>
      <trkpt lat="46.80075" lon="6.49549">
        <ele>1401</ele>
        <time>2019-05-04T11:32:13Z</time>
      </trkpt>
      <trkpt lat="46.80074" lon="6.49548">
        <ele>1401</ele>
        <time>2019-05-04T11:32:15Z</time>
      </trkpt>
      <trkpt lat="46.80067" lon="6.49539">
        <ele>1402</ele>
        <time>2019-05-04T11:32:21Z</time>
      </trkpt>
      <trkpt lat="46.80066" lon="6.49537">
        <ele>1402</ele>
        <time>2019-05-04T11:32:22Z</time>
      </trkpt>
      <trkpt lat="46.80065" lon="6.49535">
        <ele>1402</ele>
        <time>2019-05-04T11:32:23Z</time>
      </trkpt>
      <trkpt lat="46.80059" lon="6.49529">
        <ele>1402</ele>
        <time>2019-05-04T11:32:29Z</time>
      </trkpt>
      <trkpt lat="46.80057" lon="6.49527">
        <ele>1402</ele>
        <time>2019-05-04T11:32:30Z</time>
      </trkpt>
      <trkpt lat="46.80056" lon="6.49526">
        <ele>1402</ele>
        <time>2019-05-04T11:32:31Z</time>
      </trkpt>
      <trkpt lat="46.80053" lon="6.49524">
        <ele>1402</ele>
        <time>2019-05-04T11:32:34Z</time>
      </trkpt>
      <trkpt lat="46.80051" lon="6.49523">
        <ele>1402</ele>
        <time>2019-05-04T11:32:35Z</time>
      </trkpt>
      <trkpt lat="46.80051" lon="6.49522">
        <ele>1402</ele>
        <time>2019-05-04T11:32:36Z</time>
      </trkpt>
      <trkpt lat="46.8005" lon="6.4952">
        <ele>1402</ele>
        <time>2019-05-04T11:32:37Z</time>
      </trkpt>
      <trkpt lat="46.80047" lon="6.49512">
        <ele>1403</ele>
        <time>2019-05-04T11:32:42Z</time>
      </trkpt>
      <trkpt lat="46.80046" lon="6.49507">
        <ele>1404</ele>
        <time>2019-05-04T11:32:44Z</time>
      </trkpt>
      <trkpt lat="46.80043" lon="6.49503">
        <ele>1405</ele>
        <time>2019-05-04T11:32:47Z</time>
      </trkpt>
      <trkpt lat="46.8004" lon="6.49501">
        <ele>1405</ele>
        <time>2019-05-04T11:32:50Z</time>
      </trkpt>
      <trkpt lat="46.80038" lon="6.495">
        <ele>1405</ele>
        <time>2019-05-04T11:32:51Z</time>
      </trkpt>
      <trkpt lat="46.80036" lon="6.49498">
        <ele>1405</ele>
        <time>2019-05-04T11:32:53Z</time>
      </trkpt>
      <trkpt lat="46.80034" lon="6.49495">
        <ele>1406</ele>
        <time>2019-05-04T11:32:55Z</time>
      </trkpt>
      <trkpt lat="46.80034" lon="6.49489">
        <ele>1407</ele>
        <time>2019-05-04T11:32:57Z</time>
      </trkpt>
      <trkpt lat="46.80034" lon="6.49485">
        <ele>1408</ele>
        <time>2019-05-04T11:33:00Z</time>
      </trkpt>
      <trkpt lat="46.80034" lon="6.49482">
        <ele>1408</ele>
        <time>2019-05-04T11:33:01Z</time>
      </trkpt>
      <trkpt lat="46.80034" lon="6.49475">
        <ele>1410</ele>
        <time>2019-05-04T11:33:05Z</time>
      </trkpt>
      <trkpt lat="46.80035" lon="6.49473">
        <ele>1410</ele>
        <time>2019-05-04T11:33:06Z</time>
      </trkpt>
      <trkpt lat="46.80035" lon="6.49473">
        <ele>1410</ele>
        <time>2019-05-04T11:33:07Z</time>
      </trkpt>
      <trkpt lat="46.80033" lon="6.49466">
        <ele>1412</ele>
        <time>2019-05-04T11:33:11Z</time>
      </trkpt>
      <trkpt lat="46.80032" lon="6.49464">
        <ele>1412</ele>
        <time>2019-05-04T11:33:12Z</time>
      </trkpt>
      <trkpt lat="46.80031" lon="6.49462">
        <ele>1412</ele>
        <time>2019-05-04T11:33:13Z</time>
      </trkpt>
      <trkpt lat="46.80031" lon="6.49457">
        <ele>1414</ele>
        <time>2019-05-04T11:33:16Z</time>
      </trkpt>
      <trkpt lat="46.80031" lon="6.49455">
        <ele>1414</ele>
        <time>2019-05-04T11:33:17Z</time>
      </trkpt>
      <trkpt lat="46.80028" lon="6.49451">
        <ele>1414</ele>
        <time>2019-05-04T11:33:20Z</time>
      </trkpt>
      <trkpt lat="46.80027" lon="6.49447">
        <ele>1414</ele>
        <time>2019-05-04T11:33:22Z</time>
      </trkpt>
      <trkpt lat="46.80026" lon="6.49439">
        <ele>1416</ele>
        <time>2019-05-04T11:33:26Z</time>
      </trkpt>
      <trkpt lat="46.80023" lon="6.49436">
        <ele>1415</ele>
        <time>2019-05-04T11:33:29Z</time>
      </trkpt>
      <trkpt lat="46.80022" lon="6.49433">
        <ele>1415</ele>
        <time>2019-05-04T11:33:30Z</time>
      </trkpt>
      <trkpt lat="46.80021" lon="6.49429">
        <ele>1415</ele>
        <time>2019-05-04T11:33:33Z</time>
      </trkpt>
      <trkpt lat="46.8002" lon="6.49426">
        <ele>1416</ele>
        <time>2019-05-04T11:33:35Z</time>
      </trkpt>
      <trkpt lat="46.8002" lon="6.49422">
        <ele>1417</ele>
        <time>2019-05-04T11:33:37Z</time>
      </trkpt>
      <trkpt lat="46.80018" lon="6.49417">
        <ele>1417</ele>
        <time>2019-05-04T11:33:39Z</time>
      </trkpt>
      <trkpt lat="46.80016" lon="6.49409">
        <ele>1418</ele>
        <time>2019-05-04T11:33:44Z</time>
      </trkpt>
      <trkpt lat="46.80012" lon="6.494">
        <ele>1419</ele>
        <time>2019-05-04T11:33:49Z</time>
      </trkpt>
      <trkpt lat="46.8001" lon="6.49395">
        <ele>1420</ele>
        <time>2019-05-04T11:33:52Z</time>
      </trkpt>
      <trkpt lat="46.80008" lon="6.49389">
        <ele>1420</ele>
        <time>2019-05-04T11:33:55Z</time>
      </trkpt>
      <trkpt lat="46.80006" lon="6.49383">
        <ele>1421</ele>
        <time>2019-05-04T11:33:58Z</time>
      </trkpt>
      <trkpt lat="46.80003" lon="6.49375">
        <ele>1422</ele>
        <time>2019-05-04T11:34:03Z</time>
      </trkpt>
      <trkpt lat="46.80001" lon="6.49373">
        <ele>1422</ele>
        <time>2019-05-04T11:34:05Z</time>
      </trkpt>
      <trkpt lat="46.8" lon="6.4937">
        <ele>1423</ele>
        <time>2019-05-04T11:34:06Z</time>
      </trkpt>
      <trkpt lat="46.79997" lon="6.49367">
        <ele>1423</ele>
        <time>2019-05-04T11:34:09Z</time>
      </trkpt>
      <trkpt lat="46.79996" lon="6.49365">
        <ele>1423</ele>
        <time>2019-05-04T11:34:10Z</time>
      </trkpt>
      <trkpt lat="46.79994" lon="6.49362">
        <ele>1423</ele>
        <time>2019-05-04T11:34:12Z</time>
      </trkpt>
      <trkpt lat="46.79991" lon="6.4936">
        <ele>1422</ele>
        <time>2019-05-04T11:34:15Z</time>
      </trkpt>
      <trkpt lat="46.79987" lon="6.49356">
        <ele>1422</ele>
        <time>2019-05-04T11:34:18Z</time>
      </trkpt>
      <trkpt lat="46.79986" lon="6.49355">
        <ele>1422</ele>
        <time>2019-05-04T11:34:19Z</time>
      </trkpt>
      <trkpt lat="46.79985" lon="6.49353">
        <ele>1422</ele>
        <time>2019-05-04T11:34:20Z</time>
      </trkpt>
      <trkpt lat="46.79985" lon="6.49354">
        <ele>1422</ele>
        <time>2019-05-04T11:34:20Z</time>
      </trkpt>
      <trkpt lat="46.79985" lon="6.49352">
        <ele>1422</ele>
        <time>2019-05-04T11:34:21Z</time>
      </trkpt>
      <trkpt lat="46.79985" lon="6.49352">
        <ele>1422</ele>
        <time>2019-05-04T11:34:21Z</time>
      </trkpt>
      <trkpt lat="46.79985" lon="6.49347">
        <ele>1423</ele>
        <time>2019-05-04T11:34:24Z</time>
      </trkpt>
      <trkpt lat="46.79984" lon="6.49344">
        <ele>1423</ele>
        <time>2019-05-04T11:34:26Z</time>
      </trkpt>
      <trkpt lat="46.79984" lon="6.49343">
        <ele>1423</ele>
        <time>2019-05-04T11:34:26Z</time>
      </trkpt>
      <trkpt lat="46.79984" lon="6.49343">
        <ele>1423</ele>
        <time>2019-05-04T11:34:27Z</time>
      </trkpt>
      <trkpt lat="46.79983" lon="6.49336">
        <ele>1424</ele>
        <time>2019-05-04T11:34:30Z</time>
      </trkpt>
      <trkpt lat="46.7998" lon="6.49333">
        <ele>1424</ele>
        <time>2019-05-04T11:34:33Z</time>
      </trkpt>
      <trkpt lat="46.79978" lon="6.49331">
        <ele>1424</ele>
        <time>2019-05-04T11:34:34Z</time>
      </trkpt>
      <trkpt lat="46.79977" lon="6.49331">
        <ele>1424</ele>
        <time>2019-05-04T11:34:35Z</time>
      </trkpt>
      <trkpt lat="46.79975" lon="6.49331">
        <ele>1424</ele>
        <time>2019-05-04T11:34:37Z</time>
      </trkpt>
      <trkpt lat="46.79973" lon="6.49331">
        <ele>1423</ele>
        <time>2019-05-04T11:34:39Z</time>
      </trkpt>
      <trkpt lat="46.79973" lon="6.4933">
        <ele>1423</ele>
        <time>2019-05-04T11:34:39Z</time>
      </trkpt>
      <trkpt lat="46.79971" lon="6.49324">
        <ele>1424</ele>
        <time>2019-05-04T11:34:43Z</time>
      </trkpt>
      <trkpt lat="46.79971" lon="6.49322">
        <ele>1425</ele>
        <time>2019-05-04T11:34:44Z</time>
      </trkpt>
      <trkpt lat="46.79971" lon="6.49322">
        <ele>1425</ele>
        <time>2019-05-04T11:34:44Z</time>
      </trkpt>
      <trkpt lat="46.79969" lon="6.4932">
        <ele>1425</ele>
        <time>2019-05-04T11:34:45Z</time>
      </trkpt>
      <trkpt lat="46.79968" lon="6.49317">
        <ele>1425</ele>
        <time>2019-05-04T11:34:47Z</time>
      </trkpt>
      <trkpt lat="46.79966" lon="6.49313">
        <ele>1426</ele>
        <time>2019-05-04T11:34:50Z</time>
      </trkpt>
      <trkpt lat="46.79966" lon="6.49308">
        <ele>1427</ele>
        <time>2019-05-04T11:34:52Z</time>
      </trkpt>
      <trkpt lat="46.79965" lon="6.49306">
        <ele>1428</ele>
        <time>2019-05-04T11:34:53Z</time>
      </trkpt>
      <trkpt lat="46.79966" lon="6.49303">
        <ele>1429</ele>
        <time>2019-05-04T11:34:55Z</time>
      </trkpt>
      <trkpt lat="46.79967" lon="6.49297">
        <ele>1431</ele>
        <time>2019-05-04T11:34:58Z</time>
      </trkpt>
      <trkpt lat="46.79964" lon="6.49289">
        <ele>1433</ele>
        <time>2019-05-04T11:35:03Z</time>
      </trkpt>
      <trkpt lat="46.79963" lon="6.49285">
        <ele>1434</ele>
        <time>2019-05-04T11:35:05Z</time>
      </trkpt>
      <trkpt lat="46.79963" lon="6.4928">
        <ele>1435</ele>
        <time>2019-05-04T11:35:08Z</time>
      </trkpt>
      <trkpt lat="46.79957" lon="6.49272">
        <ele>1437</ele>
        <time>2019-05-04T11:35:14Z</time>
      </trkpt>
      <trkpt lat="46.79954" lon="6.49268">
        <ele>1438</ele>
        <time>2019-05-04T11:35:17Z</time>
      </trkpt>
      <trkpt lat="46.79948" lon="6.49263">
        <ele>1439</ele>
        <time>2019-05-04T11:35:21Z</time>
      </trkpt>
      <trkpt lat="46.79945" lon="6.49258">
        <ele>1439</ele>
        <time>2019-05-04T11:35:25Z</time>
      </trkpt>
      <trkpt lat="46.79941" lon="6.49253">
        <ele>1438</ele>
        <time>2019-05-04T11:35:29Z</time>
      </trkpt>
      <trkpt lat="46.79939" lon="6.49251">
        <ele>1437</ele>
        <time>2019-05-04T11:35:31Z</time>
      </trkpt>
      <trkpt lat="46.79933" lon="6.49246">
        <ele>1435</ele>
        <time>2019-05-04T11:35:36Z</time>
      </trkpt>
      <trkpt lat="46.79931" lon="6.49245">
        <ele>1434</ele>
        <time>2019-05-04T11:35:37Z</time>
      </trkpt>
      <trkpt lat="46.79929" lon="6.49239">
        <ele>1435</ele>
        <time>2019-05-04T11:35:41Z</time>
      </trkpt>
      <trkpt lat="46.79929" lon="6.49238">
        <ele>1435</ele>
        <time>2019-05-04T11:35:41Z</time>
      </trkpt>
      <trkpt lat="46.79929" lon="6.49234">
        <ele>1435</ele>
        <time>2019-05-04T11:35:43Z</time>
      </trkpt>
      <trkpt lat="46.79929" lon="6.49229">
        <ele>1437</ele>
        <time>2019-05-04T11:35:46Z</time>
      </trkpt>
      <trkpt lat="46.79929" lon="6.49228">
        <ele>1437</ele>
        <time>2019-05-04T11:35:47Z</time>
      </trkpt>
      <trkpt lat="46.7993" lon="6.49222">
        <ele>1439</ele>
        <time>2019-05-04T11:35:50Z</time>
      </trkpt>
      <trkpt lat="46.7993" lon="6.49218">
        <ele>1439</ele>
        <time>2019-05-04T11:35:52Z</time>
      </trkpt>
      <trkpt lat="46.79929" lon="6.49214">
        <ele>1440</ele>
        <time>2019-05-04T11:35:55Z</time>
      </trkpt>
      <trkpt lat="46.79928" lon="6.49205">
        <ele>1441</ele>
        <time>2019-05-04T11:35:59Z</time>
      </trkpt>
      <trkpt lat="46.79927" lon="6.49204">
        <ele>1441</ele>
        <time>2019-05-04T11:35:59Z</time>
      </trkpt>
      <trkpt lat="46.79927" lon="6.49203">
        <ele>1442</ele>
        <time>2019-05-04T11:36:01Z</time>
      </trkpt>
      <trkpt lat="46.79925" lon="6.49199">
        <ele>1442</ele>
        <time>2019-05-04T11:36:02Z</time>
      </trkpt>
      <trkpt lat="46.79924" lon="6.49196">
        <ele>1442</ele>
        <time>2019-05-04T11:36:04Z</time>
      </trkpt>
      <trkpt lat="46.79924" lon="6.49194">
        <ele>1442</ele>
        <time>2019-05-04T11:36:05Z</time>
      </trkpt>
      <trkpt lat="46.79921" lon="6.49186">
        <ele>1443</ele>
        <time>2019-05-04T11:36:10Z</time>
      </trkpt>
      <trkpt lat="46.79918" lon="6.49181">
        <ele>1444</ele>
        <time>2019-05-04T11:36:13Z</time>
      </trkpt>
      <trkpt lat="46.79915" lon="6.49175">
        <ele>1444</ele>
        <time>2019-05-04T11:36:17Z</time>
      </trkpt>
      <trkpt lat="46.79915" lon="6.49175">
        <ele>1444</ele>
        <time>2019-05-04T11:36:17Z</time>
      </trkpt>
      <trkpt lat="46.79913" lon="6.49172">
        <ele>1444</ele>
        <time>2019-05-04T11:36:19Z</time>
      </trkpt>
      <trkpt lat="46.79911" lon="6.49169">
        <ele>1444</ele>
        <time>2019-05-04T11:36:21Z</time>
      </trkpt>
      <trkpt lat="46.7991" lon="6.49168">
        <ele>1444</ele>
        <time>2019-05-04T11:36:22Z</time>
      </trkpt>
      <trkpt lat="46.79908" lon="6.49166">
        <ele>1444</ele>
        <time>2019-05-04T11:36:24Z</time>
      </trkpt>
      <trkpt lat="46.79906" lon="6.49165">
        <ele>1444</ele>
        <time>2019-05-04T11:36:25Z</time>
      </trkpt>
      <trkpt lat="46.79904" lon="6.49163">
        <ele>1444</ele>
        <time>2019-05-04T11:36:27Z</time>
      </trkpt>
      <trkpt lat="46.79903" lon="6.49157">
        <ele>1445</ele>
        <time>2019-05-04T11:36:30Z</time>
      </trkpt>
      <trkpt lat="46.79901" lon="6.49153">
        <ele>1446</ele>
        <time>2019-05-04T11:36:33Z</time>
      </trkpt>
      <trkpt lat="46.79899" lon="6.49148">
        <ele>1447</ele>
        <time>2019-05-04T11:36:36Z</time>
      </trkpt>
      <trkpt lat="46.79898" lon="6.49145">
        <ele>1448</ele>
        <time>2019-05-04T11:36:38Z</time>
      </trkpt>
      <trkpt lat="46.79894" lon="6.49138">
        <ele>1449</ele>
        <time>2019-05-04T11:36:42Z</time>
      </trkpt>
      <trkpt lat="46.79893" lon="6.49138">
        <ele>1450</ele>
        <time>2019-05-04T11:36:43Z</time>
      </trkpt>
      <trkpt lat="46.79891" lon="6.49132">
        <ele>1451</ele>
        <time>2019-05-04T11:36:46Z</time>
      </trkpt>
      <trkpt lat="46.79889" lon="6.49126">
        <ele>1453</ele>
        <time>2019-05-04T11:36:50Z</time>
      </trkpt>
      <trkpt lat="46.79887" lon="6.49123">
        <ele>1454</ele>
        <time>2019-05-04T11:36:52Z</time>
      </trkpt>
      <trkpt lat="46.79884" lon="6.49118">
        <ele>1455</ele>
        <time>2019-05-04T11:36:55Z</time>
      </trkpt>
      <trkpt lat="46.79881" lon="6.49115">
        <ele>1456</ele>
        <time>2019-05-04T11:36:58Z</time>
      </trkpt>
      <trkpt lat="46.7988" lon="6.49112">
        <ele>1457</ele>
        <time>2019-05-04T11:37:00Z</time>
      </trkpt>
      <trkpt lat="46.79878" lon="6.49107">
        <ele>1459</ele>
        <time>2019-05-04T11:37:03Z</time>
      </trkpt>
      <trkpt lat="46.79873" lon="6.49094">
        <ele>1462</ele>
        <time>2019-05-04T11:37:10Z</time>
      </trkpt>
      <trkpt lat="46.79873" lon="6.49091">
        <ele>1462</ele>
        <time>2019-05-04T11:37:12Z</time>
      </trkpt>
      <trkpt lat="46.79873" lon="6.49085">
        <ele>1464</ele>
        <time>2019-05-04T11:37:15Z</time>
      </trkpt>
      <trkpt lat="46.79873" lon="6.49084">
        <ele>1464</ele>
        <time>2019-05-04T11:37:16Z</time>
      </trkpt>
      <trkpt lat="46.79872" lon="6.49083">
        <ele>1464</ele>
        <time>2019-05-04T11:37:16Z</time>
      </trkpt>
      <trkpt lat="46.79871" lon="6.49081">
        <ele>1464</ele>
        <time>2019-05-04T11:37:18Z</time>
      </trkpt>
      <trkpt lat="46.7987" lon="6.49076">
        <ele>1466</ele>
        <time>2019-05-04T11:37:21Z</time>
      </trkpt>
      <trkpt lat="46.79869" lon="6.49075">
        <ele>1466</ele>
        <time>2019-05-04T11:37:21Z</time>
      </trkpt>
      <trkpt lat="46.79867" lon="6.49068">
        <ele>1468</ele>
        <time>2019-05-04T11:37:25Z</time>
      </trkpt>
      <trkpt lat="46.79866" lon="6.49067">
        <ele>1468</ele>
        <time>2019-05-04T11:37:26Z</time>
      </trkpt>
      <trkpt lat="46.79864" lon="6.49062">
        <ele>1470</ele>
        <time>2019-05-04T11:37:29Z</time>
      </trkpt>
      <trkpt lat="46.79863" lon="6.49058">
        <ele>1470</ele>
        <time>2019-05-04T11:37:31Z</time>
      </trkpt>
      <trkpt lat="46.79862" lon="6.49054">
        <ele>1471</ele>
        <time>2019-05-04T11:37:33Z</time>
      </trkpt>
      <trkpt lat="46.79859" lon="6.49044">
        <ele>1473</ele>
        <time>2019-05-04T11:37:39Z</time>
      </trkpt>
      <trkpt lat="46.79856" lon="6.49035">
        <ele>1474</ele>
        <time>2019-05-04T11:37:44Z</time>
      </trkpt>
      <trkpt lat="46.79854" lon="6.49032">
        <ele>1474</ele>
        <time>2019-05-04T11:37:46Z</time>
      </trkpt>
      <trkpt lat="46.79848" lon="6.49024">
        <ele>1474</ele>
        <time>2019-05-04T11:37:52Z</time>
      </trkpt>
      <trkpt lat="46.79847" lon="6.49022">
        <ele>1474</ele>
        <time>2019-05-04T11:37:53Z</time>
      </trkpt>
      <trkpt lat="46.79846" lon="6.49018">
        <ele>1474</ele>
        <time>2019-05-04T11:37:55Z</time>
      </trkpt>
      <trkpt lat="46.79846" lon="6.49016">
        <ele>1474</ele>
        <time>2019-05-04T11:37:56Z</time>
      </trkpt>
      <trkpt lat="46.79845" lon="6.49014">
        <ele>1474</ele>
        <time>2019-05-04T11:37:57Z</time>
      </trkpt>
      <trkpt lat="46.79844" lon="6.49012">
        <ele>1474</ele>
        <time>2019-05-04T11:37:59Z</time>
      </trkpt>
      <trkpt lat="46.79843" lon="6.4901">
        <ele>1474</ele>
        <time>2019-05-04T11:38:00Z</time>
      </trkpt>
      <trkpt lat="46.7984" lon="6.4901">
        <ele>1473</ele>
        <time>2019-05-04T11:38:02Z</time>
      </trkpt>
      <trkpt lat="46.7984" lon="6.49008">
        <ele>1474</ele>
        <time>2019-05-04T11:38:03Z</time>
      </trkpt>
      <trkpt lat="46.79839" lon="6.49003">
        <ele>1474</ele>
        <time>2019-05-04T11:38:06Z</time>
      </trkpt>
      <trkpt lat="46.79836" lon="6.48999">
        <ele>1474</ele>
        <time>2019-05-04T11:38:08Z</time>
      </trkpt>
      <trkpt lat="46.79835" lon="6.48997">
        <ele>1474</ele>
        <time>2019-05-04T11:38:10Z</time>
      </trkpt>
      <trkpt lat="46.79833" lon="6.48995">
        <ele>1474</ele>
        <time>2019-05-04T11:38:12Z</time>
      </trkpt>
      <trkpt lat="46.79831" lon="6.48989">
        <ele>1474</ele>
        <time>2019-05-04T11:38:15Z</time>
      </trkpt>
      <trkpt lat="46.79829" lon="6.48984">
        <ele>1475</ele>
        <time>2019-05-04T11:38:18Z</time>
      </trkpt>
      <trkpt lat="46.79829" lon="6.48983">
        <ele>1475</ele>
        <time>2019-05-04T11:38:18Z</time>
      </trkpt>
      <trkpt lat="46.79822" lon="6.48973">
        <ele>1475</ele>
        <time>2019-05-04T11:38:25Z</time>
      </trkpt>
      <trkpt lat="46.79816" lon="6.48958">
        <ele>1477</ele>
        <time>2019-05-04T11:38:34Z</time>
      </trkpt>
      <trkpt lat="46.79816" lon="6.48957">
        <ele>1477</ele>
        <time>2019-05-04T11:38:35Z</time>
      </trkpt>
      <trkpt lat="46.79815" lon="6.48955">
        <ele>1478</ele>
        <time>2019-05-04T11:38:36Z</time>
      </trkpt>
      <trkpt lat="46.79813" lon="6.48951">
        <ele>1478</ele>
        <time>2019-05-04T11:38:38Z</time>
      </trkpt>
      <trkpt lat="46.79812" lon="6.48948">
        <ele>1479</ele>
        <time>2019-05-04T11:38:40Z</time>
      </trkpt>
      <trkpt lat="46.79806" lon="6.48942">
        <ele>1479</ele>
        <time>2019-05-04T11:38:45Z</time>
      </trkpt>
      <trkpt lat="46.79806" lon="6.48941">
        <ele>1480</ele>
        <time>2019-05-04T11:38:46Z</time>
      </trkpt>
      <trkpt lat="46.79798" lon="6.48932">
        <ele>1480</ele>
        <time>2019-05-04T11:38:53Z</time>
      </trkpt>
      <trkpt lat="46.79797" lon="6.4893">
        <ele>1480</ele>
        <time>2019-05-04T11:38:54Z</time>
      </trkpt>
      <trkpt lat="46.79794" lon="6.48923">
        <ele>1481</ele>
        <time>2019-05-04T11:38:59Z</time>
      </trkpt>
      <trkpt lat="46.79793" lon="6.48921">
        <ele>1481</ele>
        <time>2019-05-04T11:39:00Z</time>
      </trkpt>
      <trkpt lat="46.79792" lon="6.48919">
        <ele>1482</ele>
        <time>2019-05-04T11:39:01Z</time>
      </trkpt>
      <trkpt lat="46.79787" lon="6.48913">
        <ele>1483</ele>
        <time>2019-05-04T11:39:06Z</time>
      </trkpt>
      <trkpt lat="46.79785" lon="6.48909">
        <ele>1484</ele>
        <time>2019-05-04T11:39:08Z</time>
      </trkpt>
      <trkpt lat="46.79778" lon="6.489">
        <ele>1485</ele>
        <time>2019-05-04T11:39:15Z</time>
      </trkpt>
      <trkpt lat="46.79765" lon="6.48882">
        <ele>1483</ele>
        <time>2019-05-04T11:39:28Z</time>
      </trkpt>
      <trkpt lat="46.79754" lon="6.48871">
        <ele>1482</ele>
        <time>2019-05-04T11:39:37Z</time>
      </trkpt>
      <trkpt lat="46.79749" lon="6.48859">
        <ele>1482</ele>
        <time>2019-05-04T11:39:44Z</time>
      </trkpt>
      <trkpt lat="46.79748" lon="6.48857">
        <ele>1482</ele>
        <time>2019-05-04T11:39:46Z</time>
      </trkpt>
      <trkpt lat="46.79743" lon="6.48851">
        <ele>1481</ele>
        <time>2019-05-04T11:39:51Z</time>
      </trkpt>
      <trkpt lat="46.79741" lon="6.48848">
        <ele>1481</ele>
        <time>2019-05-04T11:39:53Z</time>
      </trkpt>
      <trkpt lat="46.79738" lon="6.48844">
        <ele>1481</ele>
        <time>2019-05-04T11:39:55Z</time>
      </trkpt>
      <trkpt lat="46.79735" lon="6.4884">
        <ele>1481</ele>
        <time>2019-05-04T11:39:58Z</time>
      </trkpt>
      <trkpt lat="46.7973" lon="6.48836">
        <ele>1480</ele>
        <time>2019-05-04T11:40:03Z</time>
      </trkpt>
      <trkpt lat="46.79726" lon="6.48834">
        <ele>1479</ele>
        <time>2019-05-04T11:40:06Z</time>
      </trkpt>
      <trkpt lat="46.79725" lon="6.48834">
        <ele>1479</ele>
        <time>2019-05-04T11:40:07Z</time>
      </trkpt>
      <trkpt lat="46.79722" lon="6.48833">
        <ele>1478</ele>
        <time>2019-05-04T11:40:09Z</time>
      </trkpt>
      <trkpt lat="46.79717" lon="6.48832">
        <ele>1477</ele>
        <time>2019-05-04T11:40:13Z</time>
      </trkpt>
      <trkpt lat="46.79715" lon="6.48831">
        <ele>1476</ele>
        <time>2019-05-04T11:40:14Z</time>
      </trkpt>
      <trkpt lat="46.79712" lon="6.48832">
        <ele>1475</ele>
        <time>2019-05-04T11:40:17Z</time>
      </trkpt>
      <trkpt lat="46.79711" lon="6.48832">
        <ele>1475</ele>
        <time>2019-05-04T11:40:17Z</time>
      </trkpt>
      <trkpt lat="46.79708" lon="6.48831">
        <ele>1474</ele>
        <time>2019-05-04T11:40:19Z</time>
      </trkpt>
      <trkpt lat="46.79707" lon="6.4883">
        <ele>1474</ele>
        <time>2019-05-04T11:40:21Z</time>
      </trkpt>
      <trkpt lat="46.79701" lon="6.4883">
        <ele>1473</ele>
        <time>2019-05-04T11:40:25Z</time>
      </trkpt>
      <trkpt lat="46.797" lon="6.4883">
        <ele>1472</ele>
        <time>2019-05-04T11:40:26Z</time>
      </trkpt>
      <trkpt lat="46.79696" lon="6.48829">
        <ele>1472</ele>
        <time>2019-05-04T11:40:29Z</time>
      </trkpt>
      <trkpt lat="46.79695" lon="6.48826">
        <ele>1472</ele>
        <time>2019-05-04T11:40:31Z</time>
      </trkpt>
      <trkpt lat="46.79688" lon="6.48801">
        <ele>1476</ele>
        <time>2019-05-04T11:40:44Z</time>
      </trkpt>
      <trkpt lat="46.79682" lon="6.4878">
        <ele>1479</ele>
        <time>2019-05-04T11:40:55Z</time>
      </trkpt>
      <trkpt lat="46.79677" lon="6.48762">
        <ele>1480</ele>
        <time>2019-05-04T11:41:05Z</time>
      </trkpt>
      <trkpt lat="46.79676" lon="6.4875">
        <ele>1481</ele>
        <time>2019-05-04T11:41:11Z</time>
      </trkpt>
      <trkpt lat="46.79675" lon="6.48745">
        <ele>1481</ele>
        <time>2019-05-04T11:41:13Z</time>
      </trkpt>
      <trkpt lat="46.79675" lon="6.48741">
        <ele>1481</ele>
        <time>2019-05-04T11:41:15Z</time>
      </trkpt>
      <trkpt lat="46.7967" lon="6.48726">
        <ele>1481</ele>
        <time>2019-05-04T11:41:24Z</time>
      </trkpt>
      <trkpt lat="46.79662" lon="6.48711">
        <ele>1480</ele>
        <time>2019-05-04T11:41:33Z</time>
      </trkpt>
      <trkpt lat="46.7966" lon="6.48707">
        <ele>1480</ele>
        <time>2019-05-04T11:41:36Z</time>
      </trkpt>
      <trkpt lat="46.79651" lon="6.48684">
        <ele>1481</ele>
        <time>2019-05-04T11:41:49Z</time>
      </trkpt>
      <trkpt lat="46.79647" lon="6.4867">
        <ele>1481</ele>
        <time>2019-05-04T11:41:56Z</time>
      </trkpt>
      <trkpt lat="46.79645" lon="6.4866">
        <ele>1482</ele>
        <time>2019-05-04T11:42:01Z</time>
      </trkpt>
      <trkpt lat="46.79644" lon="6.48654">
        <ele>1482</ele>
        <time>2019-05-04T11:42:05Z</time>
      </trkpt>
      <trkpt lat="46.79636" lon="6.48629">
        <ele>1484</ele>
        <time>2019-05-04T11:42:19Z</time>
      </trkpt>
      <trkpt lat="46.79625" lon="6.4861">
        <ele>1486</ele>
        <time>2019-05-04T11:42:31Z</time>
      </trkpt>
      <trkpt lat="46.79611" lon="6.48591">
        <ele>1487</ele>
        <time>2019-05-04T11:42:45Z</time>
      </trkpt>
      <trkpt lat="46.79602" lon="6.48581">
        <ele>1484</ele>
        <time>2019-05-04T11:42:53Z</time>
      </trkpt>
      <trkpt lat="46.796" lon="6.48579">
        <ele>1483</ele>
        <time>2019-05-04T11:42:55Z</time>
      </trkpt>
      <trkpt lat="46.79599" lon="6.48579">
        <ele>1483</ele>
        <time>2019-05-04T11:42:56Z</time>
      </trkpt>
      <trkpt lat="46.79597" lon="6.48578">
        <ele>1482</ele>
        <time>2019-05-04T11:42:57Z</time>
      </trkpt>
      <trkpt lat="46.79594" lon="6.48577">
        <ele>1481</ele>
        <time>2019-05-04T11:42:59Z</time>
      </trkpt>
      <trkpt lat="46.7959" lon="6.48574">
        <ele>1479</ele>
        <time>2019-05-04T11:43:03Z</time>
      </trkpt>
      <trkpt lat="46.79587" lon="6.48574">
        <ele>1478</ele>
        <time>2019-05-04T11:43:05Z</time>
      </trkpt>
      <trkpt lat="46.79585" lon="6.48572">
        <ele>1477</ele>
        <time>2019-05-04T11:43:07Z</time>
      </trkpt>
      <trkpt lat="46.79584" lon="6.48569">
        <ele>1477</ele>
        <time>2019-05-04T11:43:09Z</time>
      </trkpt>
      <trkpt lat="46.79581" lon="6.48559">
        <ele>1478</ele>
        <time>2019-05-04T11:43:14Z</time>
      </trkpt>
      <trkpt lat="46.79575" lon="6.48534">
        <ele>1479</ele>
        <time>2019-05-04T11:43:28Z</time>
      </trkpt>
      <trkpt lat="46.79574" lon="6.4852">
        <ele>1481</ele>
        <time>2019-05-04T11:43:35Z</time>
      </trkpt>
      <trkpt lat="46.79572" lon="6.48512">
        <ele>1481</ele>
        <time>2019-05-04T11:43:39Z</time>
      </trkpt>
      <trkpt lat="46.79565" lon="6.48499">
        <ele>1481</ele>
        <time>2019-05-04T11:43:47Z</time>
      </trkpt>
      <trkpt lat="46.79557" lon="6.48494">
        <ele>1479</ele>
        <time>2019-05-04T11:43:54Z</time>
      </trkpt>
      <trkpt lat="46.79551" lon="6.48491">
        <ele>1477</ele>
        <time>2019-05-04T11:43:58Z</time>
      </trkpt>
      <trkpt lat="46.79551" lon="6.48488">
        <ele>1478</ele>
        <time>2019-05-04T11:44:00Z</time>
      </trkpt>
      <trkpt lat="46.7955" lon="6.48482">
        <ele>1479</ele>
        <time>2019-05-04T11:44:03Z</time>
      </trkpt>
      <trkpt lat="46.79548" lon="6.48478">
        <ele>1479</ele>
        <time>2019-05-04T11:44:05Z</time>
      </trkpt>
      <trkpt lat="46.79545" lon="6.48475">
        <ele>1479</ele>
        <time>2019-05-04T11:44:08Z</time>
      </trkpt>
      <trkpt lat="46.79544" lon="6.48473">
        <ele>1478</ele>
        <time>2019-05-04T11:44:09Z</time>
      </trkpt>
      <trkpt lat="46.79542" lon="6.48469">
        <ele>1479</ele>
        <time>2019-05-04T11:44:12Z</time>
      </trkpt>
      <trkpt lat="46.79541" lon="6.48466">
        <ele>1479</ele>
        <time>2019-05-04T11:44:14Z</time>
      </trkpt>
      <trkpt lat="46.79539" lon="6.4846">
        <ele>1480</ele>
        <time>2019-05-04T11:44:17Z</time>
      </trkpt>
      <trkpt lat="46.79535" lon="6.48456">
        <ele>1480</ele>
        <time>2019-05-04T11:44:20Z</time>
      </trkpt>
      <trkpt lat="46.79534" lon="6.48455">
        <ele>1480</ele>
        <time>2019-05-04T11:44:22Z</time>
      </trkpt>
      <trkpt lat="46.79532" lon="6.48453">
        <ele>1480</ele>
        <time>2019-05-04T11:44:23Z</time>
      </trkpt>
      <trkpt lat="46.79529" lon="6.48448">
        <ele>1480</ele>
        <time>2019-05-04T11:44:26Z</time>
      </trkpt>
      <trkpt lat="46.7953" lon="6.48442">
        <ele>1482</ele>
        <time>2019-05-04T11:44:30Z</time>
      </trkpt>
      <trkpt lat="46.79532" lon="6.4844">
        <ele>1483</ele>
        <time>2019-05-04T11:44:31Z</time>
      </trkpt>
      <trkpt lat="46.79532" lon="6.48437">
        <ele>1483</ele>
        <time>2019-05-04T11:44:33Z</time>
      </trkpt>
      <trkpt lat="46.79532" lon="6.48425">
        <ele>1485</ele>
        <time>2019-05-04T11:44:39Z</time>
      </trkpt>
      <trkpt lat="46.79534" lon="6.48415">
        <ele>1487</ele>
        <time>2019-05-04T11:44:45Z</time>
      </trkpt>
      <trkpt lat="46.79536" lon="6.4841">
        <ele>1489</ele>
        <time>2019-05-04T11:44:48Z</time>
      </trkpt>
      <trkpt lat="46.79535" lon="6.48406">
        <ele>1489</ele>
        <time>2019-05-04T11:44:50Z</time>
      </trkpt>
      <trkpt lat="46.79534" lon="6.48402">
        <ele>1490</ele>
        <time>2019-05-04T11:44:52Z</time>
      </trkpt>
      <trkpt lat="46.79531" lon="6.48392">
        <ele>1491</ele>
        <time>2019-05-04T11:44:57Z</time>
      </trkpt>
      <trkpt lat="46.79526" lon="6.48378">
        <ele>1491</ele>
        <time>2019-05-04T11:45:05Z</time>
      </trkpt>
      <trkpt lat="46.79525" lon="6.48375">
        <ele>1491</ele>
        <time>2019-05-04T11:45:07Z</time>
      </trkpt>
      <trkpt lat="46.79525" lon="6.48372">
        <ele>1492</ele>
        <time>2019-05-04T11:45:09Z</time>
      </trkpt>
      <trkpt lat="46.79524" lon="6.48367">
        <ele>1492</ele>
        <time>2019-05-04T11:45:11Z</time>
      </trkpt>
      <trkpt lat="46.79523" lon="6.48363">
        <ele>1492</ele>
        <time>2019-05-04T11:45:13Z</time>
      </trkpt>
      <trkpt lat="46.79521" lon="6.48361">
        <ele>1492</ele>
        <time>2019-05-04T11:45:15Z</time>
      </trkpt>
      <trkpt lat="46.79519" lon="6.48356">
        <ele>1492</ele>
        <time>2019-05-04T11:45:18Z</time>
      </trkpt>
      <trkpt lat="46.79517" lon="6.48353">
        <ele>1491</ele>
        <time>2019-05-04T11:45:20Z</time>
      </trkpt>
      <trkpt lat="46.79516" lon="6.48352">
        <ele>1490</ele>
        <time>2019-05-04T11:45:21Z</time>
      </trkpt>
      <trkpt lat="46.79513" lon="6.4835">
        <ele>1489</ele>
        <time>2019-05-04T11:45:23Z</time>
      </trkpt>
      <trkpt lat="46.79512" lon="6.48348">
        <ele>1489</ele>
        <time>2019-05-04T11:45:24Z</time>
      </trkpt>
      <trkpt lat="46.79507" lon="6.48343">
        <ele>1487</ele>
        <time>2019-05-04T11:45:29Z</time>
      </trkpt>
      <trkpt lat="46.79505" lon="6.48342">
        <ele>1487</ele>
        <time>2019-05-04T11:45:30Z</time>
      </trkpt>
      <trkpt lat="46.79503" lon="6.48338">
        <ele>1486</ele>
        <time>2019-05-04T11:45:33Z</time>
      </trkpt>
      <trkpt lat="46.79504" lon="6.4833">
        <ele>1488</ele>
        <time>2019-05-04T11:45:37Z</time>
      </trkpt>
      <trkpt lat="46.79503" lon="6.48321">
        <ele>1489</ele>
        <time>2019-05-04T11:45:42Z</time>
      </trkpt>
      <trkpt lat="46.795" lon="6.48313">
        <ele>1489</ele>
        <time>2019-05-04T11:45:46Z</time>
      </trkpt>
      <trkpt lat="46.795" lon="6.48311">
        <ele>1490</ele>
        <time>2019-05-04T11:45:47Z</time>
      </trkpt>
      <trkpt lat="46.795" lon="6.48311">
        <ele>1490</ele>
        <time>2019-05-04T11:45:48Z</time>
      </trkpt>
      <trkpt lat="46.79496" lon="6.48311">
        <ele>1488</ele>
        <time>2019-05-04T11:45:51Z</time>
      </trkpt>
      <trkpt lat="46.79496" lon="6.48309">
        <ele>1488</ele>
        <time>2019-05-04T11:45:52Z</time>
      </trkpt>
      <trkpt lat="46.79497" lon="6.48299">
        <ele>1490</ele>
        <time>2019-05-04T11:45:57Z</time>
      </trkpt>
      <trkpt lat="46.795" lon="6.48291">
        <ele>1493</ele>
        <time>2019-05-04T11:46:02Z</time>
      </trkpt>
      <trkpt lat="46.795" lon="6.48289">
        <ele>1494</ele>
        <time>2019-05-04T11:46:03Z</time>
      </trkpt>
      <trkpt lat="46.79498" lon="6.48276">
        <ele>1495</ele>
        <time>2019-05-04T11:46:10Z</time>
      </trkpt>
      <trkpt lat="46.79497" lon="6.48268">
        <ele>1495</ele>
        <time>2019-05-04T11:46:14Z</time>
      </trkpt>
      <trkpt lat="46.79495" lon="6.48262">
        <ele>1495</ele>
        <time>2019-05-04T11:46:18Z</time>
      </trkpt>
      <trkpt lat="46.79486" lon="6.48247">
        <ele>1492</ele>
        <time>2019-05-04T11:46:28Z</time>
      </trkpt>
      <trkpt lat="46.79487" lon="6.48244">
        <ele>1493</ele>
        <time>2019-05-04T11:46:30Z</time>
      </trkpt>
      <trkpt lat="46.79486" lon="6.48234">
        <ele>1494</ele>
        <time>2019-05-04T11:46:35Z</time>
      </trkpt>
      <trkpt lat="46.79485" lon="6.48227">
        <ele>1494</ele>
        <time>2019-05-04T11:46:38Z</time>
      </trkpt>
      <trkpt lat="46.79479" lon="6.48206">
        <ele>1494</ele>
        <time>2019-05-04T11:46:50Z</time>
      </trkpt>
      <trkpt lat="46.79478" lon="6.48206">
        <ele>1494</ele>
        <time>2019-05-04T11:46:50Z</time>
      </trkpt>
      <trkpt lat="46.79476" lon="6.482">
        <ele>1494</ele>
        <time>2019-05-04T11:46:54Z</time>
      </trkpt>
      <trkpt lat="46.79463" lon="6.48181">
        <ele>1493</ele>
        <time>2019-05-04T11:47:07Z</time>
      </trkpt>
      <trkpt lat="46.79462" lon="6.48179">
        <ele>1492</ele>
        <time>2019-05-04T11:47:08Z</time>
      </trkpt>
      <trkpt lat="46.7946" lon="6.48174">
        <ele>1493</ele>
        <time>2019-05-04T11:47:11Z</time>
      </trkpt>
      <trkpt lat="46.79458" lon="6.48166">
        <ele>1493</ele>
        <time>2019-05-04T11:47:15Z</time>
      </trkpt>
      <trkpt lat="46.79455" lon="6.48154">
        <ele>1494</ele>
        <time>2019-05-04T11:47:22Z</time>
      </trkpt>
      <trkpt lat="46.79445" lon="6.4814">
        <ele>1495</ele>
        <time>2019-05-04T11:47:31Z</time>
      </trkpt>
      <trkpt lat="46.79436" lon="6.48117">
        <ele>1494</ele>
        <time>2019-05-04T11:47:45Z</time>
      </trkpt>
      <trkpt lat="46.79432" lon="6.48109">
        <ele>1494</ele>
        <time>2019-05-04T11:47:50Z</time>
      </trkpt>
      <trkpt lat="46.79428" lon="6.481">
        <ele>1492</ele>
        <time>2019-05-04T11:47:55Z</time>
      </trkpt>
      <trkpt lat="46.79419" lon="6.48076">
        <ele>1490</ele>
        <time>2019-05-04T11:48:09Z</time>
      </trkpt>
      <trkpt lat="46.79413" lon="6.4805">
        <ele>1489</ele>
        <time>2019-05-04T11:48:22Z</time>
      </trkpt>
      <trkpt lat="46.79409" lon="6.48039">
        <ele>1489</ele>
        <time>2019-05-04T11:48:28Z</time>
      </trkpt>
      <trkpt lat="46.79404" lon="6.48028">
        <ele>1489</ele>
        <time>2019-05-04T11:48:35Z</time>
      </trkpt>
      <trkpt lat="46.79399" lon="6.48013">
        <ele>1488</ele>
        <time>2019-05-04T11:48:43Z</time>
      </trkpt>
      <trkpt lat="46.79396" lon="6.48005">
        <ele>1488</ele>
        <time>2019-05-04T11:48:48Z</time>
      </trkpt>
      <trkpt lat="46.79394" lon="6.47998">
        <ele>1488</ele>
        <time>2019-05-04T11:48:51Z</time>
      </trkpt>
      <trkpt lat="46.79389" lon="6.47988">
        <ele>1488</ele>
        <time>2019-05-04T11:48:58Z</time>
      </trkpt>
      <trkpt lat="46.79385" lon="6.47984">
        <ele>1487</ele>
        <time>2019-05-04T11:49:01Z</time>
      </trkpt>
      <trkpt lat="46.79383" lon="6.47982">
        <ele>1487</ele>
        <time>2019-05-04T11:49:03Z</time>
      </trkpt>
      <trkpt lat="46.79382" lon="6.47977">
        <ele>1487</ele>
        <time>2019-05-04T11:49:05Z</time>
      </trkpt>
      <trkpt lat="46.79383" lon="6.47975">
        <ele>1488</ele>
        <time>2019-05-04T11:49:06Z</time>
      </trkpt>
      <trkpt lat="46.79383" lon="6.47971">
        <ele>1488</ele>
        <time>2019-05-04T11:49:08Z</time>
      </trkpt>
      <trkpt lat="46.79381" lon="6.47968">
        <ele>1488</ele>
        <time>2019-05-04T11:49:10Z</time>
      </trkpt>
      <trkpt lat="46.79372" lon="6.47944">
        <ele>1489</ele>
        <time>2019-05-04T11:49:24Z</time>
      </trkpt>
      <trkpt lat="46.79365" lon="6.47919">
        <ele>1493</ele>
        <time>2019-05-04T11:49:38Z</time>
      </trkpt>
      <trkpt lat="46.79355" lon="6.47897">
        <ele>1493</ele>
        <time>2019-05-04T11:49:51Z</time>
      </trkpt>
      <trkpt lat="46.79343" lon="6.47876">
        <ele>1492</ele>
        <time>2019-05-04T11:50:04Z</time>
      </trkpt>
      <trkpt lat="46.79339" lon="6.47861">
        <ele>1494</ele>
        <time>2019-05-04T11:50:12Z</time>
      </trkpt>
      <trkpt lat="46.79334" lon="6.47851">
        <ele>1494</ele>
        <time>2019-05-04T11:50:18Z</time>
      </trkpt>
      <trkpt lat="46.7933" lon="6.47843">
        <ele>1493</ele>
        <time>2019-05-04T11:50:24Z</time>
      </trkpt>
      <trkpt lat="46.79327" lon="6.47841">
        <ele>1493</ele>
        <time>2019-05-04T11:50:26Z</time>
      </trkpt>
      <trkpt lat="46.79324" lon="6.4784">
        <ele>1492</ele>
        <time>2019-05-04T11:50:28Z</time>
      </trkpt>
      <trkpt lat="46.79324" lon="6.47839">
        <ele>1492</ele>
        <time>2019-05-04T11:50:29Z</time>
      </trkpt>
      <trkpt lat="46.79322" lon="6.47832">
        <ele>1493</ele>
        <time>2019-05-04T11:50:33Z</time>
      </trkpt>
      <trkpt lat="46.7932" lon="6.47828">
        <ele>1493</ele>
        <time>2019-05-04T11:50:35Z</time>
      </trkpt>
      <trkpt lat="46.79318" lon="6.47825">
        <ele>1493</ele>
        <time>2019-05-04T11:50:37Z</time>
      </trkpt>
      <trkpt lat="46.79316" lon="6.47821">
        <ele>1493</ele>
        <time>2019-05-04T11:50:40Z</time>
      </trkpt>
      <trkpt lat="46.79314" lon="6.4782">
        <ele>1493</ele>
        <time>2019-05-04T11:50:41Z</time>
      </trkpt>
      <trkpt lat="46.79313" lon="6.47818">
        <ele>1493</ele>
        <time>2019-05-04T11:50:42Z</time>
      </trkpt>
      <trkpt lat="46.79313" lon="6.47816">
        <ele>1493</ele>
        <time>2019-05-04T11:50:43Z</time>
      </trkpt>
      <trkpt lat="46.79312" lon="6.47813">
        <ele>1493</ele>
        <time>2019-05-04T11:50:44Z</time>
      </trkpt>
      <trkpt lat="46.79311" lon="6.47811">
        <ele>1493</ele>
        <time>2019-05-04T11:50:46Z</time>
      </trkpt>
      <trkpt lat="46.79311" lon="6.47807">
        <ele>1494</ele>
        <time>2019-05-04T11:50:48Z</time>
      </trkpt>
      <trkpt lat="46.79311" lon="6.47803">
        <ele>1495</ele>
        <time>2019-05-04T11:50:50Z</time>
      </trkpt>
      <trkpt lat="46.7931" lon="6.47797">
        <ele>1496</ele>
        <time>2019-05-04T11:50:53Z</time>
      </trkpt>
      <trkpt lat="46.79309" lon="6.47795">
        <ele>1496</ele>
        <time>2019-05-04T11:50:54Z</time>
      </trkpt>
      <trkpt lat="46.79301" lon="6.47771">
        <ele>1499</ele>
        <time>2019-05-04T11:51:08Z</time>
      </trkpt>
      <trkpt lat="46.79291" lon="6.47747">
        <ele>1501</ele>
        <time>2019-05-04T11:51:21Z</time>
      </trkpt>
      <trkpt lat="46.79291" lon="6.47744">
        <ele>1501</ele>
        <time>2019-05-04T11:51:23Z</time>
      </trkpt>
      <trkpt lat="46.79286" lon="6.47738">
        <ele>1502</ele>
        <time>2019-05-04T11:51:27Z</time>
      </trkpt>
      <trkpt lat="46.79286" lon="6.47738">
        <ele>1502</ele>
        <time>2019-05-04T11:51:28Z</time>
      </trkpt>
      <trkpt lat="46.79284" lon="6.47735">
        <ele>1502</ele>
        <time>2019-05-04T11:51:30Z</time>
      </trkpt>
      <trkpt lat="46.79282" lon="6.47731">
        <ele>1503</ele>
        <time>2019-05-04T11:51:32Z</time>
      </trkpt>
      <trkpt lat="46.7928" lon="6.47729">
        <ele>1503</ele>
        <time>2019-05-04T11:51:34Z</time>
      </trkpt>
      <trkpt lat="46.79279" lon="6.47728">
        <ele>1503</ele>
        <time>2019-05-04T11:51:35Z</time>
      </trkpt>
      <trkpt lat="46.79278" lon="6.47725">
        <ele>1502</ele>
        <time>2019-05-04T11:51:36Z</time>
      </trkpt>
      <trkpt lat="46.79277" lon="6.47724">
        <ele>1502</ele>
        <time>2019-05-04T11:51:37Z</time>
      </trkpt>
      <trkpt lat="46.79277" lon="6.47722">
        <ele>1503</ele>
        <time>2019-05-04T11:51:38Z</time>
      </trkpt>
      <trkpt lat="46.79278" lon="6.47716">
        <ele>1504</ele>
        <time>2019-05-04T11:51:41Z</time>
      </trkpt>
      <trkpt lat="46.7928" lon="6.47701">
        <ele>1508</ele>
        <time>2019-05-04T11:51:49Z</time>
      </trkpt>
      <trkpt lat="46.79274" lon="6.47694">
        <ele>1506</ele>
        <time>2019-05-04T11:51:55Z</time>
      </trkpt>
      <trkpt lat="46.79273" lon="6.47693">
        <ele>1506</ele>
        <time>2019-05-04T11:51:56Z</time>
      </trkpt>
      <trkpt lat="46.79272" lon="6.4769">
        <ele>1506</ele>
        <time>2019-05-04T11:51:57Z</time>
      </trkpt>
      <trkpt lat="46.79271" lon="6.47686">
        <ele>1505</ele>
        <time>2019-05-04T11:52:00Z</time>
      </trkpt>
      <trkpt lat="46.79269" lon="6.47682">
        <ele>1504</ele>
        <time>2019-05-04T11:52:02Z</time>
      </trkpt>
      <trkpt lat="46.79268" lon="6.47681">
        <ele>1504</ele>
        <time>2019-05-04T11:52:03Z</time>
      </trkpt>
      <trkpt lat="46.79264" lon="6.47669">
        <ele>1503</ele>
        <time>2019-05-04T11:52:10Z</time>
      </trkpt>
      <trkpt lat="46.79262" lon="6.47666">
        <ele>1503</ele>
        <time>2019-05-04T11:52:12Z</time>
      </trkpt>
      <trkpt lat="46.7926" lon="6.47663">
        <ele>1502</ele>
        <time>2019-05-04T11:52:14Z</time>
      </trkpt>
      <trkpt lat="46.79257" lon="6.47656">
        <ele>1501</ele>
        <time>2019-05-04T11:52:18Z</time>
      </trkpt>
      <trkpt lat="46.79254" lon="6.47649">
        <ele>1500</ele>
        <time>2019-05-04T11:52:22Z</time>
      </trkpt>
      <trkpt lat="46.79251" lon="6.47642">
        <ele>1500</ele>
        <time>2019-05-04T11:52:26Z</time>
      </trkpt>
      <trkpt lat="46.79251" lon="6.47628">
        <ele>1501</ele>
        <time>2019-05-04T11:52:33Z</time>
      </trkpt>
      <trkpt lat="46.79258" lon="6.47605">
        <ele>1507</ele>
        <time>2019-05-04T11:52:46Z</time>
      </trkpt>
      <trkpt lat="46.79258" lon="6.47603">
        <ele>1508</ele>
        <time>2019-05-04T11:52:48Z</time>
      </trkpt>
      <trkpt lat="46.79257" lon="6.47601">
        <ele>1508</ele>
        <time>2019-05-04T11:52:48Z</time>
      </trkpt>
      <trkpt lat="46.79256" lon="6.47597">
        <ele>1508</ele>
        <time>2019-05-04T11:52:50Z</time>
      </trkpt>
      <trkpt lat="46.79256" lon="6.47596">
        <ele>1508</ele>
        <time>2019-05-04T11:52:51Z</time>
      </trkpt>
      <trkpt lat="46.79255" lon="6.47593">
        <ele>1508</ele>
        <time>2019-05-04T11:52:53Z</time>
      </trkpt>
      <trkpt lat="46.79256" lon="6.47588">
        <ele>1509</ele>
        <time>2019-05-04T11:52:55Z</time>
      </trkpt>
      <trkpt lat="46.79256" lon="6.47586">
        <ele>1509</ele>
        <time>2019-05-04T11:52:56Z</time>
      </trkpt>
      <trkpt lat="46.79254" lon="6.47581">
        <ele>1509</ele>
        <time>2019-05-04T11:52:59Z</time>
      </trkpt>
      <trkpt lat="46.79251" lon="6.47581">
        <ele>1508</ele>
        <time>2019-05-04T11:53:01Z</time>
      </trkpt>
      <trkpt lat="46.79251" lon="6.4758">
        <ele>1508</ele>
        <time>2019-05-04T11:53:02Z</time>
      </trkpt>
      <trkpt lat="46.79249" lon="6.47573">
        <ele>1508</ele>
        <time>2019-05-04T11:53:05Z</time>
      </trkpt>
      <trkpt lat="46.79249" lon="6.4757">
        <ele>1509</ele>
        <time>2019-05-04T11:53:07Z</time>
      </trkpt>
      <trkpt lat="46.79249" lon="6.47568">
        <ele>1509</ele>
        <time>2019-05-04T11:53:08Z</time>
      </trkpt>
      <trkpt lat="46.79248" lon="6.47567">
        <ele>1509</ele>
        <time>2019-05-04T11:53:09Z</time>
      </trkpt>
      <trkpt lat="46.79246" lon="6.47566">
        <ele>1508</ele>
        <time>2019-05-04T11:53:11Z</time>
      </trkpt>
      <trkpt lat="46.79244" lon="6.47563">
        <ele>1508</ele>
        <time>2019-05-04T11:53:13Z</time>
      </trkpt>
      <trkpt lat="46.79243" lon="6.47561">
        <ele>1508</ele>
        <time>2019-05-04T11:53:14Z</time>
      </trkpt>
      <trkpt lat="46.79243" lon="6.47557">
        <ele>1508</ele>
        <time>2019-05-04T11:53:16Z</time>
      </trkpt>
      <trkpt lat="46.79242" lon="6.47555">
        <ele>1508</ele>
        <time>2019-05-04T11:53:17Z</time>
      </trkpt>
      <trkpt lat="46.79241" lon="6.47554">
        <ele>1508</ele>
        <time>2019-05-04T11:53:18Z</time>
      </trkpt>
      <trkpt lat="46.7924" lon="6.47552">
        <ele>1508</ele>
        <time>2019-05-04T11:53:19Z</time>
      </trkpt>
      <trkpt lat="46.79239" lon="6.4755">
        <ele>1508</ele>
        <time>2019-05-04T11:53:21Z</time>
      </trkpt>
      <trkpt lat="46.79238" lon="6.4755">
        <ele>1507</ele>
        <time>2019-05-04T11:53:22Z</time>
      </trkpt>
      <trkpt lat="46.79235" lon="6.47548">
        <ele>1507</ele>
        <time>2019-05-04T11:53:24Z</time>
      </trkpt>
      <trkpt lat="46.79234" lon="6.47545">
        <ele>1506</ele>
        <time>2019-05-04T11:53:25Z</time>
      </trkpt>
      <trkpt lat="46.79234" lon="6.47544">
        <ele>1507</ele>
        <time>2019-05-04T11:53:26Z</time>
      </trkpt>
      <trkpt lat="46.79233" lon="6.4754">
        <ele>1507</ele>
        <time>2019-05-04T11:53:28Z</time>
      </trkpt>
      <trkpt lat="46.79231" lon="6.47538">
        <ele>1507</ele>
        <time>2019-05-04T11:53:30Z</time>
      </trkpt>
      <trkpt lat="46.7923" lon="6.47535">
        <ele>1507</ele>
        <time>2019-05-04T11:53:31Z</time>
      </trkpt>
      <trkpt lat="46.7923" lon="6.47532">
        <ele>1507</ele>
        <time>2019-05-04T11:53:33Z</time>
      </trkpt>
      <trkpt lat="46.79229" lon="6.47528">
        <ele>1507</ele>
        <time>2019-05-04T11:53:35Z</time>
      </trkpt>
      <trkpt lat="46.79225" lon="6.47525">
        <ele>1506</ele>
        <time>2019-05-04T11:53:38Z</time>
      </trkpt>
      <trkpt lat="46.79224" lon="6.47524">
        <ele>1506</ele>
        <time>2019-05-04T11:53:39Z</time>
      </trkpt>
      <trkpt lat="46.79222" lon="6.47518">
        <ele>1506</ele>
        <time>2019-05-04T11:53:42Z</time>
      </trkpt>
      <trkpt lat="46.79218" lon="6.47509">
        <ele>1505</ele>
        <time>2019-05-04T11:53:48Z</time>
      </trkpt>
      <trkpt lat="46.79217" lon="6.47509">
        <ele>1505</ele>
        <time>2019-05-04T11:53:48Z</time>
      </trkpt>
      <trkpt lat="46.79217" lon="6.47507">
        <ele>1505</ele>
        <time>2019-05-04T11:53:49Z</time>
      </trkpt>
      <trkpt lat="46.79213" lon="6.47502">
        <ele>1505</ele>
        <time>2019-05-04T11:53:53Z</time>
      </trkpt>
      <trkpt lat="46.79211" lon="6.47501">
        <ele>1504</ele>
        <time>2019-05-04T11:53:54Z</time>
      </trkpt>
      <trkpt lat="46.7921" lon="6.475">
        <ele>1504</ele>
        <time>2019-05-04T11:53:55Z</time>
      </trkpt>
      <trkpt lat="46.79208" lon="6.47497">
        <ele>1503</ele>
        <time>2019-05-04T11:53:58Z</time>
      </trkpt>
      <trkpt lat="46.79207" lon="6.47496">
        <ele>1503</ele>
        <time>2019-05-04T11:53:59Z</time>
      </trkpt>
      <trkpt lat="46.79203" lon="6.47489">
        <ele>1503</ele>
        <time>2019-05-04T11:54:03Z</time>
      </trkpt>
      <trkpt lat="46.79201" lon="6.47485">
        <ele>1503</ele>
        <time>2019-05-04T11:54:05Z</time>
      </trkpt>
      <trkpt lat="46.792" lon="6.47484">
        <ele>1503</ele>
        <time>2019-05-04T11:54:06Z</time>
      </trkpt>
      <trkpt lat="46.79201" lon="6.47474">
        <ele>1505</ele>
        <time>2019-05-04T11:54:11Z</time>
      </trkpt>
      <trkpt lat="46.79202" lon="6.47472">
        <ele>1505</ele>
        <time>2019-05-04T11:54:12Z</time>
      </trkpt>
      <trkpt lat="46.79201" lon="6.47467">
        <ele>1506</ele>
        <time>2019-05-04T11:54:15Z</time>
      </trkpt>
      <trkpt lat="46.79201" lon="6.47465">
        <ele>1506</ele>
        <time>2019-05-04T11:54:16Z</time>
      </trkpt>
      <trkpt lat="46.79201" lon="6.47458">
        <ele>1507</ele>
        <time>2019-05-04T11:54:20Z</time>
      </trkpt>
      <trkpt lat="46.79204" lon="6.47452">
        <ele>1509</ele>
        <time>2019-05-04T11:54:24Z</time>
      </trkpt>
      <trkpt lat="46.79207" lon="6.47445">
        <ele>1511</ele>
        <time>2019-05-04T11:54:27Z</time>
      </trkpt>
      <trkpt lat="46.79208" lon="6.47436">
        <ele>1512</ele>
        <time>2019-05-04T11:54:32Z</time>
      </trkpt>
      <trkpt lat="46.79203" lon="6.47411">
        <ele>1513</ele>
        <time>2019-05-04T11:54:45Z</time>
      </trkpt>
      <trkpt lat="46.79203" lon="6.47408">
        <ele>1513</ele>
        <time>2019-05-04T11:54:47Z</time>
      </trkpt>
      <trkpt lat="46.79201" lon="6.47401">
        <ele>1514</ele>
        <time>2019-05-04T11:54:50Z</time>
      </trkpt>
      <trkpt lat="46.79196" lon="6.4739">
        <ele>1514</ele>
        <time>2019-05-04T11:54:57Z</time>
      </trkpt>
      <trkpt lat="46.79193" lon="6.47386">
        <ele>1512</ele>
        <time>2019-05-04T11:55:00Z</time>
      </trkpt>
      <trkpt lat="46.79189" lon="6.47381">
        <ele>1511</ele>
        <time>2019-05-04T11:55:04Z</time>
      </trkpt>
      <trkpt lat="46.79187" lon="6.47376">
        <ele>1510</ele>
        <time>2019-05-04T11:55:07Z</time>
      </trkpt>
      <trkpt lat="46.79182" lon="6.47365">
        <ele>1508</ele>
        <time>2019-05-04T11:55:13Z</time>
      </trkpt>
      <trkpt lat="46.79178" lon="6.47356">
        <ele>1506</ele>
        <time>2019-05-04T11:55:19Z</time>
      </trkpt>
      <trkpt lat="46.79173" lon="6.47346">
        <ele>1503</ele>
        <time>2019-05-04T11:55:26Z</time>
      </trkpt>
      <trkpt lat="46.79172" lon="6.47344">
        <ele>1503</ele>
        <time>2019-05-04T11:55:27Z</time>
      </trkpt>
      <trkpt lat="46.7917" lon="6.4734">
        <ele>1502</ele>
        <time>2019-05-04T11:55:29Z</time>
      </trkpt>
      <trkpt lat="46.79168" lon="6.47336">
        <ele>1501</ele>
        <time>2019-05-04T11:55:32Z</time>
      </trkpt>
      <trkpt lat="46.79166" lon="6.47335">
        <ele>1500</ele>
        <time>2019-05-04T11:55:34Z</time>
      </trkpt>
      <trkpt lat="46.79165" lon="6.47332">
        <ele>1500</ele>
        <time>2019-05-04T11:55:35Z</time>
      </trkpt>
      <trkpt lat="46.79166" lon="6.47328">
        <ele>1501</ele>
        <time>2019-05-04T11:55:37Z</time>
      </trkpt>
      <trkpt lat="46.79165" lon="6.47325">
        <ele>1501</ele>
        <time>2019-05-04T11:55:39Z</time>
      </trkpt>
      <trkpt lat="46.79163" lon="6.47322">
        <ele>1500</ele>
        <time>2019-05-04T11:55:41Z</time>
      </trkpt>
      <trkpt lat="46.7916" lon="6.47322">
        <ele>1498</ele>
        <time>2019-05-04T11:55:43Z</time>
      </trkpt>
      <trkpt lat="46.79157" lon="6.47319">
        <ele>1497</ele>
        <time>2019-05-04T11:55:46Z</time>
      </trkpt>
      <trkpt lat="46.79155" lon="6.47317">
        <ele>1496</ele>
        <time>2019-05-04T11:55:48Z</time>
      </trkpt>
      <trkpt lat="46.79152" lon="6.47314">
        <ele>1495</ele>
        <time>2019-05-04T11:55:51Z</time>
      </trkpt>
      <trkpt lat="46.79151" lon="6.47311">
        <ele>1494</ele>
        <time>2019-05-04T11:55:52Z</time>
      </trkpt>
      <trkpt lat="46.79149" lon="6.47306">
        <ele>1494</ele>
        <time>2019-05-04T11:55:55Z</time>
      </trkpt>
      <trkpt lat="46.79148" lon="6.47305">
        <ele>1494</ele>
        <time>2019-05-04T11:55:56Z</time>
      </trkpt>
      <trkpt lat="46.79138" lon="6.47293">
        <ele>1490</ele>
        <time>2019-05-04T11:56:06Z</time>
      </trkpt>
      <trkpt lat="46.79129" lon="6.47269">
        <ele>1489</ele>
        <time>2019-05-04T11:56:20Z</time>
      </trkpt>
      <trkpt lat="46.79126" lon="6.47266">
        <ele>1488</ele>
        <time>2019-05-04T11:56:22Z</time>
      </trkpt>
      <trkpt lat="46.79124" lon="6.47254">
        <ele>1489</ele>
        <time>2019-05-04T11:56:28Z</time>
      </trkpt>
      <trkpt lat="46.79124" lon="6.47252">
        <ele>1489</ele>
        <time>2019-05-04T11:56:29Z</time>
      </trkpt>
      <trkpt lat="46.79124" lon="6.47251">
        <ele>1490</ele>
        <time>2019-05-04T11:56:30Z</time>
      </trkpt>
      <trkpt lat="46.79123" lon="6.4725">
        <ele>1489</ele>
        <time>2019-05-04T11:56:31Z</time>
      </trkpt>
      <trkpt lat="46.79122" lon="6.47248">
        <ele>1490</ele>
        <time>2019-05-04T11:56:32Z</time>
      </trkpt>
      <trkpt lat="46.79121" lon="6.47246">
        <ele>1490</ele>
        <time>2019-05-04T11:56:33Z</time>
      </trkpt>
      <trkpt lat="46.79122" lon="6.47243">
        <ele>1490</ele>
        <time>2019-05-04T11:56:35Z</time>
      </trkpt>
      <trkpt lat="46.79124" lon="6.47243">
        <ele>1491</ele>
        <time>2019-05-04T11:56:36Z</time>
      </trkpt>
      <trkpt lat="46.79125" lon="6.47242">
        <ele>1492</ele>
        <time>2019-05-04T11:56:38Z</time>
      </trkpt>
      <trkpt lat="46.79125" lon="6.47242">
        <ele>1492</ele>
        <time>2019-05-04T11:56:38Z</time>
      </trkpt>
      <trkpt lat="46.79124" lon="6.47237">
        <ele>1492</ele>
        <time>2019-05-04T11:56:40Z</time>
      </trkpt>
      <trkpt lat="46.79124" lon="6.47236">
        <ele>1493</ele>
        <time>2019-05-04T11:56:41Z</time>
      </trkpt>
      <trkpt lat="46.79124" lon="6.47234">
        <ele>1493</ele>
        <time>2019-05-04T11:56:42Z</time>
      </trkpt>
      <trkpt lat="46.79123" lon="6.47232">
        <ele>1493</ele>
        <time>2019-05-04T11:56:43Z</time>
      </trkpt>
      <trkpt lat="46.79123" lon="6.4723">
        <ele>1493</ele>
        <time>2019-05-04T11:56:44Z</time>
      </trkpt>
      <trkpt lat="46.79124" lon="6.47222">
        <ele>1496</ele>
        <time>2019-05-04T11:56:49Z</time>
      </trkpt>
      <trkpt lat="46.79126" lon="6.4722">
        <ele>1497</ele>
        <time>2019-05-04T11:56:51Z</time>
      </trkpt>
      <trkpt lat="46.7913" lon="6.47221">
        <ele>1498</ele>
        <time>2019-05-04T11:56:53Z</time>
      </trkpt>
      <trkpt lat="46.79131" lon="6.47219">
        <ele>1498</ele>
        <time>2019-05-04T11:56:54Z</time>
      </trkpt>
      <trkpt lat="46.79131" lon="6.47218">
        <ele>1499</ele>
        <time>2019-05-04T11:56:55Z</time>
      </trkpt>
      <trkpt lat="46.79131" lon="6.47218">
        <ele>1498</ele>
        <time>2019-05-04T11:56:56Z</time>
      </trkpt>
      <trkpt lat="46.7913" lon="6.47207">
        <ele>1500</ele>
        <time>2019-05-04T11:57:02Z</time>
      </trkpt>
      <trkpt lat="46.79127" lon="6.47203">
        <ele>1500</ele>
        <time>2019-05-04T11:57:05Z</time>
      </trkpt>
      <trkpt lat="46.79114" lon="6.47183">
        <ele>1499</ele>
        <time>2019-05-04T11:57:18Z</time>
      </trkpt>
      <trkpt lat="46.79114" lon="6.47182">
        <ele>1499</ele>
        <time>2019-05-04T11:57:19Z</time>
      </trkpt>
      <trkpt lat="46.79113" lon="6.47179">
        <ele>1499</ele>
        <time>2019-05-04T11:57:20Z</time>
      </trkpt>
      <trkpt lat="46.79114" lon="6.47175">
        <ele>1499</ele>
        <time>2019-05-04T11:57:22Z</time>
      </trkpt>
      <trkpt lat="46.79112" lon="6.47161">
        <ele>1496</ele>
        <time>2019-05-04T11:57:30Z</time>
      </trkpt>
      <trkpt lat="46.79113" lon="6.47161">
        <ele>1497</ele>
        <time>2019-05-04T11:57:31Z</time>
      </trkpt>
      <trkpt lat="46.79107" lon="6.4715">
        <ele>1491</ele>
        <time>2019-05-04T11:57:39Z</time>
      </trkpt>
      <trkpt lat="46.79107" lon="6.47146">
        <ele>1491</ele>
        <time>2019-05-04T11:57:40Z</time>
      </trkpt>
      <trkpt lat="46.79106" lon="6.47143">
        <ele>1489</ele>
        <time>2019-05-04T11:57:43Z</time>
      </trkpt>
      <trkpt lat="46.79105" lon="6.4714">
        <ele>1488</ele>
        <time>2019-05-04T11:57:44Z</time>
      </trkpt>
      <trkpt lat="46.79103" lon="6.47135">
        <ele>1487</ele>
        <time>2019-05-04T11:57:47Z</time>
      </trkpt>
      <trkpt lat="46.79103" lon="6.47134">
        <ele>1486</ele>
        <time>2019-05-04T11:57:48Z</time>
      </trkpt>
      <trkpt lat="46.79102" lon="6.47133">
        <ele>1486</ele>
        <time>2019-05-04T11:57:49Z</time>
      </trkpt>
      <trkpt lat="46.79101" lon="6.47131">
        <ele>1485</ele>
        <time>2019-05-04T11:57:50Z</time>
      </trkpt>
      <trkpt lat="46.791" lon="6.4713">
        <ele>1484</ele>
        <time>2019-05-04T11:57:51Z</time>
      </trkpt>
      <trkpt lat="46.79099" lon="6.47123">
        <ele>1482</ele>
        <time>2019-05-04T11:57:55Z</time>
      </trkpt>
      <trkpt lat="46.79098" lon="6.47121">
        <ele>1482</ele>
        <time>2019-05-04T11:57:56Z</time>
      </trkpt>
      <trkpt lat="46.79099" lon="6.47107">
        <ele>1481</ele>
        <time>2019-05-04T11:58:03Z</time>
      </trkpt>
      <trkpt lat="46.791" lon="6.47106">
        <ele>1482</ele>
        <time>2019-05-04T11:58:05Z</time>
      </trkpt>
      <trkpt lat="46.79102" lon="6.47105">
        <ele>1484</ele>
        <time>2019-05-04T11:58:07Z</time>
      </trkpt>
      <trkpt lat="46.79104" lon="6.47101">
        <ele>1485</ele>
        <time>2019-05-04T11:58:09Z</time>
      </trkpt>
      <trkpt lat="46.79104" lon="6.471">
        <ele>1485</ele>
        <time>2019-05-04T11:58:10Z</time>
      </trkpt>
      <trkpt lat="46.79104" lon="6.471">
        <ele>1485</ele>
        <time>2019-05-04T11:58:10Z</time>
      </trkpt>
      <trkpt lat="46.79104" lon="6.47097">
        <ele>1485</ele>
        <time>2019-05-04T11:58:11Z</time>
      </trkpt>
      <trkpt lat="46.79103" lon="6.47093">
        <ele>1485</ele>
        <time>2019-05-04T11:58:13Z</time>
      </trkpt>
      <trkpt lat="46.79102" lon="6.47089">
        <ele>1483</ele>
        <time>2019-05-04T11:58:16Z</time>
      </trkpt>
      <trkpt lat="46.79102" lon="6.47088">
        <ele>1483</ele>
        <time>2019-05-04T11:58:17Z</time>
      </trkpt>
      <trkpt lat="46.79101" lon="6.47086">
        <ele>1483</ele>
        <time>2019-05-04T11:58:17Z</time>
      </trkpt>
      <trkpt lat="46.79102" lon="6.47084">
        <ele>1483</ele>
        <time>2019-05-04T11:58:19Z</time>
      </trkpt>
      <trkpt lat="46.79102" lon="6.47082">
        <ele>1483</ele>
        <time>2019-05-04T11:58:20Z</time>
      </trkpt>
      <trkpt lat="46.79102" lon="6.4708">
        <ele>1483</ele>
        <time>2019-05-04T11:58:20Z</time>
      </trkpt>
      <trkpt lat="46.79101" lon="6.47078">
        <ele>1482</ele>
        <time>2019-05-04T11:58:22Z</time>
      </trkpt>
      <trkpt lat="46.79099" lon="6.47073">
        <ele>1481</ele>
        <time>2019-05-04T11:58:25Z</time>
      </trkpt>
      <trkpt lat="46.79097" lon="6.47068">
        <ele>1480</ele>
        <time>2019-05-04T11:58:28Z</time>
      </trkpt>
      <trkpt lat="46.79097" lon="6.47065">
        <ele>1480</ele>
        <time>2019-05-04T11:58:29Z</time>
      </trkpt>
      <trkpt lat="46.7909" lon="6.47049">
        <ele>1475</ele>
        <time>2019-05-04T11:58:39Z</time>
      </trkpt>
      <trkpt lat="46.79091" lon="6.47048">
        <ele>1476</ele>
        <time>2019-05-04T11:58:40Z</time>
      </trkpt>
      <trkpt lat="46.79087" lon="6.47036">
        <ele>1473</ele>
        <time>2019-05-04T11:58:47Z</time>
      </trkpt>
      <trkpt lat="46.79087" lon="6.47033">
        <ele>1473</ele>
        <time>2019-05-04T11:58:48Z</time>
      </trkpt>
      <trkpt lat="46.79086" lon="6.47029">
        <ele>1473</ele>
        <time>2019-05-04T11:58:50Z</time>
      </trkpt>
      <trkpt lat="46.79085" lon="6.47027">
        <ele>1472</ele>
        <time>2019-05-04T11:58:52Z</time>
      </trkpt>
      <trkpt lat="46.79086" lon="6.4702">
        <ele>1471</ele>
        <time>2019-05-04T11:58:55Z</time>
      </trkpt>
      <trkpt lat="46.79083" lon="6.47013">
        <ele>1468</ele>
        <time>2019-05-04T11:59:00Z</time>
      </trkpt>
      <trkpt lat="46.7908" lon="6.4701">
        <ele>1466</ele>
        <time>2019-05-04T11:59:02Z</time>
      </trkpt>
      <trkpt lat="46.7908" lon="6.47007">
        <ele>1465</ele>
        <time>2019-05-04T11:59:04Z</time>
      </trkpt>
      <trkpt lat="46.79078" lon="6.46999">
        <ele>1463</ele>
        <time>2019-05-04T11:59:08Z</time>
      </trkpt>
      <trkpt lat="46.79075" lon="6.46995">
        <ele>1461</ele>
        <time>2019-05-04T11:59:12Z</time>
      </trkpt>
      <trkpt lat="46.79075" lon="6.46993">
        <ele>1460</ele>
        <time>2019-05-04T11:59:13Z</time>
      </trkpt>
      <trkpt lat="46.79075" lon="6.46992">
        <ele>1460</ele>
        <time>2019-05-04T11:59:13Z</time>
      </trkpt>
      <trkpt lat="46.79075" lon="6.46991">
        <ele>1460</ele>
        <time>2019-05-04T11:59:14Z</time>
      </trkpt>
      <trkpt lat="46.79074" lon="6.46988">
        <ele>1459</ele>
        <time>2019-05-04T11:59:16Z</time>
      </trkpt>
      <trkpt lat="46.79076" lon="6.46985">
        <ele>1460</ele>
        <time>2019-05-04T11:59:18Z</time>
      </trkpt>
      <trkpt lat="46.79076" lon="6.46984">
        <ele>1459</ele>
        <time>2019-05-04T11:59:19Z</time>
      </trkpt>
      <trkpt lat="46.79075" lon="6.46982">
        <ele>1459</ele>
        <time>2019-05-04T11:59:20Z</time>
      </trkpt>
      <trkpt lat="46.79077" lon="6.46982">
        <ele>1459</ele>
        <time>2019-05-04T11:59:21Z</time>
      </trkpt>
      <trkpt lat="46.79076" lon="6.4698">
        <ele>1459</ele>
        <time>2019-05-04T11:59:22Z</time>
      </trkpt>
      <trkpt lat="46.79075" lon="6.46976">
        <ele>1458</ele>
        <time>2019-05-04T11:59:24Z</time>
      </trkpt>
      <trkpt lat="46.79073" lon="6.4697">
        <ele>1456</ele>
        <time>2019-05-04T11:59:28Z</time>
      </trkpt>
      <trkpt lat="46.79071" lon="6.4696">
        <ele>1453</ele>
        <time>2019-05-04T11:59:34Z</time>
      </trkpt>
      <trkpt lat="46.7907" lon="6.46954">
        <ele>1452</ele>
        <time>2019-05-04T11:59:37Z</time>
      </trkpt>
      <trkpt lat="46.7907" lon="6.46953">
        <ele>1452</ele>
        <time>2019-05-04T11:59:37Z</time>
      </trkpt>
      <trkpt lat="46.7907" lon="6.46952">
        <ele>1452</ele>
        <time>2019-05-04T11:59:38Z</time>
      </trkpt>
      <trkpt lat="46.7907" lon="6.46948">
        <ele>1451</ele>
        <time>2019-05-04T11:59:40Z</time>
      </trkpt>
      <trkpt lat="46.79072" lon="6.46944">
        <ele>1451</ele>
        <time>2019-05-04T11:59:43Z</time>
      </trkpt>
      <trkpt lat="46.79071" lon="6.46943">
        <ele>1451</ele>
        <time>2019-05-04T11:59:43Z</time>
      </trkpt>
      <trkpt lat="46.79071" lon="6.46941">
        <ele>1450</ele>
        <time>2019-05-04T11:59:44Z</time>
      </trkpt>
      <trkpt lat="46.7907" lon="6.46941">
        <ele>1450</ele>
        <time>2019-05-04T11:59:45Z</time>
      </trkpt>
      <trkpt lat="46.79069" lon="6.46937">
        <ele>1448</ele>
        <time>2019-05-04T11:59:47Z</time>
      </trkpt>
      <trkpt lat="46.7907" lon="6.46937">
        <ele>1449</ele>
        <time>2019-05-04T11:59:48Z</time>
      </trkpt>
      <trkpt lat="46.79071" lon="6.46937">
        <ele>1449</ele>
        <time>2019-05-04T11:59:49Z</time>
      </trkpt>
      <trkpt lat="46.79071" lon="6.46938">
        <ele>1449</ele>
        <time>2019-05-04T11:59:49Z</time>
      </trkpt>
      <trkpt lat="46.7907" lon="6.46937">
        <ele>1449</ele>
        <time>2019-05-04T11:59:49Z</time>
      </trkpt>
      <trkpt lat="46.7907" lon="6.46932">
        <ele>1447</ele>
        <time>2019-05-04T11:59:52Z</time>
      </trkpt>
      <trkpt lat="46.79066" lon="6.46925">
        <ele>1445</ele>
        <time>2019-05-04T11:59:57Z</time>
      </trkpt>
      <trkpt lat="46.79065" lon="6.46923">
        <ele>1444</ele>
        <time>2019-05-04T11:59:58Z</time>
      </trkpt>
      <trkpt lat="46.79065" lon="6.46921">
        <ele>1443</ele>
        <time>2019-05-04T11:59:59Z</time>
      </trkpt>
      <trkpt lat="46.79064" lon="6.46919">
        <ele>1442</ele>
        <time>2019-05-04T12:00:01Z</time>
      </trkpt>
      <trkpt lat="46.79064" lon="6.46917">
        <ele>1442</ele>
        <time>2019-05-04T12:00:02Z</time>
      </trkpt>
      <trkpt lat="46.79065" lon="6.46916">
        <ele>1442</ele>
        <time>2019-05-04T12:00:03Z</time>
      </trkpt>
      <trkpt lat="46.79066" lon="6.46916">
        <ele>1442</ele>
        <time>2019-05-04T12:00:03Z</time>
      </trkpt>
      <trkpt lat="46.79066" lon="6.46915">
        <ele>1442</ele>
        <time>2019-05-04T12:00:04Z</time>
      </trkpt>
      <trkpt lat="46.79067" lon="6.46915">
        <ele>1442</ele>
        <time>2019-05-04T12:00:04Z</time>
      </trkpt>
      <trkpt lat="46.79067" lon="6.46914">
        <ele>1442</ele>
        <time>2019-05-04T12:00:05Z</time>
      </trkpt>
      <trkpt lat="46.79066" lon="6.46913">
        <ele>1442</ele>
        <time>2019-05-04T12:00:06Z</time>
      </trkpt>
      <trkpt lat="46.79064" lon="6.46914">
        <ele>1441</ele>
        <time>2019-05-04T12:00:07Z</time>
      </trkpt>
      <trkpt lat="46.79063" lon="6.46912">
        <ele>1440</ele>
        <time>2019-05-04T12:00:08Z</time>
      </trkpt>
      <trkpt lat="46.79062" lon="6.46911">
        <ele>1440</ele>
        <time>2019-05-04T12:00:09Z</time>
      </trkpt>
      <trkpt lat="46.79059" lon="6.46906">
        <ele>1438</ele>
        <time>2019-05-04T12:00:13Z</time>
      </trkpt>
      <trkpt lat="46.7906" lon="6.46903">
        <ele>1437</ele>
        <time>2019-05-04T12:00:14Z</time>
      </trkpt>
      <trkpt lat="46.79059" lon="6.469">
        <ele>1436</ele>
        <time>2019-05-04T12:00:16Z</time>
      </trkpt>
      <trkpt lat="46.79059" lon="6.46898">
        <ele>1436</ele>
        <time>2019-05-04T12:00:17Z</time>
      </trkpt>
      <trkpt lat="46.7906" lon="6.46897">
        <ele>1436</ele>
        <time>2019-05-04T12:00:18Z</time>
      </trkpt>
      <trkpt lat="46.79059" lon="6.46897">
        <ele>1436</ele>
        <time>2019-05-04T12:00:18Z</time>
      </trkpt>
      <trkpt lat="46.79058" lon="6.46897">
        <ele>1436</ele>
        <time>2019-05-04T12:00:18Z</time>
      </trkpt>
      <trkpt lat="46.79056" lon="6.46895">
        <ele>1435</ele>
        <time>2019-05-04T12:00:20Z</time>
      </trkpt>
      <trkpt lat="46.79056" lon="6.46893">
        <ele>1434</ele>
        <time>2019-05-04T12:00:21Z</time>
      </trkpt>
      <trkpt lat="46.79056" lon="6.46893">
        <ele>1434</ele>
        <time>2019-05-04T12:00:21Z</time>
      </trkpt>
      <trkpt lat="46.79056" lon="6.46891">
        <ele>1434</ele>
        <time>2019-05-04T12:00:22Z</time>
      </trkpt>
      <trkpt lat="46.79056" lon="6.46891">
        <ele>1434</ele>
        <time>2019-05-04T12:00:22Z</time>
      </trkpt>
      <trkpt lat="46.79056" lon="6.4689">
        <ele>1433</ele>
        <time>2019-05-04T12:00:23Z</time>
      </trkpt>
      <trkpt lat="46.79053" lon="6.46883">
        <ele>1431</ele>
        <time>2019-05-04T12:00:28Z</time>
      </trkpt>
      <trkpt lat="46.79052" lon="6.46881">
        <ele>1431</ele>
        <time>2019-05-04T12:00:29Z</time>
      </trkpt>
      <trkpt lat="46.79051" lon="6.4688">
        <ele>1430</ele>
        <time>2019-05-04T12:00:30Z</time>
      </trkpt>
      <trkpt lat="46.7905" lon="6.46874">
        <ele>1429</ele>
        <time>2019-05-04T12:00:33Z</time>
      </trkpt>
      <trkpt lat="46.7905" lon="6.46873">
        <ele>1429</ele>
        <time>2019-05-04T12:00:34Z</time>
      </trkpt>
      <trkpt lat="46.79051" lon="6.46872">
        <ele>1429</ele>
        <time>2019-05-04T12:00:35Z</time>
      </trkpt>
      <trkpt lat="46.79051" lon="6.46872">
        <ele>1429</ele>
        <time>2019-05-04T12:00:35Z</time>
      </trkpt>
      <trkpt lat="46.79051" lon="6.46871">
        <ele>1428</ele>
        <time>2019-05-04T12:00:36Z</time>
      </trkpt>
      <trkpt lat="46.7905" lon="6.4687">
        <ele>1428</ele>
        <time>2019-05-04T12:00:36Z</time>
      </trkpt>
      <trkpt lat="46.79047" lon="6.46866">
        <ele>1426</ele>
        <time>2019-05-04T12:00:40Z</time>
      </trkpt>
      <trkpt lat="46.79046" lon="6.46865">
        <ele>1426</ele>
        <time>2019-05-04T12:00:40Z</time>
      </trkpt>
      <trkpt lat="46.79046" lon="6.46862">
        <ele>1426</ele>
        <time>2019-05-04T12:00:42Z</time>
      </trkpt>
      <trkpt lat="46.79046" lon="6.4686">
        <ele>1425</ele>
        <time>2019-05-04T12:00:43Z</time>
      </trkpt>
      <trkpt lat="46.79044" lon="6.46858">
        <ele>1425</ele>
        <time>2019-05-04T12:00:44Z</time>
      </trkpt>
      <trkpt lat="46.79044" lon="6.46858">
        <ele>1424</ele>
        <time>2019-05-04T12:00:45Z</time>
      </trkpt>
      <trkpt lat="46.79044" lon="6.46857">
        <ele>1424</ele>
        <time>2019-05-04T12:00:45Z</time>
      </trkpt>
      <trkpt lat="46.79045" lon="6.46857">
        <ele>1424</ele>
        <time>2019-05-04T12:00:46Z</time>
      </trkpt>
      <trkpt lat="46.79046" lon="6.46856">
        <ele>1424</ele>
        <time>2019-05-04T12:00:46Z</time>
      </trkpt>
      <trkpt lat="46.79047" lon="6.46856">
        <ele>1424</ele>
        <time>2019-05-04T12:00:47Z</time>
      </trkpt>
      <trkpt lat="46.79048" lon="6.46857">
        <ele>1425</ele>
        <time>2019-05-04T12:00:49Z</time>
      </trkpt>
      <trkpt lat="46.79055" lon="6.46856">
        <ele>1426</ele>
        <time>2019-05-04T12:00:54Z</time>
      </trkpt>
      <trkpt lat="46.79055" lon="6.46856">
        <ele>1425</ele>
        <time>2019-05-04T12:00:54Z</time>
      </trkpt>
      <trkpt lat="46.79055" lon="6.46854">
        <ele>1425</ele>
        <time>2019-05-04T12:00:55Z</time>
      </trkpt>
      <trkpt lat="46.79055" lon="6.46852">
        <ele>1424</ele>
        <time>2019-05-04T12:00:56Z</time>
      </trkpt>
      <trkpt lat="46.7905" lon="6.46844">
        <ele>1420</ele>
        <time>2019-05-04T12:01:02Z</time>
      </trkpt>
      <trkpt lat="46.79047" lon="6.46841">
        <ele>1418</ele>
        <time>2019-05-04T12:01:05Z</time>
      </trkpt>
      <trkpt lat="46.79046" lon="6.4684">
        <ele>1417</ele>
        <time>2019-05-04T12:01:06Z</time>
      </trkpt>
      <trkpt lat="46.79044" lon="6.46837">
        <ele>1416</ele>
        <time>2019-05-04T12:01:09Z</time>
      </trkpt>
      <trkpt lat="46.79043" lon="6.46836">
        <ele>1416</ele>
        <time>2019-05-04T12:01:09Z</time>
      </trkpt>
      <trkpt lat="46.79043" lon="6.46835">
        <ele>1415</ele>
        <time>2019-05-04T12:01:10Z</time>
      </trkpt>
      <trkpt lat="46.79043" lon="6.46833">
        <ele>1415</ele>
        <time>2019-05-04T12:01:11Z</time>
      </trkpt>
      <trkpt lat="46.79044" lon="6.46831">
        <ele>1414</ele>
        <time>2019-05-04T12:01:12Z</time>
      </trkpt>
      <trkpt lat="46.79043" lon="6.46828">
        <ele>1412</ele>
        <time>2019-05-04T12:01:14Z</time>
      </trkpt>
      <trkpt lat="46.79042" lon="6.46825">
        <ele>1411</ele>
        <time>2019-05-04T12:01:16Z</time>
      </trkpt>
      <trkpt lat="46.79042" lon="6.46824">
        <ele>1411</ele>
        <time>2019-05-04T12:01:17Z</time>
      </trkpt>
      <trkpt lat="46.79041" lon="6.46821">
        <ele>1410</ele>
        <time>2019-05-04T12:01:18Z</time>
      </trkpt>
      <trkpt lat="46.79041" lon="6.46819">
        <ele>1409</ele>
        <time>2019-05-04T12:01:20Z</time>
      </trkpt>
      <trkpt lat="46.79041" lon="6.46818">
        <ele>1408</ele>
        <time>2019-05-04T12:01:21Z</time>
      </trkpt>
      <trkpt lat="46.7904" lon="6.46815">
        <ele>1407</ele>
        <time>2019-05-04T12:01:22Z</time>
      </trkpt>
      <trkpt lat="46.79041" lon="6.46812">
        <ele>1406</ele>
        <time>2019-05-04T12:01:24Z</time>
      </trkpt>
      <trkpt lat="46.79041" lon="6.46811">
        <ele>1406</ele>
        <time>2019-05-04T12:01:24Z</time>
      </trkpt>
      <trkpt lat="46.79041" lon="6.46809">
        <ele>1405</ele>
        <time>2019-05-04T12:01:25Z</time>
      </trkpt>
      <trkpt lat="46.7904" lon="6.46809">
        <ele>1405</ele>
        <time>2019-05-04T12:01:26Z</time>
      </trkpt>
      <trkpt lat="46.7904" lon="6.46808">
        <ele>1405</ele>
        <time>2019-05-04T12:01:26Z</time>
      </trkpt>
      <trkpt lat="46.79042" lon="6.46806">
        <ele>1404</ele>
        <time>2019-05-04T12:01:28Z</time>
      </trkpt>
      <trkpt lat="46.79042" lon="6.46803">
        <ele>1403</ele>
        <time>2019-05-04T12:01:29Z</time>
      </trkpt>
      <trkpt lat="46.79039" lon="6.46801">
        <ele>1402</ele>
        <time>2019-05-04T12:01:32Z</time>
      </trkpt>
      <trkpt lat="46.79039" lon="6.468">
        <ele>1401</ele>
        <time>2019-05-04T12:01:33Z</time>
      </trkpt>
      <trkpt lat="46.79039" lon="6.46799">
        <ele>1401</ele>
        <time>2019-05-04T12:01:33Z</time>
      </trkpt>
      <trkpt lat="46.79035" lon="6.46798">
        <ele>1400</ele>
        <time>2019-05-04T12:01:36Z</time>
      </trkpt>
      <trkpt lat="46.79035" lon="6.46797">
        <ele>1400</ele>
        <time>2019-05-04T12:01:37Z</time>
      </trkpt>
      <trkpt lat="46.79035" lon="6.46798">
        <ele>1400</ele>
        <time>2019-05-04T12:01:38Z</time>
      </trkpt>
      <trkpt lat="46.79036" lon="6.46795">
        <ele>1399</ele>
        <time>2019-05-04T12:01:39Z</time>
      </trkpt>
      <trkpt lat="46.79036" lon="6.46793">
        <ele>1398</ele>
        <time>2019-05-04T12:01:41Z</time>
      </trkpt>
      <trkpt lat="46.79036" lon="6.46792">
        <ele>1398</ele>
        <time>2019-05-04T12:01:41Z</time>
      </trkpt>
      <trkpt lat="46.79035" lon="6.4679">
        <ele>1397</ele>
        <time>2019-05-04T12:01:42Z</time>
      </trkpt>
      <trkpt lat="46.79035" lon="6.46791">
        <ele>1397</ele>
        <time>2019-05-04T12:01:43Z</time>
      </trkpt>
      <trkpt lat="46.79035" lon="6.46789">
        <ele>1397</ele>
        <time>2019-05-04T12:01:43Z</time>
      </trkpt>
      <trkpt lat="46.79035" lon="6.46789">
        <ele>1397</ele>
        <time>2019-05-04T12:01:44Z</time>
      </trkpt>
      <trkpt lat="46.79035" lon="6.46789">
        <ele>1397</ele>
        <time>2019-05-04T12:01:44Z</time>
      </trkpt>
      <trkpt lat="46.79034" lon="6.46789">
        <ele>1397</ele>
        <time>2019-05-04T12:01:45Z</time>
      </trkpt>
      <trkpt lat="46.79034" lon="6.46788">
        <ele>1396</ele>
        <time>2019-05-04T12:01:46Z</time>
      </trkpt>
      <trkpt lat="46.79029" lon="6.46781">
        <ele>1393</ele>
        <time>2019-05-04T12:01:51Z</time>
      </trkpt>
      <trkpt lat="46.79029" lon="6.46778">
        <ele>1392</ele>
        <time>2019-05-04T12:01:52Z</time>
      </trkpt>
      <trkpt lat="46.79031" lon="6.46774">
        <ele>1391</ele>
        <time>2019-05-04T12:01:55Z</time>
      </trkpt>
      <trkpt lat="46.7903" lon="6.46768">
        <ele>1387</ele>
        <time>2019-05-04T12:01:59Z</time>
      </trkpt>
      <trkpt lat="46.79031" lon="6.46766">
        <ele>1386</ele>
        <time>2019-05-04T12:02:00Z</time>
      </trkpt>
      <trkpt lat="46.79031" lon="6.46765">
        <ele>1385</ele>
        <time>2019-05-04T12:02:01Z</time>
      </trkpt>
      <trkpt lat="46.79035" lon="6.46769">
        <ele>1388</ele>
        <time>2019-05-04T12:02:05Z</time>
      </trkpt>
      <trkpt lat="46.79038" lon="6.46768">
        <ele>1388</ele>
        <time>2019-05-04T12:02:07Z</time>
      </trkpt>
      <trkpt lat="46.79032" lon="6.46769">
        <ele>1388</ele>
        <time>2019-05-04T12:02:12Z</time>
      </trkpt>
      <trkpt lat="46.7903" lon="6.46771">
        <ele>1389</ele>
        <time>2019-05-04T12:02:13Z</time>
      </trkpt>
      <trkpt lat="46.79031" lon="6.46769">
        <ele>1388</ele>
        <time>2019-05-04T12:02:15Z</time>
      </trkpt>
      <trkpt lat="46.79029" lon="6.46769">
        <ele>1388</ele>
        <time>2019-05-04T12:02:16Z</time>
      </trkpt>
      <trkpt lat="46.79026" lon="6.46768">
        <ele>1386</ele>
        <time>2019-05-04T12:02:18Z</time>
      </trkpt>
      <trkpt lat="46.79025" lon="6.46767">
        <ele>1385</ele>
        <time>2019-05-04T12:02:20Z</time>
      </trkpt>
      <trkpt lat="46.79024" lon="6.46767">
        <ele>1384</ele>
        <time>2019-05-04T12:02:21Z</time>
      </trkpt>
      <trkpt lat="46.7902" lon="6.46764">
        <ele>1381</ele>
        <time>2019-05-04T12:02:24Z</time>
      </trkpt>
      <trkpt lat="46.79019" lon="6.46764">
        <ele>1380</ele>
        <time>2019-05-04T12:02:25Z</time>
      </trkpt>
      <trkpt lat="46.79014" lon="6.46762">
        <ele>1377</ele>
        <time>2019-05-04T12:02:29Z</time>
      </trkpt>
      <trkpt lat="46.79012" lon="6.46762">
        <ele>1377</ele>
        <time>2019-05-04T12:02:31Z</time>
      </trkpt>
      <trkpt lat="46.79009" lon="6.46766">
        <ele>1377</ele>
        <time>2019-05-04T12:02:34Z</time>
      </trkpt>
      <trkpt lat="46.79006" lon="6.46766">
        <ele>1376</ele>
        <time>2019-05-04T12:02:36Z</time>
      </trkpt>
      <trkpt lat="46.79005" lon="6.46768">
        <ele>1377</ele>
        <time>2019-05-04T12:02:37Z</time>
      </trkpt>
      <trkpt lat="46.79005" lon="6.46771">
        <ele>1378</ele>
        <time>2019-05-04T12:02:39Z</time>
      </trkpt>
      <trkpt lat="46.79" lon="6.46774">
        <ele>1378</ele>
        <time>2019-05-04T12:02:42Z</time>
      </trkpt>
      <trkpt lat="46.78997" lon="6.46774">
        <ele>1377</ele>
        <time>2019-05-04T12:02:44Z</time>
      </trkpt>
      <trkpt lat="46.78996" lon="6.46775">
        <ele>1377</ele>
        <time>2019-05-04T12:02:45Z</time>
      </trkpt>
      <trkpt lat="46.78996" lon="6.46775">
        <ele>1377</ele>
        <time>2019-05-04T12:02:45Z</time>
      </trkpt>
      <trkpt lat="46.78996" lon="6.46775">
        <ele>1377</ele>
        <time>2019-05-04T12:02:45Z</time>
      </trkpt>
      <trkpt lat="46.78997" lon="6.46775">
        <ele>1377</ele>
        <time>2019-05-04T12:02:46Z</time>
      </trkpt>
      <trkpt lat="46.78993" lon="6.46777">
        <ele>1376</ele>
        <time>2019-05-04T12:02:49Z</time>
      </trkpt>
      <trkpt lat="46.78992" lon="6.46778">
        <ele>1376</ele>
        <time>2019-05-04T12:02:49Z</time>
      </trkpt>
      <trkpt lat="46.78991" lon="6.46777">
        <ele>1375</ele>
        <time>2019-05-04T12:02:50Z</time>
      </trkpt>
      <trkpt lat="46.78988" lon="6.46776">
        <ele>1373</ele>
        <time>2019-05-04T12:02:53Z</time>
      </trkpt>
      <trkpt lat="46.78982" lon="6.46774">
        <ele>1370</ele>
        <time>2019-05-04T12:02:58Z</time>
      </trkpt>
      <trkpt lat="46.78981" lon="6.46773">
        <ele>1369</ele>
        <time>2019-05-04T12:02:59Z</time>
      </trkpt>
      <trkpt lat="46.7898" lon="6.46767">
        <ele>1366</ele>
        <time>2019-05-04T12:03:02Z</time>
      </trkpt>
      <trkpt lat="46.7898" lon="6.46766">
        <ele>1365</ele>
        <time>2019-05-04T12:03:03Z</time>
      </trkpt>
      <trkpt lat="46.78977" lon="6.46766">
        <ele>1363</ele>
        <time>2019-05-04T12:03:06Z</time>
      </trkpt>
      <trkpt lat="46.78973" lon="6.46766">
        <ele>1362</ele>
        <time>2019-05-04T12:03:09Z</time>
      </trkpt>
      <trkpt lat="46.78971" lon="6.46767">
        <ele>1362</ele>
        <time>2019-05-04T12:03:10Z</time>
      </trkpt>
      <trkpt lat="46.7897" lon="6.46768">
        <ele>1362</ele>
        <time>2019-05-04T12:03:11Z</time>
      </trkpt>
      <trkpt lat="46.78968" lon="6.46772">
        <ele>1363</ele>
        <time>2019-05-04T12:03:14Z</time>
      </trkpt>
      <trkpt lat="46.78963" lon="6.46774">
        <ele>1362</ele>
        <time>2019-05-04T12:03:17Z</time>
      </trkpt>
      <trkpt lat="46.78962" lon="6.46774">
        <ele>1361</ele>
        <time>2019-05-04T12:03:18Z</time>
      </trkpt>
      <trkpt lat="46.78959" lon="6.46775">
        <ele>1361</ele>
        <time>2019-05-04T12:03:21Z</time>
      </trkpt>
      <trkpt lat="46.78958" lon="6.46772">
        <ele>1359</ele>
        <time>2019-05-04T12:03:23Z</time>
      </trkpt>
      <trkpt lat="46.78961" lon="6.46769">
        <ele>1358</ele>
        <time>2019-05-04T12:03:25Z</time>
      </trkpt>
      <trkpt lat="46.78964" lon="6.46767">
        <ele>1358</ele>
        <time>2019-05-04T12:03:27Z</time>
      </trkpt>
      <trkpt lat="46.78964" lon="6.46764">
        <ele>1357</ele>
        <time>2019-05-04T12:03:29Z</time>
      </trkpt>
      <trkpt lat="46.78964" lon="6.46764">
        <ele>1357</ele>
        <time>2019-05-04T12:03:29Z</time>
      </trkpt>
      <trkpt lat="46.78964" lon="6.46756">
        <ele>1353</ele>
        <time>2019-05-04T12:03:34Z</time>
      </trkpt>
      <trkpt lat="46.78964" lon="6.46754">
        <ele>1352</ele>
        <time>2019-05-04T12:03:35Z</time>
      </trkpt>
      <trkpt lat="46.78964" lon="6.46753">
        <ele>1352</ele>
        <time>2019-05-04T12:03:35Z</time>
      </trkpt>
      <trkpt lat="46.78964" lon="6.46754">
        <ele>1352</ele>
        <time>2019-05-04T12:03:36Z</time>
      </trkpt>
      <trkpt lat="46.78965" lon="6.46756">
        <ele>1353</ele>
        <time>2019-05-04T12:03:37Z</time>
      </trkpt>
      <trkpt lat="46.78963" lon="6.46757">
        <ele>1353</ele>
        <time>2019-05-04T12:03:38Z</time>
      </trkpt>
      <trkpt lat="46.78962" lon="6.46752">
        <ele>1350</ele>
        <time>2019-05-04T12:03:42Z</time>
      </trkpt>
      <trkpt lat="46.78962" lon="6.4675">
        <ele>1349</ele>
        <time>2019-05-04T12:03:43Z</time>
      </trkpt>
      <trkpt lat="46.78961" lon="6.46747">
        <ele>1347</ele>
        <time>2019-05-04T12:03:45Z</time>
      </trkpt>
      <trkpt lat="46.78961" lon="6.46747">
        <ele>1347</ele>
        <time>2019-05-04T12:03:45Z</time>
      </trkpt>
      <trkpt lat="46.78961" lon="6.4675">
        <ele>1349</ele>
        <time>2019-05-04T12:03:47Z</time>
      </trkpt>
      <trkpt lat="46.7896" lon="6.4675">
        <ele>1348</ele>
        <time>2019-05-04T12:03:48Z</time>
      </trkpt>
      <trkpt lat="46.78959" lon="6.46749">
        <ele>1347</ele>
        <time>2019-05-04T12:03:49Z</time>
      </trkpt>
      <trkpt lat="46.78957" lon="6.46747">
        <ele>1345</ele>
        <time>2019-05-04T12:03:51Z</time>
      </trkpt>
      <trkpt lat="46.78956" lon="6.46752">
        <ele>1348</ele>
        <time>2019-05-04T12:03:54Z</time>
      </trkpt>
      <trkpt lat="46.78951" lon="6.46751">
        <ele>1345</ele>
        <time>2019-05-04T12:03:58Z</time>
      </trkpt>
      <trkpt lat="46.7895" lon="6.46752">
        <ele>1345</ele>
        <time>2019-05-04T12:03:59Z</time>
      </trkpt>
      <trkpt lat="46.78948" lon="6.46753">
        <ele>1345</ele>
        <time>2019-05-04T12:04:01Z</time>
      </trkpt>
      <trkpt lat="46.78944" lon="6.46753">
        <ele>1343</ele>
        <time>2019-05-04T12:04:04Z</time>
      </trkpt>
      <trkpt lat="46.78942" lon="6.46752">
        <ele>1342</ele>
        <time>2019-05-04T12:04:06Z</time>
      </trkpt>
      <trkpt lat="46.78941" lon="6.46741">
        <ele>1336</ele>
        <time>2019-05-04T12:04:12Z</time>
      </trkpt>
      <trkpt lat="46.78942" lon="6.46746">
        <ele>1339</ele>
        <time>2019-05-04T12:04:15Z</time>
      </trkpt>
      <trkpt lat="46.78946" lon="6.46746">
        <ele>1341</ele>
        <time>2019-05-04T12:04:18Z</time>
      </trkpt>
      <trkpt lat="46.78944" lon="6.46746">
        <ele>1339</ele>
        <time>2019-05-04T12:04:20Z</time>
      </trkpt>
      <trkpt lat="46.78944" lon="6.46751">
        <ele>1342</ele>
        <time>2019-05-04T12:04:23Z</time>
      </trkpt>
      <trkpt lat="46.78934" lon="6.46762">
        <ele>1343</ele>
        <time>2019-05-04T12:04:32Z</time>
      </trkpt>
      <trkpt lat="46.78933" lon="6.46766">
        <ele>1344</ele>
        <time>2019-05-04T12:04:34Z</time>
      </trkpt>
      <trkpt lat="46.78933" lon="6.46768">
        <ele>1345</ele>
        <time>2019-05-04T12:04:36Z</time>
      </trkpt>
      <trkpt lat="46.78932" lon="6.46771">
        <ele>1346</ele>
        <time>2019-05-04T12:04:37Z</time>
      </trkpt>
      <trkpt lat="46.78931" lon="6.46774">
        <ele>1347</ele>
        <time>2019-05-04T12:04:39Z</time>
      </trkpt>
      <trkpt lat="46.78931" lon="6.46775">
        <ele>1347</ele>
        <time>2019-05-04T12:04:40Z</time>
      </trkpt>
      <trkpt lat="46.7893" lon="6.46775">
        <ele>1346</ele>
        <time>2019-05-04T12:04:41Z</time>
      </trkpt>
      <trkpt lat="46.78926" lon="6.46773">
        <ele>1344</ele>
        <time>2019-05-04T12:04:44Z</time>
      </trkpt>
      <trkpt lat="46.78924" lon="6.46772">
        <ele>1342</ele>
        <time>2019-05-04T12:04:46Z</time>
      </trkpt>
      <trkpt lat="46.78923" lon="6.4677">
        <ele>1340</ele>
        <time>2019-05-04T12:04:48Z</time>
      </trkpt>
      <trkpt lat="46.78922" lon="6.46768">
        <ele>1339</ele>
        <time>2019-05-04T12:04:49Z</time>
      </trkpt>
      <trkpt lat="46.78922" lon="6.46768">
        <ele>1339</ele>
        <time>2019-05-04T12:04:49Z</time>
      </trkpt>
      <trkpt lat="46.78921" lon="6.46768">
        <ele>1339</ele>
        <time>2019-05-04T12:04:50Z</time>
      </trkpt>
      <trkpt lat="46.78921" lon="6.46767">
        <ele>1338</ele>
        <time>2019-05-04T12:04:50Z</time>
      </trkpt>
      <trkpt lat="46.7892" lon="6.46766">
        <ele>1337</ele>
        <time>2019-05-04T12:04:51Z</time>
      </trkpt>
      <trkpt lat="46.78919" lon="6.46764">
        <ele>1336</ele>
        <time>2019-05-04T12:04:53Z</time>
      </trkpt>
      <trkpt lat="46.78919" lon="6.46764">
        <ele>1336</ele>
        <time>2019-05-04T12:04:53Z</time>
      </trkpt>
      <trkpt lat="46.78918" lon="6.46765">
        <ele>1336</ele>
        <time>2019-05-04T12:04:54Z</time>
      </trkpt>
      <trkpt lat="46.78918" lon="6.46766">
        <ele>1336</ele>
        <time>2019-05-04T12:04:54Z</time>
      </trkpt>
      <trkpt lat="46.78917" lon="6.46766">
        <ele>1336</ele>
        <time>2019-05-04T12:04:55Z</time>
      </trkpt>
      <trkpt lat="46.78916" lon="6.46764">
        <ele>1334</ele>
        <time>2019-05-04T12:04:57Z</time>
      </trkpt>
      <trkpt lat="46.78913" lon="6.46757">
        <ele>1330</ele>
        <time>2019-05-04T12:05:02Z</time>
      </trkpt>
      <trkpt lat="46.78913" lon="6.46757">
        <ele>1330</ele>
        <time>2019-05-04T12:05:02Z</time>
      </trkpt>
      <trkpt lat="46.78912" lon="6.46755">
        <ele>1329</ele>
        <time>2019-05-04T12:05:03Z</time>
      </trkpt>
      <trkpt lat="46.78912" lon="6.46755">
        <ele>1329</ele>
        <time>2019-05-04T12:05:03Z</time>
      </trkpt>
      <trkpt lat="46.7891" lon="6.46752">
        <ele>1327</ele>
        <time>2019-05-04T12:05:05Z</time>
      </trkpt>
      <trkpt lat="46.78909" lon="6.46747">
        <ele>1325</ele>
        <time>2019-05-04T12:05:09Z</time>
      </trkpt>
      <trkpt lat="46.78908" lon="6.46746">
        <ele>1324</ele>
        <time>2019-05-04T12:05:09Z</time>
      </trkpt>
      <trkpt lat="46.78908" lon="6.46742">
        <ele>1323</ele>
        <time>2019-05-04T12:05:12Z</time>
      </trkpt>
      <trkpt lat="46.78908" lon="6.46739">
        <ele>1322</ele>
        <time>2019-05-04T12:05:13Z</time>
      </trkpt>
      <trkpt lat="46.78909" lon="6.46739">
        <ele>1322</ele>
        <time>2019-05-04T12:05:13Z</time>
      </trkpt>
      <trkpt lat="46.78907" lon="6.4674">
        <ele>1322</ele>
        <time>2019-05-04T12:05:14Z</time>
      </trkpt>
      <trkpt lat="46.78906" lon="6.46745">
        <ele>1323</ele>
        <time>2019-05-04T12:05:17Z</time>
      </trkpt>
      <trkpt lat="46.78907" lon="6.46746">
        <ele>1324</ele>
        <time>2019-05-04T12:05:18Z</time>
      </trkpt>
      <trkpt lat="46.78906" lon="6.46749">
        <ele>1324</ele>
        <time>2019-05-04T12:05:20Z</time>
      </trkpt>
      <trkpt lat="46.78899" lon="6.46759">
        <ele>1325</ele>
        <time>2019-05-04T12:05:26Z</time>
      </trkpt>
      <trkpt lat="46.78898" lon="6.4676">
        <ele>1325</ele>
        <time>2019-05-04T12:05:27Z</time>
      </trkpt>
      <trkpt lat="46.78897" lon="6.46762">
        <ele>1325</ele>
        <time>2019-05-04T12:05:28Z</time>
      </trkpt>
      <trkpt lat="46.78895" lon="6.46763">
        <ele>1324</ele>
        <time>2019-05-04T12:05:30Z</time>
      </trkpt>
      <trkpt lat="46.78894" lon="6.46765">
        <ele>1324</ele>
        <time>2019-05-04T12:05:31Z</time>
      </trkpt>
      <trkpt lat="46.78892" lon="6.46767">
        <ele>1323</ele>
        <time>2019-05-04T12:05:33Z</time>
      </trkpt>
      <trkpt lat="46.7889" lon="6.46759">
        <ele>1320</ele>
        <time>2019-05-04T12:05:38Z</time>
      </trkpt>
      <trkpt lat="46.78888" lon="6.46755">
        <ele>1318</ele>
        <time>2019-05-04T12:05:40Z</time>
      </trkpt>
      <trkpt lat="46.78887" lon="6.46753">
        <ele>1317</ele>
        <time>2019-05-04T12:05:42Z</time>
      </trkpt>
      <trkpt lat="46.78886" lon="6.4675">
        <ele>1316</ele>
        <time>2019-05-04T12:05:44Z</time>
      </trkpt>
      <trkpt lat="46.78885" lon="6.46745">
        <ele>1314</ele>
        <time>2019-05-04T12:05:47Z</time>
      </trkpt>
      <trkpt lat="46.78883" lon="6.46741">
        <ele>1312</ele>
        <time>2019-05-04T12:05:50Z</time>
      </trkpt>
      <trkpt lat="46.78882" lon="6.46738">
        <ele>1311</ele>
        <time>2019-05-04T12:05:52Z</time>
      </trkpt>
      <trkpt lat="46.7888" lon="6.46736">
        <ele>1310</ele>
        <time>2019-05-04T12:05:53Z</time>
      </trkpt>
      <trkpt lat="46.78878" lon="6.46738">
        <ele>1310</ele>
        <time>2019-05-04T12:05:55Z</time>
      </trkpt>
      <trkpt lat="46.78875" lon="6.46741">
        <ele>1309</ele>
        <time>2019-05-04T12:05:57Z</time>
      </trkpt>
      <trkpt lat="46.78875" lon="6.46742">
        <ele>1309</ele>
        <time>2019-05-04T12:05:58Z</time>
      </trkpt>
      <trkpt lat="46.78873" lon="6.46746">
        <ele>1309</ele>
        <time>2019-05-04T12:06:00Z</time>
      </trkpt>
      <trkpt lat="46.78872" lon="6.4675">
        <ele>1310</ele>
        <time>2019-05-04T12:06:03Z</time>
      </trkpt>
      <trkpt lat="46.7887" lon="6.46753">
        <ele>1310</ele>
        <time>2019-05-04T12:06:04Z</time>
      </trkpt>
      <trkpt lat="46.7887" lon="6.46756">
        <ele>1310</ele>
        <time>2019-05-04T12:06:06Z</time>
      </trkpt>
      <trkpt lat="46.78868" lon="6.46759">
        <ele>1310</ele>
        <time>2019-05-04T12:06:08Z</time>
      </trkpt>
      <trkpt lat="46.78866" lon="6.46761">
        <ele>1309</ele>
        <time>2019-05-04T12:06:10Z</time>
      </trkpt>
      <trkpt lat="46.78864" lon="6.46764">
        <ele>1309</ele>
        <time>2019-05-04T12:06:12Z</time>
      </trkpt>
      <trkpt lat="46.78861" lon="6.46768">
        <ele>1308</ele>
        <time>2019-05-04T12:06:15Z</time>
      </trkpt>
      <trkpt lat="46.7886" lon="6.46768">
        <ele>1307</ele>
        <time>2019-05-04T12:06:16Z</time>
      </trkpt>
      <trkpt lat="46.78858" lon="6.4677">
        <ele>1307</ele>
        <time>2019-05-04T12:06:18Z</time>
      </trkpt>
      <trkpt lat="46.78857" lon="6.46771">
        <ele>1306</ele>
        <time>2019-05-04T12:06:19Z</time>
      </trkpt>
      <trkpt lat="46.78854" lon="6.46771">
        <ele>1305</ele>
        <time>2019-05-04T12:06:21Z</time>
      </trkpt>
      <trkpt lat="46.78851" lon="6.46773">
        <ele>1304</ele>
        <time>2019-05-04T12:06:24Z</time>
      </trkpt>
      <trkpt lat="46.78849" lon="6.46774">
        <ele>1303</ele>
        <time>2019-05-04T12:06:25Z</time>
      </trkpt>
      <trkpt lat="46.78847" lon="6.46776">
        <ele>1302</ele>
        <time>2019-05-04T12:06:27Z</time>
      </trkpt>
      <trkpt lat="46.78846" lon="6.46777">
        <ele>1302</ele>
        <time>2019-05-04T12:06:28Z</time>
      </trkpt>
      <trkpt lat="46.78843" lon="6.4678">
        <ele>1301</ele>
        <time>2019-05-04T12:06:30Z</time>
      </trkpt>
      <trkpt lat="46.78841" lon="6.4678">
        <ele>1300</ele>
        <time>2019-05-04T12:06:32Z</time>
      </trkpt>
      <trkpt lat="46.78837" lon="6.4678">
        <ele>1298</ele>
        <time>2019-05-04T12:06:36Z</time>
      </trkpt>
      <trkpt lat="46.78837" lon="6.4678">
        <ele>1298</ele>
        <time>2019-05-04T12:06:36Z</time>
      </trkpt>
      <trkpt lat="46.78836" lon="6.46778">
        <ele>1297</ele>
        <time>2019-05-04T12:06:37Z</time>
      </trkpt>
      <trkpt lat="46.78834" lon="6.46778">
        <ele>1296</ele>
        <time>2019-05-04T12:06:38Z</time>
      </trkpt>
      <trkpt lat="46.7883" lon="6.46779">
        <ele>1294</ele>
        <time>2019-05-04T12:06:42Z</time>
      </trkpt>
      <trkpt lat="46.78828" lon="6.46779">
        <ele>1294</ele>
        <time>2019-05-04T12:06:43Z</time>
      </trkpt>
      <trkpt lat="46.78822" lon="6.46787">
        <ele>1291</ele>
        <time>2019-05-04T12:06:49Z</time>
      </trkpt>
      <trkpt lat="46.78819" lon="6.46789">
        <ele>1290</ele>
        <time>2019-05-04T12:06:51Z</time>
      </trkpt>
      <trkpt lat="46.78816" lon="6.46789">
        <ele>1288</ele>
        <time>2019-05-04T12:06:54Z</time>
      </trkpt>
      <trkpt lat="46.78815" lon="6.46791">
        <ele>1288</ele>
        <time>2019-05-04T12:06:55Z</time>
      </trkpt>
      <trkpt lat="46.78811" lon="6.46797">
        <ele>1286</ele>
        <time>2019-05-04T12:07:00Z</time>
      </trkpt>
      <trkpt lat="46.78809" lon="6.46801">
        <ele>1285</ele>
        <time>2019-05-04T12:07:02Z</time>
      </trkpt>
      <trkpt lat="46.78808" lon="6.46804">
        <ele>1285</ele>
        <time>2019-05-04T12:07:04Z</time>
      </trkpt>
      <trkpt lat="46.78807" lon="6.46805">
        <ele>1284</ele>
        <time>2019-05-04T12:07:05Z</time>
      </trkpt>
      <trkpt lat="46.78806" lon="6.46809">
        <ele>1284</ele>
        <time>2019-05-04T12:07:07Z</time>
      </trkpt>
      <trkpt lat="46.78805" lon="6.46816">
        <ele>1284</ele>
        <time>2019-05-04T12:07:11Z</time>
      </trkpt>
      <trkpt lat="46.78805" lon="6.4682">
        <ele>1284</ele>
        <time>2019-05-04T12:07:13Z</time>
      </trkpt>
      <trkpt lat="46.78805" lon="6.46823">
        <ele>1284</ele>
        <time>2019-05-04T12:07:14Z</time>
      </trkpt>
      <trkpt lat="46.78805" lon="6.46826">
        <ele>1285</ele>
        <time>2019-05-04T12:07:16Z</time>
      </trkpt>
      <trkpt lat="46.78805" lon="6.46828">
        <ele>1285</ele>
        <time>2019-05-04T12:07:17Z</time>
      </trkpt>
      <trkpt lat="46.78805" lon="6.4683">
        <ele>1284</ele>
        <time>2019-05-04T12:07:18Z</time>
      </trkpt>
      <trkpt lat="46.78803" lon="6.46832">
        <ele>1284</ele>
        <time>2019-05-04T12:07:20Z</time>
      </trkpt>
      <trkpt lat="46.78803" lon="6.46834">
        <ele>1283</ele>
        <time>2019-05-04T12:07:21Z</time>
      </trkpt>
      <trkpt lat="46.78798" lon="6.46838">
        <ele>1281</ele>
        <time>2019-05-04T12:07:25Z</time>
      </trkpt>
      <trkpt lat="46.78795" lon="6.46843">
        <ele>1280</ele>
        <time>2019-05-04T12:07:28Z</time>
      </trkpt>
      <trkpt lat="46.78794" lon="6.46845">
        <ele>1279</ele>
        <time>2019-05-04T12:07:30Z</time>
      </trkpt>
      <trkpt lat="46.78778" lon="6.4685">
        <ele>1270</ele>
        <time>2019-05-04T12:07:43Z</time>
      </trkpt>
      <trkpt lat="46.78779" lon="6.4685">
        <ele>1270</ele>
        <time>2019-05-04T12:07:43Z</time>
      </trkpt>
      <trkpt lat="46.78789" lon="6.46846">
        <ele>1276</ele>
        <time>2019-05-04T12:07:52Z</time>
      </trkpt>
      <trkpt lat="46.7879" lon="6.46854">
        <ele>1277</ele>
        <time>2019-05-04T12:07:56Z</time>
      </trkpt>
      <trkpt lat="46.78791" lon="6.4691">
        <ele>1278</ele>
        <time>2019-05-04T12:08:24Z</time>
      </trkpt>
      <trkpt lat="46.7879" lon="6.46936">
        <ele>1278</ele>
        <time>2019-05-04T12:08:37Z</time>
      </trkpt>
      <trkpt lat="46.78796" lon="6.46965">
        <ele>1282</ele>
        <time>2019-05-04T12:08:52Z</time>
      </trkpt>
      <trkpt lat="46.788" lon="6.46993">
        <ele>1285</ele>
        <time>2019-05-04T12:09:06Z</time>
      </trkpt>
      <trkpt lat="46.78798" lon="6.47011">
        <ele>1284</ele>
        <time>2019-05-04T12:09:15Z</time>
      </trkpt>
      <trkpt lat="46.78795" lon="6.47038">
        <ele>1283</ele>
        <time>2019-05-04T12:09:29Z</time>
      </trkpt>
      <trkpt lat="46.78795" lon="6.47061">
        <ele>1283</ele>
        <time>2019-05-04T12:09:40Z</time>
      </trkpt>
      <trkpt lat="46.78795" lon="6.47088">
        <ele>1283</ele>
        <time>2019-05-04T12:09:54Z</time>
      </trkpt>
      <trkpt lat="46.78794" lon="6.47094">
        <ele>1282</ele>
        <time>2019-05-04T12:09:57Z</time>
      </trkpt>
      <trkpt lat="46.78787" lon="6.4712">
        <ele>1279</ele>
        <time>2019-05-04T12:10:10Z</time>
      </trkpt>
      <trkpt lat="46.78784" lon="6.47139">
        <ele>1277</ele>
        <time>2019-05-04T12:10:20Z</time>
      </trkpt>
      <trkpt lat="46.78786" lon="6.47167">
        <ele>1278</ele>
        <time>2019-05-04T12:10:34Z</time>
      </trkpt>
      <trkpt lat="46.78787" lon="6.4717">
        <ele>1278</ele>
        <time>2019-05-04T12:10:36Z</time>
      </trkpt>
      <trkpt lat="46.78786" lon="6.47198">
        <ele>1278</ele>
        <time>2019-05-04T12:10:50Z</time>
      </trkpt>
      <trkpt lat="46.78783" lon="6.47226">
        <ele>1277</ele>
        <time>2019-05-04T12:11:04Z</time>
      </trkpt>
      <trkpt lat="46.78781" lon="6.47252">
        <ele>1276</ele>
        <time>2019-05-04T12:11:17Z</time>
      </trkpt>
      <trkpt lat="46.78782" lon="6.47281">
        <ele>1277</ele>
        <time>2019-05-04T12:11:31Z</time>
      </trkpt>
      <trkpt lat="46.78778" lon="6.47308">
        <ele>1276</ele>
        <time>2019-05-04T12:11:45Z</time>
      </trkpt>
      <trkpt lat="46.78778" lon="6.47319">
        <ele>1275</ele>
        <time>2019-05-04T12:11:50Z</time>
      </trkpt>
      <trkpt lat="46.78774" lon="6.47349">
        <ele>1275</ele>
        <time>2019-05-04T12:12:05Z</time>
      </trkpt>
      <trkpt lat="46.78773" lon="6.47377">
        <ele>1275</ele>
        <time>2019-05-04T12:12:19Z</time>
      </trkpt>
      <trkpt lat="46.78775" lon="6.47406">
        <ele>1276</ele>
        <time>2019-05-04T12:12:34Z</time>
      </trkpt>
      <trkpt lat="46.78776" lon="6.47433">
        <ele>1276</ele>
        <time>2019-05-04T12:12:47Z</time>
      </trkpt>
      <trkpt lat="46.78774" lon="6.47462">
        <ele>1275</ele>
        <time>2019-05-04T12:13:02Z</time>
      </trkpt>
      <trkpt lat="46.78774" lon="6.47488">
        <ele>1274</ele>
        <time>2019-05-04T12:13:15Z</time>
      </trkpt>
      <trkpt lat="46.78775" lon="6.47518">
        <ele>1273</ele>
        <time>2019-05-04T12:13:30Z</time>
      </trkpt>
      <trkpt lat="46.78774" lon="6.47545">
        <ele>1273</ele>
        <time>2019-05-04T12:13:43Z</time>
      </trkpt>
      <trkpt lat="46.78773" lon="6.47563">
        <ele>1274</ele>
        <time>2019-05-04T12:13:52Z</time>
      </trkpt>
      <trkpt lat="46.78772" lon="6.47592">
        <ele>1274</ele>
        <time>2019-05-04T12:14:06Z</time>
      </trkpt>
      <trkpt lat="46.78769" lon="6.47622">
        <ele>1274</ele>
        <time>2019-05-04T12:14:21Z</time>
      </trkpt>
      <trkpt lat="46.78768" lon="6.47649">
        <ele>1274</ele>
        <time>2019-05-04T12:14:35Z</time>
      </trkpt>
      <trkpt lat="46.78764" lon="6.47676">
        <ele>1275</ele>
        <time>2019-05-04T12:14:48Z</time>
      </trkpt>
      <trkpt lat="46.78761" lon="6.47702">
        <ele>1275</ele>
        <time>2019-05-04T12:15:02Z</time>
      </trkpt>
      <trkpt lat="46.78761" lon="6.47715">
        <ele>1275</ele>
        <time>2019-05-04T12:15:08Z</time>
      </trkpt>
      <trkpt lat="46.78759" lon="6.47742">
        <ele>1276</ele>
        <time>2019-05-04T12:15:22Z</time>
      </trkpt>
      <trkpt lat="46.78756" lon="6.47769">
        <ele>1277</ele>
        <time>2019-05-04T12:15:35Z</time>
      </trkpt>
      <trkpt lat="46.78753" lon="6.47797">
        <ele>1278</ele>
        <time>2019-05-04T12:15:49Z</time>
      </trkpt>
      <trkpt lat="46.78749" lon="6.47824">
        <ele>1279</ele>
        <time>2019-05-04T12:16:03Z</time>
      </trkpt>
      <trkpt lat="46.78747" lon="6.47852">
        <ele>1280</ele>
        <time>2019-05-04T12:16:17Z</time>
      </trkpt>
      <trkpt lat="46.78744" lon="6.4788">
        <ele>1281</ele>
        <time>2019-05-04T12:16:31Z</time>
      </trkpt>
      <trkpt lat="46.78735" lon="6.47902">
        <ele>1281</ele>
        <time>2019-05-04T12:16:44Z</time>
      </trkpt>
      <trkpt lat="46.78717" lon="6.47908">
        <ele>1282</ele>
        <time>2019-05-04T12:16:57Z</time>
      </trkpt>
      <trkpt lat="46.78705" lon="6.47893">
        <ele>1281</ele>
        <time>2019-05-04T12:17:08Z</time>
      </trkpt>
      <trkpt lat="46.78699" lon="6.47867">
        <ele>1280</ele>
        <time>2019-05-04T12:17:22Z</time>
      </trkpt>
      <trkpt lat="46.78697" lon="6.47852">
        <ele>1280</ele>
        <time>2019-05-04T12:17:30Z</time>
      </trkpt>
      <trkpt lat="46.78696" lon="6.4784">
        <ele>1279</ele>
        <time>2019-05-04T12:17:35Z</time>
      </trkpt>
      <trkpt lat="46.78695" lon="6.47814">
        <ele>1278</ele>
        <time>2019-05-04T12:17:49Z</time>
      </trkpt>
      <trkpt lat="46.78694" lon="6.47803">
        <ele>1278</ele>
        <time>2019-05-04T12:17:54Z</time>
      </trkpt>
      <trkpt lat="46.78691" lon="6.47775">
        <ele>1277</ele>
        <time>2019-05-04T12:18:08Z</time>
      </trkpt>
      <trkpt lat="46.78689" lon="6.47758">
        <ele>1276</ele>
        <time>2019-05-04T12:18:16Z</time>
      </trkpt>
      <trkpt lat="46.78687" lon="6.47732">
        <ele>1275</ele>
        <time>2019-05-04T12:18:29Z</time>
      </trkpt>
      <trkpt lat="46.78683" lon="6.47703">
        <ele>1273</ele>
        <time>2019-05-04T12:18:44Z</time>
      </trkpt>
      <trkpt lat="46.78682" lon="6.47696">
        <ele>1273</ele>
        <time>2019-05-04T12:18:48Z</time>
      </trkpt>
      <trkpt lat="46.7868" lon="6.47693">
        <ele>1273</ele>
        <time>2019-05-04T12:18:50Z</time>
      </trkpt>
      <trkpt lat="46.78667" lon="6.47689">
        <ele>1275</ele>
        <time>2019-05-04T12:18:59Z</time>
      </trkpt>
      <trkpt lat="46.78662" lon="6.47692">
        <ele>1277</ele>
        <time>2019-05-04T12:19:03Z</time>
      </trkpt>
      <trkpt lat="46.78657" lon="6.47694">
        <ele>1278</ele>
        <time>2019-05-04T12:19:08Z</time>
      </trkpt>
      <trkpt lat="46.78651" lon="6.47695">
        <ele>1279</ele>
        <time>2019-05-04T12:19:12Z</time>
      </trkpt>
      <trkpt lat="46.78645" lon="6.47695">
        <ele>1280</ele>
        <time>2019-05-04T12:19:16Z</time>
      </trkpt>
      <trkpt lat="46.78641" lon="6.47695">
        <ele>1281</ele>
        <time>2019-05-04T12:19:19Z</time>
      </trkpt>
      <trkpt lat="46.78638" lon="6.47695">
        <ele>1281</ele>
        <time>2019-05-04T12:19:22Z</time>
      </trkpt>
      <trkpt lat="46.78632" lon="6.47696">
        <ele>1282</ele>
        <time>2019-05-04T12:19:26Z</time>
      </trkpt>
      <trkpt lat="46.78628" lon="6.47698">
        <ele>1283</ele>
        <time>2019-05-04T12:19:29Z</time>
      </trkpt>
      <trkpt lat="46.78624" lon="6.47698">
        <ele>1284</ele>
        <time>2019-05-04T12:19:32Z</time>
      </trkpt>
      <trkpt lat="46.78617" lon="6.47699">
        <ele>1285</ele>
        <time>2019-05-04T12:19:37Z</time>
      </trkpt>
      <trkpt lat="46.78614" lon="6.47699">
        <ele>1286</ele>
        <time>2019-05-04T12:19:39Z</time>
      </trkpt>
      <trkpt lat="46.7861" lon="6.47698">
        <ele>1286</ele>
        <time>2019-05-04T12:19:42Z</time>
      </trkpt>
      <trkpt lat="46.78607" lon="6.47699">
        <ele>1287</ele>
        <time>2019-05-04T12:19:44Z</time>
      </trkpt>
      <trkpt lat="46.78604" lon="6.47699">
        <ele>1287</ele>
        <time>2019-05-04T12:19:47Z</time>
      </trkpt>
      <trkpt lat="46.78601" lon="6.47699">
        <ele>1288</ele>
        <time>2019-05-04T12:19:49Z</time>
      </trkpt>
      <trkpt lat="46.78595" lon="6.47697">
        <ele>1289</ele>
        <time>2019-05-04T12:19:53Z</time>
      </trkpt>
      <trkpt lat="46.78591" lon="6.47698">
        <ele>1289</ele>
        <time>2019-05-04T12:19:57Z</time>
      </trkpt>
      <trkpt lat="46.78585" lon="6.47699">
        <ele>1290</ele>
        <time>2019-05-04T12:20:01Z</time>
      </trkpt>
      <trkpt lat="46.78577" lon="6.47697">
        <ele>1291</ele>
        <time>2019-05-04T12:20:06Z</time>
      </trkpt>
      <trkpt lat="46.78572" lon="6.47695">
        <ele>1292</ele>
        <time>2019-05-04T12:20:10Z</time>
      </trkpt>
      <trkpt lat="46.78561" lon="6.47686">
        <ele>1294</ele>
        <time>2019-05-04T12:20:20Z</time>
      </trkpt>
      <trkpt lat="46.78556" lon="6.47684">
        <ele>1294</ele>
        <time>2019-05-04T12:20:24Z</time>
      </trkpt>
      <trkpt lat="46.78548" lon="6.47686">
        <ele>1295</ele>
        <time>2019-05-04T12:20:29Z</time>
      </trkpt>
      <trkpt lat="46.78542" lon="6.4769">
        <ele>1296</ele>
        <time>2019-05-04T12:20:34Z</time>
      </trkpt>
      <trkpt lat="46.78529" lon="6.4769">
        <ele>1298</ele>
        <time>2019-05-04T12:20:43Z</time>
      </trkpt>
      <trkpt lat="46.78522" lon="6.47686">
        <ele>1297</ele>
        <time>2019-05-04T12:20:49Z</time>
      </trkpt>
      <trkpt lat="46.78517" lon="6.47683">
        <ele>1297</ele>
        <time>2019-05-04T12:20:53Z</time>
      </trkpt>
      <trkpt lat="46.7851" lon="6.47678">
        <ele>1296</ele>
        <time>2019-05-04T12:20:59Z</time>
      </trkpt>
      <trkpt lat="46.78507" lon="6.47676">
        <ele>1296</ele>
        <time>2019-05-04T12:21:01Z</time>
      </trkpt>
      <trkpt lat="46.785" lon="6.47667">
        <ele>1296</ele>
        <time>2019-05-04T12:21:08Z</time>
      </trkpt>
      <trkpt lat="46.78499" lon="6.47665">
        <ele>1296</ele>
        <time>2019-05-04T12:21:09Z</time>
      </trkpt>
      <trkpt lat="46.78498" lon="6.47663">
        <ele>1296</ele>
        <time>2019-05-04T12:21:10Z</time>
      </trkpt>
      <trkpt lat="46.78487" lon="6.47639">
        <ele>1298</ele>
        <time>2019-05-04T12:21:25Z</time>
      </trkpt>
      <trkpt lat="46.78482" lon="6.47631">
        <ele>1299</ele>
        <time>2019-05-04T12:21:30Z</time>
      </trkpt>
      <trkpt lat="46.78467" lon="6.47612">
        <ele>1302</ele>
        <time>2019-05-04T12:21:44Z</time>
      </trkpt>
      <trkpt lat="46.78451" lon="6.47601">
        <ele>1304</ele>
        <time>2019-05-04T12:21:58Z</time>
      </trkpt>
      <trkpt lat="46.78439" lon="6.47593">
        <ele>1304</ele>
        <time>2019-05-04T12:22:07Z</time>
      </trkpt>
      <trkpt lat="46.78429" lon="6.47581">
        <ele>1304</ele>
        <time>2019-05-04T12:22:16Z</time>
      </trkpt>
      <trkpt lat="46.78428" lon="6.47579">
        <ele>1304</ele>
        <time>2019-05-04T12:22:17Z</time>
      </trkpt>
      <trkpt lat="46.78423" lon="6.47578">
        <ele>1303</ele>
        <time>2019-05-04T12:22:21Z</time>
      </trkpt>
      <trkpt lat="46.78424" lon="6.4758">
        <ele>1303</ele>
        <time>2019-05-04T12:22:22Z</time>
      </trkpt>
      <trkpt lat="46.78426" lon="6.47583">
        <ele>1303</ele>
        <time>2019-05-04T12:22:24Z</time>
      </trkpt>
      <trkpt lat="46.78431" lon="6.47587">
        <ele>1303</ele>
        <time>2019-05-04T12:22:28Z</time>
      </trkpt>
      <trkpt lat="46.78439" lon="6.47594">
        <ele>1304</ele>
        <time>2019-05-04T12:22:35Z</time>
      </trkpt>
      <trkpt lat="46.78445" lon="6.47594">
        <ele>1305</ele>
        <time>2019-05-04T12:22:39Z</time>
      </trkpt>
      <trkpt lat="46.78451" lon="6.47595">
        <ele>1305</ele>
        <time>2019-05-04T12:22:44Z</time>
      </trkpt>
      <trkpt lat="46.78453" lon="6.47594">
        <ele>1306</ele>
        <time>2019-05-04T12:22:45Z</time>
      </trkpt>
      <trkpt lat="46.78464" lon="6.47584">
        <ele>1307</ele>
        <time>2019-05-04T12:22:55Z</time>
      </trkpt>
      <trkpt lat="46.78474" lon="6.47562">
        <ele>1309</ele>
        <time>2019-05-04T12:23:08Z</time>
      </trkpt>
      <trkpt lat="46.78476" lon="6.47538">
        <ele>1312</ele>
        <time>2019-05-04T12:23:20Z</time>
      </trkpt>
      <trkpt lat="46.78476" lon="6.4753">
        <ele>1314</ele>
        <time>2019-05-04T12:23:25Z</time>
      </trkpt>
      <trkpt lat="46.78475" lon="6.47525">
        <ele>1315</ele>
        <time>2019-05-04T12:23:27Z</time>
      </trkpt>
      <trkpt lat="46.78474" lon="6.47523">
        <ele>1315</ele>
        <time>2019-05-04T12:23:28Z</time>
      </trkpt>
      <trkpt lat="46.78473" lon="6.47512">
        <ele>1315</ele>
        <time>2019-05-04T12:23:34Z</time>
      </trkpt>
      <trkpt lat="46.78472" lon="6.47508">
        <ele>1316</ele>
        <time>2019-05-04T12:23:36Z</time>
      </trkpt>
      <trkpt lat="46.78472" lon="6.47506">
        <ele>1316</ele>
        <time>2019-05-04T12:23:37Z</time>
      </trkpt>
      <trkpt lat="46.78469" lon="6.47496">
        <ele>1317</ele>
        <time>2019-05-04T12:23:42Z</time>
      </trkpt>
      <trkpt lat="46.78466" lon="6.47486">
        <ele>1318</ele>
        <time>2019-05-04T12:23:48Z</time>
      </trkpt>
      <trkpt lat="46.78463" lon="6.47481">
        <ele>1319</ele>
        <time>2019-05-04T12:23:52Z</time>
      </trkpt>
      <trkpt lat="46.78458" lon="6.47473">
        <ele>1321</ele>
        <time>2019-05-04T12:23:57Z</time>
      </trkpt>
      <trkpt lat="46.78452" lon="6.47463">
        <ele>1323</ele>
        <time>2019-05-04T12:24:04Z</time>
      </trkpt>
      <trkpt lat="46.78448" lon="6.47455">
        <ele>1325</ele>
        <time>2019-05-04T12:24:08Z</time>
      </trkpt>
      <trkpt lat="46.78443" lon="6.47445">
        <ele>1326</ele>
        <time>2019-05-04T12:24:15Z</time>
      </trkpt>
      <trkpt lat="46.7844" lon="6.47436">
        <ele>1325</ele>
        <time>2019-05-04T12:24:20Z</time>
      </trkpt>
      <trkpt lat="46.78433" lon="6.47424">
        <ele>1325</ele>
        <time>2019-05-04T12:24:27Z</time>
      </trkpt>
      <trkpt lat="46.78432" lon="6.47422">
        <ele>1325</ele>
        <time>2019-05-04T12:24:29Z</time>
      </trkpt>
      <trkpt lat="46.78426" lon="6.47413">
        <ele>1325</ele>
        <time>2019-05-04T12:24:35Z</time>
      </trkpt>
      <trkpt lat="46.78422" lon="6.47409">
        <ele>1325</ele>
        <time>2019-05-04T12:24:38Z</time>
      </trkpt>
      <trkpt lat="46.78419" lon="6.47406">
        <ele>1325</ele>
        <time>2019-05-04T12:24:42Z</time>
      </trkpt>
      <trkpt lat="46.78415" lon="6.47403">
        <ele>1325</ele>
        <time>2019-05-04T12:24:44Z</time>
      </trkpt>
      <trkpt lat="46.78409" lon="6.47393">
        <ele>1326</ele>
        <time>2019-05-04T12:24:51Z</time>
      </trkpt>
      <trkpt lat="46.78399" lon="6.47379">
        <ele>1327</ele>
        <time>2019-05-04T12:25:01Z</time>
      </trkpt>
      <trkpt lat="46.78394" lon="6.47374">
        <ele>1327</ele>
        <time>2019-05-04T12:25:05Z</time>
      </trkpt>
      <trkpt lat="46.78386" lon="6.47369">
        <ele>1329</ele>
        <time>2019-05-04T12:25:12Z</time>
      </trkpt>
      <trkpt lat="46.78375" lon="6.47353">
        <ele>1331</ele>
        <time>2019-05-04T12:25:23Z</time>
      </trkpt>
      <trkpt lat="46.7837" lon="6.47345">
        <ele>1331</ele>
        <time>2019-05-04T12:25:29Z</time>
      </trkpt>
      <trkpt lat="46.78364" lon="6.47334">
        <ele>1332</ele>
        <time>2019-05-04T12:25:36Z</time>
      </trkpt>
      <trkpt lat="46.78358" lon="6.47327">
        <ele>1332</ele>
        <time>2019-05-04T12:25:41Z</time>
      </trkpt>
      <trkpt lat="46.78355" lon="6.47321">
        <ele>1332</ele>
        <time>2019-05-04T12:25:45Z</time>
      </trkpt>
      <trkpt lat="46.78349" lon="6.47313">
        <ele>1332</ele>
        <time>2019-05-04T12:25:51Z</time>
      </trkpt>
      <trkpt lat="46.78345" lon="6.47307">
        <ele>1333</ele>
        <time>2019-05-04T12:25:55Z</time>
      </trkpt>
      <trkpt lat="46.7834" lon="6.47299">
        <ele>1333</ele>
        <time>2019-05-04T12:26:00Z</time>
      </trkpt>
      <trkpt lat="46.78332" lon="6.4729">
        <ele>1334</ele>
        <time>2019-05-04T12:26:07Z</time>
      </trkpt>
      <trkpt lat="46.78325" lon="6.4728">
        <ele>1335</ele>
        <time>2019-05-04T12:26:14Z</time>
      </trkpt>
      <trkpt lat="46.78321" lon="6.47274">
        <ele>1336</ele>
        <time>2019-05-04T12:26:19Z</time>
      </trkpt>
      <trkpt lat="46.78315" lon="6.47265">
        <ele>1337</ele>
        <time>2019-05-04T12:26:25Z</time>
      </trkpt>
      <trkpt lat="46.78313" lon="6.47262">
        <ele>1338</ele>
        <time>2019-05-04T12:26:27Z</time>
      </trkpt>
      <trkpt lat="46.78311" lon="6.47258">
        <ele>1338</ele>
        <time>2019-05-04T12:26:30Z</time>
      </trkpt>
      <trkpt lat="46.78305" lon="6.47249">
        <ele>1340</ele>
        <time>2019-05-04T12:26:36Z</time>
      </trkpt>
      <trkpt lat="46.78302" lon="6.4724">
        <ele>1342</ele>
        <time>2019-05-04T12:26:41Z</time>
      </trkpt>
      <trkpt lat="46.78299" lon="6.47234">
        <ele>1343</ele>
        <time>2019-05-04T12:26:45Z</time>
      </trkpt>
      <trkpt lat="46.78298" lon="6.4723">
        <ele>1343</ele>
        <time>2019-05-04T12:26:47Z</time>
      </trkpt>
      <trkpt lat="46.78297" lon="6.47223">
        <ele>1345</ele>
        <time>2019-05-04T12:26:51Z</time>
      </trkpt>
      <trkpt lat="46.78293" lon="6.47211">
        <ele>1347</ele>
        <time>2019-05-04T12:26:57Z</time>
      </trkpt>
      <trkpt lat="46.78292" lon="6.47207">
        <ele>1348</ele>
        <time>2019-05-04T12:27:00Z</time>
      </trkpt>
      <trkpt lat="46.78286" lon="6.47199">
        <ele>1351</ele>
        <time>2019-05-04T12:27:06Z</time>
      </trkpt>
      <trkpt lat="46.78284" lon="6.47195">
        <ele>1352</ele>
        <time>2019-05-04T12:27:08Z</time>
      </trkpt>
      <trkpt lat="46.78281" lon="6.47189">
        <ele>1353</ele>
        <time>2019-05-04T12:27:12Z</time>
      </trkpt>
      <trkpt lat="46.78269" lon="6.47171">
        <ele>1354</ele>
        <time>2019-05-04T12:27:25Z</time>
      </trkpt>
      <trkpt lat="46.78266" lon="6.47166">
        <ele>1354</ele>
        <time>2019-05-04T12:27:28Z</time>
      </trkpt>
      <trkpt lat="46.78262" lon="6.47161">
        <ele>1354</ele>
        <time>2019-05-04T12:27:32Z</time>
      </trkpt>
      <trkpt lat="46.78255" lon="6.47153">
        <ele>1354</ele>
        <time>2019-05-04T12:27:38Z</time>
      </trkpt>
      <trkpt lat="46.7825" lon="6.47147">
        <ele>1355</ele>
        <time>2019-05-04T12:27:43Z</time>
      </trkpt>
      <trkpt lat="46.78245" lon="6.47144">
        <ele>1355</ele>
        <time>2019-05-04T12:27:47Z</time>
      </trkpt>
      <trkpt lat="46.78241" lon="6.47142">
        <ele>1355</ele>
        <time>2019-05-04T12:27:49Z</time>
      </trkpt>
      <trkpt lat="46.78238" lon="6.47139">
        <ele>1355</ele>
        <time>2019-05-04T12:27:52Z</time>
      </trkpt>
      <trkpt lat="46.78228" lon="6.47135">
        <ele>1355</ele>
        <time>2019-05-04T12:28:00Z</time>
      </trkpt>
      <trkpt lat="46.7822" lon="6.47132">
        <ele>1355</ele>
        <time>2019-05-04T12:28:06Z</time>
      </trkpt>
      <trkpt lat="46.78202" lon="6.47123">
        <ele>1355</ele>
        <time>2019-05-04T12:28:20Z</time>
      </trkpt>
      <trkpt lat="46.78197" lon="6.47121">
        <ele>1355</ele>
        <time>2019-05-04T12:28:23Z</time>
      </trkpt>
      <trkpt lat="46.78184" lon="6.47112">
        <ele>1355</ele>
        <time>2019-05-04T12:28:33Z</time>
      </trkpt>
      <trkpt lat="46.78174" lon="6.47106">
        <ele>1355</ele>
        <time>2019-05-04T12:28:41Z</time>
      </trkpt>
      <trkpt lat="46.78156" lon="6.47096">
        <ele>1355</ele>
        <time>2019-05-04T12:28:55Z</time>
      </trkpt>
      <trkpt lat="46.78141" lon="6.47079">
        <ele>1357</ele>
        <time>2019-05-04T12:29:09Z</time>
      </trkpt>
      <trkpt lat="46.7813" lon="6.47066">
        <ele>1358</ele>
        <time>2019-05-04T12:29:19Z</time>
      </trkpt>
      <trkpt lat="46.78126" lon="6.47059">
        <ele>1359</ele>
        <time>2019-05-04T12:29:24Z</time>
      </trkpt>
      <trkpt lat="46.78118" lon="6.4705">
        <ele>1359</ele>
        <time>2019-05-04T12:29:31Z</time>
      </trkpt>
      <trkpt lat="46.78104" lon="6.47032">
        <ele>1360</ele>
        <time>2019-05-04T12:29:44Z</time>
      </trkpt>
      <trkpt lat="46.78091" lon="6.47015">
        <ele>1360</ele>
        <time>2019-05-04T12:29:57Z</time>
      </trkpt>
      <trkpt lat="46.78078" lon="6.46997">
        <ele>1360</ele>
        <time>2019-05-04T12:30:10Z</time>
      </trkpt>
      <trkpt lat="46.78062" lon="6.46982">
        <ele>1358</ele>
        <time>2019-05-04T12:30:24Z</time>
      </trkpt>
      <trkpt lat="46.78057" lon="6.46978">
        <ele>1357</ele>
        <time>2019-05-04T12:30:28Z</time>
      </trkpt>
      <trkpt lat="46.78043" lon="6.46965">
        <ele>1355</ele>
        <time>2019-05-04T12:30:40Z</time>
      </trkpt>
      <trkpt lat="46.78039" lon="6.46961">
        <ele>1354</ele>
        <time>2019-05-04T12:30:44Z</time>
      </trkpt>
      <trkpt lat="46.78022" lon="6.46944">
        <ele>1353</ele>
        <time>2019-05-04T12:30:59Z</time>
      </trkpt>
      <trkpt lat="46.78013" lon="6.4694">
        <ele>1353</ele>
        <time>2019-05-04T12:31:06Z</time>
      </trkpt>
      <trkpt lat="46.78008" lon="6.46941">
        <ele>1353</ele>
        <time>2019-05-04T12:31:09Z</time>
      </trkpt>
      <trkpt lat="46.78006" lon="6.46942">
        <ele>1353</ele>
        <time>2019-05-04T12:31:11Z</time>
      </trkpt>
      <trkpt lat="46.78003" lon="6.46945">
        <ele>1352</ele>
        <time>2019-05-04T12:31:13Z</time>
      </trkpt>
      <trkpt lat="46.7799" lon="6.46957">
        <ele>1351</ele>
        <time>2019-05-04T12:31:24Z</time>
      </trkpt>
      <trkpt lat="46.77971" lon="6.46954">
        <ele>1350</ele>
        <time>2019-05-04T12:31:38Z</time>
      </trkpt>
      <trkpt lat="46.77964" lon="6.46949">
        <ele>1350</ele>
        <time>2019-05-04T12:31:44Z</time>
      </trkpt>
      <trkpt lat="46.77947" lon="6.46932">
        <ele>1349</ele>
        <time>2019-05-04T12:31:59Z</time>
      </trkpt>
      <trkpt lat="46.77933" lon="6.46919">
        <ele>1350</ele>
        <time>2019-05-04T12:32:11Z</time>
      </trkpt>
      <trkpt lat="46.77917" lon="6.46905">
        <ele>1351</ele>
        <time>2019-05-04T12:32:24Z</time>
      </trkpt>
      <trkpt lat="46.77908" lon="6.46899">
        <ele>1351</ele>
        <time>2019-05-04T12:32:31Z</time>
      </trkpt>
      <trkpt lat="46.779" lon="6.4689">
        <ele>1352</ele>
        <time>2019-05-04T12:32:39Z</time>
      </trkpt>
      <trkpt lat="46.77892" lon="6.4688">
        <ele>1352</ele>
        <time>2019-05-04T12:32:47Z</time>
      </trkpt>
      <trkpt lat="46.77888" lon="6.46874">
        <ele>1352</ele>
        <time>2019-05-04T12:32:51Z</time>
      </trkpt>
      <trkpt lat="46.77876" lon="6.46852">
        <ele>1351</ele>
        <time>2019-05-04T12:33:05Z</time>
      </trkpt>
      <trkpt lat="46.77864" lon="6.46831">
        <ele>1349</ele>
        <time>2019-05-04T12:33:18Z</time>
      </trkpt>
      <trkpt lat="46.77852" lon="6.46808">
        <ele>1349</ele>
        <time>2019-05-04T12:33:33Z</time>
      </trkpt>
      <trkpt lat="46.77848" lon="6.46801">
        <ele>1348</ele>
        <time>2019-05-04T12:33:37Z</time>
      </trkpt>
      <trkpt lat="46.77845" lon="6.46795">
        <ele>1348</ele>
        <time>2019-05-04T12:33:41Z</time>
      </trkpt>
      <trkpt lat="46.77842" lon="6.4679">
        <ele>1348</ele>
        <time>2019-05-04T12:33:44Z</time>
      </trkpt>
      <trkpt lat="46.77831" lon="6.4677">
        <ele>1347</ele>
        <time>2019-05-04T12:33:57Z</time>
      </trkpt>
      <trkpt lat="46.77829" lon="6.46767">
        <ele>1347</ele>
        <time>2019-05-04T12:33:59Z</time>
      </trkpt>
      <trkpt lat="46.77817" lon="6.46742">
        <ele>1346</ele>
        <time>2019-05-04T12:34:14Z</time>
      </trkpt>
      <trkpt lat="46.77812" lon="6.46732">
        <ele>1345</ele>
        <time>2019-05-04T12:34:20Z</time>
      </trkpt>
      <trkpt lat="46.77809" lon="6.46727">
        <ele>1345</ele>
        <time>2019-05-04T12:34:23Z</time>
      </trkpt>
      <trkpt lat="46.77807" lon="6.46723">
        <ele>1345</ele>
        <time>2019-05-04T12:34:26Z</time>
      </trkpt>
      <trkpt lat="46.77807" lon="6.46721">
        <ele>1345</ele>
        <time>2019-05-04T12:34:27Z</time>
      </trkpt>
      <trkpt lat="46.778" lon="6.46725">
        <ele>1346</ele>
        <time>2019-05-04T12:34:32Z</time>
      </trkpt>
      <trkpt lat="46.77799" lon="6.46727">
        <ele>1346</ele>
        <time>2019-05-04T12:34:33Z</time>
      </trkpt>
      <trkpt lat="46.77797" lon="6.46729">
        <ele>1347</ele>
        <time>2019-05-04T12:34:35Z</time>
      </trkpt>
      <trkpt lat="46.77796" lon="6.46731">
        <ele>1347</ele>
        <time>2019-05-04T12:34:36Z</time>
      </trkpt>
      <trkpt lat="46.77794" lon="6.46735">
        <ele>1348</ele>
        <time>2019-05-04T12:34:39Z</time>
      </trkpt>
      <trkpt lat="46.77794" lon="6.46736">
        <ele>1348</ele>
        <time>2019-05-04T12:34:39Z</time>
      </trkpt>
      <trkpt lat="46.77791" lon="6.4674">
        <ele>1349</ele>
        <time>2019-05-04T12:34:42Z</time>
      </trkpt>
      <trkpt lat="46.77788" lon="6.46745">
        <ele>1350</ele>
        <time>2019-05-04T12:34:46Z</time>
      </trkpt>
      <trkpt lat="46.77784" lon="6.46752">
        <ele>1352</ele>
        <time>2019-05-04T12:34:50Z</time>
      </trkpt>
      <trkpt lat="46.77782" lon="6.46756">
        <ele>1352</ele>
        <time>2019-05-04T12:34:53Z</time>
      </trkpt>
      <trkpt lat="46.77781" lon="6.46759">
        <ele>1353</ele>
        <time>2019-05-04T12:34:54Z</time>
      </trkpt>
      <trkpt lat="46.77781" lon="6.4676">
        <ele>1353</ele>
        <time>2019-05-04T12:34:55Z</time>
      </trkpt>
      <trkpt lat="46.7778" lon="6.46763">
        <ele>1354</ele>
        <time>2019-05-04T12:34:57Z</time>
      </trkpt>
      <trkpt lat="46.77777" lon="6.46766">
        <ele>1355</ele>
        <time>2019-05-04T12:35:00Z</time>
      </trkpt>
      <trkpt lat="46.77776" lon="6.46768">
        <ele>1355</ele>
        <time>2019-05-04T12:35:01Z</time>
      </trkpt>
      <trkpt lat="46.77774" lon="6.4677">
        <ele>1356</ele>
        <time>2019-05-04T12:35:02Z</time>
      </trkpt>
      <trkpt lat="46.77773" lon="6.46773">
        <ele>1357</ele>
        <time>2019-05-04T12:35:04Z</time>
      </trkpt>
      <trkpt lat="46.77772" lon="6.46775">
        <ele>1358</ele>
        <time>2019-05-04T12:35:06Z</time>
      </trkpt>
      <trkpt lat="46.77772" lon="6.46776">
        <ele>1358</ele>
        <time>2019-05-04T12:35:06Z</time>
      </trkpt>
      <trkpt lat="46.77771" lon="6.46778">
        <ele>1358</ele>
        <time>2019-05-04T12:35:07Z</time>
      </trkpt>
      <trkpt lat="46.77769" lon="6.46778">
        <ele>1359</ele>
        <time>2019-05-04T12:35:09Z</time>
      </trkpt>
      <trkpt lat="46.77767" lon="6.46775">
        <ele>1359</ele>
        <time>2019-05-04T12:35:11Z</time>
      </trkpt>
      <trkpt lat="46.77763" lon="6.46772">
        <ele>1360</ele>
        <time>2019-05-04T12:35:14Z</time>
      </trkpt>
      <trkpt lat="46.77758" lon="6.46769">
        <ele>1361</ele>
        <time>2019-05-04T12:35:18Z</time>
      </trkpt>
      <trkpt lat="46.77742" lon="6.46755">
        <ele>1364</ele>
        <time>2019-05-04T12:35:32Z</time>
      </trkpt>
      <trkpt lat="46.77732" lon="6.46746">
        <ele>1366</ele>
        <time>2019-05-04T12:35:40Z</time>
      </trkpt>
      <trkpt lat="46.77716" lon="6.46731">
        <ele>1369</ele>
        <time>2019-05-04T12:35:54Z</time>
      </trkpt>
      <trkpt lat="46.77713" lon="6.46726">
        <ele>1369</ele>
        <time>2019-05-04T12:35:57Z</time>
      </trkpt>
      <trkpt lat="46.777" lon="6.46714">
        <ele>1371</ele>
        <time>2019-05-04T12:36:08Z</time>
      </trkpt>
      <trkpt lat="46.77695" lon="6.46708">
        <ele>1371</ele>
        <time>2019-05-04T12:36:13Z</time>
      </trkpt>
      <trkpt lat="46.77689" lon="6.467">
        <ele>1372</ele>
        <time>2019-05-04T12:36:19Z</time>
      </trkpt>
      <trkpt lat="46.77676" lon="6.46682">
        <ele>1374</ele>
        <time>2019-05-04T12:36:32Z</time>
      </trkpt>
      <trkpt lat="46.77672" lon="6.46676">
        <ele>1374</ele>
        <time>2019-05-04T12:36:36Z</time>
      </trkpt>
      <trkpt lat="46.77665" lon="6.46665">
        <ele>1374</ele>
        <time>2019-05-04T12:36:44Z</time>
      </trkpt>
      <trkpt lat="46.77659" lon="6.46657">
        <ele>1375</ele>
        <time>2019-05-04T12:36:50Z</time>
      </trkpt>
      <trkpt lat="46.77654" lon="6.46649">
        <ele>1375</ele>
        <time>2019-05-04T12:36:55Z</time>
      </trkpt>
      <trkpt lat="46.77641" lon="6.4663">
        <ele>1376</ele>
        <time>2019-05-04T12:37:08Z</time>
      </trkpt>
      <trkpt lat="46.77639" lon="6.46627">
        <ele>1376</ele>
        <time>2019-05-04T12:37:10Z</time>
      </trkpt>
      <trkpt lat="46.77627" lon="6.46607">
        <ele>1377</ele>
        <time>2019-05-04T12:37:24Z</time>
      </trkpt>
      <trkpt lat="46.77625" lon="6.46604">
        <ele>1377</ele>
        <time>2019-05-04T12:37:26Z</time>
      </trkpt>
      <trkpt lat="46.77617" lon="6.46594">
        <ele>1378</ele>
        <time>2019-05-04T12:37:33Z</time>
      </trkpt>
      <trkpt lat="46.77604" lon="6.46576">
        <ele>1380</ele>
        <time>2019-05-04T12:37:47Z</time>
      </trkpt>
      <trkpt lat="46.77602" lon="6.46573">
        <ele>1380</ele>
        <time>2019-05-04T12:37:48Z</time>
      </trkpt>
      <trkpt lat="46.776" lon="6.46564">
        <ele>1380</ele>
        <time>2019-05-04T12:37:53Z</time>
      </trkpt>
      <trkpt lat="46.77589" lon="6.46541">
        <ele>1380</ele>
        <time>2019-05-04T12:38:07Z</time>
      </trkpt>
      <trkpt lat="46.77587" lon="6.46535">
        <ele>1380</ele>
        <time>2019-05-04T12:38:10Z</time>
      </trkpt>
      <trkpt lat="46.77583" lon="6.46528">
        <ele>1381</ele>
        <time>2019-05-04T12:38:14Z</time>
      </trkpt>
      <trkpt lat="46.7757" lon="6.46508">
        <ele>1383</ele>
        <time>2019-05-04T12:38:28Z</time>
      </trkpt>
      <trkpt lat="46.77559" lon="6.46493">
        <ele>1385</ele>
        <time>2019-05-04T12:38:39Z</time>
      </trkpt>
      <trkpt lat="46.7755" lon="6.46485">
        <ele>1387</ele>
        <time>2019-05-04T12:38:47Z</time>
      </trkpt>
      <trkpt lat="46.77534" lon="6.4647">
        <ele>1391</ele>
        <time>2019-05-04T12:39:01Z</time>
      </trkpt>
      <trkpt lat="46.77523" lon="6.46457">
        <ele>1392</ele>
        <time>2019-05-04T12:39:11Z</time>
      </trkpt>
      <trkpt lat="46.77516" lon="6.46446">
        <ele>1392</ele>
        <time>2019-05-04T12:39:19Z</time>
      </trkpt>
      <trkpt lat="46.77511" lon="6.46436">
        <ele>1392</ele>
        <time>2019-05-04T12:39:25Z</time>
      </trkpt>
      <trkpt lat="46.77504" lon="6.46423">
        <ele>1392</ele>
        <time>2019-05-04T12:39:33Z</time>
      </trkpt>
      <trkpt lat="46.77494" lon="6.464">
        <ele>1391</ele>
        <time>2019-05-04T12:39:46Z</time>
      </trkpt>
      <trkpt lat="46.77492" lon="6.46393">
        <ele>1391</ele>
        <time>2019-05-04T12:39:50Z</time>
      </trkpt>
      <trkpt lat="46.77484" lon="6.46367">
        <ele>1388</ele>
        <time>2019-05-04T12:40:04Z</time>
      </trkpt>
      <trkpt lat="46.77468" lon="6.4635">
        <ele>1389</ele>
        <time>2019-05-04T12:40:19Z</time>
      </trkpt>
      <trkpt lat="46.77465" lon="6.46345">
        <ele>1389</ele>
        <time>2019-05-04T12:40:22Z</time>
      </trkpt>
      <trkpt lat="46.77449" lon="6.4633">
        <ele>1391</ele>
        <time>2019-05-04T12:40:36Z</time>
      </trkpt>
      <trkpt lat="46.77446" lon="6.46327">
        <ele>1391</ele>
        <time>2019-05-04T12:40:38Z</time>
      </trkpt>
      <trkpt lat="46.77442" lon="6.4632">
        <ele>1392</ele>
        <time>2019-05-04T12:40:43Z</time>
      </trkpt>
      <trkpt lat="46.7744" lon="6.46318">
        <ele>1392</ele>
        <time>2019-05-04T12:40:45Z</time>
      </trkpt>
      <trkpt lat="46.77435" lon="6.4631">
        <ele>1393</ele>
        <time>2019-05-04T12:40:50Z</time>
      </trkpt>
      <trkpt lat="46.77431" lon="6.46306">
        <ele>1394</ele>
        <time>2019-05-04T12:40:54Z</time>
      </trkpt>
      <trkpt lat="46.77417" lon="6.46291">
        <ele>1397</ele>
        <time>2019-05-04T12:41:07Z</time>
      </trkpt>
      <trkpt lat="46.77415" lon="6.4629">
        <ele>1398</ele>
        <time>2019-05-04T12:41:08Z</time>
      </trkpt>
      <trkpt lat="46.77408" lon="6.46287">
        <ele>1401</ele>
        <time>2019-05-04T12:41:14Z</time>
      </trkpt>
      <trkpt lat="46.77404" lon="6.46284">
        <ele>1402</ele>
        <time>2019-05-04T12:41:17Z</time>
      </trkpt>
      <trkpt lat="46.77402" lon="6.46284">
        <ele>1403</ele>
        <time>2019-05-04T12:41:19Z</time>
      </trkpt>
      <trkpt lat="46.77396" lon="6.46279">
        <ele>1404</ele>
        <time>2019-05-04T12:41:23Z</time>
      </trkpt>
      <trkpt lat="46.77388" lon="6.46267">
        <ele>1405</ele>
        <time>2019-05-04T12:41:32Z</time>
      </trkpt>
      <trkpt lat="46.7738" lon="6.46262">
        <ele>1407</ele>
        <time>2019-05-04T12:41:38Z</time>
      </trkpt>
      <trkpt lat="46.77375" lon="6.46258">
        <ele>1409</ele>
        <time>2019-05-04T12:41:43Z</time>
      </trkpt>
      <trkpt lat="46.77368" lon="6.46252">
        <ele>1410</ele>
        <time>2019-05-04T12:41:49Z</time>
      </trkpt>
      <trkpt lat="46.77362" lon="6.46247">
        <ele>1412</ele>
        <time>2019-05-04T12:41:54Z</time>
      </trkpt>
      <trkpt lat="46.77353" lon="6.46239">
        <ele>1412</ele>
        <time>2019-05-04T12:42:01Z</time>
      </trkpt>
      <trkpt lat="46.77349" lon="6.4623">
        <ele>1411</ele>
        <time>2019-05-04T12:42:07Z</time>
      </trkpt>
      <trkpt lat="46.77348" lon="6.4623">
        <ele>1412</ele>
        <time>2019-05-04T12:42:08Z</time>
      </trkpt>
      <trkpt lat="46.77346" lon="6.4623">
        <ele>1413</ele>
        <time>2019-05-04T12:42:09Z</time>
      </trkpt>
      <trkpt lat="46.77343" lon="6.46231">
        <ele>1414</ele>
        <time>2019-05-04T12:42:11Z</time>
      </trkpt>
      <trkpt lat="46.77342" lon="6.46231">
        <ele>1415</ele>
        <time>2019-05-04T12:42:13Z</time>
      </trkpt>
      <trkpt lat="46.7734" lon="6.46232">
        <ele>1416</ele>
        <time>2019-05-04T12:42:14Z</time>
      </trkpt>
      <trkpt lat="46.77337" lon="6.46231">
        <ele>1416</ele>
        <time>2019-05-04T12:42:16Z</time>
      </trkpt>
      <trkpt lat="46.77334" lon="6.4623">
        <ele>1417</ele>
        <time>2019-05-04T12:42:19Z</time>
      </trkpt>
      <trkpt lat="46.77332" lon="6.4623">
        <ele>1418</ele>
        <time>2019-05-04T12:42:20Z</time>
      </trkpt>
      <trkpt lat="46.77331" lon="6.4623">
        <ele>1418</ele>
        <time>2019-05-04T12:42:21Z</time>
      </trkpt>
      <trkpt lat="46.77329" lon="6.46229">
        <ele>1419</ele>
        <time>2019-05-04T12:42:22Z</time>
      </trkpt>
      <trkpt lat="46.77327" lon="6.46229">
        <ele>1420</ele>
        <time>2019-05-04T12:42:24Z</time>
      </trkpt>
      <trkpt lat="46.77323" lon="6.46227">
        <ele>1421</ele>
        <time>2019-05-04T12:42:28Z</time>
      </trkpt>
      <trkpt lat="46.77321" lon="6.46226">
        <ele>1421</ele>
        <time>2019-05-04T12:42:29Z</time>
      </trkpt>
      <trkpt lat="46.77318" lon="6.46223">
        <ele>1421</ele>
        <time>2019-05-04T12:42:31Z</time>
      </trkpt>
      <trkpt lat="46.77314" lon="6.46221">
        <ele>1422</ele>
        <time>2019-05-04T12:42:34Z</time>
      </trkpt>
      <trkpt lat="46.77312" lon="6.46219">
        <ele>1422</ele>
        <time>2019-05-04T12:42:36Z</time>
      </trkpt>
      <trkpt lat="46.77311" lon="6.46218">
        <ele>1422</ele>
        <time>2019-05-04T12:42:37Z</time>
      </trkpt>
      <trkpt lat="46.77308" lon="6.46216">
        <ele>1422</ele>
        <time>2019-05-04T12:42:40Z</time>
      </trkpt>
      <trkpt lat="46.77307" lon="6.46216">
        <ele>1422</ele>
        <time>2019-05-04T12:42:40Z</time>
      </trkpt>
      <trkpt lat="46.77304" lon="6.46215">
        <ele>1423</ele>
        <time>2019-05-04T12:42:43Z</time>
      </trkpt>
      <trkpt lat="46.77303" lon="6.46215">
        <ele>1424</ele>
        <time>2019-05-04T12:42:44Z</time>
      </trkpt>
      <trkpt lat="46.77299" lon="6.46213">
        <ele>1425</ele>
        <time>2019-05-04T12:42:47Z</time>
      </trkpt>
      <trkpt lat="46.77298" lon="6.46213">
        <ele>1425</ele>
        <time>2019-05-04T12:42:48Z</time>
      </trkpt>
      <trkpt lat="46.77295" lon="6.4621">
        <ele>1425</ele>
        <time>2019-05-04T12:42:50Z</time>
      </trkpt>
      <trkpt lat="46.77294" lon="6.4621">
        <ele>1425</ele>
        <time>2019-05-04T12:42:51Z</time>
      </trkpt>
      <trkpt lat="46.77292" lon="6.4621">
        <ele>1426</ele>
        <time>2019-05-04T12:42:53Z</time>
      </trkpt>
      <trkpt lat="46.7729" lon="6.46209">
        <ele>1427</ele>
        <time>2019-05-04T12:42:54Z</time>
      </trkpt>
      <trkpt lat="46.77281" lon="6.46202">
        <ele>1427</ele>
        <time>2019-05-04T12:43:01Z</time>
      </trkpt>
      <trkpt lat="46.7728" lon="6.462">
        <ele>1427</ele>
        <time>2019-05-04T12:43:03Z</time>
      </trkpt>
      <trkpt lat="46.77276" lon="6.46198">
        <ele>1427</ele>
        <time>2019-05-04T12:43:06Z</time>
      </trkpt>
      <trkpt lat="46.77274" lon="6.46197">
        <ele>1427</ele>
        <time>2019-05-04T12:43:07Z</time>
      </trkpt>
      <trkpt lat="46.77273" lon="6.46196">
        <ele>1427</ele>
        <time>2019-05-04T12:43:08Z</time>
      </trkpt>
      <trkpt lat="46.77272" lon="6.46193">
        <ele>1426</ele>
        <time>2019-05-04T12:43:10Z</time>
      </trkpt>
      <trkpt lat="46.77269" lon="6.46193">
        <ele>1427</ele>
        <time>2019-05-04T12:43:12Z</time>
      </trkpt>
      <trkpt lat="46.77265" lon="6.46192">
        <ele>1427</ele>
        <time>2019-05-04T12:43:15Z</time>
      </trkpt>
      <trkpt lat="46.77263" lon="6.46192">
        <ele>1428</ele>
        <time>2019-05-04T12:43:16Z</time>
      </trkpt>
      <trkpt lat="46.77262" lon="6.46192">
        <ele>1428</ele>
        <time>2019-05-04T12:43:17Z</time>
      </trkpt>
      <trkpt lat="46.77257" lon="6.46184">
        <ele>1427</ele>
        <time>2019-05-04T12:43:23Z</time>
      </trkpt>
      <trkpt lat="46.77256" lon="6.46183">
        <ele>1426</ele>
        <time>2019-05-04T12:43:24Z</time>
      </trkpt>
      <trkpt lat="46.77255" lon="6.46179">
        <ele>1426</ele>
        <time>2019-05-04T12:43:26Z</time>
      </trkpt>
      <trkpt lat="46.77253" lon="6.46176">
        <ele>1425</ele>
        <time>2019-05-04T12:43:28Z</time>
      </trkpt>
      <trkpt lat="46.77252" lon="6.46176">
        <ele>1425</ele>
        <time>2019-05-04T12:43:29Z</time>
      </trkpt>
      <trkpt lat="46.7725" lon="6.46177">
        <ele>1426</ele>
        <time>2019-05-04T12:43:30Z</time>
      </trkpt>
      <trkpt lat="46.77249" lon="6.46177">
        <ele>1426</ele>
        <time>2019-05-04T12:43:31Z</time>
      </trkpt>
      <trkpt lat="46.77248" lon="6.46178">
        <ele>1427</ele>
        <time>2019-05-04T12:43:32Z</time>
      </trkpt>
      <trkpt lat="46.77245" lon="6.46178">
        <ele>1428</ele>
        <time>2019-05-04T12:43:34Z</time>
      </trkpt>
      <trkpt lat="46.77244" lon="6.46179">
        <ele>1428</ele>
        <time>2019-05-04T12:43:35Z</time>
      </trkpt>
      <trkpt lat="46.77243" lon="6.46178">
        <ele>1428</ele>
        <time>2019-05-04T12:43:36Z</time>
      </trkpt>
      <trkpt lat="46.77242" lon="6.46178">
        <ele>1429</ele>
        <time>2019-05-04T12:43:37Z</time>
      </trkpt>
      <trkpt lat="46.7724" lon="6.4618">
        <ele>1430</ele>
        <time>2019-05-04T12:43:39Z</time>
      </trkpt>
      <trkpt lat="46.77237" lon="6.46179">
        <ele>1430</ele>
        <time>2019-05-04T12:43:41Z</time>
      </trkpt>
      <trkpt lat="46.77236" lon="6.46178">
        <ele>1431</ele>
        <time>2019-05-04T12:43:42Z</time>
      </trkpt>
      <trkpt lat="46.77234" lon="6.46177">
        <ele>1430</ele>
        <time>2019-05-04T12:43:44Z</time>
      </trkpt>
      <trkpt lat="46.77233" lon="6.46176">
        <ele>1431</ele>
        <time>2019-05-04T12:43:45Z</time>
      </trkpt>
      <trkpt lat="46.77228" lon="6.46175">
        <ele>1431</ele>
        <time>2019-05-04T12:43:48Z</time>
      </trkpt>
      <trkpt lat="46.77222" lon="6.46176">
        <ele>1433</ele>
        <time>2019-05-04T12:43:53Z</time>
      </trkpt>
      <trkpt lat="46.77221" lon="6.46176">
        <ele>1434</ele>
        <time>2019-05-04T12:43:54Z</time>
      </trkpt>
      <trkpt lat="46.7722" lon="6.46175">
        <ele>1434</ele>
        <time>2019-05-04T12:43:55Z</time>
      </trkpt>
      <trkpt lat="46.77217" lon="6.46174">
        <ele>1434</ele>
        <time>2019-05-04T12:43:57Z</time>
      </trkpt>
      <trkpt lat="46.77216" lon="6.46173">
        <ele>1434</ele>
        <time>2019-05-04T12:43:57Z</time>
      </trkpt>
      <trkpt lat="46.77211" lon="6.46174">
        <ele>1436</ele>
        <time>2019-05-04T12:44:02Z</time>
      </trkpt>
      <trkpt lat="46.77206" lon="6.46174">
        <ele>1437</ele>
        <time>2019-05-04T12:44:05Z</time>
      </trkpt>
      <trkpt lat="46.77206" lon="6.46173">
        <ele>1437</ele>
        <time>2019-05-04T12:44:06Z</time>
      </trkpt>
      <trkpt lat="46.77204" lon="6.46174">
        <ele>1438</ele>
        <time>2019-05-04T12:44:07Z</time>
      </trkpt>
      <trkpt lat="46.77203" lon="6.46174">
        <ele>1438</ele>
        <time>2019-05-04T12:44:07Z</time>
      </trkpt>
      <trkpt lat="46.77202" lon="6.46175">
        <ele>1439</ele>
        <time>2019-05-04T12:44:09Z</time>
      </trkpt>
      <trkpt lat="46.77196" lon="6.46175">
        <ele>1441</ele>
        <time>2019-05-04T12:44:13Z</time>
      </trkpt>
      <trkpt lat="46.77192" lon="6.46176">
        <ele>1442</ele>
        <time>2019-05-04T12:44:16Z</time>
      </trkpt>
      <trkpt lat="46.77191" lon="6.46177">
        <ele>1443</ele>
        <time>2019-05-04T12:44:17Z</time>
      </trkpt>
      <trkpt lat="46.7719" lon="6.46176">
        <ele>1443</ele>
        <time>2019-05-04T12:44:18Z</time>
      </trkpt>
      <trkpt lat="46.77191" lon="6.46178">
        <ele>1443</ele>
        <time>2019-05-04T12:44:20Z</time>
      </trkpt>
      <trkpt lat="46.77188" lon="6.46181">
        <ele>1446</ele>
        <time>2019-05-04T12:44:23Z</time>
      </trkpt>
      <trkpt lat="46.77187" lon="6.46183">
        <ele>1447</ele>
        <time>2019-05-04T12:44:24Z</time>
      </trkpt>
      <trkpt lat="46.77185" lon="6.46183">
        <ele>1448</ele>
        <time>2019-05-04T12:44:26Z</time>
      </trkpt>
      <trkpt lat="46.77185" lon="6.46184">
        <ele>1448</ele>
        <time>2019-05-04T12:44:26Z</time>
      </trkpt>
      <trkpt lat="46.77184" lon="6.46184">
        <ele>1449</ele>
        <time>2019-05-04T12:44:27Z</time>
      </trkpt>
      <trkpt lat="46.77181" lon="6.46185">
        <ele>1450</ele>
        <time>2019-05-04T12:44:30Z</time>
      </trkpt>
      <trkpt lat="46.77179" lon="6.46184">
        <ele>1450</ele>
        <time>2019-05-04T12:44:31Z</time>
      </trkpt>
      <trkpt lat="46.77178" lon="6.46184">
        <ele>1450</ele>
        <time>2019-05-04T12:44:32Z</time>
      </trkpt>
      <trkpt lat="46.77177" lon="6.46183">
        <ele>1450</ele>
        <time>2019-05-04T12:44:32Z</time>
      </trkpt>
      <trkpt lat="46.77176" lon="6.46183">
        <ele>1450</ele>
        <time>2019-05-04T12:44:33Z</time>
      </trkpt>
      <trkpt lat="46.77172" lon="6.46181">
        <ele>1451</ele>
        <time>2019-05-04T12:44:36Z</time>
      </trkpt>
      <trkpt lat="46.77172" lon="6.4618">
        <ele>1451</ele>
        <time>2019-05-04T12:44:37Z</time>
      </trkpt>
      <trkpt lat="46.77171" lon="6.4618">
        <ele>1451</ele>
        <time>2019-05-04T12:44:38Z</time>
      </trkpt>
      <trkpt lat="46.7717" lon="6.4618">
        <ele>1452</ele>
        <time>2019-05-04T12:44:39Z</time>
      </trkpt>
      <trkpt lat="46.77166" lon="6.46182">
        <ele>1454</ele>
        <time>2019-05-04T12:44:42Z</time>
      </trkpt>
      <trkpt lat="46.77165" lon="6.46183">
        <ele>1454</ele>
        <time>2019-05-04T12:44:43Z</time>
      </trkpt>
      <trkpt lat="46.77164" lon="6.46183">
        <ele>1455</ele>
        <time>2019-05-04T12:44:44Z</time>
      </trkpt>
      <trkpt lat="46.77161" lon="6.46183">
        <ele>1456</ele>
        <time>2019-05-04T12:44:46Z</time>
      </trkpt>
      <trkpt lat="46.7716" lon="6.46184">
        <ele>1456</ele>
        <time>2019-05-04T12:44:46Z</time>
      </trkpt>
      <trkpt lat="46.77157" lon="6.46184">
        <ele>1458</ele>
        <time>2019-05-04T12:44:49Z</time>
      </trkpt>
      <trkpt lat="46.77154" lon="6.46185">
        <ele>1459</ele>
        <time>2019-05-04T12:44:51Z</time>
      </trkpt>
      <trkpt lat="46.77154" lon="6.46184">
        <ele>1459</ele>
        <time>2019-05-04T12:44:52Z</time>
      </trkpt>
      <trkpt lat="46.77151" lon="6.46184">
        <ele>1460</ele>
        <time>2019-05-04T12:44:54Z</time>
      </trkpt>
      <trkpt lat="46.77151" lon="6.46184">
        <ele>1460</ele>
        <time>2019-05-04T12:44:54Z</time>
      </trkpt>
      <trkpt lat="46.77151" lon="6.46184">
        <ele>1460</ele>
        <time>2019-05-04T12:44:55Z</time>
      </trkpt>
      <trkpt lat="46.77151" lon="6.46184">
        <ele>1460</ele>
        <time>2019-05-04T12:44:55Z</time>
      </trkpt>
      <trkpt lat="46.77151" lon="6.46185">
        <ele>1460</ele>
        <time>2019-05-04T12:44:55Z</time>
      </trkpt>
      <trkpt lat="46.7715" lon="6.46185">
        <ele>1460</ele>
        <time>2019-05-04T12:44:56Z</time>
      </trkpt>
      <trkpt lat="46.77148" lon="6.46185">
        <ele>1461</ele>
        <time>2019-05-04T12:44:57Z</time>
      </trkpt>
      <trkpt lat="46.77148" lon="6.46185">
        <ele>1462</ele>
        <time>2019-05-04T12:44:58Z</time>
      </trkpt>
      <trkpt lat="46.77144" lon="6.46187">
        <ele>1463</ele>
        <time>2019-05-04T12:45:01Z</time>
      </trkpt>
      <trkpt lat="46.77142" lon="6.46188">
        <ele>1464</ele>
        <time>2019-05-04T12:45:02Z</time>
      </trkpt>
      <trkpt lat="46.7714" lon="6.46187">
        <ele>1465</ele>
        <time>2019-05-04T12:45:04Z</time>
      </trkpt>
      <trkpt lat="46.77139" lon="6.46186">
        <ele>1465</ele>
        <time>2019-05-04T12:45:05Z</time>
      </trkpt>
      <trkpt lat="46.77137" lon="6.46185">
        <ele>1465</ele>
        <time>2019-05-04T12:45:07Z</time>
      </trkpt>
      <trkpt lat="46.77135" lon="6.46186">
        <ele>1466</ele>
        <time>2019-05-04T12:45:08Z</time>
      </trkpt>
      <trkpt lat="46.77132" lon="6.46187">
        <ele>1467</ele>
        <time>2019-05-04T12:45:10Z</time>
      </trkpt>
      <trkpt lat="46.7713" lon="6.46185">
        <ele>1467</ele>
        <time>2019-05-04T12:45:12Z</time>
      </trkpt>
      <trkpt lat="46.77127" lon="6.46185">
        <ele>1469</ele>
        <time>2019-05-04T12:45:14Z</time>
      </trkpt>
      <trkpt lat="46.77124" lon="6.46186">
        <ele>1470</ele>
        <time>2019-05-04T12:45:17Z</time>
      </trkpt>
      <trkpt lat="46.77122" lon="6.46183">
        <ele>1470</ele>
        <time>2019-05-04T12:45:19Z</time>
      </trkpt>
      <trkpt lat="46.77121" lon="6.46183">
        <ele>1470</ele>
        <time>2019-05-04T12:45:19Z</time>
      </trkpt>
      <trkpt lat="46.7712" lon="6.46181">
        <ele>1469</ele>
        <time>2019-05-04T12:45:21Z</time>
      </trkpt>
      <trkpt lat="46.7712" lon="6.46181">
        <ele>1469</ele>
        <time>2019-05-04T12:45:21Z</time>
      </trkpt>
      <trkpt lat="46.7712" lon="6.46181">
        <ele>1469</ele>
        <time>2019-05-04T12:45:21Z</time>
      </trkpt>
      <trkpt lat="46.7712" lon="6.46181">
        <ele>1469</ele>
        <time>2019-05-04T12:45:21Z</time>
      </trkpt>
      <trkpt lat="46.77118" lon="6.46181">
        <ele>1469</ele>
        <time>2019-05-04T12:45:22Z</time>
      </trkpt>
      <trkpt lat="46.77114" lon="6.46178">
        <ele>1470</ele>
        <time>2019-05-04T12:45:26Z</time>
      </trkpt>
      <trkpt lat="46.77112" lon="6.46177">
        <ele>1470</ele>
        <time>2019-05-04T12:45:27Z</time>
      </trkpt>
      <trkpt lat="46.7711" lon="6.46175">
        <ele>1470</ele>
        <time>2019-05-04T12:45:29Z</time>
      </trkpt>
      <trkpt lat="46.77107" lon="6.46173">
        <ele>1469</ele>
        <time>2019-05-04T12:45:31Z</time>
      </trkpt>
      <trkpt lat="46.77099" lon="6.46172">
        <ele>1471</ele>
        <time>2019-05-04T12:45:37Z</time>
      </trkpt>
      <trkpt lat="46.77097" lon="6.46173">
        <ele>1472</ele>
        <time>2019-05-04T12:45:39Z</time>
      </trkpt>
      <trkpt lat="46.77094" lon="6.46173">
        <ele>1473</ele>
        <time>2019-05-04T12:45:41Z</time>
      </trkpt>
      <trkpt lat="46.77092" lon="6.46175">
        <ele>1474</ele>
        <time>2019-05-04T12:45:43Z</time>
      </trkpt>
      <trkpt lat="46.77091" lon="6.46175">
        <ele>1475</ele>
        <time>2019-05-04T12:45:44Z</time>
      </trkpt>
      <trkpt lat="46.77091" lon="6.46175">
        <ele>1475</ele>
        <time>2019-05-04T12:45:44Z</time>
      </trkpt>
      <trkpt lat="46.77088" lon="6.46176">
        <ele>1476</ele>
        <time>2019-05-04T12:45:46Z</time>
      </trkpt>
      <trkpt lat="46.77084" lon="6.46174">
        <ele>1477</ele>
        <time>2019-05-04T12:45:50Z</time>
      </trkpt>
      <trkpt lat="46.77083" lon="6.46174">
        <ele>1476</ele>
        <time>2019-05-04T12:45:51Z</time>
      </trkpt>
      <trkpt lat="46.77078" lon="6.46169">
        <ele>1476</ele>
        <time>2019-05-04T12:45:55Z</time>
      </trkpt>
      <trkpt lat="46.77075" lon="6.46165">
        <ele>1475</ele>
        <time>2019-05-04T12:45:58Z</time>
      </trkpt>
      <trkpt lat="46.77074" lon="6.46165">
        <ele>1475</ele>
        <time>2019-05-04T12:45:58Z</time>
      </trkpt>
      <trkpt lat="46.77073" lon="6.46164">
        <ele>1475</ele>
        <time>2019-05-04T12:45:59Z</time>
      </trkpt>
      <trkpt lat="46.77069" lon="6.46165">
        <ele>1476</ele>
        <time>2019-05-04T12:46:02Z</time>
      </trkpt>
      <trkpt lat="46.77063" lon="6.46162">
        <ele>1477</ele>
        <time>2019-05-04T12:46:07Z</time>
      </trkpt>
      <trkpt lat="46.77062" lon="6.46161">
        <ele>1477</ele>
        <time>2019-05-04T12:46:08Z</time>
      </trkpt>
      <trkpt lat="46.77059" lon="6.46161">
        <ele>1478</ele>
        <time>2019-05-04T12:46:10Z</time>
      </trkpt>
      <trkpt lat="46.77058" lon="6.4616">
        <ele>1478</ele>
        <time>2019-05-04T12:46:11Z</time>
      </trkpt>
      <trkpt lat="46.77058" lon="6.4616">
        <ele>1478</ele>
        <time>2019-05-04T12:46:11Z</time>
      </trkpt>
      <trkpt lat="46.77058" lon="6.4616">
        <ele>1478</ele>
        <time>2019-05-04T12:46:11Z</time>
      </trkpt>
      <trkpt lat="46.77055" lon="6.46161">
        <ele>1479</ele>
        <time>2019-05-04T12:46:13Z</time>
      </trkpt>
      <trkpt lat="46.7705" lon="6.46162">
        <ele>1481</ele>
        <time>2019-05-04T12:46:17Z</time>
      </trkpt>
      <trkpt lat="46.77049" lon="6.46161">
        <ele>1481</ele>
        <time>2019-05-04T12:46:18Z</time>
      </trkpt>
      <trkpt lat="46.77046" lon="6.4616">
        <ele>1481</ele>
        <time>2019-05-04T12:46:20Z</time>
      </trkpt>
      <trkpt lat="46.77045" lon="6.4616">
        <ele>1481</ele>
        <time>2019-05-04T12:46:21Z</time>
      </trkpt>
      <trkpt lat="46.77044" lon="6.46158">
        <ele>1481</ele>
        <time>2019-05-04T12:46:22Z</time>
      </trkpt>
      <trkpt lat="46.77042" lon="6.46157">
        <ele>1481</ele>
        <time>2019-05-04T12:46:23Z</time>
      </trkpt>
      <trkpt lat="46.77042" lon="6.46158">
        <ele>1482</ele>
        <time>2019-05-04T12:46:24Z</time>
      </trkpt>
      <trkpt lat="46.77041" lon="6.46158">
        <ele>1482</ele>
        <time>2019-05-04T12:46:25Z</time>
      </trkpt>
      <trkpt lat="46.77039" lon="6.46159">
        <ele>1483</ele>
        <time>2019-05-04T12:46:26Z</time>
      </trkpt>
      <trkpt lat="46.77038" lon="6.46158">
        <ele>1483</ele>
        <time>2019-05-04T12:46:27Z</time>
      </trkpt>
      <trkpt lat="46.77036" lon="6.46158">
        <ele>1483</ele>
        <time>2019-05-04T12:46:29Z</time>
      </trkpt>
      <trkpt lat="46.77028" lon="6.46158">
        <ele>1486</ele>
        <time>2019-05-04T12:46:35Z</time>
      </trkpt>
      <trkpt lat="46.77026" lon="6.46159">
        <ele>1486</ele>
        <time>2019-05-04T12:46:36Z</time>
      </trkpt>
      <trkpt lat="46.77026" lon="6.46159">
        <ele>1487</ele>
        <time>2019-05-04T12:46:37Z</time>
      </trkpt>
      <trkpt lat="46.77021" lon="6.46162">
        <ele>1489</ele>
        <time>2019-05-04T12:46:41Z</time>
      </trkpt>
      <trkpt lat="46.77019" lon="6.46164">
        <ele>1490</ele>
        <time>2019-05-04T12:46:43Z</time>
      </trkpt>
      <trkpt lat="46.7702" lon="6.46167">
        <ele>1491</ele>
        <time>2019-05-04T12:46:44Z</time>
      </trkpt>
      <trkpt lat="46.77019" lon="6.46169">
        <ele>1492</ele>
        <time>2019-05-04T12:46:46Z</time>
      </trkpt>
      <trkpt lat="46.77017" lon="6.46172">
        <ele>1494</ele>
        <time>2019-05-04T12:46:48Z</time>
      </trkpt>
      <trkpt lat="46.77013" lon="6.46175">
        <ele>1496</ele>
        <time>2019-05-04T12:46:52Z</time>
      </trkpt>
      <trkpt lat="46.77011" lon="6.46174">
        <ele>1496</ele>
        <time>2019-05-04T12:46:53Z</time>
      </trkpt>
      <trkpt lat="46.7701" lon="6.46174">
        <ele>1497</ele>
        <time>2019-05-04T12:46:54Z</time>
      </trkpt>
      <trkpt lat="46.77005" lon="6.46175">
        <ele>1498</ele>
        <time>2019-05-04T12:46:58Z</time>
      </trkpt>
      <trkpt lat="46.77004" lon="6.46174">
        <ele>1498</ele>
        <time>2019-05-04T12:46:59Z</time>
      </trkpt>
      <trkpt lat="46.77003" lon="6.46171">
        <ele>1497</ele>
        <time>2019-05-04T12:47:00Z</time>
      </trkpt>
      <trkpt lat="46.77" lon="6.46172">
        <ele>1498</ele>
        <time>2019-05-04T12:47:03Z</time>
      </trkpt>
      <trkpt lat="46.76998" lon="6.46173">
        <ele>1499</ele>
        <time>2019-05-04T12:47:04Z</time>
      </trkpt>
      <trkpt lat="46.76997" lon="6.46174">
        <ele>1500</ele>
        <time>2019-05-04T12:47:06Z</time>
      </trkpt>
      <trkpt lat="46.76995" lon="6.46172">
        <ele>1500</ele>
        <time>2019-05-04T12:47:07Z</time>
      </trkpt>
      <trkpt lat="46.76994" lon="6.46171">
        <ele>1500</ele>
        <time>2019-05-04T12:47:08Z</time>
      </trkpt>
      <trkpt lat="46.7699" lon="6.46169">
        <ele>1500</ele>
        <time>2019-05-04T12:47:11Z</time>
      </trkpt>
      <trkpt lat="46.7699" lon="6.46168">
        <ele>1500</ele>
        <time>2019-05-04T12:47:12Z</time>
      </trkpt>
      <trkpt lat="46.76987" lon="6.46167">
        <ele>1501</ele>
        <time>2019-05-04T12:47:14Z</time>
      </trkpt>
      <trkpt lat="46.76984" lon="6.46165">
        <ele>1501</ele>
        <time>2019-05-04T12:47:17Z</time>
      </trkpt>
      <trkpt lat="46.76981" lon="6.46164">
        <ele>1502</ele>
        <time>2019-05-04T12:47:19Z</time>
      </trkpt>
      <trkpt lat="46.7698" lon="6.46165">
        <ele>1502</ele>
        <time>2019-05-04T12:47:19Z</time>
      </trkpt>
      <trkpt lat="46.76976" lon="6.46165">
        <ele>1503</ele>
        <time>2019-05-04T12:47:22Z</time>
      </trkpt>
      <trkpt lat="46.7697" lon="6.46165">
        <ele>1505</ele>
        <time>2019-05-04T12:47:27Z</time>
      </trkpt>
      <trkpt lat="46.76962" lon="6.46163">
        <ele>1507</ele>
        <time>2019-05-04T12:47:33Z</time>
      </trkpt>
      <trkpt lat="46.76959" lon="6.46162">
        <ele>1507</ele>
        <time>2019-05-04T12:47:35Z</time>
      </trkpt>
      <trkpt lat="46.76959" lon="6.46162">
        <ele>1507</ele>
        <time>2019-05-04T12:47:35Z</time>
      </trkpt>
      <trkpt lat="46.76959" lon="6.46161">
        <ele>1507</ele>
        <time>2019-05-04T12:47:36Z</time>
      </trkpt>
      <trkpt lat="46.7696" lon="6.46161">
        <ele>1507</ele>
        <time>2019-05-04T12:47:37Z</time>
      </trkpt>
      <trkpt lat="46.76961" lon="6.46163">
        <ele>1507</ele>
        <time>2019-05-04T12:47:38Z</time>
      </trkpt>
      <trkpt lat="46.7696" lon="6.46168">
        <ele>1509</ele>
        <time>2019-05-04T12:47:41Z</time>
      </trkpt>
      <trkpt lat="46.7696" lon="6.46171">
        <ele>1510</ele>
        <time>2019-05-04T12:47:43Z</time>
      </trkpt>
      <trkpt lat="46.7696" lon="6.46173">
        <ele>1510</ele>
        <time>2019-05-04T12:47:44Z</time>
      </trkpt>
      <trkpt lat="46.76961" lon="6.46176">
        <ele>1511</ele>
        <time>2019-05-04T12:47:45Z</time>
      </trkpt>
      <trkpt lat="46.76962" lon="6.46177">
        <ele>1511</ele>
        <time>2019-05-04T12:47:46Z</time>
      </trkpt>
      <trkpt lat="46.76963" lon="6.4618">
        <ele>1512</ele>
        <time>2019-05-04T12:47:48Z</time>
      </trkpt>
      <trkpt lat="46.76965" lon="6.46183">
        <ele>1512</ele>
        <time>2019-05-04T12:47:50Z</time>
      </trkpt>
      <trkpt lat="46.76966" lon="6.46188">
        <ele>1514</ele>
        <time>2019-05-04T12:47:53Z</time>
      </trkpt>
      <trkpt lat="46.76966" lon="6.46192">
        <ele>1515</ele>
        <time>2019-05-04T12:47:55Z</time>
      </trkpt>
      <trkpt lat="46.76966" lon="6.46194">
        <ele>1515</ele>
        <time>2019-05-04T12:47:56Z</time>
      </trkpt>
      <trkpt lat="46.76969" lon="6.46198">
        <ele>1515</ele>
        <time>2019-05-04T12:47:59Z</time>
      </trkpt>
      <trkpt lat="46.7697" lon="6.462">
        <ele>1515</ele>
        <time>2019-05-04T12:48:00Z</time>
      </trkpt>
      <trkpt lat="46.76969" lon="6.46201">
        <ele>1516</ele>
        <time>2019-05-04T12:48:01Z</time>
      </trkpt>
      <trkpt lat="46.7697" lon="6.46202">
        <ele>1516</ele>
        <time>2019-05-04T12:48:02Z</time>
      </trkpt>
      <trkpt lat="46.7697" lon="6.46205">
        <ele>1516</ele>
        <time>2019-05-04T12:48:04Z</time>
      </trkpt>
      <trkpt lat="46.7697" lon="6.4621">
        <ele>1517</ele>
        <time>2019-05-04T12:48:06Z</time>
      </trkpt>
      <trkpt lat="46.76972" lon="6.46213">
        <ele>1517</ele>
        <time>2019-05-04T12:48:08Z</time>
      </trkpt>
      <trkpt lat="46.76976" lon="6.46216">
        <ele>1517</ele>
        <time>2019-05-04T12:48:11Z</time>
      </trkpt>
      <trkpt lat="46.76977" lon="6.4622">
        <ele>1517</ele>
        <time>2019-05-04T12:48:13Z</time>
      </trkpt>
      <trkpt lat="46.76976" lon="6.46225">
        <ele>1518</ele>
        <time>2019-05-04T12:48:16Z</time>
      </trkpt>
      <trkpt lat="46.76976" lon="6.46228">
        <ele>1519</ele>
        <time>2019-05-04T12:48:18Z</time>
      </trkpt>
      <trkpt lat="46.76978" lon="6.4623">
        <ele>1519</ele>
        <time>2019-05-04T12:48:19Z</time>
      </trkpt>
      <trkpt lat="46.76977" lon="6.46234">
        <ele>1520</ele>
        <time>2019-05-04T12:48:21Z</time>
      </trkpt>
      <trkpt lat="46.76978" lon="6.46236">
        <ele>1520</ele>
        <time>2019-05-04T12:48:22Z</time>
      </trkpt>
      <trkpt lat="46.76977" lon="6.46242">
        <ele>1521</ele>
        <time>2019-05-04T12:48:25Z</time>
      </trkpt>
      <trkpt lat="46.76985" lon="6.46255">
        <ele>1522</ele>
        <time>2019-05-04T12:48:33Z</time>
      </trkpt>
      <trkpt lat="46.76988" lon="6.46256">
        <ele>1522</ele>
        <time>2019-05-04T12:48:36Z</time>
      </trkpt>
      <trkpt lat="46.76994" lon="6.46259">
        <ele>1521</ele>
        <time>2019-05-04T12:48:41Z</time>
      </trkpt>
      <trkpt lat="46.76995" lon="6.46259">
        <ele>1521</ele>
        <time>2019-05-04T12:48:41Z</time>
      </trkpt>
      <trkpt lat="46.76996" lon="6.46259">
        <ele>1521</ele>
        <time>2019-05-04T12:48:42Z</time>
      </trkpt>
      <trkpt lat="46.76996" lon="6.4626">
        <ele>1521</ele>
        <time>2019-05-04T12:48:43Z</time>
      </trkpt>
      <trkpt lat="46.76996" lon="6.4626">
        <ele>1521</ele>
        <time>2019-05-04T12:48:43Z</time>
      </trkpt>
      <trkpt lat="46.77002" lon="6.46264">
        <ele>1521</ele>
        <time>2019-05-04T12:48:47Z</time>
      </trkpt>
      <trkpt lat="46.77005" lon="6.46265">
        <ele>1521</ele>
        <time>2019-05-04T12:48:49Z</time>
      </trkpt>
      <trkpt lat="46.77012" lon="6.46266">
        <ele>1520</ele>
        <time>2019-05-04T12:48:55Z</time>
      </trkpt>
      <trkpt lat="46.77016" lon="6.46265">
        <ele>1519</ele>
        <time>2019-05-04T12:48:58Z</time>
      </trkpt>
      <trkpt lat="46.77026" lon="6.46271">
        <ele>1519</ele>
        <time>2019-05-04T12:49:05Z</time>
      </trkpt>
      <trkpt lat="46.77028" lon="6.46271">
        <ele>1518</ele>
        <time>2019-05-04T12:49:07Z</time>
      </trkpt>
      <trkpt lat="46.7703" lon="6.4627">
        <ele>1518</ele>
        <time>2019-05-04T12:49:09Z</time>
      </trkpt>
      <trkpt lat="46.77033" lon="6.46272">
        <ele>1518</ele>
        <time>2019-05-04T12:49:11Z</time>
      </trkpt>
      <trkpt lat="46.77035" lon="6.46274">
        <ele>1518</ele>
        <time>2019-05-04T12:49:13Z</time>
      </trkpt>
      <trkpt lat="46.77037" lon="6.46276">
        <ele>1519</ele>
        <time>2019-05-04T12:49:15Z</time>
      </trkpt>
      <trkpt lat="46.77038" lon="6.46277">
        <ele>1519</ele>
        <time>2019-05-04T12:49:15Z</time>
      </trkpt>
      <trkpt lat="46.77039" lon="6.46281">
        <ele>1519</ele>
        <time>2019-05-04T12:49:17Z</time>
      </trkpt>
      <trkpt lat="46.77043" lon="6.46293">
        <ele>1521</ele>
        <time>2019-05-04T12:49:24Z</time>
      </trkpt>
      <trkpt lat="46.77045" lon="6.46298">
        <ele>1522</ele>
        <time>2019-05-04T12:49:27Z</time>
      </trkpt>
      <trkpt lat="46.7705" lon="6.46304">
        <ele>1523</ele>
        <time>2019-05-04T12:49:32Z</time>
      </trkpt>
      <trkpt lat="46.77052" lon="6.46307">
        <ele>1524</ele>
        <time>2019-05-04T12:49:34Z</time>
      </trkpt>
      <trkpt lat="46.77056" lon="6.46312">
        <ele>1525</ele>
        <time>2019-05-04T12:49:38Z</time>
      </trkpt>
      <trkpt lat="46.77061" lon="6.46323">
        <ele>1527</ele>
        <time>2019-05-04T12:49:44Z</time>
      </trkpt>
      <trkpt lat="46.7707" lon="6.4634">
        <ele>1530</ele>
        <time>2019-05-04T12:49:55Z</time>
      </trkpt>
      <trkpt lat="46.77074" lon="6.46344">
        <ele>1531</ele>
        <time>2019-05-04T12:49:59Z</time>
      </trkpt>
      <trkpt lat="46.77075" lon="6.46346">
        <ele>1532</ele>
        <time>2019-05-04T12:50:00Z</time>
      </trkpt>
      <trkpt lat="46.77077" lon="6.46348">
        <ele>1532</ele>
        <time>2019-05-04T12:50:02Z</time>
      </trkpt>
      <trkpt lat="46.77078" lon="6.4635">
        <ele>1533</ele>
        <time>2019-05-04T12:50:03Z</time>
      </trkpt>
      <trkpt lat="46.77082" lon="6.46358">
        <ele>1535</ele>
        <time>2019-05-04T12:50:08Z</time>
      </trkpt>
      <trkpt lat="46.7709" lon="6.46366">
        <ele>1536</ele>
        <time>2019-05-04T12:50:16Z</time>
      </trkpt>
      <trkpt lat="46.77094" lon="6.46368">
        <ele>1536</ele>
        <time>2019-05-04T12:50:18Z</time>
      </trkpt>
      <trkpt lat="46.771" lon="6.46372">
        <ele>1537</ele>
        <time>2019-05-04T12:50:23Z</time>
      </trkpt>
      <trkpt lat="46.77103" lon="6.46374">
        <ele>1538</ele>
        <time>2019-05-04T12:50:25Z</time>
      </trkpt>
      <trkpt lat="46.77105" lon="6.46377">
        <ele>1538</ele>
        <time>2019-05-04T12:50:28Z</time>
      </trkpt>
      <trkpt lat="46.77106" lon="6.46378">
        <ele>1538</ele>
        <time>2019-05-04T12:50:28Z</time>
      </trkpt>
      <trkpt lat="46.77107" lon="6.4638">
        <ele>1539</ele>
        <time>2019-05-04T12:50:30Z</time>
      </trkpt>
      <trkpt lat="46.77109" lon="6.46385">
        <ele>1540</ele>
        <time>2019-05-04T12:50:33Z</time>
      </trkpt>
      <trkpt lat="46.77113" lon="6.46395">
        <ele>1541</ele>
        <time>2019-05-04T12:50:39Z</time>
      </trkpt>
      <trkpt lat="46.77117" lon="6.46399">
        <ele>1542</ele>
        <time>2019-05-04T12:50:42Z</time>
      </trkpt>
      <trkpt lat="46.77119" lon="6.46403">
        <ele>1542</ele>
        <time>2019-05-04T12:50:44Z</time>
      </trkpt>
      <trkpt lat="46.77119" lon="6.46407">
        <ele>1543</ele>
        <time>2019-05-04T12:50:46Z</time>
      </trkpt>
      <trkpt lat="46.77122" lon="6.46409">
        <ele>1544</ele>
        <time>2019-05-04T12:50:49Z</time>
      </trkpt>
      <trkpt lat="46.77123" lon="6.46411">
        <ele>1544</ele>
        <time>2019-05-04T12:50:50Z</time>
      </trkpt>
      <trkpt lat="46.77123" lon="6.46413">
        <ele>1544</ele>
        <time>2019-05-04T12:50:51Z</time>
      </trkpt>
      <trkpt lat="46.77124" lon="6.46416">
        <ele>1545</ele>
        <time>2019-05-04T12:50:53Z</time>
      </trkpt>
      <trkpt lat="46.77127" lon="6.46423">
        <ele>1546</ele>
        <time>2019-05-04T12:50:57Z</time>
      </trkpt>
      <trkpt lat="46.77128" lon="6.46426">
        <ele>1546</ele>
        <time>2019-05-04T12:50:58Z</time>
      </trkpt>
      <trkpt lat="46.77129" lon="6.46429">
        <ele>1547</ele>
        <time>2019-05-04T12:51:00Z</time>
      </trkpt>
      <trkpt lat="46.7713" lon="6.4643">
        <ele>1547</ele>
        <time>2019-05-04T12:51:01Z</time>
      </trkpt>
      <trkpt lat="46.77131" lon="6.46436">
        <ele>1548</ele>
        <time>2019-05-04T12:51:04Z</time>
      </trkpt>
      <trkpt lat="46.77132" lon="6.46439">
        <ele>1549</ele>
        <time>2019-05-04T12:51:06Z</time>
      </trkpt>
      <trkpt lat="46.77132" lon="6.46443">
        <ele>1549</ele>
        <time>2019-05-04T12:51:08Z</time>
      </trkpt>
      <trkpt lat="46.77133" lon="6.46448">
        <ele>1550</ele>
        <time>2019-05-04T12:51:10Z</time>
      </trkpt>
      <trkpt lat="46.77133" lon="6.46451">
        <ele>1550</ele>
        <time>2019-05-04T12:51:12Z</time>
      </trkpt>
      <trkpt lat="46.77134" lon="6.46457">
        <ele>1550</ele>
        <time>2019-05-04T12:51:15Z</time>
      </trkpt>
      <trkpt lat="46.77136" lon="6.46463">
        <ele>1550</ele>
        <time>2019-05-04T12:51:18Z</time>
      </trkpt>
      <trkpt lat="46.77143" lon="6.46474">
        <ele>1551</ele>
        <time>2019-05-04T12:51:26Z</time>
      </trkpt>
      <trkpt lat="46.77145" lon="6.46475">
        <ele>1551</ele>
        <time>2019-05-04T12:51:27Z</time>
      </trkpt>
      <trkpt lat="46.77147" lon="6.46477">
        <ele>1552</ele>
        <time>2019-05-04T12:51:29Z</time>
      </trkpt>
      <trkpt lat="46.77151" lon="6.46481">
        <ele>1552</ele>
        <time>2019-05-04T12:51:33Z</time>
      </trkpt>
      <trkpt lat="46.77155" lon="6.46485">
        <ele>1553</ele>
        <time>2019-05-04T12:51:37Z</time>
      </trkpt>
      <trkpt lat="46.77159" lon="6.4649">
        <ele>1554</ele>
        <time>2019-05-04T12:51:40Z</time>
      </trkpt>
      <trkpt lat="46.77161" lon="6.46492">
        <ele>1554</ele>
        <time>2019-05-04T12:51:42Z</time>
      </trkpt>
      <trkpt lat="46.77167" lon="6.46502">
        <ele>1555</ele>
        <time>2019-05-04T12:51:49Z</time>
      </trkpt>
      <trkpt lat="46.77171" lon="6.46506">
        <ele>1556</ele>
        <time>2019-05-04T12:51:52Z</time>
      </trkpt>
      <trkpt lat="46.77174" lon="6.4651">
        <ele>1557</ele>
        <time>2019-05-04T12:51:55Z</time>
      </trkpt>
      <trkpt lat="46.77175" lon="6.46511">
        <ele>1557</ele>
        <time>2019-05-04T12:51:56Z</time>
      </trkpt>
      <trkpt lat="46.77175" lon="6.46513">
        <ele>1557</ele>
        <time>2019-05-04T12:51:57Z</time>
      </trkpt>
      <trkpt lat="46.77175" lon="6.46515">
        <ele>1557</ele>
        <time>2019-05-04T12:51:58Z</time>
      </trkpt>
      <trkpt lat="46.77176" lon="6.46516">
        <ele>1558</ele>
        <time>2019-05-04T12:51:59Z</time>
      </trkpt>
      <trkpt lat="46.77178" lon="6.46519">
        <ele>1558</ele>
        <time>2019-05-04T12:52:01Z</time>
      </trkpt>
      <trkpt lat="46.77179" lon="6.46521">
        <ele>1559</ele>
        <time>2019-05-04T12:52:02Z</time>
      </trkpt>
      <trkpt lat="46.7718" lon="6.46522">
        <ele>1559</ele>
        <time>2019-05-04T12:52:03Z</time>
      </trkpt>
      <trkpt lat="46.7718" lon="6.46523">
        <ele>1559</ele>
        <time>2019-05-04T12:52:04Z</time>
      </trkpt>
      <trkpt lat="46.77181" lon="6.46524">
        <ele>1559</ele>
        <time>2019-05-04T12:52:04Z</time>
      </trkpt>
      <trkpt lat="46.77192" lon="6.46543">
        <ele>1561</ele>
        <time>2019-05-04T12:52:17Z</time>
      </trkpt>
      <trkpt lat="46.77202" lon="6.46553">
        <ele>1562</ele>
        <time>2019-05-04T12:52:26Z</time>
      </trkpt>
      <trkpt lat="46.77208" lon="6.4656">
        <ele>1561</ele>
        <time>2019-05-04T12:52:31Z</time>
      </trkpt>
      <trkpt lat="46.77213" lon="6.46565">
        <ele>1561</ele>
        <time>2019-05-04T12:52:36Z</time>
      </trkpt>
      <trkpt lat="46.77217" lon="6.46569">
        <ele>1561</ele>
        <time>2019-05-04T12:52:39Z</time>
      </trkpt>
      <trkpt lat="46.77222" lon="6.46572">
        <ele>1561</ele>
        <time>2019-05-04T12:52:43Z</time>
      </trkpt>
      <trkpt lat="46.77228" lon="6.46579">
        <ele>1562</ele>
        <time>2019-05-04T12:52:48Z</time>
      </trkpt>
      <trkpt lat="46.77228" lon="6.46579">
        <ele>1562</ele>
        <time>2019-05-04T12:52:49Z</time>
      </trkpt>
      <trkpt lat="46.77229" lon="6.4658">
        <ele>1562</ele>
        <time>2019-05-04T12:52:49Z</time>
      </trkpt>
      <trkpt lat="46.77231" lon="6.46582">
        <ele>1562</ele>
        <time>2019-05-04T12:52:51Z</time>
      </trkpt>
      <trkpt lat="46.77234" lon="6.46583">
        <ele>1562</ele>
        <time>2019-05-04T12:52:53Z</time>
      </trkpt>
      <trkpt lat="46.77236" lon="6.46585">
        <ele>1562</ele>
        <time>2019-05-04T12:52:55Z</time>
      </trkpt>
      <trkpt lat="46.77237" lon="6.46586">
        <ele>1562</ele>
        <time>2019-05-04T12:52:56Z</time>
      </trkpt>
      <trkpt lat="46.77239" lon="6.4659">
        <ele>1562</ele>
        <time>2019-05-04T12:52:58Z</time>
      </trkpt>
      <trkpt lat="46.7724" lon="6.46591">
        <ele>1563</ele>
        <time>2019-05-04T12:52:59Z</time>
      </trkpt>
      <trkpt lat="46.77241" lon="6.46592">
        <ele>1563</ele>
        <time>2019-05-04T12:53:00Z</time>
      </trkpt>
      <trkpt lat="46.77244" lon="6.46593">
        <ele>1563</ele>
        <time>2019-05-04T12:53:03Z</time>
      </trkpt>
      <trkpt lat="46.77244" lon="6.46594">
        <ele>1563</ele>
        <time>2019-05-04T12:53:03Z</time>
      </trkpt>
      <trkpt lat="46.77245" lon="6.46596">
        <ele>1563</ele>
        <time>2019-05-04T12:53:04Z</time>
      </trkpt>
      <trkpt lat="46.77247" lon="6.466">
        <ele>1564</ele>
        <time>2019-05-04T12:53:07Z</time>
      </trkpt>
      <trkpt lat="46.77248" lon="6.46608">
        <ele>1565</ele>
        <time>2019-05-04T12:53:11Z</time>
      </trkpt>
      <trkpt lat="46.77248" lon="6.4661">
        <ele>1565</ele>
        <time>2019-05-04T12:53:12Z</time>
      </trkpt>
      <trkpt lat="46.77248" lon="6.46613">
        <ele>1565</ele>
        <time>2019-05-04T12:53:13Z</time>
      </trkpt>
      <trkpt lat="46.77248" lon="6.46613">
        <ele>1565</ele>
        <time>2019-05-04T12:53:14Z</time>
      </trkpt>
      <trkpt lat="46.77248" lon="6.46617">
        <ele>1565</ele>
        <time>2019-05-04T12:53:15Z</time>
      </trkpt>
      <trkpt lat="46.77246" lon="6.46619">
        <ele>1565</ele>
        <time>2019-05-04T12:53:17Z</time>
      </trkpt>
      <trkpt lat="46.77246" lon="6.4662">
        <ele>1565</ele>
        <time>2019-05-04T12:53:17Z</time>
      </trkpt>
      <trkpt lat="46.77246" lon="6.46621">
        <ele>1565</ele>
        <time>2019-05-04T12:53:18Z</time>
      </trkpt>
      <trkpt lat="46.77245" lon="6.46624">
        <ele>1565</ele>
        <time>2019-05-04T12:53:19Z</time>
      </trkpt>
      <trkpt lat="46.77245" lon="6.46625">
        <ele>1565</ele>
        <time>2019-05-04T12:53:20Z</time>
      </trkpt>
      <trkpt lat="46.77245" lon="6.46627">
        <ele>1565</ele>
        <time>2019-05-04T12:53:21Z</time>
      </trkpt>
      <trkpt lat="46.77244" lon="6.46628">
        <ele>1565</ele>
        <time>2019-05-04T12:53:22Z</time>
      </trkpt>
      <trkpt lat="46.77244" lon="6.46628">
        <ele>1565</ele>
        <time>2019-05-04T12:53:22Z</time>
      </trkpt>
      <trkpt lat="46.77244" lon="6.46629">
        <ele>1565</ele>
        <time>2019-05-04T12:53:22Z</time>
      </trkpt>
      <trkpt lat="46.77243" lon="6.46629">
        <ele>1565</ele>
        <time>2019-05-04T12:53:23Z</time>
      </trkpt>
      <trkpt lat="46.77243" lon="6.46629">
        <ele>1565</ele>
        <time>2019-05-04T12:53:23Z</time>
      </trkpt>
      <trkpt lat="46.77243" lon="6.46629">
        <ele>1565</ele>
        <time>2019-05-04T12:53:23Z</time>
      </trkpt>
      <trkpt lat="46.77243" lon="6.4663">
        <ele>1565</ele>
        <time>2019-05-04T12:53:23Z</time>
      </trkpt>
      <trkpt lat="46.77243" lon="6.4663">
        <ele>1565</ele>
        <time>2019-05-04T12:53:24Z</time>
      </trkpt>
      <trkpt lat="46.77243" lon="6.4663">
        <ele>1565</ele>
        <time>2019-05-04T12:53:24Z</time>
      </trkpt>
      <trkpt lat="46.77243" lon="6.4663">
        <ele>1565</ele>
        <time>2019-05-04T12:53:24Z</time>
      </trkpt>
      <trkpt lat="46.77243" lon="6.46632">
        <ele>1565</ele>
        <time>2019-05-04T12:53:25Z</time>
      </trkpt>
      <trkpt lat="46.77245" lon="6.46637">
        <ele>1565</ele>
        <time>2019-05-04T12:53:27Z</time>
      </trkpt>
      <trkpt lat="46.77247" lon="6.46642">
        <ele>1565</ele>
        <time>2019-05-04T12:53:30Z</time>
      </trkpt>
      <trkpt lat="46.7725" lon="6.46647">
        <ele>1566</ele>
        <time>2019-05-04T12:53:34Z</time>
      </trkpt>
      <trkpt lat="46.77246" lon="6.46646">
        <ele>1565</ele>
        <time>2019-05-04T12:53:37Z</time>
      </trkpt>
      <trkpt lat="46.77245" lon="6.46644">
        <ele>1565</ele>
        <time>2019-05-04T12:53:38Z</time>
      </trkpt>
      <trkpt lat="46.77242" lon="6.46641">
        <ele>1565</ele>
        <time>2019-05-04T12:53:41Z</time>
      </trkpt>
      <trkpt lat="46.77229" lon="6.46623">
        <ele>1564</ele>
        <time>2019-05-04T12:53:54Z</time>
      </trkpt>
      <trkpt lat="46.77226" lon="6.46623">
        <ele>1564</ele>
        <time>2019-05-04T12:53:56Z</time>
      </trkpt>
      <trkpt lat="46.77224" lon="6.46623">
        <ele>1564</ele>
        <time>2019-05-04T12:53:57Z</time>
      </trkpt>
      <trkpt lat="46.77221" lon="6.46622">
        <ele>1564</ele>
        <time>2019-05-04T12:54:00Z</time>
      </trkpt>
      <trkpt lat="46.77211" lon="6.46622">
        <ele>1563</ele>
        <time>2019-05-04T12:54:07Z</time>
      </trkpt>
      <trkpt lat="46.77207" lon="6.46622">
        <ele>1563</ele>
        <time>2019-05-04T12:54:10Z</time>
      </trkpt>
      <trkpt lat="46.77204" lon="6.46621">
        <ele>1563</ele>
        <time>2019-05-04T12:54:12Z</time>
      </trkpt>
      <trkpt lat="46.77192" lon="6.46615">
        <ele>1561</ele>
        <time>2019-05-04T12:54:21Z</time>
      </trkpt>
      <trkpt lat="46.7719" lon="6.46614">
        <ele>1561</ele>
        <time>2019-05-04T12:54:23Z</time>
      </trkpt>
      <trkpt lat="46.77188" lon="6.46613">
        <ele>1561</ele>
        <time>2019-05-04T12:54:24Z</time>
      </trkpt>
      <trkpt lat="46.77184" lon="6.46613">
        <ele>1559</ele>
        <time>2019-05-04T12:54:27Z</time>
      </trkpt>
      <trkpt lat="46.7718" lon="6.46613">
        <ele>1558</ele>
        <time>2019-05-04T12:54:30Z</time>
      </trkpt>
      <trkpt lat="46.77176" lon="6.46612">
        <ele>1557</ele>
        <time>2019-05-04T12:54:33Z</time>
      </trkpt>
      <trkpt lat="46.77172" lon="6.46612">
        <ele>1556</ele>
        <time>2019-05-04T12:54:36Z</time>
      </trkpt>
      <trkpt lat="46.77168" lon="6.46612">
        <ele>1555</ele>
        <time>2019-05-04T12:54:39Z</time>
      </trkpt>
      <trkpt lat="46.7716" lon="6.46612">
        <ele>1553</ele>
        <time>2019-05-04T12:54:45Z</time>
      </trkpt>
      <trkpt lat="46.77159" lon="6.46612">
        <ele>1552</ele>
        <time>2019-05-04T12:54:46Z</time>
      </trkpt>
      <trkpt lat="46.77158" lon="6.46612">
        <ele>1552</ele>
        <time>2019-05-04T12:54:47Z</time>
      </trkpt>
      <trkpt lat="46.77154" lon="6.46604">
        <ele>1551</ele>
        <time>2019-05-04T12:54:52Z</time>
      </trkpt>
      <trkpt lat="46.77153" lon="6.46598">
        <ele>1551</ele>
        <time>2019-05-04T12:54:55Z</time>
      </trkpt>
      <trkpt lat="46.77152" lon="6.46597">
        <ele>1551</ele>
        <time>2019-05-04T12:54:56Z</time>
      </trkpt>
      <trkpt lat="46.77151" lon="6.46594">
        <ele>1551</ele>
        <time>2019-05-04T12:54:58Z</time>
      </trkpt>
      <trkpt lat="46.7715" lon="6.46593">
        <ele>1551</ele>
        <time>2019-05-04T12:54:58Z</time>
      </trkpt>
      <trkpt lat="46.7715" lon="6.46592">
        <ele>1551</ele>
        <time>2019-05-04T12:54:59Z</time>
      </trkpt>
      <trkpt lat="46.77148" lon="6.46591">
        <ele>1550</ele>
        <time>2019-05-04T12:55:00Z</time>
      </trkpt>
      <trkpt lat="46.77147" lon="6.46589">
        <ele>1550</ele>
        <time>2019-05-04T12:55:01Z</time>
      </trkpt>
      <trkpt lat="46.77146" lon="6.46588">
        <ele>1550</ele>
        <time>2019-05-04T12:55:02Z</time>
      </trkpt>
      <trkpt lat="46.77145" lon="6.46583">
        <ele>1550</ele>
        <time>2019-05-04T12:55:05Z</time>
      </trkpt>
      <trkpt lat="46.77145" lon="6.46582">
        <ele>1550</ele>
        <time>2019-05-04T12:55:05Z</time>
      </trkpt>
      <trkpt lat="46.77145" lon="6.46581">
        <ele>1550</ele>
        <time>2019-05-04T12:55:06Z</time>
      </trkpt>
      <trkpt lat="46.77145" lon="6.4658">
        <ele>1550</ele>
        <time>2019-05-04T12:55:06Z</time>
      </trkpt>
      <trkpt lat="46.77143" lon="6.46579">
        <ele>1550</ele>
        <time>2019-05-04T12:55:07Z</time>
      </trkpt>
      <trkpt lat="46.77142" lon="6.46578">
        <ele>1549</ele>
        <time>2019-05-04T12:55:09Z</time>
      </trkpt>
      <trkpt lat="46.77138" lon="6.46575">
        <ele>1549</ele>
        <time>2019-05-04T12:55:12Z</time>
      </trkpt>
      <trkpt lat="46.77136" lon="6.46573">
        <ele>1548</ele>
        <time>2019-05-04T12:55:14Z</time>
      </trkpt>
      <trkpt lat="46.77133" lon="6.46572">
        <ele>1548</ele>
        <time>2019-05-04T12:55:16Z</time>
      </trkpt>
      <trkpt lat="46.77129" lon="6.4657">
        <ele>1547</ele>
        <time>2019-05-04T12:55:19Z</time>
      </trkpt>
      <trkpt lat="46.77115" lon="6.46561">
        <ele>1544</ele>
        <time>2019-05-04T12:55:31Z</time>
      </trkpt>
      <trkpt lat="46.7711" lon="6.46558">
        <ele>1543</ele>
        <time>2019-05-04T12:55:34Z</time>
      </trkpt>
      <trkpt lat="46.77105" lon="6.46557">
        <ele>1542</ele>
        <time>2019-05-04T12:55:38Z</time>
      </trkpt>
      <trkpt lat="46.77101" lon="6.46557">
        <ele>1542</ele>
        <time>2019-05-04T12:55:41Z</time>
      </trkpt>
      <trkpt lat="46.77097" lon="6.46559">
        <ele>1540</ele>
        <time>2019-05-04T12:55:44Z</time>
      </trkpt>
      <trkpt lat="46.77093" lon="6.4656">
        <ele>1539</ele>
        <time>2019-05-04T12:55:47Z</time>
      </trkpt>
      <trkpt lat="46.77091" lon="6.46562">
        <ele>1539</ele>
        <time>2019-05-04T12:55:49Z</time>
      </trkpt>
      <trkpt lat="46.7709" lon="6.46562">
        <ele>1538</ele>
        <time>2019-05-04T12:55:50Z</time>
      </trkpt>
      <trkpt lat="46.7709" lon="6.46562">
        <ele>1538</ele>
        <time>2019-05-04T12:55:50Z</time>
      </trkpt>
      <trkpt lat="46.77087" lon="6.46562">
        <ele>1538</ele>
        <time>2019-05-04T12:55:52Z</time>
      </trkpt>
      <trkpt lat="46.77075" lon="6.46563">
        <ele>1534</ele>
        <time>2019-05-04T12:56:01Z</time>
      </trkpt>
      <trkpt lat="46.77069" lon="6.46564">
        <ele>1533</ele>
        <time>2019-05-04T12:56:06Z</time>
      </trkpt>
      <trkpt lat="46.77056" lon="6.46564">
        <ele>1530</ele>
        <time>2019-05-04T12:56:15Z</time>
      </trkpt>
      <trkpt lat="46.77046" lon="6.46562">
        <ele>1528</ele>
        <time>2019-05-04T12:56:22Z</time>
      </trkpt>
      <trkpt lat="46.77042" lon="6.46558">
        <ele>1527</ele>
        <time>2019-05-04T12:56:26Z</time>
      </trkpt>
      <trkpt lat="46.77039" lon="6.46554">
        <ele>1527</ele>
        <time>2019-05-04T12:56:29Z</time>
      </trkpt>
      <trkpt lat="46.77035" lon="6.46551">
        <ele>1527</ele>
        <time>2019-05-04T12:56:32Z</time>
      </trkpt>
      <trkpt lat="46.77028" lon="6.4654">
        <ele>1526</ele>
        <time>2019-05-04T12:56:39Z</time>
      </trkpt>
      <trkpt lat="46.77023" lon="6.4653">
        <ele>1526</ele>
        <time>2019-05-04T12:56:45Z</time>
      </trkpt>
      <trkpt lat="46.77023" lon="6.4653">
        <ele>1526</ele>
        <time>2019-05-04T12:56:46Z</time>
      </trkpt>
      <trkpt lat="46.77021" lon="6.46529">
        <ele>1526</ele>
        <time>2019-05-04T12:56:47Z</time>
      </trkpt>
      <trkpt lat="46.77018" lon="6.46527">
        <ele>1525</ele>
        <time>2019-05-04T12:56:50Z</time>
      </trkpt>
      <trkpt lat="46.77003" lon="6.46516">
        <ele>1521</ele>
        <time>2019-05-04T12:57:02Z</time>
      </trkpt>
      <trkpt lat="46.76994" lon="6.46512">
        <ele>1519</ele>
        <time>2019-05-04T12:57:09Z</time>
      </trkpt>
      <trkpt lat="46.7699" lon="6.46509">
        <ele>1518</ele>
        <time>2019-05-04T12:57:13Z</time>
      </trkpt>
      <trkpt lat="46.7698" lon="6.46504">
        <ele>1515</ele>
        <time>2019-05-04T12:57:20Z</time>
      </trkpt>
      <trkpt lat="46.76968" lon="6.46496">
        <ele>1513</ele>
        <time>2019-05-04T12:57:30Z</time>
      </trkpt>
      <trkpt lat="46.76964" lon="6.46493">
        <ele>1512</ele>
        <time>2019-05-04T12:57:33Z</time>
      </trkpt>
      <trkpt lat="46.76959" lon="6.4649">
        <ele>1512</ele>
        <time>2019-05-04T12:57:37Z</time>
      </trkpt>
      <trkpt lat="46.76955" lon="6.46485">
        <ele>1511</ele>
        <time>2019-05-04T12:57:41Z</time>
      </trkpt>
      <trkpt lat="46.7695" lon="6.46481">
        <ele>1511</ele>
        <time>2019-05-04T12:57:45Z</time>
      </trkpt>
      <trkpt lat="46.76942" lon="6.46469">
        <ele>1511</ele>
        <time>2019-05-04T12:57:53Z</time>
      </trkpt>
      <trkpt lat="46.76935" lon="6.46454">
        <ele>1512</ele>
        <time>2019-05-04T12:58:02Z</time>
      </trkpt>
      <trkpt lat="46.76931" lon="6.46447">
        <ele>1512</ele>
        <time>2019-05-04T12:58:07Z</time>
      </trkpt>
      <trkpt lat="46.76924" lon="6.46441">
        <ele>1512</ele>
        <time>2019-05-04T12:58:12Z</time>
      </trkpt>
      <trkpt lat="46.76926" lon="6.46444">
        <ele>1512</ele>
        <time>2019-05-04T12:58:14Z</time>
      </trkpt>
      <trkpt lat="46.76927" lon="6.46446">
        <ele>1512</ele>
        <time>2019-05-04T12:58:15Z</time>
      </trkpt>
      <trkpt lat="46.76927" lon="6.46457">
        <ele>1510</ele>
        <time>2019-05-04T12:58:21Z</time>
      </trkpt>
      <trkpt lat="46.76924" lon="6.46457">
        <ele>1509</ele>
        <time>2019-05-04T12:58:24Z</time>
      </trkpt>
      <trkpt lat="46.76923" lon="6.46458">
        <ele>1509</ele>
        <time>2019-05-04T12:58:24Z</time>
      </trkpt>
      <trkpt lat="46.76921" lon="6.46459">
        <ele>1508</ele>
        <time>2019-05-04T12:58:26Z</time>
      </trkpt>
      <trkpt lat="46.76919" lon="6.4646">
        <ele>1507</ele>
        <time>2019-05-04T12:58:27Z</time>
      </trkpt>
      <trkpt lat="46.76918" lon="6.46461">
        <ele>1507</ele>
        <time>2019-05-04T12:58:28Z</time>
      </trkpt>
      <trkpt lat="46.76917" lon="6.46461">
        <ele>1507</ele>
        <time>2019-05-04T12:58:29Z</time>
      </trkpt>
      <trkpt lat="46.76915" lon="6.4646">
        <ele>1506</ele>
        <time>2019-05-04T12:58:31Z</time>
      </trkpt>
      <trkpt lat="46.76912" lon="6.4646">
        <ele>1506</ele>
        <time>2019-05-04T12:58:33Z</time>
      </trkpt>
      <trkpt lat="46.7691" lon="6.46458">
        <ele>1505</ele>
        <time>2019-05-04T12:58:34Z</time>
      </trkpt>
      <trkpt lat="46.76907" lon="6.46457">
        <ele>1505</ele>
        <time>2019-05-04T12:58:37Z</time>
      </trkpt>
      <trkpt lat="46.76903" lon="6.46456">
        <ele>1504</ele>
        <time>2019-05-04T12:58:40Z</time>
      </trkpt>
      <trkpt lat="46.769" lon="6.46455">
        <ele>1504</ele>
        <time>2019-05-04T12:58:42Z</time>
      </trkpt>
      <trkpt lat="46.76897" lon="6.46454">
        <ele>1503</ele>
        <time>2019-05-04T12:58:45Z</time>
      </trkpt>
      <trkpt lat="46.76895" lon="6.46455">
        <ele>1502</ele>
        <time>2019-05-04T12:58:46Z</time>
      </trkpt>
      <trkpt lat="46.76888" lon="6.4646">
        <ele>1500</ele>
        <time>2019-05-04T12:58:52Z</time>
      </trkpt>
      <trkpt lat="46.76882" lon="6.46464">
        <ele>1498</ele>
        <time>2019-05-04T12:58:57Z</time>
      </trkpt>
      <trkpt lat="46.76879" lon="6.46467">
        <ele>1497</ele>
        <time>2019-05-04T12:59:00Z</time>
      </trkpt>
      <trkpt lat="46.76875" lon="6.46468">
        <ele>1495</ele>
        <time>2019-05-04T12:59:03Z</time>
      </trkpt>
      <trkpt lat="46.76871" lon="6.4647">
        <ele>1494</ele>
        <time>2019-05-04T12:59:06Z</time>
      </trkpt>
      <trkpt lat="46.76866" lon="6.46475">
        <ele>1492</ele>
        <time>2019-05-04T12:59:10Z</time>
      </trkpt>
      <trkpt lat="46.76859" lon="6.46483">
        <ele>1490</ele>
        <time>2019-05-04T12:59:17Z</time>
      </trkpt>
      <trkpt lat="46.76857" lon="6.46486">
        <ele>1489</ele>
        <time>2019-05-04T12:59:19Z</time>
      </trkpt>
      <trkpt lat="46.76856" lon="6.46491">
        <ele>1487</ele>
        <time>2019-05-04T12:59:22Z</time>
      </trkpt>
      <trkpt lat="46.76855" lon="6.46494">
        <ele>1487</ele>
        <time>2019-05-04T12:59:23Z</time>
      </trkpt>
      <trkpt lat="46.76854" lon="6.46496">
        <ele>1486</ele>
        <time>2019-05-04T12:59:25Z</time>
      </trkpt>
      <trkpt lat="46.76853" lon="6.46496">
        <ele>1486</ele>
        <time>2019-05-04T12:59:25Z</time>
      </trkpt>
      <trkpt lat="46.76852" lon="6.46496">
        <ele>1486</ele>
        <time>2019-05-04T12:59:26Z</time>
      </trkpt>
      <trkpt lat="46.76839" lon="6.46482">
        <ele>1484</ele>
        <time>2019-05-04T12:59:38Z</time>
      </trkpt>
      <trkpt lat="46.76838" lon="6.46481">
        <ele>1484</ele>
        <time>2019-05-04T12:59:39Z</time>
      </trkpt>
      <trkpt lat="46.76836" lon="6.46478">
        <ele>1484</ele>
        <time>2019-05-04T12:59:41Z</time>
      </trkpt>
      <trkpt lat="46.76833" lon="6.46474">
        <ele>1484</ele>
        <time>2019-05-04T12:59:44Z</time>
      </trkpt>
      <trkpt lat="46.76828" lon="6.46472">
        <ele>1484</ele>
        <time>2019-05-04T12:59:47Z</time>
      </trkpt>
      <trkpt lat="46.76825" lon="6.46463">
        <ele>1485</ele>
        <time>2019-05-04T12:59:52Z</time>
      </trkpt>
      <trkpt lat="46.76812" lon="6.46445">
        <ele>1486</ele>
        <time>2019-05-04T13:00:05Z</time>
      </trkpt>
      <trkpt lat="46.76798" lon="6.46432">
        <ele>1486</ele>
        <time>2019-05-04T13:00:17Z</time>
      </trkpt>
      <trkpt lat="46.76793" lon="6.46424">
        <ele>1487</ele>
        <time>2019-05-04T13:00:23Z</time>
      </trkpt>
      <trkpt lat="46.76779" lon="6.46406">
        <ele>1489</ele>
        <time>2019-05-04T13:00:36Z</time>
      </trkpt>
      <trkpt lat="46.76773" lon="6.46397">
        <ele>1489</ele>
        <time>2019-05-04T13:00:42Z</time>
      </trkpt>
      <trkpt lat="46.7676" lon="6.46378">
        <ele>1490</ele>
        <time>2019-05-04T13:00:55Z</time>
      </trkpt>
      <trkpt lat="46.76748" lon="6.46358">
        <ele>1491</ele>
        <time>2019-05-04T13:01:09Z</time>
      </trkpt>
      <trkpt lat="46.76742" lon="6.4635">
        <ele>1491</ele>
        <time>2019-05-04T13:01:15Z</time>
      </trkpt>
      <trkpt lat="46.76731" lon="6.46334">
        <ele>1490</ele>
        <time>2019-05-04T13:01:26Z</time>
      </trkpt>
      <trkpt lat="46.76715" lon="6.46316">
        <ele>1489</ele>
        <time>2019-05-04T13:01:40Z</time>
      </trkpt>
      <trkpt lat="46.767" lon="6.46299">
        <ele>1488</ele>
        <time>2019-05-04T13:01:54Z</time>
      </trkpt>
      <trkpt lat="46.76685" lon="6.46282">
        <ele>1487</ele>
        <time>2019-05-04T13:02:08Z</time>
      </trkpt>
      <trkpt lat="46.76684" lon="6.4628">
        <ele>1487</ele>
        <time>2019-05-04T13:02:09Z</time>
      </trkpt>
      <trkpt lat="46.76669" lon="6.46263">
        <ele>1486</ele>
        <time>2019-05-04T13:02:23Z</time>
      </trkpt>
      <trkpt lat="46.76662" lon="6.4625">
        <ele>1487</ele>
        <time>2019-05-04T13:02:31Z</time>
      </trkpt>
      <trkpt lat="46.76657" lon="6.46239">
        <ele>1487</ele>
        <time>2019-05-04T13:02:38Z</time>
      </trkpt>
      <trkpt lat="46.76641" lon="6.46225">
        <ele>1485</ele>
        <time>2019-05-04T13:02:51Z</time>
      </trkpt>
      <trkpt lat="46.76632" lon="6.46217">
        <ele>1484</ele>
        <time>2019-05-04T13:02:59Z</time>
      </trkpt>
      <trkpt lat="46.76622" lon="6.46207">
        <ele>1482</ele>
        <time>2019-05-04T13:03:08Z</time>
      </trkpt>
      <trkpt lat="46.76618" lon="6.46202">
        <ele>1482</ele>
        <time>2019-05-04T13:03:12Z</time>
      </trkpt>
      <trkpt lat="46.76615" lon="6.46196">
        <ele>1482</ele>
        <time>2019-05-04T13:03:15Z</time>
      </trkpt>
      <trkpt lat="46.76612" lon="6.4619">
        <ele>1482</ele>
        <time>2019-05-04T13:03:19Z</time>
      </trkpt>
      <trkpt lat="46.76598" lon="6.46171">
        <ele>1479</ele>
        <time>2019-05-04T13:03:33Z</time>
      </trkpt>
      <trkpt lat="46.76594" lon="6.4616">
        <ele>1479</ele>
        <time>2019-05-04T13:03:39Z</time>
      </trkpt>
      <trkpt lat="46.76585" lon="6.46137">
        <ele>1479</ele>
        <time>2019-05-04T13:03:52Z</time>
      </trkpt>
      <trkpt lat="46.76582" lon="6.46119">
        <ele>1480</ele>
        <time>2019-05-04T13:04:01Z</time>
      </trkpt>
      <trkpt lat="46.76576" lon="6.461">
        <ele>1480</ele>
        <time>2019-05-04T13:04:12Z</time>
      </trkpt>
      <trkpt lat="46.76573" lon="6.46093">
        <ele>1480</ele>
        <time>2019-05-04T13:04:16Z</time>
      </trkpt>
      <trkpt lat="46.76572" lon="6.46088">
        <ele>1480</ele>
        <time>2019-05-04T13:04:18Z</time>
      </trkpt>
      <trkpt lat="46.76565" lon="6.46064">
        <ele>1479</ele>
        <time>2019-05-04T13:04:32Z</time>
      </trkpt>
      <trkpt lat="46.76562" lon="6.46058">
        <ele>1479</ele>
        <time>2019-05-04T13:04:35Z</time>
      </trkpt>
      <trkpt lat="46.7656" lon="6.46051">
        <ele>1479</ele>
        <time>2019-05-04T13:04:39Z</time>
      </trkpt>
      <trkpt lat="46.76557" lon="6.46035">
        <ele>1479</ele>
        <time>2019-05-04T13:04:47Z</time>
      </trkpt>
      <trkpt lat="46.76555" lon="6.46025">
        <ele>1479</ele>
        <time>2019-05-04T13:04:52Z</time>
      </trkpt>
      <trkpt lat="46.76548" lon="6.45998">
        <ele>1477</ele>
        <time>2019-05-04T13:05:06Z</time>
      </trkpt>
      <trkpt lat="46.76546" lon="6.45989">
        <ele>1476</ele>
        <time>2019-05-04T13:05:11Z</time>
      </trkpt>
      <trkpt lat="46.76544" lon="6.45982">
        <ele>1476</ele>
        <time>2019-05-04T13:05:15Z</time>
      </trkpt>
      <trkpt lat="46.76542" lon="6.4597">
        <ele>1475</ele>
        <time>2019-05-04T13:05:21Z</time>
      </trkpt>
      <trkpt lat="46.76537" lon="6.45962">
        <ele>1474</ele>
        <time>2019-05-04T13:05:26Z</time>
      </trkpt>
      <trkpt lat="46.76533" lon="6.45955">
        <ele>1473</ele>
        <time>2019-05-04T13:05:31Z</time>
      </trkpt>
      <trkpt lat="46.76529" lon="6.45947">
        <ele>1473</ele>
        <time>2019-05-04T13:05:36Z</time>
      </trkpt>
      <trkpt lat="46.76527" lon="6.45941">
        <ele>1472</ele>
        <time>2019-05-04T13:05:39Z</time>
      </trkpt>
      <trkpt lat="46.76526" lon="6.45934">
        <ele>1472</ele>
        <time>2019-05-04T13:05:43Z</time>
      </trkpt>
      <trkpt lat="46.76526" lon="6.45927">
        <ele>1471</ele>
        <time>2019-05-04T13:05:47Z</time>
      </trkpt>
      <trkpt lat="46.76524" lon="6.45919">
        <ele>1470</ele>
        <time>2019-05-04T13:05:51Z</time>
      </trkpt>
      <trkpt lat="46.76522" lon="6.45911">
        <ele>1469</ele>
        <time>2019-05-04T13:05:55Z</time>
      </trkpt>
      <trkpt lat="46.7652" lon="6.45903">
        <ele>1468</ele>
        <time>2019-05-04T13:05:59Z</time>
      </trkpt>
      <trkpt lat="46.76518" lon="6.45891">
        <ele>1467</ele>
        <time>2019-05-04T13:06:05Z</time>
      </trkpt>
      <trkpt lat="46.76508" lon="6.4587">
        <ele>1463</ele>
        <time>2019-05-04T13:06:19Z</time>
      </trkpt>
      <trkpt lat="46.76502" lon="6.45865">
        <ele>1461</ele>
        <time>2019-05-04T13:06:23Z</time>
      </trkpt>
      <trkpt lat="46.76497" lon="6.45861">
        <ele>1459</ele>
        <time>2019-05-04T13:06:28Z</time>
      </trkpt>
      <trkpt lat="46.76493" lon="6.45858">
        <ele>1458</ele>
        <time>2019-05-04T13:06:31Z</time>
      </trkpt>
      <trkpt lat="46.76489" lon="6.45854">
        <ele>1456</ele>
        <time>2019-05-04T13:06:35Z</time>
      </trkpt>
      <trkpt lat="46.76484" lon="6.45848">
        <ele>1454</ele>
        <time>2019-05-04T13:06:40Z</time>
      </trkpt>
      <trkpt lat="46.76478" lon="6.45841">
        <ele>1451</ele>
        <time>2019-05-04T13:06:46Z</time>
      </trkpt>
      <trkpt lat="46.76476" lon="6.45834">
        <ele>1450</ele>
        <time>2019-05-04T13:06:49Z</time>
      </trkpt>
      <trkpt lat="46.76477" lon="6.45827">
        <ele>1449</ele>
        <time>2019-05-04T13:06:53Z</time>
      </trkpt>
      <trkpt lat="46.76478" lon="6.45815">
        <ele>1448</ele>
        <time>2019-05-04T13:06:59Z</time>
      </trkpt>
      <trkpt lat="46.76477" lon="6.4581">
        <ele>1447</ele>
        <time>2019-05-04T13:07:02Z</time>
      </trkpt>
      <trkpt lat="46.76476" lon="6.45805">
        <ele>1446</ele>
        <time>2019-05-04T13:07:04Z</time>
      </trkpt>
      <trkpt lat="46.76475" lon="6.45797">
        <ele>1445</ele>
        <time>2019-05-04T13:07:09Z</time>
      </trkpt>
      <trkpt lat="46.76475" lon="6.45791">
        <ele>1444</ele>
        <time>2019-05-04T13:07:12Z</time>
      </trkpt>
      <trkpt lat="46.76475" lon="6.45788">
        <ele>1443</ele>
        <time>2019-05-04T13:07:13Z</time>
      </trkpt>
      <trkpt lat="46.76474" lon="6.4578">
        <ele>1442</ele>
        <time>2019-05-04T13:07:17Z</time>
      </trkpt>
      <trkpt lat="46.76473" lon="6.45771">
        <ele>1441</ele>
        <time>2019-05-04T13:07:22Z</time>
      </trkpt>
      <trkpt lat="46.76471" lon="6.45763">
        <ele>1439</ele>
        <time>2019-05-04T13:07:26Z</time>
      </trkpt>
      <trkpt lat="46.7647" lon="6.45758">
        <ele>1438</ele>
        <time>2019-05-04T13:07:29Z</time>
      </trkpt>
      <trkpt lat="46.76468" lon="6.45753">
        <ele>1437</ele>
        <time>2019-05-04T13:07:32Z</time>
      </trkpt>
      <trkpt lat="46.76468" lon="6.45747">
        <ele>1436</ele>
        <time>2019-05-04T13:07:35Z</time>
      </trkpt>
      <trkpt lat="46.7647" lon="6.45739">
        <ele>1435</ele>
        <time>2019-05-04T13:07:39Z</time>
      </trkpt>
      <trkpt lat="46.7647" lon="6.45734">
        <ele>1434</ele>
        <time>2019-05-04T13:07:41Z</time>
      </trkpt>
      <trkpt lat="46.76471" lon="6.45729">
        <ele>1433</ele>
        <time>2019-05-04T13:07:44Z</time>
      </trkpt>
      <trkpt lat="46.76472" lon="6.45727">
        <ele>1433</ele>
        <time>2019-05-04T13:07:45Z</time>
      </trkpt>
      <trkpt lat="46.76473" lon="6.45724">
        <ele>1432</ele>
        <time>2019-05-04T13:07:47Z</time>
      </trkpt>
      <trkpt lat="46.76475" lon="6.45719">
        <ele>1432</ele>
        <time>2019-05-04T13:07:50Z</time>
      </trkpt>
      <trkpt lat="46.76478" lon="6.45714">
        <ele>1431</ele>
        <time>2019-05-04T13:07:54Z</time>
      </trkpt>
      <trkpt lat="46.76481" lon="6.4571">
        <ele>1431</ele>
        <time>2019-05-04T13:07:56Z</time>
      </trkpt>
      <trkpt lat="46.76485" lon="6.45704">
        <ele>1430</ele>
        <time>2019-05-04T13:08:01Z</time>
      </trkpt>
      <trkpt lat="46.76488" lon="6.45701">
        <ele>1430</ele>
        <time>2019-05-04T13:08:03Z</time>
      </trkpt>
      <trkpt lat="46.7649" lon="6.45698">
        <ele>1429</ele>
        <time>2019-05-04T13:08:05Z</time>
      </trkpt>
      <trkpt lat="46.76494" lon="6.45696">
        <ele>1429</ele>
        <time>2019-05-04T13:08:09Z</time>
      </trkpt>
      <trkpt lat="46.76496" lon="6.45695">
        <ele>1429</ele>
        <time>2019-05-04T13:08:10Z</time>
      </trkpt>
      <trkpt lat="46.76497" lon="6.45695">
        <ele>1429</ele>
        <time>2019-05-04T13:08:10Z</time>
      </trkpt>
      <trkpt lat="46.76499" lon="6.45692">
        <ele>1428</ele>
        <time>2019-05-04T13:08:13Z</time>
      </trkpt>
      <trkpt lat="46.76498" lon="6.4569">
        <ele>1428</ele>
        <time>2019-05-04T13:08:14Z</time>
      </trkpt>
      <trkpt lat="46.76495" lon="6.45686">
        <ele>1427</ele>
        <time>2019-05-04T13:08:16Z</time>
      </trkpt>
      <trkpt lat="46.7649" lon="6.4568">
        <ele>1425</ele>
        <time>2019-05-04T13:08:21Z</time>
      </trkpt>
      <trkpt lat="46.76489" lon="6.45678">
        <ele>1424</ele>
        <time>2019-05-04T13:08:23Z</time>
      </trkpt>
      <trkpt lat="46.76488" lon="6.45677">
        <ele>1424</ele>
        <time>2019-05-04T13:08:24Z</time>
      </trkpt>
      <trkpt lat="46.76486" lon="6.45674">
        <ele>1423</ele>
        <time>2019-05-04T13:08:26Z</time>
      </trkpt>
      <trkpt lat="46.76483" lon="6.45671">
        <ele>1422</ele>
        <time>2019-05-04T13:08:28Z</time>
      </trkpt>
      <trkpt lat="46.76478" lon="6.45666">
        <ele>1420</ele>
        <time>2019-05-04T13:08:33Z</time>
      </trkpt>
      <trkpt lat="46.76475" lon="6.45663">
        <ele>1420</ele>
        <time>2019-05-04T13:08:36Z</time>
      </trkpt>
      <trkpt lat="46.76472" lon="6.45657">
        <ele>1418</ele>
        <time>2019-05-04T13:08:40Z</time>
      </trkpt>
      <trkpt lat="46.76469" lon="6.45652">
        <ele>1417</ele>
        <time>2019-05-04T13:08:43Z</time>
      </trkpt>
      <trkpt lat="46.76467" lon="6.45648">
        <ele>1416</ele>
        <time>2019-05-04T13:08:46Z</time>
      </trkpt>
      <trkpt lat="46.76464" lon="6.45643">
        <ele>1415</ele>
        <time>2019-05-04T13:08:49Z</time>
      </trkpt>
      <trkpt lat="46.76462" lon="6.45638">
        <ele>1414</ele>
        <time>2019-05-04T13:08:52Z</time>
      </trkpt>
      <trkpt lat="46.76459" lon="6.45635">
        <ele>1413</ele>
        <time>2019-05-04T13:08:55Z</time>
      </trkpt>
      <trkpt lat="46.76449" lon="6.45628">
        <ele>1412</ele>
        <time>2019-05-04T13:09:02Z</time>
      </trkpt>
      <trkpt lat="46.76446" lon="6.45626">
        <ele>1412</ele>
        <time>2019-05-04T13:09:05Z</time>
      </trkpt>
      <trkpt lat="46.76444" lon="6.45622">
        <ele>1411</ele>
        <time>2019-05-04T13:09:07Z</time>
      </trkpt>
      <trkpt lat="46.76444" lon="6.45619">
        <ele>1410</ele>
        <time>2019-05-04T13:09:09Z</time>
      </trkpt>
      <trkpt lat="46.76444" lon="6.45615">
        <ele>1409</ele>
        <time>2019-05-04T13:09:11Z</time>
      </trkpt>
      <trkpt lat="46.76443" lon="6.45613">
        <ele>1409</ele>
        <time>2019-05-04T13:09:12Z</time>
      </trkpt>
      <trkpt lat="46.76441" lon="6.4561">
        <ele>1408</ele>
        <time>2019-05-04T13:09:15Z</time>
      </trkpt>
      <trkpt lat="46.76438" lon="6.45607">
        <ele>1407</ele>
        <time>2019-05-04T13:09:17Z</time>
      </trkpt>
      <trkpt lat="46.76435" lon="6.45604">
        <ele>1406</ele>
        <time>2019-05-04T13:09:20Z</time>
      </trkpt>
      <trkpt lat="46.76434" lon="6.45604">
        <ele>1406</ele>
        <time>2019-05-04T13:09:21Z</time>
      </trkpt>
      <trkpt lat="46.76433" lon="6.45603">
        <ele>1406</ele>
        <time>2019-05-04T13:09:21Z</time>
      </trkpt>
      <trkpt lat="46.76432" lon="6.45601">
        <ele>1405</ele>
        <time>2019-05-04T13:09:23Z</time>
      </trkpt>
      <trkpt lat="46.76431" lon="6.45601">
        <ele>1405</ele>
        <time>2019-05-04T13:09:23Z</time>
      </trkpt>
      <trkpt lat="46.76423" lon="6.45598">
        <ele>1404</ele>
        <time>2019-05-04T13:09:29Z</time>
      </trkpt>
      <trkpt lat="46.76418" lon="6.45591">
        <ele>1402</ele>
        <time>2019-05-04T13:09:35Z</time>
      </trkpt>
      <trkpt lat="46.76417" lon="6.4559">
        <ele>1402</ele>
        <time>2019-05-04T13:09:35Z</time>
      </trkpt>
      <trkpt lat="46.76416" lon="6.45588">
        <ele>1401</ele>
        <time>2019-05-04T13:09:37Z</time>
      </trkpt>
      <trkpt lat="46.76416" lon="6.45584">
        <ele>1400</ele>
        <time>2019-05-04T13:09:38Z</time>
      </trkpt>
      <trkpt lat="46.76415" lon="6.45583">
        <ele>1400</ele>
        <time>2019-05-04T13:09:39Z</time>
      </trkpt>
      <trkpt lat="46.76415" lon="6.45581">
        <ele>1399</ele>
        <time>2019-05-04T13:09:41Z</time>
      </trkpt>
      <trkpt lat="46.76417" lon="6.45579">
        <ele>1399</ele>
        <time>2019-05-04T13:09:42Z</time>
      </trkpt>
      <trkpt lat="46.76417" lon="6.45578">
        <ele>1399</ele>
        <time>2019-05-04T13:09:42Z</time>
      </trkpt>
      <trkpt lat="46.76419" lon="6.45574">
        <ele>1398</ele>
        <time>2019-05-04T13:09:45Z</time>
      </trkpt>
      <trkpt lat="46.76419" lon="6.45567">
        <ele>1396</ele>
        <time>2019-05-04T13:09:48Z</time>
      </trkpt>
      <trkpt lat="46.76418" lon="6.45565">
        <ele>1396</ele>
        <time>2019-05-04T13:09:50Z</time>
      </trkpt>
      <trkpt lat="46.76416" lon="6.45556">
        <ele>1394</ele>
        <time>2019-05-04T13:09:55Z</time>
      </trkpt>
      <trkpt lat="46.76412" lon="6.45548">
        <ele>1392</ele>
        <time>2019-05-04T13:09:59Z</time>
      </trkpt>
      <trkpt lat="46.76406" lon="6.45541">
        <ele>1390</ele>
        <time>2019-05-04T13:10:05Z</time>
      </trkpt>
      <trkpt lat="46.764" lon="6.45534">
        <ele>1389</ele>
        <time>2019-05-04T13:10:11Z</time>
      </trkpt>
      <trkpt lat="46.76397" lon="6.45532">
        <ele>1388</ele>
        <time>2019-05-04T13:10:13Z</time>
      </trkpt>
      <trkpt lat="46.76395" lon="6.4553">
        <ele>1388</ele>
        <time>2019-05-04T13:10:15Z</time>
      </trkpt>
      <trkpt lat="46.76391" lon="6.45527">
        <ele>1388</ele>
        <time>2019-05-04T13:10:18Z</time>
      </trkpt>
      <trkpt lat="46.76387" lon="6.45522">
        <ele>1386</ele>
        <time>2019-05-04T13:10:22Z</time>
      </trkpt>
      <trkpt lat="46.76385" lon="6.45519">
        <ele>1386</ele>
        <time>2019-05-04T13:10:24Z</time>
      </trkpt>
      <trkpt lat="46.76383" lon="6.45513">
        <ele>1384</ele>
        <time>2019-05-04T13:10:28Z</time>
      </trkpt>
      <trkpt lat="46.7638" lon="6.45507">
        <ele>1382</ele>
        <time>2019-05-04T13:10:32Z</time>
      </trkpt>
      <trkpt lat="46.76378" lon="6.45501">
        <ele>1380</ele>
        <time>2019-05-04T13:10:35Z</time>
      </trkpt>
      <trkpt lat="46.76377" lon="6.45498">
        <ele>1379</ele>
        <time>2019-05-04T13:10:37Z</time>
      </trkpt>
      <trkpt lat="46.76375" lon="6.45495">
        <ele>1378</ele>
        <time>2019-05-04T13:10:39Z</time>
      </trkpt>
      <trkpt lat="46.76372" lon="6.45489">
        <ele>1377</ele>
        <time>2019-05-04T13:10:43Z</time>
      </trkpt>
      <trkpt lat="46.76369" lon="6.45483">
        <ele>1375</ele>
        <time>2019-05-04T13:10:47Z</time>
      </trkpt>
      <trkpt lat="46.76365" lon="6.45478">
        <ele>1373</ele>
        <time>2019-05-04T13:10:51Z</time>
      </trkpt>
      <trkpt lat="46.76363" lon="6.45475">
        <ele>1373</ele>
        <time>2019-05-04T13:10:53Z</time>
      </trkpt>
      <trkpt lat="46.76361" lon="6.45473">
        <ele>1372</ele>
        <time>2019-05-04T13:10:55Z</time>
      </trkpt>
      <trkpt lat="46.76357" lon="6.45469">
        <ele>1370</ele>
        <time>2019-05-04T13:10:59Z</time>
      </trkpt>
      <trkpt lat="46.76355" lon="6.45465">
        <ele>1369</ele>
        <time>2019-05-04T13:11:01Z</time>
      </trkpt>
      <trkpt lat="46.76354" lon="6.45464">
        <ele>1369</ele>
        <time>2019-05-04T13:11:02Z</time>
      </trkpt>
      <trkpt lat="46.76342" lon="6.45461">
        <ele>1367</ele>
        <time>2019-05-04T13:11:11Z</time>
      </trkpt>
      <trkpt lat="46.76337" lon="6.45458">
        <ele>1366</ele>
        <time>2019-05-04T13:11:15Z</time>
      </trkpt>
      <trkpt lat="46.76336" lon="6.45457">
        <ele>1365</ele>
        <time>2019-05-04T13:11:16Z</time>
      </trkpt>
      <trkpt lat="46.7633" lon="6.45455">
        <ele>1364</ele>
        <time>2019-05-04T13:11:20Z</time>
      </trkpt>
      <trkpt lat="46.76319" lon="6.45451">
        <ele>1363</ele>
        <time>2019-05-04T13:11:28Z</time>
      </trkpt>
      <trkpt lat="46.76312" lon="6.45449">
        <ele>1362</ele>
        <time>2019-05-04T13:11:34Z</time>
      </trkpt>
      <trkpt lat="46.7631" lon="6.45448">
        <ele>1362</ele>
        <time>2019-05-04T13:11:35Z</time>
      </trkpt>
      <trkpt lat="46.76307" lon="6.45443">
        <ele>1360</ele>
        <time>2019-05-04T13:11:39Z</time>
      </trkpt>
      <trkpt lat="46.76303" lon="6.4544">
        <ele>1360</ele>
        <time>2019-05-04T13:11:42Z</time>
      </trkpt>
      <trkpt lat="46.76299" lon="6.45436">
        <ele>1359</ele>
        <time>2019-05-04T13:11:46Z</time>
      </trkpt>
      <trkpt lat="46.76291" lon="6.45431">
        <ele>1357</ele>
        <time>2019-05-04T13:11:52Z</time>
      </trkpt>
      <trkpt lat="46.76286" lon="6.45429">
        <ele>1357</ele>
        <time>2019-05-04T13:11:56Z</time>
      </trkpt>
      <trkpt lat="46.76279" lon="6.45425">
        <ele>1355</ele>
        <time>2019-05-04T13:12:01Z</time>
      </trkpt>
      <trkpt lat="46.76273" lon="6.45425">
        <ele>1354</ele>
        <time>2019-05-04T13:12:06Z</time>
      </trkpt>
      <trkpt lat="46.76272" lon="6.45423">
        <ele>1354</ele>
        <time>2019-05-04T13:12:07Z</time>
      </trkpt>
      <trkpt lat="46.7627" lon="6.45421">
        <ele>1353</ele>
        <time>2019-05-04T13:12:08Z</time>
      </trkpt>
      <trkpt lat="46.76269" lon="6.45417">
        <ele>1352</ele>
        <time>2019-05-04T13:12:11Z</time>
      </trkpt>
      <trkpt lat="46.76268" lon="6.45414">
        <ele>1351</ele>
        <time>2019-05-04T13:12:13Z</time>
      </trkpt>
      <trkpt lat="46.76264" lon="6.45411">
        <ele>1350</ele>
        <time>2019-05-04T13:12:16Z</time>
      </trkpt>
      <trkpt lat="46.76259" lon="6.45409">
        <ele>1349</ele>
        <time>2019-05-04T13:12:20Z</time>
      </trkpt>
      <trkpt lat="46.76256" lon="6.45408">
        <ele>1348</ele>
        <time>2019-05-04T13:12:22Z</time>
      </trkpt>
      <trkpt lat="46.76249" lon="6.45403">
        <ele>1346</ele>
        <time>2019-05-04T13:12:28Z</time>
      </trkpt>
      <trkpt lat="46.76241" lon="6.45399">
        <ele>1345</ele>
        <time>2019-05-04T13:12:34Z</time>
      </trkpt>
      <trkpt lat="46.76233" lon="6.45392">
        <ele>1343</ele>
        <time>2019-05-04T13:12:41Z</time>
      </trkpt>
      <trkpt lat="46.76225" lon="6.45388">
        <ele>1341</ele>
        <time>2019-05-04T13:12:47Z</time>
      </trkpt>
      <trkpt lat="46.76218" lon="6.45385">
        <ele>1340</ele>
        <time>2019-05-04T13:12:52Z</time>
      </trkpt>
      <trkpt lat="46.76214" lon="6.45383">
        <ele>1340</ele>
        <time>2019-05-04T13:12:55Z</time>
      </trkpt>
      <trkpt lat="46.76211" lon="6.45381">
        <ele>1339</ele>
        <time>2019-05-04T13:12:58Z</time>
      </trkpt>
      <trkpt lat="46.76206" lon="6.45378">
        <ele>1339</ele>
        <time>2019-05-04T13:13:02Z</time>
      </trkpt>
      <trkpt lat="46.76203" lon="6.45377">
        <ele>1338</ele>
        <time>2019-05-04T13:13:04Z</time>
      </trkpt>
      <trkpt lat="46.76199" lon="6.45376">
        <ele>1338</ele>
        <time>2019-05-04T13:13:07Z</time>
      </trkpt>
      <trkpt lat="46.76183" lon="6.45364">
        <ele>1335</ele>
        <time>2019-05-04T13:13:20Z</time>
      </trkpt>
      <trkpt lat="46.76176" lon="6.4536">
        <ele>1334</ele>
        <time>2019-05-04T13:13:25Z</time>
      </trkpt>
      <trkpt lat="46.76174" lon="6.45357">
        <ele>1334</ele>
        <time>2019-05-04T13:13:28Z</time>
      </trkpt>
      <trkpt lat="46.76171" lon="6.45348">
        <ele>1333</ele>
        <time>2019-05-04T13:13:33Z</time>
      </trkpt>
      <trkpt lat="46.76168" lon="6.45343">
        <ele>1333</ele>
        <time>2019-05-04T13:13:36Z</time>
      </trkpt>
      <trkpt lat="46.76166" lon="6.45339">
        <ele>1333</ele>
        <time>2019-05-04T13:13:38Z</time>
      </trkpt>
      <trkpt lat="46.76166" lon="6.45338">
        <ele>1333</ele>
        <time>2019-05-04T13:13:39Z</time>
      </trkpt>
      <trkpt lat="46.76163" lon="6.45341">
        <ele>1333</ele>
        <time>2019-05-04T13:13:41Z</time>
      </trkpt>
      <trkpt lat="46.76161" lon="6.45342">
        <ele>1332</ele>
        <time>2019-05-04T13:13:43Z</time>
      </trkpt>
      <trkpt lat="46.76151" lon="6.45348">
        <ele>1332</ele>
        <time>2019-05-04T13:13:50Z</time>
      </trkpt>
      <trkpt lat="46.76151" lon="6.45348">
        <ele>1332</ele>
        <time>2019-05-04T13:13:51Z</time>
      </trkpt>
      <trkpt lat="46.76148" lon="6.45348">
        <ele>1332</ele>
        <time>2019-05-04T13:13:53Z</time>
      </trkpt>
      <trkpt lat="46.76135" lon="6.45338">
        <ele>1331</ele>
        <time>2019-05-04T13:14:03Z</time>
      </trkpt>
      <trkpt lat="46.76133" lon="6.45339">
        <ele>1331</ele>
        <time>2019-05-04T13:14:05Z</time>
      </trkpt>
      <trkpt lat="46.76131" lon="6.45338">
        <ele>1331</ele>
        <time>2019-05-04T13:14:06Z</time>
      </trkpt>
      <trkpt lat="46.76124" lon="6.45333">
        <ele>1331</ele>
        <time>2019-05-04T13:14:12Z</time>
      </trkpt>
      <trkpt lat="46.76123" lon="6.4533">
        <ele>1331</ele>
        <time>2019-05-04T13:14:14Z</time>
      </trkpt>
      <trkpt lat="46.76128" lon="6.45333">
        <ele>1331</ele>
        <time>2019-05-04T13:14:18Z</time>
      </trkpt>
      <trkpt lat="46.76133" lon="6.45334">
        <ele>1331</ele>
        <time>2019-05-04T13:14:21Z</time>
      </trkpt>
      <trkpt lat="46.76138" lon="6.45334">
        <ele>1331</ele>
        <time>2019-05-04T13:14:25Z</time>
      </trkpt>
      <trkpt lat="46.76141" lon="6.45334">
        <ele>1331</ele>
        <time>2019-05-04T13:14:27Z</time>
      </trkpt>
      <trkpt lat="46.76145" lon="6.45335">
        <ele>1332</ele>
        <time>2019-05-04T13:14:30Z</time>
      </trkpt>
      <trkpt lat="46.76146" lon="6.45334">
        <ele>1332</ele>
        <time>2019-05-04T13:14:31Z</time>
      </trkpt>
      <trkpt lat="46.76147" lon="6.45328">
        <ele>1332</ele>
        <time>2019-05-04T13:14:33Z</time>
      </trkpt>
      <trkpt lat="46.76147" lon="6.45327">
        <ele>1332</ele>
        <time>2019-05-04T13:14:34Z</time>
      </trkpt>
      <trkpt lat="46.76145" lon="6.45325">
        <ele>1332</ele>
        <time>2019-05-04T13:14:36Z</time>
      </trkpt>
      <trkpt lat="46.76144" lon="6.45296">
        <ele>1332</ele>
        <time>2019-05-04T13:14:50Z</time>
      </trkpt>
      <trkpt lat="46.76144" lon="6.4529">
        <ele>1332</ele>
        <time>2019-05-04T13:14:53Z</time>
      </trkpt>
      <trkpt lat="46.76143" lon="6.45278">
        <ele>1333</ele>
        <time>2019-05-04T13:14:59Z</time>
      </trkpt>
      <trkpt lat="46.76138" lon="6.45252">
        <ele>1335</ele>
        <time>2019-05-04T13:15:13Z</time>
      </trkpt>
      <trkpt lat="46.76137" lon="6.45244">
        <ele>1335</ele>
        <time>2019-05-04T13:15:16Z</time>
      </trkpt>
      <trkpt lat="46.76135" lon="6.45233">
        <ele>1336</ele>
        <time>2019-05-04T13:15:22Z</time>
      </trkpt>
      <trkpt lat="46.76135" lon="6.45205">
        <ele>1339</ele>
        <time>2019-05-04T13:15:36Z</time>
      </trkpt>
      <trkpt lat="46.76136" lon="6.45201">
        <ele>1339</ele>
        <time>2019-05-04T13:15:38Z</time>
      </trkpt>
      <trkpt lat="46.76138" lon="6.45185">
        <ele>1339</ele>
        <time>2019-05-04T13:15:47Z</time>
      </trkpt>
      <trkpt lat="46.7614" lon="6.45158">
        <ele>1340</ele>
        <time>2019-05-04T13:16:00Z</time>
      </trkpt>
      <trkpt lat="46.76141" lon="6.4514">
        <ele>1341</ele>
        <time>2019-05-04T13:16:09Z</time>
      </trkpt>
      <trkpt lat="46.76142" lon="6.45113">
        <ele>1342</ele>
        <time>2019-05-04T13:16:22Z</time>
      </trkpt>
      <trkpt lat="46.76141" lon="6.45085">
        <ele>1341</ele>
        <time>2019-05-04T13:16:36Z</time>
      </trkpt>
      <trkpt lat="46.76133" lon="6.45058">
        <ele>1341</ele>
        <time>2019-05-04T13:16:51Z</time>
      </trkpt>
      <trkpt lat="46.76125" lon="6.45032">
        <ele>1341</ele>
        <time>2019-05-04T13:17:05Z</time>
      </trkpt>
      <trkpt lat="46.76124" lon="6.45024">
        <ele>1341</ele>
        <time>2019-05-04T13:17:09Z</time>
      </trkpt>
      <trkpt lat="46.76118" lon="6.45002">
        <ele>1339</ele>
        <time>2019-05-04T13:17:21Z</time>
      </trkpt>
      <trkpt lat="46.76106" lon="6.44979">
        <ele>1338</ele>
        <time>2019-05-04T13:17:35Z</time>
      </trkpt>
      <trkpt lat="46.76105" lon="6.44976">
        <ele>1337</ele>
        <time>2019-05-04T13:17:37Z</time>
      </trkpt>
      <trkpt lat="46.76096" lon="6.44953">
        <ele>1335</ele>
        <time>2019-05-04T13:17:50Z</time>
      </trkpt>
      <trkpt lat="46.76081" lon="6.44933">
        <ele>1334</ele>
        <time>2019-05-04T13:18:05Z</time>
      </trkpt>
      <trkpt lat="46.76067" lon="6.44912">
        <ele>1333</ele>
        <time>2019-05-04T13:18:19Z</time>
      </trkpt>
      <trkpt lat="46.76061" lon="6.44903">
        <ele>1332</ele>
        <time>2019-05-04T13:18:25Z</time>
      </trkpt>
      <trkpt lat="46.76048" lon="6.44888">
        <ele>1331</ele>
        <time>2019-05-04T13:18:37Z</time>
      </trkpt>
      <trkpt lat="46.76038" lon="6.4488">
        <ele>1330</ele>
        <time>2019-05-04T13:18:46Z</time>
      </trkpt>
      <trkpt lat="46.76022" lon="6.44871">
        <ele>1328</ele>
        <time>2019-05-04T13:18:58Z</time>
      </trkpt>
      <trkpt lat="46.76007" lon="6.44867">
        <ele>1327</ele>
        <time>2019-05-04T13:19:09Z</time>
      </trkpt>
      <trkpt lat="46.75992" lon="6.44862">
        <ele>1325</ele>
        <time>2019-05-04T13:19:20Z</time>
      </trkpt>
      <trkpt lat="46.75971" lon="6.44856">
        <ele>1324</ele>
        <time>2019-05-04T13:19:36Z</time>
      </trkpt>
      <trkpt lat="46.75954" lon="6.44847">
        <ele>1323</ele>
        <time>2019-05-04T13:19:49Z</time>
      </trkpt>
      <trkpt lat="46.75949" lon="6.44844">
        <ele>1323</ele>
        <time>2019-05-04T13:19:53Z</time>
      </trkpt>
      <trkpt lat="46.75937" lon="6.44838">
        <ele>1323</ele>
        <time>2019-05-04T13:20:02Z</time>
      </trkpt>
      <trkpt lat="46.75918" lon="6.44833">
        <ele>1323</ele>
        <time>2019-05-04T13:20:16Z</time>
      </trkpt>
      <trkpt lat="46.75899" lon="6.4483">
        <ele>1324</ele>
        <time>2019-05-04T13:20:30Z</time>
      </trkpt>
      <trkpt lat="46.75891" lon="6.44815">
        <ele>1323</ele>
        <time>2019-05-04T13:20:39Z</time>
      </trkpt>
      <trkpt lat="46.759" lon="6.44789">
        <ele>1323</ele>
        <time>2019-05-04T13:20:53Z</time>
      </trkpt>
      <trkpt lat="46.75908" lon="6.44763">
        <ele>1326</ele>
        <time>2019-05-04T13:21:07Z</time>
      </trkpt>
      <trkpt lat="46.75915" lon="6.4474">
        <ele>1330</ele>
        <time>2019-05-04T13:21:20Z</time>
      </trkpt>
      <trkpt lat="46.75918" lon="6.44731">
        <ele>1332</ele>
        <time>2019-05-04T13:21:25Z</time>
      </trkpt>
      <trkpt lat="46.7592" lon="6.44724">
        <ele>1333</ele>
        <time>2019-05-04T13:21:29Z</time>
      </trkpt>
      <trkpt lat="46.75927" lon="6.44712">
        <ele>1336</ele>
        <time>2019-05-04T13:21:37Z</time>
      </trkpt>
      <trkpt lat="46.75927" lon="6.4471">
        <ele>1336</ele>
        <time>2019-05-04T13:21:38Z</time>
      </trkpt>
      <trkpt lat="46.75929" lon="6.44703">
        <ele>1338</ele>
        <time>2019-05-04T13:21:42Z</time>
      </trkpt>
      <trkpt lat="46.75928" lon="6.44701">
        <ele>1338</ele>
        <time>2019-05-04T13:21:43Z</time>
      </trkpt>
      <trkpt lat="46.75928" lon="6.44701">
        <ele>1338</ele>
        <time>2019-05-04T13:21:43Z</time>
      </trkpt>
      <trkpt lat="46.75928" lon="6.44699">
        <ele>1339</ele>
        <time>2019-05-04T13:21:44Z</time>
      </trkpt>
      <trkpt lat="46.75928" lon="6.44691">
        <ele>1340</ele>
        <time>2019-05-04T13:21:48Z</time>
      </trkpt>
      <trkpt lat="46.75928" lon="6.4469">
        <ele>1340</ele>
        <time>2019-05-04T13:21:49Z</time>
      </trkpt>
      <trkpt lat="46.75929" lon="6.44688">
        <ele>1341</ele>
        <time>2019-05-04T13:21:50Z</time>
      </trkpt>
      <trkpt lat="46.75929" lon="6.44685">
        <ele>1342</ele>
        <time>2019-05-04T13:21:52Z</time>
      </trkpt>
      <trkpt lat="46.7593" lon="6.44684">
        <ele>1342</ele>
        <time>2019-05-04T13:21:53Z</time>
      </trkpt>
      <trkpt lat="46.75932" lon="6.4468">
        <ele>1343</ele>
        <time>2019-05-04T13:21:56Z</time>
      </trkpt>
      <trkpt lat="46.75933" lon="6.44679">
        <ele>1343</ele>
        <time>2019-05-04T13:21:56Z</time>
      </trkpt>
      <trkpt lat="46.75934" lon="6.44675">
        <ele>1344</ele>
        <time>2019-05-04T13:21:58Z</time>
      </trkpt>
      <trkpt lat="46.75935" lon="6.44673">
        <ele>1345</ele>
        <time>2019-05-04T13:22:00Z</time>
      </trkpt>
      <trkpt lat="46.75936" lon="6.44671">
        <ele>1345</ele>
        <time>2019-05-04T13:22:01Z</time>
      </trkpt>
      <trkpt lat="46.75937" lon="6.44669">
        <ele>1345</ele>
        <time>2019-05-04T13:22:02Z</time>
      </trkpt>
      <trkpt lat="46.75939" lon="6.44666">
        <ele>1346</ele>
        <time>2019-05-04T13:22:04Z</time>
      </trkpt>
      <trkpt lat="46.75941" lon="6.44666">
        <ele>1347</ele>
        <time>2019-05-04T13:22:06Z</time>
      </trkpt>
      <trkpt lat="46.75943" lon="6.44664">
        <ele>1347</ele>
        <time>2019-05-04T13:22:07Z</time>
      </trkpt>
      <trkpt lat="46.75946" lon="6.44665">
        <ele>1347</ele>
        <time>2019-05-04T13:22:10Z</time>
      </trkpt>
      <trkpt lat="46.75948" lon="6.44666">
        <ele>1347</ele>
        <time>2019-05-04T13:22:11Z</time>
      </trkpt>
      <trkpt lat="46.75953" lon="6.44667">
        <ele>1347</ele>
        <time>2019-05-04T13:22:15Z</time>
      </trkpt>
      <trkpt lat="46.75958" lon="6.44667">
        <ele>1347</ele>
        <time>2019-05-04T13:22:18Z</time>
      </trkpt>
      <trkpt lat="46.75961" lon="6.44667">
        <ele>1347</ele>
        <time>2019-05-04T13:22:21Z</time>
      </trkpt>
      <trkpt lat="46.75964" lon="6.44665">
        <ele>1348</ele>
        <time>2019-05-04T13:22:23Z</time>
      </trkpt>
      <trkpt lat="46.75966" lon="6.44663">
        <ele>1348</ele>
        <time>2019-05-04T13:22:25Z</time>
      </trkpt>
      <trkpt lat="46.75968" lon="6.44662">
        <ele>1348</ele>
        <time>2019-05-04T13:22:27Z</time>
      </trkpt>
      <trkpt lat="46.75969" lon="6.44661">
        <ele>1348</ele>
        <time>2019-05-04T13:22:27Z</time>
      </trkpt>
      <trkpt lat="46.7597" lon="6.44659">
        <ele>1349</ele>
        <time>2019-05-04T13:22:29Z</time>
      </trkpt>
      <trkpt lat="46.7597" lon="6.44659">
        <ele>1349</ele>
        <time>2019-05-04T13:22:29Z</time>
      </trkpt>
      <trkpt lat="46.75968" lon="6.44657">
        <ele>1349</ele>
        <time>2019-05-04T13:22:31Z</time>
      </trkpt>
      <trkpt lat="46.75964" lon="6.44656">
        <ele>1349</ele>
        <time>2019-05-04T13:22:33Z</time>
      </trkpt>
      <trkpt lat="46.75962" lon="6.44655">
        <ele>1349</ele>
        <time>2019-05-04T13:22:35Z</time>
      </trkpt>
      <trkpt lat="46.75961" lon="6.44654">
        <ele>1350</ele>
        <time>2019-05-04T13:22:36Z</time>
      </trkpt>
      <trkpt lat="46.75957" lon="6.4465">
        <ele>1350</ele>
        <time>2019-05-04T13:22:40Z</time>
      </trkpt>
      <trkpt lat="46.75954" lon="6.44648">
        <ele>1351</ele>
        <time>2019-05-04T13:22:42Z</time>
      </trkpt>
      <trkpt lat="46.75953" lon="6.44646">
        <ele>1351</ele>
        <time>2019-05-04T13:22:43Z</time>
      </trkpt>
      <trkpt lat="46.75951" lon="6.44643">
        <ele>1352</ele>
        <time>2019-05-04T13:22:46Z</time>
      </trkpt>
      <trkpt lat="46.7595" lon="6.44643">
        <ele>1352</ele>
        <time>2019-05-04T13:22:46Z</time>
      </trkpt>
      <trkpt lat="46.75949" lon="6.44643">
        <ele>1352</ele>
        <time>2019-05-04T13:22:47Z</time>
      </trkpt>
      <trkpt lat="46.75943" lon="6.44642">
        <ele>1352</ele>
        <time>2019-05-04T13:22:51Z</time>
      </trkpt>
      <trkpt lat="46.75934" lon="6.4464">
        <ele>1351</ele>
        <time>2019-05-04T13:22:58Z</time>
      </trkpt>
      <trkpt lat="46.75931" lon="6.44639">
        <ele>1351</ele>
        <time>2019-05-04T13:23:00Z</time>
      </trkpt>
      <trkpt lat="46.75925" lon="6.44637">
        <ele>1350</ele>
        <time>2019-05-04T13:23:05Z</time>
      </trkpt>
      <trkpt lat="46.75916" lon="6.44631">
        <ele>1351</ele>
        <time>2019-05-04T13:23:12Z</time>
      </trkpt>
      <trkpt lat="46.75913" lon="6.4463">
        <ele>1350</ele>
        <time>2019-05-04T13:23:14Z</time>
      </trkpt>
      <trkpt lat="46.75908" lon="6.44628">
        <ele>1350</ele>
        <time>2019-05-04T13:23:18Z</time>
      </trkpt>
      <trkpt lat="46.75905" lon="6.44627">
        <ele>1350</ele>
        <time>2019-05-04T13:23:20Z</time>
      </trkpt>
      <trkpt lat="46.75902" lon="6.44623">
        <ele>1350</ele>
        <time>2019-05-04T13:23:23Z</time>
      </trkpt>
      <trkpt lat="46.75899" lon="6.44621">
        <ele>1350</ele>
        <time>2019-05-04T13:23:25Z</time>
      </trkpt>
      <trkpt lat="46.75889" lon="6.4461">
        <ele>1351</ele>
        <time>2019-05-04T13:23:34Z</time>
      </trkpt>
      <trkpt lat="46.75888" lon="6.44608">
        <ele>1351</ele>
        <time>2019-05-04T13:23:36Z</time>
      </trkpt>
      <trkpt lat="46.75883" lon="6.44603">
        <ele>1351</ele>
        <time>2019-05-04T13:23:40Z</time>
      </trkpt>
      <trkpt lat="46.75879" lon="6.44598">
        <ele>1351</ele>
        <time>2019-05-04T13:23:44Z</time>
      </trkpt>
      <trkpt lat="46.75875" lon="6.44597">
        <ele>1351</ele>
        <time>2019-05-04T13:23:47Z</time>
      </trkpt>
      <trkpt lat="46.75872" lon="6.44596">
        <ele>1351</ele>
        <time>2019-05-04T13:23:49Z</time>
      </trkpt>
      <trkpt lat="46.75863" lon="6.44592">
        <ele>1350</ele>
        <time>2019-05-04T13:23:56Z</time>
      </trkpt>
      <trkpt lat="46.75856" lon="6.44588">
        <ele>1349</ele>
        <time>2019-05-04T13:24:01Z</time>
      </trkpt>
      <trkpt lat="46.75845" lon="6.4458">
        <ele>1349</ele>
        <time>2019-05-04T13:24:10Z</time>
      </trkpt>
      <trkpt lat="46.75852" lon="6.44539">
        <ele>1355</ele>
        <time>2019-05-04T13:24:32Z</time>
      </trkpt>
      <trkpt lat="46.75852" lon="6.44533">
        <ele>1356</ele>
        <time>2019-05-04T13:24:35Z</time>
      </trkpt>
      <trkpt lat="46.75852" lon="6.44527">
        <ele>1356</ele>
        <time>2019-05-04T13:24:38Z</time>
      </trkpt>
      <trkpt lat="46.7585" lon="6.44523">
        <ele>1357</ele>
        <time>2019-05-04T13:24:40Z</time>
      </trkpt>
      <trkpt lat="46.75848" lon="6.4452">
        <ele>1357</ele>
        <time>2019-05-04T13:24:42Z</time>
      </trkpt>
      <trkpt lat="46.75842" lon="6.44511">
        <ele>1358</ele>
        <time>2019-05-04T13:24:48Z</time>
      </trkpt>
      <trkpt lat="46.75839" lon="6.44503">
        <ele>1358</ele>
        <time>2019-05-04T13:24:53Z</time>
      </trkpt>
      <trkpt lat="46.75836" lon="6.44493">
        <ele>1359</ele>
        <time>2019-05-04T13:24:59Z</time>
      </trkpt>
      <trkpt lat="46.75834" lon="6.44485">
        <ele>1360</ele>
        <time>2019-05-04T13:25:03Z</time>
      </trkpt>
      <trkpt lat="46.75838" lon="6.44474">
        <ele>1362</ele>
        <time>2019-05-04T13:25:09Z</time>
      </trkpt>
      <trkpt lat="46.75848" lon="6.44452">
        <ele>1365</ele>
        <time>2019-05-04T13:25:22Z</time>
      </trkpt>
      <trkpt lat="46.75854" lon="6.44443">
        <ele>1366</ele>
        <time>2019-05-04T13:25:28Z</time>
      </trkpt>
      <trkpt lat="46.75864" lon="6.44424">
        <ele>1368</ele>
        <time>2019-05-04T13:25:41Z</time>
      </trkpt>
      <trkpt lat="46.75868" lon="6.44418">
        <ele>1369</ele>
        <time>2019-05-04T13:25:44Z</time>
      </trkpt>
      <trkpt lat="46.75875" lon="6.44405">
        <ele>1371</ele>
        <time>2019-05-04T13:25:53Z</time>
      </trkpt>
      <trkpt lat="46.75879" lon="6.44399">
        <ele>1371</ele>
        <time>2019-05-04T13:25:57Z</time>
      </trkpt>
      <trkpt lat="46.75885" lon="6.44375">
        <ele>1374</ele>
        <time>2019-05-04T13:26:10Z</time>
      </trkpt>
      <trkpt lat="46.75887" lon="6.4436">
        <ele>1376</ele>
        <time>2019-05-04T13:26:18Z</time>
      </trkpt>
      <trkpt lat="46.75883" lon="6.44333">
        <ele>1378</ele>
        <time>2019-05-04T13:26:31Z</time>
      </trkpt>
      <trkpt lat="46.7588" lon="6.44328">
        <ele>1378</ele>
        <time>2019-05-04T13:26:34Z</time>
      </trkpt>
      <trkpt lat="46.75872" lon="6.44318">
        <ele>1379</ele>
        <time>2019-05-04T13:26:42Z</time>
      </trkpt>
      <trkpt lat="46.75853" lon="6.44321">
        <ele>1378</ele>
        <time>2019-05-04T13:26:56Z</time>
      </trkpt>
      <trkpt lat="46.7585" lon="6.44324">
        <ele>1378</ele>
        <time>2019-05-04T13:26:58Z</time>
      </trkpt>
      <trkpt lat="46.75845" lon="6.44326">
        <ele>1377</ele>
        <time>2019-05-04T13:27:02Z</time>
      </trkpt>
      <trkpt lat="46.75837" lon="6.44329">
        <ele>1377</ele>
        <time>2019-05-04T13:27:08Z</time>
      </trkpt>
      <trkpt lat="46.75818" lon="6.44336">
        <ele>1375</ele>
        <time>2019-05-04T13:27:22Z</time>
      </trkpt>
      <trkpt lat="46.75813" lon="6.44338">
        <ele>1375</ele>
        <time>2019-05-04T13:27:26Z</time>
      </trkpt>
      <trkpt lat="46.75801" lon="6.44344">
        <ele>1374</ele>
        <time>2019-05-04T13:27:35Z</time>
      </trkpt>
      <trkpt lat="46.75794" lon="6.44343">
        <ele>1374</ele>
        <time>2019-05-04T13:27:40Z</time>
      </trkpt>
      <trkpt lat="46.75782" lon="6.44325">
        <ele>1374</ele>
        <time>2019-05-04T13:27:53Z</time>
      </trkpt>
      <trkpt lat="46.7578" lon="6.44319">
        <ele>1375</ele>
        <time>2019-05-04T13:27:56Z</time>
      </trkpt>
      <trkpt lat="46.75779" lon="6.44311">
        <ele>1375</ele>
        <time>2019-05-04T13:28:00Z</time>
      </trkpt>
      <trkpt lat="46.7578" lon="6.44288">
        <ele>1377</ele>
        <time>2019-05-04T13:28:11Z</time>
      </trkpt>
      <trkpt lat="46.75779" lon="6.44277">
        <ele>1378</ele>
        <time>2019-05-04T13:28:17Z</time>
      </trkpt>
      <trkpt lat="46.75777" lon="6.44255">
        <ele>1379</ele>
        <time>2019-05-04T13:28:28Z</time>
      </trkpt>
      <trkpt lat="46.75776" lon="6.44248">
        <ele>1379</ele>
        <time>2019-05-04T13:28:31Z</time>
      </trkpt>
      <trkpt lat="46.75773" lon="6.44229">
        <ele>1380</ele>
        <time>2019-05-04T13:28:41Z</time>
      </trkpt>
      <trkpt lat="46.75773" lon="6.44219">
        <ele>1380</ele>
        <time>2019-05-04T13:28:46Z</time>
      </trkpt>
      <trkpt lat="46.75769" lon="6.44207">
        <ele>1380</ele>
        <time>2019-05-04T13:28:53Z</time>
      </trkpt>
      <trkpt lat="46.75755" lon="6.44191">
        <ele>1379</ele>
        <time>2019-05-04T13:29:06Z</time>
      </trkpt>
      <trkpt lat="46.75737" lon="6.44178">
        <ele>1378</ele>
        <time>2019-05-04T13:29:20Z</time>
      </trkpt>
      <trkpt lat="46.75735" lon="6.44176">
        <ele>1378</ele>
        <time>2019-05-04T13:29:22Z</time>
      </trkpt>
      <trkpt lat="46.7572" lon="6.44159">
        <ele>1378</ele>
        <time>2019-05-04T13:29:36Z</time>
      </trkpt>
      <trkpt lat="46.75718" lon="6.44154">
        <ele>1378</ele>
        <time>2019-05-04T13:29:39Z</time>
      </trkpt>
      <trkpt lat="46.75717" lon="6.44151">
        <ele>1378</ele>
        <time>2019-05-04T13:29:41Z</time>
      </trkpt>
      <trkpt lat="46.75709" lon="6.44136">
        <ele>1378</ele>
        <time>2019-05-04T13:29:50Z</time>
      </trkpt>
      <trkpt lat="46.75706" lon="6.44128">
        <ele>1378</ele>
        <time>2019-05-04T13:29:54Z</time>
      </trkpt>
      <trkpt lat="46.75704" lon="6.44118">
        <ele>1378</ele>
        <time>2019-05-04T13:30:00Z</time>
      </trkpt>
      <trkpt lat="46.75697" lon="6.44092">
        <ele>1379</ele>
        <time>2019-05-04T13:30:14Z</time>
      </trkpt>
      <trkpt lat="46.75697" lon="6.44087">
        <ele>1379</ele>
        <time>2019-05-04T13:30:16Z</time>
      </trkpt>
      <trkpt lat="46.75693" lon="6.44058">
        <ele>1379</ele>
        <time>2019-05-04T13:30:31Z</time>
      </trkpt>
      <trkpt lat="46.75692" lon="6.44051">
        <ele>1378</ele>
        <time>2019-05-04T13:30:34Z</time>
      </trkpt>
      <trkpt lat="46.75692" lon="6.44033">
        <ele>1379</ele>
        <time>2019-05-04T13:30:43Z</time>
      </trkpt>
      <trkpt lat="46.75693" lon="6.44003">
        <ele>1380</ele>
        <time>2019-05-04T13:30:58Z</time>
      </trkpt>
      <trkpt lat="46.75695" lon="6.43997">
        <ele>1380</ele>
        <time>2019-05-04T13:31:02Z</time>
      </trkpt>
      <trkpt lat="46.75704" lon="6.43971">
        <ele>1382</ele>
        <time>2019-05-04T13:31:16Z</time>
      </trkpt>
      <trkpt lat="46.75713" lon="6.43947">
        <ele>1384</ele>
        <time>2019-05-04T13:31:30Z</time>
      </trkpt>
      <trkpt lat="46.75719" lon="6.43922">
        <ele>1384</ele>
        <time>2019-05-04T13:31:43Z</time>
      </trkpt>
      <trkpt lat="46.75715" lon="6.43895">
        <ele>1383</ele>
        <time>2019-05-04T13:31:57Z</time>
      </trkpt>
      <trkpt lat="46.75712" lon="6.43866">
        <ele>1382</ele>
        <time>2019-05-04T13:32:11Z</time>
      </trkpt>
      <trkpt lat="46.75713" lon="6.43839">
        <ele>1382</ele>
        <time>2019-05-04T13:32:25Z</time>
      </trkpt>
      <trkpt lat="46.75719" lon="6.43814">
        <ele>1382</ele>
        <time>2019-05-04T13:32:38Z</time>
      </trkpt>
      <trkpt lat="46.75732" lon="6.43796">
        <ele>1384</ele>
        <time>2019-05-04T13:32:51Z</time>
      </trkpt>
      <trkpt lat="46.75739" lon="6.43789">
        <ele>1385</ele>
        <time>2019-05-04T13:32:57Z</time>
      </trkpt>
      <trkpt lat="46.75752" lon="6.4377">
        <ele>1387</ele>
        <time>2019-05-04T13:33:10Z</time>
      </trkpt>
      <trkpt lat="46.75754" lon="6.4376">
        <ele>1387</ele>
        <time>2019-05-04T13:33:15Z</time>
      </trkpt>
      <trkpt lat="46.75756" lon="6.43751">
        <ele>1387</ele>
        <time>2019-05-04T13:33:20Z</time>
      </trkpt>
      <trkpt lat="46.75757" lon="6.43746">
        <ele>1387</ele>
        <time>2019-05-04T13:33:23Z</time>
      </trkpt>
      <trkpt lat="46.75757" lon="6.43739">
        <ele>1387</ele>
        <time>2019-05-04T13:33:26Z</time>
      </trkpt>
      <trkpt lat="46.75757" lon="6.4373">
        <ele>1386</ele>
        <time>2019-05-04T13:33:31Z</time>
      </trkpt>
      <trkpt lat="46.75756" lon="6.43707">
        <ele>1385</ele>
        <time>2019-05-04T13:33:42Z</time>
      </trkpt>
      <trkpt lat="46.75759" lon="6.437">
        <ele>1385</ele>
        <time>2019-05-04T13:33:46Z</time>
      </trkpt>
      <trkpt lat="46.75762" lon="6.43687">
        <ele>1386</ele>
        <time>2019-05-04T13:33:53Z</time>
      </trkpt>
      <trkpt lat="46.75765" lon="6.4368">
        <ele>1386</ele>
        <time>2019-05-04T13:33:57Z</time>
      </trkpt>
      <trkpt lat="46.75767" lon="6.43673">
        <ele>1387</ele>
        <time>2019-05-04T13:34:01Z</time>
      </trkpt>
      <trkpt lat="46.7577" lon="6.43661">
        <ele>1388</ele>
        <time>2019-05-04T13:34:07Z</time>
      </trkpt>
      <trkpt lat="46.7576" lon="6.43637">
        <ele>1386</ele>
        <time>2019-05-04T13:34:21Z</time>
      </trkpt>
      <trkpt lat="46.75755" lon="6.43633">
        <ele>1386</ele>
        <time>2019-05-04T13:34:25Z</time>
      </trkpt>
      <trkpt lat="46.75747" lon="6.43628">
        <ele>1385</ele>
        <time>2019-05-04T13:34:31Z</time>
      </trkpt>
      <trkpt lat="46.75738" lon="6.43619">
        <ele>1384</ele>
        <time>2019-05-04T13:34:39Z</time>
      </trkpt>
      <trkpt lat="46.7573" lon="6.43611">
        <ele>1383</ele>
        <time>2019-05-04T13:34:47Z</time>
      </trkpt>
      <trkpt lat="46.75724" lon="6.43603">
        <ele>1382</ele>
        <time>2019-05-04T13:34:53Z</time>
      </trkpt>
      <trkpt lat="46.7572" lon="6.43596">
        <ele>1381</ele>
        <time>2019-05-04T13:34:57Z</time>
      </trkpt>
      <trkpt lat="46.75717" lon="6.43592">
        <ele>1381</ele>
        <time>2019-05-04T13:35:00Z</time>
      </trkpt>
      <trkpt lat="46.75716" lon="6.43589">
        <ele>1380</ele>
        <time>2019-05-04T13:35:02Z</time>
      </trkpt>
      <trkpt lat="46.75716" lon="6.43589">
        <ele>1380</ele>
        <time>2019-05-04T13:35:02Z</time>
      </trkpt>
      <trkpt lat="46.75703" lon="6.43585">
        <ele>1379</ele>
        <time>2019-05-04T13:35:12Z</time>
      </trkpt>
      <trkpt lat="46.75701" lon="6.43585">
        <ele>1378</ele>
        <time>2019-05-04T13:35:13Z</time>
      </trkpt>
      <trkpt lat="46.75692" lon="6.43585">
        <ele>1377</ele>
        <time>2019-05-04T13:35:20Z</time>
      </trkpt>
      <trkpt lat="46.75688" lon="6.43583">
        <ele>1376</ele>
        <time>2019-05-04T13:35:23Z</time>
      </trkpt>
      <trkpt lat="46.75686" lon="6.43583">
        <ele>1376</ele>
        <time>2019-05-04T13:35:24Z</time>
      </trkpt>
      <trkpt lat="46.75686" lon="6.43583">
        <ele>1376</ele>
        <time>2019-05-04T13:35:24Z</time>
      </trkpt>
      <trkpt lat="46.75685" lon="6.43582">
        <ele>1376</ele>
        <time>2019-05-04T13:35:25Z</time>
      </trkpt>
      <trkpt lat="46.75613" lon="6.4346">
        <ele>1362</ele>
        <time>2019-05-04T13:36:46Z</time>
      </trkpt>
      <trkpt lat="46.75605" lon="6.43434">
        <ele>1359</ele>
        <time>2019-05-04T13:37:00Z</time>
      </trkpt>
      <trkpt lat="46.75602" lon="6.43421">
        <ele>1358</ele>
        <time>2019-05-04T13:37:07Z</time>
      </trkpt>
      <trkpt lat="46.75599" lon="6.43412">
        <ele>1357</ele>
        <time>2019-05-04T13:37:12Z</time>
      </trkpt>
      <trkpt lat="46.75597" lon="6.43402">
        <ele>1356</ele>
        <time>2019-05-04T13:37:17Z</time>
      </trkpt>
      <trkpt lat="46.75595" lon="6.43393">
        <ele>1355</ele>
        <time>2019-05-04T13:37:22Z</time>
      </trkpt>
      <trkpt lat="46.75589" lon="6.43365">
        <ele>1353</ele>
        <time>2019-05-04T13:37:36Z</time>
      </trkpt>
      <trkpt lat="46.75588" lon="6.43355">
        <ele>1352</ele>
        <time>2019-05-04T13:37:41Z</time>
      </trkpt>
      <trkpt lat="46.75587" lon="6.4335">
        <ele>1352</ele>
        <time>2019-05-04T13:37:44Z</time>
      </trkpt>
      <trkpt lat="46.75586" lon="6.43345">
        <ele>1352</ele>
        <time>2019-05-04T13:37:47Z</time>
      </trkpt>
      <trkpt lat="46.75585" lon="6.43335">
        <ele>1352</ele>
        <time>2019-05-04T13:37:51Z</time>
      </trkpt>
      <trkpt lat="46.75585" lon="6.43321">
        <ele>1351</ele>
        <time>2019-05-04T13:37:59Z</time>
      </trkpt>
      <trkpt lat="46.75584" lon="6.43302">
        <ele>1351</ele>
        <time>2019-05-04T13:38:08Z</time>
      </trkpt>
      <trkpt lat="46.75581" lon="6.43289">
        <ele>1351</ele>
        <time>2019-05-04T13:38:14Z</time>
      </trkpt>
      <trkpt lat="46.75571" lon="6.43276">
        <ele>1349</ele>
        <time>2019-05-04T13:38:24Z</time>
      </trkpt>
      <trkpt lat="46.75562" lon="6.43268">
        <ele>1347</ele>
        <time>2019-05-04T13:38:32Z</time>
      </trkpt>
      <trkpt lat="46.75556" lon="6.43262">
        <ele>1346</ele>
        <time>2019-05-04T13:38:37Z</time>
      </trkpt>
      <trkpt lat="46.75551" lon="6.43257">
        <ele>1345</ele>
        <time>2019-05-04T13:38:42Z</time>
      </trkpt>
      <trkpt lat="46.75545" lon="6.43248">
        <ele>1344</ele>
        <time>2019-05-04T13:38:48Z</time>
      </trkpt>
      <trkpt lat="46.75531" lon="6.43229">
        <ele>1342</ele>
        <time>2019-05-04T13:39:02Z</time>
      </trkpt>
      <trkpt lat="46.75528" lon="6.43227">
        <ele>1341</ele>
        <time>2019-05-04T13:39:04Z</time>
      </trkpt>
      <trkpt lat="46.75518" lon="6.43223">
        <ele>1339</ele>
        <time>2019-05-04T13:39:12Z</time>
      </trkpt>
      <trkpt lat="46.75511" lon="6.43223">
        <ele>1338</ele>
        <time>2019-05-04T13:39:17Z</time>
      </trkpt>
      <trkpt lat="46.755" lon="6.43221">
        <ele>1336</ele>
        <time>2019-05-04T13:39:25Z</time>
      </trkpt>
      <trkpt lat="46.75492" lon="6.43215">
        <ele>1334</ele>
        <time>2019-05-04T13:39:32Z</time>
      </trkpt>
      <trkpt lat="46.75486" lon="6.43209">
        <ele>1332</ele>
        <time>2019-05-04T13:39:37Z</time>
      </trkpt>
      <trkpt lat="46.75484" lon="6.43206">
        <ele>1332</ele>
        <time>2019-05-04T13:39:39Z</time>
      </trkpt>
      <trkpt lat="46.75481" lon="6.43198">
        <ele>1331</ele>
        <time>2019-05-04T13:39:44Z</time>
      </trkpt>
      <trkpt lat="46.75477" lon="6.43189">
        <ele>1330</ele>
        <time>2019-05-04T13:39:49Z</time>
      </trkpt>
      <trkpt lat="46.75473" lon="6.4318">
        <ele>1329</ele>
        <time>2019-05-04T13:39:54Z</time>
      </trkpt>
      <trkpt lat="46.7547" lon="6.43172">
        <ele>1328</ele>
        <time>2019-05-04T13:39:59Z</time>
      </trkpt>
      <trkpt lat="46.75467" lon="6.43162">
        <ele>1327</ele>
        <time>2019-05-04T13:40:04Z</time>
      </trkpt>
      <trkpt lat="46.75465" lon="6.43145">
        <ele>1326</ele>
        <time>2019-05-04T13:40:13Z</time>
      </trkpt>
      <trkpt lat="46.75461" lon="6.43126">
        <ele>1325</ele>
        <time>2019-05-04T13:40:23Z</time>
      </trkpt>
      <trkpt lat="46.75458" lon="6.43112">
        <ele>1325</ele>
        <time>2019-05-04T13:40:30Z</time>
      </trkpt>
      <trkpt lat="46.75457" lon="6.43103">
        <ele>1324</ele>
        <time>2019-05-04T13:40:35Z</time>
      </trkpt>
      <trkpt lat="46.75454" lon="6.43088">
        <ele>1323</ele>
        <time>2019-05-04T13:40:42Z</time>
      </trkpt>
      <trkpt lat="46.75449" lon="6.4306">
        <ele>1322</ele>
        <time>2019-05-04T13:40:57Z</time>
      </trkpt>
      <trkpt lat="46.75447" lon="6.43051">
        <ele>1321</ele>
        <time>2019-05-04T13:41:02Z</time>
      </trkpt>
      <trkpt lat="46.75443" lon="6.43046">
        <ele>1320</ele>
        <time>2019-05-04T13:41:05Z</time>
      </trkpt>
      <trkpt lat="46.75438" lon="6.43042">
        <ele>1319</ele>
        <time>2019-05-04T13:41:10Z</time>
      </trkpt>
      <trkpt lat="46.75434" lon="6.43039">
        <ele>1318</ele>
        <time>2019-05-04T13:41:13Z</time>
      </trkpt>
      <trkpt lat="46.75421" lon="6.43027">
        <ele>1314</ele>
        <time>2019-05-04T13:41:24Z</time>
      </trkpt>
      <trkpt lat="46.75412" lon="6.4301">
        <ele>1312</ele>
        <time>2019-05-04T13:41:35Z</time>
      </trkpt>
      <trkpt lat="46.7541" lon="6.42998">
        <ele>1311</ele>
        <time>2019-05-04T13:41:41Z</time>
      </trkpt>
      <trkpt lat="46.7541" lon="6.42993">
        <ele>1310</ele>
        <time>2019-05-04T13:41:44Z</time>
      </trkpt>
      <trkpt lat="46.75408" lon="6.42983">
        <ele>1309</ele>
        <time>2019-05-04T13:41:49Z</time>
      </trkpt>
      <trkpt lat="46.75408" lon="6.42976">
        <ele>1309</ele>
        <time>2019-05-04T13:41:53Z</time>
      </trkpt>
      <trkpt lat="46.75405" lon="6.42954">
        <ele>1308</ele>
        <time>2019-05-04T13:42:03Z</time>
      </trkpt>
      <trkpt lat="46.75402" lon="6.42928">
        <ele>1306</ele>
        <time>2019-05-04T13:42:17Z</time>
      </trkpt>
      <trkpt lat="46.75401" lon="6.42919">
        <ele>1306</ele>
        <time>2019-05-04T13:42:21Z</time>
      </trkpt>
      <trkpt lat="46.754" lon="6.42906">
        <ele>1305</ele>
        <time>2019-05-04T13:42:28Z</time>
      </trkpt>
      <trkpt lat="46.75397" lon="6.42891">
        <ele>1305</ele>
        <time>2019-05-04T13:42:36Z</time>
      </trkpt>
      <trkpt lat="46.75396" lon="6.42883">
        <ele>1304</ele>
        <time>2019-05-04T13:42:40Z</time>
      </trkpt>
      <trkpt lat="46.75394" lon="6.42872">
        <ele>1304</ele>
        <time>2019-05-04T13:42:46Z</time>
      </trkpt>
      <trkpt lat="46.75389" lon="6.42856">
        <ele>1304</ele>
        <time>2019-05-04T13:42:54Z</time>
      </trkpt>
      <trkpt lat="46.75384" lon="6.42849">
        <ele>1303</ele>
        <time>2019-05-04T13:42:59Z</time>
      </trkpt>
      <trkpt lat="46.75378" lon="6.42836">
        <ele>1303</ele>
        <time>2019-05-04T13:43:07Z</time>
      </trkpt>
      <trkpt lat="46.75367" lon="6.42821">
        <ele>1302</ele>
        <time>2019-05-04T13:43:18Z</time>
      </trkpt>
      <trkpt lat="46.75358" lon="6.42808">
        <ele>1300</ele>
        <time>2019-05-04T13:43:27Z</time>
      </trkpt>
      <trkpt lat="46.75344" lon="6.42787">
        <ele>1298</ele>
        <time>2019-05-04T13:43:41Z</time>
      </trkpt>
      <trkpt lat="46.75342" lon="6.42784">
        <ele>1298</ele>
        <time>2019-05-04T13:43:44Z</time>
      </trkpt>
      <trkpt lat="46.75338" lon="6.42777">
        <ele>1297</ele>
        <time>2019-05-04T13:43:48Z</time>
      </trkpt>
      <trkpt lat="46.75334" lon="6.42771">
        <ele>1296</ele>
        <time>2019-05-04T13:43:52Z</time>
      </trkpt>
      <trkpt lat="46.75327" lon="6.42761">
        <ele>1295</ele>
        <time>2019-05-04T13:43:59Z</time>
      </trkpt>
      <trkpt lat="46.75319" lon="6.42748">
        <ele>1294</ele>
        <time>2019-05-04T13:44:08Z</time>
      </trkpt>
      <trkpt lat="46.75317" lon="6.42745">
        <ele>1294</ele>
        <time>2019-05-04T13:44:10Z</time>
      </trkpt>
      <trkpt lat="46.75313" lon="6.42739">
        <ele>1293</ele>
        <time>2019-05-04T13:44:14Z</time>
      </trkpt>
      <trkpt lat="46.75305" lon="6.42729">
        <ele>1291</ele>
        <time>2019-05-04T13:44:22Z</time>
      </trkpt>
      <trkpt lat="46.75296" lon="6.42716">
        <ele>1290</ele>
        <time>2019-05-04T13:44:31Z</time>
      </trkpt>
      <trkpt lat="46.75286" lon="6.42697">
        <ele>1288</ele>
        <time>2019-05-04T13:44:43Z</time>
      </trkpt>
      <trkpt lat="46.75275" lon="6.42673">
        <ele>1285</ele>
        <time>2019-05-04T13:44:58Z</time>
      </trkpt>
      <trkpt lat="46.75274" lon="6.42669">
        <ele>1285</ele>
        <time>2019-05-04T13:45:00Z</time>
      </trkpt>
      <trkpt lat="46.75272" lon="6.42661">
        <ele>1284</ele>
        <time>2019-05-04T13:45:04Z</time>
      </trkpt>
      <trkpt lat="46.7527" lon="6.42647">
        <ele>1283</ele>
        <time>2019-05-04T13:45:11Z</time>
      </trkpt>
      <trkpt lat="46.7527" lon="6.42618">
        <ele>1281</ele>
        <time>2019-05-04T13:45:25Z</time>
      </trkpt>
      <trkpt lat="46.7527" lon="6.42609">
        <ele>1281</ele>
        <time>2019-05-04T13:45:30Z</time>
      </trkpt>
      <trkpt lat="46.7527" lon="6.42591">
        <ele>1280</ele>
        <time>2019-05-04T13:45:39Z</time>
      </trkpt>
      <trkpt lat="46.75271" lon="6.42582">
        <ele>1279</ele>
        <time>2019-05-04T13:45:44Z</time>
      </trkpt>
      <trkpt lat="46.75271" lon="6.42573">
        <ele>1279</ele>
        <time>2019-05-04T13:45:48Z</time>
      </trkpt>
      <trkpt lat="46.75272" lon="6.42563">
        <ele>1279</ele>
        <time>2019-05-04T13:45:53Z</time>
      </trkpt>
      <trkpt lat="46.75273" lon="6.42544">
        <ele>1277</ele>
        <time>2019-05-04T13:46:02Z</time>
      </trkpt>
      <trkpt lat="46.75274" lon="6.42517">
        <ele>1276</ele>
        <time>2019-05-04T13:46:16Z</time>
      </trkpt>
      <trkpt lat="46.75281" lon="6.42492">
        <ele>1276</ele>
        <time>2019-05-04T13:46:29Z</time>
      </trkpt>
      <trkpt lat="46.75294" lon="6.42469">
        <ele>1276</ele>
        <time>2019-05-04T13:46:44Z</time>
      </trkpt>
      <trkpt lat="46.75298" lon="6.42463">
        <ele>1276</ele>
        <time>2019-05-04T13:46:48Z</time>
      </trkpt>
      <trkpt lat="46.75305" lon="6.4245">
        <ele>1276</ele>
        <time>2019-05-04T13:46:57Z</time>
      </trkpt>
      <trkpt lat="46.75315" lon="6.42433">
        <ele>1275</ele>
        <time>2019-05-04T13:47:08Z</time>
      </trkpt>
      <trkpt lat="46.75324" lon="6.42414">
        <ele>1275</ele>
        <time>2019-05-04T13:47:19Z</time>
      </trkpt>
      <trkpt lat="46.75332" lon="6.424">
        <ele>1274</ele>
        <time>2019-05-04T13:47:28Z</time>
      </trkpt>
      <trkpt lat="46.75338" lon="6.42389">
        <ele>1273</ele>
        <time>2019-05-04T13:47:35Z</time>
      </trkpt>
      <trkpt lat="46.75344" lon="6.42378">
        <ele>1272</ele>
        <time>2019-05-04T13:47:42Z</time>
      </trkpt>
      <trkpt lat="46.75349" lon="6.42365">
        <ele>1271</ele>
        <time>2019-05-04T13:47:50Z</time>
      </trkpt>
      <trkpt lat="46.75357" lon="6.4234">
        <ele>1269</ele>
        <time>2019-05-04T13:48:03Z</time>
      </trkpt>
      <trkpt lat="46.75359" lon="6.42336">
        <ele>1268</ele>
        <time>2019-05-04T13:48:06Z</time>
      </trkpt>
      <trkpt lat="46.75359" lon="6.42314">
        <ele>1267</ele>
        <time>2019-05-04T13:48:17Z</time>
      </trkpt>
      <trkpt lat="46.75356" lon="6.42297">
        <ele>1267</ele>
        <time>2019-05-04T13:48:25Z</time>
      </trkpt>
      <trkpt lat="46.75352" lon="6.42281">
        <ele>1267</ele>
        <time>2019-05-04T13:48:34Z</time>
      </trkpt>
      <trkpt lat="46.75346" lon="6.4226">
        <ele>1266</ele>
        <time>2019-05-04T13:48:45Z</time>
      </trkpt>
      <trkpt lat="46.75342" lon="6.42237">
        <ele>1264</ele>
        <time>2019-05-04T13:48:57Z</time>
      </trkpt>
      <trkpt lat="46.75341" lon="6.42219">
        <ele>1263</ele>
        <time>2019-05-04T13:49:06Z</time>
      </trkpt>
      <trkpt lat="46.75342" lon="6.42204">
        <ele>1261</ele>
        <time>2019-05-04T13:49:13Z</time>
      </trkpt>
      <trkpt lat="46.75342" lon="6.42191">
        <ele>1260</ele>
        <time>2019-05-04T13:49:20Z</time>
      </trkpt>
      <trkpt lat="46.75344" lon="6.42174">
        <ele>1258</ele>
        <time>2019-05-04T13:49:29Z</time>
      </trkpt>
      <trkpt lat="46.75345" lon="6.42161">
        <ele>1256</ele>
        <time>2019-05-04T13:49:35Z</time>
      </trkpt>
      <trkpt lat="46.75343" lon="6.42146">
        <ele>1254</ele>
        <time>2019-05-04T13:49:43Z</time>
      </trkpt>
      <trkpt lat="46.75335" lon="6.42134">
        <ele>1254</ele>
        <time>2019-05-04T13:49:51Z</time>
      </trkpt>
      <trkpt lat="46.75326" lon="6.42122">
        <ele>1253</ele>
        <time>2019-05-04T13:50:00Z</time>
      </trkpt>
      <trkpt lat="46.75319" lon="6.42115">
        <ele>1253</ele>
        <time>2019-05-04T13:50:06Z</time>
      </trkpt>
      <trkpt lat="46.75312" lon="6.42107">
        <ele>1253</ele>
        <time>2019-05-04T13:50:12Z</time>
      </trkpt>
      <trkpt lat="46.75304" lon="6.42094">
        <ele>1253</ele>
        <time>2019-05-04T13:50:21Z</time>
      </trkpt>
      <trkpt lat="46.75304" lon="6.42089">
        <ele>1252</ele>
        <time>2019-05-04T13:50:23Z</time>
      </trkpt>
      <trkpt lat="46.75307" lon="6.42082">
        <ele>1251</ele>
        <time>2019-05-04T13:50:28Z</time>
      </trkpt>
      <trkpt lat="46.7532" lon="6.42068">
        <ele>1247</ele>
        <time>2019-05-04T13:50:40Z</time>
      </trkpt>
      <trkpt lat="46.75325" lon="6.4206">
        <ele>1246</ele>
        <time>2019-05-04T13:50:45Z</time>
      </trkpt>
      <trkpt lat="46.7533" lon="6.42054">
        <ele>1244</ele>
        <time>2019-05-04T13:50:50Z</time>
      </trkpt>
      <trkpt lat="46.75338" lon="6.42048">
        <ele>1243</ele>
        <time>2019-05-04T13:50:57Z</time>
      </trkpt>
      <trkpt lat="46.75357" lon="6.42053">
        <ele>1241</ele>
        <time>2019-05-04T13:51:10Z</time>
      </trkpt>
      <trkpt lat="46.75372" lon="6.42067">
        <ele>1242</ele>
        <time>2019-05-04T13:51:23Z</time>
      </trkpt>
      <trkpt lat="46.75379" lon="6.42076">
        <ele>1243</ele>
        <time>2019-05-04T13:51:30Z</time>
      </trkpt>
      <trkpt lat="46.7539" lon="6.4209">
        <ele>1245</ele>
        <time>2019-05-04T13:51:40Z</time>
      </trkpt>
      <trkpt lat="46.75398" lon="6.421">
        <ele>1246</ele>
        <time>2019-05-04T13:51:48Z</time>
      </trkpt>
      <trkpt lat="46.75406" lon="6.42113">
        <ele>1247</ele>
        <time>2019-05-04T13:51:57Z</time>
      </trkpt>
      <trkpt lat="46.75409" lon="6.42119">
        <ele>1248</ele>
        <time>2019-05-04T13:52:01Z</time>
      </trkpt>
      <trkpt lat="46.75412" lon="6.42125">
        <ele>1248</ele>
        <time>2019-05-04T13:52:04Z</time>
      </trkpt>
      <trkpt lat="46.75416" lon="6.42133">
        <ele>1249</ele>
        <time>2019-05-04T13:52:10Z</time>
      </trkpt>
      <trkpt lat="46.75426" lon="6.42146">
        <ele>1251</ele>
        <time>2019-05-04T13:52:19Z</time>
      </trkpt>
      <trkpt lat="46.75436" lon="6.42168">
        <ele>1252</ele>
        <time>2019-05-04T13:52:32Z</time>
      </trkpt>
      <trkpt lat="46.75438" lon="6.42174">
        <ele>1253</ele>
        <time>2019-05-04T13:52:35Z</time>
      </trkpt>
      <trkpt lat="46.75441" lon="6.4218">
        <ele>1253</ele>
        <time>2019-05-04T13:52:39Z</time>
      </trkpt>
      <trkpt lat="46.7545" lon="6.42204">
        <ele>1255</ele>
        <time>2019-05-04T13:52:53Z</time>
      </trkpt>
      <trkpt lat="46.75451" lon="6.42205">
        <ele>1255</ele>
        <time>2019-05-04T13:52:54Z</time>
      </trkpt>
      <trkpt lat="46.75455" lon="6.42215">
        <ele>1256</ele>
        <time>2019-05-04T13:53:00Z</time>
      </trkpt>
      <trkpt lat="46.75464" lon="6.42238">
        <ele>1258</ele>
        <time>2019-05-04T13:53:12Z</time>
      </trkpt>
      <trkpt lat="46.75465" lon="6.42239">
        <ele>1258</ele>
        <time>2019-05-04T13:53:13Z</time>
      </trkpt>
      <trkpt lat="46.75469" lon="6.42251">
        <ele>1259</ele>
        <time>2019-05-04T13:53:20Z</time>
      </trkpt>
      <trkpt lat="46.75472" lon="6.42261">
        <ele>1259</ele>
        <time>2019-05-04T13:53:25Z</time>
      </trkpt>
      <trkpt lat="46.75475" lon="6.42265">
        <ele>1260</ele>
        <time>2019-05-04T13:53:28Z</time>
      </trkpt>
      <trkpt lat="46.75482" lon="6.42282">
        <ele>1261</ele>
        <time>2019-05-04T13:53:38Z</time>
      </trkpt>
      <trkpt lat="46.75486" lon="6.42289">
        <ele>1261</ele>
        <time>2019-05-04T13:53:42Z</time>
      </trkpt>
      <trkpt lat="46.75487" lon="6.42292">
        <ele>1262</ele>
        <time>2019-05-04T13:53:44Z</time>
      </trkpt>
      <trkpt lat="46.75492" lon="6.42304">
        <ele>1263</ele>
        <time>2019-05-04T13:53:51Z</time>
      </trkpt>
      <trkpt lat="46.75492" lon="6.42306">
        <ele>1263</ele>
        <time>2019-05-04T13:53:52Z</time>
      </trkpt>
      <trkpt lat="46.75498" lon="6.42326">
        <ele>1264</ele>
        <time>2019-05-04T13:54:03Z</time>
      </trkpt>
      <trkpt lat="46.75503" lon="6.42349">
        <ele>1265</ele>
        <time>2019-05-04T13:54:15Z</time>
      </trkpt>
      <trkpt lat="46.75505" lon="6.42359">
        <ele>1266</ele>
        <time>2019-05-04T13:54:20Z</time>
      </trkpt>
      <trkpt lat="46.75509" lon="6.42378">
        <ele>1267</ele>
        <time>2019-05-04T13:54:30Z</time>
      </trkpt>
      <trkpt lat="46.7551" lon="6.42385">
        <ele>1267</ele>
        <time>2019-05-04T13:54:34Z</time>
      </trkpt>
      <trkpt lat="46.7551" lon="6.42398">
        <ele>1268</ele>
        <time>2019-05-04T13:54:40Z</time>
      </trkpt>
      <trkpt lat="46.75511" lon="6.42405">
        <ele>1269</ele>
        <time>2019-05-04T13:54:44Z</time>
      </trkpt>
      <trkpt lat="46.75511" lon="6.42413">
        <ele>1269</ele>
        <time>2019-05-04T13:54:48Z</time>
      </trkpt>
      <trkpt lat="46.75515" lon="6.42438">
        <ele>1270</ele>
        <time>2019-05-04T13:55:01Z</time>
      </trkpt>
      <trkpt lat="46.75525" lon="6.4246">
        <ele>1271</ele>
        <time>2019-05-04T13:55:14Z</time>
      </trkpt>
      <trkpt lat="46.7554" lon="6.42474">
        <ele>1271</ele>
        <time>2019-05-04T13:55:27Z</time>
      </trkpt>
      <trkpt lat="46.75549" lon="6.42479">
        <ele>1272</ele>
        <time>2019-05-04T13:55:34Z</time>
      </trkpt>
      <trkpt lat="46.75566" lon="6.4248">
        <ele>1272</ele>
        <time>2019-05-04T13:55:46Z</time>
      </trkpt>
      <trkpt lat="46.75572" lon="6.42479">
        <ele>1272</ele>
        <time>2019-05-04T13:55:51Z</time>
      </trkpt>
      <trkpt lat="46.7558" lon="6.42474">
        <ele>1272</ele>
        <time>2019-05-04T13:55:57Z</time>
      </trkpt>
      <trkpt lat="46.75562" lon="6.42482">
        <ele>1272</ele>
        <time>2019-05-04T13:56:10Z</time>
      </trkpt>
      <trkpt lat="46.75554" lon="6.42484">
        <ele>1272</ele>
        <time>2019-05-04T13:56:16Z</time>
      </trkpt>
      <trkpt lat="46.75552" lon="6.42476">
        <ele>1271</ele>
        <time>2019-05-04T13:56:21Z</time>
      </trkpt>
      <trkpt lat="46.75551" lon="6.42467">
        <ele>1271</ele>
        <time>2019-05-04T13:56:25Z</time>
      </trkpt>
      <trkpt lat="46.75556" lon="6.42442">
        <ele>1269</ele>
        <time>2019-05-04T13:56:38Z</time>
      </trkpt>
      <trkpt lat="46.75559" lon="6.42431">
        <ele>1268</ele>
        <time>2019-05-04T13:56:44Z</time>
      </trkpt>
      <trkpt lat="46.75563" lon="6.42425">
        <ele>1268</ele>
        <time>2019-05-04T13:56:48Z</time>
      </trkpt>
      <trkpt lat="46.75565" lon="6.42418">
        <ele>1267</ele>
        <time>2019-05-04T13:56:52Z</time>
      </trkpt>
      <trkpt lat="46.75574" lon="6.42392">
        <ele>1265</ele>
        <time>2019-05-04T13:57:06Z</time>
      </trkpt>
      <trkpt lat="46.75578" lon="6.4238">
        <ele>1264</ele>
        <time>2019-05-04T13:57:13Z</time>
      </trkpt>
      <trkpt lat="46.75583" lon="6.42356">
        <ele>1261</ele>
        <time>2019-05-04T13:57:25Z</time>
      </trkpt>
      <trkpt lat="46.75582" lon="6.42327">
        <ele>1259</ele>
        <time>2019-05-04T13:57:40Z</time>
      </trkpt>
      <trkpt lat="46.75581" lon="6.42318">
        <ele>1259</ele>
        <time>2019-05-04T13:57:44Z</time>
      </trkpt>
      <trkpt lat="46.7558" lon="6.42314">
        <ele>1259</ele>
        <time>2019-05-04T13:57:47Z</time>
      </trkpt>
      <trkpt lat="46.75577" lon="6.42306">
        <ele>1259</ele>
        <time>2019-05-04T13:57:51Z</time>
      </trkpt>
      <trkpt lat="46.75573" lon="6.42293">
        <ele>1258</ele>
        <time>2019-05-04T13:57:58Z</time>
      </trkpt>
      <trkpt lat="46.75571" lon="6.4228">
        <ele>1258</ele>
        <time>2019-05-04T13:58:05Z</time>
      </trkpt>
      <trkpt lat="46.7557" lon="6.42272">
        <ele>1258</ele>
        <time>2019-05-04T13:58:09Z</time>
      </trkpt>
      <trkpt lat="46.75569" lon="6.42263">
        <ele>1257</ele>
        <time>2019-05-04T13:58:13Z</time>
      </trkpt>
      <trkpt lat="46.75571" lon="6.42241">
        <ele>1256</ele>
        <time>2019-05-04T13:58:24Z</time>
      </trkpt>
      <trkpt lat="46.75576" lon="6.42222">
        <ele>1255</ele>
        <time>2019-05-04T13:58:35Z</time>
      </trkpt>
      <trkpt lat="46.75582" lon="6.42192">
        <ele>1253</ele>
        <time>2019-05-04T13:58:50Z</time>
      </trkpt>
      <trkpt lat="46.75584" lon="6.4218">
        <ele>1252</ele>
        <time>2019-05-04T13:58:56Z</time>
      </trkpt>
      <trkpt lat="46.75584" lon="6.42176">
        <ele>1252</ele>
        <time>2019-05-04T13:58:58Z</time>
      </trkpt>
      <trkpt lat="46.75588" lon="6.4215">
        <ele>1250</ele>
        <time>2019-05-04T13:59:11Z</time>
      </trkpt>
      <trkpt lat="46.75592" lon="6.42135">
        <ele>1249</ele>
        <time>2019-05-04T13:59:19Z</time>
      </trkpt>
      <trkpt lat="46.75593" lon="6.42127">
        <ele>1248</ele>
        <time>2019-05-04T13:59:23Z</time>
      </trkpt>
      <trkpt lat="46.75596" lon="6.4212">
        <ele>1248</ele>
        <time>2019-05-04T13:59:27Z</time>
      </trkpt>
      <trkpt lat="46.75598" lon="6.42111">
        <ele>1247</ele>
        <time>2019-05-04T13:59:32Z</time>
      </trkpt>
      <trkpt lat="46.75599" lon="6.42099">
        <ele>1246</ele>
        <time>2019-05-04T13:59:38Z</time>
      </trkpt>
      <trkpt lat="46.75592" lon="6.42075">
        <ele>1247</ele>
        <time>2019-05-04T13:59:51Z</time>
      </trkpt>
      <trkpt lat="46.75587" lon="6.42046">
        <ele>1247</ele>
        <time>2019-05-04T14:00:06Z</time>
      </trkpt>
      <trkpt lat="46.7559" lon="6.42027">
        <ele>1246</ele>
        <time>2019-05-04T14:00:16Z</time>
      </trkpt>
      <trkpt lat="46.75592" lon="6.42023">
        <ele>1246</ele>
        <time>2019-05-04T14:00:18Z</time>
      </trkpt>
      <trkpt lat="46.75596" lon="6.4201">
        <ele>1245</ele>
        <time>2019-05-04T14:00:26Z</time>
      </trkpt>
      <trkpt lat="46.75599" lon="6.41996">
        <ele>1243</ele>
        <time>2019-05-04T14:00:33Z</time>
      </trkpt>
      <trkpt lat="46.75599" lon="6.4198">
        <ele>1241</ele>
        <time>2019-05-04T14:00:41Z</time>
      </trkpt>
      <trkpt lat="46.75594" lon="6.41961">
        <ele>1240</ele>
        <time>2019-05-04T14:00:51Z</time>
      </trkpt>
      <trkpt lat="46.75592" lon="6.41939">
        <ele>1238</ele>
        <time>2019-05-04T14:01:02Z</time>
      </trkpt>
      <trkpt lat="46.75588" lon="6.41914">
        <ele>1236</ele>
        <time>2019-05-04T14:01:15Z</time>
      </trkpt>
      <trkpt lat="46.7559" lon="6.41896">
        <ele>1234</ele>
        <time>2019-05-04T14:01:24Z</time>
      </trkpt>
      <trkpt lat="46.75594" lon="6.41883">
        <ele>1233</ele>
        <time>2019-05-04T14:01:31Z</time>
      </trkpt>
      <trkpt lat="46.75597" lon="6.41875">
        <ele>1232</ele>
        <time>2019-05-04T14:01:36Z</time>
      </trkpt>
      <trkpt lat="46.756" lon="6.41868">
        <ele>1231</ele>
        <time>2019-05-04T14:01:40Z</time>
      </trkpt>
      <trkpt lat="46.75608" lon="6.41849">
        <ele>1229</ele>
        <time>2019-05-04T14:01:51Z</time>
      </trkpt>
      <trkpt lat="46.75614" lon="6.41838">
        <ele>1227</ele>
        <time>2019-05-04T14:01:58Z</time>
      </trkpt>
      <trkpt lat="46.75619" lon="6.41828">
        <ele>1226</ele>
        <time>2019-05-04T14:02:05Z</time>
      </trkpt>
      <trkpt lat="46.75623" lon="6.41821">
        <ele>1225</ele>
        <time>2019-05-04T14:02:09Z</time>
      </trkpt>
      <trkpt lat="46.75627" lon="6.41815">
        <ele>1225</ele>
        <time>2019-05-04T14:02:13Z</time>
      </trkpt>
      <trkpt lat="46.75633" lon="6.41806">
        <ele>1223</ele>
        <time>2019-05-04T14:02:20Z</time>
      </trkpt>
      <trkpt lat="46.75638" lon="6.41798">
        <ele>1222</ele>
        <time>2019-05-04T14:02:25Z</time>
      </trkpt>
      <trkpt lat="46.75643" lon="6.41791">
        <ele>1221</ele>
        <time>2019-05-04T14:02:30Z</time>
      </trkpt>
      <trkpt lat="46.75649" lon="6.41781">
        <ele>1220</ele>
        <time>2019-05-04T14:02:37Z</time>
      </trkpt>
      <trkpt lat="46.75653" lon="6.41774">
        <ele>1219</ele>
        <time>2019-05-04T14:02:41Z</time>
      </trkpt>
      <trkpt lat="46.75657" lon="6.41766">
        <ele>1218</ele>
        <time>2019-05-04T14:02:46Z</time>
      </trkpt>
      <trkpt lat="46.75662" lon="6.41759">
        <ele>1217</ele>
        <time>2019-05-04T14:02:51Z</time>
      </trkpt>
      <trkpt lat="46.75666" lon="6.41753">
        <ele>1217</ele>
        <time>2019-05-04T14:02:56Z</time>
      </trkpt>
      <trkpt lat="46.75671" lon="6.41747">
        <ele>1216</ele>
        <time>2019-05-04T14:03:00Z</time>
      </trkpt>
      <trkpt lat="46.75676" lon="6.41741">
        <ele>1215</ele>
        <time>2019-05-04T14:03:05Z</time>
      </trkpt>
      <trkpt lat="46.7568" lon="6.41736">
        <ele>1214</ele>
        <time>2019-05-04T14:03:09Z</time>
      </trkpt>
      <trkpt lat="46.75687" lon="6.41726">
        <ele>1212</ele>
        <time>2019-05-04T14:03:16Z</time>
      </trkpt>
      <trkpt lat="46.75693" lon="6.41718">
        <ele>1210</ele>
        <time>2019-05-04T14:03:22Z</time>
      </trkpt>
      <trkpt lat="46.75697" lon="6.41713">
        <ele>1209</ele>
        <time>2019-05-04T14:03:26Z</time>
      </trkpt>
      <trkpt lat="46.75701" lon="6.41707">
        <ele>1208</ele>
        <time>2019-05-04T14:03:30Z</time>
      </trkpt>
      <trkpt lat="46.75708" lon="6.41696">
        <ele>1206</ele>
        <time>2019-05-04T14:03:38Z</time>
      </trkpt>
      <trkpt lat="46.75712" lon="6.41688">
        <ele>1204</ele>
        <time>2019-05-04T14:03:43Z</time>
      </trkpt>
      <trkpt lat="46.75717" lon="6.41681">
        <ele>1203</ele>
        <time>2019-05-04T14:03:47Z</time>
      </trkpt>
      <trkpt lat="46.75721" lon="6.41674">
        <ele>1202</ele>
        <time>2019-05-04T14:03:52Z</time>
      </trkpt>
      <trkpt lat="46.75727" lon="6.41663">
        <ele>1200</ele>
        <time>2019-05-04T14:03:59Z</time>
      </trkpt>
      <trkpt lat="46.75731" lon="6.41656">
        <ele>1199</ele>
        <time>2019-05-04T14:04:04Z</time>
      </trkpt>
      <trkpt lat="46.75734" lon="6.41646">
        <ele>1197</ele>
        <time>2019-05-04T14:04:09Z</time>
      </trkpt>
      <trkpt lat="46.75737" lon="6.41636">
        <ele>1196</ele>
        <time>2019-05-04T14:04:15Z</time>
      </trkpt>
      <trkpt lat="46.7574" lon="6.41628">
        <ele>1195</ele>
        <time>2019-05-04T14:04:19Z</time>
      </trkpt>
      <trkpt lat="46.75742" lon="6.4162">
        <ele>1194</ele>
        <time>2019-05-04T14:04:24Z</time>
      </trkpt>
      <trkpt lat="46.75745" lon="6.41612">
        <ele>1193</ele>
        <time>2019-05-04T14:04:28Z</time>
      </trkpt>
      <trkpt lat="46.75747" lon="6.41604">
        <ele>1192</ele>
        <time>2019-05-04T14:04:32Z</time>
      </trkpt>
      <trkpt lat="46.7575" lon="6.41596">
        <ele>1190</ele>
        <time>2019-05-04T14:04:37Z</time>
      </trkpt>
      <trkpt lat="46.75756" lon="6.41579">
        <ele>1187</ele>
        <time>2019-05-04T14:04:47Z</time>
      </trkpt>
      <trkpt lat="46.75765" lon="6.41567">
        <ele>1184</ele>
        <time>2019-05-04T14:04:56Z</time>
      </trkpt>
      <trkpt lat="46.75766" lon="6.41563">
        <ele>1183</ele>
        <time>2019-05-04T14:04:58Z</time>
      </trkpt>
      <trkpt lat="46.75768" lon="6.41559">
        <ele>1182</ele>
        <time>2019-05-04T14:05:00Z</time>
      </trkpt>
      <trkpt lat="46.7577" lon="6.41555">
        <ele>1182</ele>
        <time>2019-05-04T14:05:03Z</time>
      </trkpt>
      <trkpt lat="46.75772" lon="6.41547">
        <ele>1180</ele>
        <time>2019-05-04T14:05:07Z</time>
      </trkpt>
      <trkpt lat="46.75773" lon="6.41535">
        <ele>1178</ele>
        <time>2019-05-04T14:05:14Z</time>
      </trkpt>
      <trkpt lat="46.75774" lon="6.41517">
        <ele>1176</ele>
        <time>2019-05-04T14:05:22Z</time>
      </trkpt>
      <trkpt lat="46.75776" lon="6.41509">
        <ele>1175</ele>
        <time>2019-05-04T14:05:27Z</time>
      </trkpt>
      <trkpt lat="46.75779" lon="6.415">
        <ele>1174</ele>
        <time>2019-05-04T14:05:32Z</time>
      </trkpt>
      <trkpt lat="46.75784" lon="6.41489">
        <ele>1173</ele>
        <time>2019-05-04T14:05:39Z</time>
      </trkpt>
      <trkpt lat="46.75789" lon="6.41483">
        <ele>1172</ele>
        <time>2019-05-04T14:05:43Z</time>
      </trkpt>
      <trkpt lat="46.75791" lon="6.41479">
        <ele>1171</ele>
        <time>2019-05-04T14:05:46Z</time>
      </trkpt>
      <trkpt lat="46.75795" lon="6.41471">
        <ele>1170</ele>
        <time>2019-05-04T14:05:51Z</time>
      </trkpt>
      <trkpt lat="46.75805" lon="6.41448">
        <ele>1166</ele>
        <time>2019-05-04T14:06:04Z</time>
      </trkpt>
      <trkpt lat="46.75808" lon="6.4144">
        <ele>1165</ele>
        <time>2019-05-04T14:06:09Z</time>
      </trkpt>
      <trkpt lat="46.7581" lon="6.41433">
        <ele>1164</ele>
        <time>2019-05-04T14:06:13Z</time>
      </trkpt>
      <trkpt lat="46.75811" lon="6.41428">
        <ele>1164</ele>
        <time>2019-05-04T14:06:15Z</time>
      </trkpt>
      <trkpt lat="46.75813" lon="6.41421">
        <ele>1163</ele>
        <time>2019-05-04T14:06:19Z</time>
      </trkpt>
      <trkpt lat="46.75813" lon="6.41409">
        <ele>1163</ele>
        <time>2019-05-04T14:06:25Z</time>
      </trkpt>
      <trkpt lat="46.75814" lon="6.414">
        <ele>1162</ele>
        <time>2019-05-04T14:06:29Z</time>
      </trkpt>
      <trkpt lat="46.75815" lon="6.41392">
        <ele>1162</ele>
        <time>2019-05-04T14:06:34Z</time>
      </trkpt>
      <trkpt lat="46.75817" lon="6.41384">
        <ele>1161</ele>
        <time>2019-05-04T14:06:38Z</time>
      </trkpt>
      <trkpt lat="46.75819" lon="6.41368">
        <ele>1159</ele>
        <time>2019-05-04T14:06:46Z</time>
      </trkpt>
      <trkpt lat="46.75822" lon="6.41347">
        <ele>1157</ele>
        <time>2019-05-04T14:06:57Z</time>
      </trkpt>
      <trkpt lat="46.75824" lon="6.41338">
        <ele>1156</ele>
        <time>2019-05-04T14:07:02Z</time>
      </trkpt>
      <trkpt lat="46.75827" lon="6.4133">
        <ele>1155</ele>
        <time>2019-05-04T14:07:06Z</time>
      </trkpt>
      <trkpt lat="46.75831" lon="6.41322">
        <ele>1153</ele>
        <time>2019-05-04T14:07:11Z</time>
      </trkpt>
      <trkpt lat="46.75835" lon="6.41316">
        <ele>1151</ele>
        <time>2019-05-04T14:07:16Z</time>
      </trkpt>
      <trkpt lat="46.75839" lon="6.4131">
        <ele>1150</ele>
        <time>2019-05-04T14:07:20Z</time>
      </trkpt>
      <trkpt lat="46.75843" lon="6.41302">
        <ele>1148</ele>
        <time>2019-05-04T14:07:25Z</time>
      </trkpt>
      <trkpt lat="46.75845" lon="6.41294">
        <ele>1147</ele>
        <time>2019-05-04T14:07:29Z</time>
      </trkpt>
      <trkpt lat="46.75847" lon="6.4129">
        <ele>1146</ele>
        <time>2019-05-04T14:07:31Z</time>
      </trkpt>
      <trkpt lat="46.75848" lon="6.41284">
        <ele>1146</ele>
        <time>2019-05-04T14:07:35Z</time>
      </trkpt>
      <trkpt lat="46.75848" lon="6.41267">
        <ele>1144</ele>
        <time>2019-05-04T14:07:43Z</time>
      </trkpt>
      <trkpt lat="46.75846" lon="6.41252">
        <ele>1143</ele>
        <time>2019-05-04T14:07:51Z</time>
      </trkpt>
      <trkpt lat="46.75846" lon="6.41245">
        <ele>1142</ele>
        <time>2019-05-04T14:07:54Z</time>
      </trkpt>
      <trkpt lat="46.75846" lon="6.41241">
        <ele>1142</ele>
        <time>2019-05-04T14:07:56Z</time>
      </trkpt>
      <trkpt lat="46.75846" lon="6.41234">
        <ele>1141</ele>
        <time>2019-05-04T14:08:00Z</time>
      </trkpt>
      <trkpt lat="46.75845" lon="6.41226">
        <ele>1140</ele>
        <time>2019-05-04T14:08:04Z</time>
      </trkpt>
      <trkpt lat="46.75843" lon="6.41203">
        <ele>1138</ele>
        <time>2019-05-04T14:08:15Z</time>
      </trkpt>
      <trkpt lat="46.75839" lon="6.41191">
        <ele>1138</ele>
        <time>2019-05-04T14:08:22Z</time>
      </trkpt>
      <trkpt lat="46.75839" lon="6.41177">
        <ele>1137</ele>
        <time>2019-05-04T14:08:29Z</time>
      </trkpt>
      <trkpt lat="46.75839" lon="6.41151">
        <ele>1135</ele>
        <time>2019-05-04T14:08:42Z</time>
      </trkpt>
      <trkpt lat="46.75839" lon="6.41142">
        <ele>1134</ele>
        <time>2019-05-04T14:08:46Z</time>
      </trkpt>
      <trkpt lat="46.75837" lon="6.41135">
        <ele>1134</ele>
        <time>2019-05-04T14:08:50Z</time>
      </trkpt>
      <trkpt lat="46.75836" lon="6.41131">
        <ele>1134</ele>
        <time>2019-05-04T14:08:52Z</time>
      </trkpt>
      <trkpt lat="46.75836" lon="6.41124">
        <ele>1134</ele>
        <time>2019-05-04T14:08:56Z</time>
      </trkpt>
      <trkpt lat="46.75832" lon="6.41108">
        <ele>1134</ele>
        <time>2019-05-04T14:09:04Z</time>
      </trkpt>
      <trkpt lat="46.7583" lon="6.41092">
        <ele>1133</ele>
        <time>2019-05-04T14:09:12Z</time>
      </trkpt>
      <trkpt lat="46.75827" lon="6.41075">
        <ele>1133</ele>
        <time>2019-05-04T14:09:21Z</time>
      </trkpt>
      <trkpt lat="46.75827" lon="6.41065">
        <ele>1132</ele>
        <time>2019-05-04T14:09:26Z</time>
      </trkpt>
      <trkpt lat="46.75828" lon="6.41057">
        <ele>1131</ele>
        <time>2019-05-04T14:09:30Z</time>
      </trkpt>
      <trkpt lat="46.75832" lon="6.41048">
        <ele>1129</ele>
        <time>2019-05-04T14:09:35Z</time>
      </trkpt>
      <trkpt lat="46.75832" lon="6.4102">
        <ele>1127</ele>
        <time>2019-05-04T14:09:49Z</time>
      </trkpt>
      <trkpt lat="46.75831" lon="6.41001">
        <ele>1125</ele>
        <time>2019-05-04T14:09:59Z</time>
      </trkpt>
      <trkpt lat="46.75832" lon="6.40992">
        <ele>1123</ele>
        <time>2019-05-04T14:10:04Z</time>
      </trkpt>
      <trkpt lat="46.75834" lon="6.40983">
        <ele>1121</ele>
        <time>2019-05-04T14:10:08Z</time>
      </trkpt>
      <trkpt lat="46.75837" lon="6.40977">
        <ele>1120</ele>
        <time>2019-05-04T14:10:12Z</time>
      </trkpt>
      <trkpt lat="46.75842" lon="6.40973">
        <ele>1117</ele>
        <time>2019-05-04T14:10:17Z</time>
      </trkpt>
      <trkpt lat="46.7585" lon="6.40972">
        <ele>1114</ele>
        <time>2019-05-04T14:10:23Z</time>
      </trkpt>
      <trkpt lat="46.75855" lon="6.40971">
        <ele>1112</ele>
        <time>2019-05-04T14:10:27Z</time>
      </trkpt>
      <trkpt lat="46.75861" lon="6.40972">
        <ele>1110</ele>
        <time>2019-05-04T14:10:31Z</time>
      </trkpt>
      <trkpt lat="46.75872" lon="6.40975">
        <ele>1108</ele>
        <time>2019-05-04T14:10:39Z</time>
      </trkpt>
      <trkpt lat="46.75877" lon="6.40977">
        <ele>1107</ele>
        <time>2019-05-04T14:10:43Z</time>
      </trkpt>
      <trkpt lat="46.75887" lon="6.4098">
        <ele>1105</ele>
        <time>2019-05-04T14:10:51Z</time>
      </trkpt>
      <trkpt lat="46.75892" lon="6.4098">
        <ele>1104</ele>
        <time>2019-05-04T14:10:54Z</time>
      </trkpt>
      <trkpt lat="46.759" lon="6.40983">
        <ele>1102</ele>
        <time>2019-05-04T14:11:00Z</time>
      </trkpt>
      <trkpt lat="46.75905" lon="6.40985">
        <ele>1100</ele>
        <time>2019-05-04T14:11:05Z</time>
      </trkpt>
      <trkpt lat="46.75911" lon="6.40988">
        <ele>1099</ele>
        <time>2019-05-04T14:11:09Z</time>
      </trkpt>
      <trkpt lat="46.75928" lon="6.40997">
        <ele>1095</ele>
        <time>2019-05-04T14:11:23Z</time>
      </trkpt>
      <trkpt lat="46.75934" lon="6.41">
        <ele>1094</ele>
        <time>2019-05-04T14:11:27Z</time>
      </trkpt>
      <trkpt lat="46.75939" lon="6.41003">
        <ele>1092</ele>
        <time>2019-05-04T14:11:31Z</time>
      </trkpt>
      <trkpt lat="46.75944" lon="6.41005">
        <ele>1091</ele>
        <time>2019-05-04T14:11:35Z</time>
      </trkpt>
      <trkpt lat="46.7596" lon="6.41008">
        <ele>1090</ele>
        <time>2019-05-04T14:11:47Z</time>
      </trkpt>
      <trkpt lat="46.75968" lon="6.41011">
        <ele>1089</ele>
        <time>2019-05-04T14:11:52Z</time>
      </trkpt>
      <trkpt lat="46.75973" lon="6.41012">
        <ele>1089</ele>
        <time>2019-05-04T14:11:56Z</time>
      </trkpt>
      <trkpt lat="46.75988" lon="6.41014">
        <ele>1088</ele>
        <time>2019-05-04T14:12:07Z</time>
      </trkpt>
      <trkpt lat="46.75994" lon="6.41015">
        <ele>1087</ele>
        <time>2019-05-04T14:12:11Z</time>
      </trkpt>
      <trkpt lat="46.76008" lon="6.41019">
        <ele>1086</ele>
        <time>2019-05-04T14:12:22Z</time>
      </trkpt>
      <trkpt lat="46.76027" lon="6.41026">
        <ele>1085</ele>
        <time>2019-05-04T14:12:36Z</time>
      </trkpt>
      <trkpt lat="46.76032" lon="6.41028">
        <ele>1085</ele>
        <time>2019-05-04T14:12:40Z</time>
      </trkpt>
      <trkpt lat="46.76049" lon="6.41035">
        <ele>1083</ele>
        <time>2019-05-04T14:12:52Z</time>
      </trkpt>
      <trkpt lat="46.76068" lon="6.41038">
        <ele>1081</ele>
        <time>2019-05-04T14:13:07Z</time>
      </trkpt>
      <trkpt lat="46.76078" lon="6.41033">
        <ele>1081</ele>
        <time>2019-05-04T14:13:14Z</time>
      </trkpt>
      <trkpt lat="46.76087" lon="6.41028">
        <ele>1080</ele>
        <time>2019-05-04T14:13:21Z</time>
      </trkpt>
      <trkpt lat="46.76089" lon="6.41026">
        <ele>1080</ele>
        <time>2019-05-04T14:13:23Z</time>
      </trkpt>
      <trkpt lat="46.76091" lon="6.41024">
        <ele>1080</ele>
        <time>2019-05-04T14:13:25Z</time>
      </trkpt>
      <trkpt lat="46.76099" lon="6.41019">
        <ele>1079</ele>
        <time>2019-05-04T14:13:31Z</time>
      </trkpt>
      <trkpt lat="46.76109" lon="6.41011">
        <ele>1078</ele>
        <time>2019-05-04T14:13:39Z</time>
      </trkpt>
      <trkpt lat="46.76127" lon="6.41001">
        <ele>1077</ele>
        <time>2019-05-04T14:13:53Z</time>
      </trkpt>
      <trkpt lat="46.76134" lon="6.40997">
        <ele>1077</ele>
        <time>2019-05-04T14:13:58Z</time>
      </trkpt>
      <trkpt lat="46.76139" lon="6.40993">
        <ele>1076</ele>
        <time>2019-05-04T14:14:03Z</time>
      </trkpt>
      <trkpt lat="46.76157" lon="6.40979">
        <ele>1075</ele>
        <time>2019-05-04T14:14:17Z</time>
      </trkpt>
      <trkpt lat="46.76159" lon="6.40978">
        <ele>1075</ele>
        <time>2019-05-04T14:14:19Z</time>
      </trkpt>
      <trkpt lat="46.76166" lon="6.40973">
        <ele>1075</ele>
        <time>2019-05-04T14:14:25Z</time>
      </trkpt>
      <trkpt lat="46.76168" lon="6.40968">
        <ele>1074</ele>
        <time>2019-05-04T14:14:27Z</time>
      </trkpt>
      <trkpt lat="46.7618" lon="6.40968">
        <ele>1074</ele>
        <time>2019-05-04T14:14:36Z</time>
      </trkpt>
      <trkpt lat="46.76199" lon="6.40979">
        <ele>1072</ele>
        <time>2019-05-04T14:14:51Z</time>
      </trkpt>
      <trkpt lat="46.76207" lon="6.40984">
        <ele>1072</ele>
        <time>2019-05-04T14:14:58Z</time>
      </trkpt>
      <trkpt lat="46.76216" lon="6.40988">
        <ele>1071</ele>
        <time>2019-05-04T14:15:04Z</time>
      </trkpt>
      <trkpt lat="46.76218" lon="6.40987">
        <ele>1071</ele>
        <time>2019-05-04T14:15:06Z</time>
      </trkpt>
      <trkpt lat="46.76215" lon="6.40989">
        <ele>1072</ele>
        <time>2019-05-04T14:15:08Z</time>
      </trkpt>
      <trkpt lat="46.76215" lon="6.40996">
        <ele>1072</ele>
        <time>2019-05-04T14:15:11Z</time>
      </trkpt>
      <trkpt lat="46.76216" lon="6.40998">
        <ele>1071</ele>
        <time>2019-05-04T14:15:12Z</time>
      </trkpt>
      <trkpt lat="46.76221" lon="6.40985">
        <ele>1071</ele>
        <time>2019-05-04T14:15:20Z</time>
      </trkpt>
      <trkpt lat="46.76238" lon="6.40972">
        <ele>1071</ele>
        <time>2019-05-04T14:15:33Z</time>
      </trkpt>
      <trkpt lat="46.76244" lon="6.40968">
        <ele>1070</ele>
        <time>2019-05-04T14:15:39Z</time>
      </trkpt>
      <trkpt lat="46.76247" lon="6.40964">
        <ele>1070</ele>
        <time>2019-05-04T14:15:42Z</time>
      </trkpt>
      <trkpt lat="46.76248" lon="6.40962">
        <ele>1070</ele>
        <time>2019-05-04T14:15:43Z</time>
      </trkpt>
      <trkpt lat="46.76251" lon="6.40958">
        <ele>1070</ele>
        <time>2019-05-04T14:15:46Z</time>
      </trkpt>
      <trkpt lat="46.76251" lon="6.40957">
        <ele>1070</ele>
        <time>2019-05-04T14:15:46Z</time>
      </trkpt>
      <trkpt lat="46.76255" lon="6.40952">
        <ele>1070</ele>
        <time>2019-05-04T14:15:50Z</time>
      </trkpt>
      <trkpt lat="46.76256" lon="6.40951">
        <ele>1069</ele>
        <time>2019-05-04T14:15:51Z</time>
      </trkpt>
      <trkpt lat="46.76263" lon="6.40937">
        <ele>1069</ele>
        <time>2019-05-04T14:15:59Z</time>
      </trkpt>
      <trkpt lat="46.76253" lon="6.40924">
        <ele>1069</ele>
        <time>2019-05-04T14:16:09Z</time>
      </trkpt>
      <trkpt lat="46.76249" lon="6.40914">
        <ele>1069</ele>
        <time>2019-05-04T14:16:15Z</time>
      </trkpt>
      <trkpt lat="46.76244" lon="6.40905">
        <ele>1070</ele>
        <time>2019-05-04T14:16:20Z</time>
      </trkpt>
      <trkpt lat="46.76231" lon="6.40891">
        <ele>1070</ele>
        <time>2019-05-04T14:16:32Z</time>
      </trkpt>
      <trkpt lat="46.76217" lon="6.40871">
        <ele>1072</ele>
        <time>2019-05-04T14:16:46Z</time>
      </trkpt>
      <trkpt lat="46.76212" lon="6.40863">
        <ele>1072</ele>
        <time>2019-05-04T14:16:51Z</time>
      </trkpt>
      <trkpt lat="46.76208" lon="6.40858">
        <ele>1073</ele>
        <time>2019-05-04T14:16:55Z</time>
      </trkpt>
      <trkpt lat="46.76197" lon="6.40838">
        <ele>1074</ele>
        <time>2019-05-04T14:17:08Z</time>
      </trkpt>
      <trkpt lat="46.76185" lon="6.40815">
        <ele>1074</ele>
        <time>2019-05-04T14:17:22Z</time>
      </trkpt>
      <trkpt lat="46.76174" lon="6.40796">
        <ele>1073</ele>
        <time>2019-05-04T14:17:34Z</time>
      </trkpt>
      <trkpt lat="46.76164" lon="6.40772">
        <ele>1073</ele>
        <time>2019-05-04T14:17:49Z</time>
      </trkpt>
      <trkpt lat="46.76154" lon="6.40749">
        <ele>1072</ele>
        <time>2019-05-04T14:18:02Z</time>
      </trkpt>
      <trkpt lat="46.76146" lon="6.40735">
        <ele>1072</ele>
        <time>2019-05-04T14:18:11Z</time>
      </trkpt>
      <trkpt lat="46.76131" lon="6.40715">
        <ele>1072</ele>
        <time>2019-05-04T14:18:26Z</time>
      </trkpt>
      <trkpt lat="46.76126" lon="6.40708">
        <ele>1071</ele>
        <time>2019-05-04T14:18:31Z</time>
      </trkpt>
      <trkpt lat="46.76113" lon="6.40684">
        <ele>1071</ele>
        <time>2019-05-04T14:18:46Z</time>
      </trkpt>
      <trkpt lat="46.76099" lon="6.40664">
        <ele>1071</ele>
        <time>2019-05-04T14:19:00Z</time>
      </trkpt>
      <trkpt lat="46.76092" lon="6.40657">
        <ele>1071</ele>
        <time>2019-05-04T14:19:06Z</time>
      </trkpt>
      <trkpt lat="46.76077" lon="6.40638">
        <ele>1070</ele>
        <time>2019-05-04T14:19:20Z</time>
      </trkpt>
      <trkpt lat="46.76076" lon="6.40635">
        <ele>1069</ele>
        <time>2019-05-04T14:19:22Z</time>
      </trkpt>
      <trkpt lat="46.76068" lon="6.40622">
        <ele>1069</ele>
        <time>2019-05-04T14:19:31Z</time>
      </trkpt>
      <trkpt lat="46.7606" lon="6.40614">
        <ele>1068</ele>
        <time>2019-05-04T14:19:38Z</time>
      </trkpt>
      <trkpt lat="46.76051" lon="6.40605">
        <ele>1067</ele>
        <time>2019-05-04T14:19:45Z</time>
      </trkpt>
      <trkpt lat="46.7604" lon="6.40593">
        <ele>1066</ele>
        <time>2019-05-04T14:19:56Z</time>
      </trkpt>
      <trkpt lat="46.76034" lon="6.40586">
        <ele>1065</ele>
        <time>2019-05-04T14:20:01Z</time>
      </trkpt>
      <trkpt lat="46.76024" lon="6.40572">
        <ele>1064</ele>
        <time>2019-05-04T14:20:11Z</time>
      </trkpt>
      <trkpt lat="46.76014" lon="6.4056">
        <ele>1065</ele>
        <time>2019-05-04T14:20:21Z</time>
      </trkpt>
      <trkpt lat="46.76004" lon="6.40542">
        <ele>1066</ele>
        <time>2019-05-04T14:20:32Z</time>
      </trkpt>
      <trkpt lat="46.75996" lon="6.40529">
        <ele>1066</ele>
        <time>2019-05-04T14:20:41Z</time>
      </trkpt>
      <trkpt lat="46.7599" lon="6.40516">
        <ele>1066</ele>
        <time>2019-05-04T14:20:48Z</time>
      </trkpt>
      <trkpt lat="46.75982" lon="6.40503">
        <ele>1066</ele>
        <time>2019-05-04T14:20:57Z</time>
      </trkpt>
      <trkpt lat="46.75977" lon="6.40485">
        <ele>1065</ele>
        <time>2019-05-04T14:21:07Z</time>
      </trkpt>
      <trkpt lat="46.75975" lon="6.4047">
        <ele>1063</ele>
        <time>2019-05-04T14:21:15Z</time>
      </trkpt>
      <trkpt lat="46.75975" lon="6.40458">
        <ele>1062</ele>
        <time>2019-05-04T14:21:21Z</time>
      </trkpt>
      <trkpt lat="46.75975" lon="6.4043">
        <ele>1060</ele>
        <time>2019-05-04T14:21:35Z</time>
      </trkpt>
      <trkpt lat="46.75975" lon="6.40426">
        <ele>1059</ele>
        <time>2019-05-04T14:21:37Z</time>
      </trkpt>
      <trkpt lat="46.75973" lon="6.40414">
        <ele>1059</ele>
        <time>2019-05-04T14:21:43Z</time>
      </trkpt>
      <trkpt lat="46.75972" lon="6.40407">
        <ele>1058</ele>
        <time>2019-05-04T14:21:46Z</time>
      </trkpt>
      <trkpt lat="46.75972" lon="6.404">
        <ele>1057</ele>
        <time>2019-05-04T14:21:50Z</time>
      </trkpt>
      <trkpt lat="46.75969" lon="6.40389">
        <ele>1056</ele>
        <time>2019-05-04T14:21:56Z</time>
      </trkpt>
      <trkpt lat="46.75966" lon="6.40375">
        <ele>1055</ele>
        <time>2019-05-04T14:22:03Z</time>
      </trkpt>
      <trkpt lat="46.75966" lon="6.40356">
        <ele>1053</ele>
        <time>2019-05-04T14:22:13Z</time>
      </trkpt>
      <trkpt lat="46.75965" lon="6.40343">
        <ele>1053</ele>
        <time>2019-05-04T14:22:19Z</time>
      </trkpt>
      <trkpt lat="46.75964" lon="6.4033">
        <ele>1052</ele>
        <time>2019-05-04T14:22:26Z</time>
      </trkpt>
      <trkpt lat="46.75961" lon="6.40319">
        <ele>1052</ele>
        <time>2019-05-04T14:22:32Z</time>
      </trkpt>
      <trkpt lat="46.75953" lon="6.40305">
        <ele>1049</ele>
        <time>2019-05-04T14:22:41Z</time>
      </trkpt>
      <trkpt lat="46.75956" lon="6.40305">
        <ele>1050</ele>
        <time>2019-05-04T14:22:43Z</time>
      </trkpt>
      <trkpt lat="46.75953" lon="6.40294">
        <ele>1049</ele>
        <time>2019-05-04T14:22:49Z</time>
      </trkpt>
      <trkpt lat="46.75945" lon="6.40293">
        <ele>1048</ele>
        <time>2019-05-04T14:22:55Z</time>
      </trkpt>
      <trkpt lat="46.75945" lon="6.40296">
        <ele>1048</ele>
        <time>2019-05-04T14:22:56Z</time>
      </trkpt>
      <trkpt lat="46.7594" lon="6.40297">
        <ele>1048</ele>
        <time>2019-05-04T14:23:00Z</time>
      </trkpt>
      <trkpt lat="46.7594" lon="6.40298">
        <ele>1048</ele>
        <time>2019-05-04T14:23:00Z</time>
      </trkpt>
      <trkpt lat="46.7594" lon="6.40298">
        <ele>1048</ele>
        <time>2019-05-04T14:23:00Z</time>
      </trkpt>
      <trkpt lat="46.75939" lon="6.40298">
        <ele>1048</ele>
        <time>2019-05-04T14:23:01Z</time>
      </trkpt>
      <trkpt lat="46.75937" lon="6.40299">
        <ele>1048</ele>
        <time>2019-05-04T14:23:02Z</time>
      </trkpt>
      <trkpt lat="46.75935" lon="6.403">
        <ele>1049</ele>
        <time>2019-05-04T14:23:04Z</time>
      </trkpt>
      <trkpt lat="46.75933" lon="6.40303">
        <ele>1049</ele>
        <time>2019-05-04T14:23:06Z</time>
      </trkpt>
      <trkpt lat="46.75932" lon="6.40304">
        <ele>1049</ele>
        <time>2019-05-04T14:23:07Z</time>
      </trkpt>
      <trkpt lat="46.7593" lon="6.40305">
        <ele>1049</ele>
        <time>2019-05-04T14:23:08Z</time>
      </trkpt>
      <trkpt lat="46.75927" lon="6.40305">
        <ele>1050</ele>
        <time>2019-05-04T14:23:10Z</time>
      </trkpt>
      <trkpt lat="46.75921" lon="6.40298">
        <ele>1050</ele>
        <time>2019-05-04T14:23:16Z</time>
      </trkpt>
      <trkpt lat="46.75919" lon="6.40296">
        <ele>1050</ele>
        <time>2019-05-04T14:23:18Z</time>
      </trkpt>
      <trkpt lat="46.75914" lon="6.40291">
        <ele>1050</ele>
        <time>2019-05-04T14:23:22Z</time>
      </trkpt>
      <trkpt lat="46.75908" lon="6.40283">
        <ele>1050</ele>
        <time>2019-05-04T14:23:28Z</time>
      </trkpt>
      <trkpt lat="46.75903" lon="6.40277">
        <ele>1050</ele>
        <time>2019-05-04T14:23:33Z</time>
      </trkpt>
      <trkpt lat="46.75899" lon="6.40271">
        <ele>1050</ele>
        <time>2019-05-04T14:23:37Z</time>
      </trkpt>
      <trkpt lat="46.75896" lon="6.4026">
        <ele>1049</ele>
        <time>2019-05-04T14:23:43Z</time>
      </trkpt>
      <trkpt lat="46.75888" lon="6.40248">
        <ele>1048</ele>
        <time>2019-05-04T14:23:51Z</time>
      </trkpt>
      <trkpt lat="46.75882" lon="6.40239">
        <ele>1047</ele>
        <time>2019-05-04T14:23:58Z</time>
      </trkpt>
      <trkpt lat="46.75879" lon="6.40233">
        <ele>1047</ele>
        <time>2019-05-04T14:24:01Z</time>
      </trkpt>
      <trkpt lat="46.75877" lon="6.40232">
        <ele>1046</ele>
        <time>2019-05-04T14:24:03Z</time>
      </trkpt>
      <trkpt lat="46.75873" lon="6.40227">
        <ele>1046</ele>
        <time>2019-05-04T14:24:06Z</time>
      </trkpt>
      <trkpt lat="46.7587" lon="6.40221">
        <ele>1045</ele>
        <time>2019-05-04T14:24:10Z</time>
      </trkpt>
      <trkpt lat="46.75866" lon="6.40216">
        <ele>1044</ele>
        <time>2019-05-04T14:24:14Z</time>
      </trkpt>
      <trkpt lat="46.75862" lon="6.40206">
        <ele>1042</ele>
        <time>2019-05-04T14:24:20Z</time>
      </trkpt>
      <trkpt lat="46.75855" lon="6.40185">
        <ele>1040</ele>
        <time>2019-05-04T14:24:31Z</time>
      </trkpt>
      <trkpt lat="46.7585" lon="6.40173">
        <ele>1039</ele>
        <time>2019-05-04T14:24:39Z</time>
      </trkpt>
      <trkpt lat="46.75847" lon="6.40166">
        <ele>1039</ele>
        <time>2019-05-04T14:24:43Z</time>
      </trkpt>
      <trkpt lat="46.75842" lon="6.4016">
        <ele>1039</ele>
        <time>2019-05-04T14:24:47Z</time>
      </trkpt>
      <trkpt lat="46.75836" lon="6.40153">
        <ele>1038</ele>
        <time>2019-05-04T14:24:53Z</time>
      </trkpt>
      <trkpt lat="46.75833" lon="6.40146">
        <ele>1037</ele>
        <time>2019-05-04T14:24:57Z</time>
      </trkpt>
      <trkpt lat="46.75828" lon="6.40139">
        <ele>1037</ele>
        <time>2019-05-04T14:25:02Z</time>
      </trkpt>
      <trkpt lat="46.75823" lon="6.40132">
        <ele>1036</ele>
        <time>2019-05-04T14:25:07Z</time>
      </trkpt>
      <trkpt lat="46.75816" lon="6.40121">
        <ele>1034</ele>
        <time>2019-05-04T14:25:14Z</time>
      </trkpt>
      <trkpt lat="46.7581" lon="6.401">
        <ele>1030</ele>
        <time>2019-05-04T14:25:26Z</time>
      </trkpt>
      <trkpt lat="46.75808" lon="6.40084">
        <ele>1028</ele>
        <time>2019-05-04T14:25:34Z</time>
      </trkpt>
      <trkpt lat="46.75806" lon="6.40073">
        <ele>1026</ele>
        <time>2019-05-04T14:25:40Z</time>
      </trkpt>
      <trkpt lat="46.75801" lon="6.4006">
        <ele>1024</ele>
        <time>2019-05-04T14:25:47Z</time>
      </trkpt>
      <trkpt lat="46.75796" lon="6.40038">
        <ele>1020</ele>
        <time>2019-05-04T14:25:59Z</time>
      </trkpt>
      <trkpt lat="46.75792" lon="6.40032">
        <ele>1018</ele>
        <time>2019-05-04T14:26:03Z</time>
      </trkpt>
      <trkpt lat="46.75789" lon="6.40026">
        <ele>1016</ele>
        <time>2019-05-04T14:26:07Z</time>
      </trkpt>
      <trkpt lat="46.75784" lon="6.40016">
        <ele>1014</ele>
        <time>2019-05-04T14:26:14Z</time>
      </trkpt>
      <trkpt lat="46.7578" lon="6.40009">
        <ele>1013</ele>
        <time>2019-05-04T14:26:18Z</time>
      </trkpt>
      <trkpt lat="46.75779" lon="6.40006">
        <ele>1013</ele>
        <time>2019-05-04T14:26:20Z</time>
      </trkpt>
      <trkpt lat="46.75777" lon="6.4">
        <ele>1013</ele>
        <time>2019-05-04T14:26:23Z</time>
      </trkpt>
      <trkpt lat="46.7577" lon="6.39992">
        <ele>1014</ele>
        <time>2019-05-04T14:26:29Z</time>
      </trkpt>
      <trkpt lat="46.75765" lon="6.39982">
        <ele>1015</ele>
        <time>2019-05-04T14:26:36Z</time>
      </trkpt>
      <trkpt lat="46.75762" lon="6.39976">
        <ele>1015</ele>
        <time>2019-05-04T14:26:39Z</time>
      </trkpt>
      <trkpt lat="46.75762" lon="6.39973">
        <ele>1015</ele>
        <time>2019-05-04T14:26:41Z</time>
      </trkpt>
      <trkpt lat="46.7576" lon="6.3997">
        <ele>1014</ele>
        <time>2019-05-04T14:26:43Z</time>
      </trkpt>
      <trkpt lat="46.75753" lon="6.39959">
        <ele>1014</ele>
        <time>2019-05-04T14:26:50Z</time>
      </trkpt>
      <trkpt lat="46.75751" lon="6.39953">
        <ele>1013</ele>
        <time>2019-05-04T14:26:54Z</time>
      </trkpt>
      <trkpt lat="46.75748" lon="6.39944">
        <ele>1012</ele>
        <time>2019-05-04T14:26:59Z</time>
      </trkpt>
      <trkpt lat="46.75744" lon="6.39938">
        <ele>1012</ele>
        <time>2019-05-04T14:27:03Z</time>
      </trkpt>
      <trkpt lat="46.75742" lon="6.39935">
        <ele>1011</ele>
        <time>2019-05-04T14:27:05Z</time>
      </trkpt>
      <trkpt lat="46.75735" lon="6.39921">
        <ele>1010</ele>
        <time>2019-05-04T14:27:13Z</time>
      </trkpt>
      <trkpt lat="46.75731" lon="6.39918">
        <ele>1010</ele>
        <time>2019-05-04T14:27:17Z</time>
      </trkpt>
      <trkpt lat="46.75726" lon="6.39913">
        <ele>1009</ele>
        <time>2019-05-04T14:27:21Z</time>
      </trkpt>
      <trkpt lat="46.75718" lon="6.39905">
        <ele>1007</ele>
        <time>2019-05-04T14:27:29Z</time>
      </trkpt>
      <trkpt lat="46.75708" lon="6.39897">
        <ele>1004</ele>
        <time>2019-05-04T14:27:37Z</time>
      </trkpt>
      <trkpt lat="46.75699" lon="6.39886">
        <ele>1000</ele>
        <time>2019-05-04T14:27:46Z</time>
      </trkpt>
      <trkpt lat="46.75691" lon="6.39878">
        <ele>1000</ele>
        <time>2019-05-04T14:27:53Z</time>
      </trkpt>
      <trkpt lat="46.75682" lon="6.39864">
        <ele>1000</ele>
        <time>2019-05-04T14:28:02Z</time>
      </trkpt>
      <trkpt lat="46.75676" lon="6.39858">
        <ele>1001</ele>
        <time>2019-05-04T14:28:07Z</time>
      </trkpt>
      <trkpt lat="46.75672" lon="6.39852">
        <ele>1001</ele>
        <time>2019-05-04T14:28:12Z</time>
      </trkpt>
      <trkpt lat="46.75665" lon="6.39842">
        <ele>1002</ele>
        <time>2019-05-04T14:28:19Z</time>
      </trkpt>
      <trkpt lat="46.75659" lon="6.39837">
        <ele>1004</ele>
        <time>2019-05-04T14:28:24Z</time>
      </trkpt>
      <trkpt lat="46.75655" lon="6.39831">
        <ele>1003</ele>
        <time>2019-05-04T14:28:28Z</time>
      </trkpt>
      <trkpt lat="46.75652" lon="6.39823">
        <ele>1003</ele>
        <time>2019-05-04T14:28:33Z</time>
      </trkpt>
      <trkpt lat="46.75649" lon="6.39813">
        <ele>1001</ele>
        <time>2019-05-04T14:28:39Z</time>
      </trkpt>
      <trkpt lat="46.75648" lon="6.39809">
        <ele>1000</ele>
        <time>2019-05-04T14:28:40Z</time>
      </trkpt>
      <trkpt lat="46.75644" lon="6.39805">
        <ele>1000</ele>
        <time>2019-05-04T14:28:44Z</time>
      </trkpt>
      <trkpt lat="46.75644" lon="6.39802">
        <ele>999</ele>
        <time>2019-05-04T14:28:45Z</time>
      </trkpt>
      <trkpt lat="46.75643" lon="6.398">
        <ele>999</ele>
        <time>2019-05-04T14:28:47Z</time>
      </trkpt>
      <trkpt lat="46.75641" lon="6.39792">
        <ele>997</ele>
        <time>2019-05-04T14:28:51Z</time>
      </trkpt>
      <trkpt lat="46.75638" lon="6.39786">
        <ele>996</ele>
        <time>2019-05-04T14:28:55Z</time>
      </trkpt>
      <trkpt lat="46.75637" lon="6.39783">
        <ele>995</ele>
        <time>2019-05-04T14:28:57Z</time>
      </trkpt>
      <trkpt lat="46.75634" lon="6.39777">
        <ele>993</ele>
        <time>2019-05-04T14:29:00Z</time>
      </trkpt>
      <trkpt lat="46.75634" lon="6.39774">
        <ele>992</ele>
        <time>2019-05-04T14:29:02Z</time>
      </trkpt>
      <trkpt lat="46.75632" lon="6.3977">
        <ele>992</ele>
        <time>2019-05-04T14:29:05Z</time>
      </trkpt>
      <trkpt lat="46.7563" lon="6.39763">
        <ele>990</ele>
        <time>2019-05-04T14:29:08Z</time>
      </trkpt>
      <trkpt lat="46.75629" lon="6.39757">
        <ele>989</ele>
        <time>2019-05-04T14:29:11Z</time>
      </trkpt>
      <trkpt lat="46.75627" lon="6.39746">
        <ele>987</ele>
        <time>2019-05-04T14:29:17Z</time>
      </trkpt>
      <trkpt lat="46.75627" lon="6.39739">
        <ele>985</ele>
        <time>2019-05-04T14:29:21Z</time>
      </trkpt>
      <trkpt lat="46.75623" lon="6.39729">
        <ele>983</ele>
        <time>2019-05-04T14:29:27Z</time>
      </trkpt>
      <trkpt lat="46.75621" lon="6.39723">
        <ele>981</ele>
        <time>2019-05-04T14:29:30Z</time>
      </trkpt>
      <trkpt lat="46.75619" lon="6.39721">
        <ele>980</ele>
        <time>2019-05-04T14:29:32Z</time>
      </trkpt>
      <trkpt lat="46.75617" lon="6.39715">
        <ele>978</ele>
        <time>2019-05-04T14:29:36Z</time>
      </trkpt>
      <trkpt lat="46.75614" lon="6.39714">
        <ele>977</ele>
        <time>2019-05-04T14:29:38Z</time>
      </trkpt>
      <trkpt lat="46.75606" lon="6.39704">
        <ele>977</ele>
        <time>2019-05-04T14:29:45Z</time>
      </trkpt>
      <trkpt lat="46.756" lon="6.39697">
        <ele>977</ele>
        <time>2019-05-04T14:29:51Z</time>
      </trkpt>
      <trkpt lat="46.75595" lon="6.39694">
        <ele>977</ele>
        <time>2019-05-04T14:29:55Z</time>
      </trkpt>
      <trkpt lat="46.75591" lon="6.39689">
        <ele>977</ele>
        <time>2019-05-04T14:29:59Z</time>
      </trkpt>
      <trkpt lat="46.75587" lon="6.39684">
        <ele>978</ele>
        <time>2019-05-04T14:30:03Z</time>
      </trkpt>
      <trkpt lat="46.7558" lon="6.3967">
        <ele>978</ele>
        <time>2019-05-04T14:30:11Z</time>
      </trkpt>
      <trkpt lat="46.75573" lon="6.39663">
        <ele>978</ele>
        <time>2019-05-04T14:30:17Z</time>
      </trkpt>
      <trkpt lat="46.75571" lon="6.39658">
        <ele>978</ele>
        <time>2019-05-04T14:30:20Z</time>
      </trkpt>
      <trkpt lat="46.75564" lon="6.39642">
        <ele>976</ele>
        <time>2019-05-04T14:30:30Z</time>
      </trkpt>
      <trkpt lat="46.75563" lon="6.39632">
        <ele>974</ele>
        <time>2019-05-04T14:30:35Z</time>
      </trkpt>
      <trkpt lat="46.75561" lon="6.39629">
        <ele>973</ele>
        <time>2019-05-04T14:30:37Z</time>
      </trkpt>
      <trkpt lat="46.75559" lon="6.39622">
        <ele>972</ele>
        <time>2019-05-04T14:30:40Z</time>
      </trkpt>
      <trkpt lat="46.75558" lon="6.39616">
        <ele>970</ele>
        <time>2019-05-04T14:30:44Z</time>
      </trkpt>
      <trkpt lat="46.75556" lon="6.3961">
        <ele>969</ele>
        <time>2019-05-04T14:30:47Z</time>
      </trkpt>
      <trkpt lat="46.75553" lon="6.39602">
        <ele>968</ele>
        <time>2019-05-04T14:30:52Z</time>
      </trkpt>
      <trkpt lat="46.75545" lon="6.39585">
        <ele>964</ele>
        <time>2019-05-04T14:31:02Z</time>
      </trkpt>
      <trkpt lat="46.7554" lon="6.39578">
        <ele>963</ele>
        <time>2019-05-04T14:31:07Z</time>
      </trkpt>
      <trkpt lat="46.75532" lon="6.39567">
        <ele>959</ele>
        <time>2019-05-04T14:31:16Z</time>
      </trkpt>
      <trkpt lat="46.75529" lon="6.39562">
        <ele>958</ele>
        <time>2019-05-04T14:31:19Z</time>
      </trkpt>
      <trkpt lat="46.75523" lon="6.39555">
        <ele>957</ele>
        <time>2019-05-04T14:31:25Z</time>
      </trkpt>
      <trkpt lat="46.75516" lon="6.39549">
        <ele>957</ele>
        <time>2019-05-04T14:31:30Z</time>
      </trkpt>
      <trkpt lat="46.75511" lon="6.3954">
        <ele>956</ele>
        <time>2019-05-04T14:31:36Z</time>
      </trkpt>
      <trkpt lat="46.75507" lon="6.39533">
        <ele>955</ele>
        <time>2019-05-04T14:31:40Z</time>
      </trkpt>
      <trkpt lat="46.75496" lon="6.39512">
        <ele>953</ele>
        <time>2019-05-04T14:31:54Z</time>
      </trkpt>
      <trkpt lat="46.75493" lon="6.39506">
        <ele>953</ele>
        <time>2019-05-04T14:31:58Z</time>
      </trkpt>
      <trkpt lat="46.75488" lon="6.395">
        <ele>952</ele>
        <time>2019-05-04T14:32:02Z</time>
      </trkpt>
      <trkpt lat="46.75483" lon="6.39489">
        <ele>951</ele>
        <time>2019-05-04T14:32:09Z</time>
      </trkpt>
      <trkpt lat="46.75479" lon="6.3948">
        <ele>949</ele>
        <time>2019-05-04T14:32:15Z</time>
      </trkpt>
      <trkpt lat="46.75471" lon="6.3947">
        <ele>948</ele>
        <time>2019-05-04T14:32:22Z</time>
      </trkpt>
      <trkpt lat="46.75467" lon="6.39465">
        <ele>946</ele>
        <time>2019-05-04T14:32:26Z</time>
      </trkpt>
      <trkpt lat="46.75465" lon="6.3946">
        <ele>945</ele>
        <time>2019-05-04T14:32:29Z</time>
      </trkpt>
      <trkpt lat="46.75463" lon="6.39449">
        <ele>943</ele>
        <time>2019-05-04T14:32:35Z</time>
      </trkpt>
      <trkpt lat="46.75456" lon="6.3942">
        <ele>936</ele>
        <time>2019-05-04T14:32:51Z</time>
      </trkpt>
      <trkpt lat="46.75453" lon="6.3941">
        <ele>934</ele>
        <time>2019-05-04T14:32:57Z</time>
      </trkpt>
      <trkpt lat="46.75446" lon="6.39401">
        <ele>932</ele>
        <time>2019-05-04T14:33:03Z</time>
      </trkpt>
      <trkpt lat="46.75438" lon="6.39392">
        <ele>932</ele>
        <time>2019-05-04T14:33:11Z</time>
      </trkpt>
      <trkpt lat="46.75431" lon="6.39383">
        <ele>931</ele>
        <time>2019-05-04T14:33:18Z</time>
      </trkpt>
      <trkpt lat="46.75425" lon="6.39376">
        <ele>931</ele>
        <time>2019-05-04T14:33:23Z</time>
      </trkpt>
      <trkpt lat="46.75423" lon="6.39358">
        <ele>928</ele>
        <time>2019-05-04T14:33:32Z</time>
      </trkpt>
      <trkpt lat="46.75422" lon="6.39352">
        <ele>927</ele>
        <time>2019-05-04T14:33:36Z</time>
      </trkpt>
      <trkpt lat="46.75417" lon="6.39346">
        <ele>927</ele>
        <time>2019-05-04T14:33:40Z</time>
      </trkpt>
      <trkpt lat="46.75413" lon="6.3934">
        <ele>927</ele>
        <time>2019-05-04T14:33:44Z</time>
      </trkpt>
      <trkpt lat="46.75409" lon="6.39332">
        <ele>926</ele>
        <time>2019-05-04T14:33:49Z</time>
      </trkpt>
      <trkpt lat="46.754" lon="6.39314">
        <ele>924</ele>
        <time>2019-05-04T14:34:00Z</time>
      </trkpt>
      <trkpt lat="46.75397" lon="6.39303">
        <ele>922</ele>
        <time>2019-05-04T14:34:07Z</time>
      </trkpt>
      <trkpt lat="46.7539" lon="6.39279">
        <ele>918</ele>
        <time>2019-05-04T14:34:20Z</time>
      </trkpt>
      <trkpt lat="46.75388" lon="6.39269">
        <ele>916</ele>
        <time>2019-05-04T14:34:25Z</time>
      </trkpt>
      <trkpt lat="46.75386" lon="6.39244">
        <ele>912</ele>
        <time>2019-05-04T14:34:38Z</time>
      </trkpt>
      <trkpt lat="46.75386" lon="6.3924">
        <ele>911</ele>
        <time>2019-05-04T14:34:40Z</time>
      </trkpt>
      <trkpt lat="46.75385" lon="6.39236">
        <ele>910</ele>
        <time>2019-05-04T14:34:42Z</time>
      </trkpt>
      <trkpt lat="46.75384" lon="6.39228">
        <ele>909</ele>
        <time>2019-05-04T14:34:46Z</time>
      </trkpt>
      <trkpt lat="46.75381" lon="6.39222">
        <ele>908</ele>
        <time>2019-05-04T14:34:50Z</time>
      </trkpt>
      <trkpt lat="46.7538" lon="6.39209">
        <ele>905</ele>
        <time>2019-05-04T14:34:56Z</time>
      </trkpt>
      <trkpt lat="46.75382" lon="6.39189">
        <ele>901</ele>
        <time>2019-05-04T14:35:06Z</time>
      </trkpt>
      <trkpt lat="46.75384" lon="6.39177">
        <ele>900</ele>
        <time>2019-05-04T14:35:13Z</time>
      </trkpt>
      <trkpt lat="46.75391" lon="6.39154">
        <ele>897</ele>
        <time>2019-05-04T14:35:25Z</time>
      </trkpt>
      <trkpt lat="46.75399" lon="6.39143">
        <ele>895</ele>
        <time>2019-05-04T14:35:33Z</time>
      </trkpt>
      <trkpt lat="46.75407" lon="6.39132">
        <ele>893</ele>
        <time>2019-05-04T14:35:42Z</time>
      </trkpt>
      <trkpt lat="46.75413" lon="6.39124">
        <ele>891</ele>
        <time>2019-05-04T14:35:48Z</time>
      </trkpt>
      <trkpt lat="46.75424" lon="6.39103">
        <ele>888</ele>
        <time>2019-05-04T14:36:01Z</time>
      </trkpt>
      <trkpt lat="46.75431" lon="6.39097">
        <ele>887</ele>
        <time>2019-05-04T14:36:07Z</time>
      </trkpt>
      <trkpt lat="46.75437" lon="6.39098">
        <ele>886</ele>
        <time>2019-05-04T14:36:11Z</time>
      </trkpt>
      <trkpt lat="46.7544" lon="6.39099">
        <ele>886</ele>
        <time>2019-05-04T14:36:13Z</time>
      </trkpt>
      <trkpt lat="46.75443" lon="6.39101">
        <ele>886</ele>
        <time>2019-05-04T14:36:16Z</time>
      </trkpt>
      <trkpt lat="46.75455" lon="6.391">
        <ele>885</ele>
        <time>2019-05-04T14:36:25Z</time>
      </trkpt>
      <trkpt lat="46.75462" lon="6.39096">
        <ele>885</ele>
        <time>2019-05-04T14:36:30Z</time>
      </trkpt>
      <trkpt lat="46.75469" lon="6.39095">
        <ele>884</ele>
        <time>2019-05-04T14:36:35Z</time>
      </trkpt>
      <trkpt lat="46.75488" lon="6.39096">
        <ele>883</ele>
        <time>2019-05-04T14:36:49Z</time>
      </trkpt>
      <trkpt lat="46.75506" lon="6.39103">
        <ele>883</ele>
        <time>2019-05-04T14:37:02Z</time>
      </trkpt>
      <trkpt lat="46.75511" lon="6.39105">
        <ele>883</ele>
        <time>2019-05-04T14:37:06Z</time>
      </trkpt>
      <trkpt lat="46.75515" lon="6.39106">
        <ele>883</ele>
        <time>2019-05-04T14:37:09Z</time>
      </trkpt>
      <trkpt lat="46.75519" lon="6.39106">
        <ele>882</ele>
        <time>2019-05-04T14:37:12Z</time>
      </trkpt>
      <trkpt lat="46.75537" lon="6.39108">
        <ele>882</ele>
        <time>2019-05-04T14:37:25Z</time>
      </trkpt>
      <trkpt lat="46.75551" lon="6.39119">
        <ele>883</ele>
        <time>2019-05-04T14:37:37Z</time>
      </trkpt>
      <trkpt lat="46.7556" lon="6.39129">
        <ele>885</ele>
        <time>2019-05-04T14:37:45Z</time>
      </trkpt>
      <trkpt lat="46.75578" lon="6.39134">
        <ele>885</ele>
        <time>2019-05-04T14:37:58Z</time>
      </trkpt>
      <trkpt lat="46.75596" lon="6.39139">
        <ele>885</ele>
        <time>2019-05-04T14:38:12Z</time>
      </trkpt>
      <trkpt lat="46.7561" lon="6.39142">
        <ele>885</ele>
        <time>2019-05-04T14:38:22Z</time>
      </trkpt>
      <trkpt lat="46.7563" lon="6.39148">
        <ele>885</ele>
        <time>2019-05-04T14:38:36Z</time>
      </trkpt>
      <trkpt lat="46.75645" lon="6.39152">
        <ele>885</ele>
        <time>2019-05-04T14:38:47Z</time>
      </trkpt>
      <trkpt lat="46.75658" lon="6.39159">
        <ele>885</ele>
        <time>2019-05-04T14:38:57Z</time>
      </trkpt>
      <trkpt lat="46.75668" lon="6.39166">
        <ele>886</ele>
        <time>2019-05-04T14:39:05Z</time>
      </trkpt>
      <trkpt lat="46.75683" lon="6.39182">
        <ele>886</ele>
        <time>2019-05-04T14:39:19Z</time>
      </trkpt>
      <trkpt lat="46.75698" lon="6.39201">
        <ele>890</ele>
        <time>2019-05-04T14:39:33Z</time>
      </trkpt>
      <trkpt lat="46.75709" lon="6.39223">
        <ele>896</ele>
        <time>2019-05-04T14:39:47Z</time>
      </trkpt>
      <trkpt lat="46.7571" lon="6.39226">
        <ele>897</ele>
        <time>2019-05-04T14:39:49Z</time>
      </trkpt>
      <trkpt lat="46.75723" lon="6.39245">
        <ele>900</ele>
        <time>2019-05-04T14:40:02Z</time>
      </trkpt>
      <trkpt lat="46.75723" lon="6.39247">
        <ele>901</ele>
        <time>2019-05-04T14:40:04Z</time>
      </trkpt>
      <trkpt lat="46.75726" lon="6.39252">
        <ele>902</ele>
        <time>2019-05-04T14:40:07Z</time>
      </trkpt>
      <trkpt lat="46.75743" lon="6.39266">
        <ele>900</ele>
        <time>2019-05-04T14:40:21Z</time>
      </trkpt>
      <trkpt lat="46.75748" lon="6.3927">
        <ele>899</ele>
        <time>2019-05-04T14:40:25Z</time>
      </trkpt>
      <trkpt lat="46.75753" lon="6.39273">
        <ele>898</ele>
        <time>2019-05-04T14:40:29Z</time>
      </trkpt>
      <trkpt lat="46.75771" lon="6.39285">
        <ele>896</ele>
        <time>2019-05-04T14:40:44Z</time>
      </trkpt>
      <trkpt lat="46.75787" lon="6.39299">
        <ele>895</ele>
        <time>2019-05-04T14:40:57Z</time>
      </trkpt>
      <trkpt lat="46.75803" lon="6.39312">
        <ele>895</ele>
        <time>2019-05-04T14:41:11Z</time>
      </trkpt>
      <trkpt lat="46.75822" lon="6.3932">
        <ele>893</ele>
        <time>2019-05-04T14:41:25Z</time>
      </trkpt>
      <trkpt lat="46.75841" lon="6.39329">
        <ele>889</ele>
        <time>2019-05-04T14:41:40Z</time>
      </trkpt>
      <trkpt lat="46.75861" lon="6.39337">
        <ele>885</ele>
        <time>2019-05-04T14:41:55Z</time>
      </trkpt>
      <trkpt lat="46.7588" lon="6.39341">
        <ele>885</ele>
        <time>2019-05-04T14:42:08Z</time>
      </trkpt>
      <trkpt lat="46.75895" lon="6.39343">
        <ele>886</ele>
        <time>2019-05-04T14:42:19Z</time>
      </trkpt>
      <trkpt lat="46.75914" lon="6.39351">
        <ele>886</ele>
        <time>2019-05-04T14:42:34Z</time>
      </trkpt>
      <trkpt lat="46.75934" lon="6.39356">
        <ele>885</ele>
        <time>2019-05-04T14:42:49Z</time>
      </trkpt>
      <trkpt lat="46.75946" lon="6.3936">
        <ele>885</ele>
        <time>2019-05-04T14:42:57Z</time>
      </trkpt>
      <trkpt lat="46.75946" lon="6.39361">
        <ele>885</ele>
        <time>2019-05-04T14:42:58Z</time>
      </trkpt>
      <trkpt lat="46.75951" lon="6.39364">
        <ele>886</ele>
        <time>2019-05-04T14:43:01Z</time>
      </trkpt>
      <trkpt lat="46.75957" lon="6.39367">
        <ele>887</ele>
        <time>2019-05-04T14:43:06Z</time>
      </trkpt>
      <trkpt lat="46.7596" lon="6.39368">
        <ele>887</ele>
        <time>2019-05-04T14:43:08Z</time>
      </trkpt>
      <trkpt lat="46.75963" lon="6.39369">
        <ele>887</ele>
        <time>2019-05-04T14:43:10Z</time>
      </trkpt>
      <trkpt lat="46.75968" lon="6.39372">
        <ele>888</ele>
        <time>2019-05-04T14:43:15Z</time>
      </trkpt>
      <trkpt lat="46.75974" lon="6.39374">
        <ele>889</ele>
        <time>2019-05-04T14:43:19Z</time>
      </trkpt>
      <trkpt lat="46.7598" lon="6.39378">
        <ele>889</ele>
        <time>2019-05-04T14:43:24Z</time>
      </trkpt>
      <trkpt lat="46.75985" lon="6.39383">
        <ele>890</ele>
        <time>2019-05-04T14:43:28Z</time>
      </trkpt>
      <trkpt lat="46.75987" lon="6.39385">
        <ele>890</ele>
        <time>2019-05-04T14:43:30Z</time>
      </trkpt>
      <trkpt lat="46.75992" lon="6.39397">
        <ele>889</ele>
        <time>2019-05-04T14:43:37Z</time>
      </trkpt>
      <trkpt lat="46.76002" lon="6.39407">
        <ele>889</ele>
        <time>2019-05-04T14:43:46Z</time>
      </trkpt>
      <trkpt lat="46.76006" lon="6.39408">
        <ele>890</ele>
        <time>2019-05-04T14:43:49Z</time>
      </trkpt>
      <trkpt lat="46.76007" lon="6.39408">
        <ele>890</ele>
        <time>2019-05-04T14:43:50Z</time>
      </trkpt>
      <trkpt lat="46.76011" lon="6.39412">
        <ele>890</ele>
        <time>2019-05-04T14:43:53Z</time>
      </trkpt>
      <trkpt lat="46.76015" lon="6.39415">
        <ele>890</ele>
        <time>2019-05-04T14:43:56Z</time>
      </trkpt>
      <trkpt lat="46.76018" lon="6.39417">
        <ele>890</ele>
        <time>2019-05-04T14:43:59Z</time>
      </trkpt>
      <trkpt lat="46.76021" lon="6.39419">
        <ele>890</ele>
        <time>2019-05-04T14:44:01Z</time>
      </trkpt>
      <trkpt lat="46.76024" lon="6.39424">
        <ele>889</ele>
        <time>2019-05-04T14:44:05Z</time>
      </trkpt>
      <trkpt lat="46.76027" lon="6.39429">
        <ele>889</ele>
        <time>2019-05-04T14:44:08Z</time>
      </trkpt>
      <trkpt lat="46.76027" lon="6.39429">
        <ele>888</ele>
        <time>2019-05-04T14:44:08Z</time>
      </trkpt>
      <trkpt lat="46.76028" lon="6.39431">
        <ele>888</ele>
        <time>2019-05-04T14:44:09Z</time>
      </trkpt>
      <trkpt lat="46.7603" lon="6.39432">
        <ele>888</ele>
        <time>2019-05-04T14:44:11Z</time>
      </trkpt>
      <trkpt lat="46.76031" lon="6.39433">
        <ele>888</ele>
        <time>2019-05-04T14:44:12Z</time>
      </trkpt>
      <trkpt lat="46.76033" lon="6.39435">
        <ele>888</ele>
        <time>2019-05-04T14:44:13Z</time>
      </trkpt>
      <trkpt lat="46.7604" lon="6.39445">
        <ele>889</ele>
        <time>2019-05-04T14:44:21Z</time>
      </trkpt>
      <trkpt lat="46.76042" lon="6.39449">
        <ele>889</ele>
        <time>2019-05-04T14:44:23Z</time>
      </trkpt>
      <trkpt lat="46.76042" lon="6.3945">
        <ele>889</ele>
        <time>2019-05-04T14:44:24Z</time>
      </trkpt>
      <trkpt lat="46.76049" lon="6.39455">
        <ele>890</ele>
        <time>2019-05-04T14:44:29Z</time>
      </trkpt>
      <trkpt lat="46.76067" lon="6.39464">
        <ele>892</ele>
        <time>2019-05-04T14:44:43Z</time>
      </trkpt>
      <trkpt lat="46.76075" lon="6.39474">
        <ele>892</ele>
        <time>2019-05-04T14:44:51Z</time>
      </trkpt>
      <trkpt lat="46.76079" lon="6.39478">
        <ele>892</ele>
        <time>2019-05-04T14:44:54Z</time>
      </trkpt>
      <trkpt lat="46.7609" lon="6.39487">
        <ele>893</ele>
        <time>2019-05-04T14:45:03Z</time>
      </trkpt>
      <trkpt lat="46.76091" lon="6.39489">
        <ele>893</ele>
        <time>2019-05-04T14:45:04Z</time>
      </trkpt>
      <trkpt lat="46.761" lon="6.39506">
        <ele>892</ele>
        <time>2019-05-04T14:45:15Z</time>
      </trkpt>
      <trkpt lat="46.76102" lon="6.39511">
        <ele>892</ele>
        <time>2019-05-04T14:45:18Z</time>
      </trkpt>
      <trkpt lat="46.76107" lon="6.39518">
        <ele>891</ele>
        <time>2019-05-04T14:45:23Z</time>
      </trkpt>
      <trkpt lat="46.7612" lon="6.39529">
        <ele>893</ele>
        <time>2019-05-04T14:45:34Z</time>
      </trkpt>
      <trkpt lat="46.7612" lon="6.39529">
        <ele>894</ele>
        <time>2019-05-04T14:45:35Z</time>
      </trkpt>
      <trkpt lat="46.76116" lon="6.39527">
        <ele>892</ele>
        <time>2019-05-04T14:45:38Z</time>
      </trkpt>
      <trkpt lat="46.76099" lon="6.39518">
        <ele>890</ele>
        <time>2019-05-04T14:45:52Z</time>
      </trkpt>
      <trkpt lat="46.76087" lon="6.39511">
        <ele>890</ele>
        <time>2019-05-04T14:46:00Z</time>
      </trkpt>
      <trkpt lat="46.76085" lon="6.39504">
        <ele>891</ele>
        <time>2019-05-04T14:46:04Z</time>
      </trkpt>
      <trkpt lat="46.76084" lon="6.39501">
        <ele>891</ele>
        <time>2019-05-04T14:46:06Z</time>
      </trkpt>
      <trkpt lat="46.76093" lon="6.39481">
        <ele>894</ele>
        <time>2019-05-04T14:46:18Z</time>
      </trkpt>
      <trkpt lat="46.76094" lon="6.3948">
        <ele>894</ele>
        <time>2019-05-04T14:46:19Z</time>
      </trkpt>
      <trkpt lat="46.76094" lon="6.39472">
        <ele>895</ele>
        <time>2019-05-04T14:46:23Z</time>
      </trkpt>
      <trkpt lat="46.76096" lon="6.39467">
        <ele>896</ele>
        <time>2019-05-04T14:46:26Z</time>
      </trkpt>
      <trkpt lat="46.76096" lon="6.39463">
        <ele>896</ele>
        <time>2019-05-04T14:46:28Z</time>
      </trkpt>
      <trkpt lat="46.76097" lon="6.39462">
        <ele>897</ele>
        <time>2019-05-04T14:46:29Z</time>
      </trkpt>
      <trkpt lat="46.76098" lon="6.39459">
        <ele>897</ele>
        <time>2019-05-04T14:46:31Z</time>
      </trkpt>
      <trkpt lat="46.761" lon="6.39455">
        <ele>898</ele>
        <time>2019-05-04T14:46:33Z</time>
      </trkpt>
      <trkpt lat="46.761" lon="6.3945">
        <ele>899</ele>
        <time>2019-05-04T14:46:35Z</time>
      </trkpt>
      <trkpt lat="46.76102" lon="6.39448">
        <ele>899</ele>
        <time>2019-05-04T14:46:37Z</time>
      </trkpt>
      <trkpt lat="46.76102" lon="6.39444">
        <ele>900</ele>
        <time>2019-05-04T14:46:39Z</time>
      </trkpt>
      <trkpt lat="46.76105" lon="6.39438">
        <ele>901</ele>
        <time>2019-05-04T14:46:42Z</time>
      </trkpt>
      <trkpt lat="46.76106" lon="6.39437">
        <ele>902</ele>
        <time>2019-05-04T14:46:44Z</time>
      </trkpt>
      <trkpt lat="46.76111" lon="6.39433">
        <ele>904</ele>
        <time>2019-05-04T14:46:48Z</time>
      </trkpt>
      <trkpt lat="46.76116" lon="6.39422">
        <ele>909</ele>
        <time>2019-05-04T14:46:55Z</time>
      </trkpt>
      <trkpt lat="46.76118" lon="6.39412">
        <ele>913</ele>
        <time>2019-05-04T14:47:01Z</time>
      </trkpt>
      <trkpt lat="46.76116" lon="6.39406">
        <ele>913</ele>
        <time>2019-05-04T14:47:05Z</time>
      </trkpt>
      <trkpt lat="46.76112" lon="6.39396">
        <ele>914</ele>
        <time>2019-05-04T14:47:10Z</time>
      </trkpt>
      <trkpt lat="46.76112" lon="6.39388">
        <ele>917</ele>
        <time>2019-05-04T14:47:15Z</time>
      </trkpt>
      <trkpt lat="46.76115" lon="6.39379">
        <ele>921</ele>
        <time>2019-05-04T14:47:20Z</time>
      </trkpt>
      <trkpt lat="46.76112" lon="6.39375">
        <ele>921</ele>
        <time>2019-05-04T14:47:24Z</time>
      </trkpt>
      <trkpt lat="46.7611" lon="6.39372">
        <ele>921</ele>
        <time>2019-05-04T14:47:26Z</time>
      </trkpt>
      <trkpt lat="46.7611" lon="6.39369">
        <ele>922</ele>
        <time>2019-05-04T14:47:27Z</time>
      </trkpt>
      <trkpt lat="46.76109" lon="6.39368">
        <ele>922</ele>
        <time>2019-05-04T14:47:28Z</time>
      </trkpt>
      <trkpt lat="46.76108" lon="6.39362">
        <ele>923</ele>
        <time>2019-05-04T14:47:31Z</time>
      </trkpt>
      <trkpt lat="46.76106" lon="6.39352">
        <ele>925</ele>
        <time>2019-05-04T14:47:36Z</time>
      </trkpt>
      <trkpt lat="46.76088" lon="6.39336">
        <ele>924</ele>
        <time>2019-05-04T14:47:52Z</time>
      </trkpt>
      <trkpt lat="46.76079" lon="6.39329">
        <ele>923</ele>
        <time>2019-05-04T14:47:59Z</time>
      </trkpt>
      <trkpt lat="46.76078" lon="6.39328">
        <ele>923</ele>
        <time>2019-05-04T14:47:59Z</time>
      </trkpt>
      <trkpt lat="46.76076" lon="6.39325">
        <ele>923</ele>
        <time>2019-05-04T14:48:02Z</time>
      </trkpt>
      <trkpt lat="46.76077" lon="6.39321">
        <ele>924</ele>
        <time>2019-05-04T14:48:04Z</time>
      </trkpt>
      <trkpt lat="46.76078" lon="6.39321">
        <ele>925</ele>
        <time>2019-05-04T14:48:05Z</time>
      </trkpt>
      <trkpt lat="46.76073" lon="6.39315">
        <ele>925</ele>
        <time>2019-05-04T14:48:10Z</time>
      </trkpt>
      <trkpt lat="46.76071" lon="6.3931">
        <ele>925</ele>
        <time>2019-05-04T14:48:12Z</time>
      </trkpt>
      <trkpt lat="46.76068" lon="6.39303">
        <ele>926</ele>
        <time>2019-05-04T14:48:16Z</time>
      </trkpt>
      <trkpt lat="46.76065" lon="6.39299">
        <ele>926</ele>
        <time>2019-05-04T14:48:19Z</time>
      </trkpt>
      <trkpt lat="46.76066" lon="6.39297">
        <ele>927</ele>
        <time>2019-05-04T14:48:21Z</time>
      </trkpt>
      <trkpt lat="46.76067" lon="6.39295">
        <ele>928</ele>
        <time>2019-05-04T14:48:22Z</time>
      </trkpt>
      <trkpt lat="46.76068" lon="6.39293">
        <ele>929</ele>
        <time>2019-05-04T14:48:24Z</time>
      </trkpt>
      <trkpt lat="46.76067" lon="6.39287">
        <ele>930</ele>
        <time>2019-05-04T14:48:26Z</time>
      </trkpt>
      <trkpt lat="46.76067" lon="6.39283">
        <ele>931</ele>
        <time>2019-05-04T14:48:29Z</time>
      </trkpt>
      <trkpt lat="46.76068" lon="6.39278">
        <ele>933</ele>
        <time>2019-05-04T14:48:32Z</time>
      </trkpt>
      <trkpt lat="46.76068" lon="6.39276">
        <ele>933</ele>
        <time>2019-05-04T14:48:32Z</time>
      </trkpt>
      <trkpt lat="46.76073" lon="6.39272">
        <ele>936</ele>
        <time>2019-05-04T14:48:37Z</time>
      </trkpt>
      <trkpt lat="46.76073" lon="6.39271">
        <ele>936</ele>
        <time>2019-05-04T14:48:37Z</time>
      </trkpt>
      <trkpt lat="46.76072" lon="6.39269">
        <ele>936</ele>
        <time>2019-05-04T14:48:38Z</time>
      </trkpt>
      <trkpt lat="46.76071" lon="6.39267">
        <ele>937</ele>
        <time>2019-05-04T14:48:40Z</time>
      </trkpt>
      <trkpt lat="46.76072" lon="6.39268">
        <ele>936</ele>
        <time>2019-05-04T14:48:40Z</time>
      </trkpt>
      <trkpt lat="46.76069" lon="6.39269">
        <ele>936</ele>
        <time>2019-05-04T14:48:42Z</time>
      </trkpt>
      <trkpt lat="46.76069" lon="6.39268">
        <ele>936</ele>
        <time>2019-05-04T14:48:42Z</time>
      </trkpt>
      <trkpt lat="46.76068" lon="6.39265">
        <ele>936</ele>
        <time>2019-05-04T14:48:44Z</time>
      </trkpt>
      <trkpt lat="46.76067" lon="6.39265">
        <ele>936</ele>
        <time>2019-05-04T14:48:45Z</time>
      </trkpt>
      <trkpt lat="46.7606" lon="6.39264">
        <ele>934</ele>
        <time>2019-05-04T14:48:49Z</time>
      </trkpt>
      <trkpt lat="46.76057" lon="6.39263">
        <ele>934</ele>
        <time>2019-05-04T14:48:52Z</time>
      </trkpt>
      <trkpt lat="46.76057" lon="6.39262">
        <ele>934</ele>
        <time>2019-05-04T14:48:52Z</time>
      </trkpt>
      <trkpt lat="46.76056" lon="6.3926">
        <ele>934</ele>
        <time>2019-05-04T14:48:54Z</time>
      </trkpt>
      <trkpt lat="46.76053" lon="6.3926">
        <ele>933</ele>
        <time>2019-05-04T14:48:56Z</time>
      </trkpt>
      <trkpt lat="46.76049" lon="6.39255">
        <ele>933</ele>
        <time>2019-05-04T14:49:00Z</time>
      </trkpt>
      <trkpt lat="46.76048" lon="6.39254">
        <ele>933</ele>
        <time>2019-05-04T14:49:01Z</time>
      </trkpt>
      <trkpt lat="46.76045" lon="6.3925">
        <ele>933</ele>
        <time>2019-05-04T14:49:04Z</time>
      </trkpt>
      <trkpt lat="46.76043" lon="6.39247">
        <ele>933</ele>
        <time>2019-05-04T14:49:06Z</time>
      </trkpt>
      <trkpt lat="46.76035" lon="6.3925">
        <ele>930</ele>
        <time>2019-05-04T14:49:12Z</time>
      </trkpt>
      <trkpt lat="46.76036" lon="6.39248">
        <ele>931</ele>
        <time>2019-05-04T14:49:14Z</time>
      </trkpt>
      <trkpt lat="46.7603" lon="6.39242">
        <ele>931</ele>
        <time>2019-05-04T14:49:19Z</time>
      </trkpt>
      <trkpt lat="46.76028" lon="6.39238">
        <ele>931</ele>
        <time>2019-05-04T14:49:22Z</time>
      </trkpt>
      <trkpt lat="46.76028" lon="6.39236">
        <ele>932</ele>
        <time>2019-05-04T14:49:23Z</time>
      </trkpt>
      <trkpt lat="46.76028" lon="6.39235">
        <ele>932</ele>
        <time>2019-05-04T14:49:23Z</time>
      </trkpt>
      <trkpt lat="46.76028" lon="6.39231">
        <ele>933</ele>
        <time>2019-05-04T14:49:25Z</time>
      </trkpt>
      <trkpt lat="46.76028" lon="6.39229">
        <ele>933</ele>
        <time>2019-05-04T14:49:26Z</time>
      </trkpt>
      <trkpt lat="46.76027" lon="6.39225">
        <ele>934</ele>
        <time>2019-05-04T14:49:29Z</time>
      </trkpt>
      <trkpt lat="46.76025" lon="6.39223">
        <ele>934</ele>
        <time>2019-05-04T14:49:30Z</time>
      </trkpt>
      <trkpt lat="46.76025" lon="6.39221">
        <ele>934</ele>
        <time>2019-05-04T14:49:31Z</time>
      </trkpt>
      <trkpt lat="46.76021" lon="6.39217">
        <ele>934</ele>
        <time>2019-05-04T14:49:35Z</time>
      </trkpt>
      <trkpt lat="46.76021" lon="6.39213">
        <ele>935</ele>
        <time>2019-05-04T14:49:37Z</time>
      </trkpt>
      <trkpt lat="46.76017" lon="6.39206">
        <ele>935</ele>
        <time>2019-05-04T14:49:42Z</time>
      </trkpt>
      <trkpt lat="46.76016" lon="6.39206">
        <ele>935</ele>
        <time>2019-05-04T14:49:42Z</time>
      </trkpt>
      <trkpt lat="46.76012" lon="6.39197">
        <ele>936</ele>
        <time>2019-05-04T14:49:47Z</time>
      </trkpt>
      <trkpt lat="46.7601" lon="6.39194">
        <ele>936</ele>
        <time>2019-05-04T14:49:49Z</time>
      </trkpt>
      <trkpt lat="46.76009" lon="6.3919">
        <ele>937</ele>
        <time>2019-05-04T14:49:52Z</time>
      </trkpt>
      <trkpt lat="46.76008" lon="6.39189">
        <ele>936</ele>
        <time>2019-05-04T14:49:53Z</time>
      </trkpt>
      <trkpt lat="46.76005" lon="6.39186">
        <ele>936</ele>
        <time>2019-05-04T14:49:55Z</time>
      </trkpt>
      <trkpt lat="46.76006" lon="6.39183">
        <ele>937</ele>
        <time>2019-05-04T14:49:57Z</time>
      </trkpt>
      <trkpt lat="46.76006" lon="6.39181">
        <ele>937</ele>
        <time>2019-05-04T14:49:58Z</time>
      </trkpt>
      <trkpt lat="46.76007" lon="6.39177">
        <ele>938</ele>
        <time>2019-05-04T14:50:00Z</time>
      </trkpt>
      <trkpt lat="46.76007" lon="6.39173">
        <ele>939</ele>
        <time>2019-05-04T14:50:02Z</time>
      </trkpt>
      <trkpt lat="46.76006" lon="6.39173">
        <ele>939</ele>
        <time>2019-05-04T14:50:03Z</time>
      </trkpt>
      <trkpt lat="46.76008" lon="6.39168">
        <ele>940</ele>
        <time>2019-05-04T14:50:05Z</time>
      </trkpt>
      <trkpt lat="46.76008" lon="6.39163">
        <ele>941</ele>
        <time>2019-05-04T14:50:08Z</time>
      </trkpt>
      <trkpt lat="46.76008" lon="6.39159">
        <ele>942</ele>
        <time>2019-05-04T14:50:10Z</time>
      </trkpt>
      <trkpt lat="46.76008" lon="6.39154">
        <ele>943</ele>
        <time>2019-05-04T14:50:13Z</time>
      </trkpt>
      <trkpt lat="46.76008" lon="6.39152">
        <ele>943</ele>
        <time>2019-05-04T14:50:13Z</time>
      </trkpt>
      <trkpt lat="46.76009" lon="6.39149">
        <ele>944</ele>
        <time>2019-05-04T14:50:15Z</time>
      </trkpt>
      <trkpt lat="46.76009" lon="6.39145">
        <ele>945</ele>
        <time>2019-05-04T14:50:17Z</time>
      </trkpt>
      <trkpt lat="46.76006" lon="6.39142">
        <ele>944</ele>
        <time>2019-05-04T14:50:20Z</time>
      </trkpt>
      <trkpt lat="46.76005" lon="6.3914">
        <ele>945</ele>
        <time>2019-05-04T14:50:22Z</time>
      </trkpt>
      <trkpt lat="46.76005" lon="6.39137">
        <ele>945</ele>
        <time>2019-05-04T14:50:23Z</time>
      </trkpt>
      <trkpt lat="46.76006" lon="6.3913">
        <ele>947</ele>
        <time>2019-05-04T14:50:27Z</time>
      </trkpt>
      <trkpt lat="46.76007" lon="6.39121">
        <ele>949</ele>
        <time>2019-05-04T14:50:31Z</time>
      </trkpt>
      <trkpt lat="46.76006" lon="6.39115">
        <ele>950</ele>
        <time>2019-05-04T14:50:34Z</time>
      </trkpt>
      <trkpt lat="46.76005" lon="6.39112">
        <ele>950</ele>
        <time>2019-05-04T14:50:36Z</time>
      </trkpt>
      <trkpt lat="46.76004" lon="6.39104">
        <ele>950</ele>
        <time>2019-05-04T14:50:40Z</time>
      </trkpt>
      <trkpt lat="46.76001" lon="6.39095">
        <ele>950</ele>
        <time>2019-05-04T14:50:45Z</time>
      </trkpt>
      <trkpt lat="46.76002" lon="6.39091">
        <ele>951</ele>
        <time>2019-05-04T14:50:47Z</time>
      </trkpt>
      <trkpt lat="46.76003" lon="6.39088">
        <ele>952</ele>
        <time>2019-05-04T14:50:49Z</time>
      </trkpt>
      <trkpt lat="46.76003" lon="6.39086">
        <ele>952</ele>
        <time>2019-05-04T14:50:50Z</time>
      </trkpt>
      <trkpt lat="46.76003" lon="6.39083">
        <ele>952</ele>
        <time>2019-05-04T14:50:51Z</time>
      </trkpt>
      <trkpt lat="46.76004" lon="6.39079">
        <ele>953</ele>
        <time>2019-05-04T14:50:54Z</time>
      </trkpt>
      <trkpt lat="46.76006" lon="6.39068">
        <ele>955</ele>
        <time>2019-05-04T14:51:00Z</time>
      </trkpt>
      <trkpt lat="46.76006" lon="6.3906">
        <ele>956</ele>
        <time>2019-05-04T14:51:03Z</time>
      </trkpt>
      <trkpt lat="46.76007" lon="6.39056">
        <ele>957</ele>
        <time>2019-05-04T14:51:06Z</time>
      </trkpt>
      <trkpt lat="46.76006" lon="6.39052">
        <ele>957</ele>
        <time>2019-05-04T14:51:08Z</time>
      </trkpt>
      <trkpt lat="46.76005" lon="6.3905">
        <ele>956</ele>
        <time>2019-05-04T14:51:09Z</time>
      </trkpt>
      <trkpt lat="46.76004" lon="6.39043">
        <ele>957</ele>
        <time>2019-05-04T14:51:13Z</time>
      </trkpt>
      <trkpt lat="46.76004" lon="6.39037">
        <ele>957</ele>
        <time>2019-05-04T14:51:16Z</time>
      </trkpt>
      <trkpt lat="46.76001" lon="6.39028">
        <ele>957</ele>
        <time>2019-05-04T14:51:21Z</time>
      </trkpt>
      <trkpt lat="46.76" lon="6.39027">
        <ele>956</ele>
        <time>2019-05-04T14:51:22Z</time>
      </trkpt>
      <trkpt lat="46.75998" lon="6.39026">
        <ele>956</ele>
        <time>2019-05-04T14:51:23Z</time>
      </trkpt>
      <trkpt lat="46.75999" lon="6.39025">
        <ele>956</ele>
        <time>2019-05-04T14:51:24Z</time>
      </trkpt>
      <trkpt lat="46.75998" lon="6.39023">
        <ele>956</ele>
        <time>2019-05-04T14:51:25Z</time>
      </trkpt>
      <trkpt lat="46.76" lon="6.39024">
        <ele>957</ele>
        <time>2019-05-04T14:51:26Z</time>
      </trkpt>
      <trkpt lat="46.7613" lon="6.3896">
        <ele>985</ele>
        <time>2019-05-04T14:53:07Z</time>
      </trkpt>
      <trkpt lat="46.76134" lon="6.38957">
        <ele>985</ele>
        <time>2019-05-04T14:53:10Z</time>
      </trkpt>
      <trkpt lat="46.76152" lon="6.38954">
        <ele>987</ele>
        <time>2019-05-04T14:53:24Z</time>
      </trkpt>
      <trkpt lat="46.76166" lon="6.38946">
        <ele>988</ele>
        <time>2019-05-04T14:53:34Z</time>
      </trkpt>
      <trkpt lat="46.7617" lon="6.38945">
        <ele>988</ele>
        <time>2019-05-04T14:53:37Z</time>
      </trkpt>
      <trkpt lat="46.76183" lon="6.38938">
        <ele>989</ele>
        <time>2019-05-04T14:53:47Z</time>
      </trkpt>
      <trkpt lat="46.76185" lon="6.38936">
        <ele>989</ele>
        <time>2019-05-04T14:53:49Z</time>
      </trkpt>
      <trkpt lat="46.76187" lon="6.38935">
        <ele>989</ele>
        <time>2019-05-04T14:53:51Z</time>
      </trkpt>
      <trkpt lat="46.76194" lon="6.38933">
        <ele>989</ele>
        <time>2019-05-04T14:53:56Z</time>
      </trkpt>
      <trkpt lat="46.76198" lon="6.38934">
        <ele>990</ele>
        <time>2019-05-04T14:53:58Z</time>
      </trkpt>
      <trkpt lat="46.76207" lon="6.38938">
        <ele>991</ele>
        <time>2019-05-04T14:54:06Z</time>
      </trkpt>
      <trkpt lat="46.76211" lon="6.38938">
        <ele>991</ele>
        <time>2019-05-04T14:54:08Z</time>
      </trkpt>
      <trkpt lat="46.76218" lon="6.38938">
        <ele>992</ele>
        <time>2019-05-04T14:54:14Z</time>
      </trkpt>
      <trkpt lat="46.76234" lon="6.38928">
        <ele>993</ele>
        <time>2019-05-04T14:54:26Z</time>
      </trkpt>
      <trkpt lat="46.76243" lon="6.38925">
        <ele>994</ele>
        <time>2019-05-04T14:54:33Z</time>
      </trkpt>
      <trkpt lat="46.76248" lon="6.38923">
        <ele>994</ele>
        <time>2019-05-04T14:54:37Z</time>
      </trkpt>
      <trkpt lat="46.76266" lon="6.38912">
        <ele>995</ele>
        <time>2019-05-04T14:54:51Z</time>
      </trkpt>
      <trkpt lat="46.76285" lon="6.38905">
        <ele>996</ele>
        <time>2019-05-04T14:55:05Z</time>
      </trkpt>
      <trkpt lat="46.763" lon="6.38905">
        <ele>998</ele>
        <time>2019-05-04T14:55:16Z</time>
      </trkpt>
      <trkpt lat="46.76318" lon="6.38901">
        <ele>999</ele>
        <time>2019-05-04T14:55:29Z</time>
      </trkpt>
      <trkpt lat="46.76325" lon="6.38897">
        <ele>999</ele>
        <time>2019-05-04T14:55:34Z</time>
      </trkpt>
      <trkpt lat="46.76337" lon="6.38891">
        <ele>1000</ele>
        <time>2019-05-04T14:55:44Z</time>
      </trkpt>
      <trkpt lat="46.76354" lon="6.38876">
        <ele>1001</ele>
        <time>2019-05-04T14:55:58Z</time>
      </trkpt>
      <trkpt lat="46.7637" lon="6.3886">
        <ele>1001</ele>
        <time>2019-05-04T14:56:12Z</time>
      </trkpt>
      <trkpt lat="46.76385" lon="6.38844">
        <ele>1003</ele>
        <time>2019-05-04T14:56:25Z</time>
      </trkpt>
      <trkpt lat="46.7639" lon="6.38828">
        <ele>1005</ele>
        <time>2019-05-04T14:56:34Z</time>
      </trkpt>
      <trkpt lat="46.76389" lon="6.38825">
        <ele>1005</ele>
        <time>2019-05-04T14:56:36Z</time>
      </trkpt>
      <trkpt lat="46.76394" lon="6.38799">
        <ele>1007</ele>
        <time>2019-05-04T14:56:49Z</time>
      </trkpt>
      <trkpt lat="46.76398" lon="6.38792">
        <ele>1008</ele>
        <time>2019-05-04T14:56:54Z</time>
      </trkpt>
      <trkpt lat="46.76399" lon="6.38791">
        <ele>1008</ele>
        <time>2019-05-04T14:56:55Z</time>
      </trkpt>
      <trkpt lat="46.76402" lon="6.38789">
        <ele>1008</ele>
        <time>2019-05-04T14:56:57Z</time>
      </trkpt>
      <trkpt lat="46.76408" lon="6.38777">
        <ele>1008</ele>
        <time>2019-05-04T14:57:05Z</time>
      </trkpt>
      <trkpt lat="46.76408" lon="6.38765">
        <ele>1009</ele>
        <time>2019-05-04T14:57:11Z</time>
      </trkpt>
      <trkpt lat="46.76407" lon="6.38762">
        <ele>1009</ele>
        <time>2019-05-04T14:57:12Z</time>
      </trkpt>
      <trkpt lat="46.76402" lon="6.38753">
        <ele>1010</ele>
        <time>2019-05-04T14:57:18Z</time>
      </trkpt>
      <trkpt lat="46.764" lon="6.3875">
        <ele>1011</ele>
        <time>2019-05-04T14:57:20Z</time>
      </trkpt>
      <trkpt lat="46.76396" lon="6.38747">
        <ele>1011</ele>
        <time>2019-05-04T14:57:23Z</time>
      </trkpt>
      <trkpt lat="46.76391" lon="6.38746">
        <ele>1012</ele>
        <time>2019-05-04T14:57:27Z</time>
      </trkpt>
      <trkpt lat="46.76382" lon="6.38745">
        <ele>1013</ele>
        <time>2019-05-04T14:57:33Z</time>
      </trkpt>
      <trkpt lat="46.76377" lon="6.38745">
        <ele>1013</ele>
        <time>2019-05-04T14:57:37Z</time>
      </trkpt>
      <trkpt lat="46.76373" lon="6.38744">
        <ele>1013</ele>
        <time>2019-05-04T14:57:40Z</time>
      </trkpt>
      <trkpt lat="46.76355" lon="6.38744">
        <ele>1014</ele>
        <time>2019-05-04T14:57:53Z</time>
      </trkpt>
      <trkpt lat="46.76354" lon="6.38744">
        <ele>1014</ele>
        <time>2019-05-04T14:57:54Z</time>
      </trkpt>
      <trkpt lat="46.76344" lon="6.38743">
        <ele>1014</ele>
        <time>2019-05-04T14:58:01Z</time>
      </trkpt>
      <trkpt lat="46.76337" lon="6.38744">
        <ele>1014</ele>
        <time>2019-05-04T14:58:06Z</time>
      </trkpt>
      <trkpt lat="46.7633" lon="6.38742">
        <ele>1014</ele>
        <time>2019-05-04T14:58:11Z</time>
      </trkpt>
      <trkpt lat="46.76325" lon="6.38735">
        <ele>1015</ele>
        <time>2019-05-04T14:58:16Z</time>
      </trkpt>
      <trkpt lat="46.76324" lon="6.38731">
        <ele>1015</ele>
        <time>2019-05-04T14:58:18Z</time>
      </trkpt>
      <trkpt lat="46.76317" lon="6.38712">
        <ele>1018</ele>
        <time>2019-05-04T14:58:29Z</time>
      </trkpt>
      <trkpt lat="46.76319" lon="6.38702">
        <ele>1019</ele>
        <time>2019-05-04T14:58:35Z</time>
      </trkpt>
      <trkpt lat="46.76319" lon="6.387">
        <ele>1019</ele>
        <time>2019-05-04T14:58:35Z</time>
      </trkpt>
      <trkpt lat="46.7632" lon="6.38691">
        <ele>1020</ele>
        <time>2019-05-04T14:58:40Z</time>
      </trkpt>
      <trkpt lat="46.76321" lon="6.38686">
        <ele>1021</ele>
        <time>2019-05-04T14:58:43Z</time>
      </trkpt>
      <trkpt lat="46.76319" lon="6.38664">
        <ele>1024</ele>
        <time>2019-05-04T14:58:54Z</time>
      </trkpt>
      <trkpt lat="46.76317" lon="6.38655">
        <ele>1025</ele>
        <time>2019-05-04T14:58:59Z</time>
      </trkpt>
      <trkpt lat="46.76315" lon="6.3865">
        <ele>1026</ele>
        <time>2019-05-04T14:59:02Z</time>
      </trkpt>
      <trkpt lat="46.76313" lon="6.38644">
        <ele>1027</ele>
        <time>2019-05-04T14:59:05Z</time>
      </trkpt>
      <trkpt lat="46.76308" lon="6.3864">
        <ele>1028</ele>
        <time>2019-05-04T14:59:09Z</time>
      </trkpt>
      <trkpt lat="46.76293" lon="6.38631">
        <ele>1030</ele>
        <time>2019-05-04T14:59:21Z</time>
      </trkpt>
      <trkpt lat="46.7629" lon="6.38629">
        <ele>1031</ele>
        <time>2019-05-04T14:59:24Z</time>
      </trkpt>
      <trkpt lat="46.76285" lon="6.38626">
        <ele>1031</ele>
        <time>2019-05-04T14:59:28Z</time>
      </trkpt>
      <trkpt lat="46.7628" lon="6.38622">
        <ele>1033</ele>
        <time>2019-05-04T14:59:32Z</time>
      </trkpt>
      <trkpt lat="46.76276" lon="6.38615">
        <ele>1034</ele>
        <time>2019-05-04T14:59:36Z</time>
      </trkpt>
      <trkpt lat="46.76272" lon="6.38607">
        <ele>1035</ele>
        <time>2019-05-04T14:59:41Z</time>
      </trkpt>
      <trkpt lat="46.76267" lon="6.386">
        <ele>1036</ele>
        <time>2019-05-04T14:59:46Z</time>
      </trkpt>
      <trkpt lat="46.76262" lon="6.38591">
        <ele>1036</ele>
        <time>2019-05-04T14:59:52Z</time>
      </trkpt>
      <trkpt lat="46.76259" lon="6.38584">
        <ele>1037</ele>
        <time>2019-05-04T14:59:56Z</time>
      </trkpt>
      <trkpt lat="46.7625" lon="6.38577">
        <ele>1038</ele>
        <time>2019-05-04T15:00:04Z</time>
      </trkpt>
      <trkpt lat="46.76246" lon="6.3857">
        <ele>1038</ele>
        <time>2019-05-04T15:00:08Z</time>
      </trkpt>
      <trkpt lat="46.76243" lon="6.38562">
        <ele>1039</ele>
        <time>2019-05-04T15:00:13Z</time>
      </trkpt>
      <trkpt lat="46.7624" lon="6.38555">
        <ele>1040</ele>
        <time>2019-05-04T15:00:17Z</time>
      </trkpt>
      <trkpt lat="46.76236" lon="6.38538">
        <ele>1041</ele>
        <time>2019-05-04T15:00:26Z</time>
      </trkpt>
      <trkpt lat="46.76236" lon="6.38528">
        <ele>1042</ele>
        <time>2019-05-04T15:00:31Z</time>
      </trkpt>
      <trkpt lat="46.76235" lon="6.38518">
        <ele>1043</ele>
        <time>2019-05-04T15:00:36Z</time>
      </trkpt>
      <trkpt lat="46.76236" lon="6.38508">
        <ele>1044</ele>
        <time>2019-05-04T15:00:41Z</time>
      </trkpt>
      <trkpt lat="46.76239" lon="6.38497">
        <ele>1045</ele>
        <time>2019-05-04T15:00:47Z</time>
      </trkpt>
      <trkpt lat="46.76241" lon="6.38487">
        <ele>1046</ele>
        <time>2019-05-04T15:00:52Z</time>
      </trkpt>
      <trkpt lat="46.76243" lon="6.38478">
        <ele>1047</ele>
        <time>2019-05-04T15:00:57Z</time>
      </trkpt>
      <trkpt lat="46.76247" lon="6.38452">
        <ele>1050</ele>
        <time>2019-05-04T15:01:10Z</time>
      </trkpt>
      <trkpt lat="46.76248" lon="6.38434">
        <ele>1051</ele>
        <time>2019-05-04T15:01:19Z</time>
      </trkpt>
      <trkpt lat="46.76248" lon="6.38431">
        <ele>1052</ele>
        <time>2019-05-04T15:01:21Z</time>
      </trkpt>
      <trkpt lat="46.76248" lon="6.38425">
        <ele>1052</ele>
        <time>2019-05-04T15:01:24Z</time>
      </trkpt>
      <trkpt lat="46.76248" lon="6.38421">
        <ele>1052</ele>
        <time>2019-05-04T15:01:26Z</time>
      </trkpt>
      <trkpt lat="46.76247" lon="6.38415">
        <ele>1053</ele>
        <time>2019-05-04T15:01:29Z</time>
      </trkpt>
      <trkpt lat="46.76246" lon="6.38401">
        <ele>1054</ele>
        <time>2019-05-04T15:01:36Z</time>
      </trkpt>
      <trkpt lat="46.76242" lon="6.38382">
        <ele>1055</ele>
        <time>2019-05-04T15:01:46Z</time>
      </trkpt>
      <trkpt lat="46.76235" lon="6.38357">
        <ele>1058</ele>
        <time>2019-05-04T15:02:00Z</time>
      </trkpt>
      <trkpt lat="46.76232" lon="6.38344">
        <ele>1058</ele>
        <time>2019-05-04T15:02:06Z</time>
      </trkpt>
      <trkpt lat="46.76231" lon="6.38334">
        <ele>1059</ele>
        <time>2019-05-04T15:02:11Z</time>
      </trkpt>
      <trkpt lat="46.7623" lon="6.38324">
        <ele>1060</ele>
        <time>2019-05-04T15:02:17Z</time>
      </trkpt>
      <trkpt lat="46.76227" lon="6.38309">
        <ele>1061</ele>
        <time>2019-05-04T15:02:24Z</time>
      </trkpt>
      <trkpt lat="46.76225" lon="6.383">
        <ele>1061</ele>
        <time>2019-05-04T15:02:29Z</time>
      </trkpt>
      <trkpt lat="46.76218" lon="6.38281">
        <ele>1062</ele>
        <time>2019-05-04T15:02:39Z</time>
      </trkpt>
      <trkpt lat="46.76208" lon="6.38257">
        <ele>1064</ele>
        <time>2019-05-04T15:02:54Z</time>
      </trkpt>
      <trkpt lat="46.76202" lon="6.38245">
        <ele>1064</ele>
        <time>2019-05-04T15:03:01Z</time>
      </trkpt>
      <trkpt lat="46.76199" lon="6.38239">
        <ele>1065</ele>
        <time>2019-05-04T15:03:05Z</time>
      </trkpt>
      <trkpt lat="46.76196" lon="6.38226">
        <ele>1065</ele>
        <time>2019-05-04T15:03:11Z</time>
      </trkpt>
      <trkpt lat="46.76191" lon="6.38204">
        <ele>1066</ele>
        <time>2019-05-04T15:03:23Z</time>
      </trkpt>
      <trkpt lat="46.76196" lon="6.38178">
        <ele>1068</ele>
        <time>2019-05-04T15:03:36Z</time>
      </trkpt>
      <trkpt lat="46.76197" lon="6.38176">
        <ele>1068</ele>
        <time>2019-05-04T15:03:37Z</time>
      </trkpt>
      <trkpt lat="46.76205" lon="6.38164">
        <ele>1069</ele>
        <time>2019-05-04T15:03:46Z</time>
      </trkpt>
      <trkpt lat="46.76207" lon="6.38161">
        <ele>1069</ele>
        <time>2019-05-04T15:03:48Z</time>
      </trkpt>
      <trkpt lat="46.76218" lon="6.38138">
        <ele>1070</ele>
        <time>2019-05-04T15:04:01Z</time>
      </trkpt>
      <trkpt lat="46.7622" lon="6.38126">
        <ele>1071</ele>
        <time>2019-05-04T15:04:08Z</time>
      </trkpt>
      <trkpt lat="46.76223" lon="6.38112">
        <ele>1072</ele>
        <time>2019-05-04T15:04:15Z</time>
      </trkpt>
      <trkpt lat="46.76224" lon="6.38085">
        <ele>1074</ele>
        <time>2019-05-04T15:04:29Z</time>
      </trkpt>
      <trkpt lat="46.76225" lon="6.38065">
        <ele>1075</ele>
        <time>2019-05-04T15:04:39Z</time>
      </trkpt>
      <trkpt lat="46.76234" lon="6.38043">
        <ele>1077</ele>
        <time>2019-05-04T15:04:51Z</time>
      </trkpt>
      <trkpt lat="46.76235" lon="6.38042">
        <ele>1077</ele>
        <time>2019-05-04T15:04:52Z</time>
      </trkpt>
      <trkpt lat="46.76236" lon="6.38041">
        <ele>1078</ele>
        <time>2019-05-04T15:04:53Z</time>
      </trkpt>
      <trkpt lat="46.76238" lon="6.38041">
        <ele>1078</ele>
        <time>2019-05-04T15:04:54Z</time>
      </trkpt>
      <trkpt lat="46.76239" lon="6.3804">
        <ele>1078</ele>
        <time>2019-05-04T15:04:55Z</time>
      </trkpt>
      <trkpt lat="46.76251" lon="6.38036">
        <ele>1080</ele>
        <time>2019-05-04T15:05:04Z</time>
      </trkpt>
      <trkpt lat="46.76259" lon="6.38034">
        <ele>1081</ele>
        <time>2019-05-04T15:05:10Z</time>
      </trkpt>
      <trkpt lat="46.76262" lon="6.38034">
        <ele>1081</ele>
        <time>2019-05-04T15:05:12Z</time>
      </trkpt>
      <trkpt lat="46.76271" lon="6.38029">
        <ele>1082</ele>
        <time>2019-05-04T15:05:19Z</time>
      </trkpt>
      <trkpt lat="46.76277" lon="6.38027">
        <ele>1083</ele>
        <time>2019-05-04T15:05:24Z</time>
      </trkpt>
      <trkpt lat="46.76281" lon="6.38025">
        <ele>1084</ele>
        <time>2019-05-04T15:05:27Z</time>
      </trkpt>
      <trkpt lat="46.7629" lon="6.38017">
        <ele>1084</ele>
        <time>2019-05-04T15:05:35Z</time>
      </trkpt>
      <trkpt lat="46.76307" lon="6.38003">
        <ele>1084</ele>
        <time>2019-05-04T15:05:49Z</time>
      </trkpt>
      <trkpt lat="46.76312" lon="6.37999">
        <ele>1084</ele>
        <time>2019-05-04T15:05:53Z</time>
      </trkpt>
      <trkpt lat="46.76314" lon="6.37998">
        <ele>1084</ele>
        <time>2019-05-04T15:05:54Z</time>
      </trkpt>
      <trkpt lat="46.7633" lon="6.3798">
        <ele>1085</ele>
        <time>2019-05-04T15:06:09Z</time>
      </trkpt>
      <trkpt lat="46.76332" lon="6.37977">
        <ele>1085</ele>
        <time>2019-05-04T15:06:11Z</time>
      </trkpt>
      <trkpt lat="46.76341" lon="6.37955">
        <ele>1086</ele>
        <time>2019-05-04T15:06:24Z</time>
      </trkpt>
      <trkpt lat="46.76346" lon="6.37929">
        <ele>1086</ele>
        <time>2019-05-04T15:06:37Z</time>
      </trkpt>
      <trkpt lat="46.76347" lon="6.379">
        <ele>1084</ele>
        <time>2019-05-04T15:06:52Z</time>
      </trkpt>
      <trkpt lat="46.76348" lon="6.37873">
        <ele>1082</ele>
        <time>2019-05-04T15:07:05Z</time>
      </trkpt>
      <trkpt lat="46.76349" lon="6.37843">
        <ele>1080</ele>
        <time>2019-05-04T15:07:20Z</time>
      </trkpt>
      <trkpt lat="46.7635" lon="6.37814">
        <ele>1079</ele>
        <time>2019-05-04T15:07:34Z</time>
      </trkpt>
      <trkpt lat="46.76352" lon="6.37786">
        <ele>1078</ele>
        <time>2019-05-04T15:07:48Z</time>
      </trkpt>
      <trkpt lat="46.7635" lon="6.37767">
        <ele>1077</ele>
        <time>2019-05-04T15:07:58Z</time>
      </trkpt>
      <trkpt lat="46.76349" lon="6.37749">
        <ele>1077</ele>
        <time>2019-05-04T15:08:07Z</time>
      </trkpt>
      <trkpt lat="46.76348" lon="6.37737">
        <ele>1076</ele>
        <time>2019-05-04T15:08:13Z</time>
      </trkpt>
      <trkpt lat="46.76346" lon="6.37709">
        <ele>1075</ele>
        <time>2019-05-04T15:08:27Z</time>
      </trkpt>
      <trkpt lat="46.76346" lon="6.37688">
        <ele>1074</ele>
        <time>2019-05-04T15:08:37Z</time>
      </trkpt>
      <trkpt lat="46.76348" lon="6.37661">
        <ele>1074</ele>
        <time>2019-05-04T15:08:51Z</time>
      </trkpt>
      <trkpt lat="46.7635" lon="6.37631">
        <ele>1074</ele>
        <time>2019-05-04T15:09:06Z</time>
      </trkpt>
      <trkpt lat="46.76351" lon="6.37627">
        <ele>1074</ele>
        <time>2019-05-04T15:09:08Z</time>
      </trkpt>
      <trkpt lat="46.76354" lon="6.37601">
        <ele>1074</ele>
        <time>2019-05-04T15:09:21Z</time>
      </trkpt>
      <trkpt lat="46.7636" lon="6.37574">
        <ele>1073</ele>
        <time>2019-05-04T15:09:35Z</time>
      </trkpt>
      <trkpt lat="46.76361" lon="6.3757">
        <ele>1073</ele>
        <time>2019-05-04T15:09:37Z</time>
      </trkpt>
      <trkpt lat="46.76367" lon="6.37546">
        <ele>1073</ele>
        <time>2019-05-04T15:09:50Z</time>
      </trkpt>
      <trkpt lat="46.76368" lon="6.37517">
        <ele>1072</ele>
        <time>2019-05-04T15:10:04Z</time>
      </trkpt>
      <trkpt lat="46.76367" lon="6.37514">
        <ele>1072</ele>
        <time>2019-05-04T15:10:06Z</time>
      </trkpt>
      <trkpt lat="46.76364" lon="6.37486">
        <ele>1073</ele>
        <time>2019-05-04T15:10:20Z</time>
      </trkpt>
      <trkpt lat="46.76359" lon="6.37457">
        <ele>1073</ele>
        <time>2019-05-04T15:10:35Z</time>
      </trkpt>
      <trkpt lat="46.76354" lon="6.37429">
        <ele>1074</ele>
        <time>2019-05-04T15:10:49Z</time>
      </trkpt>
      <trkpt lat="46.76343" lon="6.37404">
        <ele>1073</ele>
        <time>2019-05-04T15:11:04Z</time>
      </trkpt>
      <trkpt lat="46.76334" lon="6.3738">
        <ele>1073</ele>
        <time>2019-05-04T15:11:17Z</time>
      </trkpt>
      <trkpt lat="46.76332" lon="6.37365">
        <ele>1073</ele>
        <time>2019-05-04T15:11:25Z</time>
      </trkpt>
      <trkpt lat="46.7633" lon="6.37339">
        <ele>1073</ele>
        <time>2019-05-04T15:11:37Z</time>
      </trkpt>
      <trkpt lat="46.76336" lon="6.37312">
        <ele>1074</ele>
        <time>2019-05-04T15:11:52Z</time>
      </trkpt>
      <trkpt lat="46.76341" lon="6.37298">
        <ele>1074</ele>
        <time>2019-05-04T15:11:59Z</time>
      </trkpt>
      <trkpt lat="46.76351" lon="6.37273">
        <ele>1075</ele>
        <time>2019-05-04T15:12:14Z</time>
      </trkpt>
      <trkpt lat="46.76357" lon="6.37254">
        <ele>1077</ele>
        <time>2019-05-04T15:12:24Z</time>
      </trkpt>
      <trkpt lat="46.76364" lon="6.37236">
        <ele>1080</ele>
        <time>2019-05-04T15:12:35Z</time>
      </trkpt>
      <trkpt lat="46.76383" lon="6.37232">
        <ele>1079</ele>
        <time>2019-05-04T15:12:48Z</time>
      </trkpt>
      <trkpt lat="46.76392" lon="6.37231">
        <ele>1079</ele>
        <time>2019-05-04T15:12:55Z</time>
      </trkpt>
      <trkpt lat="46.7641" lon="6.37227">
        <ele>1078</ele>
        <time>2019-05-04T15:13:08Z</time>
      </trkpt>
      <trkpt lat="46.76424" lon="6.37223">
        <ele>1078</ele>
        <time>2019-05-04T15:13:18Z</time>
      </trkpt>
      <trkpt lat="46.76443" lon="6.37216">
        <ele>1078</ele>
        <time>2019-05-04T15:13:33Z</time>
      </trkpt>
      <trkpt lat="46.7646" lon="6.37207">
        <ele>1079</ele>
        <time>2019-05-04T15:13:46Z</time>
      </trkpt>
      <trkpt lat="46.76467" lon="6.37199">
        <ele>1081</ele>
        <time>2019-05-04T15:13:52Z</time>
      </trkpt>
      <trkpt lat="46.7647" lon="6.3718">
        <ele>1084</ele>
        <time>2019-05-04T15:14:02Z</time>
      </trkpt>
      <trkpt lat="46.76471" lon="6.37174">
        <ele>1085</ele>
        <time>2019-05-04T15:14:05Z</time>
      </trkpt>
      <trkpt lat="46.76471" lon="6.37173">
        <ele>1086</ele>
        <time>2019-05-04T15:14:06Z</time>
      </trkpt>
      <trkpt lat="46.76471" lon="6.37171">
        <ele>1086</ele>
        <time>2019-05-04T15:14:07Z</time>
      </trkpt>
      <trkpt lat="46.76471" lon="6.37168">
        <ele>1086</ele>
        <time>2019-05-04T15:14:08Z</time>
      </trkpt>
      <trkpt lat="46.7647" lon="6.37165">
        <ele>1087</ele>
        <time>2019-05-04T15:14:10Z</time>
      </trkpt>
      <trkpt lat="46.76469" lon="6.37161">
        <ele>1087</ele>
        <time>2019-05-04T15:14:12Z</time>
      </trkpt>
      <trkpt lat="46.76468" lon="6.3716">
        <ele>1088</ele>
        <time>2019-05-04T15:14:13Z</time>
      </trkpt>
      <trkpt lat="46.76467" lon="6.37159">
        <ele>1088</ele>
        <time>2019-05-04T15:14:14Z</time>
      </trkpt>
      <trkpt lat="46.76466" lon="6.37157">
        <ele>1088</ele>
        <time>2019-05-04T15:14:15Z</time>
      </trkpt>
      <trkpt lat="46.76466" lon="6.37154">
        <ele>1089</ele>
        <time>2019-05-04T15:14:17Z</time>
      </trkpt>
      <trkpt lat="46.76465" lon="6.37152">
        <ele>1089</ele>
        <time>2019-05-04T15:14:18Z</time>
      </trkpt>
      <trkpt lat="46.76462" lon="6.3715">
        <ele>1089</ele>
        <time>2019-05-04T15:14:20Z</time>
      </trkpt>
      <trkpt lat="46.76462" lon="6.37149">
        <ele>1090</ele>
        <time>2019-05-04T15:14:21Z</time>
      </trkpt>
      <trkpt lat="46.76462" lon="6.37144">
        <ele>1091</ele>
        <time>2019-05-04T15:14:24Z</time>
      </trkpt>
      <trkpt lat="46.76462" lon="6.37142">
        <ele>1091</ele>
        <time>2019-05-04T15:14:25Z</time>
      </trkpt>
      <trkpt lat="46.76462" lon="6.37133">
        <ele>1093</ele>
        <time>2019-05-04T15:14:29Z</time>
      </trkpt>
      <trkpt lat="46.76462" lon="6.37132">
        <ele>1093</ele>
        <time>2019-05-04T15:14:30Z</time>
      </trkpt>
      <trkpt lat="46.76458" lon="6.37123">
        <ele>1094</ele>
        <time>2019-05-04T15:14:35Z</time>
      </trkpt>
      <trkpt lat="46.76459" lon="6.37122">
        <ele>1095</ele>
        <time>2019-05-04T15:14:36Z</time>
      </trkpt>
      <trkpt lat="46.76459" lon="6.37117">
        <ele>1096</ele>
        <time>2019-05-04T15:14:38Z</time>
      </trkpt>
      <trkpt lat="46.76458" lon="6.37112">
        <ele>1097</ele>
        <time>2019-05-04T15:14:41Z</time>
      </trkpt>
      <trkpt lat="46.76457" lon="6.37112">
        <ele>1096</ele>
        <time>2019-05-04T15:14:43Z</time>
      </trkpt>
      <trkpt lat="46.76455" lon="6.3711">
        <ele>1097</ele>
        <time>2019-05-04T15:14:45Z</time>
      </trkpt>
      <trkpt lat="46.76455" lon="6.37102">
        <ele>1098</ele>
        <time>2019-05-04T15:14:48Z</time>
      </trkpt>
      <trkpt lat="46.76456" lon="6.37098">
        <ele>1099</ele>
        <time>2019-05-04T15:14:51Z</time>
      </trkpt>
      <trkpt lat="46.76456" lon="6.37097">
        <ele>1099</ele>
        <time>2019-05-04T15:14:51Z</time>
      </trkpt>
      <trkpt lat="46.76457" lon="6.37092">
        <ele>1099</ele>
        <time>2019-05-04T15:14:54Z</time>
      </trkpt>
      <trkpt lat="46.76457" lon="6.37088">
        <ele>1100</ele>
        <time>2019-05-04T15:14:56Z</time>
      </trkpt>
      <trkpt lat="46.76458" lon="6.37082">
        <ele>1100</ele>
        <time>2019-05-04T15:14:59Z</time>
      </trkpt>
      <trkpt lat="46.76462" lon="6.37066">
        <ele>1102</ele>
        <time>2019-05-04T15:15:08Z</time>
      </trkpt>
      <trkpt lat="46.76463" lon="6.37051">
        <ele>1103</ele>
        <time>2019-05-04T15:15:15Z</time>
      </trkpt>
      <trkpt lat="46.76461" lon="6.37042">
        <ele>1104</ele>
        <time>2019-05-04T15:15:20Z</time>
      </trkpt>
      <trkpt lat="46.76461" lon="6.37036">
        <ele>1105</ele>
        <time>2019-05-04T15:15:23Z</time>
      </trkpt>
      <trkpt lat="46.76461" lon="6.37034">
        <ele>1105</ele>
        <time>2019-05-04T15:15:24Z</time>
      </trkpt>
      <trkpt lat="46.76458" lon="6.37025">
        <ele>1107</ele>
        <time>2019-05-04T15:15:29Z</time>
      </trkpt>
      <trkpt lat="46.76454" lon="6.37019">
        <ele>1107</ele>
        <time>2019-05-04T15:15:33Z</time>
      </trkpt>
      <trkpt lat="46.76453" lon="6.37012">
        <ele>1107</ele>
        <time>2019-05-04T15:15:37Z</time>
      </trkpt>
      <trkpt lat="46.76452" lon="6.3701">
        <ele>1107</ele>
        <time>2019-05-04T15:15:38Z</time>
      </trkpt>
      <trkpt lat="46.7645" lon="6.37004">
        <ele>1107</ele>
        <time>2019-05-04T15:15:41Z</time>
      </trkpt>
      <trkpt lat="46.76448" lon="6.36999">
        <ele>1108</ele>
        <time>2019-05-04T15:15:44Z</time>
      </trkpt>
      <trkpt lat="46.76447" lon="6.36992">
        <ele>1108</ele>
        <time>2019-05-04T15:15:47Z</time>
      </trkpt>
      <trkpt lat="46.76446" lon="6.36989">
        <ele>1108</ele>
        <time>2019-05-04T15:15:49Z</time>
      </trkpt>
      <trkpt lat="46.76441" lon="6.36982">
        <ele>1108</ele>
        <time>2019-05-04T15:15:54Z</time>
      </trkpt>
      <trkpt lat="46.76437" lon="6.36963">
        <ele>1109</ele>
        <time>2019-05-04T15:16:04Z</time>
      </trkpt>
      <trkpt lat="46.76436" lon="6.36961">
        <ele>1109</ele>
        <time>2019-05-04T15:16:05Z</time>
      </trkpt>
      <trkpt lat="46.76434" lon="6.36955">
        <ele>1109</ele>
        <time>2019-05-04T15:16:08Z</time>
      </trkpt>
      <trkpt lat="46.76434" lon="6.36947">
        <ele>1109</ele>
        <time>2019-05-04T15:16:12Z</time>
      </trkpt>
      <trkpt lat="46.76432" lon="6.36944">
        <ele>1109</ele>
        <time>2019-05-04T15:16:15Z</time>
      </trkpt>
      <trkpt lat="46.7643" lon="6.36937">
        <ele>1110</ele>
        <time>2019-05-04T15:16:18Z</time>
      </trkpt>
      <trkpt lat="46.76429" lon="6.36934">
        <ele>1110</ele>
        <time>2019-05-04T15:16:20Z</time>
      </trkpt>
      <trkpt lat="46.76422" lon="6.36908">
        <ele>1110</ele>
        <time>2019-05-04T15:16:34Z</time>
      </trkpt>
      <trkpt lat="46.76414" lon="6.36892">
        <ele>1110</ele>
        <time>2019-05-04T15:16:43Z</time>
      </trkpt>
      <trkpt lat="46.76408" lon="6.36872">
        <ele>1111</ele>
        <time>2019-05-04T15:16:55Z</time>
      </trkpt>
      <trkpt lat="46.76404" lon="6.36853">
        <ele>1111</ele>
        <time>2019-05-04T15:17:04Z</time>
      </trkpt>
      <trkpt lat="46.76401" lon="6.36843">
        <ele>1110</ele>
        <time>2019-05-04T15:17:09Z</time>
      </trkpt>
      <trkpt lat="46.76399" lon="6.36835">
        <ele>1110</ele>
        <time>2019-05-04T15:17:14Z</time>
      </trkpt>
      <trkpt lat="46.76396" lon="6.36826">
        <ele>1110</ele>
        <time>2019-05-04T15:17:19Z</time>
      </trkpt>
      <trkpt lat="46.76392" lon="6.36814">
        <ele>1110</ele>
        <time>2019-05-04T15:17:26Z</time>
      </trkpt>
      <trkpt lat="46.76387" lon="6.36803">
        <ele>1111</ele>
        <time>2019-05-04T15:17:32Z</time>
      </trkpt>
      <trkpt lat="46.76385" lon="6.36798">
        <ele>1111</ele>
        <time>2019-05-04T15:17:35Z</time>
      </trkpt>
      <trkpt lat="46.76383" lon="6.3677">
        <ele>1109</ele>
        <time>2019-05-04T15:17:49Z</time>
      </trkpt>
      <trkpt lat="46.76383" lon="6.36764">
        <ele>1109</ele>
        <time>2019-05-04T15:17:52Z</time>
      </trkpt>
      <trkpt lat="46.76384" lon="6.36753">
        <ele>1110</ele>
        <time>2019-05-04T15:17:57Z</time>
      </trkpt>
      <trkpt lat="46.7638" lon="6.36726">
        <ele>1111</ele>
        <time>2019-05-04T15:18:11Z</time>
      </trkpt>
      <trkpt lat="46.7638" lon="6.36719">
        <ele>1111</ele>
        <time>2019-05-04T15:18:15Z</time>
      </trkpt>
      <trkpt lat="46.76385" lon="6.36692">
        <ele>1111</ele>
        <time>2019-05-04T15:18:29Z</time>
      </trkpt>
      <trkpt lat="46.76386" lon="6.36661">
        <ele>1111</ele>
        <time>2019-05-04T15:18:44Z</time>
      </trkpt>
      <trkpt lat="46.76394" lon="6.36635">
        <ele>1110</ele>
        <time>2019-05-04T15:18:58Z</time>
      </trkpt>
      <trkpt lat="46.76397" lon="6.3662">
        <ele>1110</ele>
        <time>2019-05-04T15:19:06Z</time>
      </trkpt>
      <trkpt lat="46.76398" lon="6.3662">
        <ele>1110</ele>
        <time>2019-05-04T15:19:07Z</time>
      </trkpt>
      <trkpt lat="46.76399" lon="6.36621">
        <ele>1110</ele>
        <time>2019-05-04T15:19:08Z</time>
      </trkpt>
      <trkpt lat="46.76401" lon="6.36618">
        <ele>1110</ele>
        <time>2019-05-04T15:19:10Z</time>
      </trkpt>
      <trkpt lat="46.76398" lon="6.36611">
        <ele>1110</ele>
        <time>2019-05-04T15:19:13Z</time>
      </trkpt>
      <trkpt lat="46.76394" lon="6.36599">
        <ele>1111</ele>
        <time>2019-05-04T15:19:20Z</time>
      </trkpt>
      <trkpt lat="46.76392" lon="6.36587">
        <ele>1111</ele>
        <time>2019-05-04T15:19:26Z</time>
      </trkpt>
      <trkpt lat="46.76391" lon="6.36579">
        <ele>1111</ele>
        <time>2019-05-04T15:19:30Z</time>
      </trkpt>
      <trkpt lat="46.7639" lon="6.36571">
        <ele>1111</ele>
        <time>2019-05-04T15:19:34Z</time>
      </trkpt>
      <trkpt lat="46.76393" lon="6.36568">
        <ele>1111</ele>
        <time>2019-05-04T15:19:37Z</time>
      </trkpt>
      <trkpt lat="46.76394" lon="6.36565">
        <ele>1111</ele>
        <time>2019-05-04T15:19:38Z</time>
      </trkpt>
      <trkpt lat="46.76394" lon="6.36545">
        <ele>1111</ele>
        <time>2019-05-04T15:19:48Z</time>
      </trkpt>
      <trkpt lat="46.76393" lon="6.36525">
        <ele>1111</ele>
        <time>2019-05-04T15:19:58Z</time>
      </trkpt>
      <trkpt lat="46.76391" lon="6.36516">
        <ele>1111</ele>
        <time>2019-05-04T15:20:03Z</time>
      </trkpt>
      <trkpt lat="46.7639" lon="6.3651">
        <ele>1112</ele>
        <time>2019-05-04T15:20:06Z</time>
      </trkpt>
      <trkpt lat="46.76388" lon="6.36488">
        <ele>1114</ele>
        <time>2019-05-04T15:20:17Z</time>
      </trkpt>
      <trkpt lat="46.76386" lon="6.36474">
        <ele>1115</ele>
        <time>2019-05-04T15:20:24Z</time>
      </trkpt>
      <trkpt lat="46.76383" lon="6.36452">
        <ele>1117</ele>
        <time>2019-05-04T15:20:35Z</time>
      </trkpt>
      <trkpt lat="46.76377" lon="6.36446">
        <ele>1119</ele>
        <time>2019-05-04T15:20:41Z</time>
      </trkpt>
      <trkpt lat="46.76376" lon="6.36444">
        <ele>1119</ele>
        <time>2019-05-04T15:20:42Z</time>
      </trkpt>
      <trkpt lat="46.76372" lon="6.36442">
        <ele>1121</ele>
        <time>2019-05-04T15:20:46Z</time>
      </trkpt>
      <trkpt lat="46.7637" lon="6.36442">
        <ele>1121</ele>
        <time>2019-05-04T15:20:46Z</time>
      </trkpt>
      <trkpt lat="46.76369" lon="6.36441">
        <ele>1121</ele>
        <time>2019-05-04T15:20:47Z</time>
      </trkpt>
      <trkpt lat="46.76367" lon="6.36438">
        <ele>1122</ele>
        <time>2019-05-04T15:20:50Z</time>
      </trkpt>
      <trkpt lat="46.76372" lon="6.36436">
        <ele>1121</ele>
        <time>2019-05-04T15:20:53Z</time>
      </trkpt>
      <trkpt lat="46.7638" lon="6.36427">
        <ele>1119</ele>
        <time>2019-05-04T15:21:00Z</time>
      </trkpt>
      <trkpt lat="46.76382" lon="6.36422">
        <ele>1119</ele>
        <time>2019-05-04T15:21:03Z</time>
      </trkpt>
      <trkpt lat="46.76383" lon="6.36421">
        <ele>1119</ele>
        <time>2019-05-04T15:21:04Z</time>
      </trkpt>
      <trkpt lat="46.76384" lon="6.3642">
        <ele>1119</ele>
        <time>2019-05-04T15:21:05Z</time>
      </trkpt>
      <trkpt lat="46.7638" lon="6.36417">
        <ele>1120</ele>
        <time>2019-05-04T15:21:08Z</time>
      </trkpt>
      <trkpt lat="46.76378" lon="6.36418">
        <ele>1120</ele>
        <time>2019-05-04T15:21:09Z</time>
      </trkpt>
      <trkpt lat="46.76372" lon="6.36421">
        <ele>1122</ele>
        <time>2019-05-04T15:21:14Z</time>
      </trkpt>
      <trkpt lat="46.76366" lon="6.36422">
        <ele>1123</ele>
        <time>2019-05-04T15:21:18Z</time>
      </trkpt>
      <trkpt lat="46.76362" lon="6.36421">
        <ele>1124</ele>
        <time>2019-05-04T15:21:22Z</time>
      </trkpt>
      <trkpt lat="46.76358" lon="6.36419">
        <ele>1126</ele>
        <time>2019-05-04T15:21:25Z</time>
      </trkpt>
      <trkpt lat="46.76354" lon="6.36415">
        <ele>1128</ele>
        <time>2019-05-04T15:21:28Z</time>
      </trkpt>
      <trkpt lat="46.7635" lon="6.36413">
        <ele>1129</ele>
        <time>2019-05-04T15:21:32Z</time>
      </trkpt>
      <trkpt lat="46.7635" lon="6.3641">
        <ele>1130</ele>
        <time>2019-05-04T15:21:33Z</time>
      </trkpt>
      <trkpt lat="46.76353" lon="6.3639">
        <ele>1129</ele>
        <time>2019-05-04T15:21:44Z</time>
      </trkpt>
      <trkpt lat="46.76351" lon="6.36378">
        <ele>1131</ele>
        <time>2019-05-04T15:21:50Z</time>
      </trkpt>
      <trkpt lat="46.76351" lon="6.36373">
        <ele>1131</ele>
        <time>2019-05-04T15:21:52Z</time>
      </trkpt>
      <trkpt lat="46.76352" lon="6.36355">
        <ele>1131</ele>
        <time>2019-05-04T15:22:02Z</time>
      </trkpt>
      <trkpt lat="46.76351" lon="6.3634">
        <ele>1131</ele>
        <time>2019-05-04T15:22:09Z</time>
      </trkpt>
      <trkpt lat="46.76352" lon="6.36335">
        <ele>1131</ele>
        <time>2019-05-04T15:22:12Z</time>
      </trkpt>
      <trkpt lat="46.7635" lon="6.36329">
        <ele>1131</ele>
        <time>2019-05-04T15:22:15Z</time>
      </trkpt>
      <trkpt lat="46.76347" lon="6.36323">
        <ele>1132</ele>
        <time>2019-05-04T15:22:19Z</time>
      </trkpt>
      <trkpt lat="46.76345" lon="6.36315">
        <ele>1133</ele>
        <time>2019-05-04T15:22:23Z</time>
      </trkpt>
      <trkpt lat="46.76342" lon="6.36308">
        <ele>1133</ele>
        <time>2019-05-04T15:22:27Z</time>
      </trkpt>
      <trkpt lat="46.76339" lon="6.36301">
        <ele>1134</ele>
        <time>2019-05-04T15:22:32Z</time>
      </trkpt>
      <trkpt lat="46.76337" lon="6.3629">
        <ele>1135</ele>
        <time>2019-05-04T15:22:37Z</time>
      </trkpt>
      <trkpt lat="46.76334" lon="6.36283">
        <ele>1135</ele>
        <time>2019-05-04T15:22:41Z</time>
      </trkpt>
      <trkpt lat="46.76333" lon="6.3628">
        <ele>1135</ele>
        <time>2019-05-04T15:22:43Z</time>
      </trkpt>
      <trkpt lat="46.76331" lon="6.36278">
        <ele>1136</ele>
        <time>2019-05-04T15:22:45Z</time>
      </trkpt>
      <trkpt lat="46.7633" lon="6.36276">
        <ele>1136</ele>
        <time>2019-05-04T15:22:45Z</time>
      </trkpt>
      <trkpt lat="46.76329" lon="6.36269">
        <ele>1136</ele>
        <time>2019-05-04T15:22:49Z</time>
      </trkpt>
      <trkpt lat="46.76327" lon="6.36267">
        <ele>1137</ele>
        <time>2019-05-04T15:22:51Z</time>
      </trkpt>
      <trkpt lat="46.76323" lon="6.36264">
        <ele>1138</ele>
        <time>2019-05-04T15:22:54Z</time>
      </trkpt>
      <trkpt lat="46.7632" lon="6.36261">
        <ele>1138</ele>
        <time>2019-05-04T15:22:57Z</time>
      </trkpt>
      <trkpt lat="46.76319" lon="6.3626">
        <ele>1139</ele>
        <time>2019-05-04T15:22:58Z</time>
      </trkpt>
      <trkpt lat="46.7632" lon="6.36256">
        <ele>1138</ele>
        <time>2019-05-04T15:23:00Z</time>
      </trkpt>
      <trkpt lat="46.76319" lon="6.36253">
        <ele>1138</ele>
        <time>2019-05-04T15:23:01Z</time>
      </trkpt>
      <trkpt lat="46.76318" lon="6.36245">
        <ele>1138</ele>
        <time>2019-05-04T15:23:05Z</time>
      </trkpt>
      <trkpt lat="46.76318" lon="6.36243">
        <ele>1138</ele>
        <time>2019-05-04T15:23:07Z</time>
      </trkpt>
      <trkpt lat="46.76315" lon="6.36238">
        <ele>1139</ele>
        <time>2019-05-04T15:23:10Z</time>
      </trkpt>
      <trkpt lat="46.76312" lon="6.36229">
        <ele>1139</ele>
        <time>2019-05-04T15:23:15Z</time>
      </trkpt>
      <trkpt lat="46.76309" lon="6.36223">
        <ele>1140</ele>
        <time>2019-05-04T15:23:19Z</time>
      </trkpt>
      <trkpt lat="46.76306" lon="6.36217">
        <ele>1140</ele>
        <time>2019-05-04T15:23:22Z</time>
      </trkpt>
      <trkpt lat="46.76302" lon="6.36203">
        <ele>1140</ele>
        <time>2019-05-04T15:23:29Z</time>
      </trkpt>
      <trkpt lat="46.76303" lon="6.36178">
        <ele>1138</ele>
        <time>2019-05-04T15:23:42Z</time>
      </trkpt>
      <trkpt lat="46.76308" lon="6.36158">
        <ele>1136</ele>
        <time>2019-05-04T15:23:53Z</time>
      </trkpt>
      <trkpt lat="46.76312" lon="6.36144">
        <ele>1134</ele>
        <time>2019-05-04T15:24:00Z</time>
      </trkpt>
      <trkpt lat="46.76313" lon="6.36136">
        <ele>1134</ele>
        <time>2019-05-04T15:24:05Z</time>
      </trkpt>
      <trkpt lat="46.76308" lon="6.3611">
        <ele>1133</ele>
        <time>2019-05-04T15:24:18Z</time>
      </trkpt>
      <trkpt lat="46.76296" lon="6.36087">
        <ele>1134</ele>
        <time>2019-05-04T15:24:32Z</time>
      </trkpt>
      <trkpt lat="46.76289" lon="6.36061">
        <ele>1135</ele>
        <time>2019-05-04T15:24:46Z</time>
      </trkpt>
      <trkpt lat="46.76287" lon="6.36052">
        <ele>1135</ele>
        <time>2019-05-04T15:24:51Z</time>
      </trkpt>
      <trkpt lat="46.76283" lon="6.36036">
        <ele>1136</ele>
        <time>2019-05-04T15:24:59Z</time>
      </trkpt>
      <trkpt lat="46.76281" lon="6.3603">
        <ele>1136</ele>
        <time>2019-05-04T15:25:02Z</time>
      </trkpt>
      <trkpt lat="46.76278" lon="6.36022">
        <ele>1137</ele>
        <time>2019-05-04T15:25:07Z</time>
      </trkpt>
      <trkpt lat="46.7627" lon="6.35998">
        <ele>1142</ele>
        <time>2019-05-04T15:25:21Z</time>
      </trkpt>
      <trkpt lat="46.76268" lon="6.35995">
        <ele>1143</ele>
        <time>2019-05-04T15:25:23Z</time>
      </trkpt>
      <trkpt lat="46.76264" lon="6.35985">
        <ele>1146</ele>
        <time>2019-05-04T15:25:29Z</time>
      </trkpt>
      <trkpt lat="46.76256" lon="6.35961">
        <ele>1152</ele>
        <time>2019-05-04T15:25:43Z</time>
      </trkpt>
      <trkpt lat="46.76255" lon="6.35959">
        <ele>1152</ele>
        <time>2019-05-04T15:25:44Z</time>
      </trkpt>
      <trkpt lat="46.76249" lon="6.35958">
        <ele>1155</ele>
        <time>2019-05-04T15:25:49Z</time>
      </trkpt>
      <trkpt lat="46.76239" lon="6.35981">
        <ele>1161</ele>
        <time>2019-05-04T15:26:03Z</time>
      </trkpt>
      <trkpt lat="46.76236" lon="6.3599">
        <ele>1163</ele>
        <time>2019-05-04T15:26:08Z</time>
      </trkpt>
      <trkpt lat="46.76231" lon="6.3601">
        <ele>1165</ele>
        <time>2019-05-04T15:26:19Z</time>
      </trkpt>
      <trkpt lat="46.76229" lon="6.36011">
        <ele>1166</ele>
        <time>2019-05-04T15:26:20Z</time>
      </trkpt>
      <trkpt lat="46.76227" lon="6.36015">
        <ele>1167</ele>
        <time>2019-05-04T15:26:23Z</time>
      </trkpt>
      <trkpt lat="46.76224" lon="6.36013">
        <ele>1169</ele>
        <time>2019-05-04T15:26:25Z</time>
      </trkpt>
      <trkpt lat="46.76218" lon="6.36009">
        <ele>1172</ele>
        <time>2019-05-04T15:26:30Z</time>
      </trkpt>
      <trkpt lat="46.76218" lon="6.36008">
        <ele>1173</ele>
        <time>2019-05-04T15:26:31Z</time>
      </trkpt>
      <trkpt lat="46.76216" lon="6.36008">
        <ele>1174</ele>
        <time>2019-05-04T15:26:33Z</time>
      </trkpt>
      <trkpt lat="46.76212" lon="6.36005">
        <ele>1176</ele>
        <time>2019-05-04T15:26:36Z</time>
      </trkpt>
      <trkpt lat="46.76211" lon="6.36004">
        <ele>1177</ele>
        <time>2019-05-04T15:26:37Z</time>
      </trkpt>
      <trkpt lat="46.76213" lon="6.36001">
        <ele>1175</ele>
        <time>2019-05-04T15:26:40Z</time>
      </trkpt>
      <trkpt lat="46.76213" lon="6.36">
        <ele>1175</ele>
        <time>2019-05-04T15:26:40Z</time>
      </trkpt>
      <trkpt lat="46.76212" lon="6.36006">
        <ele>1176</ele>
        <time>2019-05-04T15:26:43Z</time>
      </trkpt>
      <trkpt lat="46.76212" lon="6.36008">
        <ele>1176</ele>
        <time>2019-05-04T15:26:44Z</time>
      </trkpt>
      <trkpt lat="46.76212" lon="6.36009">
        <ele>1176</ele>
        <time>2019-05-04T15:26:45Z</time>
      </trkpt>
      <trkpt lat="46.76212" lon="6.36015">
        <ele>1176</ele>
        <time>2019-05-04T15:26:48Z</time>
      </trkpt>
      <trkpt lat="46.76211" lon="6.36017">
        <ele>1176</ele>
        <time>2019-05-04T15:26:49Z</time>
      </trkpt>
      <trkpt lat="46.76211" lon="6.36018">
        <ele>1177</ele>
        <time>2019-05-04T15:26:50Z</time>
      </trkpt>
      <trkpt lat="46.7621" lon="6.36022">
        <ele>1177</ele>
        <time>2019-05-04T15:26:52Z</time>
      </trkpt>
      <trkpt lat="46.76209" lon="6.36027">
        <ele>1177</ele>
        <time>2019-05-04T15:26:55Z</time>
      </trkpt>
      <trkpt lat="46.76208" lon="6.3603">
        <ele>1178</ele>
        <time>2019-05-04T15:26:56Z</time>
      </trkpt>
      <trkpt lat="46.76207" lon="6.36035">
        <ele>1178</ele>
        <time>2019-05-04T15:26:59Z</time>
      </trkpt>
      <trkpt lat="46.76208" lon="6.36037">
        <ele>1177</ele>
        <time>2019-05-04T15:27:01Z</time>
      </trkpt>
      <trkpt lat="46.76209" lon="6.36039">
        <ele>1177</ele>
        <time>2019-05-04T15:27:01Z</time>
      </trkpt>
      <trkpt lat="46.76206" lon="6.36049">
        <ele>1178</ele>
        <time>2019-05-04T15:27:07Z</time>
      </trkpt>
      <trkpt lat="46.76203" lon="6.36056">
        <ele>1179</ele>
        <time>2019-05-04T15:27:11Z</time>
      </trkpt>
      <trkpt lat="46.76203" lon="6.36057">
        <ele>1180</ele>
        <time>2019-05-04T15:27:12Z</time>
      </trkpt>
      <trkpt lat="46.76202" lon="6.36066">
        <ele>1180</ele>
        <time>2019-05-04T15:27:16Z</time>
      </trkpt>
      <trkpt lat="46.76202" lon="6.36068">
        <ele>1179</ele>
        <time>2019-05-04T15:27:17Z</time>
      </trkpt>
      <trkpt lat="46.76203" lon="6.36074">
        <ele>1179</ele>
        <time>2019-05-04T15:27:20Z</time>
      </trkpt>
      <trkpt lat="46.76201" lon="6.36076">
        <ele>1180</ele>
        <time>2019-05-04T15:27:22Z</time>
      </trkpt>
      <trkpt lat="46.76201" lon="6.3608">
        <ele>1180</ele>
        <time>2019-05-04T15:27:24Z</time>
      </trkpt>
      <trkpt lat="46.76201" lon="6.36082">
        <ele>1179</ele>
        <time>2019-05-04T15:27:25Z</time>
      </trkpt>
      <trkpt lat="46.76203" lon="6.36085">
        <ele>1179</ele>
        <time>2019-05-04T15:27:27Z</time>
      </trkpt>
      <trkpt lat="46.76202" lon="6.36087">
        <ele>1179</ele>
        <time>2019-05-04T15:27:28Z</time>
      </trkpt>
      <trkpt lat="46.76202" lon="6.3609">
        <ele>1179</ele>
        <time>2019-05-04T15:27:29Z</time>
      </trkpt>
      <trkpt lat="46.76201" lon="6.36095">
        <ele>1179</ele>
        <time>2019-05-04T15:27:32Z</time>
      </trkpt>
      <trkpt lat="46.76201" lon="6.36097">
        <ele>1179</ele>
        <time>2019-05-04T15:27:33Z</time>
      </trkpt>
      <trkpt lat="46.76201" lon="6.361">
        <ele>1179</ele>
        <time>2019-05-04T15:27:35Z</time>
      </trkpt>
      <trkpt lat="46.76201" lon="6.36102">
        <ele>1179</ele>
        <time>2019-05-04T15:27:35Z</time>
      </trkpt>
      <trkpt lat="46.76201" lon="6.36103">
        <ele>1179</ele>
        <time>2019-05-04T15:27:36Z</time>
      </trkpt>
      <trkpt lat="46.76202" lon="6.3611">
        <ele>1178</ele>
        <time>2019-05-04T15:27:40Z</time>
      </trkpt>
      <trkpt lat="46.76202" lon="6.36117">
        <ele>1178</ele>
        <time>2019-05-04T15:27:43Z</time>
      </trkpt>
      <trkpt lat="46.76201" lon="6.36118">
        <ele>1178</ele>
        <time>2019-05-04T15:27:44Z</time>
      </trkpt>
      <trkpt lat="46.762" lon="6.36118">
        <ele>1179</ele>
        <time>2019-05-04T15:27:45Z</time>
      </trkpt>
      <trkpt lat="46.76198" lon="6.36117">
        <ele>1180</ele>
        <time>2019-05-04T15:27:47Z</time>
      </trkpt>
      <trkpt lat="46.76192" lon="6.3611">
        <ele>1182</ele>
        <time>2019-05-04T15:27:52Z</time>
      </trkpt>
      <trkpt lat="46.7619" lon="6.36104">
        <ele>1182</ele>
        <time>2019-05-04T15:27:56Z</time>
      </trkpt>
      <trkpt lat="46.76187" lon="6.36102">
        <ele>1183</ele>
        <time>2019-05-04T15:27:58Z</time>
      </trkpt>
      <trkpt lat="46.76183" lon="6.36097">
        <ele>1184</ele>
        <time>2019-05-04T15:28:02Z</time>
      </trkpt>
      <trkpt lat="46.76181" lon="6.36096">
        <ele>1185</ele>
        <time>2019-05-04T15:28:03Z</time>
      </trkpt>
      <trkpt lat="46.76179" lon="6.36093">
        <ele>1185</ele>
        <time>2019-05-04T15:28:05Z</time>
      </trkpt>
      <trkpt lat="46.76179" lon="6.36091">
        <ele>1186</ele>
        <time>2019-05-04T15:28:07Z</time>
      </trkpt>
      <trkpt lat="46.76173" lon="6.36085">
        <ele>1187</ele>
        <time>2019-05-04T15:28:12Z</time>
      </trkpt>
      <trkpt lat="46.76171" lon="6.36079">
        <ele>1188</ele>
        <time>2019-05-04T15:28:15Z</time>
      </trkpt>
      <trkpt lat="46.76168" lon="6.36074">
        <ele>1190</ele>
        <time>2019-05-04T15:28:19Z</time>
      </trkpt>
      <trkpt lat="46.76166" lon="6.36067">
        <ele>1191</ele>
        <time>2019-05-04T15:28:23Z</time>
      </trkpt>
      <trkpt lat="46.76162" lon="6.36065">
        <ele>1192</ele>
        <time>2019-05-04T15:28:26Z</time>
      </trkpt>
      <trkpt lat="46.76159" lon="6.3606">
        <ele>1193</ele>
        <time>2019-05-04T15:28:29Z</time>
      </trkpt>
      <trkpt lat="46.76157" lon="6.36059">
        <ele>1194</ele>
        <time>2019-05-04T15:28:30Z</time>
      </trkpt>
      <trkpt lat="46.76157" lon="6.36055">
        <ele>1194</ele>
        <time>2019-05-04T15:28:33Z</time>
      </trkpt>
      <trkpt lat="46.76158" lon="6.36047">
        <ele>1195</ele>
        <time>2019-05-04T15:28:37Z</time>
      </trkpt>
      <trkpt lat="46.76159" lon="6.36043">
        <ele>1195</ele>
        <time>2019-05-04T15:28:38Z</time>
      </trkpt>
      <trkpt lat="46.76159" lon="6.36035">
        <ele>1196</ele>
        <time>2019-05-04T15:28:43Z</time>
      </trkpt>
      <trkpt lat="46.76161" lon="6.36023">
        <ele>1196</ele>
        <time>2019-05-04T15:28:49Z</time>
      </trkpt>
      <trkpt lat="46.7616" lon="6.36017">
        <ele>1197</ele>
        <time>2019-05-04T15:28:52Z</time>
      </trkpt>
      <trkpt lat="46.7616" lon="6.36016">
        <ele>1197</ele>
        <time>2019-05-04T15:28:52Z</time>
      </trkpt>
      <trkpt lat="46.76159" lon="6.36014">
        <ele>1198</ele>
        <time>2019-05-04T15:28:54Z</time>
      </trkpt>
      <trkpt lat="46.76159" lon="6.36012">
        <ele>1198</ele>
        <time>2019-05-04T15:28:55Z</time>
      </trkpt>
      <trkpt lat="46.7616" lon="6.3601">
        <ele>1198</ele>
        <time>2019-05-04T15:28:56Z</time>
      </trkpt>
      <trkpt lat="46.76161" lon="6.36008">
        <ele>1197</ele>
        <time>2019-05-04T15:28:57Z</time>
      </trkpt>
      <trkpt lat="46.76162" lon="6.36006">
        <ele>1197</ele>
        <time>2019-05-04T15:28:59Z</time>
      </trkpt>
      <trkpt lat="46.76163" lon="6.36003">
        <ele>1197</ele>
        <time>2019-05-04T15:29:00Z</time>
      </trkpt>
      <trkpt lat="46.76163" lon="6.36">
        <ele>1197</ele>
        <time>2019-05-04T15:29:02Z</time>
      </trkpt>
      <trkpt lat="46.76163" lon="6.35997">
        <ele>1198</ele>
        <time>2019-05-04T15:29:03Z</time>
      </trkpt>
      <trkpt lat="46.76164" lon="6.35993">
        <ele>1198</ele>
        <time>2019-05-04T15:29:06Z</time>
      </trkpt>
      <trkpt lat="46.76164" lon="6.3599">
        <ele>1198</ele>
        <time>2019-05-04T15:29:07Z</time>
      </trkpt>
      <trkpt lat="46.76164" lon="6.35988">
        <ele>1198</ele>
        <time>2019-05-04T15:29:08Z</time>
      </trkpt>
      <trkpt lat="46.76163" lon="6.35981">
        <ele>1199</ele>
        <time>2019-05-04T15:29:12Z</time>
      </trkpt>
      <trkpt lat="46.76162" lon="6.35979">
        <ele>1199</ele>
        <time>2019-05-04T15:29:13Z</time>
      </trkpt>
      <trkpt lat="46.76162" lon="6.35978">
        <ele>1199</ele>
        <time>2019-05-04T15:29:13Z</time>
      </trkpt>
      <trkpt lat="46.76161" lon="6.35973">
        <ele>1200</ele>
        <time>2019-05-04T15:29:16Z</time>
      </trkpt>
      <trkpt lat="46.76161" lon="6.35967">
        <ele>1201</ele>
        <time>2019-05-04T15:29:19Z</time>
      </trkpt>
      <trkpt lat="46.7616" lon="6.35961">
        <ele>1202</ele>
        <time>2019-05-04T15:29:22Z</time>
      </trkpt>
      <trkpt lat="46.76158" lon="6.35956">
        <ele>1203</ele>
        <time>2019-05-04T15:29:25Z</time>
      </trkpt>
      <trkpt lat="46.76158" lon="6.35954">
        <ele>1203</ele>
        <time>2019-05-04T15:29:26Z</time>
      </trkpt>
      <trkpt lat="46.76156" lon="6.35952">
        <ele>1204</ele>
        <time>2019-05-04T15:29:27Z</time>
      </trkpt>
      <trkpt lat="46.76156" lon="6.35949">
        <ele>1204</ele>
        <time>2019-05-04T15:29:29Z</time>
      </trkpt>
      <trkpt lat="46.76157" lon="6.35946">
        <ele>1204</ele>
        <time>2019-05-04T15:29:30Z</time>
      </trkpt>
      <trkpt lat="46.76156" lon="6.35945">
        <ele>1205</ele>
        <time>2019-05-04T15:29:32Z</time>
      </trkpt>
      <trkpt lat="46.76155" lon="6.35942">
        <ele>1205</ele>
        <time>2019-05-04T15:29:33Z</time>
      </trkpt>
      <trkpt lat="46.76156" lon="6.35936">
        <ele>1206</ele>
        <time>2019-05-04T15:29:36Z</time>
      </trkpt>
      <trkpt lat="46.76155" lon="6.35933">
        <ele>1206</ele>
        <time>2019-05-04T15:29:38Z</time>
      </trkpt>
      <trkpt lat="46.76154" lon="6.35929">
        <ele>1206</ele>
        <time>2019-05-04T15:29:40Z</time>
      </trkpt>
      <trkpt lat="46.76154" lon="6.35924">
        <ele>1207</ele>
        <time>2019-05-04T15:29:42Z</time>
      </trkpt>
      <trkpt lat="46.76152" lon="6.35921">
        <ele>1208</ele>
        <time>2019-05-04T15:29:44Z</time>
      </trkpt>
      <trkpt lat="46.76151" lon="6.35921">
        <ele>1208</ele>
        <time>2019-05-04T15:29:45Z</time>
      </trkpt>
      <trkpt lat="46.76151" lon="6.35919">
        <ele>1209</ele>
        <time>2019-05-04T15:29:46Z</time>
      </trkpt>
      <trkpt lat="46.7615" lon="6.35916">
        <ele>1209</ele>
        <time>2019-05-04T15:29:47Z</time>
      </trkpt>
      <trkpt lat="46.76147" lon="6.35914">
        <ele>1211</ele>
        <time>2019-05-04T15:29:50Z</time>
      </trkpt>
      <trkpt lat="46.76147" lon="6.35913">
        <ele>1211</ele>
        <time>2019-05-04T15:29:50Z</time>
      </trkpt>
      <trkpt lat="46.76148" lon="6.35906">
        <ele>1211</ele>
        <time>2019-05-04T15:29:54Z</time>
      </trkpt>
      <trkpt lat="46.76149" lon="6.35905">
        <ele>1211</ele>
        <time>2019-05-04T15:29:55Z</time>
      </trkpt>
      <trkpt lat="46.76148" lon="6.35899">
        <ele>1211</ele>
        <time>2019-05-04T15:29:57Z</time>
      </trkpt>
      <trkpt lat="46.76145" lon="6.35894">
        <ele>1213</ele>
        <time>2019-05-04T15:30:01Z</time>
      </trkpt>
      <trkpt lat="46.76145" lon="6.35892">
        <ele>1213</ele>
        <time>2019-05-04T15:30:02Z</time>
      </trkpt>
      <trkpt lat="46.76144" lon="6.3589">
        <ele>1214</ele>
        <time>2019-05-04T15:30:03Z</time>
      </trkpt>
      <trkpt lat="46.76144" lon="6.35888">
        <ele>1214</ele>
        <time>2019-05-04T15:30:04Z</time>
      </trkpt>
      <trkpt lat="46.76144" lon="6.35886">
        <ele>1214</ele>
        <time>2019-05-04T15:30:05Z</time>
      </trkpt>
      <trkpt lat="46.76142" lon="6.35881">
        <ele>1215</ele>
        <time>2019-05-04T15:30:08Z</time>
      </trkpt>
      <trkpt lat="46.76141" lon="6.3588">
        <ele>1216</ele>
        <time>2019-05-04T15:30:09Z</time>
      </trkpt>
      <trkpt lat="46.76139" lon="6.35877">
        <ele>1217</ele>
        <time>2019-05-04T15:30:12Z</time>
      </trkpt>
      <trkpt lat="46.76134" lon="6.35872">
        <ele>1220</ele>
        <time>2019-05-04T15:30:16Z</time>
      </trkpt>
      <trkpt lat="46.76134" lon="6.35869">
        <ele>1220</ele>
        <time>2019-05-04T15:30:18Z</time>
      </trkpt>
      <trkpt lat="46.76134" lon="6.35866">
        <ele>1221</ele>
        <time>2019-05-04T15:30:19Z</time>
      </trkpt>
      <trkpt lat="46.76133" lon="6.35858">
        <ele>1222</ele>
        <time>2019-05-04T15:30:24Z</time>
      </trkpt>
      <trkpt lat="46.76133" lon="6.35856">
        <ele>1222</ele>
        <time>2019-05-04T15:30:24Z</time>
      </trkpt>
      <trkpt lat="46.76131" lon="6.35851">
        <ele>1223</ele>
        <time>2019-05-04T15:30:27Z</time>
      </trkpt>
      <trkpt lat="46.76131" lon="6.3585">
        <ele>1223</ele>
        <time>2019-05-04T15:30:28Z</time>
      </trkpt>
      <trkpt lat="46.7613" lon="6.35847">
        <ele>1223</ele>
        <time>2019-05-04T15:30:29Z</time>
      </trkpt>
      <trkpt lat="46.76129" lon="6.3584">
        <ele>1224</ele>
        <time>2019-05-04T15:30:33Z</time>
      </trkpt>
      <trkpt lat="46.76127" lon="6.35836">
        <ele>1225</ele>
        <time>2019-05-04T15:30:35Z</time>
      </trkpt>
      <trkpt lat="46.76125" lon="6.35832">
        <ele>1227</ele>
        <time>2019-05-04T15:30:38Z</time>
      </trkpt>
      <trkpt lat="46.76121" lon="6.35828">
        <ele>1228</ele>
        <time>2019-05-04T15:30:42Z</time>
      </trkpt>
      <trkpt lat="46.76119" lon="6.35826">
        <ele>1230</ele>
        <time>2019-05-04T15:30:44Z</time>
      </trkpt>
      <trkpt lat="46.76119" lon="6.3582">
        <ele>1230</ele>
        <time>2019-05-04T15:30:46Z</time>
      </trkpt>
      <trkpt lat="46.76118" lon="6.35817">
        <ele>1230</ele>
        <time>2019-05-04T15:30:48Z</time>
      </trkpt>
      <trkpt lat="46.76116" lon="6.35816">
        <ele>1232</ele>
        <time>2019-05-04T15:30:50Z</time>
      </trkpt>
      <trkpt lat="46.76115" lon="6.35815">
        <ele>1232</ele>
        <time>2019-05-04T15:30:51Z</time>
      </trkpt>
      <trkpt lat="46.76115" lon="6.35814">
        <ele>1232</ele>
        <time>2019-05-04T15:30:52Z</time>
      </trkpt>
      <trkpt lat="46.76115" lon="6.3581">
        <ele>1232</ele>
        <time>2019-05-04T15:30:54Z</time>
      </trkpt>
      <trkpt lat="46.76113" lon="6.35807">
        <ele>1234</ele>
        <time>2019-05-04T15:30:57Z</time>
      </trkpt>
      <trkpt lat="46.76112" lon="6.35805">
        <ele>1234</ele>
        <time>2019-05-04T15:30:58Z</time>
      </trkpt>
      <trkpt lat="46.76113" lon="6.35801">
        <ele>1234</ele>
        <time>2019-05-04T15:31:00Z</time>
      </trkpt>
      <trkpt lat="46.76111" lon="6.35799">
        <ele>1234</ele>
        <time>2019-05-04T15:31:01Z</time>
      </trkpt>
      <trkpt lat="46.7611" lon="6.35796">
        <ele>1234</ele>
        <time>2019-05-04T15:31:03Z</time>
      </trkpt>
      <trkpt lat="46.7611" lon="6.35794">
        <ele>1234</ele>
        <time>2019-05-04T15:31:04Z</time>
      </trkpt>
      <trkpt lat="46.76107" lon="6.35791">
        <ele>1235</ele>
        <time>2019-05-04T15:31:06Z</time>
      </trkpt>
      <trkpt lat="46.76106" lon="6.35788">
        <ele>1235</ele>
        <time>2019-05-04T15:31:08Z</time>
      </trkpt>
      <trkpt lat="46.76103" lon="6.3578">
        <ele>1236</ele>
        <time>2019-05-04T15:31:13Z</time>
      </trkpt>
      <trkpt lat="46.76099" lon="6.35773">
        <ele>1237</ele>
        <time>2019-05-04T15:31:17Z</time>
      </trkpt>
      <trkpt lat="46.76099" lon="6.35769">
        <ele>1237</ele>
        <time>2019-05-04T15:31:19Z</time>
      </trkpt>
      <trkpt lat="46.76097" lon="6.35764">
        <ele>1237</ele>
        <time>2019-05-04T15:31:22Z</time>
      </trkpt>
      <trkpt lat="46.76094" lon="6.35751">
        <ele>1237</ele>
        <time>2019-05-04T15:31:28Z</time>
      </trkpt>
      <trkpt lat="46.76091" lon="6.35748">
        <ele>1238</ele>
        <time>2019-05-04T15:31:32Z</time>
      </trkpt>
      <trkpt lat="46.76087" lon="6.35747">
        <ele>1239</ele>
        <time>2019-05-04T15:31:34Z</time>
      </trkpt>
      <trkpt lat="46.76086" lon="6.35736">
        <ele>1240</ele>
        <time>2019-05-04T15:31:40Z</time>
      </trkpt>
      <trkpt lat="46.76085" lon="6.35729">
        <ele>1240</ele>
        <time>2019-05-04T15:31:43Z</time>
      </trkpt>
      <trkpt lat="46.76083" lon="6.35724">
        <ele>1240</ele>
        <time>2019-05-04T15:31:46Z</time>
      </trkpt>
      <trkpt lat="46.76081" lon="6.35718">
        <ele>1241</ele>
        <time>2019-05-04T15:31:49Z</time>
      </trkpt>
      <trkpt lat="46.7608" lon="6.35715">
        <ele>1241</ele>
        <time>2019-05-04T15:31:51Z</time>
      </trkpt>
      <trkpt lat="46.76078" lon="6.35715">
        <ele>1241</ele>
        <time>2019-05-04T15:31:52Z</time>
      </trkpt>
      <trkpt lat="46.76078" lon="6.35715">
        <ele>1242</ele>
        <time>2019-05-04T15:31:53Z</time>
      </trkpt>
      <trkpt lat="46.76077" lon="6.35713">
        <ele>1242</ele>
        <time>2019-05-04T15:31:54Z</time>
      </trkpt>
      <trkpt lat="46.76077" lon="6.35711">
        <ele>1242</ele>
        <time>2019-05-04T15:31:55Z</time>
      </trkpt>
      <trkpt lat="46.7607" lon="6.35699">
        <ele>1244</ele>
        <time>2019-05-04T15:32:03Z</time>
      </trkpt>
      <trkpt lat="46.76068" lon="6.35693">
        <ele>1245</ele>
        <time>2019-05-04T15:32:06Z</time>
      </trkpt>
      <trkpt lat="46.76068" lon="6.35691">
        <ele>1245</ele>
        <time>2019-05-04T15:32:07Z</time>
      </trkpt>
      <trkpt lat="46.76068" lon="6.35688">
        <ele>1245</ele>
        <time>2019-05-04T15:32:09Z</time>
      </trkpt>
      <trkpt lat="46.76067" lon="6.35684">
        <ele>1245</ele>
        <time>2019-05-04T15:32:11Z</time>
      </trkpt>
      <trkpt lat="46.76065" lon="6.3568">
        <ele>1245</ele>
        <time>2019-05-04T15:32:13Z</time>
      </trkpt>
      <trkpt lat="46.76065" lon="6.35676">
        <ele>1245</ele>
        <time>2019-05-04T15:32:15Z</time>
      </trkpt>
      <trkpt lat="46.76064" lon="6.35674">
        <ele>1246</ele>
        <time>2019-05-04T15:32:17Z</time>
      </trkpt>
      <trkpt lat="46.76063" lon="6.3567">
        <ele>1246</ele>
        <time>2019-05-04T15:32:19Z</time>
      </trkpt>
      <trkpt lat="46.76062" lon="6.35669">
        <ele>1246</ele>
        <time>2019-05-04T15:32:20Z</time>
      </trkpt>
      <trkpt lat="46.76059" lon="6.35664">
        <ele>1247</ele>
        <time>2019-05-04T15:32:23Z</time>
      </trkpt>
      <trkpt lat="46.76057" lon="6.3566">
        <ele>1247</ele>
        <time>2019-05-04T15:32:25Z</time>
      </trkpt>
      <trkpt lat="46.76056" lon="6.35659">
        <ele>1248</ele>
        <time>2019-05-04T15:32:26Z</time>
      </trkpt>
      <trkpt lat="46.76054" lon="6.35658">
        <ele>1248</ele>
        <time>2019-05-04T15:32:28Z</time>
      </trkpt>
      <trkpt lat="46.76053" lon="6.35657">
        <ele>1249</ele>
        <time>2019-05-04T15:32:29Z</time>
      </trkpt>
      <trkpt lat="46.76051" lon="6.35655">
        <ele>1249</ele>
        <time>2019-05-04T15:32:31Z</time>
      </trkpt>
      <trkpt lat="46.76045" lon="6.35656">
        <ele>1252</ele>
        <time>2019-05-04T15:32:36Z</time>
      </trkpt>
      <trkpt lat="46.76042" lon="6.35655">
        <ele>1253</ele>
        <time>2019-05-04T15:32:38Z</time>
      </trkpt>
      <trkpt lat="46.76041" lon="6.35653">
        <ele>1253</ele>
        <time>2019-05-04T15:32:39Z</time>
      </trkpt>
      <trkpt lat="46.76036" lon="6.3565">
        <ele>1255</ele>
        <time>2019-05-04T15:32:44Z</time>
      </trkpt>
      <trkpt lat="46.76034" lon="6.35647">
        <ele>1255</ele>
        <time>2019-05-04T15:32:46Z</time>
      </trkpt>
      <trkpt lat="46.76033" lon="6.35645">
        <ele>1255</ele>
        <time>2019-05-04T15:32:46Z</time>
      </trkpt>
      <trkpt lat="46.76028" lon="6.35643">
        <ele>1257</ele>
        <time>2019-05-04T15:32:51Z</time>
      </trkpt>
      <trkpt lat="46.76024" lon="6.35641">
        <ele>1258</ele>
        <time>2019-05-04T15:32:54Z</time>
      </trkpt>
      <trkpt lat="46.76021" lon="6.35642">
        <ele>1258</ele>
        <time>2019-05-04T15:32:56Z</time>
      </trkpt>
      <trkpt lat="46.76017" lon="6.35642">
        <ele>1259</ele>
        <time>2019-05-04T15:32:59Z</time>
      </trkpt>
      <trkpt lat="46.76016" lon="6.35643">
        <ele>1259</ele>
        <time>2019-05-04T15:33:00Z</time>
      </trkpt>
      <trkpt lat="46.76016" lon="6.35643">
        <ele>1259</ele>
        <time>2019-05-04T15:33:00Z</time>
      </trkpt>
      <trkpt lat="46.76013" lon="6.35644">
        <ele>1259</ele>
        <time>2019-05-04T15:33:02Z</time>
      </trkpt>
      <trkpt lat="46.76012" lon="6.35645">
        <ele>1259</ele>
        <time>2019-05-04T15:33:03Z</time>
      </trkpt>
      <trkpt lat="46.76011" lon="6.35647">
        <ele>1260</ele>
        <time>2019-05-04T15:33:05Z</time>
      </trkpt>
      <trkpt lat="46.76009" lon="6.35647">
        <ele>1260</ele>
        <time>2019-05-04T15:33:06Z</time>
      </trkpt>
      <trkpt lat="46.76009" lon="6.35646">
        <ele>1260</ele>
        <time>2019-05-04T15:33:06Z</time>
      </trkpt>
      <trkpt lat="46.76007" lon="6.35647">
        <ele>1260</ele>
        <time>2019-05-04T15:33:08Z</time>
      </trkpt>
      <trkpt lat="46.76006" lon="6.35653">
        <ele>1260</ele>
        <time>2019-05-04T15:33:11Z</time>
      </trkpt>
      <trkpt lat="46.76005" lon="6.35655">
        <ele>1260</ele>
        <time>2019-05-04T15:33:12Z</time>
      </trkpt>
      <trkpt lat="46.76004" lon="6.35656">
        <ele>1260</ele>
        <time>2019-05-04T15:33:13Z</time>
      </trkpt>
      <trkpt lat="46.76003" lon="6.35663">
        <ele>1260</ele>
        <time>2019-05-04T15:33:16Z</time>
      </trkpt>
      <trkpt lat="46.76001" lon="6.35667">
        <ele>1260</ele>
        <time>2019-05-04T15:33:19Z</time>
      </trkpt>
      <trkpt lat="46.76001" lon="6.35668">
        <ele>1260</ele>
        <time>2019-05-04T15:33:19Z</time>
      </trkpt>
      <trkpt lat="46.75998" lon="6.3567">
        <ele>1261</ele>
        <time>2019-05-04T15:33:22Z</time>
      </trkpt>
      <trkpt lat="46.75995" lon="6.35672">
        <ele>1261</ele>
        <time>2019-05-04T15:33:24Z</time>
      </trkpt>
      <trkpt lat="46.75993" lon="6.35674">
        <ele>1261</ele>
        <time>2019-05-04T15:33:26Z</time>
      </trkpt>
      <trkpt lat="46.7599" lon="6.3568">
        <ele>1261</ele>
        <time>2019-05-04T15:33:30Z</time>
      </trkpt>
      <trkpt lat="46.75987" lon="6.35684">
        <ele>1261</ele>
        <time>2019-05-04T15:33:33Z</time>
      </trkpt>
      <trkpt lat="46.75982" lon="6.35684">
        <ele>1262</ele>
        <time>2019-05-04T15:33:36Z</time>
      </trkpt>
      <trkpt lat="46.75971" lon="6.35676">
        <ele>1263</ele>
        <time>2019-05-04T15:33:45Z</time>
      </trkpt>
      <trkpt lat="46.75967" lon="6.35673">
        <ele>1264</ele>
        <time>2019-05-04T15:33:48Z</time>
      </trkpt>
      <trkpt lat="46.75965" lon="6.35667">
        <ele>1264</ele>
        <time>2019-05-04T15:33:52Z</time>
      </trkpt>
      <trkpt lat="46.75963" lon="6.3566">
        <ele>1265</ele>
        <time>2019-05-04T15:33:55Z</time>
      </trkpt>
      <trkpt lat="46.75963" lon="6.35658">
        <ele>1265</ele>
        <time>2019-05-04T15:33:56Z</time>
      </trkpt>
      <trkpt lat="46.75962" lon="6.35657">
        <ele>1265</ele>
        <time>2019-05-04T15:33:57Z</time>
      </trkpt>
      <trkpt lat="46.75957" lon="6.35653">
        <ele>1267</ele>
        <time>2019-05-04T15:34:02Z</time>
      </trkpt>
      <trkpt lat="46.75956" lon="6.3565">
        <ele>1267</ele>
        <time>2019-05-04T15:34:04Z</time>
      </trkpt>
      <trkpt lat="46.75954" lon="6.35644">
        <ele>1268</ele>
        <time>2019-05-04T15:34:07Z</time>
      </trkpt>
      <trkpt lat="46.75949" lon="6.35633">
        <ele>1270</ele>
        <time>2019-05-04T15:34:13Z</time>
      </trkpt>
      <trkpt lat="46.75949" lon="6.35632">
        <ele>1270</ele>
        <time>2019-05-04T15:34:14Z</time>
      </trkpt>
      <trkpt lat="46.75947" lon="6.35629">
        <ele>1270</ele>
        <time>2019-05-04T15:34:16Z</time>
      </trkpt>
      <trkpt lat="46.75946" lon="6.3563">
        <ele>1270</ele>
        <time>2019-05-04T15:34:17Z</time>
      </trkpt>
      <trkpt lat="46.75945" lon="6.35631">
        <ele>1270</ele>
        <time>2019-05-04T15:34:18Z</time>
      </trkpt>
      <trkpt lat="46.75936" lon="6.35628">
        <ele>1271</ele>
        <time>2019-05-04T15:34:25Z</time>
      </trkpt>
      <trkpt lat="46.75934" lon="6.35626">
        <ele>1272</ele>
        <time>2019-05-04T15:34:27Z</time>
      </trkpt>
      <trkpt lat="46.75932" lon="6.35621">
        <ele>1273</ele>
        <time>2019-05-04T15:34:30Z</time>
      </trkpt>
      <trkpt lat="46.7593" lon="6.35617">
        <ele>1273</ele>
        <time>2019-05-04T15:34:32Z</time>
      </trkpt>
      <trkpt lat="46.75925" lon="6.35613">
        <ele>1274</ele>
        <time>2019-05-04T15:34:36Z</time>
      </trkpt>
      <trkpt lat="46.75915" lon="6.35601">
        <ele>1277</ele>
        <time>2019-05-04T15:34:46Z</time>
      </trkpt>
      <trkpt lat="46.75914" lon="6.356">
        <ele>1277</ele>
        <time>2019-05-04T15:34:47Z</time>
      </trkpt>
      <trkpt lat="46.75907" lon="6.35599">
        <ele>1278</ele>
        <time>2019-05-04T15:34:52Z</time>
      </trkpt>
      <trkpt lat="46.75907" lon="6.35599">
        <ele>1278</ele>
        <time>2019-05-04T15:34:52Z</time>
      </trkpt>
      <trkpt lat="46.75904" lon="6.35599">
        <ele>1278</ele>
        <time>2019-05-04T15:34:54Z</time>
      </trkpt>
      <trkpt lat="46.75904" lon="6.35599">
        <ele>1278</ele>
        <time>2019-05-04T15:34:54Z</time>
      </trkpt>
      <trkpt lat="46.75899" lon="6.35592">
        <ele>1279</ele>
        <time>2019-05-04T15:34:58Z</time>
      </trkpt>
      <trkpt lat="46.75894" lon="6.35586">
        <ele>1280</ele>
        <time>2019-05-04T15:35:03Z</time>
      </trkpt>
      <trkpt lat="46.7588" lon="6.35569">
        <ele>1282</ele>
        <time>2019-05-04T15:35:17Z</time>
      </trkpt>
      <trkpt lat="46.75875" lon="6.35562">
        <ele>1284</ele>
        <time>2019-05-04T15:35:22Z</time>
      </trkpt>
      <trkpt lat="46.75874" lon="6.35561">
        <ele>1284</ele>
        <time>2019-05-04T15:35:23Z</time>
      </trkpt>
      <trkpt lat="46.75873" lon="6.35561">
        <ele>1284</ele>
        <time>2019-05-04T15:35:23Z</time>
      </trkpt>
      <trkpt lat="46.75872" lon="6.35561">
        <ele>1284</ele>
        <time>2019-05-04T15:35:24Z</time>
      </trkpt>
      <trkpt lat="46.75868" lon="6.35558">
        <ele>1285</ele>
        <time>2019-05-04T15:35:27Z</time>
      </trkpt>
      <trkpt lat="46.75865" lon="6.35555">
        <ele>1286</ele>
        <time>2019-05-04T15:35:31Z</time>
      </trkpt>
      <trkpt lat="46.7586" lon="6.35553">
        <ele>1287</ele>
        <time>2019-05-04T15:35:34Z</time>
      </trkpt>
      <trkpt lat="46.75856" lon="6.35551">
        <ele>1287</ele>
        <time>2019-05-04T15:35:37Z</time>
      </trkpt>
      <trkpt lat="46.75852" lon="6.35548">
        <ele>1288</ele>
        <time>2019-05-04T15:35:40Z</time>
      </trkpt>
      <trkpt lat="46.75846" lon="6.35543">
        <ele>1289</ele>
        <time>2019-05-04T15:35:45Z</time>
      </trkpt>
      <trkpt lat="46.75838" lon="6.35529">
        <ele>1291</ele>
        <time>2019-05-04T15:35:55Z</time>
      </trkpt>
      <trkpt lat="46.75833" lon="6.35522">
        <ele>1293</ele>
        <time>2019-05-04T15:36:00Z</time>
      </trkpt>
      <trkpt lat="46.7583" lon="6.35524">
        <ele>1293</ele>
        <time>2019-05-04T15:36:02Z</time>
      </trkpt>
      <trkpt lat="46.75828" lon="6.35527">
        <ele>1293</ele>
        <time>2019-05-04T15:36:04Z</time>
      </trkpt>
      <trkpt lat="46.75827" lon="6.35528">
        <ele>1293</ele>
        <time>2019-05-04T15:36:05Z</time>
      </trkpt>
      <trkpt lat="46.75826" lon="6.3553">
        <ele>1293</ele>
        <time>2019-05-04T15:36:06Z</time>
      </trkpt>
      <trkpt lat="46.75825" lon="6.35531">
        <ele>1293</ele>
        <time>2019-05-04T15:36:07Z</time>
      </trkpt>
      <trkpt lat="46.75824" lon="6.35531">
        <ele>1293</ele>
        <time>2019-05-04T15:36:08Z</time>
      </trkpt>
      <trkpt lat="46.75821" lon="6.35532">
        <ele>1294</ele>
        <time>2019-05-04T15:36:10Z</time>
      </trkpt>
      <trkpt lat="46.75821" lon="6.35533">
        <ele>1294</ele>
        <time>2019-05-04T15:36:11Z</time>
      </trkpt>
      <trkpt lat="46.75819" lon="6.35538">
        <ele>1293</ele>
        <time>2019-05-04T15:36:14Z</time>
      </trkpt>
      <trkpt lat="46.75818" lon="6.35547">
        <ele>1293</ele>
        <time>2019-05-04T15:36:18Z</time>
      </trkpt>
      <trkpt lat="46.7581" lon="6.35553">
        <ele>1293</ele>
        <time>2019-05-04T15:36:24Z</time>
      </trkpt>
      <trkpt lat="46.75806" lon="6.35559">
        <ele>1293</ele>
        <time>2019-05-04T15:36:28Z</time>
      </trkpt>
      <trkpt lat="46.75804" lon="6.35562">
        <ele>1293</ele>
        <time>2019-05-04T15:36:30Z</time>
      </trkpt>
      <trkpt lat="46.75803" lon="6.35564">
        <ele>1293</ele>
        <time>2019-05-04T15:36:31Z</time>
      </trkpt>
      <trkpt lat="46.75802" lon="6.35563">
        <ele>1293</ele>
        <time>2019-05-04T15:36:32Z</time>
      </trkpt>
      <trkpt lat="46.75791" lon="6.35565">
        <ele>1294</ele>
        <time>2019-05-04T15:36:40Z</time>
      </trkpt>
      <trkpt lat="46.75781" lon="6.35564">
        <ele>1296</ele>
        <time>2019-05-04T15:36:48Z</time>
      </trkpt>
      <trkpt lat="46.75769" lon="6.35556">
        <ele>1298</ele>
        <time>2019-05-04T15:36:57Z</time>
      </trkpt>
      <trkpt lat="46.75755" lon="6.35541">
        <ele>1302</ele>
        <time>2019-05-04T15:37:11Z</time>
      </trkpt>
      <trkpt lat="46.75752" lon="6.35536">
        <ele>1302</ele>
        <time>2019-05-04T15:37:13Z</time>
      </trkpt>
      <trkpt lat="46.75741" lon="6.35528">
        <ele>1305</ele>
        <time>2019-05-04T15:37:22Z</time>
      </trkpt>
      <trkpt lat="46.75729" lon="6.35517">
        <ele>1307</ele>
        <time>2019-05-04T15:37:33Z</time>
      </trkpt>
      <trkpt lat="46.75715" lon="6.35514">
        <ele>1308</ele>
        <time>2019-05-04T15:37:43Z</time>
      </trkpt>
      <trkpt lat="46.75707" lon="6.35509">
        <ele>1309</ele>
        <time>2019-05-04T15:37:49Z</time>
      </trkpt>
      <trkpt lat="46.75705" lon="6.3551">
        <ele>1309</ele>
        <time>2019-05-04T15:37:51Z</time>
      </trkpt>
      <trkpt lat="46.75695" lon="6.35512">
        <ele>1310</ele>
        <time>2019-05-04T15:37:58Z</time>
      </trkpt>
      <trkpt lat="46.75693" lon="6.35508">
        <ele>1311</ele>
        <time>2019-05-04T15:38:01Z</time>
      </trkpt>
      <trkpt lat="46.7569" lon="6.35501">
        <ele>1311</ele>
        <time>2019-05-04T15:38:04Z</time>
      </trkpt>
      <trkpt lat="46.75687" lon="6.355">
        <ele>1311</ele>
        <time>2019-05-04T15:38:07Z</time>
      </trkpt>
      <trkpt lat="46.75672" lon="6.35517">
        <ele>1312</ele>
        <time>2019-05-04T15:38:21Z</time>
      </trkpt>
      <trkpt lat="46.75665" lon="6.35524">
        <ele>1313</ele>
        <time>2019-05-04T15:38:27Z</time>
      </trkpt>
      <trkpt lat="46.75656" lon="6.35535">
        <ele>1313</ele>
        <time>2019-05-04T15:38:35Z</time>
      </trkpt>
      <trkpt lat="46.75649" lon="6.3554">
        <ele>1314</ele>
        <time>2019-05-04T15:38:41Z</time>
      </trkpt>
      <trkpt lat="46.75643" lon="6.35545">
        <ele>1314</ele>
        <time>2019-05-04T15:38:46Z</time>
      </trkpt>
      <trkpt lat="46.75636" lon="6.35547">
        <ele>1315</ele>
        <time>2019-05-04T15:38:51Z</time>
      </trkpt>
      <trkpt lat="46.75631" lon="6.35547">
        <ele>1316</ele>
        <time>2019-05-04T15:38:55Z</time>
      </trkpt>
      <trkpt lat="46.75626" lon="6.35547">
        <ele>1316</ele>
        <time>2019-05-04T15:38:59Z</time>
      </trkpt>
      <trkpt lat="46.75616" lon="6.35548">
        <ele>1317</ele>
        <time>2019-05-04T15:39:05Z</time>
      </trkpt>
      <trkpt lat="46.75615" lon="6.35549">
        <ele>1318</ele>
        <time>2019-05-04T15:39:06Z</time>
      </trkpt>
      <trkpt lat="46.75611" lon="6.35549">
        <ele>1318</ele>
        <time>2019-05-04T15:39:09Z</time>
      </trkpt>
      <trkpt lat="46.75609" lon="6.35549">
        <ele>1318</ele>
        <time>2019-05-04T15:39:11Z</time>
      </trkpt>
      <trkpt lat="46.75608" lon="6.35554">
        <ele>1319</ele>
        <time>2019-05-04T15:39:14Z</time>
      </trkpt>
      <trkpt lat="46.75608" lon="6.3556">
        <ele>1319</ele>
        <time>2019-05-04T15:39:16Z</time>
      </trkpt>
      <trkpt lat="46.75607" lon="6.35562">
        <ele>1319</ele>
        <time>2019-05-04T15:39:18Z</time>
      </trkpt>
      <trkpt lat="46.75606" lon="6.35567">
        <ele>1319</ele>
        <time>2019-05-04T15:39:20Z</time>
      </trkpt>
      <trkpt lat="46.75602" lon="6.35571">
        <ele>1320</ele>
        <time>2019-05-04T15:39:23Z</time>
      </trkpt>
      <trkpt lat="46.75599" lon="6.35572">
        <ele>1320</ele>
        <time>2019-05-04T15:39:26Z</time>
      </trkpt>
      <trkpt lat="46.75598" lon="6.35572">
        <ele>1320</ele>
        <time>2019-05-04T15:39:27Z</time>
      </trkpt>
      <trkpt lat="46.75598" lon="6.35573">
        <ele>1320</ele>
        <time>2019-05-04T15:39:27Z</time>
      </trkpt>
      <trkpt lat="46.75596" lon="6.35574">
        <ele>1320</ele>
        <time>2019-05-04T15:39:29Z</time>
      </trkpt>
      <trkpt lat="46.75594" lon="6.35576">
        <ele>1321</ele>
        <time>2019-05-04T15:39:30Z</time>
      </trkpt>
      <trkpt lat="46.75593" lon="6.35577">
        <ele>1321</ele>
        <time>2019-05-04T15:39:31Z</time>
      </trkpt>
      <trkpt lat="46.75591" lon="6.35579">
        <ele>1321</ele>
        <time>2019-05-04T15:39:33Z</time>
      </trkpt>
      <trkpt lat="46.75576" lon="6.35595">
        <ele>1323</ele>
        <time>2019-05-04T15:39:47Z</time>
      </trkpt>
      <trkpt lat="46.7557" lon="6.35598">
        <ele>1324</ele>
        <time>2019-05-04T15:39:51Z</time>
      </trkpt>
      <trkpt lat="46.75556" lon="6.35601">
        <ele>1325</ele>
        <time>2019-05-04T15:40:01Z</time>
      </trkpt>
      <trkpt lat="46.75553" lon="6.356">
        <ele>1325</ele>
        <time>2019-05-04T15:40:04Z</time>
      </trkpt>
      <trkpt lat="46.75548" lon="6.35596">
        <ele>1326</ele>
        <time>2019-05-04T15:40:08Z</time>
      </trkpt>
      <trkpt lat="46.75531" lon="6.35584">
        <ele>1327</ele>
        <time>2019-05-04T15:40:21Z</time>
      </trkpt>
      <trkpt lat="46.75528" lon="6.35582">
        <ele>1327</ele>
        <time>2019-05-04T15:40:24Z</time>
      </trkpt>
      <trkpt lat="46.75524" lon="6.35581">
        <ele>1328</ele>
        <time>2019-05-04T15:40:27Z</time>
      </trkpt>
      <trkpt lat="46.75511" lon="6.35595">
        <ele>1329</ele>
        <time>2019-05-04T15:40:39Z</time>
      </trkpt>
      <trkpt lat="46.7551" lon="6.35598">
        <ele>1329</ele>
        <time>2019-05-04T15:40:40Z</time>
      </trkpt>
      <trkpt lat="46.75499" lon="6.35604">
        <ele>1330</ele>
        <time>2019-05-04T15:40:49Z</time>
      </trkpt>
      <trkpt lat="46.75481" lon="6.35611">
        <ele>1331</ele>
        <time>2019-05-04T15:41:02Z</time>
      </trkpt>
      <trkpt lat="46.75477" lon="6.35615">
        <ele>1331</ele>
        <time>2019-05-04T15:41:06Z</time>
      </trkpt>
      <trkpt lat="46.75471" lon="6.35617">
        <ele>1331</ele>
        <time>2019-05-04T15:41:10Z</time>
      </trkpt>
      <trkpt lat="46.75454" lon="6.3563">
        <ele>1332</ele>
        <time>2019-05-04T15:41:24Z</time>
      </trkpt>
      <trkpt lat="46.75452" lon="6.35631">
        <ele>1332</ele>
        <time>2019-05-04T15:41:25Z</time>
      </trkpt>
      <trkpt lat="46.75446" lon="6.35638">
        <ele>1332</ele>
        <time>2019-05-04T15:41:31Z</time>
      </trkpt>
      <trkpt lat="46.75441" lon="6.35646">
        <ele>1334</ele>
        <time>2019-05-04T15:41:36Z</time>
      </trkpt>
      <trkpt lat="46.7544" lon="6.35647">
        <ele>1334</ele>
        <time>2019-05-04T15:41:38Z</time>
      </trkpt>
      <trkpt lat="46.75436" lon="6.35651">
        <ele>1335</ele>
        <time>2019-05-04T15:41:41Z</time>
      </trkpt>
      <trkpt lat="46.75419" lon="6.35659">
        <ele>1341</ele>
        <time>2019-05-04T15:41:54Z</time>
      </trkpt>
      <trkpt lat="46.75414" lon="6.3566">
        <ele>1342</ele>
        <time>2019-05-04T15:41:58Z</time>
      </trkpt>
      <trkpt lat="46.75412" lon="6.35662">
        <ele>1343</ele>
        <time>2019-05-04T15:42:00Z</time>
      </trkpt>
      <trkpt lat="46.7541" lon="6.35663">
        <ele>1343</ele>
        <time>2019-05-04T15:42:01Z</time>
      </trkpt>
      <trkpt lat="46.75408" lon="6.35664">
        <ele>1344</ele>
        <time>2019-05-04T15:42:03Z</time>
      </trkpt>
      <trkpt lat="46.75404" lon="6.35667">
        <ele>1345</ele>
        <time>2019-05-04T15:42:06Z</time>
      </trkpt>
      <trkpt lat="46.75398" lon="6.35667">
        <ele>1348</ele>
        <time>2019-05-04T15:42:11Z</time>
      </trkpt>
      <trkpt lat="46.75393" lon="6.35666">
        <ele>1349</ele>
        <time>2019-05-04T15:42:15Z</time>
      </trkpt>
      <trkpt lat="46.75389" lon="6.35665">
        <ele>1351</ele>
        <time>2019-05-04T15:42:18Z</time>
      </trkpt>
      <trkpt lat="46.75387" lon="6.35663">
        <ele>1351</ele>
        <time>2019-05-04T15:42:19Z</time>
      </trkpt>
      <trkpt lat="46.75385" lon="6.35663">
        <ele>1352</ele>
        <time>2019-05-04T15:42:21Z</time>
      </trkpt>
      <trkpt lat="46.75384" lon="6.35661">
        <ele>1352</ele>
        <time>2019-05-04T15:42:22Z</time>
      </trkpt>
      <trkpt lat="46.75376" lon="6.35662">
        <ele>1355</ele>
        <time>2019-05-04T15:42:28Z</time>
      </trkpt>
      <trkpt lat="46.75373" lon="6.35661">
        <ele>1356</ele>
        <time>2019-05-04T15:42:31Z</time>
      </trkpt>
      <trkpt lat="46.75369" lon="6.3566">
        <ele>1358</ele>
        <time>2019-05-04T15:42:34Z</time>
      </trkpt>
      <trkpt lat="46.75366" lon="6.35661">
        <ele>1358</ele>
        <time>2019-05-04T15:42:36Z</time>
      </trkpt>
      <trkpt lat="46.75363" lon="6.35662">
        <ele>1359</ele>
        <time>2019-05-04T15:42:38Z</time>
      </trkpt>
      <trkpt lat="46.75362" lon="6.35662">
        <ele>1360</ele>
        <time>2019-05-04T15:42:39Z</time>
      </trkpt>
      <trkpt lat="46.7536" lon="6.35662">
        <ele>1360</ele>
        <time>2019-05-04T15:42:41Z</time>
      </trkpt>
      <trkpt lat="46.75359" lon="6.35661">
        <ele>1360</ele>
        <time>2019-05-04T15:42:41Z</time>
      </trkpt>
      <trkpt lat="46.75356" lon="6.35657">
        <ele>1361</ele>
        <time>2019-05-04T15:42:45Z</time>
      </trkpt>
      <trkpt lat="46.75355" lon="6.35656">
        <ele>1361</ele>
        <time>2019-05-04T15:42:45Z</time>
      </trkpt>
      <trkpt lat="46.75354" lon="6.35652">
        <ele>1362</ele>
        <time>2019-05-04T15:42:48Z</time>
      </trkpt>
      <trkpt lat="46.75352" lon="6.35647">
        <ele>1362</ele>
        <time>2019-05-04T15:42:50Z</time>
      </trkpt>
      <trkpt lat="46.75351" lon="6.35647">
        <ele>1362</ele>
        <time>2019-05-04T15:42:51Z</time>
      </trkpt>
      <trkpt lat="46.75349" lon="6.35645">
        <ele>1363</ele>
        <time>2019-05-04T15:42:53Z</time>
      </trkpt>
      <trkpt lat="46.75348" lon="6.35642">
        <ele>1363</ele>
        <time>2019-05-04T15:42:55Z</time>
      </trkpt>
      <trkpt lat="46.75347" lon="6.35639">
        <ele>1363</ele>
        <time>2019-05-04T15:42:56Z</time>
      </trkpt>
      <trkpt lat="46.75344" lon="6.35636">
        <ele>1363</ele>
        <time>2019-05-04T15:42:59Z</time>
      </trkpt>
      <trkpt lat="46.75343" lon="6.35636">
        <ele>1364</ele>
        <time>2019-05-04T15:43:00Z</time>
      </trkpt>
      <trkpt lat="46.75341" lon="6.3564">
        <ele>1364</ele>
        <time>2019-05-04T15:43:02Z</time>
      </trkpt>
      <trkpt lat="46.75341" lon="6.35643">
        <ele>1364</ele>
        <time>2019-05-04T15:43:04Z</time>
      </trkpt>
      <trkpt lat="46.7534" lon="6.35644">
        <ele>1364</ele>
        <time>2019-05-04T15:43:05Z</time>
      </trkpt>
      <trkpt lat="46.75337" lon="6.35645">
        <ele>1365</ele>
        <time>2019-05-04T15:43:07Z</time>
      </trkpt>
      <trkpt lat="46.75333" lon="6.35647">
        <ele>1366</ele>
        <time>2019-05-04T15:43:10Z</time>
      </trkpt>
      <trkpt lat="46.75331" lon="6.3565">
        <ele>1367</ele>
        <time>2019-05-04T15:43:12Z</time>
      </trkpt>
      <trkpt lat="46.75328" lon="6.3565">
        <ele>1367</ele>
        <time>2019-05-04T15:43:14Z</time>
      </trkpt>
      <trkpt lat="46.75326" lon="6.35647">
        <ele>1368</ele>
        <time>2019-05-04T15:43:16Z</time>
      </trkpt>
      <trkpt lat="46.75324" lon="6.35643">
        <ele>1368</ele>
        <time>2019-05-04T15:43:19Z</time>
      </trkpt>
      <trkpt lat="46.75321" lon="6.35641">
        <ele>1369</ele>
        <time>2019-05-04T15:43:22Z</time>
      </trkpt>
      <trkpt lat="46.75317" lon="6.3564">
        <ele>1370</ele>
        <time>2019-05-04T15:43:24Z</time>
      </trkpt>
      <trkpt lat="46.75316" lon="6.35639">
        <ele>1370</ele>
        <time>2019-05-04T15:43:25Z</time>
      </trkpt>
      <trkpt lat="46.75315" lon="6.35641">
        <ele>1370</ele>
        <time>2019-05-04T15:43:26Z</time>
      </trkpt>
      <trkpt lat="46.75311" lon="6.35635">
        <ele>1371</ele>
        <time>2019-05-04T15:43:31Z</time>
      </trkpt>
      <trkpt lat="46.75308" lon="6.3563">
        <ele>1372</ele>
        <time>2019-05-04T15:43:34Z</time>
      </trkpt>
      <trkpt lat="46.75303" lon="6.35622">
        <ele>1373</ele>
        <time>2019-05-04T15:43:39Z</time>
      </trkpt>
      <trkpt lat="46.75302" lon="6.3562">
        <ele>1373</ele>
        <time>2019-05-04T15:43:41Z</time>
      </trkpt>
      <trkpt lat="46.75298" lon="6.35616">
        <ele>1374</ele>
        <time>2019-05-04T15:43:44Z</time>
      </trkpt>
      <trkpt lat="46.75291" lon="6.35607">
        <ele>1375</ele>
        <time>2019-05-04T15:43:51Z</time>
      </trkpt>
      <trkpt lat="46.7529" lon="6.35607">
        <ele>1376</ele>
        <time>2019-05-04T15:43:52Z</time>
      </trkpt>
      <trkpt lat="46.75286" lon="6.35603">
        <ele>1376</ele>
        <time>2019-05-04T15:43:55Z</time>
      </trkpt>
      <trkpt lat="46.75271" lon="6.35586">
        <ele>1378</ele>
        <time>2019-05-04T15:44:09Z</time>
      </trkpt>
      <trkpt lat="46.75268" lon="6.35582">
        <ele>1378</ele>
        <time>2019-05-04T15:44:12Z</time>
      </trkpt>
      <trkpt lat="46.75253" lon="6.35566">
        <ele>1379</ele>
        <time>2019-05-04T15:44:26Z</time>
      </trkpt>
      <trkpt lat="46.75238" lon="6.35549">
        <ele>1380</ele>
        <time>2019-05-04T15:44:39Z</time>
      </trkpt>
      <trkpt lat="46.75219" lon="6.35545">
        <ele>1383</ele>
        <time>2019-05-04T15:44:53Z</time>
      </trkpt>
      <trkpt lat="46.75218" lon="6.35545">
        <ele>1383</ele>
        <time>2019-05-04T15:44:54Z</time>
      </trkpt>
      <trkpt lat="46.75218" lon="6.35546">
        <ele>1383</ele>
        <time>2019-05-04T15:44:54Z</time>
      </trkpt>
      <trkpt lat="46.75217" lon="6.35546">
        <ele>1383</ele>
        <time>2019-05-04T15:44:55Z</time>
      </trkpt>
      <trkpt lat="46.75216" lon="6.35546">
        <ele>1383</ele>
        <time>2019-05-04T15:44:55Z</time>
      </trkpt>
      <trkpt lat="46.75213" lon="6.35545">
        <ele>1383</ele>
        <time>2019-05-04T15:44:58Z</time>
      </trkpt>
      <trkpt lat="46.75211" lon="6.35545">
        <ele>1383</ele>
        <time>2019-05-04T15:44:59Z</time>
      </trkpt>
      <trkpt lat="46.75208" lon="6.35543">
        <ele>1384</ele>
        <time>2019-05-04T15:45:01Z</time>
      </trkpt>
      <trkpt lat="46.75194" lon="6.3553">
        <ele>1387</ele>
        <time>2019-05-04T15:45:14Z</time>
      </trkpt>
      <trkpt lat="46.75181" lon="6.35549">
        <ele>1386</ele>
        <time>2019-05-04T15:45:27Z</time>
      </trkpt>
      <trkpt lat="46.75181" lon="6.3555">
        <ele>1386</ele>
        <time>2019-05-04T15:45:28Z</time>
      </trkpt>
      <trkpt lat="46.75173" lon="6.35552">
        <ele>1387</ele>
        <time>2019-05-04T15:45:34Z</time>
      </trkpt>
      <trkpt lat="46.75172" lon="6.35552">
        <ele>1387</ele>
        <time>2019-05-04T15:45:34Z</time>
      </trkpt>
      <trkpt lat="46.75174" lon="6.35559">
        <ele>1386</ele>
        <time>2019-05-04T15:45:38Z</time>
      </trkpt>
      <trkpt lat="46.75174" lon="6.35559">
        <ele>1386</ele>
        <time>2019-05-04T15:45:38Z</time>
      </trkpt>
      <trkpt lat="46.75178" lon="6.35557">
        <ele>1386</ele>
        <time>2019-05-04T15:45:41Z</time>
      </trkpt>
      <trkpt lat="46.75175" lon="6.35557">
        <ele>1386</ele>
        <time>2019-05-04T15:45:43Z</time>
      </trkpt>
      <trkpt lat="46.75173" lon="6.35559">
        <ele>1386</ele>
        <time>2019-05-04T15:45:45Z</time>
      </trkpt>
      <trkpt lat="46.75169" lon="6.35564">
        <ele>1386</ele>
        <time>2019-05-04T15:45:48Z</time>
      </trkpt>
      <trkpt lat="46.75165" lon="6.35574">
        <ele>1385</ele>
        <time>2019-05-04T15:45:54Z</time>
      </trkpt>
      <trkpt lat="46.75155" lon="6.35599">
        <ele>1383</ele>
        <time>2019-05-04T15:46:08Z</time>
      </trkpt>
      <trkpt lat="46.75152" lon="6.35606">
        <ele>1382</ele>
        <time>2019-05-04T15:46:13Z</time>
      </trkpt>
      <trkpt lat="46.75148" lon="6.35613">
        <ele>1381</ele>
        <time>2019-05-04T15:46:17Z</time>
      </trkpt>
      <trkpt lat="46.75135" lon="6.35632">
        <ele>1380</ele>
        <time>2019-05-04T15:46:31Z</time>
      </trkpt>
      <trkpt lat="46.7512" lon="6.35652">
        <ele>1377</ele>
        <time>2019-05-04T15:46:45Z</time>
      </trkpt>
      <trkpt lat="46.75105" lon="6.35666">
        <ele>1375</ele>
        <time>2019-05-04T15:46:59Z</time>
      </trkpt>
      <trkpt lat="46.75097" lon="6.35673">
        <ele>1373</ele>
        <time>2019-05-04T15:47:05Z</time>
      </trkpt>
      <trkpt lat="46.7508" lon="6.35687">
        <ele>1370</ele>
        <time>2019-05-04T15:47:20Z</time>
      </trkpt>
      <trkpt lat="46.75077" lon="6.35688">
        <ele>1370</ele>
        <time>2019-05-04T15:47:21Z</time>
      </trkpt>
      <trkpt lat="46.75073" lon="6.35689">
        <ele>1370</ele>
        <time>2019-05-04T15:47:25Z</time>
      </trkpt>
      <trkpt lat="46.75068" lon="6.35689">
        <ele>1369</ele>
        <time>2019-05-04T15:47:28Z</time>
      </trkpt>
      <trkpt lat="46.75065" lon="6.35689">
        <ele>1369</ele>
        <time>2019-05-04T15:47:31Z</time>
      </trkpt>
      <trkpt lat="46.75059" lon="6.35689">
        <ele>1369</ele>
        <time>2019-05-04T15:47:35Z</time>
      </trkpt>
      <trkpt lat="46.75057" lon="6.35687">
        <ele>1369</ele>
        <time>2019-05-04T15:47:36Z</time>
      </trkpt>
      <trkpt lat="46.75046" lon="6.35676">
        <ele>1369</ele>
        <time>2019-05-04T15:47:46Z</time>
      </trkpt>
      <trkpt lat="46.75038" lon="6.35669">
        <ele>1370</ele>
        <time>2019-05-04T15:47:53Z</time>
      </trkpt>
      <trkpt lat="46.75036" lon="6.35664">
        <ele>1370</ele>
        <time>2019-05-04T15:47:56Z</time>
      </trkpt>
      <trkpt lat="46.75029" lon="6.35659">
        <ele>1370</ele>
        <time>2019-05-04T15:48:01Z</time>
      </trkpt>
      <trkpt lat="46.75021" lon="6.35652">
        <ele>1369</ele>
        <time>2019-05-04T15:48:08Z</time>
      </trkpt>
      <trkpt lat="46.75018" lon="6.35651">
        <ele>1369</ele>
        <time>2019-05-04T15:48:10Z</time>
      </trkpt>
      <trkpt lat="46.75014" lon="6.35649">
        <ele>1368</ele>
        <time>2019-05-04T15:48:14Z</time>
      </trkpt>
      <trkpt lat="46.75008" lon="6.35644">
        <ele>1368</ele>
        <time>2019-05-04T15:48:18Z</time>
      </trkpt>
      <trkpt lat="46.75005" lon="6.35643">
        <ele>1368</ele>
        <time>2019-05-04T15:48:20Z</time>
      </trkpt>
      <trkpt lat="46.75002" lon="6.35641">
        <ele>1367</ele>
        <time>2019-05-04T15:48:23Z</time>
      </trkpt>
      <trkpt lat="46.74998" lon="6.35639">
        <ele>1367</ele>
        <time>2019-05-04T15:48:26Z</time>
      </trkpt>
      <trkpt lat="46.7499" lon="6.3564">
        <ele>1365</ele>
        <time>2019-05-04T15:48:32Z</time>
      </trkpt>
      <trkpt lat="46.74985" lon="6.35641">
        <ele>1365</ele>
        <time>2019-05-04T15:48:36Z</time>
      </trkpt>
      <trkpt lat="46.74972" lon="6.35644">
        <ele>1362</ele>
        <time>2019-05-04T15:48:45Z</time>
      </trkpt>
      <trkpt lat="46.74967" lon="6.3565">
        <ele>1361</ele>
        <time>2019-05-04T15:48:50Z</time>
      </trkpt>
      <trkpt lat="46.74961" lon="6.35657">
        <ele>1360</ele>
        <time>2019-05-04T15:48:55Z</time>
      </trkpt>
      <trkpt lat="46.74957" lon="6.35661">
        <ele>1359</ele>
        <time>2019-05-04T15:48:59Z</time>
      </trkpt>
      <trkpt lat="46.74952" lon="6.35663">
        <ele>1358</ele>
        <time>2019-05-04T15:49:03Z</time>
      </trkpt>
      <trkpt lat="46.74948" lon="6.35665">
        <ele>1357</ele>
        <time>2019-05-04T15:49:06Z</time>
      </trkpt>
      <trkpt lat="46.74942" lon="6.35667">
        <ele>1357</ele>
        <time>2019-05-04T15:49:11Z</time>
      </trkpt>
      <trkpt lat="46.74936" lon="6.35669">
        <ele>1356</ele>
        <time>2019-05-04T15:49:15Z</time>
      </trkpt>
      <trkpt lat="46.74932" lon="6.35672">
        <ele>1356</ele>
        <time>2019-05-04T15:49:18Z</time>
      </trkpt>
      <trkpt lat="46.74925" lon="6.35676">
        <ele>1355</ele>
        <time>2019-05-04T15:49:24Z</time>
      </trkpt>
      <trkpt lat="46.74921" lon="6.35676">
        <ele>1354</ele>
        <time>2019-05-04T15:49:27Z</time>
      </trkpt>
      <trkpt lat="46.74917" lon="6.35676">
        <ele>1354</ele>
        <time>2019-05-04T15:49:30Z</time>
      </trkpt>
      <trkpt lat="46.7491" lon="6.35675">
        <ele>1353</ele>
        <time>2019-05-04T15:49:35Z</time>
      </trkpt>
      <trkpt lat="46.74909" lon="6.35676">
        <ele>1353</ele>
        <time>2019-05-04T15:49:36Z</time>
      </trkpt>
      <trkpt lat="46.74896" lon="6.35677">
        <ele>1352</ele>
        <time>2019-05-04T15:49:45Z</time>
      </trkpt>
      <trkpt lat="46.74881" lon="6.3567">
        <ele>1351</ele>
        <time>2019-05-04T15:49:56Z</time>
      </trkpt>
      <trkpt lat="46.74866" lon="6.35687">
        <ele>1349</ele>
        <time>2019-05-04T15:50:10Z</time>
      </trkpt>
      <trkpt lat="46.74849" lon="6.357">
        <ele>1348</ele>
        <time>2019-05-04T15:50:24Z</time>
      </trkpt>
      <trkpt lat="46.74832" lon="6.35712">
        <ele>1347</ele>
        <time>2019-05-04T15:50:38Z</time>
      </trkpt>
      <trkpt lat="46.74816" lon="6.35727">
        <ele>1346</ele>
        <time>2019-05-04T15:50:52Z</time>
      </trkpt>
      <trkpt lat="46.74814" lon="6.3573">
        <ele>1346</ele>
        <time>2019-05-04T15:50:54Z</time>
      </trkpt>
      <trkpt lat="46.74799" lon="6.35746">
        <ele>1347</ele>
        <time>2019-05-04T15:51:07Z</time>
      </trkpt>
      <trkpt lat="46.74783" lon="6.35756">
        <ele>1347</ele>
        <time>2019-05-04T15:51:20Z</time>
      </trkpt>
      <trkpt lat="46.74764" lon="6.35761">
        <ele>1349</ele>
        <time>2019-05-04T15:51:34Z</time>
      </trkpt>
      <trkpt lat="46.74753" lon="6.35765">
        <ele>1350</ele>
        <time>2019-05-04T15:51:42Z</time>
      </trkpt>
      <trkpt lat="46.74738" lon="6.3577">
        <ele>1352</ele>
        <time>2019-05-04T15:51:53Z</time>
      </trkpt>
      <trkpt lat="46.74737" lon="6.35774">
        <ele>1353</ele>
        <time>2019-05-04T15:51:55Z</time>
      </trkpt>
      <trkpt lat="46.74733" lon="6.35779">
        <ele>1353</ele>
        <time>2019-05-04T15:51:59Z</time>
      </trkpt>
      <trkpt lat="46.74725" lon="6.3579">
        <ele>1354</ele>
        <time>2019-05-04T15:52:07Z</time>
      </trkpt>
      <trkpt lat="46.74718" lon="6.35795">
        <ele>1356</ele>
        <time>2019-05-04T15:52:12Z</time>
      </trkpt>
      <trkpt lat="46.74716" lon="6.35799">
        <ele>1356</ele>
        <time>2019-05-04T15:52:15Z</time>
      </trkpt>
      <trkpt lat="46.74704" lon="6.35801">
        <ele>1358</ele>
        <time>2019-05-04T15:52:24Z</time>
      </trkpt>
      <trkpt lat="46.74693" lon="6.358">
        <ele>1359</ele>
        <time>2019-05-04T15:52:32Z</time>
      </trkpt>
      <trkpt lat="46.74691" lon="6.35803">
        <ele>1360</ele>
        <time>2019-05-04T15:52:34Z</time>
      </trkpt>
      <trkpt lat="46.74684" lon="6.35816">
        <ele>1361</ele>
        <time>2019-05-04T15:52:43Z</time>
      </trkpt>
      <trkpt lat="46.74675" lon="6.35825">
        <ele>1363</ele>
        <time>2019-05-04T15:52:50Z</time>
      </trkpt>
      <trkpt lat="46.74675" lon="6.35827">
        <ele>1363</ele>
        <time>2019-05-04T15:52:51Z</time>
      </trkpt>
      <trkpt lat="46.74673" lon="6.35829">
        <ele>1364</ele>
        <time>2019-05-04T15:52:53Z</time>
      </trkpt>
      <trkpt lat="46.74669" lon="6.35835">
        <ele>1365</ele>
        <time>2019-05-04T15:52:57Z</time>
      </trkpt>
      <trkpt lat="46.74663" lon="6.3584">
        <ele>1366</ele>
        <time>2019-05-04T15:53:02Z</time>
      </trkpt>
      <trkpt lat="46.74652" lon="6.35841">
        <ele>1368</ele>
        <time>2019-05-04T15:53:10Z</time>
      </trkpt>
      <trkpt lat="46.74645" lon="6.3584">
        <ele>1369</ele>
        <time>2019-05-04T15:53:16Z</time>
      </trkpt>
      <trkpt lat="46.74643" lon="6.3584">
        <ele>1369</ele>
        <time>2019-05-04T15:53:17Z</time>
      </trkpt>
      <trkpt lat="46.74642" lon="6.35842">
        <ele>1369</ele>
        <time>2019-05-04T15:53:18Z</time>
      </trkpt>
      <trkpt lat="46.74642" lon="6.35843">
        <ele>1369</ele>
        <time>2019-05-04T15:53:19Z</time>
      </trkpt>
      <trkpt lat="46.7464" lon="6.35851">
        <ele>1370</ele>
        <time>2019-05-04T15:53:23Z</time>
      </trkpt>
      <trkpt lat="46.74639" lon="6.35858">
        <ele>1370</ele>
        <time>2019-05-04T15:53:26Z</time>
      </trkpt>
      <trkpt lat="46.7464" lon="6.35866">
        <ele>1370</ele>
        <time>2019-05-04T15:53:31Z</time>
      </trkpt>
      <trkpt lat="46.74636" lon="6.35872">
        <ele>1370</ele>
        <time>2019-05-04T15:53:35Z</time>
      </trkpt>
      <trkpt lat="46.74636" lon="6.35872">
        <ele>1370</ele>
        <time>2019-05-04T15:53:35Z</time>
      </trkpt>
      <trkpt lat="46.74633" lon="6.35874">
        <ele>1370</ele>
        <time>2019-05-04T15:53:37Z</time>
      </trkpt>
      <trkpt lat="46.74634" lon="6.35873">
        <ele>1370</ele>
        <time>2019-05-04T15:53:37Z</time>
      </trkpt>
      <trkpt lat="46.74631" lon="6.35876">
        <ele>1371</ele>
        <time>2019-05-04T15:53:40Z</time>
      </trkpt>
      <trkpt lat="46.74627" lon="6.35878">
        <ele>1371</ele>
        <time>2019-05-04T15:53:43Z</time>
      </trkpt>
      <trkpt lat="46.74623" lon="6.35882">
        <ele>1371</ele>
        <time>2019-05-04T15:53:46Z</time>
      </trkpt>
      <trkpt lat="46.74616" lon="6.35887">
        <ele>1372</ele>
        <time>2019-05-04T15:53:52Z</time>
      </trkpt>
      <trkpt lat="46.74615" lon="6.35888">
        <ele>1372</ele>
        <time>2019-05-04T15:53:53Z</time>
      </trkpt>
      <trkpt lat="46.74607" lon="6.3589">
        <ele>1372</ele>
        <time>2019-05-04T15:53:58Z</time>
      </trkpt>
      <trkpt lat="46.74601" lon="6.35897">
        <ele>1372</ele>
        <time>2019-05-04T15:54:04Z</time>
      </trkpt>
      <trkpt lat="46.74593" lon="6.35903">
        <ele>1371</ele>
        <time>2019-05-04T15:54:10Z</time>
      </trkpt>
      <trkpt lat="46.74591" lon="6.35901">
        <ele>1371</ele>
        <time>2019-05-04T15:54:12Z</time>
      </trkpt>
      <trkpt lat="46.74587" lon="6.35897">
        <ele>1371</ele>
        <time>2019-05-04T15:54:16Z</time>
      </trkpt>
      <trkpt lat="46.74585" lon="6.35895">
        <ele>1372</ele>
        <time>2019-05-04T15:54:18Z</time>
      </trkpt>
      <trkpt lat="46.74581" lon="6.35891">
        <ele>1372</ele>
        <time>2019-05-04T15:54:21Z</time>
      </trkpt>
      <trkpt lat="46.74572" lon="6.35887">
        <ele>1373</ele>
        <time>2019-05-04T15:54:28Z</time>
      </trkpt>
      <trkpt lat="46.7457" lon="6.35885">
        <ele>1374</ele>
        <time>2019-05-04T15:54:30Z</time>
      </trkpt>
      <trkpt lat="46.74567" lon="6.35878">
        <ele>1375</ele>
        <time>2019-05-04T15:54:34Z</time>
      </trkpt>
      <trkpt lat="46.74566" lon="6.35876">
        <ele>1376</ele>
        <time>2019-05-04T15:54:35Z</time>
      </trkpt>
      <trkpt lat="46.74564" lon="6.35872">
        <ele>1377</ele>
        <time>2019-05-04T15:54:38Z</time>
      </trkpt>
      <trkpt lat="46.74561" lon="6.3587">
        <ele>1377</ele>
        <time>2019-05-04T15:54:40Z</time>
      </trkpt>
      <trkpt lat="46.7456" lon="6.35869">
        <ele>1377</ele>
        <time>2019-05-04T15:54:41Z</time>
      </trkpt>
      <trkpt lat="46.74559" lon="6.35868">
        <ele>1378</ele>
        <time>2019-05-04T15:54:42Z</time>
      </trkpt>
      <trkpt lat="46.74558" lon="6.35866">
        <ele>1378</ele>
        <time>2019-05-04T15:54:43Z</time>
      </trkpt>
      <trkpt lat="46.74551" lon="6.35864">
        <ele>1379</ele>
        <time>2019-05-04T15:54:49Z</time>
      </trkpt>
      <trkpt lat="46.74549" lon="6.35862">
        <ele>1380</ele>
        <time>2019-05-04T15:54:50Z</time>
      </trkpt>
      <trkpt lat="46.74546" lon="6.35861">
        <ele>1381</ele>
        <time>2019-05-04T15:54:53Z</time>
      </trkpt>
      <trkpt lat="46.74539" lon="6.35855">
        <ele>1383</ele>
        <time>2019-05-04T15:54:59Z</time>
      </trkpt>
      <trkpt lat="46.74537" lon="6.35854">
        <ele>1383</ele>
        <time>2019-05-04T15:55:00Z</time>
      </trkpt>
      <trkpt lat="46.74534" lon="6.3585">
        <ele>1383</ele>
        <time>2019-05-04T15:55:03Z</time>
      </trkpt>
      <trkpt lat="46.74532" lon="6.35848">
        <ele>1383</ele>
        <time>2019-05-04T15:55:05Z</time>
      </trkpt>
      <trkpt lat="46.74526" lon="6.35842">
        <ele>1383</ele>
        <time>2019-05-04T15:55:10Z</time>
      </trkpt>
      <trkpt lat="46.7452" lon="6.35838">
        <ele>1383</ele>
        <time>2019-05-04T15:55:14Z</time>
      </trkpt>
      <trkpt lat="46.7452" lon="6.35836">
        <ele>1383</ele>
        <time>2019-05-04T15:55:16Z</time>
      </trkpt>
      <trkpt lat="46.74517" lon="6.35831">
        <ele>1382</ele>
        <time>2019-05-04T15:55:19Z</time>
      </trkpt>
      <trkpt lat="46.74515" lon="6.35829">
        <ele>1382</ele>
        <time>2019-05-04T15:55:21Z</time>
      </trkpt>
      <trkpt lat="46.74513" lon="6.35828">
        <ele>1382</ele>
        <time>2019-05-04T15:55:22Z</time>
      </trkpt>
      <trkpt lat="46.74509" lon="6.35822">
        <ele>1382</ele>
        <time>2019-05-04T15:55:26Z</time>
      </trkpt>
      <trkpt lat="46.74505" lon="6.35816">
        <ele>1382</ele>
        <time>2019-05-04T15:55:30Z</time>
      </trkpt>
      <trkpt lat="46.74501" lon="6.35816">
        <ele>1382</ele>
        <time>2019-05-04T15:55:34Z</time>
      </trkpt>
      <trkpt lat="46.745" lon="6.35816">
        <ele>1382</ele>
        <time>2019-05-04T15:55:34Z</time>
      </trkpt>
      <trkpt lat="46.74498" lon="6.35811">
        <ele>1382</ele>
        <time>2019-05-04T15:55:37Z</time>
      </trkpt>
      <trkpt lat="46.74497" lon="6.35809">
        <ele>1382</ele>
        <time>2019-05-04T15:55:38Z</time>
      </trkpt>
      <trkpt lat="46.74492" lon="6.35803">
        <ele>1382</ele>
        <time>2019-05-04T15:55:43Z</time>
      </trkpt>
      <trkpt lat="46.74478" lon="6.35796">
        <ele>1383</ele>
        <time>2019-05-04T15:55:54Z</time>
      </trkpt>
      <trkpt lat="46.74474" lon="6.358">
        <ele>1383</ele>
        <time>2019-05-04T15:55:58Z</time>
      </trkpt>
      <trkpt lat="46.74468" lon="6.35808">
        <ele>1382</ele>
        <time>2019-05-04T15:56:03Z</time>
      </trkpt>
      <trkpt lat="46.74467" lon="6.35811">
        <ele>1382</ele>
        <time>2019-05-04T15:56:05Z</time>
      </trkpt>
      <trkpt lat="46.74456" lon="6.35809">
        <ele>1382</ele>
        <time>2019-05-04T15:56:14Z</time>
      </trkpt>
      <trkpt lat="46.74455" lon="6.35808">
        <ele>1382</ele>
        <time>2019-05-04T15:56:15Z</time>
      </trkpt>
      <trkpt lat="46.7445" lon="6.35804">
        <ele>1383</ele>
        <time>2019-05-04T15:56:19Z</time>
      </trkpt>
      <trkpt lat="46.74447" lon="6.35802">
        <ele>1383</ele>
        <time>2019-05-04T15:56:21Z</time>
      </trkpt>
      <trkpt lat="46.74443" lon="6.35801">
        <ele>1383</ele>
        <time>2019-05-04T15:56:24Z</time>
      </trkpt>
      <trkpt lat="46.74441" lon="6.35801">
        <ele>1382</ele>
        <time>2019-05-04T15:56:26Z</time>
      </trkpt>
      <trkpt lat="46.7444" lon="6.35801">
        <ele>1382</ele>
        <time>2019-05-04T15:56:26Z</time>
      </trkpt>
      <trkpt lat="46.74438" lon="6.35801">
        <ele>1382</ele>
        <time>2019-05-04T15:56:28Z</time>
      </trkpt>
      <trkpt lat="46.74428" lon="6.35791">
        <ele>1382</ele>
        <time>2019-05-04T15:56:37Z</time>
      </trkpt>
      <trkpt lat="46.74421" lon="6.35785">
        <ele>1383</ele>
        <time>2019-05-04T15:56:42Z</time>
      </trkpt>
      <trkpt lat="46.74419" lon="6.35783">
        <ele>1383</ele>
        <time>2019-05-04T15:56:44Z</time>
      </trkpt>
      <trkpt lat="46.74416" lon="6.35782">
        <ele>1383</ele>
        <time>2019-05-04T15:56:46Z</time>
      </trkpt>
      <trkpt lat="46.74405" lon="6.35776">
        <ele>1384</ele>
        <time>2019-05-04T15:56:55Z</time>
      </trkpt>
      <trkpt lat="46.74389" lon="6.3576">
        <ele>1385</ele>
        <time>2019-05-04T15:57:09Z</time>
      </trkpt>
      <trkpt lat="46.74375" lon="6.35745">
        <ele>1385</ele>
        <time>2019-05-04T15:57:22Z</time>
      </trkpt>
      <trkpt lat="46.74362" lon="6.35747">
        <ele>1384</ele>
        <time>2019-05-04T15:57:31Z</time>
      </trkpt>
      <trkpt lat="46.74344" lon="6.35745">
        <ele>1379</ele>
        <time>2019-05-04T15:57:44Z</time>
      </trkpt>
      <trkpt lat="46.74334" lon="6.35732">
        <ele>1378</ele>
        <time>2019-05-04T15:57:54Z</time>
      </trkpt>
      <trkpt lat="46.74325" lon="6.35723">
        <ele>1378</ele>
        <time>2019-05-04T15:58:02Z</time>
      </trkpt>
      <trkpt lat="46.74309" lon="6.35706">
        <ele>1380</ele>
        <time>2019-05-04T15:58:17Z</time>
      </trkpt>
      <trkpt lat="46.74307" lon="6.35704">
        <ele>1380</ele>
        <time>2019-05-04T15:58:18Z</time>
      </trkpt>
      <trkpt lat="46.74301" lon="6.35699">
        <ele>1381</ele>
        <time>2019-05-04T15:58:23Z</time>
      </trkpt>
      <trkpt lat="46.74298" lon="6.35695">
        <ele>1383</ele>
        <time>2019-05-04T15:58:26Z</time>
      </trkpt>
      <trkpt lat="46.74295" lon="6.3569">
        <ele>1385</ele>
        <time>2019-05-04T15:58:30Z</time>
      </trkpt>
      <trkpt lat="46.74285" lon="6.35672">
        <ele>1386</ele>
        <time>2019-05-04T15:58:41Z</time>
      </trkpt>
      <trkpt lat="46.74275" lon="6.35649">
        <ele>1388</ele>
        <time>2019-05-04T15:58:55Z</time>
      </trkpt>
      <trkpt lat="46.74274" lon="6.35646">
        <ele>1388</ele>
        <time>2019-05-04T15:58:57Z</time>
      </trkpt>
      <trkpt lat="46.74274" lon="6.35643">
        <ele>1389</ele>
        <time>2019-05-04T15:58:58Z</time>
      </trkpt>
      <trkpt lat="46.7427" lon="6.35639">
        <ele>1389</ele>
        <time>2019-05-04T15:59:01Z</time>
      </trkpt>
      <trkpt lat="46.74269" lon="6.35637">
        <ele>1389</ele>
        <time>2019-05-04T15:59:03Z</time>
      </trkpt>
      <trkpt lat="46.74267" lon="6.35632">
        <ele>1389</ele>
        <time>2019-05-04T15:59:05Z</time>
      </trkpt>
      <trkpt lat="46.74265" lon="6.35629">
        <ele>1390</ele>
        <time>2019-05-04T15:59:08Z</time>
      </trkpt>
      <trkpt lat="46.74263" lon="6.35626">
        <ele>1390</ele>
        <time>2019-05-04T15:59:10Z</time>
      </trkpt>
      <trkpt lat="46.74262" lon="6.35624">
        <ele>1391</ele>
        <time>2019-05-04T15:59:11Z</time>
      </trkpt>
      <trkpt lat="46.74258" lon="6.35617">
        <ele>1392</ele>
        <time>2019-05-04T15:59:16Z</time>
      </trkpt>
      <trkpt lat="46.74247" lon="6.35609">
        <ele>1394</ele>
        <time>2019-05-04T15:59:25Z</time>
      </trkpt>
      <trkpt lat="46.7424" lon="6.35605">
        <ele>1395</ele>
        <time>2019-05-04T15:59:30Z</time>
      </trkpt>
      <trkpt lat="46.74223" lon="6.35608">
        <ele>1394</ele>
        <time>2019-05-04T15:59:43Z</time>
      </trkpt>
      <trkpt lat="46.74216" lon="6.35612">
        <ele>1393</ele>
        <time>2019-05-04T15:59:48Z</time>
      </trkpt>
      <trkpt lat="46.74218" lon="6.35615">
        <ele>1391</ele>
        <time>2019-05-04T15:59:51Z</time>
      </trkpt>
      <trkpt lat="46.74216" lon="6.35614">
        <ele>1391</ele>
        <time>2019-05-04T15:59:52Z</time>
      </trkpt>
      <trkpt lat="46.74212" lon="6.35612">
        <ele>1393</ele>
        <time>2019-05-04T15:59:56Z</time>
      </trkpt>
      <trkpt lat="46.7421" lon="6.35612">
        <ele>1393</ele>
        <time>2019-05-04T15:59:57Z</time>
      </trkpt>
      <trkpt lat="46.74203" lon="6.35612">
        <ele>1392</ele>
        <time>2019-05-04T16:00:02Z</time>
      </trkpt>
      <trkpt lat="46.74197" lon="6.35614">
        <ele>1391</ele>
        <time>2019-05-04T16:00:07Z</time>
      </trkpt>
      <trkpt lat="46.74177" lon="6.35613">
        <ele>1389</ele>
        <time>2019-05-04T16:00:21Z</time>
      </trkpt>
      <trkpt lat="46.74168" lon="6.35602">
        <ele>1394</ele>
        <time>2019-05-04T16:00:31Z</time>
      </trkpt>
      <trkpt lat="46.74155" lon="6.35585">
        <ele>1394</ele>
        <time>2019-05-04T16:00:43Z</time>
      </trkpt>
      <trkpt lat="46.74147" lon="6.35578">
        <ele>1395</ele>
        <time>2019-05-04T16:00:49Z</time>
      </trkpt>
      <trkpt lat="46.7414" lon="6.35569">
        <ele>1396</ele>
        <time>2019-05-04T16:00:57Z</time>
      </trkpt>
      <trkpt lat="46.74123" lon="6.35555">
        <ele>1397</ele>
        <time>2019-05-04T16:01:11Z</time>
      </trkpt>
      <trkpt lat="46.7412" lon="6.35553">
        <ele>1398</ele>
        <time>2019-05-04T16:01:13Z</time>
      </trkpt>
      <trkpt lat="46.74102" lon="6.35548">
        <ele>1398</ele>
        <time>2019-05-04T16:01:26Z</time>
      </trkpt>
      <trkpt lat="46.74096" lon="6.35548">
        <ele>1398</ele>
        <time>2019-05-04T16:01:31Z</time>
      </trkpt>
      <trkpt lat="46.74079" lon="6.35545">
        <ele>1398</ele>
        <time>2019-05-04T16:01:43Z</time>
      </trkpt>
      <trkpt lat="46.74067" lon="6.3554">
        <ele>1399</ele>
        <time>2019-05-04T16:01:52Z</time>
      </trkpt>
      <trkpt lat="46.74048" lon="6.35538">
        <ele>1399</ele>
        <time>2019-05-04T16:02:05Z</time>
      </trkpt>
      <trkpt lat="46.74041" lon="6.3554">
        <ele>1399</ele>
        <time>2019-05-04T16:02:11Z</time>
      </trkpt>
      <trkpt lat="46.74035" lon="6.3554">
        <ele>1399</ele>
        <time>2019-05-04T16:02:15Z</time>
      </trkpt>
      <trkpt lat="46.74021" lon="6.35543">
        <ele>1396</ele>
        <time>2019-05-04T16:02:26Z</time>
      </trkpt>
      <trkpt lat="46.74008" lon="6.35545">
        <ele>1393</ele>
        <time>2019-05-04T16:02:35Z</time>
      </trkpt>
      <trkpt lat="46.73995" lon="6.35544">
        <ele>1391</ele>
        <time>2019-05-04T16:02:44Z</time>
      </trkpt>
      <trkpt lat="46.73978" lon="6.35533">
        <ele>1395</ele>
        <time>2019-05-04T16:02:59Z</time>
      </trkpt>
      <trkpt lat="46.73961" lon="6.35516">
        <ele>1402</ele>
        <time>2019-05-04T16:03:14Z</time>
      </trkpt>
      <trkpt lat="46.73953" lon="6.35505">
        <ele>1402</ele>
        <time>2019-05-04T16:03:22Z</time>
      </trkpt>
      <trkpt lat="46.7394" lon="6.35491">
        <ele>1403</ele>
        <time>2019-05-04T16:03:34Z</time>
      </trkpt>
      <trkpt lat="46.73936" lon="6.35486">
        <ele>1404</ele>
        <time>2019-05-04T16:03:37Z</time>
      </trkpt>
      <trkpt lat="46.7392" lon="6.35469">
        <ele>1408</ele>
        <time>2019-05-04T16:03:52Z</time>
      </trkpt>
      <trkpt lat="46.73918" lon="6.35467">
        <ele>1408</ele>
        <time>2019-05-04T16:03:54Z</time>
      </trkpt>
      <trkpt lat="46.73905" lon="6.35447">
        <ele>1411</ele>
        <time>2019-05-04T16:04:07Z</time>
      </trkpt>
      <trkpt lat="46.73899" lon="6.35446">
        <ele>1412</ele>
        <time>2019-05-04T16:04:12Z</time>
      </trkpt>
      <trkpt lat="46.73892" lon="6.3545">
        <ele>1413</ele>
        <time>2019-05-04T16:04:17Z</time>
      </trkpt>
      <trkpt lat="46.73889" lon="6.35451">
        <ele>1414</ele>
        <time>2019-05-04T16:04:20Z</time>
      </trkpt>
      <trkpt lat="46.73888" lon="6.35451">
        <ele>1414</ele>
        <time>2019-05-04T16:04:21Z</time>
      </trkpt>
      <trkpt lat="46.73885" lon="6.35453">
        <ele>1414</ele>
        <time>2019-05-04T16:04:23Z</time>
      </trkpt>
      <trkpt lat="46.73877" lon="6.35457">
        <ele>1415</ele>
        <time>2019-05-04T16:04:29Z</time>
      </trkpt>
      <trkpt lat="46.73874" lon="6.35458">
        <ele>1416</ele>
        <time>2019-05-04T16:04:31Z</time>
      </trkpt>
      <trkpt lat="46.73867" lon="6.35456">
        <ele>1417</ele>
        <time>2019-05-04T16:04:37Z</time>
      </trkpt>
      <trkpt lat="46.73859" lon="6.35456">
        <ele>1418</ele>
        <time>2019-05-04T16:04:42Z</time>
      </trkpt>
      <trkpt lat="46.73855" lon="6.35454">
        <ele>1418</ele>
        <time>2019-05-04T16:04:45Z</time>
      </trkpt>
      <trkpt lat="46.73847" lon="6.35452">
        <ele>1418</ele>
        <time>2019-05-04T16:04:51Z</time>
      </trkpt>
      <trkpt lat="46.73829" lon="6.35449">
        <ele>1418</ele>
        <time>2019-05-04T16:05:04Z</time>
      </trkpt>
      <trkpt lat="46.73827" lon="6.35448">
        <ele>1418</ele>
        <time>2019-05-04T16:05:06Z</time>
      </trkpt>
      <trkpt lat="46.73815" lon="6.35446">
        <ele>1419</ele>
        <time>2019-05-04T16:05:14Z</time>
      </trkpt>
      <trkpt lat="46.73799" lon="6.35442">
        <ele>1420</ele>
        <time>2019-05-04T16:05:26Z</time>
      </trkpt>
      <trkpt lat="46.73783" lon="6.35444">
        <ele>1419</ele>
        <time>2019-05-04T16:05:37Z</time>
      </trkpt>
      <trkpt lat="46.73774" lon="6.35449">
        <ele>1418</ele>
        <time>2019-05-04T16:05:45Z</time>
      </trkpt>
      <trkpt lat="46.73759" lon="6.35455">
        <ele>1415</ele>
        <time>2019-05-04T16:05:56Z</time>
      </trkpt>
      <trkpt lat="46.73757" lon="6.35456">
        <ele>1415</ele>
        <time>2019-05-04T16:05:58Z</time>
      </trkpt>
      <trkpt lat="46.73753" lon="6.35456">
        <ele>1415</ele>
        <time>2019-05-04T16:06:00Z</time>
      </trkpt>
      <trkpt lat="46.73735" lon="6.3545">
        <ele>1417</ele>
        <time>2019-05-04T16:06:14Z</time>
      </trkpt>
      <trkpt lat="46.73726" lon="6.35444">
        <ele>1419</ele>
        <time>2019-05-04T16:06:21Z</time>
      </trkpt>
      <trkpt lat="46.73709" lon="6.3543">
        <ele>1420</ele>
        <time>2019-05-04T16:06:35Z</time>
      </trkpt>
      <trkpt lat="46.73701" lon="6.35419">
        <ele>1419</ele>
        <time>2019-05-04T16:06:44Z</time>
      </trkpt>
      <trkpt lat="46.73693" lon="6.35407">
        <ele>1418</ele>
        <time>2019-05-04T16:06:52Z</time>
      </trkpt>
      <trkpt lat="46.73691" lon="6.35406">
        <ele>1418</ele>
        <time>2019-05-04T16:06:53Z</time>
      </trkpt>
      <trkpt lat="46.7369" lon="6.35406">
        <ele>1418</ele>
        <time>2019-05-04T16:06:54Z</time>
      </trkpt>
      <trkpt lat="46.73681" lon="6.35399">
        <ele>1418</ele>
        <time>2019-05-04T16:07:01Z</time>
      </trkpt>
      <trkpt lat="46.73677" lon="6.35397">
        <ele>1418</ele>
        <time>2019-05-04T16:07:05Z</time>
      </trkpt>
      <trkpt lat="46.73669" lon="6.35396">
        <ele>1419</ele>
        <time>2019-05-04T16:07:10Z</time>
      </trkpt>
      <trkpt lat="46.7365" lon="6.35393">
        <ele>1419</ele>
        <time>2019-05-04T16:07:24Z</time>
      </trkpt>
      <trkpt lat="46.73632" lon="6.35384">
        <ele>1419</ele>
        <time>2019-05-04T16:07:38Z</time>
      </trkpt>
      <trkpt lat="46.73616" lon="6.35373">
        <ele>1419</ele>
        <time>2019-05-04T16:07:51Z</time>
      </trkpt>
      <trkpt lat="46.73601" lon="6.35357">
        <ele>1418</ele>
        <time>2019-05-04T16:08:04Z</time>
      </trkpt>
      <trkpt lat="46.73593" lon="6.35351">
        <ele>1418</ele>
        <time>2019-05-04T16:08:11Z</time>
      </trkpt>
      <trkpt lat="46.73578" lon="6.35342">
        <ele>1417</ele>
        <time>2019-05-04T16:08:22Z</time>
      </trkpt>
      <trkpt lat="46.73575" lon="6.3534">
        <ele>1417</ele>
        <time>2019-05-04T16:08:25Z</time>
      </trkpt>
      <trkpt lat="46.73574" lon="6.35339">
        <ele>1417</ele>
        <time>2019-05-04T16:08:25Z</time>
      </trkpt>
      <trkpt lat="46.73572" lon="6.35337">
        <ele>1416</ele>
        <time>2019-05-04T16:08:27Z</time>
      </trkpt>
      <trkpt lat="46.73568" lon="6.35333">
        <ele>1416</ele>
        <time>2019-05-04T16:08:31Z</time>
      </trkpt>
      <trkpt lat="46.73565" lon="6.35335">
        <ele>1416</ele>
        <time>2019-05-04T16:08:34Z</time>
      </trkpt>
      <trkpt lat="46.73564" lon="6.35337">
        <ele>1416</ele>
        <time>2019-05-04T16:08:34Z</time>
      </trkpt>
      <trkpt lat="46.73564" lon="6.35338">
        <ele>1416</ele>
        <time>2019-05-04T16:08:35Z</time>
      </trkpt>
      <trkpt lat="46.73563" lon="6.35342">
        <ele>1417</ele>
        <time>2019-05-04T16:08:37Z</time>
      </trkpt>
      <trkpt lat="46.73563" lon="6.35344">
        <ele>1417</ele>
        <time>2019-05-04T16:08:38Z</time>
      </trkpt>
      <trkpt lat="46.73562" lon="6.35341">
        <ele>1417</ele>
        <time>2019-05-04T16:08:40Z</time>
      </trkpt>
      <trkpt lat="46.73562" lon="6.35346">
        <ele>1417</ele>
        <time>2019-05-04T16:08:42Z</time>
      </trkpt>
      <trkpt lat="46.73559" lon="6.35351">
        <ele>1418</ele>
        <time>2019-05-04T16:08:45Z</time>
      </trkpt>
      <trkpt lat="46.73558" lon="6.35352">
        <ele>1418</ele>
        <time>2019-05-04T16:08:47Z</time>
      </trkpt>
      <trkpt lat="46.73549" lon="6.35355">
        <ele>1418</ele>
        <time>2019-05-04T16:08:53Z</time>
      </trkpt>
      <trkpt lat="46.73546" lon="6.35355">
        <ele>1418</ele>
        <time>2019-05-04T16:08:55Z</time>
      </trkpt>
      <trkpt lat="46.73528" lon="6.35363">
        <ele>1419</ele>
        <time>2019-05-04T16:09:09Z</time>
      </trkpt>
      <trkpt lat="46.73523" lon="6.35369">
        <ele>1419</ele>
        <time>2019-05-04T16:09:13Z</time>
      </trkpt>
      <trkpt lat="46.73517" lon="6.35374">
        <ele>1420</ele>
        <time>2019-05-04T16:09:18Z</time>
      </trkpt>
      <trkpt lat="46.73514" lon="6.35395">
        <ele>1421</ele>
        <time>2019-05-04T16:09:29Z</time>
      </trkpt>
      <trkpt lat="46.73513" lon="6.35401">
        <ele>1422</ele>
        <time>2019-05-04T16:09:32Z</time>
      </trkpt>
      <trkpt lat="46.73509" lon="6.35422">
        <ele>1424</ele>
        <time>2019-05-04T16:09:43Z</time>
      </trkpt>
      <trkpt lat="46.73506" lon="6.35434">
        <ele>1425</ele>
        <time>2019-05-04T16:09:49Z</time>
      </trkpt>
      <trkpt lat="46.73506" lon="6.35441">
        <ele>1426</ele>
        <time>2019-05-04T16:09:53Z</time>
      </trkpt>
      <trkpt lat="46.73505" lon="6.35444">
        <ele>1426</ele>
        <time>2019-05-04T16:09:55Z</time>
      </trkpt>
      <trkpt lat="46.73503" lon="6.35449">
        <ele>1426</ele>
        <time>2019-05-04T16:09:57Z</time>
      </trkpt>
      <trkpt lat="46.73499" lon="6.35457">
        <ele>1426</ele>
        <time>2019-05-04T16:10:02Z</time>
      </trkpt>
      <trkpt lat="46.73499" lon="6.35458">
        <ele>1426</ele>
        <time>2019-05-04T16:10:02Z</time>
      </trkpt>
      <trkpt lat="46.73499" lon="6.35459">
        <ele>1427</ele>
        <time>2019-05-04T16:10:04Z</time>
      </trkpt>
      <trkpt lat="46.73498" lon="6.35461">
        <ele>1427</ele>
        <time>2019-05-04T16:10:05Z</time>
      </trkpt>
      <trkpt lat="46.73493" lon="6.35459">
        <ele>1427</ele>
        <time>2019-05-04T16:10:08Z</time>
      </trkpt>
      <trkpt lat="46.7349" lon="6.35458">
        <ele>1427</ele>
        <time>2019-05-04T16:10:10Z</time>
      </trkpt>
      <trkpt lat="46.73487" lon="6.35456">
        <ele>1427</ele>
        <time>2019-05-04T16:10:13Z</time>
      </trkpt>
      <trkpt lat="46.73473" lon="6.35453">
        <ele>1427</ele>
        <time>2019-05-04T16:10:23Z</time>
      </trkpt>
      <trkpt lat="46.7347" lon="6.35456">
        <ele>1428</ele>
        <time>2019-05-04T16:10:26Z</time>
      </trkpt>
      <trkpt lat="46.73467" lon="6.35459">
        <ele>1428</ele>
        <time>2019-05-04T16:10:28Z</time>
      </trkpt>
      <trkpt lat="46.73466" lon="6.35461">
        <ele>1429</ele>
        <time>2019-05-04T16:10:30Z</time>
      </trkpt>
      <trkpt lat="46.73464" lon="6.35464">
        <ele>1429</ele>
        <time>2019-05-04T16:10:32Z</time>
      </trkpt>
      <trkpt lat="46.73463" lon="6.35467">
        <ele>1429</ele>
        <time>2019-05-04T16:10:33Z</time>
      </trkpt>
      <trkpt lat="46.73462" lon="6.35469">
        <ele>1429</ele>
        <time>2019-05-04T16:10:35Z</time>
      </trkpt>
      <trkpt lat="46.73459" lon="6.35473">
        <ele>1430</ele>
        <time>2019-05-04T16:10:38Z</time>
      </trkpt>
      <trkpt lat="46.73456" lon="6.3548">
        <ele>1431</ele>
        <time>2019-05-04T16:10:41Z</time>
      </trkpt>
      <trkpt lat="46.73451" lon="6.35484">
        <ele>1432</ele>
        <time>2019-05-04T16:10:46Z</time>
      </trkpt>
      <trkpt lat="46.73448" lon="6.35492">
        <ele>1433</ele>
        <time>2019-05-04T16:10:50Z</time>
      </trkpt>
      <trkpt lat="46.73439" lon="6.35507">
        <ele>1435</ele>
        <time>2019-05-04T16:11:00Z</time>
      </trkpt>
      <trkpt lat="46.73437" lon="6.35512">
        <ele>1436</ele>
        <time>2019-05-04T16:11:03Z</time>
      </trkpt>
      <trkpt lat="46.73431" lon="6.35523">
        <ele>1437</ele>
        <time>2019-05-04T16:11:10Z</time>
      </trkpt>
      <trkpt lat="46.73423" lon="6.35535">
        <ele>1436</ele>
        <time>2019-05-04T16:11:19Z</time>
      </trkpt>
      <trkpt lat="46.73419" lon="6.35542">
        <ele>1436</ele>
        <time>2019-05-04T16:11:23Z</time>
      </trkpt>
      <trkpt lat="46.73414" lon="6.35548">
        <ele>1436</ele>
        <time>2019-05-04T16:11:28Z</time>
      </trkpt>
      <trkpt lat="46.73411" lon="6.35554">
        <ele>1436</ele>
        <time>2019-05-04T16:11:31Z</time>
      </trkpt>
      <trkpt lat="46.73411" lon="6.35555">
        <ele>1436</ele>
        <time>2019-05-04T16:11:32Z</time>
      </trkpt>
      <trkpt lat="46.7341" lon="6.35558">
        <ele>1436</ele>
        <time>2019-05-04T16:11:33Z</time>
      </trkpt>
      <trkpt lat="46.73409" lon="6.35561">
        <ele>1436</ele>
        <time>2019-05-04T16:11:35Z</time>
      </trkpt>
      <trkpt lat="46.73404" lon="6.35569">
        <ele>1436</ele>
        <time>2019-05-04T16:11:40Z</time>
      </trkpt>
      <trkpt lat="46.73401" lon="6.35577">
        <ele>1437</ele>
        <time>2019-05-04T16:11:45Z</time>
      </trkpt>
      <trkpt lat="46.73397" lon="6.35582">
        <ele>1437</ele>
        <time>2019-05-04T16:11:49Z</time>
      </trkpt>
      <trkpt lat="46.7339" lon="6.35591">
        <ele>1438</ele>
        <time>2019-05-04T16:11:56Z</time>
      </trkpt>
      <trkpt lat="46.73376" lon="6.35609">
        <ele>1441</ele>
        <time>2019-05-04T16:12:09Z</time>
      </trkpt>
      <trkpt lat="46.7337" lon="6.35618">
        <ele>1442</ele>
        <time>2019-05-04T16:12:15Z</time>
      </trkpt>
      <trkpt lat="46.73366" lon="6.35624">
        <ele>1443</ele>
        <time>2019-05-04T16:12:19Z</time>
      </trkpt>
      <trkpt lat="46.73364" lon="6.3563">
        <ele>1443</ele>
        <time>2019-05-04T16:12:23Z</time>
      </trkpt>
      <trkpt lat="46.73362" lon="6.35639">
        <ele>1444</ele>
        <time>2019-05-04T16:12:28Z</time>
      </trkpt>
      <trkpt lat="46.73361" lon="6.35644">
        <ele>1444</ele>
        <time>2019-05-04T16:12:30Z</time>
      </trkpt>
      <trkpt lat="46.73351" lon="6.35667">
        <ele>1443</ele>
        <time>2019-05-04T16:12:44Z</time>
      </trkpt>
      <trkpt lat="46.73339" lon="6.35671">
        <ele>1442</ele>
        <time>2019-05-04T16:12:53Z</time>
      </trkpt>
      <trkpt lat="46.73321" lon="6.35674">
        <ele>1440</ele>
        <time>2019-05-04T16:13:06Z</time>
      </trkpt>
      <trkpt lat="46.7331" lon="6.35678">
        <ele>1439</ele>
        <time>2019-05-04T16:13:14Z</time>
      </trkpt>
      <trkpt lat="46.73303" lon="6.35679">
        <ele>1439</ele>
        <time>2019-05-04T16:13:19Z</time>
      </trkpt>
      <trkpt lat="46.73292" lon="6.35681">
        <ele>1438</ele>
        <time>2019-05-04T16:13:27Z</time>
      </trkpt>
      <trkpt lat="46.73285" lon="6.35682">
        <ele>1437</ele>
        <time>2019-05-04T16:13:32Z</time>
      </trkpt>
      <trkpt lat="46.73279" lon="6.3568">
        <ele>1437</ele>
        <time>2019-05-04T16:13:37Z</time>
      </trkpt>
      <trkpt lat="46.73274" lon="6.3568">
        <ele>1436</ele>
        <time>2019-05-04T16:13:41Z</time>
      </trkpt>
      <trkpt lat="46.73267" lon="6.35682">
        <ele>1436</ele>
        <time>2019-05-04T16:13:45Z</time>
      </trkpt>
      <trkpt lat="46.73261" lon="6.35684">
        <ele>1436</ele>
        <time>2019-05-04T16:13:50Z</time>
      </trkpt>
      <trkpt lat="46.73258" lon="6.35686">
        <ele>1435</ele>
        <time>2019-05-04T16:13:53Z</time>
      </trkpt>
      <trkpt lat="46.73253" lon="6.35688">
        <ele>1435</ele>
        <time>2019-05-04T16:13:56Z</time>
      </trkpt>
      <trkpt lat="46.73246" lon="6.3569">
        <ele>1434</ele>
        <time>2019-05-04T16:14:01Z</time>
      </trkpt>
      <trkpt lat="46.7324" lon="6.35694">
        <ele>1433</ele>
        <time>2019-05-04T16:14:06Z</time>
      </trkpt>
      <trkpt lat="46.73235" lon="6.35696">
        <ele>1432</ele>
        <time>2019-05-04T16:14:10Z</time>
      </trkpt>
      <trkpt lat="46.73223" lon="6.35699">
        <ele>1430</ele>
        <time>2019-05-04T16:14:19Z</time>
      </trkpt>
      <trkpt lat="46.73213" lon="6.35703">
        <ele>1428</ele>
        <time>2019-05-04T16:14:26Z</time>
      </trkpt>
      <trkpt lat="46.73204" lon="6.35707">
        <ele>1427</ele>
        <time>2019-05-04T16:14:33Z</time>
      </trkpt>
      <trkpt lat="46.73187" lon="6.35716">
        <ele>1424</ele>
        <time>2019-05-04T16:14:46Z</time>
      </trkpt>
      <trkpt lat="46.73174" lon="6.35718">
        <ele>1424</ele>
        <time>2019-05-04T16:14:56Z</time>
      </trkpt>
      <trkpt lat="46.73155" lon="6.35715">
        <ele>1426</ele>
        <time>2019-05-04T16:15:10Z</time>
      </trkpt>
      <trkpt lat="46.73135" lon="6.35713">
        <ele>1427</ele>
        <time>2019-05-04T16:15:24Z</time>
      </trkpt>
      <trkpt lat="46.73123" lon="6.35714">
        <ele>1427</ele>
        <time>2019-05-04T16:15:33Z</time>
      </trkpt>
      <trkpt lat="46.73104" lon="6.35717">
        <ele>1427</ele>
        <time>2019-05-04T16:15:47Z</time>
      </trkpt>
      <trkpt lat="46.73086" lon="6.3572">
        <ele>1427</ele>
        <time>2019-05-04T16:16:00Z</time>
      </trkpt>
      <trkpt lat="46.73079" lon="6.35722">
        <ele>1427</ele>
        <time>2019-05-04T16:16:05Z</time>
      </trkpt>
      <trkpt lat="46.73061" lon="6.35721">
        <ele>1428</ele>
        <time>2019-05-04T16:16:18Z</time>
      </trkpt>
      <trkpt lat="46.73045" lon="6.35715">
        <ele>1430</ele>
        <time>2019-05-04T16:16:30Z</time>
      </trkpt>
      <trkpt lat="46.73037" lon="6.35715">
        <ele>1430</ele>
        <time>2019-05-04T16:16:36Z</time>
      </trkpt>
      <trkpt lat="46.73033" lon="6.35715">
        <ele>1430</ele>
        <time>2019-05-04T16:16:39Z</time>
      </trkpt>
      <trkpt lat="46.73026" lon="6.35713">
        <ele>1431</ele>
        <time>2019-05-04T16:16:44Z</time>
      </trkpt>
      <trkpt lat="46.7302" lon="6.35712">
        <ele>1432</ele>
        <time>2019-05-04T16:16:48Z</time>
      </trkpt>
      <trkpt lat="46.73016" lon="6.35712">
        <ele>1432</ele>
        <time>2019-05-04T16:16:51Z</time>
      </trkpt>
      <trkpt lat="46.73013" lon="6.35713">
        <ele>1433</ele>
        <time>2019-05-04T16:16:54Z</time>
      </trkpt>
      <trkpt lat="46.73005" lon="6.35714">
        <ele>1433</ele>
        <time>2019-05-04T16:16:59Z</time>
      </trkpt>
      <trkpt lat="46.73" lon="6.35712">
        <ele>1434</ele>
        <time>2019-05-04T16:17:03Z</time>
      </trkpt>
      <trkpt lat="46.72998" lon="6.3571">
        <ele>1435</ele>
        <time>2019-05-04T16:17:05Z</time>
      </trkpt>
      <trkpt lat="46.72996" lon="6.3571">
        <ele>1435</ele>
        <time>2019-05-04T16:17:06Z</time>
      </trkpt>
      <trkpt lat="46.72992" lon="6.3571">
        <ele>1436</ele>
        <time>2019-05-04T16:17:09Z</time>
      </trkpt>
      <trkpt lat="46.72978" lon="6.35707">
        <ele>1438</ele>
        <time>2019-05-04T16:17:20Z</time>
      </trkpt>
      <trkpt lat="46.72973" lon="6.35707">
        <ele>1439</ele>
        <time>2019-05-04T16:17:23Z</time>
      </trkpt>
      <trkpt lat="46.72961" lon="6.35707">
        <ele>1440</ele>
        <time>2019-05-04T16:17:32Z</time>
      </trkpt>
      <trkpt lat="46.72957" lon="6.3571">
        <ele>1440</ele>
        <time>2019-05-04T16:17:35Z</time>
      </trkpt>
      <trkpt lat="46.72954" lon="6.35711">
        <ele>1441</ele>
        <time>2019-05-04T16:17:38Z</time>
      </trkpt>
      <trkpt lat="46.72944" lon="6.35712">
        <ele>1441</ele>
        <time>2019-05-04T16:17:45Z</time>
      </trkpt>
      <trkpt lat="46.72943" lon="6.35713">
        <ele>1441</ele>
        <time>2019-05-04T16:17:46Z</time>
      </trkpt>
      <trkpt lat="46.72941" lon="6.35713">
        <ele>1441</ele>
        <time>2019-05-04T16:17:47Z</time>
      </trkpt>
      <trkpt lat="46.7294" lon="6.35714">
        <ele>1441</ele>
        <time>2019-05-04T16:17:48Z</time>
      </trkpt>
      <trkpt lat="46.72938" lon="6.35716">
        <ele>1441</ele>
        <time>2019-05-04T16:17:50Z</time>
      </trkpt>
      <trkpt lat="46.72936" lon="6.35717">
        <ele>1441</ele>
        <time>2019-05-04T16:17:51Z</time>
      </trkpt>
      <trkpt lat="46.72935" lon="6.35717">
        <ele>1441</ele>
        <time>2019-05-04T16:17:52Z</time>
      </trkpt>
      <trkpt lat="46.72932" lon="6.35715">
        <ele>1441</ele>
        <time>2019-05-04T16:17:54Z</time>
      </trkpt>
      <trkpt lat="46.72927" lon="6.35712">
        <ele>1442</ele>
        <time>2019-05-04T16:17:59Z</time>
      </trkpt>
      <trkpt lat="46.72915" lon="6.35714">
        <ele>1442</ele>
        <time>2019-05-04T16:18:07Z</time>
      </trkpt>
      <trkpt lat="46.72904" lon="6.35714">
        <ele>1442</ele>
        <time>2019-05-04T16:18:15Z</time>
      </trkpt>
      <trkpt lat="46.7289" lon="6.35713">
        <ele>1443</ele>
        <time>2019-05-04T16:18:25Z</time>
      </trkpt>
      <trkpt lat="46.72877" lon="6.35715">
        <ele>1443</ele>
        <time>2019-05-04T16:18:35Z</time>
      </trkpt>
      <trkpt lat="46.72872" lon="6.35714">
        <ele>1443</ele>
        <time>2019-05-04T16:18:39Z</time>
      </trkpt>
      <trkpt lat="46.72865" lon="6.35715">
        <ele>1443</ele>
        <time>2019-05-04T16:18:43Z</time>
      </trkpt>
      <trkpt lat="46.72863" lon="6.35714">
        <ele>1444</ele>
        <time>2019-05-04T16:18:45Z</time>
      </trkpt>
      <trkpt lat="46.72851" lon="6.35713">
        <ele>1444</ele>
        <time>2019-05-04T16:18:54Z</time>
      </trkpt>
      <trkpt lat="46.72848" lon="6.35714">
        <ele>1444</ele>
        <time>2019-05-04T16:18:56Z</time>
      </trkpt>
      <trkpt lat="46.72837" lon="6.35713">
        <ele>1444</ele>
        <time>2019-05-04T16:19:04Z</time>
      </trkpt>
      <trkpt lat="46.72819" lon="6.35711">
        <ele>1445</ele>
        <time>2019-05-04T16:19:17Z</time>
      </trkpt>
      <trkpt lat="46.72813" lon="6.35711">
        <ele>1445</ele>
        <time>2019-05-04T16:19:21Z</time>
      </trkpt>
      <trkpt lat="46.72811" lon="6.3571">
        <ele>1445</ele>
        <time>2019-05-04T16:19:22Z</time>
      </trkpt>
      <trkpt lat="46.72796" lon="6.35708">
        <ele>1445</ele>
        <time>2019-05-04T16:19:33Z</time>
      </trkpt>
      <trkpt lat="46.72778" lon="6.35712">
        <ele>1445</ele>
        <time>2019-05-04T16:19:47Z</time>
      </trkpt>
      <trkpt lat="46.72773" lon="6.35712">
        <ele>1445</ele>
        <time>2019-05-04T16:19:50Z</time>
      </trkpt>
      <trkpt lat="46.72769" lon="6.3571">
        <ele>1445</ele>
        <time>2019-05-04T16:19:54Z</time>
      </trkpt>
      <trkpt lat="46.72767" lon="6.35709">
        <ele>1445</ele>
        <time>2019-05-04T16:19:55Z</time>
      </trkpt>
      <trkpt lat="46.72764" lon="6.35707">
        <ele>1446</ele>
        <time>2019-05-04T16:19:57Z</time>
      </trkpt>
      <trkpt lat="46.72758" lon="6.35704">
        <ele>1447</ele>
        <time>2019-05-04T16:20:02Z</time>
      </trkpt>
      <trkpt lat="46.72756" lon="6.35707">
        <ele>1446</ele>
        <time>2019-05-04T16:20:05Z</time>
      </trkpt>
      <trkpt lat="46.72751" lon="6.35708">
        <ele>1446</ele>
        <time>2019-05-04T16:20:08Z</time>
      </trkpt>
      <trkpt lat="46.72731" lon="6.35712">
        <ele>1445</ele>
        <time>2019-05-04T16:20:23Z</time>
      </trkpt>
      <trkpt lat="46.72712" lon="6.35715">
        <ele>1445</ele>
        <time>2019-05-04T16:20:36Z</time>
      </trkpt>
      <trkpt lat="46.72701" lon="6.35718">
        <ele>1444</ele>
        <time>2019-05-04T16:20:44Z</time>
      </trkpt>
      <trkpt lat="46.72698" lon="6.35718">
        <ele>1445</ele>
        <time>2019-05-04T16:20:47Z</time>
      </trkpt>
      <trkpt lat="46.72693" lon="6.35719">
        <ele>1444</ele>
        <time>2019-05-04T16:20:51Z</time>
      </trkpt>
      <trkpt lat="46.72682" lon="6.3572">
        <ele>1443</ele>
        <time>2019-05-04T16:20:59Z</time>
      </trkpt>
      <trkpt lat="46.72668" lon="6.35723">
        <ele>1442</ele>
        <time>2019-05-04T16:21:09Z</time>
      </trkpt>
      <trkpt lat="46.7265" lon="6.35729">
        <ele>1440</ele>
        <time>2019-05-04T16:21:22Z</time>
      </trkpt>
      <trkpt lat="46.72643" lon="6.35732">
        <ele>1439</ele>
        <time>2019-05-04T16:21:28Z</time>
      </trkpt>
      <trkpt lat="46.72638" lon="6.35734">
        <ele>1439</ele>
        <time>2019-05-04T16:21:31Z</time>
      </trkpt>
      <trkpt lat="46.72619" lon="6.3574">
        <ele>1438</ele>
        <time>2019-05-04T16:21:45Z</time>
      </trkpt>
      <trkpt lat="46.72617" lon="6.35742">
        <ele>1438</ele>
        <time>2019-05-04T16:21:47Z</time>
      </trkpt>
      <trkpt lat="46.72614" lon="6.35743">
        <ele>1437</ele>
        <time>2019-05-04T16:21:49Z</time>
      </trkpt>
      <trkpt lat="46.7261" lon="6.35746">
        <ele>1437</ele>
        <time>2019-05-04T16:21:52Z</time>
      </trkpt>
      <trkpt lat="46.72604" lon="6.3575">
        <ele>1436</ele>
        <time>2019-05-04T16:21:57Z</time>
      </trkpt>
      <trkpt lat="46.72595" lon="6.35753">
        <ele>1435</ele>
        <time>2019-05-04T16:22:04Z</time>
      </trkpt>
      <trkpt lat="46.7259" lon="6.35756">
        <ele>1435</ele>
        <time>2019-05-04T16:22:08Z</time>
      </trkpt>
      <trkpt lat="46.72585" lon="6.35758">
        <ele>1434</ele>
        <time>2019-05-04T16:22:12Z</time>
      </trkpt>
      <trkpt lat="46.72578" lon="6.35761">
        <ele>1433</ele>
        <time>2019-05-04T16:22:17Z</time>
      </trkpt>
      <trkpt lat="46.72561" lon="6.35765">
        <ele>1431</ele>
        <time>2019-05-04T16:22:29Z</time>
      </trkpt>
      <trkpt lat="46.72557" lon="6.35765">
        <ele>1431</ele>
        <time>2019-05-04T16:22:32Z</time>
      </trkpt>
      <trkpt lat="46.72552" lon="6.35766">
        <ele>1430</ele>
        <time>2019-05-04T16:22:36Z</time>
      </trkpt>
      <trkpt lat="46.72546" lon="6.35767">
        <ele>1430</ele>
        <time>2019-05-04T16:22:40Z</time>
      </trkpt>
      <trkpt lat="46.72539" lon="6.3577">
        <ele>1429</ele>
        <time>2019-05-04T16:22:45Z</time>
      </trkpt>
      <trkpt lat="46.72537" lon="6.3577">
        <ele>1429</ele>
        <time>2019-05-04T16:22:47Z</time>
      </trkpt>
      <trkpt lat="46.72533" lon="6.35771">
        <ele>1428</ele>
        <time>2019-05-04T16:22:50Z</time>
      </trkpt>
      <trkpt lat="46.72526" lon="6.35773">
        <ele>1427</ele>
        <time>2019-05-04T16:22:55Z</time>
      </trkpt>
      <trkpt lat="46.72523" lon="6.35773">
        <ele>1427</ele>
        <time>2019-05-04T16:22:57Z</time>
      </trkpt>
      <trkpt lat="46.72519" lon="6.35775">
        <ele>1426</ele>
        <time>2019-05-04T16:23:00Z</time>
      </trkpt>
      <trkpt lat="46.72513" lon="6.35787">
        <ele>1423</ele>
        <time>2019-05-04T16:23:08Z</time>
      </trkpt>
      <trkpt lat="46.72509" lon="6.35795">
        <ele>1421</ele>
        <time>2019-05-04T16:23:13Z</time>
      </trkpt>
      <trkpt lat="46.72503" lon="6.35803">
        <ele>1419</ele>
        <time>2019-05-04T16:23:19Z</time>
      </trkpt>
      <trkpt lat="46.72496" lon="6.35816">
        <ele>1416</ele>
        <time>2019-05-04T16:23:28Z</time>
      </trkpt>
      <trkpt lat="46.72491" lon="6.35824">
        <ele>1414</ele>
        <time>2019-05-04T16:23:33Z</time>
      </trkpt>
      <trkpt lat="46.72487" lon="6.35826">
        <ele>1414</ele>
        <time>2019-05-04T16:23:36Z</time>
      </trkpt>
      <trkpt lat="46.72481" lon="6.35829">
        <ele>1413</ele>
        <time>2019-05-04T16:23:40Z</time>
      </trkpt>
      <trkpt lat="46.72472" lon="6.35839">
        <ele>1411</ele>
        <time>2019-05-04T16:23:49Z</time>
      </trkpt>
      <trkpt lat="46.72465" lon="6.35844">
        <ele>1410</ele>
        <time>2019-05-04T16:23:55Z</time>
      </trkpt>
      <trkpt lat="46.7246" lon="6.35847">
        <ele>1410</ele>
        <time>2019-05-04T16:23:58Z</time>
      </trkpt>
      <trkpt lat="46.72459" lon="6.35846">
        <ele>1410</ele>
        <time>2019-05-04T16:23:59Z</time>
      </trkpt>
      <trkpt lat="46.72458" lon="6.35846">
        <ele>1410</ele>
        <time>2019-05-04T16:24:00Z</time>
      </trkpt>
      <trkpt lat="46.72458" lon="6.35847">
        <ele>1410</ele>
        <time>2019-05-04T16:24:00Z</time>
      </trkpt>
      <trkpt lat="46.72448" lon="6.35854">
        <ele>1409</ele>
        <time>2019-05-04T16:24:08Z</time>
      </trkpt>
      <trkpt lat="46.72441" lon="6.35859">
        <ele>1408</ele>
        <time>2019-05-04T16:24:14Z</time>
      </trkpt>
      <trkpt lat="46.7243" lon="6.35866">
        <ele>1406</ele>
        <time>2019-05-04T16:24:23Z</time>
      </trkpt>
      <trkpt lat="46.72423" lon="6.35871">
        <ele>1405</ele>
        <time>2019-05-04T16:24:29Z</time>
      </trkpt>
      <trkpt lat="46.72419" lon="6.35876">
        <ele>1404</ele>
        <time>2019-05-04T16:24:32Z</time>
      </trkpt>
      <trkpt lat="46.7241" lon="6.35884">
        <ele>1402</ele>
        <time>2019-05-04T16:24:40Z</time>
      </trkpt>
      <trkpt lat="46.724" lon="6.35889">
        <ele>1401</ele>
        <time>2019-05-04T16:24:48Z</time>
      </trkpt>
      <trkpt lat="46.72396" lon="6.35893">
        <ele>1401</ele>
        <time>2019-05-04T16:24:51Z</time>
      </trkpt>
      <trkpt lat="46.72389" lon="6.35901">
        <ele>1400</ele>
        <time>2019-05-04T16:24:58Z</time>
      </trkpt>
      <trkpt lat="46.72379" lon="6.35909">
        <ele>1399</ele>
        <time>2019-05-04T16:25:06Z</time>
      </trkpt>
      <trkpt lat="46.72377" lon="6.3591">
        <ele>1399</ele>
        <time>2019-05-04T16:25:07Z</time>
      </trkpt>
      <trkpt lat="46.72375" lon="6.35909">
        <ele>1399</ele>
        <time>2019-05-04T16:25:09Z</time>
      </trkpt>
      <trkpt lat="46.72371" lon="6.3591">
        <ele>1400</ele>
        <time>2019-05-04T16:25:12Z</time>
      </trkpt>
      <trkpt lat="46.72367" lon="6.35909">
        <ele>1400</ele>
        <time>2019-05-04T16:25:15Z</time>
      </trkpt>
      <trkpt lat="46.72359" lon="6.35906">
        <ele>1400</ele>
        <time>2019-05-04T16:25:21Z</time>
      </trkpt>
      <trkpt lat="46.72358" lon="6.35907">
        <ele>1400</ele>
        <time>2019-05-04T16:25:22Z</time>
      </trkpt>
      <trkpt lat="46.72356" lon="6.35909">
        <ele>1399</ele>
        <time>2019-05-04T16:25:23Z</time>
      </trkpt>
      <trkpt lat="46.72352" lon="6.3591">
        <ele>1399</ele>
        <time>2019-05-04T16:25:26Z</time>
      </trkpt>
      <trkpt lat="46.72348" lon="6.35913">
        <ele>1399</ele>
        <time>2019-05-04T16:25:30Z</time>
      </trkpt>
      <trkpt lat="46.72347" lon="6.35915">
        <ele>1398</ele>
        <time>2019-05-04T16:25:31Z</time>
      </trkpt>
      <trkpt lat="46.72347" lon="6.35917">
        <ele>1398</ele>
        <time>2019-05-04T16:25:32Z</time>
      </trkpt>
      <trkpt lat="46.72348" lon="6.35923">
        <ele>1398</ele>
        <time>2019-05-04T16:25:35Z</time>
      </trkpt>
      <trkpt lat="46.72349" lon="6.35929">
        <ele>1398</ele>
        <time>2019-05-04T16:25:38Z</time>
      </trkpt>
      <trkpt lat="46.72347" lon="6.35931">
        <ele>1398</ele>
        <time>2019-05-04T16:25:40Z</time>
      </trkpt>
      <trkpt lat="46.72341" lon="6.35933">
        <ele>1397</ele>
        <time>2019-05-04T16:25:44Z</time>
      </trkpt>
      <trkpt lat="46.72331" lon="6.35939">
        <ele>1396</ele>
        <time>2019-05-04T16:25:52Z</time>
      </trkpt>
      <trkpt lat="46.7233" lon="6.3594">
        <ele>1396</ele>
        <time>2019-05-04T16:25:53Z</time>
      </trkpt>
      <trkpt lat="46.72326" lon="6.35944">
        <ele>1395</ele>
        <time>2019-05-04T16:25:56Z</time>
      </trkpt>
      <trkpt lat="46.72325" lon="6.35945">
        <ele>1395</ele>
        <time>2019-05-04T16:25:57Z</time>
      </trkpt>
      <trkpt lat="46.72318" lon="6.35951">
        <ele>1394</ele>
        <time>2019-05-04T16:26:03Z</time>
      </trkpt>
      <trkpt lat="46.72311" lon="6.35956">
        <ele>1392</ele>
        <time>2019-05-04T16:26:09Z</time>
      </trkpt>
      <trkpt lat="46.7231" lon="6.35958">
        <ele>1392</ele>
        <time>2019-05-04T16:26:10Z</time>
      </trkpt>
      <trkpt lat="46.72309" lon="6.35961">
        <ele>1392</ele>
        <time>2019-05-04T16:26:12Z</time>
      </trkpt>
      <trkpt lat="46.72308" lon="6.35963">
        <ele>1391</ele>
        <time>2019-05-04T16:26:14Z</time>
      </trkpt>
      <trkpt lat="46.72301" lon="6.35962">
        <ele>1391</ele>
        <time>2019-05-04T16:26:18Z</time>
      </trkpt>
      <trkpt lat="46.72292" lon="6.3597">
        <ele>1389</ele>
        <time>2019-05-04T16:26:26Z</time>
      </trkpt>
      <trkpt lat="46.72291" lon="6.35967">
        <ele>1390</ele>
        <time>2019-05-04T16:26:27Z</time>
      </trkpt>
      <trkpt lat="46.72292" lon="6.35968">
        <ele>1390</ele>
        <time>2019-05-04T16:26:28Z</time>
      </trkpt>
      <trkpt lat="46.72287" lon="6.3597">
        <ele>1389</ele>
        <time>2019-05-04T16:26:32Z</time>
      </trkpt>
      <trkpt lat="46.72284" lon="6.35971">
        <ele>1389</ele>
        <time>2019-05-04T16:26:34Z</time>
      </trkpt>
      <trkpt lat="46.72275" lon="6.35976">
        <ele>1387</ele>
        <time>2019-05-04T16:26:41Z</time>
      </trkpt>
      <trkpt lat="46.72273" lon="6.35976">
        <ele>1387</ele>
        <time>2019-05-04T16:26:43Z</time>
      </trkpt>
      <trkpt lat="46.72269" lon="6.35978">
        <ele>1386</ele>
        <time>2019-05-04T16:26:45Z</time>
      </trkpt>
      <trkpt lat="46.72268" lon="6.35978">
        <ele>1386</ele>
        <time>2019-05-04T16:26:47Z</time>
      </trkpt>
      <trkpt lat="46.7225" lon="6.35967">
        <ele>1385</ele>
        <time>2019-05-04T16:27:00Z</time>
      </trkpt>
      <trkpt lat="46.72242" lon="6.35957">
        <ele>1386</ele>
        <time>2019-05-04T16:27:08Z</time>
      </trkpt>
      <trkpt lat="46.72236" lon="6.35954">
        <ele>1386</ele>
        <time>2019-05-04T16:27:13Z</time>
      </trkpt>
      <trkpt lat="46.72234" lon="6.35953">
        <ele>1386</ele>
        <time>2019-05-04T16:27:14Z</time>
      </trkpt>
      <trkpt lat="46.72233" lon="6.35961">
        <ele>1384</ele>
        <time>2019-05-04T16:27:18Z</time>
      </trkpt>
      <trkpt lat="46.7223" lon="6.3596">
        <ele>1384</ele>
        <time>2019-05-04T16:27:20Z</time>
      </trkpt>
      <trkpt lat="46.72228" lon="6.35949">
        <ele>1385</ele>
        <time>2019-05-04T16:27:26Z</time>
      </trkpt>
      <trkpt lat="46.72221" lon="6.35941">
        <ele>1386</ele>
        <time>2019-05-04T16:27:33Z</time>
      </trkpt>
      <trkpt lat="46.7222" lon="6.3594">
        <ele>1386</ele>
        <time>2019-05-04T16:27:33Z</time>
      </trkpt>
      <trkpt lat="46.72225" lon="6.35947">
        <ele>1385</ele>
        <time>2019-05-04T16:27:38Z</time>
      </trkpt>
      <trkpt lat="46.72232" lon="6.35952">
        <ele>1385</ele>
        <time>2019-05-04T16:27:44Z</time>
      </trkpt>
      <trkpt lat="46.72237" lon="6.35955">
        <ele>1385</ele>
        <time>2019-05-04T16:27:48Z</time>
      </trkpt>
      <trkpt lat="46.72245" lon="6.35957">
        <ele>1386</ele>
        <time>2019-05-04T16:27:54Z</time>
      </trkpt>
      <trkpt lat="46.72246" lon="6.35957">
        <ele>1386</ele>
        <time>2019-05-04T16:27:55Z</time>
      </trkpt>
      <trkpt lat="46.72248" lon="6.35958">
        <ele>1387</ele>
        <time>2019-05-04T16:27:57Z</time>
      </trkpt>
      <trkpt lat="46.72252" lon="6.3596">
        <ele>1387</ele>
        <time>2019-05-04T16:27:59Z</time>
      </trkpt>
      <trkpt lat="46.72257" lon="6.35963">
        <ele>1387</ele>
        <time>2019-05-04T16:28:04Z</time>
      </trkpt>
      <trkpt lat="46.72264" lon="6.35967">
        <ele>1387</ele>
        <time>2019-05-04T16:28:09Z</time>
      </trkpt>
      <trkpt lat="46.72273" lon="6.35978">
        <ele>1387</ele>
        <time>2019-05-04T16:28:18Z</time>
      </trkpt>
      <trkpt lat="46.72276" lon="6.35979">
        <ele>1387</ele>
        <time>2019-05-04T16:28:20Z</time>
      </trkpt>
      <trkpt lat="46.72279" lon="6.35981">
        <ele>1387</ele>
        <time>2019-05-04T16:28:22Z</time>
      </trkpt>
      <trkpt lat="46.72281" lon="6.35983">
        <ele>1387</ele>
        <time>2019-05-04T16:28:24Z</time>
      </trkpt>
      <trkpt lat="46.72282" lon="6.35984">
        <ele>1387</ele>
        <time>2019-05-04T16:28:25Z</time>
      </trkpt>
      <trkpt lat="46.72286" lon="6.35987">
        <ele>1387</ele>
        <time>2019-05-04T16:28:28Z</time>
      </trkpt>
      <trkpt lat="46.72288" lon="6.35988">
        <ele>1386</ele>
        <time>2019-05-04T16:28:29Z</time>
      </trkpt>
      <trkpt lat="46.72293" lon="6.35994">
        <ele>1386</ele>
        <time>2019-05-04T16:28:34Z</time>
      </trkpt>
      <trkpt lat="46.72295" lon="6.35997">
        <ele>1385</ele>
        <time>2019-05-04T16:28:36Z</time>
      </trkpt>
      <trkpt lat="46.72297" lon="6.36">
        <ele>1385</ele>
        <time>2019-05-04T16:28:38Z</time>
      </trkpt>
      <trkpt lat="46.72302" lon="6.36005">
        <ele>1385</ele>
        <time>2019-05-04T16:28:43Z</time>
      </trkpt>
      <trkpt lat="46.72306" lon="6.36008">
        <ele>1384</ele>
        <time>2019-05-04T16:28:46Z</time>
      </trkpt>
      <trkpt lat="46.72308" lon="6.36012">
        <ele>1384</ele>
        <time>2019-05-04T16:28:48Z</time>
      </trkpt>
      <trkpt lat="46.72308" lon="6.36012">
        <ele>1384</ele>
        <time>2019-05-04T16:28:48Z</time>
      </trkpt>
      <trkpt lat="46.72308" lon="6.36013">
        <ele>1384</ele>
        <time>2019-05-04T16:28:49Z</time>
      </trkpt>
      <trkpt lat="46.72307" lon="6.36021">
        <ele>1382</ele>
        <time>2019-05-04T16:28:53Z</time>
      </trkpt>
      <trkpt lat="46.72306" lon="6.36022">
        <ele>1382</ele>
        <time>2019-05-04T16:28:54Z</time>
      </trkpt>
      <trkpt lat="46.72305" lon="6.36026">
        <ele>1381</ele>
        <time>2019-05-04T16:28:56Z</time>
      </trkpt>
      <trkpt lat="46.72304" lon="6.36027">
        <ele>1381</ele>
        <time>2019-05-04T16:28:57Z</time>
      </trkpt>
      <trkpt lat="46.72301" lon="6.36032">
        <ele>1379</ele>
        <time>2019-05-04T16:29:01Z</time>
      </trkpt>
      <trkpt lat="46.72299" lon="6.36034">
        <ele>1379</ele>
        <time>2019-05-04T16:29:02Z</time>
      </trkpt>
      <trkpt lat="46.72292" lon="6.36041">
        <ele>1377</ele>
        <time>2019-05-04T16:29:08Z</time>
      </trkpt>
      <trkpt lat="46.72283" lon="6.36048">
        <ele>1376</ele>
        <time>2019-05-04T16:29:16Z</time>
      </trkpt>
      <trkpt lat="46.72274" lon="6.3604">
        <ele>1377</ele>
        <time>2019-05-04T16:29:23Z</time>
      </trkpt>
      <trkpt lat="46.7226" lon="6.36062">
        <ele>1371</ele>
        <time>2019-05-04T16:29:39Z</time>
      </trkpt>
      <trkpt lat="46.72254" lon="6.36069">
        <ele>1369</ele>
        <time>2019-05-04T16:29:44Z</time>
      </trkpt>
      <trkpt lat="46.72253" lon="6.36069">
        <ele>1369</ele>
        <time>2019-05-04T16:29:45Z</time>
      </trkpt>
      <trkpt lat="46.72251" lon="6.3607">
        <ele>1369</ele>
        <time>2019-05-04T16:29:47Z</time>
      </trkpt>
      <trkpt lat="46.72248" lon="6.36072">
        <ele>1368</ele>
        <time>2019-05-04T16:29:49Z</time>
      </trkpt>
      <trkpt lat="46.72248" lon="6.36075">
        <ele>1367</ele>
        <time>2019-05-04T16:29:51Z</time>
      </trkpt>
      <trkpt lat="46.72247" lon="6.36083">
        <ele>1366</ele>
        <time>2019-05-04T16:29:55Z</time>
      </trkpt>
      <trkpt lat="46.72246" lon="6.36084">
        <ele>1366</ele>
        <time>2019-05-04T16:29:56Z</time>
      </trkpt>
      <trkpt lat="46.72245" lon="6.36087">
        <ele>1365</ele>
        <time>2019-05-04T16:29:57Z</time>
      </trkpt>
      <trkpt lat="46.72245" lon="6.36088">
        <ele>1365</ele>
        <time>2019-05-04T16:29:58Z</time>
      </trkpt>
      <trkpt lat="46.72244" lon="6.36088">
        <ele>1365</ele>
        <time>2019-05-04T16:29:58Z</time>
      </trkpt>
      <trkpt lat="46.72243" lon="6.3609">
        <ele>1364</ele>
        <time>2019-05-04T16:30:00Z</time>
      </trkpt>
      <trkpt lat="46.72242" lon="6.3609">
        <ele>1364</ele>
        <time>2019-05-04T16:30:00Z</time>
      </trkpt>
      <trkpt lat="46.72239" lon="6.3609">
        <ele>1364</ele>
        <time>2019-05-04T16:30:03Z</time>
      </trkpt>
      <trkpt lat="46.72238" lon="6.36091">
        <ele>1363</ele>
        <time>2019-05-04T16:30:04Z</time>
      </trkpt>
      <trkpt lat="46.72235" lon="6.36099">
        <ele>1361</ele>
        <time>2019-05-04T16:30:08Z</time>
      </trkpt>
      <trkpt lat="46.72234" lon="6.36106">
        <ele>1360</ele>
        <time>2019-05-04T16:30:12Z</time>
      </trkpt>
      <trkpt lat="46.72233" lon="6.36113">
        <ele>1359</ele>
        <time>2019-05-04T16:30:16Z</time>
      </trkpt>
      <trkpt lat="46.7223" lon="6.36119">
        <ele>1357</ele>
        <time>2019-05-04T16:30:19Z</time>
      </trkpt>
      <trkpt lat="46.72227" lon="6.36124">
        <ele>1356</ele>
        <time>2019-05-04T16:30:23Z</time>
      </trkpt>
      <trkpt lat="46.72223" lon="6.36129">
        <ele>1355</ele>
        <time>2019-05-04T16:30:26Z</time>
      </trkpt>
      <trkpt lat="46.72219" lon="6.36134">
        <ele>1354</ele>
        <time>2019-05-04T16:30:30Z</time>
      </trkpt>
      <trkpt lat="46.72216" lon="6.36141">
        <ele>1353</ele>
        <time>2019-05-04T16:30:35Z</time>
      </trkpt>
      <trkpt lat="46.72214" lon="6.36143">
        <ele>1352</ele>
        <time>2019-05-04T16:30:37Z</time>
      </trkpt>
      <trkpt lat="46.72209" lon="6.36149">
        <ele>1351</ele>
        <time>2019-05-04T16:30:41Z</time>
      </trkpt>
      <trkpt lat="46.72204" lon="6.36156">
        <ele>1350</ele>
        <time>2019-05-04T16:30:46Z</time>
      </trkpt>
      <trkpt lat="46.72201" lon="6.36162">
        <ele>1350</ele>
        <time>2019-05-04T16:30:50Z</time>
      </trkpt>
      <trkpt lat="46.72199" lon="6.36168">
        <ele>1349</ele>
        <time>2019-05-04T16:30:53Z</time>
      </trkpt>
      <trkpt lat="46.72197" lon="6.36175">
        <ele>1348</ele>
        <time>2019-05-04T16:30:57Z</time>
      </trkpt>
      <trkpt lat="46.72194" lon="6.36182">
        <ele>1348</ele>
        <time>2019-05-04T16:31:01Z</time>
      </trkpt>
      <trkpt lat="46.72191" lon="6.36189">
        <ele>1346</ele>
        <time>2019-05-04T16:31:05Z</time>
      </trkpt>
      <trkpt lat="46.72187" lon="6.36196">
        <ele>1345</ele>
        <time>2019-05-04T16:31:10Z</time>
      </trkpt>
      <trkpt lat="46.72182" lon="6.36201">
        <ele>1343</ele>
        <time>2019-05-04T16:31:15Z</time>
      </trkpt>
      <trkpt lat="46.72176" lon="6.36205">
        <ele>1342</ele>
        <time>2019-05-04T16:31:19Z</time>
      </trkpt>
      <trkpt lat="46.72168" lon="6.36209">
        <ele>1340</ele>
        <time>2019-05-04T16:31:26Z</time>
      </trkpt>
      <trkpt lat="46.72155" lon="6.36212">
        <ele>1338</ele>
        <time>2019-05-04T16:31:35Z</time>
      </trkpt>
      <trkpt lat="46.72151" lon="6.36214">
        <ele>1337</ele>
        <time>2019-05-04T16:31:39Z</time>
      </trkpt>
      <trkpt lat="46.72146" lon="6.36218">
        <ele>1336</ele>
        <time>2019-05-04T16:31:42Z</time>
      </trkpt>
      <trkpt lat="46.72141" lon="6.36222">
        <ele>1335</ele>
        <time>2019-05-04T16:31:47Z</time>
      </trkpt>
      <trkpt lat="46.72134" lon="6.36227">
        <ele>1333</ele>
        <time>2019-05-04T16:31:52Z</time>
      </trkpt>
      <trkpt lat="46.72131" lon="6.36229">
        <ele>1333</ele>
        <time>2019-05-04T16:31:54Z</time>
      </trkpt>
      <trkpt lat="46.72129" lon="6.36231">
        <ele>1332</ele>
        <time>2019-05-04T16:31:57Z</time>
      </trkpt>
      <trkpt lat="46.72129" lon="6.36231">
        <ele>1332</ele>
        <time>2019-05-04T16:31:57Z</time>
      </trkpt>
      <trkpt lat="46.7212" lon="6.36241">
        <ele>1330</ele>
        <time>2019-05-04T16:32:05Z</time>
      </trkpt>
      <trkpt lat="46.72108" lon="6.36245">
        <ele>1328</ele>
        <time>2019-05-04T16:32:14Z</time>
      </trkpt>
      <trkpt lat="46.72096" lon="6.3625">
        <ele>1327</ele>
        <time>2019-05-04T16:32:23Z</time>
      </trkpt>
      <trkpt lat="46.7208" lon="6.36252">
        <ele>1326</ele>
        <time>2019-05-04T16:32:34Z</time>
      </trkpt>
      <trkpt lat="46.72077" lon="6.36252">
        <ele>1326</ele>
        <time>2019-05-04T16:32:37Z</time>
      </trkpt>
      <trkpt lat="46.72066" lon="6.36245">
        <ele>1326</ele>
        <time>2019-05-04T16:32:45Z</time>
      </trkpt>
      <trkpt lat="46.7206" lon="6.3624">
        <ele>1325</ele>
        <time>2019-05-04T16:32:51Z</time>
      </trkpt>
      <trkpt lat="46.72046" lon="6.36229">
        <ele>1324</ele>
        <time>2019-05-04T16:33:02Z</time>
      </trkpt>
      <trkpt lat="46.72029" lon="6.36217">
        <ele>1322</ele>
        <time>2019-05-04T16:33:16Z</time>
      </trkpt>
      <trkpt lat="46.72026" lon="6.36215">
        <ele>1322</ele>
        <time>2019-05-04T16:33:18Z</time>
      </trkpt>
      <trkpt lat="46.72017" lon="6.36208">
        <ele>1320</ele>
        <time>2019-05-04T16:33:26Z</time>
      </trkpt>
      <trkpt lat="46.72002" lon="6.36194">
        <ele>1318</ele>
        <time>2019-05-04T16:33:39Z</time>
      </trkpt>
      <trkpt lat="46.71984" lon="6.36187">
        <ele>1316</ele>
        <time>2019-05-04T16:33:52Z</time>
      </trkpt>
      <trkpt lat="46.71981" lon="6.36187">
        <ele>1315</ele>
        <time>2019-05-04T16:33:54Z</time>
      </trkpt>
      <trkpt lat="46.71976" lon="6.36185">
        <ele>1315</ele>
        <time>2019-05-04T16:33:58Z</time>
      </trkpt>
      <trkpt lat="46.71969" lon="6.36182">
        <ele>1314</ele>
        <time>2019-05-04T16:34:04Z</time>
      </trkpt>
      <trkpt lat="46.71957" lon="6.36172">
        <ele>1313</ele>
        <time>2019-05-04T16:34:13Z</time>
      </trkpt>
      <trkpt lat="46.71952" lon="6.36164">
        <ele>1313</ele>
        <time>2019-05-04T16:34:19Z</time>
      </trkpt>
      <trkpt lat="46.71939" lon="6.36151">
        <ele>1312</ele>
        <time>2019-05-04T16:34:30Z</time>
      </trkpt>
      <trkpt lat="46.71935" lon="6.36147">
        <ele>1311</ele>
        <time>2019-05-04T16:34:33Z</time>
      </trkpt>
      <trkpt lat="46.7193" lon="6.36141">
        <ele>1311</ele>
        <time>2019-05-04T16:34:38Z</time>
      </trkpt>
      <trkpt lat="46.71922" lon="6.3613">
        <ele>1310</ele>
        <time>2019-05-04T16:34:46Z</time>
      </trkpt>
      <trkpt lat="46.71917" lon="6.36125">
        <ele>1309</ele>
        <time>2019-05-04T16:34:51Z</time>
      </trkpt>
      <trkpt lat="46.719" lon="6.36119">
        <ele>1307</ele>
        <time>2019-05-04T16:35:04Z</time>
      </trkpt>
      <trkpt lat="46.71894" lon="6.36123">
        <ele>1306</ele>
        <time>2019-05-04T16:35:08Z</time>
      </trkpt>
      <trkpt lat="46.71894" lon="6.36124">
        <ele>1306</ele>
        <time>2019-05-04T16:35:09Z</time>
      </trkpt>
      <trkpt lat="46.71892" lon="6.36127">
        <ele>1305</ele>
        <time>2019-05-04T16:35:11Z</time>
      </trkpt>
      <trkpt lat="46.71889" lon="6.36134">
        <ele>1304</ele>
        <time>2019-05-04T16:35:15Z</time>
      </trkpt>
      <trkpt lat="46.71881" lon="6.3616">
        <ele>1301</ele>
        <time>2019-05-04T16:35:29Z</time>
      </trkpt>
      <trkpt lat="46.71874" lon="6.36177">
        <ele>1299</ele>
        <time>2019-05-04T16:35:39Z</time>
      </trkpt>
      <trkpt lat="46.7187" lon="6.36186">
        <ele>1298</ele>
        <time>2019-05-04T16:35:44Z</time>
      </trkpt>
      <trkpt lat="46.71865" lon="6.36197">
        <ele>1296</ele>
        <time>2019-05-04T16:35:51Z</time>
      </trkpt>
      <trkpt lat="46.71859" lon="6.36206">
        <ele>1292</ele>
        <time>2019-05-04T16:35:58Z</time>
      </trkpt>
      <trkpt lat="46.71858" lon="6.36215">
        <ele>1290</ele>
        <time>2019-05-04T16:36:03Z</time>
      </trkpt>
      <trkpt lat="46.71857" lon="6.36224">
        <ele>1288</ele>
        <time>2019-05-04T16:36:08Z</time>
      </trkpt>
      <trkpt lat="46.71858" lon="6.36228">
        <ele>1288</ele>
        <time>2019-05-04T16:36:09Z</time>
      </trkpt>
      <trkpt lat="46.71859" lon="6.36234">
        <ele>1288</ele>
        <time>2019-05-04T16:36:12Z</time>
      </trkpt>
      <trkpt lat="46.71857" lon="6.36242">
        <ele>1286</ele>
        <time>2019-05-04T16:36:17Z</time>
      </trkpt>
      <trkpt lat="46.71859" lon="6.36242">
        <ele>1287</ele>
        <time>2019-05-04T16:36:18Z</time>
      </trkpt>
      <trkpt lat="46.71859" lon="6.36241">
        <ele>1287</ele>
        <time>2019-05-04T16:36:18Z</time>
      </trkpt>
      <trkpt lat="46.71859" lon="6.36242">
        <ele>1287</ele>
        <time>2019-05-04T16:36:19Z</time>
      </trkpt>
      <trkpt lat="46.71857" lon="6.36246">
        <ele>1285</ele>
        <time>2019-05-04T16:36:21Z</time>
      </trkpt>
      <trkpt lat="46.71857" lon="6.36248">
        <ele>1285</ele>
        <time>2019-05-04T16:36:22Z</time>
      </trkpt>
      <trkpt lat="46.71856" lon="6.36251">
        <ele>1284</ele>
        <time>2019-05-04T16:36:24Z</time>
      </trkpt>
      <trkpt lat="46.71857" lon="6.36276">
        <ele>1282</ele>
        <time>2019-05-04T16:36:37Z</time>
      </trkpt>
      <trkpt lat="46.71856" lon="6.36285">
        <ele>1280</ele>
        <time>2019-05-04T16:36:41Z</time>
      </trkpt>
      <trkpt lat="46.71857" lon="6.36294">
        <ele>1280</ele>
        <time>2019-05-04T16:36:46Z</time>
      </trkpt>
      <trkpt lat="46.71862" lon="6.36312">
        <ele>1282</ele>
        <time>2019-05-04T16:36:56Z</time>
      </trkpt>
      <trkpt lat="46.71868" lon="6.36324">
        <ele>1283</ele>
        <time>2019-05-04T16:37:03Z</time>
      </trkpt>
      <trkpt lat="46.71877" lon="6.36345">
        <ele>1287</ele>
        <time>2019-05-04T16:37:15Z</time>
      </trkpt>
      <trkpt lat="46.71878" lon="6.36373">
        <ele>1284</ele>
        <time>2019-05-04T16:37:29Z</time>
      </trkpt>
      <trkpt lat="46.71877" lon="6.36378">
        <ele>1284</ele>
        <time>2019-05-04T16:37:32Z</time>
      </trkpt>
      <trkpt lat="46.7188" lon="6.36395">
        <ele>1283</ele>
        <time>2019-05-04T16:37:40Z</time>
      </trkpt>
      <trkpt lat="46.7188" lon="6.36405">
        <ele>1281</ele>
        <time>2019-05-04T16:37:46Z</time>
      </trkpt>
      <trkpt lat="46.71879" lon="6.36415">
        <ele>1279</ele>
        <time>2019-05-04T16:37:51Z</time>
      </trkpt>
      <trkpt lat="46.71879" lon="6.36423">
        <ele>1279</ele>
        <time>2019-05-04T16:37:55Z</time>
      </trkpt>
      <trkpt lat="46.71881" lon="6.3643">
        <ele>1278</ele>
        <time>2019-05-04T16:37:58Z</time>
      </trkpt>
      <trkpt lat="46.71881" lon="6.36438">
        <ele>1278</ele>
        <time>2019-05-04T16:38:03Z</time>
      </trkpt>
      <trkpt lat="46.71884" lon="6.36448">
        <ele>1278</ele>
        <time>2019-05-04T16:38:08Z</time>
      </trkpt>
      <trkpt lat="46.71886" lon="6.36453">
        <ele>1278</ele>
        <time>2019-05-04T16:38:11Z</time>
      </trkpt>
      <trkpt lat="46.71887" lon="6.36459">
        <ele>1278</ele>
        <time>2019-05-04T16:38:14Z</time>
      </trkpt>
      <trkpt lat="46.71891" lon="6.36468">
        <ele>1279</ele>
        <time>2019-05-04T16:38:19Z</time>
      </trkpt>
      <trkpt lat="46.71896" lon="6.36472">
        <ele>1281</ele>
        <time>2019-05-04T16:38:23Z</time>
      </trkpt>
      <trkpt lat="46.71896" lon="6.36475">
        <ele>1281</ele>
        <time>2019-05-04T16:38:25Z</time>
      </trkpt>
      <trkpt lat="46.71897" lon="6.3648">
        <ele>1281</ele>
        <time>2019-05-04T16:38:27Z</time>
      </trkpt>
      <trkpt lat="46.719" lon="6.36488">
        <ele>1281</ele>
        <time>2019-05-04T16:38:32Z</time>
      </trkpt>
      <trkpt lat="46.71902" lon="6.36498">
        <ele>1281</ele>
        <time>2019-05-04T16:38:37Z</time>
      </trkpt>
      <trkpt lat="46.71902" lon="6.36502">
        <ele>1279</ele>
        <time>2019-05-04T16:38:40Z</time>
      </trkpt>
      <trkpt lat="46.71902" lon="6.36509">
        <ele>1278</ele>
        <time>2019-05-04T16:38:43Z</time>
      </trkpt>
      <trkpt lat="46.71903" lon="6.36511">
        <ele>1279</ele>
        <time>2019-05-04T16:38:44Z</time>
      </trkpt>
      <trkpt lat="46.71903" lon="6.36515">
        <ele>1278</ele>
        <time>2019-05-04T16:38:47Z</time>
      </trkpt>
      <trkpt lat="46.71905" lon="6.36526">
        <ele>1277</ele>
        <time>2019-05-04T16:38:52Z</time>
      </trkpt>
      <trkpt lat="46.71906" lon="6.36538">
        <ele>1275</ele>
        <time>2019-05-04T16:38:58Z</time>
      </trkpt>
      <trkpt lat="46.71906" lon="6.36543">
        <ele>1274</ele>
        <time>2019-05-04T16:39:01Z</time>
      </trkpt>
      <trkpt lat="46.71906" lon="6.36548">
        <ele>1273</ele>
        <time>2019-05-04T16:39:03Z</time>
      </trkpt>
      <trkpt lat="46.71906" lon="6.36552">
        <ele>1272</ele>
        <time>2019-05-04T16:39:05Z</time>
      </trkpt>
      <trkpt lat="46.71907" lon="6.3656">
        <ele>1270</ele>
        <time>2019-05-04T16:39:10Z</time>
      </trkpt>
      <trkpt lat="46.71905" lon="6.36574">
        <ele>1266</ele>
        <time>2019-05-04T16:39:17Z</time>
      </trkpt>
      <trkpt lat="46.71907" lon="6.36583">
        <ele>1265</ele>
        <time>2019-05-04T16:39:22Z</time>
      </trkpt>
      <trkpt lat="46.71909" lon="6.3659">
        <ele>1264</ele>
        <time>2019-05-04T16:39:26Z</time>
      </trkpt>
      <trkpt lat="46.71912" lon="6.36601">
        <ele>1264</ele>
        <time>2019-05-04T16:39:31Z</time>
      </trkpt>
      <trkpt lat="46.71913" lon="6.36609">
        <ele>1263</ele>
        <time>2019-05-04T16:39:36Z</time>
      </trkpt>
      <trkpt lat="46.71916" lon="6.36615">
        <ele>1262</ele>
        <time>2019-05-04T16:39:39Z</time>
      </trkpt>
      <trkpt lat="46.7192" lon="6.36622">
        <ele>1263</ele>
        <time>2019-05-04T16:39:44Z</time>
      </trkpt>
      <trkpt lat="46.71924" lon="6.36635">
        <ele>1261</ele>
        <time>2019-05-04T16:39:51Z</time>
      </trkpt>
      <trkpt lat="46.71926" lon="6.36642">
        <ele>1260</ele>
        <time>2019-05-04T16:39:55Z</time>
      </trkpt>
      <trkpt lat="46.71928" lon="6.3665">
        <ele>1259</ele>
        <time>2019-05-04T16:39:59Z</time>
      </trkpt>
      <trkpt lat="46.71929" lon="6.36655">
        <ele>1258</ele>
        <time>2019-05-04T16:40:02Z</time>
      </trkpt>
      <trkpt lat="46.7193" lon="6.36657">
        <ele>1258</ele>
        <time>2019-05-04T16:40:03Z</time>
      </trkpt>
      <trkpt lat="46.71933" lon="6.36661">
        <ele>1258</ele>
        <time>2019-05-04T16:40:06Z</time>
      </trkpt>
      <trkpt lat="46.71935" lon="6.36668">
        <ele>1257</ele>
        <time>2019-05-04T16:40:10Z</time>
      </trkpt>
      <trkpt lat="46.71938" lon="6.36677">
        <ele>1256</ele>
        <time>2019-05-04T16:40:15Z</time>
      </trkpt>
      <trkpt lat="46.71941" lon="6.36695">
        <ele>1253</ele>
        <time>2019-05-04T16:40:24Z</time>
      </trkpt>
      <trkpt lat="46.71943" lon="6.36702">
        <ele>1253</ele>
        <time>2019-05-04T16:40:28Z</time>
      </trkpt>
      <trkpt lat="46.71942" lon="6.36712">
        <ele>1251</ele>
        <time>2019-05-04T16:40:33Z</time>
      </trkpt>
      <trkpt lat="46.71941" lon="6.36718">
        <ele>1250</ele>
        <time>2019-05-04T16:40:36Z</time>
      </trkpt>
      <trkpt lat="46.71941" lon="6.36728">
        <ele>1248</ele>
        <time>2019-05-04T16:40:41Z</time>
      </trkpt>
      <trkpt lat="46.71943" lon="6.36734">
        <ele>1249</ele>
        <time>2019-05-04T16:40:45Z</time>
      </trkpt>
      <trkpt lat="46.71944" lon="6.36744">
        <ele>1247</ele>
        <time>2019-05-04T16:40:50Z</time>
      </trkpt>
      <trkpt lat="46.71946" lon="6.36771">
        <ele>1245</ele>
        <time>2019-05-04T16:41:04Z</time>
      </trkpt>
      <trkpt lat="46.71947" lon="6.3678">
        <ele>1244</ele>
        <time>2019-05-04T16:41:08Z</time>
      </trkpt>
      <trkpt lat="46.71949" lon="6.3679">
        <ele>1243</ele>
        <time>2019-05-04T16:41:13Z</time>
      </trkpt>
      <trkpt lat="46.71948" lon="6.36799">
        <ele>1242</ele>
        <time>2019-05-04T16:41:18Z</time>
      </trkpt>
      <trkpt lat="46.71947" lon="6.36807">
        <ele>1240</ele>
        <time>2019-05-04T16:41:22Z</time>
      </trkpt>
      <trkpt lat="46.71949" lon="6.36821">
        <ele>1240</ele>
        <time>2019-05-04T16:41:29Z</time>
      </trkpt>
      <trkpt lat="46.71946" lon="6.36836">
        <ele>1236</ele>
        <time>2019-05-04T16:41:37Z</time>
      </trkpt>
      <trkpt lat="46.7194" lon="6.3684">
        <ele>1232</ele>
        <time>2019-05-04T16:41:43Z</time>
      </trkpt>
      <trkpt lat="46.71933" lon="6.3684">
        <ele>1229</ele>
        <time>2019-05-04T16:41:48Z</time>
      </trkpt>
      <trkpt lat="46.71925" lon="6.36833">
        <ele>1226</ele>
        <time>2019-05-04T16:41:55Z</time>
      </trkpt>
      <trkpt lat="46.71918" lon="6.36825">
        <ele>1224</ele>
        <time>2019-05-04T16:42:02Z</time>
      </trkpt>
      <trkpt lat="46.71914" lon="6.36819">
        <ele>1222</ele>
        <time>2019-05-04T16:42:06Z</time>
      </trkpt>
      <trkpt lat="46.7191" lon="6.36814">
        <ele>1221</ele>
        <time>2019-05-04T16:42:10Z</time>
      </trkpt>
      <trkpt lat="46.71895" lon="6.36795">
        <ele>1217</ele>
        <time>2019-05-04T16:42:25Z</time>
      </trkpt>
      <trkpt lat="46.71883" lon="6.36783">
        <ele>1214</ele>
        <time>2019-05-04T16:42:35Z</time>
      </trkpt>
      <trkpt lat="46.71872" lon="6.3677">
        <ele>1211</ele>
        <time>2019-05-04T16:42:46Z</time>
      </trkpt>
      <trkpt lat="46.71868" lon="6.36764">
        <ele>1210</ele>
        <time>2019-05-04T16:42:50Z</time>
      </trkpt>
      <trkpt lat="46.71865" lon="6.36757">
        <ele>1209</ele>
        <time>2019-05-04T16:42:54Z</time>
      </trkpt>
      <trkpt lat="46.71861" lon="6.36746">
        <ele>1209</ele>
        <time>2019-05-04T16:43:00Z</time>
      </trkpt>
      <trkpt lat="46.71855" lon="6.36721">
        <ele>1209</ele>
        <time>2019-05-04T16:43:13Z</time>
      </trkpt>
      <trkpt lat="46.71852" lon="6.3671">
        <ele>1209</ele>
        <time>2019-05-04T16:43:19Z</time>
      </trkpt>
      <trkpt lat="46.71849" lon="6.36703">
        <ele>1209</ele>
        <time>2019-05-04T16:43:23Z</time>
      </trkpt>
      <trkpt lat="46.71846" lon="6.36697">
        <ele>1208</ele>
        <time>2019-05-04T16:43:27Z</time>
      </trkpt>
      <trkpt lat="46.71838" lon="6.36681">
        <ele>1208</ele>
        <time>2019-05-04T16:43:37Z</time>
      </trkpt>
      <trkpt lat="46.71827" lon="6.36661">
        <ele>1208</ele>
        <time>2019-05-04T16:43:49Z</time>
      </trkpt>
      <trkpt lat="46.71824" lon="6.36654">
        <ele>1208</ele>
        <time>2019-05-04T16:43:54Z</time>
      </trkpt>
      <trkpt lat="46.71817" lon="6.36641">
        <ele>1208</ele>
        <time>2019-05-04T16:44:02Z</time>
      </trkpt>
      <trkpt lat="46.718" lon="6.36627">
        <ele>1203</ele>
        <time>2019-05-04T16:44:16Z</time>
      </trkpt>
      <trkpt lat="46.71783" lon="6.36609">
        <ele>1199</ele>
        <time>2019-05-04T16:44:32Z</time>
      </trkpt>
      <trkpt lat="46.71769" lon="6.36596">
        <ele>1192</ele>
        <time>2019-05-04T16:44:45Z</time>
      </trkpt>
      <trkpt lat="46.7176" lon="6.36591">
        <ele>1188</ele>
        <time>2019-05-04T16:44:52Z</time>
      </trkpt>
      <trkpt lat="46.71758" lon="6.36593">
        <ele>1187</ele>
        <time>2019-05-04T16:44:54Z</time>
      </trkpt>
      <trkpt lat="46.71758" lon="6.36596">
        <ele>1187</ele>
        <time>2019-05-04T16:44:56Z</time>
      </trkpt>
      <trkpt lat="46.71762" lon="6.36605">
        <ele>1187</ele>
        <time>2019-05-04T16:45:01Z</time>
      </trkpt>
      <trkpt lat="46.71768" lon="6.36612">
        <ele>1190</ele>
        <time>2019-05-04T16:45:07Z</time>
      </trkpt>
      <trkpt lat="46.71771" lon="6.36618">
        <ele>1191</ele>
        <time>2019-05-04T16:45:10Z</time>
      </trkpt>
      <trkpt lat="46.71773" lon="6.36624">
        <ele>1191</ele>
        <time>2019-05-04T16:45:14Z</time>
      </trkpt>
      <trkpt lat="46.71777" lon="6.3664">
        <ele>1190</ele>
        <time>2019-05-04T16:45:22Z</time>
      </trkpt>
      <trkpt lat="46.71782" lon="6.36659">
        <ele>1190</ele>
        <time>2019-05-04T16:45:32Z</time>
      </trkpt>
      <trkpt lat="46.71783" lon="6.36663">
        <ele>1190</ele>
        <time>2019-05-04T16:45:34Z</time>
      </trkpt>
      <trkpt lat="46.71785" lon="6.3667">
        <ele>1189</ele>
        <time>2019-05-04T16:45:38Z</time>
      </trkpt>
      <trkpt lat="46.71788" lon="6.36686">
        <ele>1188</ele>
        <time>2019-05-04T16:45:46Z</time>
      </trkpt>
      <trkpt lat="46.71789" lon="6.36692">
        <ele>1187</ele>
        <time>2019-05-04T16:45:50Z</time>
      </trkpt>
      <trkpt lat="46.71792" lon="6.36699">
        <ele>1186</ele>
        <time>2019-05-04T16:45:54Z</time>
      </trkpt>
      <trkpt lat="46.71794" lon="6.36706">
        <ele>1184</ele>
        <time>2019-05-04T16:45:58Z</time>
      </trkpt>
      <trkpt lat="46.71796" lon="6.36719">
        <ele>1181</ele>
        <time>2019-05-04T16:46:05Z</time>
      </trkpt>
      <trkpt lat="46.71799" lon="6.3673">
        <ele>1179</ele>
        <time>2019-05-04T16:46:11Z</time>
      </trkpt>
      <trkpt lat="46.71802" lon="6.36742">
        <ele>1177</ele>
        <time>2019-05-04T16:46:17Z</time>
      </trkpt>
      <trkpt lat="46.71804" lon="6.36754">
        <ele>1175</ele>
        <time>2019-05-04T16:46:24Z</time>
      </trkpt>
      <trkpt lat="46.71805" lon="6.36762">
        <ele>1173</ele>
        <time>2019-05-04T16:46:28Z</time>
      </trkpt>
      <trkpt lat="46.71806" lon="6.3677">
        <ele>1171</ele>
        <time>2019-05-04T16:46:32Z</time>
      </trkpt>
      <trkpt lat="46.71806" lon="6.36782">
        <ele>1169</ele>
        <time>2019-05-04T16:46:38Z</time>
      </trkpt>
      <trkpt lat="46.71813" lon="6.36806">
        <ele>1167</ele>
        <time>2019-05-04T16:46:51Z</time>
      </trkpt>
      <trkpt lat="46.71817" lon="6.36819">
        <ele>1167</ele>
        <time>2019-05-04T16:46:58Z</time>
      </trkpt>
      <trkpt lat="46.71818" lon="6.36822">
        <ele>1167</ele>
        <time>2019-05-04T16:47:00Z</time>
      </trkpt>
      <trkpt lat="46.71818" lon="6.36827">
        <ele>1165</ele>
        <time>2019-05-04T16:47:03Z</time>
      </trkpt>
      <trkpt lat="46.71818" lon="6.36831">
        <ele>1164</ele>
        <time>2019-05-04T16:47:05Z</time>
      </trkpt>
      <trkpt lat="46.71817" lon="6.3684">
        <ele>1162</ele>
        <time>2019-05-04T16:47:09Z</time>
      </trkpt>
      <trkpt lat="46.71822" lon="6.36849">
        <ele>1163</ele>
        <time>2019-05-04T16:47:15Z</time>
      </trkpt>
      <trkpt lat="46.71823" lon="6.36856">
        <ele>1162</ele>
        <time>2019-05-04T16:47:18Z</time>
      </trkpt>
      <trkpt lat="46.71825" lon="6.36867">
        <ele>1161</ele>
        <time>2019-05-04T16:47:24Z</time>
      </trkpt>
      <trkpt lat="46.71827" lon="6.36873">
        <ele>1161</ele>
        <time>2019-05-04T16:47:28Z</time>
      </trkpt>
      <trkpt lat="46.71828" lon="6.36881">
        <ele>1160</ele>
        <time>2019-05-04T16:47:31Z</time>
      </trkpt>
      <trkpt lat="46.7183" lon="6.36886">
        <ele>1161</ele>
        <time>2019-05-04T16:47:34Z</time>
      </trkpt>
      <trkpt lat="46.71831" lon="6.36891">
        <ele>1160</ele>
        <time>2019-05-04T16:47:37Z</time>
      </trkpt>
      <trkpt lat="46.71832" lon="6.36895">
        <ele>1160</ele>
        <time>2019-05-04T16:47:39Z</time>
      </trkpt>
      <trkpt lat="46.71834" lon="6.36898">
        <ele>1161</ele>
        <time>2019-05-04T16:47:41Z</time>
      </trkpt>
      <trkpt lat="46.7184" lon="6.36901">
        <ele>1164</ele>
        <time>2019-05-04T16:47:46Z</time>
      </trkpt>
      <trkpt lat="46.71842" lon="6.36905">
        <ele>1164</ele>
        <time>2019-05-04T16:47:48Z</time>
      </trkpt>
      <trkpt lat="46.71845" lon="6.36913">
        <ele>1165</ele>
        <time>2019-05-04T16:47:53Z</time>
      </trkpt>
      <trkpt lat="46.71846" lon="6.36919">
        <ele>1164</ele>
        <time>2019-05-04T16:47:56Z</time>
      </trkpt>
      <trkpt lat="46.71845" lon="6.36923">
        <ele>1163</ele>
        <time>2019-05-04T16:47:59Z</time>
      </trkpt>
      <trkpt lat="46.71844" lon="6.36934">
        <ele>1160</ele>
        <time>2019-05-04T16:48:04Z</time>
      </trkpt>
      <trkpt lat="46.71843" lon="6.36942">
        <ele>1157</ele>
        <time>2019-05-04T16:48:09Z</time>
      </trkpt>
      <trkpt lat="46.71841" lon="6.3695">
        <ele>1154</ele>
        <time>2019-05-04T16:48:14Z</time>
      </trkpt>
      <trkpt lat="46.71841" lon="6.36956">
        <ele>1153</ele>
        <time>2019-05-04T16:48:17Z</time>
      </trkpt>
      <trkpt lat="46.71839" lon="6.36967">
        <ele>1150</ele>
        <time>2019-05-04T16:48:23Z</time>
      </trkpt>
      <trkpt lat="46.71836" lon="6.36975">
        <ele>1146</ele>
        <time>2019-05-04T16:48:28Z</time>
      </trkpt>
      <trkpt lat="46.71835" lon="6.36987">
        <ele>1144</ele>
        <time>2019-05-04T16:48:34Z</time>
      </trkpt>
      <trkpt lat="46.71834" lon="6.36998">
        <ele>1141</ele>
        <time>2019-05-04T16:48:40Z</time>
      </trkpt>
      <trkpt lat="46.71833" lon="6.37006">
        <ele>1138</ele>
        <time>2019-05-04T16:48:45Z</time>
      </trkpt>
      <trkpt lat="46.71835" lon="6.37011">
        <ele>1139</ele>
        <time>2019-05-04T16:48:48Z</time>
      </trkpt>
      <trkpt lat="46.71834" lon="6.37024">
        <ele>1136</ele>
        <time>2019-05-04T16:48:54Z</time>
      </trkpt>
      <trkpt lat="46.71835" lon="6.37041">
        <ele>1134</ele>
        <time>2019-05-04T16:49:03Z</time>
      </trkpt>
      <trkpt lat="46.71834" lon="6.37049">
        <ele>1133</ele>
        <time>2019-05-04T16:49:07Z</time>
      </trkpt>
      <trkpt lat="46.71833" lon="6.37058">
        <ele>1131</ele>
        <time>2019-05-04T16:49:12Z</time>
      </trkpt>
      <trkpt lat="46.71833" lon="6.37061">
        <ele>1130</ele>
        <time>2019-05-04T16:49:13Z</time>
      </trkpt>
      <trkpt lat="46.71833" lon="6.37065">
        <ele>1130</ele>
        <time>2019-05-04T16:49:15Z</time>
      </trkpt>
      <trkpt lat="46.71833" lon="6.37074">
        <ele>1128</ele>
        <time>2019-05-04T16:49:20Z</time>
      </trkpt>
      <trkpt lat="46.71833" lon="6.37083">
        <ele>1127</ele>
        <time>2019-05-04T16:49:24Z</time>
      </trkpt>
      <trkpt lat="46.71833" lon="6.37095">
        <ele>1125</ele>
        <time>2019-05-04T16:49:31Z</time>
      </trkpt>
      <trkpt lat="46.71834" lon="6.37104">
        <ele>1124</ele>
        <time>2019-05-04T16:49:35Z</time>
      </trkpt>
      <trkpt lat="46.71835" lon="6.37112">
        <ele>1123</ele>
        <time>2019-05-04T16:49:39Z</time>
      </trkpt>
      <trkpt lat="46.71835" lon="6.37119">
        <ele>1122</ele>
        <time>2019-05-04T16:49:43Z</time>
      </trkpt>
      <trkpt lat="46.71836" lon="6.37125">
        <ele>1121</ele>
        <time>2019-05-04T16:49:46Z</time>
      </trkpt>
      <trkpt lat="46.71837" lon="6.37134">
        <ele>1120</ele>
        <time>2019-05-04T16:49:51Z</time>
      </trkpt>
      <trkpt lat="46.7184" lon="6.37142">
        <ele>1120</ele>
        <time>2019-05-04T16:49:55Z</time>
      </trkpt>
      <trkpt lat="46.71841" lon="6.37148">
        <ele>1119</ele>
        <time>2019-05-04T16:49:58Z</time>
      </trkpt>
      <trkpt lat="46.71841" lon="6.37156">
        <ele>1117</ele>
        <time>2019-05-04T16:50:02Z</time>
      </trkpt>
      <trkpt lat="46.71842" lon="6.37163">
        <ele>1116</ele>
        <time>2019-05-04T16:50:06Z</time>
      </trkpt>
      <trkpt lat="46.71844" lon="6.37175">
        <ele>1115</ele>
        <time>2019-05-04T16:50:12Z</time>
      </trkpt>
      <trkpt lat="46.71853" lon="6.37197">
        <ele>1115</ele>
        <time>2019-05-04T16:50:25Z</time>
      </trkpt>
      <trkpt lat="46.71855" lon="6.372">
        <ele>1115</ele>
        <time>2019-05-04T16:50:27Z</time>
      </trkpt>
      <trkpt lat="46.71859" lon="6.37208">
        <ele>1116</ele>
        <time>2019-05-04T16:50:32Z</time>
      </trkpt>
      <trkpt lat="46.71862" lon="6.37213">
        <ele>1116</ele>
        <time>2019-05-04T16:50:35Z</time>
      </trkpt>
      <trkpt lat="46.71862" lon="6.3722">
        <ele>1114</ele>
        <time>2019-05-04T16:50:39Z</time>
      </trkpt>
      <trkpt lat="46.71863" lon="6.37228">
        <ele>1112</ele>
        <time>2019-05-04T16:50:43Z</time>
      </trkpt>
      <trkpt lat="46.71866" lon="6.37238">
        <ele>1111</ele>
        <time>2019-05-04T16:50:48Z</time>
      </trkpt>
      <trkpt lat="46.71865" lon="6.3725">
        <ele>1106</ele>
        <time>2019-05-04T16:50:55Z</time>
      </trkpt>
      <trkpt lat="46.71867" lon="6.37251">
        <ele>1107</ele>
        <time>2019-05-04T16:50:56Z</time>
      </trkpt>
      <trkpt lat="46.71871" lon="6.37257">
        <ele>1107</ele>
        <time>2019-05-04T16:51:00Z</time>
      </trkpt>
      <trkpt lat="46.71873" lon="6.37261">
        <ele>1107</ele>
        <time>2019-05-04T16:51:03Z</time>
      </trkpt>
      <trkpt lat="46.71873" lon="6.37263">
        <ele>1107</ele>
        <time>2019-05-04T16:51:04Z</time>
      </trkpt>
      <trkpt lat="46.71876" lon="6.37265">
        <ele>1108</ele>
        <time>2019-05-04T16:51:06Z</time>
      </trkpt>
      <trkpt lat="46.7188" lon="6.37266">
        <ele>1110</ele>
        <time>2019-05-04T16:51:10Z</time>
      </trkpt>
      <trkpt lat="46.7188" lon="6.37277">
        <ele>1106</ele>
        <time>2019-05-04T16:51:16Z</time>
      </trkpt>
      <trkpt lat="46.71881" lon="6.37287">
        <ele>1103</ele>
        <time>2019-05-04T16:51:21Z</time>
      </trkpt>
      <trkpt lat="46.71884" lon="6.37296">
        <ele>1100</ele>
        <time>2019-05-04T16:51:27Z</time>
      </trkpt>
      <trkpt lat="46.71888" lon="6.37303">
        <ele>1100</ele>
        <time>2019-05-04T16:51:31Z</time>
      </trkpt>
      <trkpt lat="46.71891" lon="6.37307">
        <ele>1100</ele>
        <time>2019-05-04T16:51:34Z</time>
      </trkpt>
      <trkpt lat="46.71894" lon="6.37313">
        <ele>1099</ele>
        <time>2019-05-04T16:51:38Z</time>
      </trkpt>
      <trkpt lat="46.71897" lon="6.37321">
        <ele>1098</ele>
        <time>2019-05-04T16:51:42Z</time>
      </trkpt>
      <trkpt lat="46.71899" lon="6.37324">
        <ele>1098</ele>
        <time>2019-05-04T16:51:45Z</time>
      </trkpt>
      <trkpt lat="46.71902" lon="6.37332">
        <ele>1096</ele>
        <time>2019-05-04T16:51:49Z</time>
      </trkpt>
      <trkpt lat="46.71911" lon="6.37343">
        <ele>1097</ele>
        <time>2019-05-04T16:51:58Z</time>
      </trkpt>
      <trkpt lat="46.71915" lon="6.37347">
        <ele>1099</ele>
        <time>2019-05-04T16:52:02Z</time>
      </trkpt>
      <trkpt lat="46.71921" lon="6.37353">
        <ele>1100</ele>
        <time>2019-05-04T16:52:07Z</time>
      </trkpt>
      <trkpt lat="46.7193" lon="6.37362">
        <ele>1102</ele>
        <time>2019-05-04T16:52:15Z</time>
      </trkpt>
      <trkpt lat="46.71932" lon="6.37364">
        <ele>1102</ele>
        <time>2019-05-04T16:52:16Z</time>
      </trkpt>
      <trkpt lat="46.71935" lon="6.37367">
        <ele>1103</ele>
        <time>2019-05-04T16:52:19Z</time>
      </trkpt>
      <trkpt lat="46.7194" lon="6.37371">
        <ele>1104</ele>
        <time>2019-05-04T16:52:23Z</time>
      </trkpt>
      <trkpt lat="46.71955" lon="6.37389">
        <ele>1102</ele>
        <time>2019-05-04T16:52:37Z</time>
      </trkpt>
      <trkpt lat="46.71967" lon="6.37403">
        <ele>1100</ele>
        <time>2019-05-04T16:52:49Z</time>
      </trkpt>
      <trkpt lat="46.71974" lon="6.37411">
        <ele>1099</ele>
        <time>2019-05-04T16:52:55Z</time>
      </trkpt>
      <trkpt lat="46.71981" lon="6.37416">
        <ele>1099</ele>
        <time>2019-05-04T16:53:01Z</time>
      </trkpt>
      <trkpt lat="46.7199" lon="6.37418">
        <ele>1102</ele>
        <time>2019-05-04T16:53:08Z</time>
      </trkpt>
      <trkpt lat="46.71996" lon="6.3742">
        <ele>1104</ele>
        <time>2019-05-04T16:53:12Z</time>
      </trkpt>
      <trkpt lat="46.72008" lon="6.37422">
        <ele>1107</ele>
        <time>2019-05-04T16:53:21Z</time>
      </trkpt>
      <trkpt lat="46.72018" lon="6.37428">
        <ele>1109</ele>
        <time>2019-05-04T16:53:29Z</time>
      </trkpt>
      <trkpt lat="46.72024" lon="6.37435">
        <ele>1108</ele>
        <time>2019-05-04T16:53:35Z</time>
      </trkpt>
      <trkpt lat="46.72031" lon="6.3744">
        <ele>1107</ele>
        <time>2019-05-04T16:53:40Z</time>
      </trkpt>
      <trkpt lat="46.72036" lon="6.37442">
        <ele>1107</ele>
        <time>2019-05-04T16:53:44Z</time>
      </trkpt>
      <trkpt lat="46.72042" lon="6.37447">
        <ele>1105</ele>
        <time>2019-05-04T16:53:49Z</time>
      </trkpt>
      <trkpt lat="46.72048" lon="6.37452">
        <ele>1104</ele>
        <time>2019-05-04T16:53:54Z</time>
      </trkpt>
      <trkpt lat="46.72053" lon="6.37458">
        <ele>1102</ele>
        <time>2019-05-04T16:53:59Z</time>
      </trkpt>
      <trkpt lat="46.72059" lon="6.37463">
        <ele>1100</ele>
        <time>2019-05-04T16:54:04Z</time>
      </trkpt>
      <trkpt lat="46.72065" lon="6.37467">
        <ele>1099</ele>
        <time>2019-05-04T16:54:09Z</time>
      </trkpt>
      <trkpt lat="46.72069" lon="6.3747">
        <ele>1098</ele>
        <time>2019-05-04T16:54:12Z</time>
      </trkpt>
      <trkpt lat="46.72073" lon="6.37472">
        <ele>1098</ele>
        <time>2019-05-04T16:54:15Z</time>
      </trkpt>
      <trkpt lat="46.72078" lon="6.37475">
        <ele>1097</ele>
        <time>2019-05-04T16:54:19Z</time>
      </trkpt>
      <trkpt lat="46.72089" lon="6.37486">
        <ele>1094</ele>
        <time>2019-05-04T16:54:29Z</time>
      </trkpt>
      <trkpt lat="46.72094" lon="6.3749">
        <ele>1093</ele>
        <time>2019-05-04T16:54:33Z</time>
      </trkpt>
      <trkpt lat="46.72096" lon="6.37493">
        <ele>1092</ele>
        <time>2019-05-04T16:54:36Z</time>
      </trkpt>
      <trkpt lat="46.72099" lon="6.37493">
        <ele>1092</ele>
        <time>2019-05-04T16:54:37Z</time>
      </trkpt>
      <trkpt lat="46.72102" lon="6.37495">
        <ele>1092</ele>
        <time>2019-05-04T16:54:40Z</time>
      </trkpt>
      <trkpt lat="46.72107" lon="6.37496">
        <ele>1092</ele>
        <time>2019-05-04T16:54:43Z</time>
      </trkpt>
      <trkpt lat="46.72112" lon="6.37496">
        <ele>1092</ele>
        <time>2019-05-04T16:54:47Z</time>
      </trkpt>
      <trkpt lat="46.72116" lon="6.37496">
        <ele>1093</ele>
        <time>2019-05-04T16:54:50Z</time>
      </trkpt>
      <trkpt lat="46.72119" lon="6.37496">
        <ele>1093</ele>
        <time>2019-05-04T16:54:52Z</time>
      </trkpt>
      <trkpt lat="46.7212" lon="6.37496">
        <ele>1093</ele>
        <time>2019-05-04T16:54:53Z</time>
      </trkpt>
      <trkpt lat="46.72128" lon="6.37506">
        <ele>1088</ele>
        <time>2019-05-04T16:55:01Z</time>
      </trkpt>
      <trkpt lat="46.7213" lon="6.37508">
        <ele>1087</ele>
        <time>2019-05-04T16:55:03Z</time>
      </trkpt>
      <trkpt lat="46.72135" lon="6.37511">
        <ele>1086</ele>
        <time>2019-05-04T16:55:07Z</time>
      </trkpt>
      <trkpt lat="46.7214" lon="6.37509">
        <ele>1087</ele>
        <time>2019-05-04T16:55:11Z</time>
      </trkpt>
      <trkpt lat="46.72143" lon="6.3751">
        <ele>1087</ele>
        <time>2019-05-04T16:55:13Z</time>
      </trkpt>
      <trkpt lat="46.72147" lon="6.3751">
        <ele>1087</ele>
        <time>2019-05-04T16:55:16Z</time>
      </trkpt>
      <trkpt lat="46.72153" lon="6.3751">
        <ele>1087</ele>
        <time>2019-05-04T16:55:20Z</time>
      </trkpt>
      <trkpt lat="46.72157" lon="6.37509">
        <ele>1087</ele>
        <time>2019-05-04T16:55:23Z</time>
      </trkpt>
      <trkpt lat="46.72163" lon="6.3751">
        <ele>1087</ele>
        <time>2019-05-04T16:55:28Z</time>
      </trkpt>
      <trkpt lat="46.7217" lon="6.37514">
        <ele>1086</ele>
        <time>2019-05-04T16:55:33Z</time>
      </trkpt>
      <trkpt lat="46.72174" lon="6.37517">
        <ele>1084</ele>
        <time>2019-05-04T16:55:37Z</time>
      </trkpt>
      <trkpt lat="46.72177" lon="6.37521">
        <ele>1083</ele>
        <time>2019-05-04T16:55:40Z</time>
      </trkpt>
      <trkpt lat="46.72182" lon="6.37528">
        <ele>1080</ele>
        <time>2019-05-04T16:55:45Z</time>
      </trkpt>
      <trkpt lat="46.72199" lon="6.37543">
        <ele>1075</ele>
        <time>2019-05-04T16:56:00Z</time>
      </trkpt>
      <trkpt lat="46.72202" lon="6.37549">
        <ele>1073</ele>
        <time>2019-05-04T16:56:03Z</time>
      </trkpt>
      <trkpt lat="46.72206" lon="6.37553">
        <ele>1072</ele>
        <time>2019-05-04T16:56:07Z</time>
      </trkpt>
      <trkpt lat="46.72214" lon="6.37559">
        <ele>1069</ele>
        <time>2019-05-04T16:56:14Z</time>
      </trkpt>
      <trkpt lat="46.72231" lon="6.37572">
        <ele>1065</ele>
        <time>2019-05-04T16:56:28Z</time>
      </trkpt>
      <trkpt lat="46.72235" lon="6.37575">
        <ele>1064</ele>
        <time>2019-05-04T16:56:32Z</time>
      </trkpt>
      <trkpt lat="46.72239" lon="6.3758">
        <ele>1062</ele>
        <time>2019-05-04T16:56:35Z</time>
      </trkpt>
      <trkpt lat="46.72243" lon="6.37586">
        <ele>1061</ele>
        <time>2019-05-04T16:56:40Z</time>
      </trkpt>
      <trkpt lat="46.72247" lon="6.37596">
        <ele>1058</ele>
        <time>2019-05-04T16:56:46Z</time>
      </trkpt>
      <trkpt lat="46.72251" lon="6.37607">
        <ele>1055</ele>
        <time>2019-05-04T16:56:52Z</time>
      </trkpt>
      <trkpt lat="46.72253" lon="6.37615">
        <ele>1053</ele>
        <time>2019-05-04T16:56:57Z</time>
      </trkpt>
      <trkpt lat="46.72256" lon="6.37623">
        <ele>1051</ele>
        <time>2019-05-04T16:57:01Z</time>
      </trkpt>
      <trkpt lat="46.72259" lon="6.37634">
        <ele>1049</ele>
        <time>2019-05-04T16:57:08Z</time>
      </trkpt>
      <trkpt lat="46.72259" lon="6.37652">
        <ele>1045</ele>
        <time>2019-05-04T16:57:17Z</time>
      </trkpt>
      <trkpt lat="46.72258" lon="6.37658">
        <ele>1043</ele>
        <time>2019-05-04T16:57:20Z</time>
      </trkpt>
      <trkpt lat="46.72255" lon="6.37668">
        <ele>1041</ele>
        <time>2019-05-04T16:57:26Z</time>
      </trkpt>
      <trkpt lat="46.72254" lon="6.37671">
        <ele>1040</ele>
        <time>2019-05-04T16:57:27Z</time>
      </trkpt>
      <trkpt lat="46.7225" lon="6.37677">
        <ele>1038</ele>
        <time>2019-05-04T16:57:32Z</time>
      </trkpt>
      <trkpt lat="46.72244" lon="6.37681">
        <ele>1037</ele>
        <time>2019-05-04T16:57:37Z</time>
      </trkpt>
      <trkpt lat="46.72234" lon="6.37683">
        <ele>1036</ele>
        <time>2019-05-04T16:57:44Z</time>
      </trkpt>
      <trkpt lat="46.72227" lon="6.37681">
        <ele>1035</ele>
        <time>2019-05-04T16:57:49Z</time>
      </trkpt>
      <trkpt lat="46.72222" lon="6.3768">
        <ele>1036</ele>
        <time>2019-05-04T16:57:53Z</time>
      </trkpt>
      <trkpt lat="46.72218" lon="6.37679">
        <ele>1036</ele>
        <time>2019-05-04T16:57:56Z</time>
      </trkpt>
      <trkpt lat="46.72213" lon="6.37678">
        <ele>1036</ele>
        <time>2019-05-04T16:58:00Z</time>
      </trkpt>
      <trkpt lat="46.72203" lon="6.37679">
        <ele>1035</ele>
        <time>2019-05-04T16:58:07Z</time>
      </trkpt>
      <trkpt lat="46.72186" lon="6.37677">
        <ele>1033</ele>
        <time>2019-05-04T16:58:20Z</time>
      </trkpt>
      <trkpt lat="46.7218" lon="6.37675">
        <ele>1033</ele>
        <time>2019-05-04T16:58:24Z</time>
      </trkpt>
      <trkpt lat="46.72175" lon="6.37672">
        <ele>1033</ele>
        <time>2019-05-04T16:58:27Z</time>
      </trkpt>
      <trkpt lat="46.72169" lon="6.37671">
        <ele>1033</ele>
        <time>2019-05-04T16:58:32Z</time>
      </trkpt>
      <trkpt lat="46.72159" lon="6.37675">
        <ele>1030</ele>
        <time>2019-05-04T16:58:40Z</time>
      </trkpt>
      <trkpt lat="46.72154" lon="6.37681">
        <ele>1027</ele>
        <time>2019-05-04T16:58:45Z</time>
      </trkpt>
      <trkpt lat="46.72147" lon="6.37692">
        <ele>1023</ele>
        <time>2019-05-04T16:58:52Z</time>
      </trkpt>
      <trkpt lat="46.7214" lon="6.37697">
        <ele>1021</ele>
        <time>2019-05-04T16:58:58Z</time>
      </trkpt>
      <trkpt lat="46.72136" lon="6.37698">
        <ele>1020</ele>
        <time>2019-05-04T16:59:01Z</time>
      </trkpt>
      <trkpt lat="46.72131" lon="6.37699">
        <ele>1019</ele>
        <time>2019-05-04T16:59:05Z</time>
      </trkpt>
      <trkpt lat="46.72123" lon="6.37701">
        <ele>1017</ele>
        <time>2019-05-04T16:59:11Z</time>
      </trkpt>
      <trkpt lat="46.7211" lon="6.37706">
        <ele>1014</ele>
        <time>2019-05-04T16:59:21Z</time>
      </trkpt>
      <trkpt lat="46.72101" lon="6.37708">
        <ele>1012</ele>
        <time>2019-05-04T16:59:28Z</time>
      </trkpt>
      <trkpt lat="46.72095" lon="6.37708">
        <ele>1011</ele>
        <time>2019-05-04T16:59:32Z</time>
      </trkpt>
      <trkpt lat="46.7209" lon="6.37707">
        <ele>1010</ele>
        <time>2019-05-04T16:59:36Z</time>
      </trkpt>
      <trkpt lat="46.72084" lon="6.37706">
        <ele>1009</ele>
        <time>2019-05-04T16:59:40Z</time>
      </trkpt>
      <trkpt lat="46.72077" lon="6.37708">
        <ele>1008</ele>
        <time>2019-05-04T16:59:45Z</time>
      </trkpt>
      <trkpt lat="46.72069" lon="6.3771">
        <ele>1006</ele>
        <time>2019-05-04T16:59:51Z</time>
      </trkpt>
      <trkpt lat="46.72063" lon="6.37712">
        <ele>1004</ele>
        <time>2019-05-04T16:59:56Z</time>
      </trkpt>
      <trkpt lat="46.72058" lon="6.37713">
        <ele>1003</ele>
        <time>2019-05-04T16:59:59Z</time>
      </trkpt>
      <trkpt lat="46.72055" lon="6.37713">
        <ele>1003</ele>
        <time>2019-05-04T17:00:02Z</time>
      </trkpt>
      <trkpt lat="46.7205" lon="6.37714">
        <ele>1002</ele>
        <time>2019-05-04T17:00:05Z</time>
      </trkpt>
      <trkpt lat="46.7204" lon="6.37713">
        <ele>1000</ele>
        <time>2019-05-04T17:00:13Z</time>
      </trkpt>
      <trkpt lat="46.72027" lon="6.37715">
        <ele>998</ele>
        <time>2019-05-04T17:00:22Z</time>
      </trkpt>
      <trkpt lat="46.72019" lon="6.37719">
        <ele>995</ele>
        <time>2019-05-04T17:00:29Z</time>
      </trkpt>
      <trkpt lat="46.72014" lon="6.37721">
        <ele>994</ele>
        <time>2019-05-04T17:00:33Z</time>
      </trkpt>
      <trkpt lat="46.72008" lon="6.37723">
        <ele>992</ele>
        <time>2019-05-04T17:00:37Z</time>
      </trkpt>
      <trkpt lat="46.71998" lon="6.37725">
        <ele>990</ele>
        <time>2019-05-04T17:00:45Z</time>
      </trkpt>
      <trkpt lat="46.71987" lon="6.37722">
        <ele>988</ele>
        <time>2019-05-04T17:00:53Z</time>
      </trkpt>
      <trkpt lat="46.71974" lon="6.37717">
        <ele>986</ele>
        <time>2019-05-04T17:01:02Z</time>
      </trkpt>
      <trkpt lat="46.7197" lon="6.37715">
        <ele>986</ele>
        <time>2019-05-04T17:01:06Z</time>
      </trkpt>
      <trkpt lat="46.71966" lon="6.37712">
        <ele>986</ele>
        <time>2019-05-04T17:01:09Z</time>
      </trkpt>
      <trkpt lat="46.7196" lon="6.37708">
        <ele>985</ele>
        <time>2019-05-04T17:01:14Z</time>
      </trkpt>
      <trkpt lat="46.71955" lon="6.37705">
        <ele>985</ele>
        <time>2019-05-04T17:01:17Z</time>
      </trkpt>
      <trkpt lat="46.71949" lon="6.37701">
        <ele>984</ele>
        <time>2019-05-04T17:01:23Z</time>
      </trkpt>
      <trkpt lat="46.71942" lon="6.37693">
        <ele>983</ele>
        <time>2019-05-04T17:01:29Z</time>
      </trkpt>
      <trkpt lat="46.71938" lon="6.37693">
        <ele>982</ele>
        <time>2019-05-04T17:01:32Z</time>
      </trkpt>
      <trkpt lat="46.71937" lon="6.37692">
        <ele>982</ele>
        <time>2019-05-04T17:01:33Z</time>
      </trkpt>
      <trkpt lat="46.71936" lon="6.37693">
        <ele>982</ele>
        <time>2019-05-04T17:01:33Z</time>
      </trkpt>
      <trkpt lat="46.71932" lon="6.37693">
        <ele>981</ele>
        <time>2019-05-04T17:01:36Z</time>
      </trkpt>
      <trkpt lat="46.71929" lon="6.37693">
        <ele>980</ele>
        <time>2019-05-04T17:01:38Z</time>
      </trkpt>
      <trkpt lat="46.71924" lon="6.37694">
        <ele>978</ele>
        <time>2019-05-04T17:01:43Z</time>
      </trkpt>
      <trkpt lat="46.71912" lon="6.37697">
        <ele>975</ele>
        <time>2019-05-04T17:01:51Z</time>
      </trkpt>
      <trkpt lat="46.71908" lon="6.37696">
        <ele>974</ele>
        <time>2019-05-04T17:01:54Z</time>
      </trkpt>
      <trkpt lat="46.71906" lon="6.37695">
        <ele>974</ele>
        <time>2019-05-04T17:01:55Z</time>
      </trkpt>
      <trkpt lat="46.71903" lon="6.37695">
        <ele>973</ele>
        <time>2019-05-04T17:01:58Z</time>
      </trkpt>
      <trkpt lat="46.71898" lon="6.37694">
        <ele>971</ele>
        <time>2019-05-04T17:02:02Z</time>
      </trkpt>
      <trkpt lat="46.71896" lon="6.37693">
        <ele>971</ele>
        <time>2019-05-04T17:02:03Z</time>
      </trkpt>
      <trkpt lat="46.71891" lon="6.37693">
        <ele>970</ele>
        <time>2019-05-04T17:02:07Z</time>
      </trkpt>
      <trkpt lat="46.71889" lon="6.37691">
        <ele>969</ele>
        <time>2019-05-04T17:02:09Z</time>
      </trkpt>
      <trkpt lat="46.71879" lon="6.37685">
        <ele>968</ele>
        <time>2019-05-04T17:02:17Z</time>
      </trkpt>
      <trkpt lat="46.71877" lon="6.37682">
        <ele>967</ele>
        <time>2019-05-04T17:02:19Z</time>
      </trkpt>
      <trkpt lat="46.71874" lon="6.37681">
        <ele>967</ele>
        <time>2019-05-04T17:02:21Z</time>
      </trkpt>
      <trkpt lat="46.71868" lon="6.37678">
        <ele>965</ele>
        <time>2019-05-04T17:02:26Z</time>
      </trkpt>
      <trkpt lat="46.71863" lon="6.37676">
        <ele>964</ele>
        <time>2019-05-04T17:02:30Z</time>
      </trkpt>
      <trkpt lat="46.7186" lon="6.37675">
        <ele>964</ele>
        <time>2019-05-04T17:02:32Z</time>
      </trkpt>
      <trkpt lat="46.71853" lon="6.37672">
        <ele>962</ele>
        <time>2019-05-04T17:02:37Z</time>
      </trkpt>
      <trkpt lat="46.71848" lon="6.37671">
        <ele>960</ele>
        <time>2019-05-04T17:02:41Z</time>
      </trkpt>
      <trkpt lat="46.71846" lon="6.3767">
        <ele>959</ele>
        <time>2019-05-04T17:02:43Z</time>
      </trkpt>
      <trkpt lat="46.71842" lon="6.37671">
        <ele>958</ele>
        <time>2019-05-04T17:02:46Z</time>
      </trkpt>
      <trkpt lat="46.71841" lon="6.37671">
        <ele>957</ele>
        <time>2019-05-04T17:02:46Z</time>
      </trkpt>
      <trkpt lat="46.71839" lon="6.3767">
        <ele>957</ele>
        <time>2019-05-04T17:02:48Z</time>
      </trkpt>
      <trkpt lat="46.71835" lon="6.37669">
        <ele>955</ele>
        <time>2019-05-04T17:02:51Z</time>
      </trkpt>
      <trkpt lat="46.71831" lon="6.37669">
        <ele>954</ele>
        <time>2019-05-04T17:02:54Z</time>
      </trkpt>
      <trkpt lat="46.71826" lon="6.37669">
        <ele>952</ele>
        <time>2019-05-04T17:02:58Z</time>
      </trkpt>
      <trkpt lat="46.71822" lon="6.37668">
        <ele>951</ele>
        <time>2019-05-04T17:03:01Z</time>
      </trkpt>
      <trkpt lat="46.71815" lon="6.37662">
        <ele>949</ele>
        <time>2019-05-04T17:03:07Z</time>
      </trkpt>
      <trkpt lat="46.71811" lon="6.37661">
        <ele>948</ele>
        <time>2019-05-04T17:03:10Z</time>
      </trkpt>
      <trkpt lat="46.71809" lon="6.37661">
        <ele>947</ele>
        <time>2019-05-04T17:03:12Z</time>
      </trkpt>
      <trkpt lat="46.71804" lon="6.37656">
        <ele>946</ele>
        <time>2019-05-04T17:03:16Z</time>
      </trkpt>
      <trkpt lat="46.71798" lon="6.37649">
        <ele>944</ele>
        <time>2019-05-04T17:03:22Z</time>
      </trkpt>
      <trkpt lat="46.71796" lon="6.37644">
        <ele>944</ele>
        <time>2019-05-04T17:03:25Z</time>
      </trkpt>
      <trkpt lat="46.71795" lon="6.37639">
        <ele>944</ele>
        <time>2019-05-04T17:03:27Z</time>
      </trkpt>
      <trkpt lat="46.71794" lon="6.37627">
        <ele>945</ele>
        <time>2019-05-04T17:03:33Z</time>
      </trkpt>
      <trkpt lat="46.71793" lon="6.37609">
        <ele>947</ele>
        <time>2019-05-04T17:03:42Z</time>
      </trkpt>
      <trkpt lat="46.71793" lon="6.37603">
        <ele>948</ele>
        <time>2019-05-04T17:03:45Z</time>
      </trkpt>
      <trkpt lat="46.71794" lon="6.37598">
        <ele>949</ele>
        <time>2019-05-04T17:03:48Z</time>
      </trkpt>
      <trkpt lat="46.71794" lon="6.37584">
        <ele>952</ele>
        <time>2019-05-04T17:03:55Z</time>
      </trkpt>
      <trkpt lat="46.71793" lon="6.37576">
        <ele>953</ele>
        <time>2019-05-04T17:03:59Z</time>
      </trkpt>
      <trkpt lat="46.71787" lon="6.37567">
        <ele>952</ele>
        <time>2019-05-04T17:04:05Z</time>
      </trkpt>
      <trkpt lat="46.71776" lon="6.37545">
        <ele>951</ele>
        <time>2019-05-04T17:04:19Z</time>
      </trkpt>
      <trkpt lat="46.71771" lon="6.37535">
        <ele>951</ele>
        <time>2019-05-04T17:04:25Z</time>
      </trkpt>
      <trkpt lat="46.71767" lon="6.3753">
        <ele>950</ele>
        <time>2019-05-04T17:04:29Z</time>
      </trkpt>
      <trkpt lat="46.71761" lon="6.37525">
        <ele>948</ele>
        <time>2019-05-04T17:04:34Z</time>
      </trkpt>
      <trkpt lat="46.71753" lon="6.37519">
        <ele>945</ele>
        <time>2019-05-04T17:04:41Z</time>
      </trkpt>
      <trkpt lat="46.71736" lon="6.37508">
        <ele>939</ele>
        <time>2019-05-04T17:04:55Z</time>
      </trkpt>
      <trkpt lat="46.7173" lon="6.37505">
        <ele>937</ele>
        <time>2019-05-04T17:05:00Z</time>
      </trkpt>
      <trkpt lat="46.71728" lon="6.37504">
        <ele>936</ele>
        <time>2019-05-04T17:05:01Z</time>
      </trkpt>
      <trkpt lat="46.71725" lon="6.37503">
        <ele>935</ele>
        <time>2019-05-04T17:05:04Z</time>
      </trkpt>
      <trkpt lat="46.7172" lon="6.37501">
        <ele>933</ele>
        <time>2019-05-04T17:05:07Z</time>
      </trkpt>
      <trkpt lat="46.71704" lon="6.37494">
        <ele>927</ele>
        <time>2019-05-04T17:05:20Z</time>
      </trkpt>
      <trkpt lat="46.71695" lon="6.37485">
        <ele>925</ele>
        <time>2019-05-04T17:05:28Z</time>
      </trkpt>
      <trkpt lat="46.71691" lon="6.37481">
        <ele>923</ele>
        <time>2019-05-04T17:05:32Z</time>
      </trkpt>
      <trkpt lat="46.71688" lon="6.37476">
        <ele>922</ele>
        <time>2019-05-04T17:05:35Z</time>
      </trkpt>
      <trkpt lat="46.71684" lon="6.3747">
        <ele>921</ele>
        <time>2019-05-04T17:05:40Z</time>
      </trkpt>
      <trkpt lat="46.71669" lon="6.37451">
        <ele>916</ele>
        <time>2019-05-04T17:05:54Z</time>
      </trkpt>
      <trkpt lat="46.71666" lon="6.37446">
        <ele>915</ele>
        <time>2019-05-04T17:05:58Z</time>
      </trkpt>
      <trkpt lat="46.71662" lon="6.3744">
        <ele>914</ele>
        <time>2019-05-04T17:06:02Z</time>
      </trkpt>
      <trkpt lat="46.7166" lon="6.37435">
        <ele>914</ele>
        <time>2019-05-04T17:06:05Z</time>
      </trkpt>
      <trkpt lat="46.71653" lon="6.37426">
        <ele>912</ele>
        <time>2019-05-04T17:06:12Z</time>
      </trkpt>
      <trkpt lat="46.71642" lon="6.37412">
        <ele>908</ele>
        <time>2019-05-04T17:06:23Z</time>
      </trkpt>
      <trkpt lat="46.71636" lon="6.37405">
        <ele>907</ele>
        <time>2019-05-04T17:06:28Z</time>
      </trkpt>
      <trkpt lat="46.71633" lon="6.37397">
        <ele>906</ele>
        <time>2019-05-04T17:06:33Z</time>
      </trkpt>
      <trkpt lat="46.71624" lon="6.37386">
        <ele>903</ele>
        <time>2019-05-04T17:06:41Z</time>
      </trkpt>
      <trkpt lat="46.7162" lon="6.37378">
        <ele>903</ele>
        <time>2019-05-04T17:06:46Z</time>
      </trkpt>
      <trkpt lat="46.71617" lon="6.37372">
        <ele>902</ele>
        <time>2019-05-04T17:06:49Z</time>
      </trkpt>
      <trkpt lat="46.71611" lon="6.37362">
        <ele>901</ele>
        <time>2019-05-04T17:06:56Z</time>
      </trkpt>
      <trkpt lat="46.71607" lon="6.37352">
        <ele>901</ele>
        <time>2019-05-04T17:07:02Z</time>
      </trkpt>
      <trkpt lat="46.716" lon="6.37335">
        <ele>899</ele>
        <time>2019-05-04T17:07:12Z</time>
      </trkpt>
      <trkpt lat="46.71599" lon="6.37335">
        <ele>898</ele>
        <time>2019-05-04T17:07:13Z</time>
      </trkpt>
      <trkpt lat="46.71598" lon="6.37338">
        <ele>897</ele>
        <time>2019-05-04T17:07:14Z</time>
      </trkpt>
      <trkpt lat="46.71597" lon="6.37336">
        <ele>897</ele>
        <time>2019-05-04T17:07:16Z</time>
      </trkpt>
      <trkpt lat="46.71595" lon="6.37331">
        <ele>896</ele>
        <time>2019-05-04T17:07:19Z</time>
      </trkpt>
      <trkpt lat="46.71592" lon="6.37326">
        <ele>896</ele>
        <time>2019-05-04T17:07:22Z</time>
      </trkpt>
      <trkpt lat="46.71587" lon="6.37322">
        <ele>893</ele>
        <time>2019-05-04T17:07:26Z</time>
      </trkpt>
      <trkpt lat="46.71584" lon="6.37323">
        <ele>891</ele>
        <time>2019-05-04T17:07:29Z</time>
      </trkpt>
      <trkpt lat="46.71582" lon="6.37322">
        <ele>890</ele>
        <time>2019-05-04T17:07:30Z</time>
      </trkpt>
      <trkpt lat="46.71571" lon="6.37315">
        <ele>884</ele>
        <time>2019-05-04T17:07:40Z</time>
      </trkpt>
      <trkpt lat="46.7157" lon="6.37314">
        <ele>884</ele>
        <time>2019-05-04T17:07:41Z</time>
      </trkpt>
      <trkpt lat="46.71569" lon="6.37313">
        <ele>883</ele>
        <time>2019-05-04T17:07:42Z</time>
      </trkpt>
      <trkpt lat="46.71567" lon="6.37308">
        <ele>883</ele>
        <time>2019-05-04T17:07:45Z</time>
      </trkpt>
      <trkpt lat="46.71567" lon="6.37306">
        <ele>883</ele>
        <time>2019-05-04T17:07:46Z</time>
      </trkpt>
      <trkpt lat="46.71562" lon="6.37291">
        <ele>884</ele>
        <time>2019-05-04T17:07:54Z</time>
      </trkpt>
      <trkpt lat="46.71561" lon="6.37284">
        <ele>885</ele>
        <time>2019-05-04T17:07:58Z</time>
      </trkpt>
      <trkpt lat="46.71559" lon="6.37276">
        <ele>886</ele>
        <time>2019-05-04T17:08:02Z</time>
      </trkpt>
      <trkpt lat="46.71555" lon="6.37265">
        <ele>886</ele>
        <time>2019-05-04T17:08:08Z</time>
      </trkpt>
      <trkpt lat="46.71551" lon="6.37253">
        <ele>886</ele>
        <time>2019-05-04T17:08:15Z</time>
      </trkpt>
      <trkpt lat="46.71546" lon="6.37246">
        <ele>885</ele>
        <time>2019-05-04T17:08:20Z</time>
      </trkpt>
      <trkpt lat="46.71536" lon="6.37222">
        <ele>884</ele>
        <time>2019-05-04T17:08:33Z</time>
      </trkpt>
      <trkpt lat="46.71534" lon="6.37215">
        <ele>884</ele>
        <time>2019-05-04T17:08:37Z</time>
      </trkpt>
      <trkpt lat="46.7153" lon="6.3721">
        <ele>883</ele>
        <time>2019-05-04T17:08:41Z</time>
      </trkpt>
      <trkpt lat="46.71527" lon="6.37204">
        <ele>882</ele>
        <time>2019-05-04T17:08:45Z</time>
      </trkpt>
      <trkpt lat="46.71525" lon="6.37198">
        <ele>882</ele>
        <time>2019-05-04T17:08:48Z</time>
      </trkpt>
      <trkpt lat="46.71519" lon="6.37184">
        <ele>882</ele>
        <time>2019-05-04T17:08:57Z</time>
      </trkpt>
      <trkpt lat="46.71516" lon="6.37175">
        <ele>882</ele>
        <time>2019-05-04T17:09:01Z</time>
      </trkpt>
      <trkpt lat="46.71516" lon="6.37171">
        <ele>882</ele>
        <time>2019-05-04T17:09:03Z</time>
      </trkpt>
      <trkpt lat="46.71515" lon="6.37168">
        <ele>882</ele>
        <time>2019-05-04T17:09:05Z</time>
      </trkpt>
      <trkpt lat="46.71512" lon="6.3716">
        <ele>882</ele>
        <time>2019-05-04T17:09:10Z</time>
      </trkpt>
      <trkpt lat="46.71511" lon="6.37156">
        <ele>883</ele>
        <time>2019-05-04T17:09:12Z</time>
      </trkpt>
      <trkpt lat="46.71509" lon="6.37147">
        <ele>883</ele>
        <time>2019-05-04T17:09:16Z</time>
      </trkpt>
      <trkpt lat="46.71505" lon="6.37137">
        <ele>883</ele>
        <time>2019-05-04T17:09:22Z</time>
      </trkpt>
      <trkpt lat="46.71493" lon="6.37126">
        <ele>879</ele>
        <time>2019-05-04T17:09:33Z</time>
      </trkpt>
      <trkpt lat="46.71488" lon="6.37122">
        <ele>878</ele>
        <time>2019-05-04T17:09:37Z</time>
      </trkpt>
      <trkpt lat="46.71482" lon="6.37115">
        <ele>876</ele>
        <time>2019-05-04T17:09:43Z</time>
      </trkpt>
      <trkpt lat="46.71478" lon="6.3711">
        <ele>876</ele>
        <time>2019-05-04T17:09:46Z</time>
      </trkpt>
      <trkpt lat="46.71475" lon="6.37105">
        <ele>875</ele>
        <time>2019-05-04T17:09:50Z</time>
      </trkpt>
      <trkpt lat="46.71469" lon="6.37099">
        <ele>874</ele>
        <time>2019-05-04T17:09:55Z</time>
      </trkpt>
      <trkpt lat="46.71466" lon="6.37092">
        <ele>874</ele>
        <time>2019-05-04T17:09:59Z</time>
      </trkpt>
      <trkpt lat="46.71464" lon="6.37085">
        <ele>875</ele>
        <time>2019-05-04T17:10:03Z</time>
      </trkpt>
      <trkpt lat="46.7146" lon="6.37078">
        <ele>875</ele>
        <time>2019-05-04T17:10:08Z</time>
      </trkpt>
      <trkpt lat="46.71452" lon="6.37066">
        <ele>874</ele>
        <time>2019-05-04T17:10:16Z</time>
      </trkpt>
      <trkpt lat="46.71447" lon="6.37054">
        <ele>875</ele>
        <time>2019-05-04T17:10:23Z</time>
      </trkpt>
      <trkpt lat="46.71445" lon="6.37048">
        <ele>875</ele>
        <time>2019-05-04T17:10:26Z</time>
      </trkpt>
      <trkpt lat="46.71442" lon="6.37037">
        <ele>876</ele>
        <time>2019-05-04T17:10:32Z</time>
      </trkpt>
      <trkpt lat="46.71437" lon="6.37027">
        <ele>876</ele>
        <time>2019-05-04T17:10:38Z</time>
      </trkpt>
      <trkpt lat="46.71428" lon="6.37021">
        <ele>873</ele>
        <time>2019-05-04T17:10:45Z</time>
      </trkpt>
      <trkpt lat="46.71417" lon="6.37014">
        <ele>870</ele>
        <time>2019-05-04T17:10:55Z</time>
      </trkpt>
      <trkpt lat="46.714" lon="6.37">
        <ele>866</ele>
        <time>2019-05-04T17:11:09Z</time>
      </trkpt>
      <trkpt lat="46.7139" lon="6.36994">
        <ele>863</ele>
        <time>2019-05-04T17:11:17Z</time>
      </trkpt>
      <trkpt lat="46.71373" lon="6.36981">
        <ele>858</ele>
        <time>2019-05-04T17:11:31Z</time>
      </trkpt>
      <trkpt lat="46.71363" lon="6.36976">
        <ele>855</ele>
        <time>2019-05-04T17:11:39Z</time>
      </trkpt>
      <trkpt lat="46.71358" lon="6.36971">
        <ele>854</ele>
        <time>2019-05-04T17:11:44Z</time>
      </trkpt>
      <trkpt lat="46.71354" lon="6.36967">
        <ele>853</ele>
        <time>2019-05-04T17:11:47Z</time>
      </trkpt>
      <trkpt lat="46.71349" lon="6.36961">
        <ele>853</ele>
        <time>2019-05-04T17:11:52Z</time>
      </trkpt>
      <trkpt lat="46.71336" lon="6.36946">
        <ele>850</ele>
        <time>2019-05-04T17:12:04Z</time>
      </trkpt>
      <trkpt lat="46.71333" lon="6.36942">
        <ele>850</ele>
        <time>2019-05-04T17:12:07Z</time>
      </trkpt>
      <trkpt lat="46.71324" lon="6.36929">
        <ele>848</ele>
        <time>2019-05-04T17:12:16Z</time>
      </trkpt>
      <trkpt lat="46.71321" lon="6.36925">
        <ele>847</ele>
        <time>2019-05-04T17:12:19Z</time>
      </trkpt>
      <trkpt lat="46.7132" lon="6.36923">
        <ele>847</ele>
        <time>2019-05-04T17:12:20Z</time>
      </trkpt>
      <trkpt lat="46.71318" lon="6.36919">
        <ele>847</ele>
        <time>2019-05-04T17:12:23Z</time>
      </trkpt>
      <trkpt lat="46.71315" lon="6.36915">
        <ele>846</ele>
        <time>2019-05-04T17:12:26Z</time>
      </trkpt>
      <trkpt lat="46.71308" lon="6.36905">
        <ele>844</ele>
        <time>2019-05-04T17:12:33Z</time>
      </trkpt>
      <trkpt lat="46.71302" lon="6.36896">
        <ele>843</ele>
        <time>2019-05-04T17:12:39Z</time>
      </trkpt>
      <trkpt lat="46.71299" lon="6.36889">
        <ele>842</ele>
        <time>2019-05-04T17:12:43Z</time>
      </trkpt>
      <trkpt lat="46.71294" lon="6.3688">
        <ele>842</ele>
        <time>2019-05-04T17:12:49Z</time>
      </trkpt>
      <trkpt lat="46.71284" lon="6.36865">
        <ele>839</ele>
        <time>2019-05-04T17:13:00Z</time>
      </trkpt>
      <trkpt lat="46.71276" lon="6.36851">
        <ele>837</ele>
        <time>2019-05-04T17:13:09Z</time>
      </trkpt>
      <trkpt lat="46.71272" lon="6.36845">
        <ele>837</ele>
        <time>2019-05-04T17:13:13Z</time>
      </trkpt>
      <trkpt lat="46.71269" lon="6.36838">
        <ele>836</ele>
        <time>2019-05-04T17:13:17Z</time>
      </trkpt>
      <trkpt lat="46.7126" lon="6.36825">
        <ele>834</ele>
        <time>2019-05-04T17:13:26Z</time>
      </trkpt>
      <trkpt lat="46.71255" lon="6.36816">
        <ele>833</ele>
        <time>2019-05-04T17:13:32Z</time>
      </trkpt>
      <trkpt lat="46.71252" lon="6.36808">
        <ele>832</ele>
        <time>2019-05-04T17:13:37Z</time>
      </trkpt>
      <trkpt lat="46.71248" lon="6.36801">
        <ele>832</ele>
        <time>2019-05-04T17:13:41Z</time>
      </trkpt>
      <trkpt lat="46.71245" lon="6.36793">
        <ele>831</ele>
        <time>2019-05-04T17:13:46Z</time>
      </trkpt>
      <trkpt lat="46.71229" lon="6.36776">
        <ele>825</ele>
        <time>2019-05-04T17:14:00Z</time>
      </trkpt>
      <trkpt lat="46.71224" lon="6.36767">
        <ele>824</ele>
        <time>2019-05-04T17:14:06Z</time>
      </trkpt>
      <trkpt lat="46.71221" lon="6.36757">
        <ele>823</ele>
        <time>2019-05-04T17:14:11Z</time>
      </trkpt>
      <trkpt lat="46.71218" lon="6.36741">
        <ele>823</ele>
        <time>2019-05-04T17:14:20Z</time>
      </trkpt>
      <trkpt lat="46.71217" lon="6.36732">
        <ele>823</ele>
        <time>2019-05-04T17:14:24Z</time>
      </trkpt>
      <trkpt lat="46.71217" lon="6.36726">
        <ele>824</ele>
        <time>2019-05-04T17:14:27Z</time>
      </trkpt>
      <trkpt lat="46.71216" lon="6.3672">
        <ele>824</ele>
        <time>2019-05-04T17:14:30Z</time>
      </trkpt>
      <trkpt lat="46.71215" lon="6.36712">
        <ele>824</ele>
        <time>2019-05-04T17:14:35Z</time>
      </trkpt>
      <trkpt lat="46.71213" lon="6.36694">
        <ele>824</ele>
        <time>2019-05-04T17:14:44Z</time>
      </trkpt>
      <trkpt lat="46.7121" lon="6.36674">
        <ele>825</ele>
        <time>2019-05-04T17:14:54Z</time>
      </trkpt>
      <trkpt lat="46.71209" lon="6.36666">
        <ele>825</ele>
        <time>2019-05-04T17:14:58Z</time>
      </trkpt>
      <trkpt lat="46.71203" lon="6.36655">
        <ele>823</ele>
        <time>2019-05-04T17:15:05Z</time>
      </trkpt>
      <trkpt lat="46.71192" lon="6.36654">
        <ele>817</ele>
        <time>2019-05-04T17:15:14Z</time>
      </trkpt>
      <trkpt lat="46.71184" lon="6.36659">
        <ele>814</ele>
        <time>2019-05-04T17:15:20Z</time>
      </trkpt>
      <trkpt lat="46.71179" lon="6.36667">
        <ele>812</ele>
        <time>2019-05-04T17:15:26Z</time>
      </trkpt>
      <trkpt lat="46.71179" lon="6.36687">
        <ele>810</ele>
        <time>2019-05-04T17:15:36Z</time>
      </trkpt>
      <trkpt lat="46.71178" lon="6.36697">
        <ele>809</ele>
        <time>2019-05-04T17:15:41Z</time>
      </trkpt>
      <trkpt lat="46.71178" lon="6.36705">
        <ele>809</ele>
        <time>2019-05-04T17:15:45Z</time>
      </trkpt>
      <trkpt lat="46.71178" lon="6.3671">
        <ele>808</ele>
        <time>2019-05-04T17:15:47Z</time>
      </trkpt>
      <trkpt lat="46.71173" lon="6.3672">
        <ele>806</ele>
        <time>2019-05-04T17:15:54Z</time>
      </trkpt>
      <trkpt lat="46.71172" lon="6.36721">
        <ele>806</ele>
        <time>2019-05-04T17:15:55Z</time>
      </trkpt>
      <trkpt lat="46.71172" lon="6.36722">
        <ele>806</ele>
        <time>2019-05-04T17:15:55Z</time>
      </trkpt>
      <trkpt lat="46.71167" lon="6.36718">
        <ele>804</ele>
        <time>2019-05-04T17:15:59Z</time>
      </trkpt>
      <trkpt lat="46.71167" lon="6.36717">
        <ele>804</ele>
        <time>2019-05-04T17:16:00Z</time>
      </trkpt>
      <trkpt lat="46.71163" lon="6.36713">
        <ele>804</ele>
        <time>2019-05-04T17:16:03Z</time>
      </trkpt>
      <trkpt lat="46.71166" lon="6.36719">
        <ele>804</ele>
        <time>2019-05-04T17:16:07Z</time>
      </trkpt>
      <trkpt lat="46.71167" lon="6.36715">
        <ele>805</ele>
        <time>2019-05-04T17:16:10Z</time>
      </trkpt>
      <trkpt lat="46.71172" lon="6.36717">
        <ele>806</ele>
        <time>2019-05-04T17:16:13Z</time>
      </trkpt>
      <trkpt lat="46.71173" lon="6.36723">
        <ele>806</ele>
        <time>2019-05-04T17:16:17Z</time>
      </trkpt>
      <trkpt lat="46.71174" lon="6.36727">
        <ele>806</ele>
        <time>2019-05-04T17:16:18Z</time>
      </trkpt>
      <trkpt lat="46.71175" lon="6.36734">
        <ele>806</ele>
        <time>2019-05-04T17:16:22Z</time>
      </trkpt>
      <trkpt lat="46.71175" lon="6.36738">
        <ele>806</ele>
        <time>2019-05-04T17:16:24Z</time>
      </trkpt>
      <trkpt lat="46.71174" lon="6.36743">
        <ele>805</ele>
        <time>2019-05-04T17:16:27Z</time>
      </trkpt>
      <trkpt lat="46.71172" lon="6.3675">
        <ele>804</ele>
        <time>2019-05-04T17:16:30Z</time>
      </trkpt>
      <trkpt lat="46.71173" lon="6.36756">
        <ele>803</ele>
        <time>2019-05-04T17:16:34Z</time>
      </trkpt>
      <trkpt lat="46.71169" lon="6.36763">
        <ele>802</ele>
        <time>2019-05-04T17:16:38Z</time>
      </trkpt>
      <trkpt lat="46.71161" lon="6.3677">
        <ele>799</ele>
        <time>2019-05-04T17:16:45Z</time>
      </trkpt>
      <trkpt lat="46.71159" lon="6.36771">
        <ele>798</ele>
        <time>2019-05-04T17:16:47Z</time>
      </trkpt>
      <trkpt lat="46.71151" lon="6.36776">
        <ele>796</ele>
        <time>2019-05-04T17:16:53Z</time>
      </trkpt>
      <trkpt lat="46.7115" lon="6.36779">
        <ele>795</ele>
        <time>2019-05-04T17:16:55Z</time>
      </trkpt>
      <trkpt lat="46.7115" lon="6.36782">
        <ele>795</ele>
        <time>2019-05-04T17:16:56Z</time>
      </trkpt>
      <trkpt lat="46.7115" lon="6.36785">
        <ele>794</ele>
        <time>2019-05-04T17:16:58Z</time>
      </trkpt>
      <trkpt lat="46.71149" lon="6.36787">
        <ele>794</ele>
        <time>2019-05-04T17:16:59Z</time>
      </trkpt>
      <trkpt lat="46.71151" lon="6.36793">
        <ele>794</ele>
        <time>2019-05-04T17:17:02Z</time>
      </trkpt>
      <trkpt lat="46.71152" lon="6.36809">
        <ele>793</ele>
        <time>2019-05-04T17:17:10Z</time>
      </trkpt>
      <trkpt lat="46.71153" lon="6.36815">
        <ele>793</ele>
        <time>2019-05-04T17:17:13Z</time>
      </trkpt>
      <trkpt lat="46.71152" lon="6.36822">
        <ele>792</ele>
        <time>2019-05-04T17:17:17Z</time>
      </trkpt>
      <trkpt lat="46.71152" lon="6.36831">
        <ele>791</ele>
        <time>2019-05-04T17:17:22Z</time>
      </trkpt>
      <trkpt lat="46.71148" lon="6.3684">
        <ele>789</ele>
        <time>2019-05-04T17:17:27Z</time>
      </trkpt>
      <trkpt lat="46.71147" lon="6.36843">
        <ele>788</ele>
        <time>2019-05-04T17:17:29Z</time>
      </trkpt>
      <trkpt lat="46.71146" lon="6.36845">
        <ele>788</ele>
        <time>2019-05-04T17:17:30Z</time>
      </trkpt>
      <trkpt lat="46.71144" lon="6.36849">
        <ele>787</ele>
        <time>2019-05-04T17:17:32Z</time>
      </trkpt>
      <trkpt lat="46.71144" lon="6.36854">
        <ele>787</ele>
        <time>2019-05-04T17:17:35Z</time>
      </trkpt>
      <trkpt lat="46.71144" lon="6.36858">
        <ele>786</ele>
        <time>2019-05-04T17:17:37Z</time>
      </trkpt>
      <trkpt lat="46.71143" lon="6.36864">
        <ele>785</ele>
        <time>2019-05-04T17:17:40Z</time>
      </trkpt>
      <trkpt lat="46.71142" lon="6.36868">
        <ele>785</ele>
        <time>2019-05-04T17:17:42Z</time>
      </trkpt>
      <trkpt lat="46.71139" lon="6.36875">
        <ele>784</ele>
        <time>2019-05-04T17:17:46Z</time>
      </trkpt>
      <trkpt lat="46.71139" lon="6.36884">
        <ele>783</ele>
        <time>2019-05-04T17:17:51Z</time>
      </trkpt>
      <trkpt lat="46.7114" lon="6.36894">
        <ele>783</ele>
        <time>2019-05-04T17:17:55Z</time>
      </trkpt>
      <trkpt lat="46.71142" lon="6.36913">
        <ele>782</ele>
        <time>2019-05-04T17:18:05Z</time>
      </trkpt>
      <trkpt lat="46.71142" lon="6.3692">
        <ele>781</ele>
        <time>2019-05-04T17:18:09Z</time>
      </trkpt>
      <trkpt lat="46.71143" lon="6.36948">
        <ele>780</ele>
        <time>2019-05-04T17:18:22Z</time>
      </trkpt>
      <trkpt lat="46.71142" lon="6.36975">
        <ele>778</ele>
        <time>2019-05-04T17:18:36Z</time>
      </trkpt>
      <trkpt lat="46.71143" lon="6.37002">
        <ele>777</ele>
        <time>2019-05-04T17:18:50Z</time>
      </trkpt>
      <trkpt lat="46.71144" lon="6.37009">
        <ele>777</ele>
        <time>2019-05-04T17:18:53Z</time>
      </trkpt>
      <trkpt lat="46.71146" lon="6.37024">
        <ele>777</ele>
        <time>2019-05-04T17:19:01Z</time>
      </trkpt>
      <trkpt lat="46.71145" lon="6.37041">
        <ele>775</ele>
        <time>2019-05-04T17:19:09Z</time>
      </trkpt>
      <trkpt lat="46.71145" lon="6.37054">
        <ele>774</ele>
        <time>2019-05-04T17:19:16Z</time>
      </trkpt>
      <trkpt lat="46.71144" lon="6.3707">
        <ele>773</ele>
        <time>2019-05-04T17:19:24Z</time>
      </trkpt>
      <trkpt lat="46.71144" lon="6.37085">
        <ele>772</ele>
        <time>2019-05-04T17:19:31Z</time>
      </trkpt>
      <trkpt lat="46.71135" lon="6.37111">
        <ele>768</ele>
        <time>2019-05-04T17:19:46Z</time>
      </trkpt>
      <trkpt lat="46.71133" lon="6.37121">
        <ele>767</ele>
        <time>2019-05-04T17:19:51Z</time>
      </trkpt>
      <trkpt lat="46.71134" lon="6.37135">
        <ele>766</ele>
        <time>2019-05-04T17:19:58Z</time>
      </trkpt>
      <trkpt lat="46.71127" lon="6.37147">
        <ele>764</ele>
        <time>2019-05-04T17:20:06Z</time>
      </trkpt>
      <trkpt lat="46.71125" lon="6.37147">
        <ele>764</ele>
        <time>2019-05-04T17:20:07Z</time>
      </trkpt>
      <trkpt lat="46.71123" lon="6.37147">
        <ele>763</ele>
        <time>2019-05-04T17:20:09Z</time>
      </trkpt>
      <trkpt lat="46.71122" lon="6.37147">
        <ele>763</ele>
        <time>2019-05-04T17:20:10Z</time>
      </trkpt>
      <trkpt lat="46.71119" lon="6.37148">
        <ele>762</ele>
        <time>2019-05-04T17:20:12Z</time>
      </trkpt>
      <trkpt lat="46.71119" lon="6.37148">
        <ele>762</ele>
        <time>2019-05-04T17:20:12Z</time>
      </trkpt>
      <trkpt lat="46.71119" lon="6.37151">
        <ele>762</ele>
        <time>2019-05-04T17:20:14Z</time>
      </trkpt>
      <trkpt lat="46.7112" lon="6.37146">
        <ele>762</ele>
        <time>2019-05-04T17:20:16Z</time>
      </trkpt>
      <trkpt lat="46.71113" lon="6.37132">
        <ele>761</ele>
        <time>2019-05-04T17:20:25Z</time>
      </trkpt>
      <trkpt lat="46.71109" lon="6.37126">
        <ele>761</ele>
        <time>2019-05-04T17:20:29Z</time>
      </trkpt>
      <trkpt lat="46.71105" lon="6.37118">
        <ele>761</ele>
        <time>2019-05-04T17:20:34Z</time>
      </trkpt>
      <trkpt lat="46.711" lon="6.37111">
        <ele>760</ele>
        <time>2019-05-04T17:20:38Z</time>
      </trkpt>
      <trkpt lat="46.71098" lon="6.37109">
        <ele>760</ele>
        <time>2019-05-04T17:20:40Z</time>
      </trkpt>
      <trkpt lat="46.71094" lon="6.37101">
        <ele>759</ele>
        <time>2019-05-04T17:20:45Z</time>
      </trkpt>
      <trkpt lat="46.71089" lon="6.37092">
        <ele>759</ele>
        <time>2019-05-04T17:20:51Z</time>
      </trkpt>
      <trkpt lat="46.71087" lon="6.37089">
        <ele>759</ele>
        <time>2019-05-04T17:20:53Z</time>
      </trkpt>
      <trkpt lat="46.71086" lon="6.37087">
        <ele>759</ele>
        <time>2019-05-04T17:20:55Z</time>
      </trkpt>
      <trkpt lat="46.71083" lon="6.37083">
        <ele>758</ele>
        <time>2019-05-04T17:20:58Z</time>
      </trkpt>
      <trkpt lat="46.71081" lon="6.3708">
        <ele>758</ele>
        <time>2019-05-04T17:20:59Z</time>
      </trkpt>
      <trkpt lat="46.71077" lon="6.37075">
        <ele>758</ele>
        <time>2019-05-04T17:21:03Z</time>
      </trkpt>
      <trkpt lat="46.71074" lon="6.37069">
        <ele>757</ele>
        <time>2019-05-04T17:21:07Z</time>
      </trkpt>
      <trkpt lat="46.71067" lon="6.37065">
        <ele>756</ele>
        <time>2019-05-04T17:21:12Z</time>
      </trkpt>
      <trkpt lat="46.71061" lon="6.37065">
        <ele>755</ele>
        <time>2019-05-04T17:21:17Z</time>
      </trkpt>
      <trkpt lat="46.71054" lon="6.3707">
        <ele>754</ele>
        <time>2019-05-04T17:21:22Z</time>
      </trkpt>
      <trkpt lat="46.71046" lon="6.37081">
        <ele>752</ele>
        <time>2019-05-04T17:21:31Z</time>
      </trkpt>
      <trkpt lat="46.71044" lon="6.37081">
        <ele>752</ele>
        <time>2019-05-04T17:21:32Z</time>
      </trkpt>
      <trkpt lat="46.71044" lon="6.37086">
        <ele>752</ele>
        <time>2019-05-04T17:21:34Z</time>
      </trkpt>
      <trkpt lat="46.71053" lon="6.37109">
        <ele>753</ele>
        <time>2019-05-04T17:21:47Z</time>
      </trkpt>
      <trkpt lat="46.71054" lon="6.37112">
        <ele>753</ele>
        <time>2019-05-04T17:21:49Z</time>
      </trkpt>
      <trkpt lat="46.71061" lon="6.37136">
        <ele>754</ele>
        <time>2019-05-04T17:22:02Z</time>
      </trkpt>
      <trkpt lat="46.71063" lon="6.37151">
        <ele>754</ele>
        <time>2019-05-04T17:22:10Z</time>
      </trkpt>
      <trkpt lat="46.71064" lon="6.37177">
        <ele>754</ele>
        <time>2019-05-04T17:22:23Z</time>
      </trkpt>
      <trkpt lat="46.7107" lon="6.37197">
        <ele>755</ele>
        <time>2019-05-04T17:22:33Z</time>
      </trkpt>
      <trkpt lat="46.71075" lon="6.37223">
        <ele>756</ele>
        <time>2019-05-04T17:22:47Z</time>
      </trkpt>
      <trkpt lat="46.71079" lon="6.37251">
        <ele>756</ele>
        <time>2019-05-04T17:23:01Z</time>
      </trkpt>
      <trkpt lat="46.71082" lon="6.37268">
        <ele>756</ele>
        <time>2019-05-04T17:23:09Z</time>
      </trkpt>
      <trkpt lat="46.71087" lon="6.37289">
        <ele>756</ele>
        <time>2019-05-04T17:23:21Z</time>
      </trkpt>
      <trkpt lat="46.71095" lon="6.37309">
        <ele>756</ele>
        <time>2019-05-04T17:23:32Z</time>
      </trkpt>
      <trkpt lat="46.71095" lon="6.37312">
        <ele>756</ele>
        <time>2019-05-04T17:23:33Z</time>
      </trkpt>
      <trkpt lat="46.71101" lon="6.37338">
        <ele>756</ele>
        <time>2019-05-04T17:23:47Z</time>
      </trkpt>
      <trkpt lat="46.71106" lon="6.37364">
        <ele>755</ele>
        <time>2019-05-04T17:24:00Z</time>
      </trkpt>
      <trkpt lat="46.71109" lon="6.37389">
        <ele>755</ele>
        <time>2019-05-04T17:24:13Z</time>
      </trkpt>
      <trkpt lat="46.71114" lon="6.37416">
        <ele>755</ele>
        <time>2019-05-04T17:24:27Z</time>
      </trkpt>
      <trkpt lat="46.71114" lon="6.3742">
        <ele>755</ele>
        <time>2019-05-04T17:24:29Z</time>
      </trkpt>
      <trkpt lat="46.71119" lon="6.37444">
        <ele>756</ele>
        <time>2019-05-04T17:24:42Z</time>
      </trkpt>
      <trkpt lat="46.71105" lon="6.37461">
        <ele>754</ele>
        <time>2019-05-04T17:24:55Z</time>
      </trkpt>
      <trkpt lat="46.71087" lon="6.37472">
        <ele>753</ele>
        <time>2019-05-04T17:25:09Z</time>
      </trkpt>
      <trkpt lat="46.71068" lon="6.37482">
        <ele>752</ele>
        <time>2019-05-04T17:25:24Z</time>
      </trkpt>
      <trkpt lat="46.71065" lon="6.37484">
        <ele>751</ele>
        <time>2019-05-04T17:25:26Z</time>
      </trkpt>
      <trkpt lat="46.71049" lon="6.375">
        <ele>750</ele>
        <time>2019-05-04T17:25:40Z</time>
      </trkpt>
      <trkpt lat="46.71031" lon="6.37513">
        <ele>749</ele>
        <time>2019-05-04T17:25:55Z</time>
      </trkpt>
      <trkpt lat="46.71011" lon="6.37518">
        <ele>750</ele>
        <time>2019-05-04T17:26:10Z</time>
      </trkpt>
      <trkpt lat="46.71005" lon="6.37517">
        <ele>750</ele>
        <time>2019-05-04T17:26:14Z</time>
      </trkpt>
      <trkpt lat="46.70997" lon="6.37513">
        <ele>750</ele>
        <time>2019-05-04T17:26:20Z</time>
      </trkpt>
      <trkpt lat="46.70979" lon="6.37514">
        <ele>751</ele>
        <time>2019-05-04T17:26:33Z</time>
      </trkpt>
      <trkpt lat="46.70961" lon="6.37515">
        <ele>751</ele>
        <time>2019-05-04T17:26:46Z</time>
      </trkpt>
      <trkpt lat="46.70948" lon="6.37524">
        <ele>752</ele>
        <time>2019-05-04T17:26:56Z</time>
      </trkpt>
      <trkpt lat="46.70949" lon="6.37554">
        <ele>753</ele>
        <time>2019-05-04T17:27:11Z</time>
      </trkpt>
      <trkpt lat="46.70948" lon="6.37567">
        <ele>754</ele>
        <time>2019-05-04T17:27:18Z</time>
      </trkpt>
      <trkpt lat="46.70943" lon="6.37564">
        <ele>754</ele>
        <time>2019-05-04T17:27:22Z</time>
      </trkpt>
      <trkpt lat="46.70937" lon="6.37556">
        <ele>754</ele>
        <time>2019-05-04T17:27:27Z</time>
      </trkpt>
      <trkpt lat="46.70932" lon="6.37547">
        <ele>754</ele>
        <time>2019-05-04T17:27:34Z</time>
      </trkpt>
      <trkpt lat="46.70927" lon="6.37536">
        <ele>754</ele>
        <time>2019-05-04T17:27:40Z</time>
      </trkpt>
      <trkpt lat="46.7092" lon="6.37525">
        <ele>754</ele>
        <time>2019-05-04T17:27:47Z</time>
      </trkpt>
      <trkpt lat="46.70918" lon="6.37517">
        <ele>753</ele>
        <time>2019-05-04T17:27:52Z</time>
      </trkpt>
      <trkpt lat="46.70918" lon="6.37516">
        <ele>753</ele>
        <time>2019-05-04T17:27:52Z</time>
      </trkpt>
      <trkpt lat="46.70918" lon="6.37515">
        <ele>753</ele>
        <time>2019-05-04T17:27:53Z</time>
      </trkpt>
      <trkpt lat="46.70918" lon="6.37507">
        <ele>753</ele>
        <time>2019-05-04T17:27:57Z</time>
      </trkpt>
      <trkpt lat="46.70913" lon="6.37479">
        <ele>753</ele>
        <time>2019-05-04T17:28:11Z</time>
      </trkpt>
      <trkpt lat="46.70902" lon="6.37458">
        <ele>753</ele>
        <time>2019-05-04T17:28:24Z</time>
      </trkpt>
      <trkpt lat="46.70887" lon="6.37439">
        <ele>753</ele>
        <time>2019-05-04T17:28:39Z</time>
      </trkpt>
      <trkpt lat="46.70873" lon="6.37423">
        <ele>754</ele>
        <time>2019-05-04T17:28:52Z</time>
      </trkpt>
      <trkpt lat="46.70856" lon="6.3743">
        <ele>755</ele>
        <time>2019-05-04T17:29:04Z</time>
      </trkpt>
      <trkpt lat="46.70854" lon="6.37432">
        <ele>756</ele>
        <time>2019-05-04T17:29:06Z</time>
      </trkpt>
      <trkpt lat="46.70836" lon="6.37444">
        <ele>758</ele>
        <time>2019-05-04T17:29:21Z</time>
      </trkpt>
      <trkpt lat="46.70819" lon="6.37455">
        <ele>760</ele>
        <time>2019-05-04T17:29:34Z</time>
      </trkpt>
      <trkpt lat="46.70819" lon="6.37469">
        <ele>761</ele>
        <time>2019-05-04T17:29:41Z</time>
      </trkpt>
      <trkpt lat="46.70812" lon="6.37472">
        <ele>762</ele>
        <time>2019-05-04T17:29:47Z</time>
      </trkpt>
      <trkpt lat="46.70806" lon="6.37466">
        <ele>762</ele>
        <time>2019-05-04T17:29:52Z</time>
      </trkpt>
      <trkpt lat="46.70787" lon="6.37454">
        <ele>764</ele>
        <time>2019-05-04T17:30:07Z</time>
      </trkpt>
      <trkpt lat="46.70783" lon="6.37453">
        <ele>765</ele>
        <time>2019-05-04T17:30:10Z</time>
      </trkpt>
      <trkpt lat="46.70779" lon="6.37455">
        <ele>765</ele>
        <time>2019-05-04T17:30:12Z</time>
      </trkpt>
      <trkpt lat="46.70774" lon="6.37459">
        <ele>766</ele>
        <time>2019-05-04T17:30:17Z</time>
      </trkpt>
      <trkpt lat="46.70762" lon="6.37461">
        <ele>767</ele>
        <time>2019-05-04T17:30:26Z</time>
      </trkpt>
      <trkpt lat="46.7075" lon="6.37468">
        <ele>768</ele>
        <time>2019-05-04T17:30:35Z</time>
      </trkpt>
      <trkpt lat="46.70738" lon="6.37471">
        <ele>770</ele>
        <time>2019-05-04T17:30:44Z</time>
      </trkpt>
      <trkpt lat="46.70735" lon="6.37472">
        <ele>770</ele>
        <time>2019-05-04T17:30:46Z</time>
      </trkpt>
      <trkpt lat="46.70723" lon="6.37476">
        <ele>771</ele>
        <time>2019-05-04T17:30:55Z</time>
      </trkpt>
      <trkpt lat="46.70713" lon="6.37477">
        <ele>773</ele>
        <time>2019-05-04T17:31:03Z</time>
      </trkpt>
      <trkpt lat="46.7071" lon="6.37477">
        <ele>773</ele>
        <time>2019-05-04T17:31:05Z</time>
      </trkpt>
      <trkpt lat="46.70708" lon="6.37478">
        <ele>773</ele>
        <time>2019-05-04T17:31:06Z</time>
      </trkpt>
      <trkpt lat="46.70704" lon="6.3748">
        <ele>774</ele>
        <time>2019-05-04T17:31:09Z</time>
      </trkpt>
      <trkpt lat="46.70691" lon="6.37484">
        <ele>775</ele>
        <time>2019-05-04T17:31:19Z</time>
      </trkpt>
      <trkpt lat="46.70684" lon="6.37487">
        <ele>777</ele>
        <time>2019-05-04T17:31:24Z</time>
      </trkpt>
      <trkpt lat="46.70673" lon="6.37494">
        <ele>779</ele>
        <time>2019-05-04T17:31:33Z</time>
      </trkpt>
      <trkpt lat="46.70666" lon="6.37498">
        <ele>781</ele>
        <time>2019-05-04T17:31:39Z</time>
      </trkpt>
      <trkpt lat="46.7066" lon="6.37502">
        <ele>782</ele>
        <time>2019-05-04T17:31:43Z</time>
      </trkpt>
      <trkpt lat="46.70658" lon="6.37505">
        <ele>782</ele>
        <time>2019-05-04T17:31:45Z</time>
      </trkpt>
      <trkpt lat="46.70656" lon="6.37515">
        <ele>783</ele>
        <time>2019-05-04T17:31:50Z</time>
      </trkpt>
      <trkpt lat="46.70656" lon="6.37517">
        <ele>783</ele>
        <time>2019-05-04T17:31:52Z</time>
      </trkpt>
      <trkpt lat="46.70652" lon="6.37522">
        <ele>783</ele>
        <time>2019-05-04T17:31:55Z</time>
      </trkpt>
      <trkpt lat="46.70651" lon="6.37524">
        <ele>784</ele>
        <time>2019-05-04T17:31:57Z</time>
      </trkpt>
      <trkpt lat="46.70649" lon="6.37528">
        <ele>784</ele>
        <time>2019-05-04T17:31:59Z</time>
      </trkpt>
      <trkpt lat="46.70644" lon="6.37537">
        <ele>785</ele>
        <time>2019-05-04T17:32:05Z</time>
      </trkpt>
      <trkpt lat="46.7064" lon="6.37546">
        <ele>786</ele>
        <time>2019-05-04T17:32:10Z</time>
      </trkpt>
      <trkpt lat="46.70635" lon="6.37558">
        <ele>788</ele>
        <time>2019-05-04T17:32:17Z</time>
      </trkpt>
      <trkpt lat="46.70629" lon="6.37573">
        <ele>789</ele>
        <time>2019-05-04T17:32:26Z</time>
      </trkpt>
      <trkpt lat="46.70628" lon="6.37577">
        <ele>790</ele>
        <time>2019-05-04T17:32:28Z</time>
      </trkpt>
      <trkpt lat="46.70626" lon="6.37587">
        <ele>790</ele>
        <time>2019-05-04T17:32:33Z</time>
      </trkpt>
      <trkpt lat="46.70622" lon="6.37596">
        <ele>791</ele>
        <time>2019-05-04T17:32:39Z</time>
      </trkpt>
      <trkpt lat="46.70621" lon="6.37598">
        <ele>791</ele>
        <time>2019-05-04T17:32:40Z</time>
      </trkpt>
      <trkpt lat="46.70616" lon="6.37606">
        <ele>792</ele>
        <time>2019-05-04T17:32:45Z</time>
      </trkpt>
      <trkpt lat="46.70612" lon="6.37615">
        <ele>794</ele>
        <time>2019-05-04T17:32:51Z</time>
      </trkpt>
      <trkpt lat="46.70608" lon="6.37622">
        <ele>795</ele>
        <time>2019-05-04T17:32:55Z</time>
      </trkpt>
      <trkpt lat="46.70601" lon="6.37632">
        <ele>798</ele>
        <time>2019-05-04T17:33:03Z</time>
      </trkpt>
      <trkpt lat="46.70598" lon="6.37636">
        <ele>799</ele>
        <time>2019-05-04T17:33:06Z</time>
      </trkpt>
      <trkpt lat="46.70593" lon="6.37644">
        <ele>801</ele>
        <time>2019-05-04T17:33:11Z</time>
      </trkpt>
      <trkpt lat="46.70585" lon="6.3766">
        <ele>805</ele>
        <time>2019-05-04T17:33:22Z</time>
      </trkpt>
      <trkpt lat="46.70582" lon="6.37669">
        <ele>807</ele>
        <time>2019-05-04T17:33:26Z</time>
      </trkpt>
      <trkpt lat="46.70581" lon="6.37672">
        <ele>807</ele>
        <time>2019-05-04T17:33:28Z</time>
      </trkpt>
      <trkpt lat="46.7058" lon="6.37673">
        <ele>807</ele>
        <time>2019-05-04T17:33:29Z</time>
      </trkpt>
      <trkpt lat="46.70578" lon="6.37678">
        <ele>809</ele>
        <time>2019-05-04T17:33:32Z</time>
      </trkpt>
      <trkpt lat="46.70573" lon="6.37685">
        <ele>811</ele>
        <time>2019-05-04T17:33:37Z</time>
      </trkpt>
      <trkpt lat="46.70571" lon="6.37705">
        <ele>812</ele>
        <time>2019-05-04T17:33:47Z</time>
      </trkpt>
      <trkpt lat="46.70569" lon="6.37716">
        <ele>812</ele>
        <time>2019-05-04T17:33:53Z</time>
      </trkpt>
      <trkpt lat="46.70567" lon="6.37722">
        <ele>813</ele>
        <time>2019-05-04T17:33:57Z</time>
      </trkpt>
      <trkpt lat="46.70565" lon="6.37728">
        <ele>814</ele>
        <time>2019-05-04T17:34:00Z</time>
      </trkpt>
      <trkpt lat="46.70562" lon="6.37737">
        <ele>815</ele>
        <time>2019-05-04T17:34:05Z</time>
      </trkpt>
      <trkpt lat="46.70558" lon="6.37749">
        <ele>817</ele>
        <time>2019-05-04T17:34:12Z</time>
      </trkpt>
      <trkpt lat="46.70556" lon="6.37755">
        <ele>818</ele>
        <time>2019-05-04T17:34:15Z</time>
      </trkpt>
      <trkpt lat="46.70556" lon="6.37759">
        <ele>818</ele>
        <time>2019-05-04T17:34:17Z</time>
      </trkpt>
      <trkpt lat="46.70552" lon="6.37776">
        <ele>820</ele>
        <time>2019-05-04T17:34:26Z</time>
      </trkpt>
      <trkpt lat="46.70548" lon="6.37789">
        <ele>822</ele>
        <time>2019-05-04T17:34:33Z</time>
      </trkpt>
      <trkpt lat="46.70547" lon="6.37795">
        <ele>822</ele>
        <time>2019-05-04T17:34:36Z</time>
      </trkpt>
      <trkpt lat="46.70537" lon="6.37814">
        <ele>827</ele>
        <time>2019-05-04T17:34:49Z</time>
      </trkpt>
      <trkpt lat="46.70528" lon="6.37827">
        <ele>831</ele>
        <time>2019-05-04T17:34:58Z</time>
      </trkpt>
      <trkpt lat="46.70523" lon="6.37831">
        <ele>834</ele>
        <time>2019-05-04T17:35:03Z</time>
      </trkpt>
      <trkpt lat="46.70518" lon="6.37832">
        <ele>836</ele>
        <time>2019-05-04T17:35:06Z</time>
      </trkpt>
      <trkpt lat="46.70512" lon="6.3783">
        <ele>840</ele>
        <time>2019-05-04T17:35:12Z</time>
      </trkpt>
      <trkpt lat="46.70505" lon="6.37828">
        <ele>843</ele>
        <time>2019-05-04T17:35:17Z</time>
      </trkpt>
      <trkpt lat="46.70498" lon="6.37822">
        <ele>847</ele>
        <time>2019-05-04T17:35:24Z</time>
      </trkpt>
      <trkpt lat="46.70495" lon="6.37818">
        <ele>848</ele>
        <time>2019-05-04T17:35:27Z</time>
      </trkpt>
      <trkpt lat="46.70492" lon="6.37816">
        <ele>849</ele>
        <time>2019-05-04T17:35:29Z</time>
      </trkpt>
      <trkpt lat="46.70491" lon="6.37814">
        <ele>849</ele>
        <time>2019-05-04T17:35:30Z</time>
      </trkpt>
      <trkpt lat="46.70489" lon="6.3781">
        <ele>850</ele>
        <time>2019-05-04T17:35:33Z</time>
      </trkpt>
      <trkpt lat="46.7049" lon="6.37807">
        <ele>850</ele>
        <time>2019-05-04T17:35:34Z</time>
      </trkpt>
      <trkpt lat="46.7049" lon="6.378">
        <ele>849</ele>
        <time>2019-05-04T17:35:38Z</time>
      </trkpt>
      <trkpt lat="46.70488" lon="6.37796">
        <ele>850</ele>
        <time>2019-05-04T17:35:40Z</time>
      </trkpt>
      <trkpt lat="46.70484" lon="6.37786">
        <ele>851</ele>
        <time>2019-05-04T17:35:46Z</time>
      </trkpt>
      <trkpt lat="46.70482" lon="6.37778">
        <ele>851</ele>
        <time>2019-05-04T17:35:51Z</time>
      </trkpt>
      <trkpt lat="46.70479" lon="6.37771">
        <ele>852</ele>
        <time>2019-05-04T17:35:55Z</time>
      </trkpt>
      <trkpt lat="46.70477" lon="6.37766">
        <ele>853</ele>
        <time>2019-05-04T17:35:58Z</time>
      </trkpt>
      <trkpt lat="46.70471" lon="6.37756">
        <ele>855</ele>
        <time>2019-05-04T17:36:04Z</time>
      </trkpt>
      <trkpt lat="46.70467" lon="6.37748">
        <ele>856</ele>
        <time>2019-05-04T17:36:09Z</time>
      </trkpt>
      <trkpt lat="46.70463" lon="6.37735">
        <ele>857</ele>
        <time>2019-05-04T17:36:16Z</time>
      </trkpt>
      <trkpt lat="46.70457" lon="6.37724">
        <ele>859</ele>
        <time>2019-05-04T17:36:23Z</time>
      </trkpt>
      <trkpt lat="46.70454" lon="6.37715">
        <ele>860</ele>
        <time>2019-05-04T17:36:29Z</time>
      </trkpt>
      <trkpt lat="46.70451" lon="6.37713">
        <ele>860</ele>
        <time>2019-05-04T17:36:30Z</time>
      </trkpt>
      <trkpt lat="46.7045" lon="6.37709">
        <ele>861</ele>
        <time>2019-05-04T17:36:33Z</time>
      </trkpt>
      <trkpt lat="46.7045" lon="6.37703">
        <ele>860</ele>
        <time>2019-05-04T17:36:36Z</time>
      </trkpt>
      <trkpt lat="46.70448" lon="6.37701">
        <ele>861</ele>
        <time>2019-05-04T17:36:37Z</time>
      </trkpt>
      <trkpt lat="46.70447" lon="6.37701">
        <ele>861</ele>
        <time>2019-05-04T17:36:38Z</time>
      </trkpt>
      <trkpt lat="46.70447" lon="6.37697">
        <ele>861</ele>
        <time>2019-05-04T17:36:40Z</time>
      </trkpt>
      <trkpt lat="46.70446" lon="6.37693">
        <ele>861</ele>
        <time>2019-05-04T17:36:42Z</time>
      </trkpt>
      <trkpt lat="46.70444" lon="6.37691">
        <ele>861</ele>
        <time>2019-05-04T17:36:43Z</time>
      </trkpt>
      <trkpt lat="46.70443" lon="6.37689">
        <ele>862</ele>
        <time>2019-05-04T17:36:45Z</time>
      </trkpt>
      <trkpt lat="46.70443" lon="6.37685">
        <ele>861</ele>
        <time>2019-05-04T17:36:47Z</time>
      </trkpt>
      <trkpt lat="46.70442" lon="6.37684">
        <ele>862</ele>
        <time>2019-05-04T17:36:48Z</time>
      </trkpt>
      <trkpt lat="46.70435" lon="6.37674">
        <ele>863</ele>
        <time>2019-05-04T17:36:55Z</time>
      </trkpt>
      <trkpt lat="46.70434" lon="6.3767">
        <ele>863</ele>
        <time>2019-05-04T17:36:57Z</time>
      </trkpt>
      <trkpt lat="46.70433" lon="6.37669">
        <ele>864</ele>
        <time>2019-05-04T17:36:58Z</time>
      </trkpt>
      <trkpt lat="46.70432" lon="6.37656">
        <ele>863</ele>
        <time>2019-05-04T17:37:05Z</time>
      </trkpt>
      <trkpt lat="46.70433" lon="6.37654">
        <ele>863</ele>
        <time>2019-05-04T17:37:05Z</time>
      </trkpt>
      <trkpt lat="46.70433" lon="6.3765">
        <ele>863</ele>
        <time>2019-05-04T17:37:08Z</time>
      </trkpt>
      <trkpt lat="46.70433" lon="6.37643">
        <ele>862</ele>
        <time>2019-05-04T17:37:11Z</time>
      </trkpt>
      <trkpt lat="46.70433" lon="6.37638">
        <ele>862</ele>
        <time>2019-05-04T17:37:14Z</time>
      </trkpt>
      <trkpt lat="46.70435" lon="6.37634">
        <ele>861</ele>
        <time>2019-05-04T17:37:16Z</time>
      </trkpt>
      <trkpt lat="46.70435" lon="6.3763">
        <ele>861</ele>
        <time>2019-05-04T17:37:18Z</time>
      </trkpt>
      <trkpt lat="46.70433" lon="6.37618">
        <ele>861</ele>
        <time>2019-05-04T17:37:24Z</time>
      </trkpt>
      <trkpt lat="46.70434" lon="6.37617">
        <ele>860</ele>
        <time>2019-05-04T17:37:25Z</time>
      </trkpt>
      <trkpt lat="46.70435" lon="6.37612">
        <ele>859</ele>
        <time>2019-05-04T17:37:27Z</time>
      </trkpt>
      <trkpt lat="46.70435" lon="6.3761">
        <ele>859</ele>
        <time>2019-05-04T17:37:29Z</time>
      </trkpt>
      <trkpt lat="46.70434" lon="6.37609">
        <ele>860</ele>
        <time>2019-05-04T17:37:30Z</time>
      </trkpt>
      <trkpt lat="46.70428" lon="6.376">
        <ele>862</ele>
        <time>2019-05-04T17:37:36Z</time>
      </trkpt>
      <trkpt lat="46.70425" lon="6.37592">
        <ele>864</ele>
        <time>2019-05-04T17:37:41Z</time>
      </trkpt>
      <trkpt lat="46.70424" lon="6.37591">
        <ele>864</ele>
        <time>2019-05-04T17:37:41Z</time>
      </trkpt>
      <trkpt lat="46.70423" lon="6.3759">
        <ele>865</ele>
        <time>2019-05-04T17:37:43Z</time>
      </trkpt>
      <trkpt lat="46.70422" lon="6.37587">
        <ele>866</ele>
        <time>2019-05-04T17:37:44Z</time>
      </trkpt>
      <trkpt lat="46.70419" lon="6.37584">
        <ele>867</ele>
        <time>2019-05-04T17:37:47Z</time>
      </trkpt>
      <trkpt lat="46.70418" lon="6.37584">
        <ele>867</ele>
        <time>2019-05-04T17:37:47Z</time>
      </trkpt>
      <trkpt lat="46.70418" lon="6.37583">
        <ele>867</ele>
        <time>2019-05-04T17:37:48Z</time>
      </trkpt>
      <trkpt lat="46.70417" lon="6.37583">
        <ele>867</ele>
        <time>2019-05-04T17:37:48Z</time>
      </trkpt>
      <trkpt lat="46.70414" lon="6.37583">
        <ele>869</ele>
        <time>2019-05-04T17:37:51Z</time>
      </trkpt>
      <trkpt lat="46.70409" lon="6.3758">
        <ele>871</ele>
        <time>2019-05-04T17:37:55Z</time>
      </trkpt>
      <trkpt lat="46.70406" lon="6.37579">
        <ele>872</ele>
        <time>2019-05-04T17:37:58Z</time>
      </trkpt>
      <trkpt lat="46.70399" lon="6.37574">
        <ele>875</ele>
        <time>2019-05-04T17:38:04Z</time>
      </trkpt>
      <trkpt lat="46.70393" lon="6.37569">
        <ele>877</ele>
        <time>2019-05-04T17:38:08Z</time>
      </trkpt>
      <trkpt lat="46.70392" lon="6.37567">
        <ele>877</ele>
        <time>2019-05-04T17:38:10Z</time>
      </trkpt>
      <trkpt lat="46.70395" lon="6.37559">
        <ele>877</ele>
        <time>2019-05-04T17:38:14Z</time>
      </trkpt>
      <trkpt lat="46.70395" lon="6.37556">
        <ele>877</ele>
        <time>2019-05-04T17:38:16Z</time>
      </trkpt>
      <trkpt lat="46.70395" lon="6.37553">
        <ele>877</ele>
        <time>2019-05-04T17:38:17Z</time>
      </trkpt>
      <trkpt lat="46.70395" lon="6.37552">
        <ele>877</ele>
        <time>2019-05-04T17:38:18Z</time>
      </trkpt>
      <trkpt lat="46.70394" lon="6.37549">
        <ele>877</ele>
        <time>2019-05-04T17:38:20Z</time>
      </trkpt>
      <trkpt lat="46.70393" lon="6.37548">
        <ele>878</ele>
        <time>2019-05-04T17:38:20Z</time>
      </trkpt>
      <trkpt lat="46.70392" lon="6.37544">
        <ele>878</ele>
        <time>2019-05-04T17:38:23Z</time>
      </trkpt>
      <trkpt lat="46.70391" lon="6.3754">
        <ele>879</ele>
        <time>2019-05-04T17:38:25Z</time>
      </trkpt>
      <trkpt lat="46.7039" lon="6.37537">
        <ele>879</ele>
        <time>2019-05-04T17:38:27Z</time>
      </trkpt>
      <trkpt lat="46.70388" lon="6.37532">
        <ele>880</ele>
        <time>2019-05-04T17:38:29Z</time>
      </trkpt>
      <trkpt lat="46.70388" lon="6.37529">
        <ele>880</ele>
        <time>2019-05-04T17:38:31Z</time>
      </trkpt>
      <trkpt lat="46.70388" lon="6.37525">
        <ele>880</ele>
        <time>2019-05-04T17:38:33Z</time>
      </trkpt>
      <trkpt lat="46.70386" lon="6.37523">
        <ele>881</ele>
        <time>2019-05-04T17:38:35Z</time>
      </trkpt>
      <trkpt lat="46.70382" lon="6.37517">
        <ele>882</ele>
        <time>2019-05-04T17:38:39Z</time>
      </trkpt>
      <trkpt lat="46.70375" lon="6.37505">
        <ele>884</ele>
        <time>2019-05-04T17:38:47Z</time>
      </trkpt>
      <trkpt lat="46.7037" lon="6.37499">
        <ele>885</ele>
        <time>2019-05-04T17:38:52Z</time>
      </trkpt>
      <trkpt lat="46.70369" lon="6.37498">
        <ele>885</ele>
        <time>2019-05-04T17:38:53Z</time>
      </trkpt>
      <trkpt lat="46.70362" lon="6.37492">
        <ele>886</ele>
        <time>2019-05-04T17:38:58Z</time>
      </trkpt>
      <trkpt lat="46.70361" lon="6.37491">
        <ele>887</ele>
        <time>2019-05-04T17:39:00Z</time>
      </trkpt>
      <trkpt lat="46.70355" lon="6.37479">
        <ele>888</ele>
        <time>2019-05-04T17:39:07Z</time>
      </trkpt>
      <trkpt lat="46.70353" lon="6.37473">
        <ele>889</ele>
        <time>2019-05-04T17:39:10Z</time>
      </trkpt>
      <trkpt lat="46.7035" lon="6.37467">
        <ele>890</ele>
        <time>2019-05-04T17:39:14Z</time>
      </trkpt>
      <trkpt lat="46.70345" lon="6.37462">
        <ele>891</ele>
        <time>2019-05-04T17:39:19Z</time>
      </trkpt>
      <trkpt lat="46.70341" lon="6.37456">
        <ele>892</ele>
        <time>2019-05-04T17:39:22Z</time>
      </trkpt>
      <trkpt lat="46.70338" lon="6.3745">
        <ele>893</ele>
        <time>2019-05-04T17:39:26Z</time>
      </trkpt>
      <trkpt lat="46.70336" lon="6.37425">
        <ele>893</ele>
        <time>2019-05-04T17:39:39Z</time>
      </trkpt>
      <trkpt lat="46.70337" lon="6.37422">
        <ele>893</ele>
        <time>2019-05-04T17:39:40Z</time>
      </trkpt>
      <trkpt lat="46.70338" lon="6.37418">
        <ele>892</ele>
        <time>2019-05-04T17:39:43Z</time>
      </trkpt>
      <trkpt lat="46.70338" lon="6.37411">
        <ele>892</ele>
        <time>2019-05-04T17:39:46Z</time>
      </trkpt>
      <trkpt lat="46.70338" lon="6.37408">
        <ele>893</ele>
        <time>2019-05-04T17:39:48Z</time>
      </trkpt>
      <trkpt lat="46.70335" lon="6.37395">
        <ele>893</ele>
        <time>2019-05-04T17:39:55Z</time>
      </trkpt>
      <trkpt lat="46.70335" lon="6.37387">
        <ele>894</ele>
        <time>2019-05-04T17:39:59Z</time>
      </trkpt>
      <trkpt lat="46.70334" lon="6.37374">
        <ele>894</ele>
        <time>2019-05-04T17:40:05Z</time>
      </trkpt>
      <trkpt lat="46.70332" lon="6.37368">
        <ele>895</ele>
        <time>2019-05-04T17:40:08Z</time>
      </trkpt>
      <trkpt lat="46.70332" lon="6.37365">
        <ele>895</ele>
        <time>2019-05-04T17:40:10Z</time>
      </trkpt>
      <trkpt lat="46.7033" lon="6.3736">
        <ele>895</ele>
        <time>2019-05-04T17:40:13Z</time>
      </trkpt>
      <trkpt lat="46.70328" lon="6.37341">
        <ele>895</ele>
        <time>2019-05-04T17:40:22Z</time>
      </trkpt>
      <trkpt lat="46.70326" lon="6.37335">
        <ele>896</ele>
        <time>2019-05-04T17:40:26Z</time>
      </trkpt>
      <trkpt lat="46.70323" lon="6.37324">
        <ele>896</ele>
        <time>2019-05-04T17:40:31Z</time>
      </trkpt>
      <trkpt lat="46.70322" lon="6.37319">
        <ele>896</ele>
        <time>2019-05-04T17:40:34Z</time>
      </trkpt>
      <trkpt lat="46.70316" lon="6.37309">
        <ele>897</ele>
        <time>2019-05-04T17:40:41Z</time>
      </trkpt>
      <trkpt lat="46.70316" lon="6.37308">
        <ele>896</ele>
        <time>2019-05-04T17:40:42Z</time>
      </trkpt>
      <trkpt lat="46.70316" lon="6.373">
        <ele>896</ele>
        <time>2019-05-04T17:40:45Z</time>
      </trkpt>
      <trkpt lat="46.70306" lon="6.37279">
        <ele>897</ele>
        <time>2019-05-04T17:40:59Z</time>
      </trkpt>
      <trkpt lat="46.70304" lon="6.37276">
        <ele>897</ele>
        <time>2019-05-04T17:41:00Z</time>
      </trkpt>
      <trkpt lat="46.70301" lon="6.37271">
        <ele>897</ele>
        <time>2019-05-04T17:41:04Z</time>
      </trkpt>
      <trkpt lat="46.70297" lon="6.3726">
        <ele>897</ele>
        <time>2019-05-04T17:41:10Z</time>
      </trkpt>
      <trkpt lat="46.70296" lon="6.37257">
        <ele>897</ele>
        <time>2019-05-04T17:41:12Z</time>
      </trkpt>
      <trkpt lat="46.70295" lon="6.37256">
        <ele>897</ele>
        <time>2019-05-04T17:41:12Z</time>
      </trkpt>
      <trkpt lat="46.70293" lon="6.37248">
        <ele>897</ele>
        <time>2019-05-04T17:41:17Z</time>
      </trkpt>
      <trkpt lat="46.70287" lon="6.37232">
        <ele>897</ele>
        <time>2019-05-04T17:41:26Z</time>
      </trkpt>
      <trkpt lat="46.70284" lon="6.37219">
        <ele>897</ele>
        <time>2019-05-04T17:41:32Z</time>
      </trkpt>
      <trkpt lat="46.70279" lon="6.37206">
        <ele>897</ele>
        <time>2019-05-04T17:41:40Z</time>
      </trkpt>
      <trkpt lat="46.70275" lon="6.37201">
        <ele>898</ele>
        <time>2019-05-04T17:41:44Z</time>
      </trkpt>
      <trkpt lat="46.70268" lon="6.37191">
        <ele>902</ele>
        <time>2019-05-04T17:41:52Z</time>
      </trkpt>
      <trkpt lat="46.70267" lon="6.37189">
        <ele>902</ele>
        <time>2019-05-04T17:41:52Z</time>
      </trkpt>
      <trkpt lat="46.70265" lon="6.37184">
        <ele>903</ele>
        <time>2019-05-04T17:41:55Z</time>
      </trkpt>
      <trkpt lat="46.70264" lon="6.37176">
        <ele>903</ele>
        <time>2019-05-04T17:41:59Z</time>
      </trkpt>
      <trkpt lat="46.70264" lon="6.37174">
        <ele>904</ele>
        <time>2019-05-04T17:42:01Z</time>
      </trkpt>
      <trkpt lat="46.70263" lon="6.37169">
        <ele>904</ele>
        <time>2019-05-04T17:42:03Z</time>
      </trkpt>
      <trkpt lat="46.70263" lon="6.37159">
        <ele>904</ele>
        <time>2019-05-04T17:42:08Z</time>
      </trkpt>
      <trkpt lat="46.70263" lon="6.37152">
        <ele>904</ele>
        <time>2019-05-04T17:42:12Z</time>
      </trkpt>
      <trkpt lat="46.70262" lon="6.37142">
        <ele>905</ele>
        <time>2019-05-04T17:42:17Z</time>
      </trkpt>
      <trkpt lat="46.70262" lon="6.3714">
        <ele>904</ele>
        <time>2019-05-04T17:42:18Z</time>
      </trkpt>
      <trkpt lat="46.70263" lon="6.37134">
        <ele>904</ele>
        <time>2019-05-04T17:42:21Z</time>
      </trkpt>
      <trkpt lat="46.70262" lon="6.37132">
        <ele>905</ele>
        <time>2019-05-04T17:42:22Z</time>
      </trkpt>
      <trkpt lat="46.7026" lon="6.37112">
        <ele>905</ele>
        <time>2019-05-04T17:42:32Z</time>
      </trkpt>
      <trkpt lat="46.70261" lon="6.37109">
        <ele>905</ele>
        <time>2019-05-04T17:42:34Z</time>
      </trkpt>
      <trkpt lat="46.7026" lon="6.37105">
        <ele>905</ele>
        <time>2019-05-04T17:42:36Z</time>
      </trkpt>
      <trkpt lat="46.70257" lon="6.37097">
        <ele>906</ele>
        <time>2019-05-04T17:42:41Z</time>
      </trkpt>
      <trkpt lat="46.70258" lon="6.37096">
        <ele>906</ele>
        <time>2019-05-04T17:42:41Z</time>
      </trkpt>
      <trkpt lat="46.70258" lon="6.37095">
        <ele>906</ele>
        <time>2019-05-04T17:42:42Z</time>
      </trkpt>
      <trkpt lat="46.70259" lon="6.37088">
        <ele>906</ele>
        <time>2019-05-04T17:42:45Z</time>
      </trkpt>
      <trkpt lat="46.70257" lon="6.37083">
        <ele>906</ele>
        <time>2019-05-04T17:42:48Z</time>
      </trkpt>
      <trkpt lat="46.70246" lon="6.37062">
        <ele>909</ele>
        <time>2019-05-04T17:43:01Z</time>
      </trkpt>
      <trkpt lat="46.70234" lon="6.37061">
        <ele>913</ele>
        <time>2019-05-04T17:43:10Z</time>
      </trkpt>
      <trkpt lat="46.70227" lon="6.37063">
        <ele>916</ele>
        <time>2019-05-04T17:43:16Z</time>
      </trkpt>
      <trkpt lat="46.70218" lon="6.37063">
        <ele>919</ele>
        <time>2019-05-04T17:43:23Z</time>
      </trkpt>
      <trkpt lat="46.70213" lon="6.37062">
        <ele>920</ele>
        <time>2019-05-04T17:43:26Z</time>
      </trkpt>
      <trkpt lat="46.7021" lon="6.37062">
        <ele>921</ele>
        <time>2019-05-04T17:43:28Z</time>
      </trkpt>
      <trkpt lat="46.70207" lon="6.3706">
        <ele>922</ele>
        <time>2019-05-04T17:43:31Z</time>
      </trkpt>
      <trkpt lat="46.70204" lon="6.37057">
        <ele>923</ele>
        <time>2019-05-04T17:43:34Z</time>
      </trkpt>
      <trkpt lat="46.70196" lon="6.37053">
        <ele>925</ele>
        <time>2019-05-04T17:43:40Z</time>
      </trkpt>
      <trkpt lat="46.70195" lon="6.3705">
        <ele>926</ele>
        <time>2019-05-04T17:43:42Z</time>
      </trkpt>
      <trkpt lat="46.70194" lon="6.37046">
        <ele>926</ele>
        <time>2019-05-04T17:43:44Z</time>
      </trkpt>
      <trkpt lat="46.70194" lon="6.3704">
        <ele>926</ele>
        <time>2019-05-04T17:43:47Z</time>
      </trkpt>
      <trkpt lat="46.70187" lon="6.37033">
        <ele>930</ele>
        <time>2019-05-04T17:43:54Z</time>
      </trkpt>
      <trkpt lat="46.70177" lon="6.37023">
        <ele>935</ele>
        <time>2019-05-04T17:44:02Z</time>
      </trkpt>
      <trkpt lat="46.70172" lon="6.3702">
        <ele>938</ele>
        <time>2019-05-04T17:44:07Z</time>
      </trkpt>
      <trkpt lat="46.70166" lon="6.37016">
        <ele>940</ele>
        <time>2019-05-04T17:44:12Z</time>
      </trkpt>
      <trkpt lat="46.70161" lon="6.37008">
        <ele>942</ele>
        <time>2019-05-04T17:44:17Z</time>
      </trkpt>
      <trkpt lat="46.7016" lon="6.37001">
        <ele>942</ele>
        <time>2019-05-04T17:44:21Z</time>
      </trkpt>
      <trkpt lat="46.70158" lon="6.36998">
        <ele>943</ele>
        <time>2019-05-04T17:44:23Z</time>
      </trkpt>
      <trkpt lat="46.70156" lon="6.36995">
        <ele>944</ele>
        <time>2019-05-04T17:44:25Z</time>
      </trkpt>
      <trkpt lat="46.70154" lon="6.36992">
        <ele>944</ele>
        <time>2019-05-04T17:44:27Z</time>
      </trkpt>
      <trkpt lat="46.70154" lon="6.36986">
        <ele>944</ele>
        <time>2019-05-04T17:44:30Z</time>
      </trkpt>
      <trkpt lat="46.70152" lon="6.36979">
        <ele>944</ele>
        <time>2019-05-04T17:44:34Z</time>
      </trkpt>
      <trkpt lat="46.7015" lon="6.36973">
        <ele>944</ele>
        <time>2019-05-04T17:44:38Z</time>
      </trkpt>
      <trkpt lat="46.70146" lon="6.36968">
        <ele>945</ele>
        <time>2019-05-04T17:44:41Z</time>
      </trkpt>
      <trkpt lat="46.70146" lon="6.36963">
        <ele>945</ele>
        <time>2019-05-04T17:44:44Z</time>
      </trkpt>
      <trkpt lat="46.70142" lon="6.36951">
        <ele>945</ele>
        <time>2019-05-04T17:44:50Z</time>
      </trkpt>
      <trkpt lat="46.70141" lon="6.36947">
        <ele>945</ele>
        <time>2019-05-04T17:44:52Z</time>
      </trkpt>
      <trkpt lat="46.70139" lon="6.36945">
        <ele>946</ele>
        <time>2019-05-04T17:44:54Z</time>
      </trkpt>
      <trkpt lat="46.70136" lon="6.36944">
        <ele>948</ele>
        <time>2019-05-04T17:44:57Z</time>
      </trkpt>
      <trkpt lat="46.7013" lon="6.36936">
        <ele>950</ele>
        <time>2019-05-04T17:45:03Z</time>
      </trkpt>
      <trkpt lat="46.70128" lon="6.36934">
        <ele>950</ele>
        <time>2019-05-04T17:45:05Z</time>
      </trkpt>
      <trkpt lat="46.70121" lon="6.36926">
        <ele>952</ele>
        <time>2019-05-04T17:45:11Z</time>
      </trkpt>
      <trkpt lat="46.7012" lon="6.36923">
        <ele>952</ele>
        <time>2019-05-04T17:45:13Z</time>
      </trkpt>
      <trkpt lat="46.70113" lon="6.36917">
        <ele>954</ele>
        <time>2019-05-04T17:45:18Z</time>
      </trkpt>
      <trkpt lat="46.70112" lon="6.36915">
        <ele>954</ele>
        <time>2019-05-04T17:45:20Z</time>
      </trkpt>
      <trkpt lat="46.70111" lon="6.36914">
        <ele>954</ele>
        <time>2019-05-04T17:45:21Z</time>
      </trkpt>
      <trkpt lat="46.70109" lon="6.36914">
        <ele>955</ele>
        <time>2019-05-04T17:45:22Z</time>
      </trkpt>
      <trkpt lat="46.70106" lon="6.36913">
        <ele>956</ele>
        <time>2019-05-04T17:45:24Z</time>
      </trkpt>
      <trkpt lat="46.701" lon="6.36911">
        <ele>958</ele>
        <time>2019-05-04T17:45:29Z</time>
      </trkpt>
      <trkpt lat="46.70091" lon="6.36904">
        <ele>960</ele>
        <time>2019-05-04T17:45:36Z</time>
      </trkpt>
      <trkpt lat="46.70086" lon="6.36903">
        <ele>962</ele>
        <time>2019-05-04T17:45:40Z</time>
      </trkpt>
      <trkpt lat="46.70082" lon="6.36899">
        <ele>963</ele>
        <time>2019-05-04T17:45:44Z</time>
      </trkpt>
      <trkpt lat="46.70078" lon="6.36894">
        <ele>963</ele>
        <time>2019-05-04T17:45:48Z</time>
      </trkpt>
      <trkpt lat="46.70074" lon="6.36888">
        <ele>964</ele>
        <time>2019-05-04T17:45:52Z</time>
      </trkpt>
      <trkpt lat="46.70069" lon="6.3688">
        <ele>964</ele>
        <time>2019-05-04T17:45:57Z</time>
      </trkpt>
      <trkpt lat="46.70066" lon="6.36872">
        <ele>963</ele>
        <time>2019-05-04T17:46:02Z</time>
      </trkpt>
      <trkpt lat="46.70063" lon="6.36866">
        <ele>963</ele>
        <time>2019-05-04T17:46:06Z</time>
      </trkpt>
      <trkpt lat="46.70062" lon="6.36865">
        <ele>963</ele>
        <time>2019-05-04T17:46:06Z</time>
      </trkpt>
      <trkpt lat="46.7006" lon="6.36862">
        <ele>963</ele>
        <time>2019-05-04T17:46:09Z</time>
      </trkpt>
      <trkpt lat="46.70059" lon="6.36861">
        <ele>964</ele>
        <time>2019-05-04T17:46:10Z</time>
      </trkpt>
      <trkpt lat="46.70057" lon="6.36859">
        <ele>964</ele>
        <time>2019-05-04T17:46:11Z</time>
      </trkpt>
      <trkpt lat="46.70055" lon="6.36857">
        <ele>965</ele>
        <time>2019-05-04T17:46:14Z</time>
      </trkpt>
      <trkpt lat="46.70049" lon="6.36853">
        <ele>966</ele>
        <time>2019-05-04T17:46:18Z</time>
      </trkpt>
      <trkpt lat="46.70044" lon="6.36852">
        <ele>968</ele>
        <time>2019-05-04T17:46:22Z</time>
      </trkpt>
      <trkpt lat="46.70041" lon="6.36849">
        <ele>969</ele>
        <time>2019-05-04T17:46:25Z</time>
      </trkpt>
      <trkpt lat="46.70036" lon="6.3684">
        <ele>969</ele>
        <time>2019-05-04T17:46:30Z</time>
      </trkpt>
      <trkpt lat="46.70034" lon="6.36836">
        <ele>969</ele>
        <time>2019-05-04T17:46:32Z</time>
      </trkpt>
      <trkpt lat="46.70033" lon="6.36834">
        <ele>968</ele>
        <time>2019-05-04T17:46:34Z</time>
      </trkpt>
      <trkpt lat="46.7003" lon="6.36829">
        <ele>969</ele>
        <time>2019-05-04T17:46:37Z</time>
      </trkpt>
      <trkpt lat="46.70025" lon="6.36822">
        <ele>969</ele>
        <time>2019-05-04T17:46:42Z</time>
      </trkpt>
      <trkpt lat="46.70021" lon="6.36817">
        <ele>970</ele>
        <time>2019-05-04T17:46:47Z</time>
      </trkpt>
      <trkpt lat="46.70017" lon="6.36812">
        <ele>971</ele>
        <time>2019-05-04T17:46:50Z</time>
      </trkpt>
      <trkpt lat="46.70017" lon="6.36812">
        <ele>971</ele>
        <time>2019-05-04T17:46:50Z</time>
      </trkpt>
      <trkpt lat="46.70016" lon="6.36809">
        <ele>971</ele>
        <time>2019-05-04T17:46:52Z</time>
      </trkpt>
      <trkpt lat="46.70013" lon="6.36805">
        <ele>971</ele>
        <time>2019-05-04T17:46:55Z</time>
      </trkpt>
      <trkpt lat="46.70011" lon="6.36801">
        <ele>971</ele>
        <time>2019-05-04T17:46:58Z</time>
      </trkpt>
      <trkpt lat="46.70007" lon="6.36797">
        <ele>972</ele>
        <time>2019-05-04T17:47:01Z</time>
      </trkpt>
      <trkpt lat="46.70007" lon="6.36795">
        <ele>972</ele>
        <time>2019-05-04T17:47:02Z</time>
      </trkpt>
      <trkpt lat="46.70007" lon="6.36795">
        <ele>972</ele>
        <time>2019-05-04T17:47:02Z</time>
      </trkpt>
      <trkpt lat="46.70005" lon="6.36794">
        <ele>972</ele>
        <time>2019-05-04T17:47:04Z</time>
      </trkpt>
      <trkpt lat="46.70002" lon="6.36793">
        <ele>974</ele>
        <time>2019-05-04T17:47:06Z</time>
      </trkpt>
      <trkpt lat="46.69996" lon="6.36788">
        <ele>975</ele>
        <time>2019-05-04T17:47:11Z</time>
      </trkpt>
      <trkpt lat="46.69995" lon="6.36788">
        <ele>976</ele>
        <time>2019-05-04T17:47:12Z</time>
      </trkpt>
      <trkpt lat="46.69989" lon="6.36784">
        <ele>978</ele>
        <time>2019-05-04T17:47:17Z</time>
      </trkpt>
      <trkpt lat="46.69988" lon="6.36783">
        <ele>978</ele>
        <time>2019-05-04T17:47:18Z</time>
      </trkpt>
      <trkpt lat="46.69984" lon="6.36782">
        <ele>979</ele>
        <time>2019-05-04T17:47:21Z</time>
      </trkpt>
      <trkpt lat="46.69979" lon="6.36777">
        <ele>981</ele>
        <time>2019-05-04T17:47:26Z</time>
      </trkpt>
      <trkpt lat="46.69978" lon="6.36775">
        <ele>981</ele>
        <time>2019-05-04T17:47:27Z</time>
      </trkpt>
      <trkpt lat="46.69973" lon="6.3677">
        <ele>982</ele>
        <time>2019-05-04T17:47:31Z</time>
      </trkpt>
      <trkpt lat="46.69969" lon="6.36767">
        <ele>983</ele>
        <time>2019-05-04T17:47:35Z</time>
      </trkpt>
      <trkpt lat="46.69962" lon="6.36763">
        <ele>985</ele>
        <time>2019-05-04T17:47:40Z</time>
      </trkpt>
      <trkpt lat="46.69957" lon="6.3676">
        <ele>987</ele>
        <time>2019-05-04T17:47:44Z</time>
      </trkpt>
      <trkpt lat="46.69956" lon="6.36759">
        <ele>987</ele>
        <time>2019-05-04T17:47:45Z</time>
      </trkpt>
      <trkpt lat="46.69953" lon="6.36756">
        <ele>988</ele>
        <time>2019-05-04T17:47:48Z</time>
      </trkpt>
      <trkpt lat="46.69952" lon="6.36755">
        <ele>988</ele>
        <time>2019-05-04T17:47:49Z</time>
      </trkpt>
      <trkpt lat="46.69944" lon="6.36748">
        <ele>990</ele>
        <time>2019-05-04T17:47:56Z</time>
      </trkpt>
      <trkpt lat="46.69936" lon="6.36742">
        <ele>992</ele>
        <time>2019-05-04T17:48:02Z</time>
      </trkpt>
      <trkpt lat="46.69933" lon="6.36742">
        <ele>993</ele>
        <time>2019-05-04T17:48:04Z</time>
      </trkpt>
      <trkpt lat="46.6993" lon="6.36741">
        <ele>994</ele>
        <time>2019-05-04T17:48:06Z</time>
      </trkpt>
      <trkpt lat="46.69928" lon="6.3674">
        <ele>995</ele>
        <time>2019-05-04T17:48:08Z</time>
      </trkpt>
      <trkpt lat="46.69927" lon="6.36741">
        <ele>995</ele>
        <time>2019-05-04T17:48:09Z</time>
      </trkpt>
      <trkpt lat="46.69926" lon="6.36742">
        <ele>996</ele>
        <time>2019-05-04T17:48:10Z</time>
      </trkpt>
      <trkpt lat="46.69926" lon="6.36743">
        <ele>996</ele>
        <time>2019-05-04T17:48:11Z</time>
      </trkpt>
      <trkpt lat="46.69926" lon="6.36743">
        <ele>996</ele>
        <time>2019-05-04T17:48:11Z</time>
      </trkpt>
      <trkpt lat="46.69929" lon="6.36745">
        <ele>995</ele>
        <time>2019-05-04T17:48:13Z</time>
      </trkpt>
      <trkpt lat="46.69933" lon="6.36746">
        <ele>994</ele>
        <time>2019-05-04T17:48:16Z</time>
      </trkpt>
      <trkpt lat="46.69938" lon="6.36751">
        <ele>993</ele>
        <time>2019-05-04T17:48:21Z</time>
      </trkpt>
      <trkpt lat="46.69939" lon="6.36758">
        <ele>994</ele>
        <time>2019-05-04T17:48:25Z</time>
      </trkpt>
      <trkpt lat="46.6994" lon="6.36763">
        <ele>995</ele>
        <time>2019-05-04T17:48:27Z</time>
      </trkpt>
      <trkpt lat="46.69941" lon="6.36767">
        <ele>996</ele>
        <time>2019-05-04T17:48:30Z</time>
      </trkpt>
      <trkpt lat="46.69942" lon="6.3677">
        <ele>996</ele>
        <time>2019-05-04T17:48:31Z</time>
      </trkpt>
      <trkpt lat="46.69941" lon="6.36772">
        <ele>997</ele>
        <time>2019-05-04T17:48:33Z</time>
      </trkpt>
      <trkpt lat="46.69943" lon="6.36776">
        <ele>998</ele>
        <time>2019-05-04T17:48:35Z</time>
      </trkpt>
      <trkpt lat="46.69947" lon="6.36783">
        <ele>998</ele>
        <time>2019-05-04T17:48:40Z</time>
      </trkpt>
      <trkpt lat="46.69947" lon="6.36787">
        <ele>999</ele>
        <time>2019-05-04T17:48:42Z</time>
      </trkpt>
      <trkpt lat="46.69948" lon="6.36794">
        <ele>1000</ele>
        <time>2019-05-04T17:48:45Z</time>
      </trkpt>
      <trkpt lat="46.69949" lon="6.36795">
        <ele>999</ele>
        <time>2019-05-04T17:48:46Z</time>
      </trkpt>
      <trkpt lat="46.69958" lon="6.36801">
        <ele>997</ele>
        <time>2019-05-04T17:48:54Z</time>
      </trkpt>
      <trkpt lat="46.69962" lon="6.36808">
        <ele>996</ele>
        <time>2019-05-04T17:48:58Z</time>
      </trkpt>
      <trkpt lat="46.69964" lon="6.36811">
        <ele>996</ele>
        <time>2019-05-04T17:49:00Z</time>
      </trkpt>
      <trkpt lat="46.69967" lon="6.36815">
        <ele>996</ele>
        <time>2019-05-04T17:49:03Z</time>
      </trkpt>
      <trkpt lat="46.69968" lon="6.36819">
        <ele>996</ele>
        <time>2019-05-04T17:49:06Z</time>
      </trkpt>
      <trkpt lat="46.6997" lon="6.36823">
        <ele>996</ele>
        <time>2019-05-04T17:49:08Z</time>
      </trkpt>
      <trkpt lat="46.69974" lon="6.3683">
        <ele>996</ele>
        <time>2019-05-04T17:49:12Z</time>
      </trkpt>
      <trkpt lat="46.69975" lon="6.36831">
        <ele>996</ele>
        <time>2019-05-04T17:49:13Z</time>
      </trkpt>
      <trkpt lat="46.69976" lon="6.3684">
        <ele>997</ele>
        <time>2019-05-04T17:49:18Z</time>
      </trkpt>
      <trkpt lat="46.6998" lon="6.36848">
        <ele>997</ele>
        <time>2019-05-04T17:49:22Z</time>
      </trkpt>
      <trkpt lat="46.69981" lon="6.36855">
        <ele>998</ele>
        <time>2019-05-04T17:49:26Z</time>
      </trkpt>
      <trkpt lat="46.69982" lon="6.36856">
        <ele>998</ele>
        <time>2019-05-04T17:49:27Z</time>
      </trkpt>
      <trkpt lat="46.69984" lon="6.3686">
        <ele>998</ele>
        <time>2019-05-04T17:49:29Z</time>
      </trkpt>
      <trkpt lat="46.69986" lon="6.36864">
        <ele>998</ele>
        <time>2019-05-04T17:49:31Z</time>
      </trkpt>
      <trkpt lat="46.69985" lon="6.36874">
        <ele>1001</ele>
        <time>2019-05-04T17:49:37Z</time>
      </trkpt>
      <trkpt lat="46.69985" lon="6.36878">
        <ele>1002</ele>
        <time>2019-05-04T17:49:39Z</time>
      </trkpt>
      <trkpt lat="46.69988" lon="6.36883">
        <ele>1001</ele>
        <time>2019-05-04T17:49:42Z</time>
      </trkpt>
      <trkpt lat="46.69989" lon="6.36885">
        <ele>1002</ele>
        <time>2019-05-04T17:49:43Z</time>
      </trkpt>
      <trkpt lat="46.6999" lon="6.3689">
        <ele>1002</ele>
        <time>2019-05-04T17:49:46Z</time>
      </trkpt>
      <trkpt lat="46.6999" lon="6.36892">
        <ele>1002</ele>
        <time>2019-05-04T17:49:47Z</time>
      </trkpt>
      <trkpt lat="46.69992" lon="6.36899">
        <ele>1003</ele>
        <time>2019-05-04T17:49:51Z</time>
      </trkpt>
      <trkpt lat="46.69993" lon="6.36901">
        <ele>1003</ele>
        <time>2019-05-04T17:49:52Z</time>
      </trkpt>
      <trkpt lat="46.69993" lon="6.36903">
        <ele>1003</ele>
        <time>2019-05-04T17:49:53Z</time>
      </trkpt>
      <trkpt lat="46.69994" lon="6.36905">
        <ele>1004</ele>
        <time>2019-05-04T17:49:54Z</time>
      </trkpt>
      <trkpt lat="46.69995" lon="6.36907">
        <ele>1004</ele>
        <time>2019-05-04T17:49:56Z</time>
      </trkpt>
      <trkpt lat="46.69996" lon="6.36921">
        <ele>1006</ele>
        <time>2019-05-04T17:50:03Z</time>
      </trkpt>
      <trkpt lat="46.69998" lon="6.36926">
        <ele>1007</ele>
        <time>2019-05-04T17:50:05Z</time>
      </trkpt>
      <trkpt lat="46.69999" lon="6.36933">
        <ele>1008</ele>
        <time>2019-05-04T17:50:09Z</time>
      </trkpt>
      <trkpt lat="46.7" lon="6.36939">
        <ele>1009</ele>
        <time>2019-05-04T17:50:12Z</time>
      </trkpt>
      <trkpt lat="46.69999" lon="6.36942">
        <ele>1010</ele>
        <time>2019-05-04T17:50:14Z</time>
      </trkpt>
      <trkpt lat="46.7" lon="6.36945">
        <ele>1010</ele>
        <time>2019-05-04T17:50:15Z</time>
      </trkpt>
      <trkpt lat="46.7" lon="6.36946">
        <ele>1010</ele>
        <time>2019-05-04T17:50:16Z</time>
      </trkpt>
      <trkpt lat="46.70001" lon="6.36948">
        <ele>1010</ele>
        <time>2019-05-04T17:50:17Z</time>
      </trkpt>
      <trkpt lat="46.70004" lon="6.36953">
        <ele>1011</ele>
        <time>2019-05-04T17:50:20Z</time>
      </trkpt>
      <trkpt lat="46.70004" lon="6.36956">
        <ele>1011</ele>
        <time>2019-05-04T17:50:22Z</time>
      </trkpt>
      <trkpt lat="46.70003" lon="6.36958">
        <ele>1012</ele>
        <time>2019-05-04T17:50:23Z</time>
      </trkpt>
      <trkpt lat="46.70003" lon="6.36963">
        <ele>1013</ele>
        <time>2019-05-04T17:50:26Z</time>
      </trkpt>
      <trkpt lat="46.70002" lon="6.36964">
        <ele>1014</ele>
        <time>2019-05-04T17:50:27Z</time>
      </trkpt>
      <trkpt lat="46.70003" lon="6.36965">
        <ele>1014</ele>
        <time>2019-05-04T17:50:27Z</time>
      </trkpt>
      <trkpt lat="46.70003" lon="6.36971">
        <ele>1015</ele>
        <time>2019-05-04T17:50:30Z</time>
      </trkpt>
      <trkpt lat="46.70006" lon="6.36977">
        <ele>1016</ele>
        <time>2019-05-04T17:50:34Z</time>
      </trkpt>
      <trkpt lat="46.70006" lon="6.36981">
        <ele>1016</ele>
        <time>2019-05-04T17:50:36Z</time>
      </trkpt>
      <trkpt lat="46.70006" lon="6.36984">
        <ele>1017</ele>
        <time>2019-05-04T17:50:37Z</time>
      </trkpt>
      <trkpt lat="46.70008" lon="6.36996">
        <ele>1019</ele>
        <time>2019-05-04T17:50:44Z</time>
      </trkpt>
      <trkpt lat="46.70009" lon="6.36997">
        <ele>1019</ele>
        <time>2019-05-04T17:50:45Z</time>
      </trkpt>
      <trkpt lat="46.7001" lon="6.37">
        <ele>1019</ele>
        <time>2019-05-04T17:50:46Z</time>
      </trkpt>
      <trkpt lat="46.70014" lon="6.37005">
        <ele>1019</ele>
        <time>2019-05-04T17:50:50Z</time>
      </trkpt>
      <trkpt lat="46.70016" lon="6.37013">
        <ele>1019</ele>
        <time>2019-05-04T17:50:54Z</time>
      </trkpt>
      <trkpt lat="46.70017" lon="6.37016">
        <ele>1020</ele>
        <time>2019-05-04T17:50:56Z</time>
      </trkpt>
      <trkpt lat="46.70018" lon="6.37017">
        <ele>1020</ele>
        <time>2019-05-04T17:50:57Z</time>
      </trkpt>
      <trkpt lat="46.7002" lon="6.37021">
        <ele>1019</ele>
        <time>2019-05-04T17:50:59Z</time>
      </trkpt>
      <trkpt lat="46.70022" lon="6.37022">
        <ele>1019</ele>
        <time>2019-05-04T17:51:01Z</time>
      </trkpt>
      <trkpt lat="46.70025" lon="6.37027">
        <ele>1018</ele>
        <time>2019-05-04T17:51:04Z</time>
      </trkpt>
      <trkpt lat="46.70024" lon="6.37031">
        <ele>1020</ele>
        <time>2019-05-04T17:51:06Z</time>
      </trkpt>
      <trkpt lat="46.70024" lon="6.37033">
        <ele>1020</ele>
        <time>2019-05-04T17:51:08Z</time>
      </trkpt>
      <trkpt lat="46.70026" lon="6.37034">
        <ele>1019</ele>
        <time>2019-05-04T17:51:09Z</time>
      </trkpt>
      <trkpt lat="46.70027" lon="6.37044">
        <ele>1021</ele>
        <time>2019-05-04T17:51:14Z</time>
      </trkpt>
      <trkpt lat="46.70027" lon="6.37046">
        <ele>1021</ele>
        <time>2019-05-04T17:51:15Z</time>
      </trkpt>
      <trkpt lat="46.70028" lon="6.3705">
        <ele>1021</ele>
        <time>2019-05-04T17:51:17Z</time>
      </trkpt>
      <trkpt lat="46.70026" lon="6.37057">
        <ele>1024</ele>
        <time>2019-05-04T17:51:22Z</time>
      </trkpt>
      <trkpt lat="46.70026" lon="6.37058">
        <ele>1024</ele>
        <time>2019-05-04T17:51:22Z</time>
      </trkpt>
      <trkpt lat="46.70026" lon="6.37062">
        <ele>1025</ele>
        <time>2019-05-04T17:51:24Z</time>
      </trkpt>
      <trkpt lat="46.70022" lon="6.37073">
        <ele>1029</ele>
        <time>2019-05-04T17:51:31Z</time>
      </trkpt>
      <trkpt lat="46.70022" lon="6.37076">
        <ele>1029</ele>
        <time>2019-05-04T17:51:32Z</time>
      </trkpt>
      <trkpt lat="46.70022" lon="6.37078">
        <ele>1030</ele>
        <time>2019-05-04T17:51:34Z</time>
      </trkpt>
      <trkpt lat="46.70021" lon="6.37086">
        <ele>1031</ele>
        <time>2019-05-04T17:51:38Z</time>
      </trkpt>
      <trkpt lat="46.70022" lon="6.37092">
        <ele>1032</ele>
        <time>2019-05-04T17:51:41Z</time>
      </trkpt>
      <trkpt lat="46.70023" lon="6.37094">
        <ele>1032</ele>
        <time>2019-05-04T17:51:42Z</time>
      </trkpt>
      <trkpt lat="46.70024" lon="6.37097">
        <ele>1032</ele>
        <time>2019-05-04T17:51:43Z</time>
      </trkpt>
      <trkpt lat="46.70023" lon="6.37098">
        <ele>1033</ele>
        <time>2019-05-04T17:51:44Z</time>
      </trkpt>
      <trkpt lat="46.70022" lon="6.37101">
        <ele>1034</ele>
        <time>2019-05-04T17:51:46Z</time>
      </trkpt>
      <trkpt lat="46.70024" lon="6.37106">
        <ele>1034</ele>
        <time>2019-05-04T17:51:49Z</time>
      </trkpt>
      <trkpt lat="46.70024" lon="6.37107">
        <ele>1034</ele>
        <time>2019-05-04T17:51:49Z</time>
      </trkpt>
      <trkpt lat="46.70026" lon="6.37115">
        <ele>1034</ele>
        <time>2019-05-04T17:51:53Z</time>
      </trkpt>
      <trkpt lat="46.70028" lon="6.37119">
        <ele>1033</ele>
        <time>2019-05-04T17:51:56Z</time>
      </trkpt>
      <trkpt lat="46.70028" lon="6.37121">
        <ele>1033</ele>
        <time>2019-05-04T17:51:57Z</time>
      </trkpt>
      <trkpt lat="46.70029" lon="6.37126">
        <ele>1032</ele>
        <time>2019-05-04T17:51:59Z</time>
      </trkpt>
      <trkpt lat="46.70028" lon="6.37135">
        <ele>1033</ele>
        <time>2019-05-04T17:52:04Z</time>
      </trkpt>
      <trkpt lat="46.70029" lon="6.37136">
        <ele>1033</ele>
        <time>2019-05-04T17:52:05Z</time>
      </trkpt>
      <trkpt lat="46.7003" lon="6.3714">
        <ele>1033</ele>
        <time>2019-05-04T17:52:07Z</time>
      </trkpt>
      <trkpt lat="46.70026" lon="6.37143">
        <ele>1035</ele>
        <time>2019-05-04T17:52:10Z</time>
      </trkpt>
      <trkpt lat="46.70025" lon="6.37145">
        <ele>1035</ele>
        <time>2019-05-04T17:52:12Z</time>
      </trkpt>
      <trkpt lat="46.70025" lon="6.37146">
        <ele>1036</ele>
        <time>2019-05-04T17:52:12Z</time>
      </trkpt>
      <trkpt lat="46.7002" lon="6.37156">
        <ele>1038</ele>
        <time>2019-05-04T17:52:19Z</time>
      </trkpt>
      <trkpt lat="46.70018" lon="6.37164">
        <ele>1040</ele>
        <time>2019-05-04T17:52:23Z</time>
      </trkpt>
      <trkpt lat="46.70017" lon="6.3717">
        <ele>1041</ele>
        <time>2019-05-04T17:52:27Z</time>
      </trkpt>
      <trkpt lat="46.70016" lon="6.37174">
        <ele>1042</ele>
        <time>2019-05-04T17:52:29Z</time>
      </trkpt>
      <trkpt lat="46.70013" lon="6.37185">
        <ele>1044</ele>
        <time>2019-05-04T17:52:35Z</time>
      </trkpt>
      <trkpt lat="46.7001" lon="6.37198">
        <ele>1045</ele>
        <time>2019-05-04T17:52:41Z</time>
      </trkpt>
      <trkpt lat="46.70009" lon="6.37199">
        <ele>1046</ele>
        <time>2019-05-04T17:52:43Z</time>
      </trkpt>
      <trkpt lat="46.70005" lon="6.37216">
        <ele>1048</ele>
        <time>2019-05-04T17:52:51Z</time>
      </trkpt>
      <trkpt lat="46.70005" lon="6.37217">
        <ele>1048</ele>
        <time>2019-05-04T17:52:52Z</time>
      </trkpt>
      <trkpt lat="46.70002" lon="6.37218">
        <ele>1049</ele>
        <time>2019-05-04T17:52:54Z</time>
      </trkpt>
      <trkpt lat="46.69997" lon="6.37223">
        <ele>1052</ele>
        <time>2019-05-04T17:52:59Z</time>
      </trkpt>
      <trkpt lat="46.69995" lon="6.37231">
        <ele>1053</ele>
        <time>2019-05-04T17:53:04Z</time>
      </trkpt>
      <trkpt lat="46.69995" lon="6.37234">
        <ele>1053</ele>
        <time>2019-05-04T17:53:05Z</time>
      </trkpt>
      <trkpt lat="46.69995" lon="6.37237">
        <ele>1053</ele>
        <time>2019-05-04T17:53:07Z</time>
      </trkpt>
      <trkpt lat="46.69994" lon="6.3724">
        <ele>1053</ele>
        <time>2019-05-04T17:53:08Z</time>
      </trkpt>
      <trkpt lat="46.69993" lon="6.37242">
        <ele>1054</ele>
        <time>2019-05-04T17:53:09Z</time>
      </trkpt>
      <trkpt lat="46.69995" lon="6.37243">
        <ele>1053</ele>
        <time>2019-05-04T17:53:11Z</time>
      </trkpt>
      <trkpt lat="46.69994" lon="6.37249">
        <ele>1053</ele>
        <time>2019-05-04T17:53:14Z</time>
      </trkpt>
      <trkpt lat="46.69994" lon="6.37249">
        <ele>1053</ele>
        <time>2019-05-04T17:53:14Z</time>
      </trkpt>
      <trkpt lat="46.69994" lon="6.37256">
        <ele>1053</ele>
        <time>2019-05-04T17:53:18Z</time>
      </trkpt>
      <trkpt lat="46.69994" lon="6.37267">
        <ele>1054</ele>
        <time>2019-05-04T17:53:23Z</time>
      </trkpt>
      <trkpt lat="46.69993" lon="6.37272">
        <ele>1054</ele>
        <time>2019-05-04T17:53:25Z</time>
      </trkpt>
      <trkpt lat="46.69993" lon="6.37282">
        <ele>1054</ele>
        <time>2019-05-04T17:53:30Z</time>
      </trkpt>
      <trkpt lat="46.69992" lon="6.37285">
        <ele>1054</ele>
        <time>2019-05-04T17:53:32Z</time>
      </trkpt>
      <trkpt lat="46.69991" lon="6.37292">
        <ele>1055</ele>
        <time>2019-05-04T17:53:36Z</time>
      </trkpt>
      <trkpt lat="46.6999" lon="6.37294">
        <ele>1055</ele>
        <time>2019-05-04T17:53:37Z</time>
      </trkpt>
      <trkpt lat="46.69988" lon="6.37301">
        <ele>1055</ele>
        <time>2019-05-04T17:53:41Z</time>
      </trkpt>
      <trkpt lat="46.69988" lon="6.37304">
        <ele>1055</ele>
        <time>2019-05-04T17:53:42Z</time>
      </trkpt>
      <trkpt lat="46.69989" lon="6.3731">
        <ele>1055</ele>
        <time>2019-05-04T17:53:45Z</time>
      </trkpt>
      <trkpt lat="46.69989" lon="6.37313">
        <ele>1055</ele>
        <time>2019-05-04T17:53:47Z</time>
      </trkpt>
      <trkpt lat="46.69988" lon="6.37313">
        <ele>1055</ele>
        <time>2019-05-04T17:53:48Z</time>
      </trkpt>
      <trkpt lat="46.69987" lon="6.37314">
        <ele>1056</ele>
        <time>2019-05-04T17:53:49Z</time>
      </trkpt>
      <trkpt lat="46.69987" lon="6.37316">
        <ele>1056</ele>
        <time>2019-05-04T17:53:50Z</time>
      </trkpt>
      <trkpt lat="46.69988" lon="6.37324">
        <ele>1055</ele>
        <time>2019-05-04T17:53:54Z</time>
      </trkpt>
      <trkpt lat="46.69989" lon="6.37328">
        <ele>1054</ele>
        <time>2019-05-04T17:53:56Z</time>
      </trkpt>
      <trkpt lat="46.69989" lon="6.3733">
        <ele>1054</ele>
        <time>2019-05-04T17:53:57Z</time>
      </trkpt>
      <trkpt lat="46.69988" lon="6.37336">
        <ele>1055</ele>
        <time>2019-05-04T17:54:00Z</time>
      </trkpt>
      <trkpt lat="46.69988" lon="6.37337">
        <ele>1055</ele>
        <time>2019-05-04T17:54:01Z</time>
      </trkpt>
      <trkpt lat="46.69988" lon="6.37348">
        <ele>1054</ele>
        <time>2019-05-04T17:54:07Z</time>
      </trkpt>
      <trkpt lat="46.69987" lon="6.37352">
        <ele>1054</ele>
        <time>2019-05-04T17:54:08Z</time>
      </trkpt>
      <trkpt lat="46.69986" lon="6.37353">
        <ele>1055</ele>
        <time>2019-05-04T17:54:09Z</time>
      </trkpt>
      <trkpt lat="46.69986" lon="6.37355">
        <ele>1055</ele>
        <time>2019-05-04T17:54:11Z</time>
      </trkpt>
      <trkpt lat="46.69986" lon="6.37356">
        <ele>1055</ele>
        <time>2019-05-04T17:54:11Z</time>
      </trkpt>
      <trkpt lat="46.69985" lon="6.3736">
        <ele>1055</ele>
        <time>2019-05-04T17:54:13Z</time>
      </trkpt>
      <trkpt lat="46.69984" lon="6.37363">
        <ele>1055</ele>
        <time>2019-05-04T17:54:15Z</time>
      </trkpt>
      <trkpt lat="46.69981" lon="6.37369">
        <ele>1057</ele>
        <time>2019-05-04T17:54:19Z</time>
      </trkpt>
      <trkpt lat="46.69979" lon="6.37371">
        <ele>1058</ele>
        <time>2019-05-04T17:54:21Z</time>
      </trkpt>
      <trkpt lat="46.69976" lon="6.37374">
        <ele>1059</ele>
        <time>2019-05-04T17:54:24Z</time>
      </trkpt>
      <trkpt lat="46.69971" lon="6.3738">
        <ele>1061</ele>
        <time>2019-05-04T17:54:28Z</time>
      </trkpt>
      <trkpt lat="46.6997" lon="6.37384">
        <ele>1062</ele>
        <time>2019-05-04T17:54:31Z</time>
      </trkpt>
      <trkpt lat="46.69968" lon="6.37386">
        <ele>1062</ele>
        <time>2019-05-04T17:54:32Z</time>
      </trkpt>
      <trkpt lat="46.69966" lon="6.37392">
        <ele>1063</ele>
        <time>2019-05-04T17:54:36Z</time>
      </trkpt>
      <trkpt lat="46.69967" lon="6.37399">
        <ele>1062</ele>
        <time>2019-05-04T17:54:39Z</time>
      </trkpt>
      <trkpt lat="46.69968" lon="6.37406">
        <ele>1062</ele>
        <time>2019-05-04T17:54:43Z</time>
      </trkpt>
      <trkpt lat="46.69968" lon="6.37407">
        <ele>1062</ele>
        <time>2019-05-04T17:54:43Z</time>
      </trkpt>
      <trkpt lat="46.69966" lon="6.37413">
        <ele>1063</ele>
        <time>2019-05-04T17:54:47Z</time>
      </trkpt>
      <trkpt lat="46.69964" lon="6.37419">
        <ele>1063</ele>
        <time>2019-05-04T17:54:50Z</time>
      </trkpt>
      <trkpt lat="46.69961" lon="6.37419">
        <ele>1064</ele>
        <time>2019-05-04T17:54:52Z</time>
      </trkpt>
      <trkpt lat="46.69959" lon="6.37421">
        <ele>1065</ele>
        <time>2019-05-04T17:54:53Z</time>
      </trkpt>
      <trkpt lat="46.69958" lon="6.37423">
        <ele>1066</ele>
        <time>2019-05-04T17:54:55Z</time>
      </trkpt>
      <trkpt lat="46.69957" lon="6.37424">
        <ele>1066</ele>
        <time>2019-05-04T17:54:56Z</time>
      </trkpt>
      <trkpt lat="46.69955" lon="6.37427">
        <ele>1066</ele>
        <time>2019-05-04T17:54:58Z</time>
      </trkpt>
      <trkpt lat="46.69956" lon="6.37432">
        <ele>1066</ele>
        <time>2019-05-04T17:55:00Z</time>
      </trkpt>
      <trkpt lat="46.69953" lon="6.37443">
        <ele>1067</ele>
        <time>2019-05-04T17:55:07Z</time>
      </trkpt>
      <trkpt lat="46.69949" lon="6.37446">
        <ele>1069</ele>
        <time>2019-05-04T17:55:10Z</time>
      </trkpt>
      <trkpt lat="46.69943" lon="6.3745">
        <ele>1071</ele>
        <time>2019-05-04T17:55:15Z</time>
      </trkpt>
      <trkpt lat="46.69942" lon="6.37451">
        <ele>1071</ele>
        <time>2019-05-04T17:55:16Z</time>
      </trkpt>
      <trkpt lat="46.6994" lon="6.37455">
        <ele>1072</ele>
        <time>2019-05-04T17:55:18Z</time>
      </trkpt>
      <trkpt lat="46.69934" lon="6.37462">
        <ele>1074</ele>
        <time>2019-05-04T17:55:24Z</time>
      </trkpt>
      <trkpt lat="46.69933" lon="6.37465">
        <ele>1075</ele>
        <time>2019-05-04T17:55:26Z</time>
      </trkpt>
      <trkpt lat="46.6993" lon="6.37473">
        <ele>1076</ele>
        <time>2019-05-04T17:55:30Z</time>
      </trkpt>
      <trkpt lat="46.69929" lon="6.37484">
        <ele>1076</ele>
        <time>2019-05-04T17:55:36Z</time>
      </trkpt>
      <trkpt lat="46.69928" lon="6.37489">
        <ele>1076</ele>
        <time>2019-05-04T17:55:38Z</time>
      </trkpt>
      <trkpt lat="46.69924" lon="6.37495">
        <ele>1078</ele>
        <time>2019-05-04T17:55:43Z</time>
      </trkpt>
      <trkpt lat="46.69918" lon="6.37511">
        <ele>1080</ele>
        <time>2019-05-04T17:55:52Z</time>
      </trkpt>
      <trkpt lat="46.69917" lon="6.37518">
        <ele>1080</ele>
        <time>2019-05-04T17:55:55Z</time>
      </trkpt>
      <trkpt lat="46.69921" lon="6.37539">
        <ele>1077</ele>
        <time>2019-05-04T17:56:06Z</time>
      </trkpt>
      <trkpt lat="46.69917" lon="6.37565">
        <ele>1077</ele>
        <time>2019-05-04T17:56:20Z</time>
      </trkpt>
      <trkpt lat="46.69915" lon="6.37568">
        <ele>1078</ele>
        <time>2019-05-04T17:56:22Z</time>
      </trkpt>
      <trkpt lat="46.69913" lon="6.37573">
        <ele>1078</ele>
        <time>2019-05-04T17:56:25Z</time>
      </trkpt>
      <trkpt lat="46.6991" lon="6.3758">
        <ele>1079</ele>
        <time>2019-05-04T17:56:29Z</time>
      </trkpt>
      <trkpt lat="46.69903" lon="6.37599">
        <ele>1080</ele>
        <time>2019-05-04T17:56:40Z</time>
      </trkpt>
      <trkpt lat="46.69899" lon="6.37606">
        <ele>1081</ele>
        <time>2019-05-04T17:56:44Z</time>
      </trkpt>
      <trkpt lat="46.69897" lon="6.37606">
        <ele>1082</ele>
        <time>2019-05-04T17:56:46Z</time>
      </trkpt>
      <trkpt lat="46.69886" lon="6.37619">
        <ele>1085</ele>
        <time>2019-05-04T17:56:56Z</time>
      </trkpt>
      <trkpt lat="46.69882" lon="6.37627">
        <ele>1087</ele>
        <time>2019-05-04T17:57:01Z</time>
      </trkpt>
      <trkpt lat="46.69884" lon="6.37635">
        <ele>1086</ele>
        <time>2019-05-04T17:57:05Z</time>
      </trkpt>
      <trkpt lat="46.69883" lon="6.37636">
        <ele>1086</ele>
        <time>2019-05-04T17:57:06Z</time>
      </trkpt>
      <trkpt lat="46.69881" lon="6.37642">
        <ele>1087</ele>
        <time>2019-05-04T17:57:09Z</time>
      </trkpt>
      <trkpt lat="46.6988" lon="6.37646">
        <ele>1088</ele>
        <time>2019-05-04T17:57:12Z</time>
      </trkpt>
      <trkpt lat="46.69876" lon="6.37651">
        <ele>1089</ele>
        <time>2019-05-04T17:57:16Z</time>
      </trkpt>
      <trkpt lat="46.69873" lon="6.37653">
        <ele>1090</ele>
        <time>2019-05-04T17:57:18Z</time>
      </trkpt>
      <trkpt lat="46.69869" lon="6.37656">
        <ele>1092</ele>
        <time>2019-05-04T17:57:22Z</time>
      </trkpt>
      <trkpt lat="46.69868" lon="6.37658">
        <ele>1092</ele>
        <time>2019-05-04T17:57:23Z</time>
      </trkpt>
      <trkpt lat="46.69859" lon="6.37661">
        <ele>1097</ele>
        <time>2019-05-04T17:57:30Z</time>
      </trkpt>
      <trkpt lat="46.69853" lon="6.3767">
        <ele>1100</ele>
        <time>2019-05-04T17:57:37Z</time>
      </trkpt>
      <trkpt lat="46.69854" lon="6.37673">
        <ele>1100</ele>
        <time>2019-05-04T17:57:38Z</time>
      </trkpt>
      <trkpt lat="46.69853" lon="6.3768">
        <ele>1101</ele>
        <time>2019-05-04T17:57:42Z</time>
      </trkpt>
      <trkpt lat="46.69852" lon="6.37682">
        <ele>1101</ele>
        <time>2019-05-04T17:57:42Z</time>
      </trkpt>
      <trkpt lat="46.69851" lon="6.37685">
        <ele>1102</ele>
        <time>2019-05-04T17:57:44Z</time>
      </trkpt>
      <trkpt lat="46.69849" lon="6.3769">
        <ele>1103</ele>
        <time>2019-05-04T17:57:47Z</time>
      </trkpt>
      <trkpt lat="46.69849" lon="6.37696">
        <ele>1102</ele>
        <time>2019-05-04T17:57:50Z</time>
      </trkpt>
      <trkpt lat="46.69848" lon="6.37705">
        <ele>1102</ele>
        <time>2019-05-04T17:57:55Z</time>
      </trkpt>
      <trkpt lat="46.69844" lon="6.37714">
        <ele>1104</ele>
        <time>2019-05-04T17:58:00Z</time>
      </trkpt>
      <trkpt lat="46.69842" lon="6.37719">
        <ele>1104</ele>
        <time>2019-05-04T17:58:03Z</time>
      </trkpt>
      <trkpt lat="46.69842" lon="6.37721">
        <ele>1104</ele>
        <time>2019-05-04T17:58:04Z</time>
      </trkpt>
      <trkpt lat="46.69842" lon="6.37731">
        <ele>1104</ele>
        <time>2019-05-04T17:58:09Z</time>
      </trkpt>
      <trkpt lat="46.6983" lon="6.37751">
        <ele>1107</ele>
        <time>2019-05-04T17:58:22Z</time>
      </trkpt>
      <trkpt lat="46.69829" lon="6.37755">
        <ele>1107</ele>
        <time>2019-05-04T17:58:24Z</time>
      </trkpt>
      <trkpt lat="46.69828" lon="6.37764">
        <ele>1107</ele>
        <time>2019-05-04T17:58:29Z</time>
      </trkpt>
      <trkpt lat="46.69832" lon="6.37768">
        <ele>1105</ele>
        <time>2019-05-04T17:58:33Z</time>
      </trkpt>
      <trkpt lat="46.69831" lon="6.37781">
        <ele>1104</ele>
        <time>2019-05-04T17:58:39Z</time>
      </trkpt>
      <trkpt lat="46.69833" lon="6.37803">
        <ele>1101</ele>
        <time>2019-05-04T17:58:50Z</time>
      </trkpt>
      <trkpt lat="46.69833" lon="6.37804">
        <ele>1101</ele>
        <time>2019-05-04T17:58:51Z</time>
      </trkpt>
      <trkpt lat="46.69833" lon="6.37805">
        <ele>1101</ele>
        <time>2019-05-04T17:58:52Z</time>
      </trkpt>
      <trkpt lat="46.69833" lon="6.37807">
        <ele>1101</ele>
        <time>2019-05-04T17:58:52Z</time>
      </trkpt>
      <trkpt lat="46.69838" lon="6.37817">
        <ele>1098</ele>
        <time>2019-05-04T17:58:59Z</time>
      </trkpt>
      <trkpt lat="46.69839" lon="6.3782">
        <ele>1097</ele>
        <time>2019-05-04T17:59:01Z</time>
      </trkpt>
      <trkpt lat="46.69837" lon="6.37823">
        <ele>1098</ele>
        <time>2019-05-04T17:59:03Z</time>
      </trkpt>
      <trkpt lat="46.69832" lon="6.3783">
        <ele>1099</ele>
        <time>2019-05-04T17:59:07Z</time>
      </trkpt>
      <trkpt lat="46.69817" lon="6.37836">
        <ele>1105</ele>
        <time>2019-05-04T17:59:20Z</time>
      </trkpt>
      <trkpt lat="46.69815" lon="6.37838">
        <ele>1105</ele>
        <time>2019-05-04T17:59:21Z</time>
      </trkpt>
      <trkpt lat="46.69809" lon="6.37843">
        <ele>1107</ele>
        <time>2019-05-04T17:59:27Z</time>
      </trkpt>
      <trkpt lat="46.69807" lon="6.37846">
        <ele>1107</ele>
        <time>2019-05-04T17:59:29Z</time>
      </trkpt>
      <trkpt lat="46.69806" lon="6.37849">
        <ele>1107</ele>
        <time>2019-05-04T17:59:30Z</time>
      </trkpt>
      <trkpt lat="46.69805" lon="6.3785">
        <ele>1108</ele>
        <time>2019-05-04T17:59:31Z</time>
      </trkpt>
      <trkpt lat="46.69805" lon="6.37851">
        <ele>1108</ele>
        <time>2019-05-04T17:59:32Z</time>
      </trkpt>
      <trkpt lat="46.69804" lon="6.37857">
        <ele>1107</ele>
        <time>2019-05-04T17:59:35Z</time>
      </trkpt>
      <trkpt lat="46.69804" lon="6.37859">
        <ele>1107</ele>
        <time>2019-05-04T17:59:36Z</time>
      </trkpt>
      <trkpt lat="46.698" lon="6.37861">
        <ele>1108</ele>
        <time>2019-05-04T17:59:39Z</time>
      </trkpt>
      <trkpt lat="46.69792" lon="6.37867">
        <ele>1111</ele>
        <time>2019-05-04T17:59:46Z</time>
      </trkpt>
      <trkpt lat="46.69791" lon="6.37868">
        <ele>1111</ele>
        <time>2019-05-04T17:59:47Z</time>
      </trkpt>
      <trkpt lat="46.69785" lon="6.37871">
        <ele>1113</ele>
        <time>2019-05-04T17:59:52Z</time>
      </trkpt>
      <trkpt lat="46.69782" lon="6.37877">
        <ele>1113</ele>
        <time>2019-05-04T17:59:55Z</time>
      </trkpt>
      <trkpt lat="46.69781" lon="6.37879">
        <ele>1113</ele>
        <time>2019-05-04T17:59:57Z</time>
      </trkpt>
      <trkpt lat="46.69776" lon="6.37886">
        <ele>1114</ele>
        <time>2019-05-04T18:00:01Z</time>
      </trkpt>
      <trkpt lat="46.69775" lon="6.37891">
        <ele>1115</ele>
        <time>2019-05-04T18:00:04Z</time>
      </trkpt>
      <trkpt lat="46.69759" lon="6.37905">
        <ele>1121</ele>
        <time>2019-05-04T18:00:18Z</time>
      </trkpt>
      <trkpt lat="46.69756" lon="6.37918">
        <ele>1121</ele>
        <time>2019-05-04T18:00:25Z</time>
      </trkpt>
      <trkpt lat="46.69756" lon="6.37919">
        <ele>1121</ele>
        <time>2019-05-04T18:00:25Z</time>
      </trkpt>
      <trkpt lat="46.69755" lon="6.37925">
        <ele>1121</ele>
        <time>2019-05-04T18:00:28Z</time>
      </trkpt>
      <trkpt lat="46.69757" lon="6.37927">
        <ele>1119</ele>
        <time>2019-05-04T18:00:31Z</time>
      </trkpt>
      <trkpt lat="46.69759" lon="6.37933">
        <ele>1117</ele>
        <time>2019-05-04T18:00:34Z</time>
      </trkpt>
      <trkpt lat="46.69758" lon="6.3794">
        <ele>1117</ele>
        <time>2019-05-04T18:00:38Z</time>
      </trkpt>
      <trkpt lat="46.69759" lon="6.37944">
        <ele>1116</ele>
        <time>2019-05-04T18:00:40Z</time>
      </trkpt>
      <trkpt lat="46.69759" lon="6.37948">
        <ele>1116</ele>
        <time>2019-05-04T18:00:42Z</time>
      </trkpt>
      <trkpt lat="46.69758" lon="6.37951">
        <ele>1116</ele>
        <time>2019-05-04T18:00:44Z</time>
      </trkpt>
      <trkpt lat="46.69757" lon="6.37955">
        <ele>1117</ele>
        <time>2019-05-04T18:00:46Z</time>
      </trkpt>
      <trkpt lat="46.69758" lon="6.37963">
        <ele>1117</ele>
        <time>2019-05-04T18:00:50Z</time>
      </trkpt>
      <trkpt lat="46.69755" lon="6.37973">
        <ele>1118</ele>
        <time>2019-05-04T18:00:55Z</time>
      </trkpt>
      <trkpt lat="46.69755" lon="6.37975">
        <ele>1118</ele>
        <time>2019-05-04T18:00:56Z</time>
      </trkpt>
      <trkpt lat="46.69755" lon="6.37979">
        <ele>1118</ele>
        <time>2019-05-04T18:00:59Z</time>
      </trkpt>
      <trkpt lat="46.69756" lon="6.37985">
        <ele>1117</ele>
        <time>2019-05-04T18:01:01Z</time>
      </trkpt>
      <trkpt lat="46.69762" lon="6.38001">
        <ele>1114</ele>
        <time>2019-05-04T18:01:11Z</time>
      </trkpt>
      <trkpt lat="46.69774" lon="6.38019">
        <ele>1108</ele>
        <time>2019-05-04T18:01:24Z</time>
      </trkpt>
      <trkpt lat="46.69777" lon="6.38021">
        <ele>1107</ele>
        <time>2019-05-04T18:01:26Z</time>
      </trkpt>
      <trkpt lat="46.69779" lon="6.38024">
        <ele>1106</ele>
        <time>2019-05-04T18:01:28Z</time>
      </trkpt>
      <trkpt lat="46.69779" lon="6.38025">
        <ele>1106</ele>
        <time>2019-05-04T18:01:29Z</time>
      </trkpt>
      <trkpt lat="46.69778" lon="6.38026">
        <ele>1107</ele>
        <time>2019-05-04T18:01:31Z</time>
      </trkpt>
      <trkpt lat="46.69776" lon="6.38026">
        <ele>1107</ele>
        <time>2019-05-04T18:01:32Z</time>
      </trkpt>
      <trkpt lat="46.69774" lon="6.38027">
        <ele>1109</ele>
        <time>2019-05-04T18:01:34Z</time>
      </trkpt>
      <trkpt lat="46.69772" lon="6.38031">
        <ele>1110</ele>
        <time>2019-05-04T18:01:36Z</time>
      </trkpt>
      <trkpt lat="46.6977" lon="6.38034">
        <ele>1112</ele>
        <time>2019-05-04T18:01:39Z</time>
      </trkpt>
      <trkpt lat="46.69768" lon="6.38039">
        <ele>1113</ele>
        <time>2019-05-04T18:01:42Z</time>
      </trkpt>
      <trkpt lat="46.69768" lon="6.38041">
        <ele>1114</ele>
        <time>2019-05-04T18:01:43Z</time>
      </trkpt>
      <trkpt lat="46.69765" lon="6.38046">
        <ele>1116</ele>
        <time>2019-05-04T18:01:47Z</time>
      </trkpt>
      <trkpt lat="46.69763" lon="6.38052">
        <ele>1118</ele>
        <time>2019-05-04T18:01:50Z</time>
      </trkpt>
      <trkpt lat="46.69761" lon="6.38062">
        <ele>1120</ele>
        <time>2019-05-04T18:01:55Z</time>
      </trkpt>
      <trkpt lat="46.69762" lon="6.38065">
        <ele>1121</ele>
        <time>2019-05-04T18:01:57Z</time>
      </trkpt>
      <trkpt lat="46.69761" lon="6.38068">
        <ele>1121</ele>
        <time>2019-05-04T18:01:58Z</time>
      </trkpt>
      <trkpt lat="46.69762" lon="6.38071">
        <ele>1122</ele>
        <time>2019-05-04T18:02:00Z</time>
      </trkpt>
      <trkpt lat="46.69762" lon="6.38078">
        <ele>1123</ele>
        <time>2019-05-04T18:02:04Z</time>
      </trkpt>
      <trkpt lat="46.69761" lon="6.38079">
        <ele>1123</ele>
        <time>2019-05-04T18:02:04Z</time>
      </trkpt>
      <trkpt lat="46.69761" lon="6.3808">
        <ele>1123</ele>
        <time>2019-05-04T18:02:05Z</time>
      </trkpt>
      <trkpt lat="46.69759" lon="6.38085">
        <ele>1125</ele>
        <time>2019-05-04T18:02:08Z</time>
      </trkpt>
      <trkpt lat="46.69759" lon="6.38086">
        <ele>1125</ele>
        <time>2019-05-04T18:02:09Z</time>
      </trkpt>
      <trkpt lat="46.69759" lon="6.3809">
        <ele>1126</ele>
        <time>2019-05-04T18:02:10Z</time>
      </trkpt>
      <trkpt lat="46.69759" lon="6.38091">
        <ele>1126</ele>
        <time>2019-05-04T18:02:11Z</time>
      </trkpt>
      <trkpt lat="46.6976" lon="6.38093">
        <ele>1126</ele>
        <time>2019-05-04T18:02:12Z</time>
      </trkpt>
      <trkpt lat="46.69759" lon="6.38097">
        <ele>1127</ele>
        <time>2019-05-04T18:02:14Z</time>
      </trkpt>
      <trkpt lat="46.69759" lon="6.38099">
        <ele>1127</ele>
        <time>2019-05-04T18:02:15Z</time>
      </trkpt>
      <trkpt lat="46.6976" lon="6.38103">
        <ele>1127</ele>
        <time>2019-05-04T18:02:17Z</time>
      </trkpt>
      <trkpt lat="46.69762" lon="6.38106">
        <ele>1127</ele>
        <time>2019-05-04T18:02:19Z</time>
      </trkpt>
      <trkpt lat="46.69763" lon="6.38108">
        <ele>1127</ele>
        <time>2019-05-04T18:02:21Z</time>
      </trkpt>
      <trkpt lat="46.69764" lon="6.38111">
        <ele>1127</ele>
        <time>2019-05-04T18:02:22Z</time>
      </trkpt>
      <trkpt lat="46.69762" lon="6.38114">
        <ele>1128</ele>
        <time>2019-05-04T18:02:24Z</time>
      </trkpt>
      <trkpt lat="46.69761" lon="6.38115">
        <ele>1129</ele>
        <time>2019-05-04T18:02:26Z</time>
      </trkpt>
      <trkpt lat="46.69761" lon="6.38119">
        <ele>1130</ele>
        <time>2019-05-04T18:02:28Z</time>
      </trkpt>
      <trkpt lat="46.69761" lon="6.38121">
        <ele>1130</ele>
        <time>2019-05-04T18:02:29Z</time>
      </trkpt>
      <trkpt lat="46.69762" lon="6.38124">
        <ele>1130</ele>
        <time>2019-05-04T18:02:30Z</time>
      </trkpt>
      <trkpt lat="46.69762" lon="6.38125">
        <ele>1130</ele>
        <time>2019-05-04T18:02:31Z</time>
      </trkpt>
      <trkpt lat="46.6976" lon="6.3813">
        <ele>1132</ele>
        <time>2019-05-04T18:02:34Z</time>
      </trkpt>
      <trkpt lat="46.69759" lon="6.38131">
        <ele>1132</ele>
        <time>2019-05-04T18:02:35Z</time>
      </trkpt>
      <trkpt lat="46.69759" lon="6.38132">
        <ele>1133</ele>
        <time>2019-05-04T18:02:36Z</time>
      </trkpt>
      <trkpt lat="46.69758" lon="6.38133">
        <ele>1133</ele>
        <time>2019-05-04T18:02:37Z</time>
      </trkpt>
      <trkpt lat="46.69758" lon="6.38135">
        <ele>1133</ele>
        <time>2019-05-04T18:02:37Z</time>
      </trkpt>
      <trkpt lat="46.69758" lon="6.38138">
        <ele>1134</ele>
        <time>2019-05-04T18:02:39Z</time>
      </trkpt>
      <trkpt lat="46.69758" lon="6.38139">
        <ele>1134</ele>
        <time>2019-05-04T18:02:40Z</time>
      </trkpt>
      <trkpt lat="46.69757" lon="6.38143">
        <ele>1135</ele>
        <time>2019-05-04T18:02:42Z</time>
      </trkpt>
      <trkpt lat="46.69758" lon="6.38144">
        <ele>1135</ele>
        <time>2019-05-04T18:02:43Z</time>
      </trkpt>
      <trkpt lat="46.6976" lon="6.38145">
        <ele>1135</ele>
        <time>2019-05-04T18:02:44Z</time>
      </trkpt>
      <trkpt lat="46.69761" lon="6.38146">
        <ele>1134</ele>
        <time>2019-05-04T18:02:45Z</time>
      </trkpt>
      <trkpt lat="46.69763" lon="6.38147">
        <ele>1134</ele>
        <time>2019-05-04T18:02:47Z</time>
      </trkpt>
      <trkpt lat="46.69765" lon="6.38147">
        <ele>1134</ele>
        <time>2019-05-04T18:02:48Z</time>
      </trkpt>
      <trkpt lat="46.69767" lon="6.38149">
        <ele>1133</ele>
        <time>2019-05-04T18:02:50Z</time>
      </trkpt>
      <trkpt lat="46.69767" lon="6.38149">
        <ele>1134</ele>
        <time>2019-05-04T18:02:51Z</time>
      </trkpt>
      <trkpt lat="46.69765" lon="6.38151">
        <ele>1134</ele>
        <time>2019-05-04T18:02:52Z</time>
      </trkpt>
      <trkpt lat="46.69764" lon="6.3815">
        <ele>1134</ele>
        <time>2019-05-04T18:02:53Z</time>
      </trkpt>
      <trkpt lat="46.6976" lon="6.38148">
        <ele>1135</ele>
        <time>2019-05-04T18:02:56Z</time>
      </trkpt>
      <trkpt lat="46.69758" lon="6.38148">
        <ele>1136</ele>
        <time>2019-05-04T18:02:58Z</time>
      </trkpt>
      <trkpt lat="46.69758" lon="6.38148">
        <ele>1136</ele>
        <time>2019-05-04T18:02:58Z</time>
      </trkpt>
      <trkpt lat="46.69758" lon="6.38151">
        <ele>1136</ele>
        <time>2019-05-04T18:02:59Z</time>
      </trkpt>
      <trkpt lat="46.69758" lon="6.38151">
        <ele>1136</ele>
        <time>2019-05-04T18:03:00Z</time>
      </trkpt>
      <trkpt lat="46.69758" lon="6.38154">
        <ele>1137</ele>
        <time>2019-05-04T18:03:01Z</time>
      </trkpt>
      <trkpt lat="46.69757" lon="6.38154">
        <ele>1137</ele>
        <time>2019-05-04T18:03:01Z</time>
      </trkpt>
      <trkpt lat="46.6976" lon="6.38156">
        <ele>1137</ele>
        <time>2019-05-04T18:03:03Z</time>
      </trkpt>
      <trkpt lat="46.69761" lon="6.38157">
        <ele>1136</ele>
        <time>2019-05-04T18:03:05Z</time>
      </trkpt>
      <trkpt lat="46.69762" lon="6.3816">
        <ele>1137</ele>
        <time>2019-05-04T18:03:06Z</time>
      </trkpt>
      <trkpt lat="46.69765" lon="6.38163">
        <ele>1137</ele>
        <time>2019-05-04T18:03:09Z</time>
      </trkpt>
      <trkpt lat="46.69769" lon="6.3817">
        <ele>1137</ele>
        <time>2019-05-04T18:03:13Z</time>
      </trkpt>
      <trkpt lat="46.6977" lon="6.38171">
        <ele>1137</ele>
        <time>2019-05-04T18:03:14Z</time>
      </trkpt>
      <trkpt lat="46.69774" lon="6.38175">
        <ele>1137</ele>
        <time>2019-05-04T18:03:18Z</time>
      </trkpt>
      <trkpt lat="46.69775" lon="6.38176">
        <ele>1137</ele>
        <time>2019-05-04T18:03:18Z</time>
      </trkpt>
      <trkpt lat="46.69777" lon="6.38177">
        <ele>1137</ele>
        <time>2019-05-04T18:03:20Z</time>
      </trkpt>
      <trkpt lat="46.69778" lon="6.38178">
        <ele>1136</ele>
        <time>2019-05-04T18:03:21Z</time>
      </trkpt>
      <trkpt lat="46.69779" lon="6.3818">
        <ele>1137</ele>
        <time>2019-05-04T18:03:23Z</time>
      </trkpt>
      <trkpt lat="46.6978" lon="6.38181">
        <ele>1137</ele>
        <time>2019-05-04T18:03:24Z</time>
      </trkpt>
      <trkpt lat="46.69781" lon="6.38182">
        <ele>1136</ele>
        <time>2019-05-04T18:03:24Z</time>
      </trkpt>
      <trkpt lat="46.69782" lon="6.38182">
        <ele>1136</ele>
        <time>2019-05-04T18:03:25Z</time>
      </trkpt>
      <trkpt lat="46.69783" lon="6.38184">
        <ele>1136</ele>
        <time>2019-05-04T18:03:26Z</time>
      </trkpt>
      <trkpt lat="46.69783" lon="6.38185">
        <ele>1136</ele>
        <time>2019-05-04T18:03:27Z</time>
      </trkpt>
      <trkpt lat="46.69783" lon="6.38186">
        <ele>1136</ele>
        <time>2019-05-04T18:03:28Z</time>
      </trkpt>
      <trkpt lat="46.69783" lon="6.38188">
        <ele>1137</ele>
        <time>2019-05-04T18:03:29Z</time>
      </trkpt>
      <trkpt lat="46.69783" lon="6.38188">
        <ele>1137</ele>
        <time>2019-05-04T18:03:29Z</time>
      </trkpt>
      <trkpt lat="46.69784" lon="6.38188">
        <ele>1137</ele>
        <time>2019-05-04T18:03:30Z</time>
      </trkpt>
      <trkpt lat="46.69784" lon="6.38189">
        <ele>1137</ele>
        <time>2019-05-04T18:03:31Z</time>
      </trkpt>
      <trkpt lat="46.69781" lon="6.38192">
        <ele>1138</ele>
        <time>2019-05-04T18:03:33Z</time>
      </trkpt>
      <trkpt lat="46.69774" lon="6.38196">
        <ele>1141</ele>
        <time>2019-05-04T18:03:39Z</time>
      </trkpt>
      <trkpt lat="46.69765" lon="6.38199">
        <ele>1143</ele>
        <time>2019-05-04T18:03:45Z</time>
      </trkpt>
      <trkpt lat="46.69749" lon="6.38195">
        <ele>1145</ele>
        <time>2019-05-04T18:03:58Z</time>
      </trkpt>
      <trkpt lat="46.69743" lon="6.38198">
        <ele>1146</ele>
        <time>2019-05-04T18:04:02Z</time>
      </trkpt>
      <trkpt lat="46.69736" lon="6.38204">
        <ele>1148</ele>
        <time>2019-05-04T18:04:08Z</time>
      </trkpt>
      <trkpt lat="46.6973" lon="6.38207">
        <ele>1149</ele>
        <time>2019-05-04T18:04:13Z</time>
      </trkpt>
      <trkpt lat="46.69727" lon="6.38207">
        <ele>1149</ele>
        <time>2019-05-04T18:04:15Z</time>
      </trkpt>
      <trkpt lat="46.69726" lon="6.38207">
        <ele>1149</ele>
        <time>2019-05-04T18:04:15Z</time>
      </trkpt>
      <trkpt lat="46.69725" lon="6.38208">
        <ele>1150</ele>
        <time>2019-05-04T18:04:17Z</time>
      </trkpt>
      <trkpt lat="46.69725" lon="6.38208">
        <ele>1150</ele>
        <time>2019-05-04T18:04:17Z</time>
      </trkpt>
      <trkpt lat="46.69721" lon="6.38203">
        <ele>1150</ele>
        <time>2019-05-04T18:04:20Z</time>
      </trkpt>
      <trkpt lat="46.69717" lon="6.38202">
        <ele>1151</ele>
        <time>2019-05-04T18:04:23Z</time>
      </trkpt>
      <trkpt lat="46.69713" lon="6.38198">
        <ele>1151</ele>
        <time>2019-05-04T18:04:27Z</time>
      </trkpt>
      <trkpt lat="46.69711" lon="6.38196">
        <ele>1152</ele>
        <time>2019-05-04T18:04:29Z</time>
      </trkpt>
      <trkpt lat="46.6971" lon="6.38196">
        <ele>1152</ele>
        <time>2019-05-04T18:04:30Z</time>
      </trkpt>
      <trkpt lat="46.69709" lon="6.38196">
        <ele>1152</ele>
        <time>2019-05-04T18:04:31Z</time>
      </trkpt>
      <trkpt lat="46.69706" lon="6.38196">
        <ele>1153</ele>
        <time>2019-05-04T18:04:32Z</time>
      </trkpt>
      <trkpt lat="46.69704" lon="6.38196">
        <ele>1153</ele>
        <time>2019-05-04T18:04:34Z</time>
      </trkpt>
      <trkpt lat="46.69703" lon="6.38196">
        <ele>1153</ele>
        <time>2019-05-04T18:04:35Z</time>
      </trkpt>
      <trkpt lat="46.69701" lon="6.38195">
        <ele>1154</ele>
        <time>2019-05-04T18:04:36Z</time>
      </trkpt>
      <trkpt lat="46.697" lon="6.38193">
        <ele>1154</ele>
        <time>2019-05-04T18:04:38Z</time>
      </trkpt>
      <trkpt lat="46.697" lon="6.38192">
        <ele>1154</ele>
        <time>2019-05-04T18:04:38Z</time>
      </trkpt>
      <trkpt lat="46.697" lon="6.38191">
        <ele>1154</ele>
        <time>2019-05-04T18:04:39Z</time>
      </trkpt>
      <trkpt lat="46.697" lon="6.38189">
        <ele>1154</ele>
        <time>2019-05-04T18:04:40Z</time>
      </trkpt>
      <trkpt lat="46.69699" lon="6.38188">
        <ele>1154</ele>
        <time>2019-05-04T18:04:41Z</time>
      </trkpt>
      <trkpt lat="46.69698" lon="6.38188">
        <ele>1154</ele>
        <time>2019-05-04T18:04:41Z</time>
      </trkpt>
      <trkpt lat="46.69698" lon="6.38188">
        <ele>1154</ele>
        <time>2019-05-04T18:04:42Z</time>
      </trkpt>
      <trkpt lat="46.69696" lon="6.38188">
        <ele>1155</ele>
        <time>2019-05-04T18:04:43Z</time>
      </trkpt>
      <trkpt lat="46.69694" lon="6.3819">
        <ele>1155</ele>
        <time>2019-05-04T18:04:46Z</time>
      </trkpt>
      <trkpt lat="46.69693" lon="6.38193">
        <ele>1155</ele>
        <time>2019-05-04T18:04:47Z</time>
      </trkpt>
      <trkpt lat="46.69695" lon="6.38195">
        <ele>1155</ele>
        <time>2019-05-04T18:04:49Z</time>
      </trkpt>
      <trkpt lat="46.69698" lon="6.38197">
        <ele>1154</ele>
        <time>2019-05-04T18:04:51Z</time>
      </trkpt>
      <trkpt lat="46.69698" lon="6.382">
        <ele>1154</ele>
        <time>2019-05-04T18:04:52Z</time>
      </trkpt>
      <trkpt lat="46.697" lon="6.38202">
        <ele>1153</ele>
        <time>2019-05-04T18:04:54Z</time>
      </trkpt>
      <trkpt lat="46.697" lon="6.38208">
        <ele>1153</ele>
        <time>2019-05-04T18:04:57Z</time>
      </trkpt>
      <trkpt lat="46.69694" lon="6.3821">
        <ele>1154</ele>
        <time>2019-05-04T18:05:01Z</time>
      </trkpt>
      <trkpt lat="46.6969" lon="6.38211">
        <ele>1153</ele>
        <time>2019-05-04T18:05:05Z</time>
      </trkpt>
      <trkpt lat="46.69688" lon="6.38211">
        <ele>1153</ele>
        <time>2019-05-04T18:05:06Z</time>
      </trkpt>
      <trkpt lat="46.69687" lon="6.38211">
        <ele>1153</ele>
        <time>2019-05-04T18:05:07Z</time>
      </trkpt>
      <trkpt lat="46.69682" lon="6.3821">
        <ele>1152</ele>
        <time>2019-05-04T18:05:10Z</time>
      </trkpt>
      <trkpt lat="46.69668" lon="6.38209">
        <ele>1150</ele>
        <time>2019-05-04T18:05:21Z</time>
      </trkpt>
      <trkpt lat="46.69663" lon="6.38205">
        <ele>1150</ele>
        <time>2019-05-04T18:05:25Z</time>
      </trkpt>
      <trkpt lat="46.69661" lon="6.38194">
        <ele>1150</ele>
        <time>2019-05-04T18:05:30Z</time>
      </trkpt>
      <trkpt lat="46.69661" lon="6.38189">
        <ele>1150</ele>
        <time>2019-05-04T18:05:33Z</time>
      </trkpt>
      <trkpt lat="46.6966" lon="6.38168">
        <ele>1151</ele>
        <time>2019-05-04T18:05:43Z</time>
      </trkpt>
      <trkpt lat="46.6966" lon="6.38163">
        <ele>1152</ele>
        <time>2019-05-04T18:05:46Z</time>
      </trkpt>
      <trkpt lat="46.69657" lon="6.38154">
        <ele>1152</ele>
        <time>2019-05-04T18:05:51Z</time>
      </trkpt>
      <trkpt lat="46.69656" lon="6.38151">
        <ele>1152</ele>
        <time>2019-05-04T18:05:52Z</time>
      </trkpt>
      <trkpt lat="46.69656" lon="6.38148">
        <ele>1152</ele>
        <time>2019-05-04T18:05:54Z</time>
      </trkpt>
      <trkpt lat="46.69654" lon="6.38143">
        <ele>1152</ele>
        <time>2019-05-04T18:05:57Z</time>
      </trkpt>
      <trkpt lat="46.6965" lon="6.38134">
        <ele>1153</ele>
        <time>2019-05-04T18:06:02Z</time>
      </trkpt>
      <trkpt lat="46.69636" lon="6.38115">
        <ele>1155</ele>
        <time>2019-05-04T18:06:16Z</time>
      </trkpt>
      <trkpt lat="46.6962" lon="6.38096">
        <ele>1158</ele>
        <time>2019-05-04T18:06:31Z</time>
      </trkpt>
      <trkpt lat="46.69617" lon="6.38093">
        <ele>1158</ele>
        <time>2019-05-04T18:06:33Z</time>
      </trkpt>
      <trkpt lat="46.69611" lon="6.38086">
        <ele>1160</ele>
        <time>2019-05-04T18:06:39Z</time>
      </trkpt>
      <trkpt lat="46.69602" lon="6.38071">
        <ele>1160</ele>
        <time>2019-05-04T18:06:49Z</time>
      </trkpt>
      <trkpt lat="46.696" lon="6.38067">
        <ele>1161</ele>
        <time>2019-05-04T18:06:52Z</time>
      </trkpt>
      <trkpt lat="46.69596" lon="6.38053">
        <ele>1162</ele>
        <time>2019-05-04T18:06:59Z</time>
      </trkpt>
      <trkpt lat="46.69594" lon="6.38047">
        <ele>1163</ele>
        <time>2019-05-04T18:07:03Z</time>
      </trkpt>
      <trkpt lat="46.69593" lon="6.38025">
        <ele>1165</ele>
        <time>2019-05-04T18:07:14Z</time>
      </trkpt>
      <trkpt lat="46.69591" lon="6.38017">
        <ele>1166</ele>
        <time>2019-05-04T18:07:18Z</time>
      </trkpt>
      <trkpt lat="46.69589" lon="6.38011">
        <ele>1167</ele>
        <time>2019-05-04T18:07:21Z</time>
      </trkpt>
      <trkpt lat="46.69589" lon="6.38009">
        <ele>1167</ele>
        <time>2019-05-04T18:07:22Z</time>
      </trkpt>
      <trkpt lat="46.69588" lon="6.38002">
        <ele>1168</ele>
        <time>2019-05-04T18:07:26Z</time>
      </trkpt>
      <trkpt lat="46.69588" lon="6.37999">
        <ele>1168</ele>
        <time>2019-05-04T18:07:27Z</time>
      </trkpt>
      <trkpt lat="46.69588" lon="6.37992">
        <ele>1169</ele>
        <time>2019-05-04T18:07:31Z</time>
      </trkpt>
      <trkpt lat="46.69588" lon="6.3799">
        <ele>1169</ele>
        <time>2019-05-04T18:07:32Z</time>
      </trkpt>
      <trkpt lat="46.69587" lon="6.37985">
        <ele>1170</ele>
        <time>2019-05-04T18:07:34Z</time>
      </trkpt>
      <trkpt lat="46.69587" lon="6.37983">
        <ele>1170</ele>
        <time>2019-05-04T18:07:35Z</time>
      </trkpt>
      <trkpt lat="46.69586" lon="6.37974">
        <ele>1171</ele>
        <time>2019-05-04T18:07:40Z</time>
      </trkpt>
      <trkpt lat="46.69587" lon="6.37956">
        <ele>1173</ele>
        <time>2019-05-04T18:07:49Z</time>
      </trkpt>
      <trkpt lat="46.69587" lon="6.37951">
        <ele>1174</ele>
        <time>2019-05-04T18:07:52Z</time>
      </trkpt>
      <trkpt lat="46.69588" lon="6.37937">
        <ele>1176</ele>
        <time>2019-05-04T18:07:59Z</time>
      </trkpt>
      <trkpt lat="46.69588" lon="6.3793">
        <ele>1177</ele>
        <time>2019-05-04T18:08:02Z</time>
      </trkpt>
      <trkpt lat="46.6959" lon="6.37918">
        <ele>1179</ele>
        <time>2019-05-04T18:08:09Z</time>
      </trkpt>
      <trkpt lat="46.6959" lon="6.37915">
        <ele>1179</ele>
        <time>2019-05-04T18:08:10Z</time>
      </trkpt>
      <trkpt lat="46.69592" lon="6.37904">
        <ele>1180</ele>
        <time>2019-05-04T18:08:16Z</time>
      </trkpt>
      <trkpt lat="46.69592" lon="6.37903">
        <ele>1181</ele>
        <time>2019-05-04T18:08:17Z</time>
      </trkpt>
      <trkpt lat="46.69593" lon="6.37893">
        <ele>1182</ele>
        <time>2019-05-04T18:08:22Z</time>
      </trkpt>
      <trkpt lat="46.69594" lon="6.37883">
        <ele>1184</ele>
        <time>2019-05-04T18:08:27Z</time>
      </trkpt>
      <trkpt lat="46.69596" lon="6.3788">
        <ele>1184</ele>
        <time>2019-05-04T18:08:29Z</time>
      </trkpt>
      <trkpt lat="46.69595" lon="6.37876">
        <ele>1185</ele>
        <time>2019-05-04T18:08:31Z</time>
      </trkpt>
      <trkpt lat="46.69594" lon="6.37868">
        <ele>1186</ele>
        <time>2019-05-04T18:08:35Z</time>
      </trkpt>
      <trkpt lat="46.69595" lon="6.37867">
        <ele>1186</ele>
        <time>2019-05-04T18:08:36Z</time>
      </trkpt>
      <trkpt lat="46.69595" lon="6.37865">
        <ele>1186</ele>
        <time>2019-05-04T18:08:36Z</time>
      </trkpt>
      <trkpt lat="46.69597" lon="6.37861">
        <ele>1187</ele>
        <time>2019-05-04T18:08:39Z</time>
      </trkpt>
      <trkpt lat="46.69598" lon="6.37861">
        <ele>1187</ele>
        <time>2019-05-04T18:08:40Z</time>
      </trkpt>
      <trkpt lat="46.69599" lon="6.37859">
        <ele>1187</ele>
        <time>2019-05-04T18:08:41Z</time>
      </trkpt>
      <trkpt lat="46.69598" lon="6.37852">
        <ele>1188</ele>
        <time>2019-05-04T18:08:44Z</time>
      </trkpt>
      <trkpt lat="46.69598" lon="6.3785">
        <ele>1188</ele>
        <time>2019-05-04T18:08:45Z</time>
      </trkpt>
      <trkpt lat="46.69598" lon="6.37847">
        <ele>1189</ele>
        <time>2019-05-04T18:08:47Z</time>
      </trkpt>
      <trkpt lat="46.69596" lon="6.37843">
        <ele>1189</ele>
        <time>2019-05-04T18:08:49Z</time>
      </trkpt>
      <trkpt lat="46.69594" lon="6.3783">
        <ele>1191</ele>
        <time>2019-05-04T18:08:56Z</time>
      </trkpt>
      <trkpt lat="46.69594" lon="6.37826">
        <ele>1192</ele>
        <time>2019-05-04T18:08:58Z</time>
      </trkpt>
      <trkpt lat="46.69594" lon="6.37821">
        <ele>1192</ele>
        <time>2019-05-04T18:09:00Z</time>
      </trkpt>
      <trkpt lat="46.69594" lon="6.37815">
        <ele>1193</ele>
        <time>2019-05-04T18:09:03Z</time>
      </trkpt>
      <trkpt lat="46.69593" lon="6.37807">
        <ele>1194</ele>
        <time>2019-05-04T18:09:07Z</time>
      </trkpt>
      <trkpt lat="46.69592" lon="6.37799">
        <ele>1195</ele>
        <time>2019-05-04T18:09:11Z</time>
      </trkpt>
      <trkpt lat="46.69592" lon="6.37795">
        <ele>1196</ele>
        <time>2019-05-04T18:09:14Z</time>
      </trkpt>
      <trkpt lat="46.69591" lon="6.37792">
        <ele>1196</ele>
        <time>2019-05-04T18:09:15Z</time>
      </trkpt>
      <trkpt lat="46.69591" lon="6.37783">
        <ele>1197</ele>
        <time>2019-05-04T18:09:20Z</time>
      </trkpt>
      <trkpt lat="46.69591" lon="6.37775">
        <ele>1199</ele>
        <time>2019-05-04T18:09:24Z</time>
      </trkpt>
      <trkpt lat="46.69591" lon="6.37768">
        <ele>1199</ele>
        <time>2019-05-04T18:09:27Z</time>
      </trkpt>
      <trkpt lat="46.69591" lon="6.3776">
        <ele>1201</ele>
        <time>2019-05-04T18:09:31Z</time>
      </trkpt>
      <trkpt lat="46.69591" lon="6.37755">
        <ele>1201</ele>
        <time>2019-05-04T18:09:34Z</time>
      </trkpt>
      <trkpt lat="46.69592" lon="6.3775">
        <ele>1202</ele>
        <time>2019-05-04T18:09:37Z</time>
      </trkpt>
      <trkpt lat="46.69593" lon="6.37744">
        <ele>1203</ele>
        <time>2019-05-04T18:09:40Z</time>
      </trkpt>
      <trkpt lat="46.69593" lon="6.37741">
        <ele>1203</ele>
        <time>2019-05-04T18:09:41Z</time>
      </trkpt>
      <trkpt lat="46.69593" lon="6.37738">
        <ele>1204</ele>
        <time>2019-05-04T18:09:43Z</time>
      </trkpt>
      <trkpt lat="46.69593" lon="6.37728">
        <ele>1205</ele>
        <time>2019-05-04T18:09:48Z</time>
      </trkpt>
      <trkpt lat="46.69591" lon="6.37722">
        <ele>1206</ele>
        <time>2019-05-04T18:09:51Z</time>
      </trkpt>
      <trkpt lat="46.69591" lon="6.37721">
        <ele>1206</ele>
        <time>2019-05-04T18:09:52Z</time>
      </trkpt>
      <trkpt lat="46.69594" lon="6.37714">
        <ele>1207</ele>
        <time>2019-05-04T18:09:56Z</time>
      </trkpt>
      <trkpt lat="46.69594" lon="6.37704">
        <ele>1209</ele>
        <time>2019-05-04T18:10:01Z</time>
      </trkpt>
      <trkpt lat="46.69593" lon="6.37697">
        <ele>1210</ele>
        <time>2019-05-04T18:10:05Z</time>
      </trkpt>
      <trkpt lat="46.69593" lon="6.37695">
        <ele>1210</ele>
        <time>2019-05-04T18:10:06Z</time>
      </trkpt>
      <trkpt lat="46.6959" lon="6.37689">
        <ele>1210</ele>
        <time>2019-05-04T18:10:09Z</time>
      </trkpt>
      <trkpt lat="46.69587" lon="6.37682">
        <ele>1211</ele>
        <time>2019-05-04T18:10:13Z</time>
      </trkpt>
      <trkpt lat="46.69585" lon="6.37673">
        <ele>1213</ele>
        <time>2019-05-04T18:10:18Z</time>
      </trkpt>
      <trkpt lat="46.69583" lon="6.37668">
        <ele>1214</ele>
        <time>2019-05-04T18:10:21Z</time>
      </trkpt>
      <trkpt lat="46.6958" lon="6.37665">
        <ele>1214</ele>
        <time>2019-05-04T18:10:23Z</time>
      </trkpt>
      <trkpt lat="46.6958" lon="6.37664">
        <ele>1215</ele>
        <time>2019-05-04T18:10:24Z</time>
      </trkpt>
      <trkpt lat="46.69581" lon="6.37663">
        <ele>1215</ele>
        <time>2019-05-04T18:10:25Z</time>
      </trkpt>
      <trkpt lat="46.69582" lon="6.37662">
        <ele>1215</ele>
        <time>2019-05-04T18:10:26Z</time>
      </trkpt>
      <trkpt lat="46.69582" lon="6.37659">
        <ele>1216</ele>
        <time>2019-05-04T18:10:28Z</time>
      </trkpt>
      <trkpt lat="46.69581" lon="6.37655">
        <ele>1217</ele>
        <time>2019-05-04T18:10:30Z</time>
      </trkpt>
      <trkpt lat="46.69581" lon="6.37654">
        <ele>1217</ele>
        <time>2019-05-04T18:10:31Z</time>
      </trkpt>
      <trkpt lat="46.69576" lon="6.37646">
        <ele>1218</ele>
        <time>2019-05-04T18:10:36Z</time>
      </trkpt>
      <trkpt lat="46.69571" lon="6.37638">
        <ele>1219</ele>
        <time>2019-05-04T18:10:41Z</time>
      </trkpt>
      <trkpt lat="46.69568" lon="6.37634">
        <ele>1219</ele>
        <time>2019-05-04T18:10:44Z</time>
      </trkpt>
      <trkpt lat="46.69563" lon="6.37628">
        <ele>1220</ele>
        <time>2019-05-04T18:10:49Z</time>
      </trkpt>
      <trkpt lat="46.6956" lon="6.37622">
        <ele>1221</ele>
        <time>2019-05-04T18:10:53Z</time>
      </trkpt>
      <trkpt lat="46.69557" lon="6.37616">
        <ele>1222</ele>
        <time>2019-05-04T18:10:57Z</time>
      </trkpt>
      <trkpt lat="46.69554" lon="6.37608">
        <ele>1223</ele>
        <time>2019-05-04T18:11:01Z</time>
      </trkpt>
      <trkpt lat="46.6955" lon="6.37599">
        <ele>1224</ele>
        <time>2019-05-04T18:11:06Z</time>
      </trkpt>
      <trkpt lat="46.69545" lon="6.37591">
        <ele>1225</ele>
        <time>2019-05-04T18:11:12Z</time>
      </trkpt>
      <trkpt lat="46.69541" lon="6.37585">
        <ele>1225</ele>
        <time>2019-05-04T18:11:16Z</time>
      </trkpt>
      <trkpt lat="46.69528" lon="6.37566">
        <ele>1228</ele>
        <time>2019-05-04T18:11:29Z</time>
      </trkpt>
      <trkpt lat="46.69516" lon="6.37552">
        <ele>1228</ele>
        <time>2019-05-04T18:11:41Z</time>
      </trkpt>
      <trkpt lat="46.69503" lon="6.37533">
        <ele>1228</ele>
        <time>2019-05-04T18:11:54Z</time>
      </trkpt>
      <trkpt lat="46.6949" lon="6.37514">
        <ele>1229</ele>
        <time>2019-05-04T18:12:07Z</time>
      </trkpt>
      <trkpt lat="46.69488" lon="6.37512">
        <ele>1229</ele>
        <time>2019-05-04T18:12:09Z</time>
      </trkpt>
      <trkpt lat="46.69478" lon="6.37494">
        <ele>1231</ele>
        <time>2019-05-04T18:12:20Z</time>
      </trkpt>
      <trkpt lat="46.69471" lon="6.37481">
        <ele>1232</ele>
        <time>2019-05-04T18:12:29Z</time>
      </trkpt>
      <trkpt lat="46.69467" lon="6.37473">
        <ele>1232</ele>
        <time>2019-05-04T18:12:34Z</time>
      </trkpt>
      <trkpt lat="46.69462" lon="6.37462">
        <ele>1233</ele>
        <time>2019-05-04T18:12:40Z</time>
      </trkpt>
      <trkpt lat="46.69455" lon="6.3745">
        <ele>1234</ele>
        <time>2019-05-04T18:12:48Z</time>
      </trkpt>
      <trkpt lat="46.69453" lon="6.37444">
        <ele>1235</ele>
        <time>2019-05-04T18:12:52Z</time>
      </trkpt>
      <trkpt lat="46.69448" lon="6.37432">
        <ele>1237</ele>
        <time>2019-05-04T18:12:59Z</time>
      </trkpt>
      <trkpt lat="46.69446" lon="6.37427">
        <ele>1237</ele>
        <time>2019-05-04T18:13:01Z</time>
      </trkpt>
      <trkpt lat="46.69445" lon="6.37422">
        <ele>1238</ele>
        <time>2019-05-04T18:13:04Z</time>
      </trkpt>
      <trkpt lat="46.69443" lon="6.37416">
        <ele>1239</ele>
        <time>2019-05-04T18:13:07Z</time>
      </trkpt>
      <trkpt lat="46.69442" lon="6.37413">
        <ele>1240</ele>
        <time>2019-05-04T18:13:09Z</time>
      </trkpt>
      <trkpt lat="46.6944" lon="6.37409">
        <ele>1240</ele>
        <time>2019-05-04T18:13:12Z</time>
      </trkpt>
      <trkpt lat="46.69434" lon="6.37392">
        <ele>1243</ele>
        <time>2019-05-04T18:13:21Z</time>
      </trkpt>
      <trkpt lat="46.69431" lon="6.37386">
        <ele>1243</ele>
        <time>2019-05-04T18:13:25Z</time>
      </trkpt>
      <trkpt lat="46.69428" lon="6.37379">
        <ele>1244</ele>
        <time>2019-05-04T18:13:29Z</time>
      </trkpt>
      <trkpt lat="46.69423" lon="6.37372">
        <ele>1245</ele>
        <time>2019-05-04T18:13:34Z</time>
      </trkpt>
      <trkpt lat="46.69422" lon="6.3737">
        <ele>1245</ele>
        <time>2019-05-04T18:13:35Z</time>
      </trkpt>
      <trkpt lat="46.69409" lon="6.37352">
        <ele>1246</ele>
        <time>2019-05-04T18:13:48Z</time>
      </trkpt>
      <trkpt lat="46.69408" lon="6.37349">
        <ele>1246</ele>
        <time>2019-05-04T18:13:50Z</time>
      </trkpt>
      <trkpt lat="46.69408" lon="6.37347">
        <ele>1246</ele>
        <time>2019-05-04T18:13:51Z</time>
      </trkpt>
      <trkpt lat="46.69403" lon="6.37336">
        <ele>1247</ele>
        <time>2019-05-04T18:13:58Z</time>
      </trkpt>
      <trkpt lat="46.694" lon="6.37332">
        <ele>1247</ele>
        <time>2019-05-04T18:14:01Z</time>
      </trkpt>
      <trkpt lat="46.69387" lon="6.37317">
        <ele>1247</ele>
        <time>2019-05-04T18:14:12Z</time>
      </trkpt>
      <trkpt lat="46.6938" lon="6.37303">
        <ele>1249</ele>
        <time>2019-05-04T18:14:21Z</time>
      </trkpt>
      <trkpt lat="46.69378" lon="6.37298">
        <ele>1249</ele>
        <time>2019-05-04T18:14:24Z</time>
      </trkpt>
      <trkpt lat="46.69376" lon="6.37295">
        <ele>1250</ele>
        <time>2019-05-04T18:14:26Z</time>
      </trkpt>
      <trkpt lat="46.69374" lon="6.37285">
        <ele>1251</ele>
        <time>2019-05-04T18:14:32Z</time>
      </trkpt>
      <trkpt lat="46.6937" lon="6.37273">
        <ele>1253</ele>
        <time>2019-05-04T18:14:38Z</time>
      </trkpt>
      <trkpt lat="46.69367" lon="6.37269">
        <ele>1253</ele>
        <time>2019-05-04T18:14:41Z</time>
      </trkpt>
      <trkpt lat="46.69363" lon="6.3726">
        <ele>1254</ele>
        <time>2019-05-04T18:14:46Z</time>
      </trkpt>
      <trkpt lat="46.69362" lon="6.37259">
        <ele>1254</ele>
        <time>2019-05-04T18:14:47Z</time>
      </trkpt>
      <trkpt lat="46.69361" lon="6.37256">
        <ele>1254</ele>
        <time>2019-05-04T18:14:49Z</time>
      </trkpt>
      <trkpt lat="46.69357" lon="6.37251">
        <ele>1254</ele>
        <time>2019-05-04T18:14:52Z</time>
      </trkpt>
      <trkpt lat="46.69353" lon="6.37245">
        <ele>1254</ele>
        <time>2019-05-04T18:14:57Z</time>
      </trkpt>
      <trkpt lat="46.6935" lon="6.37239">
        <ele>1255</ele>
        <time>2019-05-04T18:15:00Z</time>
      </trkpt>
      <trkpt lat="46.69347" lon="6.37231">
        <ele>1255</ele>
        <time>2019-05-04T18:15:05Z</time>
      </trkpt>
      <trkpt lat="46.69344" lon="6.37221">
        <ele>1257</ele>
        <time>2019-05-04T18:15:11Z</time>
      </trkpt>
      <trkpt lat="46.6934" lon="6.37214">
        <ele>1257</ele>
        <time>2019-05-04T18:15:15Z</time>
      </trkpt>
      <trkpt lat="46.69336" lon="6.37206">
        <ele>1258</ele>
        <time>2019-05-04T18:15:20Z</time>
      </trkpt>
      <trkpt lat="46.69332" lon="6.37192">
        <ele>1260</ele>
        <time>2019-05-04T18:15:27Z</time>
      </trkpt>
      <trkpt lat="46.69332" lon="6.3719">
        <ele>1260</ele>
        <time>2019-05-04T18:15:29Z</time>
      </trkpt>
      <trkpt lat="46.69331" lon="6.37182">
        <ele>1261</ele>
        <time>2019-05-04T18:15:33Z</time>
      </trkpt>
      <trkpt lat="46.69331" lon="6.3718">
        <ele>1261</ele>
        <time>2019-05-04T18:15:34Z</time>
      </trkpt>
      <trkpt lat="46.6933" lon="6.37177">
        <ele>1262</ele>
        <time>2019-05-04T18:15:36Z</time>
      </trkpt>
      <trkpt lat="46.6933" lon="6.37173">
        <ele>1262</ele>
        <time>2019-05-04T18:15:37Z</time>
      </trkpt>
      <trkpt lat="46.69329" lon="6.3717">
        <ele>1263</ele>
        <time>2019-05-04T18:15:39Z</time>
      </trkpt>
      <trkpt lat="46.69328" lon="6.37166">
        <ele>1263</ele>
        <time>2019-05-04T18:15:41Z</time>
      </trkpt>
      <trkpt lat="46.69326" lon="6.37159">
        <ele>1264</ele>
        <time>2019-05-04T18:15:45Z</time>
      </trkpt>
      <trkpt lat="46.69326" lon="6.37156">
        <ele>1264</ele>
        <time>2019-05-04T18:15:47Z</time>
      </trkpt>
      <trkpt lat="46.69326" lon="6.3715">
        <ele>1265</ele>
        <time>2019-05-04T18:15:49Z</time>
      </trkpt>
      <trkpt lat="46.69327" lon="6.37144">
        <ele>1267</ele>
        <time>2019-05-04T18:15:53Z</time>
      </trkpt>
      <trkpt lat="46.69328" lon="6.37142">
        <ele>1267</ele>
        <time>2019-05-04T18:15:54Z</time>
      </trkpt>
      <trkpt lat="46.69331" lon="6.37137">
        <ele>1269</ele>
        <time>2019-05-04T18:15:58Z</time>
      </trkpt>
      <trkpt lat="46.69333" lon="6.37133">
        <ele>1270</ele>
        <time>2019-05-04T18:16:00Z</time>
      </trkpt>
      <trkpt lat="46.69333" lon="6.37131">
        <ele>1271</ele>
        <time>2019-05-04T18:16:02Z</time>
      </trkpt>
      <trkpt lat="46.69337" lon="6.37124">
        <ele>1273</ele>
        <time>2019-05-04T18:16:06Z</time>
      </trkpt>
      <trkpt lat="46.69338" lon="6.3712">
        <ele>1274</ele>
        <time>2019-05-04T18:16:08Z</time>
      </trkpt>
      <trkpt lat="46.69338" lon="6.37119">
        <ele>1274</ele>
        <time>2019-05-04T18:16:09Z</time>
      </trkpt>
      <trkpt lat="46.69339" lon="6.37117">
        <ele>1275</ele>
        <time>2019-05-04T18:16:10Z</time>
      </trkpt>
      <trkpt lat="46.69341" lon="6.37115">
        <ele>1276</ele>
        <time>2019-05-04T18:16:12Z</time>
      </trkpt>
      <trkpt lat="46.69342" lon="6.37114">
        <ele>1276</ele>
        <time>2019-05-04T18:16:13Z</time>
      </trkpt>
      <trkpt lat="46.69344" lon="6.37112">
        <ele>1277</ele>
        <time>2019-05-04T18:16:15Z</time>
      </trkpt>
      <trkpt lat="46.69345" lon="6.37112">
        <ele>1277</ele>
        <time>2019-05-04T18:16:16Z</time>
      </trkpt>
      <trkpt lat="46.69346" lon="6.37111">
        <ele>1278</ele>
        <time>2019-05-04T18:16:17Z</time>
      </trkpt>
      <trkpt lat="46.69346" lon="6.3711">
        <ele>1278</ele>
        <time>2019-05-04T18:16:17Z</time>
      </trkpt>
      <trkpt lat="46.69345" lon="6.37109">
        <ele>1278</ele>
        <time>2019-05-04T18:16:18Z</time>
      </trkpt>
      <trkpt lat="46.69346" lon="6.37106">
        <ele>1278</ele>
        <time>2019-05-04T18:16:20Z</time>
      </trkpt>
      <trkpt lat="46.69347" lon="6.37101">
        <ele>1280</ele>
        <time>2019-05-04T18:16:23Z</time>
      </trkpt>
      <trkpt lat="46.69347" lon="6.37099">
        <ele>1280</ele>
        <time>2019-05-04T18:16:24Z</time>
      </trkpt>
      <trkpt lat="46.69347" lon="6.37093">
        <ele>1281</ele>
        <time>2019-05-04T18:16:27Z</time>
      </trkpt>
      <trkpt lat="46.69344" lon="6.37089">
        <ele>1281</ele>
        <time>2019-05-04T18:16:29Z</time>
      </trkpt>
      <trkpt lat="46.69343" lon="6.37089">
        <ele>1281</ele>
        <time>2019-05-04T18:16:30Z</time>
      </trkpt>
      <trkpt lat="46.69341" lon="6.37082">
        <ele>1281</ele>
        <time>2019-05-04T18:16:34Z</time>
      </trkpt>
      <trkpt lat="46.6933" lon="6.37061">
        <ele>1281</ele>
        <time>2019-05-04T18:16:47Z</time>
      </trkpt>
      <trkpt lat="46.69322" lon="6.37043">
        <ele>1282</ele>
        <time>2019-05-04T18:16:58Z</time>
      </trkpt>
      <trkpt lat="46.69318" lon="6.37035">
        <ele>1282</ele>
        <time>2019-05-04T18:17:03Z</time>
      </trkpt>
      <trkpt lat="46.69308" lon="6.37013">
        <ele>1283</ele>
        <time>2019-05-04T18:17:16Z</time>
      </trkpt>
      <trkpt lat="46.69307" lon="6.3701">
        <ele>1284</ele>
        <time>2019-05-04T18:17:18Z</time>
      </trkpt>
      <trkpt lat="46.69304" lon="6.37002">
        <ele>1284</ele>
        <time>2019-05-04T18:17:22Z</time>
      </trkpt>
      <trkpt lat="46.69295" lon="6.36978">
        <ele>1286</ele>
        <time>2019-05-04T18:17:36Z</time>
      </trkpt>
      <trkpt lat="46.69286" lon="6.36953">
        <ele>1289</ele>
        <time>2019-05-04T18:17:50Z</time>
      </trkpt>
      <trkpt lat="46.69276" lon="6.36934">
        <ele>1291</ele>
        <time>2019-05-04T18:18:02Z</time>
      </trkpt>
      <trkpt lat="46.69263" lon="6.36913">
        <ele>1289</ele>
        <time>2019-05-04T18:18:16Z</time>
      </trkpt>
      <trkpt lat="46.69256" lon="6.36903">
        <ele>1288</ele>
        <time>2019-05-04T18:18:23Z</time>
      </trkpt>
      <trkpt lat="46.69244" lon="6.36885">
        <ele>1287</ele>
        <time>2019-05-04T18:18:36Z</time>
      </trkpt>
      <trkpt lat="46.69234" lon="6.36862">
        <ele>1287</ele>
        <time>2019-05-04T18:18:49Z</time>
      </trkpt>
      <trkpt lat="46.69227" lon="6.3684">
        <ele>1288</ele>
        <time>2019-05-04T18:19:01Z</time>
      </trkpt>
      <trkpt lat="46.69224" lon="6.36833">
        <ele>1289</ele>
        <time>2019-05-04T18:19:05Z</time>
      </trkpt>
      <trkpt lat="46.69217" lon="6.36814">
        <ele>1290</ele>
        <time>2019-05-04T18:19:16Z</time>
      </trkpt>
      <trkpt lat="46.69207" lon="6.36791">
        <ele>1293</ele>
        <time>2019-05-04T18:19:29Z</time>
      </trkpt>
      <trkpt lat="46.69195" lon="6.36769">
        <ele>1295</ele>
        <time>2019-05-04T18:19:44Z</time>
      </trkpt>
      <trkpt lat="46.69181" lon="6.36749">
        <ele>1293</ele>
        <time>2019-05-04T18:19:58Z</time>
      </trkpt>
      <trkpt lat="46.69177" lon="6.36737">
        <ele>1293</ele>
        <time>2019-05-04T18:20:04Z</time>
      </trkpt>
      <trkpt lat="46.69174" lon="6.36733">
        <ele>1293</ele>
        <time>2019-05-04T18:20:07Z</time>
      </trkpt>
      <trkpt lat="46.6917" lon="6.36729">
        <ele>1292</ele>
        <time>2019-05-04T18:20:11Z</time>
      </trkpt>
      <trkpt lat="46.69158" lon="6.36709">
        <ele>1291</ele>
        <time>2019-05-04T18:20:24Z</time>
      </trkpt>
      <trkpt lat="46.69147" lon="6.36688">
        <ele>1291</ele>
        <time>2019-05-04T18:20:37Z</time>
      </trkpt>
      <trkpt lat="46.69137" lon="6.36665">
        <ele>1292</ele>
        <time>2019-05-04T18:20:51Z</time>
      </trkpt>
      <trkpt lat="46.69136" lon="6.36662">
        <ele>1293</ele>
        <time>2019-05-04T18:20:53Z</time>
      </trkpt>
      <trkpt lat="46.69136" lon="6.36654">
        <ele>1294</ele>
        <time>2019-05-04T18:20:56Z</time>
      </trkpt>
      <trkpt lat="46.69132" lon="6.36643">
        <ele>1295</ele>
        <time>2019-05-04T18:21:02Z</time>
      </trkpt>
      <trkpt lat="46.6913" lon="6.36639">
        <ele>1296</ele>
        <time>2019-05-04T18:21:05Z</time>
      </trkpt>
      <trkpt lat="46.69119" lon="6.36617">
        <ele>1297</ele>
        <time>2019-05-04T18:21:19Z</time>
      </trkpt>
      <trkpt lat="46.69118" lon="6.36616">
        <ele>1297</ele>
        <time>2019-05-04T18:21:20Z</time>
      </trkpt>
      <trkpt lat="46.69113" lon="6.36608">
        <ele>1298</ele>
        <time>2019-05-04T18:21:25Z</time>
      </trkpt>
      <trkpt lat="46.69107" lon="6.36598">
        <ele>1298</ele>
        <time>2019-05-04T18:21:32Z</time>
      </trkpt>
      <trkpt lat="46.69099" lon="6.3658">
        <ele>1299</ele>
        <time>2019-05-04T18:21:42Z</time>
      </trkpt>
      <trkpt lat="46.69093" lon="6.36555">
        <ele>1303</ele>
        <time>2019-05-04T18:21:55Z</time>
      </trkpt>
      <trkpt lat="46.6909" lon="6.36547">
        <ele>1304</ele>
        <time>2019-05-04T18:22:00Z</time>
      </trkpt>
      <trkpt lat="46.69081" lon="6.36523">
        <ele>1306</ele>
        <time>2019-05-04T18:22:14Z</time>
      </trkpt>
      <trkpt lat="46.69069" lon="6.36505">
        <ele>1306</ele>
        <time>2019-05-04T18:22:26Z</time>
      </trkpt>
      <trkpt lat="46.69063" lon="6.36496">
        <ele>1306</ele>
        <time>2019-05-04T18:22:32Z</time>
      </trkpt>
      <trkpt lat="46.6906" lon="6.36492">
        <ele>1305</ele>
        <time>2019-05-04T18:22:36Z</time>
      </trkpt>
      <trkpt lat="46.69055" lon="6.36483">
        <ele>1306</ele>
        <time>2019-05-04T18:22:41Z</time>
      </trkpt>
      <trkpt lat="46.69043" lon="6.36459">
        <ele>1307</ele>
        <time>2019-05-04T18:22:56Z</time>
      </trkpt>
      <trkpt lat="46.69033" lon="6.36437">
        <ele>1309</ele>
        <time>2019-05-04T18:23:09Z</time>
      </trkpt>
      <trkpt lat="46.69031" lon="6.36432">
        <ele>1309</ele>
        <time>2019-05-04T18:23:12Z</time>
      </trkpt>
      <trkpt lat="46.69029" lon="6.3643">
        <ele>1309</ele>
        <time>2019-05-04T18:23:14Z</time>
      </trkpt>
      <trkpt lat="46.69031" lon="6.36427">
        <ele>1310</ele>
        <time>2019-05-04T18:23:16Z</time>
      </trkpt>
      <trkpt lat="46.69031" lon="6.36424">
        <ele>1310</ele>
        <time>2019-05-04T18:23:17Z</time>
      </trkpt>
      <trkpt lat="46.69032" lon="6.3642">
        <ele>1311</ele>
        <time>2019-05-04T18:23:19Z</time>
      </trkpt>
      <trkpt lat="46.69033" lon="6.36413">
        <ele>1312</ele>
        <time>2019-05-04T18:23:23Z</time>
      </trkpt>
      <trkpt lat="46.69033" lon="6.36405">
        <ele>1314</ele>
        <time>2019-05-04T18:23:27Z</time>
      </trkpt>
      <trkpt lat="46.69035" lon="6.36399">
        <ele>1315</ele>
        <time>2019-05-04T18:23:31Z</time>
      </trkpt>
      <trkpt lat="46.69037" lon="6.36393">
        <ele>1316</ele>
        <time>2019-05-04T18:23:34Z</time>
      </trkpt>
      <trkpt lat="46.69038" lon="6.36387">
        <ele>1317</ele>
        <time>2019-05-04T18:23:37Z</time>
      </trkpt>
      <trkpt lat="46.69039" lon="6.36382">
        <ele>1318</ele>
        <time>2019-05-04T18:23:39Z</time>
      </trkpt>
      <trkpt lat="46.69033" lon="6.36357">
        <ele>1322</ele>
        <time>2019-05-04T18:23:53Z</time>
      </trkpt>
      <trkpt lat="46.69031" lon="6.36352">
        <ele>1322</ele>
        <time>2019-05-04T18:23:56Z</time>
      </trkpt>
      <trkpt lat="46.69025" lon="6.36343">
        <ele>1322</ele>
        <time>2019-05-04T18:24:02Z</time>
      </trkpt>
      <trkpt lat="46.69021" lon="6.36335">
        <ele>1322</ele>
        <time>2019-05-04T18:24:07Z</time>
      </trkpt>
      <trkpt lat="46.69019" lon="6.36334">
        <ele>1321</ele>
        <time>2019-05-04T18:24:08Z</time>
      </trkpt>
      <trkpt lat="46.69018" lon="6.36333">
        <ele>1321</ele>
        <time>2019-05-04T18:24:09Z</time>
      </trkpt>
      <trkpt lat="46.69011" lon="6.36321">
        <ele>1321</ele>
        <time>2019-05-04T18:24:17Z</time>
      </trkpt>
      <trkpt lat="46.68999" lon="6.36296">
        <ele>1321</ele>
        <time>2019-05-04T18:24:32Z</time>
      </trkpt>
      <trkpt lat="46.68994" lon="6.36284">
        <ele>1322</ele>
        <time>2019-05-04T18:24:39Z</time>
      </trkpt>
      <trkpt lat="46.68991" lon="6.36272">
        <ele>1323</ele>
        <time>2019-05-04T18:24:46Z</time>
      </trkpt>
      <trkpt lat="46.68978" lon="6.36251">
        <ele>1323</ele>
        <time>2019-05-04T18:25:00Z</time>
      </trkpt>
      <trkpt lat="46.68975" lon="6.36244">
        <ele>1324</ele>
        <time>2019-05-04T18:25:04Z</time>
      </trkpt>
      <trkpt lat="46.68971" lon="6.3623">
        <ele>1325</ele>
        <time>2019-05-04T18:25:12Z</time>
      </trkpt>
      <trkpt lat="46.68969" lon="6.36223">
        <ele>1326</ele>
        <time>2019-05-04T18:25:15Z</time>
      </trkpt>
      <trkpt lat="46.68969" lon="6.36215">
        <ele>1327</ele>
        <time>2019-05-04T18:25:20Z</time>
      </trkpt>
      <trkpt lat="46.68969" lon="6.36212">
        <ele>1328</ele>
        <time>2019-05-04T18:25:21Z</time>
      </trkpt>
      <trkpt lat="46.68969" lon="6.36206">
        <ele>1329</ele>
        <time>2019-05-04T18:25:24Z</time>
      </trkpt>
      <trkpt lat="46.68969" lon="6.36201">
        <ele>1329</ele>
        <time>2019-05-04T18:25:27Z</time>
      </trkpt>
      <trkpt lat="46.68969" lon="6.36198">
        <ele>1330</ele>
        <time>2019-05-04T18:25:28Z</time>
      </trkpt>
      <trkpt lat="46.68967" lon="6.36196">
        <ele>1330</ele>
        <time>2019-05-04T18:25:29Z</time>
      </trkpt>
      <trkpt lat="46.68967" lon="6.36195">
        <ele>1330</ele>
        <time>2019-05-04T18:25:30Z</time>
      </trkpt>
      <trkpt lat="46.68965" lon="6.36185">
        <ele>1331</ele>
        <time>2019-05-04T18:25:35Z</time>
      </trkpt>
      <trkpt lat="46.68964" lon="6.36183">
        <ele>1331</ele>
        <time>2019-05-04T18:25:37Z</time>
      </trkpt>
      <trkpt lat="46.68963" lon="6.36177">
        <ele>1332</ele>
        <time>2019-05-04T18:25:40Z</time>
      </trkpt>
      <trkpt lat="46.68958" lon="6.36163">
        <ele>1333</ele>
        <time>2019-05-04T18:25:47Z</time>
      </trkpt>
      <trkpt lat="46.68954" lon="6.36153">
        <ele>1335</ele>
        <time>2019-05-04T18:25:54Z</time>
      </trkpt>
      <trkpt lat="46.68949" lon="6.36141">
        <ele>1337</ele>
        <time>2019-05-04T18:26:01Z</time>
      </trkpt>
      <trkpt lat="46.68946" lon="6.36127">
        <ele>1339</ele>
        <time>2019-05-04T18:26:08Z</time>
      </trkpt>
      <trkpt lat="46.68942" lon="6.36118">
        <ele>1340</ele>
        <time>2019-05-04T18:26:13Z</time>
      </trkpt>
      <trkpt lat="46.6894" lon="6.36116">
        <ele>1340</ele>
        <time>2019-05-04T18:26:15Z</time>
      </trkpt>
      <trkpt lat="46.68935" lon="6.3611">
        <ele>1340</ele>
        <time>2019-05-04T18:26:20Z</time>
      </trkpt>
      <trkpt lat="46.68929" lon="6.36102">
        <ele>1340</ele>
        <time>2019-05-04T18:26:26Z</time>
      </trkpt>
      <trkpt lat="46.6892" lon="6.36094">
        <ele>1338</ele>
        <time>2019-05-04T18:26:33Z</time>
      </trkpt>
      <trkpt lat="46.68903" lon="6.36079">
        <ele>1336</ele>
        <time>2019-05-04T18:26:47Z</time>
      </trkpt>
      <trkpt lat="46.68901" lon="6.36076">
        <ele>1336</ele>
        <time>2019-05-04T18:26:50Z</time>
      </trkpt>
      <trkpt lat="46.68892" lon="6.36059">
        <ele>1337</ele>
        <time>2019-05-04T18:27:00Z</time>
      </trkpt>
      <trkpt lat="46.68883" lon="6.36033">
        <ele>1340</ele>
        <time>2019-05-04T18:27:15Z</time>
      </trkpt>
      <trkpt lat="46.68882" lon="6.36029">
        <ele>1341</ele>
        <time>2019-05-04T18:27:17Z</time>
      </trkpt>
      <trkpt lat="46.68882" lon="6.36026">
        <ele>1341</ele>
        <time>2019-05-04T18:27:19Z</time>
      </trkpt>
      <trkpt lat="46.68879" lon="6.36021">
        <ele>1342</ele>
        <time>2019-05-04T18:27:22Z</time>
      </trkpt>
      <trkpt lat="46.68878" lon="6.36014">
        <ele>1342</ele>
        <time>2019-05-04T18:27:25Z</time>
      </trkpt>
      <trkpt lat="46.68877" lon="6.36011">
        <ele>1342</ele>
        <time>2019-05-04T18:27:27Z</time>
      </trkpt>
      <trkpt lat="46.68874" lon="6.36007">
        <ele>1342</ele>
        <time>2019-05-04T18:27:30Z</time>
      </trkpt>
      <trkpt lat="46.68871" lon="6.36005">
        <ele>1343</ele>
        <time>2019-05-04T18:27:32Z</time>
      </trkpt>
      <trkpt lat="46.68863" lon="6.35989">
        <ele>1345</ele>
        <time>2019-05-04T18:27:43Z</time>
      </trkpt>
      <trkpt lat="46.6886" lon="6.35982">
        <ele>1346</ele>
        <time>2019-05-04T18:27:47Z</time>
      </trkpt>
      <trkpt lat="46.68858" lon="6.35976">
        <ele>1346</ele>
        <time>2019-05-04T18:27:50Z</time>
      </trkpt>
      <trkpt lat="46.68852" lon="6.35966">
        <ele>1345</ele>
        <time>2019-05-04T18:27:56Z</time>
      </trkpt>
      <trkpt lat="46.68844" lon="6.35942">
        <ele>1346</ele>
        <time>2019-05-04T18:28:10Z</time>
      </trkpt>
      <trkpt lat="46.68838" lon="6.3592">
        <ele>1344</ele>
        <time>2019-05-04T18:28:22Z</time>
      </trkpt>
      <trkpt lat="46.68831" lon="6.35905">
        <ele>1343</ele>
        <time>2019-05-04T18:28:31Z</time>
      </trkpt>
      <trkpt lat="46.68825" lon="6.35897">
        <ele>1343</ele>
        <time>2019-05-04T18:28:36Z</time>
      </trkpt>
      <trkpt lat="46.68819" lon="6.35895">
        <ele>1343</ele>
        <time>2019-05-04T18:28:41Z</time>
      </trkpt>
      <trkpt lat="46.68813" lon="6.3589">
        <ele>1343</ele>
        <time>2019-05-04T18:28:46Z</time>
      </trkpt>
      <trkpt lat="46.68811" lon="6.35888">
        <ele>1343</ele>
        <time>2019-05-04T18:28:48Z</time>
      </trkpt>
      <trkpt lat="46.6881" lon="6.35886">
        <ele>1343</ele>
        <time>2019-05-04T18:28:49Z</time>
      </trkpt>
      <trkpt lat="46.68808" lon="6.35882">
        <ele>1344</ele>
        <time>2019-05-04T18:28:52Z</time>
      </trkpt>
      <trkpt lat="46.68803" lon="6.35872">
        <ele>1345</ele>
        <time>2019-05-04T18:28:58Z</time>
      </trkpt>
      <trkpt lat="46.68804" lon="6.3587">
        <ele>1345</ele>
        <time>2019-05-04T18:28:59Z</time>
      </trkpt>
      <trkpt lat="46.68802" lon="6.35866">
        <ele>1345</ele>
        <time>2019-05-04T18:29:01Z</time>
      </trkpt>
      <trkpt lat="46.68802" lon="6.35861">
        <ele>1345</ele>
        <time>2019-05-04T18:29:04Z</time>
      </trkpt>
      <trkpt lat="46.68802" lon="6.35856">
        <ele>1346</ele>
        <time>2019-05-04T18:29:06Z</time>
      </trkpt>
      <trkpt lat="46.68801" lon="6.35852">
        <ele>1346</ele>
        <time>2019-05-04T18:29:08Z</time>
      </trkpt>
      <trkpt lat="46.68801" lon="6.3585">
        <ele>1345</ele>
        <time>2019-05-04T18:29:09Z</time>
      </trkpt>
      <trkpt lat="46.68799" lon="6.35844">
        <ele>1345</ele>
        <time>2019-05-04T18:29:13Z</time>
      </trkpt>
      <trkpt lat="46.68797" lon="6.35835">
        <ele>1345</ele>
        <time>2019-05-04T18:29:18Z</time>
      </trkpt>
      <trkpt lat="46.68797" lon="6.35834">
        <ele>1345</ele>
        <time>2019-05-04T18:29:18Z</time>
      </trkpt>
      <trkpt lat="46.68795" lon="6.3583">
        <ele>1345</ele>
        <time>2019-05-04T18:29:20Z</time>
      </trkpt>
      <trkpt lat="46.68794" lon="6.35825">
        <ele>1346</ele>
        <time>2019-05-04T18:29:23Z</time>
      </trkpt>
      <trkpt lat="46.68791" lon="6.3582">
        <ele>1346</ele>
        <time>2019-05-04T18:29:26Z</time>
      </trkpt>
      <trkpt lat="46.6879" lon="6.35817">
        <ele>1347</ele>
        <time>2019-05-04T18:29:28Z</time>
      </trkpt>
      <trkpt lat="46.68789" lon="6.35813">
        <ele>1347</ele>
        <time>2019-05-04T18:29:30Z</time>
      </trkpt>
      <trkpt lat="46.68785" lon="6.35808">
        <ele>1348</ele>
        <time>2019-05-04T18:29:34Z</time>
      </trkpt>
      <trkpt lat="46.68784" lon="6.35805">
        <ele>1349</ele>
        <time>2019-05-04T18:29:35Z</time>
      </trkpt>
      <trkpt lat="46.68784" lon="6.35801">
        <ele>1349</ele>
        <time>2019-05-04T18:29:38Z</time>
      </trkpt>
      <trkpt lat="46.68784" lon="6.35799">
        <ele>1349</ele>
        <time>2019-05-04T18:29:39Z</time>
      </trkpt>
      <trkpt lat="46.68781" lon="6.35794">
        <ele>1350</ele>
        <time>2019-05-04T18:29:42Z</time>
      </trkpt>
      <trkpt lat="46.68781" lon="6.35792">
        <ele>1350</ele>
        <time>2019-05-04T18:29:43Z</time>
      </trkpt>
      <trkpt lat="46.68777" lon="6.35785">
        <ele>1352</ele>
        <time>2019-05-04T18:29:47Z</time>
      </trkpt>
      <trkpt lat="46.68764" lon="6.35767">
        <ele>1351</ele>
        <time>2019-05-04T18:30:00Z</time>
      </trkpt>
      <trkpt lat="46.68764" lon="6.35765">
        <ele>1351</ele>
        <time>2019-05-04T18:30:01Z</time>
      </trkpt>
      <trkpt lat="46.68755" lon="6.35754">
        <ele>1350</ele>
        <time>2019-05-04T18:30:09Z</time>
      </trkpt>
      <trkpt lat="46.68746" lon="6.35737">
        <ele>1351</ele>
        <time>2019-05-04T18:30:20Z</time>
      </trkpt>
      <trkpt lat="46.68743" lon="6.35735">
        <ele>1351</ele>
        <time>2019-05-04T18:30:23Z</time>
      </trkpt>
      <trkpt lat="46.68741" lon="6.3573">
        <ele>1351</ele>
        <time>2019-05-04T18:30:25Z</time>
      </trkpt>
      <trkpt lat="46.68738" lon="6.35724">
        <ele>1352</ele>
        <time>2019-05-04T18:30:29Z</time>
      </trkpt>
      <trkpt lat="46.68725" lon="6.35705">
        <ele>1357</ele>
        <time>2019-05-04T18:30:43Z</time>
      </trkpt>
      <trkpt lat="46.68723" lon="6.35699">
        <ele>1358</ele>
        <time>2019-05-04T18:30:46Z</time>
      </trkpt>
      <trkpt lat="46.68719" lon="6.35692">
        <ele>1360</ele>
        <time>2019-05-04T18:30:51Z</time>
      </trkpt>
      <trkpt lat="46.68716" lon="6.35689">
        <ele>1361</ele>
        <time>2019-05-04T18:30:54Z</time>
      </trkpt>
      <trkpt lat="46.68715" lon="6.35688">
        <ele>1362</ele>
        <time>2019-05-04T18:30:55Z</time>
      </trkpt>
      <trkpt lat="46.68712" lon="6.35679">
        <ele>1363</ele>
        <time>2019-05-04T18:31:00Z</time>
      </trkpt>
      <trkpt lat="46.6871" lon="6.35674">
        <ele>1364</ele>
        <time>2019-05-04T18:31:03Z</time>
      </trkpt>
      <trkpt lat="46.68709" lon="6.3567">
        <ele>1364</ele>
        <time>2019-05-04T18:31:05Z</time>
      </trkpt>
      <trkpt lat="46.68707" lon="6.35668">
        <ele>1365</ele>
        <time>2019-05-04T18:31:07Z</time>
      </trkpt>
      <trkpt lat="46.68703" lon="6.35659">
        <ele>1367</ele>
        <time>2019-05-04T18:31:12Z</time>
      </trkpt>
      <trkpt lat="46.68701" lon="6.35657">
        <ele>1368</ele>
        <time>2019-05-04T18:31:14Z</time>
      </trkpt>
      <trkpt lat="46.68699" lon="6.35656">
        <ele>1369</ele>
        <time>2019-05-04T18:31:16Z</time>
      </trkpt>
      <trkpt lat="46.68699" lon="6.35655">
        <ele>1369</ele>
        <time>2019-05-04T18:31:16Z</time>
      </trkpt>
      <trkpt lat="46.68697" lon="6.35654">
        <ele>1370</ele>
        <time>2019-05-04T18:31:18Z</time>
      </trkpt>
      <trkpt lat="46.68696" lon="6.35653">
        <ele>1371</ele>
        <time>2019-05-04T18:31:19Z</time>
      </trkpt>
      <trkpt lat="46.68695" lon="6.3565">
        <ele>1371</ele>
        <time>2019-05-04T18:31:20Z</time>
      </trkpt>
      <trkpt lat="46.68693" lon="6.35648">
        <ele>1372</ele>
        <time>2019-05-04T18:31:22Z</time>
      </trkpt>
      <trkpt lat="46.68692" lon="6.35647">
        <ele>1372</ele>
        <time>2019-05-04T18:31:23Z</time>
      </trkpt>
      <trkpt lat="46.68691" lon="6.35645">
        <ele>1372</ele>
        <time>2019-05-04T18:31:24Z</time>
      </trkpt>
      <trkpt lat="46.68691" lon="6.35642">
        <ele>1372</ele>
        <time>2019-05-04T18:31:26Z</time>
      </trkpt>
      <trkpt lat="46.68689" lon="6.35637">
        <ele>1372</ele>
        <time>2019-05-04T18:31:29Z</time>
      </trkpt>
      <trkpt lat="46.68688" lon="6.35634">
        <ele>1372</ele>
        <time>2019-05-04T18:31:30Z</time>
      </trkpt>
      <trkpt lat="46.68687" lon="6.35629">
        <ele>1373</ele>
        <time>2019-05-04T18:31:33Z</time>
      </trkpt>
      <trkpt lat="46.68687" lon="6.35627">
        <ele>1373</ele>
        <time>2019-05-04T18:31:34Z</time>
      </trkpt>
      <trkpt lat="46.68687" lon="6.35627">
        <ele>1373</ele>
        <time>2019-05-04T18:31:35Z</time>
      </trkpt>
      <trkpt lat="46.68686" lon="6.35627">
        <ele>1373</ele>
        <time>2019-05-04T18:31:35Z</time>
      </trkpt>
      <trkpt lat="46.68685" lon="6.35626">
        <ele>1373</ele>
        <time>2019-05-04T18:31:36Z</time>
      </trkpt>
      <trkpt lat="46.68687" lon="6.35621">
        <ele>1374</ele>
        <time>2019-05-04T18:31:38Z</time>
      </trkpt>
      <trkpt lat="46.68687" lon="6.35619">
        <ele>1374</ele>
        <time>2019-05-04T18:31:39Z</time>
      </trkpt>
      <trkpt lat="46.68687" lon="6.35618">
        <ele>1374</ele>
        <time>2019-05-04T18:31:40Z</time>
      </trkpt>
      <trkpt lat="46.68687" lon="6.35617">
        <ele>1374</ele>
        <time>2019-05-04T18:31:40Z</time>
      </trkpt>
      <trkpt lat="46.68686" lon="6.35615">
        <ele>1374</ele>
        <time>2019-05-04T18:31:42Z</time>
      </trkpt>
      <trkpt lat="46.68686" lon="6.35614">
        <ele>1374</ele>
        <time>2019-05-04T18:31:42Z</time>
      </trkpt>
      <trkpt lat="46.68685" lon="6.35611">
        <ele>1375</ele>
        <time>2019-05-04T18:31:44Z</time>
      </trkpt>
      <trkpt lat="46.68685" lon="6.35608">
        <ele>1375</ele>
        <time>2019-05-04T18:31:45Z</time>
      </trkpt>
      <trkpt lat="46.68683" lon="6.35603">
        <ele>1375</ele>
        <time>2019-05-04T18:31:48Z</time>
      </trkpt>
      <trkpt lat="46.68681" lon="6.356">
        <ele>1374</ele>
        <time>2019-05-04T18:31:50Z</time>
      </trkpt>
      <trkpt lat="46.68681" lon="6.35599">
        <ele>1374</ele>
        <time>2019-05-04T18:31:51Z</time>
      </trkpt>
      <trkpt lat="46.6868" lon="6.35596">
        <ele>1374</ele>
        <time>2019-05-04T18:31:53Z</time>
      </trkpt>
      <trkpt lat="46.68674" lon="6.35585">
        <ele>1373</ele>
        <time>2019-05-04T18:31:59Z</time>
      </trkpt>
      <trkpt lat="46.68672" lon="6.35583">
        <ele>1373</ele>
        <time>2019-05-04T18:32:01Z</time>
      </trkpt>
      <trkpt lat="46.68665" lon="6.35574">
        <ele>1373</ele>
        <time>2019-05-04T18:32:08Z</time>
      </trkpt>
      <trkpt lat="46.68661" lon="6.35574">
        <ele>1373</ele>
        <time>2019-05-04T18:32:11Z</time>
      </trkpt>
      <trkpt lat="46.68658" lon="6.35573">
        <ele>1374</ele>
        <time>2019-05-04T18:32:13Z</time>
      </trkpt>
      <trkpt lat="46.68654" lon="6.35572">
        <ele>1374</ele>
        <time>2019-05-04T18:32:16Z</time>
      </trkpt>
      <trkpt lat="46.68653" lon="6.35571">
        <ele>1375</ele>
        <time>2019-05-04T18:32:17Z</time>
      </trkpt>
      <trkpt lat="46.68649" lon="6.35568">
        <ele>1375</ele>
        <time>2019-05-04T18:32:20Z</time>
      </trkpt>
      <trkpt lat="46.68647" lon="6.35566">
        <ele>1376</ele>
        <time>2019-05-04T18:32:22Z</time>
      </trkpt>
      <trkpt lat="46.68645" lon="6.35564">
        <ele>1376</ele>
        <time>2019-05-04T18:32:24Z</time>
      </trkpt>
      <trkpt lat="46.68645" lon="6.35562">
        <ele>1377</ele>
        <time>2019-05-04T18:32:25Z</time>
      </trkpt>
      <trkpt lat="46.68641" lon="6.3556">
        <ele>1378</ele>
        <time>2019-05-04T18:32:28Z</time>
      </trkpt>
      <trkpt lat="46.6864" lon="6.35558">
        <ele>1378</ele>
        <time>2019-05-04T18:32:29Z</time>
      </trkpt>
      <trkpt lat="46.68638" lon="6.35554">
        <ele>1379</ele>
        <time>2019-05-04T18:32:31Z</time>
      </trkpt>
      <trkpt lat="46.68637" lon="6.35552">
        <ele>1380</ele>
        <time>2019-05-04T18:32:33Z</time>
      </trkpt>
      <trkpt lat="46.68636" lon="6.35552">
        <ele>1380</ele>
        <time>2019-05-04T18:32:34Z</time>
      </trkpt>
      <trkpt lat="46.68632" lon="6.35547">
        <ele>1382</ele>
        <time>2019-05-04T18:32:38Z</time>
      </trkpt>
      <trkpt lat="46.68629" lon="6.35545">
        <ele>1383</ele>
        <time>2019-05-04T18:32:40Z</time>
      </trkpt>
      <trkpt lat="46.68627" lon="6.35542">
        <ele>1385</ele>
        <time>2019-05-04T18:32:43Z</time>
      </trkpt>
      <trkpt lat="46.68624" lon="6.35542">
        <ele>1386</ele>
        <time>2019-05-04T18:32:45Z</time>
      </trkpt>
      <trkpt lat="46.68621" lon="6.35541">
        <ele>1387</ele>
        <time>2019-05-04T18:32:47Z</time>
      </trkpt>
      <trkpt lat="46.68616" lon="6.35539">
        <ele>1389</ele>
        <time>2019-05-04T18:32:51Z</time>
      </trkpt>
      <trkpt lat="46.68614" lon="6.35539">
        <ele>1390</ele>
        <time>2019-05-04T18:32:53Z</time>
      </trkpt>
      <trkpt lat="46.68611" lon="6.35539">
        <ele>1391</ele>
        <time>2019-05-04T18:32:55Z</time>
      </trkpt>
      <trkpt lat="46.68607" lon="6.35537">
        <ele>1391</ele>
        <time>2019-05-04T18:32:58Z</time>
      </trkpt>
      <trkpt lat="46.68603" lon="6.35534">
        <ele>1391</ele>
        <time>2019-05-04T18:33:01Z</time>
      </trkpt>
      <trkpt lat="46.686" lon="6.35525">
        <ele>1393</ele>
        <time>2019-05-04T18:33:06Z</time>
      </trkpt>
      <trkpt lat="46.68598" lon="6.35521">
        <ele>1394</ele>
        <time>2019-05-04T18:33:08Z</time>
      </trkpt>
      <trkpt lat="46.68596" lon="6.35521">
        <ele>1394</ele>
        <time>2019-05-04T18:33:10Z</time>
      </trkpt>
      <trkpt lat="46.68592" lon="6.35518">
        <ele>1393</ele>
        <time>2019-05-04T18:33:13Z</time>
      </trkpt>
      <trkpt lat="46.68591" lon="6.35515">
        <ele>1393</ele>
        <time>2019-05-04T18:33:15Z</time>
      </trkpt>
      <trkpt lat="46.68591" lon="6.35513">
        <ele>1394</ele>
        <time>2019-05-04T18:33:16Z</time>
      </trkpt>
      <trkpt lat="46.6859" lon="6.35511">
        <ele>1394</ele>
        <time>2019-05-04T18:33:17Z</time>
      </trkpt>
      <trkpt lat="46.6859" lon="6.35511">
        <ele>1394</ele>
        <time>2019-05-04T18:33:18Z</time>
      </trkpt>
      <trkpt lat="46.68589" lon="6.3551">
        <ele>1394</ele>
        <time>2019-05-04T18:33:19Z</time>
      </trkpt>
      <trkpt lat="46.68588" lon="6.35508">
        <ele>1394</ele>
        <time>2019-05-04T18:33:20Z</time>
      </trkpt>
      <trkpt lat="46.68585" lon="6.35504">
        <ele>1394</ele>
        <time>2019-05-04T18:33:23Z</time>
      </trkpt>
      <trkpt lat="46.68583" lon="6.35502">
        <ele>1394</ele>
        <time>2019-05-04T18:33:24Z</time>
      </trkpt>
      <trkpt lat="46.68581" lon="6.35502">
        <ele>1394</ele>
        <time>2019-05-04T18:33:26Z</time>
      </trkpt>
      <trkpt lat="46.68578" lon="6.35502">
        <ele>1393</ele>
        <time>2019-05-04T18:33:28Z</time>
      </trkpt>
      <trkpt lat="46.68574" lon="6.35499">
        <ele>1394</ele>
        <time>2019-05-04T18:33:31Z</time>
      </trkpt>
      <trkpt lat="46.68572" lon="6.35499">
        <ele>1393</ele>
        <time>2019-05-04T18:33:33Z</time>
      </trkpt>
      <trkpt lat="46.68571" lon="6.35495">
        <ele>1394</ele>
        <time>2019-05-04T18:33:36Z</time>
      </trkpt>
      <trkpt lat="46.68571" lon="6.35491">
        <ele>1395</ele>
        <time>2019-05-04T18:33:38Z</time>
      </trkpt>
      <trkpt lat="46.6857" lon="6.35488">
        <ele>1395</ele>
        <time>2019-05-04T18:33:39Z</time>
      </trkpt>
      <trkpt lat="46.68569" lon="6.35487">
        <ele>1395</ele>
        <time>2019-05-04T18:33:40Z</time>
      </trkpt>
      <trkpt lat="46.68567" lon="6.35485">
        <ele>1396</ele>
        <time>2019-05-04T18:33:42Z</time>
      </trkpt>
      <trkpt lat="46.68566" lon="6.35479">
        <ele>1397</ele>
        <time>2019-05-04T18:33:45Z</time>
      </trkpt>
      <trkpt lat="46.68565" lon="6.35475">
        <ele>1398</ele>
        <time>2019-05-04T18:33:47Z</time>
      </trkpt>
      <trkpt lat="46.68564" lon="6.3547">
        <ele>1399</ele>
        <time>2019-05-04T18:33:50Z</time>
      </trkpt>
      <trkpt lat="46.68564" lon="6.35469">
        <ele>1399</ele>
        <time>2019-05-04T18:33:50Z</time>
      </trkpt>
      <trkpt lat="46.68561" lon="6.35465">
        <ele>1400</ele>
        <time>2019-05-04T18:33:53Z</time>
      </trkpt>
      <trkpt lat="46.68561" lon="6.35464">
        <ele>1400</ele>
        <time>2019-05-04T18:33:54Z</time>
      </trkpt>
      <trkpt lat="46.68558" lon="6.35465">
        <ele>1400</ele>
        <time>2019-05-04T18:33:56Z</time>
      </trkpt>
      <trkpt lat="46.68558" lon="6.35464">
        <ele>1400</ele>
        <time>2019-05-04T18:33:56Z</time>
      </trkpt>
      <trkpt lat="46.68556" lon="6.35462">
        <ele>1401</ele>
        <time>2019-05-04T18:33:58Z</time>
      </trkpt>
      <trkpt lat="46.68555" lon="6.35462">
        <ele>1401</ele>
        <time>2019-05-04T18:33:59Z</time>
      </trkpt>
      <trkpt lat="46.68552" lon="6.35463">
        <ele>1400</ele>
        <time>2019-05-04T18:34:01Z</time>
      </trkpt>
      <trkpt lat="46.6855" lon="6.35459">
        <ele>1402</ele>
        <time>2019-05-04T18:34:04Z</time>
      </trkpt>
      <trkpt lat="46.68547" lon="6.35456">
        <ele>1402</ele>
        <time>2019-05-04T18:34:06Z</time>
      </trkpt>
      <trkpt lat="46.68546" lon="6.35455">
        <ele>1403</ele>
        <time>2019-05-04T18:34:08Z</time>
      </trkpt>
      <trkpt lat="46.68546" lon="6.35452">
        <ele>1404</ele>
        <time>2019-05-04T18:34:09Z</time>
      </trkpt>
      <trkpt lat="46.68541" lon="6.35446">
        <ele>1405</ele>
        <time>2019-05-04T18:34:13Z</time>
      </trkpt>
      <trkpt lat="46.68539" lon="6.35441">
        <ele>1407</ele>
        <time>2019-05-04T18:34:17Z</time>
      </trkpt>
      <trkpt lat="46.68532" lon="6.35435">
        <ele>1409</ele>
        <time>2019-05-04T18:34:23Z</time>
      </trkpt>
      <trkpt lat="46.68528" lon="6.35431">
        <ele>1410</ele>
        <time>2019-05-04T18:34:26Z</time>
      </trkpt>
      <trkpt lat="46.68527" lon="6.35423">
        <ele>1412</ele>
        <time>2019-05-04T18:34:30Z</time>
      </trkpt>
      <trkpt lat="46.68525" lon="6.35421">
        <ele>1412</ele>
        <time>2019-05-04T18:34:32Z</time>
      </trkpt>
      <trkpt lat="46.68525" lon="6.3542">
        <ele>1412</ele>
        <time>2019-05-04T18:34:33Z</time>
      </trkpt>
      <trkpt lat="46.68522" lon="6.35416">
        <ele>1413</ele>
        <time>2019-05-04T18:34:36Z</time>
      </trkpt>
      <trkpt lat="46.68521" lon="6.35415">
        <ele>1413</ele>
        <time>2019-05-04T18:34:36Z</time>
      </trkpt>
      <trkpt lat="46.68519" lon="6.35413">
        <ele>1413</ele>
        <time>2019-05-04T18:34:38Z</time>
      </trkpt>
      <trkpt lat="46.68517" lon="6.35413">
        <ele>1413</ele>
        <time>2019-05-04T18:34:40Z</time>
      </trkpt>
      <trkpt lat="46.68516" lon="6.35411">
        <ele>1414</ele>
        <time>2019-05-04T18:34:41Z</time>
      </trkpt>
      <trkpt lat="46.68515" lon="6.35409">
        <ele>1414</ele>
        <time>2019-05-04T18:34:42Z</time>
      </trkpt>
      <trkpt lat="46.68513" lon="6.35407">
        <ele>1414</ele>
        <time>2019-05-04T18:34:44Z</time>
      </trkpt>
      <trkpt lat="46.68508" lon="6.35405">
        <ele>1415</ele>
        <time>2019-05-04T18:34:48Z</time>
      </trkpt>
      <trkpt lat="46.68508" lon="6.35403">
        <ele>1415</ele>
        <time>2019-05-04T18:34:49Z</time>
      </trkpt>
      <trkpt lat="46.68508" lon="6.35401">
        <ele>1415</ele>
        <time>2019-05-04T18:34:50Z</time>
      </trkpt>
      <trkpt lat="46.68506" lon="6.35396">
        <ele>1417</ele>
        <time>2019-05-04T18:34:53Z</time>
      </trkpt>
      <trkpt lat="46.68502" lon="6.35392">
        <ele>1417</ele>
        <time>2019-05-04T18:34:56Z</time>
      </trkpt>
      <trkpt lat="46.68501" lon="6.35391">
        <ele>1418</ele>
        <time>2019-05-04T18:34:57Z</time>
      </trkpt>
      <trkpt lat="46.68497" lon="6.35388">
        <ele>1419</ele>
        <time>2019-05-04T18:35:01Z</time>
      </trkpt>
      <trkpt lat="46.68496" lon="6.35384">
        <ele>1420</ele>
        <time>2019-05-04T18:35:03Z</time>
      </trkpt>
      <trkpt lat="46.68495" lon="6.35383">
        <ele>1420</ele>
        <time>2019-05-04T18:35:03Z</time>
      </trkpt>
      <trkpt lat="46.6849" lon="6.35374">
        <ele>1422</ele>
        <time>2019-05-04T18:35:09Z</time>
      </trkpt>
      <trkpt lat="46.6849" lon="6.35373">
        <ele>1423</ele>
        <time>2019-05-04T18:35:10Z</time>
      </trkpt>
      <trkpt lat="46.68488" lon="6.3537">
        <ele>1423</ele>
        <time>2019-05-04T18:35:12Z</time>
      </trkpt>
      <trkpt lat="46.68487" lon="6.3537">
        <ele>1424</ele>
        <time>2019-05-04T18:35:13Z</time>
      </trkpt>
      <trkpt lat="46.68485" lon="6.35368">
        <ele>1424</ele>
        <time>2019-05-04T18:35:15Z</time>
      </trkpt>
      <trkpt lat="46.68481" lon="6.35366">
        <ele>1425</ele>
        <time>2019-05-04T18:35:18Z</time>
      </trkpt>
      <trkpt lat="46.68478" lon="6.35366">
        <ele>1425</ele>
        <time>2019-05-04T18:35:20Z</time>
      </trkpt>
      <trkpt lat="46.68477" lon="6.35368">
        <ele>1425</ele>
        <time>2019-05-04T18:35:21Z</time>
      </trkpt>
      <trkpt lat="46.68473" lon="6.35369">
        <ele>1425</ele>
        <time>2019-05-04T18:35:24Z</time>
      </trkpt>
      <trkpt lat="46.68472" lon="6.35368">
        <ele>1425</ele>
        <time>2019-05-04T18:35:25Z</time>
      </trkpt>
      <trkpt lat="46.68471" lon="6.35367">
        <ele>1425</ele>
        <time>2019-05-04T18:35:26Z</time>
      </trkpt>
      <trkpt lat="46.68468" lon="6.35365">
        <ele>1426</ele>
        <time>2019-05-04T18:35:28Z</time>
      </trkpt>
      <trkpt lat="46.68466" lon="6.35364">
        <ele>1427</ele>
        <time>2019-05-04T18:35:30Z</time>
      </trkpt>
      <trkpt lat="46.68465" lon="6.35364">
        <ele>1427</ele>
        <time>2019-05-04T18:35:31Z</time>
      </trkpt>
      <trkpt lat="46.68464" lon="6.35363">
        <ele>1427</ele>
        <time>2019-05-04T18:35:31Z</time>
      </trkpt>
      <trkpt lat="46.68464" lon="6.3536">
        <ele>1428</ele>
        <time>2019-05-04T18:35:33Z</time>
      </trkpt>
      <trkpt lat="46.68464" lon="6.35358">
        <ele>1429</ele>
        <time>2019-05-04T18:35:34Z</time>
      </trkpt>
      <trkpt lat="46.68462" lon="6.35357">
        <ele>1429</ele>
        <time>2019-05-04T18:35:35Z</time>
      </trkpt>
      <trkpt lat="46.68465" lon="6.35349">
        <ele>1430</ele>
        <time>2019-05-04T18:35:40Z</time>
      </trkpt>
      <trkpt lat="46.68464" lon="6.35344">
        <ele>1431</ele>
        <time>2019-05-04T18:35:43Z</time>
      </trkpt>
      <trkpt lat="46.68463" lon="6.35341">
        <ele>1432</ele>
        <time>2019-05-04T18:35:45Z</time>
      </trkpt>
      <trkpt lat="46.68463" lon="6.3534">
        <ele>1432</ele>
        <time>2019-05-04T18:35:45Z</time>
      </trkpt>
      <trkpt lat="46.68464" lon="6.35337">
        <ele>1432</ele>
        <time>2019-05-04T18:35:46Z</time>
      </trkpt>
      <trkpt lat="46.68465" lon="6.35337">
        <ele>1432</ele>
        <time>2019-05-04T18:35:47Z</time>
      </trkpt>
      <trkpt lat="46.68466" lon="6.35336">
        <ele>1432</ele>
        <time>2019-05-04T18:35:48Z</time>
      </trkpt>
      <trkpt lat="46.68469" lon="6.35334">
        <ele>1432</ele>
        <time>2019-05-04T18:35:51Z</time>
      </trkpt>
      <trkpt lat="46.6847" lon="6.35333">
        <ele>1432</ele>
        <time>2019-05-04T18:35:51Z</time>
      </trkpt>
      <trkpt lat="46.6847" lon="6.35331">
        <ele>1432</ele>
        <time>2019-05-04T18:35:53Z</time>
      </trkpt>
      <trkpt lat="46.68471" lon="6.3533">
        <ele>1433</ele>
        <time>2019-05-04T18:35:53Z</time>
      </trkpt>
      <trkpt lat="46.68471" lon="6.35328">
        <ele>1433</ele>
        <time>2019-05-04T18:35:54Z</time>
      </trkpt>
      <trkpt lat="46.68471" lon="6.35328">
        <ele>1433</ele>
        <time>2019-05-04T18:35:55Z</time>
      </trkpt>
      <trkpt lat="46.68471" lon="6.35331">
        <ele>1432</ele>
        <time>2019-05-04T18:35:56Z</time>
      </trkpt>
      <trkpt lat="46.68472" lon="6.35331">
        <ele>1432</ele>
        <time>2019-05-04T18:35:57Z</time>
      </trkpt>
      <trkpt lat="46.68474" lon="6.3533">
        <ele>1432</ele>
        <time>2019-05-04T18:35:59Z</time>
      </trkpt>
      <trkpt lat="46.68476" lon="6.35329">
        <ele>1432</ele>
        <time>2019-05-04T18:36:00Z</time>
      </trkpt>
      <trkpt lat="46.68477" lon="6.35328">
        <ele>1432</ele>
        <time>2019-05-04T18:36:01Z</time>
      </trkpt>
      <trkpt lat="46.68476" lon="6.35326">
        <ele>1432</ele>
        <time>2019-05-04T18:36:02Z</time>
      </trkpt>
      <trkpt lat="46.68476" lon="6.35324">
        <ele>1432</ele>
        <time>2019-05-04T18:36:03Z</time>
      </trkpt>
      <trkpt lat="46.68475" lon="6.3532">
        <ele>1433</ele>
        <time>2019-05-04T18:36:05Z</time>
      </trkpt>
      <trkpt lat="46.68473" lon="6.35316">
        <ele>1434</ele>
        <time>2019-05-04T18:36:08Z</time>
      </trkpt>
      <trkpt lat="46.68475" lon="6.35312">
        <ele>1434</ele>
        <time>2019-05-04T18:36:10Z</time>
      </trkpt>
      <trkpt lat="46.68476" lon="6.35308">
        <ele>1434</ele>
        <time>2019-05-04T18:36:12Z</time>
      </trkpt>
      <trkpt lat="46.68477" lon="6.35305">
        <ele>1435</ele>
        <time>2019-05-04T18:36:14Z</time>
      </trkpt>
      <trkpt lat="46.68477" lon="6.35304">
        <ele>1435</ele>
        <time>2019-05-04T18:36:15Z</time>
      </trkpt>
      <trkpt lat="46.68477" lon="6.35303">
        <ele>1435</ele>
        <time>2019-05-04T18:36:15Z</time>
      </trkpt>
      <trkpt lat="46.68477" lon="6.35302">
        <ele>1435</ele>
        <time>2019-05-04T18:36:16Z</time>
      </trkpt>
      <trkpt lat="46.68475" lon="6.35299">
        <ele>1436</ele>
        <time>2019-05-04T18:36:18Z</time>
      </trkpt>
      <trkpt lat="46.68476" lon="6.35294">
        <ele>1436</ele>
        <time>2019-05-04T18:36:20Z</time>
      </trkpt>
      <trkpt lat="46.68476" lon="6.35292">
        <ele>1437</ele>
        <time>2019-05-04T18:36:21Z</time>
      </trkpt>
      <trkpt lat="46.68476" lon="6.35287">
        <ele>1437</ele>
        <time>2019-05-04T18:36:24Z</time>
      </trkpt>
      <trkpt lat="46.68476" lon="6.35285">
        <ele>1437</ele>
        <time>2019-05-04T18:36:25Z</time>
      </trkpt>
      <trkpt lat="46.68477" lon="6.35282">
        <ele>1437</ele>
        <time>2019-05-04T18:36:26Z</time>
      </trkpt>
      <trkpt lat="46.68478" lon="6.35279">
        <ele>1438</ele>
        <time>2019-05-04T18:36:28Z</time>
      </trkpt>
      <trkpt lat="46.68477" lon="6.35274">
        <ele>1438</ele>
        <time>2019-05-04T18:36:31Z</time>
      </trkpt>
      <trkpt lat="46.68475" lon="6.3527">
        <ele>1439</ele>
        <time>2019-05-04T18:36:33Z</time>
      </trkpt>
      <trkpt lat="46.68476" lon="6.35267">
        <ele>1438</ele>
        <time>2019-05-04T18:36:35Z</time>
      </trkpt>
      <trkpt lat="46.68477" lon="6.35264">
        <ele>1438</ele>
        <time>2019-05-04T18:36:37Z</time>
      </trkpt>
      <trkpt lat="46.68479" lon="6.35262">
        <ele>1437</ele>
        <time>2019-05-04T18:36:38Z</time>
      </trkpt>
      <trkpt lat="46.68478" lon="6.3526">
        <ele>1438</ele>
        <time>2019-05-04T18:36:40Z</time>
      </trkpt>
      <trkpt lat="46.68477" lon="6.35258">
        <ele>1437</ele>
        <time>2019-05-04T18:36:41Z</time>
      </trkpt>
      <trkpt lat="46.68478" lon="6.35257">
        <ele>1437</ele>
        <time>2019-05-04T18:36:42Z</time>
      </trkpt>
      <trkpt lat="46.68478" lon="6.3525">
        <ele>1437</ele>
        <time>2019-05-04T18:36:45Z</time>
      </trkpt>
      <trkpt lat="46.68476" lon="6.35245">
        <ele>1437</ele>
        <time>2019-05-04T18:36:48Z</time>
      </trkpt>
      <trkpt lat="46.68477" lon="6.35241">
        <ele>1437</ele>
        <time>2019-05-04T18:36:50Z</time>
      </trkpt>
      <trkpt lat="46.68478" lon="6.35236">
        <ele>1435</ele>
        <time>2019-05-04T18:36:53Z</time>
      </trkpt>
      <trkpt lat="46.68478" lon="6.35232">
        <ele>1435</ele>
        <time>2019-05-04T18:36:55Z</time>
      </trkpt>
      <trkpt lat="46.68476" lon="6.35227">
        <ele>1436</ele>
        <time>2019-05-04T18:36:58Z</time>
      </trkpt>
      <trkpt lat="46.68475" lon="6.35226">
        <ele>1437</ele>
        <time>2019-05-04T18:36:59Z</time>
      </trkpt>
      <trkpt lat="46.68471" lon="6.3522">
        <ele>1439</ele>
        <time>2019-05-04T18:37:03Z</time>
      </trkpt>
      <trkpt lat="46.68471" lon="6.35217">
        <ele>1439</ele>
        <time>2019-05-04T18:37:04Z</time>
      </trkpt>
      <trkpt lat="46.68469" lon="6.35211">
        <ele>1440</ele>
        <time>2019-05-04T18:37:08Z</time>
      </trkpt>
      <trkpt lat="46.68468" lon="6.35206">
        <ele>1442</ele>
        <time>2019-05-04T18:37:11Z</time>
      </trkpt>
      <trkpt lat="46.68466" lon="6.35201">
        <ele>1443</ele>
        <time>2019-05-04T18:37:14Z</time>
      </trkpt>
      <trkpt lat="46.68463" lon="6.35196">
        <ele>1446</ele>
        <time>2019-05-04T18:37:18Z</time>
      </trkpt>
      <trkpt lat="46.68462" lon="6.35195">
        <ele>1447</ele>
        <time>2019-05-04T18:37:19Z</time>
      </trkpt>
      <trkpt lat="46.68461" lon="6.35193">
        <ele>1448</ele>
        <time>2019-05-04T18:37:20Z</time>
      </trkpt>
      <trkpt lat="46.6846" lon="6.35191">
        <ele>1449</ele>
        <time>2019-05-04T18:37:21Z</time>
      </trkpt>
      <trkpt lat="46.68459" lon="6.3518">
        <ele>1448</ele>
        <time>2019-05-04T18:37:27Z</time>
      </trkpt>
      <trkpt lat="46.68457" lon="6.35171">
        <ele>1447</ele>
        <time>2019-05-04T18:37:32Z</time>
      </trkpt>
      <trkpt lat="46.68454" lon="6.35157">
        <ele>1448</ele>
        <time>2019-05-04T18:37:39Z</time>
      </trkpt>
      <trkpt lat="46.68454" lon="6.35156">
        <ele>1448</ele>
        <time>2019-05-04T18:37:40Z</time>
      </trkpt>
      <trkpt lat="46.68452" lon="6.35147">
        <ele>1449</ele>
        <time>2019-05-04T18:37:44Z</time>
      </trkpt>
      <trkpt lat="46.68447" lon="6.35135">
        <ele>1454</ele>
        <time>2019-05-04T18:37:52Z</time>
      </trkpt>
      <trkpt lat="46.68444" lon="6.35129">
        <ele>1455</ele>
        <time>2019-05-04T18:37:56Z</time>
      </trkpt>
      <trkpt lat="46.68439" lon="6.35128">
        <ele>1455</ele>
        <time>2019-05-04T18:37:59Z</time>
      </trkpt>
      <trkpt lat="46.68434" lon="6.35129">
        <ele>1456</ele>
        <time>2019-05-04T18:38:03Z</time>
      </trkpt>
      <trkpt lat="46.68431" lon="6.35129">
        <ele>1456</ele>
        <time>2019-05-04T18:38:05Z</time>
      </trkpt>
      <trkpt lat="46.68429" lon="6.35131">
        <ele>1456</ele>
        <time>2019-05-04T18:38:07Z</time>
      </trkpt>
      <trkpt lat="46.68426" lon="6.35132">
        <ele>1457</ele>
        <time>2019-05-04T18:38:09Z</time>
      </trkpt>
      <trkpt lat="46.68425" lon="6.35133">
        <ele>1457</ele>
        <time>2019-05-04T18:38:10Z</time>
      </trkpt>
      <trkpt lat="46.6842" lon="6.35134">
        <ele>1457</ele>
        <time>2019-05-04T18:38:13Z</time>
      </trkpt>
      <trkpt lat="46.68415" lon="6.35134">
        <ele>1457</ele>
        <time>2019-05-04T18:38:17Z</time>
      </trkpt>
      <trkpt lat="46.68411" lon="6.35135">
        <ele>1458</ele>
        <time>2019-05-04T18:38:20Z</time>
      </trkpt>
      <trkpt lat="46.6841" lon="6.35135">
        <ele>1458</ele>
        <time>2019-05-04T18:38:21Z</time>
      </trkpt>
      <trkpt lat="46.68409" lon="6.35134">
        <ele>1458</ele>
        <time>2019-05-04T18:38:22Z</time>
      </trkpt>
      <trkpt lat="46.684" lon="6.35124">
        <ele>1458</ele>
        <time>2019-05-04T18:38:30Z</time>
      </trkpt>
      <trkpt lat="46.68398" lon="6.35125">
        <ele>1458</ele>
        <time>2019-05-04T18:38:32Z</time>
      </trkpt>
      <trkpt lat="46.68396" lon="6.35126">
        <ele>1458</ele>
        <time>2019-05-04T18:38:33Z</time>
      </trkpt>
      <trkpt lat="46.6839" lon="6.35132">
        <ele>1459</ele>
        <time>2019-05-04T18:38:38Z</time>
      </trkpt>
      <trkpt lat="46.68389" lon="6.35123">
        <ele>1459</ele>
        <time>2019-05-04T18:38:42Z</time>
      </trkpt>
      <trkpt lat="46.68389" lon="6.35122">
        <ele>1459</ele>
        <time>2019-05-04T18:38:43Z</time>
      </trkpt>
      <trkpt lat="46.68389" lon="6.35115">
        <ele>1459</ele>
        <time>2019-05-04T18:38:46Z</time>
      </trkpt>
      <trkpt lat="46.68388" lon="6.35112">
        <ele>1459</ele>
        <time>2019-05-04T18:38:48Z</time>
      </trkpt>
      <trkpt lat="46.68388" lon="6.35111">
        <ele>1459</ele>
        <time>2019-05-04T18:38:48Z</time>
      </trkpt>
      <trkpt lat="46.68388" lon="6.35111">
        <ele>1459</ele>
        <time>2019-05-04T18:38:49Z</time>
      </trkpt>
      <trkpt lat="46.68387" lon="6.35106">
        <ele>1459</ele>
        <time>2019-05-04T18:38:52Z</time>
      </trkpt>
      <trkpt lat="46.68386" lon="6.35105">
        <ele>1459</ele>
        <time>2019-05-04T18:38:52Z</time>
      </trkpt>
      <trkpt lat="46.68383" lon="6.35103">
        <ele>1459</ele>
        <time>2019-05-04T18:38:54Z</time>
      </trkpt>
      <trkpt lat="46.68379" lon="6.35102">
        <ele>1459</ele>
        <time>2019-05-04T18:38:58Z</time>
      </trkpt>
      <trkpt lat="46.68371" lon="6.35099">
        <ele>1460</ele>
        <time>2019-05-04T18:39:04Z</time>
      </trkpt>
      <trkpt lat="46.68368" lon="6.35099">
        <ele>1460</ele>
        <time>2019-05-04T18:39:05Z</time>
      </trkpt>
      <trkpt lat="46.68368" lon="6.35098">
        <ele>1460</ele>
        <time>2019-05-04T18:39:06Z</time>
      </trkpt>
      <trkpt lat="46.68365" lon="6.35097">
        <ele>1460</ele>
        <time>2019-05-04T18:39:08Z</time>
      </trkpt>
      <trkpt lat="46.68364" lon="6.35097">
        <ele>1461</ele>
        <time>2019-05-04T18:39:09Z</time>
      </trkpt>
      <trkpt lat="46.68351" lon="6.3509">
        <ele>1459</ele>
        <time>2019-05-04T18:39:19Z</time>
      </trkpt>
      <trkpt lat="46.6835" lon="6.35088">
        <ele>1458</ele>
        <time>2019-05-04T18:39:21Z</time>
      </trkpt>
      <trkpt lat="46.68347" lon="6.35085">
        <ele>1457</ele>
        <time>2019-05-04T18:39:23Z</time>
      </trkpt>
      <trkpt lat="46.68347" lon="6.35083">
        <ele>1457</ele>
        <time>2019-05-04T18:39:24Z</time>
      </trkpt>
      <trkpt lat="46.68339" lon="6.35079">
        <ele>1455</ele>
        <time>2019-05-04T18:39:30Z</time>
      </trkpt>
      <trkpt lat="46.68336" lon="6.35077">
        <ele>1455</ele>
        <time>2019-05-04T18:39:32Z</time>
      </trkpt>
      <trkpt lat="46.68334" lon="6.35078">
        <ele>1454</ele>
        <time>2019-05-04T18:39:34Z</time>
      </trkpt>
      <trkpt lat="46.68327" lon="6.35082">
        <ele>1453</ele>
        <time>2019-05-04T18:39:39Z</time>
      </trkpt>
      <trkpt lat="46.68323" lon="6.35083">
        <ele>1453</ele>
        <time>2019-05-04T18:39:42Z</time>
      </trkpt>
      <trkpt lat="46.68319" lon="6.35084">
        <ele>1452</ele>
        <time>2019-05-04T18:39:45Z</time>
      </trkpt>
      <trkpt lat="46.68313" lon="6.35084">
        <ele>1451</ele>
        <time>2019-05-04T18:39:49Z</time>
      </trkpt>
      <trkpt lat="46.68307" lon="6.35082">
        <ele>1450</ele>
        <time>2019-05-04T18:39:54Z</time>
      </trkpt>
      <trkpt lat="46.68303" lon="6.35081">
        <ele>1449</ele>
        <time>2019-05-04T18:39:57Z</time>
      </trkpt>
      <trkpt lat="46.68302" lon="6.35081">
        <ele>1449</ele>
        <time>2019-05-04T18:39:58Z</time>
      </trkpt>
      <trkpt lat="46.68301" lon="6.35083">
        <ele>1449</ele>
        <time>2019-05-04T18:39:59Z</time>
      </trkpt>
      <trkpt lat="46.68296" lon="6.35082">
        <ele>1448</ele>
        <time>2019-05-04T18:40:03Z</time>
      </trkpt>
      <trkpt lat="46.68292" lon="6.35081">
        <ele>1447</ele>
        <time>2019-05-04T18:40:05Z</time>
      </trkpt>
      <trkpt lat="46.6829" lon="6.35081">
        <ele>1447</ele>
        <time>2019-05-04T18:40:07Z</time>
      </trkpt>
      <trkpt lat="46.68288" lon="6.3508">
        <ele>1446</ele>
        <time>2019-05-04T18:40:09Z</time>
      </trkpt>
      <trkpt lat="46.68282" lon="6.35079">
        <ele>1445</ele>
        <time>2019-05-04T18:40:13Z</time>
      </trkpt>
      <trkpt lat="46.68281" lon="6.35078">
        <ele>1445</ele>
        <time>2019-05-04T18:40:14Z</time>
      </trkpt>
      <trkpt lat="46.68268" lon="6.35077">
        <ele>1443</ele>
        <time>2019-05-04T18:40:24Z</time>
      </trkpt>
      <trkpt lat="46.68266" lon="6.35076">
        <ele>1443</ele>
        <time>2019-05-04T18:40:25Z</time>
      </trkpt>
      <trkpt lat="46.6826" lon="6.35076">
        <ele>1442</ele>
        <time>2019-05-04T18:40:29Z</time>
      </trkpt>
      <trkpt lat="46.68247" lon="6.3507">
        <ele>1440</ele>
        <time>2019-05-04T18:40:39Z</time>
      </trkpt>
      <trkpt lat="46.6824" lon="6.35066">
        <ele>1439</ele>
        <time>2019-05-04T18:40:45Z</time>
      </trkpt>
      <trkpt lat="46.6823" lon="6.3506">
        <ele>1438</ele>
        <time>2019-05-04T18:40:53Z</time>
      </trkpt>
      <trkpt lat="46.68224" lon="6.35058">
        <ele>1437</ele>
        <time>2019-05-04T18:40:57Z</time>
      </trkpt>
      <trkpt lat="46.68219" lon="6.35057">
        <ele>1436</ele>
        <time>2019-05-04T18:41:01Z</time>
      </trkpt>
      <trkpt lat="46.6821" lon="6.35057">
        <ele>1435</ele>
        <time>2019-05-04T18:41:07Z</time>
      </trkpt>
      <trkpt lat="46.68206" lon="6.35058">
        <ele>1434</ele>
        <time>2019-05-04T18:41:11Z</time>
      </trkpt>
      <trkpt lat="46.68202" lon="6.35059">
        <ele>1434</ele>
        <time>2019-05-04T18:41:14Z</time>
      </trkpt>
      <trkpt lat="46.6819" lon="6.35065">
        <ele>1432</ele>
        <time>2019-05-04T18:41:23Z</time>
      </trkpt>
      <trkpt lat="46.68181" lon="6.35068">
        <ele>1430</ele>
        <time>2019-05-04T18:41:29Z</time>
      </trkpt>
      <trkpt lat="46.68176" lon="6.35069">
        <ele>1429</ele>
        <time>2019-05-04T18:41:33Z</time>
      </trkpt>
      <trkpt lat="46.68171" lon="6.3507">
        <ele>1429</ele>
        <time>2019-05-04T18:41:36Z</time>
      </trkpt>
      <trkpt lat="46.68166" lon="6.3507">
        <ele>1428</ele>
        <time>2019-05-04T18:41:40Z</time>
      </trkpt>
      <trkpt lat="46.68162" lon="6.3507">
        <ele>1427</ele>
        <time>2019-05-04T18:41:43Z</time>
      </trkpt>
      <trkpt lat="46.68157" lon="6.3507">
        <ele>1426</ele>
        <time>2019-05-04T18:41:47Z</time>
      </trkpt>
      <trkpt lat="46.6815" lon="6.35068">
        <ele>1425</ele>
        <time>2019-05-04T18:41:52Z</time>
      </trkpt>
      <trkpt lat="46.68144" lon="6.35067">
        <ele>1425</ele>
        <time>2019-05-04T18:41:56Z</time>
      </trkpt>
      <trkpt lat="46.68136" lon="6.35065">
        <ele>1423</ele>
        <time>2019-05-04T18:42:02Z</time>
      </trkpt>
      <trkpt lat="46.68132" lon="6.35064">
        <ele>1423</ele>
        <time>2019-05-04T18:42:05Z</time>
      </trkpt>
      <trkpt lat="46.68128" lon="6.35063">
        <ele>1422</ele>
        <time>2019-05-04T18:42:08Z</time>
      </trkpt>
      <trkpt lat="46.68125" lon="6.3506">
        <ele>1422</ele>
        <time>2019-05-04T18:42:11Z</time>
      </trkpt>
      <trkpt lat="46.68116" lon="6.35056">
        <ele>1420</ele>
        <time>2019-05-04T18:42:18Z</time>
      </trkpt>
      <trkpt lat="46.6811" lon="6.35053">
        <ele>1420</ele>
        <time>2019-05-04T18:42:22Z</time>
      </trkpt>
      <trkpt lat="46.68093" lon="6.35054">
        <ele>1418</ele>
        <time>2019-05-04T18:42:35Z</time>
      </trkpt>
      <trkpt lat="46.68086" lon="6.35055">
        <ele>1417</ele>
        <time>2019-05-04T18:42:40Z</time>
      </trkpt>
      <trkpt lat="46.68083" lon="6.35054">
        <ele>1417</ele>
        <time>2019-05-04T18:42:42Z</time>
      </trkpt>
      <trkpt lat="46.68074" lon="6.3505">
        <ele>1416</ele>
        <time>2019-05-04T18:42:49Z</time>
      </trkpt>
      <trkpt lat="46.68068" lon="6.35048">
        <ele>1416</ele>
        <time>2019-05-04T18:42:53Z</time>
      </trkpt>
      <trkpt lat="46.68061" lon="6.35048">
        <ele>1415</ele>
        <time>2019-05-04T18:42:58Z</time>
      </trkpt>
      <trkpt lat="46.68055" lon="6.35049">
        <ele>1414</ele>
        <time>2019-05-04T18:43:02Z</time>
      </trkpt>
      <trkpt lat="46.68037" lon="6.35047">
        <ele>1413</ele>
        <time>2019-05-04T18:43:16Z</time>
      </trkpt>
      <trkpt lat="46.68029" lon="6.3505">
        <ele>1412</ele>
        <time>2019-05-04T18:43:22Z</time>
      </trkpt>
      <trkpt lat="46.68016" lon="6.35049">
        <ele>1411</ele>
        <time>2019-05-04T18:43:31Z</time>
      </trkpt>
      <trkpt lat="46.68011" lon="6.35047">
        <ele>1410</ele>
        <time>2019-05-04T18:43:35Z</time>
      </trkpt>
      <trkpt lat="46.68004" lon="6.35044">
        <ele>1409</ele>
        <time>2019-05-04T18:43:40Z</time>
      </trkpt>
      <trkpt lat="46.67987" lon="6.35036">
        <ele>1408</ele>
        <time>2019-05-04T18:43:53Z</time>
      </trkpt>
      <trkpt lat="46.67985" lon="6.35036">
        <ele>1408</ele>
        <time>2019-05-04T18:43:54Z</time>
      </trkpt>
      <trkpt lat="46.67979" lon="6.35034">
        <ele>1407</ele>
        <time>2019-05-04T18:43:59Z</time>
      </trkpt>
      <trkpt lat="46.67976" lon="6.35029">
        <ele>1407</ele>
        <time>2019-05-04T18:44:03Z</time>
      </trkpt>
      <trkpt lat="46.67976" lon="6.35026">
        <ele>1407</ele>
        <time>2019-05-04T18:44:04Z</time>
      </trkpt>
      <trkpt lat="46.67975" lon="6.35021">
        <ele>1407</ele>
        <time>2019-05-04T18:44:07Z</time>
      </trkpt>
      <trkpt lat="46.67974" lon="6.35014">
        <ele>1406</ele>
        <time>2019-05-04T18:44:11Z</time>
      </trkpt>
      <trkpt lat="46.67973" lon="6.35012">
        <ele>1405</ele>
        <time>2019-05-04T18:44:12Z</time>
      </trkpt>
      <trkpt lat="46.6797" lon="6.3501">
        <ele>1405</ele>
        <time>2019-05-04T18:44:14Z</time>
      </trkpt>
      <trkpt lat="46.67963" lon="6.35006">
        <ele>1403</ele>
        <time>2019-05-04T18:44:20Z</time>
      </trkpt>
      <trkpt lat="46.67957" lon="6.35006">
        <ele>1403</ele>
        <time>2019-05-04T18:44:24Z</time>
      </trkpt>
      <trkpt lat="46.67955" lon="6.35004">
        <ele>1402</ele>
        <time>2019-05-04T18:44:26Z</time>
      </trkpt>
      <trkpt lat="46.67955" lon="6.35003">
        <ele>1402</ele>
        <time>2019-05-04T18:44:27Z</time>
      </trkpt>
      <trkpt lat="46.67956" lon="6.34995">
        <ele>1401</ele>
        <time>2019-05-04T18:44:31Z</time>
      </trkpt>
      <trkpt lat="46.67957" lon="6.34993">
        <ele>1401</ele>
        <time>2019-05-04T18:44:32Z</time>
      </trkpt>
      <trkpt lat="46.67957" lon="6.34992">
        <ele>1401</ele>
        <time>2019-05-04T18:44:32Z</time>
      </trkpt>
      <trkpt lat="46.67956" lon="6.34983">
        <ele>1399</ele>
        <time>2019-05-04T18:44:37Z</time>
      </trkpt>
      <trkpt lat="46.67955" lon="6.3498">
        <ele>1399</ele>
        <time>2019-05-04T18:44:38Z</time>
      </trkpt>
      <trkpt lat="46.67958" lon="6.34972">
        <ele>1398</ele>
        <time>2019-05-04T18:44:43Z</time>
      </trkpt>
      <trkpt lat="46.67963" lon="6.34965">
        <ele>1398</ele>
        <time>2019-05-04T18:44:48Z</time>
      </trkpt>
      <trkpt lat="46.67963" lon="6.34963">
        <ele>1397</ele>
        <time>2019-05-04T18:44:49Z</time>
      </trkpt>
      <trkpt lat="46.67965" lon="6.34958">
        <ele>1397</ele>
        <time>2019-05-04T18:44:52Z</time>
      </trkpt>
      <trkpt lat="46.67964" lon="6.34953">
        <ele>1396</ele>
        <time>2019-05-04T18:44:54Z</time>
      </trkpt>
      <trkpt lat="46.67964" lon="6.3495">
        <ele>1396</ele>
        <time>2019-05-04T18:44:56Z</time>
      </trkpt>
      <trkpt lat="46.67963" lon="6.34946">
        <ele>1395</ele>
        <time>2019-05-04T18:44:58Z</time>
      </trkpt>
      <trkpt lat="46.67962" lon="6.34943">
        <ele>1394</ele>
        <time>2019-05-04T18:45:00Z</time>
      </trkpt>
      <trkpt lat="46.67961" lon="6.34944">
        <ele>1394</ele>
        <time>2019-05-04T18:45:01Z</time>
      </trkpt>
      <trkpt lat="46.67959" lon="6.34942">
        <ele>1394</ele>
        <time>2019-05-04T18:45:02Z</time>
      </trkpt>
      <trkpt lat="46.67958" lon="6.3494">
        <ele>1393</ele>
        <time>2019-05-04T18:45:04Z</time>
      </trkpt>
      <trkpt lat="46.67958" lon="6.34937">
        <ele>1393</ele>
        <time>2019-05-04T18:45:05Z</time>
      </trkpt>
      <trkpt lat="46.67957" lon="6.34935">
        <ele>1392</ele>
        <time>2019-05-04T18:45:07Z</time>
      </trkpt>
      <trkpt lat="46.67955" lon="6.34931">
        <ele>1391</ele>
        <time>2019-05-04T18:45:09Z</time>
      </trkpt>
      <trkpt lat="46.67952" lon="6.34927">
        <ele>1390</ele>
        <time>2019-05-04T18:45:12Z</time>
      </trkpt>
      <trkpt lat="46.67946" lon="6.34923">
        <ele>1388</ele>
        <time>2019-05-04T18:45:17Z</time>
      </trkpt>
      <trkpt lat="46.67945" lon="6.34918">
        <ele>1387</ele>
        <time>2019-05-04T18:45:19Z</time>
      </trkpt>
      <trkpt lat="46.67943" lon="6.34912">
        <ele>1386</ele>
        <time>2019-05-04T18:45:23Z</time>
      </trkpt>
      <trkpt lat="46.67941" lon="6.34908">
        <ele>1385</ele>
        <time>2019-05-04T18:45:25Z</time>
      </trkpt>
      <trkpt lat="46.6794" lon="6.34904">
        <ele>1384</ele>
        <time>2019-05-04T18:45:27Z</time>
      </trkpt>
      <trkpt lat="46.67939" lon="6.34902">
        <ele>1384</ele>
        <time>2019-05-04T18:45:29Z</time>
      </trkpt>
      <trkpt lat="46.67938" lon="6.34901">
        <ele>1384</ele>
        <time>2019-05-04T18:45:30Z</time>
      </trkpt>
      <trkpt lat="46.67933" lon="6.34896">
        <ele>1382</ele>
        <time>2019-05-04T18:45:35Z</time>
      </trkpt>
      <trkpt lat="46.6793" lon="6.34892">
        <ele>1382</ele>
        <time>2019-05-04T18:45:37Z</time>
      </trkpt>
      <trkpt lat="46.67924" lon="6.34884">
        <ele>1380</ele>
        <time>2019-05-04T18:45:43Z</time>
      </trkpt>
      <trkpt lat="46.6792" lon="6.34878">
        <ele>1378</ele>
        <time>2019-05-04T18:45:48Z</time>
      </trkpt>
      <trkpt lat="46.67918" lon="6.34875">
        <ele>1378</ele>
        <time>2019-05-04T18:45:50Z</time>
      </trkpt>
      <trkpt lat="46.67917" lon="6.34874">
        <ele>1377</ele>
        <time>2019-05-04T18:45:51Z</time>
      </trkpt>
      <trkpt lat="46.67917" lon="6.34874">
        <ele>1377</ele>
        <time>2019-05-04T18:45:51Z</time>
      </trkpt>
      <trkpt lat="46.67916" lon="6.34871">
        <ele>1377</ele>
        <time>2019-05-04T18:45:52Z</time>
      </trkpt>
      <trkpt lat="46.67912" lon="6.34866">
        <ele>1375</ele>
        <time>2019-05-04T18:45:56Z</time>
      </trkpt>
      <trkpt lat="46.6791" lon="6.34861">
        <ele>1374</ele>
        <time>2019-05-04T18:46:00Z</time>
      </trkpt>
      <trkpt lat="46.67909" lon="6.34859">
        <ele>1374</ele>
        <time>2019-05-04T18:46:01Z</time>
      </trkpt>
      <trkpt lat="46.67907" lon="6.34856">
        <ele>1373</ele>
        <time>2019-05-04T18:46:03Z</time>
      </trkpt>
      <trkpt lat="46.67901" lon="6.34854">
        <ele>1372</ele>
        <time>2019-05-04T18:46:07Z</time>
      </trkpt>
      <trkpt lat="46.67898" lon="6.34855">
        <ele>1373</ele>
        <time>2019-05-04T18:46:09Z</time>
      </trkpt>
      <trkpt lat="46.67898" lon="6.34855">
        <ele>1373</ele>
        <time>2019-05-04T18:46:10Z</time>
      </trkpt>
      <trkpt lat="46.67895" lon="6.34855">
        <ele>1372</ele>
        <time>2019-05-04T18:46:12Z</time>
      </trkpt>
      <trkpt lat="46.67894" lon="6.34854">
        <ele>1372</ele>
        <time>2019-05-04T18:46:13Z</time>
      </trkpt>
      <trkpt lat="46.67891" lon="6.34852">
        <ele>1371</ele>
        <time>2019-05-04T18:46:15Z</time>
      </trkpt>
      <trkpt lat="46.67889" lon="6.34851">
        <ele>1371</ele>
        <time>2019-05-04T18:46:17Z</time>
      </trkpt>
      <trkpt lat="46.67884" lon="6.34849">
        <ele>1370</ele>
        <time>2019-05-04T18:46:21Z</time>
      </trkpt>
      <trkpt lat="46.67881" lon="6.34845">
        <ele>1369</ele>
        <time>2019-05-04T18:46:24Z</time>
      </trkpt>
      <trkpt lat="46.6788" lon="6.34844">
        <ele>1369</ele>
        <time>2019-05-04T18:46:24Z</time>
      </trkpt>
      <trkpt lat="46.6788" lon="6.34842">
        <ele>1369</ele>
        <time>2019-05-04T18:46:25Z</time>
      </trkpt>
      <trkpt lat="46.67879" lon="6.34839">
        <ele>1368</ele>
        <time>2019-05-04T18:46:27Z</time>
      </trkpt>
      <trkpt lat="46.67878" lon="6.34836">
        <ele>1367</ele>
        <time>2019-05-04T18:46:29Z</time>
      </trkpt>
      <trkpt lat="46.67875" lon="6.34831">
        <ele>1366</ele>
        <time>2019-05-04T18:46:32Z</time>
      </trkpt>
      <trkpt lat="46.6787" lon="6.34826">
        <ele>1364</ele>
        <time>2019-05-04T18:46:37Z</time>
      </trkpt>
      <trkpt lat="46.67867" lon="6.34824">
        <ele>1364</ele>
        <time>2019-05-04T18:46:39Z</time>
      </trkpt>
      <trkpt lat="46.67864" lon="6.34821">
        <ele>1363</ele>
        <time>2019-05-04T18:46:42Z</time>
      </trkpt>
      <trkpt lat="46.67862" lon="6.34819">
        <ele>1362</ele>
        <time>2019-05-04T18:46:44Z</time>
      </trkpt>
      <trkpt lat="46.67859" lon="6.34815">
        <ele>1361</ele>
        <time>2019-05-04T18:46:47Z</time>
      </trkpt>
      <trkpt lat="46.67857" lon="6.34812">
        <ele>1360</ele>
        <time>2019-05-04T18:46:49Z</time>
      </trkpt>
      <trkpt lat="46.67853" lon="6.34807">
        <ele>1359</ele>
        <time>2019-05-04T18:46:52Z</time>
      </trkpt>
      <trkpt lat="46.67851" lon="6.34802">
        <ele>1357</ele>
        <time>2019-05-04T18:46:56Z</time>
      </trkpt>
      <trkpt lat="46.67848" lon="6.34786">
        <ele>1354</ele>
        <time>2019-05-04T18:47:05Z</time>
      </trkpt>
      <trkpt lat="46.67847" lon="6.34769">
        <ele>1350</ele>
        <time>2019-05-04T18:47:13Z</time>
      </trkpt>
      <trkpt lat="46.67842" lon="6.34763">
        <ele>1349</ele>
        <time>2019-05-04T18:47:18Z</time>
      </trkpt>
      <trkpt lat="46.67837" lon="6.34756">
        <ele>1348</ele>
        <time>2019-05-04T18:47:23Z</time>
      </trkpt>
      <trkpt lat="46.6783" lon="6.3475">
        <ele>1346</ele>
        <time>2019-05-04T18:47:29Z</time>
      </trkpt>
      <trkpt lat="46.67813" lon="6.34745">
        <ele>1344</ele>
        <time>2019-05-04T18:47:42Z</time>
      </trkpt>
      <trkpt lat="46.67802" lon="6.34749">
        <ele>1344</ele>
        <time>2019-05-04T18:47:50Z</time>
      </trkpt>
      <trkpt lat="46.67798" lon="6.34751">
        <ele>1344</ele>
        <time>2019-05-04T18:47:53Z</time>
      </trkpt>
      <trkpt lat="46.67796" lon="6.34753">
        <ele>1344</ele>
        <time>2019-05-04T18:47:55Z</time>
      </trkpt>
      <trkpt lat="46.67782" lon="6.34759">
        <ele>1344</ele>
        <time>2019-05-04T18:48:05Z</time>
      </trkpt>
      <trkpt lat="46.67775" lon="6.34761">
        <ele>1343</ele>
        <time>2019-05-04T18:48:10Z</time>
      </trkpt>
      <trkpt lat="46.67756" lon="6.34761">
        <ele>1341</ele>
        <time>2019-05-04T18:48:24Z</time>
      </trkpt>
      <trkpt lat="46.67753" lon="6.3476">
        <ele>1341</ele>
        <time>2019-05-04T18:48:26Z</time>
      </trkpt>
      <trkpt lat="46.67755" lon="6.34758">
        <ele>1341</ele>
        <time>2019-05-04T18:48:28Z</time>
      </trkpt>
      <trkpt lat="46.67757" lon="6.34758">
        <ele>1341</ele>
        <time>2019-05-04T18:48:29Z</time>
      </trkpt>
      <trkpt lat="46.67763" lon="6.34756">
        <ele>1341</ele>
        <time>2019-05-04T18:48:34Z</time>
      </trkpt>
      <trkpt lat="46.67766" lon="6.34755">
        <ele>1341</ele>
        <time>2019-05-04T18:48:36Z</time>
      </trkpt>
      <trkpt lat="46.67768" lon="6.34754">
        <ele>1342</ele>
        <time>2019-05-04T18:48:38Z</time>
      </trkpt>
      <trkpt lat="46.67775" lon="6.34754">
        <ele>1342</ele>
        <time>2019-05-04T18:48:42Z</time>
      </trkpt>
      <trkpt lat="46.67784" lon="6.3475">
        <ele>1343</ele>
        <time>2019-05-04T18:48:49Z</time>
      </trkpt>
      <trkpt lat="46.67773" lon="6.34733">
        <ele>1339</ele>
        <time>2019-05-04T18:49:01Z</time>
      </trkpt>
      <trkpt lat="46.67768" lon="6.34726">
        <ele>1338</ele>
        <time>2019-05-04T18:49:06Z</time>
      </trkpt>
      <trkpt lat="46.67765" lon="6.34721">
        <ele>1337</ele>
        <time>2019-05-04T18:49:09Z</time>
      </trkpt>
      <trkpt lat="46.6776" lon="6.34714">
        <ele>1335</ele>
        <time>2019-05-04T18:49:15Z</time>
      </trkpt>
      <trkpt lat="46.67757" lon="6.34706">
        <ele>1333</ele>
        <time>2019-05-04T18:49:19Z</time>
      </trkpt>
      <trkpt lat="46.67755" lon="6.34702">
        <ele>1333</ele>
        <time>2019-05-04T18:49:22Z</time>
      </trkpt>
      <trkpt lat="46.67752" lon="6.34695">
        <ele>1331</ele>
        <time>2019-05-04T18:49:26Z</time>
      </trkpt>
      <trkpt lat="46.67752" lon="6.34694">
        <ele>1331</ele>
        <time>2019-05-04T18:49:27Z</time>
      </trkpt>
      <trkpt lat="46.6775" lon="6.34691">
        <ele>1330</ele>
        <time>2019-05-04T18:49:29Z</time>
      </trkpt>
      <trkpt lat="46.67748" lon="6.34688">
        <ele>1330</ele>
        <time>2019-05-04T18:49:31Z</time>
      </trkpt>
      <trkpt lat="46.67739" lon="6.3468">
        <ele>1327</ele>
        <time>2019-05-04T18:49:39Z</time>
      </trkpt>
      <trkpt lat="46.67737" lon="6.34676">
        <ele>1326</ele>
        <time>2019-05-04T18:49:41Z</time>
      </trkpt>
      <trkpt lat="46.67736" lon="6.34672">
        <ele>1325</ele>
        <time>2019-05-04T18:49:43Z</time>
      </trkpt>
      <trkpt lat="46.67735" lon="6.34664">
        <ele>1323</ele>
        <time>2019-05-04T18:49:47Z</time>
      </trkpt>
      <trkpt lat="46.67733" lon="6.34662">
        <ele>1322</ele>
        <time>2019-05-04T18:49:50Z</time>
      </trkpt>
      <trkpt lat="46.6773" lon="6.34661">
        <ele>1322</ele>
        <time>2019-05-04T18:49:51Z</time>
      </trkpt>
      <trkpt lat="46.67725" lon="6.34658">
        <ele>1321</ele>
        <time>2019-05-04T18:49:56Z</time>
      </trkpt>
      <trkpt lat="46.6772" lon="6.34656">
        <ele>1319</ele>
        <time>2019-05-04T18:50:00Z</time>
      </trkpt>
      <trkpt lat="46.67717" lon="6.34653">
        <ele>1318</ele>
        <time>2019-05-04T18:50:02Z</time>
      </trkpt>
      <trkpt lat="46.67713" lon="6.34649">
        <ele>1317</ele>
        <time>2019-05-04T18:50:06Z</time>
      </trkpt>
      <trkpt lat="46.67711" lon="6.34644">
        <ele>1316</ele>
        <time>2019-05-04T18:50:09Z</time>
      </trkpt>
      <trkpt lat="46.6771" lon="6.3464">
        <ele>1315</ele>
        <time>2019-05-04T18:50:11Z</time>
      </trkpt>
      <trkpt lat="46.67706" lon="6.34634">
        <ele>1313</ele>
        <time>2019-05-04T18:50:15Z</time>
      </trkpt>
      <trkpt lat="46.67703" lon="6.34628">
        <ele>1311</ele>
        <time>2019-05-04T18:50:19Z</time>
      </trkpt>
      <trkpt lat="46.677" lon="6.34621">
        <ele>1309</ele>
        <time>2019-05-04T18:50:24Z</time>
      </trkpt>
      <trkpt lat="46.67696" lon="6.34615">
        <ele>1307</ele>
        <time>2019-05-04T18:50:28Z</time>
      </trkpt>
      <trkpt lat="46.67694" lon="6.34611">
        <ele>1306</ele>
        <time>2019-05-04T18:50:30Z</time>
      </trkpt>
      <trkpt lat="46.67692" lon="6.34608">
        <ele>1305</ele>
        <time>2019-05-04T18:50:33Z</time>
      </trkpt>
      <trkpt lat="46.67691" lon="6.34604">
        <ele>1304</ele>
        <time>2019-05-04T18:50:35Z</time>
      </trkpt>
      <trkpt lat="46.6769" lon="6.34603">
        <ele>1303</ele>
        <time>2019-05-04T18:50:36Z</time>
      </trkpt>
      <trkpt lat="46.67689" lon="6.34601">
        <ele>1303</ele>
        <time>2019-05-04T18:50:37Z</time>
      </trkpt>
      <trkpt lat="46.67689" lon="6.34601">
        <ele>1303</ele>
        <time>2019-05-04T18:50:37Z</time>
      </trkpt>
      <trkpt lat="46.67687" lon="6.34598">
        <ele>1302</ele>
        <time>2019-05-04T18:50:39Z</time>
      </trkpt>
      <trkpt lat="46.67686" lon="6.34596">
        <ele>1301</ele>
        <time>2019-05-04T18:50:41Z</time>
      </trkpt>
      <trkpt lat="46.67684" lon="6.34592">
        <ele>1300</ele>
        <time>2019-05-04T18:50:43Z</time>
      </trkpt>
      <trkpt lat="46.67684" lon="6.34589">
        <ele>1300</ele>
        <time>2019-05-04T18:50:45Z</time>
      </trkpt>
      <trkpt lat="46.67683" lon="6.34585">
        <ele>1299</ele>
        <time>2019-05-04T18:50:47Z</time>
      </trkpt>
      <trkpt lat="46.67683" lon="6.34579">
        <ele>1298</ele>
        <time>2019-05-04T18:50:50Z</time>
      </trkpt>
      <trkpt lat="46.67684" lon="6.34576">
        <ele>1298</ele>
        <time>2019-05-04T18:50:51Z</time>
      </trkpt>
      <trkpt lat="46.67681" lon="6.34569">
        <ele>1296</ele>
        <time>2019-05-04T18:50:56Z</time>
      </trkpt>
      <trkpt lat="46.67677" lon="6.34566">
        <ele>1294</ele>
        <time>2019-05-04T18:50:59Z</time>
      </trkpt>
      <trkpt lat="46.67672" lon="6.34561">
        <ele>1292</ele>
        <time>2019-05-04T18:51:03Z</time>
      </trkpt>
      <trkpt lat="46.67668" lon="6.3456">
        <ele>1291</ele>
        <time>2019-05-04T18:51:06Z</time>
      </trkpt>
      <trkpt lat="46.67666" lon="6.34559">
        <ele>1291</ele>
        <time>2019-05-04T18:51:08Z</time>
      </trkpt>
      <trkpt lat="46.67663" lon="6.34557">
        <ele>1290</ele>
        <time>2019-05-04T18:51:10Z</time>
      </trkpt>
      <trkpt lat="46.67659" lon="6.34555">
        <ele>1289</ele>
        <time>2019-05-04T18:51:13Z</time>
      </trkpt>
      <trkpt lat="46.67656" lon="6.34552">
        <ele>1287</ele>
        <time>2019-05-04T18:51:16Z</time>
      </trkpt>
      <trkpt lat="46.6765" lon="6.34544">
        <ele>1285</ele>
        <time>2019-05-04T18:51:22Z</time>
      </trkpt>
      <trkpt lat="46.67644" lon="6.3454">
        <ele>1282</ele>
        <time>2019-05-04T18:51:28Z</time>
      </trkpt>
      <trkpt lat="46.67642" lon="6.3454">
        <ele>1282</ele>
        <time>2019-05-04T18:51:29Z</time>
      </trkpt>
      <trkpt lat="46.67639" lon="6.34541">
        <ele>1281</ele>
        <time>2019-05-04T18:51:32Z</time>
      </trkpt>
      <trkpt lat="46.67632" lon="6.34542">
        <ele>1280</ele>
        <time>2019-05-04T18:51:36Z</time>
      </trkpt>
      <trkpt lat="46.67619" lon="6.34556">
        <ele>1280</ele>
        <time>2019-05-04T18:51:48Z</time>
      </trkpt>
      <trkpt lat="46.67615" lon="6.34561">
        <ele>1280</ele>
        <time>2019-05-04T18:51:52Z</time>
      </trkpt>
      <trkpt lat="46.67599" lon="6.34571">
        <ele>1279</ele>
        <time>2019-05-04T18:52:05Z</time>
      </trkpt>
      <trkpt lat="46.67596" lon="6.34572">
        <ele>1278</ele>
        <time>2019-05-04T18:52:07Z</time>
      </trkpt>
      <trkpt lat="46.67592" lon="6.34572">
        <ele>1278</ele>
        <time>2019-05-04T18:52:10Z</time>
      </trkpt>
      <trkpt lat="46.6759" lon="6.34571">
        <ele>1277</ele>
        <time>2019-05-04T18:52:11Z</time>
      </trkpt>
      <trkpt lat="46.67589" lon="6.34568">
        <ele>1277</ele>
        <time>2019-05-04T18:52:13Z</time>
      </trkpt>
      <trkpt lat="46.67586" lon="6.34557">
        <ele>1274</ele>
        <time>2019-05-04T18:52:19Z</time>
      </trkpt>
      <trkpt lat="46.67581" lon="6.3455">
        <ele>1273</ele>
        <time>2019-05-04T18:52:24Z</time>
      </trkpt>
      <trkpt lat="46.67577" lon="6.34548">
        <ele>1272</ele>
        <time>2019-05-04T18:52:27Z</time>
      </trkpt>
      <trkpt lat="46.67572" lon="6.34546">
        <ele>1271</ele>
        <time>2019-05-04T18:52:31Z</time>
      </trkpt>
      <trkpt lat="46.67566" lon="6.34542">
        <ele>1269</ele>
        <time>2019-05-04T18:52:36Z</time>
      </trkpt>
      <trkpt lat="46.67562" lon="6.34539">
        <ele>1268</ele>
        <time>2019-05-04T18:52:39Z</time>
      </trkpt>
      <trkpt lat="46.6756" lon="6.34535">
        <ele>1267</ele>
        <time>2019-05-04T18:52:42Z</time>
      </trkpt>
      <trkpt lat="46.67558" lon="6.34531">
        <ele>1266</ele>
        <time>2019-05-04T18:52:44Z</time>
      </trkpt>
      <trkpt lat="46.67552" lon="6.34527">
        <ele>1265</ele>
        <time>2019-05-04T18:52:49Z</time>
      </trkpt>
      <trkpt lat="46.67542" lon="6.34522">
        <ele>1263</ele>
        <time>2019-05-04T18:52:57Z</time>
      </trkpt>
      <trkpt lat="46.67539" lon="6.34522">
        <ele>1262</ele>
        <time>2019-05-04T18:52:59Z</time>
      </trkpt>
      <trkpt lat="46.6754" lon="6.34522">
        <ele>1262</ele>
        <time>2019-05-04T18:53:00Z</time>
      </trkpt>
      <trkpt lat="46.67543" lon="6.34519">
        <ele>1263</ele>
        <time>2019-05-04T18:53:02Z</time>
      </trkpt>
      <trkpt lat="46.6754" lon="6.34519">
        <ele>1262</ele>
        <time>2019-05-04T18:53:04Z</time>
      </trkpt>
      <trkpt lat="46.67536" lon="6.34516">
        <ele>1261</ele>
        <time>2019-05-04T18:53:08Z</time>
      </trkpt>
      <trkpt lat="46.67532" lon="6.34515">
        <ele>1261</ele>
        <time>2019-05-04T18:53:11Z</time>
      </trkpt>
      <trkpt lat="46.67525" lon="6.34512">
        <ele>1259</ele>
        <time>2019-05-04T18:53:16Z</time>
      </trkpt>
      <trkpt lat="46.67519" lon="6.34511">
        <ele>1257</ele>
        <time>2019-05-04T18:53:20Z</time>
      </trkpt>
      <trkpt lat="46.67517" lon="6.3451">
        <ele>1257</ele>
        <time>2019-05-04T18:53:22Z</time>
      </trkpt>
      <trkpt lat="46.67516" lon="6.34509">
        <ele>1256</ele>
        <time>2019-05-04T18:53:23Z</time>
      </trkpt>
      <trkpt lat="46.67515" lon="6.34507">
        <ele>1256</ele>
        <time>2019-05-04T18:53:24Z</time>
      </trkpt>
      <trkpt lat="46.67512" lon="6.34514">
        <ele>1256</ele>
        <time>2019-05-04T18:53:28Z</time>
      </trkpt>
      <trkpt lat="46.67505" lon="6.34519">
        <ele>1255</ele>
        <time>2019-05-04T18:53:34Z</time>
      </trkpt>
      <trkpt lat="46.67505" lon="6.34522">
        <ele>1255</ele>
        <time>2019-05-04T18:53:35Z</time>
      </trkpt>
      <trkpt lat="46.67505" lon="6.34524">
        <ele>1256</ele>
        <time>2019-05-04T18:53:36Z</time>
      </trkpt>
      <trkpt lat="46.67502" lon="6.34529">
        <ele>1256</ele>
        <time>2019-05-04T18:53:39Z</time>
      </trkpt>
      <trkpt lat="46.67501" lon="6.3453">
        <ele>1256</ele>
        <time>2019-05-04T18:53:41Z</time>
      </trkpt>
      <trkpt lat="46.67496" lon="6.3453">
        <ele>1255</ele>
        <time>2019-05-04T18:53:44Z</time>
      </trkpt>
      <trkpt lat="46.67493" lon="6.3453">
        <ele>1254</ele>
        <time>2019-05-04T18:53:47Z</time>
      </trkpt>
      <trkpt lat="46.67489" lon="6.3453">
        <ele>1253</ele>
        <time>2019-05-04T18:53:49Z</time>
      </trkpt>
      <trkpt lat="46.67484" lon="6.34529">
        <ele>1252</ele>
        <time>2019-05-04T18:53:53Z</time>
      </trkpt>
      <trkpt lat="46.67477" lon="6.34529">
        <ele>1250</ele>
        <time>2019-05-04T18:53:58Z</time>
      </trkpt>
      <trkpt lat="46.67472" lon="6.3453">
        <ele>1249</ele>
        <time>2019-05-04T18:54:02Z</time>
      </trkpt>
      <trkpt lat="46.67467" lon="6.3453">
        <ele>1248</ele>
        <time>2019-05-04T18:54:05Z</time>
      </trkpt>
      <trkpt lat="46.67459" lon="6.34528">
        <ele>1246</ele>
        <time>2019-05-04T18:54:11Z</time>
      </trkpt>
      <trkpt lat="46.67455" lon="6.34525">
        <ele>1244</ele>
        <time>2019-05-04T18:54:15Z</time>
      </trkpt>
      <trkpt lat="46.67451" lon="6.34521">
        <ele>1242</ele>
        <time>2019-05-04T18:54:19Z</time>
      </trkpt>
      <trkpt lat="46.67447" lon="6.34515">
        <ele>1240</ele>
        <time>2019-05-04T18:54:23Z</time>
      </trkpt>
      <trkpt lat="46.67446" lon="6.34509">
        <ele>1238</ele>
        <time>2019-05-04T18:54:26Z</time>
      </trkpt>
      <trkpt lat="46.67446" lon="6.34507">
        <ele>1238</ele>
        <time>2019-05-04T18:54:28Z</time>
      </trkpt>
      <trkpt lat="46.67447" lon="6.34503">
        <ele>1237</ele>
        <time>2019-05-04T18:54:30Z</time>
      </trkpt>
      <trkpt lat="46.67448" lon="6.34502">
        <ele>1237</ele>
        <time>2019-05-04T18:54:31Z</time>
      </trkpt>
      <trkpt lat="46.67449" lon="6.345">
        <ele>1237</ele>
        <time>2019-05-04T18:54:32Z</time>
      </trkpt>
      <trkpt lat="46.67451" lon="6.34496">
        <ele>1236</ele>
        <time>2019-05-04T18:54:34Z</time>
      </trkpt>
      <trkpt lat="46.67453" lon="6.3449">
        <ele>1236</ele>
        <time>2019-05-04T18:54:38Z</time>
      </trkpt>
      <trkpt lat="46.67459" lon="6.34474">
        <ele>1234</ele>
        <time>2019-05-04T18:54:47Z</time>
      </trkpt>
      <trkpt lat="46.67462" lon="6.34464">
        <ele>1233</ele>
        <time>2019-05-04T18:54:52Z</time>
      </trkpt>
      <trkpt lat="46.6747" lon="6.34442">
        <ele>1231</ele>
        <time>2019-05-04T18:55:05Z</time>
      </trkpt>
      <trkpt lat="46.67472" lon="6.34435">
        <ele>1230</ele>
        <time>2019-05-04T18:55:09Z</time>
      </trkpt>
      <trkpt lat="46.67473" lon="6.34425">
        <ele>1229</ele>
        <time>2019-05-04T18:55:14Z</time>
      </trkpt>
      <trkpt lat="46.6747" lon="6.34411">
        <ele>1226</ele>
        <time>2019-05-04T18:55:21Z</time>
      </trkpt>
      <trkpt lat="46.67463" lon="6.34403">
        <ele>1223</ele>
        <time>2019-05-04T18:55:28Z</time>
      </trkpt>
      <trkpt lat="46.67458" lon="6.34403">
        <ele>1221</ele>
        <time>2019-05-04T18:55:32Z</time>
      </trkpt>
      <trkpt lat="46.67453" lon="6.34405">
        <ele>1220</ele>
        <time>2019-05-04T18:55:36Z</time>
      </trkpt>
      <trkpt lat="46.6745" lon="6.34408">
        <ele>1219</ele>
        <time>2019-05-04T18:55:39Z</time>
      </trkpt>
      <trkpt lat="46.6744" lon="6.34416">
        <ele>1218</ele>
        <time>2019-05-04T18:55:47Z</time>
      </trkpt>
      <trkpt lat="46.67435" lon="6.34422">
        <ele>1218</ele>
        <time>2019-05-04T18:55:51Z</time>
      </trkpt>
      <trkpt lat="46.67429" lon="6.34427">
        <ele>1217</ele>
        <time>2019-05-04T18:55:57Z</time>
      </trkpt>
      <trkpt lat="46.67422" lon="6.3443">
        <ele>1217</ele>
        <time>2019-05-04T18:56:02Z</time>
      </trkpt>
      <trkpt lat="46.67412" lon="6.34432">
        <ele>1216</ele>
        <time>2019-05-04T18:56:08Z</time>
      </trkpt>
      <trkpt lat="46.67394" lon="6.34437">
        <ele>1213</ele>
        <time>2019-05-04T18:56:22Z</time>
      </trkpt>
      <trkpt lat="46.67387" lon="6.34442">
        <ele>1213</ele>
        <time>2019-05-04T18:56:28Z</time>
      </trkpt>
      <trkpt lat="46.67383" lon="6.34444">
        <ele>1213</ele>
        <time>2019-05-04T18:56:31Z</time>
      </trkpt>
      <trkpt lat="46.67379" lon="6.34446">
        <ele>1213</ele>
        <time>2019-05-04T18:56:34Z</time>
      </trkpt>
      <trkpt lat="46.67362" lon="6.3446">
        <ele>1215</ele>
        <time>2019-05-04T18:56:48Z</time>
      </trkpt>
      <trkpt lat="46.67343" lon="6.34461">
        <ele>1214</ele>
        <time>2019-05-04T18:57:02Z</time>
      </trkpt>
      <trkpt lat="46.67337" lon="6.34455">
        <ele>1212</ele>
        <time>2019-05-04T18:57:07Z</time>
      </trkpt>
      <trkpt lat="46.67335" lon="6.34452">
        <ele>1212</ele>
        <time>2019-05-04T18:57:09Z</time>
      </trkpt>
      <trkpt lat="46.67333" lon="6.34449">
        <ele>1211</ele>
        <time>2019-05-04T18:57:11Z</time>
      </trkpt>
      <trkpt lat="46.67332" lon="6.34443">
        <ele>1209</ele>
        <time>2019-05-04T18:57:15Z</time>
      </trkpt>
      <trkpt lat="46.6733" lon="6.34432">
        <ele>1207</ele>
        <time>2019-05-04T18:57:20Z</time>
      </trkpt>
      <trkpt lat="46.67331" lon="6.34421">
        <ele>1206</ele>
        <time>2019-05-04T18:57:26Z</time>
      </trkpt>
      <trkpt lat="46.67337" lon="6.34395">
        <ele>1204</ele>
        <time>2019-05-04T18:57:40Z</time>
      </trkpt>
      <trkpt lat="46.67339" lon="6.34382">
        <ele>1202</ele>
        <time>2019-05-04T18:57:47Z</time>
      </trkpt>
      <trkpt lat="46.67339" lon="6.34372">
        <ele>1201</ele>
        <time>2019-05-04T18:57:52Z</time>
      </trkpt>
      <trkpt lat="46.67339" lon="6.34365">
        <ele>1200</ele>
        <time>2019-05-04T18:57:55Z</time>
      </trkpt>
      <trkpt lat="46.67338" lon="6.3435">
        <ele>1199</ele>
        <time>2019-05-04T18:58:03Z</time>
      </trkpt>
      <trkpt lat="46.67337" lon="6.3434">
        <ele>1197</ele>
        <time>2019-05-04T18:58:08Z</time>
      </trkpt>
      <trkpt lat="46.67325" lon="6.34325">
        <ele>1195</ele>
        <time>2019-05-04T18:58:19Z</time>
      </trkpt>
      <trkpt lat="46.67316" lon="6.34323">
        <ele>1195</ele>
        <time>2019-05-04T18:58:26Z</time>
      </trkpt>
      <trkpt lat="46.67292" lon="6.34329">
        <ele>1196</ele>
        <time>2019-05-04T18:58:43Z</time>
      </trkpt>
      <trkpt lat="46.6728" lon="6.34335">
        <ele>1196</ele>
        <time>2019-05-04T18:58:53Z</time>
      </trkpt>
      <trkpt lat="46.67271" lon="6.34338">
        <ele>1197</ele>
        <time>2019-05-04T18:58:59Z</time>
      </trkpt>
      <trkpt lat="46.67256" lon="6.34344">
        <ele>1198</ele>
        <time>2019-05-04T18:59:11Z</time>
      </trkpt>
      <trkpt lat="46.67251" lon="6.34346">
        <ele>1198</ele>
        <time>2019-05-04T18:59:14Z</time>
      </trkpt>
      <trkpt lat="46.67246" lon="6.3435">
        <ele>1199</ele>
        <time>2019-05-04T18:59:18Z</time>
      </trkpt>
      <trkpt lat="46.67234" lon="6.34357">
        <ele>1200</ele>
        <time>2019-05-04T18:59:27Z</time>
      </trkpt>
      <trkpt lat="46.67229" lon="6.34359">
        <ele>1200</ele>
        <time>2019-05-04T18:59:31Z</time>
      </trkpt>
      <trkpt lat="46.67213" lon="6.34365">
        <ele>1201</ele>
        <time>2019-05-04T18:59:43Z</time>
      </trkpt>
      <trkpt lat="46.67209" lon="6.34366">
        <ele>1201</ele>
        <time>2019-05-04T18:59:46Z</time>
      </trkpt>
      <trkpt lat="46.67193" lon="6.34371">
        <ele>1201</ele>
        <time>2019-05-04T18:59:58Z</time>
      </trkpt>
      <trkpt lat="46.67186" lon="6.34374">
        <ele>1200</ele>
        <time>2019-05-04T19:00:04Z</time>
      </trkpt>
      <trkpt lat="46.67171" lon="6.34379">
        <ele>1199</ele>
        <time>2019-05-04T19:00:15Z</time>
      </trkpt>
      <trkpt lat="46.67166" lon="6.3438">
        <ele>1198</ele>
        <time>2019-05-04T19:00:18Z</time>
      </trkpt>
      <trkpt lat="46.67161" lon="6.34383">
        <ele>1198</ele>
        <time>2019-05-04T19:00:22Z</time>
      </trkpt>
      <trkpt lat="46.67149" lon="6.34387">
        <ele>1196</ele>
        <time>2019-05-04T19:00:31Z</time>
      </trkpt>
      <trkpt lat="46.67137" lon="6.3439">
        <ele>1195</ele>
        <time>2019-05-04T19:00:40Z</time>
      </trkpt>
      <trkpt lat="46.67134" lon="6.3439">
        <ele>1194</ele>
        <time>2019-05-04T19:00:42Z</time>
      </trkpt>
      <trkpt lat="46.67127" lon="6.34391">
        <ele>1193</ele>
        <time>2019-05-04T19:00:47Z</time>
      </trkpt>
      <trkpt lat="46.67115" lon="6.34396">
        <ele>1192</ele>
        <time>2019-05-04T19:00:56Z</time>
      </trkpt>
      <trkpt lat="46.67108" lon="6.34395">
        <ele>1191</ele>
        <time>2019-05-04T19:01:01Z</time>
      </trkpt>
      <trkpt lat="46.67103" lon="6.34392">
        <ele>1189</ele>
        <time>2019-05-04T19:01:06Z</time>
      </trkpt>
      <trkpt lat="46.67094" lon="6.34395">
        <ele>1188</ele>
        <time>2019-05-04T19:01:12Z</time>
      </trkpt>
      <trkpt lat="46.67091" lon="6.34395">
        <ele>1187</ele>
        <time>2019-05-04T19:01:14Z</time>
      </trkpt>
      <trkpt lat="46.67089" lon="6.34397">
        <ele>1187</ele>
        <time>2019-05-04T19:01:16Z</time>
      </trkpt>
      <trkpt lat="46.67088" lon="6.34397">
        <ele>1186</ele>
        <time>2019-05-04T19:01:17Z</time>
      </trkpt>
      <trkpt lat="46.67083" lon="6.34395">
        <ele>1185</ele>
        <time>2019-05-04T19:01:21Z</time>
      </trkpt>
      <trkpt lat="46.67081" lon="6.34395">
        <ele>1185</ele>
        <time>2019-05-04T19:01:22Z</time>
      </trkpt>
      <trkpt lat="46.67077" lon="6.34394">
        <ele>1184</ele>
        <time>2019-05-04T19:01:25Z</time>
      </trkpt>
      <trkpt lat="46.67075" lon="6.34392">
        <ele>1183</ele>
        <time>2019-05-04T19:01:27Z</time>
      </trkpt>
      <trkpt lat="46.67073" lon="6.3439">
        <ele>1183</ele>
        <time>2019-05-04T19:01:29Z</time>
      </trkpt>
      <trkpt lat="46.67065" lon="6.34391">
        <ele>1181</ele>
        <time>2019-05-04T19:01:35Z</time>
      </trkpt>
      <trkpt lat="46.67059" lon="6.3439">
        <ele>1180</ele>
        <time>2019-05-04T19:01:39Z</time>
      </trkpt>
      <trkpt lat="46.67056" lon="6.3439">
        <ele>1179</ele>
        <time>2019-05-04T19:01:41Z</time>
      </trkpt>
      <trkpt lat="46.67054" lon="6.34389">
        <ele>1178</ele>
        <time>2019-05-04T19:01:43Z</time>
      </trkpt>
      <trkpt lat="46.67047" lon="6.34389">
        <ele>1177</ele>
        <time>2019-05-04T19:01:48Z</time>
      </trkpt>
      <trkpt lat="46.67044" lon="6.34387">
        <ele>1176</ele>
        <time>2019-05-04T19:01:51Z</time>
      </trkpt>
      <trkpt lat="46.67041" lon="6.34386">
        <ele>1176</ele>
        <time>2019-05-04T19:01:52Z</time>
      </trkpt>
      <trkpt lat="46.67035" lon="6.34385">
        <ele>1174</ele>
        <time>2019-05-04T19:01:57Z</time>
      </trkpt>
      <trkpt lat="46.67034" lon="6.34388">
        <ele>1174</ele>
        <time>2019-05-04T19:01:59Z</time>
      </trkpt>
      <trkpt lat="46.6703" lon="6.3439">
        <ele>1173</ele>
        <time>2019-05-04T19:02:02Z</time>
      </trkpt>
      <trkpt lat="46.67026" lon="6.34392">
        <ele>1173</ele>
        <time>2019-05-04T19:02:05Z</time>
      </trkpt>
      <trkpt lat="46.67019" lon="6.34394">
        <ele>1172</ele>
        <time>2019-05-04T19:02:10Z</time>
      </trkpt>
      <trkpt lat="46.67018" lon="6.34394">
        <ele>1172</ele>
        <time>2019-05-04T19:02:11Z</time>
      </trkpt>
      <trkpt lat="46.67013" lon="6.34394">
        <ele>1171</ele>
        <time>2019-05-04T19:02:14Z</time>
      </trkpt>
      <trkpt lat="46.67003" lon="6.34397">
        <ele>1170</ele>
        <time>2019-05-04T19:02:22Z</time>
      </trkpt>
      <trkpt lat="46.66995" lon="6.34398">
        <ele>1169</ele>
        <time>2019-05-04T19:02:28Z</time>
      </trkpt>
      <trkpt lat="46.66993" lon="6.34398">
        <ele>1169</ele>
        <time>2019-05-04T19:02:29Z</time>
      </trkpt>
      <trkpt lat="46.66985" lon="6.344">
        <ele>1168</ele>
        <time>2019-05-04T19:02:35Z</time>
      </trkpt>
      <trkpt lat="46.66979" lon="6.344">
        <ele>1168</ele>
        <time>2019-05-04T19:02:39Z</time>
      </trkpt>
      <trkpt lat="46.66975" lon="6.34399">
        <ele>1167</ele>
        <time>2019-05-04T19:02:43Z</time>
      </trkpt>
      <trkpt lat="46.66968" lon="6.34399">
        <ele>1166</ele>
        <time>2019-05-04T19:02:47Z</time>
      </trkpt>
      <trkpt lat="46.66964" lon="6.34402">
        <ele>1166</ele>
        <time>2019-05-04T19:02:51Z</time>
      </trkpt>
      <trkpt lat="46.66955" lon="6.34403">
        <ele>1165</ele>
        <time>2019-05-04T19:02:57Z</time>
      </trkpt>
      <trkpt lat="46.66954" lon="6.34402">
        <ele>1165</ele>
        <time>2019-05-04T19:02:58Z</time>
      </trkpt>
      <trkpt lat="46.66938" lon="6.34405">
        <ele>1163</ele>
        <time>2019-05-04T19:03:10Z</time>
      </trkpt>
      <trkpt lat="46.6693" lon="6.34407">
        <ele>1162</ele>
        <time>2019-05-04T19:03:16Z</time>
      </trkpt>
      <trkpt lat="46.66921" lon="6.34405">
        <ele>1160</ele>
        <time>2019-05-04T19:03:22Z</time>
      </trkpt>
      <trkpt lat="46.66915" lon="6.34404">
        <ele>1158</ele>
        <time>2019-05-04T19:03:27Z</time>
      </trkpt>
      <trkpt lat="46.66904" lon="6.34405">
        <ele>1157</ele>
        <time>2019-05-04T19:03:35Z</time>
      </trkpt>
      <trkpt lat="46.66897" lon="6.34407">
        <ele>1156</ele>
        <time>2019-05-04T19:03:40Z</time>
      </trkpt>
      <trkpt lat="46.66893" lon="6.34409">
        <ele>1155</ele>
        <time>2019-05-04T19:03:43Z</time>
      </trkpt>
      <trkpt lat="46.66887" lon="6.3441">
        <ele>1154</ele>
        <time>2019-05-04T19:03:47Z</time>
      </trkpt>
      <trkpt lat="46.66878" lon="6.34414">
        <ele>1153</ele>
        <time>2019-05-04T19:03:54Z</time>
      </trkpt>
      <trkpt lat="46.66859" lon="6.34407">
        <ele>1149</ele>
        <time>2019-05-04T19:04:09Z</time>
      </trkpt>
      <trkpt lat="46.66857" lon="6.34405">
        <ele>1148</ele>
        <time>2019-05-04T19:04:10Z</time>
      </trkpt>
      <trkpt lat="46.6685" lon="6.344">
        <ele>1147</ele>
        <time>2019-05-04T19:04:16Z</time>
      </trkpt>
      <trkpt lat="46.66842" lon="6.34398">
        <ele>1146</ele>
        <time>2019-05-04T19:04:22Z</time>
      </trkpt>
      <trkpt lat="46.66824" lon="6.34391">
        <ele>1144</ele>
        <time>2019-05-04T19:04:36Z</time>
      </trkpt>
      <trkpt lat="46.6682" lon="6.34389">
        <ele>1143</ele>
        <time>2019-05-04T19:04:39Z</time>
      </trkpt>
      <trkpt lat="46.66812" lon="6.34382">
        <ele>1142</ele>
        <time>2019-05-04T19:04:45Z</time>
      </trkpt>
      <trkpt lat="46.66806" lon="6.34377">
        <ele>1141</ele>
        <time>2019-05-04T19:04:50Z</time>
      </trkpt>
      <trkpt lat="46.66788" lon="6.34378">
        <ele>1140</ele>
        <time>2019-05-04T19:05:03Z</time>
      </trkpt>
      <trkpt lat="46.66782" lon="6.34383">
        <ele>1140</ele>
        <time>2019-05-04T19:05:08Z</time>
      </trkpt>
      <trkpt lat="46.6678" lon="6.34384">
        <ele>1140</ele>
        <time>2019-05-04T19:05:10Z</time>
      </trkpt>
      <trkpt lat="46.66777" lon="6.34387">
        <ele>1141</ele>
        <time>2019-05-04T19:05:13Z</time>
      </trkpt>
      <trkpt lat="46.6677" lon="6.34391">
        <ele>1140</ele>
        <time>2019-05-04T19:05:18Z</time>
      </trkpt>
      <trkpt lat="46.66767" lon="6.34397">
        <ele>1140</ele>
        <time>2019-05-04T19:05:22Z</time>
      </trkpt>
      <trkpt lat="46.66748" lon="6.34398">
        <ele>1138</ele>
        <time>2019-05-04T19:05:36Z</time>
      </trkpt>
      <trkpt lat="46.66745" lon="6.34398">
        <ele>1137</ele>
        <time>2019-05-04T19:05:38Z</time>
      </trkpt>
      <trkpt lat="46.66741" lon="6.34397">
        <ele>1137</ele>
        <time>2019-05-04T19:05:41Z</time>
      </trkpt>
      <trkpt lat="46.66733" lon="6.34394">
        <ele>1135</ele>
        <time>2019-05-04T19:05:47Z</time>
      </trkpt>
      <trkpt lat="46.66729" lon="6.34391">
        <ele>1135</ele>
        <time>2019-05-04T19:05:50Z</time>
      </trkpt>
      <trkpt lat="46.66724" lon="6.34386">
        <ele>1133</ele>
        <time>2019-05-04T19:05:55Z</time>
      </trkpt>
      <trkpt lat="46.66717" lon="6.34377">
        <ele>1132</ele>
        <time>2019-05-04T19:06:01Z</time>
      </trkpt>
      <trkpt lat="46.66712" lon="6.34368">
        <ele>1130</ele>
        <time>2019-05-04T19:06:07Z</time>
      </trkpt>
      <trkpt lat="46.66705" lon="6.3436">
        <ele>1128</ele>
        <time>2019-05-04T19:06:14Z</time>
      </trkpt>
      <trkpt lat="46.66695" lon="6.34349">
        <ele>1126</ele>
        <time>2019-05-04T19:06:23Z</time>
      </trkpt>
      <trkpt lat="46.66691" lon="6.34341">
        <ele>1126</ele>
        <time>2019-05-04T19:06:28Z</time>
      </trkpt>
      <trkpt lat="46.66688" lon="6.34331">
        <ele>1125</ele>
        <time>2019-05-04T19:06:33Z</time>
      </trkpt>
      <trkpt lat="46.66686" lon="6.34323">
        <ele>1125</ele>
        <time>2019-05-04T19:06:37Z</time>
      </trkpt>
      <trkpt lat="46.66684" lon="6.3431">
        <ele>1125</ele>
        <time>2019-05-04T19:06:44Z</time>
      </trkpt>
      <trkpt lat="46.66684" lon="6.34297">
        <ele>1124</ele>
        <time>2019-05-04T19:06:51Z</time>
      </trkpt>
      <trkpt lat="46.66686" lon="6.34283">
        <ele>1124</ele>
        <time>2019-05-04T19:06:58Z</time>
      </trkpt>
      <trkpt lat="46.66692" lon="6.34262">
        <ele>1123</ele>
        <time>2019-05-04T19:07:09Z</time>
      </trkpt>
      <trkpt lat="46.66695" lon="6.34246">
        <ele>1123</ele>
        <time>2019-05-04T19:07:18Z</time>
      </trkpt>
      <trkpt lat="46.66692" lon="6.34242">
        <ele>1124</ele>
        <time>2019-05-04T19:07:21Z</time>
      </trkpt>
      <trkpt lat="46.66674" lon="6.34251">
        <ele>1124</ele>
        <time>2019-05-04T19:07:34Z</time>
      </trkpt>
      <trkpt lat="46.6667" lon="6.34252">
        <ele>1124</ele>
        <time>2019-05-04T19:07:37Z</time>
      </trkpt>
      <trkpt lat="46.66653" lon="6.34263">
        <ele>1125</ele>
        <time>2019-05-04T19:07:51Z</time>
      </trkpt>
      <trkpt lat="46.66635" lon="6.34268">
        <ele>1125</ele>
        <time>2019-05-04T19:08:04Z</time>
      </trkpt>
      <trkpt lat="46.66615" lon="6.34268">
        <ele>1126</ele>
        <time>2019-05-04T19:08:19Z</time>
      </trkpt>
      <trkpt lat="46.6661" lon="6.34268">
        <ele>1126</ele>
        <time>2019-05-04T19:08:22Z</time>
      </trkpt>
      <trkpt lat="46.66595" lon="6.34269">
        <ele>1127</ele>
        <time>2019-05-04T19:08:33Z</time>
      </trkpt>
      <trkpt lat="46.66587" lon="6.34271">
        <ele>1127</ele>
        <time>2019-05-04T19:08:38Z</time>
      </trkpt>
      <trkpt lat="46.66568" lon="6.34277">
        <ele>1127</ele>
        <time>2019-05-04T19:08:53Z</time>
      </trkpt>
      <trkpt lat="46.66548" lon="6.34281">
        <ele>1128</ele>
        <time>2019-05-04T19:09:07Z</time>
      </trkpt>
      <trkpt lat="46.66541" lon="6.34282">
        <ele>1128</ele>
        <time>2019-05-04T19:09:13Z</time>
      </trkpt>
      <trkpt lat="46.66522" lon="6.34285">
        <ele>1128</ele>
        <time>2019-05-04T19:09:26Z</time>
      </trkpt>
      <trkpt lat="46.6652" lon="6.34284">
        <ele>1128</ele>
        <time>2019-05-04T19:09:28Z</time>
      </trkpt>
      <trkpt lat="46.66502" lon="6.34283">
        <ele>1127</ele>
        <time>2019-05-04T19:09:41Z</time>
      </trkpt>
      <trkpt lat="46.66483" lon="6.3428">
        <ele>1126</ele>
        <time>2019-05-04T19:09:55Z</time>
      </trkpt>
      <trkpt lat="46.66464" lon="6.34275">
        <ele>1125</ele>
        <time>2019-05-04T19:10:09Z</time>
      </trkpt>
      <trkpt lat="46.66456" lon="6.34276">
        <ele>1125</ele>
        <time>2019-05-04T19:10:14Z</time>
      </trkpt>
      <trkpt lat="46.66437" lon="6.34275">
        <ele>1124</ele>
        <time>2019-05-04T19:10:28Z</time>
      </trkpt>
      <trkpt lat="46.66419" lon="6.34273">
        <ele>1124</ele>
        <time>2019-05-04T19:10:41Z</time>
      </trkpt>
      <trkpt lat="46.664" lon="6.34272">
        <ele>1124</ele>
        <time>2019-05-04T19:10:55Z</time>
      </trkpt>
      <trkpt lat="46.66382" lon="6.34267">
        <ele>1124</ele>
        <time>2019-05-04T19:11:08Z</time>
      </trkpt>
      <trkpt lat="46.66373" lon="6.34269">
        <ele>1124</ele>
        <time>2019-05-04T19:11:15Z</time>
      </trkpt>
      <trkpt lat="46.66354" lon="6.34269">
        <ele>1123</ele>
        <time>2019-05-04T19:11:28Z</time>
      </trkpt>
      <trkpt lat="46.66335" lon="6.34266">
        <ele>1121</ele>
        <time>2019-05-04T19:11:42Z</time>
      </trkpt>
      <trkpt lat="46.66319" lon="6.34256">
        <ele>1120</ele>
        <time>2019-05-04T19:11:55Z</time>
      </trkpt>
      <trkpt lat="46.66301" lon="6.34255">
        <ele>1118</ele>
        <time>2019-05-04T19:12:08Z</time>
      </trkpt>
      <trkpt lat="46.66299" lon="6.34254">
        <ele>1118</ele>
        <time>2019-05-04T19:12:10Z</time>
      </trkpt>
      <trkpt lat="46.66298" lon="6.34253">
        <ele>1118</ele>
        <time>2019-05-04T19:12:10Z</time>
      </trkpt>
      <trkpt lat="46.66289" lon="6.3425">
        <ele>1117</ele>
        <time>2019-05-04T19:12:17Z</time>
      </trkpt>
      <trkpt lat="46.6628" lon="6.34248">
        <ele>1116</ele>
        <time>2019-05-04T19:12:24Z</time>
      </trkpt>
      <trkpt lat="46.66263" lon="6.34249">
        <ele>1113</ele>
        <time>2019-05-04T19:12:36Z</time>
      </trkpt>
      <trkpt lat="46.66247" lon="6.34238">
        <ele>1111</ele>
        <time>2019-05-04T19:12:49Z</time>
      </trkpt>
      <trkpt lat="46.66238" lon="6.34212">
        <ele>1111</ele>
        <time>2019-05-04T19:13:03Z</time>
      </trkpt>
      <trkpt lat="46.6623" lon="6.34187">
        <ele>1111</ele>
        <time>2019-05-04T19:13:17Z</time>
      </trkpt>
      <trkpt lat="46.66224" lon="6.34173">
        <ele>1111</ele>
        <time>2019-05-04T19:13:25Z</time>
      </trkpt>
      <trkpt lat="46.66215" lon="6.34148">
        <ele>1111</ele>
        <time>2019-05-04T19:13:39Z</time>
      </trkpt>
      <trkpt lat="46.66211" lon="6.34137">
        <ele>1111</ele>
        <time>2019-05-04T19:13:45Z</time>
      </trkpt>
      <trkpt lat="46.66209" lon="6.34133">
        <ele>1111</ele>
        <time>2019-05-04T19:13:48Z</time>
      </trkpt>
      <trkpt lat="46.66198" lon="6.34112">
        <ele>1111</ele>
        <time>2019-05-04T19:14:01Z</time>
      </trkpt>
      <trkpt lat="46.66197" lon="6.34109">
        <ele>1111</ele>
        <time>2019-05-04T19:14:03Z</time>
      </trkpt>
      <trkpt lat="46.66188" lon="6.34084">
        <ele>1110</ele>
        <time>2019-05-04T19:14:17Z</time>
      </trkpt>
      <trkpt lat="46.6618" lon="6.34059">
        <ele>1110</ele>
        <time>2019-05-04T19:14:30Z</time>
      </trkpt>
      <trkpt lat="46.66172" lon="6.34039">
        <ele>1109</ele>
        <time>2019-05-04T19:14:42Z</time>
      </trkpt>
      <trkpt lat="46.66166" lon="6.34013">
        <ele>1109</ele>
        <time>2019-05-04T19:14:56Z</time>
      </trkpt>
      <trkpt lat="46.66162" lon="6.33985">
        <ele>1109</ele>
        <time>2019-05-04T19:15:10Z</time>
      </trkpt>
      <trkpt lat="46.66159" lon="6.33956">
        <ele>1109</ele>
        <time>2019-05-04T19:15:25Z</time>
      </trkpt>
      <trkpt lat="46.66158" lon="6.33931">
        <ele>1109</ele>
        <time>2019-05-04T19:15:37Z</time>
      </trkpt>
      <trkpt lat="46.66154" lon="6.33904">
        <ele>1109</ele>
        <time>2019-05-04T19:15:50Z</time>
      </trkpt>
      <trkpt lat="46.66154" lon="6.339">
        <ele>1109</ele>
        <time>2019-05-04T19:15:53Z</time>
      </trkpt>
      <trkpt lat="46.66152" lon="6.33884">
        <ele>1109</ele>
        <time>2019-05-04T19:16:01Z</time>
      </trkpt>
      <trkpt lat="46.66149" lon="6.33856">
        <ele>1109</ele>
        <time>2019-05-04T19:16:14Z</time>
      </trkpt>
      <trkpt lat="46.66145" lon="6.33831">
        <ele>1110</ele>
        <time>2019-05-04T19:16:28Z</time>
      </trkpt>
      <trkpt lat="46.66142" lon="6.33804">
        <ele>1110</ele>
        <time>2019-05-04T19:16:41Z</time>
      </trkpt>
      <trkpt lat="46.66138" lon="6.33775">
        <ele>1110</ele>
        <time>2019-05-04T19:16:56Z</time>
      </trkpt>
      <trkpt lat="46.66131" lon="6.33749">
        <ele>1109</ele>
        <time>2019-05-04T19:17:10Z</time>
      </trkpt>
      <trkpt lat="46.66128" lon="6.33739">
        <ele>1108</ele>
        <time>2019-05-04T19:17:15Z</time>
      </trkpt>
      <trkpt lat="46.66121" lon="6.3372">
        <ele>1106</ele>
        <time>2019-05-04T19:17:26Z</time>
      </trkpt>
      <trkpt lat="46.66117" lon="6.33707">
        <ele>1105</ele>
        <time>2019-05-04T19:17:33Z</time>
      </trkpt>
      <trkpt lat="46.66115" lon="6.33696">
        <ele>1104</ele>
        <time>2019-05-04T19:17:38Z</time>
      </trkpt>
      <trkpt lat="46.66108" lon="6.33676">
        <ele>1101</ele>
        <time>2019-05-04T19:17:50Z</time>
      </trkpt>
      <trkpt lat="46.66107" lon="6.33665">
        <ele>1100</ele>
        <time>2019-05-04T19:17:55Z</time>
      </trkpt>
      <trkpt lat="46.66107" lon="6.33657">
        <ele>1098</ele>
        <time>2019-05-04T19:18:00Z</time>
      </trkpt>
      <trkpt lat="46.66107" lon="6.33654">
        <ele>1098</ele>
        <time>2019-05-04T19:18:01Z</time>
      </trkpt>
      <trkpt lat="46.66106" lon="6.33651">
        <ele>1098</ele>
        <time>2019-05-04T19:18:03Z</time>
      </trkpt>
      <trkpt lat="46.66103" lon="6.33647">
        <ele>1097</ele>
        <time>2019-05-04T19:18:06Z</time>
      </trkpt>
      <trkpt lat="46.66099" lon="6.33638">
        <ele>1095</ele>
        <time>2019-05-04T19:18:11Z</time>
      </trkpt>
      <trkpt lat="46.66097" lon="6.33632">
        <ele>1094</ele>
        <time>2019-05-04T19:18:15Z</time>
      </trkpt>
      <trkpt lat="46.66092" lon="6.33626">
        <ele>1093</ele>
        <time>2019-05-04T19:18:19Z</time>
      </trkpt>
      <trkpt lat="46.66092" lon="6.33625">
        <ele>1093</ele>
        <time>2019-05-04T19:18:20Z</time>
      </trkpt>
      <trkpt lat="46.66087" lon="6.33622">
        <ele>1093</ele>
        <time>2019-05-04T19:18:23Z</time>
      </trkpt>
      <trkpt lat="46.66083" lon="6.3362">
        <ele>1092</ele>
        <time>2019-05-04T19:18:27Z</time>
      </trkpt>
      <trkpt lat="46.66067" lon="6.33614">
        <ele>1090</ele>
        <time>2019-05-04T19:18:39Z</time>
      </trkpt>
      <trkpt lat="46.66063" lon="6.33613">
        <ele>1090</ele>
        <time>2019-05-04T19:18:41Z</time>
      </trkpt>
      <trkpt lat="46.6606" lon="6.33612">
        <ele>1089</ele>
        <time>2019-05-04T19:18:44Z</time>
      </trkpt>
      <trkpt lat="46.66054" lon="6.33611">
        <ele>1089</ele>
        <time>2019-05-04T19:18:48Z</time>
      </trkpt>
      <trkpt lat="46.66046" lon="6.33609">
        <ele>1088</ele>
        <time>2019-05-04T19:18:54Z</time>
      </trkpt>
      <trkpt lat="46.66045" lon="6.33609">
        <ele>1088</ele>
        <time>2019-05-04T19:18:55Z</time>
      </trkpt>
      <trkpt lat="46.66041" lon="6.33609">
        <ele>1087</ele>
        <time>2019-05-04T19:18:58Z</time>
      </trkpt>
      <trkpt lat="46.66038" lon="6.33608">
        <ele>1087</ele>
        <time>2019-05-04T19:19:00Z</time>
      </trkpt>
      <trkpt lat="46.66029" lon="6.33604">
        <ele>1086</ele>
        <time>2019-05-04T19:19:07Z</time>
      </trkpt>
      <trkpt lat="46.66018" lon="6.33601">
        <ele>1085</ele>
        <time>2019-05-04T19:19:15Z</time>
      </trkpt>
      <trkpt lat="46.6601" lon="6.33598">
        <ele>1085</ele>
        <time>2019-05-04T19:19:21Z</time>
      </trkpt>
      <trkpt lat="46.66002" lon="6.33595">
        <ele>1084</ele>
        <time>2019-05-04T19:19:27Z</time>
      </trkpt>
      <trkpt lat="46.65997" lon="6.33594">
        <ele>1084</ele>
        <time>2019-05-04T19:19:31Z</time>
      </trkpt>
      <trkpt lat="46.65988" lon="6.3359">
        <ele>1083</ele>
        <time>2019-05-04T19:19:37Z</time>
      </trkpt>
      <trkpt lat="46.65979" lon="6.33585">
        <ele>1082</ele>
        <time>2019-05-04T19:19:45Z</time>
      </trkpt>
      <trkpt lat="46.65974" lon="6.33583">
        <ele>1082</ele>
        <time>2019-05-04T19:19:48Z</time>
      </trkpt>
      <trkpt lat="46.65965" lon="6.33577">
        <ele>1081</ele>
        <time>2019-05-04T19:19:56Z</time>
      </trkpt>
      <trkpt lat="46.65955" lon="6.33572">
        <ele>1080</ele>
        <time>2019-05-04T19:20:03Z</time>
      </trkpt>
      <trkpt lat="46.65945" lon="6.33567">
        <ele>1079</ele>
        <time>2019-05-04T19:20:11Z</time>
      </trkpt>
      <trkpt lat="46.65933" lon="6.33562">
        <ele>1078</ele>
        <time>2019-05-04T19:20:20Z</time>
      </trkpt>
      <trkpt lat="46.65915" lon="6.33555">
        <ele>1078</ele>
        <time>2019-05-04T19:20:33Z</time>
      </trkpt>
      <trkpt lat="46.65909" lon="6.33553">
        <ele>1078</ele>
        <time>2019-05-04T19:20:37Z</time>
      </trkpt>
      <trkpt lat="46.65893" lon="6.33546">
        <ele>1077</ele>
        <time>2019-05-04T19:20:50Z</time>
      </trkpt>
      <trkpt lat="46.65878" lon="6.33528">
        <ele>1076</ele>
        <time>2019-05-04T19:21:03Z</time>
      </trkpt>
      <trkpt lat="46.65875" lon="6.33522">
        <ele>1075</ele>
        <time>2019-05-04T19:21:08Z</time>
      </trkpt>
      <trkpt lat="46.65867" lon="6.33511">
        <ele>1074</ele>
        <time>2019-05-04T19:21:15Z</time>
      </trkpt>
      <trkpt lat="46.65864" lon="6.33501">
        <ele>1073</ele>
        <time>2019-05-04T19:21:21Z</time>
      </trkpt>
      <trkpt lat="46.65862" lon="6.3349">
        <ele>1072</ele>
        <time>2019-05-04T19:21:26Z</time>
      </trkpt>
      <trkpt lat="46.65859" lon="6.3348">
        <ele>1070</ele>
        <time>2019-05-04T19:21:32Z</time>
      </trkpt>
      <trkpt lat="46.65855" lon="6.33474">
        <ele>1070</ele>
        <time>2019-05-04T19:21:36Z</time>
      </trkpt>
      <trkpt lat="46.65852" lon="6.33467">
        <ele>1069</ele>
        <time>2019-05-04T19:21:40Z</time>
      </trkpt>
      <trkpt lat="46.65849" lon="6.33461">
        <ele>1068</ele>
        <time>2019-05-04T19:21:44Z</time>
      </trkpt>
      <trkpt lat="46.65845" lon="6.33454">
        <ele>1068</ele>
        <time>2019-05-04T19:21:49Z</time>
      </trkpt>
      <trkpt lat="46.65841" lon="6.33447">
        <ele>1067</ele>
        <time>2019-05-04T19:21:53Z</time>
      </trkpt>
      <trkpt lat="46.65835" lon="6.33434">
        <ele>1066</ele>
        <time>2019-05-04T19:22:01Z</time>
      </trkpt>
      <trkpt lat="46.65826" lon="6.33423">
        <ele>1065</ele>
        <time>2019-05-04T19:22:10Z</time>
      </trkpt>
      <trkpt lat="46.6581" lon="6.33408">
        <ele>1064</ele>
        <time>2019-05-04T19:22:23Z</time>
      </trkpt>
      <trkpt lat="46.65792" lon="6.33402">
        <ele>1065</ele>
        <time>2019-05-04T19:22:37Z</time>
      </trkpt>
      <trkpt lat="46.65774" lon="6.3341">
        <ele>1067</ele>
        <time>2019-05-04T19:22:50Z</time>
      </trkpt>
      <trkpt lat="46.65759" lon="6.33426">
        <ele>1070</ele>
        <time>2019-05-04T19:23:03Z</time>
      </trkpt>
      <trkpt lat="46.65752" lon="6.33428">
        <ele>1071</ele>
        <time>2019-05-04T19:23:09Z</time>
      </trkpt>
      <trkpt lat="46.65749" lon="6.33422">
        <ele>1072</ele>
        <time>2019-05-04T19:23:12Z</time>
      </trkpt>
      <trkpt lat="46.65751" lon="6.33415">
        <ele>1072</ele>
        <time>2019-05-04T19:23:16Z</time>
      </trkpt>
      <trkpt lat="46.65753" lon="6.33408">
        <ele>1071</ele>
        <time>2019-05-04T19:23:20Z</time>
      </trkpt>
      <trkpt lat="46.65754" lon="6.33381">
        <ele>1071</ele>
        <time>2019-05-04T19:23:33Z</time>
      </trkpt>
      <trkpt lat="46.65753" lon="6.33358">
        <ele>1071</ele>
        <time>2019-05-04T19:23:45Z</time>
      </trkpt>
      <trkpt lat="46.65752" lon="6.33346">
        <ele>1069</ele>
        <time>2019-05-04T19:23:51Z</time>
      </trkpt>
      <trkpt lat="46.65748" lon="6.33329">
        <ele>1068</ele>
        <time>2019-05-04T19:24:00Z</time>
      </trkpt>
      <trkpt lat="46.65743" lon="6.33312">
        <ele>1067</ele>
        <time>2019-05-04T19:24:09Z</time>
      </trkpt>
      <trkpt lat="46.65735" lon="6.33293">
        <ele>1067</ele>
        <time>2019-05-04T19:24:20Z</time>
      </trkpt>
      <trkpt lat="46.65729" lon="6.33279">
        <ele>1068</ele>
        <time>2019-05-04T19:24:28Z</time>
      </trkpt>
      <trkpt lat="46.65721" lon="6.33264">
        <ele>1068</ele>
        <time>2019-05-04T19:24:38Z</time>
      </trkpt>
      <trkpt lat="46.65715" lon="6.33252">
        <ele>1069</ele>
        <time>2019-05-04T19:24:45Z</time>
      </trkpt>
      <trkpt lat="46.65704" lon="6.33228">
        <ele>1068</ele>
        <time>2019-05-04T19:24:59Z</time>
      </trkpt>
      <trkpt lat="46.65694" lon="6.33206">
        <ele>1067</ele>
        <time>2019-05-04T19:25:12Z</time>
      </trkpt>
      <trkpt lat="46.65688" lon="6.3319">
        <ele>1066</ele>
        <time>2019-05-04T19:25:22Z</time>
      </trkpt>
      <trkpt lat="46.65679" lon="6.33171">
        <ele>1066</ele>
        <time>2019-05-04T19:25:33Z</time>
      </trkpt>
      <trkpt lat="46.65672" lon="6.33155">
        <ele>1065</ele>
        <time>2019-05-04T19:25:43Z</time>
      </trkpt>
      <trkpt lat="46.65662" lon="6.33134">
        <ele>1065</ele>
        <time>2019-05-04T19:25:55Z</time>
      </trkpt>
      <trkpt lat="46.65653" lon="6.33113">
        <ele>1064</ele>
        <time>2019-05-04T19:26:08Z</time>
      </trkpt>
      <trkpt lat="46.65645" lon="6.33093">
        <ele>1063</ele>
        <time>2019-05-04T19:26:19Z</time>
      </trkpt>
      <trkpt lat="46.65639" lon="6.33078">
        <ele>1062</ele>
        <time>2019-05-04T19:26:28Z</time>
      </trkpt>
      <trkpt lat="46.65628" lon="6.33054">
        <ele>1061</ele>
        <time>2019-05-04T19:26:42Z</time>
      </trkpt>
      <trkpt lat="46.65618" lon="6.3303">
        <ele>1057</ele>
        <time>2019-05-04T19:26:56Z</time>
      </trkpt>
      <trkpt lat="46.65611" lon="6.33014">
        <ele>1055</ele>
        <time>2019-05-04T19:27:06Z</time>
      </trkpt>
      <trkpt lat="46.65596" lon="6.32995">
        <ele>1054</ele>
        <time>2019-05-04T19:27:20Z</time>
      </trkpt>
      <trkpt lat="46.65587" lon="6.32988">
        <ele>1055</ele>
        <time>2019-05-04T19:27:28Z</time>
      </trkpt>
      <trkpt lat="46.65579" lon="6.3298">
        <ele>1055</ele>
        <time>2019-05-04T19:27:34Z</time>
      </trkpt>
      <trkpt lat="46.65562" lon="6.32966">
        <ele>1056</ele>
        <time>2019-05-04T19:27:49Z</time>
      </trkpt>
      <trkpt lat="46.65546" lon="6.32949">
        <ele>1055</ele>
        <time>2019-05-04T19:28:03Z</time>
      </trkpt>
      <trkpt lat="46.65531" lon="6.32932">
        <ele>1054</ele>
        <time>2019-05-04T19:28:17Z</time>
      </trkpt>
      <trkpt lat="46.65515" lon="6.32915">
        <ele>1052</ele>
        <time>2019-05-04T19:28:31Z</time>
      </trkpt>
      <trkpt lat="46.65501" lon="6.32896">
        <ele>1051</ele>
        <time>2019-05-04T19:28:45Z</time>
      </trkpt>
      <trkpt lat="46.65484" lon="6.32879">
        <ele>1050</ele>
        <time>2019-05-04T19:29:00Z</time>
      </trkpt>
      <trkpt lat="46.65469" lon="6.32865">
        <ele>1050</ele>
        <time>2019-05-04T19:29:13Z</time>
      </trkpt>
      <trkpt lat="46.65461" lon="6.32854">
        <ele>1049</ele>
        <time>2019-05-04T19:29:21Z</time>
      </trkpt>
      <trkpt lat="46.65449" lon="6.32842">
        <ele>1050</ele>
        <time>2019-05-04T19:29:31Z</time>
      </trkpt>
      <trkpt lat="46.65434" lon="6.32827">
        <ele>1050</ele>
        <time>2019-05-04T19:29:44Z</time>
      </trkpt>
      <trkpt lat="46.65418" lon="6.32811">
        <ele>1050</ele>
        <time>2019-05-04T19:29:59Z</time>
      </trkpt>
      <trkpt lat="46.65412" lon="6.32804">
        <ele>1049</ele>
        <time>2019-05-04T19:30:04Z</time>
      </trkpt>
      <trkpt lat="46.65398" lon="6.32786">
        <ele>1048</ele>
        <time>2019-05-04T19:30:18Z</time>
      </trkpt>
      <trkpt lat="46.65394" lon="6.32781">
        <ele>1047</ele>
        <time>2019-05-04T19:30:22Z</time>
      </trkpt>
      <trkpt lat="46.65377" lon="6.32763">
        <ele>1047</ele>
        <time>2019-05-04T19:30:37Z</time>
      </trkpt>
      <trkpt lat="46.65373" lon="6.32758">
        <ele>1048</ele>
        <time>2019-05-04T19:30:41Z</time>
      </trkpt>
      <trkpt lat="46.65359" lon="6.32742">
        <ele>1047</ele>
        <time>2019-05-04T19:30:54Z</time>
      </trkpt>
      <trkpt lat="46.65344" lon="6.32724">
        <ele>1046</ele>
        <time>2019-05-04T19:31:08Z</time>
      </trkpt>
      <trkpt lat="46.65329" lon="6.32708">
        <ele>1046</ele>
        <time>2019-05-04T19:31:21Z</time>
      </trkpt>
      <trkpt lat="46.65313" lon="6.32692">
        <ele>1046</ele>
        <time>2019-05-04T19:31:35Z</time>
      </trkpt>
      <trkpt lat="46.65301" lon="6.32683">
        <ele>1046</ele>
        <time>2019-05-04T19:31:44Z</time>
      </trkpt>
      <trkpt lat="46.65287" lon="6.32667">
        <ele>1046</ele>
        <time>2019-05-04T19:31:57Z</time>
      </trkpt>
      <trkpt lat="46.65271" lon="6.32649">
        <ele>1046</ele>
        <time>2019-05-04T19:32:12Z</time>
      </trkpt>
      <trkpt lat="46.65256" lon="6.3263">
        <ele>1048</ele>
        <time>2019-05-04T19:32:27Z</time>
      </trkpt>
      <trkpt lat="46.65241" lon="6.32611">
        <ele>1050</ele>
        <time>2019-05-04T19:32:41Z</time>
      </trkpt>
      <trkpt lat="46.65237" lon="6.32606">
        <ele>1051</ele>
        <time>2019-05-04T19:32:45Z</time>
      </trkpt>
      <trkpt lat="46.65223" lon="6.32584">
        <ele>1051</ele>
        <time>2019-05-04T19:33:00Z</time>
      </trkpt>
      <trkpt lat="46.65213" lon="6.32564">
        <ele>1049</ele>
        <time>2019-05-04T19:33:12Z</time>
      </trkpt>
      <trkpt lat="46.65201" lon="6.32544">
        <ele>1047</ele>
        <time>2019-05-04T19:33:25Z</time>
      </trkpt>
      <trkpt lat="46.65192" lon="6.32529">
        <ele>1046</ele>
        <time>2019-05-04T19:33:35Z</time>
      </trkpt>
      <trkpt lat="46.65178" lon="6.32509">
        <ele>1046</ele>
        <time>2019-05-04T19:33:50Z</time>
      </trkpt>
      <trkpt lat="46.65172" lon="6.32501">
        <ele>1046</ele>
        <time>2019-05-04T19:33:55Z</time>
      </trkpt>
      <trkpt lat="46.65162" lon="6.32488">
        <ele>1046</ele>
        <time>2019-05-04T19:34:05Z</time>
      </trkpt>
      <trkpt lat="46.65148" lon="6.3247">
        <ele>1047</ele>
        <time>2019-05-04T19:34:18Z</time>
      </trkpt>
      <trkpt lat="46.65144" lon="6.32465">
        <ele>1047</ele>
        <time>2019-05-04T19:34:22Z</time>
      </trkpt>
      <trkpt lat="46.65138" lon="6.32457">
        <ele>1047</ele>
        <time>2019-05-04T19:34:28Z</time>
      </trkpt>
      <trkpt lat="46.65129" lon="6.32444">
        <ele>1047</ele>
        <time>2019-05-04T19:34:38Z</time>
      </trkpt>
      <trkpt lat="46.65119" lon="6.3243">
        <ele>1047</ele>
        <time>2019-05-04T19:34:48Z</time>
      </trkpt>
      <trkpt lat="46.65112" lon="6.32418">
        <ele>1046</ele>
        <time>2019-05-04T19:34:55Z</time>
      </trkpt>
      <trkpt lat="46.65099" lon="6.324">
        <ele>1045</ele>
        <time>2019-05-04T19:35:08Z</time>
      </trkpt>
      <trkpt lat="46.65091" lon="6.32384">
        <ele>1044</ele>
        <time>2019-05-04T19:35:18Z</time>
      </trkpt>
      <trkpt lat="46.65089" lon="6.32378">
        <ele>1043</ele>
        <time>2019-05-04T19:35:21Z</time>
      </trkpt>
      <trkpt lat="46.65075" lon="6.32357">
        <ele>1043</ele>
        <time>2019-05-04T19:35:36Z</time>
      </trkpt>
      <trkpt lat="46.65067" lon="6.32338">
        <ele>1042</ele>
        <time>2019-05-04T19:35:47Z</time>
      </trkpt>
      <trkpt lat="46.6506" lon="6.32324">
        <ele>1042</ele>
        <time>2019-05-04T19:35:56Z</time>
      </trkpt>
      <trkpt lat="46.65054" lon="6.32311">
        <ele>1042</ele>
        <time>2019-05-04T19:36:04Z</time>
      </trkpt>
      <trkpt lat="46.65044" lon="6.32287">
        <ele>1040</ele>
        <time>2019-05-04T19:36:17Z</time>
      </trkpt>
      <trkpt lat="46.65043" lon="6.32284">
        <ele>1040</ele>
        <time>2019-05-04T19:36:19Z</time>
      </trkpt>
      <trkpt lat="46.65035" lon="6.32263">
        <ele>1038</ele>
        <time>2019-05-04T19:36:31Z</time>
      </trkpt>
      <trkpt lat="46.65025" lon="6.32237">
        <ele>1035</ele>
        <time>2019-05-04T19:36:46Z</time>
      </trkpt>
      <trkpt lat="46.65023" lon="6.32233">
        <ele>1034</ele>
        <time>2019-05-04T19:36:48Z</time>
      </trkpt>
      <trkpt lat="46.65014" lon="6.3221">
        <ele>1031</ele>
        <time>2019-05-04T19:37:02Z</time>
      </trkpt>
      <trkpt lat="46.65004" lon="6.32185">
        <ele>1027</ele>
        <time>2019-05-04T19:37:16Z</time>
      </trkpt>
      <trkpt lat="46.65003" lon="6.32182">
        <ele>1027</ele>
        <time>2019-05-04T19:37:18Z</time>
      </trkpt>
      <trkpt lat="46.64994" lon="6.32157">
        <ele>1025</ele>
        <time>2019-05-04T19:37:32Z</time>
      </trkpt>
      <trkpt lat="46.64991" lon="6.32151">
        <ele>1024</ele>
        <time>2019-05-04T19:37:36Z</time>
      </trkpt>
      <trkpt lat="46.64984" lon="6.32133">
        <ele>1021</ele>
        <time>2019-05-04T19:37:46Z</time>
      </trkpt>
      <trkpt lat="46.64976" lon="6.3211">
        <ele>1017</ele>
        <time>2019-05-04T19:38:00Z</time>
      </trkpt>
      <trkpt lat="46.64974" lon="6.32106">
        <ele>1017</ele>
        <time>2019-05-04T19:38:02Z</time>
      </trkpt>
      <trkpt lat="46.64966" lon="6.32082">
        <ele>1017</ele>
        <time>2019-05-04T19:38:15Z</time>
      </trkpt>
      <trkpt lat="46.64957" lon="6.32056">
        <ele>1017</ele>
        <time>2019-05-04T19:38:29Z</time>
      </trkpt>
      <trkpt lat="46.64957" lon="6.32053">
        <ele>1016</ele>
        <time>2019-05-04T19:38:31Z</time>
      </trkpt>
      <trkpt lat="46.6496" lon="6.32029">
        <ele>1015</ele>
        <time>2019-05-04T19:38:44Z</time>
      </trkpt>
      <trkpt lat="46.64954" lon="6.32022">
        <ele>1015</ele>
        <time>2019-05-04T19:38:49Z</time>
      </trkpt>
      <trkpt lat="46.64953" lon="6.32021">
        <ele>1015</ele>
        <time>2019-05-04T19:38:50Z</time>
      </trkpt>
      <trkpt lat="46.64948" lon="6.32018">
        <ele>1016</ele>
        <time>2019-05-04T19:38:54Z</time>
      </trkpt>
      <trkpt lat="46.64946" lon="6.32016">
        <ele>1016</ele>
        <time>2019-05-04T19:38:56Z</time>
      </trkpt>
      <trkpt lat="46.64929" lon="6.32">
        <ele>1016</ele>
        <time>2019-05-04T19:39:10Z</time>
      </trkpt>
      <trkpt lat="46.64912" lon="6.31989">
        <ele>1017</ele>
        <time>2019-05-04T19:39:24Z</time>
      </trkpt>
      <trkpt lat="46.64897" lon="6.31973">
        <ele>1017</ele>
        <time>2019-05-04T19:39:37Z</time>
      </trkpt>
      <trkpt lat="46.64893" lon="6.31967">
        <ele>1017</ele>
        <time>2019-05-04T19:39:41Z</time>
      </trkpt>
      <trkpt lat="46.64879" lon="6.31946">
        <ele>1016</ele>
        <time>2019-05-04T19:39:56Z</time>
      </trkpt>
      <trkpt lat="46.64873" lon="6.31937">
        <ele>1016</ele>
        <time>2019-05-04T19:40:02Z</time>
      </trkpt>
      <trkpt lat="46.6486" lon="6.31914">
        <ele>1016</ele>
        <time>2019-05-04T19:40:17Z</time>
      </trkpt>
      <trkpt lat="46.6485" lon="6.3189">
        <ele>1018</ele>
        <time>2019-05-04T19:40:31Z</time>
      </trkpt>
      <trkpt lat="46.64844" lon="6.31864">
        <ele>1017</ele>
        <time>2019-05-04T19:40:45Z</time>
      </trkpt>
      <trkpt lat="46.64837" lon="6.31837">
        <ele>1017</ele>
        <time>2019-05-04T19:40:59Z</time>
      </trkpt>
      <trkpt lat="46.64829" lon="6.31811">
        <ele>1016</ele>
        <time>2019-05-04T19:41:13Z</time>
      </trkpt>
      <trkpt lat="46.64822" lon="6.31784">
        <ele>1014</ele>
        <time>2019-05-04T19:41:28Z</time>
      </trkpt>
      <trkpt lat="46.64822" lon="6.31772">
        <ele>1013</ele>
        <time>2019-05-04T19:41:34Z</time>
      </trkpt>
      <trkpt lat="46.64823" lon="6.31767">
        <ele>1013</ele>
        <time>2019-05-04T19:41:36Z</time>
      </trkpt>
      <trkpt lat="46.64847" lon="6.31854">
        <ele>1015</ele>
        <time>2019-05-04T19:42:23Z</time>
      </trkpt>
      <trkpt lat="46.64851" lon="6.31867">
        <ele>1015</ele>
        <time>2019-05-04T19:42:30Z</time>
      </trkpt>
      <trkpt lat="46.64863" lon="6.31891">
        <ele>1014</ele>
        <time>2019-05-04T19:42:45Z</time>
      </trkpt>
      <trkpt lat="46.64874" lon="6.31914">
        <ele>1015</ele>
        <time>2019-05-04T19:42:58Z</time>
      </trkpt>
      <trkpt lat="46.64879" lon="6.31922">
        <ele>1015</ele>
        <time>2019-05-04T19:43:04Z</time>
      </trkpt>
      <trkpt lat="46.64888" lon="6.31933">
        <ele>1015</ele>
        <time>2019-05-04T19:43:12Z</time>
      </trkpt>
      <trkpt lat="46.64903" lon="6.31952">
        <ele>1015</ele>
        <time>2019-05-04T19:43:27Z</time>
      </trkpt>
      <trkpt lat="46.64912" lon="6.31964">
        <ele>1015</ele>
        <time>2019-05-04T19:43:36Z</time>
      </trkpt>
      <trkpt lat="46.64914" lon="6.31967">
        <ele>1015</ele>
        <time>2019-05-04T19:43:37Z</time>
      </trkpt>
      <trkpt lat="46.64924" lon="6.3199">
        <ele>1016</ele>
        <time>2019-05-04T19:43:51Z</time>
      </trkpt>
      <trkpt lat="46.64925" lon="6.31993">
        <ele>1016</ele>
        <time>2019-05-04T19:43:53Z</time>
      </trkpt>
      <trkpt lat="46.64924" lon="6.31998">
        <ele>1017</ele>
        <time>2019-05-04T19:43:55Z</time>
      </trkpt>
      <trkpt lat="46.64918" lon="6.32005">
        <ele>1018</ele>
        <time>2019-05-04T19:44:01Z</time>
      </trkpt>
      <trkpt lat="46.64911" lon="6.32009">
        <ele>1019</ele>
        <time>2019-05-04T19:44:07Z</time>
      </trkpt>
      <trkpt lat="46.64897" lon="6.32018">
        <ele>1021</ele>
        <time>2019-05-04T19:44:18Z</time>
      </trkpt>
      <trkpt lat="46.64893" lon="6.32019">
        <ele>1022</ele>
        <time>2019-05-04T19:44:21Z</time>
      </trkpt>
      <trkpt lat="46.64887" lon="6.32021">
        <ele>1023</ele>
        <time>2019-05-04T19:44:25Z</time>
      </trkpt>
      <trkpt lat="46.64884" lon="6.32026">
        <ele>1023</ele>
        <time>2019-05-04T19:44:28Z</time>
      </trkpt>
      <trkpt lat="46.6488" lon="6.32031">
        <ele>1024</ele>
        <time>2019-05-04T19:44:32Z</time>
      </trkpt>
      <trkpt lat="46.64866" lon="6.32047">
        <ele>1027</ele>
        <time>2019-05-04T19:44:45Z</time>
      </trkpt>
      <trkpt lat="46.64864" lon="6.32052">
        <ele>1027</ele>
        <time>2019-05-04T19:44:48Z</time>
      </trkpt>
      <trkpt lat="46.64857" lon="6.32059">
        <ele>1029</ele>
        <time>2019-05-04T19:44:55Z</time>
      </trkpt>
      <trkpt lat="46.64855" lon="6.32065">
        <ele>1030</ele>
        <time>2019-05-04T19:44:58Z</time>
      </trkpt>
      <trkpt lat="46.6485" lon="6.32075">
        <ele>1032</ele>
        <time>2019-05-04T19:45:04Z</time>
      </trkpt>
      <trkpt lat="46.64845" lon="6.32086">
        <ele>1034</ele>
        <time>2019-05-04T19:45:11Z</time>
      </trkpt>
      <trkpt lat="46.64838" lon="6.32092">
        <ele>1037</ele>
        <time>2019-05-04T19:45:17Z</time>
      </trkpt>
      <trkpt lat="46.64837" lon="6.32094">
        <ele>1037</ele>
        <time>2019-05-04T19:45:18Z</time>
      </trkpt>
      <trkpt lat="46.64819" lon="6.32101">
        <ele>1043</ele>
        <time>2019-05-04T19:45:32Z</time>
      </trkpt>
      <trkpt lat="46.64817" lon="6.32103">
        <ele>1043</ele>
        <time>2019-05-04T19:45:34Z</time>
      </trkpt>
      <trkpt lat="46.64815" lon="6.32105">
        <ele>1044</ele>
        <time>2019-05-04T19:45:36Z</time>
      </trkpt>
      <trkpt lat="46.6481" lon="6.3211">
        <ele>1045</ele>
        <time>2019-05-04T19:45:40Z</time>
      </trkpt>
      <trkpt lat="46.64806" lon="6.32115">
        <ele>1045</ele>
        <time>2019-05-04T19:45:44Z</time>
      </trkpt>
      <trkpt lat="46.64803" lon="6.32119">
        <ele>1046</ele>
        <time>2019-05-04T19:45:47Z</time>
      </trkpt>
      <trkpt lat="46.64802" lon="6.32121">
        <ele>1046</ele>
        <time>2019-05-04T19:45:48Z</time>
      </trkpt>
      <trkpt lat="46.64798" lon="6.32123">
        <ele>1046</ele>
        <time>2019-05-04T19:45:51Z</time>
      </trkpt>
      <trkpt lat="46.64794" lon="6.32126">
        <ele>1047</ele>
        <time>2019-05-04T19:45:54Z</time>
      </trkpt>
      <trkpt lat="46.64788" lon="6.32132">
        <ele>1047</ele>
        <time>2019-05-04T19:46:00Z</time>
      </trkpt>
      <trkpt lat="46.64784" lon="6.32135">
        <ele>1047</ele>
        <time>2019-05-04T19:46:03Z</time>
      </trkpt>
      <trkpt lat="46.64778" lon="6.32138">
        <ele>1047</ele>
        <time>2019-05-04T19:46:08Z</time>
      </trkpt>
      <trkpt lat="46.64773" lon="6.32138">
        <ele>1048</ele>
        <time>2019-05-04T19:46:11Z</time>
      </trkpt>
      <trkpt lat="46.64768" lon="6.32136">
        <ele>1050</ele>
        <time>2019-05-04T19:46:15Z</time>
      </trkpt>
      <trkpt lat="46.64763" lon="6.32131">
        <ele>1052</ele>
        <time>2019-05-04T19:46:20Z</time>
      </trkpt>
      <trkpt lat="46.64759" lon="6.32124">
        <ele>1054</ele>
        <time>2019-05-04T19:46:25Z</time>
      </trkpt>
      <trkpt lat="46.64758" lon="6.32121">
        <ele>1055</ele>
        <time>2019-05-04T19:46:27Z</time>
      </trkpt>
      <trkpt lat="46.64755" lon="6.32114">
        <ele>1057</ele>
        <time>2019-05-04T19:46:31Z</time>
      </trkpt>
      <trkpt lat="46.64751" lon="6.32104">
        <ele>1060</ele>
        <time>2019-05-04T19:46:37Z</time>
      </trkpt>
      <trkpt lat="46.6475" lon="6.32099">
        <ele>1061</ele>
        <time>2019-05-04T19:46:40Z</time>
      </trkpt>
      <trkpt lat="46.64747" lon="6.3209">
        <ele>1062</ele>
        <time>2019-05-04T19:46:44Z</time>
      </trkpt>
      <trkpt lat="46.64747" lon="6.32089">
        <ele>1062</ele>
        <time>2019-05-04T19:46:45Z</time>
      </trkpt>
      <trkpt lat="46.64746" lon="6.32084">
        <ele>1063</ele>
        <time>2019-05-04T19:46:48Z</time>
      </trkpt>
      <trkpt lat="46.6474" lon="6.32075">
        <ele>1065</ele>
        <time>2019-05-04T19:46:54Z</time>
      </trkpt>
      <trkpt lat="46.64738" lon="6.32072">
        <ele>1066</ele>
        <time>2019-05-04T19:46:56Z</time>
      </trkpt>
      <trkpt lat="46.64736" lon="6.3207">
        <ele>1066</ele>
        <time>2019-05-04T19:46:58Z</time>
      </trkpt>
      <trkpt lat="46.64731" lon="6.32068">
        <ele>1068</ele>
        <time>2019-05-04T19:47:02Z</time>
      </trkpt>
      <trkpt lat="46.64727" lon="6.32066">
        <ele>1068</ele>
        <time>2019-05-04T19:47:05Z</time>
      </trkpt>
      <trkpt lat="46.64722" lon="6.32064">
        <ele>1069</ele>
        <time>2019-05-04T19:47:09Z</time>
      </trkpt>
      <trkpt lat="46.64719" lon="6.32064">
        <ele>1070</ele>
        <time>2019-05-04T19:47:11Z</time>
      </trkpt>
      <trkpt lat="46.64712" lon="6.32063">
        <ele>1071</ele>
        <time>2019-05-04T19:47:16Z</time>
      </trkpt>
      <trkpt lat="46.64706" lon="6.32062">
        <ele>1073</ele>
        <time>2019-05-04T19:47:21Z</time>
      </trkpt>
      <trkpt lat="46.64699" lon="6.32063">
        <ele>1074</ele>
        <time>2019-05-04T19:47:25Z</time>
      </trkpt>
      <trkpt lat="46.64695" lon="6.32065">
        <ele>1074</ele>
        <time>2019-05-04T19:47:29Z</time>
      </trkpt>
      <trkpt lat="46.64691" lon="6.32067">
        <ele>1075</ele>
        <time>2019-05-04T19:47:32Z</time>
      </trkpt>
      <trkpt lat="46.64689" lon="6.32068">
        <ele>1075</ele>
        <time>2019-05-04T19:47:33Z</time>
      </trkpt>
      <trkpt lat="46.64685" lon="6.32071">
        <ele>1076</ele>
        <time>2019-05-04T19:47:37Z</time>
      </trkpt>
      <trkpt lat="46.6468" lon="6.32075">
        <ele>1078</ele>
        <time>2019-05-04T19:47:41Z</time>
      </trkpt>
      <trkpt lat="46.64678" lon="6.32076">
        <ele>1078</ele>
        <time>2019-05-04T19:47:43Z</time>
      </trkpt>
      <trkpt lat="46.64673" lon="6.32079">
        <ele>1079</ele>
        <time>2019-05-04T19:47:47Z</time>
      </trkpt>
      <trkpt lat="46.6467" lon="6.3208">
        <ele>1080</ele>
        <time>2019-05-04T19:47:49Z</time>
      </trkpt>
      <trkpt lat="46.64667" lon="6.32081">
        <ele>1081</ele>
        <time>2019-05-04T19:47:51Z</time>
      </trkpt>
      <trkpt lat="46.64661" lon="6.32083">
        <ele>1082</ele>
        <time>2019-05-04T19:47:55Z</time>
      </trkpt>
      <trkpt lat="46.64653" lon="6.32085">
        <ele>1084</ele>
        <time>2019-05-04T19:48:01Z</time>
      </trkpt>
      <trkpt lat="46.64648" lon="6.32089">
        <ele>1086</ele>
        <time>2019-05-04T19:48:06Z</time>
      </trkpt>
      <trkpt lat="46.64638" lon="6.32098">
        <ele>1088</ele>
        <time>2019-05-04T19:48:14Z</time>
      </trkpt>
      <trkpt lat="46.64635" lon="6.32103">
        <ele>1089</ele>
        <time>2019-05-04T19:48:18Z</time>
      </trkpt>
      <trkpt lat="46.64632" lon="6.32109">
        <ele>1089</ele>
        <time>2019-05-04T19:48:22Z</time>
      </trkpt>
      <trkpt lat="46.64629" lon="6.32115">
        <ele>1089</ele>
        <time>2019-05-04T19:48:25Z</time>
      </trkpt>
      <trkpt lat="46.64623" lon="6.32123">
        <ele>1090</ele>
        <time>2019-05-04T19:48:31Z</time>
      </trkpt>
      <trkpt lat="46.6462" lon="6.32126">
        <ele>1091</ele>
        <time>2019-05-04T19:48:34Z</time>
      </trkpt>
      <trkpt lat="46.64613" lon="6.32132">
        <ele>1092</ele>
        <time>2019-05-04T19:48:39Z</time>
      </trkpt>
      <trkpt lat="46.64609" lon="6.32139">
        <ele>1093</ele>
        <time>2019-05-04T19:48:44Z</time>
      </trkpt>
      <trkpt lat="46.64605" lon="6.32145">
        <ele>1094</ele>
        <time>2019-05-04T19:48:49Z</time>
      </trkpt>
      <trkpt lat="46.64601" lon="6.32151">
        <ele>1095</ele>
        <time>2019-05-04T19:48:53Z</time>
      </trkpt>
      <trkpt lat="46.64598" lon="6.32159">
        <ele>1095</ele>
        <time>2019-05-04T19:48:57Z</time>
      </trkpt>
      <trkpt lat="46.64597" lon="6.3216">
        <ele>1095</ele>
        <time>2019-05-04T19:48:58Z</time>
      </trkpt>
      <trkpt lat="46.64593" lon="6.32166">
        <ele>1096</ele>
        <time>2019-05-04T19:49:02Z</time>
      </trkpt>
      <trkpt lat="46.64589" lon="6.32172">
        <ele>1097</ele>
        <time>2019-05-04T19:49:06Z</time>
      </trkpt>
      <trkpt lat="46.64588" lon="6.32177">
        <ele>1097</ele>
        <time>2019-05-04T19:49:09Z</time>
      </trkpt>
      <trkpt lat="46.64587" lon="6.32184">
        <ele>1097</ele>
        <time>2019-05-04T19:49:12Z</time>
      </trkpt>
      <trkpt lat="46.64584" lon="6.32193">
        <ele>1098</ele>
        <time>2019-05-04T19:49:17Z</time>
      </trkpt>
      <trkpt lat="46.64583" lon="6.32199">
        <ele>1099</ele>
        <time>2019-05-04T19:49:21Z</time>
      </trkpt>
      <trkpt lat="46.64582" lon="6.32209">
        <ele>1099</ele>
        <time>2019-05-04T19:49:26Z</time>
      </trkpt>
      <trkpt lat="46.64581" lon="6.32216">
        <ele>1100</ele>
        <time>2019-05-04T19:49:29Z</time>
      </trkpt>
      <trkpt lat="46.64579" lon="6.32222">
        <ele>1101</ele>
        <time>2019-05-04T19:49:33Z</time>
      </trkpt>
      <trkpt lat="46.64575" lon="6.32228">
        <ele>1102</ele>
        <time>2019-05-04T19:49:37Z</time>
      </trkpt>
      <trkpt lat="46.6457" lon="6.32234">
        <ele>1104</ele>
        <time>2019-05-04T19:49:42Z</time>
      </trkpt>
      <trkpt lat="46.64566" lon="6.32239">
        <ele>1105</ele>
        <time>2019-05-04T19:49:45Z</time>
      </trkpt>
      <trkpt lat="46.64559" lon="6.32243">
        <ele>1108</ele>
        <time>2019-05-04T19:49:51Z</time>
      </trkpt>
      <trkpt lat="46.64553" lon="6.32246">
        <ele>1110</ele>
        <time>2019-05-04T19:49:56Z</time>
      </trkpt>
      <trkpt lat="46.6455" lon="6.32248">
        <ele>1111</ele>
        <time>2019-05-04T19:49:58Z</time>
      </trkpt>
      <trkpt lat="46.64543" lon="6.3225">
        <ele>1113</ele>
        <time>2019-05-04T19:50:04Z</time>
      </trkpt>
      <trkpt lat="46.64538" lon="6.32251">
        <ele>1115</ele>
        <time>2019-05-04T19:50:08Z</time>
      </trkpt>
      <trkpt lat="46.64529" lon="6.32252">
        <ele>1117</ele>
        <time>2019-05-04T19:50:14Z</time>
      </trkpt>
      <trkpt lat="46.64524" lon="6.32252">
        <ele>1119</ele>
        <time>2019-05-04T19:50:18Z</time>
      </trkpt>
      <trkpt lat="46.6452" lon="6.32251">
        <ele>1120</ele>
        <time>2019-05-04T19:50:21Z</time>
      </trkpt>
      <trkpt lat="46.64511" lon="6.32245">
        <ele>1122</ele>
        <time>2019-05-04T19:50:28Z</time>
      </trkpt>
      <trkpt lat="46.64504" lon="6.32241">
        <ele>1124</ele>
        <time>2019-05-04T19:50:34Z</time>
      </trkpt>
      <trkpt lat="46.64498" lon="6.32237">
        <ele>1126</ele>
        <time>2019-05-04T19:50:39Z</time>
      </trkpt>
      <trkpt lat="46.64486" lon="6.32234">
        <ele>1129</ele>
        <time>2019-05-04T19:50:47Z</time>
      </trkpt>
      <trkpt lat="46.64482" lon="6.32234">
        <ele>1130</ele>
        <time>2019-05-04T19:50:50Z</time>
      </trkpt>
      <trkpt lat="46.64475" lon="6.32237">
        <ele>1131</ele>
        <time>2019-05-04T19:50:56Z</time>
      </trkpt>
      <trkpt lat="46.64472" lon="6.32237">
        <ele>1132</ele>
        <time>2019-05-04T19:50:58Z</time>
      </trkpt>
      <trkpt lat="46.64471" lon="6.32237">
        <ele>1132</ele>
        <time>2019-05-04T19:50:59Z</time>
      </trkpt>
      <trkpt lat="46.64467" lon="6.32237">
        <ele>1133</ele>
        <time>2019-05-04T19:51:02Z</time>
      </trkpt>
      <trkpt lat="46.64463" lon="6.32238">
        <ele>1134</ele>
        <time>2019-05-04T19:51:05Z</time>
      </trkpt>
      <trkpt lat="46.6446" lon="6.32238">
        <ele>1135</ele>
        <time>2019-05-04T19:51:07Z</time>
      </trkpt>
      <trkpt lat="46.64455" lon="6.32239">
        <ele>1136</ele>
        <time>2019-05-04T19:51:11Z</time>
      </trkpt>
      <trkpt lat="46.64447" lon="6.32241">
        <ele>1138</ele>
        <time>2019-05-04T19:51:17Z</time>
      </trkpt>
      <trkpt lat="46.6444" lon="6.32242">
        <ele>1139</ele>
        <time>2019-05-04T19:51:22Z</time>
      </trkpt>
      <trkpt lat="46.64433" lon="6.32241">
        <ele>1142</ele>
        <time>2019-05-04T19:51:27Z</time>
      </trkpt>
      <trkpt lat="46.64429" lon="6.32242">
        <ele>1143</ele>
        <time>2019-05-04T19:51:30Z</time>
      </trkpt>
      <trkpt lat="46.64427" lon="6.32243">
        <ele>1143</ele>
        <time>2019-05-04T19:51:32Z</time>
      </trkpt>
      <trkpt lat="46.64425" lon="6.32243">
        <ele>1144</ele>
        <time>2019-05-04T19:51:34Z</time>
      </trkpt>
      <trkpt lat="46.6442" lon="6.32248">
        <ele>1145</ele>
        <time>2019-05-04T19:51:38Z</time>
      </trkpt>
      <trkpt lat="46.64416" lon="6.32252">
        <ele>1146</ele>
        <time>2019-05-04T19:51:42Z</time>
      </trkpt>
      <trkpt lat="46.64409" lon="6.32259">
        <ele>1147</ele>
        <time>2019-05-04T19:51:48Z</time>
      </trkpt>
      <trkpt lat="46.64406" lon="6.32262">
        <ele>1147</ele>
        <time>2019-05-04T19:51:50Z</time>
      </trkpt>
      <trkpt lat="46.64404" lon="6.32267">
        <ele>1147</ele>
        <time>2019-05-04T19:51:53Z</time>
      </trkpt>
      <trkpt lat="46.64402" lon="6.32274">
        <ele>1147</ele>
        <time>2019-05-04T19:51:57Z</time>
      </trkpt>
      <trkpt lat="46.64401" lon="6.32279">
        <ele>1148</ele>
        <time>2019-05-04T19:52:00Z</time>
      </trkpt>
      <trkpt lat="46.64399" lon="6.32296">
        <ele>1148</ele>
        <time>2019-05-04T19:52:08Z</time>
      </trkpt>
      <trkpt lat="46.64401" lon="6.32307">
        <ele>1148</ele>
        <time>2019-05-04T19:52:14Z</time>
      </trkpt>
      <trkpt lat="46.64404" lon="6.32311">
        <ele>1147</ele>
        <time>2019-05-04T19:52:17Z</time>
      </trkpt>
      <trkpt lat="46.64408" lon="6.32316">
        <ele>1146</ele>
        <time>2019-05-04T19:52:21Z</time>
      </trkpt>
      <trkpt lat="46.64414" lon="6.32319">
        <ele>1145</ele>
        <time>2019-05-04T19:52:25Z</time>
      </trkpt>
      <trkpt lat="46.6442" lon="6.3232">
        <ele>1143</ele>
        <time>2019-05-04T19:52:30Z</time>
      </trkpt>
      <trkpt lat="46.64433" lon="6.3232">
        <ele>1140</ele>
        <time>2019-05-04T19:52:39Z</time>
      </trkpt>
      <trkpt lat="46.64438" lon="6.3232">
        <ele>1139</ele>
        <time>2019-05-04T19:52:43Z</time>
      </trkpt>
      <trkpt lat="46.64448" lon="6.32329">
        <ele>1137</ele>
        <time>2019-05-04T19:52:52Z</time>
      </trkpt>
      <trkpt lat="46.64456" lon="6.32344">
        <ele>1137</ele>
        <time>2019-05-04T19:53:01Z</time>
      </trkpt>
      <trkpt lat="46.64455" lon="6.3235">
        <ele>1138</ele>
        <time>2019-05-04T19:53:05Z</time>
      </trkpt>
      <trkpt lat="46.64449" lon="6.32354">
        <ele>1139</ele>
        <time>2019-05-04T19:53:09Z</time>
      </trkpt>
      <trkpt lat="46.64443" lon="6.32361">
        <ele>1141</ele>
        <time>2019-05-04T19:53:15Z</time>
      </trkpt>
      <trkpt lat="46.64433" lon="6.32367">
        <ele>1145</ele>
        <time>2019-05-04T19:53:23Z</time>
      </trkpt>
      <trkpt lat="46.64428" lon="6.3237">
        <ele>1146</ele>
        <time>2019-05-04T19:53:28Z</time>
      </trkpt>
      <trkpt lat="46.64424" lon="6.32371">
        <ele>1147</ele>
        <time>2019-05-04T19:53:30Z</time>
      </trkpt>
      <trkpt lat="46.64418" lon="6.32373">
        <ele>1148</ele>
        <time>2019-05-04T19:53:35Z</time>
      </trkpt>
      <trkpt lat="46.64413" lon="6.32373">
        <ele>1149</ele>
        <time>2019-05-04T19:53:39Z</time>
      </trkpt>
      <trkpt lat="46.64407" lon="6.32375">
        <ele>1151</ele>
        <time>2019-05-04T19:53:43Z</time>
      </trkpt>
      <trkpt lat="46.64403" lon="6.32378">
        <ele>1152</ele>
        <time>2019-05-04T19:53:47Z</time>
      </trkpt>
      <trkpt lat="46.64399" lon="6.32379">
        <ele>1153</ele>
        <time>2019-05-04T19:53:50Z</time>
      </trkpt>
      <trkpt lat="46.64391" lon="6.3238">
        <ele>1154</ele>
        <time>2019-05-04T19:53:55Z</time>
      </trkpt>
      <trkpt lat="46.64388" lon="6.32381">
        <ele>1155</ele>
        <time>2019-05-04T19:53:58Z</time>
      </trkpt>
      <trkpt lat="46.64382" lon="6.32384">
        <ele>1156</ele>
        <time>2019-05-04T19:54:02Z</time>
      </trkpt>
      <trkpt lat="46.64381" lon="6.32384">
        <ele>1157</ele>
        <time>2019-05-04T19:54:03Z</time>
      </trkpt>
      <trkpt lat="46.64376" lon="6.32384">
        <ele>1158</ele>
        <time>2019-05-04T19:54:07Z</time>
      </trkpt>
      <trkpt lat="46.64371" lon="6.32384">
        <ele>1158</ele>
        <time>2019-05-04T19:54:10Z</time>
      </trkpt>
      <trkpt lat="46.64363" lon="6.32385">
        <ele>1160</ele>
        <time>2019-05-04T19:54:16Z</time>
      </trkpt>
      <trkpt lat="46.64353" lon="6.32383">
        <ele>1162</ele>
        <time>2019-05-04T19:54:24Z</time>
      </trkpt>
      <trkpt lat="46.64338" lon="6.32386">
        <ele>1165</ele>
        <time>2019-05-04T19:54:35Z</time>
      </trkpt>
      <trkpt lat="46.64326" lon="6.32387">
        <ele>1168</ele>
        <time>2019-05-04T19:54:44Z</time>
      </trkpt>
      <trkpt lat="46.64323" lon="6.32387">
        <ele>1169</ele>
        <time>2019-05-04T19:54:46Z</time>
      </trkpt>
      <trkpt lat="46.64304" lon="6.32384">
        <ele>1172</ele>
        <time>2019-05-04T19:55:00Z</time>
      </trkpt>
      <trkpt lat="46.64295" lon="6.32378">
        <ele>1174</ele>
        <time>2019-05-04T19:55:07Z</time>
      </trkpt>
      <trkpt lat="46.643" lon="6.32376">
        <ele>1173</ele>
        <time>2019-05-04T19:55:11Z</time>
      </trkpt>
      <trkpt lat="46.64302" lon="6.32375">
        <ele>1172</ele>
        <time>2019-05-04T19:55:13Z</time>
      </trkpt>
      <trkpt lat="46.6432" lon="6.32373">
        <ele>1168</ele>
        <time>2019-05-04T19:55:26Z</time>
      </trkpt>
      <trkpt lat="46.64323" lon="6.32372">
        <ele>1167</ele>
        <time>2019-05-04T19:55:28Z</time>
      </trkpt>
      <trkpt lat="46.64336" lon="6.32368">
        <ele>1164</ele>
        <time>2019-05-04T19:55:38Z</time>
      </trkpt>
      <trkpt lat="46.64339" lon="6.32369">
        <ele>1163</ele>
        <time>2019-05-04T19:55:40Z</time>
      </trkpt>
      <trkpt lat="46.64344" lon="6.32369">
        <ele>1162</ele>
        <time>2019-05-04T19:55:44Z</time>
      </trkpt>
      <trkpt lat="46.64353" lon="6.32368">
        <ele>1160</ele>
        <time>2019-05-04T19:55:51Z</time>
      </trkpt>
      <trkpt lat="46.64362" lon="6.32368">
        <ele>1158</ele>
        <time>2019-05-04T19:55:57Z</time>
      </trkpt>
      <trkpt lat="46.64369" lon="6.3237">
        <ele>1157</ele>
        <time>2019-05-04T19:56:03Z</time>
      </trkpt>
      <trkpt lat="46.6437" lon="6.3237">
        <ele>1156</ele>
        <time>2019-05-04T19:56:04Z</time>
      </trkpt>
      <trkpt lat="46.64384" lon="6.32367">
        <ele>1153</ele>
        <time>2019-05-04T19:56:14Z</time>
      </trkpt>
      <trkpt lat="46.64385" lon="6.32366">
        <ele>1153</ele>
        <time>2019-05-04T19:56:15Z</time>
      </trkpt>
      <trkpt lat="46.64389" lon="6.32364">
        <ele>1152</ele>
        <time>2019-05-04T19:56:18Z</time>
      </trkpt>
      <trkpt lat="46.64401" lon="6.32363">
        <ele>1150</ele>
        <time>2019-05-04T19:56:26Z</time>
      </trkpt>
      <trkpt lat="46.64409" lon="6.32362">
        <ele>1148</ele>
        <time>2019-05-04T19:56:32Z</time>
      </trkpt>
      <trkpt lat="46.64413" lon="6.3236">
        <ele>1147</ele>
        <time>2019-05-04T19:56:35Z</time>
      </trkpt>
      <trkpt lat="46.64415" lon="6.32358">
        <ele>1146</ele>
        <time>2019-05-04T19:56:37Z</time>
      </trkpt>
      <trkpt lat="46.64423" lon="6.32355">
        <ele>1144</ele>
        <time>2019-05-04T19:56:43Z</time>
      </trkpt>
      <trkpt lat="46.64427" lon="6.32353">
        <ele>1143</ele>
        <time>2019-05-04T19:56:47Z</time>
      </trkpt>
      <trkpt lat="46.64435" lon="6.32351">
        <ele>1142</ele>
        <time>2019-05-04T19:56:52Z</time>
      </trkpt>
      <trkpt lat="46.64444" lon="6.3235">
        <ele>1140</ele>
        <time>2019-05-04T19:56:59Z</time>
      </trkpt>
      <trkpt lat="46.64446" lon="6.32354">
        <ele>1140</ele>
        <time>2019-05-04T19:57:01Z</time>
      </trkpt>
      <trkpt lat="46.64445" lon="6.32358">
        <ele>1140</ele>
        <time>2019-05-04T19:57:03Z</time>
      </trkpt>
      <trkpt lat="46.64439" lon="6.3237">
        <ele>1144</ele>
        <time>2019-05-04T19:57:12Z</time>
      </trkpt>
      <trkpt lat="46.64431" lon="6.32378">
        <ele>1147</ele>
        <time>2019-05-04T19:57:19Z</time>
      </trkpt>
      <trkpt lat="46.64427" lon="6.3238">
        <ele>1148</ele>
        <time>2019-05-04T19:57:22Z</time>
      </trkpt>
      <trkpt lat="46.64425" lon="6.32381">
        <ele>1149</ele>
        <time>2019-05-04T19:57:23Z</time>
      </trkpt>
      <trkpt lat="46.6442" lon="6.32385">
        <ele>1150</ele>
        <time>2019-05-04T19:57:28Z</time>
      </trkpt>
      <trkpt lat="46.64417" lon="6.32386">
        <ele>1151</ele>
        <time>2019-05-04T19:57:30Z</time>
      </trkpt>
      <trkpt lat="46.64412" lon="6.32389">
        <ele>1152</ele>
        <time>2019-05-04T19:57:34Z</time>
      </trkpt>
      <trkpt lat="46.64411" lon="6.3239">
        <ele>1153</ele>
        <time>2019-05-04T19:57:35Z</time>
      </trkpt>
      <trkpt lat="46.64407" lon="6.32393">
        <ele>1154</ele>
        <time>2019-05-04T19:57:39Z</time>
      </trkpt>
      <trkpt lat="46.644" lon="6.32397">
        <ele>1156</ele>
        <time>2019-05-04T19:57:44Z</time>
      </trkpt>
      <trkpt lat="46.64395" lon="6.32401">
        <ele>1157</ele>
        <time>2019-05-04T19:57:48Z</time>
      </trkpt>
      <trkpt lat="46.64392" lon="6.32403">
        <ele>1158</ele>
        <time>2019-05-04T19:57:50Z</time>
      </trkpt>
      <trkpt lat="46.64386" lon="6.32408">
        <ele>1160</ele>
        <time>2019-05-04T19:57:55Z</time>
      </trkpt>
      <trkpt lat="46.64386" lon="6.32409">
        <ele>1160</ele>
        <time>2019-05-04T19:57:56Z</time>
      </trkpt>
      <trkpt lat="46.64383" lon="6.32412">
        <ele>1161</ele>
        <time>2019-05-04T19:57:59Z</time>
      </trkpt>
      <trkpt lat="46.64379" lon="6.32415">
        <ele>1162</ele>
        <time>2019-05-04T19:58:02Z</time>
      </trkpt>
      <trkpt lat="46.64377" lon="6.32416">
        <ele>1162</ele>
        <time>2019-05-04T19:58:03Z</time>
      </trkpt>
      <trkpt lat="46.64373" lon="6.32418">
        <ele>1163</ele>
        <time>2019-05-04T19:58:07Z</time>
      </trkpt>
      <trkpt lat="46.64368" lon="6.32421">
        <ele>1164</ele>
        <time>2019-05-04T19:58:10Z</time>
      </trkpt>
      <trkpt lat="46.64367" lon="6.32421">
        <ele>1165</ele>
        <time>2019-05-04T19:58:12Z</time>
      </trkpt>
      <trkpt lat="46.64362" lon="6.32423">
        <ele>1166</ele>
        <time>2019-05-04T19:58:16Z</time>
      </trkpt>
      <trkpt lat="46.6436" lon="6.32425">
        <ele>1166</ele>
        <time>2019-05-04T19:58:17Z</time>
      </trkpt>
      <trkpt lat="46.64358" lon="6.32427">
        <ele>1167</ele>
        <time>2019-05-04T19:58:19Z</time>
      </trkpt>
      <trkpt lat="46.64357" lon="6.32427">
        <ele>1167</ele>
        <time>2019-05-04T19:58:19Z</time>
      </trkpt>
      <trkpt lat="46.64353" lon="6.32429">
        <ele>1168</ele>
        <time>2019-05-04T19:58:23Z</time>
      </trkpt>
      <trkpt lat="46.64351" lon="6.32431">
        <ele>1168</ele>
        <time>2019-05-04T19:58:24Z</time>
      </trkpt>
      <trkpt lat="46.64346" lon="6.32433">
        <ele>1170</ele>
        <time>2019-05-04T19:58:28Z</time>
      </trkpt>
      <trkpt lat="46.64342" lon="6.32437">
        <ele>1171</ele>
        <time>2019-05-04T19:58:32Z</time>
      </trkpt>
      <trkpt lat="46.64335" lon="6.32443">
        <ele>1173</ele>
        <time>2019-05-04T19:58:38Z</time>
      </trkpt>
      <trkpt lat="46.64327" lon="6.32442">
        <ele>1174</ele>
        <time>2019-05-04T19:58:44Z</time>
      </trkpt>
      <trkpt lat="46.64326" lon="6.32443">
        <ele>1175</ele>
        <time>2019-05-04T19:58:45Z</time>
      </trkpt>
      <trkpt lat="46.64324" lon="6.32445">
        <ele>1175</ele>
        <time>2019-05-04T19:58:47Z</time>
      </trkpt>
      <trkpt lat="46.64323" lon="6.32445">
        <ele>1176</ele>
        <time>2019-05-04T19:58:48Z</time>
      </trkpt>
      <trkpt lat="46.64318" lon="6.32448">
        <ele>1177</ele>
        <time>2019-05-04T19:58:52Z</time>
      </trkpt>
      <trkpt lat="46.64317" lon="6.32448">
        <ele>1178</ele>
        <time>2019-05-04T19:58:53Z</time>
      </trkpt>
      <trkpt lat="46.64311" lon="6.3245">
        <ele>1179</ele>
        <time>2019-05-04T19:58:57Z</time>
      </trkpt>
      <trkpt lat="46.64304" lon="6.3245">
        <ele>1180</ele>
        <time>2019-05-04T19:59:02Z</time>
      </trkpt>
      <trkpt lat="46.64303" lon="6.32451">
        <ele>1180</ele>
        <time>2019-05-04T19:59:03Z</time>
      </trkpt>
      <trkpt lat="46.64302" lon="6.32452">
        <ele>1181</ele>
        <time>2019-05-04T19:59:04Z</time>
      </trkpt>
      <trkpt lat="46.64294" lon="6.32455">
        <ele>1183</ele>
        <time>2019-05-04T19:59:10Z</time>
      </trkpt>
      <trkpt lat="46.6429" lon="6.32458">
        <ele>1184</ele>
        <time>2019-05-04T19:59:13Z</time>
      </trkpt>
      <trkpt lat="46.64287" lon="6.32458">
        <ele>1185</ele>
        <time>2019-05-04T19:59:16Z</time>
      </trkpt>
      <trkpt lat="46.64284" lon="6.32459">
        <ele>1185</ele>
        <time>2019-05-04T19:59:18Z</time>
      </trkpt>
      <trkpt lat="46.64279" lon="6.3246">
        <ele>1186</ele>
        <time>2019-05-04T19:59:21Z</time>
      </trkpt>
      <trkpt lat="46.64274" lon="6.3246">
        <ele>1187</ele>
        <time>2019-05-04T19:59:25Z</time>
      </trkpt>
      <trkpt lat="46.64264" lon="6.3246">
        <ele>1189</ele>
        <time>2019-05-04T19:59:33Z</time>
      </trkpt>
      <trkpt lat="46.6426" lon="6.32462">
        <ele>1190</ele>
        <time>2019-05-04T19:59:36Z</time>
      </trkpt>
      <trkpt lat="46.64252" lon="6.32466">
        <ele>1193</ele>
        <time>2019-05-04T19:59:42Z</time>
      </trkpt>
      <trkpt lat="46.64251" lon="6.32466">
        <ele>1193</ele>
        <time>2019-05-04T19:59:42Z</time>
      </trkpt>
      <trkpt lat="46.64249" lon="6.32467">
        <ele>1193</ele>
        <time>2019-05-04T19:59:44Z</time>
      </trkpt>
      <trkpt lat="46.64242" lon="6.32471">
        <ele>1195</ele>
        <time>2019-05-04T19:59:50Z</time>
      </trkpt>
      <trkpt lat="46.64239" lon="6.32473">
        <ele>1196</ele>
        <time>2019-05-04T19:59:52Z</time>
      </trkpt>
      <trkpt lat="46.64235" lon="6.32473">
        <ele>1197</ele>
        <time>2019-05-04T19:59:55Z</time>
      </trkpt>
      <trkpt lat="46.64231" lon="6.32474">
        <ele>1198</ele>
        <time>2019-05-04T19:59:58Z</time>
      </trkpt>
      <trkpt lat="46.64229" lon="6.32474">
        <ele>1198</ele>
        <time>2019-05-04T20:00:00Z</time>
      </trkpt>
      <trkpt lat="46.64224" lon="6.32475">
        <ele>1199</ele>
        <time>2019-05-04T20:00:03Z</time>
      </trkpt>
      <trkpt lat="46.64215" lon="6.32477">
        <ele>1201</ele>
        <time>2019-05-04T20:00:10Z</time>
      </trkpt>
      <trkpt lat="46.64211" lon="6.32478">
        <ele>1202</ele>
        <time>2019-05-04T20:00:13Z</time>
      </trkpt>
      <trkpt lat="46.6421" lon="6.32477">
        <ele>1202</ele>
        <time>2019-05-04T20:00:14Z</time>
      </trkpt>
      <trkpt lat="46.64204" lon="6.32473">
        <ele>1202</ele>
        <time>2019-05-04T20:00:18Z</time>
      </trkpt>
      <trkpt lat="46.64199" lon="6.32471">
        <ele>1203</ele>
        <time>2019-05-04T20:00:22Z</time>
      </trkpt>
      <trkpt lat="46.64192" lon="6.3247">
        <ele>1204</ele>
        <time>2019-05-04T20:00:28Z</time>
      </trkpt>
      <trkpt lat="46.64186" lon="6.32469">
        <ele>1206</ele>
        <time>2019-05-04T20:00:32Z</time>
      </trkpt>
      <trkpt lat="46.6418" lon="6.32469">
        <ele>1208</ele>
        <time>2019-05-04T20:00:37Z</time>
      </trkpt>
      <trkpt lat="46.64175" lon="6.32468">
        <ele>1209</ele>
        <time>2019-05-04T20:00:41Z</time>
      </trkpt>
      <trkpt lat="46.64167" lon="6.32469">
        <ele>1211</ele>
        <time>2019-05-04T20:00:46Z</time>
      </trkpt>
      <trkpt lat="46.64164" lon="6.32471">
        <ele>1212</ele>
        <time>2019-05-04T20:00:49Z</time>
      </trkpt>
      <trkpt lat="46.64162" lon="6.32473">
        <ele>1213</ele>
        <time>2019-05-04T20:00:51Z</time>
      </trkpt>
      <trkpt lat="46.64161" lon="6.32475">
        <ele>1213</ele>
        <time>2019-05-04T20:00:52Z</time>
      </trkpt>
      <trkpt lat="46.64159" lon="6.32476">
        <ele>1214</ele>
        <time>2019-05-04T20:00:53Z</time>
      </trkpt>
      <trkpt lat="46.64158" lon="6.32476">
        <ele>1214</ele>
        <time>2019-05-04T20:00:54Z</time>
      </trkpt>
      <trkpt lat="46.64154" lon="6.32477">
        <ele>1215</ele>
        <time>2019-05-04T20:00:58Z</time>
      </trkpt>
      <trkpt lat="46.64148" lon="6.32477">
        <ele>1217</ele>
        <time>2019-05-04T20:01:02Z</time>
      </trkpt>
      <trkpt lat="46.6414" lon="6.32477">
        <ele>1219</ele>
        <time>2019-05-04T20:01:08Z</time>
      </trkpt>
      <trkpt lat="46.64137" lon="6.32477">
        <ele>1219</ele>
        <time>2019-05-04T20:01:10Z</time>
      </trkpt>
      <trkpt lat="46.64131" lon="6.32479">
        <ele>1221</ele>
        <time>2019-05-04T20:01:15Z</time>
      </trkpt>
      <trkpt lat="46.64126" lon="6.3248">
        <ele>1222</ele>
        <time>2019-05-04T20:01:18Z</time>
      </trkpt>
      <trkpt lat="46.64123" lon="6.32481">
        <ele>1223</ele>
        <time>2019-05-04T20:01:21Z</time>
      </trkpt>
      <trkpt lat="46.64117" lon="6.32485">
        <ele>1224</ele>
        <time>2019-05-04T20:01:26Z</time>
      </trkpt>
      <trkpt lat="46.64115" lon="6.32486">
        <ele>1225</ele>
        <time>2019-05-04T20:01:27Z</time>
      </trkpt>
      <trkpt lat="46.64111" lon="6.32492">
        <ele>1225</ele>
        <time>2019-05-04T20:01:31Z</time>
      </trkpt>
      <trkpt lat="46.64106" lon="6.32495">
        <ele>1226</ele>
        <time>2019-05-04T20:01:35Z</time>
      </trkpt>
      <trkpt lat="46.64098" lon="6.32497">
        <ele>1227</ele>
        <time>2019-05-04T20:01:41Z</time>
      </trkpt>
      <trkpt lat="46.64093" lon="6.32499">
        <ele>1227</ele>
        <time>2019-05-04T20:01:45Z</time>
      </trkpt>
      <trkpt lat="46.64091" lon="6.32499">
        <ele>1228</ele>
        <time>2019-05-04T20:01:46Z</time>
      </trkpt>
      <trkpt lat="46.64087" lon="6.325">
        <ele>1228</ele>
        <time>2019-05-04T20:01:50Z</time>
      </trkpt>
      <trkpt lat="46.64083" lon="6.32499">
        <ele>1229</ele>
        <time>2019-05-04T20:01:52Z</time>
      </trkpt>
      <trkpt lat="46.64077" lon="6.32502">
        <ele>1230</ele>
        <time>2019-05-04T20:01:57Z</time>
      </trkpt>
      <trkpt lat="46.6407" lon="6.32501">
        <ele>1231</ele>
        <time>2019-05-04T20:02:02Z</time>
      </trkpt>
      <trkpt lat="46.64063" lon="6.32502">
        <ele>1232</ele>
        <time>2019-05-04T20:02:07Z</time>
      </trkpt>
      <trkpt lat="46.64059" lon="6.32502">
        <ele>1232</ele>
        <time>2019-05-04T20:02:10Z</time>
      </trkpt>
      <trkpt lat="46.64055" lon="6.32504">
        <ele>1233</ele>
        <time>2019-05-04T20:02:13Z</time>
      </trkpt>
      <trkpt lat="46.64053" lon="6.32505">
        <ele>1233</ele>
        <time>2019-05-04T20:02:14Z</time>
      </trkpt>
      <trkpt lat="46.6405" lon="6.32508">
        <ele>1233</ele>
        <time>2019-05-04T20:02:17Z</time>
      </trkpt>
      <trkpt lat="46.64048" lon="6.32508">
        <ele>1234</ele>
        <time>2019-05-04T20:02:18Z</time>
      </trkpt>
      <trkpt lat="46.64045" lon="6.32512">
        <ele>1234</ele>
        <time>2019-05-04T20:02:21Z</time>
      </trkpt>
      <trkpt lat="46.64039" lon="6.3252">
        <ele>1234</ele>
        <time>2019-05-04T20:02:27Z</time>
      </trkpt>
      <trkpt lat="46.64035" lon="6.32524">
        <ele>1234</ele>
        <time>2019-05-04T20:02:31Z</time>
      </trkpt>
      <trkpt lat="46.6403" lon="6.32526">
        <ele>1235</ele>
        <time>2019-05-04T20:02:34Z</time>
      </trkpt>
      <trkpt lat="46.64025" lon="6.32529">
        <ele>1236</ele>
        <time>2019-05-04T20:02:38Z</time>
      </trkpt>
      <trkpt lat="46.64018" lon="6.32536">
        <ele>1237</ele>
        <time>2019-05-04T20:02:44Z</time>
      </trkpt>
      <trkpt lat="46.64018" lon="6.32537">
        <ele>1238</ele>
        <time>2019-05-04T20:02:45Z</time>
      </trkpt>
      <trkpt lat="46.64015" lon="6.3254">
        <ele>1238</ele>
        <time>2019-05-04T20:02:48Z</time>
      </trkpt>
      <trkpt lat="46.64008" lon="6.32542">
        <ele>1239</ele>
        <time>2019-05-04T20:02:53Z</time>
      </trkpt>
      <trkpt lat="46.63998" lon="6.32542">
        <ele>1240</ele>
        <time>2019-05-04T20:03:00Z</time>
      </trkpt>
      <trkpt lat="46.63991" lon="6.32542">
        <ele>1241</ele>
        <time>2019-05-04T20:03:05Z</time>
      </trkpt>
      <trkpt lat="46.63986" lon="6.32543">
        <ele>1241</ele>
        <time>2019-05-04T20:03:09Z</time>
      </trkpt>
      <trkpt lat="46.6398" lon="6.32545">
        <ele>1242</ele>
        <time>2019-05-04T20:03:13Z</time>
      </trkpt>
      <trkpt lat="46.63972" lon="6.32549">
        <ele>1243</ele>
        <time>2019-05-04T20:03:20Z</time>
      </trkpt>
      <trkpt lat="46.63966" lon="6.32551">
        <ele>1244</ele>
        <time>2019-05-04T20:03:24Z</time>
      </trkpt>
      <trkpt lat="46.63963" lon="6.32551">
        <ele>1245</ele>
        <time>2019-05-04T20:03:26Z</time>
      </trkpt>
      <trkpt lat="46.63961" lon="6.32553">
        <ele>1245</ele>
        <time>2019-05-04T20:03:28Z</time>
      </trkpt>
      <trkpt lat="46.63958" lon="6.32555">
        <ele>1245</ele>
        <time>2019-05-04T20:03:30Z</time>
      </trkpt>
      <trkpt lat="46.63947" lon="6.32557">
        <ele>1247</ele>
        <time>2019-05-04T20:03:38Z</time>
      </trkpt>
      <trkpt lat="46.63941" lon="6.32556">
        <ele>1247</ele>
        <time>2019-05-04T20:03:43Z</time>
      </trkpt>
      <trkpt lat="46.63931" lon="6.32552">
        <ele>1247</ele>
        <time>2019-05-04T20:03:50Z</time>
      </trkpt>
      <trkpt lat="46.63922" lon="6.32548">
        <ele>1247</ele>
        <time>2019-05-04T20:03:57Z</time>
      </trkpt>
      <trkpt lat="46.63919" lon="6.32548">
        <ele>1248</ele>
        <time>2019-05-04T20:03:59Z</time>
      </trkpt>
      <trkpt lat="46.63918" lon="6.32549">
        <ele>1248</ele>
        <time>2019-05-04T20:04:00Z</time>
      </trkpt>
      <trkpt lat="46.63913" lon="6.32551">
        <ele>1248</ele>
        <time>2019-05-04T20:04:04Z</time>
      </trkpt>
      <trkpt lat="46.63905" lon="6.32548">
        <ele>1248</ele>
        <time>2019-05-04T20:04:10Z</time>
      </trkpt>
      <trkpt lat="46.63903" lon="6.32548">
        <ele>1248</ele>
        <time>2019-05-04T20:04:11Z</time>
      </trkpt>
      <trkpt lat="46.63899" lon="6.32547">
        <ele>1249</ele>
        <time>2019-05-04T20:04:14Z</time>
      </trkpt>
      <trkpt lat="46.63896" lon="6.32546">
        <ele>1249</ele>
        <time>2019-05-04T20:04:17Z</time>
      </trkpt>
      <trkpt lat="46.6389" lon="6.32543">
        <ele>1249</ele>
        <time>2019-05-04T20:04:21Z</time>
      </trkpt>
      <trkpt lat="46.6388" lon="6.32541">
        <ele>1249</ele>
        <time>2019-05-04T20:04:28Z</time>
      </trkpt>
      <trkpt lat="46.63872" lon="6.32537">
        <ele>1249</ele>
        <time>2019-05-04T20:04:35Z</time>
      </trkpt>
      <trkpt lat="46.63862" lon="6.32533">
        <ele>1250</ele>
        <time>2019-05-04T20:04:42Z</time>
      </trkpt>
      <trkpt lat="46.63855" lon="6.32531">
        <ele>1250</ele>
        <time>2019-05-04T20:04:47Z</time>
      </trkpt>
      <trkpt lat="46.63846" lon="6.32525">
        <ele>1251</ele>
        <time>2019-05-04T20:04:54Z</time>
      </trkpt>
      <trkpt lat="46.63843" lon="6.32526">
        <ele>1251</ele>
        <time>2019-05-04T20:04:56Z</time>
      </trkpt>
      <trkpt lat="46.63834" lon="6.3252">
        <ele>1251</ele>
        <time>2019-05-04T20:05:03Z</time>
      </trkpt>
      <trkpt lat="46.63823" lon="6.32515">
        <ele>1253</ele>
        <time>2019-05-04T20:05:12Z</time>
      </trkpt>
      <trkpt lat="46.63817" lon="6.32512">
        <ele>1253</ele>
        <time>2019-05-04T20:05:16Z</time>
      </trkpt>
      <trkpt lat="46.63815" lon="6.3251">
        <ele>1254</ele>
        <time>2019-05-04T20:05:18Z</time>
      </trkpt>
      <trkpt lat="46.63804" lon="6.32504">
        <ele>1255</ele>
        <time>2019-05-04T20:05:27Z</time>
      </trkpt>
      <trkpt lat="46.63799" lon="6.325">
        <ele>1255</ele>
        <time>2019-05-04T20:05:31Z</time>
      </trkpt>
      <trkpt lat="46.63781" lon="6.32494">
        <ele>1256</ele>
        <time>2019-05-04T20:05:44Z</time>
      </trkpt>
      <trkpt lat="46.63771" lon="6.32489">
        <ele>1258</ele>
        <time>2019-05-04T20:05:52Z</time>
      </trkpt>
      <trkpt lat="46.6376" lon="6.32499">
        <ele>1260</ele>
        <time>2019-05-04T20:06:01Z</time>
      </trkpt>
      <trkpt lat="46.63752" lon="6.32498">
        <ele>1261</ele>
        <time>2019-05-04T20:06:07Z</time>
      </trkpt>
      <trkpt lat="46.63741" lon="6.32496">
        <ele>1263</ele>
        <time>2019-05-04T20:06:15Z</time>
      </trkpt>
      <trkpt lat="46.63727" lon="6.32483">
        <ele>1265</ele>
        <time>2019-05-04T20:06:27Z</time>
      </trkpt>
      <trkpt lat="46.63718" lon="6.32476">
        <ele>1266</ele>
        <time>2019-05-04T20:06:34Z</time>
      </trkpt>
      <trkpt lat="46.63718" lon="6.32474">
        <ele>1266</ele>
        <time>2019-05-04T20:06:35Z</time>
      </trkpt>
      <trkpt lat="46.63712" lon="6.32464">
        <ele>1266</ele>
        <time>2019-05-04T20:06:42Z</time>
      </trkpt>
      <trkpt lat="46.63708" lon="6.32456">
        <ele>1266</ele>
        <time>2019-05-04T20:06:47Z</time>
      </trkpt>
      <trkpt lat="46.63697" lon="6.32438">
        <ele>1267</ele>
        <time>2019-05-04T20:06:59Z</time>
      </trkpt>
      <trkpt lat="46.63693" lon="6.32435">
        <ele>1267</ele>
        <time>2019-05-04T20:07:02Z</time>
      </trkpt>
      <trkpt lat="46.63684" lon="6.32431">
        <ele>1270</ele>
        <time>2019-05-04T20:07:09Z</time>
      </trkpt>
      <trkpt lat="46.6368" lon="6.32429">
        <ele>1271</ele>
        <time>2019-05-04T20:07:12Z</time>
      </trkpt>
      <trkpt lat="46.63671" lon="6.32426">
        <ele>1273</ele>
        <time>2019-05-04T20:07:19Z</time>
      </trkpt>
      <trkpt lat="46.63666" lon="6.32426">
        <ele>1274</ele>
        <time>2019-05-04T20:07:23Z</time>
      </trkpt>
      <trkpt lat="46.6366" lon="6.32424">
        <ele>1275</ele>
        <time>2019-05-04T20:07:27Z</time>
      </trkpt>
      <trkpt lat="46.63654" lon="6.32422">
        <ele>1276</ele>
        <time>2019-05-04T20:07:32Z</time>
      </trkpt>
      <trkpt lat="46.63649" lon="6.3242">
        <ele>1277</ele>
        <time>2019-05-04T20:07:36Z</time>
      </trkpt>
      <trkpt lat="46.63642" lon="6.32418">
        <ele>1278</ele>
        <time>2019-05-04T20:07:41Z</time>
      </trkpt>
      <trkpt lat="46.63631" lon="6.3241">
        <ele>1280</ele>
        <time>2019-05-04T20:07:50Z</time>
      </trkpt>
      <trkpt lat="46.63628" lon="6.32406">
        <ele>1281</ele>
        <time>2019-05-04T20:07:53Z</time>
      </trkpt>
      <trkpt lat="46.63621" lon="6.32398">
        <ele>1281</ele>
        <time>2019-05-04T20:07:59Z</time>
      </trkpt>
      <trkpt lat="46.6361" lon="6.3239">
        <ele>1283</ele>
        <time>2019-05-04T20:08:08Z</time>
      </trkpt>
      <trkpt lat="46.63603" lon="6.3239">
        <ele>1284</ele>
        <time>2019-05-04T20:08:13Z</time>
      </trkpt>
      <trkpt lat="46.63588" lon="6.32389">
        <ele>1286</ele>
        <time>2019-05-04T20:08:24Z</time>
      </trkpt>
      <trkpt lat="46.63579" lon="6.32386">
        <ele>1287</ele>
        <time>2019-05-04T20:08:31Z</time>
      </trkpt>
      <trkpt lat="46.63572" lon="6.32385">
        <ele>1287</ele>
        <time>2019-05-04T20:08:35Z</time>
      </trkpt>
      <trkpt lat="46.63566" lon="6.32385">
        <ele>1288</ele>
        <time>2019-05-04T20:08:40Z</time>
      </trkpt>
      <trkpt lat="46.63563" lon="6.32389">
        <ele>1289</ele>
        <time>2019-05-04T20:08:43Z</time>
      </trkpt>
      <trkpt lat="46.63554" lon="6.32388">
        <ele>1290</ele>
        <time>2019-05-04T20:08:50Z</time>
      </trkpt>
      <trkpt lat="46.63537" lon="6.32374">
        <ele>1291</ele>
        <time>2019-05-04T20:09:04Z</time>
      </trkpt>
      <trkpt lat="46.6353" lon="6.32362">
        <ele>1290</ele>
        <time>2019-05-04T20:09:11Z</time>
      </trkpt>
      <trkpt lat="46.63525" lon="6.32359">
        <ele>1291</ele>
        <time>2019-05-04T20:09:16Z</time>
      </trkpt>
      <trkpt lat="46.63522" lon="6.32357">
        <ele>1291</ele>
        <time>2019-05-04T20:09:18Z</time>
      </trkpt>
      <trkpt lat="46.63517" lon="6.32354">
        <ele>1292</ele>
        <time>2019-05-04T20:09:22Z</time>
      </trkpt>
      <trkpt lat="46.63507" lon="6.32349">
        <ele>1294</ele>
        <time>2019-05-04T20:09:30Z</time>
      </trkpt>
      <trkpt lat="46.63499" lon="6.32347">
        <ele>1296</ele>
        <time>2019-05-04T20:09:35Z</time>
      </trkpt>
      <trkpt lat="46.63489" lon="6.32341">
        <ele>1298</ele>
        <time>2019-05-04T20:09:43Z</time>
      </trkpt>
      <trkpt lat="46.63479" lon="6.32333">
        <ele>1300</ele>
        <time>2019-05-04T20:09:52Z</time>
      </trkpt>
      <trkpt lat="46.63471" lon="6.32331">
        <ele>1301</ele>
        <time>2019-05-04T20:09:58Z</time>
      </trkpt>
      <trkpt lat="46.63462" lon="6.32322">
        <ele>1302</ele>
        <time>2019-05-04T20:10:05Z</time>
      </trkpt>
      <trkpt lat="46.63455" lon="6.32315">
        <ele>1303</ele>
        <time>2019-05-04T20:10:12Z</time>
      </trkpt>
      <trkpt lat="46.63445" lon="6.3231">
        <ele>1304</ele>
        <time>2019-05-04T20:10:20Z</time>
      </trkpt>
      <trkpt lat="46.63439" lon="6.32307">
        <ele>1305</ele>
        <time>2019-05-04T20:10:24Z</time>
      </trkpt>
      <trkpt lat="46.63438" lon="6.32306">
        <ele>1305</ele>
        <time>2019-05-04T20:10:25Z</time>
      </trkpt>
      <trkpt lat="46.63434" lon="6.32302">
        <ele>1305</ele>
        <time>2019-05-04T20:10:29Z</time>
      </trkpt>
      <trkpt lat="46.63427" lon="6.32295">
        <ele>1306</ele>
        <time>2019-05-04T20:10:34Z</time>
      </trkpt>
      <trkpt lat="46.6342" lon="6.32287">
        <ele>1306</ele>
        <time>2019-05-04T20:10:41Z</time>
      </trkpt>
      <trkpt lat="46.63416" lon="6.32283">
        <ele>1306</ele>
        <time>2019-05-04T20:10:45Z</time>
      </trkpt>
      <trkpt lat="46.63408" lon="6.3227">
        <ele>1306</ele>
        <time>2019-05-04T20:10:53Z</time>
      </trkpt>
      <trkpt lat="46.63401" lon="6.32257">
        <ele>1306</ele>
        <time>2019-05-04T20:11:02Z</time>
      </trkpt>
      <trkpt lat="46.63399" lon="6.32251">
        <ele>1306</ele>
        <time>2019-05-04T20:11:05Z</time>
      </trkpt>
      <trkpt lat="46.63395" lon="6.3224">
        <ele>1306</ele>
        <time>2019-05-04T20:11:11Z</time>
      </trkpt>
      <trkpt lat="46.63389" lon="6.32223">
        <ele>1305</ele>
        <time>2019-05-04T20:11:20Z</time>
      </trkpt>
      <trkpt lat="46.63385" lon="6.32216">
        <ele>1305</ele>
        <time>2019-05-04T20:11:25Z</time>
      </trkpt>
      <trkpt lat="46.63383" lon="6.32213">
        <ele>1305</ele>
        <time>2019-05-04T20:11:27Z</time>
      </trkpt>
      <trkpt lat="46.6338" lon="6.32209">
        <ele>1305</ele>
        <time>2019-05-04T20:11:30Z</time>
      </trkpt>
      <trkpt lat="46.63367" lon="6.32198">
        <ele>1306</ele>
        <time>2019-05-04T20:11:41Z</time>
      </trkpt>
      <trkpt lat="46.63362" lon="6.32195">
        <ele>1306</ele>
        <time>2019-05-04T20:11:45Z</time>
      </trkpt>
      <trkpt lat="46.63354" lon="6.32191">
        <ele>1308</ele>
        <time>2019-05-04T20:11:51Z</time>
      </trkpt>
      <trkpt lat="46.63339" lon="6.32183">
        <ele>1311</ele>
        <time>2019-05-04T20:12:03Z</time>
      </trkpt>
      <trkpt lat="46.63333" lon="6.3218">
        <ele>1313</ele>
        <time>2019-05-04T20:12:07Z</time>
      </trkpt>
      <trkpt lat="46.63318" lon="6.32169">
        <ele>1316</ele>
        <time>2019-05-04T20:12:20Z</time>
      </trkpt>
      <trkpt lat="46.63313" lon="6.32163">
        <ele>1318</ele>
        <time>2019-05-04T20:12:25Z</time>
      </trkpt>
      <trkpt lat="46.63311" lon="6.32163">
        <ele>1318</ele>
        <time>2019-05-04T20:12:26Z</time>
      </trkpt>
      <trkpt lat="46.63307" lon="6.32159">
        <ele>1319</ele>
        <time>2019-05-04T20:12:29Z</time>
      </trkpt>
      <trkpt lat="46.63304" lon="6.32155">
        <ele>1320</ele>
        <time>2019-05-04T20:12:32Z</time>
      </trkpt>
      <trkpt lat="46.63296" lon="6.32145">
        <ele>1321</ele>
        <time>2019-05-04T20:12:40Z</time>
      </trkpt>
      <trkpt lat="46.63286" lon="6.32133">
        <ele>1323</ele>
        <time>2019-05-04T20:12:49Z</time>
      </trkpt>
      <trkpt lat="46.6328" lon="6.32124">
        <ele>1324</ele>
        <time>2019-05-04T20:12:56Z</time>
      </trkpt>
      <trkpt lat="46.63275" lon="6.32118">
        <ele>1325</ele>
        <time>2019-05-04T20:13:01Z</time>
      </trkpt>
      <trkpt lat="46.6327" lon="6.32113">
        <ele>1325</ele>
        <time>2019-05-04T20:13:05Z</time>
      </trkpt>
      <trkpt lat="46.6326" lon="6.32108">
        <ele>1327</ele>
        <time>2019-05-04T20:13:12Z</time>
      </trkpt>
      <trkpt lat="46.63255" lon="6.32106">
        <ele>1327</ele>
        <time>2019-05-04T20:13:16Z</time>
      </trkpt>
      <trkpt lat="46.63245" lon="6.321">
        <ele>1329</ele>
        <time>2019-05-04T20:13:24Z</time>
      </trkpt>
      <trkpt lat="46.63241" lon="6.32099">
        <ele>1329</ele>
        <time>2019-05-04T20:13:27Z</time>
      </trkpt>
      <trkpt lat="46.6324" lon="6.32098">
        <ele>1329</ele>
        <time>2019-05-04T20:13:28Z</time>
      </trkpt>
      <trkpt lat="46.63235" lon="6.32097">
        <ele>1330</ele>
        <time>2019-05-04T20:13:32Z</time>
      </trkpt>
      <trkpt lat="46.63221" lon="6.32089">
        <ele>1332</ele>
        <time>2019-05-04T20:13:42Z</time>
      </trkpt>
      <trkpt lat="46.63214" lon="6.32087">
        <ele>1333</ele>
        <time>2019-05-04T20:13:48Z</time>
      </trkpt>
      <trkpt lat="46.63203" lon="6.32082">
        <ele>1334</ele>
        <time>2019-05-04T20:13:56Z</time>
      </trkpt>
      <trkpt lat="46.63197" lon="6.32079">
        <ele>1335</ele>
        <time>2019-05-04T20:14:01Z</time>
      </trkpt>
      <trkpt lat="46.63181" lon="6.32065">
        <ele>1337</ele>
        <time>2019-05-04T20:14:14Z</time>
      </trkpt>
      <trkpt lat="46.63179" lon="6.32065">
        <ele>1338</ele>
        <time>2019-05-04T20:14:16Z</time>
      </trkpt>
      <trkpt lat="46.63174" lon="6.32055">
        <ele>1339</ele>
        <time>2019-05-04T20:14:22Z</time>
      </trkpt>
      <trkpt lat="46.63171" lon="6.32047">
        <ele>1339</ele>
        <time>2019-05-04T20:14:26Z</time>
      </trkpt>
      <trkpt lat="46.63164" lon="6.32039">
        <ele>1340</ele>
        <time>2019-05-04T20:14:33Z</time>
      </trkpt>
      <trkpt lat="46.63153" lon="6.32025">
        <ele>1342</ele>
        <time>2019-05-04T20:14:44Z</time>
      </trkpt>
      <trkpt lat="46.63146" lon="6.32016">
        <ele>1343</ele>
        <time>2019-05-04T20:14:51Z</time>
      </trkpt>
      <trkpt lat="46.63138" lon="6.32007">
        <ele>1344</ele>
        <time>2019-05-04T20:14:58Z</time>
      </trkpt>
      <trkpt lat="46.63128" lon="6.31997">
        <ele>1345</ele>
        <time>2019-05-04T20:15:07Z</time>
      </trkpt>
      <trkpt lat="46.63121" lon="6.31992">
        <ele>1346</ele>
        <time>2019-05-04T20:15:12Z</time>
      </trkpt>
      <trkpt lat="46.63112" lon="6.31993">
        <ele>1348</ele>
        <time>2019-05-04T20:15:19Z</time>
      </trkpt>
      <trkpt lat="46.63101" lon="6.31983">
        <ele>1348</ele>
        <time>2019-05-04T20:15:28Z</time>
      </trkpt>
      <trkpt lat="46.6309" lon="6.31976">
        <ele>1349</ele>
        <time>2019-05-04T20:15:37Z</time>
      </trkpt>
      <trkpt lat="46.63081" lon="6.31967">
        <ele>1349</ele>
        <time>2019-05-04T20:15:45Z</time>
      </trkpt>
      <trkpt lat="46.63068" lon="6.31958">
        <ele>1350</ele>
        <time>2019-05-04T20:15:55Z</time>
      </trkpt>
      <trkpt lat="46.63061" lon="6.31958">
        <ele>1350</ele>
        <time>2019-05-04T20:16:00Z</time>
      </trkpt>
      <trkpt lat="46.63054" lon="6.3196">
        <ele>1351</ele>
        <time>2019-05-04T20:16:06Z</time>
      </trkpt>
      <trkpt lat="46.63041" lon="6.31963">
        <ele>1353</ele>
        <time>2019-05-04T20:16:15Z</time>
      </trkpt>
      <trkpt lat="46.63035" lon="6.31965">
        <ele>1354</ele>
        <time>2019-05-04T20:16:20Z</time>
      </trkpt>
      <trkpt lat="46.63027" lon="6.31972">
        <ele>1356</ele>
        <time>2019-05-04T20:16:26Z</time>
      </trkpt>
      <trkpt lat="46.63014" lon="6.31977">
        <ele>1357</ele>
        <time>2019-05-04T20:16:36Z</time>
      </trkpt>
      <trkpt lat="46.62996" lon="6.31971">
        <ele>1357</ele>
        <time>2019-05-04T20:16:50Z</time>
      </trkpt>
      <trkpt lat="46.62991" lon="6.31968">
        <ele>1357</ele>
        <time>2019-05-04T20:16:53Z</time>
      </trkpt>
      <trkpt lat="46.62983" lon="6.31961">
        <ele>1356</ele>
        <time>2019-05-04T20:17:00Z</time>
      </trkpt>
      <trkpt lat="46.6297" lon="6.31949">
        <ele>1356</ele>
        <time>2019-05-04T20:17:11Z</time>
      </trkpt>
      <trkpt lat="46.62959" lon="6.3194">
        <ele>1355</ele>
        <time>2019-05-04T20:17:21Z</time>
      </trkpt>
      <trkpt lat="46.62945" lon="6.31926">
        <ele>1357</ele>
        <time>2019-05-04T20:17:33Z</time>
      </trkpt>
      <trkpt lat="46.62939" lon="6.31918">
        <ele>1358</ele>
        <time>2019-05-04T20:17:39Z</time>
      </trkpt>
      <trkpt lat="46.62929" lon="6.31903">
        <ele>1361</ele>
        <time>2019-05-04T20:17:50Z</time>
      </trkpt>
      <trkpt lat="46.62925" lon="6.31878">
        <ele>1363</ele>
        <time>2019-05-04T20:18:02Z</time>
      </trkpt>
      <trkpt lat="46.62925" lon="6.31875">
        <ele>1364</ele>
        <time>2019-05-04T20:18:04Z</time>
      </trkpt>
      <trkpt lat="46.62917" lon="6.31852">
        <ele>1366</ele>
        <time>2019-05-04T20:18:17Z</time>
      </trkpt>
      <trkpt lat="46.62916" lon="6.31845">
        <ele>1367</ele>
        <time>2019-05-04T20:18:20Z</time>
      </trkpt>
      <trkpt lat="46.62916" lon="6.31836">
        <ele>1367</ele>
        <time>2019-05-04T20:18:25Z</time>
      </trkpt>
      <trkpt lat="46.62916" lon="6.31825">
        <ele>1368</ele>
        <time>2019-05-04T20:18:30Z</time>
      </trkpt>
      <trkpt lat="46.62912" lon="6.31813">
        <ele>1369</ele>
        <time>2019-05-04T20:18:37Z</time>
      </trkpt>
      <trkpt lat="46.6291" lon="6.31809">
        <ele>1369</ele>
        <time>2019-05-04T20:18:39Z</time>
      </trkpt>
      <trkpt lat="46.62907" lon="6.31808">
        <ele>1369</ele>
        <time>2019-05-04T20:18:41Z</time>
      </trkpt>
      <trkpt lat="46.62903" lon="6.31804">
        <ele>1370</ele>
        <time>2019-05-04T20:18:45Z</time>
      </trkpt>
      <trkpt lat="46.62896" lon="6.31799">
        <ele>1371</ele>
        <time>2019-05-04T20:18:51Z</time>
      </trkpt>
      <trkpt lat="46.6289" lon="6.31792">
        <ele>1371</ele>
        <time>2019-05-04T20:18:56Z</time>
      </trkpt>
      <trkpt lat="46.62881" lon="6.3178">
        <ele>1373</ele>
        <time>2019-05-04T20:19:05Z</time>
      </trkpt>
      <trkpt lat="46.62868" lon="6.31768">
        <ele>1374</ele>
        <time>2019-05-04T20:19:16Z</time>
      </trkpt>
      <trkpt lat="46.62865" lon="6.31766">
        <ele>1375</ele>
        <time>2019-05-04T20:19:19Z</time>
      </trkpt>
      <trkpt lat="46.62861" lon="6.31765">
        <ele>1375</ele>
        <time>2019-05-04T20:19:21Z</time>
      </trkpt>
      <trkpt lat="46.62859" lon="6.31765">
        <ele>1375</ele>
        <time>2019-05-04T20:19:23Z</time>
      </trkpt>
      <trkpt lat="46.62854" lon="6.31763">
        <ele>1376</ele>
        <time>2019-05-04T20:19:27Z</time>
      </trkpt>
      <trkpt lat="46.62848" lon="6.31761">
        <ele>1376</ele>
        <time>2019-05-04T20:19:31Z</time>
      </trkpt>
      <trkpt lat="46.62847" lon="6.31761">
        <ele>1376</ele>
        <time>2019-05-04T20:19:32Z</time>
      </trkpt>
      <trkpt lat="46.6284" lon="6.31756">
        <ele>1377</ele>
        <time>2019-05-04T20:19:38Z</time>
      </trkpt>
      <trkpt lat="46.62828" lon="6.31748">
        <ele>1378</ele>
        <time>2019-05-04T20:19:47Z</time>
      </trkpt>
      <trkpt lat="46.62827" lon="6.31746">
        <ele>1378</ele>
        <time>2019-05-04T20:19:49Z</time>
      </trkpt>
      <trkpt lat="46.62823" lon="6.31741">
        <ele>1379</ele>
        <time>2019-05-04T20:19:52Z</time>
      </trkpt>
      <trkpt lat="46.62818" lon="6.31732">
        <ele>1380</ele>
        <time>2019-05-04T20:19:58Z</time>
      </trkpt>
      <trkpt lat="46.62806" lon="6.31718">
        <ele>1381</ele>
        <time>2019-05-04T20:20:09Z</time>
      </trkpt>
      <trkpt lat="46.62806" lon="6.31717">
        <ele>1381</ele>
        <time>2019-05-04T20:20:10Z</time>
      </trkpt>
      <trkpt lat="46.62797" lon="6.31711">
        <ele>1382</ele>
        <time>2019-05-04T20:20:17Z</time>
      </trkpt>
      <trkpt lat="46.62793" lon="6.31709">
        <ele>1383</ele>
        <time>2019-05-04T20:20:20Z</time>
      </trkpt>
      <trkpt lat="46.62788" lon="6.31709">
        <ele>1383</ele>
        <time>2019-05-04T20:20:23Z</time>
      </trkpt>
      <trkpt lat="46.62785" lon="6.31709">
        <ele>1384</ele>
        <time>2019-05-04T20:20:26Z</time>
      </trkpt>
      <trkpt lat="46.6278" lon="6.31709">
        <ele>1384</ele>
        <time>2019-05-04T20:20:29Z</time>
      </trkpt>
      <trkpt lat="46.62778" lon="6.31707">
        <ele>1384</ele>
        <time>2019-05-04T20:20:31Z</time>
      </trkpt>
      <trkpt lat="46.62767" lon="6.31703">
        <ele>1386</ele>
        <time>2019-05-04T20:20:39Z</time>
      </trkpt>
      <trkpt lat="46.62764" lon="6.31702">
        <ele>1387</ele>
        <time>2019-05-04T20:20:42Z</time>
      </trkpt>
      <trkpt lat="46.62758" lon="6.31699">
        <ele>1388</ele>
        <time>2019-05-04T20:20:46Z</time>
      </trkpt>
      <trkpt lat="46.62751" lon="6.31696">
        <ele>1389</ele>
        <time>2019-05-04T20:20:51Z</time>
      </trkpt>
      <trkpt lat="46.62745" lon="6.31693">
        <ele>1390</ele>
        <time>2019-05-04T20:20:56Z</time>
      </trkpt>
      <trkpt lat="46.62744" lon="6.31691">
        <ele>1390</ele>
        <time>2019-05-04T20:20:57Z</time>
      </trkpt>
      <trkpt lat="46.62742" lon="6.31687">
        <ele>1391</ele>
        <time>2019-05-04T20:21:00Z</time>
      </trkpt>
      <trkpt lat="46.62737" lon="6.31684">
        <ele>1391</ele>
        <time>2019-05-04T20:21:04Z</time>
      </trkpt>
      <trkpt lat="46.62731" lon="6.31679">
        <ele>1392</ele>
        <time>2019-05-04T20:21:08Z</time>
      </trkpt>
      <trkpt lat="46.62731" lon="6.31678">
        <ele>1392</ele>
        <time>2019-05-04T20:21:09Z</time>
      </trkpt>
      <trkpt lat="46.62727" lon="6.31677">
        <ele>1393</ele>
        <time>2019-05-04T20:21:11Z</time>
      </trkpt>
      <trkpt lat="46.62721" lon="6.31674">
        <ele>1394</ele>
        <time>2019-05-04T20:21:16Z</time>
      </trkpt>
      <trkpt lat="46.62715" lon="6.31672">
        <ele>1395</ele>
        <time>2019-05-04T20:21:21Z</time>
      </trkpt>
      <trkpt lat="46.6271" lon="6.31671">
        <ele>1396</ele>
        <time>2019-05-04T20:21:25Z</time>
      </trkpt>
      <trkpt lat="46.62706" lon="6.31668">
        <ele>1396</ele>
        <time>2019-05-04T20:21:28Z</time>
      </trkpt>
      <trkpt lat="46.62702" lon="6.31666">
        <ele>1397</ele>
        <time>2019-05-04T20:21:31Z</time>
      </trkpt>
      <trkpt lat="46.62694" lon="6.3166">
        <ele>1398</ele>
        <time>2019-05-04T20:21:37Z</time>
      </trkpt>
      <trkpt lat="46.6268" lon="6.31647">
        <ele>1400</ele>
        <time>2019-05-04T20:21:49Z</time>
      </trkpt>
      <trkpt lat="46.62676" lon="6.31641">
        <ele>1400</ele>
        <time>2019-05-04T20:21:54Z</time>
      </trkpt>
      <trkpt lat="46.62676" lon="6.3164">
        <ele>1400</ele>
        <time>2019-05-04T20:21:55Z</time>
      </trkpt>
      <trkpt lat="46.62674" lon="6.31637">
        <ele>1400</ele>
        <time>2019-05-04T20:21:56Z</time>
      </trkpt>
      <trkpt lat="46.62671" lon="6.31636">
        <ele>1400</ele>
        <time>2019-05-04T20:21:58Z</time>
      </trkpt>
      <trkpt lat="46.62669" lon="6.31635">
        <ele>1401</ele>
        <time>2019-05-04T20:22:00Z</time>
      </trkpt>
      <trkpt lat="46.62663" lon="6.31633">
        <ele>1401</ele>
        <time>2019-05-04T20:22:05Z</time>
      </trkpt>
      <trkpt lat="46.62655" lon="6.3163">
        <ele>1402</ele>
        <time>2019-05-04T20:22:11Z</time>
      </trkpt>
      <trkpt lat="46.6265" lon="6.31628">
        <ele>1402</ele>
        <time>2019-05-04T20:22:14Z</time>
      </trkpt>
      <trkpt lat="46.62649" lon="6.31627">
        <ele>1402</ele>
        <time>2019-05-04T20:22:15Z</time>
      </trkpt>
      <trkpt lat="46.62647" lon="6.31626">
        <ele>1403</ele>
        <time>2019-05-04T20:22:17Z</time>
      </trkpt>
      <trkpt lat="46.62646" lon="6.31625">
        <ele>1403</ele>
        <time>2019-05-04T20:22:18Z</time>
      </trkpt>
      <trkpt lat="46.62643" lon="6.31623">
        <ele>1403</ele>
        <time>2019-05-04T20:22:20Z</time>
      </trkpt>
      <trkpt lat="46.62641" lon="6.31622">
        <ele>1403</ele>
        <time>2019-05-04T20:22:22Z</time>
      </trkpt>
      <trkpt lat="46.62641" lon="6.31621">
        <ele>1403</ele>
        <time>2019-05-04T20:22:22Z</time>
      </trkpt>
      <trkpt lat="46.62639" lon="6.3162">
        <ele>1403</ele>
        <time>2019-05-04T20:22:23Z</time>
      </trkpt>
      <trkpt lat="46.62638" lon="6.31618">
        <ele>1403</ele>
        <time>2019-05-04T20:22:25Z</time>
      </trkpt>
      <trkpt lat="46.62637" lon="6.31617">
        <ele>1403</ele>
        <time>2019-05-04T20:22:25Z</time>
      </trkpt>
      <trkpt lat="46.62636" lon="6.31616">
        <ele>1403</ele>
        <time>2019-05-04T20:22:26Z</time>
      </trkpt>
      <trkpt lat="46.62635" lon="6.31614">
        <ele>1403</ele>
        <time>2019-05-04T20:22:27Z</time>
      </trkpt>
      <trkpt lat="46.62635" lon="6.31613">
        <ele>1403</ele>
        <time>2019-05-04T20:22:28Z</time>
      </trkpt>
      <trkpt lat="46.62631" lon="6.31609">
        <ele>1403</ele>
        <time>2019-05-04T20:22:31Z</time>
      </trkpt>
      <trkpt lat="46.62619" lon="6.31605">
        <ele>1403</ele>
        <time>2019-05-04T20:22:41Z</time>
      </trkpt>
      <trkpt lat="46.62607" lon="6.31602">
        <ele>1404</ele>
        <time>2019-05-04T20:22:49Z</time>
      </trkpt>
      <trkpt lat="46.62607" lon="6.31601">
        <ele>1404</ele>
        <time>2019-05-04T20:22:50Z</time>
      </trkpt>
      <trkpt lat="46.62592" lon="6.31601">
        <ele>1407</ele>
        <time>2019-05-04T20:23:01Z</time>
      </trkpt>
      <trkpt lat="46.62579" lon="6.31602">
        <ele>1409</ele>
        <time>2019-05-04T20:23:10Z</time>
      </trkpt>
      <trkpt lat="46.62567" lon="6.31604">
        <ele>1411</ele>
        <time>2019-05-04T20:23:19Z</time>
      </trkpt>
      <trkpt lat="46.62557" lon="6.31606">
        <ele>1412</ele>
        <time>2019-05-04T20:23:26Z</time>
      </trkpt>
      <trkpt lat="46.62553" lon="6.31606">
        <ele>1413</ele>
        <time>2019-05-04T20:23:29Z</time>
      </trkpt>
      <trkpt lat="46.62548" lon="6.31608">
        <ele>1414</ele>
        <time>2019-05-04T20:23:33Z</time>
      </trkpt>
      <trkpt lat="46.62542" lon="6.31608">
        <ele>1415</ele>
        <time>2019-05-04T20:23:37Z</time>
      </trkpt>
      <trkpt lat="46.62537" lon="6.31608">
        <ele>1416</ele>
        <time>2019-05-04T20:23:41Z</time>
      </trkpt>
      <trkpt lat="46.62536" lon="6.31609">
        <ele>1416</ele>
        <time>2019-05-04T20:23:42Z</time>
      </trkpt>
      <trkpt lat="46.62534" lon="6.31609">
        <ele>1416</ele>
        <time>2019-05-04T20:23:43Z</time>
      </trkpt>
      <trkpt lat="46.62533" lon="6.3161">
        <ele>1416</ele>
        <time>2019-05-04T20:23:44Z</time>
      </trkpt>
      <trkpt lat="46.62531" lon="6.31612">
        <ele>1417</ele>
        <time>2019-05-04T20:23:46Z</time>
      </trkpt>
      <trkpt lat="46.62525" lon="6.31613">
        <ele>1418</ele>
        <time>2019-05-04T20:23:50Z</time>
      </trkpt>
      <trkpt lat="46.62521" lon="6.31615">
        <ele>1419</ele>
        <time>2019-05-04T20:23:53Z</time>
      </trkpt>
      <trkpt lat="46.62517" lon="6.31616">
        <ele>1419</ele>
        <time>2019-05-04T20:23:56Z</time>
      </trkpt>
      <trkpt lat="46.6251" lon="6.31618">
        <ele>1421</ele>
        <time>2019-05-04T20:24:01Z</time>
      </trkpt>
      <trkpt lat="46.62507" lon="6.31621">
        <ele>1421</ele>
        <time>2019-05-04T20:24:04Z</time>
      </trkpt>
      <trkpt lat="46.62503" lon="6.31623">
        <ele>1422</ele>
        <time>2019-05-04T20:24:07Z</time>
      </trkpt>
      <trkpt lat="46.625" lon="6.31623">
        <ele>1422</ele>
        <time>2019-05-04T20:24:09Z</time>
      </trkpt>
      <trkpt lat="46.62499" lon="6.31623">
        <ele>1423</ele>
        <time>2019-05-04T20:24:10Z</time>
      </trkpt>
      <trkpt lat="46.62497" lon="6.31623">
        <ele>1423</ele>
        <time>2019-05-04T20:24:12Z</time>
      </trkpt>
      <trkpt lat="46.62494" lon="6.31622">
        <ele>1423</ele>
        <time>2019-05-04T20:24:14Z</time>
      </trkpt>
      <trkpt lat="46.62487" lon="6.31623">
        <ele>1425</ele>
        <time>2019-05-04T20:24:19Z</time>
      </trkpt>
      <trkpt lat="46.62472" lon="6.31628">
        <ele>1427</ele>
        <time>2019-05-04T20:24:30Z</time>
      </trkpt>
      <trkpt lat="46.62469" lon="6.31629">
        <ele>1428</ele>
        <time>2019-05-04T20:24:33Z</time>
      </trkpt>
      <trkpt lat="46.62468" lon="6.3163">
        <ele>1428</ele>
        <time>2019-05-04T20:24:33Z</time>
      </trkpt>
      <trkpt lat="46.62462" lon="6.3163">
        <ele>1429</ele>
        <time>2019-05-04T20:24:37Z</time>
      </trkpt>
      <trkpt lat="46.62447" lon="6.31646">
        <ele>1432</ele>
        <time>2019-05-04T20:24:51Z</time>
      </trkpt>
      <trkpt lat="46.62445" lon="6.31648">
        <ele>1432</ele>
        <time>2019-05-04T20:24:53Z</time>
      </trkpt>
      <trkpt lat="46.62434" lon="6.3167">
        <ele>1434</ele>
        <time>2019-05-04T20:25:06Z</time>
      </trkpt>
      <trkpt lat="46.62429" lon="6.31675">
        <ele>1435</ele>
        <time>2019-05-04T20:25:11Z</time>
      </trkpt>
      <trkpt lat="46.62424" lon="6.3168">
        <ele>1435</ele>
        <time>2019-05-04T20:25:15Z</time>
      </trkpt>
      <trkpt lat="46.62416" lon="6.31683">
        <ele>1436</ele>
        <time>2019-05-04T20:25:21Z</time>
      </trkpt>
      <trkpt lat="46.62416" lon="6.31683">
        <ele>1436</ele>
        <time>2019-05-04T20:25:21Z</time>
      </trkpt>
      <trkpt lat="46.6241" lon="6.31675">
        <ele>1436</ele>
        <time>2019-05-04T20:25:27Z</time>
      </trkpt>
      <trkpt lat="46.62409" lon="6.31678">
        <ele>1436</ele>
        <time>2019-05-04T20:25:29Z</time>
      </trkpt>
      <trkpt lat="46.62409" lon="6.31682">
        <ele>1436</ele>
        <time>2019-05-04T20:25:31Z</time>
      </trkpt>
      <trkpt lat="46.62409" lon="6.31685">
        <ele>1436</ele>
        <time>2019-05-04T20:25:33Z</time>
      </trkpt>
      <trkpt lat="46.62408" lon="6.31688">
        <ele>1437</ele>
        <time>2019-05-04T20:25:34Z</time>
      </trkpt>
      <trkpt lat="46.62405" lon="6.31698">
        <ele>1437</ele>
        <time>2019-05-04T20:25:40Z</time>
      </trkpt>
      <trkpt lat="46.62404" lon="6.31699">
        <ele>1437</ele>
        <time>2019-05-04T20:25:41Z</time>
      </trkpt>
      <trkpt lat="46.62401" lon="6.31703">
        <ele>1437</ele>
        <time>2019-05-04T20:25:43Z</time>
      </trkpt>
      <trkpt lat="46.62392" lon="6.31712">
        <ele>1438</ele>
        <time>2019-05-04T20:25:51Z</time>
      </trkpt>
      <trkpt lat="46.62392" lon="6.31714">
        <ele>1438</ele>
        <time>2019-05-04T20:25:52Z</time>
      </trkpt>
      <trkpt lat="46.62385" lon="6.31729">
        <ele>1438</ele>
        <time>2019-05-04T20:26:01Z</time>
      </trkpt>
      <trkpt lat="46.62381" lon="6.31732">
        <ele>1438</ele>
        <time>2019-05-04T20:26:05Z</time>
      </trkpt>
      <trkpt lat="46.62377" lon="6.31734">
        <ele>1438</ele>
        <time>2019-05-04T20:26:07Z</time>
      </trkpt>
      <trkpt lat="46.62364" lon="6.31743">
        <ele>1439</ele>
        <time>2019-05-04T20:26:17Z</time>
      </trkpt>
      <trkpt lat="46.62365" lon="6.31744">
        <ele>1439</ele>
        <time>2019-05-04T20:26:18Z</time>
      </trkpt>
      <trkpt lat="46.62363" lon="6.31746">
        <ele>1439</ele>
        <time>2019-05-04T20:26:19Z</time>
      </trkpt>
      <trkpt lat="46.62361" lon="6.31746">
        <ele>1439</ele>
        <time>2019-05-04T20:26:21Z</time>
      </trkpt>
      <trkpt lat="46.62359" lon="6.31745">
        <ele>1439</ele>
        <time>2019-05-04T20:26:23Z</time>
      </trkpt>
      <trkpt lat="46.62353" lon="6.31742">
        <ele>1440</ele>
        <time>2019-05-04T20:26:28Z</time>
      </trkpt>
      <trkpt lat="46.62352" lon="6.31742">
        <ele>1440</ele>
        <time>2019-05-04T20:26:28Z</time>
      </trkpt>
      <trkpt lat="46.62349" lon="6.31739">
        <ele>1440</ele>
        <time>2019-05-04T20:26:31Z</time>
      </trkpt>
      <trkpt lat="46.62348" lon="6.31739">
        <ele>1440</ele>
        <time>2019-05-04T20:26:31Z</time>
      </trkpt>
      <trkpt lat="46.62345" lon="6.31738">
        <ele>1440</ele>
        <time>2019-05-04T20:26:34Z</time>
      </trkpt>
      <trkpt lat="46.62343" lon="6.31737">
        <ele>1440</ele>
        <time>2019-05-04T20:26:35Z</time>
      </trkpt>
      <trkpt lat="46.6234" lon="6.31736">
        <ele>1440</ele>
        <time>2019-05-04T20:26:37Z</time>
      </trkpt>
      <trkpt lat="46.62339" lon="6.31736">
        <ele>1440</ele>
        <time>2019-05-04T20:26:38Z</time>
      </trkpt>
      <trkpt lat="46.62334" lon="6.31737">
        <ele>1440</ele>
        <time>2019-05-04T20:26:42Z</time>
      </trkpt>
      <trkpt lat="46.62334" lon="6.31735">
        <ele>1440</ele>
        <time>2019-05-04T20:26:43Z</time>
      </trkpt>
      <trkpt lat="46.62332" lon="6.31736">
        <ele>1440</ele>
        <time>2019-05-04T20:26:44Z</time>
      </trkpt>
      <trkpt lat="46.62332" lon="6.31736">
        <ele>1440</ele>
        <time>2019-05-04T20:26:44Z</time>
      </trkpt>
      <trkpt lat="46.62329" lon="6.31735">
        <ele>1440</ele>
        <time>2019-05-04T20:26:46Z</time>
      </trkpt>
      <trkpt lat="46.62325" lon="6.31731">
        <ele>1440</ele>
        <time>2019-05-04T20:26:50Z</time>
      </trkpt>
      <trkpt lat="46.62316" lon="6.31733">
        <ele>1441</ele>
        <time>2019-05-04T20:26:56Z</time>
      </trkpt>
      <trkpt lat="46.62315" lon="6.31733">
        <ele>1441</ele>
        <time>2019-05-04T20:26:57Z</time>
      </trkpt>
      <trkpt lat="46.62301" lon="6.3175">
        <ele>1441</ele>
        <time>2019-05-04T20:27:11Z</time>
      </trkpt>
      <trkpt lat="46.62287" lon="6.31769">
        <ele>1442</ele>
        <time>2019-05-04T20:27:24Z</time>
      </trkpt>
      <trkpt lat="46.62281" lon="6.31774">
        <ele>1442</ele>
        <time>2019-05-04T20:27:30Z</time>
      </trkpt>
      <trkpt lat="46.62272" lon="6.31783">
        <ele>1441</ele>
        <time>2019-05-04T20:27:38Z</time>
      </trkpt>
      <trkpt lat="46.62265" lon="6.31788">
        <ele>1440</ele>
        <time>2019-05-04T20:27:43Z</time>
      </trkpt>
      <trkpt lat="46.62257" lon="6.31792">
        <ele>1439</ele>
        <time>2019-05-04T20:27:49Z</time>
      </trkpt>
      <trkpt lat="46.62252" lon="6.31791">
        <ele>1439</ele>
        <time>2019-05-04T20:27:53Z</time>
      </trkpt>
      <trkpt lat="46.62234" lon="6.31785">
        <ele>1438</ele>
        <time>2019-05-04T20:28:06Z</time>
      </trkpt>
      <trkpt lat="46.62216" lon="6.31778">
        <ele>1437</ele>
        <time>2019-05-04T20:28:20Z</time>
      </trkpt>
      <trkpt lat="46.62206" lon="6.31771">
        <ele>1437</ele>
        <time>2019-05-04T20:28:28Z</time>
      </trkpt>
      <trkpt lat="46.62193" lon="6.31759">
        <ele>1436</ele>
        <time>2019-05-04T20:28:39Z</time>
      </trkpt>
      <trkpt lat="46.62186" lon="6.31749">
        <ele>1435</ele>
        <time>2019-05-04T20:28:46Z</time>
      </trkpt>
      <trkpt lat="46.62182" lon="6.31741">
        <ele>1434</ele>
        <time>2019-05-04T20:28:51Z</time>
      </trkpt>
      <trkpt lat="46.62172" lon="6.31719">
        <ele>1433</ele>
        <time>2019-05-04T20:29:04Z</time>
      </trkpt>
      <trkpt lat="46.6217" lon="6.31714">
        <ele>1433</ele>
        <time>2019-05-04T20:29:07Z</time>
      </trkpt>
      <trkpt lat="46.62165" lon="6.31706">
        <ele>1432</ele>
        <time>2019-05-04T20:29:12Z</time>
      </trkpt>
      <trkpt lat="46.62163" lon="6.31706">
        <ele>1432</ele>
        <time>2019-05-04T20:29:13Z</time>
      </trkpt>
      <trkpt lat="46.62147" lon="6.31714">
        <ele>1431</ele>
        <time>2019-05-04T20:29:26Z</time>
      </trkpt>
      <trkpt lat="46.62142" lon="6.31709">
        <ele>1430</ele>
        <time>2019-05-04T20:29:30Z</time>
      </trkpt>
      <trkpt lat="46.62138" lon="6.31702">
        <ele>1430</ele>
        <time>2019-05-04T20:29:35Z</time>
      </trkpt>
      <trkpt lat="46.62136" lon="6.31702">
        <ele>1430</ele>
        <time>2019-05-04T20:29:36Z</time>
      </trkpt>
      <trkpt lat="46.62133" lon="6.31702">
        <ele>1429</ele>
        <time>2019-05-04T20:29:38Z</time>
      </trkpt>
      <trkpt lat="46.62132" lon="6.31702">
        <ele>1429</ele>
        <time>2019-05-04T20:29:39Z</time>
      </trkpt>
      <trkpt lat="46.6213" lon="6.31702">
        <ele>1429</ele>
        <time>2019-05-04T20:29:40Z</time>
      </trkpt>
      <trkpt lat="46.62114" lon="6.3169">
        <ele>1427</ele>
        <time>2019-05-04T20:29:53Z</time>
      </trkpt>
      <trkpt lat="46.62108" lon="6.31687">
        <ele>1427</ele>
        <time>2019-05-04T20:29:58Z</time>
      </trkpt>
      <trkpt lat="46.62103" lon="6.31685">
        <ele>1427</ele>
        <time>2019-05-04T20:30:02Z</time>
      </trkpt>
      <trkpt lat="46.62098" lon="6.31684">
        <ele>1427</ele>
        <time>2019-05-04T20:30:05Z</time>
      </trkpt>
      <trkpt lat="46.62093" lon="6.31681">
        <ele>1427</ele>
        <time>2019-05-04T20:30:10Z</time>
      </trkpt>
      <trkpt lat="46.62088" lon="6.31679">
        <ele>1426</ele>
        <time>2019-05-04T20:30:13Z</time>
      </trkpt>
      <trkpt lat="46.62082" lon="6.31673">
        <ele>1426</ele>
        <time>2019-05-04T20:30:18Z</time>
      </trkpt>
      <trkpt lat="46.62066" lon="6.31658">
        <ele>1426</ele>
        <time>2019-05-04T20:30:32Z</time>
      </trkpt>
      <trkpt lat="46.62053" lon="6.31642">
        <ele>1425</ele>
        <time>2019-05-04T20:30:45Z</time>
      </trkpt>
      <trkpt lat="46.62045" lon="6.31634">
        <ele>1425</ele>
        <time>2019-05-04T20:30:52Z</time>
      </trkpt>
      <trkpt lat="46.62043" lon="6.31631">
        <ele>1425</ele>
        <time>2019-05-04T20:30:53Z</time>
      </trkpt>
      <trkpt lat="46.6204" lon="6.31628">
        <ele>1425</ele>
        <time>2019-05-04T20:30:56Z</time>
      </trkpt>
      <trkpt lat="46.62037" lon="6.3162">
        <ele>1424</ele>
        <time>2019-05-04T20:31:01Z</time>
      </trkpt>
      <trkpt lat="46.62034" lon="6.31616">
        <ele>1424</ele>
        <time>2019-05-04T20:31:04Z</time>
      </trkpt>
      <trkpt lat="46.62017" lon="6.31611">
        <ele>1424</ele>
        <time>2019-05-04T20:31:16Z</time>
      </trkpt>
      <trkpt lat="46.62005" lon="6.31609">
        <ele>1424</ele>
        <time>2019-05-04T20:31:25Z</time>
      </trkpt>
      <trkpt lat="46.61985" lon="6.31609">
        <ele>1424</ele>
        <time>2019-05-04T20:31:39Z</time>
      </trkpt>
      <trkpt lat="46.61983" lon="6.31607">
        <ele>1424</ele>
        <time>2019-05-04T20:31:41Z</time>
      </trkpt>
      <trkpt lat="46.61971" lon="6.3159">
        <ele>1426</ele>
        <time>2019-05-04T20:31:53Z</time>
      </trkpt>
      <trkpt lat="46.61967" lon="6.31585">
        <ele>1426</ele>
        <time>2019-05-04T20:31:57Z</time>
      </trkpt>
      <trkpt lat="46.61948" lon="6.31576">
        <ele>1428</ele>
        <time>2019-05-04T20:32:11Z</time>
      </trkpt>
      <trkpt lat="46.61944" lon="6.31576">
        <ele>1428</ele>
        <time>2019-05-04T20:32:14Z</time>
      </trkpt>
      <trkpt lat="46.61938" lon="6.3158">
        <ele>1427</ele>
        <time>2019-05-04T20:32:19Z</time>
      </trkpt>
      <trkpt lat="46.61923" lon="6.31578">
        <ele>1428</ele>
        <time>2019-05-04T20:32:30Z</time>
      </trkpt>
      <trkpt lat="46.6192" lon="6.31575">
        <ele>1428</ele>
        <time>2019-05-04T20:32:33Z</time>
      </trkpt>
      <trkpt lat="46.61915" lon="6.31567">
        <ele>1429</ele>
        <time>2019-05-04T20:32:38Z</time>
      </trkpt>
      <trkpt lat="46.61909" lon="6.31567">
        <ele>1429</ele>
        <time>2019-05-04T20:32:42Z</time>
      </trkpt>
      <trkpt lat="46.61905" lon="6.31568">
        <ele>1429</ele>
        <time>2019-05-04T20:32:45Z</time>
      </trkpt>
      <trkpt lat="46.61894" lon="6.31567">
        <ele>1429</ele>
        <time>2019-05-04T20:32:53Z</time>
      </trkpt>
      <trkpt lat="46.61886" lon="6.31566">
        <ele>1429</ele>
        <time>2019-05-04T20:32:59Z</time>
      </trkpt>
      <trkpt lat="46.61867" lon="6.31563">
        <ele>1430</ele>
        <time>2019-05-04T20:33:13Z</time>
      </trkpt>
      <trkpt lat="46.61847" lon="6.31562">
        <ele>1429</ele>
        <time>2019-05-04T20:33:27Z</time>
      </trkpt>
      <trkpt lat="46.61831" lon="6.31571">
        <ele>1427</ele>
        <time>2019-05-04T20:33:40Z</time>
      </trkpt>
      <trkpt lat="46.61813" lon="6.3158">
        <ele>1425</ele>
        <time>2019-05-04T20:33:53Z</time>
      </trkpt>
      <trkpt lat="46.61796" lon="6.31592">
        <ele>1424</ele>
        <time>2019-05-04T20:34:07Z</time>
      </trkpt>
      <trkpt lat="46.61784" lon="6.31597">
        <ele>1423</ele>
        <time>2019-05-04T20:34:16Z</time>
      </trkpt>
      <trkpt lat="46.61766" lon="6.31609">
        <ele>1422</ele>
        <time>2019-05-04T20:34:30Z</time>
      </trkpt>
      <trkpt lat="46.61759" lon="6.31614">
        <ele>1421</ele>
        <time>2019-05-04T20:34:36Z</time>
      </trkpt>
      <trkpt lat="46.61758" lon="6.31615">
        <ele>1421</ele>
        <time>2019-05-04T20:34:37Z</time>
      </trkpt>
      <trkpt lat="46.61756" lon="6.31617">
        <ele>1421</ele>
        <time>2019-05-04T20:34:39Z</time>
      </trkpt>
      <trkpt lat="46.61754" lon="6.31618">
        <ele>1421</ele>
        <time>2019-05-04T20:34:40Z</time>
      </trkpt>
      <trkpt lat="46.61748" lon="6.31627">
        <ele>1420</ele>
        <time>2019-05-04T20:34:47Z</time>
      </trkpt>
      <trkpt lat="46.61746" lon="6.3163">
        <ele>1420</ele>
        <time>2019-05-04T20:34:48Z</time>
      </trkpt>
      <trkpt lat="46.61745" lon="6.31631">
        <ele>1420</ele>
        <time>2019-05-04T20:34:50Z</time>
      </trkpt>
      <trkpt lat="46.61726" lon="6.31631">
        <ele>1419</ele>
        <time>2019-05-04T20:35:03Z</time>
      </trkpt>
      <trkpt lat="46.6172" lon="6.31634">
        <ele>1418</ele>
        <time>2019-05-04T20:35:08Z</time>
      </trkpt>
      <trkpt lat="46.61709" lon="6.31643">
        <ele>1418</ele>
        <time>2019-05-04T20:35:17Z</time>
      </trkpt>
      <trkpt lat="46.61695" lon="6.31648">
        <ele>1417</ele>
        <time>2019-05-04T20:35:27Z</time>
      </trkpt>
      <trkpt lat="46.61685" lon="6.31651">
        <ele>1416</ele>
        <time>2019-05-04T20:35:35Z</time>
      </trkpt>
      <trkpt lat="46.61683" lon="6.31652">
        <ele>1416</ele>
        <time>2019-05-04T20:35:36Z</time>
      </trkpt>
      <trkpt lat="46.61669" lon="6.31656">
        <ele>1415</ele>
        <time>2019-05-04T20:35:46Z</time>
      </trkpt>
      <trkpt lat="46.61663" lon="6.31658">
        <ele>1414</ele>
        <time>2019-05-04T20:35:51Z</time>
      </trkpt>
      <trkpt lat="46.61655" lon="6.3166">
        <ele>1413</ele>
        <time>2019-05-04T20:35:57Z</time>
      </trkpt>
      <trkpt lat="46.61649" lon="6.31661">
        <ele>1413</ele>
        <time>2019-05-04T20:36:01Z</time>
      </trkpt>
      <trkpt lat="46.61636" lon="6.31663">
        <ele>1412</ele>
        <time>2019-05-04T20:36:11Z</time>
      </trkpt>
      <trkpt lat="46.6163" lon="6.31664">
        <ele>1411</ele>
        <time>2019-05-04T20:36:15Z</time>
      </trkpt>
      <trkpt lat="46.61626" lon="6.31663">
        <ele>1411</ele>
        <time>2019-05-04T20:36:18Z</time>
      </trkpt>
      <trkpt lat="46.61625" lon="6.31663">
        <ele>1411</ele>
        <time>2019-05-04T20:36:19Z</time>
      </trkpt>
      <trkpt lat="46.61623" lon="6.31665">
        <ele>1410</ele>
        <time>2019-05-04T20:36:20Z</time>
      </trkpt>
      <trkpt lat="46.61622" lon="6.31666">
        <ele>1410</ele>
        <time>2019-05-04T20:36:22Z</time>
      </trkpt>
      <trkpt lat="46.6162" lon="6.31668">
        <ele>1410</ele>
        <time>2019-05-04T20:36:23Z</time>
      </trkpt>
      <trkpt lat="46.61605" lon="6.31683">
        <ele>1409</ele>
        <time>2019-05-04T20:36:36Z</time>
      </trkpt>
      <trkpt lat="46.61593" lon="6.31694">
        <ele>1409</ele>
        <time>2019-05-04T20:36:47Z</time>
      </trkpt>
      <trkpt lat="46.61576" lon="6.31706">
        <ele>1409</ele>
        <time>2019-05-04T20:37:00Z</time>
      </trkpt>
      <trkpt lat="46.61569" lon="6.31717">
        <ele>1409</ele>
        <time>2019-05-04T20:37:08Z</time>
      </trkpt>
      <trkpt lat="46.61562" lon="6.3172">
        <ele>1409</ele>
        <time>2019-05-04T20:37:13Z</time>
      </trkpt>
      <trkpt lat="46.61546" lon="6.31735">
        <ele>1408</ele>
        <time>2019-05-04T20:37:27Z</time>
      </trkpt>
      <trkpt lat="46.61531" lon="6.3175">
        <ele>1409</ele>
        <time>2019-05-04T20:37:40Z</time>
      </trkpt>
      <trkpt lat="46.61516" lon="6.31767">
        <ele>1409</ele>
        <time>2019-05-04T20:37:54Z</time>
      </trkpt>
      <trkpt lat="46.615" lon="6.31782">
        <ele>1410</ele>
        <time>2019-05-04T20:38:07Z</time>
      </trkpt>
      <trkpt lat="46.61484" lon="6.31795">
        <ele>1410</ele>
        <time>2019-05-04T20:38:20Z</time>
      </trkpt>
      <trkpt lat="46.6148" lon="6.31799">
        <ele>1410</ele>
        <time>2019-05-04T20:38:24Z</time>
      </trkpt>
      <trkpt lat="46.61462" lon="6.31808">
        <ele>1411</ele>
        <time>2019-05-04T20:38:38Z</time>
      </trkpt>
      <trkpt lat="46.6146" lon="6.3181">
        <ele>1411</ele>
        <time>2019-05-04T20:38:39Z</time>
      </trkpt>
      <trkpt lat="46.61452" lon="6.31815">
        <ele>1412</ele>
        <time>2019-05-04T20:38:46Z</time>
      </trkpt>
      <trkpt lat="46.61445" lon="6.31819">
        <ele>1413</ele>
        <time>2019-05-04T20:38:52Z</time>
      </trkpt>
      <trkpt lat="46.61437" lon="6.31821">
        <ele>1414</ele>
        <time>2019-05-04T20:38:57Z</time>
      </trkpt>
      <trkpt lat="46.61429" lon="6.31817">
        <ele>1414</ele>
        <time>2019-05-04T20:39:04Z</time>
      </trkpt>
      <trkpt lat="46.61427" lon="6.31816">
        <ele>1414</ele>
        <time>2019-05-04T20:39:05Z</time>
      </trkpt>
      <trkpt lat="46.61421" lon="6.31814">
        <ele>1415</ele>
        <time>2019-05-04T20:39:09Z</time>
      </trkpt>
      <trkpt lat="46.6141" lon="6.31814">
        <ele>1416</ele>
        <time>2019-05-04T20:39:18Z</time>
      </trkpt>
      <trkpt lat="46.61402" lon="6.31814">
        <ele>1417</ele>
        <time>2019-05-04T20:39:23Z</time>
      </trkpt>
      <trkpt lat="46.61399" lon="6.31811">
        <ele>1418</ele>
        <time>2019-05-04T20:39:26Z</time>
      </trkpt>
      <trkpt lat="46.61399" lon="6.31815">
        <ele>1418</ele>
        <time>2019-05-04T20:39:28Z</time>
      </trkpt>
      <trkpt lat="46.614" lon="6.31816">
        <ele>1418</ele>
        <time>2019-05-04T20:39:29Z</time>
      </trkpt>
      <trkpt lat="46.61391" lon="6.31825">
        <ele>1420</ele>
        <time>2019-05-04T20:39:37Z</time>
      </trkpt>
      <trkpt lat="46.61389" lon="6.31827">
        <ele>1420</ele>
        <time>2019-05-04T20:39:39Z</time>
      </trkpt>
      <trkpt lat="46.61386" lon="6.31833">
        <ele>1421</ele>
        <time>2019-05-04T20:39:42Z</time>
      </trkpt>
      <trkpt lat="46.61386" lon="6.31836">
        <ele>1421</ele>
        <time>2019-05-04T20:39:44Z</time>
      </trkpt>
      <trkpt lat="46.61386" lon="6.31839">
        <ele>1421</ele>
        <time>2019-05-04T20:39:45Z</time>
      </trkpt>
      <trkpt lat="46.61388" lon="6.3185">
        <ele>1422</ele>
        <time>2019-05-04T20:39:51Z</time>
      </trkpt>
      <trkpt lat="46.61386" lon="6.31869">
        <ele>1423</ele>
        <time>2019-05-04T20:40:01Z</time>
      </trkpt>
      <trkpt lat="46.61378" lon="6.31886">
        <ele>1424</ele>
        <time>2019-05-04T20:40:11Z</time>
      </trkpt>
      <trkpt lat="46.61373" lon="6.31898">
        <ele>1424</ele>
        <time>2019-05-04T20:40:18Z</time>
      </trkpt>
      <trkpt lat="46.6137" lon="6.31899">
        <ele>1424</ele>
        <time>2019-05-04T20:40:20Z</time>
      </trkpt>
      <trkpt lat="46.61368" lon="6.31902">
        <ele>1424</ele>
        <time>2019-05-04T20:40:22Z</time>
      </trkpt>
      <trkpt lat="46.61366" lon="6.31905">
        <ele>1424</ele>
        <time>2019-05-04T20:40:24Z</time>
      </trkpt>
      <trkpt lat="46.61362" lon="6.31915">
        <ele>1424</ele>
        <time>2019-05-04T20:40:30Z</time>
      </trkpt>
      <trkpt lat="46.6136" lon="6.31921">
        <ele>1424</ele>
        <time>2019-05-04T20:40:33Z</time>
      </trkpt>
      <trkpt lat="46.6135" lon="6.31935">
        <ele>1425</ele>
        <time>2019-05-04T20:40:43Z</time>
      </trkpt>
      <trkpt lat="46.61338" lon="6.31954">
        <ele>1427</ele>
        <time>2019-05-04T20:40:57Z</time>
      </trkpt>
      <trkpt lat="46.61336" lon="6.31958">
        <ele>1427</ele>
        <time>2019-05-04T20:40:59Z</time>
      </trkpt>
      <trkpt lat="46.6133" lon="6.31961">
        <ele>1428</ele>
        <time>2019-05-04T20:41:03Z</time>
      </trkpt>
      <trkpt lat="46.61323" lon="6.31964">
        <ele>1429</ele>
        <time>2019-05-04T20:41:08Z</time>
      </trkpt>
      <trkpt lat="46.61319" lon="6.31966">
        <ele>1429</ele>
        <time>2019-05-04T20:41:12Z</time>
      </trkpt>
      <trkpt lat="46.61311" lon="6.31972">
        <ele>1430</ele>
        <time>2019-05-04T20:41:18Z</time>
      </trkpt>
      <trkpt lat="46.6131" lon="6.31973">
        <ele>1431</ele>
        <time>2019-05-04T20:41:20Z</time>
      </trkpt>
      <trkpt lat="46.61305" lon="6.31972">
        <ele>1431</ele>
        <time>2019-05-04T20:41:23Z</time>
      </trkpt>
      <trkpt lat="46.61302" lon="6.31973">
        <ele>1431</ele>
        <time>2019-05-04T20:41:25Z</time>
      </trkpt>
      <trkpt lat="46.61296" lon="6.31973">
        <ele>1432</ele>
        <time>2019-05-04T20:41:29Z</time>
      </trkpt>
      <trkpt lat="46.61287" lon="6.31971">
        <ele>1433</ele>
        <time>2019-05-04T20:41:36Z</time>
      </trkpt>
      <trkpt lat="46.61281" lon="6.31968">
        <ele>1433</ele>
        <time>2019-05-04T20:41:41Z</time>
      </trkpt>
      <trkpt lat="46.61276" lon="6.31966">
        <ele>1434</ele>
        <time>2019-05-04T20:41:45Z</time>
      </trkpt>
      <trkpt lat="46.61269" lon="6.31964">
        <ele>1435</ele>
        <time>2019-05-04T20:41:50Z</time>
      </trkpt>
      <trkpt lat="46.61268" lon="6.31963">
        <ele>1436</ele>
        <time>2019-05-04T20:41:51Z</time>
      </trkpt>
      <trkpt lat="46.61257" lon="6.31962">
        <ele>1438</ele>
        <time>2019-05-04T20:41:58Z</time>
      </trkpt>
      <trkpt lat="46.61252" lon="6.31952">
        <ele>1439</ele>
        <time>2019-05-04T20:42:05Z</time>
      </trkpt>
      <trkpt lat="46.61247" lon="6.31945">
        <ele>1440</ele>
        <time>2019-05-04T20:42:10Z</time>
      </trkpt>
      <trkpt lat="46.61244" lon="6.31941">
        <ele>1441</ele>
        <time>2019-05-04T20:42:13Z</time>
      </trkpt>
      <trkpt lat="46.61239" lon="6.31934">
        <ele>1442</ele>
        <time>2019-05-04T20:42:18Z</time>
      </trkpt>
      <trkpt lat="46.61234" lon="6.31929">
        <ele>1443</ele>
        <time>2019-05-04T20:42:22Z</time>
      </trkpt>
      <trkpt lat="46.61225" lon="6.31916">
        <ele>1444</ele>
        <time>2019-05-04T20:42:32Z</time>
      </trkpt>
      <trkpt lat="46.61224" lon="6.31907">
        <ele>1444</ele>
        <time>2019-05-04T20:42:36Z</time>
      </trkpt>
      <trkpt lat="46.61224" lon="6.31905">
        <ele>1444</ele>
        <time>2019-05-04T20:42:37Z</time>
      </trkpt>
      <trkpt lat="46.61231" lon="6.31903">
        <ele>1442</ele>
        <time>2019-05-04T20:42:42Z</time>
      </trkpt>
      <trkpt lat="46.61233" lon="6.31906">
        <ele>1441</ele>
        <time>2019-05-04T20:42:44Z</time>
      </trkpt>
      <trkpt lat="46.61236" lon="6.3191">
        <ele>1441</ele>
        <time>2019-05-04T20:42:47Z</time>
      </trkpt>
      <trkpt lat="46.61245" lon="6.31925">
        <ele>1439</ele>
        <time>2019-05-04T20:42:57Z</time>
      </trkpt>
      <trkpt lat="46.61247" lon="6.31929">
        <ele>1439</ele>
        <time>2019-05-04T20:42:59Z</time>
      </trkpt>
      <trkpt lat="46.61248" lon="6.31931">
        <ele>1439</ele>
        <time>2019-05-04T20:43:01Z</time>
      </trkpt>
      <trkpt lat="46.61245" lon="6.31946">
        <ele>1441</ele>
        <time>2019-05-04T20:43:09Z</time>
      </trkpt>
      <trkpt lat="46.61244" lon="6.31947">
        <ele>1441</ele>
        <time>2019-05-04T20:43:10Z</time>
      </trkpt>
      <trkpt lat="46.6124" lon="6.31949">
        <ele>1442</ele>
        <time>2019-05-04T20:43:12Z</time>
      </trkpt>
      <trkpt lat="46.6124" lon="6.3195">
        <ele>1442</ele>
        <time>2019-05-04T20:43:13Z</time>
      </trkpt>
      <trkpt lat="46.6124" lon="6.3195">
        <ele>1442</ele>
        <time>2019-05-04T20:43:13Z</time>
      </trkpt>
      <trkpt lat="46.61236" lon="6.31955">
        <ele>1444</ele>
        <time>2019-05-04T20:43:17Z</time>
      </trkpt>
      <trkpt lat="46.61234" lon="6.31961">
        <ele>1444</ele>
        <time>2019-05-04T20:43:20Z</time>
      </trkpt>
      <trkpt lat="46.61234" lon="6.31965">
        <ele>1445</ele>
        <time>2019-05-04T20:43:22Z</time>
      </trkpt>
      <trkpt lat="46.61233" lon="6.31969">
        <ele>1445</ele>
        <time>2019-05-04T20:43:24Z</time>
      </trkpt>
      <trkpt lat="46.61228" lon="6.31976">
        <ele>1447</ele>
        <time>2019-05-04T20:43:30Z</time>
      </trkpt>
      <trkpt lat="46.61225" lon="6.31979">
        <ele>1448</ele>
        <time>2019-05-04T20:43:32Z</time>
      </trkpt>
      <trkpt lat="46.61221" lon="6.31985">
        <ele>1449</ele>
        <time>2019-05-04T20:43:37Z</time>
      </trkpt>
      <trkpt lat="46.61221" lon="6.31987">
        <ele>1449</ele>
        <time>2019-05-04T20:43:38Z</time>
      </trkpt>
      <trkpt lat="46.6122" lon="6.31989">
        <ele>1450</ele>
        <time>2019-05-04T20:43:39Z</time>
      </trkpt>
      <trkpt lat="46.6122" lon="6.3199">
        <ele>1450</ele>
        <time>2019-05-04T20:43:40Z</time>
      </trkpt>
      <trkpt lat="46.6122" lon="6.31992">
        <ele>1450</ele>
        <time>2019-05-04T20:43:41Z</time>
      </trkpt>
      <trkpt lat="46.61217" lon="6.31994">
        <ele>1451</ele>
        <time>2019-05-04T20:43:43Z</time>
      </trkpt>
      <trkpt lat="46.61213" lon="6.31999">
        <ele>1452</ele>
        <time>2019-05-04T20:43:47Z</time>
      </trkpt>
      <trkpt lat="46.61211" lon="6.32002">
        <ele>1452</ele>
        <time>2019-05-04T20:43:49Z</time>
      </trkpt>
      <trkpt lat="46.6121" lon="6.32005">
        <ele>1453</ele>
        <time>2019-05-04T20:43:51Z</time>
      </trkpt>
      <trkpt lat="46.61209" lon="6.32006">
        <ele>1453</ele>
        <time>2019-05-04T20:43:51Z</time>
      </trkpt>
      <trkpt lat="46.61208" lon="6.32011">
        <ele>1453</ele>
        <time>2019-05-04T20:43:54Z</time>
      </trkpt>
      <trkpt lat="46.61201" lon="6.3202">
        <ele>1455</ele>
        <time>2019-05-04T20:44:01Z</time>
      </trkpt>
      <trkpt lat="46.61201" lon="6.32024">
        <ele>1455</ele>
        <time>2019-05-04T20:44:02Z</time>
      </trkpt>
      <trkpt lat="46.61192" lon="6.32028">
        <ele>1457</ele>
        <time>2019-05-04T20:44:09Z</time>
      </trkpt>
      <trkpt lat="46.6119" lon="6.32028">
        <ele>1457</ele>
        <time>2019-05-04T20:44:11Z</time>
      </trkpt>
      <trkpt lat="46.61187" lon="6.32029">
        <ele>1457</ele>
        <time>2019-05-04T20:44:13Z</time>
      </trkpt>
      <trkpt lat="46.61183" lon="6.32031">
        <ele>1458</ele>
        <time>2019-05-04T20:44:16Z</time>
      </trkpt>
      <trkpt lat="46.61178" lon="6.32032">
        <ele>1458</ele>
        <time>2019-05-04T20:44:19Z</time>
      </trkpt>
      <trkpt lat="46.61175" lon="6.32039">
        <ele>1458</ele>
        <time>2019-05-04T20:44:23Z</time>
      </trkpt>
      <trkpt lat="46.61174" lon="6.32044">
        <ele>1458</ele>
        <time>2019-05-04T20:44:26Z</time>
      </trkpt>
      <trkpt lat="46.61169" lon="6.32071">
        <ele>1457</ele>
        <time>2019-05-04T20:44:40Z</time>
      </trkpt>
      <trkpt lat="46.61168" lon="6.32073">
        <ele>1457</ele>
        <time>2019-05-04T20:44:41Z</time>
      </trkpt>
      <trkpt lat="46.61164" lon="6.32078">
        <ele>1457</ele>
        <time>2019-05-04T20:44:45Z</time>
      </trkpt>
      <trkpt lat="46.61162" lon="6.32079">
        <ele>1457</ele>
        <time>2019-05-04T20:44:47Z</time>
      </trkpt>
      <trkpt lat="46.6116" lon="6.32082">
        <ele>1457</ele>
        <time>2019-05-04T20:44:49Z</time>
      </trkpt>
      <trkpt lat="46.61159" lon="6.32084">
        <ele>1457</ele>
        <time>2019-05-04T20:44:49Z</time>
      </trkpt>
      <trkpt lat="46.61159" lon="6.32085">
        <ele>1457</ele>
        <time>2019-05-04T20:44:50Z</time>
      </trkpt>
      <trkpt lat="46.61156" lon="6.32086">
        <ele>1457</ele>
        <time>2019-05-04T20:44:52Z</time>
      </trkpt>
      <trkpt lat="46.61155" lon="6.32087">
        <ele>1457</ele>
        <time>2019-05-04T20:44:53Z</time>
      </trkpt>
      <trkpt lat="46.61152" lon="6.32087">
        <ele>1458</ele>
        <time>2019-05-04T20:44:56Z</time>
      </trkpt>
      <trkpt lat="46.6115" lon="6.32086">
        <ele>1458</ele>
        <time>2019-05-04T20:44:57Z</time>
      </trkpt>
      <trkpt lat="46.61143" lon="6.3209">
        <ele>1458</ele>
        <time>2019-05-04T20:45:03Z</time>
      </trkpt>
      <trkpt lat="46.61142" lon="6.32091">
        <ele>1458</ele>
        <time>2019-05-04T20:45:03Z</time>
      </trkpt>
      <trkpt lat="46.61141" lon="6.32096">
        <ele>1458</ele>
        <time>2019-05-04T20:45:06Z</time>
      </trkpt>
      <trkpt lat="46.61139" lon="6.321">
        <ele>1458</ele>
        <time>2019-05-04T20:45:08Z</time>
      </trkpt>
      <trkpt lat="46.61137" lon="6.32104">
        <ele>1458</ele>
        <time>2019-05-04T20:45:11Z</time>
      </trkpt>
      <trkpt lat="46.61137" lon="6.32107">
        <ele>1458</ele>
        <time>2019-05-04T20:45:12Z</time>
      </trkpt>
      <trkpt lat="46.61138" lon="6.32109">
        <ele>1458</ele>
        <time>2019-05-04T20:45:14Z</time>
      </trkpt>
      <trkpt lat="46.61141" lon="6.32128">
        <ele>1456</ele>
        <time>2019-05-04T20:45:23Z</time>
      </trkpt>
      <trkpt lat="46.61149" lon="6.32144">
        <ele>1454</ele>
        <time>2019-05-04T20:45:33Z</time>
      </trkpt>
      <trkpt lat="46.61149" lon="6.32146">
        <ele>1454</ele>
        <time>2019-05-04T20:45:34Z</time>
      </trkpt>
      <trkpt lat="46.61148" lon="6.32152">
        <ele>1454</ele>
        <time>2019-05-04T20:45:37Z</time>
      </trkpt>
      <trkpt lat="46.61147" lon="6.32156">
        <ele>1454</ele>
        <time>2019-05-04T20:45:39Z</time>
      </trkpt>
      <trkpt lat="46.61146" lon="6.32158">
        <ele>1454</ele>
        <time>2019-05-04T20:45:41Z</time>
      </trkpt>
      <trkpt lat="46.61143" lon="6.32162">
        <ele>1453</ele>
        <time>2019-05-04T20:45:43Z</time>
      </trkpt>
      <trkpt lat="46.61142" lon="6.32164">
        <ele>1453</ele>
        <time>2019-05-04T20:45:45Z</time>
      </trkpt>
      <trkpt lat="46.6114" lon="6.32166">
        <ele>1453</ele>
        <time>2019-05-04T20:45:46Z</time>
      </trkpt>
      <trkpt lat="46.61135" lon="6.3217">
        <ele>1453</ele>
        <time>2019-05-04T20:45:51Z</time>
      </trkpt>
      <trkpt lat="46.61129" lon="6.32172">
        <ele>1453</ele>
        <time>2019-05-04T20:45:55Z</time>
      </trkpt>
      <trkpt lat="46.61117" lon="6.32181">
        <ele>1453</ele>
        <time>2019-05-04T20:46:05Z</time>
      </trkpt>
      <trkpt lat="46.61111" lon="6.32185">
        <ele>1452</ele>
        <time>2019-05-04T20:46:10Z</time>
      </trkpt>
      <trkpt lat="46.61109" lon="6.32187">
        <ele>1452</ele>
        <time>2019-05-04T20:46:12Z</time>
      </trkpt>
      <trkpt lat="46.61107" lon="6.32188">
        <ele>1452</ele>
        <time>2019-05-04T20:46:13Z</time>
      </trkpt>
      <trkpt lat="46.61105" lon="6.32189">
        <ele>1452</ele>
        <time>2019-05-04T20:46:15Z</time>
      </trkpt>
      <trkpt lat="46.61088" lon="6.32175">
        <ele>1455</ele>
        <time>2019-05-04T20:46:29Z</time>
      </trkpt>
      <trkpt lat="46.61071" lon="6.32159">
        <ele>1458</ele>
        <time>2019-05-04T20:46:44Z</time>
      </trkpt>
      <trkpt lat="46.61053" lon="6.32158">
        <ele>1460</ele>
        <time>2019-05-04T20:46:57Z</time>
      </trkpt>
      <trkpt lat="46.61038" lon="6.32171">
        <ele>1460</ele>
        <time>2019-05-04T20:47:09Z</time>
      </trkpt>
      <trkpt lat="46.6103" lon="6.32184">
        <ele>1459</ele>
        <time>2019-05-04T20:47:18Z</time>
      </trkpt>
      <trkpt lat="46.61027" lon="6.3221">
        <ele>1458</ele>
        <time>2019-05-04T20:47:31Z</time>
      </trkpt>
      <trkpt lat="46.61026" lon="6.32227">
        <ele>1458</ele>
        <time>2019-05-04T20:47:40Z</time>
      </trkpt>
      <trkpt lat="46.61025" lon="6.3224">
        <ele>1457</ele>
        <time>2019-05-04T20:47:46Z</time>
      </trkpt>
      <trkpt lat="46.61024" lon="6.3225">
        <ele>1457</ele>
        <time>2019-05-04T20:47:51Z</time>
      </trkpt>
      <trkpt lat="46.61026" lon="6.32263">
        <ele>1456</ele>
        <time>2019-05-04T20:47:58Z</time>
      </trkpt>
      <trkpt lat="46.61037" lon="6.32283">
        <ele>1455</ele>
        <time>2019-05-04T20:48:11Z</time>
      </trkpt>
      <trkpt lat="46.61045" lon="6.32291">
        <ele>1453</ele>
        <time>2019-05-04T20:48:18Z</time>
      </trkpt>
      <trkpt lat="46.61053" lon="6.32306">
        <ele>1452</ele>
        <time>2019-05-04T20:48:27Z</time>
      </trkpt>
      <trkpt lat="46.61066" lon="6.32326">
        <ele>1450</ele>
        <time>2019-05-04T20:48:41Z</time>
      </trkpt>
      <trkpt lat="46.61079" lon="6.32346">
        <ele>1447</ele>
        <time>2019-05-04T20:48:55Z</time>
      </trkpt>
      <trkpt lat="46.61083" lon="6.32351">
        <ele>1447</ele>
        <time>2019-05-04T20:48:58Z</time>
      </trkpt>
      <trkpt lat="46.61086" lon="6.32356">
        <ele>1446</ele>
        <time>2019-05-04T20:49:02Z</time>
      </trkpt>
      <trkpt lat="46.61101" lon="6.32372">
        <ele>1444</ele>
        <time>2019-05-04T20:49:15Z</time>
      </trkpt>
      <trkpt lat="46.61116" lon="6.32384">
        <ele>1442</ele>
        <time>2019-05-04T20:49:28Z</time>
      </trkpt>
      <trkpt lat="46.61117" lon="6.32385">
        <ele>1443</ele>
        <time>2019-05-04T20:49:29Z</time>
      </trkpt>
      <trkpt lat="46.61124" lon="6.32399">
        <ele>1443</ele>
        <time>2019-05-04T20:49:38Z</time>
      </trkpt>
      <trkpt lat="46.61127" lon="6.3242">
        <ele>1442</ele>
        <time>2019-05-04T20:49:49Z</time>
      </trkpt>
      <trkpt lat="46.6113" lon="6.32446">
        <ele>1442</ele>
        <time>2019-05-04T20:50:01Z</time>
      </trkpt>
      <trkpt lat="46.61132" lon="6.32452">
        <ele>1441</ele>
        <time>2019-05-04T20:50:05Z</time>
      </trkpt>
      <trkpt lat="46.6113" lon="6.32479">
        <ele>1439</ele>
        <time>2019-05-04T20:50:19Z</time>
      </trkpt>
      <trkpt lat="46.61127" lon="6.32488">
        <ele>1439</ele>
        <time>2019-05-04T20:50:23Z</time>
      </trkpt>
      <trkpt lat="46.61126" lon="6.32506">
        <ele>1438</ele>
        <time>2019-05-04T20:50:32Z</time>
      </trkpt>
      <trkpt lat="46.61126" lon="6.32516">
        <ele>1437</ele>
        <time>2019-05-04T20:50:37Z</time>
      </trkpt>
      <trkpt lat="46.6113" lon="6.32535">
        <ele>1437</ele>
        <time>2019-05-04T20:50:47Z</time>
      </trkpt>
      <trkpt lat="46.61133" lon="6.32546">
        <ele>1437</ele>
        <time>2019-05-04T20:50:53Z</time>
      </trkpt>
      <trkpt lat="46.6114" lon="6.32572">
        <ele>1436</ele>
        <time>2019-05-04T20:51:07Z</time>
      </trkpt>
      <trkpt lat="46.61143" lon="6.32581">
        <ele>1436</ele>
        <time>2019-05-04T20:51:12Z</time>
      </trkpt>
      <trkpt lat="46.6115" lon="6.32603">
        <ele>1435</ele>
        <time>2019-05-04T20:51:24Z</time>
      </trkpt>
      <trkpt lat="46.61154" lon="6.3261">
        <ele>1435</ele>
        <time>2019-05-04T20:51:29Z</time>
      </trkpt>
      <trkpt lat="46.61158" lon="6.32624">
        <ele>1435</ele>
        <time>2019-05-04T20:51:36Z</time>
      </trkpt>
      <trkpt lat="46.61168" lon="6.32648">
        <ele>1435</ele>
        <time>2019-05-04T20:51:50Z</time>
      </trkpt>
      <trkpt lat="46.61178" lon="6.32674">
        <ele>1435</ele>
        <time>2019-05-04T20:52:05Z</time>
      </trkpt>
      <trkpt lat="46.61189" lon="6.32695">
        <ele>1435</ele>
        <time>2019-05-04T20:52:18Z</time>
      </trkpt>
      <trkpt lat="46.61191" lon="6.32698">
        <ele>1435</ele>
        <time>2019-05-04T20:52:20Z</time>
      </trkpt>
      <trkpt lat="46.61206" lon="6.32718">
        <ele>1434</ele>
        <time>2019-05-04T20:52:35Z</time>
      </trkpt>
      <trkpt lat="46.61221" lon="6.32736">
        <ele>1433</ele>
        <time>2019-05-04T20:52:49Z</time>
      </trkpt>
      <trkpt lat="46.61237" lon="6.3275">
        <ele>1431</ele>
        <time>2019-05-04T20:53:03Z</time>
      </trkpt>
      <trkpt lat="46.61244" lon="6.32755">
        <ele>1430</ele>
        <time>2019-05-04T20:53:08Z</time>
      </trkpt>
      <trkpt lat="46.61262" lon="6.32766">
        <ele>1427</ele>
        <time>2019-05-04T20:53:22Z</time>
      </trkpt>
      <trkpt lat="46.61279" lon="6.32777">
        <ele>1425</ele>
        <time>2019-05-04T20:53:36Z</time>
      </trkpt>
      <trkpt lat="46.61298" lon="6.32788">
        <ele>1425</ele>
        <time>2019-05-04T20:53:51Z</time>
      </trkpt>
      <trkpt lat="46.6131" lon="6.32795">
        <ele>1425</ele>
        <time>2019-05-04T20:54:00Z</time>
      </trkpt>
      <trkpt lat="46.61328" lon="6.32806">
        <ele>1425</ele>
        <time>2019-05-04T20:54:14Z</time>
      </trkpt>
      <trkpt lat="46.61345" lon="6.32817">
        <ele>1424</ele>
        <time>2019-05-04T20:54:27Z</time>
      </trkpt>
      <trkpt lat="46.6135" lon="6.32819">
        <ele>1424</ele>
        <time>2019-05-04T20:54:31Z</time>
      </trkpt>
      <trkpt lat="46.61369" lon="6.32827">
        <ele>1423</ele>
        <time>2019-05-04T20:54:45Z</time>
      </trkpt>
      <trkpt lat="46.61386" lon="6.32838">
        <ele>1424</ele>
        <time>2019-05-04T20:54:59Z</time>
      </trkpt>
      <trkpt lat="46.6139" lon="6.32841">
        <ele>1424</ele>
        <time>2019-05-04T20:55:02Z</time>
      </trkpt>
      <trkpt lat="46.61393" lon="6.32843">
        <ele>1424</ele>
        <time>2019-05-04T20:55:04Z</time>
      </trkpt>
      <trkpt lat="46.61407" lon="6.32852">
        <ele>1424</ele>
        <time>2019-05-04T20:55:15Z</time>
      </trkpt>
      <trkpt lat="46.61409" lon="6.32857">
        <ele>1424</ele>
        <time>2019-05-04T20:55:19Z</time>
      </trkpt>
      <trkpt lat="46.61408" lon="6.32859">
        <ele>1425</ele>
        <time>2019-05-04T20:55:20Z</time>
      </trkpt>
      <trkpt lat="46.61404" lon="6.32864">
        <ele>1425</ele>
        <time>2019-05-04T20:55:24Z</time>
      </trkpt>
      <trkpt lat="46.61387" lon="6.32871">
        <ele>1427</ele>
        <time>2019-05-04T20:55:37Z</time>
      </trkpt>
      <trkpt lat="46.6138" lon="6.32871">
        <ele>1428</ele>
        <time>2019-05-04T20:55:42Z</time>
      </trkpt>
      <trkpt lat="46.61374" lon="6.32875">
        <ele>1429</ele>
        <time>2019-05-04T20:55:46Z</time>
      </trkpt>
      <trkpt lat="46.61369" lon="6.32878">
        <ele>1429</ele>
        <time>2019-05-04T20:55:51Z</time>
      </trkpt>
      <trkpt lat="46.61363" lon="6.3288">
        <ele>1430</ele>
        <time>2019-05-04T20:55:55Z</time>
      </trkpt>
      <trkpt lat="46.61353" lon="6.32889">
        <ele>1433</ele>
        <time>2019-05-04T20:56:04Z</time>
      </trkpt>
      <trkpt lat="46.61348" lon="6.32895">
        <ele>1435</ele>
        <time>2019-05-04T20:56:08Z</time>
      </trkpt>
      <trkpt lat="46.61344" lon="6.32899">
        <ele>1436</ele>
        <time>2019-05-04T20:56:12Z</time>
      </trkpt>
      <trkpt lat="46.6134" lon="6.32904">
        <ele>1437</ele>
        <time>2019-05-04T20:56:16Z</time>
      </trkpt>
      <trkpt lat="46.61336" lon="6.32906">
        <ele>1438</ele>
        <time>2019-05-04T20:56:19Z</time>
      </trkpt>
      <trkpt lat="46.61325" lon="6.32909">
        <ele>1440</ele>
        <time>2019-05-04T20:56:27Z</time>
      </trkpt>
      <trkpt lat="46.61318" lon="6.32908">
        <ele>1440</ele>
        <time>2019-05-04T20:56:32Z</time>
      </trkpt>
      <trkpt lat="46.61315" lon="6.32907">
        <ele>1440</ele>
        <time>2019-05-04T20:56:35Z</time>
      </trkpt>
      <trkpt lat="46.6131" lon="6.32907">
        <ele>1441</ele>
        <time>2019-05-04T20:56:38Z</time>
      </trkpt>
      <trkpt lat="46.61306" lon="6.32906">
        <ele>1441</ele>
        <time>2019-05-04T20:56:41Z</time>
      </trkpt>
      <trkpt lat="46.61299" lon="6.32905">
        <ele>1442</ele>
        <time>2019-05-04T20:56:47Z</time>
      </trkpt>
      <trkpt lat="46.61295" lon="6.32905">
        <ele>1442</ele>
        <time>2019-05-04T20:56:49Z</time>
      </trkpt>
      <trkpt lat="46.61295" lon="6.32905">
        <ele>1443</ele>
        <time>2019-05-04T20:56:50Z</time>
      </trkpt>
      <trkpt lat="46.61279" lon="6.3292">
        <ele>1446</ele>
        <time>2019-05-04T20:57:03Z</time>
      </trkpt>
      <trkpt lat="46.61276" lon="6.32922">
        <ele>1447</ele>
        <time>2019-05-04T20:57:06Z</time>
      </trkpt>
      <trkpt lat="46.6127" lon="6.32924">
        <ele>1447</ele>
        <time>2019-05-04T20:57:10Z</time>
      </trkpt>
      <trkpt lat="46.61259" lon="6.32929">
        <ele>1448</ele>
        <time>2019-05-04T20:57:18Z</time>
      </trkpt>
      <trkpt lat="46.61258" lon="6.3293">
        <ele>1449</ele>
        <time>2019-05-04T20:57:20Z</time>
      </trkpt>
      <trkpt lat="46.61256" lon="6.32931">
        <ele>1449</ele>
        <time>2019-05-04T20:57:21Z</time>
      </trkpt>
      <trkpt lat="46.61255" lon="6.32932">
        <ele>1449</ele>
        <time>2019-05-04T20:57:22Z</time>
      </trkpt>
      <trkpt lat="46.61255" lon="6.32932">
        <ele>1449</ele>
        <time>2019-05-04T20:57:22Z</time>
      </trkpt>
      <trkpt lat="46.61254" lon="6.32933">
        <ele>1449</ele>
        <time>2019-05-04T20:57:23Z</time>
      </trkpt>
      <trkpt lat="46.61252" lon="6.32934">
        <ele>1449</ele>
        <time>2019-05-04T20:57:25Z</time>
      </trkpt>
      <trkpt lat="46.61251" lon="6.32935">
        <ele>1449</ele>
        <time>2019-05-04T20:57:25Z</time>
      </trkpt>
      <trkpt lat="46.61248" lon="6.32939">
        <ele>1450</ele>
        <time>2019-05-04T20:57:28Z</time>
      </trkpt>
      <trkpt lat="46.61248" lon="6.3294">
        <ele>1450</ele>
        <time>2019-05-04T20:57:28Z</time>
      </trkpt>
      <trkpt lat="46.61245" lon="6.32946">
        <ele>1451</ele>
        <time>2019-05-04T20:57:33Z</time>
      </trkpt>
      <trkpt lat="46.61243" lon="6.32947">
        <ele>1451</ele>
        <time>2019-05-04T20:57:34Z</time>
      </trkpt>
      <trkpt lat="46.61242" lon="6.3295">
        <ele>1452</ele>
        <time>2019-05-04T20:57:36Z</time>
      </trkpt>
      <trkpt lat="46.61241" lon="6.32951">
        <ele>1452</ele>
        <time>2019-05-04T20:57:36Z</time>
      </trkpt>
      <trkpt lat="46.6124" lon="6.32954">
        <ele>1452</ele>
        <time>2019-05-04T20:57:38Z</time>
      </trkpt>
      <trkpt lat="46.61238" lon="6.32957">
        <ele>1453</ele>
        <time>2019-05-04T20:57:40Z</time>
      </trkpt>
      <trkpt lat="46.61234" lon="6.3296">
        <ele>1453</ele>
        <time>2019-05-04T20:57:43Z</time>
      </trkpt>
      <trkpt lat="46.61231" lon="6.3296">
        <ele>1453</ele>
        <time>2019-05-04T20:57:45Z</time>
      </trkpt>
      <trkpt lat="46.61229" lon="6.3296">
        <ele>1454</ele>
        <time>2019-05-04T20:57:47Z</time>
      </trkpt>
      <trkpt lat="46.61221" lon="6.32972">
        <ele>1456</ele>
        <time>2019-05-04T20:57:55Z</time>
      </trkpt>
      <trkpt lat="46.61221" lon="6.32973">
        <ele>1456</ele>
        <time>2019-05-04T20:57:56Z</time>
      </trkpt>
      <trkpt lat="46.61215" lon="6.32978">
        <ele>1457</ele>
        <time>2019-05-04T20:58:01Z</time>
      </trkpt>
      <trkpt lat="46.61208" lon="6.32983">
        <ele>1458</ele>
        <time>2019-05-04T20:58:07Z</time>
      </trkpt>
      <trkpt lat="46.61199" lon="6.32988">
        <ele>1460</ele>
        <time>2019-05-04T20:58:13Z</time>
      </trkpt>
      <trkpt lat="46.61193" lon="6.32989">
        <ele>1461</ele>
        <time>2019-05-04T20:58:18Z</time>
      </trkpt>
      <trkpt lat="46.61189" lon="6.32993">
        <ele>1462</ele>
        <time>2019-05-04T20:58:22Z</time>
      </trkpt>
      <trkpt lat="46.61187" lon="6.32995">
        <ele>1463</ele>
        <time>2019-05-04T20:58:24Z</time>
      </trkpt>
      <trkpt lat="46.61186" lon="6.32996">
        <ele>1464</ele>
        <time>2019-05-04T20:58:25Z</time>
      </trkpt>
      <trkpt lat="46.61185" lon="6.32996">
        <ele>1464</ele>
        <time>2019-05-04T20:58:25Z</time>
      </trkpt>
      <trkpt lat="46.61183" lon="6.32998">
        <ele>1465</ele>
        <time>2019-05-04T20:58:27Z</time>
      </trkpt>
      <trkpt lat="46.61181" lon="6.33001">
        <ele>1466</ele>
        <time>2019-05-04T20:58:29Z</time>
      </trkpt>
      <trkpt lat="46.61176" lon="6.33004">
        <ele>1468</ele>
        <time>2019-05-04T20:58:34Z</time>
      </trkpt>
      <trkpt lat="46.6117" lon="6.33007">
        <ele>1470</ele>
        <time>2019-05-04T20:58:38Z</time>
      </trkpt>
      <trkpt lat="46.61168" lon="6.33008">
        <ele>1470</ele>
        <time>2019-05-04T20:58:40Z</time>
      </trkpt>
      <trkpt lat="46.61166" lon="6.33009">
        <ele>1471</ele>
        <time>2019-05-04T20:58:41Z</time>
      </trkpt>
      <trkpt lat="46.61162" lon="6.33012">
        <ele>1472</ele>
        <time>2019-05-04T20:58:44Z</time>
      </trkpt>
      <trkpt lat="46.61159" lon="6.33013">
        <ele>1473</ele>
        <time>2019-05-04T20:58:47Z</time>
      </trkpt>
      <trkpt lat="46.61157" lon="6.33012">
        <ele>1474</ele>
        <time>2019-05-04T20:58:49Z</time>
      </trkpt>
      <trkpt lat="46.61151" lon="6.33013">
        <ele>1475</ele>
        <time>2019-05-04T20:58:53Z</time>
      </trkpt>
      <trkpt lat="46.61149" lon="6.33013">
        <ele>1476</ele>
        <time>2019-05-04T20:58:54Z</time>
      </trkpt>
      <trkpt lat="46.61146" lon="6.33013">
        <ele>1477</ele>
        <time>2019-05-04T20:58:57Z</time>
      </trkpt>
      <trkpt lat="46.61145" lon="6.33013">
        <ele>1477</ele>
        <time>2019-05-04T20:58:57Z</time>
      </trkpt>
      <trkpt lat="46.61144" lon="6.33014">
        <ele>1478</ele>
        <time>2019-05-04T20:58:59Z</time>
      </trkpt>
      <trkpt lat="46.61142" lon="6.33014">
        <ele>1478</ele>
        <time>2019-05-04T20:59:00Z</time>
      </trkpt>
      <trkpt lat="46.61142" lon="6.33014">
        <ele>1478</ele>
        <time>2019-05-04T20:59:00Z</time>
      </trkpt>
      <trkpt lat="46.61136" lon="6.33014">
        <ele>1480</ele>
        <time>2019-05-04T20:59:04Z</time>
      </trkpt>
      <trkpt lat="46.61135" lon="6.33014">
        <ele>1480</ele>
        <time>2019-05-04T20:59:05Z</time>
      </trkpt>
      <trkpt lat="46.61133" lon="6.33013">
        <ele>1480</ele>
        <time>2019-05-04T20:59:07Z</time>
      </trkpt>
      <trkpt lat="46.61131" lon="6.33012">
        <ele>1480</ele>
        <time>2019-05-04T20:59:08Z</time>
      </trkpt>
      <trkpt lat="46.61128" lon="6.33012">
        <ele>1481</ele>
        <time>2019-05-04T20:59:10Z</time>
      </trkpt>
      <trkpt lat="46.61127" lon="6.33012">
        <ele>1482</ele>
        <time>2019-05-04T20:59:12Z</time>
      </trkpt>
      <trkpt lat="46.61124" lon="6.3301">
        <ele>1482</ele>
        <time>2019-05-04T20:59:14Z</time>
      </trkpt>
      <trkpt lat="46.61122" lon="6.3301">
        <ele>1483</ele>
        <time>2019-05-04T20:59:15Z</time>
      </trkpt>
      <trkpt lat="46.61118" lon="6.33007">
        <ele>1483</ele>
        <time>2019-05-04T20:59:18Z</time>
      </trkpt>
      <trkpt lat="46.61117" lon="6.33006">
        <ele>1484</ele>
        <time>2019-05-04T20:59:20Z</time>
      </trkpt>
      <trkpt lat="46.61107" lon="6.33001">
        <ele>1486</ele>
        <time>2019-05-04T20:59:27Z</time>
      </trkpt>
      <trkpt lat="46.61103" lon="6.32999">
        <ele>1487</ele>
        <time>2019-05-04T20:59:30Z</time>
      </trkpt>
      <trkpt lat="46.611" lon="6.32994">
        <ele>1487</ele>
        <time>2019-05-04T20:59:34Z</time>
      </trkpt>
      <trkpt lat="46.61096" lon="6.32988">
        <ele>1488</ele>
        <time>2019-05-04T20:59:38Z</time>
      </trkpt>
      <trkpt lat="46.61095" lon="6.32987">
        <ele>1489</ele>
        <time>2019-05-04T20:59:39Z</time>
      </trkpt>
      <trkpt lat="46.61094" lon="6.32986">
        <ele>1489</ele>
        <time>2019-05-04T20:59:40Z</time>
      </trkpt>
      <trkpt lat="46.61092" lon="6.32985">
        <ele>1489</ele>
        <time>2019-05-04T20:59:41Z</time>
      </trkpt>
      <trkpt lat="46.61091" lon="6.32984">
        <ele>1489</ele>
        <time>2019-05-04T20:59:42Z</time>
      </trkpt>
      <trkpt lat="46.61084" lon="6.32976">
        <ele>1491</ele>
        <time>2019-05-04T20:59:49Z</time>
      </trkpt>
      <trkpt lat="46.61081" lon="6.32968">
        <ele>1491</ele>
        <time>2019-05-04T20:59:54Z</time>
      </trkpt>
      <trkpt lat="46.61073" lon="6.32955">
        <ele>1492</ele>
        <time>2019-05-04T21:00:02Z</time>
      </trkpt>
      <trkpt lat="46.6107" lon="6.32953">
        <ele>1492</ele>
        <time>2019-05-04T21:00:04Z</time>
      </trkpt>
      <trkpt lat="46.61066" lon="6.3295">
        <ele>1493</ele>
        <time>2019-05-04T21:00:08Z</time>
      </trkpt>
      <trkpt lat="46.61064" lon="6.32948">
        <ele>1494</ele>
        <time>2019-05-04T21:00:10Z</time>
      </trkpt>
      <trkpt lat="46.61055" lon="6.32942">
        <ele>1496</ele>
        <time>2019-05-04T21:00:17Z</time>
      </trkpt>
      <trkpt lat="46.61043" lon="6.32938">
        <ele>1499</ele>
        <time>2019-05-04T21:00:26Z</time>
      </trkpt>
      <trkpt lat="46.61035" lon="6.32935">
        <ele>1501</ele>
        <time>2019-05-04T21:00:32Z</time>
      </trkpt>
      <trkpt lat="46.61035" lon="6.32918">
        <ele>1497</ele>
        <time>2019-05-04T21:00:41Z</time>
      </trkpt>
      <trkpt lat="46.6103" lon="6.32906">
        <ele>1496</ele>
        <time>2019-05-04T21:00:48Z</time>
      </trkpt>
      <trkpt lat="46.61018" lon="6.32884">
        <ele>1496</ele>
        <time>2019-05-04T21:01:02Z</time>
      </trkpt>
      <trkpt lat="46.61018" lon="6.32881">
        <ele>1495</ele>
        <time>2019-05-04T21:01:03Z</time>
      </trkpt>
      <trkpt lat="46.61011" lon="6.32875">
        <ele>1496</ele>
        <time>2019-05-04T21:01:09Z</time>
      </trkpt>
      <trkpt lat="46.61011" lon="6.32873">
        <ele>1496</ele>
        <time>2019-05-04T21:01:10Z</time>
      </trkpt>
      <trkpt lat="46.61004" lon="6.32865">
        <ele>1497</ele>
        <time>2019-05-04T21:01:16Z</time>
      </trkpt>
      <trkpt lat="46.60986" lon="6.32854">
        <ele>1501</ele>
        <time>2019-05-04T21:01:31Z</time>
      </trkpt>
      <trkpt lat="46.60973" lon="6.32834">
        <ele>1503</ele>
        <time>2019-05-04T21:01:44Z</time>
      </trkpt>
      <trkpt lat="46.60967" lon="6.32826">
        <ele>1503</ele>
        <time>2019-05-04T21:01:50Z</time>
      </trkpt>
      <trkpt lat="46.60964" lon="6.3282">
        <ele>1504</ele>
        <time>2019-05-04T21:01:54Z</time>
      </trkpt>
      <trkpt lat="46.60964" lon="6.32819">
        <ele>1504</ele>
        <time>2019-05-04T21:01:55Z</time>
      </trkpt>
      <trkpt lat="46.60949" lon="6.32801">
        <ele>1505</ele>
        <time>2019-05-04T21:02:08Z</time>
      </trkpt>
      <trkpt lat="46.60949" lon="6.32798">
        <ele>1505</ele>
        <time>2019-05-04T21:02:10Z</time>
      </trkpt>
      <trkpt lat="46.60938" lon="6.32778">
        <ele>1505</ele>
        <time>2019-05-04T21:02:22Z</time>
      </trkpt>
      <trkpt lat="46.60935" lon="6.32774">
        <ele>1505</ele>
        <time>2019-05-04T21:02:26Z</time>
      </trkpt>
      <trkpt lat="46.60933" lon="6.32771">
        <ele>1506</ele>
        <time>2019-05-04T21:02:28Z</time>
      </trkpt>
      <trkpt lat="46.60932" lon="6.3277">
        <ele>1506</ele>
        <time>2019-05-04T21:02:29Z</time>
      </trkpt>
      <trkpt lat="46.60931" lon="6.3277">
        <ele>1506</ele>
        <time>2019-05-04T21:02:29Z</time>
      </trkpt>
      <trkpt lat="46.60928" lon="6.32767">
        <ele>1507</ele>
        <time>2019-05-04T21:02:32Z</time>
      </trkpt>
      <trkpt lat="46.60926" lon="6.32765">
        <ele>1507</ele>
        <time>2019-05-04T21:02:33Z</time>
      </trkpt>
      <trkpt lat="46.60917" lon="6.32753">
        <ele>1509</ele>
        <time>2019-05-04T21:02:43Z</time>
      </trkpt>
      <trkpt lat="46.60915" lon="6.3275">
        <ele>1509</ele>
        <time>2019-05-04T21:02:45Z</time>
      </trkpt>
      <trkpt lat="46.6091" lon="6.32731">
        <ele>1508</ele>
        <time>2019-05-04T21:02:55Z</time>
      </trkpt>
      <trkpt lat="46.60905" lon="6.32726">
        <ele>1509</ele>
        <time>2019-05-04T21:02:59Z</time>
      </trkpt>
      <trkpt lat="46.60895" lon="6.32705">
        <ele>1509</ele>
        <time>2019-05-04T21:03:12Z</time>
      </trkpt>
      <trkpt lat="46.60886" lon="6.3268">
        <ele>1508</ele>
        <time>2019-05-04T21:03:26Z</time>
      </trkpt>
      <trkpt lat="46.60875" lon="6.32659">
        <ele>1509</ele>
        <time>2019-05-04T21:03:39Z</time>
      </trkpt>
      <trkpt lat="46.60862" lon="6.32638">
        <ele>1509</ele>
        <time>2019-05-04T21:03:53Z</time>
      </trkpt>
      <trkpt lat="46.60859" lon="6.32625">
        <ele>1508</ele>
        <time>2019-05-04T21:04:00Z</time>
      </trkpt>
      <trkpt lat="46.60857" lon="6.3262">
        <ele>1508</ele>
        <time>2019-05-04T21:04:03Z</time>
      </trkpt>
      <trkpt lat="46.60855" lon="6.32617">
        <ele>1508</ele>
        <time>2019-05-04T21:04:05Z</time>
      </trkpt>
      <trkpt lat="46.60839" lon="6.32605">
        <ele>1511</ele>
        <time>2019-05-04T21:04:18Z</time>
      </trkpt>
      <trkpt lat="46.60828" lon="6.32583">
        <ele>1512</ele>
        <time>2019-05-04T21:04:32Z</time>
      </trkpt>
      <trkpt lat="46.60821" lon="6.32572">
        <ele>1513</ele>
        <time>2019-05-04T21:04:39Z</time>
      </trkpt>
      <trkpt lat="46.6082" lon="6.32571">
        <ele>1513</ele>
        <time>2019-05-04T21:04:40Z</time>
      </trkpt>
      <trkpt lat="46.60816" lon="6.32568">
        <ele>1514</ele>
        <time>2019-05-04T21:04:43Z</time>
      </trkpt>
      <trkpt lat="46.60816" lon="6.32568">
        <ele>1514</ele>
        <time>2019-05-04T21:04:43Z</time>
      </trkpt>
      <trkpt lat="46.60811" lon="6.3256">
        <ele>1515</ele>
        <time>2019-05-04T21:04:48Z</time>
      </trkpt>
      <trkpt lat="46.6081" lon="6.3256">
        <ele>1515</ele>
        <time>2019-05-04T21:04:49Z</time>
      </trkpt>
      <trkpt lat="46.60809" lon="6.32553">
        <ele>1514</ele>
        <time>2019-05-04T21:04:52Z</time>
      </trkpt>
      <trkpt lat="46.60808" lon="6.32549">
        <ele>1514</ele>
        <time>2019-05-04T21:04:54Z</time>
      </trkpt>
      <trkpt lat="46.60802" lon="6.32538">
        <ele>1514</ele>
        <time>2019-05-04T21:05:02Z</time>
      </trkpt>
      <trkpt lat="46.60787" lon="6.3252">
        <ele>1516</ele>
        <time>2019-05-04T21:05:15Z</time>
      </trkpt>
      <trkpt lat="46.60776" lon="6.32497">
        <ele>1517</ele>
        <time>2019-05-04T21:05:30Z</time>
      </trkpt>
      <trkpt lat="46.60771" lon="6.3247">
        <ele>1516</ele>
        <time>2019-05-04T21:05:43Z</time>
      </trkpt>
      <trkpt lat="46.6077" lon="6.32459">
        <ele>1515</ele>
        <time>2019-05-04T21:05:49Z</time>
      </trkpt>
      <trkpt lat="46.60761" lon="6.32436">
        <ele>1515</ele>
        <time>2019-05-04T21:06:02Z</time>
      </trkpt>
      <trkpt lat="46.60758" lon="6.32435">
        <ele>1516</ele>
        <time>2019-05-04T21:06:04Z</time>
      </trkpt>
      <trkpt lat="46.60753" lon="6.32426">
        <ele>1516</ele>
        <time>2019-05-04T21:06:10Z</time>
      </trkpt>
      <trkpt lat="46.60748" lon="6.32418">
        <ele>1517</ele>
        <time>2019-05-04T21:06:16Z</time>
      </trkpt>
      <trkpt lat="46.60733" lon="6.32415">
        <ele>1521</ele>
        <time>2019-05-04T21:06:27Z</time>
      </trkpt>
      <trkpt lat="46.6073" lon="6.32414">
        <ele>1522</ele>
        <time>2019-05-04T21:06:29Z</time>
      </trkpt>
      <trkpt lat="46.60727" lon="6.32412">
        <ele>1523</ele>
        <time>2019-05-04T21:06:32Z</time>
      </trkpt>
      <trkpt lat="46.60719" lon="6.32395">
        <ele>1524</ele>
        <time>2019-05-04T21:06:42Z</time>
      </trkpt>
      <trkpt lat="46.60715" lon="6.32382">
        <ele>1523</ele>
        <time>2019-05-04T21:06:49Z</time>
      </trkpt>
      <trkpt lat="46.60712" lon="6.32378">
        <ele>1524</ele>
        <time>2019-05-04T21:06:52Z</time>
      </trkpt>
      <trkpt lat="46.60711" lon="6.32377">
        <ele>1524</ele>
        <time>2019-05-04T21:06:53Z</time>
      </trkpt>
      <trkpt lat="46.60711" lon="6.32376">
        <ele>1524</ele>
        <time>2019-05-04T21:06:54Z</time>
      </trkpt>
      <trkpt lat="46.6071" lon="6.32374">
        <ele>1524</ele>
        <time>2019-05-04T21:06:55Z</time>
      </trkpt>
      <trkpt lat="46.6071" lon="6.32373">
        <ele>1524</ele>
        <time>2019-05-04T21:06:55Z</time>
      </trkpt>
      <trkpt lat="46.60708" lon="6.3237">
        <ele>1524</ele>
        <time>2019-05-04T21:06:57Z</time>
      </trkpt>
      <trkpt lat="46.60707" lon="6.3237">
        <ele>1524</ele>
        <time>2019-05-04T21:06:58Z</time>
      </trkpt>
      <trkpt lat="46.60705" lon="6.32367">
        <ele>1524</ele>
        <time>2019-05-04T21:07:00Z</time>
      </trkpt>
      <trkpt lat="46.60703" lon="6.32365">
        <ele>1525</ele>
        <time>2019-05-04T21:07:02Z</time>
      </trkpt>
      <trkpt lat="46.60703" lon="6.32364">
        <ele>1525</ele>
        <time>2019-05-04T21:07:02Z</time>
      </trkpt>
      <trkpt lat="46.60699" lon="6.3236">
        <ele>1526</ele>
        <time>2019-05-04T21:07:06Z</time>
      </trkpt>
      <trkpt lat="46.60697" lon="6.32357">
        <ele>1526</ele>
        <time>2019-05-04T21:07:08Z</time>
      </trkpt>
      <trkpt lat="46.60697" lon="6.32357">
        <ele>1526</ele>
        <time>2019-05-04T21:07:08Z</time>
      </trkpt>
      <trkpt lat="46.60695" lon="6.32356">
        <ele>1526</ele>
        <time>2019-05-04T21:07:09Z</time>
      </trkpt>
      <trkpt lat="46.60694" lon="6.32355">
        <ele>1527</ele>
        <time>2019-05-04T21:07:10Z</time>
      </trkpt>
      <trkpt lat="46.60693" lon="6.32352">
        <ele>1527</ele>
        <time>2019-05-04T21:07:12Z</time>
      </trkpt>
      <trkpt lat="46.60689" lon="6.32348">
        <ele>1528</ele>
        <time>2019-05-04T21:07:16Z</time>
      </trkpt>
      <trkpt lat="46.60688" lon="6.32348">
        <ele>1528</ele>
        <time>2019-05-04T21:07:16Z</time>
      </trkpt>
      <trkpt lat="46.60687" lon="6.32347">
        <ele>1529</ele>
        <time>2019-05-04T21:07:18Z</time>
      </trkpt>
      <trkpt lat="46.60685" lon="6.32346">
        <ele>1530</ele>
        <time>2019-05-04T21:07:19Z</time>
      </trkpt>
      <trkpt lat="46.60684" lon="6.32345">
        <ele>1530</ele>
        <time>2019-05-04T21:07:20Z</time>
      </trkpt>
      <trkpt lat="46.60679" lon="6.32341">
        <ele>1532</ele>
        <time>2019-05-04T21:07:24Z</time>
      </trkpt>
      <trkpt lat="46.60677" lon="6.3234">
        <ele>1533</ele>
        <time>2019-05-04T21:07:26Z</time>
      </trkpt>
      <trkpt lat="46.60675" lon="6.32338">
        <ele>1533</ele>
        <time>2019-05-04T21:07:28Z</time>
      </trkpt>
      <trkpt lat="46.60672" lon="6.32333">
        <ele>1534</ele>
        <time>2019-05-04T21:07:31Z</time>
      </trkpt>
      <trkpt lat="46.60668" lon="6.3233">
        <ele>1536</ele>
        <time>2019-05-04T21:07:35Z</time>
      </trkpt>
      <trkpt lat="46.60664" lon="6.32327">
        <ele>1537</ele>
        <time>2019-05-04T21:07:38Z</time>
      </trkpt>
      <trkpt lat="46.60664" lon="6.32324">
        <ele>1537</ele>
        <time>2019-05-04T21:07:39Z</time>
      </trkpt>
      <trkpt lat="46.60663" lon="6.32321">
        <ele>1537</ele>
        <time>2019-05-04T21:07:41Z</time>
      </trkpt>
      <trkpt lat="46.60661" lon="6.32318">
        <ele>1537</ele>
        <time>2019-05-04T21:07:43Z</time>
      </trkpt>
      <trkpt lat="46.60656" lon="6.32314">
        <ele>1539</ele>
        <time>2019-05-04T21:07:47Z</time>
      </trkpt>
      <trkpt lat="46.60652" lon="6.3231">
        <ele>1540</ele>
        <time>2019-05-04T21:07:51Z</time>
      </trkpt>
      <trkpt lat="46.60646" lon="6.32285">
        <ele>1540</ele>
        <time>2019-05-04T21:08:04Z</time>
      </trkpt>
      <trkpt lat="46.60642" lon="6.32278">
        <ele>1541</ele>
        <time>2019-05-04T21:08:08Z</time>
      </trkpt>
      <trkpt lat="46.60639" lon="6.32271">
        <ele>1541</ele>
        <time>2019-05-04T21:08:13Z</time>
      </trkpt>
      <trkpt lat="46.60638" lon="6.32266">
        <ele>1541</ele>
        <time>2019-05-04T21:08:15Z</time>
      </trkpt>
      <trkpt lat="46.60638" lon="6.32263">
        <ele>1541</ele>
        <time>2019-05-04T21:08:17Z</time>
      </trkpt>
      <trkpt lat="46.60635" lon="6.32256">
        <ele>1541</ele>
        <time>2019-05-04T21:08:21Z</time>
      </trkpt>
      <trkpt lat="46.60633" lon="6.32254">
        <ele>1542</ele>
        <time>2019-05-04T21:08:22Z</time>
      </trkpt>
      <trkpt lat="46.60628" lon="6.32229">
        <ele>1541</ele>
        <time>2019-05-04T21:08:35Z</time>
      </trkpt>
      <trkpt lat="46.60626" lon="6.32205">
        <ele>1539</ele>
        <time>2019-05-04T21:08:47Z</time>
      </trkpt>
      <trkpt lat="46.60624" lon="6.32189">
        <ele>1537</ele>
        <time>2019-05-04T21:08:56Z</time>
      </trkpt>
      <trkpt lat="46.60621" lon="6.32181">
        <ele>1537</ele>
        <time>2019-05-04T21:09:00Z</time>
      </trkpt>
      <trkpt lat="46.60619" lon="6.32173">
        <ele>1537</ele>
        <time>2019-05-04T21:09:04Z</time>
      </trkpt>
      <trkpt lat="46.60618" lon="6.3217">
        <ele>1537</ele>
        <time>2019-05-04T21:09:06Z</time>
      </trkpt>
      <trkpt lat="46.60617" lon="6.32167">
        <ele>1537</ele>
        <time>2019-05-04T21:09:08Z</time>
      </trkpt>
      <trkpt lat="46.60614" lon="6.32164">
        <ele>1537</ele>
        <time>2019-05-04T21:09:10Z</time>
      </trkpt>
      <trkpt lat="46.60614" lon="6.32159">
        <ele>1537</ele>
        <time>2019-05-04T21:09:13Z</time>
      </trkpt>
      <trkpt lat="46.60611" lon="6.32156">
        <ele>1537</ele>
        <time>2019-05-04T21:09:15Z</time>
      </trkpt>
      <trkpt lat="46.60607" lon="6.32149">
        <ele>1538</ele>
        <time>2019-05-04T21:09:20Z</time>
      </trkpt>
      <trkpt lat="46.60607" lon="6.32146">
        <ele>1537</ele>
        <time>2019-05-04T21:09:21Z</time>
      </trkpt>
      <trkpt lat="46.60601" lon="6.3214">
        <ele>1539</ele>
        <time>2019-05-04T21:09:26Z</time>
      </trkpt>
      <trkpt lat="46.606" lon="6.3214">
        <ele>1539</ele>
        <time>2019-05-04T21:09:27Z</time>
      </trkpt>
      <trkpt lat="46.60596" lon="6.32136">
        <ele>1540</ele>
        <time>2019-05-04T21:09:30Z</time>
      </trkpt>
      <trkpt lat="46.60594" lon="6.32131">
        <ele>1540</ele>
        <time>2019-05-04T21:09:33Z</time>
      </trkpt>
      <trkpt lat="46.60586" lon="6.32125">
        <ele>1543</ele>
        <time>2019-05-04T21:09:40Z</time>
      </trkpt>
      <trkpt lat="46.60582" lon="6.32119">
        <ele>1543</ele>
        <time>2019-05-04T21:09:44Z</time>
      </trkpt>
      <trkpt lat="46.60579" lon="6.32112">
        <ele>1543</ele>
        <time>2019-05-04T21:09:49Z</time>
      </trkpt>
      <trkpt lat="46.60578" lon="6.32111">
        <ele>1543</ele>
        <time>2019-05-04T21:09:49Z</time>
      </trkpt>
      <trkpt lat="46.60577" lon="6.32111">
        <ele>1544</ele>
        <time>2019-05-04T21:09:50Z</time>
      </trkpt>
      <trkpt lat="46.60575" lon="6.32109">
        <ele>1544</ele>
        <time>2019-05-04T21:09:52Z</time>
      </trkpt>
      <trkpt lat="46.60571" lon="6.32105">
        <ele>1545</ele>
        <time>2019-05-04T21:09:56Z</time>
      </trkpt>
      <trkpt lat="46.60567" lon="6.32101">
        <ele>1547</ele>
        <time>2019-05-04T21:09:59Z</time>
      </trkpt>
      <trkpt lat="46.60566" lon="6.321">
        <ele>1547</ele>
        <time>2019-05-04T21:10:01Z</time>
      </trkpt>
      <trkpt lat="46.60566" lon="6.32099">
        <ele>1547</ele>
        <time>2019-05-04T21:10:01Z</time>
      </trkpt>
      <trkpt lat="46.60565" lon="6.32097">
        <ele>1547</ele>
        <time>2019-05-04T21:10:02Z</time>
      </trkpt>
      <trkpt lat="46.60564" lon="6.32094">
        <ele>1547</ele>
        <time>2019-05-04T21:10:04Z</time>
      </trkpt>
      <trkpt lat="46.60563" lon="6.32093">
        <ele>1547</ele>
        <time>2019-05-04T21:10:05Z</time>
      </trkpt>
      <trkpt lat="46.6056" lon="6.32088">
        <ele>1548</ele>
        <time>2019-05-04T21:10:08Z</time>
      </trkpt>
      <trkpt lat="46.60559" lon="6.32086">
        <ele>1548</ele>
        <time>2019-05-04T21:10:09Z</time>
      </trkpt>
      <trkpt lat="46.60557" lon="6.32084">
        <ele>1548</ele>
        <time>2019-05-04T21:10:11Z</time>
      </trkpt>
      <trkpt lat="46.60554" lon="6.3208">
        <ele>1549</ele>
        <time>2019-05-04T21:10:14Z</time>
      </trkpt>
      <trkpt lat="46.60547" lon="6.32075">
        <ele>1551</ele>
        <time>2019-05-04T21:10:20Z</time>
      </trkpt>
      <trkpt lat="46.60545" lon="6.32075">
        <ele>1552</ele>
        <time>2019-05-04T21:10:21Z</time>
      </trkpt>
      <trkpt lat="46.60542" lon="6.32075">
        <ele>1553</ele>
        <time>2019-05-04T21:10:24Z</time>
      </trkpt>
      <trkpt lat="46.60542" lon="6.32069">
        <ele>1552</ele>
        <time>2019-05-04T21:10:26Z</time>
      </trkpt>
      <trkpt lat="46.6054" lon="6.32065">
        <ele>1552</ele>
        <time>2019-05-04T21:10:29Z</time>
      </trkpt>
      <trkpt lat="46.6054" lon="6.32064">
        <ele>1552</ele>
        <time>2019-05-04T21:10:30Z</time>
      </trkpt>
      <trkpt lat="46.60536" lon="6.32052">
        <ele>1552</ele>
        <time>2019-05-04T21:10:36Z</time>
      </trkpt>
      <trkpt lat="46.60534" lon="6.32049">
        <ele>1552</ele>
        <time>2019-05-04T21:10:38Z</time>
      </trkpt>
      <trkpt lat="46.60529" lon="6.32039">
        <ele>1552</ele>
        <time>2019-05-04T21:10:45Z</time>
      </trkpt>
      <trkpt lat="46.60525" lon="6.32034">
        <ele>1553</ele>
        <time>2019-05-04T21:10:48Z</time>
      </trkpt>
      <trkpt lat="46.60519" lon="6.32031">
        <ele>1554</ele>
        <time>2019-05-04T21:10:53Z</time>
      </trkpt>
      <trkpt lat="46.60516" lon="6.32027">
        <ele>1554</ele>
        <time>2019-05-04T21:10:56Z</time>
      </trkpt>
      <trkpt lat="46.60515" lon="6.32025">
        <ele>1554</ele>
        <time>2019-05-04T21:10:57Z</time>
      </trkpt>
      <trkpt lat="46.60513" lon="6.32023">
        <ele>1555</ele>
        <time>2019-05-04T21:10:59Z</time>
      </trkpt>
      <trkpt lat="46.60512" lon="6.32021">
        <ele>1555</ele>
        <time>2019-05-04T21:11:00Z</time>
      </trkpt>
      <trkpt lat="46.6051" lon="6.3202">
        <ele>1555</ele>
        <time>2019-05-04T21:11:01Z</time>
      </trkpt>
      <trkpt lat="46.60507" lon="6.32016">
        <ele>1555</ele>
        <time>2019-05-04T21:11:04Z</time>
      </trkpt>
      <trkpt lat="46.60498" lon="6.3201">
        <ele>1557</ele>
        <time>2019-05-04T21:11:11Z</time>
      </trkpt>
      <trkpt lat="46.60497" lon="6.3201">
        <ele>1557</ele>
        <time>2019-05-04T21:11:12Z</time>
      </trkpt>
      <trkpt lat="46.60497" lon="6.32007">
        <ele>1556</ele>
        <time>2019-05-04T21:11:13Z</time>
      </trkpt>
      <trkpt lat="46.60493" lon="6.32003">
        <ele>1557</ele>
        <time>2019-05-04T21:11:17Z</time>
      </trkpt>
      <trkpt lat="46.6049" lon="6.32002">
        <ele>1558</ele>
        <time>2019-05-04T21:11:19Z</time>
      </trkpt>
      <trkpt lat="46.60489" lon="6.32002">
        <ele>1558</ele>
        <time>2019-05-04T21:11:20Z</time>
      </trkpt>
      <trkpt lat="46.60485" lon="6.32">
        <ele>1558</ele>
        <time>2019-05-04T21:11:23Z</time>
      </trkpt>
      <trkpt lat="46.60483" lon="6.31998">
        <ele>1559</ele>
        <time>2019-05-04T21:11:25Z</time>
      </trkpt>
      <trkpt lat="46.60478" lon="6.31999">
        <ele>1561</ele>
        <time>2019-05-04T21:11:29Z</time>
      </trkpt>
      <trkpt lat="46.60476" lon="6.31997">
        <ele>1561</ele>
        <time>2019-05-04T21:11:30Z</time>
      </trkpt>
      <trkpt lat="46.60475" lon="6.31997">
        <ele>1561</ele>
        <time>2019-05-04T21:11:31Z</time>
      </trkpt>
      <trkpt lat="46.60472" lon="6.31997">
        <ele>1562</ele>
        <time>2019-05-04T21:11:33Z</time>
      </trkpt>
      <trkpt lat="46.6047" lon="6.31998">
        <ele>1563</ele>
        <time>2019-05-04T21:11:35Z</time>
      </trkpt>
      <trkpt lat="46.60469" lon="6.31998">
        <ele>1563</ele>
        <time>2019-05-04T21:11:35Z</time>
      </trkpt>
      <trkpt lat="46.60469" lon="6.31997">
        <ele>1563</ele>
        <time>2019-05-04T21:11:36Z</time>
      </trkpt>
      <trkpt lat="46.60467" lon="6.31993">
        <ele>1563</ele>
        <time>2019-05-04T21:11:38Z</time>
      </trkpt>
      <trkpt lat="46.60463" lon="6.31989">
        <ele>1563</ele>
        <time>2019-05-04T21:11:42Z</time>
      </trkpt>
      <trkpt lat="46.60462" lon="6.31987">
        <ele>1563</ele>
        <time>2019-05-04T21:11:43Z</time>
      </trkpt>
      <trkpt lat="46.60456" lon="6.3198">
        <ele>1563</ele>
        <time>2019-05-04T21:11:48Z</time>
      </trkpt>
      <trkpt lat="46.60455" lon="6.31975">
        <ele>1562</ele>
        <time>2019-05-04T21:11:51Z</time>
      </trkpt>
      <trkpt lat="46.60449" lon="6.3197">
        <ele>1563</ele>
        <time>2019-05-04T21:11:56Z</time>
      </trkpt>
      <trkpt lat="46.60437" lon="6.31959">
        <ele>1564</ele>
        <time>2019-05-04T21:12:06Z</time>
      </trkpt>
      <trkpt lat="46.60426" lon="6.31937">
        <ele>1562</ele>
        <time>2019-05-04T21:12:20Z</time>
      </trkpt>
      <trkpt lat="46.6042" lon="6.31916">
        <ele>1559</ele>
        <time>2019-05-04T21:12:32Z</time>
      </trkpt>
      <trkpt lat="46.60411" lon="6.31902">
        <ele>1559</ele>
        <time>2019-05-04T21:12:41Z</time>
      </trkpt>
      <trkpt lat="46.60396" lon="6.31884">
        <ele>1559</ele>
        <time>2019-05-04T21:12:55Z</time>
      </trkpt>
      <trkpt lat="46.60391" lon="6.31878">
        <ele>1559</ele>
        <time>2019-05-04T21:13:00Z</time>
      </trkpt>
      <trkpt lat="46.6038" lon="6.31858">
        <ele>1558</ele>
        <time>2019-05-04T21:13:13Z</time>
      </trkpt>
      <trkpt lat="46.60365" lon="6.31839">
        <ele>1559</ele>
        <time>2019-05-04T21:13:27Z</time>
      </trkpt>
      <trkpt lat="46.60352" lon="6.3182">
        <ele>1560</ele>
        <time>2019-05-04T21:13:40Z</time>
      </trkpt>
      <trkpt lat="46.60348" lon="6.31815">
        <ele>1560</ele>
        <time>2019-05-04T21:13:44Z</time>
      </trkpt>
      <trkpt lat="46.60336" lon="6.31793">
        <ele>1561</ele>
        <time>2019-05-04T21:13:58Z</time>
      </trkpt>
      <trkpt lat="46.6033" lon="6.31767">
        <ele>1559</ele>
        <time>2019-05-04T21:14:12Z</time>
      </trkpt>
      <trkpt lat="46.60318" lon="6.31744">
        <ele>1559</ele>
        <time>2019-05-04T21:14:26Z</time>
      </trkpt>
      <trkpt lat="46.60316" lon="6.31739">
        <ele>1559</ele>
        <time>2019-05-04T21:14:29Z</time>
      </trkpt>
      <trkpt lat="46.60314" lon="6.31735">
        <ele>1559</ele>
        <time>2019-05-04T21:14:31Z</time>
      </trkpt>
      <trkpt lat="46.60309" lon="6.31724">
        <ele>1559</ele>
        <time>2019-05-04T21:14:38Z</time>
      </trkpt>
      <trkpt lat="46.60309" lon="6.31719">
        <ele>1558</ele>
        <time>2019-05-04T21:14:41Z</time>
      </trkpt>
      <trkpt lat="46.60309" lon="6.31717">
        <ele>1558</ele>
        <time>2019-05-04T21:14:42Z</time>
      </trkpt>
      <trkpt lat="46.60307" lon="6.31709">
        <ele>1557</ele>
        <time>2019-05-04T21:14:46Z</time>
      </trkpt>
      <trkpt lat="46.60306" lon="6.31707">
        <ele>1557</ele>
        <time>2019-05-04T21:14:47Z</time>
      </trkpt>
      <trkpt lat="46.60295" lon="6.31689">
        <ele>1557</ele>
        <time>2019-05-04T21:15:00Z</time>
      </trkpt>
      <trkpt lat="46.60291" lon="6.31669">
        <ele>1556</ele>
        <time>2019-05-04T21:15:10Z</time>
      </trkpt>
      <trkpt lat="46.60286" lon="6.31653">
        <ele>1556</ele>
        <time>2019-05-04T21:15:18Z</time>
      </trkpt>
      <trkpt lat="46.60285" lon="6.31652">
        <ele>1556</ele>
        <time>2019-05-04T21:15:20Z</time>
      </trkpt>
      <trkpt lat="46.60279" lon="6.3164">
        <ele>1556</ele>
        <time>2019-05-04T21:15:27Z</time>
      </trkpt>
      <trkpt lat="46.60278" lon="6.31638">
        <ele>1556</ele>
        <time>2019-05-04T21:15:28Z</time>
      </trkpt>
      <trkpt lat="46.60277" lon="6.31635">
        <ele>1556</ele>
        <time>2019-05-04T21:15:30Z</time>
      </trkpt>
      <trkpt lat="46.60266" lon="6.31618">
        <ele>1558</ele>
        <time>2019-05-04T21:15:42Z</time>
      </trkpt>
      <trkpt lat="46.60262" lon="6.31612">
        <ele>1558</ele>
        <time>2019-05-04T21:15:45Z</time>
      </trkpt>
      <trkpt lat="46.60259" lon="6.31609">
        <ele>1559</ele>
        <time>2019-05-04T21:15:48Z</time>
      </trkpt>
      <trkpt lat="46.60249" lon="6.31591">
        <ele>1560</ele>
        <time>2019-05-04T21:16:00Z</time>
      </trkpt>
      <trkpt lat="46.60241" lon="6.31582">
        <ele>1561</ele>
        <time>2019-05-04T21:16:07Z</time>
      </trkpt>
      <trkpt lat="46.60239" lon="6.31581">
        <ele>1561</ele>
        <time>2019-05-04T21:16:09Z</time>
      </trkpt>
      <trkpt lat="46.60236" lon="6.3158">
        <ele>1562</ele>
        <time>2019-05-04T21:16:11Z</time>
      </trkpt>
      <trkpt lat="46.60234" lon="6.31575">
        <ele>1562</ele>
        <time>2019-05-04T21:16:14Z</time>
      </trkpt>
      <trkpt lat="46.60233" lon="6.31572">
        <ele>1562</ele>
        <time>2019-05-04T21:16:16Z</time>
      </trkpt>
      <trkpt lat="46.60229" lon="6.3157">
        <ele>1562</ele>
        <time>2019-05-04T21:16:18Z</time>
      </trkpt>
      <trkpt lat="46.60222" lon="6.31567">
        <ele>1564</ele>
        <time>2019-05-04T21:16:24Z</time>
      </trkpt>
      <trkpt lat="46.60218" lon="6.31565">
        <ele>1565</ele>
        <time>2019-05-04T21:16:27Z</time>
      </trkpt>
      <trkpt lat="46.60216" lon="6.31564">
        <ele>1565</ele>
        <time>2019-05-04T21:16:28Z</time>
      </trkpt>
      <trkpt lat="46.60216" lon="6.31564">
        <ele>1565</ele>
        <time>2019-05-04T21:16:29Z</time>
      </trkpt>
      <trkpt lat="46.60217" lon="6.31568">
        <ele>1565</ele>
        <time>2019-05-04T21:16:30Z</time>
      </trkpt>
      <trkpt lat="46.60217" lon="6.31567">
        <ele>1565</ele>
        <time>2019-05-04T21:16:31Z</time>
      </trkpt>
      <trkpt lat="46.60215" lon="6.31573">
        <ele>1567</ele>
        <time>2019-05-04T21:16:35Z</time>
      </trkpt>
      <trkpt lat="46.60212" lon="6.31585">
        <ele>1569</ele>
        <time>2019-05-04T21:16:41Z</time>
      </trkpt>
      <trkpt lat="46.60213" lon="6.31594">
        <ele>1570</ele>
        <time>2019-05-04T21:16:46Z</time>
      </trkpt>
      <trkpt lat="46.60215" lon="6.31603">
        <ele>1571</ele>
        <time>2019-05-04T21:16:51Z</time>
      </trkpt>
      <trkpt lat="46.60215" lon="6.31607">
        <ele>1572</ele>
        <time>2019-05-04T21:16:53Z</time>
      </trkpt>
      <trkpt lat="46.60222" lon="6.31623">
        <ele>1572</ele>
        <time>2019-05-04T21:17:02Z</time>
      </trkpt>
      <trkpt lat="46.60225" lon="6.31628">
        <ele>1572</ele>
        <time>2019-05-04T21:17:05Z</time>
      </trkpt>
      <trkpt lat="46.60227" lon="6.31638">
        <ele>1572</ele>
        <time>2019-05-04T21:17:10Z</time>
      </trkpt>
      <trkpt lat="46.60227" lon="6.3164">
        <ele>1573</ele>
        <time>2019-05-04T21:17:12Z</time>
      </trkpt>
      <trkpt lat="46.60228" lon="6.31643">
        <ele>1573</ele>
        <time>2019-05-04T21:17:13Z</time>
      </trkpt>
      <trkpt lat="46.60228" lon="6.31648">
        <ele>1573</ele>
        <time>2019-05-04T21:17:15Z</time>
      </trkpt>
      <trkpt lat="46.60229" lon="6.31654">
        <ele>1574</ele>
        <time>2019-05-04T21:17:19Z</time>
      </trkpt>
      <trkpt lat="46.60231" lon="6.3166">
        <ele>1574</ele>
        <time>2019-05-04T21:17:22Z</time>
      </trkpt>
      <trkpt lat="46.60234" lon="6.31667">
        <ele>1574</ele>
        <time>2019-05-04T21:17:26Z</time>
      </trkpt>
      <trkpt lat="46.60236" lon="6.31678">
        <ele>1575</ele>
        <time>2019-05-04T21:17:32Z</time>
      </trkpt>
      <trkpt lat="46.60238" lon="6.31684">
        <ele>1575</ele>
        <time>2019-05-04T21:17:35Z</time>
      </trkpt>
      <trkpt lat="46.60238" lon="6.31687">
        <ele>1575</ele>
        <time>2019-05-04T21:17:37Z</time>
      </trkpt>
      <trkpt lat="46.60239" lon="6.31695">
        <ele>1576</ele>
        <time>2019-05-04T21:17:41Z</time>
      </trkpt>
      <trkpt lat="46.6024" lon="6.31699">
        <ele>1576</ele>
        <time>2019-05-04T21:17:43Z</time>
      </trkpt>
      <trkpt lat="46.60243" lon="6.31704">
        <ele>1576</ele>
        <time>2019-05-04T21:17:46Z</time>
      </trkpt>
      <trkpt lat="46.6024" lon="6.31707">
        <ele>1577</ele>
        <time>2019-05-04T21:17:48Z</time>
      </trkpt>
      <trkpt lat="46.60241" lon="6.31713">
        <ele>1578</ele>
        <time>2019-05-04T21:17:52Z</time>
      </trkpt>
      <trkpt lat="46.60243" lon="6.31723">
        <ele>1579</ele>
        <time>2019-05-04T21:17:57Z</time>
      </trkpt>
      <trkpt lat="46.60249" lon="6.31733">
        <ele>1578</ele>
        <time>2019-05-04T21:18:04Z</time>
      </trkpt>
      <trkpt lat="46.60257" lon="6.31747">
        <ele>1577</ele>
        <time>2019-05-04T21:18:13Z</time>
      </trkpt>
      <trkpt lat="46.60258" lon="6.31748">
        <ele>1577</ele>
        <time>2019-05-04T21:18:14Z</time>
      </trkpt>
      <trkpt lat="46.60258" lon="6.31752">
        <ele>1578</ele>
        <time>2019-05-04T21:18:16Z</time>
      </trkpt>
      <trkpt lat="46.60258" lon="6.31754">
        <ele>1578</ele>
        <time>2019-05-04T21:18:17Z</time>
      </trkpt>
      <trkpt lat="46.60261" lon="6.31762">
        <ele>1578</ele>
        <time>2019-05-04T21:18:21Z</time>
      </trkpt>
      <trkpt lat="46.60261" lon="6.3177">
        <ele>1579</ele>
        <time>2019-05-04T21:18:25Z</time>
      </trkpt>
      <trkpt lat="46.60259" lon="6.31783">
        <ele>1582</ele>
        <time>2019-05-04T21:18:32Z</time>
      </trkpt>
      <trkpt lat="46.60261" lon="6.31795">
        <ele>1583</ele>
        <time>2019-05-04T21:18:38Z</time>
      </trkpt>
      <trkpt lat="46.60263" lon="6.31799">
        <ele>1583</ele>
        <time>2019-05-04T21:18:40Z</time>
      </trkpt>
      <trkpt lat="46.60266" lon="6.31806">
        <ele>1583</ele>
        <time>2019-05-04T21:18:45Z</time>
      </trkpt>
      <trkpt lat="46.60273" lon="6.31817">
        <ele>1583</ele>
        <time>2019-05-04T21:18:52Z</time>
      </trkpt>
      <trkpt lat="46.60282" lon="6.3184">
        <ele>1584</ele>
        <time>2019-05-04T21:19:05Z</time>
      </trkpt>
      <trkpt lat="46.60282" lon="6.31841">
        <ele>1584</ele>
        <time>2019-05-04T21:19:06Z</time>
      </trkpt>
      <trkpt lat="46.60286" lon="6.31859">
        <ele>1586</ele>
        <time>2019-05-04T21:19:15Z</time>
      </trkpt>
      <trkpt lat="46.60288" lon="6.31863">
        <ele>1586</ele>
        <time>2019-05-04T21:19:18Z</time>
      </trkpt>
      <trkpt lat="46.60292" lon="6.31867">
        <ele>1586</ele>
        <time>2019-05-04T21:19:21Z</time>
      </trkpt>
      <trkpt lat="46.60292" lon="6.31868">
        <ele>1586</ele>
        <time>2019-05-04T21:19:22Z</time>
      </trkpt>
      <trkpt lat="46.60294" lon="6.3187">
        <ele>1585</ele>
        <time>2019-05-04T21:19:23Z</time>
      </trkpt>
      <trkpt lat="46.60294" lon="6.3187">
        <ele>1585</ele>
        <time>2019-05-04T21:19:23Z</time>
      </trkpt>
      <trkpt lat="46.60295" lon="6.31871">
        <ele>1585</ele>
        <time>2019-05-04T21:19:24Z</time>
      </trkpt>
      <trkpt lat="46.60297" lon="6.31876">
        <ele>1586</ele>
        <time>2019-05-04T21:19:27Z</time>
      </trkpt>
      <trkpt lat="46.603" lon="6.31883">
        <ele>1586</ele>
        <time>2019-05-04T21:19:31Z</time>
      </trkpt>
      <trkpt lat="46.60306" lon="6.31893">
        <ele>1586</ele>
        <time>2019-05-04T21:19:37Z</time>
      </trkpt>
      <trkpt lat="46.60312" lon="6.31904">
        <ele>1587</ele>
        <time>2019-05-04T21:19:45Z</time>
      </trkpt>
      <trkpt lat="46.60313" lon="6.31905">
        <ele>1587</ele>
        <time>2019-05-04T21:19:46Z</time>
      </trkpt>
      <trkpt lat="46.60314" lon="6.31909">
        <ele>1587</ele>
        <time>2019-05-04T21:19:48Z</time>
      </trkpt>
      <trkpt lat="46.60316" lon="6.31911">
        <ele>1587</ele>
        <time>2019-05-04T21:19:50Z</time>
      </trkpt>
      <trkpt lat="46.60321" lon="6.31921">
        <ele>1588</ele>
        <time>2019-05-04T21:19:56Z</time>
      </trkpt>
      <trkpt lat="46.60329" lon="6.31931">
        <ele>1588</ele>
        <time>2019-05-04T21:20:03Z</time>
      </trkpt>
      <trkpt lat="46.6033" lon="6.31933">
        <ele>1588</ele>
        <time>2019-05-04T21:20:04Z</time>
      </trkpt>
      <trkpt lat="46.6034" lon="6.3195">
        <ele>1590</ele>
        <time>2019-05-04T21:20:15Z</time>
      </trkpt>
      <trkpt lat="46.60346" lon="6.31961">
        <ele>1591</ele>
        <time>2019-05-04T21:20:23Z</time>
      </trkpt>
      <trkpt lat="46.6035" lon="6.31965">
        <ele>1591</ele>
        <time>2019-05-04T21:20:26Z</time>
      </trkpt>
      <trkpt lat="46.60363" lon="6.3198">
        <ele>1592</ele>
        <time>2019-05-04T21:20:38Z</time>
      </trkpt>
      <trkpt lat="46.60362" lon="6.31986">
        <ele>1594</ele>
        <time>2019-05-04T21:20:41Z</time>
      </trkpt>
      <trkpt lat="46.60362" lon="6.31987">
        <ele>1594</ele>
        <time>2019-05-04T21:20:42Z</time>
      </trkpt>
      <trkpt lat="46.6036" lon="6.31989">
        <ele>1595</ele>
        <time>2019-05-04T21:20:44Z</time>
      </trkpt>
      <trkpt lat="46.60359" lon="6.31989">
        <ele>1596</ele>
        <time>2019-05-04T21:20:45Z</time>
      </trkpt>
      <trkpt lat="46.60357" lon="6.3199">
        <ele>1596</ele>
        <time>2019-05-04T21:20:46Z</time>
      </trkpt>
      <trkpt lat="46.60354" lon="6.3199">
        <ele>1596</ele>
        <time>2019-05-04T21:20:48Z</time>
      </trkpt>
      <trkpt lat="46.6035" lon="6.31988">
        <ele>1597</ele>
        <time>2019-05-04T21:20:52Z</time>
      </trkpt>
      <trkpt lat="46.60342" lon="6.31983">
        <ele>1597</ele>
        <time>2019-05-04T21:20:57Z</time>
      </trkpt>
      <trkpt lat="46.60327" lon="6.31971">
        <ele>1597</ele>
        <time>2019-05-04T21:21:10Z</time>
      </trkpt>
      <trkpt lat="46.60318" lon="6.31969">
        <ele>1598</ele>
        <time>2019-05-04T21:21:16Z</time>
      </trkpt>
      <trkpt lat="46.60316" lon="6.31967">
        <ele>1598</ele>
        <time>2019-05-04T21:21:18Z</time>
      </trkpt>
      <trkpt lat="46.60315" lon="6.31967">
        <ele>1599</ele>
        <time>2019-05-04T21:21:19Z</time>
      </trkpt>
      <trkpt lat="46.60309" lon="6.31962">
        <ele>1599</ele>
        <time>2019-05-04T21:21:24Z</time>
      </trkpt>
      <trkpt lat="46.60306" lon="6.31962">
        <ele>1599</ele>
        <time>2019-05-04T21:21:26Z</time>
      </trkpt>
      <trkpt lat="46.60305" lon="6.31961">
        <ele>1599</ele>
        <time>2019-05-04T21:21:27Z</time>
      </trkpt>
      <trkpt lat="46.60295" lon="6.3195">
        <ele>1600</ele>
        <time>2019-05-04T21:21:36Z</time>
      </trkpt>
      <trkpt lat="46.60293" lon="6.31949">
        <ele>1600</ele>
        <time>2019-05-04T21:21:38Z</time>
      </trkpt>
      <trkpt lat="46.60288" lon="6.31946">
        <ele>1600</ele>
        <time>2019-05-04T21:21:42Z</time>
      </trkpt>
      <trkpt lat="46.60284" lon="6.31943">
        <ele>1601</ele>
        <time>2019-05-04T21:21:45Z</time>
      </trkpt>
      <trkpt lat="46.6028" lon="6.31941">
        <ele>1602</ele>
        <time>2019-05-04T21:21:48Z</time>
      </trkpt>
      <trkpt lat="46.60264" lon="6.31937">
        <ele>1603</ele>
        <time>2019-05-04T21:22:00Z</time>
      </trkpt>
      <trkpt lat="46.60262" lon="6.31936">
        <ele>1604</ele>
        <time>2019-05-04T21:22:01Z</time>
      </trkpt>
      <trkpt lat="46.60261" lon="6.31936">
        <ele>1604</ele>
        <time>2019-05-04T21:22:02Z</time>
      </trkpt>
      <trkpt lat="46.60256" lon="6.31938">
        <ele>1605</ele>
        <time>2019-05-04T21:22:06Z</time>
      </trkpt>
      <trkpt lat="46.60254" lon="6.3194">
        <ele>1605</ele>
        <time>2019-05-04T21:22:07Z</time>
      </trkpt>
      <trkpt lat="46.60253" lon="6.31942">
        <ele>1605</ele>
        <time>2019-05-04T21:22:09Z</time>
      </trkpt>
      <trkpt lat="46.60252" lon="6.31942">
        <ele>1606</ele>
        <time>2019-05-04T21:22:10Z</time>
      </trkpt>
      <trkpt lat="46.60248" lon="6.31943">
        <ele>1606</ele>
        <time>2019-05-04T21:22:13Z</time>
      </trkpt>
      <trkpt lat="46.60239" lon="6.31946">
        <ele>1608</ele>
        <time>2019-05-04T21:22:20Z</time>
      </trkpt>
      <trkpt lat="46.60233" lon="6.31948">
        <ele>1608</ele>
        <time>2019-05-04T21:22:24Z</time>
      </trkpt>
      <trkpt lat="46.60229" lon="6.31948">
        <ele>1609</ele>
        <time>2019-05-04T21:22:27Z</time>
      </trkpt>
      <trkpt lat="46.6022" lon="6.31949">
        <ele>1610</ele>
        <time>2019-05-04T21:22:33Z</time>
      </trkpt>
      <trkpt lat="46.60212" lon="6.31955">
        <ele>1611</ele>
        <time>2019-05-04T21:22:40Z</time>
      </trkpt>
      <trkpt lat="46.60194" lon="6.31957">
        <ele>1613</ele>
        <time>2019-05-04T21:22:53Z</time>
      </trkpt>
      <trkpt lat="46.60187" lon="6.31958">
        <ele>1612</ele>
        <time>2019-05-04T21:22:58Z</time>
      </trkpt>
      <trkpt lat="46.60171" lon="6.31949">
        <ele>1613</ele>
        <time>2019-05-04T21:23:10Z</time>
      </trkpt>
      <trkpt lat="46.60172" lon="6.31955">
        <ele>1612</ele>
        <time>2019-05-04T21:23:14Z</time>
      </trkpt>
      <trkpt lat="46.60171" lon="6.31958">
        <ele>1612</ele>
        <time>2019-05-04T21:23:15Z</time>
      </trkpt>
      <trkpt lat="46.6017" lon="6.3196">
        <ele>1612</ele>
        <time>2019-05-04T21:23:16Z</time>
      </trkpt>
      <trkpt lat="46.6017" lon="6.31957">
        <ele>1612</ele>
        <time>2019-05-04T21:23:18Z</time>
      </trkpt>
      <trkpt lat="46.6017" lon="6.31955">
        <ele>1612</ele>
        <time>2019-05-04T21:23:19Z</time>
      </trkpt>
      <trkpt lat="46.60167" lon="6.31948">
        <ele>1613</ele>
        <time>2019-05-04T21:23:23Z</time>
      </trkpt>
      <trkpt lat="46.60151" lon="6.31941">
        <ele>1613</ele>
        <time>2019-05-04T21:23:35Z</time>
      </trkpt>
      <trkpt lat="46.60148" lon="6.31943">
        <ele>1613</ele>
        <time>2019-05-04T21:23:37Z</time>
      </trkpt>
      <trkpt lat="46.6014" lon="6.31945">
        <ele>1613</ele>
        <time>2019-05-04T21:23:43Z</time>
      </trkpt>
      <trkpt lat="46.60137" lon="6.31944">
        <ele>1613</ele>
        <time>2019-05-04T21:23:45Z</time>
      </trkpt>
      <trkpt lat="46.60135" lon="6.31943">
        <ele>1613</ele>
        <time>2019-05-04T21:23:47Z</time>
      </trkpt>
      <trkpt lat="46.60129" lon="6.31943">
        <ele>1613</ele>
        <time>2019-05-04T21:23:51Z</time>
      </trkpt>
      <trkpt lat="46.6012" lon="6.31942">
        <ele>1613</ele>
        <time>2019-05-04T21:23:58Z</time>
      </trkpt>
      <trkpt lat="46.60119" lon="6.31942">
        <ele>1613</ele>
        <time>2019-05-04T21:23:59Z</time>
      </trkpt>
      <trkpt lat="46.60116" lon="6.31935">
        <ele>1613</ele>
        <time>2019-05-04T21:24:03Z</time>
      </trkpt>
      <trkpt lat="46.60115" lon="6.31932">
        <ele>1614</ele>
        <time>2019-05-04T21:24:05Z</time>
      </trkpt>
      <trkpt lat="46.60125" lon="6.31934">
        <ele>1613</ele>
        <time>2019-05-04T21:24:12Z</time>
      </trkpt>
      <trkpt lat="46.60119" lon="6.31937">
        <ele>1613</ele>
        <time>2019-05-04T21:24:16Z</time>
      </trkpt>
      <trkpt lat="46.60119" lon="6.31936">
        <ele>1613</ele>
        <time>2019-05-04T21:24:16Z</time>
      </trkpt>
      <trkpt lat="46.60117" lon="6.31937">
        <ele>1613</ele>
        <time>2019-05-04T21:24:18Z</time>
      </trkpt>
      <trkpt lat="46.60116" lon="6.31937">
        <ele>1613</ele>
        <time>2019-05-04T21:24:19Z</time>
      </trkpt>
      <trkpt lat="46.60115" lon="6.31935">
        <ele>1613</ele>
        <time>2019-05-04T21:24:20Z</time>
      </trkpt>
      <trkpt lat="46.60116" lon="6.31929">
        <ele>1614</ele>
        <time>2019-05-04T21:24:23Z</time>
      </trkpt>
      <trkpt lat="46.60114" lon="6.31925">
        <ele>1615</ele>
        <time>2019-05-04T21:24:25Z</time>
      </trkpt>
      <trkpt lat="46.60115" lon="6.31932">
        <ele>1614</ele>
        <time>2019-05-04T21:24:29Z</time>
      </trkpt>
      <trkpt lat="46.60113" lon="6.31933">
        <ele>1614</ele>
        <time>2019-05-04T21:24:31Z</time>
      </trkpt>
      <trkpt lat="46.60108" lon="6.31932">
        <ele>1614</ele>
        <time>2019-05-04T21:24:35Z</time>
      </trkpt>
      <trkpt lat="46.60098" lon="6.3192">
        <ele>1616</ele>
        <time>2019-05-04T21:24:44Z</time>
      </trkpt>
      <trkpt lat="46.60079" lon="6.31914">
        <ele>1617</ele>
        <time>2019-05-04T21:24:58Z</time>
      </trkpt>
      <trkpt lat="46.6007" lon="6.31914">
        <ele>1618</ele>
        <time>2019-05-04T21:25:04Z</time>
      </trkpt>
      <trkpt lat="46.60052" lon="6.3192">
        <ele>1618</ele>
        <time>2019-05-04T21:25:18Z</time>
      </trkpt>
      <trkpt lat="46.60034" lon="6.31928">
        <ele>1618</ele>
        <time>2019-05-04T21:25:31Z</time>
      </trkpt>
      <trkpt lat="46.6003" lon="6.31928">
        <ele>1618</ele>
        <time>2019-05-04T21:25:34Z</time>
      </trkpt>
      <trkpt lat="46.60029" lon="6.31926">
        <ele>1619</ele>
        <time>2019-05-04T21:25:36Z</time>
      </trkpt>
      <trkpt lat="46.60025" lon="6.31928">
        <ele>1618</ele>
        <time>2019-05-04T21:25:39Z</time>
      </trkpt>
      <trkpt lat="46.60018" lon="6.31926">
        <ele>1618</ele>
        <time>2019-05-04T21:25:45Z</time>
      </trkpt>
      <trkpt lat="46.60016" lon="6.31924">
        <ele>1618</ele>
        <time>2019-05-04T21:25:46Z</time>
      </trkpt>
      <trkpt lat="46.60014" lon="6.31923">
        <ele>1618</ele>
        <time>2019-05-04T21:25:48Z</time>
      </trkpt>
      <trkpt lat="46.60002" lon="6.31916">
        <ele>1617</ele>
        <time>2019-05-04T21:25:57Z</time>
      </trkpt>
      <trkpt lat="46.59988" lon="6.319">
        <ele>1617</ele>
        <time>2019-05-04T21:26:10Z</time>
      </trkpt>
      <trkpt lat="46.59973" lon="6.31885">
        <ele>1616</ele>
        <time>2019-05-04T21:26:23Z</time>
      </trkpt>
      <trkpt lat="46.59958" lon="6.31866">
        <ele>1616</ele>
        <time>2019-05-04T21:26:38Z</time>
      </trkpt>
      <trkpt lat="46.59947" lon="6.31845">
        <ele>1617</ele>
        <time>2019-05-04T21:26:50Z</time>
      </trkpt>
      <trkpt lat="46.59942" lon="6.31839">
        <ele>1617</ele>
        <time>2019-05-04T21:26:55Z</time>
      </trkpt>
      <trkpt lat="46.59938" lon="6.31835">
        <ele>1616</ele>
        <time>2019-05-04T21:26:59Z</time>
      </trkpt>
      <trkpt lat="46.59922" lon="6.31819">
        <ele>1615</ele>
        <time>2019-05-04T21:27:13Z</time>
      </trkpt>
      <trkpt lat="46.59911" lon="6.31803">
        <ele>1614</ele>
        <time>2019-05-04T21:27:24Z</time>
      </trkpt>
      <trkpt lat="46.59897" lon="6.31782">
        <ele>1613</ele>
        <time>2019-05-04T21:27:39Z</time>
      </trkpt>
      <trkpt lat="46.59882" lon="6.31764">
        <ele>1611</ele>
        <time>2019-05-04T21:27:53Z</time>
      </trkpt>
      <trkpt lat="46.59872" lon="6.31749">
        <ele>1611</ele>
        <time>2019-05-04T21:28:03Z</time>
      </trkpt>
      <trkpt lat="46.59868" lon="6.31737">
        <ele>1612</ele>
        <time>2019-05-04T21:28:10Z</time>
      </trkpt>
      <trkpt lat="46.59857" lon="6.31725">
        <ele>1611</ele>
        <time>2019-05-04T21:28:20Z</time>
      </trkpt>
      <trkpt lat="46.59841" lon="6.31711">
        <ele>1610</ele>
        <time>2019-05-04T21:28:33Z</time>
      </trkpt>
      <trkpt lat="46.59839" lon="6.31709">
        <ele>1610</ele>
        <time>2019-05-04T21:28:35Z</time>
      </trkpt>
      <trkpt lat="46.59827" lon="6.31689">
        <ele>1609</ele>
        <time>2019-05-04T21:28:49Z</time>
      </trkpt>
      <trkpt lat="46.59825" lon="6.31687">
        <ele>1609</ele>
        <time>2019-05-04T21:28:50Z</time>
      </trkpt>
      <trkpt lat="46.59821" lon="6.3168">
        <ele>1609</ele>
        <time>2019-05-04T21:28:55Z</time>
      </trkpt>
      <trkpt lat="46.59811" lon="6.31667">
        <ele>1608</ele>
        <time>2019-05-04T21:29:05Z</time>
      </trkpt>
      <trkpt lat="46.59807" lon="6.31654">
        <ele>1609</ele>
        <time>2019-05-04T21:29:11Z</time>
      </trkpt>
      <trkpt lat="46.59807" lon="6.3165">
        <ele>1609</ele>
        <time>2019-05-04T21:29:13Z</time>
      </trkpt>
      <trkpt lat="46.59807" lon="6.31646">
        <ele>1609</ele>
        <time>2019-05-04T21:29:15Z</time>
      </trkpt>
      <trkpt lat="46.59804" lon="6.31639">
        <ele>1610</ele>
        <time>2019-05-04T21:29:20Z</time>
      </trkpt>
      <trkpt lat="46.59802" lon="6.31636">
        <ele>1610</ele>
        <time>2019-05-04T21:29:22Z</time>
      </trkpt>
      <trkpt lat="46.59802" lon="6.31633">
        <ele>1610</ele>
        <time>2019-05-04T21:29:23Z</time>
      </trkpt>
      <trkpt lat="46.59793" lon="6.3162">
        <ele>1610</ele>
        <time>2019-05-04T21:29:32Z</time>
      </trkpt>
      <trkpt lat="46.59791" lon="6.31611">
        <ele>1610</ele>
        <time>2019-05-04T21:29:37Z</time>
      </trkpt>
      <trkpt lat="46.59786" lon="6.31599">
        <ele>1611</ele>
        <time>2019-05-04T21:29:44Z</time>
      </trkpt>
      <trkpt lat="46.59783" lon="6.31597">
        <ele>1611</ele>
        <time>2019-05-04T21:29:46Z</time>
      </trkpt>
      <trkpt lat="46.59782" lon="6.31594">
        <ele>1611</ele>
        <time>2019-05-04T21:29:48Z</time>
      </trkpt>
      <trkpt lat="46.59782" lon="6.31593">
        <ele>1611</ele>
        <time>2019-05-04T21:29:48Z</time>
      </trkpt>
      <trkpt lat="46.5977" lon="6.31573">
        <ele>1612</ele>
        <time>2019-05-04T21:30:02Z</time>
      </trkpt>
      <trkpt lat="46.59757" lon="6.31555">
        <ele>1612</ele>
        <time>2019-05-04T21:30:15Z</time>
      </trkpt>
      <trkpt lat="46.59744" lon="6.31537">
        <ele>1613</ele>
        <time>2019-05-04T21:30:28Z</time>
      </trkpt>
      <trkpt lat="46.59739" lon="6.31532">
        <ele>1613</ele>
        <time>2019-05-04T21:30:32Z</time>
      </trkpt>
      <trkpt lat="46.59736" lon="6.3152">
        <ele>1614</ele>
        <time>2019-05-04T21:30:38Z</time>
      </trkpt>
      <trkpt lat="46.59738" lon="6.31505">
        <ele>1617</ele>
        <time>2019-05-04T21:30:46Z</time>
      </trkpt>
      <trkpt lat="46.59738" lon="6.31499">
        <ele>1618</ele>
        <time>2019-05-04T21:30:49Z</time>
      </trkpt>
      <trkpt lat="46.59738" lon="6.31495">
        <ele>1618</ele>
        <time>2019-05-04T21:30:51Z</time>
      </trkpt>
      <trkpt lat="46.59738" lon="6.31493">
        <ele>1618</ele>
        <time>2019-05-04T21:30:52Z</time>
      </trkpt>
      <trkpt lat="46.59738" lon="6.3149">
        <ele>1619</ele>
        <time>2019-05-04T21:30:54Z</time>
      </trkpt>
      <trkpt lat="46.59738" lon="6.31487">
        <ele>1619</ele>
        <time>2019-05-04T21:30:56Z</time>
      </trkpt>
      <trkpt lat="46.59738" lon="6.31481">
        <ele>1620</ele>
        <time>2019-05-04T21:30:58Z</time>
      </trkpt>
      <trkpt lat="46.59738" lon="6.3148">
        <ele>1620</ele>
        <time>2019-05-04T21:30:59Z</time>
      </trkpt>
      <trkpt lat="46.59738" lon="6.31479">
        <ele>1621</ele>
        <time>2019-05-04T21:31:00Z</time>
      </trkpt>
      <trkpt lat="46.59737" lon="6.31476">
        <ele>1621</ele>
        <time>2019-05-04T21:31:01Z</time>
      </trkpt>
      <trkpt lat="46.59737" lon="6.31473">
        <ele>1622</ele>
        <time>2019-05-04T21:31:03Z</time>
      </trkpt>
      <trkpt lat="46.59736" lon="6.31468">
        <ele>1622</ele>
        <time>2019-05-04T21:31:06Z</time>
      </trkpt>
      <trkpt lat="46.59735" lon="6.31465">
        <ele>1622</ele>
        <time>2019-05-04T21:31:07Z</time>
      </trkpt>
      <trkpt lat="46.59735" lon="6.31464">
        <ele>1623</ele>
        <time>2019-05-04T21:31:08Z</time>
      </trkpt>
      <trkpt lat="46.59735" lon="6.31461">
        <ele>1623</ele>
        <time>2019-05-04T21:31:09Z</time>
      </trkpt>
      <trkpt lat="46.59733" lon="6.31453">
        <ele>1624</ele>
        <time>2019-05-04T21:31:14Z</time>
      </trkpt>
      <trkpt lat="46.59734" lon="6.31446">
        <ele>1625</ele>
        <time>2019-05-04T21:31:17Z</time>
      </trkpt>
      <trkpt lat="46.59733" lon="6.31444">
        <ele>1626</ele>
        <time>2019-05-04T21:31:19Z</time>
      </trkpt>
      <trkpt lat="46.59728" lon="6.31437">
        <ele>1626</ele>
        <time>2019-05-04T21:31:23Z</time>
      </trkpt>
      <trkpt lat="46.59726" lon="6.31432">
        <ele>1627</ele>
        <time>2019-05-04T21:31:26Z</time>
      </trkpt>
      <trkpt lat="46.59726" lon="6.31428">
        <ele>1627</ele>
        <time>2019-05-04T21:31:28Z</time>
      </trkpt>
      <trkpt lat="46.59725" lon="6.31425">
        <ele>1628</ele>
        <time>2019-05-04T21:31:31Z</time>
      </trkpt>
      <trkpt lat="46.59725" lon="6.31416">
        <ele>1629</ele>
        <time>2019-05-04T21:31:35Z</time>
      </trkpt>
      <trkpt lat="46.59726" lon="6.31407">
        <ele>1630</ele>
        <time>2019-05-04T21:31:39Z</time>
      </trkpt>
      <trkpt lat="46.59729" lon="6.31403">
        <ele>1630</ele>
        <time>2019-05-04T21:31:42Z</time>
      </trkpt>
      <trkpt lat="46.59731" lon="6.31402">
        <ele>1631</ele>
        <time>2019-05-04T21:31:44Z</time>
      </trkpt>
      <trkpt lat="46.59732" lon="6.314">
        <ele>1631</ele>
        <time>2019-05-04T21:31:46Z</time>
      </trkpt>
      <trkpt lat="46.59734" lon="6.31397">
        <ele>1631</ele>
        <time>2019-05-04T21:31:48Z</time>
      </trkpt>
      <trkpt lat="46.59732" lon="6.31393">
        <ele>1632</ele>
        <time>2019-05-04T21:31:50Z</time>
      </trkpt>
      <trkpt lat="46.5973" lon="6.31389">
        <ele>1632</ele>
        <time>2019-05-04T21:31:53Z</time>
      </trkpt>
      <trkpt lat="46.59729" lon="6.31388">
        <ele>1632</ele>
        <time>2019-05-04T21:31:53Z</time>
      </trkpt>
      <trkpt lat="46.59729" lon="6.31383">
        <ele>1633</ele>
        <time>2019-05-04T21:31:56Z</time>
      </trkpt>
      <trkpt lat="46.59729" lon="6.31382">
        <ele>1633</ele>
        <time>2019-05-04T21:31:56Z</time>
      </trkpt>
      <trkpt lat="46.59724" lon="6.31378">
        <ele>1633</ele>
        <time>2019-05-04T21:32:00Z</time>
      </trkpt>
      <trkpt lat="46.59723" lon="6.31376">
        <ele>1634</ele>
        <time>2019-05-04T21:32:01Z</time>
      </trkpt>
      <trkpt lat="46.59722" lon="6.31372">
        <ele>1634</ele>
        <time>2019-05-04T21:32:04Z</time>
      </trkpt>
      <trkpt lat="46.5972" lon="6.31369">
        <ele>1634</ele>
        <time>2019-05-04T21:32:06Z</time>
      </trkpt>
      <trkpt lat="46.59715" lon="6.31364">
        <ele>1635</ele>
        <time>2019-05-04T21:32:10Z</time>
      </trkpt>
      <trkpt lat="46.59712" lon="6.3136">
        <ele>1635</ele>
        <time>2019-05-04T21:32:13Z</time>
      </trkpt>
      <trkpt lat="46.59706" lon="6.31348">
        <ele>1636</ele>
        <time>2019-05-04T21:32:20Z</time>
      </trkpt>
      <trkpt lat="46.59704" lon="6.31344">
        <ele>1637</ele>
        <time>2019-05-04T21:32:23Z</time>
      </trkpt>
      <trkpt lat="46.59698" lon="6.31335">
        <ele>1637</ele>
        <time>2019-05-04T21:32:29Z</time>
      </trkpt>
      <trkpt lat="46.59695" lon="6.31333">
        <ele>1638</ele>
        <time>2019-05-04T21:32:32Z</time>
      </trkpt>
      <trkpt lat="46.59693" lon="6.3133">
        <ele>1638</ele>
        <time>2019-05-04T21:32:34Z</time>
      </trkpt>
      <trkpt lat="46.59684" lon="6.3132">
        <ele>1638</ele>
        <time>2019-05-04T21:32:42Z</time>
      </trkpt>
      <trkpt lat="46.5967" lon="6.313">
        <ele>1640</ele>
        <time>2019-05-04T21:32:56Z</time>
      </trkpt>
      <trkpt lat="46.59656" lon="6.31282">
        <ele>1643</ele>
        <time>2019-05-04T21:33:10Z</time>
      </trkpt>
      <trkpt lat="46.59651" lon="6.31275">
        <ele>1644</ele>
        <time>2019-05-04T21:33:15Z</time>
      </trkpt>
      <trkpt lat="46.59647" lon="6.31268">
        <ele>1645</ele>
        <time>2019-05-04T21:33:19Z</time>
      </trkpt>
      <trkpt lat="46.59646" lon="6.31258">
        <ele>1646</ele>
        <time>2019-05-04T21:33:24Z</time>
      </trkpt>
      <trkpt lat="46.59644" lon="6.31255">
        <ele>1646</ele>
        <time>2019-05-04T21:33:27Z</time>
      </trkpt>
      <trkpt lat="46.59641" lon="6.31253">
        <ele>1646</ele>
        <time>2019-05-04T21:33:29Z</time>
      </trkpt>
      <trkpt lat="46.59636" lon="6.31252">
        <ele>1647</ele>
        <time>2019-05-04T21:33:32Z</time>
      </trkpt>
      <trkpt lat="46.59633" lon="6.3125">
        <ele>1647</ele>
        <time>2019-05-04T21:33:35Z</time>
      </trkpt>
      <trkpt lat="46.59629" lon="6.31245">
        <ele>1648</ele>
        <time>2019-05-04T21:33:39Z</time>
      </trkpt>
      <trkpt lat="46.59626" lon="6.31244">
        <ele>1648</ele>
        <time>2019-05-04T21:33:41Z</time>
      </trkpt>
      <trkpt lat="46.59624" lon="6.31243">
        <ele>1648</ele>
        <time>2019-05-04T21:33:43Z</time>
      </trkpt>
      <trkpt lat="46.59619" lon="6.31236">
        <ele>1649</ele>
        <time>2019-05-04T21:33:47Z</time>
      </trkpt>
      <trkpt lat="46.59618" lon="6.31235">
        <ele>1650</ele>
        <time>2019-05-04T21:33:49Z</time>
      </trkpt>
      <trkpt lat="46.59618" lon="6.31229">
        <ele>1650</ele>
        <time>2019-05-04T21:33:52Z</time>
      </trkpt>
      <trkpt lat="46.59614" lon="6.31225">
        <ele>1651</ele>
        <time>2019-05-04T21:33:55Z</time>
      </trkpt>
      <trkpt lat="46.5961" lon="6.31222">
        <ele>1652</ele>
        <time>2019-05-04T21:33:59Z</time>
      </trkpt>
      <trkpt lat="46.5961" lon="6.31218">
        <ele>1652</ele>
        <time>2019-05-04T21:34:01Z</time>
      </trkpt>
      <trkpt lat="46.59599" lon="6.31201">
        <ele>1654</ele>
        <time>2019-05-04T21:34:13Z</time>
      </trkpt>
      <trkpt lat="46.59593" lon="6.31191">
        <ele>1655</ele>
        <time>2019-05-04T21:34:19Z</time>
      </trkpt>
      <trkpt lat="46.59585" lon="6.31182">
        <ele>1656</ele>
        <time>2019-05-04T21:34:27Z</time>
      </trkpt>
      <trkpt lat="46.59575" lon="6.31174">
        <ele>1656</ele>
        <time>2019-05-04T21:34:35Z</time>
      </trkpt>
      <trkpt lat="46.59565" lon="6.31162">
        <ele>1656</ele>
        <time>2019-05-04T21:34:44Z</time>
      </trkpt>
      <trkpt lat="46.59561" lon="6.31158">
        <ele>1657</ele>
        <time>2019-05-04T21:34:48Z</time>
      </trkpt>
      <trkpt lat="46.59558" lon="6.31154">
        <ele>1657</ele>
        <time>2019-05-04T21:34:50Z</time>
      </trkpt>
      <trkpt lat="46.59556" lon="6.31152">
        <ele>1657</ele>
        <time>2019-05-04T21:34:53Z</time>
      </trkpt>
      <trkpt lat="46.59552" lon="6.3115">
        <ele>1658</ele>
        <time>2019-05-04T21:34:55Z</time>
      </trkpt>
      <trkpt lat="46.59549" lon="6.31147">
        <ele>1658</ele>
        <time>2019-05-04T21:34:58Z</time>
      </trkpt>
      <trkpt lat="46.59545" lon="6.31144">
        <ele>1658</ele>
        <time>2019-05-04T21:35:01Z</time>
      </trkpt>
      <trkpt lat="46.5954" lon="6.31142">
        <ele>1659</ele>
        <time>2019-05-04T21:35:05Z</time>
      </trkpt>
      <trkpt lat="46.59539" lon="6.3114">
        <ele>1659</ele>
        <time>2019-05-04T21:35:06Z</time>
      </trkpt>
      <trkpt lat="46.59537" lon="6.31135">
        <ele>1659</ele>
        <time>2019-05-04T21:35:09Z</time>
      </trkpt>
      <trkpt lat="46.59527" lon="6.31115">
        <ele>1661</ele>
        <time>2019-05-04T21:35:22Z</time>
      </trkpt>
      <trkpt lat="46.59525" lon="6.31109">
        <ele>1662</ele>
        <time>2019-05-04T21:35:25Z</time>
      </trkpt>
      <trkpt lat="46.59525" lon="6.31108">
        <ele>1662</ele>
        <time>2019-05-04T21:35:25Z</time>
      </trkpt>
      <trkpt lat="46.59516" lon="6.31087">
        <ele>1662</ele>
        <time>2019-05-04T21:35:38Z</time>
      </trkpt>
      <trkpt lat="46.59513" lon="6.3108">
        <ele>1662</ele>
        <time>2019-05-04T21:35:42Z</time>
      </trkpt>
      <trkpt lat="46.59511" lon="6.31081">
        <ele>1661</ele>
        <time>2019-05-04T21:35:44Z</time>
      </trkpt>
      <trkpt lat="46.59506" lon="6.31084">
        <ele>1660</ele>
        <time>2019-05-04T21:35:48Z</time>
      </trkpt>
      <trkpt lat="46.59505" lon="6.31083">
        <ele>1660</ele>
        <time>2019-05-04T21:35:49Z</time>
      </trkpt>
      <trkpt lat="46.59502" lon="6.31083">
        <ele>1660</ele>
        <time>2019-05-04T21:35:51Z</time>
      </trkpt>
      <trkpt lat="46.595" lon="6.3108">
        <ele>1660</ele>
        <time>2019-05-04T21:35:52Z</time>
      </trkpt>
      <trkpt lat="46.59501" lon="6.31075">
        <ele>1660</ele>
        <time>2019-05-04T21:35:55Z</time>
      </trkpt>
      <trkpt lat="46.595" lon="6.31074">
        <ele>1660</ele>
        <time>2019-05-04T21:35:56Z</time>
      </trkpt>
      <trkpt lat="46.59499" lon="6.31071">
        <ele>1660</ele>
        <time>2019-05-04T21:35:57Z</time>
      </trkpt>
      <trkpt lat="46.595" lon="6.31064">
        <ele>1661</ele>
        <time>2019-05-04T21:36:01Z</time>
      </trkpt>
      <trkpt lat="46.59499" lon="6.3106">
        <ele>1661</ele>
        <time>2019-05-04T21:36:03Z</time>
      </trkpt>
      <trkpt lat="46.59498" lon="6.31052">
        <ele>1661</ele>
        <time>2019-05-04T21:36:07Z</time>
      </trkpt>
      <trkpt lat="46.59498" lon="6.31047">
        <ele>1662</ele>
        <time>2019-05-04T21:36:09Z</time>
      </trkpt>
      <trkpt lat="46.59498" lon="6.31043">
        <ele>1662</ele>
        <time>2019-05-04T21:36:12Z</time>
      </trkpt>
      <trkpt lat="46.59499" lon="6.31036">
        <ele>1662</ele>
        <time>2019-05-04T21:36:15Z</time>
      </trkpt>
      <trkpt lat="46.59501" lon="6.31023">
        <ele>1663</ele>
        <time>2019-05-04T21:36:22Z</time>
      </trkpt>
      <trkpt lat="46.59501" lon="6.31021">
        <ele>1663</ele>
        <time>2019-05-04T21:36:23Z</time>
      </trkpt>
      <trkpt lat="46.59501" lon="6.3102">
        <ele>1663</ele>
        <time>2019-05-04T21:36:23Z</time>
      </trkpt>
      <trkpt lat="46.59499" lon="6.31019">
        <ele>1663</ele>
        <time>2019-05-04T21:36:24Z</time>
      </trkpt>
      <trkpt lat="46.59496" lon="6.31019">
        <ele>1662</ele>
        <time>2019-05-04T21:36:27Z</time>
      </trkpt>
      <trkpt lat="46.59493" lon="6.31018">
        <ele>1662</ele>
        <time>2019-05-04T21:36:29Z</time>
      </trkpt>
      <trkpt lat="46.59486" lon="6.31013">
        <ele>1661</ele>
        <time>2019-05-04T21:36:35Z</time>
      </trkpt>
      <trkpt lat="46.59484" lon="6.31011">
        <ele>1660</ele>
        <time>2019-05-04T21:36:36Z</time>
      </trkpt>
      <trkpt lat="46.59478" lon="6.31008">
        <ele>1660</ele>
        <time>2019-05-04T21:36:41Z</time>
      </trkpt>
      <trkpt lat="46.59477" lon="6.31008">
        <ele>1660</ele>
        <time>2019-05-04T21:36:42Z</time>
      </trkpt>
      <trkpt lat="46.59476" lon="6.31006">
        <ele>1659</ele>
        <time>2019-05-04T21:36:43Z</time>
      </trkpt>
      <trkpt lat="46.59475" lon="6.31006">
        <ele>1659</ele>
        <time>2019-05-04T21:36:44Z</time>
      </trkpt>
      <trkpt lat="46.59475" lon="6.31002">
        <ele>1659</ele>
        <time>2019-05-04T21:36:45Z</time>
      </trkpt>
      <trkpt lat="46.59473" lon="6.31001">
        <ele>1659</ele>
        <time>2019-05-04T21:36:47Z</time>
      </trkpt>
      <trkpt lat="46.59478" lon="6.31006">
        <ele>1659</ele>
        <time>2019-05-04T21:36:51Z</time>
      </trkpt>
      <trkpt lat="46.59475" lon="6.31003">
        <ele>1659</ele>
        <time>2019-05-04T21:36:53Z</time>
      </trkpt>
      <trkpt lat="46.59473" lon="6.31">
        <ele>1659</ele>
        <time>2019-05-04T21:36:55Z</time>
      </trkpt>
      <trkpt lat="46.59473" lon="6.30998">
        <ele>1658</ele>
        <time>2019-05-04T21:36:56Z</time>
      </trkpt>
      <trkpt lat="46.59472" lon="6.30997">
        <ele>1658</ele>
        <time>2019-05-04T21:36:57Z</time>
      </trkpt>
      <trkpt lat="46.59469" lon="6.30985">
        <ele>1657</ele>
        <time>2019-05-04T21:37:03Z</time>
      </trkpt>
      <trkpt lat="46.59469" lon="6.30984">
        <ele>1657</ele>
        <time>2019-05-04T21:37:04Z</time>
      </trkpt>
      <trkpt lat="46.59467" lon="6.30982">
        <ele>1657</ele>
        <time>2019-05-04T21:37:06Z</time>
      </trkpt>
      <trkpt lat="46.59466" lon="6.30977">
        <ele>1657</ele>
        <time>2019-05-04T21:37:08Z</time>
      </trkpt>
      <trkpt lat="46.59465" lon="6.30975">
        <ele>1656</ele>
        <time>2019-05-04T21:37:09Z</time>
      </trkpt>
      <trkpt lat="46.59463" lon="6.3097">
        <ele>1656</ele>
        <time>2019-05-04T21:37:12Z</time>
      </trkpt>
      <trkpt lat="46.59461" lon="6.30972">
        <ele>1656</ele>
        <time>2019-05-04T21:37:14Z</time>
      </trkpt>
      <trkpt lat="46.59459" lon="6.30972">
        <ele>1656</ele>
        <time>2019-05-04T21:37:16Z</time>
      </trkpt>
      <trkpt lat="46.59456" lon="6.3097">
        <ele>1656</ele>
        <time>2019-05-04T21:37:18Z</time>
      </trkpt>
      <trkpt lat="46.59454" lon="6.30968">
        <ele>1655</ele>
        <time>2019-05-04T21:37:20Z</time>
      </trkpt>
      <trkpt lat="46.5945" lon="6.30963">
        <ele>1655</ele>
        <time>2019-05-04T21:37:24Z</time>
      </trkpt>
      <trkpt lat="46.59446" lon="6.30955">
        <ele>1655</ele>
        <time>2019-05-04T21:37:29Z</time>
      </trkpt>
      <trkpt lat="46.59445" lon="6.30953">
        <ele>1655</ele>
        <time>2019-05-04T21:37:30Z</time>
      </trkpt>
      <trkpt lat="46.59444" lon="6.3095">
        <ele>1654</ele>
        <time>2019-05-04T21:37:32Z</time>
      </trkpt>
      <trkpt lat="46.59441" lon="6.30945">
        <ele>1654</ele>
        <time>2019-05-04T21:37:35Z</time>
      </trkpt>
      <trkpt lat="46.59439" lon="6.30939">
        <ele>1653</ele>
        <time>2019-05-04T21:37:38Z</time>
      </trkpt>
      <trkpt lat="46.59434" lon="6.30936">
        <ele>1652</ele>
        <time>2019-05-04T21:37:42Z</time>
      </trkpt>
      <trkpt lat="46.59432" lon="6.30933">
        <ele>1652</ele>
        <time>2019-05-04T21:37:44Z</time>
      </trkpt>
      <trkpt lat="46.59431" lon="6.30931">
        <ele>1652</ele>
        <time>2019-05-04T21:37:45Z</time>
      </trkpt>
      <trkpt lat="46.5943" lon="6.30931">
        <ele>1651</ele>
        <time>2019-05-04T21:37:46Z</time>
      </trkpt>
      <trkpt lat="46.59427" lon="6.30931">
        <ele>1651</ele>
        <time>2019-05-04T21:37:48Z</time>
      </trkpt>
      <trkpt lat="46.59425" lon="6.30931">
        <ele>1651</ele>
        <time>2019-05-04T21:37:50Z</time>
      </trkpt>
      <trkpt lat="46.59424" lon="6.30931">
        <ele>1651</ele>
        <time>2019-05-04T21:37:51Z</time>
      </trkpt>
      <trkpt lat="46.59421" lon="6.30928">
        <ele>1650</ele>
        <time>2019-05-04T21:37:53Z</time>
      </trkpt>
      <trkpt lat="46.59418" lon="6.3092">
        <ele>1649</ele>
        <time>2019-05-04T21:37:57Z</time>
      </trkpt>
      <trkpt lat="46.59417" lon="6.30919">
        <ele>1649</ele>
        <time>2019-05-04T21:37:59Z</time>
      </trkpt>
      <trkpt lat="46.59413" lon="6.30917">
        <ele>1648</ele>
        <time>2019-05-04T21:38:02Z</time>
      </trkpt>
      <trkpt lat="46.5941" lon="6.30912">
        <ele>1648</ele>
        <time>2019-05-04T21:38:05Z</time>
      </trkpt>
      <trkpt lat="46.59407" lon="6.30905">
        <ele>1647</ele>
        <time>2019-05-04T21:38:09Z</time>
      </trkpt>
      <trkpt lat="46.59404" lon="6.30899">
        <ele>1646</ele>
        <time>2019-05-04T21:38:13Z</time>
      </trkpt>
      <trkpt lat="46.59401" lon="6.30892">
        <ele>1646</ele>
        <time>2019-05-04T21:38:17Z</time>
      </trkpt>
      <trkpt lat="46.59399" lon="6.30885">
        <ele>1645</ele>
        <time>2019-05-04T21:38:21Z</time>
      </trkpt>
      <trkpt lat="46.59397" lon="6.30879">
        <ele>1645</ele>
        <time>2019-05-04T21:38:24Z</time>
      </trkpt>
      <trkpt lat="46.59398" lon="6.30875">
        <ele>1645</ele>
        <time>2019-05-04T21:38:26Z</time>
      </trkpt>
      <trkpt lat="46.59398" lon="6.30871">
        <ele>1645</ele>
        <time>2019-05-04T21:38:28Z</time>
      </trkpt>
      <trkpt lat="46.59395" lon="6.30846">
        <ele>1643</ele>
        <time>2019-05-04T21:38:40Z</time>
      </trkpt>
      <trkpt lat="46.59388" lon="6.3083">
        <ele>1642</ele>
        <time>2019-05-04T21:38:50Z</time>
      </trkpt>
      <trkpt lat="46.59389" lon="6.30827">
        <ele>1642</ele>
        <time>2019-05-04T21:38:52Z</time>
      </trkpt>
      <trkpt lat="46.59393" lon="6.3081">
        <ele>1641</ele>
        <time>2019-05-04T21:39:01Z</time>
      </trkpt>
      <trkpt lat="46.59388" lon="6.30801">
        <ele>1640</ele>
        <time>2019-05-04T21:39:06Z</time>
      </trkpt>
      <trkpt lat="46.59373" lon="6.30784">
        <ele>1640</ele>
        <time>2019-05-04T21:39:20Z</time>
      </trkpt>
      <trkpt lat="46.5937" lon="6.30779">
        <ele>1640</ele>
        <time>2019-05-04T21:39:24Z</time>
      </trkpt>
      <trkpt lat="46.59369" lon="6.30764">
        <ele>1640</ele>
        <time>2019-05-04T21:39:31Z</time>
      </trkpt>
      <trkpt lat="46.59362" lon="6.30745">
        <ele>1639</ele>
        <time>2019-05-04T21:39:41Z</time>
      </trkpt>
      <trkpt lat="46.59358" lon="6.30739">
        <ele>1640</ele>
        <time>2019-05-04T21:39:46Z</time>
      </trkpt>
      <trkpt lat="46.5935" lon="6.30722">
        <ele>1640</ele>
        <time>2019-05-04T21:39:56Z</time>
      </trkpt>
      <trkpt lat="46.59351" lon="6.30719">
        <ele>1639</ele>
        <time>2019-05-04T21:39:58Z</time>
      </trkpt>
      <trkpt lat="46.59352" lon="6.30715">
        <ele>1639</ele>
        <time>2019-05-04T21:40:00Z</time>
      </trkpt>
      <trkpt lat="46.59355" lon="6.30707">
        <ele>1638</ele>
        <time>2019-05-04T21:40:04Z</time>
      </trkpt>
      <trkpt lat="46.59355" lon="6.30706">
        <ele>1638</ele>
        <time>2019-05-04T21:40:05Z</time>
      </trkpt>
      <trkpt lat="46.59355" lon="6.30704">
        <ele>1638</ele>
        <time>2019-05-04T21:40:06Z</time>
      </trkpt>
      <trkpt lat="46.59357" lon="6.30692">
        <ele>1638</ele>
        <time>2019-05-04T21:40:12Z</time>
      </trkpt>
      <trkpt lat="46.5936" lon="6.3069">
        <ele>1637</ele>
        <time>2019-05-04T21:40:15Z</time>
      </trkpt>
      <trkpt lat="46.5936" lon="6.30689">
        <ele>1637</ele>
        <time>2019-05-04T21:40:15Z</time>
      </trkpt>
      <trkpt lat="46.59361" lon="6.30688">
        <ele>1637</ele>
        <time>2019-05-04T21:40:16Z</time>
      </trkpt>
      <trkpt lat="46.59361" lon="6.30685">
        <ele>1637</ele>
        <time>2019-05-04T21:40:18Z</time>
      </trkpt>
      <trkpt lat="46.5936" lon="6.30681">
        <ele>1637</ele>
        <time>2019-05-04T21:40:20Z</time>
      </trkpt>
      <trkpt lat="46.5936" lon="6.30679">
        <ele>1637</ele>
        <time>2019-05-04T21:40:20Z</time>
      </trkpt>
      <trkpt lat="46.59357" lon="6.30671">
        <ele>1637</ele>
        <time>2019-05-04T21:40:25Z</time>
      </trkpt>
      <trkpt lat="46.59357" lon="6.30665">
        <ele>1637</ele>
        <time>2019-05-04T21:40:28Z</time>
      </trkpt>
      <trkpt lat="46.59354" lon="6.30655">
        <ele>1638</ele>
        <time>2019-05-04T21:40:33Z</time>
      </trkpt>
      <trkpt lat="46.59349" lon="6.30651">
        <ele>1639</ele>
        <time>2019-05-04T21:40:38Z</time>
      </trkpt>
      <trkpt lat="46.59349" lon="6.30651">
        <ele>1639</ele>
        <time>2019-05-04T21:40:38Z</time>
      </trkpt>
      <trkpt lat="46.59346" lon="6.30647">
        <ele>1639</ele>
        <time>2019-05-04T21:40:41Z</time>
      </trkpt>
      <trkpt lat="46.59346" lon="6.30645">
        <ele>1639</ele>
        <time>2019-05-04T21:40:42Z</time>
      </trkpt>
      <trkpt lat="46.59344" lon="6.30638">
        <ele>1640</ele>
        <time>2019-05-04T21:40:46Z</time>
      </trkpt>
      <trkpt lat="46.59343" lon="6.30635">
        <ele>1640</ele>
        <time>2019-05-04T21:40:47Z</time>
      </trkpt>
      <trkpt lat="46.59335" lon="6.30613">
        <ele>1642</ele>
        <time>2019-05-04T21:41:00Z</time>
      </trkpt>
      <trkpt lat="46.59333" lon="6.30607">
        <ele>1642</ele>
        <time>2019-05-04T21:41:03Z</time>
      </trkpt>
      <trkpt lat="46.59333" lon="6.30605">
        <ele>1642</ele>
        <time>2019-05-04T21:41:04Z</time>
      </trkpt>
      <trkpt lat="46.59333" lon="6.3059">
        <ele>1641</ele>
        <time>2019-05-04T21:41:12Z</time>
      </trkpt>
      <trkpt lat="46.59335" lon="6.30584">
        <ele>1640</ele>
        <time>2019-05-04T21:41:15Z</time>
      </trkpt>
      <trkpt lat="46.59334" lon="6.30582">
        <ele>1640</ele>
        <time>2019-05-04T21:41:16Z</time>
      </trkpt>
      <trkpt lat="46.59333" lon="6.30574">
        <ele>1639</ele>
        <time>2019-05-04T21:41:20Z</time>
      </trkpt>
      <trkpt lat="46.59333" lon="6.30571">
        <ele>1639</ele>
        <time>2019-05-04T21:41:21Z</time>
      </trkpt>
      <trkpt lat="46.59332" lon="6.30567">
        <ele>1639</ele>
        <time>2019-05-04T21:41:23Z</time>
      </trkpt>
      <trkpt lat="46.59333" lon="6.30565">
        <ele>1638</ele>
        <time>2019-05-04T21:41:25Z</time>
      </trkpt>
      <trkpt lat="46.59332" lon="6.30564">
        <ele>1638</ele>
        <time>2019-05-04T21:41:25Z</time>
      </trkpt>
      <trkpt lat="46.59332" lon="6.30563">
        <ele>1638</ele>
        <time>2019-05-04T21:41:26Z</time>
      </trkpt>
      <trkpt lat="46.59332" lon="6.30561">
        <ele>1638</ele>
        <time>2019-05-04T21:41:27Z</time>
      </trkpt>
      <trkpt lat="46.59332" lon="6.3056">
        <ele>1638</ele>
        <time>2019-05-04T21:41:27Z</time>
      </trkpt>
      <trkpt lat="46.59332" lon="6.30557">
        <ele>1638</ele>
        <time>2019-05-04T21:41:29Z</time>
      </trkpt>
      <trkpt lat="46.59331" lon="6.30555">
        <ele>1638</ele>
        <time>2019-05-04T21:41:30Z</time>
      </trkpt>
      <trkpt lat="46.59331" lon="6.30549">
        <ele>1637</ele>
        <time>2019-05-04T21:41:33Z</time>
      </trkpt>
      <trkpt lat="46.59331" lon="6.30547">
        <ele>1637</ele>
        <time>2019-05-04T21:41:34Z</time>
      </trkpt>
      <trkpt lat="46.59331" lon="6.30537">
        <ele>1636</ele>
        <time>2019-05-04T21:41:39Z</time>
      </trkpt>
      <trkpt lat="46.5933" lon="6.30531">
        <ele>1636</ele>
        <time>2019-05-04T21:41:42Z</time>
      </trkpt>
      <trkpt lat="46.59331" lon="6.30525">
        <ele>1635</ele>
        <time>2019-05-04T21:41:45Z</time>
      </trkpt>
      <trkpt lat="46.59331" lon="6.3052">
        <ele>1634</ele>
        <time>2019-05-04T21:41:48Z</time>
      </trkpt>
      <trkpt lat="46.59331" lon="6.30518">
        <ele>1634</ele>
        <time>2019-05-04T21:41:49Z</time>
      </trkpt>
      <trkpt lat="46.59331" lon="6.30507">
        <ele>1632</ele>
        <time>2019-05-04T21:41:55Z</time>
      </trkpt>
      <trkpt lat="46.59331" lon="6.30503">
        <ele>1631</ele>
        <time>2019-05-04T21:41:57Z</time>
      </trkpt>
      <trkpt lat="46.59332" lon="6.30497">
        <ele>1630</ele>
        <time>2019-05-04T21:42:00Z</time>
      </trkpt>
      <trkpt lat="46.5933" lon="6.30488">
        <ele>1629</ele>
        <time>2019-05-04T21:42:04Z</time>
      </trkpt>
      <trkpt lat="46.5933" lon="6.30485">
        <ele>1629</ele>
        <time>2019-05-04T21:42:06Z</time>
      </trkpt>
      <trkpt lat="46.59328" lon="6.3048">
        <ele>1629</ele>
        <time>2019-05-04T21:42:09Z</time>
      </trkpt>
      <trkpt lat="46.59327" lon="6.30477">
        <ele>1628</ele>
        <time>2019-05-04T21:42:10Z</time>
      </trkpt>
      <trkpt lat="46.59325" lon="6.30455">
        <ele>1625</ele>
        <time>2019-05-04T21:42:22Z</time>
      </trkpt>
      <trkpt lat="46.59321" lon="6.30441">
        <ele>1624</ele>
        <time>2019-05-04T21:42:30Z</time>
      </trkpt>
      <trkpt lat="46.5932" lon="6.30434">
        <ele>1624</ele>
        <time>2019-05-04T21:42:33Z</time>
      </trkpt>
      <trkpt lat="46.59317" lon="6.30429">
        <ele>1624</ele>
        <time>2019-05-04T21:42:36Z</time>
      </trkpt>
      <trkpt lat="46.59313" lon="6.30422">
        <ele>1624</ele>
        <time>2019-05-04T21:42:41Z</time>
      </trkpt>
      <trkpt lat="46.59313" lon="6.30417">
        <ele>1623</ele>
        <time>2019-05-04T21:42:43Z</time>
      </trkpt>
      <trkpt lat="46.59312" lon="6.30412">
        <ele>1622</ele>
        <time>2019-05-04T21:42:46Z</time>
      </trkpt>
      <trkpt lat="46.59312" lon="6.30408">
        <ele>1622</ele>
        <time>2019-05-04T21:42:48Z</time>
      </trkpt>
      <trkpt lat="46.59311" lon="6.30405">
        <ele>1621</ele>
        <time>2019-05-04T21:42:50Z</time>
      </trkpt>
      <trkpt lat="46.59311" lon="6.30404">
        <ele>1621</ele>
        <time>2019-05-04T21:42:50Z</time>
      </trkpt>
      <trkpt lat="46.59313" lon="6.304">
        <ele>1620</ele>
        <time>2019-05-04T21:42:52Z</time>
      </trkpt>
      <trkpt lat="46.59313" lon="6.30399">
        <ele>1619</ele>
        <time>2019-05-04T21:42:53Z</time>
      </trkpt>
      <trkpt lat="46.59312" lon="6.30395">
        <ele>1619</ele>
        <time>2019-05-04T21:42:55Z</time>
      </trkpt>
      <trkpt lat="46.59311" lon="6.30394">
        <ele>1619</ele>
        <time>2019-05-04T21:42:56Z</time>
      </trkpt>
      <trkpt lat="46.5931" lon="6.30384">
        <ele>1617</ele>
        <time>2019-05-04T21:43:01Z</time>
      </trkpt>
      <trkpt lat="46.59308" lon="6.30377">
        <ele>1617</ele>
        <time>2019-05-04T21:43:05Z</time>
      </trkpt>
      <trkpt lat="46.59305" lon="6.30367">
        <ele>1615</ele>
        <time>2019-05-04T21:43:10Z</time>
      </trkpt>
      <trkpt lat="46.59304" lon="6.30359">
        <ele>1614</ele>
        <time>2019-05-04T21:43:14Z</time>
      </trkpt>
      <trkpt lat="46.59303" lon="6.30345">
        <ele>1612</ele>
        <time>2019-05-04T21:43:22Z</time>
      </trkpt>
      <trkpt lat="46.59302" lon="6.30337">
        <ele>1611</ele>
        <time>2019-05-04T21:43:26Z</time>
      </trkpt>
      <trkpt lat="46.593" lon="6.30328">
        <ele>1610</ele>
        <time>2019-05-04T21:43:30Z</time>
      </trkpt>
      <trkpt lat="46.59298" lon="6.30324">
        <ele>1609</ele>
        <time>2019-05-04T21:43:33Z</time>
      </trkpt>
      <trkpt lat="46.59297" lon="6.30317">
        <ele>1609</ele>
        <time>2019-05-04T21:43:36Z</time>
      </trkpt>
      <trkpt lat="46.59296" lon="6.30316">
        <ele>1609</ele>
        <time>2019-05-04T21:43:37Z</time>
      </trkpt>
      <trkpt lat="46.59293" lon="6.30311">
        <ele>1608</ele>
        <time>2019-05-04T21:43:41Z</time>
      </trkpt>
      <trkpt lat="46.59292" lon="6.30309">
        <ele>1608</ele>
        <time>2019-05-04T21:43:42Z</time>
      </trkpt>
      <trkpt lat="46.59291" lon="6.30308">
        <ele>1608</ele>
        <time>2019-05-04T21:43:43Z</time>
      </trkpt>
      <trkpt lat="46.5929" lon="6.30301">
        <ele>1607</ele>
        <time>2019-05-04T21:43:46Z</time>
      </trkpt>
      <trkpt lat="46.5929" lon="6.30295">
        <ele>1606</ele>
        <time>2019-05-04T21:43:49Z</time>
      </trkpt>
      <trkpt lat="46.5929" lon="6.3029">
        <ele>1605</ele>
        <time>2019-05-04T21:43:52Z</time>
      </trkpt>
      <trkpt lat="46.5929" lon="6.30289">
        <ele>1605</ele>
        <time>2019-05-04T21:43:52Z</time>
      </trkpt>
      <trkpt lat="46.59292" lon="6.30281">
        <ele>1603</ele>
        <time>2019-05-04T21:43:57Z</time>
      </trkpt>
      <trkpt lat="46.5929" lon="6.3027">
        <ele>1602</ele>
        <time>2019-05-04T21:44:03Z</time>
      </trkpt>
      <trkpt lat="46.59287" lon="6.30254">
        <ele>1600</ele>
        <time>2019-05-04T21:44:11Z</time>
      </trkpt>
      <trkpt lat="46.59287" lon="6.30246">
        <ele>1599</ele>
        <time>2019-05-04T21:44:15Z</time>
      </trkpt>
      <trkpt lat="46.59286" lon="6.30226">
        <ele>1596</ele>
        <time>2019-05-04T21:44:25Z</time>
      </trkpt>
      <trkpt lat="46.59286" lon="6.30219">
        <ele>1595</ele>
        <time>2019-05-04T21:44:29Z</time>
      </trkpt>
      <trkpt lat="46.59285" lon="6.30208">
        <ele>1594</ele>
        <time>2019-05-04T21:44:34Z</time>
      </trkpt>
      <trkpt lat="46.59284" lon="6.30197">
        <ele>1592</ele>
        <time>2019-05-04T21:44:40Z</time>
      </trkpt>
      <trkpt lat="46.59284" lon="6.30186">
        <ele>1591</ele>
        <time>2019-05-04T21:44:45Z</time>
      </trkpt>
      <trkpt lat="46.59282" lon="6.30173">
        <ele>1590</ele>
        <time>2019-05-04T21:44:52Z</time>
      </trkpt>
      <trkpt lat="46.5928" lon="6.30163">
        <ele>1589</ele>
        <time>2019-05-04T21:44:57Z</time>
      </trkpt>
      <trkpt lat="46.59278" lon="6.30153">
        <ele>1588</ele>
        <time>2019-05-04T21:45:03Z</time>
      </trkpt>
      <trkpt lat="46.59276" lon="6.30149">
        <ele>1588</ele>
        <time>2019-05-04T21:45:05Z</time>
      </trkpt>
      <trkpt lat="46.59274" lon="6.30148">
        <ele>1588</ele>
        <time>2019-05-04T21:45:06Z</time>
      </trkpt>
      <trkpt lat="46.59272" lon="6.30144">
        <ele>1588</ele>
        <time>2019-05-04T21:45:09Z</time>
      </trkpt>
      <trkpt lat="46.5927" lon="6.30142">
        <ele>1588</ele>
        <time>2019-05-04T21:45:10Z</time>
      </trkpt>
      <trkpt lat="46.59264" lon="6.30132">
        <ele>1588</ele>
        <time>2019-05-04T21:45:17Z</time>
      </trkpt>
      <trkpt lat="46.59249" lon="6.30117">
        <ele>1587</ele>
        <time>2019-05-04T21:45:30Z</time>
      </trkpt>
      <trkpt lat="46.59249" lon="6.30116">
        <ele>1587</ele>
        <time>2019-05-04T21:45:31Z</time>
      </trkpt>
      <trkpt lat="46.59246" lon="6.30116">
        <ele>1587</ele>
        <time>2019-05-04T21:45:32Z</time>
      </trkpt>
      <trkpt lat="46.59234" lon="6.30115">
        <ele>1588</ele>
        <time>2019-05-04T21:45:42Z</time>
      </trkpt>
      <trkpt lat="46.59223" lon="6.30114">
        <ele>1588</ele>
        <time>2019-05-04T21:45:49Z</time>
      </trkpt>
      <trkpt lat="46.59209" lon="6.301">
        <ele>1586</ele>
        <time>2019-05-04T21:46:02Z</time>
      </trkpt>
      <trkpt lat="46.59195" lon="6.30078">
        <ele>1584</ele>
        <time>2019-05-04T21:46:16Z</time>
      </trkpt>
      <trkpt lat="46.5919" lon="6.30067">
        <ele>1582</ele>
        <time>2019-05-04T21:46:23Z</time>
      </trkpt>
      <trkpt lat="46.59188" lon="6.3006">
        <ele>1582</ele>
        <time>2019-05-04T21:46:27Z</time>
      </trkpt>
      <trkpt lat="46.59185" lon="6.30053">
        <ele>1581</ele>
        <time>2019-05-04T21:46:31Z</time>
      </trkpt>
      <trkpt lat="46.59182" lon="6.30042">
        <ele>1580</ele>
        <time>2019-05-04T21:46:37Z</time>
      </trkpt>
      <trkpt lat="46.59174" lon="6.30016">
        <ele>1577</ele>
        <time>2019-05-04T21:46:51Z</time>
      </trkpt>
      <trkpt lat="46.59171" lon="6.30007">
        <ele>1576</ele>
        <time>2019-05-04T21:46:57Z</time>
      </trkpt>
      <trkpt lat="46.5917" lon="6.29997">
        <ele>1576</ele>
        <time>2019-05-04T21:47:01Z</time>
      </trkpt>
      <trkpt lat="46.59171" lon="6.29989">
        <ele>1575</ele>
        <time>2019-05-04T21:47:05Z</time>
      </trkpt>
      <trkpt lat="46.59171" lon="6.29989">
        <ele>1575</ele>
        <time>2019-05-04T21:47:06Z</time>
      </trkpt>
      <trkpt lat="46.59172" lon="6.29989">
        <ele>1574</ele>
        <time>2019-05-04T21:47:07Z</time>
      </trkpt>
      <trkpt lat="46.59174" lon="6.2999">
        <ele>1574</ele>
        <time>2019-05-04T21:47:08Z</time>
      </trkpt>
      <trkpt lat="46.59174" lon="6.29991">
        <ele>1574</ele>
        <time>2019-05-04T21:47:09Z</time>
      </trkpt>
      <trkpt lat="46.59175" lon="6.29991">
        <ele>1574</ele>
        <time>2019-05-04T21:47:09Z</time>
      </trkpt>
      <trkpt lat="46.59173" lon="6.29986">
        <ele>1574</ele>
        <time>2019-05-04T21:47:12Z</time>
      </trkpt>
      <trkpt lat="46.59168" lon="6.29966">
        <ele>1572</ele>
        <time>2019-05-04T21:47:23Z</time>
      </trkpt>
      <trkpt lat="46.59165" lon="6.29959">
        <ele>1572</ele>
        <time>2019-05-04T21:47:27Z</time>
      </trkpt>
      <trkpt lat="46.59161" lon="6.29954">
        <ele>1572</ele>
        <time>2019-05-04T21:47:31Z</time>
      </trkpt>
      <trkpt lat="46.59151" lon="6.29939">
        <ele>1571</ele>
        <time>2019-05-04T21:47:42Z</time>
      </trkpt>
      <trkpt lat="46.59143" lon="6.29924">
        <ele>1570</ele>
        <time>2019-05-04T21:47:50Z</time>
      </trkpt>
      <trkpt lat="46.59133" lon="6.29902">
        <ele>1568</ele>
        <time>2019-05-04T21:48:04Z</time>
      </trkpt>
      <trkpt lat="46.59124" lon="6.29887">
        <ele>1568</ele>
        <time>2019-05-04T21:48:14Z</time>
      </trkpt>
      <trkpt lat="46.59114" lon="6.29878">
        <ele>1568</ele>
        <time>2019-05-04T21:48:22Z</time>
      </trkpt>
      <trkpt lat="46.59102" lon="6.29867">
        <ele>1569</ele>
        <time>2019-05-04T21:48:33Z</time>
      </trkpt>
      <trkpt lat="46.59097" lon="6.29861">
        <ele>1569</ele>
        <time>2019-05-04T21:48:38Z</time>
      </trkpt>
      <trkpt lat="46.59089" lon="6.29854">
        <ele>1569</ele>
        <time>2019-05-04T21:48:44Z</time>
      </trkpt>
      <trkpt lat="46.59074" lon="6.29836">
        <ele>1568</ele>
        <time>2019-05-04T21:48:58Z</time>
      </trkpt>
      <trkpt lat="46.5907" lon="6.29831">
        <ele>1568</ele>
        <time>2019-05-04T21:49:02Z</time>
      </trkpt>
      <trkpt lat="46.59054" lon="6.29819">
        <ele>1568</ele>
        <time>2019-05-04T21:49:15Z</time>
      </trkpt>
      <trkpt lat="46.59051" lon="6.29815">
        <ele>1568</ele>
        <time>2019-05-04T21:49:18Z</time>
      </trkpt>
      <trkpt lat="46.59043" lon="6.29804">
        <ele>1567</ele>
        <time>2019-05-04T21:49:26Z</time>
      </trkpt>
      <trkpt lat="46.59028" lon="6.29785">
        <ele>1566</ele>
        <time>2019-05-04T21:49:40Z</time>
      </trkpt>
      <trkpt lat="46.59017" lon="6.29774">
        <ele>1565</ele>
        <time>2019-05-04T21:49:50Z</time>
      </trkpt>
      <trkpt lat="46.59001" lon="6.29759">
        <ele>1566</ele>
        <time>2019-05-04T21:50:04Z</time>
      </trkpt>
      <trkpt lat="46.58995" lon="6.29752">
        <ele>1566</ele>
        <time>2019-05-04T21:50:09Z</time>
      </trkpt>
      <trkpt lat="46.58988" lon="6.29748">
        <ele>1566</ele>
        <time>2019-05-04T21:50:15Z</time>
      </trkpt>
      <trkpt lat="46.58985" lon="6.29744">
        <ele>1566</ele>
        <time>2019-05-04T21:50:18Z</time>
      </trkpt>
      <trkpt lat="46.58974" lon="6.29722">
        <ele>1565</ele>
        <time>2019-05-04T21:50:31Z</time>
      </trkpt>
      <trkpt lat="46.58965" lon="6.29716">
        <ele>1566</ele>
        <time>2019-05-04T21:50:38Z</time>
      </trkpt>
      <trkpt lat="46.58954" lon="6.29696">
        <ele>1565</ele>
        <time>2019-05-04T21:50:51Z</time>
      </trkpt>
      <trkpt lat="46.58952" lon="6.29696">
        <ele>1565</ele>
        <time>2019-05-04T21:50:52Z</time>
      </trkpt>
      <trkpt lat="46.58949" lon="6.29695">
        <ele>1565</ele>
        <time>2019-05-04T21:50:55Z</time>
      </trkpt>
      <trkpt lat="46.58944" lon="6.2969">
        <ele>1565</ele>
        <time>2019-05-04T21:50:59Z</time>
      </trkpt>
      <trkpt lat="46.58942" lon="6.29687">
        <ele>1565</ele>
        <time>2019-05-04T21:51:01Z</time>
      </trkpt>
      <trkpt lat="46.58941" lon="6.29687">
        <ele>1565</ele>
        <time>2019-05-04T21:51:02Z</time>
      </trkpt>
      <trkpt lat="46.58932" lon="6.29676">
        <ele>1564</ele>
        <time>2019-05-04T21:51:10Z</time>
      </trkpt>
      <trkpt lat="46.58917" lon="6.29661">
        <ele>1564</ele>
        <time>2019-05-04T21:51:24Z</time>
      </trkpt>
      <trkpt lat="46.58902" lon="6.29645">
        <ele>1563</ele>
        <time>2019-05-04T21:51:37Z</time>
      </trkpt>
      <trkpt lat="46.58895" lon="6.29638">
        <ele>1562</ele>
        <time>2019-05-04T21:51:43Z</time>
      </trkpt>
      <trkpt lat="46.58891" lon="6.29634">
        <ele>1562</ele>
        <time>2019-05-04T21:51:46Z</time>
      </trkpt>
      <trkpt lat="46.5889" lon="6.29633">
        <ele>1562</ele>
        <time>2019-05-04T21:51:47Z</time>
      </trkpt>
      <trkpt lat="46.58875" lon="6.29618">
        <ele>1560</ele>
        <time>2019-05-04T21:52:01Z</time>
      </trkpt>
      <trkpt lat="46.58866" lon="6.29608">
        <ele>1559</ele>
        <time>2019-05-04T21:52:09Z</time>
      </trkpt>
      <trkpt lat="46.58853" lon="6.29589">
        <ele>1559</ele>
        <time>2019-05-04T21:52:22Z</time>
      </trkpt>
      <trkpt lat="46.58849" lon="6.29578">
        <ele>1558</ele>
        <time>2019-05-04T21:52:29Z</time>
      </trkpt>
      <trkpt lat="46.58845" lon="6.29572">
        <ele>1558</ele>
        <time>2019-05-04T21:52:33Z</time>
      </trkpt>
      <trkpt lat="46.58837" lon="6.2956">
        <ele>1558</ele>
        <time>2019-05-04T21:52:41Z</time>
      </trkpt>
      <trkpt lat="46.58835" lon="6.29558">
        <ele>1558</ele>
        <time>2019-05-04T21:52:42Z</time>
      </trkpt>
      <trkpt lat="46.58819" lon="6.29545">
        <ele>1556</ele>
        <time>2019-05-04T21:52:56Z</time>
      </trkpt>
      <trkpt lat="46.58818" lon="6.29545">
        <ele>1556</ele>
        <time>2019-05-04T21:52:56Z</time>
      </trkpt>
      <trkpt lat="46.58816" lon="6.29545">
        <ele>1556</ele>
        <time>2019-05-04T21:52:58Z</time>
      </trkpt>
      <trkpt lat="46.58805" lon="6.29541">
        <ele>1556</ele>
        <time>2019-05-04T21:53:06Z</time>
      </trkpt>
      <trkpt lat="46.58805" lon="6.2954">
        <ele>1555</ele>
        <time>2019-05-04T21:53:07Z</time>
      </trkpt>
      <trkpt lat="46.58799" lon="6.29535">
        <ele>1555</ele>
        <time>2019-05-04T21:53:12Z</time>
      </trkpt>
      <trkpt lat="46.58794" lon="6.2953">
        <ele>1554</ele>
        <time>2019-05-04T21:53:16Z</time>
      </trkpt>
      <trkpt lat="46.58783" lon="6.29519">
        <ele>1552</ele>
        <time>2019-05-04T21:53:26Z</time>
      </trkpt>
      <trkpt lat="46.58778" lon="6.29513">
        <ele>1551</ele>
        <time>2019-05-04T21:53:31Z</time>
      </trkpt>
      <trkpt lat="46.5877" lon="6.29504">
        <ele>1550</ele>
        <time>2019-05-04T21:53:38Z</time>
      </trkpt>
      <trkpt lat="46.58763" lon="6.29498">
        <ele>1550</ele>
        <time>2019-05-04T21:53:44Z</time>
      </trkpt>
      <trkpt lat="46.58746" lon="6.29486">
        <ele>1549</ele>
        <time>2019-05-04T21:53:57Z</time>
      </trkpt>
      <trkpt lat="46.58744" lon="6.29485">
        <ele>1549</ele>
        <time>2019-05-04T21:53:59Z</time>
      </trkpt>
      <trkpt lat="46.58739" lon="6.29481">
        <ele>1548</ele>
        <time>2019-05-04T21:54:03Z</time>
      </trkpt>
      <trkpt lat="46.58736" lon="6.29479">
        <ele>1548</ele>
        <time>2019-05-04T21:54:05Z</time>
      </trkpt>
      <trkpt lat="46.58734" lon="6.29476">
        <ele>1548</ele>
        <time>2019-05-04T21:54:08Z</time>
      </trkpt>
      <trkpt lat="46.58729" lon="6.29472">
        <ele>1547</ele>
        <time>2019-05-04T21:54:12Z</time>
      </trkpt>
      <trkpt lat="46.58721" lon="6.29466">
        <ele>1546</ele>
        <time>2019-05-04T21:54:18Z</time>
      </trkpt>
      <trkpt lat="46.58714" lon="6.29461">
        <ele>1546</ele>
        <time>2019-05-04T21:54:24Z</time>
      </trkpt>
      <trkpt lat="46.5871" lon="6.29461">
        <ele>1545</ele>
        <time>2019-05-04T21:54:27Z</time>
      </trkpt>
      <trkpt lat="46.58703" lon="6.29459">
        <ele>1545</ele>
        <time>2019-05-04T21:54:32Z</time>
      </trkpt>
      <trkpt lat="46.58696" lon="6.29452">
        <ele>1544</ele>
        <time>2019-05-04T21:54:38Z</time>
      </trkpt>
      <trkpt lat="46.58691" lon="6.29446">
        <ele>1543</ele>
        <time>2019-05-04T21:54:43Z</time>
      </trkpt>
      <trkpt lat="46.58688" lon="6.29442">
        <ele>1543</ele>
        <time>2019-05-04T21:54:46Z</time>
      </trkpt>
      <trkpt lat="46.5868" lon="6.29434">
        <ele>1543</ele>
        <time>2019-05-04T21:54:53Z</time>
      </trkpt>
      <trkpt lat="46.58671" lon="6.29427">
        <ele>1544</ele>
        <time>2019-05-04T21:55:00Z</time>
      </trkpt>
      <trkpt lat="46.58666" lon="6.29423">
        <ele>1544</ele>
        <time>2019-05-04T21:55:05Z</time>
      </trkpt>
      <trkpt lat="46.58661" lon="6.29419">
        <ele>1544</ele>
        <time>2019-05-04T21:55:09Z</time>
      </trkpt>
      <trkpt lat="46.58651" lon="6.2941">
        <ele>1545</ele>
        <time>2019-05-04T21:55:17Z</time>
      </trkpt>
      <trkpt lat="46.58645" lon="6.29402">
        <ele>1545</ele>
        <time>2019-05-04T21:55:23Z</time>
      </trkpt>
      <trkpt lat="46.58644" lon="6.294">
        <ele>1545</ele>
        <time>2019-05-04T21:55:24Z</time>
      </trkpt>
      <trkpt lat="46.58637" lon="6.29394">
        <ele>1545</ele>
        <time>2019-05-04T21:55:30Z</time>
      </trkpt>
      <trkpt lat="46.58636" lon="6.29394">
        <ele>1546</ele>
        <time>2019-05-04T21:55:31Z</time>
      </trkpt>
      <trkpt lat="46.58625" lon="6.29384">
        <ele>1546</ele>
        <time>2019-05-04T21:55:40Z</time>
      </trkpt>
      <trkpt lat="46.58624" lon="6.29376">
        <ele>1546</ele>
        <time>2019-05-04T21:55:44Z</time>
      </trkpt>
      <trkpt lat="46.58621" lon="6.2937">
        <ele>1546</ele>
        <time>2019-05-04T21:55:48Z</time>
      </trkpt>
      <trkpt lat="46.58618" lon="6.29365">
        <ele>1545</ele>
        <time>2019-05-04T21:55:52Z</time>
      </trkpt>
      <trkpt lat="46.58616" lon="6.29359">
        <ele>1545</ele>
        <time>2019-05-04T21:55:55Z</time>
      </trkpt>
      <trkpt lat="46.58616" lon="6.29358">
        <ele>1545</ele>
        <time>2019-05-04T21:55:56Z</time>
      </trkpt>
      <trkpt lat="46.58615" lon="6.29355">
        <ele>1545</ele>
        <time>2019-05-04T21:55:57Z</time>
      </trkpt>
      <trkpt lat="46.58615" lon="6.2935">
        <ele>1544</ele>
        <time>2019-05-04T21:56:00Z</time>
      </trkpt>
      <trkpt lat="46.58614" lon="6.29344">
        <ele>1544</ele>
        <time>2019-05-04T21:56:03Z</time>
      </trkpt>
      <trkpt lat="46.58614" lon="6.29342">
        <ele>1543</ele>
        <time>2019-05-04T21:56:04Z</time>
      </trkpt>
      <trkpt lat="46.58613" lon="6.29339">
        <ele>1543</ele>
        <time>2019-05-04T21:56:05Z</time>
      </trkpt>
      <trkpt lat="46.58612" lon="6.29333">
        <ele>1543</ele>
        <time>2019-05-04T21:56:09Z</time>
      </trkpt>
      <trkpt lat="46.58612" lon="6.29329">
        <ele>1542</ele>
        <time>2019-05-04T21:56:11Z</time>
      </trkpt>
      <trkpt lat="46.58599" lon="6.29312">
        <ele>1541</ele>
        <time>2019-05-04T21:56:23Z</time>
      </trkpt>
      <trkpt lat="46.58598" lon="6.2931">
        <ele>1541</ele>
        <time>2019-05-04T21:56:24Z</time>
      </trkpt>
      <trkpt lat="46.58597" lon="6.29309">
        <ele>1541</ele>
        <time>2019-05-04T21:56:25Z</time>
      </trkpt>
      <trkpt lat="46.58592" lon="6.29306">
        <ele>1541</ele>
        <time>2019-05-04T21:56:29Z</time>
      </trkpt>
      <trkpt lat="46.58591" lon="6.29305">
        <ele>1541</ele>
        <time>2019-05-04T21:56:30Z</time>
      </trkpt>
      <trkpt lat="46.5859" lon="6.29304">
        <ele>1541</ele>
        <time>2019-05-04T21:56:31Z</time>
      </trkpt>
      <trkpt lat="46.58587" lon="6.29304">
        <ele>1542</ele>
        <time>2019-05-04T21:56:33Z</time>
      </trkpt>
      <trkpt lat="46.58584" lon="6.293">
        <ele>1542</ele>
        <time>2019-05-04T21:56:37Z</time>
      </trkpt>
      <trkpt lat="46.5858" lon="6.29293">
        <ele>1541</ele>
        <time>2019-05-04T21:56:41Z</time>
      </trkpt>
      <trkpt lat="46.58578" lon="6.2929">
        <ele>1541</ele>
        <time>2019-05-04T21:56:43Z</time>
      </trkpt>
      <trkpt lat="46.58575" lon="6.29289">
        <ele>1541</ele>
        <time>2019-05-04T21:56:45Z</time>
      </trkpt>
      <trkpt lat="46.58574" lon="6.29288">
        <ele>1542</ele>
        <time>2019-05-04T21:56:46Z</time>
      </trkpt>
      <trkpt lat="46.58569" lon="6.29285">
        <ele>1542</ele>
        <time>2019-05-04T21:56:50Z</time>
      </trkpt>
      <trkpt lat="46.58565" lon="6.29282">
        <ele>1542</ele>
        <time>2019-05-04T21:56:53Z</time>
      </trkpt>
      <trkpt lat="46.58565" lon="6.29282">
        <ele>1542</ele>
        <time>2019-05-04T21:56:53Z</time>
      </trkpt>
      <trkpt lat="46.5856" lon="6.29276">
        <ele>1542</ele>
        <time>2019-05-04T21:56:58Z</time>
      </trkpt>
      <trkpt lat="46.58558" lon="6.29274">
        <ele>1543</ele>
        <time>2019-05-04T21:57:00Z</time>
      </trkpt>
      <trkpt lat="46.58552" lon="6.29267">
        <ele>1543</ele>
        <time>2019-05-04T21:57:06Z</time>
      </trkpt>
      <trkpt lat="46.58546" lon="6.29262">
        <ele>1544</ele>
        <time>2019-05-04T21:57:10Z</time>
      </trkpt>
      <trkpt lat="46.58531" lon="6.29246">
        <ele>1546</ele>
        <time>2019-05-04T21:57:24Z</time>
      </trkpt>
      <trkpt lat="46.58525" lon="6.29238">
        <ele>1548</ele>
        <time>2019-05-04T21:57:30Z</time>
      </trkpt>
      <trkpt lat="46.58521" lon="6.29236">
        <ele>1548</ele>
        <time>2019-05-04T21:57:33Z</time>
      </trkpt>
      <trkpt lat="46.58517" lon="6.2923">
        <ele>1548</ele>
        <time>2019-05-04T21:57:37Z</time>
      </trkpt>
      <trkpt lat="46.58514" lon="6.29227">
        <ele>1549</ele>
        <time>2019-05-04T21:57:40Z</time>
      </trkpt>
      <trkpt lat="46.58513" lon="6.29225">
        <ele>1549</ele>
        <time>2019-05-04T21:57:41Z</time>
      </trkpt>
      <trkpt lat="46.58511" lon="6.29223">
        <ele>1549</ele>
        <time>2019-05-04T21:57:43Z</time>
      </trkpt>
      <trkpt lat="46.58504" lon="6.29219">
        <ele>1550</ele>
        <time>2019-05-04T21:57:48Z</time>
      </trkpt>
      <trkpt lat="46.58503" lon="6.29219">
        <ele>1550</ele>
        <time>2019-05-04T21:57:49Z</time>
      </trkpt>
      <trkpt lat="46.58501" lon="6.29221">
        <ele>1550</ele>
        <time>2019-05-04T21:57:51Z</time>
      </trkpt>
      <trkpt lat="46.585" lon="6.29221">
        <ele>1550</ele>
        <time>2019-05-04T21:57:51Z</time>
      </trkpt>
      <trkpt lat="46.58496" lon="6.2922">
        <ele>1550</ele>
        <time>2019-05-04T21:57:54Z</time>
      </trkpt>
      <trkpt lat="46.58493" lon="6.2922">
        <ele>1550</ele>
        <time>2019-05-04T21:57:57Z</time>
      </trkpt>
      <trkpt lat="46.5848" lon="6.29222">
        <ele>1551</ele>
        <time>2019-05-04T21:58:06Z</time>
      </trkpt>
      <trkpt lat="46.58473" lon="6.29221">
        <ele>1552</ele>
        <time>2019-05-04T21:58:11Z</time>
      </trkpt>
      <trkpt lat="46.58471" lon="6.29219">
        <ele>1552</ele>
        <time>2019-05-04T21:58:13Z</time>
      </trkpt>
      <trkpt lat="46.5847" lon="6.29218">
        <ele>1553</ele>
        <time>2019-05-04T21:58:14Z</time>
      </trkpt>
      <trkpt lat="46.58457" lon="6.292">
        <ele>1555</ele>
        <time>2019-05-04T21:58:27Z</time>
      </trkpt>
      <trkpt lat="46.58455" lon="6.29197">
        <ele>1555</ele>
        <time>2019-05-04T21:58:29Z</time>
      </trkpt>
      <trkpt lat="46.58452" lon="6.29193">
        <ele>1556</ele>
        <time>2019-05-04T21:58:32Z</time>
      </trkpt>
      <trkpt lat="46.5845" lon="6.29191">
        <ele>1556</ele>
        <time>2019-05-04T21:58:34Z</time>
      </trkpt>
      <trkpt lat="46.58445" lon="6.29186">
        <ele>1557</ele>
        <time>2019-05-04T21:58:38Z</time>
      </trkpt>
      <trkpt lat="46.58445" lon="6.29185">
        <ele>1557</ele>
        <time>2019-05-04T21:58:39Z</time>
      </trkpt>
      <trkpt lat="46.58443" lon="6.29181">
        <ele>1558</ele>
        <time>2019-05-04T21:58:41Z</time>
      </trkpt>
      <trkpt lat="46.58432" lon="6.29171">
        <ele>1560</ele>
        <time>2019-05-04T21:58:51Z</time>
      </trkpt>
      <trkpt lat="46.58428" lon="6.29167">
        <ele>1560</ele>
        <time>2019-05-04T21:58:54Z</time>
      </trkpt>
      <trkpt lat="46.58427" lon="6.29166">
        <ele>1561</ele>
        <time>2019-05-04T21:58:55Z</time>
      </trkpt>
      <trkpt lat="46.58424" lon="6.29163">
        <ele>1561</ele>
        <time>2019-05-04T21:58:58Z</time>
      </trkpt>
      <trkpt lat="46.58414" lon="6.29151">
        <ele>1563</ele>
        <time>2019-05-04T21:59:07Z</time>
      </trkpt>
      <trkpt lat="46.584" lon="6.2914">
        <ele>1565</ele>
        <time>2019-05-04T21:59:19Z</time>
      </trkpt>
      <trkpt lat="46.58393" lon="6.29129">
        <ele>1566</ele>
        <time>2019-05-04T21:59:26Z</time>
      </trkpt>
      <trkpt lat="46.58392" lon="6.29125">
        <ele>1566</ele>
        <time>2019-05-04T21:59:29Z</time>
      </trkpt>
      <trkpt lat="46.58393" lon="6.29112">
        <ele>1567</ele>
        <time>2019-05-04T21:59:35Z</time>
      </trkpt>
      <trkpt lat="46.58393" lon="6.29108">
        <ele>1567</ele>
        <time>2019-05-04T21:59:37Z</time>
      </trkpt>
      <trkpt lat="46.58386" lon="6.29102">
        <ele>1568</ele>
        <time>2019-05-04T21:59:43Z</time>
      </trkpt>
      <trkpt lat="46.58376" lon="6.29094">
        <ele>1569</ele>
        <time>2019-05-04T21:59:51Z</time>
      </trkpt>
      <trkpt lat="46.58365" lon="6.29083">
        <ele>1571</ele>
        <time>2019-05-04T22:00:01Z</time>
      </trkpt>
      <trkpt lat="46.58363" lon="6.29081">
        <ele>1571</ele>
        <time>2019-05-04T22:00:03Z</time>
      </trkpt>
      <trkpt lat="46.58362" lon="6.29079">
        <ele>1572</ele>
        <time>2019-05-04T22:00:04Z</time>
      </trkpt>
      <trkpt lat="46.58362" lon="6.29078">
        <ele>1572</ele>
        <time>2019-05-04T22:00:05Z</time>
      </trkpt>
      <trkpt lat="46.5836" lon="6.29075">
        <ele>1572</ele>
        <time>2019-05-04T22:00:06Z</time>
      </trkpt>
      <trkpt lat="46.5836" lon="6.29074">
        <ele>1572</ele>
        <time>2019-05-04T22:00:07Z</time>
      </trkpt>
      <trkpt lat="46.58358" lon="6.29071">
        <ele>1573</ele>
        <time>2019-05-04T22:00:09Z</time>
      </trkpt>
      <trkpt lat="46.58357" lon="6.2907">
        <ele>1573</ele>
        <time>2019-05-04T22:00:10Z</time>
      </trkpt>
      <trkpt lat="46.58355" lon="6.29068">
        <ele>1573</ele>
        <time>2019-05-04T22:00:12Z</time>
      </trkpt>
      <trkpt lat="46.58349" lon="6.2906">
        <ele>1574</ele>
        <time>2019-05-04T22:00:18Z</time>
      </trkpt>
      <trkpt lat="46.58348" lon="6.29059">
        <ele>1574</ele>
        <time>2019-05-04T22:00:19Z</time>
      </trkpt>
      <trkpt lat="46.58345" lon="6.29056">
        <ele>1574</ele>
        <time>2019-05-04T22:00:21Z</time>
      </trkpt>
      <trkpt lat="46.58344" lon="6.29055">
        <ele>1574</ele>
        <time>2019-05-04T22:00:22Z</time>
      </trkpt>
      <trkpt lat="46.58344" lon="6.29054">
        <ele>1574</ele>
        <time>2019-05-04T22:00:22Z</time>
      </trkpt>
      <trkpt lat="46.58342" lon="6.29052">
        <ele>1575</ele>
        <time>2019-05-04T22:00:24Z</time>
      </trkpt>
      <trkpt lat="46.5834" lon="6.29052">
        <ele>1575</ele>
        <time>2019-05-04T22:00:26Z</time>
      </trkpt>
      <trkpt lat="46.5834" lon="6.29051">
        <ele>1575</ele>
        <time>2019-05-04T22:00:26Z</time>
      </trkpt>
      <trkpt lat="46.58333" lon="6.29045">
        <ele>1576</ele>
        <time>2019-05-04T22:00:32Z</time>
      </trkpt>
      <trkpt lat="46.58323" lon="6.29037">
        <ele>1577</ele>
        <time>2019-05-04T22:00:40Z</time>
      </trkpt>
      <trkpt lat="46.58321" lon="6.29037">
        <ele>1577</ele>
        <time>2019-05-04T22:00:41Z</time>
      </trkpt>
      <trkpt lat="46.5832" lon="6.29037">
        <ele>1577</ele>
        <time>2019-05-04T22:00:42Z</time>
      </trkpt>
      <trkpt lat="46.58319" lon="6.29036">
        <ele>1577</ele>
        <time>2019-05-04T22:00:43Z</time>
      </trkpt>
      <trkpt lat="46.58317" lon="6.29035">
        <ele>1577</ele>
        <time>2019-05-04T22:00:45Z</time>
      </trkpt>
      <trkpt lat="46.58315" lon="6.29034">
        <ele>1577</ele>
        <time>2019-05-04T22:00:46Z</time>
      </trkpt>
      <trkpt lat="46.58314" lon="6.2903">
        <ele>1578</ele>
        <time>2019-05-04T22:00:48Z</time>
      </trkpt>
      <trkpt lat="46.58313" lon="6.29028">
        <ele>1578</ele>
        <time>2019-05-04T22:00:49Z</time>
      </trkpt>
      <trkpt lat="46.58311" lon="6.29027">
        <ele>1578</ele>
        <time>2019-05-04T22:00:51Z</time>
      </trkpt>
      <trkpt lat="46.58311" lon="6.29021">
        <ele>1578</ele>
        <time>2019-05-04T22:00:54Z</time>
      </trkpt>
      <trkpt lat="46.5831" lon="6.29017">
        <ele>1579</ele>
        <time>2019-05-04T22:00:56Z</time>
      </trkpt>
      <trkpt lat="46.58311" lon="6.29009">
        <ele>1579</ele>
        <time>2019-05-04T22:01:00Z</time>
      </trkpt>
      <trkpt lat="46.5831" lon="6.29008">
        <ele>1579</ele>
        <time>2019-05-04T22:01:01Z</time>
      </trkpt>
      <trkpt lat="46.58308" lon="6.29004">
        <ele>1580</ele>
        <time>2019-05-04T22:01:03Z</time>
      </trkpt>
      <trkpt lat="46.58308" lon="6.29001">
        <ele>1580</ele>
        <time>2019-05-04T22:01:05Z</time>
      </trkpt>
      <trkpt lat="46.58307" lon="6.28997">
        <ele>1580</ele>
        <time>2019-05-04T22:01:07Z</time>
      </trkpt>
      <trkpt lat="46.58306" lon="6.28992">
        <ele>1581</ele>
        <time>2019-05-04T22:01:09Z</time>
      </trkpt>
      <trkpt lat="46.58305" lon="6.28989">
        <ele>1581</ele>
        <time>2019-05-04T22:01:11Z</time>
      </trkpt>
      <trkpt lat="46.58304" lon="6.28987">
        <ele>1581</ele>
        <time>2019-05-04T22:01:12Z</time>
      </trkpt>
      <trkpt lat="46.58304" lon="6.28986">
        <ele>1581</ele>
        <time>2019-05-04T22:01:13Z</time>
      </trkpt>
      <trkpt lat="46.583" lon="6.28986">
        <ele>1582</ele>
        <time>2019-05-04T22:01:16Z</time>
      </trkpt>
      <trkpt lat="46.58291" lon="6.28981">
        <ele>1583</ele>
        <time>2019-05-04T22:01:23Z</time>
      </trkpt>
      <trkpt lat="46.58285" lon="6.28972">
        <ele>1585</ele>
        <time>2019-05-04T22:01:29Z</time>
      </trkpt>
      <trkpt lat="46.58278" lon="6.28969">
        <ele>1586</ele>
        <time>2019-05-04T22:01:34Z</time>
      </trkpt>
      <trkpt lat="46.58271" lon="6.28965">
        <ele>1586</ele>
        <time>2019-05-04T22:01:40Z</time>
      </trkpt>
      <trkpt lat="46.58267" lon="6.28963">
        <ele>1587</ele>
        <time>2019-05-04T22:01:43Z</time>
      </trkpt>
      <trkpt lat="46.58263" lon="6.28958">
        <ele>1587</ele>
        <time>2019-05-04T22:01:47Z</time>
      </trkpt>
      <trkpt lat="46.58262" lon="6.28956">
        <ele>1588</ele>
        <time>2019-05-04T22:01:48Z</time>
      </trkpt>
      <trkpt lat="46.58258" lon="6.28954">
        <ele>1588</ele>
        <time>2019-05-04T22:01:51Z</time>
      </trkpt>
      <trkpt lat="46.58254" lon="6.28948">
        <ele>1589</ele>
        <time>2019-05-04T22:01:55Z</time>
      </trkpt>
      <trkpt lat="46.58252" lon="6.28945">
        <ele>1589</ele>
        <time>2019-05-04T22:01:57Z</time>
      </trkpt>
      <trkpt lat="46.5825" lon="6.28944">
        <ele>1589</ele>
        <time>2019-05-04T22:01:59Z</time>
      </trkpt>
      <trkpt lat="46.5824" lon="6.28944">
        <ele>1589</ele>
        <time>2019-05-04T22:02:06Z</time>
      </trkpt>
      <trkpt lat="46.58232" lon="6.28942">
        <ele>1590</ele>
        <time>2019-05-04T22:02:12Z</time>
      </trkpt>
      <trkpt lat="46.58228" lon="6.2894">
        <ele>1590</ele>
        <time>2019-05-04T22:02:15Z</time>
      </trkpt>
      <trkpt lat="46.58221" lon="6.28933">
        <ele>1591</ele>
        <time>2019-05-04T22:02:21Z</time>
      </trkpt>
      <trkpt lat="46.58216" lon="6.28926">
        <ele>1591</ele>
        <time>2019-05-04T22:02:26Z</time>
      </trkpt>
      <trkpt lat="46.58205" lon="6.28914">
        <ele>1593</ele>
        <time>2019-05-04T22:02:36Z</time>
      </trkpt>
      <trkpt lat="46.58194" lon="6.28907">
        <ele>1594</ele>
        <time>2019-05-04T22:02:45Z</time>
      </trkpt>
      <trkpt lat="46.58189" lon="6.28899">
        <ele>1594</ele>
        <time>2019-05-04T22:02:50Z</time>
      </trkpt>
      <trkpt lat="46.58173" lon="6.28885">
        <ele>1596</ele>
        <time>2019-05-04T22:03:04Z</time>
      </trkpt>
      <trkpt lat="46.58155" lon="6.28875">
        <ele>1597</ele>
        <time>2019-05-04T22:03:17Z</time>
      </trkpt>
      <trkpt lat="46.58147" lon="6.28873">
        <ele>1598</ele>
        <time>2019-05-04T22:03:24Z</time>
      </trkpt>
      <trkpt lat="46.58139" lon="6.28868">
        <ele>1598</ele>
        <time>2019-05-04T22:03:30Z</time>
      </trkpt>
      <trkpt lat="46.58129" lon="6.28864">
        <ele>1599</ele>
        <time>2019-05-04T22:03:38Z</time>
      </trkpt>
      <trkpt lat="46.58124" lon="6.28862">
        <ele>1599</ele>
        <time>2019-05-04T22:03:41Z</time>
      </trkpt>
      <trkpt lat="46.58122" lon="6.28862">
        <ele>1599</ele>
        <time>2019-05-04T22:03:42Z</time>
      </trkpt>
      <trkpt lat="46.58117" lon="6.28858">
        <ele>1600</ele>
        <time>2019-05-04T22:03:47Z</time>
      </trkpt>
      <trkpt lat="46.58116" lon="6.28858">
        <ele>1600</ele>
        <time>2019-05-04T22:03:48Z</time>
      </trkpt>
      <trkpt lat="46.58114" lon="6.28858">
        <ele>1600</ele>
        <time>2019-05-04T22:03:49Z</time>
      </trkpt>
      <trkpt lat="46.5811" lon="6.28855">
        <ele>1600</ele>
        <time>2019-05-04T22:03:52Z</time>
      </trkpt>
      <trkpt lat="46.58107" lon="6.2885">
        <ele>1600</ele>
        <time>2019-05-04T22:03:55Z</time>
      </trkpt>
      <trkpt lat="46.58102" lon="6.28843">
        <ele>1599</ele>
        <time>2019-05-04T22:04:01Z</time>
      </trkpt>
      <trkpt lat="46.58095" lon="6.28839">
        <ele>1599</ele>
        <time>2019-05-04T22:04:06Z</time>
      </trkpt>
      <trkpt lat="46.5809" lon="6.28831">
        <ele>1598</ele>
        <time>2019-05-04T22:04:12Z</time>
      </trkpt>
      <trkpt lat="46.58074" lon="6.28819">
        <ele>1597</ele>
        <time>2019-05-04T22:04:25Z</time>
      </trkpt>
      <trkpt lat="46.58071" lon="6.28819">
        <ele>1596</ele>
        <time>2019-05-04T22:04:27Z</time>
      </trkpt>
      <trkpt lat="46.58056" lon="6.28804">
        <ele>1594</ele>
        <time>2019-05-04T22:04:40Z</time>
      </trkpt>
      <trkpt lat="46.58051" lon="6.28798">
        <ele>1594</ele>
        <time>2019-05-04T22:04:44Z</time>
      </trkpt>
      <trkpt lat="46.58046" lon="6.28789">
        <ele>1593</ele>
        <time>2019-05-04T22:04:51Z</time>
      </trkpt>
      <trkpt lat="46.58031" lon="6.28774">
        <ele>1591</ele>
        <time>2019-05-04T22:05:03Z</time>
      </trkpt>
      <trkpt lat="46.5803" lon="6.28771">
        <ele>1590</ele>
        <time>2019-05-04T22:05:05Z</time>
      </trkpt>
      <trkpt lat="46.58029" lon="6.28769">
        <ele>1590</ele>
        <time>2019-05-04T22:05:07Z</time>
      </trkpt>
      <trkpt lat="46.58026" lon="6.28766">
        <ele>1590</ele>
        <time>2019-05-04T22:05:09Z</time>
      </trkpt>
      <trkpt lat="46.58015" lon="6.28755">
        <ele>1587</ele>
        <time>2019-05-04T22:05:19Z</time>
      </trkpt>
      <trkpt lat="46.58012" lon="6.2875">
        <ele>1586</ele>
        <time>2019-05-04T22:05:22Z</time>
      </trkpt>
      <trkpt lat="46.58009" lon="6.28746">
        <ele>1586</ele>
        <time>2019-05-04T22:05:25Z</time>
      </trkpt>
      <trkpt lat="46.58005" lon="6.28741">
        <ele>1585</ele>
        <time>2019-05-04T22:05:29Z</time>
      </trkpt>
      <trkpt lat="46.58002" lon="6.28737">
        <ele>1584</ele>
        <time>2019-05-04T22:05:32Z</time>
      </trkpt>
      <trkpt lat="46.57999" lon="6.28732">
        <ele>1583</ele>
        <time>2019-05-04T22:05:36Z</time>
      </trkpt>
      <trkpt lat="46.57996" lon="6.28727">
        <ele>1582</ele>
        <time>2019-05-04T22:05:39Z</time>
      </trkpt>
      <trkpt lat="46.57995" lon="6.28721">
        <ele>1582</ele>
        <time>2019-05-04T22:05:42Z</time>
      </trkpt>
      <trkpt lat="46.57993" lon="6.28718">
        <ele>1581</ele>
        <time>2019-05-04T22:05:44Z</time>
      </trkpt>
      <trkpt lat="46.57994" lon="6.28718">
        <ele>1581</ele>
        <time>2019-05-04T22:05:44Z</time>
      </trkpt>
      <trkpt lat="46.57997" lon="6.28719">
        <ele>1582</ele>
        <time>2019-05-04T22:05:47Z</time>
      </trkpt>
      <trkpt lat="46.57994" lon="6.28714">
        <ele>1581</ele>
        <time>2019-05-04T22:05:50Z</time>
      </trkpt>
      <trkpt lat="46.5799" lon="6.28706">
        <ele>1580</ele>
        <time>2019-05-04T22:05:55Z</time>
      </trkpt>
      <trkpt lat="46.57988" lon="6.28703">
        <ele>1579</ele>
        <time>2019-05-04T22:05:57Z</time>
      </trkpt>
      <trkpt lat="46.57979" lon="6.28694">
        <ele>1577</ele>
        <time>2019-05-04T22:06:05Z</time>
      </trkpt>
      <trkpt lat="46.57963" lon="6.28676">
        <ele>1574</ele>
        <time>2019-05-04T22:06:19Z</time>
      </trkpt>
      <trkpt lat="46.57959" lon="6.28671">
        <ele>1573</ele>
        <time>2019-05-04T22:06:24Z</time>
      </trkpt>
      <trkpt lat="46.57953" lon="6.28666">
        <ele>1572</ele>
        <time>2019-05-04T22:06:29Z</time>
      </trkpt>
      <trkpt lat="46.57948" lon="6.28661">
        <ele>1571</ele>
        <time>2019-05-04T22:06:33Z</time>
      </trkpt>
      <trkpt lat="46.5794" lon="6.28654">
        <ele>1570</ele>
        <time>2019-05-04T22:06:40Z</time>
      </trkpt>
      <trkpt lat="46.57935" lon="6.28648">
        <ele>1569</ele>
        <time>2019-05-04T22:06:44Z</time>
      </trkpt>
      <trkpt lat="46.57931" lon="6.28643">
        <ele>1569</ele>
        <time>2019-05-04T22:06:48Z</time>
      </trkpt>
      <trkpt lat="46.57928" lon="6.28637">
        <ele>1569</ele>
        <time>2019-05-04T22:06:52Z</time>
      </trkpt>
      <trkpt lat="46.57924" lon="6.28629">
        <ele>1568</ele>
        <time>2019-05-04T22:06:57Z</time>
      </trkpt>
      <trkpt lat="46.57921" lon="6.28621">
        <ele>1568</ele>
        <time>2019-05-04T22:07:02Z</time>
      </trkpt>
      <trkpt lat="46.57919" lon="6.28613">
        <ele>1568</ele>
        <time>2019-05-04T22:07:06Z</time>
      </trkpt>
      <trkpt lat="46.57914" lon="6.28587">
        <ele>1568</ele>
        <time>2019-05-04T22:07:19Z</time>
      </trkpt>
      <trkpt lat="46.5791" lon="6.28558">
        <ele>1568</ele>
        <time>2019-05-04T22:07:34Z</time>
      </trkpt>
      <trkpt lat="46.5791" lon="6.28554">
        <ele>1568</ele>
        <time>2019-05-04T22:07:36Z</time>
      </trkpt>
      <trkpt lat="46.57909" lon="6.28549">
        <ele>1568</ele>
        <time>2019-05-04T22:07:39Z</time>
      </trkpt>
      <trkpt lat="46.57909" lon="6.28546">
        <ele>1568</ele>
        <time>2019-05-04T22:07:40Z</time>
      </trkpt>
      <trkpt lat="46.57915" lon="6.28518">
        <ele>1568</ele>
        <time>2019-05-04T22:07:55Z</time>
      </trkpt>
      <trkpt lat="46.57918" lon="6.28508">
        <ele>1568</ele>
        <time>2019-05-04T22:08:00Z</time>
      </trkpt>
      <trkpt lat="46.57924" lon="6.28483">
        <ele>1568</ele>
        <time>2019-05-04T22:08:13Z</time>
      </trkpt>
      <trkpt lat="46.57926" lon="6.28473">
        <ele>1567</ele>
        <time>2019-05-04T22:08:19Z</time>
      </trkpt>
      <trkpt lat="46.57931" lon="6.28449">
        <ele>1567</ele>
        <time>2019-05-04T22:08:31Z</time>
      </trkpt>
      <trkpt lat="46.57934" lon="6.28442">
        <ele>1566</ele>
        <time>2019-05-04T22:08:35Z</time>
      </trkpt>
      <trkpt lat="46.57939" lon="6.2843">
        <ele>1565</ele>
        <time>2019-05-04T22:08:42Z</time>
      </trkpt>
      <trkpt lat="46.57943" lon="6.28419">
        <ele>1564</ele>
        <time>2019-05-04T22:08:48Z</time>
      </trkpt>
      <trkpt lat="46.57949" lon="6.28407">
        <ele>1563</ele>
        <time>2019-05-04T22:08:56Z</time>
      </trkpt>
      <trkpt lat="46.57961" lon="6.28397">
        <ele>1562</ele>
        <time>2019-05-04T22:09:06Z</time>
      </trkpt>
      <trkpt lat="46.57966" lon="6.28392">
        <ele>1561</ele>
        <time>2019-05-04T22:09:11Z</time>
      </trkpt>
      <trkpt lat="46.57974" lon="6.28386">
        <ele>1560</ele>
        <time>2019-05-04T22:09:17Z</time>
      </trkpt>
      <trkpt lat="46.57986" lon="6.28377">
        <ele>1559</ele>
        <time>2019-05-04T22:09:27Z</time>
      </trkpt>
      <trkpt lat="46.57992" lon="6.28369">
        <ele>1558</ele>
        <time>2019-05-04T22:09:33Z</time>
      </trkpt>
      <trkpt lat="46.57995" lon="6.28364">
        <ele>1557</ele>
        <time>2019-05-04T22:09:36Z</time>
      </trkpt>
      <trkpt lat="46.58006" lon="6.28342">
        <ele>1553</ele>
        <time>2019-05-04T22:09:50Z</time>
      </trkpt>
      <trkpt lat="46.58014" lon="6.28331">
        <ele>1551</ele>
        <time>2019-05-04T22:09:58Z</time>
      </trkpt>
      <trkpt lat="46.58019" lon="6.28322">
        <ele>1549</ele>
        <time>2019-05-04T22:10:04Z</time>
      </trkpt>
      <trkpt lat="46.58024" lon="6.28313">
        <ele>1547</ele>
        <time>2019-05-04T22:10:10Z</time>
      </trkpt>
      <trkpt lat="46.58027" lon="6.28307">
        <ele>1546</ele>
        <time>2019-05-04T22:10:13Z</time>
      </trkpt>
      <trkpt lat="46.58032" lon="6.28296">
        <ele>1545</ele>
        <time>2019-05-04T22:10:20Z</time>
      </trkpt>
      <trkpt lat="46.58036" lon="6.28275">
        <ele>1542</ele>
        <time>2019-05-04T22:10:31Z</time>
      </trkpt>
      <trkpt lat="46.58037" lon="6.28267">
        <ele>1541</ele>
        <time>2019-05-04T22:10:35Z</time>
      </trkpt>
      <trkpt lat="46.58041" lon="6.28256">
        <ele>1540</ele>
        <time>2019-05-04T22:10:41Z</time>
      </trkpt>
      <trkpt lat="46.58048" lon="6.28228">
        <ele>1539</ele>
        <time>2019-05-04T22:10:56Z</time>
      </trkpt>
      <trkpt lat="46.58054" lon="6.28208">
        <ele>1538</ele>
        <time>2019-05-04T22:11:07Z</time>
      </trkpt>
      <trkpt lat="46.5805" lon="6.28185">
        <ele>1536</ele>
        <time>2019-05-04T22:11:18Z</time>
      </trkpt>
      <trkpt lat="46.58043" lon="6.28182">
        <ele>1535</ele>
        <time>2019-05-04T22:11:24Z</time>
      </trkpt>
      <trkpt lat="46.58035" lon="6.28183">
        <ele>1534</ele>
        <time>2019-05-04T22:11:29Z</time>
      </trkpt>
      <trkpt lat="46.58025" lon="6.28191">
        <ele>1533</ele>
        <time>2019-05-04T22:11:38Z</time>
      </trkpt>
      <trkpt lat="46.58013" lon="6.28202">
        <ele>1535</ele>
        <time>2019-05-04T22:11:49Z</time>
      </trkpt>
      <trkpt lat="46.58005" lon="6.28209">
        <ele>1536</ele>
        <time>2019-05-04T22:11:55Z</time>
      </trkpt>
      <trkpt lat="46.57998" lon="6.28214">
        <ele>1537</ele>
        <time>2019-05-04T22:12:01Z</time>
      </trkpt>
      <trkpt lat="46.57983" lon="6.28216">
        <ele>1538</ele>
        <time>2019-05-04T22:12:12Z</time>
      </trkpt>
      <trkpt lat="46.57977" lon="6.28211">
        <ele>1537</ele>
        <time>2019-05-04T22:12:17Z</time>
      </trkpt>
      <trkpt lat="46.57973" lon="6.28201">
        <ele>1537</ele>
        <time>2019-05-04T22:12:23Z</time>
      </trkpt>
      <trkpt lat="46.57969" lon="6.2819">
        <ele>1536</ele>
        <time>2019-05-04T22:12:29Z</time>
      </trkpt>
      <trkpt lat="46.57963" lon="6.28173">
        <ele>1535</ele>
        <time>2019-05-04T22:12:39Z</time>
      </trkpt>
      <trkpt lat="46.57954" lon="6.28147">
        <ele>1532</ele>
        <time>2019-05-04T22:12:53Z</time>
      </trkpt>
      <trkpt lat="46.57949" lon="6.2813">
        <ele>1531</ele>
        <time>2019-05-04T22:13:02Z</time>
      </trkpt>
      <trkpt lat="46.57948" lon="6.28124">
        <ele>1530</ele>
        <time>2019-05-04T22:13:06Z</time>
      </trkpt>
      <trkpt lat="46.57947" lon="6.28113">
        <ele>1529</ele>
        <time>2019-05-04T22:13:11Z</time>
      </trkpt>
      <trkpt lat="46.57944" lon="6.28086">
        <ele>1526</ele>
        <time>2019-05-04T22:13:24Z</time>
      </trkpt>
      <trkpt lat="46.57944" lon="6.28077">
        <ele>1526</ele>
        <time>2019-05-04T22:13:29Z</time>
      </trkpt>
      <trkpt lat="46.57938" lon="6.28069">
        <ele>1526</ele>
        <time>2019-05-04T22:13:35Z</time>
      </trkpt>
      <trkpt lat="46.57932" lon="6.28061">
        <ele>1526</ele>
        <time>2019-05-04T22:13:41Z</time>
      </trkpt>
      <trkpt lat="46.57929" lon="6.28056">
        <ele>1526</ele>
        <time>2019-05-04T22:13:45Z</time>
      </trkpt>
      <trkpt lat="46.57922" lon="6.28047">
        <ele>1525</ele>
        <time>2019-05-04T22:13:51Z</time>
      </trkpt>
      <trkpt lat="46.57907" lon="6.28034">
        <ele>1525</ele>
        <time>2019-05-04T22:14:04Z</time>
      </trkpt>
      <trkpt lat="46.57899" lon="6.28028">
        <ele>1525</ele>
        <time>2019-05-04T22:14:10Z</time>
      </trkpt>
      <trkpt lat="46.579" lon="6.28024">
        <ele>1524</ele>
        <time>2019-05-04T22:14:13Z</time>
      </trkpt>
      <trkpt lat="46.57883" lon="6.28008">
        <ele>1523</ele>
        <time>2019-05-04T22:14:27Z</time>
      </trkpt>
      <trkpt lat="46.57875" lon="6.28">
        <ele>1522</ele>
        <time>2019-05-04T22:14:34Z</time>
      </trkpt>
      <trkpt lat="46.57861" lon="6.27981">
        <ele>1520</ele>
        <time>2019-05-04T22:14:48Z</time>
      </trkpt>
      <trkpt lat="46.57851" lon="6.27963">
        <ele>1518</ele>
        <time>2019-05-04T22:15:00Z</time>
      </trkpt>
      <trkpt lat="46.57845" lon="6.27953">
        <ele>1517</ele>
        <time>2019-05-04T22:15:06Z</time>
      </trkpt>
      <trkpt lat="46.57839" lon="6.27946">
        <ele>1517</ele>
        <time>2019-05-04T22:15:12Z</time>
      </trkpt>
      <trkpt lat="46.57823" lon="6.2793">
        <ele>1516</ele>
        <time>2019-05-04T22:15:26Z</time>
      </trkpt>
      <trkpt lat="46.57819" lon="6.27924">
        <ele>1516</ele>
        <time>2019-05-04T22:15:30Z</time>
      </trkpt>
      <trkpt lat="46.57815" lon="6.2792">
        <ele>1516</ele>
        <time>2019-05-04T22:15:34Z</time>
      </trkpt>
      <trkpt lat="46.57804" lon="6.27911">
        <ele>1516</ele>
        <time>2019-05-04T22:15:43Z</time>
      </trkpt>
      <trkpt lat="46.57791" lon="6.27899">
        <ele>1516</ele>
        <time>2019-05-04T22:15:54Z</time>
      </trkpt>
      <trkpt lat="46.57781" lon="6.2789">
        <ele>1515</ele>
        <time>2019-05-04T22:16:02Z</time>
      </trkpt>
      <trkpt lat="46.57772" lon="6.27881">
        <ele>1516</ele>
        <time>2019-05-04T22:16:11Z</time>
      </trkpt>
      <trkpt lat="46.57763" lon="6.27869">
        <ele>1517</ele>
        <time>2019-05-04T22:16:19Z</time>
      </trkpt>
      <trkpt lat="46.57756" lon="6.27863">
        <ele>1518</ele>
        <time>2019-05-04T22:16:25Z</time>
      </trkpt>
      <trkpt lat="46.57744" lon="6.27848">
        <ele>1520</ele>
        <time>2019-05-04T22:16:37Z</time>
      </trkpt>
      <trkpt lat="46.57735" lon="6.27841">
        <ele>1522</ele>
        <time>2019-05-04T22:16:44Z</time>
      </trkpt>
      <trkpt lat="46.57731" lon="6.27837">
        <ele>1523</ele>
        <time>2019-05-04T22:16:48Z</time>
      </trkpt>
      <trkpt lat="46.57729" lon="6.27831">
        <ele>1523</ele>
        <time>2019-05-04T22:16:51Z</time>
      </trkpt>
      <trkpt lat="46.57729" lon="6.27829">
        <ele>1522</ele>
        <time>2019-05-04T22:16:52Z</time>
      </trkpt>
      <trkpt lat="46.57729" lon="6.27822">
        <ele>1521</ele>
        <time>2019-05-04T22:16:56Z</time>
      </trkpt>
      <trkpt lat="46.57725" lon="6.27817">
        <ele>1522</ele>
        <time>2019-05-04T22:17:00Z</time>
      </trkpt>
      <trkpt lat="46.57723" lon="6.27815">
        <ele>1522</ele>
        <time>2019-05-04T22:17:02Z</time>
      </trkpt>
      <trkpt lat="46.57721" lon="6.27814">
        <ele>1523</ele>
        <time>2019-05-04T22:17:03Z</time>
      </trkpt>
      <trkpt lat="46.57718" lon="6.27813">
        <ele>1523</ele>
        <time>2019-05-04T22:17:05Z</time>
      </trkpt>
      <trkpt lat="46.57714" lon="6.27805">
        <ele>1523</ele>
        <time>2019-05-04T22:17:10Z</time>
      </trkpt>
      <trkpt lat="46.57713" lon="6.27805">
        <ele>1523</ele>
        <time>2019-05-04T22:17:11Z</time>
      </trkpt>
      <trkpt lat="46.57713" lon="6.27805">
        <ele>1523</ele>
        <time>2019-05-04T22:17:11Z</time>
      </trkpt>
      <trkpt lat="46.57711" lon="6.27805">
        <ele>1524</ele>
        <time>2019-05-04T22:17:13Z</time>
      </trkpt>
      <trkpt lat="46.57707" lon="6.27802">
        <ele>1525</ele>
        <time>2019-05-04T22:17:15Z</time>
      </trkpt>
      <trkpt lat="46.57704" lon="6.278">
        <ele>1525</ele>
        <time>2019-05-04T22:17:18Z</time>
      </trkpt>
      <trkpt lat="46.57703" lon="6.27799">
        <ele>1526</ele>
        <time>2019-05-04T22:17:19Z</time>
      </trkpt>
      <trkpt lat="46.57696" lon="6.27795">
        <ele>1527</ele>
        <time>2019-05-04T22:17:25Z</time>
      </trkpt>
      <trkpt lat="46.57692" lon="6.27791">
        <ele>1527</ele>
        <time>2019-05-04T22:17:28Z</time>
      </trkpt>
      <trkpt lat="46.57692" lon="6.27789">
        <ele>1527</ele>
        <time>2019-05-04T22:17:29Z</time>
      </trkpt>
      <trkpt lat="46.57689" lon="6.27784">
        <ele>1527</ele>
        <time>2019-05-04T22:17:32Z</time>
      </trkpt>
      <trkpt lat="46.57687" lon="6.27782">
        <ele>1527</ele>
        <time>2019-05-04T22:17:34Z</time>
      </trkpt>
      <trkpt lat="46.57685" lon="6.27781">
        <ele>1527</ele>
        <time>2019-05-04T22:17:36Z</time>
      </trkpt>
      <trkpt lat="46.57683" lon="6.27778">
        <ele>1527</ele>
        <time>2019-05-04T22:17:38Z</time>
      </trkpt>
      <trkpt lat="46.57682" lon="6.27777">
        <ele>1527</ele>
        <time>2019-05-04T22:17:39Z</time>
      </trkpt>
      <trkpt lat="46.57682" lon="6.27777">
        <ele>1527</ele>
        <time>2019-05-04T22:17:39Z</time>
      </trkpt>
      <trkpt lat="46.57674" lon="6.27766">
        <ele>1527</ele>
        <time>2019-05-04T22:17:47Z</time>
      </trkpt>
      <trkpt lat="46.57673" lon="6.27764">
        <ele>1527</ele>
        <time>2019-05-04T22:17:48Z</time>
      </trkpt>
      <trkpt lat="46.57667" lon="6.2775">
        <ele>1526</ele>
        <time>2019-05-04T22:17:56Z</time>
      </trkpt>
      <trkpt lat="46.57663" lon="6.27747">
        <ele>1526</ele>
        <time>2019-05-04T22:18:00Z</time>
      </trkpt>
      <trkpt lat="46.57658" lon="6.27743">
        <ele>1527</ele>
        <time>2019-05-04T22:18:03Z</time>
      </trkpt>
      <trkpt lat="46.57656" lon="6.27743">
        <ele>1527</ele>
        <time>2019-05-04T22:18:05Z</time>
      </trkpt>
      <trkpt lat="46.57655" lon="6.27741">
        <ele>1527</ele>
        <time>2019-05-04T22:18:07Z</time>
      </trkpt>
      <trkpt lat="46.57653" lon="6.27738">
        <ele>1527</ele>
        <time>2019-05-04T22:18:08Z</time>
      </trkpt>
      <trkpt lat="46.57651" lon="6.27735">
        <ele>1527</ele>
        <time>2019-05-04T22:18:10Z</time>
      </trkpt>
      <trkpt lat="46.57651" lon="6.27735">
        <ele>1527</ele>
        <time>2019-05-04T22:18:11Z</time>
      </trkpt>
      <trkpt lat="46.57647" lon="6.27735">
        <ele>1528</ele>
        <time>2019-05-04T22:18:14Z</time>
      </trkpt>
      <trkpt lat="46.57647" lon="6.27734">
        <ele>1528</ele>
        <time>2019-05-04T22:18:14Z</time>
      </trkpt>
      <trkpt lat="46.57645" lon="6.27734">
        <ele>1529</ele>
        <time>2019-05-04T22:18:16Z</time>
      </trkpt>
      <trkpt lat="46.57639" lon="6.27734">
        <ele>1530</ele>
        <time>2019-05-04T22:18:20Z</time>
      </trkpt>
      <trkpt lat="46.57638" lon="6.27732">
        <ele>1530</ele>
        <time>2019-05-04T22:18:22Z</time>
      </trkpt>
      <trkpt lat="46.57637" lon="6.27733">
        <ele>1530</ele>
        <time>2019-05-04T22:18:22Z</time>
      </trkpt>
      <trkpt lat="46.57635" lon="6.27733">
        <ele>1531</ele>
        <time>2019-05-04T22:18:24Z</time>
      </trkpt>
      <trkpt lat="46.57634" lon="6.27733">
        <ele>1531</ele>
        <time>2019-05-04T22:18:25Z</time>
      </trkpt>
      <trkpt lat="46.57632" lon="6.27733">
        <ele>1532</ele>
        <time>2019-05-04T22:18:27Z</time>
      </trkpt>
      <trkpt lat="46.57626" lon="6.2773">
        <ele>1533</ele>
        <time>2019-05-04T22:18:31Z</time>
      </trkpt>
      <trkpt lat="46.57625" lon="6.27728">
        <ele>1533</ele>
        <time>2019-05-04T22:18:33Z</time>
      </trkpt>
      <trkpt lat="46.57624" lon="6.27726">
        <ele>1533</ele>
        <time>2019-05-04T22:18:34Z</time>
      </trkpt>
      <trkpt lat="46.57623" lon="6.27724">
        <ele>1533</ele>
        <time>2019-05-04T22:18:35Z</time>
      </trkpt>
      <trkpt lat="46.5762" lon="6.27723">
        <ele>1533</ele>
        <time>2019-05-04T22:18:37Z</time>
      </trkpt>
      <trkpt lat="46.57619" lon="6.27723">
        <ele>1533</ele>
        <time>2019-05-04T22:18:38Z</time>
      </trkpt>
      <trkpt lat="46.57617" lon="6.2772">
        <ele>1534</ele>
        <time>2019-05-04T22:18:40Z</time>
      </trkpt>
      <trkpt lat="46.57616" lon="6.27719">
        <ele>1534</ele>
        <time>2019-05-04T22:18:41Z</time>
      </trkpt>
      <trkpt lat="46.57615" lon="6.27717">
        <ele>1533</ele>
        <time>2019-05-04T22:18:42Z</time>
      </trkpt>
      <trkpt lat="46.57614" lon="6.27716">
        <ele>1533</ele>
        <time>2019-05-04T22:18:43Z</time>
      </trkpt>
      <trkpt lat="46.57615" lon="6.27714">
        <ele>1533</ele>
        <time>2019-05-04T22:18:44Z</time>
      </trkpt>
      <trkpt lat="46.57613" lon="6.27712">
        <ele>1533</ele>
        <time>2019-05-04T22:18:46Z</time>
      </trkpt>
      <trkpt lat="46.57614" lon="6.27711">
        <ele>1533</ele>
        <time>2019-05-04T22:18:47Z</time>
      </trkpt>
      <trkpt lat="46.57611" lon="6.27709">
        <ele>1533</ele>
        <time>2019-05-04T22:18:49Z</time>
      </trkpt>
      <trkpt lat="46.57607" lon="6.27709">
        <ele>1534</ele>
        <time>2019-05-04T22:18:52Z</time>
      </trkpt>
      <trkpt lat="46.57604" lon="6.27708">
        <ele>1534</ele>
        <time>2019-05-04T22:18:54Z</time>
      </trkpt>
      <trkpt lat="46.57601" lon="6.27707">
        <ele>1534</ele>
        <time>2019-05-04T22:18:57Z</time>
      </trkpt>
      <trkpt lat="46.57595" lon="6.27701">
        <ele>1534</ele>
        <time>2019-05-04T22:19:02Z</time>
      </trkpt>
      <trkpt lat="46.57593" lon="6.27701">
        <ele>1534</ele>
        <time>2019-05-04T22:19:03Z</time>
      </trkpt>
      <trkpt lat="46.57588" lon="6.27701">
        <ele>1535</ele>
        <time>2019-05-04T22:19:07Z</time>
      </trkpt>
      <trkpt lat="46.57587" lon="6.277">
        <ele>1535</ele>
        <time>2019-05-04T22:19:07Z</time>
      </trkpt>
      <trkpt lat="46.57583" lon="6.27697">
        <ele>1536</ele>
        <time>2019-05-04T22:19:10Z</time>
      </trkpt>
      <trkpt lat="46.57582" lon="6.27697">
        <ele>1536</ele>
        <time>2019-05-04T22:19:11Z</time>
      </trkpt>
      <trkpt lat="46.57582" lon="6.27696">
        <ele>1535</ele>
        <time>2019-05-04T22:19:12Z</time>
      </trkpt>
      <trkpt lat="46.57576" lon="6.27693">
        <ele>1536</ele>
        <time>2019-05-04T22:19:17Z</time>
      </trkpt>
      <trkpt lat="46.57572" lon="6.27692">
        <ele>1537</ele>
        <time>2019-05-04T22:19:20Z</time>
      </trkpt>
      <trkpt lat="46.57566" lon="6.27684">
        <ele>1536</ele>
        <time>2019-05-04T22:19:25Z</time>
      </trkpt>
      <trkpt lat="46.57562" lon="6.27683">
        <ele>1537</ele>
        <time>2019-05-04T22:19:29Z</time>
      </trkpt>
      <trkpt lat="46.57558" lon="6.27682">
        <ele>1537</ele>
        <time>2019-05-04T22:19:31Z</time>
      </trkpt>
      <trkpt lat="46.57557" lon="6.27681">
        <ele>1537</ele>
        <time>2019-05-04T22:19:33Z</time>
      </trkpt>
      <trkpt lat="46.57556" lon="6.27681">
        <ele>1537</ele>
        <time>2019-05-04T22:19:33Z</time>
      </trkpt>
      <trkpt lat="46.57555" lon="6.2768">
        <ele>1537</ele>
        <time>2019-05-04T22:19:34Z</time>
      </trkpt>
      <trkpt lat="46.57558" lon="6.27685">
        <ele>1538</ele>
        <time>2019-05-04T22:19:37Z</time>
      </trkpt>
      <trkpt lat="46.57557" lon="6.27688">
        <ele>1538</ele>
        <time>2019-05-04T22:19:39Z</time>
      </trkpt>
      <trkpt lat="46.57558" lon="6.27688">
        <ele>1538</ele>
        <time>2019-05-04T22:19:39Z</time>
      </trkpt>
      <trkpt lat="46.57559" lon="6.27689">
        <ele>1538</ele>
        <time>2019-05-04T22:19:40Z</time>
      </trkpt>
      <trkpt lat="46.57556" lon="6.27688">
        <ele>1539</ele>
        <time>2019-05-04T22:19:42Z</time>
      </trkpt>
      <trkpt lat="46.57549" lon="6.27683">
        <ele>1539</ele>
        <time>2019-05-04T22:19:48Z</time>
      </trkpt>
      <trkpt lat="46.57546" lon="6.27682">
        <ele>1539</ele>
        <time>2019-05-04T22:19:50Z</time>
      </trkpt>
      <trkpt lat="46.57544" lon="6.2768">
        <ele>1539</ele>
        <time>2019-05-04T22:19:51Z</time>
      </trkpt>
      <trkpt lat="46.5753" lon="6.27673">
        <ele>1541</ele>
        <time>2019-05-04T22:20:02Z</time>
      </trkpt>
      <trkpt lat="46.57525" lon="6.27667">
        <ele>1541</ele>
        <time>2019-05-04T22:20:07Z</time>
      </trkpt>
      <trkpt lat="46.57522" lon="6.27666">
        <ele>1541</ele>
        <time>2019-05-04T22:20:09Z</time>
      </trkpt>
      <trkpt lat="46.57519" lon="6.27673">
        <ele>1542</ele>
        <time>2019-05-04T22:20:13Z</time>
      </trkpt>
      <trkpt lat="46.57519" lon="6.27675">
        <ele>1542</ele>
        <time>2019-05-04T22:20:14Z</time>
      </trkpt>
      <trkpt lat="46.57519" lon="6.27677">
        <ele>1543</ele>
        <time>2019-05-04T22:20:16Z</time>
      </trkpt>
      <trkpt lat="46.57518" lon="6.27679">
        <ele>1543</ele>
        <time>2019-05-04T22:20:17Z</time>
      </trkpt>
      <trkpt lat="46.57517" lon="6.2768">
        <ele>1543</ele>
        <time>2019-05-04T22:20:17Z</time>
      </trkpt>
      <trkpt lat="46.57516" lon="6.27681">
        <ele>1544</ele>
        <time>2019-05-04T22:20:18Z</time>
      </trkpt>
      <trkpt lat="46.57515" lon="6.27683">
        <ele>1544</ele>
        <time>2019-05-04T22:20:20Z</time>
      </trkpt>
      <trkpt lat="46.57514" lon="6.27687">
        <ele>1545</ele>
        <time>2019-05-04T22:20:22Z</time>
      </trkpt>
      <trkpt lat="46.57512" lon="6.27688">
        <ele>1545</ele>
        <time>2019-05-04T22:20:23Z</time>
      </trkpt>
      <trkpt lat="46.57512" lon="6.27685">
        <ele>1545</ele>
        <time>2019-05-04T22:20:25Z</time>
      </trkpt>
      <trkpt lat="46.57509" lon="6.27684">
        <ele>1545</ele>
        <time>2019-05-04T22:20:26Z</time>
      </trkpt>
      <trkpt lat="46.57507" lon="6.27683">
        <ele>1545</ele>
        <time>2019-05-04T22:20:28Z</time>
      </trkpt>
      <trkpt lat="46.57505" lon="6.27682">
        <ele>1545</ele>
        <time>2019-05-04T22:20:30Z</time>
      </trkpt>
      <trkpt lat="46.57502" lon="6.2768">
        <ele>1545</ele>
        <time>2019-05-04T22:20:32Z</time>
      </trkpt>
      <trkpt lat="46.57502" lon="6.27679">
        <ele>1545</ele>
        <time>2019-05-04T22:20:32Z</time>
      </trkpt>
      <trkpt lat="46.5751" lon="6.2767">
        <ele>1543</ele>
        <time>2019-05-04T22:20:40Z</time>
      </trkpt>
      <trkpt lat="46.57514" lon="6.27669">
        <ele>1542</ele>
        <time>2019-05-04T22:20:43Z</time>
      </trkpt>
      <trkpt lat="46.57515" lon="6.27668">
        <ele>1542</ele>
        <time>2019-05-04T22:20:44Z</time>
      </trkpt>
      <trkpt lat="46.57516" lon="6.27668">
        <ele>1542</ele>
        <time>2019-05-04T22:20:45Z</time>
      </trkpt>
      <trkpt lat="46.5752" lon="6.27676">
        <ele>1543</ele>
        <time>2019-05-04T22:20:50Z</time>
      </trkpt>
      <trkpt lat="46.57516" lon="6.27679">
        <ele>1543</ele>
        <time>2019-05-04T22:20:52Z</time>
      </trkpt>
      <trkpt lat="46.57511" lon="6.27681">
        <ele>1544</ele>
        <time>2019-05-04T22:20:57Z</time>
      </trkpt>
      <trkpt lat="46.57499" lon="6.27677">
        <ele>1544</ele>
        <time>2019-05-04T22:21:05Z</time>
      </trkpt>
      <trkpt lat="46.57483" lon="6.27661">
        <ele>1544</ele>
        <time>2019-05-04T22:21:19Z</time>
      </trkpt>
      <trkpt lat="46.57479" lon="6.27657">
        <ele>1544</ele>
        <time>2019-05-04T22:21:23Z</time>
      </trkpt>
      <trkpt lat="46.57462" lon="6.27641">
        <ele>1544</ele>
        <time>2019-05-04T22:21:38Z</time>
      </trkpt>
      <trkpt lat="46.57457" lon="6.27634">
        <ele>1544</ele>
        <time>2019-05-04T22:21:43Z</time>
      </trkpt>
      <trkpt lat="46.57445" lon="6.27624">
        <ele>1545</ele>
        <time>2019-05-04T22:21:52Z</time>
      </trkpt>
      <trkpt lat="46.57436" lon="6.27616">
        <ele>1546</ele>
        <time>2019-05-04T22:22:00Z</time>
      </trkpt>
      <trkpt lat="46.57435" lon="6.27614">
        <ele>1546</ele>
        <time>2019-05-04T22:22:01Z</time>
      </trkpt>
      <trkpt lat="46.57434" lon="6.27611">
        <ele>1546</ele>
        <time>2019-05-04T22:22:03Z</time>
      </trkpt>
      <trkpt lat="46.5743" lon="6.2761">
        <ele>1547</ele>
        <time>2019-05-04T22:22:06Z</time>
      </trkpt>
      <trkpt lat="46.57426" lon="6.27605">
        <ele>1547</ele>
        <time>2019-05-04T22:22:10Z</time>
      </trkpt>
      <trkpt lat="46.57425" lon="6.27604">
        <ele>1548</ele>
        <time>2019-05-04T22:22:11Z</time>
      </trkpt>
      <trkpt lat="46.57422" lon="6.27604">
        <ele>1548</ele>
        <time>2019-05-04T22:22:13Z</time>
      </trkpt>
      <trkpt lat="46.57419" lon="6.276">
        <ele>1548</ele>
        <time>2019-05-04T22:22:16Z</time>
      </trkpt>
      <trkpt lat="46.57417" lon="6.27596">
        <ele>1548</ele>
        <time>2019-05-04T22:22:18Z</time>
      </trkpt>
      <trkpt lat="46.57403" lon="6.27582">
        <ele>1549</ele>
        <time>2019-05-04T22:22:30Z</time>
      </trkpt>
      <trkpt lat="46.574" lon="6.27583">
        <ele>1550</ele>
        <time>2019-05-04T22:22:33Z</time>
      </trkpt>
      <trkpt lat="46.574" lon="6.27584">
        <ele>1550</ele>
        <time>2019-05-04T22:22:33Z</time>
      </trkpt>
      <trkpt lat="46.57399" lon="6.27586">
        <ele>1550</ele>
        <time>2019-05-04T22:22:34Z</time>
      </trkpt>
      <trkpt lat="46.57398" lon="6.27587">
        <ele>1551</ele>
        <time>2019-05-04T22:22:35Z</time>
      </trkpt>
      <trkpt lat="46.57397" lon="6.27588">
        <ele>1551</ele>
        <time>2019-05-04T22:22:37Z</time>
      </trkpt>
      <trkpt lat="46.57396" lon="6.27589">
        <ele>1551</ele>
        <time>2019-05-04T22:22:37Z</time>
      </trkpt>
      <trkpt lat="46.57392" lon="6.27592">
        <ele>1553</ele>
        <time>2019-05-04T22:22:41Z</time>
      </trkpt>
      <trkpt lat="46.5739" lon="6.27589">
        <ele>1553</ele>
        <time>2019-05-04T22:22:43Z</time>
      </trkpt>
      <trkpt lat="46.57387" lon="6.27585">
        <ele>1553</ele>
        <time>2019-05-04T22:22:46Z</time>
      </trkpt>
      <trkpt lat="46.57385" lon="6.27583">
        <ele>1553</ele>
        <time>2019-05-04T22:22:48Z</time>
      </trkpt>
      <trkpt lat="46.57385" lon="6.27583">
        <ele>1553</ele>
        <time>2019-05-04T22:22:48Z</time>
      </trkpt>
      <trkpt lat="46.57384" lon="6.27579">
        <ele>1553</ele>
        <time>2019-05-04T22:22:50Z</time>
      </trkpt>
      <trkpt lat="46.57381" lon="6.27579">
        <ele>1553</ele>
        <time>2019-05-04T22:22:51Z</time>
      </trkpt>
      <trkpt lat="46.57379" lon="6.27576">
        <ele>1553</ele>
        <time>2019-05-04T22:22:53Z</time>
      </trkpt>
      <trkpt lat="46.57379" lon="6.27576">
        <ele>1553</ele>
        <time>2019-05-04T22:22:54Z</time>
      </trkpt>
      <trkpt lat="46.57377" lon="6.27578">
        <ele>1554</ele>
        <time>2019-05-04T22:22:55Z</time>
      </trkpt>
      <trkpt lat="46.57375" lon="6.27578">
        <ele>1554</ele>
        <time>2019-05-04T22:22:57Z</time>
      </trkpt>
      <trkpt lat="46.57374" lon="6.27579">
        <ele>1555</ele>
        <time>2019-05-04T22:22:58Z</time>
      </trkpt>
      <trkpt lat="46.57372" lon="6.2758">
        <ele>1555</ele>
        <time>2019-05-04T22:22:59Z</time>
      </trkpt>
      <trkpt lat="46.57368" lon="6.27573">
        <ele>1555</ele>
        <time>2019-05-04T22:23:04Z</time>
      </trkpt>
      <trkpt lat="46.57365" lon="6.27566">
        <ele>1555</ele>
        <time>2019-05-04T22:23:08Z</time>
      </trkpt>
      <trkpt lat="46.57363" lon="6.27567">
        <ele>1555</ele>
        <time>2019-05-04T22:23:09Z</time>
      </trkpt>
      <trkpt lat="46.57359" lon="6.27563">
        <ele>1556</ele>
        <time>2019-05-04T22:23:12Z</time>
      </trkpt>
      <trkpt lat="46.57357" lon="6.27562">
        <ele>1556</ele>
        <time>2019-05-04T22:23:14Z</time>
      </trkpt>
      <trkpt lat="46.57353" lon="6.2756">
        <ele>1556</ele>
        <time>2019-05-04T22:23:17Z</time>
      </trkpt>
      <trkpt lat="46.57352" lon="6.2756">
        <ele>1556</ele>
        <time>2019-05-04T22:23:18Z</time>
      </trkpt>
      <trkpt lat="46.57352" lon="6.2756">
        <ele>1556</ele>
        <time>2019-05-04T22:23:18Z</time>
      </trkpt>
      <trkpt lat="46.5735" lon="6.27562">
        <ele>1557</ele>
        <time>2019-05-04T22:23:20Z</time>
      </trkpt>
      <trkpt lat="46.57348" lon="6.27564">
        <ele>1557</ele>
        <time>2019-05-04T22:23:22Z</time>
      </trkpt>
      <trkpt lat="46.57347" lon="6.27566">
        <ele>1557</ele>
        <time>2019-05-04T22:23:23Z</time>
      </trkpt>
      <trkpt lat="46.57346" lon="6.27569">
        <ele>1558</ele>
        <time>2019-05-04T22:23:24Z</time>
      </trkpt>
      <trkpt lat="46.57345" lon="6.27572">
        <ele>1558</ele>
        <time>2019-05-04T22:23:26Z</time>
      </trkpt>
      <trkpt lat="46.57341" lon="6.27578">
        <ele>1559</ele>
        <time>2019-05-04T22:23:30Z</time>
      </trkpt>
      <trkpt lat="46.5734" lon="6.2758">
        <ele>1560</ele>
        <time>2019-05-04T22:23:32Z</time>
      </trkpt>
      <trkpt lat="46.57339" lon="6.27583">
        <ele>1560</ele>
        <time>2019-05-04T22:23:34Z</time>
      </trkpt>
      <trkpt lat="46.57338" lon="6.27584">
        <ele>1560</ele>
        <time>2019-05-04T22:23:34Z</time>
      </trkpt>
      <trkpt lat="46.57335" lon="6.27585">
        <ele>1561</ele>
        <time>2019-05-04T22:23:37Z</time>
      </trkpt>
      <trkpt lat="46.57331" lon="6.27586">
        <ele>1561</ele>
        <time>2019-05-04T22:23:39Z</time>
      </trkpt>
      <trkpt lat="46.57326" lon="6.27586">
        <ele>1562</ele>
        <time>2019-05-04T22:23:43Z</time>
      </trkpt>
      <trkpt lat="46.57322" lon="6.27584">
        <ele>1562</ele>
        <time>2019-05-04T22:23:47Z</time>
      </trkpt>
      <trkpt lat="46.5732" lon="6.27582">
        <ele>1562</ele>
        <time>2019-05-04T22:23:48Z</time>
      </trkpt>
      <trkpt lat="46.57316" lon="6.27584">
        <ele>1563</ele>
        <time>2019-05-04T22:23:51Z</time>
      </trkpt>
      <trkpt lat="46.57313" lon="6.27587">
        <ele>1563</ele>
        <time>2019-05-04T22:23:54Z</time>
      </trkpt>
      <trkpt lat="46.573" lon="6.27596">
        <ele>1565</ele>
        <time>2019-05-04T22:24:04Z</time>
      </trkpt>
      <trkpt lat="46.5729" lon="6.27603">
        <ele>1567</ele>
        <time>2019-05-04T22:24:12Z</time>
      </trkpt>
      <trkpt lat="46.57282" lon="6.27605">
        <ele>1568</ele>
        <time>2019-05-04T22:24:19Z</time>
      </trkpt>
      <trkpt lat="46.57263" lon="6.27604">
        <ele>1566</ele>
        <time>2019-05-04T22:24:32Z</time>
      </trkpt>
      <trkpt lat="46.57259" lon="6.27605">
        <ele>1566</ele>
        <time>2019-05-04T22:24:35Z</time>
      </trkpt>
      <trkpt lat="46.57249" lon="6.27612">
        <ele>1564</ele>
        <time>2019-05-04T22:24:43Z</time>
      </trkpt>
      <trkpt lat="46.57246" lon="6.27616">
        <ele>1563</ele>
        <time>2019-05-04T22:24:46Z</time>
      </trkpt>
      <trkpt lat="46.57245" lon="6.27614">
        <ele>1563</ele>
        <time>2019-05-04T22:24:48Z</time>
      </trkpt>
      <trkpt lat="46.57242" lon="6.27606">
        <ele>1563</ele>
        <time>2019-05-04T22:24:52Z</time>
      </trkpt>
      <trkpt lat="46.57238" lon="6.27601">
        <ele>1563</ele>
        <time>2019-05-04T22:24:56Z</time>
      </trkpt>
      <trkpt lat="46.57233" lon="6.27598">
        <ele>1562</ele>
        <time>2019-05-04T22:25:00Z</time>
      </trkpt>
      <trkpt lat="46.57233" lon="6.27598">
        <ele>1562</ele>
        <time>2019-05-04T22:25:00Z</time>
      </trkpt>
      <trkpt lat="46.57227" lon="6.27597">
        <ele>1561</ele>
        <time>2019-05-04T22:25:04Z</time>
      </trkpt>
      <trkpt lat="46.57211" lon="6.27575">
        <ele>1558</ele>
        <time>2019-05-04T22:25:20Z</time>
      </trkpt>
      <trkpt lat="46.57208" lon="6.27575">
        <ele>1558</ele>
        <time>2019-05-04T22:25:22Z</time>
      </trkpt>
      <trkpt lat="46.57206" lon="6.27577">
        <ele>1558</ele>
        <time>2019-05-04T22:25:24Z</time>
      </trkpt>
      <trkpt lat="46.57205" lon="6.27578">
        <ele>1558</ele>
        <time>2019-05-04T22:25:25Z</time>
      </trkpt>
      <trkpt lat="46.57203" lon="6.27583">
        <ele>1558</ele>
        <time>2019-05-04T22:25:28Z</time>
      </trkpt>
      <trkpt lat="46.57195" lon="6.2759">
        <ele>1557</ele>
        <time>2019-05-04T22:25:34Z</time>
      </trkpt>
      <trkpt lat="46.57191" lon="6.27591">
        <ele>1556</ele>
        <time>2019-05-04T22:25:38Z</time>
      </trkpt>
      <trkpt lat="46.57187" lon="6.27586">
        <ele>1555</ele>
        <time>2019-05-04T22:25:42Z</time>
      </trkpt>
      <trkpt lat="46.5718" lon="6.2758">
        <ele>1553</ele>
        <time>2019-05-04T22:25:48Z</time>
      </trkpt>
      <trkpt lat="46.57165" lon="6.27569">
        <ele>1548</ele>
        <time>2019-05-04T22:26:00Z</time>
      </trkpt>
      <trkpt lat="46.57158" lon="6.27562">
        <ele>1546</ele>
        <time>2019-05-04T22:26:07Z</time>
      </trkpt>
      <trkpt lat="46.57149" lon="6.27553">
        <ele>1544</ele>
        <time>2019-05-04T22:26:14Z</time>
      </trkpt>
      <trkpt lat="46.57144" lon="6.27544">
        <ele>1543</ele>
        <time>2019-05-04T22:26:20Z</time>
      </trkpt>
      <trkpt lat="46.5714" lon="6.27539">
        <ele>1542</ele>
        <time>2019-05-04T22:26:24Z</time>
      </trkpt>
      <trkpt lat="46.57137" lon="6.27533">
        <ele>1541</ele>
        <time>2019-05-04T22:26:28Z</time>
      </trkpt>
      <trkpt lat="46.57132" lon="6.27527">
        <ele>1540</ele>
        <time>2019-05-04T22:26:32Z</time>
      </trkpt>
      <trkpt lat="46.57128" lon="6.27522">
        <ele>1539</ele>
        <time>2019-05-04T22:26:36Z</time>
      </trkpt>
      <trkpt lat="46.57125" lon="6.27516">
        <ele>1538</ele>
        <time>2019-05-04T22:26:40Z</time>
      </trkpt>
      <trkpt lat="46.57121" lon="6.27509">
        <ele>1537</ele>
        <time>2019-05-04T22:26:45Z</time>
      </trkpt>
      <trkpt lat="46.57117" lon="6.27503">
        <ele>1535</ele>
        <time>2019-05-04T22:26:49Z</time>
      </trkpt>
      <trkpt lat="46.57113" lon="6.27497">
        <ele>1534</ele>
        <time>2019-05-04T22:26:53Z</time>
      </trkpt>
      <trkpt lat="46.57103" lon="6.27487">
        <ele>1530</ele>
        <time>2019-05-04T22:27:02Z</time>
      </trkpt>
      <trkpt lat="46.57098" lon="6.27482">
        <ele>1529</ele>
        <time>2019-05-04T22:27:07Z</time>
      </trkpt>
      <trkpt lat="46.57096" lon="6.27479">
        <ele>1528</ele>
        <time>2019-05-04T22:27:09Z</time>
      </trkpt>
      <trkpt lat="46.57094" lon="6.27476">
        <ele>1527</ele>
        <time>2019-05-04T22:27:11Z</time>
      </trkpt>
      <trkpt lat="46.57093" lon="6.27473">
        <ele>1527</ele>
        <time>2019-05-04T22:27:13Z</time>
      </trkpt>
      <trkpt lat="46.5709" lon="6.27465">
        <ele>1526</ele>
        <time>2019-05-04T22:27:17Z</time>
      </trkpt>
      <trkpt lat="46.57087" lon="6.27457">
        <ele>1524</ele>
        <time>2019-05-04T22:27:22Z</time>
      </trkpt>
      <trkpt lat="46.57084" lon="6.27451">
        <ele>1523</ele>
        <time>2019-05-04T22:27:26Z</time>
      </trkpt>
      <trkpt lat="46.57082" lon="6.27448">
        <ele>1523</ele>
        <time>2019-05-04T22:27:28Z</time>
      </trkpt>
      <trkpt lat="46.57079" lon="6.27443">
        <ele>1522</ele>
        <time>2019-05-04T22:27:32Z</time>
      </trkpt>
      <trkpt lat="46.57076" lon="6.27441">
        <ele>1521</ele>
        <time>2019-05-04T22:27:34Z</time>
      </trkpt>
      <trkpt lat="46.57074" lon="6.27441">
        <ele>1520</ele>
        <time>2019-05-04T22:27:35Z</time>
      </trkpt>
      <trkpt lat="46.57069" lon="6.27439">
        <ele>1519</ele>
        <time>2019-05-04T22:27:39Z</time>
      </trkpt>
      <trkpt lat="46.57064" lon="6.27437">
        <ele>1518</ele>
        <time>2019-05-04T22:27:43Z</time>
      </trkpt>
      <trkpt lat="46.57059" lon="6.27434">
        <ele>1517</ele>
        <time>2019-05-04T22:27:47Z</time>
      </trkpt>
      <trkpt lat="46.57055" lon="6.27431">
        <ele>1516</ele>
        <time>2019-05-04T22:27:50Z</time>
      </trkpt>
      <trkpt lat="46.57051" lon="6.27426">
        <ele>1515</ele>
        <time>2019-05-04T22:27:54Z</time>
      </trkpt>
      <trkpt lat="46.57047" lon="6.27418">
        <ele>1514</ele>
        <time>2019-05-04T22:27:59Z</time>
      </trkpt>
      <trkpt lat="46.57045" lon="6.27412">
        <ele>1513</ele>
        <time>2019-05-04T22:28:02Z</time>
      </trkpt>
      <trkpt lat="46.57045" lon="6.27409">
        <ele>1513</ele>
        <time>2019-05-04T22:28:04Z</time>
      </trkpt>
      <trkpt lat="46.57043" lon="6.27406">
        <ele>1512</ele>
        <time>2019-05-04T22:28:06Z</time>
      </trkpt>
      <trkpt lat="46.57041" lon="6.27401">
        <ele>1512</ele>
        <time>2019-05-04T22:28:09Z</time>
      </trkpt>
      <trkpt lat="46.57036" lon="6.27389">
        <ele>1510</ele>
        <time>2019-05-04T22:28:16Z</time>
      </trkpt>
      <trkpt lat="46.57033" lon="6.27384">
        <ele>1510</ele>
        <time>2019-05-04T22:28:19Z</time>
      </trkpt>
      <trkpt lat="46.5703" lon="6.27376">
        <ele>1509</ele>
        <time>2019-05-04T22:28:24Z</time>
      </trkpt>
      <trkpt lat="46.57027" lon="6.27373">
        <ele>1509</ele>
        <time>2019-05-04T22:28:26Z</time>
      </trkpt>
      <trkpt lat="46.57023" lon="6.2737">
        <ele>1509</ele>
        <time>2019-05-04T22:28:29Z</time>
      </trkpt>
      <trkpt lat="46.57019" lon="6.27366">
        <ele>1509</ele>
        <time>2019-05-04T22:28:33Z</time>
      </trkpt>
      <trkpt lat="46.57015" lon="6.27362">
        <ele>1509</ele>
        <time>2019-05-04T22:28:36Z</time>
      </trkpt>
      <trkpt lat="46.57012" lon="6.27356">
        <ele>1509</ele>
        <time>2019-05-04T22:28:40Z</time>
      </trkpt>
      <trkpt lat="46.57008" lon="6.27352">
        <ele>1509</ele>
        <time>2019-05-04T22:28:44Z</time>
      </trkpt>
      <trkpt lat="46.57003" lon="6.27347">
        <ele>1510</ele>
        <time>2019-05-04T22:28:48Z</time>
      </trkpt>
      <trkpt lat="46.56998" lon="6.27343">
        <ele>1510</ele>
        <time>2019-05-04T22:28:52Z</time>
      </trkpt>
      <trkpt lat="46.56992" lon="6.27339">
        <ele>1510</ele>
        <time>2019-05-04T22:28:57Z</time>
      </trkpt>
      <trkpt lat="46.56986" lon="6.27336">
        <ele>1511</ele>
        <time>2019-05-04T22:29:01Z</time>
      </trkpt>
      <trkpt lat="46.56973" lon="6.27327">
        <ele>1512</ele>
        <time>2019-05-04T22:29:12Z</time>
      </trkpt>
      <trkpt lat="46.56956" lon="6.27319">
        <ele>1514</ele>
        <time>2019-05-04T22:29:25Z</time>
      </trkpt>
      <trkpt lat="46.56954" lon="6.27319">
        <ele>1514</ele>
        <time>2019-05-04T22:29:26Z</time>
      </trkpt>
      <trkpt lat="46.56953" lon="6.27319">
        <ele>1514</ele>
        <time>2019-05-04T22:29:27Z</time>
      </trkpt>
      <trkpt lat="46.56949" lon="6.27319">
        <ele>1514</ele>
        <time>2019-05-04T22:29:30Z</time>
      </trkpt>
      <trkpt lat="46.56946" lon="6.2732">
        <ele>1515</ele>
        <time>2019-05-04T22:29:32Z</time>
      </trkpt>
      <trkpt lat="46.5694" lon="6.27319">
        <ele>1515</ele>
        <time>2019-05-04T22:29:37Z</time>
      </trkpt>
      <trkpt lat="46.56935" lon="6.27318">
        <ele>1516</ele>
        <time>2019-05-04T22:29:40Z</time>
      </trkpt>
      <trkpt lat="46.5693" lon="6.27317">
        <ele>1516</ele>
        <time>2019-05-04T22:29:44Z</time>
      </trkpt>
      <trkpt lat="46.56925" lon="6.27316">
        <ele>1517</ele>
        <time>2019-05-04T22:29:48Z</time>
      </trkpt>
      <trkpt lat="46.5692" lon="6.27314">
        <ele>1518</ele>
        <time>2019-05-04T22:29:51Z</time>
      </trkpt>
      <trkpt lat="46.56918" lon="6.27313">
        <ele>1518</ele>
        <time>2019-05-04T22:29:53Z</time>
      </trkpt>
      <trkpt lat="46.56914" lon="6.27309">
        <ele>1518</ele>
        <time>2019-05-04T22:29:56Z</time>
      </trkpt>
      <trkpt lat="46.56909" lon="6.27304">
        <ele>1519</ele>
        <time>2019-05-04T22:30:01Z</time>
      </trkpt>
      <trkpt lat="46.56906" lon="6.27302">
        <ele>1519</ele>
        <time>2019-05-04T22:30:03Z</time>
      </trkpt>
      <trkpt lat="46.56903" lon="6.273">
        <ele>1519</ele>
        <time>2019-05-04T22:30:06Z</time>
      </trkpt>
      <trkpt lat="46.56901" lon="6.27301">
        <ele>1520</ele>
        <time>2019-05-04T22:30:07Z</time>
      </trkpt>
      <trkpt lat="46.569" lon="6.273">
        <ele>1520</ele>
        <time>2019-05-04T22:30:08Z</time>
      </trkpt>
      <trkpt lat="46.56897" lon="6.273">
        <ele>1520</ele>
        <time>2019-05-04T22:30:10Z</time>
      </trkpt>
      <trkpt lat="46.56895" lon="6.27298">
        <ele>1520</ele>
        <time>2019-05-04T22:30:12Z</time>
      </trkpt>
      <trkpt lat="46.5689" lon="6.27296">
        <ele>1521</ele>
        <time>2019-05-04T22:30:15Z</time>
      </trkpt>
      <trkpt lat="46.56885" lon="6.27291">
        <ele>1521</ele>
        <time>2019-05-04T22:30:20Z</time>
      </trkpt>
      <trkpt lat="46.56878" lon="6.27289">
        <ele>1522</ele>
        <time>2019-05-04T22:30:25Z</time>
      </trkpt>
      <trkpt lat="46.56871" lon="6.27287">
        <ele>1523</ele>
        <time>2019-05-04T22:30:30Z</time>
      </trkpt>
      <trkpt lat="46.56861" lon="6.27285">
        <ele>1524</ele>
        <time>2019-05-04T22:30:38Z</time>
      </trkpt>
      <trkpt lat="46.56855" lon="6.27283">
        <ele>1524</ele>
        <time>2019-05-04T22:30:42Z</time>
      </trkpt>
      <trkpt lat="46.56837" lon="6.27279">
        <ele>1524</ele>
        <time>2019-05-04T22:30:55Z</time>
      </trkpt>
      <trkpt lat="46.56835" lon="6.27278">
        <ele>1524</ele>
        <time>2019-05-04T22:30:56Z</time>
      </trkpt>
      <trkpt lat="46.56817" lon="6.27267">
        <ele>1524</ele>
        <time>2019-05-04T22:31:11Z</time>
      </trkpt>
      <trkpt lat="46.568" lon="6.27257">
        <ele>1523</ele>
        <time>2019-05-04T22:31:24Z</time>
      </trkpt>
      <trkpt lat="46.56783" lon="6.27244">
        <ele>1523</ele>
        <time>2019-05-04T22:31:38Z</time>
      </trkpt>
      <trkpt lat="46.56765" lon="6.27231">
        <ele>1522</ele>
        <time>2019-05-04T22:31:52Z</time>
      </trkpt>
      <trkpt lat="46.56754" lon="6.27224">
        <ele>1521</ele>
        <time>2019-05-04T22:32:01Z</time>
      </trkpt>
      <trkpt lat="46.56745" lon="6.27218">
        <ele>1520</ele>
        <time>2019-05-04T22:32:09Z</time>
      </trkpt>
      <trkpt lat="46.56729" lon="6.27205">
        <ele>1518</ele>
        <time>2019-05-04T22:32:22Z</time>
      </trkpt>
      <trkpt lat="46.56727" lon="6.27203">
        <ele>1518</ele>
        <time>2019-05-04T22:32:24Z</time>
      </trkpt>
      <trkpt lat="46.56723" lon="6.272">
        <ele>1517</ele>
        <time>2019-05-04T22:32:27Z</time>
      </trkpt>
      <trkpt lat="46.56715" lon="6.27195">
        <ele>1516</ele>
        <time>2019-05-04T22:32:33Z</time>
      </trkpt>
      <trkpt lat="46.56706" lon="6.27188">
        <ele>1515</ele>
        <time>2019-05-04T22:32:41Z</time>
      </trkpt>
      <trkpt lat="46.56691" lon="6.27178">
        <ele>1513</ele>
        <time>2019-05-04T22:32:53Z</time>
      </trkpt>
      <trkpt lat="46.56688" lon="6.27176">
        <ele>1512</ele>
        <time>2019-05-04T22:32:55Z</time>
      </trkpt>
      <trkpt lat="46.56685" lon="6.27172">
        <ele>1512</ele>
        <time>2019-05-04T22:32:58Z</time>
      </trkpt>
      <trkpt lat="46.56681" lon="6.27171">
        <ele>1511</ele>
        <time>2019-05-04T22:33:01Z</time>
      </trkpt>
      <trkpt lat="46.56679" lon="6.27167">
        <ele>1511</ele>
        <time>2019-05-04T22:33:03Z</time>
      </trkpt>
      <trkpt lat="46.56667" lon="6.27153">
        <ele>1508</ele>
        <time>2019-05-04T22:33:14Z</time>
      </trkpt>
      <trkpt lat="46.56659" lon="6.27143">
        <ele>1506</ele>
        <time>2019-05-04T22:33:22Z</time>
      </trkpt>
      <trkpt lat="46.56655" lon="6.27139">
        <ele>1506</ele>
        <time>2019-05-04T22:33:26Z</time>
      </trkpt>
      <trkpt lat="46.56651" lon="6.27135">
        <ele>1505</ele>
        <time>2019-05-04T22:33:29Z</time>
      </trkpt>
      <trkpt lat="46.56638" lon="6.2712">
        <ele>1502</ele>
        <time>2019-05-04T22:33:41Z</time>
      </trkpt>
      <trkpt lat="46.56634" lon="6.27116">
        <ele>1502</ele>
        <time>2019-05-04T22:33:45Z</time>
      </trkpt>
      <trkpt lat="46.56627" lon="6.27109">
        <ele>1500</ele>
        <time>2019-05-04T22:33:51Z</time>
      </trkpt>
      <trkpt lat="46.56623" lon="6.27104">
        <ele>1500</ele>
        <time>2019-05-04T22:33:55Z</time>
      </trkpt>
      <trkpt lat="46.56621" lon="6.27102">
        <ele>1499</ele>
        <time>2019-05-04T22:33:57Z</time>
      </trkpt>
      <trkpt lat="46.56619" lon="6.271">
        <ele>1499</ele>
        <time>2019-05-04T22:33:59Z</time>
      </trkpt>
      <trkpt lat="46.56614" lon="6.27096">
        <ele>1498</ele>
        <time>2019-05-04T22:34:03Z</time>
      </trkpt>
      <trkpt lat="46.56607" lon="6.27089">
        <ele>1497</ele>
        <time>2019-05-04T22:34:09Z</time>
      </trkpt>
      <trkpt lat="46.56591" lon="6.27073">
        <ele>1494</ele>
        <time>2019-05-04T22:34:23Z</time>
      </trkpt>
      <trkpt lat="46.56589" lon="6.2707">
        <ele>1494</ele>
        <time>2019-05-04T22:34:25Z</time>
      </trkpt>
      <trkpt lat="46.56584" lon="6.27066">
        <ele>1493</ele>
        <time>2019-05-04T22:34:30Z</time>
      </trkpt>
      <trkpt lat="46.56573" lon="6.27058">
        <ele>1492</ele>
        <time>2019-05-04T22:34:38Z</time>
      </trkpt>
      <trkpt lat="46.56568" lon="6.27055">
        <ele>1491</ele>
        <time>2019-05-04T22:34:42Z</time>
      </trkpt>
      <trkpt lat="46.56563" lon="6.27051">
        <ele>1490</ele>
        <time>2019-05-04T22:34:46Z</time>
      </trkpt>
      <trkpt lat="46.56558" lon="6.27046">
        <ele>1490</ele>
        <time>2019-05-04T22:34:51Z</time>
      </trkpt>
      <trkpt lat="46.56554" lon="6.2704">
        <ele>1489</ele>
        <time>2019-05-04T22:34:55Z</time>
      </trkpt>
      <trkpt lat="46.56546" lon="6.27033">
        <ele>1488</ele>
        <time>2019-05-04T22:35:02Z</time>
      </trkpt>
      <trkpt lat="46.56536" lon="6.27024">
        <ele>1487</ele>
        <time>2019-05-04T22:35:11Z</time>
      </trkpt>
      <trkpt lat="46.56525" lon="6.27015">
        <ele>1486</ele>
        <time>2019-05-04T22:35:19Z</time>
      </trkpt>
      <trkpt lat="46.56509" lon="6.27">
        <ele>1484</ele>
        <time>2019-05-04T22:35:33Z</time>
      </trkpt>
      <trkpt lat="46.56499" lon="6.26988">
        <ele>1484</ele>
        <time>2019-05-04T22:35:43Z</time>
      </trkpt>
      <trkpt lat="46.56495" lon="6.26984">
        <ele>1483</ele>
        <time>2019-05-04T22:35:46Z</time>
      </trkpt>
      <trkpt lat="46.56489" lon="6.26978">
        <ele>1483</ele>
        <time>2019-05-04T22:35:51Z</time>
      </trkpt>
      <trkpt lat="46.56472" lon="6.26963">
        <ele>1483</ele>
        <time>2019-05-04T22:36:06Z</time>
      </trkpt>
      <trkpt lat="46.56462" lon="6.2694">
        <ele>1482</ele>
        <time>2019-05-04T22:36:19Z</time>
      </trkpt>
      <trkpt lat="46.56461" lon="6.26937">
        <ele>1482</ele>
        <time>2019-05-04T22:36:21Z</time>
      </trkpt>
      <trkpt lat="46.56455" lon="6.26925">
        <ele>1482</ele>
        <time>2019-05-04T22:36:28Z</time>
      </trkpt>
      <trkpt lat="46.56441" lon="6.26906">
        <ele>1481</ele>
        <time>2019-05-04T22:36:42Z</time>
      </trkpt>
      <trkpt lat="46.56437" lon="6.269">
        <ele>1481</ele>
        <time>2019-05-04T22:36:46Z</time>
      </trkpt>
      <trkpt lat="46.56431" lon="6.26892">
        <ele>1481</ele>
        <time>2019-05-04T22:36:52Z</time>
      </trkpt>
      <trkpt lat="46.56421" lon="6.26868">
        <ele>1481</ele>
        <time>2019-05-04T22:37:06Z</time>
      </trkpt>
      <trkpt lat="46.56422" lon="6.26857">
        <ele>1480</ele>
        <time>2019-05-04T22:37:12Z</time>
      </trkpt>
      <trkpt lat="46.56427" lon="6.26843">
        <ele>1479</ele>
        <time>2019-05-04T22:37:19Z</time>
      </trkpt>
      <trkpt lat="46.56432" lon="6.26829">
        <ele>1478</ele>
        <time>2019-05-04T22:37:27Z</time>
      </trkpt>
      <trkpt lat="46.56436" lon="6.2682">
        <ele>1477</ele>
        <time>2019-05-04T22:37:33Z</time>
      </trkpt>
      <trkpt lat="46.56437" lon="6.26809">
        <ele>1477</ele>
        <time>2019-05-04T22:37:38Z</time>
      </trkpt>
      <trkpt lat="46.56436" lon="6.26798">
        <ele>1477</ele>
        <time>2019-05-04T22:37:44Z</time>
      </trkpt>
      <trkpt lat="46.56432" lon="6.26786">
        <ele>1476</ele>
        <time>2019-05-04T22:37:51Z</time>
      </trkpt>
      <trkpt lat="46.56428" lon="6.26774">
        <ele>1476</ele>
        <time>2019-05-04T22:37:57Z</time>
      </trkpt>
      <trkpt lat="46.56425" lon="6.26764">
        <ele>1476</ele>
        <time>2019-05-04T22:38:02Z</time>
      </trkpt>
      <trkpt lat="46.56421" lon="6.26739">
        <ele>1474</ele>
        <time>2019-05-04T22:38:15Z</time>
      </trkpt>
      <trkpt lat="46.56421" lon="6.26722">
        <ele>1472</ele>
        <time>2019-05-04T22:38:24Z</time>
      </trkpt>
      <trkpt lat="46.56422" lon="6.2672">
        <ele>1472</ele>
        <time>2019-05-04T22:38:25Z</time>
      </trkpt>
      <trkpt lat="46.56405" lon="6.26709">
        <ele>1473</ele>
        <time>2019-05-04T22:38:39Z</time>
      </trkpt>
      <trkpt lat="46.56397" lon="6.26701">
        <ele>1473</ele>
        <time>2019-05-04T22:38:46Z</time>
      </trkpt>
      <trkpt lat="46.56388" lon="6.26695">
        <ele>1474</ele>
        <time>2019-05-04T22:38:53Z</time>
      </trkpt>
      <trkpt lat="46.56386" lon="6.26693">
        <ele>1474</ele>
        <time>2019-05-04T22:38:55Z</time>
      </trkpt>
      <trkpt lat="46.56383" lon="6.2669">
        <ele>1474</ele>
        <time>2019-05-04T22:38:58Z</time>
      </trkpt>
      <trkpt lat="46.56374" lon="6.26682">
        <ele>1475</ele>
        <time>2019-05-04T22:39:05Z</time>
      </trkpt>
      <trkpt lat="46.56372" lon="6.26679">
        <ele>1475</ele>
        <time>2019-05-04T22:39:07Z</time>
      </trkpt>
      <trkpt lat="46.56369" lon="6.26677">
        <ele>1475</ele>
        <time>2019-05-04T22:39:10Z</time>
      </trkpt>
      <trkpt lat="46.56368" lon="6.26676">
        <ele>1475</ele>
        <time>2019-05-04T22:39:10Z</time>
      </trkpt>
      <trkpt lat="46.56367" lon="6.26675">
        <ele>1475</ele>
        <time>2019-05-04T22:39:11Z</time>
      </trkpt>
      <trkpt lat="46.56364" lon="6.26673">
        <ele>1475</ele>
        <time>2019-05-04T22:39:14Z</time>
      </trkpt>
      <trkpt lat="46.56363" lon="6.26672">
        <ele>1475</ele>
        <time>2019-05-04T22:39:15Z</time>
      </trkpt>
      <trkpt lat="46.56356" lon="6.26662">
        <ele>1475</ele>
        <time>2019-05-04T22:39:21Z</time>
      </trkpt>
      <trkpt lat="46.56341" lon="6.26647">
        <ele>1476</ele>
        <time>2019-05-04T22:39:35Z</time>
      </trkpt>
      <trkpt lat="46.5633" lon="6.26626">
        <ele>1476</ele>
        <time>2019-05-04T22:39:48Z</time>
      </trkpt>
      <trkpt lat="46.56325" lon="6.26621">
        <ele>1476</ele>
        <time>2019-05-04T22:39:52Z</time>
      </trkpt>
      <trkpt lat="46.56312" lon="6.266">
        <ele>1476</ele>
        <time>2019-05-04T22:40:06Z</time>
      </trkpt>
      <trkpt lat="46.563" lon="6.26581">
        <ele>1476</ele>
        <time>2019-05-04T22:40:19Z</time>
      </trkpt>
      <trkpt lat="46.56297" lon="6.26575">
        <ele>1475</ele>
        <time>2019-05-04T22:40:23Z</time>
      </trkpt>
      <trkpt lat="46.5629" lon="6.26567">
        <ele>1476</ele>
        <time>2019-05-04T22:40:29Z</time>
      </trkpt>
      <trkpt lat="46.56281" lon="6.2656">
        <ele>1477</ele>
        <time>2019-05-04T22:40:37Z</time>
      </trkpt>
      <trkpt lat="46.56267" lon="6.26551">
        <ele>1479</ele>
        <time>2019-05-04T22:40:48Z</time>
      </trkpt>
      <trkpt lat="46.5625" lon="6.26541">
        <ele>1481</ele>
        <time>2019-05-04T22:41:01Z</time>
      </trkpt>
      <trkpt lat="46.56236" lon="6.26525">
        <ele>1483</ele>
        <time>2019-05-04T22:41:14Z</time>
      </trkpt>
      <trkpt lat="46.56235" lon="6.26521">
        <ele>1483</ele>
        <time>2019-05-04T22:41:16Z</time>
      </trkpt>
      <trkpt lat="46.56234" lon="6.26515">
        <ele>1482</ele>
        <time>2019-05-04T22:41:20Z</time>
      </trkpt>
      <trkpt lat="46.56233" lon="6.26513">
        <ele>1482</ele>
        <time>2019-05-04T22:41:20Z</time>
      </trkpt>
      <trkpt lat="46.5623" lon="6.26505">
        <ele>1482</ele>
        <time>2019-05-04T22:41:25Z</time>
      </trkpt>
      <trkpt lat="46.56228" lon="6.26495">
        <ele>1481</ele>
        <time>2019-05-04T22:41:30Z</time>
      </trkpt>
      <trkpt lat="46.56226" lon="6.26492">
        <ele>1482</ele>
        <time>2019-05-04T22:41:32Z</time>
      </trkpt>
      <trkpt lat="46.56225" lon="6.26482">
        <ele>1481</ele>
        <time>2019-05-04T22:41:37Z</time>
      </trkpt>
      <trkpt lat="46.56221" lon="6.26459">
        <ele>1479</ele>
        <time>2019-05-04T22:41:49Z</time>
      </trkpt>
      <trkpt lat="46.56218" lon="6.26446">
        <ele>1479</ele>
        <time>2019-05-04T22:41:56Z</time>
      </trkpt>
      <trkpt lat="46.56218" lon="6.26445">
        <ele>1479</ele>
        <time>2019-05-04T22:41:57Z</time>
      </trkpt>
      <trkpt lat="46.56208" lon="6.26421">
        <ele>1478</ele>
        <time>2019-05-04T22:42:10Z</time>
      </trkpt>
      <trkpt lat="46.56195" lon="6.26401">
        <ele>1479</ele>
        <time>2019-05-04T22:42:24Z</time>
      </trkpt>
      <trkpt lat="46.56194" lon="6.26399">
        <ele>1479</ele>
        <time>2019-05-04T22:42:26Z</time>
      </trkpt>
      <trkpt lat="46.56179" lon="6.26382">
        <ele>1479</ele>
        <time>2019-05-04T22:42:39Z</time>
      </trkpt>
      <trkpt lat="46.56168" lon="6.26368">
        <ele>1479</ele>
        <time>2019-05-04T22:42:50Z</time>
      </trkpt>
      <trkpt lat="46.56154" lon="6.26351">
        <ele>1479</ele>
        <time>2019-05-04T22:43:03Z</time>
      </trkpt>
      <trkpt lat="46.56139" lon="6.26335">
        <ele>1480</ele>
        <time>2019-05-04T22:43:17Z</time>
      </trkpt>
      <trkpt lat="46.56137" lon="6.26333">
        <ele>1480</ele>
        <time>2019-05-04T22:43:19Z</time>
      </trkpt>
      <trkpt lat="46.56134" lon="6.26328">
        <ele>1480</ele>
        <time>2019-05-04T22:43:22Z</time>
      </trkpt>
      <trkpt lat="46.56133" lon="6.26327">
        <ele>1480</ele>
        <time>2019-05-04T22:43:23Z</time>
      </trkpt>
      <trkpt lat="46.56121" lon="6.26314">
        <ele>1481</ele>
        <time>2019-05-04T22:43:33Z</time>
      </trkpt>
      <trkpt lat="46.56121" lon="6.26313">
        <ele>1481</ele>
        <time>2019-05-04T22:43:34Z</time>
      </trkpt>
      <trkpt lat="46.56116" lon="6.26311">
        <ele>1481</ele>
        <time>2019-05-04T22:43:37Z</time>
      </trkpt>
      <trkpt lat="46.56114" lon="6.26309">
        <ele>1481</ele>
        <time>2019-05-04T22:43:39Z</time>
      </trkpt>
      <trkpt lat="46.56112" lon="6.26308">
        <ele>1481</ele>
        <time>2019-05-04T22:43:41Z</time>
      </trkpt>
      <trkpt lat="46.56111" lon="6.26305">
        <ele>1481</ele>
        <time>2019-05-04T22:43:42Z</time>
      </trkpt>
      <trkpt lat="46.56109" lon="6.26303">
        <ele>1481</ele>
        <time>2019-05-04T22:43:44Z</time>
      </trkpt>
      <trkpt lat="46.56108" lon="6.26301">
        <ele>1481</ele>
        <time>2019-05-04T22:43:46Z</time>
      </trkpt>
      <trkpt lat="46.56102" lon="6.2629">
        <ele>1481</ele>
        <time>2019-05-04T22:43:52Z</time>
      </trkpt>
      <trkpt lat="46.56105" lon="6.26282">
        <ele>1480</ele>
        <time>2019-05-04T22:43:57Z</time>
      </trkpt>
      <trkpt lat="46.56106" lon="6.26279">
        <ele>1480</ele>
        <time>2019-05-04T22:43:58Z</time>
      </trkpt>
      <trkpt lat="46.56108" lon="6.26263">
        <ele>1479</ele>
        <time>2019-05-04T22:44:06Z</time>
      </trkpt>
      <trkpt lat="46.56098" lon="6.26243">
        <ele>1478</ele>
        <time>2019-05-04T22:44:19Z</time>
      </trkpt>
      <trkpt lat="46.56085" lon="6.2622">
        <ele>1477</ele>
        <time>2019-05-04T22:44:33Z</time>
      </trkpt>
      <trkpt lat="46.56073" lon="6.26199">
        <ele>1476</ele>
        <time>2019-05-04T22:44:47Z</time>
      </trkpt>
      <trkpt lat="46.56064" lon="6.26187">
        <ele>1475</ele>
        <time>2019-05-04T22:44:56Z</time>
      </trkpt>
      <trkpt lat="46.56058" lon="6.26178">
        <ele>1475</ele>
        <time>2019-05-04T22:45:02Z</time>
      </trkpt>
      <trkpt lat="46.56052" lon="6.26169">
        <ele>1474</ele>
        <time>2019-05-04T22:45:08Z</time>
      </trkpt>
      <trkpt lat="46.56038" lon="6.26147">
        <ele>1473</ele>
        <time>2019-05-04T22:45:23Z</time>
      </trkpt>
      <trkpt lat="46.56028" lon="6.26135">
        <ele>1472</ele>
        <time>2019-05-04T22:45:32Z</time>
      </trkpt>
      <trkpt lat="46.56015" lon="6.26123">
        <ele>1471</ele>
        <time>2019-05-04T22:45:44Z</time>
      </trkpt>
      <trkpt lat="46.56008" lon="6.26109">
        <ele>1470</ele>
        <time>2019-05-04T22:45:52Z</time>
      </trkpt>
      <trkpt lat="46.56" lon="6.26097">
        <ele>1469</ele>
        <time>2019-05-04T22:46:01Z</time>
      </trkpt>
      <trkpt lat="46.55997" lon="6.26091">
        <ele>1469</ele>
        <time>2019-05-04T22:46:04Z</time>
      </trkpt>
      <trkpt lat="46.55994" lon="6.26086">
        <ele>1469</ele>
        <time>2019-05-04T22:46:08Z</time>
      </trkpt>
      <trkpt lat="46.55988" lon="6.26077">
        <ele>1468</ele>
        <time>2019-05-04T22:46:14Z</time>
      </trkpt>
      <trkpt lat="46.55982" lon="6.26067">
        <ele>1467</ele>
        <time>2019-05-04T22:46:20Z</time>
      </trkpt>
      <trkpt lat="46.55971" lon="6.26044">
        <ele>1465</ele>
        <time>2019-05-04T22:46:35Z</time>
      </trkpt>
      <trkpt lat="46.55965" lon="6.26035">
        <ele>1465</ele>
        <time>2019-05-04T22:46:41Z</time>
      </trkpt>
      <trkpt lat="46.55958" lon="6.26024">
        <ele>1464</ele>
        <time>2019-05-04T22:46:48Z</time>
      </trkpt>
      <trkpt lat="46.55949" lon="6.26012">
        <ele>1463</ele>
        <time>2019-05-04T22:46:57Z</time>
      </trkpt>
      <trkpt lat="46.55946" lon="6.26008">
        <ele>1463</ele>
        <time>2019-05-04T22:47:00Z</time>
      </trkpt>
      <trkpt lat="46.55941" lon="6.25999">
        <ele>1463</ele>
        <time>2019-05-04T22:47:06Z</time>
      </trkpt>
      <trkpt lat="46.55939" lon="6.25995">
        <ele>1463</ele>
        <time>2019-05-04T22:47:09Z</time>
      </trkpt>
      <trkpt lat="46.55935" lon="6.25988">
        <ele>1464</ele>
        <time>2019-05-04T22:47:13Z</time>
      </trkpt>
      <trkpt lat="46.55928" lon="6.25986">
        <ele>1465</ele>
        <time>2019-05-04T22:47:18Z</time>
      </trkpt>
      <trkpt lat="46.55924" lon="6.25982">
        <ele>1465</ele>
        <time>2019-05-04T22:47:21Z</time>
      </trkpt>
      <trkpt lat="46.55921" lon="6.25982">
        <ele>1466</ele>
        <time>2019-05-04T22:47:24Z</time>
      </trkpt>
      <trkpt lat="46.55917" lon="6.25981">
        <ele>1466</ele>
        <time>2019-05-04T22:47:27Z</time>
      </trkpt>
      <trkpt lat="46.55905" lon="6.25984">
        <ele>1468</ele>
        <time>2019-05-04T22:47:36Z</time>
      </trkpt>
      <trkpt lat="46.55903" lon="6.25984">
        <ele>1468</ele>
        <time>2019-05-04T22:47:37Z</time>
      </trkpt>
      <trkpt lat="46.559" lon="6.25984">
        <ele>1468</ele>
        <time>2019-05-04T22:47:39Z</time>
      </trkpt>
      <trkpt lat="46.55899" lon="6.25983">
        <ele>1468</ele>
        <time>2019-05-04T22:47:40Z</time>
      </trkpt>
      <trkpt lat="46.55889" lon="6.25979">
        <ele>1469</ele>
        <time>2019-05-04T22:47:47Z</time>
      </trkpt>
      <trkpt lat="46.55879" lon="6.25972">
        <ele>1471</ele>
        <time>2019-05-04T22:47:56Z</time>
      </trkpt>
      <trkpt lat="46.55873" lon="6.25969">
        <ele>1471</ele>
        <time>2019-05-04T22:48:00Z</time>
      </trkpt>
      <trkpt lat="46.55872" lon="6.25969">
        <ele>1471</ele>
        <time>2019-05-04T22:48:01Z</time>
      </trkpt>
      <trkpt lat="46.55871" lon="6.25969">
        <ele>1472</ele>
        <time>2019-05-04T22:48:02Z</time>
      </trkpt>
      <trkpt lat="46.55867" lon="6.25968">
        <ele>1472</ele>
        <time>2019-05-04T22:48:05Z</time>
      </trkpt>
      <trkpt lat="46.55865" lon="6.25968">
        <ele>1472</ele>
        <time>2019-05-04T22:48:06Z</time>
      </trkpt>
      <trkpt lat="46.55862" lon="6.2597">
        <ele>1473</ele>
        <time>2019-05-04T22:48:08Z</time>
      </trkpt>
      <trkpt lat="46.55858" lon="6.25967">
        <ele>1473</ele>
        <time>2019-05-04T22:48:12Z</time>
      </trkpt>
      <trkpt lat="46.55854" lon="6.25967">
        <ele>1474</ele>
        <time>2019-05-04T22:48:15Z</time>
      </trkpt>
      <trkpt lat="46.55851" lon="6.25966">
        <ele>1474</ele>
        <time>2019-05-04T22:48:17Z</time>
      </trkpt>
      <trkpt lat="46.55848" lon="6.25965">
        <ele>1474</ele>
        <time>2019-05-04T22:48:19Z</time>
      </trkpt>
      <trkpt lat="46.55844" lon="6.25967">
        <ele>1475</ele>
        <time>2019-05-04T22:48:22Z</time>
      </trkpt>
      <trkpt lat="46.5584" lon="6.25967">
        <ele>1475</ele>
        <time>2019-05-04T22:48:25Z</time>
      </trkpt>
      <trkpt lat="46.55834" lon="6.25964">
        <ele>1476</ele>
        <time>2019-05-04T22:48:30Z</time>
      </trkpt>
      <trkpt lat="46.55827" lon="6.25964">
        <ele>1476</ele>
        <time>2019-05-04T22:48:35Z</time>
      </trkpt>
      <trkpt lat="46.55824" lon="6.25964">
        <ele>1477</ele>
        <time>2019-05-04T22:48:37Z</time>
      </trkpt>
      <trkpt lat="46.55823" lon="6.25965">
        <ele>1477</ele>
        <time>2019-05-04T22:48:38Z</time>
      </trkpt>
      <trkpt lat="46.55821" lon="6.25965">
        <ele>1477</ele>
        <time>2019-05-04T22:48:39Z</time>
      </trkpt>
      <trkpt lat="46.55818" lon="6.25966">
        <ele>1477</ele>
        <time>2019-05-04T22:48:41Z</time>
      </trkpt>
      <trkpt lat="46.55817" lon="6.25967">
        <ele>1477</ele>
        <time>2019-05-04T22:48:42Z</time>
      </trkpt>
      <trkpt lat="46.55814" lon="6.25964">
        <ele>1478</ele>
        <time>2019-05-04T22:48:45Z</time>
      </trkpt>
      <trkpt lat="46.55812" lon="6.25961">
        <ele>1478</ele>
        <time>2019-05-04T22:48:47Z</time>
      </trkpt>
      <trkpt lat="46.5581" lon="6.25962">
        <ele>1478</ele>
        <time>2019-05-04T22:48:49Z</time>
      </trkpt>
      <trkpt lat="46.55799" lon="6.25962">
        <ele>1479</ele>
        <time>2019-05-04T22:48:57Z</time>
      </trkpt>
      <trkpt lat="46.55798" lon="6.25961">
        <ele>1479</ele>
        <time>2019-05-04T22:48:58Z</time>
      </trkpt>
      <trkpt lat="46.55796" lon="6.25959">
        <ele>1479</ele>
        <time>2019-05-04T22:49:00Z</time>
      </trkpt>
      <trkpt lat="46.55793" lon="6.25959">
        <ele>1480</ele>
        <time>2019-05-04T22:49:01Z</time>
      </trkpt>
      <trkpt lat="46.55792" lon="6.25959">
        <ele>1480</ele>
        <time>2019-05-04T22:49:02Z</time>
      </trkpt>
      <trkpt lat="46.55788" lon="6.25959">
        <ele>1480</ele>
        <time>2019-05-04T22:49:05Z</time>
      </trkpt>
      <trkpt lat="46.55787" lon="6.2596">
        <ele>1480</ele>
        <time>2019-05-04T22:49:06Z</time>
      </trkpt>
      <trkpt lat="46.55786" lon="6.25961">
        <ele>1480</ele>
        <time>2019-05-04T22:49:07Z</time>
      </trkpt>
      <trkpt lat="46.55783" lon="6.25962">
        <ele>1481</ele>
        <time>2019-05-04T22:49:09Z</time>
      </trkpt>
      <trkpt lat="46.55779" lon="6.25964">
        <ele>1481</ele>
        <time>2019-05-04T22:49:13Z</time>
      </trkpt>
      <trkpt lat="46.55773" lon="6.25963">
        <ele>1481</ele>
        <time>2019-05-04T22:49:17Z</time>
      </trkpt>
      <trkpt lat="46.55772" lon="6.25963">
        <ele>1481</ele>
        <time>2019-05-04T22:49:17Z</time>
      </trkpt>
      <trkpt lat="46.55771" lon="6.25961">
        <ele>1481</ele>
        <time>2019-05-04T22:49:19Z</time>
      </trkpt>
      <trkpt lat="46.55767" lon="6.25959">
        <ele>1481</ele>
        <time>2019-05-04T22:49:22Z</time>
      </trkpt>
      <trkpt lat="46.55765" lon="6.25958">
        <ele>1481</ele>
        <time>2019-05-04T22:49:23Z</time>
      </trkpt>
      <trkpt lat="46.55763" lon="6.25958">
        <ele>1481</ele>
        <time>2019-05-04T22:49:24Z</time>
      </trkpt>
      <trkpt lat="46.55753" lon="6.25954">
        <ele>1482</ele>
        <time>2019-05-04T22:49:32Z</time>
      </trkpt>
      <trkpt lat="46.55744" lon="6.25952">
        <ele>1482</ele>
        <time>2019-05-04T22:49:38Z</time>
      </trkpt>
      <trkpt lat="46.55728" lon="6.25944">
        <ele>1482</ele>
        <time>2019-05-04T22:49:51Z</time>
      </trkpt>
      <trkpt lat="46.55709" lon="6.2594">
        <ele>1482</ele>
        <time>2019-05-04T22:50:05Z</time>
      </trkpt>
      <trkpt lat="46.55694" lon="6.25928">
        <ele>1481</ele>
        <time>2019-05-04T22:50:17Z</time>
      </trkpt>
      <trkpt lat="46.5569" lon="6.2593">
        <ele>1481</ele>
        <time>2019-05-04T22:50:20Z</time>
      </trkpt>
      <trkpt lat="46.55689" lon="6.25934">
        <ele>1481</ele>
        <time>2019-05-04T22:50:22Z</time>
      </trkpt>
      <trkpt lat="46.55688" lon="6.25928">
        <ele>1481</ele>
        <time>2019-05-04T22:50:25Z</time>
      </trkpt>
      <trkpt lat="46.55689" lon="6.25922">
        <ele>1481</ele>
        <time>2019-05-04T22:50:29Z</time>
      </trkpt>
      <trkpt lat="46.55689" lon="6.25917">
        <ele>1480</ele>
        <time>2019-05-04T22:50:31Z</time>
      </trkpt>
      <trkpt lat="46.55688" lon="6.25902">
        <ele>1479</ele>
        <time>2019-05-04T22:50:38Z</time>
      </trkpt>
      <trkpt lat="46.55684" lon="6.25881">
        <ele>1477</ele>
        <time>2019-05-04T22:50:49Z</time>
      </trkpt>
      <trkpt lat="46.55681" lon="6.25869">
        <ele>1476</ele>
        <time>2019-05-04T22:50:56Z</time>
      </trkpt>
      <trkpt lat="46.5568" lon="6.25863">
        <ele>1476</ele>
        <time>2019-05-04T22:50:59Z</time>
      </trkpt>
      <trkpt lat="46.55679" lon="6.25849">
        <ele>1475</ele>
        <time>2019-05-04T22:51:06Z</time>
      </trkpt>
      <trkpt lat="46.55679" lon="6.25834">
        <ele>1473</ele>
        <time>2019-05-04T22:51:13Z</time>
      </trkpt>
      <trkpt lat="46.55678" lon="6.25831">
        <ele>1473</ele>
        <time>2019-05-04T22:51:15Z</time>
      </trkpt>
      <trkpt lat="46.55677" lon="6.25827">
        <ele>1473</ele>
        <time>2019-05-04T22:51:17Z</time>
      </trkpt>
      <trkpt lat="46.55674" lon="6.25821">
        <ele>1472</ele>
        <time>2019-05-04T22:51:21Z</time>
      </trkpt>
      <trkpt lat="46.55673" lon="6.25812">
        <ele>1471</ele>
        <time>2019-05-04T22:51:26Z</time>
      </trkpt>
      <trkpt lat="46.55672" lon="6.25803">
        <ele>1470</ele>
        <time>2019-05-04T22:51:30Z</time>
      </trkpt>
      <trkpt lat="46.55672" lon="6.258">
        <ele>1470</ele>
        <time>2019-05-04T22:51:32Z</time>
      </trkpt>
      <trkpt lat="46.5567" lon="6.25794">
        <ele>1469</ele>
        <time>2019-05-04T22:51:35Z</time>
      </trkpt>
      <trkpt lat="46.55667" lon="6.25788">
        <ele>1469</ele>
        <time>2019-05-04T22:51:39Z</time>
      </trkpt>
      <trkpt lat="46.55661" lon="6.25774">
        <ele>1467</ele>
        <time>2019-05-04T22:51:47Z</time>
      </trkpt>
      <trkpt lat="46.55659" lon="6.25767">
        <ele>1467</ele>
        <time>2019-05-04T22:51:51Z</time>
      </trkpt>
      <trkpt lat="46.55656" lon="6.25753">
        <ele>1466</ele>
        <time>2019-05-04T22:51:58Z</time>
      </trkpt>
      <trkpt lat="46.55652" lon="6.25742">
        <ele>1465</ele>
        <time>2019-05-04T22:52:04Z</time>
      </trkpt>
      <trkpt lat="46.55648" lon="6.25734">
        <ele>1464</ele>
        <time>2019-05-04T22:52:09Z</time>
      </trkpt>
      <trkpt lat="46.55646" lon="6.2573">
        <ele>1464</ele>
        <time>2019-05-04T22:52:12Z</time>
      </trkpt>
      <trkpt lat="46.55643" lon="6.25725">
        <ele>1463</ele>
        <time>2019-05-04T22:52:15Z</time>
      </trkpt>
      <trkpt lat="46.55636" lon="6.25714">
        <ele>1462</ele>
        <time>2019-05-04T22:52:23Z</time>
      </trkpt>
      <trkpt lat="46.55628" lon="6.25697">
        <ele>1460</ele>
        <time>2019-05-04T22:52:33Z</time>
      </trkpt>
      <trkpt lat="46.55623" lon="6.25688">
        <ele>1459</ele>
        <time>2019-05-04T22:52:39Z</time>
      </trkpt>
      <trkpt lat="46.55618" lon="6.25676">
        <ele>1459</ele>
        <time>2019-05-04T22:52:46Z</time>
      </trkpt>
      <trkpt lat="46.55616" lon="6.25671">
        <ele>1458</ele>
        <time>2019-05-04T22:52:49Z</time>
      </trkpt>
      <trkpt lat="46.55609" lon="6.25659">
        <ele>1458</ele>
        <time>2019-05-04T22:52:57Z</time>
      </trkpt>
      <trkpt lat="46.55604" lon="6.25652">
        <ele>1457</ele>
        <time>2019-05-04T22:53:02Z</time>
      </trkpt>
      <trkpt lat="46.55599" lon="6.25646">
        <ele>1457</ele>
        <time>2019-05-04T22:53:06Z</time>
      </trkpt>
      <trkpt lat="46.55584" lon="6.25629">
        <ele>1455</ele>
        <time>2019-05-04T22:53:20Z</time>
      </trkpt>
      <trkpt lat="46.55576" lon="6.25623">
        <ele>1455</ele>
        <time>2019-05-04T22:53:27Z</time>
      </trkpt>
      <trkpt lat="46.55574" lon="6.25623">
        <ele>1455</ele>
        <time>2019-05-04T22:53:28Z</time>
      </trkpt>
      <trkpt lat="46.55559" lon="6.25613">
        <ele>1453</ele>
        <time>2019-05-04T22:53:40Z</time>
      </trkpt>
      <trkpt lat="46.55553" lon="6.25604">
        <ele>1453</ele>
        <time>2019-05-04T22:53:47Z</time>
      </trkpt>
      <trkpt lat="46.55536" lon="6.25593">
        <ele>1452</ele>
        <time>2019-05-04T22:54:00Z</time>
      </trkpt>
      <trkpt lat="46.5552" lon="6.25577">
        <ele>1452</ele>
        <time>2019-05-04T22:54:14Z</time>
      </trkpt>
      <trkpt lat="46.55505" lon="6.2556">
        <ele>1451</ele>
        <time>2019-05-04T22:54:27Z</time>
      </trkpt>
      <trkpt lat="46.55489" lon="6.25542">
        <ele>1450</ele>
        <time>2019-05-04T22:54:42Z</time>
      </trkpt>
      <trkpt lat="46.55473" lon="6.25529">
        <ele>1449</ele>
        <time>2019-05-04T22:54:55Z</time>
      </trkpt>
      <trkpt lat="46.55471" lon="6.25527">
        <ele>1449</ele>
        <time>2019-05-04T22:54:57Z</time>
      </trkpt>
      <trkpt lat="46.55463" lon="6.25517">
        <ele>1448</ele>
        <time>2019-05-04T22:55:05Z</time>
      </trkpt>
      <trkpt lat="46.55451" lon="6.25497">
        <ele>1447</ele>
        <time>2019-05-04T22:55:18Z</time>
      </trkpt>
      <trkpt lat="46.55449" lon="6.25495">
        <ele>1447</ele>
        <time>2019-05-04T22:55:20Z</time>
      </trkpt>
      <trkpt lat="46.55442" lon="6.25484">
        <ele>1446</ele>
        <time>2019-05-04T22:55:28Z</time>
      </trkpt>
      <trkpt lat="46.55427" lon="6.25463">
        <ele>1445</ele>
        <time>2019-05-04T22:55:42Z</time>
      </trkpt>
      <trkpt lat="46.55415" lon="6.25443">
        <ele>1445</ele>
        <time>2019-05-04T22:55:56Z</time>
      </trkpt>
      <trkpt lat="46.55411" lon="6.25435">
        <ele>1445</ele>
        <time>2019-05-04T22:56:01Z</time>
      </trkpt>
      <trkpt lat="46.55396" lon="6.25417">
        <ele>1445</ele>
        <time>2019-05-04T22:56:14Z</time>
      </trkpt>
      <trkpt lat="46.55382" lon="6.254">
        <ele>1445</ele>
        <time>2019-05-04T22:56:28Z</time>
      </trkpt>
      <trkpt lat="46.55369" lon="6.25381">
        <ele>1445</ele>
        <time>2019-05-04T22:56:41Z</time>
      </trkpt>
      <trkpt lat="46.55365" lon="6.25378">
        <ele>1445</ele>
        <time>2019-05-04T22:56:45Z</time>
      </trkpt>
      <trkpt lat="46.55361" lon="6.25373">
        <ele>1445</ele>
        <time>2019-05-04T22:56:48Z</time>
      </trkpt>
      <trkpt lat="46.55348" lon="6.25355">
        <ele>1445</ele>
        <time>2019-05-04T22:57:01Z</time>
      </trkpt>
      <trkpt lat="46.5534" lon="6.25344">
        <ele>1445</ele>
        <time>2019-05-04T22:57:09Z</time>
      </trkpt>
      <trkpt lat="46.55325" lon="6.25328">
        <ele>1445</ele>
        <time>2019-05-04T22:57:23Z</time>
      </trkpt>
      <trkpt lat="46.55318" lon="6.25321">
        <ele>1445</ele>
        <time>2019-05-04T22:57:29Z</time>
      </trkpt>
      <trkpt lat="46.55313" lon="6.25316">
        <ele>1444</ele>
        <time>2019-05-04T22:57:33Z</time>
      </trkpt>
      <trkpt lat="46.55312" lon="6.25314">
        <ele>1444</ele>
        <time>2019-05-04T22:57:34Z</time>
      </trkpt>
      <trkpt lat="46.55309" lon="6.25313">
        <ele>1444</ele>
        <time>2019-05-04T22:57:36Z</time>
      </trkpt>
      <trkpt lat="46.55298" lon="6.25301">
        <ele>1444</ele>
        <time>2019-05-04T22:57:46Z</time>
      </trkpt>
      <trkpt lat="46.55296" lon="6.25301">
        <ele>1444</ele>
        <time>2019-05-04T22:57:48Z</time>
      </trkpt>
      <trkpt lat="46.55295" lon="6.253">
        <ele>1444</ele>
        <time>2019-05-04T22:57:49Z</time>
      </trkpt>
      <trkpt lat="46.55293" lon="6.25298">
        <ele>1444</ele>
        <time>2019-05-04T22:57:51Z</time>
      </trkpt>
      <trkpt lat="46.55291" lon="6.25296">
        <ele>1443</ele>
        <time>2019-05-04T22:57:52Z</time>
      </trkpt>
      <trkpt lat="46.55296" lon="6.25296">
        <ele>1444</ele>
        <time>2019-05-04T22:57:56Z</time>
      </trkpt>
      <trkpt lat="46.55288" lon="6.25291">
        <ele>1443</ele>
        <time>2019-05-04T22:58:02Z</time>
      </trkpt>
      <trkpt lat="46.55287" lon="6.2529">
        <ele>1443</ele>
        <time>2019-05-04T22:58:04Z</time>
      </trkpt>
      <trkpt lat="46.55283" lon="6.25287">
        <ele>1443</ele>
        <time>2019-05-04T22:58:06Z</time>
      </trkpt>
      <trkpt lat="46.55281" lon="6.25286">
        <ele>1443</ele>
        <time>2019-05-04T22:58:08Z</time>
      </trkpt>
      <trkpt lat="46.55269" lon="6.25273">
        <ele>1442</ele>
        <time>2019-05-04T22:58:19Z</time>
      </trkpt>
      <trkpt lat="46.55267" lon="6.25271">
        <ele>1442</ele>
        <time>2019-05-04T22:58:21Z</time>
      </trkpt>
      <trkpt lat="46.55261" lon="6.25266">
        <ele>1441</ele>
        <time>2019-05-04T22:58:26Z</time>
      </trkpt>
      <trkpt lat="46.5526" lon="6.25265">
        <ele>1441</ele>
        <time>2019-05-04T22:58:26Z</time>
      </trkpt>
      <trkpt lat="46.55256" lon="6.25259">
        <ele>1441</ele>
        <time>2019-05-04T22:58:31Z</time>
      </trkpt>
      <trkpt lat="46.55251" lon="6.25249">
        <ele>1441</ele>
        <time>2019-05-04T22:58:37Z</time>
      </trkpt>
      <trkpt lat="46.55249" lon="6.25243">
        <ele>1441</ele>
        <time>2019-05-04T22:58:40Z</time>
      </trkpt>
      <trkpt lat="46.55244" lon="6.25156">
        <ele>1444</ele>
        <time>2019-05-04T22:59:24Z</time>
      </trkpt>
      <trkpt lat="46.55244" lon="6.25156">
        <ele>1444</ele>
        <time>2019-05-04T22:59:24Z</time>
      </trkpt>
      <trkpt lat="46.5524" lon="6.25154">
        <ele>1443</ele>
        <time>2019-05-04T22:59:27Z</time>
      </trkpt>
      <trkpt lat="46.55238" lon="6.25154">
        <ele>1443</ele>
        <time>2019-05-04T22:59:28Z</time>
      </trkpt>
      <trkpt lat="46.55232" lon="6.25153">
        <ele>1443</ele>
        <time>2019-05-04T22:59:32Z</time>
      </trkpt>
      <trkpt lat="46.55226" lon="6.2514">
        <ele>1443</ele>
        <time>2019-05-04T22:59:41Z</time>
      </trkpt>
      <trkpt lat="46.55225" lon="6.25136">
        <ele>1443</ele>
        <time>2019-05-04T22:59:43Z</time>
      </trkpt>
      <trkpt lat="46.55224" lon="6.25131">
        <ele>1444</ele>
        <time>2019-05-04T22:59:45Z</time>
      </trkpt>
      <trkpt lat="46.55223" lon="6.25123">
        <ele>1444</ele>
        <time>2019-05-04T22:59:49Z</time>
      </trkpt>
      <trkpt lat="46.55222" lon="6.25122">
        <ele>1444</ele>
        <time>2019-05-04T22:59:50Z</time>
      </trkpt>
      <trkpt lat="46.55219" lon="6.25124">
        <ele>1444</ele>
        <time>2019-05-04T22:59:52Z</time>
      </trkpt>
      <trkpt lat="46.55208" lon="6.25111">
        <ele>1444</ele>
        <time>2019-05-04T23:00:02Z</time>
      </trkpt>
      <trkpt lat="46.55207" lon="6.25112">
        <ele>1444</ele>
        <time>2019-05-04T23:00:03Z</time>
      </trkpt>
      <trkpt lat="46.55213" lon="6.25119">
        <ele>1444</ele>
        <time>2019-05-04T23:00:09Z</time>
      </trkpt>
      <trkpt lat="46.5522" lon="6.25126">
        <ele>1444</ele>
        <time>2019-05-04T23:00:15Z</time>
      </trkpt>
      <trkpt lat="46.55228" lon="6.25137">
        <ele>1444</ele>
        <time>2019-05-04T23:00:23Z</time>
      </trkpt>
      <trkpt lat="46.55228" lon="6.25138">
        <ele>1444</ele>
        <time>2019-05-04T23:00:23Z</time>
      </trkpt>
      <trkpt lat="46.55224" lon="6.25134">
        <ele>1444</ele>
        <time>2019-05-04T23:00:27Z</time>
      </trkpt>
      <trkpt lat="46.55223" lon="6.25132">
        <ele>1444</ele>
        <time>2019-05-04T23:00:28Z</time>
      </trkpt>
      <trkpt lat="46.55222" lon="6.25131">
        <ele>1444</ele>
        <time>2019-05-04T23:00:29Z</time>
      </trkpt>
      <trkpt lat="46.5522" lon="6.25129">
        <ele>1444</ele>
        <time>2019-05-04T23:00:31Z</time>
      </trkpt>
      <trkpt lat="46.55214" lon="6.2512">
        <ele>1444</ele>
        <time>2019-05-04T23:00:37Z</time>
      </trkpt>
      <trkpt lat="46.55209" lon="6.25113">
        <ele>1444</ele>
        <time>2019-05-04T23:00:42Z</time>
      </trkpt>
      <trkpt lat="46.55196" lon="6.25096">
        <ele>1445</ele>
        <time>2019-05-04T23:00:55Z</time>
      </trkpt>
      <trkpt lat="46.55181" lon="6.25088">
        <ele>1447</ele>
        <time>2019-05-04T23:01:06Z</time>
      </trkpt>
      <trkpt lat="46.5517" lon="6.25084">
        <ele>1448</ele>
        <time>2019-05-04T23:01:15Z</time>
      </trkpt>
      <trkpt lat="46.5516" lon="6.25074">
        <ele>1450</ele>
        <time>2019-05-04T23:01:24Z</time>
      </trkpt>
      <trkpt lat="46.55151" lon="6.25051">
        <ele>1453</ele>
        <time>2019-05-04T23:01:37Z</time>
      </trkpt>
      <trkpt lat="46.55148" lon="6.25048">
        <ele>1453</ele>
        <time>2019-05-04T23:01:39Z</time>
      </trkpt>
      <trkpt lat="46.55141" lon="6.25042">
        <ele>1454</ele>
        <time>2019-05-04T23:01:45Z</time>
      </trkpt>
      <trkpt lat="46.55138" lon="6.2504">
        <ele>1455</ele>
        <time>2019-05-04T23:01:48Z</time>
      </trkpt>
      <trkpt lat="46.55132" lon="6.25034">
        <ele>1456</ele>
        <time>2019-05-04T23:01:53Z</time>
      </trkpt>
      <trkpt lat="46.55126" lon="6.25033">
        <ele>1456</ele>
        <time>2019-05-04T23:01:58Z</time>
      </trkpt>
      <trkpt lat="46.55124" lon="6.25034">
        <ele>1456</ele>
        <time>2019-05-04T23:01:59Z</time>
      </trkpt>
      <trkpt lat="46.55108" lon="6.25019">
        <ele>1458</ele>
        <time>2019-05-04T23:02:12Z</time>
      </trkpt>
      <trkpt lat="46.55107" lon="6.25019">
        <ele>1458</ele>
        <time>2019-05-04T23:02:13Z</time>
      </trkpt>
      <trkpt lat="46.55094" lon="6.2501">
        <ele>1460</ele>
        <time>2019-05-04T23:02:24Z</time>
      </trkpt>
      <trkpt lat="46.55087" lon="6.25007">
        <ele>1460</ele>
        <time>2019-05-04T23:02:29Z</time>
      </trkpt>
      <trkpt lat="46.55086" lon="6.25007">
        <ele>1460</ele>
        <time>2019-05-04T23:02:30Z</time>
      </trkpt>
      <trkpt lat="46.55083" lon="6.25004">
        <ele>1461</ele>
        <time>2019-05-04T23:02:32Z</time>
      </trkpt>
      <trkpt lat="46.55075" lon="6.24994">
        <ele>1462</ele>
        <time>2019-05-04T23:02:40Z</time>
      </trkpt>
      <trkpt lat="46.55075" lon="6.24994">
        <ele>1462</ele>
        <time>2019-05-04T23:02:40Z</time>
      </trkpt>
      <trkpt lat="46.55071" lon="6.24995">
        <ele>1462</ele>
        <time>2019-05-04T23:02:43Z</time>
      </trkpt>
      <trkpt lat="46.55067" lon="6.24993">
        <ele>1462</ele>
        <time>2019-05-04T23:02:46Z</time>
      </trkpt>
      <trkpt lat="46.55062" lon="6.24991">
        <ele>1462</ele>
        <time>2019-05-04T23:02:50Z</time>
      </trkpt>
      <trkpt lat="46.55058" lon="6.2499">
        <ele>1462</ele>
        <time>2019-05-04T23:02:53Z</time>
      </trkpt>
      <trkpt lat="46.55056" lon="6.24988">
        <ele>1462</ele>
        <time>2019-05-04T23:02:54Z</time>
      </trkpt>
      <trkpt lat="46.55053" lon="6.24983">
        <ele>1463</ele>
        <time>2019-05-04T23:02:58Z</time>
      </trkpt>
      <trkpt lat="46.55051" lon="6.24983">
        <ele>1462</ele>
        <time>2019-05-04T23:02:59Z</time>
      </trkpt>
      <trkpt lat="46.55049" lon="6.24982">
        <ele>1463</ele>
        <time>2019-05-04T23:03:01Z</time>
      </trkpt>
      <trkpt lat="46.55046" lon="6.24977">
        <ele>1463</ele>
        <time>2019-05-04T23:03:04Z</time>
      </trkpt>
      <trkpt lat="46.55044" lon="6.24974">
        <ele>1463</ele>
        <time>2019-05-04T23:03:07Z</time>
      </trkpt>
      <trkpt lat="46.55043" lon="6.24972">
        <ele>1463</ele>
        <time>2019-05-04T23:03:08Z</time>
      </trkpt>
      <trkpt lat="46.55039" lon="6.24969">
        <ele>1463</ele>
        <time>2019-05-04T23:03:11Z</time>
      </trkpt>
      <trkpt lat="46.55021" lon="6.24956">
        <ele>1463</ele>
        <time>2019-05-04T23:03:25Z</time>
      </trkpt>
      <trkpt lat="46.5501" lon="6.24942">
        <ele>1464</ele>
        <time>2019-05-04T23:03:36Z</time>
      </trkpt>
      <trkpt lat="46.54994" lon="6.24928">
        <ele>1464</ele>
        <time>2019-05-04T23:03:49Z</time>
      </trkpt>
      <trkpt lat="46.54987" lon="6.24912">
        <ele>1465</ele>
        <time>2019-05-04T23:03:59Z</time>
      </trkpt>
      <trkpt lat="46.54986" lon="6.24909">
        <ele>1465</ele>
        <time>2019-05-04T23:04:00Z</time>
      </trkpt>
      <trkpt lat="46.54984" lon="6.24907">
        <ele>1465</ele>
        <time>2019-05-04T23:04:02Z</time>
      </trkpt>
      <trkpt lat="46.54982" lon="6.24903">
        <ele>1465</ele>
        <time>2019-05-04T23:04:05Z</time>
      </trkpt>
      <trkpt lat="46.5498" lon="6.24901">
        <ele>1465</ele>
        <time>2019-05-04T23:04:06Z</time>
      </trkpt>
      <trkpt lat="46.54977" lon="6.24898">
        <ele>1465</ele>
        <time>2019-05-04T23:04:09Z</time>
      </trkpt>
      <trkpt lat="46.54971" lon="6.24887">
        <ele>1465</ele>
        <time>2019-05-04T23:04:16Z</time>
      </trkpt>
      <trkpt lat="46.54969" lon="6.24887">
        <ele>1465</ele>
        <time>2019-05-04T23:04:18Z</time>
      </trkpt>
      <trkpt lat="46.54956" lon="6.2489">
        <ele>1464</ele>
        <time>2019-05-04T23:04:27Z</time>
      </trkpt>
      <trkpt lat="46.54951" lon="6.24888">
        <ele>1463</ele>
        <time>2019-05-04T23:04:31Z</time>
      </trkpt>
      <trkpt lat="46.54947" lon="6.24884">
        <ele>1463</ele>
        <time>2019-05-04T23:04:34Z</time>
      </trkpt>
      <trkpt lat="46.54943" lon="6.24862">
        <ele>1464</ele>
        <time>2019-05-04T23:04:46Z</time>
      </trkpt>
      <trkpt lat="46.54943" lon="6.24853">
        <ele>1464</ele>
        <time>2019-05-04T23:04:50Z</time>
      </trkpt>
      <trkpt lat="46.5494" lon="6.24849">
        <ele>1464</ele>
        <time>2019-05-04T23:04:53Z</time>
      </trkpt>
      <trkpt lat="46.54925" lon="6.24833">
        <ele>1463</ele>
        <time>2019-05-04T23:05:07Z</time>
      </trkpt>
      <trkpt lat="46.54915" lon="6.24809">
        <ele>1463</ele>
        <time>2019-05-04T23:05:20Z</time>
      </trkpt>
      <trkpt lat="46.54918" lon="6.24784">
        <ele>1463</ele>
        <time>2019-05-04T23:05:33Z</time>
      </trkpt>
      <trkpt lat="46.54918" lon="6.24774">
        <ele>1463</ele>
        <time>2019-05-04T23:05:38Z</time>
      </trkpt>
      <trkpt lat="46.54916" lon="6.2476">
        <ele>1463</ele>
        <time>2019-05-04T23:05:45Z</time>
      </trkpt>
      <trkpt lat="46.54914" lon="6.24751">
        <ele>1462</ele>
        <time>2019-05-04T23:05:50Z</time>
      </trkpt>
      <trkpt lat="46.54911" lon="6.24736">
        <ele>1461</ele>
        <time>2019-05-04T23:05:58Z</time>
      </trkpt>
      <trkpt lat="46.54908" lon="6.24725">
        <ele>1460</ele>
        <time>2019-05-04T23:06:04Z</time>
      </trkpt>
      <trkpt lat="46.54905" lon="6.24719">
        <ele>1460</ele>
        <time>2019-05-04T23:06:07Z</time>
      </trkpt>
      <trkpt lat="46.54899" lon="6.24704">
        <ele>1459</ele>
        <time>2019-05-04T23:06:16Z</time>
      </trkpt>
      <trkpt lat="46.54895" lon="6.2469">
        <ele>1458</ele>
        <time>2019-05-04T23:06:23Z</time>
      </trkpt>
      <trkpt lat="46.54892" lon="6.24684">
        <ele>1458</ele>
        <time>2019-05-04T23:06:27Z</time>
      </trkpt>
      <trkpt lat="46.5489" lon="6.24678">
        <ele>1458</ele>
        <time>2019-05-04T23:06:30Z</time>
      </trkpt>
      <trkpt lat="46.54888" lon="6.24673">
        <ele>1457</ele>
        <time>2019-05-04T23:06:33Z</time>
      </trkpt>
      <trkpt lat="46.54884" lon="6.24668">
        <ele>1457</ele>
        <time>2019-05-04T23:06:37Z</time>
      </trkpt>
      <trkpt lat="46.54876" lon="6.24661">
        <ele>1457</ele>
        <time>2019-05-04T23:06:44Z</time>
      </trkpt>
      <trkpt lat="46.5487" lon="6.24654">
        <ele>1456</ele>
        <time>2019-05-04T23:06:49Z</time>
      </trkpt>
      <trkpt lat="46.54865" lon="6.24638">
        <ele>1455</ele>
        <time>2019-05-04T23:06:58Z</time>
      </trkpt>
      <trkpt lat="46.54864" lon="6.24635">
        <ele>1455</ele>
        <time>2019-05-04T23:07:00Z</time>
      </trkpt>
      <trkpt lat="46.5486" lon="6.24625">
        <ele>1455</ele>
        <time>2019-05-04T23:07:06Z</time>
      </trkpt>
      <trkpt lat="46.54856" lon="6.24621">
        <ele>1455</ele>
        <time>2019-05-04T23:07:09Z</time>
      </trkpt>
      <trkpt lat="46.54852" lon="6.2462">
        <ele>1454</ele>
        <time>2019-05-04T23:07:12Z</time>
      </trkpt>
      <trkpt lat="46.54841" lon="6.24616">
        <ele>1454</ele>
        <time>2019-05-04T23:07:20Z</time>
      </trkpt>
      <trkpt lat="46.54835" lon="6.24614">
        <ele>1454</ele>
        <time>2019-05-04T23:07:25Z</time>
      </trkpt>
      <trkpt lat="46.54816" lon="6.24605">
        <ele>1453</ele>
        <time>2019-05-04T23:07:39Z</time>
      </trkpt>
      <trkpt lat="46.54803" lon="6.24594">
        <ele>1452</ele>
        <time>2019-05-04T23:07:50Z</time>
      </trkpt>
      <trkpt lat="46.54799" lon="6.2459">
        <ele>1452</ele>
        <time>2019-05-04T23:07:53Z</time>
      </trkpt>
      <trkpt lat="46.54793" lon="6.24588">
        <ele>1452</ele>
        <time>2019-05-04T23:07:58Z</time>
      </trkpt>
      <trkpt lat="46.54777" lon="6.24586">
        <ele>1451</ele>
        <time>2019-05-04T23:08:09Z</time>
      </trkpt>
      <trkpt lat="46.54772" lon="6.24584">
        <ele>1450</ele>
        <time>2019-05-04T23:08:13Z</time>
      </trkpt>
      <trkpt lat="46.54761" lon="6.24562">
        <ele>1448</ele>
        <time>2019-05-04T23:08:27Z</time>
      </trkpt>
      <trkpt lat="46.54759" lon="6.24557">
        <ele>1447</ele>
        <time>2019-05-04T23:08:30Z</time>
      </trkpt>
      <trkpt lat="46.54759" lon="6.24548">
        <ele>1447</ele>
        <time>2019-05-04T23:08:34Z</time>
      </trkpt>
      <trkpt lat="46.54758" lon="6.24544">
        <ele>1447</ele>
        <time>2019-05-04T23:08:36Z</time>
      </trkpt>
      <trkpt lat="46.54759" lon="6.24543">
        <ele>1447</ele>
        <time>2019-05-04T23:08:37Z</time>
      </trkpt>
      <trkpt lat="46.54752" lon="6.24516">
        <ele>1444</ele>
        <time>2019-05-04T23:08:52Z</time>
      </trkpt>
      <trkpt lat="46.54748" lon="6.24504">
        <ele>1444</ele>
        <time>2019-05-04T23:08:58Z</time>
      </trkpt>
      <trkpt lat="46.54743" lon="6.24492">
        <ele>1443</ele>
        <time>2019-05-04T23:09:05Z</time>
      </trkpt>
      <trkpt lat="46.5474" lon="6.2448">
        <ele>1443</ele>
        <time>2019-05-04T23:09:11Z</time>
      </trkpt>
      <trkpt lat="46.54736" lon="6.24472">
        <ele>1442</ele>
        <time>2019-05-04T23:09:16Z</time>
      </trkpt>
      <trkpt lat="46.54735" lon="6.2447">
        <ele>1442</ele>
        <time>2019-05-04T23:09:17Z</time>
      </trkpt>
      <trkpt lat="46.54738" lon="6.24455">
        <ele>1443</ele>
        <time>2019-05-04T23:09:25Z</time>
      </trkpt>
      <trkpt lat="46.54738" lon="6.24454">
        <ele>1443</ele>
        <time>2019-05-04T23:09:26Z</time>
      </trkpt>
      <trkpt lat="46.54743" lon="6.24442">
        <ele>1443</ele>
        <time>2019-05-04T23:09:32Z</time>
      </trkpt>
      <trkpt lat="46.54742" lon="6.24436">
        <ele>1443</ele>
        <time>2019-05-04T23:09:35Z</time>
      </trkpt>
      <trkpt lat="46.54737" lon="6.2443">
        <ele>1442</ele>
        <time>2019-05-04T23:09:40Z</time>
      </trkpt>
      <trkpt lat="46.54736" lon="6.2443">
        <ele>1442</ele>
        <time>2019-05-04T23:09:41Z</time>
      </trkpt>
      <trkpt lat="46.54732" lon="6.24422">
        <ele>1441</ele>
        <time>2019-05-04T23:09:46Z</time>
      </trkpt>
      <trkpt lat="46.54726" lon="6.24414">
        <ele>1441</ele>
        <time>2019-05-04T23:09:52Z</time>
      </trkpt>
      <trkpt lat="46.54715" lon="6.24392">
        <ele>1439</ele>
        <time>2019-05-04T23:10:05Z</time>
      </trkpt>
      <trkpt lat="46.54713" lon="6.2439">
        <ele>1438</ele>
        <time>2019-05-04T23:10:07Z</time>
      </trkpt>
      <trkpt lat="46.54709" lon="6.24383">
        <ele>1438</ele>
        <time>2019-05-04T23:10:12Z</time>
      </trkpt>
      <trkpt lat="46.54704" lon="6.24373">
        <ele>1437</ele>
        <time>2019-05-04T23:10:18Z</time>
      </trkpt>
      <trkpt lat="46.54696" lon="6.24364">
        <ele>1436</ele>
        <time>2019-05-04T23:10:25Z</time>
      </trkpt>
      <trkpt lat="46.5469" lon="6.24355">
        <ele>1435</ele>
        <time>2019-05-04T23:10:31Z</time>
      </trkpt>
      <trkpt lat="46.5468" lon="6.24345">
        <ele>1434</ele>
        <time>2019-05-04T23:10:40Z</time>
      </trkpt>
      <trkpt lat="46.54674" lon="6.24343">
        <ele>1434</ele>
        <time>2019-05-04T23:10:44Z</time>
      </trkpt>
      <trkpt lat="46.54667" lon="6.2434">
        <ele>1434</ele>
        <time>2019-05-04T23:10:50Z</time>
      </trkpt>
      <trkpt lat="46.54661" lon="6.24339">
        <ele>1433</ele>
        <time>2019-05-04T23:10:54Z</time>
      </trkpt>
      <trkpt lat="46.54654" lon="6.24344">
        <ele>1433</ele>
        <time>2019-05-04T23:11:00Z</time>
      </trkpt>
      <trkpt lat="46.54643" lon="6.2435">
        <ele>1432</ele>
        <time>2019-05-04T23:11:08Z</time>
      </trkpt>
      <trkpt lat="46.54624" lon="6.24352">
        <ele>1430</ele>
        <time>2019-05-04T23:11:22Z</time>
      </trkpt>
      <trkpt lat="46.54618" lon="6.24354">
        <ele>1430</ele>
        <time>2019-05-04T23:11:27Z</time>
      </trkpt>
      <trkpt lat="46.54615" lon="6.24354">
        <ele>1429</ele>
        <time>2019-05-04T23:11:29Z</time>
      </trkpt>
      <trkpt lat="46.5461" lon="6.2436">
        <ele>1429</ele>
        <time>2019-05-04T23:11:34Z</time>
      </trkpt>
      <trkpt lat="46.54606" lon="6.24376">
        <ele>1428</ele>
        <time>2019-05-04T23:11:42Z</time>
      </trkpt>
      <trkpt lat="46.54605" lon="6.24388">
        <ele>1428</ele>
        <time>2019-05-04T23:11:48Z</time>
      </trkpt>
      <trkpt lat="46.54598" lon="6.244">
        <ele>1427</ele>
        <time>2019-05-04T23:11:56Z</time>
      </trkpt>
      <trkpt lat="46.54583" lon="6.24406">
        <ele>1425</ele>
        <time>2019-05-04T23:12:07Z</time>
      </trkpt>
      <trkpt lat="46.54572" lon="6.24406">
        <ele>1424</ele>
        <time>2019-05-04T23:12:15Z</time>
      </trkpt>
      <trkpt lat="46.54564" lon="6.24397">
        <ele>1424</ele>
        <time>2019-05-04T23:12:23Z</time>
      </trkpt>
      <trkpt lat="46.54554" lon="6.24387">
        <ele>1423</ele>
        <time>2019-05-04T23:12:31Z</time>
      </trkpt>
      <trkpt lat="46.54538" lon="6.24386">
        <ele>1422</ele>
        <time>2019-05-04T23:12:43Z</time>
      </trkpt>
      <trkpt lat="46.54521" lon="6.24399">
        <ele>1420</ele>
        <time>2019-05-04T23:12:57Z</time>
      </trkpt>
      <trkpt lat="46.54519" lon="6.24399">
        <ele>1420</ele>
        <time>2019-05-04T23:12:58Z</time>
      </trkpt>
      <trkpt lat="46.54517" lon="6.24398">
        <ele>1420</ele>
        <time>2019-05-04T23:13:00Z</time>
      </trkpt>
      <trkpt lat="46.54516" lon="6.24397">
        <ele>1420</ele>
        <time>2019-05-04T23:13:01Z</time>
      </trkpt>
      <trkpt lat="46.54516" lon="6.24395">
        <ele>1420</ele>
        <time>2019-05-04T23:13:02Z</time>
      </trkpt>
      <trkpt lat="46.5451" lon="6.24392">
        <ele>1420</ele>
        <time>2019-05-04T23:13:06Z</time>
      </trkpt>
      <trkpt lat="46.54507" lon="6.24385">
        <ele>1420</ele>
        <time>2019-05-04T23:13:10Z</time>
      </trkpt>
      <trkpt lat="46.5449" lon="6.24372">
        <ele>1421</ele>
        <time>2019-05-04T23:13:25Z</time>
      </trkpt>
      <trkpt lat="46.54471" lon="6.2437">
        <ele>1420</ele>
        <time>2019-05-04T23:13:38Z</time>
      </trkpt>
      <trkpt lat="46.54458" lon="6.24382">
        <ele>1419</ele>
        <time>2019-05-04T23:13:49Z</time>
      </trkpt>
      <trkpt lat="46.54452" lon="6.24386">
        <ele>1418</ele>
        <time>2019-05-04T23:13:54Z</time>
      </trkpt>
      <trkpt lat="46.54451" lon="6.24387">
        <ele>1418</ele>
        <time>2019-05-04T23:13:55Z</time>
      </trkpt>
      <trkpt lat="46.5445" lon="6.24391">
        <ele>1417</ele>
        <time>2019-05-04T23:13:57Z</time>
      </trkpt>
      <trkpt lat="46.54448" lon="6.244">
        <ele>1416</ele>
        <time>2019-05-04T23:14:02Z</time>
      </trkpt>
      <trkpt lat="46.54444" lon="6.24411">
        <ele>1415</ele>
        <time>2019-05-04T23:14:08Z</time>
      </trkpt>
      <trkpt lat="46.54444" lon="6.24414">
        <ele>1415</ele>
        <time>2019-05-04T23:14:09Z</time>
      </trkpt>
      <trkpt lat="46.54443" lon="6.24416">
        <ele>1414</ele>
        <time>2019-05-04T23:14:11Z</time>
      </trkpt>
      <trkpt lat="46.54433" lon="6.24439">
        <ele>1410</ele>
        <time>2019-05-04T23:14:25Z</time>
      </trkpt>
      <trkpt lat="46.54423" lon="6.24451">
        <ele>1407</ele>
        <time>2019-05-04T23:14:34Z</time>
      </trkpt>
      <trkpt lat="46.54416" lon="6.24458">
        <ele>1405</ele>
        <time>2019-05-04T23:14:41Z</time>
      </trkpt>
      <trkpt lat="46.54406" lon="6.24466">
        <ele>1403</ele>
        <time>2019-05-04T23:14:49Z</time>
      </trkpt>
      <trkpt lat="46.544" lon="6.24468">
        <ele>1401</ele>
        <time>2019-05-04T23:14:54Z</time>
      </trkpt>
      <trkpt lat="46.54393" lon="6.24467">
        <ele>1400</ele>
        <time>2019-05-04T23:14:59Z</time>
      </trkpt>
      <trkpt lat="46.54382" lon="6.24467">
        <ele>1398</ele>
        <time>2019-05-04T23:15:07Z</time>
      </trkpt>
      <trkpt lat="46.54373" lon="6.24468">
        <ele>1397</ele>
        <time>2019-05-04T23:15:14Z</time>
      </trkpt>
      <trkpt lat="46.54367" lon="6.24469">
        <ele>1395</ele>
        <time>2019-05-04T23:15:18Z</time>
      </trkpt>
      <trkpt lat="46.54358" lon="6.24479">
        <ele>1392</ele>
        <time>2019-05-04T23:15:26Z</time>
      </trkpt>
      <trkpt lat="46.54359" lon="6.24479">
        <ele>1392</ele>
        <time>2019-05-04T23:15:27Z</time>
      </trkpt>
      <trkpt lat="46.54359" lon="6.24479">
        <ele>1392</ele>
        <time>2019-05-04T23:15:27Z</time>
      </trkpt>
      <trkpt lat="46.5436" lon="6.24482">
        <ele>1392</ele>
        <time>2019-05-04T23:15:28Z</time>
      </trkpt>
      <trkpt lat="46.54361" lon="6.2449">
        <ele>1391</ele>
        <time>2019-05-04T23:15:32Z</time>
      </trkpt>
      <trkpt lat="46.54362" lon="6.24493">
        <ele>1391</ele>
        <time>2019-05-04T23:15:34Z</time>
      </trkpt>
      <trkpt lat="46.54365" lon="6.245">
        <ele>1390</ele>
        <time>2019-05-04T23:15:38Z</time>
      </trkpt>
      <trkpt lat="46.54367" lon="6.24506">
        <ele>1390</ele>
        <time>2019-05-04T23:15:42Z</time>
      </trkpt>
      <trkpt lat="46.5437" lon="6.24513">
        <ele>1389</ele>
        <time>2019-05-04T23:15:46Z</time>
      </trkpt>
      <trkpt lat="46.54371" lon="6.24516">
        <ele>1389</ele>
        <time>2019-05-04T23:15:48Z</time>
      </trkpt>
      <trkpt lat="46.54372" lon="6.24519">
        <ele>1389</ele>
        <time>2019-05-04T23:15:49Z</time>
      </trkpt>
      <trkpt lat="46.54373" lon="6.24526">
        <ele>1388</ele>
        <time>2019-05-04T23:15:53Z</time>
      </trkpt>
      <trkpt lat="46.54373" lon="6.24532">
        <ele>1387</ele>
        <time>2019-05-04T23:15:56Z</time>
      </trkpt>
      <trkpt lat="46.54373" lon="6.24535">
        <ele>1387</ele>
        <time>2019-05-04T23:15:57Z</time>
      </trkpt>
      <trkpt lat="46.54377" lon="6.24542">
        <ele>1387</ele>
        <time>2019-05-04T23:16:02Z</time>
      </trkpt>
      <trkpt lat="46.54377" lon="6.24549">
        <ele>1386</ele>
        <time>2019-05-04T23:16:05Z</time>
      </trkpt>
      <trkpt lat="46.5438" lon="6.24552">
        <ele>1386</ele>
        <time>2019-05-04T23:16:07Z</time>
      </trkpt>
      <trkpt lat="46.54382" lon="6.24558">
        <ele>1386</ele>
        <time>2019-05-04T23:16:11Z</time>
      </trkpt>
      <trkpt lat="46.54388" lon="6.24568">
        <ele>1386</ele>
        <time>2019-05-04T23:16:18Z</time>
      </trkpt>
      <trkpt lat="46.54391" lon="6.24574">
        <ele>1386</ele>
        <time>2019-05-04T23:16:21Z</time>
      </trkpt>
      <trkpt lat="46.54392" lon="6.24576">
        <ele>1385</ele>
        <time>2019-05-04T23:16:23Z</time>
      </trkpt>
      <trkpt lat="46.54393" lon="6.24578">
        <ele>1385</ele>
        <time>2019-05-04T23:16:24Z</time>
      </trkpt>
      <trkpt lat="46.54395" lon="6.24581">
        <ele>1385</ele>
        <time>2019-05-04T23:16:26Z</time>
      </trkpt>
      <trkpt lat="46.544" lon="6.24593">
        <ele>1385</ele>
        <time>2019-05-04T23:16:33Z</time>
      </trkpt>
      <trkpt lat="46.54403" lon="6.24601">
        <ele>1384</ele>
        <time>2019-05-04T23:16:38Z</time>
      </trkpt>
      <trkpt lat="46.5441" lon="6.24606">
        <ele>1385</ele>
        <time>2019-05-04T23:16:43Z</time>
      </trkpt>
      <trkpt lat="46.54424" lon="6.24626">
        <ele>1386</ele>
        <time>2019-05-04T23:16:57Z</time>
      </trkpt>
      <trkpt lat="46.54425" lon="6.24632">
        <ele>1385</ele>
        <time>2019-05-04T23:17:00Z</time>
      </trkpt>
      <trkpt lat="46.54427" lon="6.24637">
        <ele>1385</ele>
        <time>2019-05-04T23:17:03Z</time>
      </trkpt>
      <trkpt lat="46.54428" lon="6.24642">
        <ele>1385</ele>
        <time>2019-05-04T23:17:06Z</time>
      </trkpt>
      <trkpt lat="46.54429" lon="6.2465">
        <ele>1384</ele>
        <time>2019-05-04T23:17:10Z</time>
      </trkpt>
      <trkpt lat="46.54431" lon="6.2466">
        <ele>1383</ele>
        <time>2019-05-04T23:17:15Z</time>
      </trkpt>
      <trkpt lat="46.54432" lon="6.24665">
        <ele>1383</ele>
        <time>2019-05-04T23:17:17Z</time>
      </trkpt>
      <trkpt lat="46.54431" lon="6.24676">
        <ele>1382</ele>
        <time>2019-05-04T23:17:23Z</time>
      </trkpt>
      <trkpt lat="46.54428" lon="6.24688">
        <ele>1380</ele>
        <time>2019-05-04T23:17:30Z</time>
      </trkpt>
      <trkpt lat="46.54421" lon="6.247">
        <ele>1378</ele>
        <time>2019-05-04T23:17:38Z</time>
      </trkpt>
      <trkpt lat="46.54412" lon="6.24709">
        <ele>1376</ele>
        <time>2019-05-04T23:17:46Z</time>
      </trkpt>
      <trkpt lat="46.5441" lon="6.24709">
        <ele>1376</ele>
        <time>2019-05-04T23:17:47Z</time>
      </trkpt>
      <trkpt lat="46.54409" lon="6.24708">
        <ele>1376</ele>
        <time>2019-05-04T23:17:48Z</time>
      </trkpt>
      <trkpt lat="46.54406" lon="6.24705">
        <ele>1376</ele>
        <time>2019-05-04T23:17:51Z</time>
      </trkpt>
      <trkpt lat="46.54403" lon="6.24713">
        <ele>1375</ele>
        <time>2019-05-04T23:17:55Z</time>
      </trkpt>
      <trkpt lat="46.54403" lon="6.2472">
        <ele>1375</ele>
        <time>2019-05-04T23:17:58Z</time>
      </trkpt>
      <trkpt lat="46.54397" lon="6.24734">
        <ele>1373</ele>
        <time>2019-05-04T23:18:06Z</time>
      </trkpt>
      <trkpt lat="46.54394" lon="6.24742">
        <ele>1372</ele>
        <time>2019-05-04T23:18:11Z</time>
      </trkpt>
      <trkpt lat="46.54392" lon="6.24751">
        <ele>1371</ele>
        <time>2019-05-04T23:18:16Z</time>
      </trkpt>
      <trkpt lat="46.54391" lon="6.24755">
        <ele>1371</ele>
        <time>2019-05-04T23:18:18Z</time>
      </trkpt>
      <trkpt lat="46.54391" lon="6.24756">
        <ele>1371</ele>
        <time>2019-05-04T23:18:19Z</time>
      </trkpt>
      <trkpt lat="46.5439" lon="6.24757">
        <ele>1371</ele>
        <time>2019-05-04T23:18:19Z</time>
      </trkpt>
      <trkpt lat="46.54383" lon="6.24762">
        <ele>1369</ele>
        <time>2019-05-04T23:18:25Z</time>
      </trkpt>
      <trkpt lat="46.54378" lon="6.24757">
        <ele>1369</ele>
        <time>2019-05-04T23:18:30Z</time>
      </trkpt>
      <trkpt lat="46.54378" lon="6.2476">
        <ele>1369</ele>
        <time>2019-05-04T23:18:31Z</time>
      </trkpt>
      <trkpt lat="46.54379" lon="6.24765">
        <ele>1368</ele>
        <time>2019-05-04T23:18:34Z</time>
      </trkpt>
      <trkpt lat="46.5438" lon="6.24768">
        <ele>1368</ele>
        <time>2019-05-04T23:18:36Z</time>
      </trkpt>
      <trkpt lat="46.54383" lon="6.24774">
        <ele>1369</ele>
        <time>2019-05-04T23:18:39Z</time>
      </trkpt>
      <trkpt lat="46.54384" lon="6.24775">
        <ele>1369</ele>
        <time>2019-05-04T23:18:40Z</time>
      </trkpt>
      <trkpt lat="46.54386" lon="6.24777">
        <ele>1369</ele>
        <time>2019-05-04T23:18:42Z</time>
      </trkpt>
      <trkpt lat="46.54386" lon="6.24779">
        <ele>1369</ele>
        <time>2019-05-04T23:18:43Z</time>
      </trkpt>
      <trkpt lat="46.54389" lon="6.24781">
        <ele>1369</ele>
        <time>2019-05-04T23:18:45Z</time>
      </trkpt>
      <trkpt lat="46.54389" lon="6.24782">
        <ele>1369</ele>
        <time>2019-05-04T23:18:45Z</time>
      </trkpt>
      <trkpt lat="46.54389" lon="6.24784">
        <ele>1369</ele>
        <time>2019-05-04T23:18:47Z</time>
      </trkpt>
      <trkpt lat="46.54389" lon="6.24789">
        <ele>1369</ele>
        <time>2019-05-04T23:18:49Z</time>
      </trkpt>
      <trkpt lat="46.54387" lon="6.24793">
        <ele>1369</ele>
        <time>2019-05-04T23:18:52Z</time>
      </trkpt>
      <trkpt lat="46.54386" lon="6.24797">
        <ele>1368</ele>
        <time>2019-05-04T23:18:54Z</time>
      </trkpt>
      <trkpt lat="46.54388" lon="6.24802">
        <ele>1368</ele>
        <time>2019-05-04T23:18:57Z</time>
      </trkpt>
      <trkpt lat="46.54388" lon="6.24803">
        <ele>1369</ele>
        <time>2019-05-04T23:18:57Z</time>
      </trkpt>
      <trkpt lat="46.54388" lon="6.24804">
        <ele>1369</ele>
        <time>2019-05-04T23:18:58Z</time>
      </trkpt>
      <trkpt lat="46.54389" lon="6.24807">
        <ele>1369</ele>
        <time>2019-05-04T23:18:59Z</time>
      </trkpt>
      <trkpt lat="46.5439" lon="6.24811">
        <ele>1368</ele>
        <time>2019-05-04T23:19:02Z</time>
      </trkpt>
      <trkpt lat="46.5439" lon="6.24812">
        <ele>1368</ele>
        <time>2019-05-04T23:19:02Z</time>
      </trkpt>
      <trkpt lat="46.54387" lon="6.24819">
        <ele>1368</ele>
        <time>2019-05-04T23:19:06Z</time>
      </trkpt>
      <trkpt lat="46.54383" lon="6.24823">
        <ele>1367</ele>
        <time>2019-05-04T23:19:10Z</time>
      </trkpt>
      <trkpt lat="46.54383" lon="6.24827">
        <ele>1367</ele>
        <time>2019-05-04T23:19:12Z</time>
      </trkpt>
      <trkpt lat="46.54383" lon="6.2483">
        <ele>1367</ele>
        <time>2019-05-04T23:19:13Z</time>
      </trkpt>
      <trkpt lat="46.54383" lon="6.24832">
        <ele>1367</ele>
        <time>2019-05-04T23:19:14Z</time>
      </trkpt>
      <trkpt lat="46.54379" lon="6.24841">
        <ele>1366</ele>
        <time>2019-05-04T23:19:19Z</time>
      </trkpt>
      <trkpt lat="46.54379" lon="6.24842">
        <ele>1366</ele>
        <time>2019-05-04T23:19:20Z</time>
      </trkpt>
      <trkpt lat="46.54368" lon="6.24833">
        <ele>1364</ele>
        <time>2019-05-04T23:19:29Z</time>
      </trkpt>
      <trkpt lat="46.54358" lon="6.24817">
        <ele>1363</ele>
        <time>2019-05-04T23:19:40Z</time>
      </trkpt>
      <trkpt lat="46.54349" lon="6.24801">
        <ele>1363</ele>
        <time>2019-05-04T23:19:50Z</time>
      </trkpt>
      <trkpt lat="46.54342" lon="6.2481">
        <ele>1362</ele>
        <time>2019-05-04T23:19:57Z</time>
      </trkpt>
      <trkpt lat="46.54341" lon="6.24811">
        <ele>1362</ele>
        <time>2019-05-04T23:19:58Z</time>
      </trkpt>
      <trkpt lat="46.54334" lon="6.24815">
        <ele>1361</ele>
        <time>2019-05-04T23:20:04Z</time>
      </trkpt>
      <trkpt lat="46.5433" lon="6.24819">
        <ele>1360</ele>
        <time>2019-05-04T23:20:07Z</time>
      </trkpt>
      <trkpt lat="46.54327" lon="6.24821">
        <ele>1360</ele>
        <time>2019-05-04T23:20:10Z</time>
      </trkpt>
      <trkpt lat="46.5432" lon="6.2483">
        <ele>1359</ele>
        <time>2019-05-04T23:20:16Z</time>
      </trkpt>
      <trkpt lat="46.54314" lon="6.24835">
        <ele>1359</ele>
        <time>2019-05-04T23:20:21Z</time>
      </trkpt>
      <trkpt lat="46.54313" lon="6.24836">
        <ele>1359</ele>
        <time>2019-05-04T23:20:22Z</time>
      </trkpt>
      <trkpt lat="46.54308" lon="6.24845">
        <ele>1358</ele>
        <time>2019-05-04T23:20:28Z</time>
      </trkpt>
      <trkpt lat="46.54307" lon="6.24842">
        <ele>1358</ele>
        <time>2019-05-04T23:20:29Z</time>
      </trkpt>
      <trkpt lat="46.54308" lon="6.24841">
        <ele>1358</ele>
        <time>2019-05-04T23:20:30Z</time>
      </trkpt>
      <trkpt lat="46.54309" lon="6.24839">
        <ele>1358</ele>
        <time>2019-05-04T23:20:31Z</time>
      </trkpt>
      <trkpt lat="46.54318" lon="6.24829">
        <ele>1359</ele>
        <time>2019-05-04T23:20:40Z</time>
      </trkpt>
      <trkpt lat="46.54333" lon="6.2481">
        <ele>1361</ele>
        <time>2019-05-04T23:20:54Z</time>
      </trkpt>
      <trkpt lat="46.54336" lon="6.24808">
        <ele>1361</ele>
        <time>2019-05-04T23:20:56Z</time>
      </trkpt>
      <trkpt lat="46.54341" lon="6.248">
        <ele>1362</ele>
        <time>2019-05-04T23:21:02Z</time>
      </trkpt>
      <trkpt lat="46.54345" lon="6.24792">
        <ele>1363</ele>
        <time>2019-05-04T23:21:07Z</time>
      </trkpt>
      <trkpt lat="46.54343" lon="6.24764">
        <ele>1363</ele>
        <time>2019-05-04T23:21:21Z</time>
      </trkpt>
      <trkpt lat="46.54334" lon="6.24742">
        <ele>1363</ele>
        <time>2019-05-04T23:21:34Z</time>
      </trkpt>
      <trkpt lat="46.54331" lon="6.24736">
        <ele>1363</ele>
        <time>2019-05-04T23:21:37Z</time>
      </trkpt>
      <trkpt lat="46.54318" lon="6.24717">
        <ele>1362</ele>
        <time>2019-05-04T23:21:51Z</time>
      </trkpt>
      <trkpt lat="46.54306" lon="6.24701">
        <ele>1362</ele>
        <time>2019-05-04T23:22:02Z</time>
      </trkpt>
      <trkpt lat="46.54292" lon="6.24683">
        <ele>1360</ele>
        <time>2019-05-04T23:22:16Z</time>
      </trkpt>
      <trkpt lat="46.54281" lon="6.24669">
        <ele>1359</ele>
        <time>2019-05-04T23:22:26Z</time>
      </trkpt>
      <trkpt lat="46.54278" lon="6.24667">
        <ele>1359</ele>
        <time>2019-05-04T23:22:29Z</time>
      </trkpt>
      <trkpt lat="46.54276" lon="6.24662">
        <ele>1359</ele>
        <time>2019-05-04T23:22:32Z</time>
      </trkpt>
      <trkpt lat="46.54275" lon="6.2466">
        <ele>1359</ele>
        <time>2019-05-04T23:22:33Z</time>
      </trkpt>
      <trkpt lat="46.54273" lon="6.24658">
        <ele>1358</ele>
        <time>2019-05-04T23:22:35Z</time>
      </trkpt>
      <trkpt lat="46.5427" lon="6.24655">
        <ele>1358</ele>
        <time>2019-05-04T23:22:37Z</time>
      </trkpt>
      <trkpt lat="46.54268" lon="6.24651">
        <ele>1358</ele>
        <time>2019-05-04T23:22:40Z</time>
      </trkpt>
      <trkpt lat="46.54258" lon="6.24627">
        <ele>1357</ele>
        <time>2019-05-04T23:22:54Z</time>
      </trkpt>
      <trkpt lat="46.54251" lon="6.24609">
        <ele>1356</ele>
        <time>2019-05-04T23:23:05Z</time>
      </trkpt>
      <trkpt lat="46.54246" lon="6.24597">
        <ele>1356</ele>
        <time>2019-05-04T23:23:11Z</time>
      </trkpt>
      <trkpt lat="46.54242" lon="6.24583">
        <ele>1356</ele>
        <time>2019-05-04T23:23:19Z</time>
      </trkpt>
      <trkpt lat="46.54235" lon="6.24561">
        <ele>1357</ele>
        <time>2019-05-04T23:23:31Z</time>
      </trkpt>
      <trkpt lat="46.54227" lon="6.24546">
        <ele>1357</ele>
        <time>2019-05-04T23:23:40Z</time>
      </trkpt>
      <trkpt lat="46.54213" lon="6.24528">
        <ele>1356</ele>
        <time>2019-05-04T23:23:54Z</time>
      </trkpt>
      <trkpt lat="46.54211" lon="6.24526">
        <ele>1355</ele>
        <time>2019-05-04T23:23:56Z</time>
      </trkpt>
      <trkpt lat="46.54194" lon="6.24513">
        <ele>1354</ele>
        <time>2019-05-04T23:24:10Z</time>
      </trkpt>
      <trkpt lat="46.54181" lon="6.24502">
        <ele>1354</ele>
        <time>2019-05-04T23:24:20Z</time>
      </trkpt>
      <trkpt lat="46.54169" lon="6.2449">
        <ele>1354</ele>
        <time>2019-05-04T23:24:31Z</time>
      </trkpt>
      <trkpt lat="46.54156" lon="6.24478">
        <ele>1354</ele>
        <time>2019-05-04T23:24:42Z</time>
      </trkpt>
      <trkpt lat="46.54141" lon="6.24461">
        <ele>1354</ele>
        <time>2019-05-04T23:24:56Z</time>
      </trkpt>
      <trkpt lat="46.54134" lon="6.24454">
        <ele>1353</ele>
        <time>2019-05-04T23:25:02Z</time>
      </trkpt>
      <trkpt lat="46.54118" lon="6.24441">
        <ele>1352</ele>
        <time>2019-05-04T23:25:16Z</time>
      </trkpt>
      <trkpt lat="46.54108" lon="6.24432">
        <ele>1351</ele>
        <time>2019-05-04T23:25:24Z</time>
      </trkpt>
      <trkpt lat="46.54091" lon="6.24425">
        <ele>1349</ele>
        <time>2019-05-04T23:25:37Z</time>
      </trkpt>
      <trkpt lat="46.54088" lon="6.24423">
        <ele>1349</ele>
        <time>2019-05-04T23:25:39Z</time>
      </trkpt>
      <trkpt lat="46.54073" lon="6.24406">
        <ele>1346</ele>
        <time>2019-05-04T23:25:53Z</time>
      </trkpt>
      <trkpt lat="46.54063" lon="6.24381">
        <ele>1344</ele>
        <time>2019-05-04T23:26:07Z</time>
      </trkpt>
      <trkpt lat="46.54061" lon="6.24371">
        <ele>1343</ele>
        <time>2019-05-04T23:26:12Z</time>
      </trkpt>
      <trkpt lat="46.54059" lon="6.24361">
        <ele>1343</ele>
        <time>2019-05-04T23:26:18Z</time>
      </trkpt>
      <trkpt lat="46.54056" lon="6.24352">
        <ele>1342</ele>
        <time>2019-05-04T23:26:23Z</time>
      </trkpt>
      <trkpt lat="46.54053" lon="6.24337">
        <ele>1342</ele>
        <time>2019-05-04T23:26:30Z</time>
      </trkpt>
      <trkpt lat="46.5405" lon="6.24317">
        <ele>1341</ele>
        <time>2019-05-04T23:26:41Z</time>
      </trkpt>
      <trkpt lat="46.54044" lon="6.24302">
        <ele>1340</ele>
        <time>2019-05-04T23:26:49Z</time>
      </trkpt>
      <trkpt lat="46.5404" lon="6.24285">
        <ele>1339</ele>
        <time>2019-05-04T23:26:58Z</time>
      </trkpt>
      <trkpt lat="46.54036" lon="6.24267">
        <ele>1339</ele>
        <time>2019-05-04T23:27:08Z</time>
      </trkpt>
      <trkpt lat="46.54031" lon="6.24245">
        <ele>1340</ele>
        <time>2019-05-04T23:27:19Z</time>
      </trkpt>
      <trkpt lat="46.54025" lon="6.24229">
        <ele>1340</ele>
        <time>2019-05-04T23:27:28Z</time>
      </trkpt>
      <trkpt lat="46.54016" lon="6.24213">
        <ele>1340</ele>
        <time>2019-05-04T23:27:38Z</time>
      </trkpt>
      <trkpt lat="46.54003" lon="6.24196">
        <ele>1339</ele>
        <time>2019-05-04T23:27:51Z</time>
      </trkpt>
      <trkpt lat="46.53985" lon="6.24186">
        <ele>1336</ele>
        <time>2019-05-04T23:28:05Z</time>
      </trkpt>
      <trkpt lat="46.53979" lon="6.24183">
        <ele>1335</ele>
        <time>2019-05-04T23:28:10Z</time>
      </trkpt>
      <trkpt lat="46.53968" lon="6.24177">
        <ele>1334</ele>
        <time>2019-05-04T23:28:18Z</time>
      </trkpt>
      <trkpt lat="46.53962" lon="6.24175">
        <ele>1333</ele>
        <time>2019-05-04T23:28:23Z</time>
      </trkpt>
      <trkpt lat="46.53954" lon="6.24168">
        <ele>1332</ele>
        <time>2019-05-04T23:28:30Z</time>
      </trkpt>
      <trkpt lat="46.53946" lon="6.24161">
        <ele>1330</ele>
        <time>2019-05-04T23:28:36Z</time>
      </trkpt>
      <trkpt lat="46.53934" lon="6.24146">
        <ele>1329</ele>
        <time>2019-05-04T23:28:47Z</time>
      </trkpt>
      <trkpt lat="46.53921" lon="6.24128">
        <ele>1328</ele>
        <time>2019-05-04T23:29:01Z</time>
      </trkpt>
      <trkpt lat="46.53914" lon="6.24119">
        <ele>1327</ele>
        <time>2019-05-04T23:29:08Z</time>
      </trkpt>
      <trkpt lat="46.53899" lon="6.241">
        <ele>1325</ele>
        <time>2019-05-04T23:29:22Z</time>
      </trkpt>
      <trkpt lat="46.53895" lon="6.24095">
        <ele>1324</ele>
        <time>2019-05-04T23:29:26Z</time>
      </trkpt>
      <trkpt lat="46.53893" lon="6.24091">
        <ele>1324</ele>
        <time>2019-05-04T23:29:28Z</time>
      </trkpt>
      <trkpt lat="46.53889" lon="6.24087">
        <ele>1323</ele>
        <time>2019-05-04T23:29:32Z</time>
      </trkpt>
      <trkpt lat="46.53884" lon="6.24084">
        <ele>1323</ele>
        <time>2019-05-04T23:29:36Z</time>
      </trkpt>
      <trkpt lat="46.53876" lon="6.24077">
        <ele>1321</ele>
        <time>2019-05-04T23:29:43Z</time>
      </trkpt>
      <trkpt lat="46.53872" lon="6.24071">
        <ele>1321</ele>
        <time>2019-05-04T23:29:47Z</time>
      </trkpt>
      <trkpt lat="46.53868" lon="6.24068">
        <ele>1320</ele>
        <time>2019-05-04T23:29:50Z</time>
      </trkpt>
      <trkpt lat="46.53865" lon="6.24065">
        <ele>1320</ele>
        <time>2019-05-04T23:29:52Z</time>
      </trkpt>
      <trkpt lat="46.53862" lon="6.24062">
        <ele>1319</ele>
        <time>2019-05-04T23:29:56Z</time>
      </trkpt>
      <trkpt lat="46.53851" lon="6.24052">
        <ele>1318</ele>
        <time>2019-05-04T23:30:05Z</time>
      </trkpt>
      <trkpt lat="46.53846" lon="6.24048">
        <ele>1317</ele>
        <time>2019-05-04T23:30:09Z</time>
      </trkpt>
      <trkpt lat="46.53829" lon="6.24039">
        <ele>1315</ele>
        <time>2019-05-04T23:30:22Z</time>
      </trkpt>
      <trkpt lat="46.53816" lon="6.24024">
        <ele>1313</ele>
        <time>2019-05-04T23:30:34Z</time>
      </trkpt>
      <trkpt lat="46.53807" lon="6.24017">
        <ele>1312</ele>
        <time>2019-05-04T23:30:42Z</time>
      </trkpt>
      <trkpt lat="46.53794" lon="6.24006">
        <ele>1310</ele>
        <time>2019-05-04T23:30:52Z</time>
      </trkpt>
      <trkpt lat="46.53788" lon="6.24003">
        <ele>1309</ele>
        <time>2019-05-04T23:30:57Z</time>
      </trkpt>
      <trkpt lat="46.53782" lon="6.24001">
        <ele>1308</ele>
        <time>2019-05-04T23:31:02Z</time>
      </trkpt>
      <trkpt lat="46.53776" lon="6.24">
        <ele>1307</ele>
        <time>2019-05-04T23:31:06Z</time>
      </trkpt>
      <trkpt lat="46.53767" lon="6.24002">
        <ele>1307</ele>
        <time>2019-05-04T23:31:12Z</time>
      </trkpt>
      <trkpt lat="46.53748" lon="6.24009">
        <ele>1306</ele>
        <time>2019-05-04T23:31:27Z</time>
      </trkpt>
      <trkpt lat="46.53731" lon="6.24015">
        <ele>1306</ele>
        <time>2019-05-04T23:31:39Z</time>
      </trkpt>
      <trkpt lat="46.53719" lon="6.24015">
        <ele>1306</ele>
        <time>2019-05-04T23:31:48Z</time>
      </trkpt>
      <trkpt lat="46.53722" lon="6.24013">
        <ele>1306</ele>
        <time>2019-05-04T23:31:51Z</time>
      </trkpt>
      <trkpt lat="46.53727" lon="6.24011">
        <ele>1306</ele>
        <time>2019-05-04T23:31:54Z</time>
      </trkpt>
      <trkpt lat="46.53731" lon="6.23984">
        <ele>1305</ele>
        <time>2019-05-04T23:32:08Z</time>
      </trkpt>
      <trkpt lat="46.53729" lon="6.23968">
        <ele>1305</ele>
        <time>2019-05-04T23:32:17Z</time>
      </trkpt>
      <trkpt lat="46.5372" lon="6.23944">
        <ele>1303</ele>
        <time>2019-05-04T23:32:30Z</time>
      </trkpt>
      <trkpt lat="46.53711" lon="6.23921">
        <ele>1302</ele>
        <time>2019-05-04T23:32:43Z</time>
      </trkpt>
      <trkpt lat="46.53702" lon="6.23904">
        <ele>1300</ele>
        <time>2019-05-04T23:32:54Z</time>
      </trkpt>
      <trkpt lat="46.53697" lon="6.23893">
        <ele>1299</ele>
        <time>2019-05-04T23:33:01Z</time>
      </trkpt>
      <trkpt lat="46.53692" lon="6.23887">
        <ele>1298</ele>
        <time>2019-05-04T23:33:05Z</time>
      </trkpt>
      <trkpt lat="46.53688" lon="6.23882">
        <ele>1298</ele>
        <time>2019-05-04T23:33:09Z</time>
      </trkpt>
      <trkpt lat="46.5368" lon="6.23875">
        <ele>1298</ele>
        <time>2019-05-04T23:33:16Z</time>
      </trkpt>
      <trkpt lat="46.53669" lon="6.23866">
        <ele>1297</ele>
        <time>2019-05-04T23:33:25Z</time>
      </trkpt>
      <trkpt lat="46.53661" lon="6.23859">
        <ele>1297</ele>
        <time>2019-05-04T23:33:32Z</time>
      </trkpt>
      <trkpt lat="46.53654" lon="6.23852">
        <ele>1296</ele>
        <time>2019-05-04T23:33:38Z</time>
      </trkpt>
      <trkpt lat="46.53642" lon="6.23836">
        <ele>1296</ele>
        <time>2019-05-04T23:33:50Z</time>
      </trkpt>
      <trkpt lat="46.53627" lon="6.23822">
        <ele>1296</ele>
        <time>2019-05-04T23:34:03Z</time>
      </trkpt>
      <trkpt lat="46.53616" lon="6.23808">
        <ele>1295</ele>
        <time>2019-05-04T23:34:13Z</time>
      </trkpt>
      <trkpt lat="46.53607" lon="6.23798">
        <ele>1294</ele>
        <time>2019-05-04T23:34:21Z</time>
      </trkpt>
      <trkpt lat="46.53596" lon="6.23781">
        <ele>1295</ele>
        <time>2019-05-04T23:34:33Z</time>
      </trkpt>
      <trkpt lat="46.53581" lon="6.23764">
        <ele>1297</ele>
        <time>2019-05-04T23:34:47Z</time>
      </trkpt>
      <trkpt lat="46.53572" lon="6.23753">
        <ele>1299</ele>
        <time>2019-05-04T23:34:55Z</time>
      </trkpt>
      <trkpt lat="46.53557" lon="6.23736">
        <ele>1300</ele>
        <time>2019-05-04T23:35:10Z</time>
      </trkpt>
      <trkpt lat="46.53541" lon="6.23736">
        <ele>1301</ele>
        <time>2019-05-04T23:35:21Z</time>
      </trkpt>
      <trkpt lat="46.5354" lon="6.23736">
        <ele>1301</ele>
        <time>2019-05-04T23:35:22Z</time>
      </trkpt>
      <trkpt lat="46.53536" lon="6.23733">
        <ele>1301</ele>
        <time>2019-05-04T23:35:24Z</time>
      </trkpt>
      <trkpt lat="46.53535" lon="6.23732">
        <ele>1301</ele>
        <time>2019-05-04T23:35:26Z</time>
      </trkpt>
      <trkpt lat="46.53533" lon="6.23733">
        <ele>1301</ele>
        <time>2019-05-04T23:35:27Z</time>
      </trkpt>
      <trkpt lat="46.53519" lon="6.23718">
        <ele>1301</ele>
        <time>2019-05-04T23:35:40Z</time>
      </trkpt>
      <trkpt lat="46.53502" lon="6.23705">
        <ele>1300</ele>
        <time>2019-05-04T23:35:53Z</time>
      </trkpt>
      <trkpt lat="46.53485" lon="6.2369">
        <ele>1299</ele>
        <time>2019-05-04T23:36:08Z</time>
      </trkpt>
      <trkpt lat="46.53477" lon="6.23685">
        <ele>1298</ele>
        <time>2019-05-04T23:36:14Z</time>
      </trkpt>
      <trkpt lat="46.53459" lon="6.23675">
        <ele>1299</ele>
        <time>2019-05-04T23:36:28Z</time>
      </trkpt>
      <trkpt lat="46.53441" lon="6.23667">
        <ele>1298</ele>
        <time>2019-05-04T23:36:42Z</time>
      </trkpt>
      <trkpt lat="46.53436" lon="6.23664">
        <ele>1299</ele>
        <time>2019-05-04T23:36:45Z</time>
      </trkpt>
      <trkpt lat="46.5342" lon="6.23654">
        <ele>1300</ele>
        <time>2019-05-04T23:36:58Z</time>
      </trkpt>
      <trkpt lat="46.53401" lon="6.23662">
        <ele>1299</ele>
        <time>2019-05-04T23:37:13Z</time>
      </trkpt>
      <trkpt lat="46.53383" lon="6.23656">
        <ele>1300</ele>
        <time>2019-05-04T23:37:26Z</time>
      </trkpt>
      <trkpt lat="46.53377" lon="6.23647">
        <ele>1300</ele>
        <time>2019-05-04T23:37:32Z</time>
      </trkpt>
      <trkpt lat="46.53365" lon="6.23625">
        <ele>1300</ele>
        <time>2019-05-04T23:37:46Z</time>
      </trkpt>
      <trkpt lat="46.5336" lon="6.2362">
        <ele>1300</ele>
        <time>2019-05-04T23:37:50Z</time>
      </trkpt>
      <trkpt lat="46.53359" lon="6.23619">
        <ele>1300</ele>
        <time>2019-05-04T23:37:51Z</time>
      </trkpt>
      <trkpt lat="46.53342" lon="6.23609">
        <ele>1301</ele>
        <time>2019-05-04T23:38:04Z</time>
      </trkpt>
      <trkpt lat="46.53338" lon="6.23605">
        <ele>1302</ele>
        <time>2019-05-04T23:38:08Z</time>
      </trkpt>
      <trkpt lat="46.5333" lon="6.23603">
        <ele>1303</ele>
        <time>2019-05-04T23:38:14Z</time>
      </trkpt>
      <trkpt lat="46.53318" lon="6.23599">
        <ele>1304</ele>
        <time>2019-05-04T23:38:23Z</time>
      </trkpt>
      <trkpt lat="46.53318" lon="6.23592">
        <ele>1304</ele>
        <time>2019-05-04T23:38:26Z</time>
      </trkpt>
      <trkpt lat="46.53322" lon="6.23575">
        <ele>1305</ele>
        <time>2019-05-04T23:38:35Z</time>
      </trkpt>
      <trkpt lat="46.5332" lon="6.23573">
        <ele>1305</ele>
        <time>2019-05-04T23:38:37Z</time>
      </trkpt>
      <trkpt lat="46.53318" lon="6.2357">
        <ele>1306</ele>
        <time>2019-05-04T23:38:39Z</time>
      </trkpt>
      <trkpt lat="46.53317" lon="6.2357">
        <ele>1306</ele>
        <time>2019-05-04T23:38:40Z</time>
      </trkpt>
      <trkpt lat="46.53316" lon="6.23571">
        <ele>1306</ele>
        <time>2019-05-04T23:38:41Z</time>
      </trkpt>
      <trkpt lat="46.53312" lon="6.23563">
        <ele>1306</ele>
        <time>2019-05-04T23:38:46Z</time>
      </trkpt>
      <trkpt lat="46.53312" lon="6.23582">
        <ele>1305</ele>
        <time>2019-05-04T23:38:56Z</time>
      </trkpt>
      <trkpt lat="46.53307" lon="6.23582">
        <ele>1305</ele>
        <time>2019-05-04T23:39:00Z</time>
      </trkpt>
      <trkpt lat="46.53288" lon="6.23583">
        <ele>1306</ele>
        <time>2019-05-04T23:39:14Z</time>
      </trkpt>
      <trkpt lat="46.53277" lon="6.23563">
        <ele>1306</ele>
        <time>2019-05-04T23:39:26Z</time>
      </trkpt>
      <trkpt lat="46.53273" lon="6.23549">
        <ele>1306</ele>
        <time>2019-05-04T23:39:34Z</time>
      </trkpt>
      <trkpt lat="46.53272" lon="6.23548">
        <ele>1306</ele>
        <time>2019-05-04T23:39:34Z</time>
      </trkpt>
      <trkpt lat="46.53271" lon="6.23544">
        <ele>1307</ele>
        <time>2019-05-04T23:39:37Z</time>
      </trkpt>
      <trkpt lat="46.53268" lon="6.23542">
        <ele>1307</ele>
        <time>2019-05-04T23:39:39Z</time>
      </trkpt>
      <trkpt lat="46.53267" lon="6.23542">
        <ele>1307</ele>
        <time>2019-05-04T23:39:40Z</time>
      </trkpt>
      <trkpt lat="46.53265" lon="6.23542">
        <ele>1307</ele>
        <time>2019-05-04T23:39:41Z</time>
      </trkpt>
      <trkpt lat="46.53264" lon="6.23543">
        <ele>1307</ele>
        <time>2019-05-04T23:39:42Z</time>
      </trkpt>
      <trkpt lat="46.5326" lon="6.23543">
        <ele>1307</ele>
        <time>2019-05-04T23:39:45Z</time>
      </trkpt>
      <trkpt lat="46.53252" lon="6.23543">
        <ele>1307</ele>
        <time>2019-05-04T23:39:51Z</time>
      </trkpt>
      <trkpt lat="46.53249" lon="6.23543">
        <ele>1308</ele>
        <time>2019-05-04T23:39:53Z</time>
      </trkpt>
      <trkpt lat="46.5324" lon="6.23541">
        <ele>1308</ele>
        <time>2019-05-04T23:39:59Z</time>
      </trkpt>
      <trkpt lat="46.53224" lon="6.23529">
        <ele>1308</ele>
        <time>2019-05-04T23:40:13Z</time>
      </trkpt>
      <trkpt lat="46.53223" lon="6.23525">
        <ele>1308</ele>
        <time>2019-05-04T23:40:15Z</time>
      </trkpt>
      <trkpt lat="46.53212" lon="6.23513">
        <ele>1309</ele>
        <time>2019-05-04T23:40:25Z</time>
      </trkpt>
      <trkpt lat="46.53194" lon="6.23506">
        <ele>1310</ele>
        <time>2019-05-04T23:40:38Z</time>
      </trkpt>
      <trkpt lat="46.53186" lon="6.23504">
        <ele>1310</ele>
        <time>2019-05-04T23:40:44Z</time>
      </trkpt>
      <trkpt lat="46.53169" lon="6.2349">
        <ele>1312</ele>
        <time>2019-05-04T23:40:58Z</time>
      </trkpt>
      <trkpt lat="46.53153" lon="6.23473">
        <ele>1314</ele>
        <time>2019-05-04T23:41:13Z</time>
      </trkpt>
      <trkpt lat="46.53138" lon="6.23455">
        <ele>1314</ele>
        <time>2019-05-04T23:41:27Z</time>
      </trkpt>
      <trkpt lat="46.53133" lon="6.23445">
        <ele>1315</ele>
        <time>2019-05-04T23:41:33Z</time>
      </trkpt>
      <trkpt lat="46.53119" lon="6.23423">
        <ele>1314</ele>
        <time>2019-05-04T23:41:48Z</time>
      </trkpt>
      <trkpt lat="46.53107" lon="6.23402">
        <ele>1313</ele>
        <time>2019-05-04T23:42:01Z</time>
      </trkpt>
      <trkpt lat="46.53095" lon="6.23382">
        <ele>1313</ele>
        <time>2019-05-04T23:42:15Z</time>
      </trkpt>
      <trkpt lat="46.5308" lon="6.23366">
        <ele>1313</ele>
        <time>2019-05-04T23:42:28Z</time>
      </trkpt>
      <trkpt lat="46.53067" lon="6.23344">
        <ele>1314</ele>
        <time>2019-05-04T23:42:42Z</time>
      </trkpt>
      <trkpt lat="46.53062" lon="6.23322">
        <ele>1317</ele>
        <time>2019-05-04T23:42:54Z</time>
      </trkpt>
      <trkpt lat="46.53062" lon="6.2332">
        <ele>1317</ele>
        <time>2019-05-04T23:42:55Z</time>
      </trkpt>
      <trkpt lat="46.53064" lon="6.23322">
        <ele>1317</ele>
        <time>2019-05-04T23:42:57Z</time>
      </trkpt>
      <trkpt lat="46.53065" lon="6.23324">
        <ele>1317</ele>
        <time>2019-05-04T23:42:58Z</time>
      </trkpt>
      <trkpt lat="46.53066" lon="6.23325">
        <ele>1317</ele>
        <time>2019-05-04T23:42:58Z</time>
      </trkpt>
      <trkpt lat="46.53066" lon="6.23327">
        <ele>1316</ele>
        <time>2019-05-04T23:43:00Z</time>
      </trkpt>
      <trkpt lat="46.53067" lon="6.23328">
        <ele>1316</ele>
        <time>2019-05-04T23:43:01Z</time>
      </trkpt>
      <trkpt lat="46.53071" lon="6.23343">
        <ele>1314</ele>
        <time>2019-05-04T23:43:09Z</time>
      </trkpt>
      <trkpt lat="46.53057" lon="6.23354">
        <ele>1313</ele>
        <time>2019-05-04T23:43:20Z</time>
      </trkpt>
      <trkpt lat="46.53039" lon="6.23345">
        <ele>1315</ele>
        <time>2019-05-04T23:43:34Z</time>
      </trkpt>
      <trkpt lat="46.53026" lon="6.23326">
        <ele>1317</ele>
        <time>2019-05-04T23:43:48Z</time>
      </trkpt>
      <trkpt lat="46.53024" lon="6.23322">
        <ele>1317</ele>
        <time>2019-05-04T23:43:50Z</time>
      </trkpt>
      <trkpt lat="46.53014" lon="6.23303">
        <ele>1320</ele>
        <time>2019-05-04T23:44:02Z</time>
      </trkpt>
      <trkpt lat="46.53006" lon="6.23295">
        <ele>1321</ele>
        <time>2019-05-04T23:44:10Z</time>
      </trkpt>
      <trkpt lat="46.53" lon="6.23281">
        <ele>1322</ele>
        <time>2019-05-04T23:44:17Z</time>
      </trkpt>
      <trkpt lat="46.52998" lon="6.23278">
        <ele>1323</ele>
        <time>2019-05-04T23:44:20Z</time>
      </trkpt>
      <trkpt lat="46.52998" lon="6.23274">
        <ele>1323</ele>
        <time>2019-05-04T23:44:21Z</time>
      </trkpt>
      <trkpt lat="46.52997" lon="6.23273">
        <ele>1323</ele>
        <time>2019-05-04T23:44:22Z</time>
      </trkpt>
      <trkpt lat="46.52995" lon="6.23267">
        <ele>1324</ele>
        <time>2019-05-04T23:44:25Z</time>
      </trkpt>
      <trkpt lat="46.52988" lon="6.23254">
        <ele>1327</ele>
        <time>2019-05-04T23:44:34Z</time>
      </trkpt>
      <trkpt lat="46.52985" lon="6.23246">
        <ele>1328</ele>
        <time>2019-05-04T23:44:39Z</time>
      </trkpt>
      <trkpt lat="46.52983" lon="6.23243">
        <ele>1329</ele>
        <time>2019-05-04T23:44:41Z</time>
      </trkpt>
      <trkpt lat="46.52981" lon="6.23239">
        <ele>1330</ele>
        <time>2019-05-04T23:44:44Z</time>
      </trkpt>
      <trkpt lat="46.5298" lon="6.23234">
        <ele>1330</ele>
        <time>2019-05-04T23:44:46Z</time>
      </trkpt>
      <trkpt lat="46.52978" lon="6.23232">
        <ele>1331</ele>
        <time>2019-05-04T23:44:48Z</time>
      </trkpt>
      <trkpt lat="46.52976" lon="6.23231">
        <ele>1331</ele>
        <time>2019-05-04T23:44:49Z</time>
      </trkpt>
      <trkpt lat="46.52974" lon="6.23226">
        <ele>1332</ele>
        <time>2019-05-04T23:44:52Z</time>
      </trkpt>
      <trkpt lat="46.52971" lon="6.23223">
        <ele>1332</ele>
        <time>2019-05-04T23:44:55Z</time>
      </trkpt>
      <trkpt lat="46.5297" lon="6.23221">
        <ele>1332</ele>
        <time>2019-05-04T23:44:56Z</time>
      </trkpt>
      <trkpt lat="46.52969" lon="6.23221">
        <ele>1332</ele>
        <time>2019-05-04T23:44:57Z</time>
      </trkpt>
      <trkpt lat="46.52968" lon="6.23221">
        <ele>1332</ele>
        <time>2019-05-04T23:44:57Z</time>
      </trkpt>
      <trkpt lat="46.52966" lon="6.23223">
        <ele>1332</ele>
        <time>2019-05-04T23:44:59Z</time>
      </trkpt>
      <trkpt lat="46.52965" lon="6.23221">
        <ele>1332</ele>
        <time>2019-05-04T23:45:00Z</time>
      </trkpt>
      <trkpt lat="46.52962" lon="6.23222">
        <ele>1332</ele>
        <time>2019-05-04T23:45:03Z</time>
      </trkpt>
      <trkpt lat="46.52961" lon="6.23222">
        <ele>1332</ele>
        <time>2019-05-04T23:45:04Z</time>
      </trkpt>
      <trkpt lat="46.52957" lon="6.2322">
        <ele>1332</ele>
        <time>2019-05-04T23:45:06Z</time>
      </trkpt>
      <trkpt lat="46.52953" lon="6.23218">
        <ele>1332</ele>
        <time>2019-05-04T23:45:09Z</time>
      </trkpt>
      <trkpt lat="46.52952" lon="6.23212">
        <ele>1333</ele>
        <time>2019-05-04T23:45:13Z</time>
      </trkpt>
      <trkpt lat="46.5295" lon="6.23212">
        <ele>1333</ele>
        <time>2019-05-04T23:45:13Z</time>
      </trkpt>
      <trkpt lat="46.52949" lon="6.23207">
        <ele>1333</ele>
        <time>2019-05-04T23:45:16Z</time>
      </trkpt>
      <trkpt lat="46.52949" lon="6.23205">
        <ele>1334</ele>
        <time>2019-05-04T23:45:17Z</time>
      </trkpt>
      <trkpt lat="46.52946" lon="6.23201">
        <ele>1334</ele>
        <time>2019-05-04T23:45:20Z</time>
      </trkpt>
      <trkpt lat="46.52944" lon="6.232">
        <ele>1334</ele>
        <time>2019-05-04T23:45:21Z</time>
      </trkpt>
      <trkpt lat="46.52943" lon="6.232">
        <ele>1334</ele>
        <time>2019-05-04T23:45:22Z</time>
      </trkpt>
      <trkpt lat="46.52941" lon="6.23198">
        <ele>1334</ele>
        <time>2019-05-04T23:45:24Z</time>
      </trkpt>
      <trkpt lat="46.52941" lon="6.23195">
        <ele>1334</ele>
        <time>2019-05-04T23:45:25Z</time>
      </trkpt>
      <trkpt lat="46.52939" lon="6.23194">
        <ele>1334</ele>
        <time>2019-05-04T23:45:26Z</time>
      </trkpt>
      <trkpt lat="46.52939" lon="6.23191">
        <ele>1335</ele>
        <time>2019-05-04T23:45:28Z</time>
      </trkpt>
      <trkpt lat="46.52938" lon="6.2319">
        <ele>1335</ele>
        <time>2019-05-04T23:45:29Z</time>
      </trkpt>
      <trkpt lat="46.52936" lon="6.23185">
        <ele>1336</ele>
        <time>2019-05-04T23:45:32Z</time>
      </trkpt>
      <trkpt lat="46.52934" lon="6.23186">
        <ele>1335</ele>
        <time>2019-05-04T23:45:33Z</time>
      </trkpt>
      <trkpt lat="46.52933" lon="6.23185">
        <ele>1335</ele>
        <time>2019-05-04T23:45:34Z</time>
      </trkpt>
      <trkpt lat="46.52932" lon="6.23185">
        <ele>1336</ele>
        <time>2019-05-04T23:45:35Z</time>
      </trkpt>
      <trkpt lat="46.52931" lon="6.2318">
        <ele>1336</ele>
        <time>2019-05-04T23:45:37Z</time>
      </trkpt>
      <trkpt lat="46.52932" lon="6.23172">
        <ele>1338</ele>
        <time>2019-05-04T23:45:41Z</time>
      </trkpt>
      <trkpt lat="46.52931" lon="6.23166">
        <ele>1339</ele>
        <time>2019-05-04T23:45:45Z</time>
      </trkpt>
      <trkpt lat="46.52931" lon="6.23165">
        <ele>1339</ele>
        <time>2019-05-04T23:45:45Z</time>
      </trkpt>
      <trkpt lat="46.52931" lon="6.23164">
        <ele>1339</ele>
        <time>2019-05-04T23:45:46Z</time>
      </trkpt>
      <trkpt lat="46.52928" lon="6.23162">
        <ele>1340</ele>
        <time>2019-05-04T23:45:48Z</time>
      </trkpt>
      <trkpt lat="46.52927" lon="6.23161">
        <ele>1340</ele>
        <time>2019-05-04T23:45:49Z</time>
      </trkpt>
      <trkpt lat="46.52925" lon="6.2316">
        <ele>1340</ele>
        <time>2019-05-04T23:45:50Z</time>
      </trkpt>
      <trkpt lat="46.52921" lon="6.23163">
        <ele>1340</ele>
        <time>2019-05-04T23:45:54Z</time>
      </trkpt>
      <trkpt lat="46.52918" lon="6.23165">
        <ele>1339</ele>
        <time>2019-05-04T23:45:56Z</time>
      </trkpt>
      <trkpt lat="46.52919" lon="6.23161">
        <ele>1340</ele>
        <time>2019-05-04T23:45:58Z</time>
      </trkpt>
      <trkpt lat="46.52918" lon="6.23161">
        <ele>1340</ele>
        <time>2019-05-04T23:45:58Z</time>
      </trkpt>
      <trkpt lat="46.52919" lon="6.23161">
        <ele>1340</ele>
        <time>2019-05-04T23:45:59Z</time>
      </trkpt>
      <trkpt lat="46.52915" lon="6.23156">
        <ele>1341</ele>
        <time>2019-05-04T23:46:02Z</time>
      </trkpt>
      <trkpt lat="46.52913" lon="6.23156">
        <ele>1341</ele>
        <time>2019-05-04T23:46:03Z</time>
      </trkpt>
      <trkpt lat="46.5291" lon="6.23145">
        <ele>1343</ele>
        <time>2019-05-04T23:46:09Z</time>
      </trkpt>
      <trkpt lat="46.52908" lon="6.2314">
        <ele>1344</ele>
        <time>2019-05-04T23:46:12Z</time>
      </trkpt>
      <trkpt lat="46.52898" lon="6.23118">
        <ele>1347</ele>
        <time>2019-05-04T23:46:25Z</time>
      </trkpt>
      <trkpt lat="46.52886" lon="6.23108">
        <ele>1348</ele>
        <time>2019-05-04T23:46:36Z</time>
      </trkpt>
      <trkpt lat="46.52876" lon="6.23101">
        <ele>1350</ele>
        <time>2019-05-04T23:46:44Z</time>
      </trkpt>
      <trkpt lat="46.52874" lon="6.23098">
        <ele>1350</ele>
        <time>2019-05-04T23:46:45Z</time>
      </trkpt>
      <trkpt lat="46.52873" lon="6.23094">
        <ele>1352</ele>
        <time>2019-05-04T23:46:48Z</time>
      </trkpt>
      <trkpt lat="46.52871" lon="6.23095">
        <ele>1351</ele>
        <time>2019-05-04T23:46:50Z</time>
      </trkpt>
      <trkpt lat="46.52869" lon="6.23097">
        <ele>1350</ele>
        <time>2019-05-04T23:46:51Z</time>
      </trkpt>
      <trkpt lat="46.52867" lon="6.231">
        <ele>1350</ele>
        <time>2019-05-04T23:46:53Z</time>
      </trkpt>
      <trkpt lat="46.52864" lon="6.23102">
        <ele>1349</ele>
        <time>2019-05-04T23:46:56Z</time>
      </trkpt>
      <trkpt lat="46.52862" lon="6.23104">
        <ele>1348</ele>
        <time>2019-05-04T23:46:58Z</time>
      </trkpt>
      <trkpt lat="46.5286" lon="6.23108">
        <ele>1348</ele>
        <time>2019-05-04T23:47:00Z</time>
      </trkpt>
      <trkpt lat="46.52859" lon="6.23111">
        <ele>1347</ele>
        <time>2019-05-04T23:47:02Z</time>
      </trkpt>
      <trkpt lat="46.52845" lon="6.23108">
        <ele>1348</ele>
        <time>2019-05-04T23:47:12Z</time>
      </trkpt>
      <trkpt lat="46.52842" lon="6.23107">
        <ele>1348</ele>
        <time>2019-05-04T23:47:14Z</time>
      </trkpt>
      <trkpt lat="46.52841" lon="6.23106">
        <ele>1348</ele>
        <time>2019-05-04T23:47:16Z</time>
      </trkpt>
      <trkpt lat="46.52832" lon="6.23106">
        <ele>1349</ele>
        <time>2019-05-04T23:47:22Z</time>
      </trkpt>
      <trkpt lat="46.52831" lon="6.23107">
        <ele>1349</ele>
        <time>2019-05-04T23:47:23Z</time>
      </trkpt>
      <trkpt lat="46.5283" lon="6.23107">
        <ele>1349</ele>
        <time>2019-05-04T23:47:23Z</time>
      </trkpt>
      <trkpt lat="46.52824" lon="6.23107">
        <ele>1349</ele>
        <time>2019-05-04T23:47:28Z</time>
      </trkpt>
      <trkpt lat="46.52818" lon="6.23102">
        <ele>1350</ele>
        <time>2019-05-04T23:47:33Z</time>
      </trkpt>
      <trkpt lat="46.52815" lon="6.23104">
        <ele>1350</ele>
        <time>2019-05-04T23:47:35Z</time>
      </trkpt>
      <trkpt lat="46.52812" lon="6.23096">
        <ele>1351</ele>
        <time>2019-05-04T23:47:39Z</time>
      </trkpt>
      <trkpt lat="46.52812" lon="6.23096">
        <ele>1352</ele>
        <time>2019-05-04T23:47:40Z</time>
      </trkpt>
      <trkpt lat="46.52805" lon="6.23095">
        <ele>1352</ele>
        <time>2019-05-04T23:47:45Z</time>
      </trkpt>
      <trkpt lat="46.52802" lon="6.23094">
        <ele>1352</ele>
        <time>2019-05-04T23:47:47Z</time>
      </trkpt>
      <trkpt lat="46.52801" lon="6.23094">
        <ele>1352</ele>
        <time>2019-05-04T23:47:48Z</time>
      </trkpt>
      <trkpt lat="46.52799" lon="6.23092">
        <ele>1352</ele>
        <time>2019-05-04T23:47:49Z</time>
      </trkpt>
      <trkpt lat="46.52795" lon="6.23093">
        <ele>1352</ele>
        <time>2019-05-04T23:47:53Z</time>
      </trkpt>
      <trkpt lat="46.52794" lon="6.23092">
        <ele>1353</ele>
        <time>2019-05-04T23:47:53Z</time>
      </trkpt>
      <trkpt lat="46.52793" lon="6.23089">
        <ele>1353</ele>
        <time>2019-05-04T23:47:55Z</time>
      </trkpt>
      <trkpt lat="46.52786" lon="6.23076">
        <ele>1355</ele>
        <time>2019-05-04T23:48:04Z</time>
      </trkpt>
      <trkpt lat="46.52785" lon="6.23074">
        <ele>1356</ele>
        <time>2019-05-04T23:48:05Z</time>
      </trkpt>
      <trkpt lat="46.52784" lon="6.23071">
        <ele>1356</ele>
        <time>2019-05-04T23:48:06Z</time>
      </trkpt>
      <trkpt lat="46.52783" lon="6.23068">
        <ele>1357</ele>
        <time>2019-05-04T23:48:08Z</time>
      </trkpt>
      <trkpt lat="46.52782" lon="6.23066">
        <ele>1357</ele>
        <time>2019-05-04T23:48:10Z</time>
      </trkpt>
      <trkpt lat="46.52782" lon="6.23067">
        <ele>1357</ele>
        <time>2019-05-04T23:48:10Z</time>
      </trkpt>
      <trkpt lat="46.52778" lon="6.23067">
        <ele>1357</ele>
        <time>2019-05-04T23:48:13Z</time>
      </trkpt>
      <trkpt lat="46.52777" lon="6.23066">
        <ele>1357</ele>
        <time>2019-05-04T23:48:14Z</time>
      </trkpt>
      <trkpt lat="46.52775" lon="6.23066">
        <ele>1357</ele>
        <time>2019-05-04T23:48:15Z</time>
      </trkpt>
      <trkpt lat="46.5276" lon="6.23054">
        <ele>1359</ele>
        <time>2019-05-04T23:48:27Z</time>
      </trkpt>
      <trkpt lat="46.52754" lon="6.23045">
        <ele>1360</ele>
        <time>2019-05-04T23:48:34Z</time>
      </trkpt>
      <trkpt lat="46.5275" lon="6.2304">
        <ele>1360</ele>
        <time>2019-05-04T23:48:38Z</time>
      </trkpt>
      <trkpt lat="46.52749" lon="6.23034">
        <ele>1361</ele>
        <time>2019-05-04T23:48:41Z</time>
      </trkpt>
      <trkpt lat="46.52743" lon="6.23032">
        <ele>1361</ele>
        <time>2019-05-04T23:48:45Z</time>
      </trkpt>
      <trkpt lat="46.5274" lon="6.23031">
        <ele>1361</ele>
        <time>2019-05-04T23:48:48Z</time>
      </trkpt>
      <trkpt lat="46.52738" lon="6.2303">
        <ele>1361</ele>
        <time>2019-05-04T23:48:49Z</time>
      </trkpt>
      <trkpt lat="46.5272" lon="6.23026">
        <ele>1360</ele>
        <time>2019-05-04T23:49:02Z</time>
      </trkpt>
      <trkpt lat="46.52713" lon="6.23027">
        <ele>1360</ele>
        <time>2019-05-04T23:49:07Z</time>
      </trkpt>
      <trkpt lat="46.52712" lon="6.23027">
        <ele>1360</ele>
        <time>2019-05-04T23:49:08Z</time>
      </trkpt>
      <trkpt lat="46.52707" lon="6.23024">
        <ele>1360</ele>
        <time>2019-05-04T23:49:12Z</time>
      </trkpt>
      <trkpt lat="46.52705" lon="6.23022">
        <ele>1360</ele>
        <time>2019-05-04T23:49:14Z</time>
      </trkpt>
      <trkpt lat="46.52704" lon="6.23019">
        <ele>1360</ele>
        <time>2019-05-04T23:49:16Z</time>
      </trkpt>
      <trkpt lat="46.527" lon="6.23017">
        <ele>1360</ele>
        <time>2019-05-04T23:49:19Z</time>
      </trkpt>
      <trkpt lat="46.52694" lon="6.23016">
        <ele>1360</ele>
        <time>2019-05-04T23:49:23Z</time>
      </trkpt>
      <trkpt lat="46.5269" lon="6.23008">
        <ele>1361</ele>
        <time>2019-05-04T23:49:28Z</time>
      </trkpt>
      <trkpt lat="46.52682" lon="6.23002">
        <ele>1362</ele>
        <time>2019-05-04T23:49:34Z</time>
      </trkpt>
      <trkpt lat="46.52663" lon="6.22998">
        <ele>1363</ele>
        <time>2019-05-04T23:49:48Z</time>
      </trkpt>
      <trkpt lat="46.52649" lon="6.2298">
        <ele>1365</ele>
        <time>2019-05-04T23:50:01Z</time>
      </trkpt>
      <trkpt lat="46.52634" lon="6.22965">
        <ele>1366</ele>
        <time>2019-05-04T23:50:15Z</time>
      </trkpt>
      <trkpt lat="46.52622" lon="6.22944">
        <ele>1367</ele>
        <time>2019-05-04T23:50:28Z</time>
      </trkpt>
      <trkpt lat="46.52614" lon="6.22932">
        <ele>1368</ele>
        <time>2019-05-04T23:50:37Z</time>
      </trkpt>
      <trkpt lat="46.5261" lon="6.22932">
        <ele>1368</ele>
        <time>2019-05-04T23:50:39Z</time>
      </trkpt>
      <trkpt lat="46.52609" lon="6.22932">
        <ele>1368</ele>
        <time>2019-05-04T23:50:40Z</time>
      </trkpt>
      <trkpt lat="46.52605" lon="6.22929">
        <ele>1368</ele>
        <time>2019-05-04T23:50:43Z</time>
      </trkpt>
      <trkpt lat="46.52601" lon="6.22927">
        <ele>1368</ele>
        <time>2019-05-04T23:50:47Z</time>
      </trkpt>
      <trkpt lat="46.52596" lon="6.22925">
        <ele>1369</ele>
        <time>2019-05-04T23:50:50Z</time>
      </trkpt>
      <trkpt lat="46.52593" lon="6.22923">
        <ele>1369</ele>
        <time>2019-05-04T23:50:52Z</time>
      </trkpt>
      <trkpt lat="46.52589" lon="6.2292">
        <ele>1369</ele>
        <time>2019-05-04T23:50:56Z</time>
      </trkpt>
      <trkpt lat="46.52586" lon="6.22917">
        <ele>1370</ele>
        <time>2019-05-04T23:50:59Z</time>
      </trkpt>
      <trkpt lat="46.52579" lon="6.22915">
        <ele>1370</ele>
        <time>2019-05-04T23:51:04Z</time>
      </trkpt>
      <trkpt lat="46.52577" lon="6.22914">
        <ele>1370</ele>
        <time>2019-05-04T23:51:05Z</time>
      </trkpt>
      <trkpt lat="46.52573" lon="6.22913">
        <ele>1371</ele>
        <time>2019-05-04T23:51:08Z</time>
      </trkpt>
      <trkpt lat="46.52566" lon="6.22909">
        <ele>1371</ele>
        <time>2019-05-04T23:51:14Z</time>
      </trkpt>
      <trkpt lat="46.52562" lon="6.22906">
        <ele>1371</ele>
        <time>2019-05-04T23:51:17Z</time>
      </trkpt>
      <trkpt lat="46.52554" lon="6.22899">
        <ele>1372</ele>
        <time>2019-05-04T23:51:24Z</time>
      </trkpt>
      <trkpt lat="46.52545" lon="6.22896">
        <ele>1373</ele>
        <time>2019-05-04T23:51:31Z</time>
      </trkpt>
      <trkpt lat="46.52543" lon="6.22896">
        <ele>1373</ele>
        <time>2019-05-04T23:51:32Z</time>
      </trkpt>
      <trkpt lat="46.5254" lon="6.22891">
        <ele>1373</ele>
        <time>2019-05-04T23:51:35Z</time>
      </trkpt>
      <trkpt lat="46.5253" lon="6.22883">
        <ele>1374</ele>
        <time>2019-05-04T23:51:43Z</time>
      </trkpt>
      <trkpt lat="46.52528" lon="6.22885">
        <ele>1374</ele>
        <time>2019-05-04T23:51:45Z</time>
      </trkpt>
      <trkpt lat="46.52522" lon="6.22882">
        <ele>1374</ele>
        <time>2019-05-04T23:51:50Z</time>
      </trkpt>
      <trkpt lat="46.52518" lon="6.22877">
        <ele>1375</ele>
        <time>2019-05-04T23:51:53Z</time>
      </trkpt>
      <trkpt lat="46.52514" lon="6.22864">
        <ele>1376</ele>
        <time>2019-05-04T23:52:00Z</time>
      </trkpt>
      <trkpt lat="46.52494" lon="6.22863">
        <ele>1376</ele>
        <time>2019-05-04T23:52:14Z</time>
      </trkpt>
      <trkpt lat="46.52491" lon="6.22862">
        <ele>1376</ele>
        <time>2019-05-04T23:52:17Z</time>
      </trkpt>
      <trkpt lat="46.52488" lon="6.22861">
        <ele>1377</ele>
        <time>2019-05-04T23:52:19Z</time>
      </trkpt>
      <trkpt lat="46.52477" lon="6.2286">
        <ele>1377</ele>
        <time>2019-05-04T23:52:27Z</time>
      </trkpt>
      <trkpt lat="46.52471" lon="6.22854">
        <ele>1377</ele>
        <time>2019-05-04T23:52:32Z</time>
      </trkpt>
      <trkpt lat="46.52467" lon="6.22852">
        <ele>1378</ele>
        <time>2019-05-04T23:52:35Z</time>
      </trkpt>
      <trkpt lat="46.52461" lon="6.22851">
        <ele>1378</ele>
        <time>2019-05-04T23:52:40Z</time>
      </trkpt>
      <trkpt lat="46.52442" lon="6.22847">
        <ele>1379</ele>
        <time>2019-05-04T23:52:53Z</time>
      </trkpt>
      <trkpt lat="46.52433" lon="6.22834">
        <ele>1382</ele>
        <time>2019-05-04T23:53:03Z</time>
      </trkpt>
      <trkpt lat="46.52427" lon="6.2283">
        <ele>1383</ele>
        <time>2019-05-04T23:53:07Z</time>
      </trkpt>
      <trkpt lat="46.52427" lon="6.22828">
        <ele>1383</ele>
        <time>2019-05-04T23:53:08Z</time>
      </trkpt>
      <trkpt lat="46.52427" lon="6.22827">
        <ele>1383</ele>
        <time>2019-05-04T23:53:09Z</time>
      </trkpt>
      <trkpt lat="46.52427" lon="6.22823">
        <ele>1383</ele>
        <time>2019-05-04T23:53:11Z</time>
      </trkpt>
      <trkpt lat="46.52426" lon="6.22823">
        <ele>1383</ele>
        <time>2019-05-04T23:53:12Z</time>
      </trkpt>
      <trkpt lat="46.52426" lon="6.22823">
        <ele>1384</ele>
        <time>2019-05-04T23:53:13Z</time>
      </trkpt>
      <trkpt lat="46.52421" lon="6.22829">
        <ele>1383</ele>
        <time>2019-05-04T23:53:18Z</time>
      </trkpt>
      <trkpt lat="46.52419" lon="6.2283">
        <ele>1383</ele>
        <time>2019-05-04T23:53:19Z</time>
      </trkpt>
      <trkpt lat="46.52414" lon="6.22831">
        <ele>1384</ele>
        <time>2019-05-04T23:53:23Z</time>
      </trkpt>
      <trkpt lat="46.52412" lon="6.22832">
        <ele>1384</ele>
        <time>2019-05-04T23:53:25Z</time>
      </trkpt>
      <trkpt lat="46.52409" lon="6.22834">
        <ele>1384</ele>
        <time>2019-05-04T23:53:27Z</time>
      </trkpt>
      <trkpt lat="46.52401" lon="6.22839">
        <ele>1384</ele>
        <time>2019-05-04T23:53:33Z</time>
      </trkpt>
      <trkpt lat="46.52394" lon="6.22839">
        <ele>1385</ele>
        <time>2019-05-04T23:53:38Z</time>
      </trkpt>
      <trkpt lat="46.52383" lon="6.22836">
        <ele>1386</ele>
        <time>2019-05-04T23:53:46Z</time>
      </trkpt>
      <trkpt lat="46.52376" lon="6.22837">
        <ele>1387</ele>
        <time>2019-05-04T23:53:52Z</time>
      </trkpt>
      <trkpt lat="46.5237" lon="6.2284">
        <ele>1387</ele>
        <time>2019-05-04T23:53:56Z</time>
      </trkpt>
      <trkpt lat="46.52359" lon="6.22846">
        <ele>1388</ele>
        <time>2019-05-04T23:54:05Z</time>
      </trkpt>
      <trkpt lat="46.52352" lon="6.22852">
        <ele>1387</ele>
        <time>2019-05-04T23:54:10Z</time>
      </trkpt>
      <trkpt lat="46.52337" lon="6.22869">
        <ele>1386</ele>
        <time>2019-05-04T23:54:24Z</time>
      </trkpt>
      <trkpt lat="46.5232" lon="6.22879">
        <ele>1386</ele>
        <time>2019-05-04T23:54:37Z</time>
      </trkpt>
      <trkpt lat="46.52316" lon="6.2288">
        <ele>1386</ele>
        <time>2019-05-04T23:54:40Z</time>
      </trkpt>
      <trkpt lat="46.52312" lon="6.2288">
        <ele>1386</ele>
        <time>2019-05-04T23:54:44Z</time>
      </trkpt>
      <trkpt lat="46.52301" lon="6.22873">
        <ele>1387</ele>
        <time>2019-05-04T23:54:52Z</time>
      </trkpt>
      <trkpt lat="46.52292" lon="6.22869">
        <ele>1388</ele>
        <time>2019-05-04T23:54:59Z</time>
      </trkpt>
      <trkpt lat="46.52288" lon="6.22871">
        <ele>1388</ele>
        <time>2019-05-04T23:55:02Z</time>
      </trkpt>
      <trkpt lat="46.52283" lon="6.22871">
        <ele>1388</ele>
        <time>2019-05-04T23:55:06Z</time>
      </trkpt>
      <trkpt lat="46.52277" lon="6.22862">
        <ele>1389</ele>
        <time>2019-05-04T23:55:12Z</time>
      </trkpt>
      <trkpt lat="46.52272" lon="6.22855">
        <ele>1390</ele>
        <time>2019-05-04T23:55:17Z</time>
      </trkpt>
      <trkpt lat="46.52272" lon="6.22853">
        <ele>1390</ele>
        <time>2019-05-04T23:55:18Z</time>
      </trkpt>
      <trkpt lat="46.52272" lon="6.2285">
        <ele>1390</ele>
        <time>2019-05-04T23:55:19Z</time>
      </trkpt>
      <trkpt lat="46.52278" lon="6.22831">
        <ele>1392</ele>
        <time>2019-05-04T23:55:29Z</time>
      </trkpt>
      <trkpt lat="46.52285" lon="6.22811">
        <ele>1393</ele>
        <time>2019-05-04T23:55:41Z</time>
      </trkpt>
      <trkpt lat="46.52288" lon="6.22802">
        <ele>1393</ele>
        <time>2019-05-04T23:55:46Z</time>
      </trkpt>
      <trkpt lat="46.5229" lon="6.22797">
        <ele>1394</ele>
        <time>2019-05-04T23:55:49Z</time>
      </trkpt>
      <trkpt lat="46.52292" lon="6.22794">
        <ele>1394</ele>
        <time>2019-05-04T23:55:51Z</time>
      </trkpt>
      <trkpt lat="46.52294" lon="6.2279">
        <ele>1394</ele>
        <time>2019-05-04T23:55:53Z</time>
      </trkpt>
      <trkpt lat="46.52297" lon="6.22777">
        <ele>1395</ele>
        <time>2019-05-04T23:56:00Z</time>
      </trkpt>
      <trkpt lat="46.52295" lon="6.22756">
        <ele>1396</ele>
        <time>2019-05-04T23:56:11Z</time>
      </trkpt>
      <trkpt lat="46.52292" lon="6.2275">
        <ele>1396</ele>
        <time>2019-05-04T23:56:14Z</time>
      </trkpt>
      <trkpt lat="46.52287" lon="6.22746">
        <ele>1397</ele>
        <time>2019-05-04T23:56:19Z</time>
      </trkpt>
      <trkpt lat="46.52285" lon="6.22744">
        <ele>1397</ele>
        <time>2019-05-04T23:56:20Z</time>
      </trkpt>
      <trkpt lat="46.52281" lon="6.22743">
        <ele>1397</ele>
        <time>2019-05-04T23:56:24Z</time>
      </trkpt>
      <trkpt lat="46.52265" lon="6.22729">
        <ele>1397</ele>
        <time>2019-05-04T23:56:37Z</time>
      </trkpt>
      <trkpt lat="46.52246" lon="6.22716">
        <ele>1397</ele>
        <time>2019-05-04T23:56:52Z</time>
      </trkpt>
      <trkpt lat="46.52238" lon="6.22709">
        <ele>1397</ele>
        <time>2019-05-04T23:56:59Z</time>
      </trkpt>
      <trkpt lat="46.52222" lon="6.22693">
        <ele>1397</ele>
        <time>2019-05-04T23:57:13Z</time>
      </trkpt>
      <trkpt lat="46.52208" lon="6.22673">
        <ele>1399</ele>
        <time>2019-05-04T23:57:27Z</time>
      </trkpt>
      <trkpt lat="46.52203" lon="6.22661">
        <ele>1400</ele>
        <time>2019-05-04T23:57:34Z</time>
      </trkpt>
      <trkpt lat="46.52202" lon="6.22651">
        <ele>1401</ele>
        <time>2019-05-04T23:57:39Z</time>
      </trkpt>
      <trkpt lat="46.52196" lon="6.22655">
        <ele>1400</ele>
        <time>2019-05-04T23:57:44Z</time>
      </trkpt>
      <trkpt lat="46.52191" lon="6.22655">
        <ele>1400</ele>
        <time>2019-05-04T23:57:47Z</time>
      </trkpt>
      <trkpt lat="46.52191" lon="6.22654">
        <ele>1400</ele>
        <time>2019-05-04T23:57:48Z</time>
      </trkpt>
      <trkpt lat="46.52193" lon="6.22646">
        <ele>1401</ele>
        <time>2019-05-04T23:57:52Z</time>
      </trkpt>
      <trkpt lat="46.52195" lon="6.22642">
        <ele>1401</ele>
        <time>2019-05-04T23:57:55Z</time>
      </trkpt>
      <trkpt lat="46.52198" lon="6.2264">
        <ele>1401</ele>
        <time>2019-05-04T23:57:57Z</time>
      </trkpt>
      <trkpt lat="46.52199" lon="6.2264">
        <ele>1401</ele>
        <time>2019-05-04T23:57:58Z</time>
      </trkpt>
      <trkpt lat="46.52198" lon="6.2264">
        <ele>1401</ele>
        <time>2019-05-04T23:57:58Z</time>
      </trkpt>
      <trkpt lat="46.52198" lon="6.22634">
        <ele>1402</ele>
        <time>2019-05-04T23:58:01Z</time>
      </trkpt>
      <trkpt lat="46.52197" lon="6.22629">
        <ele>1402</ele>
        <time>2019-05-04T23:58:04Z</time>
      </trkpt>
      <trkpt lat="46.52195" lon="6.22626">
        <ele>1402</ele>
        <time>2019-05-04T23:58:06Z</time>
      </trkpt>
      <trkpt lat="46.52195" lon="6.22598">
        <ele>1405</ele>
        <time>2019-05-04T23:58:20Z</time>
      </trkpt>
      <trkpt lat="46.52195" lon="6.22596">
        <ele>1406</ele>
        <time>2019-05-04T23:58:21Z</time>
      </trkpt>
      <trkpt lat="46.522" lon="6.22586">
        <ele>1408</ele>
        <time>2019-05-04T23:58:27Z</time>
      </trkpt>
      <trkpt lat="46.52212" lon="6.22567">
        <ele>1413</ele>
        <time>2019-05-04T23:58:41Z</time>
      </trkpt>
      <trkpt lat="46.52221" lon="6.22555">
        <ele>1417</ele>
        <time>2019-05-04T23:58:50Z</time>
      </trkpt>
      <trkpt lat="46.52221" lon="6.22553">
        <ele>1417</ele>
        <time>2019-05-04T23:58:51Z</time>
      </trkpt>
      <trkpt lat="46.5222" lon="6.22528">
        <ele>1422</ele>
        <time>2019-05-04T23:59:03Z</time>
      </trkpt>
      <trkpt lat="46.52219" lon="6.22523">
        <ele>1423</ele>
        <time>2019-05-04T23:59:06Z</time>
      </trkpt>
      <trkpt lat="46.52219" lon="6.22521">
        <ele>1423</ele>
        <time>2019-05-04T23:59:07Z</time>
      </trkpt>
      <trkpt lat="46.52218" lon="6.22521">
        <ele>1423</ele>
        <time>2019-05-04T23:59:08Z</time>
      </trkpt>
      <trkpt lat="46.52217" lon="6.22516">
        <ele>1424</ele>
        <time>2019-05-04T23:59:10Z</time>
      </trkpt>
      <trkpt lat="46.52216" lon="6.22515">
        <ele>1424</ele>
        <time>2019-05-04T23:59:11Z</time>
      </trkpt>
      <trkpt lat="46.52213" lon="6.22514">
        <ele>1424</ele>
        <time>2019-05-04T23:59:13Z</time>
      </trkpt>
      <trkpt lat="46.52213" lon="6.22514">
        <ele>1424</ele>
        <time>2019-05-04T23:59:13Z</time>
      </trkpt>
      <trkpt lat="46.52211" lon="6.22513">
        <ele>1424</ele>
        <time>2019-05-04T23:59:15Z</time>
      </trkpt>
      <trkpt lat="46.5221" lon="6.22511">
        <ele>1424</ele>
        <time>2019-05-04T23:59:16Z</time>
      </trkpt>
      <trkpt lat="46.5221" lon="6.22507">
        <ele>1425</ele>
        <time>2019-05-04T23:59:18Z</time>
      </trkpt>
      <trkpt lat="46.52211" lon="6.22505">
        <ele>1426</ele>
        <time>2019-05-04T23:59:19Z</time>
      </trkpt>
      <trkpt lat="46.5221" lon="6.22499">
        <ele>1427</ele>
        <time>2019-05-04T23:59:22Z</time>
      </trkpt>
      <trkpt lat="46.52209" lon="6.22494">
        <ele>1428</ele>
        <time>2019-05-04T23:59:25Z</time>
      </trkpt>
      <trkpt lat="46.52206" lon="6.22488">
        <ele>1428</ele>
        <time>2019-05-04T23:59:29Z</time>
      </trkpt>
      <trkpt lat="46.52204" lon="6.22486">
        <ele>1429</ele>
        <time>2019-05-04T23:59:30Z</time>
      </trkpt>
      <trkpt lat="46.52203" lon="6.22483">
        <ele>1429</ele>
        <time>2019-05-04T23:59:32Z</time>
      </trkpt>
      <trkpt lat="46.52202" lon="6.22481">
        <ele>1429</ele>
        <time>2019-05-04T23:59:33Z</time>
      </trkpt>
      <trkpt lat="46.52202" lon="6.22478">
        <ele>1430</ele>
        <time>2019-05-04T23:59:35Z</time>
      </trkpt>
      <trkpt lat="46.522" lon="6.22476">
        <ele>1430</ele>
        <time>2019-05-04T23:59:36Z</time>
      </trkpt>
      <trkpt lat="46.522" lon="6.22475">
        <ele>1430</ele>
        <time>2019-05-04T23:59:37Z</time>
      </trkpt>
      <trkpt lat="46.522" lon="6.22472">
        <ele>1431</ele>
        <time>2019-05-04T23:59:38Z</time>
      </trkpt>
      <trkpt lat="46.522" lon="6.22471">
        <ele>1431</ele>
        <time>2019-05-04T23:59:39Z</time>
      </trkpt>
      <trkpt lat="46.522" lon="6.22468">
        <ele>1432</ele>
        <time>2019-05-04T23:59:41Z</time>
      </trkpt>
      <trkpt lat="46.522" lon="6.22465">
        <ele>1432</ele>
        <time>2019-05-04T23:59:42Z</time>
      </trkpt>
      <trkpt lat="46.52199" lon="6.22463">
        <ele>1433</ele>
        <time>2019-05-04T23:59:44Z</time>
      </trkpt>
      <trkpt lat="46.52198" lon="6.2246">
        <ele>1433</ele>
        <time>2019-05-04T23:59:45Z</time>
      </trkpt>
      <trkpt lat="46.52196" lon="6.22458">
        <ele>1433</ele>
        <time>2019-05-04T23:59:47Z</time>
      </trkpt>
      <trkpt lat="46.52194" lon="6.22454">
        <ele>1434</ele>
        <time>2019-05-04T23:59:50Z</time>
      </trkpt>
      <trkpt lat="46.52193" lon="6.22454">
        <ele>1434</ele>
        <time>2019-05-04T23:59:50Z</time>
      </trkpt>
      <trkpt lat="46.52192" lon="6.22454">
        <ele>1433</ele>
        <time>2019-05-04T23:59:51Z</time>
      </trkpt>
      <trkpt lat="46.5219" lon="6.22451">
        <ele>1434</ele>
        <time>2019-05-04T23:59:53Z</time>
      </trkpt>
      <trkpt lat="46.52189" lon="6.22444">
        <ele>1435</ele>
        <time>2019-05-04T23:59:57Z</time>
      </trkpt>
      <trkpt lat="46.52189" lon="6.22442">
        <ele>1436</ele>
        <time>2019-05-04T23:59:58Z</time>
      </trkpt>
      <trkpt lat="46.52187" lon="6.22437">
        <ele>1436</ele>
        <time>2019-05-05T00:00:01Z</time>
      </trkpt>
      <trkpt lat="46.52184" lon="6.22435">
        <ele>1436</ele>
        <time>2019-05-05T00:00:03Z</time>
      </trkpt>
      <trkpt lat="46.52183" lon="6.22434">
        <ele>1436</ele>
        <time>2019-05-05T00:00:04Z</time>
      </trkpt>
      <trkpt lat="46.52183" lon="6.22431">
        <ele>1436</ele>
        <time>2019-05-05T00:00:06Z</time>
      </trkpt>
      <trkpt lat="46.52182" lon="6.22428">
        <ele>1437</ele>
        <time>2019-05-05T00:00:07Z</time>
      </trkpt>
      <trkpt lat="46.52181" lon="6.22422">
        <ele>1437</ele>
        <time>2019-05-05T00:00:10Z</time>
      </trkpt>
      <trkpt lat="46.52181" lon="6.2242">
        <ele>1438</ele>
        <time>2019-05-05T00:00:11Z</time>
      </trkpt>
      <trkpt lat="46.5218" lon="6.22417">
        <ele>1438</ele>
        <time>2019-05-05T00:00:13Z</time>
      </trkpt>
      <trkpt lat="46.52177" lon="6.22415">
        <ele>1438</ele>
        <time>2019-05-05T00:00:16Z</time>
      </trkpt>
      <trkpt lat="46.52176" lon="6.22411">
        <ele>1438</ele>
        <time>2019-05-05T00:00:18Z</time>
      </trkpt>
      <trkpt lat="46.52173" lon="6.22408">
        <ele>1438</ele>
        <time>2019-05-05T00:00:21Z</time>
      </trkpt>
      <trkpt lat="46.52172" lon="6.22406">
        <ele>1438</ele>
        <time>2019-05-05T00:00:22Z</time>
      </trkpt>
      <trkpt lat="46.52173" lon="6.22401">
        <ele>1438</ele>
        <time>2019-05-05T00:00:24Z</time>
      </trkpt>
      <trkpt lat="46.52172" lon="6.22399">
        <ele>1438</ele>
        <time>2019-05-05T00:00:25Z</time>
      </trkpt>
      <trkpt lat="46.52167" lon="6.22392">
        <ele>1438</ele>
        <time>2019-05-05T00:00:30Z</time>
      </trkpt>
      <trkpt lat="46.52164" lon="6.2239">
        <ele>1438</ele>
        <time>2019-05-05T00:00:32Z</time>
      </trkpt>
      <trkpt lat="46.52164" lon="6.22388">
        <ele>1438</ele>
        <time>2019-05-05T00:00:33Z</time>
      </trkpt>
      <trkpt lat="46.52164" lon="6.22379">
        <ele>1439</ele>
        <time>2019-05-05T00:00:38Z</time>
      </trkpt>
      <trkpt lat="46.52165" lon="6.22376">
        <ele>1440</ele>
        <time>2019-05-05T00:00:39Z</time>
      </trkpt>
      <trkpt lat="46.52168" lon="6.22371">
        <ele>1441</ele>
        <time>2019-05-05T00:00:43Z</time>
      </trkpt>
      <trkpt lat="46.52171" lon="6.22367">
        <ele>1442</ele>
        <time>2019-05-05T00:00:46Z</time>
      </trkpt>
      <trkpt lat="46.52172" lon="6.22366">
        <ele>1442</ele>
        <time>2019-05-05T00:00:47Z</time>
      </trkpt>
      <trkpt lat="46.52174" lon="6.22366">
        <ele>1443</ele>
        <time>2019-05-05T00:00:49Z</time>
      </trkpt>
      <trkpt lat="46.52179" lon="6.22364">
        <ele>1443</ele>
        <time>2019-05-05T00:00:52Z</time>
      </trkpt>
      <trkpt lat="46.52181" lon="6.22365">
        <ele>1444</ele>
        <time>2019-05-05T00:00:53Z</time>
      </trkpt>
      <trkpt lat="46.52181" lon="6.22365">
        <ele>1444</ele>
        <time>2019-05-05T00:00:54Z</time>
      </trkpt>
      <trkpt lat="46.52184" lon="6.22364">
        <ele>1444</ele>
        <time>2019-05-05T00:00:56Z</time>
      </trkpt>
      <trkpt lat="46.52187" lon="6.22364">
        <ele>1445</ele>
        <time>2019-05-05T00:00:58Z</time>
      </trkpt>
      <trkpt lat="46.52191" lon="6.22362">
        <ele>1446</ele>
        <time>2019-05-05T00:01:01Z</time>
      </trkpt>
      <trkpt lat="46.52194" lon="6.22361">
        <ele>1446</ele>
        <time>2019-05-05T00:01:04Z</time>
      </trkpt>
      <trkpt lat="46.52196" lon="6.22359">
        <ele>1447</ele>
        <time>2019-05-05T00:01:06Z</time>
      </trkpt>
      <trkpt lat="46.52198" lon="6.2236">
        <ele>1447</ele>
        <time>2019-05-05T00:01:07Z</time>
      </trkpt>
      <trkpt lat="46.52199" lon="6.22359">
        <ele>1447</ele>
        <time>2019-05-05T00:01:08Z</time>
      </trkpt>
      <trkpt lat="46.52203" lon="6.22355">
        <ele>1448</ele>
        <time>2019-05-05T00:01:11Z</time>
      </trkpt>
      <trkpt lat="46.52204" lon="6.22352">
        <ele>1449</ele>
        <time>2019-05-05T00:01:13Z</time>
      </trkpt>
      <trkpt lat="46.52204" lon="6.2235">
        <ele>1449</ele>
        <time>2019-05-05T00:01:14Z</time>
      </trkpt>
      <trkpt lat="46.52207" lon="6.22342">
        <ele>1450</ele>
        <time>2019-05-05T00:01:19Z</time>
      </trkpt>
      <trkpt lat="46.5221" lon="6.22336">
        <ele>1451</ele>
        <time>2019-05-05T00:01:22Z</time>
      </trkpt>
      <trkpt lat="46.52212" lon="6.22331">
        <ele>1452</ele>
        <time>2019-05-05T00:01:25Z</time>
      </trkpt>
      <trkpt lat="46.52216" lon="6.22325">
        <ele>1453</ele>
        <time>2019-05-05T00:01:29Z</time>
      </trkpt>
      <trkpt lat="46.52218" lon="6.22322">
        <ele>1454</ele>
        <time>2019-05-05T00:01:31Z</time>
      </trkpt>
      <trkpt lat="46.52224" lon="6.22312">
        <ele>1456</ele>
        <time>2019-05-05T00:01:38Z</time>
      </trkpt>
      <trkpt lat="46.52232" lon="6.22305">
        <ele>1458</ele>
        <time>2019-05-05T00:01:45Z</time>
      </trkpt>
      <trkpt lat="46.52237" lon="6.22301">
        <ele>1459</ele>
        <time>2019-05-05T00:01:49Z</time>
      </trkpt>
      <trkpt lat="46.52239" lon="6.22301">
        <ele>1460</ele>
        <time>2019-05-05T00:01:51Z</time>
      </trkpt>
      <trkpt lat="46.52243" lon="6.22302">
        <ele>1460</ele>
        <time>2019-05-05T00:01:54Z</time>
      </trkpt>
      <trkpt lat="46.52246" lon="6.22303">
        <ele>1460</ele>
        <time>2019-05-05T00:01:56Z</time>
      </trkpt>
      <trkpt lat="46.52248" lon="6.22304">
        <ele>1461</ele>
        <time>2019-05-05T00:01:57Z</time>
      </trkpt>
      <trkpt lat="46.52252" lon="6.22306">
        <ele>1461</ele>
        <time>2019-05-05T00:02:00Z</time>
      </trkpt>
      <trkpt lat="46.52255" lon="6.22308">
        <ele>1461</ele>
        <time>2019-05-05T00:02:03Z</time>
      </trkpt>
      <trkpt lat="46.52261" lon="6.22308">
        <ele>1462</ele>
        <time>2019-05-05T00:02:07Z</time>
      </trkpt>
      <trkpt lat="46.52262" lon="6.22309">
        <ele>1462</ele>
        <time>2019-05-05T00:02:08Z</time>
      </trkpt>
      <trkpt lat="46.52264" lon="6.22309">
        <ele>1463</ele>
        <time>2019-05-05T00:02:10Z</time>
      </trkpt>
      <trkpt lat="46.52266" lon="6.2231">
        <ele>1463</ele>
        <time>2019-05-05T00:02:11Z</time>
      </trkpt>
      <trkpt lat="46.52268" lon="6.22309">
        <ele>1463</ele>
        <time>2019-05-05T00:02:13Z</time>
      </trkpt>
      <trkpt lat="46.52269" lon="6.22309">
        <ele>1463</ele>
        <time>2019-05-05T00:02:14Z</time>
      </trkpt>
      <trkpt lat="46.52272" lon="6.22309">
        <ele>1464</ele>
        <time>2019-05-05T00:02:16Z</time>
      </trkpt>
      <trkpt lat="46.52274" lon="6.22308">
        <ele>1464</ele>
        <time>2019-05-05T00:02:18Z</time>
      </trkpt>
      <trkpt lat="46.52275" lon="6.22306">
        <ele>1465</ele>
        <time>2019-05-05T00:02:19Z</time>
      </trkpt>
      <trkpt lat="46.52283" lon="6.22286">
        <ele>1468</ele>
        <time>2019-05-05T00:02:31Z</time>
      </trkpt>
      <trkpt lat="46.52287" lon="6.22274">
        <ele>1470</ele>
        <time>2019-05-05T00:02:38Z</time>
      </trkpt>
      <trkpt lat="46.52287" lon="6.22272">
        <ele>1470</ele>
        <time>2019-05-05T00:02:38Z</time>
      </trkpt>
      <trkpt lat="46.52287" lon="6.22269">
        <ele>1470</ele>
        <time>2019-05-05T00:02:40Z</time>
      </trkpt>
      <trkpt lat="46.52288" lon="6.22263">
        <ele>1471</ele>
        <time>2019-05-05T00:02:43Z</time>
      </trkpt>
      <trkpt lat="46.52287" lon="6.2226">
        <ele>1471</ele>
        <time>2019-05-05T00:02:45Z</time>
      </trkpt>
      <trkpt lat="46.52286" lon="6.22257">
        <ele>1471</ele>
        <time>2019-05-05T00:02:47Z</time>
      </trkpt>
      <trkpt lat="46.52285" lon="6.22253">
        <ele>1472</ele>
        <time>2019-05-05T00:02:49Z</time>
      </trkpt>
      <trkpt lat="46.52288" lon="6.2225">
        <ele>1472</ele>
        <time>2019-05-05T00:02:51Z</time>
      </trkpt>
      <trkpt lat="46.52292" lon="6.22249">
        <ele>1473</ele>
        <time>2019-05-05T00:02:54Z</time>
      </trkpt>
      <trkpt lat="46.52294" lon="6.22248">
        <ele>1473</ele>
        <time>2019-05-05T00:02:55Z</time>
      </trkpt>
      <trkpt lat="46.52294" lon="6.22248">
        <ele>1473</ele>
        <time>2019-05-05T00:02:56Z</time>
      </trkpt>
      <trkpt lat="46.52295" lon="6.22249">
        <ele>1473</ele>
        <time>2019-05-05T00:02:56Z</time>
      </trkpt>
      <trkpt lat="46.52297" lon="6.22249">
        <ele>1473</ele>
        <time>2019-05-05T00:02:58Z</time>
      </trkpt>
      <trkpt lat="46.52298" lon="6.22249">
        <ele>1473</ele>
        <time>2019-05-05T00:02:58Z</time>
      </trkpt>
      <trkpt lat="46.52298" lon="6.22249">
        <ele>1473</ele>
        <time>2019-05-05T00:02:59Z</time>
      </trkpt>
      <trkpt lat="46.52299" lon="6.22247">
        <ele>1474</ele>
        <time>2019-05-05T00:03:00Z</time>
      </trkpt>
      <trkpt lat="46.52301" lon="6.22249">
        <ele>1474</ele>
        <time>2019-05-05T00:03:02Z</time>
      </trkpt>
      <trkpt lat="46.52302" lon="6.2225">
        <ele>1474</ele>
        <time>2019-05-05T00:03:03Z</time>
      </trkpt>
      <trkpt lat="46.52308" lon="6.22252">
        <ele>1474</ele>
        <time>2019-05-05T00:03:07Z</time>
      </trkpt>
      <trkpt lat="46.52309" lon="6.22252">
        <ele>1474</ele>
        <time>2019-05-05T00:03:08Z</time>
      </trkpt>
      <trkpt lat="46.52316" lon="6.22258">
        <ele>1474</ele>
        <time>2019-05-05T00:03:14Z</time>
      </trkpt>
      <trkpt lat="46.52317" lon="6.22259">
        <ele>1474</ele>
        <time>2019-05-05T00:03:14Z</time>
      </trkpt>
      <trkpt lat="46.52318" lon="6.22259">
        <ele>1474</ele>
        <time>2019-05-05T00:03:15Z</time>
      </trkpt>
      <trkpt lat="46.52321" lon="6.22258">
        <ele>1475</ele>
        <time>2019-05-05T00:03:18Z</time>
      </trkpt>
      <trkpt lat="46.52324" lon="6.22259">
        <ele>1475</ele>
        <time>2019-05-05T00:03:19Z</time>
      </trkpt>
      <trkpt lat="46.52327" lon="6.22259">
        <ele>1475</ele>
        <time>2019-05-05T00:03:22Z</time>
      </trkpt>
      <trkpt lat="46.52328" lon="6.22258">
        <ele>1476</ele>
        <time>2019-05-05T00:03:23Z</time>
      </trkpt>
      <trkpt lat="46.52328" lon="6.22258">
        <ele>1476</ele>
        <time>2019-05-05T00:03:23Z</time>
      </trkpt>
      <trkpt lat="46.52327" lon="6.22257">
        <ele>1476</ele>
        <time>2019-05-05T00:03:24Z</time>
      </trkpt>
      <trkpt lat="46.52327" lon="6.22256">
        <ele>1476</ele>
        <time>2019-05-05T00:03:25Z</time>
      </trkpt>
      <trkpt lat="46.52327" lon="6.22255">
        <ele>1476</ele>
        <time>2019-05-05T00:03:25Z</time>
      </trkpt>
      <trkpt lat="46.52326" lon="6.22253">
        <ele>1476</ele>
        <time>2019-05-05T00:03:26Z</time>
      </trkpt>
      <trkpt lat="46.52326" lon="6.2225">
        <ele>1476</ele>
        <time>2019-05-05T00:03:28Z</time>
      </trkpt>
      <trkpt lat="46.52324" lon="6.22243">
        <ele>1477</ele>
        <time>2019-05-05T00:03:31Z</time>
      </trkpt>
      <trkpt lat="46.52324" lon="6.2224">
        <ele>1477</ele>
        <time>2019-05-05T00:03:33Z</time>
      </trkpt>
      <trkpt lat="46.52324" lon="6.2223">
        <ele>1478</ele>
        <time>2019-05-05T00:03:38Z</time>
      </trkpt>
      <trkpt lat="46.52324" lon="6.22224">
        <ele>1479</ele>
        <time>2019-05-05T00:03:41Z</time>
      </trkpt>
      <trkpt lat="46.52324" lon="6.2222">
        <ele>1480</ele>
        <time>2019-05-05T00:03:43Z</time>
      </trkpt>
      <trkpt lat="46.52324" lon="6.22219">
        <ele>1480</ele>
        <time>2019-05-05T00:03:44Z</time>
      </trkpt>
      <trkpt lat="46.52324" lon="6.22218">
        <ele>1480</ele>
        <time>2019-05-05T00:03:44Z</time>
      </trkpt>
      <trkpt lat="46.52323" lon="6.22212">
        <ele>1480</ele>
        <time>2019-05-05T00:03:47Z</time>
      </trkpt>
      <trkpt lat="46.52324" lon="6.22205">
        <ele>1481</ele>
        <time>2019-05-05T00:03:51Z</time>
      </trkpt>
      <trkpt lat="46.52325" lon="6.22201">
        <ele>1482</ele>
        <time>2019-05-05T00:03:53Z</time>
      </trkpt>
      <trkpt lat="46.52329" lon="6.22195">
        <ele>1483</ele>
        <time>2019-05-05T00:03:57Z</time>
      </trkpt>
      <trkpt lat="46.52338" lon="6.22194">
        <ele>1484</ele>
        <time>2019-05-05T00:04:04Z</time>
      </trkpt>
      <trkpt lat="46.52342" lon="6.22194">
        <ele>1485</ele>
        <time>2019-05-05T00:04:07Z</time>
      </trkpt>
      <trkpt lat="46.52351" lon="6.22195">
        <ele>1486</ele>
        <time>2019-05-05T00:04:14Z</time>
      </trkpt>
      <trkpt lat="46.52356" lon="6.22197">
        <ele>1486</ele>
        <time>2019-05-05T00:04:17Z</time>
      </trkpt>
      <trkpt lat="46.52362" lon="6.22198">
        <ele>1486</ele>
        <time>2019-05-05T00:04:22Z</time>
      </trkpt>
      <trkpt lat="46.52371" lon="6.22196">
        <ele>1486</ele>
        <time>2019-05-05T00:04:28Z</time>
      </trkpt>
      <trkpt lat="46.52376" lon="6.22194">
        <ele>1487</ele>
        <time>2019-05-05T00:04:32Z</time>
      </trkpt>
      <trkpt lat="46.52385" lon="6.22193">
        <ele>1486</ele>
        <time>2019-05-05T00:04:39Z</time>
      </trkpt>
      <trkpt lat="46.52389" lon="6.22194">
        <ele>1486</ele>
        <time>2019-05-05T00:04:41Z</time>
      </trkpt>
      <trkpt lat="46.52393" lon="6.22195">
        <ele>1486</ele>
        <time>2019-05-05T00:04:45Z</time>
      </trkpt>
      <trkpt lat="46.52395" lon="6.22194">
        <ele>1486</ele>
        <time>2019-05-05T00:04:46Z</time>
      </trkpt>
      <trkpt lat="46.52397" lon="6.22193">
        <ele>1486</ele>
        <time>2019-05-05T00:04:48Z</time>
      </trkpt>
      <trkpt lat="46.52398" lon="6.22191">
        <ele>1486</ele>
        <time>2019-05-05T00:04:49Z</time>
      </trkpt>
      <trkpt lat="46.52399" lon="6.22188">
        <ele>1486</ele>
        <time>2019-05-05T00:04:50Z</time>
      </trkpt>
      <trkpt lat="46.52399" lon="6.22186">
        <ele>1487</ele>
        <time>2019-05-05T00:04:52Z</time>
      </trkpt>
      <trkpt lat="46.52404" lon="6.22174">
        <ele>1486</ele>
        <time>2019-05-05T00:04:58Z</time>
      </trkpt>
      <trkpt lat="46.52407" lon="6.22166">
        <ele>1486</ele>
        <time>2019-05-05T00:05:03Z</time>
      </trkpt>
      <trkpt lat="46.5241" lon="6.22164">
        <ele>1486</ele>
        <time>2019-05-05T00:05:05Z</time>
      </trkpt>
      <trkpt lat="46.52413" lon="6.22158">
        <ele>1486</ele>
        <time>2019-05-05T00:05:09Z</time>
      </trkpt>
      <trkpt lat="46.52422" lon="6.22136">
        <ele>1486</ele>
        <time>2019-05-05T00:05:21Z</time>
      </trkpt>
      <trkpt lat="46.52427" lon="6.22124">
        <ele>1486</ele>
        <time>2019-05-05T00:05:28Z</time>
      </trkpt>
      <trkpt lat="46.5243" lon="6.22117">
        <ele>1486</ele>
        <time>2019-05-05T00:05:32Z</time>
      </trkpt>
      <trkpt lat="46.52431" lon="6.22112">
        <ele>1486</ele>
        <time>2019-05-05T00:05:35Z</time>
      </trkpt>
      <trkpt lat="46.52433" lon="6.22106">
        <ele>1486</ele>
        <time>2019-05-05T00:05:39Z</time>
      </trkpt>
      <trkpt lat="46.52433" lon="6.22103">
        <ele>1485</ele>
        <time>2019-05-05T00:05:40Z</time>
      </trkpt>
      <trkpt lat="46.52434" lon="6.221">
        <ele>1485</ele>
        <time>2019-05-05T00:05:42Z</time>
      </trkpt>
      <trkpt lat="46.5244" lon="6.22087">
        <ele>1484</ele>
        <time>2019-05-05T00:05:50Z</time>
      </trkpt>
      <trkpt lat="46.52446" lon="6.22078">
        <ele>1482</ele>
        <time>2019-05-05T00:05:56Z</time>
      </trkpt>
      <trkpt lat="46.52455" lon="6.22071">
        <ele>1481</ele>
        <time>2019-05-05T00:06:03Z</time>
      </trkpt>
      <trkpt lat="46.5246" lon="6.22069">
        <ele>1480</ele>
        <time>2019-05-05T00:06:07Z</time>
      </trkpt>
      <trkpt lat="46.52466" lon="6.22066">
        <ele>1479</ele>
        <time>2019-05-05T00:06:12Z</time>
      </trkpt>
      <trkpt lat="46.52471" lon="6.22057">
        <ele>1477</ele>
        <time>2019-05-05T00:06:18Z</time>
      </trkpt>
      <trkpt lat="46.52476" lon="6.2204">
        <ele>1476</ele>
        <time>2019-05-05T00:06:27Z</time>
      </trkpt>
      <trkpt lat="46.52478" lon="6.22036">
        <ele>1475</ele>
        <time>2019-05-05T00:06:30Z</time>
      </trkpt>
      <trkpt lat="46.52481" lon="6.22031">
        <ele>1474</ele>
        <time>2019-05-05T00:06:33Z</time>
      </trkpt>
      <trkpt lat="46.52488" lon="6.22017">
        <ele>1473</ele>
        <time>2019-05-05T00:06:42Z</time>
      </trkpt>
      <trkpt lat="46.52494" lon="6.21998">
        <ele>1470</ele>
        <time>2019-05-05T00:06:52Z</time>
      </trkpt>
      <trkpt lat="46.52498" lon="6.21984">
        <ele>1469</ele>
        <time>2019-05-05T00:07:00Z</time>
      </trkpt>
      <trkpt lat="46.525" lon="6.2198">
        <ele>1468</ele>
        <time>2019-05-05T00:07:02Z</time>
      </trkpt>
      <trkpt lat="46.52501" lon="6.21976">
        <ele>1468</ele>
        <time>2019-05-05T00:07:04Z</time>
      </trkpt>
      <trkpt lat="46.52506" lon="6.2197">
        <ele>1466</ele>
        <time>2019-05-05T00:07:09Z</time>
      </trkpt>
      <trkpt lat="46.5251" lon="6.21952">
        <ele>1464</ele>
        <time>2019-05-05T00:07:19Z</time>
      </trkpt>
      <trkpt lat="46.52511" lon="6.21944">
        <ele>1464</ele>
        <time>2019-05-05T00:07:22Z</time>
      </trkpt>
      <trkpt lat="46.52513" lon="6.21938">
        <ele>1463</ele>
        <time>2019-05-05T00:07:26Z</time>
      </trkpt>
      <trkpt lat="46.52517" lon="6.21924">
        <ele>1462</ele>
        <time>2019-05-05T00:07:34Z</time>
      </trkpt>
      <trkpt lat="46.52519" lon="6.21919">
        <ele>1461</ele>
        <time>2019-05-05T00:07:37Z</time>
      </trkpt>
      <trkpt lat="46.52522" lon="6.21912">
        <ele>1460</ele>
        <time>2019-05-05T00:07:41Z</time>
      </trkpt>
      <trkpt lat="46.52522" lon="6.21908">
        <ele>1460</ele>
        <time>2019-05-05T00:07:43Z</time>
      </trkpt>
      <trkpt lat="46.52522" lon="6.21902">
        <ele>1460</ele>
        <time>2019-05-05T00:07:46Z</time>
      </trkpt>
      <trkpt lat="46.52523" lon="6.21899">
        <ele>1460</ele>
        <time>2019-05-05T00:07:47Z</time>
      </trkpt>
      <trkpt lat="46.52535" lon="6.21877">
        <ele>1457</ele>
        <time>2019-05-05T00:08:02Z</time>
      </trkpt>
      <trkpt lat="46.52538" lon="6.21871">
        <ele>1457</ele>
        <time>2019-05-05T00:08:05Z</time>
      </trkpt>
      <trkpt lat="46.52542" lon="6.21861">
        <ele>1456</ele>
        <time>2019-05-05T00:08:11Z</time>
      </trkpt>
      <trkpt lat="46.52543" lon="6.21847">
        <ele>1455</ele>
        <time>2019-05-05T00:08:18Z</time>
      </trkpt>
      <trkpt lat="46.52539" lon="6.2182">
        <ele>1454</ele>
        <time>2019-05-05T00:08:32Z</time>
      </trkpt>
      <trkpt lat="46.52539" lon="6.21813">
        <ele>1454</ele>
        <time>2019-05-05T00:08:35Z</time>
      </trkpt>
      <trkpt lat="46.5254" lon="6.21786">
        <ele>1452</ele>
        <time>2019-05-05T00:08:49Z</time>
      </trkpt>
      <trkpt lat="46.52544" lon="6.2176">
        <ele>1450</ele>
        <time>2019-05-05T00:09:02Z</time>
      </trkpt>
      <trkpt lat="46.52552" lon="6.21751">
        <ele>1449</ele>
        <time>2019-05-05T00:09:09Z</time>
      </trkpt>
      <trkpt lat="46.5256" lon="6.21741">
        <ele>1447</ele>
        <time>2019-05-05T00:09:17Z</time>
      </trkpt>
      <trkpt lat="46.52561" lon="6.21741">
        <ele>1447</ele>
        <time>2019-05-05T00:09:18Z</time>
      </trkpt>
      <trkpt lat="46.52563" lon="6.21748">
        <ele>1447</ele>
        <time>2019-05-05T00:09:21Z</time>
      </trkpt>
      <trkpt lat="46.5256" lon="6.2174">
        <ele>1447</ele>
        <time>2019-05-05T00:09:26Z</time>
      </trkpt>
      <trkpt lat="46.5256" lon="6.21736">
        <ele>1447</ele>
        <time>2019-05-05T00:09:28Z</time>
      </trkpt>
      <trkpt lat="46.52561" lon="6.21737">
        <ele>1447</ele>
        <time>2019-05-05T00:09:28Z</time>
      </trkpt>
      <trkpt lat="46.52554" lon="6.21728">
        <ele>1447</ele>
        <time>2019-05-05T00:09:35Z</time>
      </trkpt>
      <trkpt lat="46.52552" lon="6.21727">
        <ele>1447</ele>
        <time>2019-05-05T00:09:36Z</time>
      </trkpt>
      <trkpt lat="46.52551" lon="6.21727">
        <ele>1447</ele>
        <time>2019-05-05T00:09:37Z</time>
      </trkpt>
      <trkpt lat="46.52557" lon="6.21735">
        <ele>1447</ele>
        <time>2019-05-05T00:09:43Z</time>
      </trkpt>
      <trkpt lat="46.52558" lon="6.2173">
        <ele>1447</ele>
        <time>2019-05-05T00:09:46Z</time>
      </trkpt>
      <trkpt lat="46.52558" lon="6.21726">
        <ele>1446</ele>
        <time>2019-05-05T00:09:48Z</time>
      </trkpt>
      <trkpt lat="46.52558" lon="6.21725">
        <ele>1446</ele>
        <time>2019-05-05T00:09:48Z</time>
      </trkpt>
      <trkpt lat="46.52558" lon="6.21714">
        <ele>1446</ele>
        <time>2019-05-05T00:09:54Z</time>
      </trkpt>
      <trkpt lat="46.5256" lon="6.2171">
        <ele>1445</ele>
        <time>2019-05-05T00:09:56Z</time>
      </trkpt>
      <trkpt lat="46.52577" lon="6.21709">
        <ele>1444</ele>
        <time>2019-05-05T00:10:09Z</time>
      </trkpt>
      <trkpt lat="46.52584" lon="6.21713">
        <ele>1443</ele>
        <time>2019-05-05T00:10:14Z</time>
      </trkpt>
      <trkpt lat="46.52592" lon="6.21717">
        <ele>1443</ele>
        <time>2019-05-05T00:10:20Z</time>
      </trkpt>
      <trkpt lat="46.52608" lon="6.21709">
        <ele>1441</ele>
        <time>2019-05-05T00:10:33Z</time>
      </trkpt>
      <trkpt lat="46.52609" lon="6.21707">
        <ele>1441</ele>
        <time>2019-05-05T00:10:34Z</time>
      </trkpt>
      <trkpt lat="46.5261" lon="6.21703">
        <ele>1441</ele>
        <time>2019-05-05T00:10:36Z</time>
      </trkpt>
      <trkpt lat="46.52617" lon="6.21679">
        <ele>1439</ele>
        <time>2019-05-05T00:10:50Z</time>
      </trkpt>
      <trkpt lat="46.52618" lon="6.21677">
        <ele>1439</ele>
        <time>2019-05-05T00:10:51Z</time>
      </trkpt>
      <trkpt lat="46.5262" lon="6.21674">
        <ele>1438</ele>
        <time>2019-05-05T00:10:53Z</time>
      </trkpt>
      <trkpt lat="46.52622" lon="6.21673">
        <ele>1438</ele>
        <time>2019-05-05T00:10:54Z</time>
      </trkpt>
      <trkpt lat="46.52634" lon="6.21667">
        <ele>1436</ele>
        <time>2019-05-05T00:11:04Z</time>
      </trkpt>
      <trkpt lat="46.52641" lon="6.21665">
        <ele>1436</ele>
        <time>2019-05-05T00:11:09Z</time>
      </trkpt>
      <trkpt lat="46.52644" lon="6.21664">
        <ele>1435</ele>
        <time>2019-05-05T00:11:11Z</time>
      </trkpt>
      <trkpt lat="46.52647" lon="6.21664">
        <ele>1435</ele>
        <time>2019-05-05T00:11:13Z</time>
      </trkpt>
      <trkpt lat="46.52651" lon="6.21664">
        <ele>1435</ele>
        <time>2019-05-05T00:11:17Z</time>
      </trkpt>
      <trkpt lat="46.52654" lon="6.21663">
        <ele>1434</ele>
        <time>2019-05-05T00:11:18Z</time>
      </trkpt>
      <trkpt lat="46.52656" lon="6.21663">
        <ele>1434</ele>
        <time>2019-05-05T00:11:20Z</time>
      </trkpt>
      <trkpt lat="46.52661" lon="6.21661">
        <ele>1434</ele>
        <time>2019-05-05T00:11:24Z</time>
      </trkpt>
      <trkpt lat="46.52667" lon="6.21652">
        <ele>1432</ele>
        <time>2019-05-05T00:11:30Z</time>
      </trkpt>
      <trkpt lat="46.52668" lon="6.21645">
        <ele>1431</ele>
        <time>2019-05-05T00:11:33Z</time>
      </trkpt>
      <trkpt lat="46.52659" lon="6.21622">
        <ele>1430</ele>
        <time>2019-05-05T00:11:47Z</time>
      </trkpt>
      <trkpt lat="46.52645" lon="6.21603">
        <ele>1429</ele>
        <time>2019-05-05T00:12:00Z</time>
      </trkpt>
      <trkpt lat="46.52642" lon="6.21594">
        <ele>1429</ele>
        <time>2019-05-05T00:12:05Z</time>
      </trkpt>
      <trkpt lat="46.52638" lon="6.2158">
        <ele>1428</ele>
        <time>2019-05-05T00:12:13Z</time>
      </trkpt>
      <trkpt lat="46.52635" lon="6.21572">
        <ele>1427</ele>
        <time>2019-05-05T00:12:18Z</time>
      </trkpt>
      <trkpt lat="46.52631" lon="6.21565">
        <ele>1427</ele>
        <time>2019-05-05T00:12:22Z</time>
      </trkpt>
      <trkpt lat="46.52628" lon="6.21558">
        <ele>1427</ele>
        <time>2019-05-05T00:12:26Z</time>
      </trkpt>
      <trkpt lat="46.52626" lon="6.21551">
        <ele>1426</ele>
        <time>2019-05-05T00:12:30Z</time>
      </trkpt>
      <trkpt lat="46.52623" lon="6.21544">
        <ele>1426</ele>
        <time>2019-05-05T00:12:34Z</time>
      </trkpt>
      <trkpt lat="46.52621" lon="6.2154">
        <ele>1426</ele>
        <time>2019-05-05T00:12:36Z</time>
      </trkpt>
      <trkpt lat="46.52618" lon="6.21535">
        <ele>1426</ele>
        <time>2019-05-05T00:12:40Z</time>
      </trkpt>
      <trkpt lat="46.52616" lon="6.21529">
        <ele>1426</ele>
        <time>2019-05-05T00:12:43Z</time>
      </trkpt>
      <trkpt lat="46.52613" lon="6.21518">
        <ele>1426</ele>
        <time>2019-05-05T00:12:49Z</time>
      </trkpt>
      <trkpt lat="46.52607" lon="6.21495">
        <ele>1422</ele>
        <time>2019-05-05T00:13:02Z</time>
      </trkpt>
      <trkpt lat="46.52604" lon="6.2148">
        <ele>1419</ele>
        <time>2019-05-05T00:13:10Z</time>
      </trkpt>
      <trkpt lat="46.52603" lon="6.21469">
        <ele>1416</ele>
        <time>2019-05-05T00:13:16Z</time>
      </trkpt>
      <trkpt lat="46.52602" lon="6.21462">
        <ele>1415</ele>
        <time>2019-05-05T00:13:19Z</time>
      </trkpt>
      <trkpt lat="46.52599" lon="6.21456">
        <ele>1414</ele>
        <time>2019-05-05T00:13:23Z</time>
      </trkpt>
      <trkpt lat="46.52597" lon="6.21451">
        <ele>1414</ele>
        <time>2019-05-05T00:13:26Z</time>
      </trkpt>
      <trkpt lat="46.52595" lon="6.21443">
        <ele>1412</ele>
        <time>2019-05-05T00:13:30Z</time>
      </trkpt>
      <trkpt lat="46.52591" lon="6.21434">
        <ele>1411</ele>
        <time>2019-05-05T00:13:36Z</time>
      </trkpt>
      <trkpt lat="46.52588" lon="6.21428">
        <ele>1411</ele>
        <time>2019-05-05T00:13:39Z</time>
      </trkpt>
      <trkpt lat="46.52588" lon="6.2142">
        <ele>1409</ele>
        <time>2019-05-05T00:13:43Z</time>
      </trkpt>
      <trkpt lat="46.52588" lon="6.21411">
        <ele>1407</ele>
        <time>2019-05-05T00:13:48Z</time>
      </trkpt>
      <trkpt lat="46.52589" lon="6.21403">
        <ele>1405</ele>
        <time>2019-05-05T00:13:52Z</time>
      </trkpt>
      <trkpt lat="46.52589" lon="6.21391">
        <ele>1403</ele>
        <time>2019-05-05T00:13:58Z</time>
      </trkpt>
      <trkpt lat="46.52589" lon="6.21377">
        <ele>1400</ele>
        <time>2019-05-05T00:14:05Z</time>
      </trkpt>
      <trkpt lat="46.52589" lon="6.21371">
        <ele>1398</ele>
        <time>2019-05-05T00:14:09Z</time>
      </trkpt>
      <trkpt lat="46.52591" lon="6.21364">
        <ele>1396</ele>
        <time>2019-05-05T00:14:12Z</time>
      </trkpt>
      <trkpt lat="46.52596" lon="6.21356">
        <ele>1394</ele>
        <time>2019-05-05T00:14:18Z</time>
      </trkpt>
      <trkpt lat="46.526" lon="6.21346">
        <ele>1391</ele>
        <time>2019-05-05T00:14:24Z</time>
      </trkpt>
      <trkpt lat="46.52601" lon="6.21342">
        <ele>1390</ele>
        <time>2019-05-05T00:14:26Z</time>
      </trkpt>
      <trkpt lat="46.52602" lon="6.21339">
        <ele>1390</ele>
        <time>2019-05-05T00:14:28Z</time>
      </trkpt>
      <trkpt lat="46.52604" lon="6.21336">
        <ele>1389</ele>
        <time>2019-05-05T00:14:30Z</time>
      </trkpt>
      <trkpt lat="46.52604" lon="6.21333">
        <ele>1388</ele>
        <time>2019-05-05T00:14:32Z</time>
      </trkpt>
      <trkpt lat="46.52605" lon="6.21326">
        <ele>1387</ele>
        <time>2019-05-05T00:14:35Z</time>
      </trkpt>
      <trkpt lat="46.52605" lon="6.21319">
        <ele>1386</ele>
        <time>2019-05-05T00:14:39Z</time>
      </trkpt>
      <trkpt lat="46.52605" lon="6.21308">
        <ele>1384</ele>
        <time>2019-05-05T00:14:45Z</time>
      </trkpt>
      <trkpt lat="46.52604" lon="6.213">
        <ele>1383</ele>
        <time>2019-05-05T00:14:48Z</time>
      </trkpt>
      <trkpt lat="46.52603" lon="6.21298">
        <ele>1383</ele>
        <time>2019-05-05T00:14:50Z</time>
      </trkpt>
      <trkpt lat="46.52595" lon="6.21294">
        <ele>1383</ele>
        <time>2019-05-05T00:14:56Z</time>
      </trkpt>
      <trkpt lat="46.52586" lon="6.21286">
        <ele>1383</ele>
        <time>2019-05-05T00:15:03Z</time>
      </trkpt>
      <trkpt lat="46.52579" lon="6.21279">
        <ele>1383</ele>
        <time>2019-05-05T00:15:10Z</time>
      </trkpt>
      <trkpt lat="46.52572" lon="6.21271">
        <ele>1382</ele>
        <time>2019-05-05T00:15:16Z</time>
      </trkpt>
      <trkpt lat="46.52568" lon="6.21265">
        <ele>1382</ele>
        <time>2019-05-05T00:15:20Z</time>
      </trkpt>
      <trkpt lat="46.52565" lon="6.2126">
        <ele>1381</ele>
        <time>2019-05-05T00:15:24Z</time>
      </trkpt>
      <trkpt lat="46.52563" lon="6.21245">
        <ele>1379</ele>
        <time>2019-05-05T00:15:31Z</time>
      </trkpt>
      <trkpt lat="46.52561" lon="6.21235">
        <ele>1378</ele>
        <time>2019-05-05T00:15:36Z</time>
      </trkpt>
      <trkpt lat="46.52559" lon="6.21218">
        <ele>1376</ele>
        <time>2019-05-05T00:15:45Z</time>
      </trkpt>
      <trkpt lat="46.52557" lon="6.21208">
        <ele>1375</ele>
        <time>2019-05-05T00:15:50Z</time>
      </trkpt>
      <trkpt lat="46.52557" lon="6.21203">
        <ele>1374</ele>
        <time>2019-05-05T00:15:53Z</time>
      </trkpt>
      <trkpt lat="46.52556" lon="6.21193">
        <ele>1372</ele>
        <time>2019-05-05T00:15:58Z</time>
      </trkpt>
      <trkpt lat="46.52555" lon="6.21177">
        <ele>1371</ele>
        <time>2019-05-05T00:16:06Z</time>
      </trkpt>
      <trkpt lat="46.52554" lon="6.21152">
        <ele>1369</ele>
        <time>2019-05-05T00:16:19Z</time>
      </trkpt>
      <trkpt lat="46.5256" lon="6.21149">
        <ele>1368</ele>
        <time>2019-05-05T00:16:24Z</time>
      </trkpt>
      <trkpt lat="46.52579" lon="6.21152">
        <ele>1368</ele>
        <time>2019-05-05T00:16:37Z</time>
      </trkpt>
      <trkpt lat="46.52581" lon="6.21153">
        <ele>1368</ele>
        <time>2019-05-05T00:16:39Z</time>
      </trkpt>
      <trkpt lat="46.52591" lon="6.21157">
        <ele>1368</ele>
        <time>2019-05-05T00:16:47Z</time>
      </trkpt>
      <trkpt lat="46.52598" lon="6.2116">
        <ele>1368</ele>
        <time>2019-05-05T00:16:52Z</time>
      </trkpt>
      <trkpt lat="46.52605" lon="6.21159">
        <ele>1368</ele>
        <time>2019-05-05T00:16:57Z</time>
      </trkpt>
      <trkpt lat="46.52607" lon="6.21158">
        <ele>1368</ele>
        <time>2019-05-05T00:16:58Z</time>
      </trkpt>
      <trkpt lat="46.52611" lon="6.21153">
        <ele>1367</ele>
        <time>2019-05-05T00:17:02Z</time>
      </trkpt>
      <trkpt lat="46.52616" lon="6.21152">
        <ele>1366</ele>
        <time>2019-05-05T00:17:06Z</time>
      </trkpt>
      <trkpt lat="46.52632" lon="6.21147">
        <ele>1364</ele>
        <time>2019-05-05T00:17:18Z</time>
      </trkpt>
      <trkpt lat="46.52641" lon="6.21146">
        <ele>1362</ele>
        <time>2019-05-05T00:17:24Z</time>
      </trkpt>
      <trkpt lat="46.5265" lon="6.21143">
        <ele>1360</ele>
        <time>2019-05-05T00:17:31Z</time>
      </trkpt>
      <trkpt lat="46.52655" lon="6.21143">
        <ele>1360</ele>
        <time>2019-05-05T00:17:35Z</time>
      </trkpt>
      <trkpt lat="46.52657" lon="6.21142">
        <ele>1359</ele>
        <time>2019-05-05T00:17:37Z</time>
      </trkpt>
      <trkpt lat="46.52672" lon="6.21137">
        <ele>1356</ele>
        <time>2019-05-05T00:17:48Z</time>
      </trkpt>
      <trkpt lat="46.52678" lon="6.21133">
        <ele>1355</ele>
        <time>2019-05-05T00:17:53Z</time>
      </trkpt>
      <trkpt lat="46.52688" lon="6.21134">
        <ele>1353</ele>
        <time>2019-05-05T00:18:00Z</time>
      </trkpt>
      <trkpt lat="46.52693" lon="6.21133">
        <ele>1352</ele>
        <time>2019-05-05T00:18:04Z</time>
      </trkpt>
      <trkpt lat="46.52695" lon="6.21133">
        <ele>1352</ele>
        <time>2019-05-05T00:18:05Z</time>
      </trkpt>
      <trkpt lat="46.52698" lon="6.21133">
        <ele>1351</ele>
        <time>2019-05-05T00:18:07Z</time>
      </trkpt>
      <trkpt lat="46.527" lon="6.21133">
        <ele>1351</ele>
        <time>2019-05-05T00:18:09Z</time>
      </trkpt>
      <trkpt lat="46.52705" lon="6.21136">
        <ele>1350</ele>
        <time>2019-05-05T00:18:12Z</time>
      </trkpt>
      <trkpt lat="46.52706" lon="6.21137">
        <ele>1350</ele>
        <time>2019-05-05T00:18:14Z</time>
      </trkpt>
      <trkpt lat="46.52708" lon="6.21138">
        <ele>1350</ele>
        <time>2019-05-05T00:18:15Z</time>
      </trkpt>
      <trkpt lat="46.52712" lon="6.21141">
        <ele>1350</ele>
        <time>2019-05-05T00:18:19Z</time>
      </trkpt>
      <trkpt lat="46.52729" lon="6.21153">
        <ele>1348</ele>
        <time>2019-05-05T00:18:32Z</time>
      </trkpt>
      <trkpt lat="46.52735" lon="6.21157">
        <ele>1347</ele>
        <time>2019-05-05T00:18:37Z</time>
      </trkpt>
      <trkpt lat="46.52753" lon="6.21165">
        <ele>1344</ele>
        <time>2019-05-05T00:18:51Z</time>
      </trkpt>
      <trkpt lat="46.52755" lon="6.21166">
        <ele>1344</ele>
        <time>2019-05-05T00:18:53Z</time>
      </trkpt>
      <trkpt lat="46.5276" lon="6.21168">
        <ele>1343</ele>
        <time>2019-05-05T00:18:56Z</time>
      </trkpt>
      <trkpt lat="46.52764" lon="6.21169">
        <ele>1343</ele>
        <time>2019-05-05T00:18:59Z</time>
      </trkpt>
      <trkpt lat="46.52767" lon="6.2117">
        <ele>1342</ele>
        <time>2019-05-05T00:19:01Z</time>
      </trkpt>
      <trkpt lat="46.52769" lon="6.2117">
        <ele>1342</ele>
        <time>2019-05-05T00:19:02Z</time>
      </trkpt>
      <trkpt lat="46.52775" lon="6.2117">
        <ele>1340</ele>
        <time>2019-05-05T00:19:07Z</time>
      </trkpt>
      <trkpt lat="46.52782" lon="6.21171">
        <ele>1339</ele>
        <time>2019-05-05T00:19:12Z</time>
      </trkpt>
      <trkpt lat="46.52787" lon="6.21171">
        <ele>1339</ele>
        <time>2019-05-05T00:19:16Z</time>
      </trkpt>
      <trkpt lat="46.52789" lon="6.21171">
        <ele>1338</ele>
        <time>2019-05-05T00:19:18Z</time>
      </trkpt>
      <trkpt lat="46.52794" lon="6.21171">
        <ele>1338</ele>
        <time>2019-05-05T00:19:21Z</time>
      </trkpt>
      <trkpt lat="46.52799" lon="6.2117">
        <ele>1337</ele>
        <time>2019-05-05T00:19:25Z</time>
      </trkpt>
      <trkpt lat="46.52809" lon="6.21167">
        <ele>1335</ele>
        <time>2019-05-05T00:19:32Z</time>
      </trkpt>
      <trkpt lat="46.52814" lon="6.21164">
        <ele>1335</ele>
        <time>2019-05-05T00:19:36Z</time>
      </trkpt>
      <trkpt lat="46.52819" lon="6.21161">
        <ele>1334</ele>
        <time>2019-05-05T00:19:40Z</time>
      </trkpt>
      <trkpt lat="46.52823" lon="6.21159">
        <ele>1333</ele>
        <time>2019-05-05T00:19:44Z</time>
      </trkpt>
      <trkpt lat="46.52826" lon="6.21157">
        <ele>1333</ele>
        <time>2019-05-05T00:19:45Z</time>
      </trkpt>
      <trkpt lat="46.5283" lon="6.21149">
        <ele>1333</ele>
        <time>2019-05-05T00:19:50Z</time>
      </trkpt>
      <trkpt lat="46.52831" lon="6.21122">
        <ele>1333</ele>
        <time>2019-05-05T00:20:04Z</time>
      </trkpt>
      <trkpt lat="46.52831" lon="6.21119">
        <ele>1333</ele>
        <time>2019-05-05T00:20:05Z</time>
      </trkpt>
      <trkpt lat="46.52832" lon="6.21092">
        <ele>1334</ele>
        <time>2019-05-05T00:20:19Z</time>
      </trkpt>
      <trkpt lat="46.52833" lon="6.21084">
        <ele>1335</ele>
        <time>2019-05-05T00:20:23Z</time>
      </trkpt>
      <trkpt lat="46.52828" lon="6.21076">
        <ele>1335</ele>
        <time>2019-05-05T00:20:28Z</time>
      </trkpt>
      <trkpt lat="46.52824" lon="6.21068">
        <ele>1335</ele>
        <time>2019-05-05T00:20:33Z</time>
      </trkpt>
      <trkpt lat="46.52821" lon="6.21064">
        <ele>1336</ele>
        <time>2019-05-05T00:20:36Z</time>
      </trkpt>
      <trkpt lat="46.52822" lon="6.21051">
        <ele>1336</ele>
        <time>2019-05-05T00:20:42Z</time>
      </trkpt>
      <trkpt lat="46.52825" lon="6.21048">
        <ele>1337</ele>
        <time>2019-05-05T00:20:45Z</time>
      </trkpt>
      <trkpt lat="46.52827" lon="6.21048">
        <ele>1337</ele>
        <time>2019-05-05T00:20:46Z</time>
      </trkpt>
      <trkpt lat="46.52839" lon="6.21049">
        <ele>1337</ele>
        <time>2019-05-05T00:20:55Z</time>
      </trkpt>
      <trkpt lat="46.5284" lon="6.21048">
        <ele>1337</ele>
        <time>2019-05-05T00:20:55Z</time>
      </trkpt>
      <trkpt lat="46.52839" lon="6.2105">
        <ele>1337</ele>
        <time>2019-05-05T00:20:56Z</time>
      </trkpt>
      <trkpt lat="46.52838" lon="6.2105">
        <ele>1337</ele>
        <time>2019-05-05T00:20:57Z</time>
      </trkpt>
      <trkpt lat="46.52841" lon="6.21051">
        <ele>1337</ele>
        <time>2019-05-05T00:20:59Z</time>
      </trkpt>
      <trkpt lat="46.52847" lon="6.21048">
        <ele>1337</ele>
        <time>2019-05-05T00:21:04Z</time>
      </trkpt>
      <trkpt lat="46.52853" lon="6.2105">
        <ele>1337</ele>
        <time>2019-05-05T00:21:07Z</time>
      </trkpt>
      <trkpt lat="46.52854" lon="6.2105">
        <ele>1337</ele>
        <time>2019-05-05T00:21:08Z</time>
      </trkpt>
      <trkpt lat="46.52868" lon="6.21044">
        <ele>1339</ele>
        <time>2019-05-05T00:21:19Z</time>
      </trkpt>
      <trkpt lat="46.5288" lon="6.21028">
        <ele>1340</ele>
        <time>2019-05-05T00:21:31Z</time>
      </trkpt>
      <trkpt lat="46.52881" lon="6.21013">
        <ele>1341</ele>
        <time>2019-05-05T00:21:39Z</time>
      </trkpt>
      <trkpt lat="46.52882" lon="6.21018">
        <ele>1341</ele>
        <time>2019-05-05T00:21:41Z</time>
      </trkpt>
      <trkpt lat="46.52884" lon="6.21021">
        <ele>1341</ele>
        <time>2019-05-05T00:21:43Z</time>
      </trkpt>
      <trkpt lat="46.52882" lon="6.21016">
        <ele>1341</ele>
        <time>2019-05-05T00:21:46Z</time>
      </trkpt>
      <trkpt lat="46.52876" lon="6.20989">
        <ele>1341</ele>
        <time>2019-05-05T00:22:00Z</time>
      </trkpt>
      <trkpt lat="46.52875" lon="6.20985">
        <ele>1341</ele>
        <time>2019-05-05T00:22:02Z</time>
      </trkpt>
      <trkpt lat="46.5288" lon="6.20984">
        <ele>1341</ele>
        <time>2019-05-05T00:22:05Z</time>
      </trkpt>
      <trkpt lat="46.52884" lon="6.20979">
        <ele>1341</ele>
        <time>2019-05-05T00:22:09Z</time>
      </trkpt>
      <trkpt lat="46.529" lon="6.20965">
        <ele>1341</ele>
        <time>2019-05-05T00:22:22Z</time>
      </trkpt>
      <trkpt lat="46.5291" lon="6.20958">
        <ele>1341</ele>
        <time>2019-05-05T00:22:31Z</time>
      </trkpt>
      <trkpt lat="46.52921" lon="6.20948">
        <ele>1341</ele>
        <time>2019-05-05T00:22:40Z</time>
      </trkpt>
      <trkpt lat="46.52934" lon="6.20939">
        <ele>1340</ele>
        <time>2019-05-05T00:22:51Z</time>
      </trkpt>
      <trkpt lat="46.52947" lon="6.20921">
        <ele>1339</ele>
        <time>2019-05-05T00:23:04Z</time>
      </trkpt>
      <trkpt lat="46.52952" lon="6.20902">
        <ele>1339</ele>
        <time>2019-05-05T00:23:14Z</time>
      </trkpt>
      <trkpt lat="46.52954" lon="6.20891">
        <ele>1338</ele>
        <time>2019-05-05T00:23:19Z</time>
      </trkpt>
      <trkpt lat="46.52956" lon="6.20863">
        <ele>1337</ele>
        <time>2019-05-05T00:23:33Z</time>
      </trkpt>
      <trkpt lat="46.52956" lon="6.20835">
        <ele>1336</ele>
        <time>2019-05-05T00:23:47Z</time>
      </trkpt>
      <trkpt lat="46.52952" lon="6.20806">
        <ele>1335</ele>
        <time>2019-05-05T00:24:02Z</time>
      </trkpt>
      <trkpt lat="46.52952" lon="6.2078">
        <ele>1334</ele>
        <time>2019-05-05T00:24:15Z</time>
      </trkpt>
      <trkpt lat="46.52958" lon="6.20755">
        <ele>1333</ele>
        <time>2019-05-05T00:24:28Z</time>
      </trkpt>
      <trkpt lat="46.5296" lon="6.20746">
        <ele>1333</ele>
        <time>2019-05-05T00:24:33Z</time>
      </trkpt>
      <trkpt lat="46.52961" lon="6.20743">
        <ele>1333</ele>
        <time>2019-05-05T00:24:35Z</time>
      </trkpt>
      <trkpt lat="46.52963" lon="6.20741">
        <ele>1333</ele>
        <time>2019-05-05T00:24:37Z</time>
      </trkpt>
      <trkpt lat="46.52963" lon="6.20739">
        <ele>1333</ele>
        <time>2019-05-05T00:24:38Z</time>
      </trkpt>
      <trkpt lat="46.5296" lon="6.20726">
        <ele>1332</ele>
        <time>2019-05-05T00:24:44Z</time>
      </trkpt>
      <trkpt lat="46.52959" lon="6.20723">
        <ele>1332</ele>
        <time>2019-05-05T00:24:46Z</time>
      </trkpt>
      <trkpt lat="46.52956" lon="6.20719">
        <ele>1332</ele>
        <time>2019-05-05T00:24:49Z</time>
      </trkpt>
      <trkpt lat="46.52954" lon="6.20716">
        <ele>1332</ele>
        <time>2019-05-05T00:24:51Z</time>
      </trkpt>
      <trkpt lat="46.52951" lon="6.20712">
        <ele>1332</ele>
        <time>2019-05-05T00:24:54Z</time>
      </trkpt>
      <trkpt lat="46.52942" lon="6.20688">
        <ele>1331</ele>
        <time>2019-05-05T00:25:08Z</time>
      </trkpt>
      <trkpt lat="46.52937" lon="6.20661">
        <ele>1330</ele>
        <time>2019-05-05T00:25:22Z</time>
      </trkpt>
      <trkpt lat="46.52934" lon="6.20652">
        <ele>1330</ele>
        <time>2019-05-05T00:25:27Z</time>
      </trkpt>
      <trkpt lat="46.5293" lon="6.20627">
        <ele>1330</ele>
        <time>2019-05-05T00:25:40Z</time>
      </trkpt>
      <trkpt lat="46.5293" lon="6.20617">
        <ele>1329</ele>
        <time>2019-05-05T00:25:44Z</time>
      </trkpt>
      <trkpt lat="46.52931" lon="6.206">
        <ele>1329</ele>
        <time>2019-05-05T00:25:53Z</time>
      </trkpt>
      <trkpt lat="46.52937" lon="6.20575">
        <ele>1328</ele>
        <time>2019-05-05T00:26:06Z</time>
      </trkpt>
      <trkpt lat="46.52946" lon="6.20549">
        <ele>1327</ele>
        <time>2019-05-05T00:26:21Z</time>
      </trkpt>
      <trkpt lat="46.52949" lon="6.20527">
        <ele>1327</ele>
        <time>2019-05-05T00:26:32Z</time>
      </trkpt>
      <trkpt lat="46.52949" lon="6.20506">
        <ele>1328</ele>
        <time>2019-05-05T00:26:42Z</time>
      </trkpt>
      <trkpt lat="46.52942" lon="6.20481">
        <ele>1328</ele>
        <time>2019-05-05T00:26:56Z</time>
      </trkpt>
      <trkpt lat="46.52942" lon="6.20478">
        <ele>1329</ele>
        <time>2019-05-05T00:26:57Z</time>
      </trkpt>
      <trkpt lat="46.5295" lon="6.20453">
        <ele>1328</ele>
        <time>2019-05-05T00:27:11Z</time>
      </trkpt>
      <trkpt lat="46.52961" lon="6.20435">
        <ele>1327</ele>
        <time>2019-05-05T00:27:23Z</time>
      </trkpt>
      <trkpt lat="46.52963" lon="6.20423">
        <ele>1327</ele>
        <time>2019-05-05T00:27:29Z</time>
      </trkpt>
      <trkpt lat="46.52965" lon="6.2041">
        <ele>1327</ele>
        <time>2019-05-05T00:27:36Z</time>
      </trkpt>
      <trkpt lat="46.52972" lon="6.20396">
        <ele>1327</ele>
        <time>2019-05-05T00:27:44Z</time>
      </trkpt>
      <trkpt lat="46.52983" lon="6.20378">
        <ele>1326</ele>
        <time>2019-05-05T00:27:57Z</time>
      </trkpt>
      <trkpt lat="46.52997" lon="6.20358">
        <ele>1324</ele>
        <time>2019-05-05T00:28:10Z</time>
      </trkpt>
      <trkpt lat="46.53" lon="6.20332">
        <ele>1324</ele>
        <time>2019-05-05T00:28:24Z</time>
      </trkpt>
      <trkpt lat="46.53007" lon="6.20307">
        <ele>1323</ele>
        <time>2019-05-05T00:28:37Z</time>
      </trkpt>
      <trkpt lat="46.53017" lon="6.20282">
        <ele>1322</ele>
        <time>2019-05-05T00:28:52Z</time>
      </trkpt>
      <trkpt lat="46.53032" lon="6.20266">
        <ele>1322</ele>
        <time>2019-05-05T00:29:05Z</time>
      </trkpt>
      <trkpt lat="46.5304" lon="6.20249">
        <ele>1322</ele>
        <time>2019-05-05T00:29:15Z</time>
      </trkpt>
      <trkpt lat="46.53049" lon="6.20224">
        <ele>1324</ele>
        <time>2019-05-05T00:29:29Z</time>
      </trkpt>
      <trkpt lat="46.53051" lon="6.2022">
        <ele>1324</ele>
        <time>2019-05-05T00:29:31Z</time>
      </trkpt>
      <trkpt lat="46.53054" lon="6.20208">
        <ele>1325</ele>
        <time>2019-05-05T00:29:38Z</time>
      </trkpt>
      <trkpt lat="46.53055" lon="6.20201">
        <ele>1325</ele>
        <time>2019-05-05T00:29:41Z</time>
      </trkpt>
      <trkpt lat="46.53057" lon="6.20175">
        <ele>1327</ele>
        <time>2019-05-05T00:29:55Z</time>
      </trkpt>
      <trkpt lat="46.5306" lon="6.20168">
        <ele>1328</ele>
        <time>2019-05-05T00:29:59Z</time>
      </trkpt>
      <trkpt lat="46.53063" lon="6.20162">
        <ele>1328</ele>
        <time>2019-05-05T00:30:02Z</time>
      </trkpt>
      <trkpt lat="46.53063" lon="6.20158">
        <ele>1329</ele>
        <time>2019-05-05T00:30:05Z</time>
      </trkpt>
      <trkpt lat="46.53063" lon="6.20155">
        <ele>1329</ele>
        <time>2019-05-05T00:30:06Z</time>
      </trkpt>
      <trkpt lat="46.53065" lon="6.20149">
        <ele>1330</ele>
        <time>2019-05-05T00:30:09Z</time>
      </trkpt>
      <trkpt lat="46.53069" lon="6.20147">
        <ele>1330</ele>
        <time>2019-05-05T00:30:13Z</time>
      </trkpt>
      <trkpt lat="46.53071" lon="6.20144">
        <ele>1330</ele>
        <time>2019-05-05T00:30:15Z</time>
      </trkpt>
      <trkpt lat="46.53072" lon="6.20143">
        <ele>1331</ele>
        <time>2019-05-05T00:30:16Z</time>
      </trkpt>
      <trkpt lat="46.53075" lon="6.20141">
        <ele>1331</ele>
        <time>2019-05-05T00:30:18Z</time>
      </trkpt>
      <trkpt lat="46.53078" lon="6.20141">
        <ele>1331</ele>
        <time>2019-05-05T00:30:21Z</time>
      </trkpt>
      <trkpt lat="46.53079" lon="6.20141">
        <ele>1331</ele>
        <time>2019-05-05T00:30:21Z</time>
      </trkpt>
      <trkpt lat="46.5308" lon="6.2014">
        <ele>1331</ele>
        <time>2019-05-05T00:30:22Z</time>
      </trkpt>
      <trkpt lat="46.53081" lon="6.2014">
        <ele>1331</ele>
        <time>2019-05-05T00:30:23Z</time>
      </trkpt>
      <trkpt lat="46.53085" lon="6.2014">
        <ele>1331</ele>
        <time>2019-05-05T00:30:25Z</time>
      </trkpt>
      <trkpt lat="46.53084" lon="6.20137">
        <ele>1332</ele>
        <time>2019-05-05T00:30:27Z</time>
      </trkpt>
      <trkpt lat="46.53084" lon="6.20131">
        <ele>1332</ele>
        <time>2019-05-05T00:30:30Z</time>
      </trkpt>
      <trkpt lat="46.53084" lon="6.2013">
        <ele>1332</ele>
        <time>2019-05-05T00:30:30Z</time>
      </trkpt>
      <trkpt lat="46.53084" lon="6.20126">
        <ele>1333</ele>
        <time>2019-05-05T00:30:32Z</time>
      </trkpt>
      <trkpt lat="46.53083" lon="6.20123">
        <ele>1333</ele>
        <time>2019-05-05T00:30:34Z</time>
      </trkpt>
      <trkpt lat="46.53081" lon="6.20116">
        <ele>1334</ele>
        <time>2019-05-05T00:30:38Z</time>
      </trkpt>
      <trkpt lat="46.53083" lon="6.20114">
        <ele>1334</ele>
        <time>2019-05-05T00:30:39Z</time>
      </trkpt>
      <trkpt lat="46.53086" lon="6.20112">
        <ele>1335</ele>
        <time>2019-05-05T00:30:42Z</time>
      </trkpt>
      <trkpt lat="46.53086" lon="6.20111">
        <ele>1335</ele>
        <time>2019-05-05T00:30:42Z</time>
      </trkpt>
      <trkpt lat="46.53088" lon="6.20104">
        <ele>1336</ele>
        <time>2019-05-05T00:30:46Z</time>
      </trkpt>
      <trkpt lat="46.53089" lon="6.20101">
        <ele>1336</ele>
        <time>2019-05-05T00:30:48Z</time>
      </trkpt>
      <trkpt lat="46.53089" lon="6.201">
        <ele>1336</ele>
        <time>2019-05-05T00:30:48Z</time>
      </trkpt>
      <trkpt lat="46.53091" lon="6.201">
        <ele>1336</ele>
        <time>2019-05-05T00:30:50Z</time>
      </trkpt>
      <trkpt lat="46.53096" lon="6.201">
        <ele>1337</ele>
        <time>2019-05-05T00:30:54Z</time>
      </trkpt>
      <trkpt lat="46.53098" lon="6.20096">
        <ele>1337</ele>
        <time>2019-05-05T00:30:56Z</time>
      </trkpt>
      <trkpt lat="46.53098" lon="6.20093">
        <ele>1338</ele>
        <time>2019-05-05T00:30:58Z</time>
      </trkpt>
      <trkpt lat="46.53096" lon="6.20087">
        <ele>1338</ele>
        <time>2019-05-05T00:31:01Z</time>
      </trkpt>
      <trkpt lat="46.53091" lon="6.20075">
        <ele>1339</ele>
        <time>2019-05-05T00:31:08Z</time>
      </trkpt>
      <trkpt lat="46.53093" lon="6.20069">
        <ele>1340</ele>
        <time>2019-05-05T00:31:11Z</time>
      </trkpt>
      <trkpt lat="46.53094" lon="6.20066">
        <ele>1341</ele>
        <time>2019-05-05T00:31:13Z</time>
      </trkpt>
      <trkpt lat="46.53098" lon="6.20057">
        <ele>1342</ele>
        <time>2019-05-05T00:31:18Z</time>
      </trkpt>
      <trkpt lat="46.53102" lon="6.20051">
        <ele>1343</ele>
        <time>2019-05-05T00:31:22Z</time>
      </trkpt>
      <trkpt lat="46.53103" lon="6.20046">
        <ele>1344</ele>
        <time>2019-05-05T00:31:25Z</time>
      </trkpt>
      <trkpt lat="46.53105" lon="6.20041">
        <ele>1345</ele>
        <time>2019-05-05T00:31:28Z</time>
      </trkpt>
      <trkpt lat="46.53106" lon="6.2004">
        <ele>1345</ele>
        <time>2019-05-05T00:31:29Z</time>
      </trkpt>
      <trkpt lat="46.5311" lon="6.20033">
        <ele>1346</ele>
        <time>2019-05-05T00:31:34Z</time>
      </trkpt>
      <trkpt lat="46.53112" lon="6.20027">
        <ele>1347</ele>
        <time>2019-05-05T00:31:37Z</time>
      </trkpt>
      <trkpt lat="46.53114" lon="6.20022">
        <ele>1348</ele>
        <time>2019-05-05T00:31:40Z</time>
      </trkpt>
      <trkpt lat="46.53117" lon="6.20014">
        <ele>1349</ele>
        <time>2019-05-05T00:31:45Z</time>
      </trkpt>
      <trkpt lat="46.5312" lon="6.20009">
        <ele>1350</ele>
        <time>2019-05-05T00:31:48Z</time>
      </trkpt>
      <trkpt lat="46.53122" lon="6.20003">
        <ele>1351</ele>
        <time>2019-05-05T00:31:51Z</time>
      </trkpt>
      <trkpt lat="46.53122" lon="6.20001">
        <ele>1351</ele>
        <time>2019-05-05T00:31:53Z</time>
      </trkpt>
      <trkpt lat="46.53124" lon="6.19996">
        <ele>1352</ele>
        <time>2019-05-05T00:31:55Z</time>
      </trkpt>
      <trkpt lat="46.53126" lon="6.19993">
        <ele>1353</ele>
        <time>2019-05-05T00:31:57Z</time>
      </trkpt>
      <trkpt lat="46.53126" lon="6.19992">
        <ele>1353</ele>
        <time>2019-05-05T00:31:58Z</time>
      </trkpt>
      <trkpt lat="46.53128" lon="6.19989">
        <ele>1353</ele>
        <time>2019-05-05T00:32:00Z</time>
      </trkpt>
      <trkpt lat="46.53129" lon="6.19988">
        <ele>1354</ele>
        <time>2019-05-05T00:32:01Z</time>
      </trkpt>
      <trkpt lat="46.5313" lon="6.19984">
        <ele>1354</ele>
        <time>2019-05-05T00:32:03Z</time>
      </trkpt>
      <trkpt lat="46.53136" lon="6.1998">
        <ele>1356</ele>
        <time>2019-05-05T00:32:08Z</time>
      </trkpt>
      <trkpt lat="46.53138" lon="6.19978">
        <ele>1356</ele>
        <time>2019-05-05T00:32:10Z</time>
      </trkpt>
      <trkpt lat="46.5314" lon="6.19976">
        <ele>1357</ele>
        <time>2019-05-05T00:32:11Z</time>
      </trkpt>
      <trkpt lat="46.53141" lon="6.19972">
        <ele>1357</ele>
        <time>2019-05-05T00:32:13Z</time>
      </trkpt>
      <trkpt lat="46.53145" lon="6.19966">
        <ele>1359</ele>
        <time>2019-05-05T00:32:18Z</time>
      </trkpt>
      <trkpt lat="46.5315" lon="6.19962">
        <ele>1360</ele>
        <time>2019-05-05T00:32:22Z</time>
      </trkpt>
      <trkpt lat="46.53154" lon="6.19958">
        <ele>1361</ele>
        <time>2019-05-05T00:32:26Z</time>
      </trkpt>
      <trkpt lat="46.53157" lon="6.19953">
        <ele>1362</ele>
        <time>2019-05-05T00:32:29Z</time>
      </trkpt>
      <trkpt lat="46.53161" lon="6.19952">
        <ele>1363</ele>
        <time>2019-05-05T00:32:32Z</time>
      </trkpt>
      <trkpt lat="46.53162" lon="6.19952">
        <ele>1363</ele>
        <time>2019-05-05T00:32:33Z</time>
      </trkpt>
      <trkpt lat="46.53165" lon="6.19952">
        <ele>1364</ele>
        <time>2019-05-05T00:32:35Z</time>
      </trkpt>
      <trkpt lat="46.53168" lon="6.19952">
        <ele>1364</ele>
        <time>2019-05-05T00:32:37Z</time>
      </trkpt>
      <trkpt lat="46.53168" lon="6.19952">
        <ele>1364</ele>
        <time>2019-05-05T00:32:37Z</time>
      </trkpt>
      <trkpt lat="46.53172" lon="6.19948">
        <ele>1366</ele>
        <time>2019-05-05T00:32:41Z</time>
      </trkpt>
      <trkpt lat="46.53172" lon="6.19945">
        <ele>1366</ele>
        <time>2019-05-05T00:32:42Z</time>
      </trkpt>
      <trkpt lat="46.53172" lon="6.19941">
        <ele>1367</ele>
        <time>2019-05-05T00:32:44Z</time>
      </trkpt>
      <trkpt lat="46.53172" lon="6.19937">
        <ele>1367</ele>
        <time>2019-05-05T00:32:47Z</time>
      </trkpt>
      <trkpt lat="46.53171" lon="6.19931">
        <ele>1368</ele>
        <time>2019-05-05T00:32:49Z</time>
      </trkpt>
      <trkpt lat="46.53169" lon="6.19926">
        <ele>1369</ele>
        <time>2019-05-05T00:32:53Z</time>
      </trkpt>
      <trkpt lat="46.53168" lon="6.19921">
        <ele>1370</ele>
        <time>2019-05-05T00:32:55Z</time>
      </trkpt>
      <trkpt lat="46.53166" lon="6.19916">
        <ele>1370</ele>
        <time>2019-05-05T00:32:58Z</time>
      </trkpt>
      <trkpt lat="46.53165" lon="6.19911">
        <ele>1371</ele>
        <time>2019-05-05T00:33:01Z</time>
      </trkpt>
      <trkpt lat="46.53163" lon="6.19907">
        <ele>1371</ele>
        <time>2019-05-05T00:33:03Z</time>
      </trkpt>
      <trkpt lat="46.53162" lon="6.19901">
        <ele>1372</ele>
        <time>2019-05-05T00:33:06Z</time>
      </trkpt>
      <trkpt lat="46.53163" lon="6.19896">
        <ele>1373</ele>
        <time>2019-05-05T00:33:09Z</time>
      </trkpt>
      <trkpt lat="46.53163" lon="6.19892">
        <ele>1374</ele>
        <time>2019-05-05T00:33:11Z</time>
      </trkpt>
      <trkpt lat="46.53164" lon="6.19886">
        <ele>1375</ele>
        <time>2019-05-05T00:33:14Z</time>
      </trkpt>
      <trkpt lat="46.53164" lon="6.19881">
        <ele>1376</ele>
        <time>2019-05-05T00:33:17Z</time>
      </trkpt>
      <trkpt lat="46.53165" lon="6.19874">
        <ele>1377</ele>
        <time>2019-05-05T00:33:21Z</time>
      </trkpt>
      <trkpt lat="46.53166" lon="6.19866">
        <ele>1379</ele>
        <time>2019-05-05T00:33:25Z</time>
      </trkpt>
      <trkpt lat="46.5317" lon="6.19865">
        <ele>1380</ele>
        <time>2019-05-05T00:33:27Z</time>
      </trkpt>
      <trkpt lat="46.53171" lon="6.19864">
        <ele>1380</ele>
        <time>2019-05-05T00:33:28Z</time>
      </trkpt>
      <trkpt lat="46.53172" lon="6.19863">
        <ele>1380</ele>
        <time>2019-05-05T00:33:29Z</time>
      </trkpt>
      <trkpt lat="46.53178" lon="6.19861">
        <ele>1382</ele>
        <time>2019-05-05T00:33:34Z</time>
      </trkpt>
      <trkpt lat="46.5318" lon="6.1986">
        <ele>1382</ele>
        <time>2019-05-05T00:33:35Z</time>
      </trkpt>
      <trkpt lat="46.53183" lon="6.19858">
        <ele>1383</ele>
        <time>2019-05-05T00:33:38Z</time>
      </trkpt>
      <trkpt lat="46.53184" lon="6.19856">
        <ele>1384</ele>
        <time>2019-05-05T00:33:39Z</time>
      </trkpt>
      <trkpt lat="46.53187" lon="6.19853">
        <ele>1385</ele>
        <time>2019-05-05T00:33:42Z</time>
      </trkpt>
      <trkpt lat="46.53187" lon="6.19851">
        <ele>1385</ele>
        <time>2019-05-05T00:33:43Z</time>
      </trkpt>
      <trkpt lat="46.5319" lon="6.1985">
        <ele>1386</ele>
        <time>2019-05-05T00:33:45Z</time>
      </trkpt>
      <trkpt lat="46.53192" lon="6.19849">
        <ele>1386</ele>
        <time>2019-05-05T00:33:46Z</time>
      </trkpt>
      <trkpt lat="46.53196" lon="6.19848">
        <ele>1387</ele>
        <time>2019-05-05T00:33:50Z</time>
      </trkpt>
      <trkpt lat="46.53199" lon="6.19845">
        <ele>1388</ele>
        <time>2019-05-05T00:33:52Z</time>
      </trkpt>
      <trkpt lat="46.53202" lon="6.19834">
        <ele>1389</ele>
        <time>2019-05-05T00:33:58Z</time>
      </trkpt>
      <trkpt lat="46.53206" lon="6.19827">
        <ele>1390</ele>
        <time>2019-05-05T00:34:02Z</time>
      </trkpt>
      <trkpt lat="46.53207" lon="6.19824">
        <ele>1391</ele>
        <time>2019-05-05T00:34:04Z</time>
      </trkpt>
      <trkpt lat="46.53209" lon="6.1982">
        <ele>1392</ele>
        <time>2019-05-05T00:34:07Z</time>
      </trkpt>
      <trkpt lat="46.53211" lon="6.19817">
        <ele>1392</ele>
        <time>2019-05-05T00:34:09Z</time>
      </trkpt>
      <trkpt lat="46.53212" lon="6.19814">
        <ele>1392</ele>
        <time>2019-05-05T00:34:11Z</time>
      </trkpt>
      <trkpt lat="46.53211" lon="6.19812">
        <ele>1393</ele>
        <time>2019-05-05T00:34:12Z</time>
      </trkpt>
      <trkpt lat="46.53209" lon="6.19803">
        <ele>1393</ele>
        <time>2019-05-05T00:34:16Z</time>
      </trkpt>
      <trkpt lat="46.53208" lon="6.19802">
        <ele>1393</ele>
        <time>2019-05-05T00:34:17Z</time>
      </trkpt>
      <trkpt lat="46.53206" lon="6.19798">
        <ele>1394</ele>
        <time>2019-05-05T00:34:20Z</time>
      </trkpt>
      <trkpt lat="46.53206" lon="6.1979">
        <ele>1395</ele>
        <time>2019-05-05T00:34:24Z</time>
      </trkpt>
      <trkpt lat="46.53207" lon="6.19789">
        <ele>1395</ele>
        <time>2019-05-05T00:34:25Z</time>
      </trkpt>
      <trkpt lat="46.53207" lon="6.19786">
        <ele>1395</ele>
        <time>2019-05-05T00:34:26Z</time>
      </trkpt>
      <trkpt lat="46.53207" lon="6.19781">
        <ele>1395</ele>
        <time>2019-05-05T00:34:28Z</time>
      </trkpt>
      <trkpt lat="46.53207" lon="6.1978">
        <ele>1396</ele>
        <time>2019-05-05T00:34:29Z</time>
      </trkpt>
      <trkpt lat="46.53206" lon="6.19775">
        <ele>1396</ele>
        <time>2019-05-05T00:34:32Z</time>
      </trkpt>
      <trkpt lat="46.53206" lon="6.19762">
        <ele>1397</ele>
        <time>2019-05-05T00:34:39Z</time>
      </trkpt>
      <trkpt lat="46.53209" lon="6.19758">
        <ele>1397</ele>
        <time>2019-05-05T00:34:42Z</time>
      </trkpt>
      <trkpt lat="46.53212" lon="6.19752">
        <ele>1397</ele>
        <time>2019-05-05T00:34:45Z</time>
      </trkpt>
      <trkpt lat="46.53213" lon="6.1975">
        <ele>1398</ele>
        <time>2019-05-05T00:34:47Z</time>
      </trkpt>
      <trkpt lat="46.53213" lon="6.19748">
        <ele>1398</ele>
        <time>2019-05-05T00:34:48Z</time>
      </trkpt>
      <trkpt lat="46.53212" lon="6.19741">
        <ele>1398</ele>
        <time>2019-05-05T00:34:51Z</time>
      </trkpt>
      <trkpt lat="46.53213" lon="6.19736">
        <ele>1398</ele>
        <time>2019-05-05T00:34:53Z</time>
      </trkpt>
      <trkpt lat="46.5322" lon="6.1973">
        <ele>1398</ele>
        <time>2019-05-05T00:34:59Z</time>
      </trkpt>
      <trkpt lat="46.53229" lon="6.19735">
        <ele>1399</ele>
        <time>2019-05-05T00:35:07Z</time>
      </trkpt>
      <trkpt lat="46.53232" lon="6.19736">
        <ele>1399</ele>
        <time>2019-05-05T00:35:08Z</time>
      </trkpt>
      <trkpt lat="46.53234" lon="6.19739">
        <ele>1399</ele>
        <time>2019-05-05T00:35:11Z</time>
      </trkpt>
      <trkpt lat="46.53244" lon="6.19747">
        <ele>1399</ele>
        <time>2019-05-05T00:35:19Z</time>
      </trkpt>
      <trkpt lat="46.53244" lon="6.19749">
        <ele>1399</ele>
        <time>2019-05-05T00:35:20Z</time>
      </trkpt>
      <trkpt lat="46.53246" lon="6.19751">
        <ele>1399</ele>
        <time>2019-05-05T00:35:22Z</time>
      </trkpt>
      <trkpt lat="46.53248" lon="6.19753">
        <ele>1399</ele>
        <time>2019-05-05T00:35:24Z</time>
      </trkpt>
      <trkpt lat="46.53251" lon="6.19754">
        <ele>1399</ele>
        <time>2019-05-05T00:35:26Z</time>
      </trkpt>
      <trkpt lat="46.53253" lon="6.19755">
        <ele>1399</ele>
        <time>2019-05-05T00:35:27Z</time>
      </trkpt>
      <trkpt lat="46.53253" lon="6.19755">
        <ele>1399</ele>
        <time>2019-05-05T00:35:27Z</time>
      </trkpt>
      <trkpt lat="46.53253" lon="6.19755">
        <ele>1399</ele>
        <time>2019-05-05T00:35:28Z</time>
      </trkpt>
      <trkpt lat="46.53258" lon="6.19754">
        <ele>1400</ele>
        <time>2019-05-05T00:35:31Z</time>
      </trkpt>
      <trkpt lat="46.5326" lon="6.1975">
        <ele>1400</ele>
        <time>2019-05-05T00:35:34Z</time>
      </trkpt>
      <trkpt lat="46.53261" lon="6.19745">
        <ele>1400</ele>
        <time>2019-05-05T00:35:37Z</time>
      </trkpt>
      <trkpt lat="46.53259" lon="6.1974">
        <ele>1400</ele>
        <time>2019-05-05T00:35:39Z</time>
      </trkpt>
      <trkpt lat="46.53262" lon="6.19731">
        <ele>1401</ele>
        <time>2019-05-05T00:35:44Z</time>
      </trkpt>
      <trkpt lat="46.53266" lon="6.19726">
        <ele>1401</ele>
        <time>2019-05-05T00:35:48Z</time>
      </trkpt>
      <trkpt lat="46.53265" lon="6.19719">
        <ele>1401</ele>
        <time>2019-05-05T00:35:52Z</time>
      </trkpt>
      <trkpt lat="46.53262" lon="6.19716">
        <ele>1401</ele>
        <time>2019-05-05T00:35:54Z</time>
      </trkpt>
      <trkpt lat="46.53262" lon="6.19716">
        <ele>1401</ele>
        <time>2019-05-05T00:35:55Z</time>
      </trkpt>
      <trkpt lat="46.53258" lon="6.19708">
        <ele>1401</ele>
        <time>2019-05-05T00:36:00Z</time>
      </trkpt>
      <trkpt lat="46.5325" lon="6.19701">
        <ele>1401</ele>
        <time>2019-05-05T00:36:06Z</time>
      </trkpt>
      <trkpt lat="46.53248" lon="6.19696">
        <ele>1401</ele>
        <time>2019-05-05T00:36:09Z</time>
      </trkpt>
      <trkpt lat="46.53248" lon="6.19696">
        <ele>1401</ele>
        <time>2019-05-05T00:36:09Z</time>
      </trkpt>
      <trkpt lat="46.53253" lon="6.19686">
        <ele>1402</ele>
        <time>2019-05-05T00:36:16Z</time>
      </trkpt>
      <trkpt lat="46.53252" lon="6.19683">
        <ele>1402</ele>
        <time>2019-05-05T00:36:17Z</time>
      </trkpt>
      <trkpt lat="46.5325" lon="6.1968">
        <ele>1402</ele>
        <time>2019-05-05T00:36:19Z</time>
      </trkpt>
      <trkpt lat="46.53253" lon="6.19688">
        <ele>1402</ele>
        <time>2019-05-05T00:36:24Z</time>
      </trkpt>
      <trkpt lat="46.53253" lon="6.19693">
        <ele>1401</ele>
        <time>2019-05-05T00:36:26Z</time>
      </trkpt>
      <trkpt lat="46.53254" lon="6.19694">
        <ele>1401</ele>
        <time>2019-05-05T00:36:27Z</time>
      </trkpt>
      <trkpt lat="46.53261" lon="6.19701">
        <ele>1402</ele>
        <time>2019-05-05T00:36:33Z</time>
      </trkpt>
      <trkpt lat="46.53263" lon="6.19703">
        <ele>1402</ele>
        <time>2019-05-05T00:36:35Z</time>
      </trkpt>
      <trkpt lat="46.53264" lon="6.19703">
        <ele>1402</ele>
        <time>2019-05-05T00:36:36Z</time>
      </trkpt>
      <trkpt lat="46.5327" lon="6.19706">
        <ele>1402</ele>
        <time>2019-05-05T00:36:40Z</time>
      </trkpt>
      <trkpt lat="46.53271" lon="6.19707">
        <ele>1402</ele>
        <time>2019-05-05T00:36:41Z</time>
      </trkpt>
      <trkpt lat="46.5328" lon="6.19714">
        <ele>1402</ele>
        <time>2019-05-05T00:36:49Z</time>
      </trkpt>
      <trkpt lat="46.53281" lon="6.19715">
        <ele>1402</ele>
        <time>2019-05-05T00:36:50Z</time>
      </trkpt>
      <trkpt lat="46.53282" lon="6.19717">
        <ele>1402</ele>
        <time>2019-05-05T00:36:51Z</time>
      </trkpt>
      <trkpt lat="46.53284" lon="6.19718">
        <ele>1403</ele>
        <time>2019-05-05T00:36:53Z</time>
      </trkpt>
      <trkpt lat="46.53286" lon="6.19719">
        <ele>1403</ele>
        <time>2019-05-05T00:36:54Z</time>
      </trkpt>
      <trkpt lat="46.53288" lon="6.19715">
        <ele>1403</ele>
        <time>2019-05-05T00:36:57Z</time>
      </trkpt>
      <trkpt lat="46.53288" lon="6.19712">
        <ele>1403</ele>
        <time>2019-05-05T00:36:58Z</time>
      </trkpt>
      <trkpt lat="46.53286" lon="6.19707">
        <ele>1403</ele>
        <time>2019-05-05T00:37:01Z</time>
      </trkpt>
      <trkpt lat="46.53285" lon="6.19704">
        <ele>1403</ele>
        <time>2019-05-05T00:37:03Z</time>
      </trkpt>
      <trkpt lat="46.53284" lon="6.19694">
        <ele>1404</ele>
        <time>2019-05-05T00:37:08Z</time>
      </trkpt>
      <trkpt lat="46.53282" lon="6.19683">
        <ele>1404</ele>
        <time>2019-05-05T00:37:14Z</time>
      </trkpt>
      <trkpt lat="46.53282" lon="6.19677">
        <ele>1404</ele>
        <time>2019-05-05T00:37:17Z</time>
      </trkpt>
      <trkpt lat="46.53282" lon="6.19672">
        <ele>1405</ele>
        <time>2019-05-05T00:37:19Z</time>
      </trkpt>
      <trkpt lat="46.53285" lon="6.19669">
        <ele>1405</ele>
        <time>2019-05-05T00:37:21Z</time>
      </trkpt>
      <trkpt lat="46.53294" lon="6.19655">
        <ele>1407</ele>
        <time>2019-05-05T00:37:31Z</time>
      </trkpt>
      <trkpt lat="46.53297" lon="6.19653">
        <ele>1408</ele>
        <time>2019-05-05T00:37:33Z</time>
      </trkpt>
      <trkpt lat="46.53301" lon="6.19645">
        <ele>1408</ele>
        <time>2019-05-05T00:37:38Z</time>
      </trkpt>
      <trkpt lat="46.533" lon="6.19642">
        <ele>1409</ele>
        <time>2019-05-05T00:37:40Z</time>
      </trkpt>
      <trkpt lat="46.53299" lon="6.1964">
        <ele>1409</ele>
        <time>2019-05-05T00:37:41Z</time>
      </trkpt>
      <trkpt lat="46.53293" lon="6.19634">
        <ele>1408</ele>
        <time>2019-05-05T00:37:46Z</time>
      </trkpt>
      <trkpt lat="46.53279" lon="6.1962">
        <ele>1408</ele>
        <time>2019-05-05T00:37:59Z</time>
      </trkpt>
      <trkpt lat="46.53276" lon="6.19617">
        <ele>1408</ele>
        <time>2019-05-05T00:38:01Z</time>
      </trkpt>
      <trkpt lat="46.5327" lon="6.19614">
        <ele>1408</ele>
        <time>2019-05-05T00:38:06Z</time>
      </trkpt>
      <trkpt lat="46.53269" lon="6.1961">
        <ele>1408</ele>
        <time>2019-05-05T00:38:08Z</time>
      </trkpt>
      <trkpt lat="46.53269" lon="6.19607">
        <ele>1408</ele>
        <time>2019-05-05T00:38:09Z</time>
      </trkpt>
      <trkpt lat="46.53269" lon="6.19596">
        <ele>1409</ele>
        <time>2019-05-05T00:38:15Z</time>
      </trkpt>
      <trkpt lat="46.53268" lon="6.19591">
        <ele>1410</ele>
        <time>2019-05-05T00:38:18Z</time>
      </trkpt>
      <trkpt lat="46.53267" lon="6.19588">
        <ele>1410</ele>
        <time>2019-05-05T00:38:19Z</time>
      </trkpt>
      <trkpt lat="46.53265" lon="6.19582">
        <ele>1411</ele>
        <time>2019-05-05T00:38:23Z</time>
      </trkpt>
      <trkpt lat="46.53268" lon="6.19566">
        <ele>1413</ele>
        <time>2019-05-05T00:38:31Z</time>
      </trkpt>
      <trkpt lat="46.5327" lon="6.19562">
        <ele>1413</ele>
        <time>2019-05-05T00:38:33Z</time>
      </trkpt>
      <trkpt lat="46.53271" lon="6.1956">
        <ele>1414</ele>
        <time>2019-05-05T00:38:35Z</time>
      </trkpt>
      <trkpt lat="46.53271" lon="6.19554">
        <ele>1415</ele>
        <time>2019-05-05T00:38:38Z</time>
      </trkpt>
      <trkpt lat="46.53271" lon="6.19553">
        <ele>1415</ele>
        <time>2019-05-05T00:38:38Z</time>
      </trkpt>
      <trkpt lat="46.53272" lon="6.19548">
        <ele>1415</ele>
        <time>2019-05-05T00:38:41Z</time>
      </trkpt>
      <trkpt lat="46.53272" lon="6.19545">
        <ele>1416</ele>
        <time>2019-05-05T00:38:43Z</time>
      </trkpt>
      <trkpt lat="46.53274" lon="6.19542">
        <ele>1416</ele>
        <time>2019-05-05T00:38:44Z</time>
      </trkpt>
      <trkpt lat="46.53276" lon="6.1954">
        <ele>1417</ele>
        <time>2019-05-05T00:38:46Z</time>
      </trkpt>
      <trkpt lat="46.53277" lon="6.19538">
        <ele>1417</ele>
        <time>2019-05-05T00:38:48Z</time>
      </trkpt>
      <trkpt lat="46.53278" lon="6.19536">
        <ele>1417</ele>
        <time>2019-05-05T00:38:49Z</time>
      </trkpt>
      <trkpt lat="46.53278" lon="6.19534">
        <ele>1417</ele>
        <time>2019-05-05T00:38:50Z</time>
      </trkpt>
      <trkpt lat="46.53277" lon="6.19532">
        <ele>1418</ele>
        <time>2019-05-05T00:38:51Z</time>
      </trkpt>
      <trkpt lat="46.53276" lon="6.19529">
        <ele>1418</ele>
        <time>2019-05-05T00:38:53Z</time>
      </trkpt>
      <trkpt lat="46.53273" lon="6.19525">
        <ele>1418</ele>
        <time>2019-05-05T00:38:56Z</time>
      </trkpt>
      <trkpt lat="46.53274" lon="6.1952">
        <ele>1419</ele>
        <time>2019-05-05T00:38:59Z</time>
      </trkpt>
      <trkpt lat="46.53277" lon="6.19517">
        <ele>1419</ele>
        <time>2019-05-05T00:39:01Z</time>
      </trkpt>
      <trkpt lat="46.5328" lon="6.19516">
        <ele>1420</ele>
        <time>2019-05-05T00:39:04Z</time>
      </trkpt>
      <trkpt lat="46.53282" lon="6.19515">
        <ele>1420</ele>
        <time>2019-05-05T00:39:05Z</time>
      </trkpt>
      <trkpt lat="46.53283" lon="6.19509">
        <ele>1421</ele>
        <time>2019-05-05T00:39:08Z</time>
      </trkpt>
      <trkpt lat="46.5328" lon="6.19507">
        <ele>1421</ele>
        <time>2019-05-05T00:39:11Z</time>
      </trkpt>
      <trkpt lat="46.53275" lon="6.19501">
        <ele>1421</ele>
        <time>2019-05-05T00:39:16Z</time>
      </trkpt>
      <trkpt lat="46.53274" lon="6.19498">
        <ele>1422</ele>
        <time>2019-05-05T00:39:18Z</time>
      </trkpt>
      <trkpt lat="46.53273" lon="6.19495">
        <ele>1422</ele>
        <time>2019-05-05T00:39:19Z</time>
      </trkpt>
      <trkpt lat="46.53271" lon="6.19491">
        <ele>1422</ele>
        <time>2019-05-05T00:39:21Z</time>
      </trkpt>
      <trkpt lat="46.53272" lon="6.19486">
        <ele>1423</ele>
        <time>2019-05-05T00:39:24Z</time>
      </trkpt>
      <trkpt lat="46.53269" lon="6.19467">
        <ele>1425</ele>
        <time>2019-05-05T00:39:34Z</time>
      </trkpt>
      <trkpt lat="46.53267" lon="6.19462">
        <ele>1426</ele>
        <time>2019-05-05T00:39:37Z</time>
      </trkpt>
      <trkpt lat="46.53267" lon="6.19461">
        <ele>1426</ele>
        <time>2019-05-05T00:39:37Z</time>
      </trkpt>
      <trkpt lat="46.53265" lon="6.19457">
        <ele>1426</ele>
        <time>2019-05-05T00:39:40Z</time>
      </trkpt>
      <trkpt lat="46.53263" lon="6.19452">
        <ele>1427</ele>
        <time>2019-05-05T00:39:43Z</time>
      </trkpt>
      <trkpt lat="46.53263" lon="6.19449">
        <ele>1427</ele>
        <time>2019-05-05T00:39:44Z</time>
      </trkpt>
      <trkpt lat="46.53262" lon="6.19447">
        <ele>1427</ele>
        <time>2019-05-05T00:39:45Z</time>
      </trkpt>
      <trkpt lat="46.53261" lon="6.19444">
        <ele>1428</ele>
        <time>2019-05-05T00:39:47Z</time>
      </trkpt>
      <trkpt lat="46.53261" lon="6.19431">
        <ele>1429</ele>
        <time>2019-05-05T00:39:54Z</time>
      </trkpt>
      <trkpt lat="46.5326" lon="6.19429">
        <ele>1429</ele>
        <time>2019-05-05T00:39:55Z</time>
      </trkpt>
      <trkpt lat="46.53259" lon="6.19424">
        <ele>1429</ele>
        <time>2019-05-05T00:39:58Z</time>
      </trkpt>
      <trkpt lat="46.53259" lon="6.1942">
        <ele>1429</ele>
        <time>2019-05-05T00:39:59Z</time>
      </trkpt>
      <trkpt lat="46.53256" lon="6.19416">
        <ele>1429</ele>
        <time>2019-05-05T00:40:02Z</time>
      </trkpt>
      <trkpt lat="46.53254" lon="6.19411">
        <ele>1429</ele>
        <time>2019-05-05T00:40:05Z</time>
      </trkpt>
      <trkpt lat="46.53252" lon="6.19407">
        <ele>1429</ele>
        <time>2019-05-05T00:40:08Z</time>
      </trkpt>
      <trkpt lat="46.53248" lon="6.19399">
        <ele>1429</ele>
        <time>2019-05-05T00:40:12Z</time>
      </trkpt>
      <trkpt lat="46.53247" lon="6.19396">
        <ele>1429</ele>
        <time>2019-05-05T00:40:14Z</time>
      </trkpt>
      <trkpt lat="46.53246" lon="6.19394">
        <ele>1429</ele>
        <time>2019-05-05T00:40:16Z</time>
      </trkpt>
      <trkpt lat="46.53243" lon="6.19391">
        <ele>1429</ele>
        <time>2019-05-05T00:40:18Z</time>
      </trkpt>
      <trkpt lat="46.53237" lon="6.19381">
        <ele>1429</ele>
        <time>2019-05-05T00:40:24Z</time>
      </trkpt>
      <trkpt lat="46.53237" lon="6.1938">
        <ele>1429</ele>
        <time>2019-05-05T00:40:25Z</time>
      </trkpt>
      <trkpt lat="46.53234" lon="6.19374">
        <ele>1429</ele>
        <time>2019-05-05T00:40:29Z</time>
      </trkpt>
      <trkpt lat="46.53232" lon="6.19373">
        <ele>1429</ele>
        <time>2019-05-05T00:40:30Z</time>
      </trkpt>
      <trkpt lat="46.53227" lon="6.19372">
        <ele>1429</ele>
        <time>2019-05-05T00:40:34Z</time>
      </trkpt>
      <trkpt lat="46.53223" lon="6.19368">
        <ele>1429</ele>
        <time>2019-05-05T00:40:37Z</time>
      </trkpt>
      <trkpt lat="46.53221" lon="6.19365">
        <ele>1429</ele>
        <time>2019-05-05T00:40:39Z</time>
      </trkpt>
      <trkpt lat="46.53221" lon="6.19364">
        <ele>1429</ele>
        <time>2019-05-05T00:40:40Z</time>
      </trkpt>
      <trkpt lat="46.5322" lon="6.1936">
        <ele>1429</ele>
        <time>2019-05-05T00:40:42Z</time>
      </trkpt>
      <trkpt lat="46.53218" lon="6.19353">
        <ele>1430</ele>
        <time>2019-05-05T00:40:46Z</time>
      </trkpt>
      <trkpt lat="46.53217" lon="6.19349">
        <ele>1430</ele>
        <time>2019-05-05T00:40:48Z</time>
      </trkpt>
      <trkpt lat="46.53214" lon="6.19344">
        <ele>1430</ele>
        <time>2019-05-05T00:40:51Z</time>
      </trkpt>
      <trkpt lat="46.53213" lon="6.1934">
        <ele>1430</ele>
        <time>2019-05-05T00:40:53Z</time>
      </trkpt>
      <trkpt lat="46.5321" lon="6.19335">
        <ele>1430</ele>
        <time>2019-05-05T00:40:57Z</time>
      </trkpt>
      <trkpt lat="46.53206" lon="6.19333">
        <ele>1430</ele>
        <time>2019-05-05T00:41:00Z</time>
      </trkpt>
      <trkpt lat="46.53203" lon="6.19322">
        <ele>1431</ele>
        <time>2019-05-05T00:41:06Z</time>
      </trkpt>
      <trkpt lat="46.53201" lon="6.19319">
        <ele>1431</ele>
        <time>2019-05-05T00:41:08Z</time>
      </trkpt>
      <trkpt lat="46.53201" lon="6.19319">
        <ele>1431</ele>
        <time>2019-05-05T00:41:08Z</time>
      </trkpt>
      <trkpt lat="46.53198" lon="6.19315">
        <ele>1431</ele>
        <time>2019-05-05T00:41:11Z</time>
      </trkpt>
      <trkpt lat="46.53197" lon="6.19314">
        <ele>1431</ele>
        <time>2019-05-05T00:41:12Z</time>
      </trkpt>
      <trkpt lat="46.53194" lon="6.19312">
        <ele>1432</ele>
        <time>2019-05-05T00:41:14Z</time>
      </trkpt>
      <trkpt lat="46.53191" lon="6.19308">
        <ele>1432</ele>
        <time>2019-05-05T00:41:17Z</time>
      </trkpt>
      <trkpt lat="46.53191" lon="6.19306">
        <ele>1432</ele>
        <time>2019-05-05T00:41:18Z</time>
      </trkpt>
      <trkpt lat="46.53189" lon="6.19304">
        <ele>1432</ele>
        <time>2019-05-05T00:41:19Z</time>
      </trkpt>
      <trkpt lat="46.53188" lon="6.19299">
        <ele>1432</ele>
        <time>2019-05-05T00:41:22Z</time>
      </trkpt>
      <trkpt lat="46.53189" lon="6.19295">
        <ele>1432</ele>
        <time>2019-05-05T00:41:24Z</time>
      </trkpt>
      <trkpt lat="46.53188" lon="6.19289">
        <ele>1433</ele>
        <time>2019-05-05T00:41:27Z</time>
      </trkpt>
      <trkpt lat="46.53188" lon="6.19286">
        <ele>1433</ele>
        <time>2019-05-05T00:41:29Z</time>
      </trkpt>
      <trkpt lat="46.53187" lon="6.19277">
        <ele>1433</ele>
        <time>2019-05-05T00:41:33Z</time>
      </trkpt>
      <trkpt lat="46.53187" lon="6.19276">
        <ele>1433</ele>
        <time>2019-05-05T00:41:33Z</time>
      </trkpt>
      <trkpt lat="46.53186" lon="6.19274">
        <ele>1433</ele>
        <time>2019-05-05T00:41:35Z</time>
      </trkpt>
      <trkpt lat="46.53186" lon="6.19269">
        <ele>1434</ele>
        <time>2019-05-05T00:41:37Z</time>
      </trkpt>
      <trkpt lat="46.53187" lon="6.19264">
        <ele>1434</ele>
        <time>2019-05-05T00:41:40Z</time>
      </trkpt>
      <trkpt lat="46.53185" lon="6.19264">
        <ele>1434</ele>
        <time>2019-05-05T00:41:41Z</time>
      </trkpt>
      <trkpt lat="46.53181" lon="6.19266">
        <ele>1433</ele>
        <time>2019-05-05T00:41:45Z</time>
      </trkpt>
      <trkpt lat="46.53172" lon="6.19268">
        <ele>1431</ele>
        <time>2019-05-05T00:41:51Z</time>
      </trkpt>
      <trkpt lat="46.53171" lon="6.19268">
        <ele>1431</ele>
        <time>2019-05-05T00:41:52Z</time>
      </trkpt>
      <trkpt lat="46.53166" lon="6.19262">
        <ele>1430</ele>
        <time>2019-05-05T00:41:56Z</time>
      </trkpt>
      <trkpt lat="46.5316" lon="6.19259">
        <ele>1429</ele>
        <time>2019-05-05T00:42:01Z</time>
      </trkpt>
      <trkpt lat="46.53156" lon="6.19256">
        <ele>1428</ele>
        <time>2019-05-05T00:42:04Z</time>
      </trkpt>
      <trkpt lat="46.53153" lon="6.19255">
        <ele>1428</ele>
        <time>2019-05-05T00:42:06Z</time>
      </trkpt>
      <trkpt lat="46.53148" lon="6.19255">
        <ele>1427</ele>
        <time>2019-05-05T00:42:10Z</time>
      </trkpt>
      <trkpt lat="46.53145" lon="6.19252">
        <ele>1426</ele>
        <time>2019-05-05T00:42:13Z</time>
      </trkpt>
      <trkpt lat="46.53141" lon="6.19246">
        <ele>1425</ele>
        <time>2019-05-05T00:42:17Z</time>
      </trkpt>
      <trkpt lat="46.53134" lon="6.19241">
        <ele>1424</ele>
        <time>2019-05-05T00:42:23Z</time>
      </trkpt>
      <trkpt lat="46.53132" lon="6.19241">
        <ele>1424</ele>
        <time>2019-05-05T00:42:24Z</time>
      </trkpt>
      <trkpt lat="46.53127" lon="6.19238">
        <ele>1423</ele>
        <time>2019-05-05T00:42:28Z</time>
      </trkpt>
      <trkpt lat="46.53124" lon="6.19237">
        <ele>1422</ele>
        <time>2019-05-05T00:42:31Z</time>
      </trkpt>
      <trkpt lat="46.5311" lon="6.19236">
        <ele>1420</ele>
        <time>2019-05-05T00:42:41Z</time>
      </trkpt>
      <trkpt lat="46.53105" lon="6.19237">
        <ele>1419</ele>
        <time>2019-05-05T00:42:44Z</time>
      </trkpt>
      <trkpt lat="46.531" lon="6.19229">
        <ele>1417</ele>
        <time>2019-05-05T00:42:50Z</time>
      </trkpt>
      <trkpt lat="46.53093" lon="6.19217">
        <ele>1416</ele>
        <time>2019-05-05T00:42:58Z</time>
      </trkpt>
      <trkpt lat="46.53091" lon="6.19214">
        <ele>1416</ele>
        <time>2019-05-05T00:43:00Z</time>
      </trkpt>
      <trkpt lat="46.53089" lon="6.19212">
        <ele>1415</ele>
        <time>2019-05-05T00:43:02Z</time>
      </trkpt>
      <trkpt lat="46.53088" lon="6.19212">
        <ele>1415</ele>
        <time>2019-05-05T00:43:03Z</time>
      </trkpt>
      <trkpt lat="46.53086" lon="6.19214">
        <ele>1414</ele>
        <time>2019-05-05T00:43:04Z</time>
      </trkpt>
      <trkpt lat="46.53084" lon="6.19213">
        <ele>1414</ele>
        <time>2019-05-05T00:43:06Z</time>
      </trkpt>
      <trkpt lat="46.53083" lon="6.1921">
        <ele>1414</ele>
        <time>2019-05-05T00:43:07Z</time>
      </trkpt>
      <trkpt lat="46.53082" lon="6.19207">
        <ele>1414</ele>
        <time>2019-05-05T00:43:09Z</time>
      </trkpt>
      <trkpt lat="46.53081" lon="6.19205">
        <ele>1413</ele>
        <time>2019-05-05T00:43:10Z</time>
      </trkpt>
      <trkpt lat="46.5308" lon="6.19205">
        <ele>1413</ele>
        <time>2019-05-05T00:43:11Z</time>
      </trkpt>
      <trkpt lat="46.53078" lon="6.19203">
        <ele>1413</ele>
        <time>2019-05-05T00:43:13Z</time>
      </trkpt>
      <trkpt lat="46.53077" lon="6.19203">
        <ele>1412</ele>
        <time>2019-05-05T00:43:14Z</time>
      </trkpt>
      <trkpt lat="46.53076" lon="6.19202">
        <ele>1412</ele>
        <time>2019-05-05T00:43:15Z</time>
      </trkpt>
      <trkpt lat="46.53074" lon="6.19198">
        <ele>1412</ele>
        <time>2019-05-05T00:43:17Z</time>
      </trkpt>
      <trkpt lat="46.53072" lon="6.19193">
        <ele>1412</ele>
        <time>2019-05-05T00:43:20Z</time>
      </trkpt>
      <trkpt lat="46.53072" lon="6.19192">
        <ele>1412</ele>
        <time>2019-05-05T00:43:20Z</time>
      </trkpt>
      <trkpt lat="46.53072" lon="6.1919">
        <ele>1411</ele>
        <time>2019-05-05T00:43:22Z</time>
      </trkpt>
      <trkpt lat="46.53071" lon="6.19188">
        <ele>1411</ele>
        <time>2019-05-05T00:43:23Z</time>
      </trkpt>
      <trkpt lat="46.5307" lon="6.19185">
        <ele>1411</ele>
        <time>2019-05-05T00:43:24Z</time>
      </trkpt>
      <trkpt lat="46.5307" lon="6.19184">
        <ele>1411</ele>
        <time>2019-05-05T00:43:25Z</time>
      </trkpt>
      <trkpt lat="46.5307" lon="6.19184">
        <ele>1411</ele>
        <time>2019-05-05T00:43:25Z</time>
      </trkpt>
      <trkpt lat="46.53067" lon="6.19181">
        <ele>1410</ele>
        <time>2019-05-05T00:43:28Z</time>
      </trkpt>
      <trkpt lat="46.53065" lon="6.19177">
        <ele>1410</ele>
        <time>2019-05-05T00:43:30Z</time>
      </trkpt>
      <trkpt lat="46.53062" lon="6.19174">
        <ele>1409</ele>
        <time>2019-05-05T00:43:33Z</time>
      </trkpt>
      <trkpt lat="46.53048" lon="6.1917">
        <ele>1406</ele>
        <time>2019-05-05T00:43:43Z</time>
      </trkpt>
      <trkpt lat="46.53042" lon="6.19167">
        <ele>1404</ele>
        <time>2019-05-05T00:43:48Z</time>
      </trkpt>
      <trkpt lat="46.5304" lon="6.19167">
        <ele>1403</ele>
        <time>2019-05-05T00:43:50Z</time>
      </trkpt>
      <trkpt lat="46.53038" lon="6.19167">
        <ele>1403</ele>
        <time>2019-05-05T00:43:51Z</time>
      </trkpt>
      <trkpt lat="46.53035" lon="6.19165">
        <ele>1402</ele>
        <time>2019-05-05T00:43:53Z</time>
      </trkpt>
      <trkpt lat="46.53022" lon="6.19154">
        <ele>1398</ele>
        <time>2019-05-05T00:44:05Z</time>
      </trkpt>
      <trkpt lat="46.53018" lon="6.19152">
        <ele>1398</ele>
        <time>2019-05-05T00:44:08Z</time>
      </trkpt>
      <trkpt lat="46.53013" lon="6.19148">
        <ele>1397</ele>
        <time>2019-05-05T00:44:12Z</time>
      </trkpt>
      <trkpt lat="46.5301" lon="6.19144">
        <ele>1396</ele>
        <time>2019-05-05T00:44:15Z</time>
      </trkpt>
      <trkpt lat="46.53009" lon="6.19141">
        <ele>1396</ele>
        <time>2019-05-05T00:44:17Z</time>
      </trkpt>
      <trkpt lat="46.53007" lon="6.19138">
        <ele>1395</ele>
        <time>2019-05-05T00:44:19Z</time>
      </trkpt>
      <trkpt lat="46.53007" lon="6.19137">
        <ele>1395</ele>
        <time>2019-05-05T00:44:19Z</time>
      </trkpt>
      <trkpt lat="46.53006" lon="6.19136">
        <ele>1395</ele>
        <time>2019-05-05T00:44:20Z</time>
      </trkpt>
      <trkpt lat="46.53001" lon="6.1913">
        <ele>1394</ele>
        <time>2019-05-05T00:44:25Z</time>
      </trkpt>
      <trkpt lat="46.52999" lon="6.19125">
        <ele>1394</ele>
        <time>2019-05-05T00:44:28Z</time>
      </trkpt>
      <trkpt lat="46.52996" lon="6.19119">
        <ele>1393</ele>
        <time>2019-05-05T00:44:31Z</time>
      </trkpt>
      <trkpt lat="46.52993" lon="6.19111">
        <ele>1392</ele>
        <time>2019-05-05T00:44:36Z</time>
      </trkpt>
      <trkpt lat="46.5299" lon="6.191">
        <ele>1392</ele>
        <time>2019-05-05T00:44:42Z</time>
      </trkpt>
      <trkpt lat="46.52987" lon="6.1909">
        <ele>1391</ele>
        <time>2019-05-05T00:44:47Z</time>
      </trkpt>
      <trkpt lat="46.52985" lon="6.19084">
        <ele>1391</ele>
        <time>2019-05-05T00:44:51Z</time>
      </trkpt>
      <trkpt lat="46.52981" lon="6.19077">
        <ele>1390</ele>
        <time>2019-05-05T00:44:55Z</time>
      </trkpt>
      <trkpt lat="46.52978" lon="6.19069">
        <ele>1389</ele>
        <time>2019-05-05T00:45:00Z</time>
      </trkpt>
      <trkpt lat="46.52976" lon="6.19065">
        <ele>1389</ele>
        <time>2019-05-05T00:45:02Z</time>
      </trkpt>
      <trkpt lat="46.52971" lon="6.1906">
        <ele>1388</ele>
        <time>2019-05-05T00:45:07Z</time>
      </trkpt>
      <trkpt lat="46.52968" lon="6.19056">
        <ele>1387</ele>
        <time>2019-05-05T00:45:10Z</time>
      </trkpt>
      <trkpt lat="46.52963" lon="6.19052">
        <ele>1385</ele>
        <time>2019-05-05T00:45:14Z</time>
      </trkpt>
      <trkpt lat="46.52953" lon="6.19046">
        <ele>1382</ele>
        <time>2019-05-05T00:45:22Z</time>
      </trkpt>
      <trkpt lat="46.52948" lon="6.19041">
        <ele>1380</ele>
        <time>2019-05-05T00:45:26Z</time>
      </trkpt>
      <trkpt lat="46.52944" lon="6.19031">
        <ele>1378</ele>
        <time>2019-05-05T00:45:33Z</time>
      </trkpt>
      <trkpt lat="46.52943" lon="6.19029">
        <ele>1378</ele>
        <time>2019-05-05T00:45:34Z</time>
      </trkpt>
      <trkpt lat="46.52938" lon="6.19016">
        <ele>1376</ele>
        <time>2019-05-05T00:45:41Z</time>
      </trkpt>
      <trkpt lat="46.52936" lon="6.19009">
        <ele>1377</ele>
        <time>2019-05-05T00:45:45Z</time>
      </trkpt>
      <trkpt lat="46.52936" lon="6.19009">
        <ele>1377</ele>
        <time>2019-05-05T00:45:45Z</time>
      </trkpt>
      <trkpt lat="46.52932" lon="6.19005">
        <ele>1377</ele>
        <time>2019-05-05T00:45:49Z</time>
      </trkpt>
      <trkpt lat="46.5293" lon="6.19002">
        <ele>1377</ele>
        <time>2019-05-05T00:45:50Z</time>
      </trkpt>
      <trkpt lat="46.52926" lon="6.18995">
        <ele>1378</ele>
        <time>2019-05-05T00:45:55Z</time>
      </trkpt>
      <trkpt lat="46.5292" lon="6.18989">
        <ele>1378</ele>
        <time>2019-05-05T00:46:00Z</time>
      </trkpt>
      <trkpt lat="46.52914" lon="6.18979">
        <ele>1378</ele>
        <time>2019-05-05T00:46:07Z</time>
      </trkpt>
      <trkpt lat="46.52912" lon="6.18976">
        <ele>1378</ele>
        <time>2019-05-05T00:46:09Z</time>
      </trkpt>
      <trkpt lat="46.52901" lon="6.18954">
        <ele>1377</ele>
        <time>2019-05-05T00:46:23Z</time>
      </trkpt>
      <trkpt lat="46.52899" lon="6.18951">
        <ele>1377</ele>
        <time>2019-05-05T00:46:25Z</time>
      </trkpt>
      <trkpt lat="46.52886" lon="6.18933">
        <ele>1375</ele>
        <time>2019-05-05T00:46:38Z</time>
      </trkpt>
      <trkpt lat="46.52885" lon="6.18932">
        <ele>1375</ele>
        <time>2019-05-05T00:46:39Z</time>
      </trkpt>
      <trkpt lat="46.52874" lon="6.18911">
        <ele>1375</ele>
        <time>2019-05-05T00:46:52Z</time>
      </trkpt>
      <trkpt lat="46.52872" lon="6.18907">
        <ele>1375</ele>
        <time>2019-05-05T00:46:54Z</time>
      </trkpt>
      <trkpt lat="46.52864" lon="6.18898">
        <ele>1373</ele>
        <time>2019-05-05T00:47:02Z</time>
      </trkpt>
      <trkpt lat="46.52861" lon="6.18891">
        <ele>1373</ele>
        <time>2019-05-05T00:47:06Z</time>
      </trkpt>
      <trkpt lat="46.5286" lon="6.1889">
        <ele>1372</ele>
        <time>2019-05-05T00:47:07Z</time>
      </trkpt>
      <trkpt lat="46.52859" lon="6.18888">
        <ele>1372</ele>
        <time>2019-05-05T00:47:08Z</time>
      </trkpt>
      <trkpt lat="46.52858" lon="6.18885">
        <ele>1372</ele>
        <time>2019-05-05T00:47:10Z</time>
      </trkpt>
      <trkpt lat="46.52856" lon="6.18887">
        <ele>1372</ele>
        <time>2019-05-05T00:47:12Z</time>
      </trkpt>
      <trkpt lat="46.52854" lon="6.18888">
        <ele>1373</ele>
        <time>2019-05-05T00:47:13Z</time>
      </trkpt>
      <trkpt lat="46.52853" lon="6.18889">
        <ele>1373</ele>
        <time>2019-05-05T00:47:14Z</time>
      </trkpt>
      <trkpt lat="46.52848" lon="6.18891">
        <ele>1373</ele>
        <time>2019-05-05T00:47:18Z</time>
      </trkpt>
      <trkpt lat="46.52846" lon="6.18892">
        <ele>1374</ele>
        <time>2019-05-05T00:47:20Z</time>
      </trkpt>
      <trkpt lat="46.52843" lon="6.18892">
        <ele>1374</ele>
        <time>2019-05-05T00:47:22Z</time>
      </trkpt>
      <trkpt lat="46.52825" lon="6.18888">
        <ele>1376</ele>
        <time>2019-05-05T00:47:36Z</time>
      </trkpt>
      <trkpt lat="46.5282" lon="6.18888">
        <ele>1377</ele>
        <time>2019-05-05T00:47:39Z</time>
      </trkpt>
      <trkpt lat="46.52819" lon="6.18887">
        <ele>1377</ele>
        <time>2019-05-05T00:47:40Z</time>
      </trkpt>
      <trkpt lat="46.52816" lon="6.18885">
        <ele>1378</ele>
        <time>2019-05-05T00:47:42Z</time>
      </trkpt>
      <trkpt lat="46.52815" lon="6.18883">
        <ele>1378</ele>
        <time>2019-05-05T00:47:43Z</time>
      </trkpt>
      <trkpt lat="46.52799" lon="6.18897">
        <ele>1380</ele>
        <time>2019-05-05T00:47:57Z</time>
      </trkpt>
      <trkpt lat="46.52798" lon="6.18901">
        <ele>1380</ele>
        <time>2019-05-05T00:47:59Z</time>
      </trkpt>
      <trkpt lat="46.52797" lon="6.18909">
        <ele>1380</ele>
        <time>2019-05-05T00:48:03Z</time>
      </trkpt>
      <trkpt lat="46.52793" lon="6.18927">
        <ele>1381</ele>
        <time>2019-05-05T00:48:12Z</time>
      </trkpt>
      <trkpt lat="46.52787" lon="6.18924">
        <ele>1382</ele>
        <time>2019-05-05T00:48:17Z</time>
      </trkpt>
      <trkpt lat="46.52784" lon="6.18898">
        <ele>1382</ele>
        <time>2019-05-05T00:48:30Z</time>
      </trkpt>
      <trkpt lat="46.52783" lon="6.18894">
        <ele>1382</ele>
        <time>2019-05-05T00:48:33Z</time>
      </trkpt>
      <trkpt lat="46.52779" lon="6.18884">
        <ele>1382</ele>
        <time>2019-05-05T00:48:38Z</time>
      </trkpt>
      <trkpt lat="46.52779" lon="6.18882">
        <ele>1382</ele>
        <time>2019-05-05T00:48:39Z</time>
      </trkpt>
      <trkpt lat="46.52782" lon="6.18858">
        <ele>1381</ele>
        <time>2019-05-05T00:48:52Z</time>
      </trkpt>
      <trkpt lat="46.52783" lon="6.18852">
        <ele>1381</ele>
        <time>2019-05-05T00:48:55Z</time>
      </trkpt>
      <trkpt lat="46.52776" lon="6.18828">
        <ele>1381</ele>
        <time>2019-05-05T00:49:07Z</time>
      </trkpt>
      <trkpt lat="46.52772" lon="6.18825">
        <ele>1382</ele>
        <time>2019-05-05T00:49:11Z</time>
      </trkpt>
      <trkpt lat="46.52763" lon="6.18805">
        <ele>1384</ele>
        <time>2019-05-05T00:49:23Z</time>
      </trkpt>
      <trkpt lat="46.5276" lon="6.18778">
        <ele>1385</ele>
        <time>2019-05-05T00:49:36Z</time>
      </trkpt>
      <trkpt lat="46.52753" lon="6.18754">
        <ele>1387</ele>
        <time>2019-05-05T00:49:49Z</time>
      </trkpt>
      <trkpt lat="46.5275" lon="6.18749">
        <ele>1387</ele>
        <time>2019-05-05T00:49:52Z</time>
      </trkpt>
      <trkpt lat="46.52742" lon="6.18737">
        <ele>1389</ele>
        <time>2019-05-05T00:50:01Z</time>
      </trkpt>
      <trkpt lat="46.52731" lon="6.18723">
        <ele>1391</ele>
        <time>2019-05-05T00:50:12Z</time>
      </trkpt>
      <trkpt lat="46.52723" lon="6.18706">
        <ele>1391</ele>
        <time>2019-05-05T00:50:22Z</time>
      </trkpt>
      <trkpt lat="46.52716" lon="6.18697">
        <ele>1391</ele>
        <time>2019-05-05T00:50:29Z</time>
      </trkpt>
      <trkpt lat="46.52703" lon="6.18683">
        <ele>1390</ele>
        <time>2019-05-05T00:50:40Z</time>
      </trkpt>
      <trkpt lat="46.52701" lon="6.18679">
        <ele>1390</ele>
        <time>2019-05-05T00:50:42Z</time>
      </trkpt>
      <trkpt lat="46.52697" lon="6.18674">
        <ele>1390</ele>
        <time>2019-05-05T00:50:47Z</time>
      </trkpt>
      <trkpt lat="46.52687" lon="6.18652">
        <ele>1391</ele>
        <time>2019-05-05T00:51:00Z</time>
      </trkpt>
      <trkpt lat="46.52686" lon="6.18649">
        <ele>1391</ele>
        <time>2019-05-05T00:51:01Z</time>
      </trkpt>
      <trkpt lat="46.52686" lon="6.18638">
        <ele>1391</ele>
        <time>2019-05-05T00:51:07Z</time>
      </trkpt>
      <trkpt lat="46.52684" lon="6.18634">
        <ele>1391</ele>
        <time>2019-05-05T00:51:09Z</time>
      </trkpt>
      <trkpt lat="46.52679" lon="6.18627">
        <ele>1392</ele>
        <time>2019-05-05T00:51:14Z</time>
      </trkpt>
      <trkpt lat="46.52676" lon="6.18625">
        <ele>1393</ele>
        <time>2019-05-05T00:51:17Z</time>
      </trkpt>
      <trkpt lat="46.52671" lon="6.18616">
        <ele>1394</ele>
        <time>2019-05-05T00:51:23Z</time>
      </trkpt>
      <trkpt lat="46.52668" lon="6.18612">
        <ele>1394</ele>
        <time>2019-05-05T00:51:26Z</time>
      </trkpt>
      <trkpt lat="46.52662" lon="6.186">
        <ele>1395</ele>
        <time>2019-05-05T00:51:33Z</time>
      </trkpt>
      <trkpt lat="46.52661" lon="6.18594">
        <ele>1396</ele>
        <time>2019-05-05T00:51:36Z</time>
      </trkpt>
      <trkpt lat="46.52659" lon="6.18586">
        <ele>1397</ele>
        <time>2019-05-05T00:51:40Z</time>
      </trkpt>
      <trkpt lat="46.52658" lon="6.18585">
        <ele>1397</ele>
        <time>2019-05-05T00:51:41Z</time>
      </trkpt>
      <trkpt lat="46.52654" lon="6.18576">
        <ele>1398</ele>
        <time>2019-05-05T00:51:46Z</time>
      </trkpt>
      <trkpt lat="46.52652" lon="6.1857">
        <ele>1398</ele>
        <time>2019-05-05T00:51:50Z</time>
      </trkpt>
      <trkpt lat="46.52649" lon="6.18564">
        <ele>1398</ele>
        <time>2019-05-05T00:51:53Z</time>
      </trkpt>
      <trkpt lat="46.52648" lon="6.18562">
        <ele>1399</ele>
        <time>2019-05-05T00:51:55Z</time>
      </trkpt>
      <trkpt lat="46.52648" lon="6.18561">
        <ele>1399</ele>
        <time>2019-05-05T00:51:55Z</time>
      </trkpt>
      <trkpt lat="46.52646" lon="6.18558">
        <ele>1399</ele>
        <time>2019-05-05T00:51:57Z</time>
      </trkpt>
      <trkpt lat="46.52637" lon="6.18547">
        <ele>1399</ele>
        <time>2019-05-05T00:52:06Z</time>
      </trkpt>
      <trkpt lat="46.52627" lon="6.18529">
        <ele>1398</ele>
        <time>2019-05-05T00:52:17Z</time>
      </trkpt>
      <trkpt lat="46.52627" lon="6.18528">
        <ele>1398</ele>
        <time>2019-05-05T00:52:18Z</time>
      </trkpt>
      <trkpt lat="46.52625" lon="6.18525">
        <ele>1397</ele>
        <time>2019-05-05T00:52:20Z</time>
      </trkpt>
      <trkpt lat="46.52621" lon="6.1852">
        <ele>1397</ele>
        <time>2019-05-05T00:52:24Z</time>
      </trkpt>
      <trkpt lat="46.52619" lon="6.18519">
        <ele>1397</ele>
        <time>2019-05-05T00:52:25Z</time>
      </trkpt>
      <trkpt lat="46.52619" lon="6.18518">
        <ele>1397</ele>
        <time>2019-05-05T00:52:26Z</time>
      </trkpt>
      <trkpt lat="46.52615" lon="6.18512">
        <ele>1397</ele>
        <time>2019-05-05T00:52:30Z</time>
      </trkpt>
      <trkpt lat="46.52606" lon="6.18486">
        <ele>1399</ele>
        <time>2019-05-05T00:52:44Z</time>
      </trkpt>
      <trkpt lat="46.52602" lon="6.18478">
        <ele>1401</ele>
        <time>2019-05-05T00:52:49Z</time>
      </trkpt>
      <trkpt lat="46.52595" lon="6.18465">
        <ele>1403</ele>
        <time>2019-05-05T00:52:58Z</time>
      </trkpt>
      <trkpt lat="46.52593" lon="6.18461">
        <ele>1403</ele>
        <time>2019-05-05T00:53:01Z</time>
      </trkpt>
      <trkpt lat="46.52583" lon="6.1844">
        <ele>1405</ele>
        <time>2019-05-05T00:53:13Z</time>
      </trkpt>
      <trkpt lat="46.52581" lon="6.18436">
        <ele>1405</ele>
        <time>2019-05-05T00:53:16Z</time>
      </trkpt>
      <trkpt lat="46.52578" lon="6.18426">
        <ele>1406</ele>
        <time>2019-05-05T00:53:21Z</time>
      </trkpt>
      <trkpt lat="46.52575" lon="6.18419">
        <ele>1406</ele>
        <time>2019-05-05T00:53:25Z</time>
      </trkpt>
      <trkpt lat="46.52571" lon="6.1841">
        <ele>1407</ele>
        <time>2019-05-05T00:53:31Z</time>
      </trkpt>
      <trkpt lat="46.52559" lon="6.18392">
        <ele>1407</ele>
        <time>2019-05-05T00:53:43Z</time>
      </trkpt>
      <trkpt lat="46.52557" lon="6.18387">
        <ele>1407</ele>
        <time>2019-05-05T00:53:46Z</time>
      </trkpt>
      <trkpt lat="46.52555" lon="6.18385">
        <ele>1407</ele>
        <time>2019-05-05T00:53:48Z</time>
      </trkpt>
      <trkpt lat="46.52552" lon="6.1838">
        <ele>1407</ele>
        <time>2019-05-05T00:53:51Z</time>
      </trkpt>
      <trkpt lat="46.52552" lon="6.18379">
        <ele>1407</ele>
        <time>2019-05-05T00:53:51Z</time>
      </trkpt>
      <trkpt lat="46.52547" lon="6.18375">
        <ele>1407</ele>
        <time>2019-05-05T00:53:56Z</time>
      </trkpt>
      <trkpt lat="46.52545" lon="6.18371">
        <ele>1407</ele>
        <time>2019-05-05T00:53:58Z</time>
      </trkpt>
      <trkpt lat="46.52545" lon="6.18369">
        <ele>1407</ele>
        <time>2019-05-05T00:53:59Z</time>
      </trkpt>
      <trkpt lat="46.52543" lon="6.18364">
        <ele>1407</ele>
        <time>2019-05-05T00:54:01Z</time>
      </trkpt>
      <trkpt lat="46.52541" lon="6.18358">
        <ele>1407</ele>
        <time>2019-05-05T00:54:05Z</time>
      </trkpt>
      <trkpt lat="46.52537" lon="6.18351">
        <ele>1406</ele>
        <time>2019-05-05T00:54:09Z</time>
      </trkpt>
      <trkpt lat="46.5253" lon="6.18335">
        <ele>1407</ele>
        <time>2019-05-05T00:54:19Z</time>
      </trkpt>
      <trkpt lat="46.52529" lon="6.1833">
        <ele>1407</ele>
        <time>2019-05-05T00:54:22Z</time>
      </trkpt>
      <trkpt lat="46.52519" lon="6.18306">
        <ele>1408</ele>
        <time>2019-05-05T00:54:35Z</time>
      </trkpt>
      <trkpt lat="46.52518" lon="6.18305">
        <ele>1408</ele>
        <time>2019-05-05T00:54:36Z</time>
      </trkpt>
      <trkpt lat="46.52511" lon="6.1828">
        <ele>1408</ele>
        <time>2019-05-05T00:54:50Z</time>
      </trkpt>
      <trkpt lat="46.5251" lon="6.18273">
        <ele>1409</ele>
        <time>2019-05-05T00:54:53Z</time>
      </trkpt>
      <trkpt lat="46.52504" lon="6.18264">
        <ele>1410</ele>
        <time>2019-05-05T00:54:59Z</time>
      </trkpt>
      <trkpt lat="46.52503" lon="6.18262">
        <ele>1410</ele>
        <time>2019-05-05T00:55:01Z</time>
      </trkpt>
      <trkpt lat="46.525" lon="6.18254">
        <ele>1411</ele>
        <time>2019-05-05T00:55:05Z</time>
      </trkpt>
      <trkpt lat="46.52499" lon="6.18244">
        <ele>1413</ele>
        <time>2019-05-05T00:55:10Z</time>
      </trkpt>
      <trkpt lat="46.52495" lon="6.18222">
        <ele>1416</ele>
        <time>2019-05-05T00:55:22Z</time>
      </trkpt>
      <trkpt lat="46.52494" lon="6.18213">
        <ele>1418</ele>
        <time>2019-05-05T00:55:27Z</time>
      </trkpt>
      <trkpt lat="46.52495" lon="6.18198">
        <ele>1420</ele>
        <time>2019-05-05T00:55:34Z</time>
      </trkpt>
      <trkpt lat="46.52495" lon="6.18195">
        <ele>1421</ele>
        <time>2019-05-05T00:55:36Z</time>
      </trkpt>
      <trkpt lat="46.52482" lon="6.18178">
        <ele>1421</ele>
        <time>2019-05-05T00:55:49Z</time>
      </trkpt>
      <trkpt lat="46.52476" lon="6.18171">
        <ele>1422</ele>
        <time>2019-05-05T00:55:55Z</time>
      </trkpt>
      <trkpt lat="46.52474" lon="6.18169">
        <ele>1422</ele>
        <time>2019-05-05T00:55:56Z</time>
      </trkpt>
      <trkpt lat="46.52463" lon="6.18154">
        <ele>1423</ele>
        <time>2019-05-05T00:56:07Z</time>
      </trkpt>
      <trkpt lat="46.52457" lon="6.18146">
        <ele>1423</ele>
        <time>2019-05-05T00:56:13Z</time>
      </trkpt>
      <trkpt lat="46.52453" lon="6.18141">
        <ele>1424</ele>
        <time>2019-05-05T00:56:17Z</time>
      </trkpt>
      <trkpt lat="46.52437" lon="6.18125">
        <ele>1424</ele>
        <time>2019-05-05T00:56:31Z</time>
      </trkpt>
      <trkpt lat="46.5243" lon="6.1812">
        <ele>1424</ele>
        <time>2019-05-05T00:56:36Z</time>
      </trkpt>
      <trkpt lat="46.52429" lon="6.18117">
        <ele>1425</ele>
        <time>2019-05-05T00:56:38Z</time>
      </trkpt>
      <trkpt lat="46.52427" lon="6.18115">
        <ele>1425</ele>
        <time>2019-05-05T00:56:40Z</time>
      </trkpt>
      <trkpt lat="46.52426" lon="6.18114">
        <ele>1425</ele>
        <time>2019-05-05T00:56:41Z</time>
      </trkpt>
      <trkpt lat="46.52423" lon="6.18111">
        <ele>1425</ele>
        <time>2019-05-05T00:56:43Z</time>
      </trkpt>
      <trkpt lat="46.52421" lon="6.18108">
        <ele>1425</ele>
        <time>2019-05-05T00:56:46Z</time>
      </trkpt>
      <trkpt lat="46.52419" lon="6.18106">
        <ele>1425</ele>
        <time>2019-05-05T00:56:47Z</time>
      </trkpt>
      <trkpt lat="46.52414" lon="6.18099">
        <ele>1426</ele>
        <time>2019-05-05T00:56:52Z</time>
      </trkpt>
      <trkpt lat="46.52408" lon="6.18096">
        <ele>1426</ele>
        <time>2019-05-05T00:56:57Z</time>
      </trkpt>
      <trkpt lat="46.52408" lon="6.18097">
        <ele>1426</ele>
        <time>2019-05-05T00:56:57Z</time>
      </trkpt>
      <trkpt lat="46.52405" lon="6.18092">
        <ele>1427</ele>
        <time>2019-05-05T00:57:00Z</time>
      </trkpt>
      <trkpt lat="46.52394" lon="6.18078">
        <ele>1429</ele>
        <time>2019-05-05T00:57:11Z</time>
      </trkpt>
      <trkpt lat="46.52379" lon="6.18062">
        <ele>1432</ele>
        <time>2019-05-05T00:57:25Z</time>
      </trkpt>
      <trkpt lat="46.52375" lon="6.18059">
        <ele>1432</ele>
        <time>2019-05-05T00:57:28Z</time>
      </trkpt>
      <trkpt lat="46.52366" lon="6.18051">
        <ele>1433</ele>
        <time>2019-05-05T00:57:36Z</time>
      </trkpt>
      <trkpt lat="46.52357" lon="6.18039">
        <ele>1435</ele>
        <time>2019-05-05T00:57:44Z</time>
      </trkpt>
      <trkpt lat="46.52345" lon="6.18027">
        <ele>1437</ele>
        <time>2019-05-05T00:57:55Z</time>
      </trkpt>
      <trkpt lat="46.52343" lon="6.18025">
        <ele>1437</ele>
        <time>2019-05-05T00:57:57Z</time>
      </trkpt>
      <trkpt lat="46.52341" lon="6.18023">
        <ele>1437</ele>
        <time>2019-05-05T00:57:58Z</time>
      </trkpt>
      <trkpt lat="46.52335" lon="6.18015">
        <ele>1438</ele>
        <time>2019-05-05T00:58:04Z</time>
      </trkpt>
      <trkpt lat="46.5233" lon="6.18009">
        <ele>1439</ele>
        <time>2019-05-05T00:58:09Z</time>
      </trkpt>
      <trkpt lat="46.52329" lon="6.18008">
        <ele>1439</ele>
        <time>2019-05-05T00:58:10Z</time>
      </trkpt>
      <trkpt lat="46.52321" lon="6.17999">
        <ele>1439</ele>
        <time>2019-05-05T00:58:17Z</time>
      </trkpt>
      <trkpt lat="46.52319" lon="6.17996">
        <ele>1439</ele>
        <time>2019-05-05T00:58:19Z</time>
      </trkpt>
      <trkpt lat="46.52309" lon="6.17984">
        <ele>1440</ele>
        <time>2019-05-05T00:58:29Z</time>
      </trkpt>
      <trkpt lat="46.52306" lon="6.1798">
        <ele>1440</ele>
        <time>2019-05-05T00:58:32Z</time>
      </trkpt>
      <trkpt lat="46.52302" lon="6.17973">
        <ele>1441</ele>
        <time>2019-05-05T00:58:36Z</time>
      </trkpt>
      <trkpt lat="46.52291" lon="6.17961">
        <ele>1441</ele>
        <time>2019-05-05T00:58:46Z</time>
      </trkpt>
      <trkpt lat="46.52286" lon="6.17956">
        <ele>1441</ele>
        <time>2019-05-05T00:58:51Z</time>
      </trkpt>
      <trkpt lat="46.52284" lon="6.17955">
        <ele>1441</ele>
        <time>2019-05-05T00:58:52Z</time>
      </trkpt>
      <trkpt lat="46.52283" lon="6.17953">
        <ele>1441</ele>
        <time>2019-05-05T00:58:53Z</time>
      </trkpt>
      <trkpt lat="46.52281" lon="6.17951">
        <ele>1441</ele>
        <time>2019-05-05T00:58:55Z</time>
      </trkpt>
      <trkpt lat="46.52266" lon="6.17933">
        <ele>1443</ele>
        <time>2019-05-05T00:59:09Z</time>
      </trkpt>
      <trkpt lat="46.52251" lon="6.17916">
        <ele>1446</ele>
        <time>2019-05-05T00:59:23Z</time>
      </trkpt>
      <trkpt lat="46.52239" lon="6.17907">
        <ele>1446</ele>
        <time>2019-05-05T00:59:33Z</time>
      </trkpt>
      <trkpt lat="46.52234" lon="6.17901">
        <ele>1447</ele>
        <time>2019-05-05T00:59:37Z</time>
      </trkpt>
      <trkpt lat="46.52219" lon="6.17885">
        <ele>1450</ele>
        <time>2019-05-05T00:59:51Z</time>
      </trkpt>
      <trkpt lat="46.52209" lon="6.17873">
        <ele>1451</ele>
        <time>2019-05-05T01:00:01Z</time>
      </trkpt>
      <trkpt lat="46.52204" lon="6.17869">
        <ele>1452</ele>
        <time>2019-05-05T01:00:05Z</time>
      </trkpt>
      <trkpt lat="46.52198" lon="6.17863">
        <ele>1452</ele>
        <time>2019-05-05T01:00:10Z</time>
      </trkpt>
      <trkpt lat="46.52191" lon="6.17857">
        <ele>1452</ele>
        <time>2019-05-05T01:00:16Z</time>
      </trkpt>
      <trkpt lat="46.52183" lon="6.1785">
        <ele>1453</ele>
        <time>2019-05-05T01:00:22Z</time>
      </trkpt>
      <trkpt lat="46.52178" lon="6.17846">
        <ele>1453</ele>
        <time>2019-05-05T01:00:27Z</time>
      </trkpt>
      <trkpt lat="46.52173" lon="6.17839">
        <ele>1453</ele>
        <time>2019-05-05T01:00:32Z</time>
      </trkpt>
      <trkpt lat="46.52158" lon="6.17823">
        <ele>1453</ele>
        <time>2019-05-05T01:00:45Z</time>
      </trkpt>
      <trkpt lat="46.52147" lon="6.17809">
        <ele>1453</ele>
        <time>2019-05-05T01:00:56Z</time>
      </trkpt>
      <trkpt lat="46.52142" lon="6.17805">
        <ele>1452</ele>
        <time>2019-05-05T01:01:00Z</time>
      </trkpt>
      <trkpt lat="46.5213" lon="6.17784">
        <ele>1452</ele>
        <time>2019-05-05T01:01:13Z</time>
      </trkpt>
      <trkpt lat="46.52118" lon="6.17764">
        <ele>1451</ele>
        <time>2019-05-05T01:01:26Z</time>
      </trkpt>
      <trkpt lat="46.5211" lon="6.1774">
        <ele>1454</ele>
        <time>2019-05-05T01:01:40Z</time>
      </trkpt>
      <trkpt lat="46.52099" lon="6.17719">
        <ele>1457</ele>
        <time>2019-05-05T01:01:53Z</time>
      </trkpt>
      <trkpt lat="46.52087" lon="6.17699">
        <ele>1459</ele>
        <time>2019-05-05T01:02:06Z</time>
      </trkpt>
      <trkpt lat="46.52071" lon="6.17687">
        <ele>1457</ele>
        <time>2019-05-05T01:02:19Z</time>
      </trkpt>
      <trkpt lat="46.52067" lon="6.17684">
        <ele>1456</ele>
        <time>2019-05-05T01:02:23Z</time>
      </trkpt>
      <trkpt lat="46.52059" lon="6.17676">
        <ele>1456</ele>
        <time>2019-05-05T01:02:30Z</time>
      </trkpt>
      <trkpt lat="46.52046" lon="6.17657">
        <ele>1456</ele>
        <time>2019-05-05T01:02:43Z</time>
      </trkpt>
      <trkpt lat="46.52038" lon="6.17636">
        <ele>1458</ele>
        <time>2019-05-05T01:02:55Z</time>
      </trkpt>
      <trkpt lat="46.5203" lon="6.17612">
        <ele>1460</ele>
        <time>2019-05-05T01:03:09Z</time>
      </trkpt>
      <trkpt lat="46.52017" lon="6.17589">
        <ele>1461</ele>
        <time>2019-05-05T01:03:23Z</time>
      </trkpt>
      <trkpt lat="46.52007" lon="6.17574">
        <ele>1461</ele>
        <time>2019-05-05T01:03:34Z</time>
      </trkpt>
      <trkpt lat="46.51996" lon="6.17552">
        <ele>1461</ele>
        <time>2019-05-05T01:03:47Z</time>
      </trkpt>
      <trkpt lat="46.51986" lon="6.1753">
        <ele>1460</ele>
        <time>2019-05-05T01:04:01Z</time>
      </trkpt>
      <trkpt lat="46.51982" lon="6.17523">
        <ele>1460</ele>
        <time>2019-05-05T01:04:05Z</time>
      </trkpt>
      <trkpt lat="46.5198" lon="6.17521">
        <ele>1460</ele>
        <time>2019-05-05T01:04:07Z</time>
      </trkpt>
      <trkpt lat="46.51975" lon="6.17511">
        <ele>1459</ele>
        <time>2019-05-05T01:04:13Z</time>
      </trkpt>
      <trkpt lat="46.51972" lon="6.17501">
        <ele>1458</ele>
        <time>2019-05-05T01:04:18Z</time>
      </trkpt>
      <trkpt lat="46.5197" lon="6.17495">
        <ele>1458</ele>
        <time>2019-05-05T01:04:22Z</time>
      </trkpt>
      <trkpt lat="46.51966" lon="6.17479">
        <ele>1457</ele>
        <time>2019-05-05T01:04:30Z</time>
      </trkpt>
      <trkpt lat="46.51963" lon="6.17451">
        <ele>1456</ele>
        <time>2019-05-05T01:04:44Z</time>
      </trkpt>
      <trkpt lat="46.51963" lon="6.17433">
        <ele>1456</ele>
        <time>2019-05-05T01:04:53Z</time>
      </trkpt>
      <trkpt lat="46.51964" lon="6.17419">
        <ele>1458</ele>
        <time>2019-05-05T01:05:01Z</time>
      </trkpt>
      <trkpt lat="46.51964" lon="6.17409">
        <ele>1458</ele>
        <time>2019-05-05T01:05:06Z</time>
      </trkpt>
      <trkpt lat="46.51962" lon="6.17389">
        <ele>1459</ele>
        <time>2019-05-05T01:05:15Z</time>
      </trkpt>
      <trkpt lat="46.51963" lon="6.17364">
        <ele>1461</ele>
        <time>2019-05-05T01:05:28Z</time>
      </trkpt>
      <trkpt lat="46.51961" lon="6.17338">
        <ele>1463</ele>
        <time>2019-05-05T01:05:41Z</time>
      </trkpt>
      <trkpt lat="46.51948" lon="6.17314">
        <ele>1461</ele>
        <time>2019-05-05T01:05:56Z</time>
      </trkpt>
      <trkpt lat="46.51938" lon="6.17293">
        <ele>1461</ele>
        <time>2019-05-05T01:06:09Z</time>
      </trkpt>
      <trkpt lat="46.51927" lon="6.17272">
        <ele>1460</ele>
        <time>2019-05-05T01:06:22Z</time>
      </trkpt>
      <trkpt lat="46.51916" lon="6.1725">
        <ele>1461</ele>
        <time>2019-05-05T01:06:36Z</time>
      </trkpt>
      <trkpt lat="46.51903" lon="6.17227">
        <ele>1461</ele>
        <time>2019-05-05T01:06:50Z</time>
      </trkpt>
      <trkpt lat="46.51896" lon="6.17211">
        <ele>1461</ele>
        <time>2019-05-05T01:07:00Z</time>
      </trkpt>
      <trkpt lat="46.51885" lon="6.17187">
        <ele>1461</ele>
        <time>2019-05-05T01:07:14Z</time>
      </trkpt>
      <trkpt lat="46.5188" lon="6.17173">
        <ele>1463</ele>
        <time>2019-05-05T01:07:22Z</time>
      </trkpt>
      <trkpt lat="46.51874" lon="6.17145">
        <ele>1469</ele>
        <time>2019-05-05T01:07:37Z</time>
      </trkpt>
      <trkpt lat="46.51863" lon="6.17123">
        <ele>1474</ele>
        <time>2019-05-05T01:07:51Z</time>
      </trkpt>
      <trkpt lat="46.51855" lon="6.17119">
        <ele>1474</ele>
        <time>2019-05-05T01:07:57Z</time>
      </trkpt>
      <trkpt lat="46.51836" lon="6.17114">
        <ele>1469</ele>
        <time>2019-05-05T01:08:11Z</time>
      </trkpt>
      <trkpt lat="46.51817" lon="6.17106">
        <ele>1465</ele>
        <time>2019-05-05T01:08:26Z</time>
      </trkpt>
      <trkpt lat="46.51803" lon="6.1709">
        <ele>1464</ele>
        <time>2019-05-05T01:08:39Z</time>
      </trkpt>
      <trkpt lat="46.51791" lon="6.17073">
        <ele>1464</ele>
        <time>2019-05-05T01:08:51Z</time>
      </trkpt>
      <trkpt lat="46.51776" lon="6.17051">
        <ele>1465</ele>
        <time>2019-05-05T01:09:07Z</time>
      </trkpt>
      <trkpt lat="46.51762" lon="6.17031">
        <ele>1465</ele>
        <time>2019-05-05T01:09:20Z</time>
      </trkpt>
      <trkpt lat="46.51756" lon="6.17022">
        <ele>1465</ele>
        <time>2019-05-05T01:09:27Z</time>
      </trkpt>
      <trkpt lat="46.51742" lon="6.17001">
        <ele>1464</ele>
        <time>2019-05-05T01:09:42Z</time>
      </trkpt>
      <trkpt lat="46.51734" lon="6.16992">
        <ele>1463</ele>
        <time>2019-05-05T01:09:49Z</time>
      </trkpt>
      <trkpt lat="46.51721" lon="6.16973">
        <ele>1462</ele>
        <time>2019-05-05T01:10:02Z</time>
      </trkpt>
      <trkpt lat="46.51714" lon="6.16964">
        <ele>1462</ele>
        <time>2019-05-05T01:10:09Z</time>
      </trkpt>
      <trkpt lat="46.51707" lon="6.16956">
        <ele>1461</ele>
        <time>2019-05-05T01:10:16Z</time>
      </trkpt>
      <trkpt lat="46.51692" lon="6.16935">
        <ele>1460</ele>
        <time>2019-05-05T01:10:31Z</time>
      </trkpt>
      <trkpt lat="46.51678" lon="6.16916">
        <ele>1460</ele>
        <time>2019-05-05T01:10:44Z</time>
      </trkpt>
      <trkpt lat="46.51664" lon="6.16897">
        <ele>1459</ele>
        <time>2019-05-05T01:10:58Z</time>
      </trkpt>
      <trkpt lat="46.51648" lon="6.16878">
        <ele>1457</ele>
        <time>2019-05-05T01:11:13Z</time>
      </trkpt>
      <trkpt lat="46.51634" lon="6.16856">
        <ele>1457</ele>
        <time>2019-05-05T01:11:28Z</time>
      </trkpt>
      <trkpt lat="46.51632" lon="6.16853">
        <ele>1457</ele>
        <time>2019-05-05T01:11:30Z</time>
      </trkpt>
      <trkpt lat="46.5162" lon="6.16831">
        <ele>1457</ele>
        <time>2019-05-05T01:11:44Z</time>
      </trkpt>
      <trkpt lat="46.51614" lon="6.16824">
        <ele>1457</ele>
        <time>2019-05-05T01:11:50Z</time>
      </trkpt>
      <trkpt lat="46.51599" lon="6.16808">
        <ele>1455</ele>
        <time>2019-05-05T01:12:03Z</time>
      </trkpt>
      <trkpt lat="46.51592" lon="6.16799">
        <ele>1455</ele>
        <time>2019-05-05T01:12:10Z</time>
      </trkpt>
      <trkpt lat="46.51583" lon="6.16783">
        <ele>1454</ele>
        <time>2019-05-05T01:12:20Z</time>
      </trkpt>
      <trkpt lat="46.51571" lon="6.16766">
        <ele>1452</ele>
        <time>2019-05-05T01:12:33Z</time>
      </trkpt>
      <trkpt lat="46.51566" lon="6.16759">
        <ele>1451</ele>
        <time>2019-05-05T01:12:37Z</time>
      </trkpt>
      <trkpt lat="46.51562" lon="6.16757">
        <ele>1450</ele>
        <time>2019-05-05T01:12:41Z</time>
      </trkpt>
      <trkpt lat="46.51552" lon="6.16733">
        <ele>1450</ele>
        <time>2019-05-05T01:12:54Z</time>
      </trkpt>
      <trkpt lat="46.51552" lon="6.16729">
        <ele>1450</ele>
        <time>2019-05-05T01:12:57Z</time>
      </trkpt>
      <trkpt lat="46.5155" lon="6.16716">
        <ele>1452</ele>
        <time>2019-05-05T01:13:03Z</time>
      </trkpt>
      <trkpt lat="46.51551" lon="6.16687">
        <ele>1457</ele>
        <time>2019-05-05T01:13:18Z</time>
      </trkpt>
      <trkpt lat="46.5155" lon="6.1666">
        <ele>1461</ele>
        <time>2019-05-05T01:13:32Z</time>
      </trkpt>
      <trkpt lat="46.51542" lon="6.16632">
        <ele>1462</ele>
        <time>2019-05-05T01:13:47Z</time>
      </trkpt>
      <trkpt lat="46.51528" lon="6.1661">
        <ele>1461</ele>
        <time>2019-05-05T01:14:01Z</time>
      </trkpt>
      <trkpt lat="46.51526" lon="6.16608">
        <ele>1461</ele>
        <time>2019-05-05T01:14:03Z</time>
      </trkpt>
      <trkpt lat="46.51511" lon="6.1659">
        <ele>1460</ele>
        <time>2019-05-05T01:14:18Z</time>
      </trkpt>
      <trkpt lat="46.51496" lon="6.16573">
        <ele>1459</ele>
        <time>2019-05-05T01:14:32Z</time>
      </trkpt>
      <trkpt lat="46.51494" lon="6.1657">
        <ele>1459</ele>
        <time>2019-05-05T01:14:33Z</time>
      </trkpt>
      <trkpt lat="46.5148" lon="6.16551">
        <ele>1459</ele>
        <time>2019-05-05T01:14:47Z</time>
      </trkpt>
      <trkpt lat="46.51467" lon="6.16536">
        <ele>1459</ele>
        <time>2019-05-05T01:14:59Z</time>
      </trkpt>
      <trkpt lat="46.51454" lon="6.16518">
        <ele>1459</ele>
        <time>2019-05-05T01:15:12Z</time>
      </trkpt>
      <trkpt lat="46.51438" lon="6.165">
        <ele>1460</ele>
        <time>2019-05-05T01:15:27Z</time>
      </trkpt>
      <trkpt lat="46.51423" lon="6.16481">
        <ele>1460</ele>
        <time>2019-05-05T01:15:41Z</time>
      </trkpt>
      <trkpt lat="46.51417" lon="6.16473">
        <ele>1460</ele>
        <time>2019-05-05T01:15:47Z</time>
      </trkpt>
      <trkpt lat="46.51404" lon="6.16455">
        <ele>1461</ele>
        <time>2019-05-05T01:16:00Z</time>
      </trkpt>
      <trkpt lat="46.51402" lon="6.16453">
        <ele>1461</ele>
        <time>2019-05-05T01:16:02Z</time>
      </trkpt>
      <trkpt lat="46.51392" lon="6.16444">
        <ele>1460</ele>
        <time>2019-05-05T01:16:11Z</time>
      </trkpt>
      <trkpt lat="46.51376" lon="6.16429">
        <ele>1459</ele>
        <time>2019-05-05T01:16:24Z</time>
      </trkpt>
      <trkpt lat="46.51361" lon="6.1641">
        <ele>1459</ele>
        <time>2019-05-05T01:16:39Z</time>
      </trkpt>
      <trkpt lat="46.51347" lon="6.1639">
        <ele>1462</ele>
        <time>2019-05-05T01:16:53Z</time>
      </trkpt>
      <trkpt lat="46.51332" lon="6.16371">
        <ele>1464</ele>
        <time>2019-05-05T01:17:08Z</time>
      </trkpt>
      <trkpt lat="46.51316" lon="6.16354">
        <ele>1465</ele>
        <time>2019-05-05T01:17:22Z</time>
      </trkpt>
      <trkpt lat="46.51298" lon="6.1634">
        <ele>1466</ele>
        <time>2019-05-05T01:17:36Z</time>
      </trkpt>
      <trkpt lat="46.5128" lon="6.16326">
        <ele>1467</ele>
        <time>2019-05-05T01:17:51Z</time>
      </trkpt>
      <trkpt lat="46.51263" lon="6.16315">
        <ele>1466</ele>
        <time>2019-05-05T01:18:05Z</time>
      </trkpt>
      <trkpt lat="46.51255" lon="6.16311">
        <ele>1466</ele>
        <time>2019-05-05T01:18:11Z</time>
      </trkpt>
      <trkpt lat="46.51236" lon="6.163">
        <ele>1465</ele>
        <time>2019-05-05T01:18:26Z</time>
      </trkpt>
      <trkpt lat="46.51226" lon="6.16294">
        <ele>1465</ele>
        <time>2019-05-05T01:18:33Z</time>
      </trkpt>
      <trkpt lat="46.51209" lon="6.16282">
        <ele>1465</ele>
        <time>2019-05-05T01:18:47Z</time>
      </trkpt>
      <trkpt lat="46.51192" lon="6.16273">
        <ele>1464</ele>
        <time>2019-05-05T01:19:00Z</time>
      </trkpt>
      <trkpt lat="46.5119" lon="6.16272">
        <ele>1464</ele>
        <time>2019-05-05T01:19:02Z</time>
      </trkpt>
      <trkpt lat="46.51171" lon="6.16261">
        <ele>1462</ele>
        <time>2019-05-05T01:19:16Z</time>
      </trkpt>
      <trkpt lat="46.51154" lon="6.1625">
        <ele>1461</ele>
        <time>2019-05-05T01:19:30Z</time>
      </trkpt>
      <trkpt lat="46.51149" lon="6.16246">
        <ele>1461</ele>
        <time>2019-05-05T01:19:34Z</time>
      </trkpt>
      <trkpt lat="46.51132" lon="6.16233">
        <ele>1459</ele>
        <time>2019-05-05T01:19:48Z</time>
      </trkpt>
      <trkpt lat="46.51122" lon="6.16226">
        <ele>1459</ele>
        <time>2019-05-05T01:19:56Z</time>
      </trkpt>
      <trkpt lat="46.51113" lon="6.1622">
        <ele>1457</ele>
        <time>2019-05-05T01:20:03Z</time>
      </trkpt>
      <trkpt lat="46.51095" lon="6.16211">
        <ele>1455</ele>
        <time>2019-05-05T01:20:17Z</time>
      </trkpt>
      <trkpt lat="46.51076" lon="6.162">
        <ele>1454</ele>
        <time>2019-05-05T01:20:32Z</time>
      </trkpt>
      <trkpt lat="46.51071" lon="6.16196">
        <ele>1453</ele>
        <time>2019-05-05T01:20:36Z</time>
      </trkpt>
      <trkpt lat="46.51063" lon="6.1619">
        <ele>1452</ele>
        <time>2019-05-05T01:20:43Z</time>
      </trkpt>
      <trkpt lat="46.51055" lon="6.16184">
        <ele>1451</ele>
        <time>2019-05-05T01:20:49Z</time>
      </trkpt>
      <trkpt lat="46.51041" lon="6.16169">
        <ele>1449</ele>
        <time>2019-05-05T01:21:02Z</time>
      </trkpt>
      <trkpt lat="46.51035" lon="6.16162">
        <ele>1448</ele>
        <time>2019-05-05T01:21:08Z</time>
      </trkpt>
      <trkpt lat="46.51023" lon="6.16149">
        <ele>1446</ele>
        <time>2019-05-05T01:21:18Z</time>
      </trkpt>
      <trkpt lat="46.51017" lon="6.16142">
        <ele>1447</ele>
        <time>2019-05-05T01:21:24Z</time>
      </trkpt>
      <trkpt lat="46.51008" lon="6.16135">
        <ele>1446</ele>
        <time>2019-05-05T01:21:31Z</time>
      </trkpt>
      <trkpt lat="46.50993" lon="6.16126">
        <ele>1445</ele>
        <time>2019-05-05T01:21:43Z</time>
      </trkpt>
      <trkpt lat="46.50985" lon="6.16127">
        <ele>1445</ele>
        <time>2019-05-05T01:21:49Z</time>
      </trkpt>
      <trkpt lat="46.5098" lon="6.16128">
        <ele>1444</ele>
        <time>2019-05-05T01:21:52Z</time>
      </trkpt>
      <trkpt lat="46.5097" lon="6.16132">
        <ele>1443</ele>
        <time>2019-05-05T01:22:00Z</time>
      </trkpt>
      <trkpt lat="46.5096" lon="6.16142">
        <ele>1442</ele>
        <time>2019-05-05T01:22:09Z</time>
      </trkpt>
      <trkpt lat="46.50951" lon="6.16153">
        <ele>1441</ele>
        <time>2019-05-05T01:22:17Z</time>
      </trkpt>
      <trkpt lat="46.50935" lon="6.16169">
        <ele>1441</ele>
        <time>2019-05-05T01:22:31Z</time>
      </trkpt>
      <trkpt lat="46.50933" lon="6.16171">
        <ele>1441</ele>
        <time>2019-05-05T01:22:33Z</time>
      </trkpt>
      <trkpt lat="46.50915" lon="6.16172">
        <ele>1443</ele>
        <time>2019-05-05T01:22:46Z</time>
      </trkpt>
      <trkpt lat="46.50912" lon="6.16168">
        <ele>1444</ele>
        <time>2019-05-05T01:22:49Z</time>
      </trkpt>
      <trkpt lat="46.50911" lon="6.16166">
        <ele>1444</ele>
        <time>2019-05-05T01:22:50Z</time>
      </trkpt>
      <trkpt lat="46.5091" lon="6.16164">
        <ele>1444</ele>
        <time>2019-05-05T01:22:51Z</time>
      </trkpt>
      <trkpt lat="46.50906" lon="6.16155">
        <ele>1444</ele>
        <time>2019-05-05T01:22:57Z</time>
      </trkpt>
      <trkpt lat="46.50901" lon="6.16146">
        <ele>1443</ele>
        <time>2019-05-05T01:23:02Z</time>
      </trkpt>
      <trkpt lat="46.509" lon="6.16143">
        <ele>1443</ele>
        <time>2019-05-05T01:23:04Z</time>
      </trkpt>
      <trkpt lat="46.50898" lon="6.1614">
        <ele>1443</ele>
        <time>2019-05-05T01:23:06Z</time>
      </trkpt>
      <trkpt lat="46.50893" lon="6.16133">
        <ele>1443</ele>
        <time>2019-05-05T01:23:11Z</time>
      </trkpt>
      <trkpt lat="46.5089" lon="6.1613">
        <ele>1443</ele>
        <time>2019-05-05T01:23:14Z</time>
      </trkpt>
      <trkpt lat="46.5089" lon="6.1613">
        <ele>1443</ele>
        <time>2019-05-05T01:23:14Z</time>
      </trkpt>
      <trkpt lat="46.50889" lon="6.16131">
        <ele>1443</ele>
        <time>2019-05-05T01:23:15Z</time>
      </trkpt>
      <trkpt lat="46.50889" lon="6.16131">
        <ele>1443</ele>
        <time>2019-05-05T01:23:15Z</time>
      </trkpt>
      <trkpt lat="46.50889" lon="6.16132">
        <ele>1443</ele>
        <time>2019-05-05T01:23:15Z</time>
      </trkpt>
      <trkpt lat="46.50889" lon="6.16134">
        <ele>1444</ele>
        <time>2019-05-05T01:23:16Z</time>
      </trkpt>
      <trkpt lat="46.50889" lon="6.16131">
        <ele>1443</ele>
        <time>2019-05-05T01:23:18Z</time>
      </trkpt>
      <trkpt lat="46.5089" lon="6.16128">
        <ele>1443</ele>
        <time>2019-05-05T01:23:20Z</time>
      </trkpt>
      <trkpt lat="46.50891" lon="6.1613">
        <ele>1443</ele>
        <time>2019-05-05T01:23:21Z</time>
      </trkpt>
      <trkpt lat="46.50891" lon="6.16133">
        <ele>1443</ele>
        <time>2019-05-05T01:23:22Z</time>
      </trkpt>
      <trkpt lat="46.50895" lon="6.16128">
        <ele>1443</ele>
        <time>2019-05-05T01:23:26Z</time>
      </trkpt>
      <trkpt lat="46.50895" lon="6.16127">
        <ele>1443</ele>
        <time>2019-05-05T01:23:26Z</time>
      </trkpt>
      <trkpt lat="46.50895" lon="6.16124">
        <ele>1443</ele>
        <time>2019-05-05T01:23:28Z</time>
      </trkpt>
      <trkpt lat="46.50894" lon="6.16121">
        <ele>1442</ele>
        <time>2019-05-05T01:23:30Z</time>
      </trkpt>
      <trkpt lat="46.50893" lon="6.16119">
        <ele>1442</ele>
        <time>2019-05-05T01:23:31Z</time>
      </trkpt>
      <trkpt lat="46.50882" lon="6.16099">
        <ele>1441</ele>
        <time>2019-05-05T01:23:44Z</time>
      </trkpt>
      <trkpt lat="46.50879" lon="6.1609">
        <ele>1441</ele>
        <time>2019-05-05T01:23:48Z</time>
      </trkpt>
      <trkpt lat="46.50877" lon="6.16081">
        <ele>1440</ele>
        <time>2019-05-05T01:23:53Z</time>
      </trkpt>
      <trkpt lat="46.50876" lon="6.16072">
        <ele>1439</ele>
        <time>2019-05-05T01:23:58Z</time>
      </trkpt>
      <trkpt lat="46.50874" lon="6.16057">
        <ele>1438</ele>
        <time>2019-05-05T01:24:06Z</time>
      </trkpt>
      <trkpt lat="46.5087" lon="6.16046">
        <ele>1437</ele>
        <time>2019-05-05T01:24:12Z</time>
      </trkpt>
      <trkpt lat="46.50853" lon="6.16032">
        <ele>1435</ele>
        <time>2019-05-05T01:24:26Z</time>
      </trkpt>
      <trkpt lat="46.50845" lon="6.16023">
        <ele>1434</ele>
        <time>2019-05-05T01:24:33Z</time>
      </trkpt>
      <trkpt lat="46.50839" lon="6.16018">
        <ele>1434</ele>
        <time>2019-05-05T01:24:38Z</time>
      </trkpt>
      <trkpt lat="46.50824" lon="6.16002">
        <ele>1436</ele>
        <time>2019-05-05T01:24:52Z</time>
      </trkpt>
      <trkpt lat="46.50809" lon="6.15987">
        <ele>1436</ele>
        <time>2019-05-05T01:25:05Z</time>
      </trkpt>
      <trkpt lat="46.50799" lon="6.15975">
        <ele>1437</ele>
        <time>2019-05-05T01:25:15Z</time>
      </trkpt>
      <trkpt lat="46.50791" lon="6.15963">
        <ele>1436</ele>
        <time>2019-05-05T01:25:23Z</time>
      </trkpt>
      <trkpt lat="46.50789" lon="6.15956">
        <ele>1436</ele>
        <time>2019-05-05T01:25:26Z</time>
      </trkpt>
      <trkpt lat="46.50788" lon="6.15954">
        <ele>1436</ele>
        <time>2019-05-05T01:25:28Z</time>
      </trkpt>
      <trkpt lat="46.50775" lon="6.15933">
        <ele>1435</ele>
        <time>2019-05-05T01:25:42Z</time>
      </trkpt>
      <trkpt lat="46.50773" lon="6.15931">
        <ele>1436</ele>
        <time>2019-05-05T01:25:44Z</time>
      </trkpt>
      <trkpt lat="46.50761" lon="6.15912">
        <ele>1438</ele>
        <time>2019-05-05T01:25:56Z</time>
      </trkpt>
      <trkpt lat="46.50751" lon="6.15895">
        <ele>1439</ele>
        <time>2019-05-05T01:26:08Z</time>
      </trkpt>
      <trkpt lat="46.50744" lon="6.15883">
        <ele>1440</ele>
        <time>2019-05-05T01:26:15Z</time>
      </trkpt>
      <trkpt lat="46.50739" lon="6.15874">
        <ele>1440</ele>
        <time>2019-05-05T01:26:21Z</time>
      </trkpt>
      <trkpt lat="46.50732" lon="6.15862">
        <ele>1440</ele>
        <time>2019-05-05T01:26:29Z</time>
      </trkpt>
      <trkpt lat="46.5073" lon="6.15861">
        <ele>1440</ele>
        <time>2019-05-05T01:26:31Z</time>
      </trkpt>
      <trkpt lat="46.50724" lon="6.15857">
        <ele>1441</ele>
        <time>2019-05-05T01:26:35Z</time>
      </trkpt>
      <trkpt lat="46.50723" lon="6.15856">
        <ele>1441</ele>
        <time>2019-05-05T01:26:36Z</time>
      </trkpt>
      <trkpt lat="46.50722" lon="6.15854">
        <ele>1441</ele>
        <time>2019-05-05T01:26:37Z</time>
      </trkpt>
      <trkpt lat="46.50718" lon="6.1585">
        <ele>1441</ele>
        <time>2019-05-05T01:26:41Z</time>
      </trkpt>
      <trkpt lat="46.50714" lon="6.15843">
        <ele>1441</ele>
        <time>2019-05-05T01:26:46Z</time>
      </trkpt>
      <trkpt lat="46.50701" lon="6.15832">
        <ele>1441</ele>
        <time>2019-05-05T01:26:56Z</time>
      </trkpt>
      <trkpt lat="46.50697" lon="6.15828">
        <ele>1440</ele>
        <time>2019-05-05T01:27:00Z</time>
      </trkpt>
      <trkpt lat="46.50692" lon="6.1582">
        <ele>1440</ele>
        <time>2019-05-05T01:27:05Z</time>
      </trkpt>
      <trkpt lat="46.5068" lon="6.158">
        <ele>1441</ele>
        <time>2019-05-05T01:27:19Z</time>
      </trkpt>
      <trkpt lat="46.50666" lon="6.15781">
        <ele>1444</ele>
        <time>2019-05-05T01:27:33Z</time>
      </trkpt>
      <trkpt lat="46.50661" lon="6.1576">
        <ele>1445</ele>
        <time>2019-05-05T01:27:44Z</time>
      </trkpt>
      <trkpt lat="46.50659" lon="6.15751">
        <ele>1445</ele>
        <time>2019-05-05T01:27:48Z</time>
      </trkpt>
      <trkpt lat="46.50653" lon="6.15736">
        <ele>1445</ele>
        <time>2019-05-05T01:27:57Z</time>
      </trkpt>
      <trkpt lat="46.5065" lon="6.15728">
        <ele>1445</ele>
        <time>2019-05-05T01:28:01Z</time>
      </trkpt>
      <trkpt lat="46.50647" lon="6.15722">
        <ele>1446</ele>
        <time>2019-05-05T01:28:05Z</time>
      </trkpt>
      <trkpt lat="46.50645" lon="6.15717">
        <ele>1446</ele>
        <time>2019-05-05T01:28:08Z</time>
      </trkpt>
      <trkpt lat="46.50639" lon="6.15706">
        <ele>1447</ele>
        <time>2019-05-05T01:28:15Z</time>
      </trkpt>
      <trkpt lat="46.5063" lon="6.15691">
        <ele>1447</ele>
        <time>2019-05-05T01:28:25Z</time>
      </trkpt>
      <trkpt lat="46.50628" lon="6.1569">
        <ele>1447</ele>
        <time>2019-05-05T01:28:27Z</time>
      </trkpt>
      <trkpt lat="46.50625" lon="6.15682">
        <ele>1447</ele>
        <time>2019-05-05T01:28:31Z</time>
      </trkpt>
      <trkpt lat="46.50623" lon="6.15678">
        <ele>1447</ele>
        <time>2019-05-05T01:28:33Z</time>
      </trkpt>
      <trkpt lat="46.50622" lon="6.15674">
        <ele>1447</ele>
        <time>2019-05-05T01:28:36Z</time>
      </trkpt>
      <trkpt lat="46.50612" lon="6.15651">
        <ele>1448</ele>
        <time>2019-05-05T01:28:49Z</time>
      </trkpt>
      <trkpt lat="46.50608" lon="6.15643">
        <ele>1448</ele>
        <time>2019-05-05T01:28:54Z</time>
      </trkpt>
      <trkpt lat="46.50607" lon="6.15634">
        <ele>1448</ele>
        <time>2019-05-05T01:28:58Z</time>
      </trkpt>
      <trkpt lat="46.50601" lon="6.15612">
        <ele>1449</ele>
        <time>2019-05-05T01:29:11Z</time>
      </trkpt>
      <trkpt lat="46.506" lon="6.15605">
        <ele>1449</ele>
        <time>2019-05-05T01:29:14Z</time>
      </trkpt>
      <trkpt lat="46.50597" lon="6.15594">
        <ele>1450</ele>
        <time>2019-05-05T01:29:20Z</time>
      </trkpt>
      <trkpt lat="46.50585" lon="6.15572">
        <ele>1453</ele>
        <time>2019-05-05T01:29:34Z</time>
      </trkpt>
      <trkpt lat="46.50584" lon="6.15571">
        <ele>1454</ele>
        <time>2019-05-05T01:29:35Z</time>
      </trkpt>
      <trkpt lat="46.50581" lon="6.15567">
        <ele>1454</ele>
        <time>2019-05-05T01:29:38Z</time>
      </trkpt>
      <trkpt lat="46.50577" lon="6.15563">
        <ele>1455</ele>
        <time>2019-05-05T01:29:41Z</time>
      </trkpt>
      <trkpt lat="46.50573" lon="6.15559">
        <ele>1457</ele>
        <time>2019-05-05T01:29:45Z</time>
      </trkpt>
      <trkpt lat="46.50566" lon="6.15551">
        <ele>1459</ele>
        <time>2019-05-05T01:29:52Z</time>
      </trkpt>
      <trkpt lat="46.50558" lon="6.15543">
        <ele>1460</ele>
        <time>2019-05-05T01:29:59Z</time>
      </trkpt>
      <trkpt lat="46.50554" lon="6.15536">
        <ele>1461</ele>
        <time>2019-05-05T01:30:03Z</time>
      </trkpt>
      <trkpt lat="46.50549" lon="6.15511">
        <ele>1460</ele>
        <time>2019-05-05T01:30:16Z</time>
      </trkpt>
      <trkpt lat="46.50544" lon="6.15493">
        <ele>1460</ele>
        <time>2019-05-05T01:30:26Z</time>
      </trkpt>
      <trkpt lat="46.50543" lon="6.15486">
        <ele>1460</ele>
        <time>2019-05-05T01:30:29Z</time>
      </trkpt>
      <trkpt lat="46.50543" lon="6.15482">
        <ele>1460</ele>
        <time>2019-05-05T01:30:32Z</time>
      </trkpt>
      <trkpt lat="46.50533" lon="6.15471">
        <ele>1460</ele>
        <time>2019-05-05T01:30:41Z</time>
      </trkpt>
      <trkpt lat="46.50532" lon="6.15469">
        <ele>1460</ele>
        <time>2019-05-05T01:30:42Z</time>
      </trkpt>
      <trkpt lat="46.5052" lon="6.15457">
        <ele>1461</ele>
        <time>2019-05-05T01:30:53Z</time>
      </trkpt>
      <trkpt lat="46.50519" lon="6.15456">
        <ele>1461</ele>
        <time>2019-05-05T01:30:53Z</time>
      </trkpt>
      <trkpt lat="46.50514" lon="6.15448">
        <ele>1462</ele>
        <time>2019-05-05T01:30:59Z</time>
      </trkpt>
      <trkpt lat="46.50507" lon="6.1544">
        <ele>1464</ele>
        <time>2019-05-05T01:31:05Z</time>
      </trkpt>
      <trkpt lat="46.50506" lon="6.1544">
        <ele>1464</ele>
        <time>2019-05-05T01:31:06Z</time>
      </trkpt>
      <trkpt lat="46.50498" lon="6.1543">
        <ele>1466</ele>
        <time>2019-05-05T01:31:14Z</time>
      </trkpt>
      <trkpt lat="46.50491" lon="6.15421">
        <ele>1468</ele>
        <time>2019-05-05T01:31:20Z</time>
      </trkpt>
      <trkpt lat="46.50487" lon="6.15415">
        <ele>1469</ele>
        <time>2019-05-05T01:31:24Z</time>
      </trkpt>
      <trkpt lat="46.50486" lon="6.15414">
        <ele>1470</ele>
        <time>2019-05-05T01:31:26Z</time>
      </trkpt>
      <trkpt lat="46.50483" lon="6.15411">
        <ele>1471</ele>
        <time>2019-05-05T01:31:29Z</time>
      </trkpt>
      <trkpt lat="46.50479" lon="6.15406">
        <ele>1472</ele>
        <time>2019-05-05T01:31:32Z</time>
      </trkpt>
      <trkpt lat="46.50474" lon="6.15398">
        <ele>1473</ele>
        <time>2019-05-05T01:31:38Z</time>
      </trkpt>
      <trkpt lat="46.50471" lon="6.15395">
        <ele>1473</ele>
        <time>2019-05-05T01:31:40Z</time>
      </trkpt>
      <trkpt lat="46.50464" lon="6.15381">
        <ele>1475</ele>
        <time>2019-05-05T01:31:49Z</time>
      </trkpt>
      <trkpt lat="46.50461" lon="6.1537">
        <ele>1475</ele>
        <time>2019-05-05T01:31:55Z</time>
      </trkpt>
      <trkpt lat="46.50461" lon="6.15358">
        <ele>1474</ele>
        <time>2019-05-05T01:32:01Z</time>
      </trkpt>
      <trkpt lat="46.50461" lon="6.15356">
        <ele>1474</ele>
        <time>2019-05-05T01:32:02Z</time>
      </trkpt>
      <trkpt lat="46.50455" lon="6.15342">
        <ele>1476</ele>
        <time>2019-05-05T01:32:10Z</time>
      </trkpt>
      <trkpt lat="46.50454" lon="6.1534">
        <ele>1476</ele>
        <time>2019-05-05T01:32:12Z</time>
      </trkpt>
      <trkpt lat="46.50451" lon="6.15338">
        <ele>1477</ele>
        <time>2019-05-05T01:32:14Z</time>
      </trkpt>
      <trkpt lat="46.50449" lon="6.15336">
        <ele>1477</ele>
        <time>2019-05-05T01:32:16Z</time>
      </trkpt>
      <trkpt lat="46.50448" lon="6.15335">
        <ele>1477</ele>
        <time>2019-05-05T01:32:17Z</time>
      </trkpt>
      <trkpt lat="46.50446" lon="6.15334">
        <ele>1478</ele>
        <time>2019-05-05T01:32:18Z</time>
      </trkpt>
      <trkpt lat="46.50442" lon="6.15331">
        <ele>1478</ele>
        <time>2019-05-05T01:32:21Z</time>
      </trkpt>
      <trkpt lat="46.50439" lon="6.15327">
        <ele>1479</ele>
        <time>2019-05-05T01:32:25Z</time>
      </trkpt>
      <trkpt lat="46.50438" lon="6.15321">
        <ele>1480</ele>
        <time>2019-05-05T01:32:28Z</time>
      </trkpt>
      <trkpt lat="46.50434" lon="6.15315">
        <ele>1481</ele>
        <time>2019-05-05T01:32:32Z</time>
      </trkpt>
      <trkpt lat="46.50432" lon="6.15314">
        <ele>1481</ele>
        <time>2019-05-05T01:32:33Z</time>
      </trkpt>
      <trkpt lat="46.5043" lon="6.15312">
        <ele>1481</ele>
        <time>2019-05-05T01:32:35Z</time>
      </trkpt>
      <trkpt lat="46.50429" lon="6.1531">
        <ele>1482</ele>
        <time>2019-05-05T01:32:36Z</time>
      </trkpt>
      <trkpt lat="46.50427" lon="6.15308">
        <ele>1482</ele>
        <time>2019-05-05T01:32:38Z</time>
      </trkpt>
      <trkpt lat="46.50422" lon="6.15308">
        <ele>1483</ele>
        <time>2019-05-05T01:32:41Z</time>
      </trkpt>
      <trkpt lat="46.50422" lon="6.15308">
        <ele>1483</ele>
        <time>2019-05-05T01:32:41Z</time>
      </trkpt>
      <trkpt lat="46.50422" lon="6.15309">
        <ele>1483</ele>
        <time>2019-05-05T01:32:42Z</time>
      </trkpt>
      <trkpt lat="46.50421" lon="6.15307">
        <ele>1483</ele>
        <time>2019-05-05T01:32:43Z</time>
      </trkpt>
      <trkpt lat="46.50423" lon="6.15303">
        <ele>1483</ele>
        <time>2019-05-05T01:32:45Z</time>
      </trkpt>
      <trkpt lat="46.50422" lon="6.15299">
        <ele>1483</ele>
        <time>2019-05-05T01:32:47Z</time>
      </trkpt>
      <trkpt lat="46.50422" lon="6.15297">
        <ele>1483</ele>
        <time>2019-05-05T01:32:49Z</time>
      </trkpt>
      <trkpt lat="46.50413" lon="6.15278">
        <ele>1485</ele>
        <time>2019-05-05T01:33:00Z</time>
      </trkpt>
      <trkpt lat="46.5041" lon="6.15276">
        <ele>1485</ele>
        <time>2019-05-05T01:33:03Z</time>
      </trkpt>
      <trkpt lat="46.50409" lon="6.15275">
        <ele>1485</ele>
        <time>2019-05-05T01:33:03Z</time>
      </trkpt>
      <trkpt lat="46.50406" lon="6.15276">
        <ele>1486</ele>
        <time>2019-05-05T01:33:06Z</time>
      </trkpt>
      <trkpt lat="46.50405" lon="6.15276">
        <ele>1486</ele>
        <time>2019-05-05T01:33:06Z</time>
      </trkpt>
      <trkpt lat="46.50404" lon="6.15276">
        <ele>1486</ele>
        <time>2019-05-05T01:33:07Z</time>
      </trkpt>
      <trkpt lat="46.50404" lon="6.15277">
        <ele>1486</ele>
        <time>2019-05-05T01:33:08Z</time>
      </trkpt>
      <trkpt lat="46.50397" lon="6.15269">
        <ele>1487</ele>
        <time>2019-05-05T01:33:14Z</time>
      </trkpt>
      <trkpt lat="46.50397" lon="6.15265">
        <ele>1487</ele>
        <time>2019-05-05T01:33:16Z</time>
      </trkpt>
      <trkpt lat="46.50399" lon="6.15262">
        <ele>1487</ele>
        <time>2019-05-05T01:33:18Z</time>
      </trkpt>
      <trkpt lat="46.504" lon="6.15272">
        <ele>1486</ele>
        <time>2019-05-05T01:33:23Z</time>
      </trkpt>
      <trkpt lat="46.50405" lon="6.15276">
        <ele>1486</ele>
        <time>2019-05-05T01:33:27Z</time>
      </trkpt>
      <trkpt lat="46.50401" lon="6.15268">
        <ele>1487</ele>
        <time>2019-05-05T01:33:33Z</time>
      </trkpt>
      <trkpt lat="46.504" lon="6.15265">
        <ele>1487</ele>
        <time>2019-05-05T01:33:34Z</time>
      </trkpt>
      <trkpt lat="46.50395" lon="6.15271">
        <ele>1487</ele>
        <time>2019-05-05T01:33:39Z</time>
      </trkpt>
      <trkpt lat="46.50392" lon="6.15269">
        <ele>1487</ele>
        <time>2019-05-05T01:33:41Z</time>
      </trkpt>
      <trkpt lat="46.50381" lon="6.15259">
        <ele>1489</ele>
        <time>2019-05-05T01:33:50Z</time>
      </trkpt>
      <trkpt lat="46.50366" lon="6.15242">
        <ele>1489</ele>
        <time>2019-05-05T01:34:04Z</time>
      </trkpt>
      <trkpt lat="46.50361" lon="6.1523">
        <ele>1489</ele>
        <time>2019-05-05T01:34:11Z</time>
      </trkpt>
      <trkpt lat="46.50357" lon="6.15222">
        <ele>1489</ele>
        <time>2019-05-05T01:34:16Z</time>
      </trkpt>
      <trkpt lat="46.50353" lon="6.15218">
        <ele>1488</ele>
        <time>2019-05-05T01:34:19Z</time>
      </trkpt>
      <trkpt lat="46.50347" lon="6.15212">
        <ele>1487</ele>
        <time>2019-05-05T01:34:25Z</time>
      </trkpt>
      <trkpt lat="46.50333" lon="6.15197">
        <ele>1486</ele>
        <time>2019-05-05T01:34:38Z</time>
      </trkpt>
      <trkpt lat="46.50328" lon="6.15184">
        <ele>1485</ele>
        <time>2019-05-05T01:34:45Z</time>
      </trkpt>
      <trkpt lat="46.50319" lon="6.15166">
        <ele>1483</ele>
        <time>2019-05-05T01:34:56Z</time>
      </trkpt>
      <trkpt lat="46.50315" lon="6.15154">
        <ele>1482</ele>
        <time>2019-05-05T01:35:03Z</time>
      </trkpt>
      <trkpt lat="46.50313" lon="6.15146">
        <ele>1482</ele>
        <time>2019-05-05T01:35:07Z</time>
      </trkpt>
      <trkpt lat="46.50301" lon="6.15126">
        <ele>1479</ele>
        <time>2019-05-05T01:35:20Z</time>
      </trkpt>
      <trkpt lat="46.50288" lon="6.15106">
        <ele>1477</ele>
        <time>2019-05-05T01:35:34Z</time>
      </trkpt>
      <trkpt lat="46.50275" lon="6.15085">
        <ele>1475</ele>
        <time>2019-05-05T01:35:48Z</time>
      </trkpt>
      <trkpt lat="46.5027" lon="6.15077">
        <ele>1474</ele>
        <time>2019-05-05T01:35:54Z</time>
      </trkpt>
      <trkpt lat="46.50264" lon="6.15073">
        <ele>1473</ele>
        <time>2019-05-05T01:35:58Z</time>
      </trkpt>
      <trkpt lat="46.50263" lon="6.15072">
        <ele>1473</ele>
        <time>2019-05-05T01:35:59Z</time>
      </trkpt>
      <trkpt lat="46.50259" lon="6.1505">
        <ele>1473</ele>
        <time>2019-05-05T01:36:11Z</time>
      </trkpt>
      <trkpt lat="46.50256" lon="6.15023">
        <ele>1473</ele>
        <time>2019-05-05T01:36:24Z</time>
      </trkpt>
      <trkpt lat="46.50256" lon="6.15019">
        <ele>1473</ele>
        <time>2019-05-05T01:36:26Z</time>
      </trkpt>
      <trkpt lat="46.50256" lon="6.14992">
        <ele>1474</ele>
        <time>2019-05-05T01:36:40Z</time>
      </trkpt>
      <trkpt lat="46.50256" lon="6.14986">
        <ele>1475</ele>
        <time>2019-05-05T01:36:43Z</time>
      </trkpt>
      <trkpt lat="46.50257" lon="6.14979">
        <ele>1475</ele>
        <time>2019-05-05T01:36:46Z</time>
      </trkpt>
      <trkpt lat="46.50257" lon="6.14976">
        <ele>1475</ele>
        <time>2019-05-05T01:36:48Z</time>
      </trkpt>
      <trkpt lat="46.50257" lon="6.14968">
        <ele>1476</ele>
        <time>2019-05-05T01:36:52Z</time>
      </trkpt>
      <trkpt lat="46.50255" lon="6.14957">
        <ele>1476</ele>
        <time>2019-05-05T01:36:57Z</time>
      </trkpt>
      <trkpt lat="46.50258" lon="6.1495">
        <ele>1477</ele>
        <time>2019-05-05T01:37:01Z</time>
      </trkpt>
      <trkpt lat="46.50258" lon="6.14945">
        <ele>1477</ele>
        <time>2019-05-05T01:37:04Z</time>
      </trkpt>
      <trkpt lat="46.50261" lon="6.1494">
        <ele>1478</ele>
        <time>2019-05-05T01:37:07Z</time>
      </trkpt>
      <trkpt lat="46.50262" lon="6.14935">
        <ele>1478</ele>
        <time>2019-05-05T01:37:10Z</time>
      </trkpt>
      <trkpt lat="46.50263" lon="6.14932">
        <ele>1478</ele>
        <time>2019-05-05T01:37:12Z</time>
      </trkpt>
      <trkpt lat="46.50262" lon="6.14928">
        <ele>1478</ele>
        <time>2019-05-05T01:37:13Z</time>
      </trkpt>
      <trkpt lat="46.50263" lon="6.14923">
        <ele>1478</ele>
        <time>2019-05-05T01:37:16Z</time>
      </trkpt>
      <trkpt lat="46.50263" lon="6.14921">
        <ele>1478</ele>
        <time>2019-05-05T01:37:17Z</time>
      </trkpt>
      <trkpt lat="46.50264" lon="6.14911">
        <ele>1479</ele>
        <time>2019-05-05T01:37:22Z</time>
      </trkpt>
      <trkpt lat="46.50266" lon="6.14906">
        <ele>1479</ele>
        <time>2019-05-05T01:37:25Z</time>
      </trkpt>
      <trkpt lat="46.50266" lon="6.14905">
        <ele>1479</ele>
        <time>2019-05-05T01:37:26Z</time>
      </trkpt>
      <trkpt lat="46.50267" lon="6.14901">
        <ele>1479</ele>
        <time>2019-05-05T01:37:27Z</time>
      </trkpt>
      <trkpt lat="46.50272" lon="6.14885">
        <ele>1480</ele>
        <time>2019-05-05T01:37:36Z</time>
      </trkpt>
      <trkpt lat="46.50277" lon="6.14867">
        <ele>1481</ele>
        <time>2019-05-05T01:37:46Z</time>
      </trkpt>
      <trkpt lat="46.50283" lon="6.14855">
        <ele>1482</ele>
        <time>2019-05-05T01:37:54Z</time>
      </trkpt>
      <trkpt lat="46.50286" lon="6.14844">
        <ele>1483</ele>
        <time>2019-05-05T01:37:59Z</time>
      </trkpt>
      <trkpt lat="46.50286" lon="6.14843">
        <ele>1483</ele>
        <time>2019-05-05T01:38:00Z</time>
      </trkpt>
      <trkpt lat="46.50286" lon="6.1484">
        <ele>1483</ele>
        <time>2019-05-05T01:38:01Z</time>
      </trkpt>
      <trkpt lat="46.50286" lon="6.14839">
        <ele>1483</ele>
        <time>2019-05-05T01:38:02Z</time>
      </trkpt>
      <trkpt lat="46.50285" lon="6.14832">
        <ele>1483</ele>
        <time>2019-05-05T01:38:05Z</time>
      </trkpt>
      <trkpt lat="46.50293" lon="6.14808">
        <ele>1485</ele>
        <time>2019-05-05T01:38:19Z</time>
      </trkpt>
      <trkpt lat="46.50299" lon="6.14799">
        <ele>1486</ele>
        <time>2019-05-05T01:38:25Z</time>
      </trkpt>
      <trkpt lat="46.50302" lon="6.14791">
        <ele>1487</ele>
        <time>2019-05-05T01:38:30Z</time>
      </trkpt>
      <trkpt lat="46.50302" lon="6.14789">
        <ele>1487</ele>
        <time>2019-05-05T01:38:31Z</time>
      </trkpt>
      <trkpt lat="46.50302" lon="6.14788">
        <ele>1487</ele>
        <time>2019-05-05T01:38:31Z</time>
      </trkpt>
      <trkpt lat="46.50303" lon="6.14776">
        <ele>1487</ele>
        <time>2019-05-05T01:38:37Z</time>
      </trkpt>
      <trkpt lat="46.50305" lon="6.14756">
        <ele>1488</ele>
        <time>2019-05-05T01:38:48Z</time>
      </trkpt>
      <trkpt lat="46.50305" lon="6.14753">
        <ele>1488</ele>
        <time>2019-05-05T01:38:49Z</time>
      </trkpt>
      <trkpt lat="46.50305" lon="6.14751">
        <ele>1488</ele>
        <time>2019-05-05T01:38:50Z</time>
      </trkpt>
      <trkpt lat="46.50306" lon="6.14748">
        <ele>1489</ele>
        <time>2019-05-05T01:38:52Z</time>
      </trkpt>
      <trkpt lat="46.50306" lon="6.14746">
        <ele>1489</ele>
        <time>2019-05-05T01:38:53Z</time>
      </trkpt>
      <trkpt lat="46.50306" lon="6.14741">
        <ele>1489</ele>
        <time>2019-05-05T01:38:55Z</time>
      </trkpt>
      <trkpt lat="46.50307" lon="6.14734">
        <ele>1489</ele>
        <time>2019-05-05T01:38:59Z</time>
      </trkpt>
      <trkpt lat="46.50308" lon="6.14725">
        <ele>1490</ele>
        <time>2019-05-05T01:39:04Z</time>
      </trkpt>
      <trkpt lat="46.50309" lon="6.14719">
        <ele>1490</ele>
        <time>2019-05-05T01:39:06Z</time>
      </trkpt>
      <trkpt lat="46.50309" lon="6.14718">
        <ele>1490</ele>
        <time>2019-05-05T01:39:07Z</time>
      </trkpt>
      <trkpt lat="46.50309" lon="6.14716">
        <ele>1490</ele>
        <time>2019-05-05T01:39:08Z</time>
      </trkpt>
      <trkpt lat="46.50309" lon="6.14712">
        <ele>1491</ele>
        <time>2019-05-05T01:39:10Z</time>
      </trkpt>
      <trkpt lat="46.50314" lon="6.14685">
        <ele>1492</ele>
        <time>2019-05-05T01:39:24Z</time>
      </trkpt>
      <trkpt lat="46.50323" lon="6.14663">
        <ele>1495</ele>
        <time>2019-05-05T01:39:37Z</time>
      </trkpt>
      <trkpt lat="46.50323" lon="6.14646">
        <ele>1496</ele>
        <time>2019-05-05T01:39:45Z</time>
      </trkpt>
      <trkpt lat="46.50325" lon="6.14638">
        <ele>1497</ele>
        <time>2019-05-05T01:39:49Z</time>
      </trkpt>
      <trkpt lat="46.50326" lon="6.14633">
        <ele>1497</ele>
        <time>2019-05-05T01:39:52Z</time>
      </trkpt>
      <trkpt lat="46.50326" lon="6.14628">
        <ele>1497</ele>
        <time>2019-05-05T01:39:55Z</time>
      </trkpt>
      <trkpt lat="46.50327" lon="6.14621">
        <ele>1498</ele>
        <time>2019-05-05T01:39:58Z</time>
      </trkpt>
      <trkpt lat="46.50327" lon="6.14618">
        <ele>1498</ele>
        <time>2019-05-05T01:40:00Z</time>
      </trkpt>
      <trkpt lat="46.50327" lon="6.14616">
        <ele>1498</ele>
        <time>2019-05-05T01:40:01Z</time>
      </trkpt>
      <trkpt lat="46.50329" lon="6.14607">
        <ele>1499</ele>
        <time>2019-05-05T01:40:05Z</time>
      </trkpt>
      <trkpt lat="46.5033" lon="6.14604">
        <ele>1499</ele>
        <time>2019-05-05T01:40:07Z</time>
      </trkpt>
      <trkpt lat="46.5033" lon="6.146">
        <ele>1499</ele>
        <time>2019-05-05T01:40:09Z</time>
      </trkpt>
      <trkpt lat="46.5033" lon="6.1459">
        <ele>1500</ele>
        <time>2019-05-05T01:40:14Z</time>
      </trkpt>
      <trkpt lat="46.50327" lon="6.14582">
        <ele>1500</ele>
        <time>2019-05-05T01:40:19Z</time>
      </trkpt>
      <trkpt lat="46.50327" lon="6.14578">
        <ele>1501</ele>
        <time>2019-05-05T01:40:21Z</time>
      </trkpt>
      <trkpt lat="46.50327" lon="6.14576">
        <ele>1501</ele>
        <time>2019-05-05T01:40:22Z</time>
      </trkpt>
      <trkpt lat="46.50327" lon="6.14575">
        <ele>1501</ele>
        <time>2019-05-05T01:40:22Z</time>
      </trkpt>
      <trkpt lat="46.50327" lon="6.1457">
        <ele>1501</ele>
        <time>2019-05-05T01:40:25Z</time>
      </trkpt>
      <trkpt lat="46.50328" lon="6.14569">
        <ele>1501</ele>
        <time>2019-05-05T01:40:25Z</time>
      </trkpt>
      <trkpt lat="46.50328" lon="6.14565">
        <ele>1502</ele>
        <time>2019-05-05T01:40:27Z</time>
      </trkpt>
      <trkpt lat="46.50328" lon="6.14554">
        <ele>1502</ele>
        <time>2019-05-05T01:40:33Z</time>
      </trkpt>
      <trkpt lat="46.50333" lon="6.14533">
        <ele>1504</ele>
        <time>2019-05-05T01:40:44Z</time>
      </trkpt>
      <trkpt lat="46.50335" lon="6.1452">
        <ele>1505</ele>
        <time>2019-05-05T01:40:51Z</time>
      </trkpt>
      <trkpt lat="46.50336" lon="6.14519">
        <ele>1505</ele>
        <time>2019-05-05T01:40:51Z</time>
      </trkpt>
      <trkpt lat="46.50336" lon="6.14516">
        <ele>1505</ele>
        <time>2019-05-05T01:40:53Z</time>
      </trkpt>
      <trkpt lat="46.50336" lon="6.14514">
        <ele>1505</ele>
        <time>2019-05-05T01:40:54Z</time>
      </trkpt>
      <trkpt lat="46.50336" lon="6.14511">
        <ele>1505</ele>
        <time>2019-05-05T01:40:55Z</time>
      </trkpt>
      <trkpt lat="46.50334" lon="6.1451">
        <ele>1505</ele>
        <time>2019-05-05T01:40:56Z</time>
      </trkpt>
      <trkpt lat="46.50334" lon="6.14509">
        <ele>1505</ele>
        <time>2019-05-05T01:40:57Z</time>
      </trkpt>
      <trkpt lat="46.50334" lon="6.14503">
        <ele>1506</ele>
        <time>2019-05-05T01:41:00Z</time>
      </trkpt>
      <trkpt lat="46.50335" lon="6.14501">
        <ele>1506</ele>
        <time>2019-05-05T01:41:01Z</time>
      </trkpt>
      <trkpt lat="46.50337" lon="6.14493">
        <ele>1507</ele>
        <time>2019-05-05T01:41:06Z</time>
      </trkpt>
      <trkpt lat="46.50338" lon="6.14486">
        <ele>1507</ele>
        <time>2019-05-05T01:41:09Z</time>
      </trkpt>
      <trkpt lat="46.5034" lon="6.14477">
        <ele>1508</ele>
        <time>2019-05-05T01:41:14Z</time>
      </trkpt>
      <trkpt lat="46.50348" lon="6.14451">
        <ele>1509</ele>
        <time>2019-05-05T01:41:28Z</time>
      </trkpt>
      <trkpt lat="46.50342" lon="6.14425">
        <ele>1511</ele>
        <time>2019-05-05T01:41:42Z</time>
      </trkpt>
      <trkpt lat="46.5034" lon="6.14418">
        <ele>1511</ele>
        <time>2019-05-05T01:41:45Z</time>
      </trkpt>
      <trkpt lat="46.50344" lon="6.14392">
        <ele>1513</ele>
        <time>2019-05-05T01:41:59Z</time>
      </trkpt>
      <trkpt lat="46.50347" lon="6.14383">
        <ele>1513</ele>
        <time>2019-05-05T01:42:04Z</time>
      </trkpt>
      <trkpt lat="46.50347" lon="6.14376">
        <ele>1513</ele>
        <time>2019-05-05T01:42:07Z</time>
      </trkpt>
      <trkpt lat="46.50347" lon="6.14366">
        <ele>1514</ele>
        <time>2019-05-05T01:42:12Z</time>
      </trkpt>
      <trkpt lat="46.50346" lon="6.14352">
        <ele>1515</ele>
        <time>2019-05-05T01:42:19Z</time>
      </trkpt>
      <trkpt lat="46.50349" lon="6.1433">
        <ele>1514</ele>
        <time>2019-05-05T01:42:31Z</time>
      </trkpt>
      <trkpt lat="46.50349" lon="6.14326">
        <ele>1514</ele>
        <time>2019-05-05T01:42:32Z</time>
      </trkpt>
      <trkpt lat="46.50346" lon="6.14322">
        <ele>1514</ele>
        <time>2019-05-05T01:42:35Z</time>
      </trkpt>
      <trkpt lat="46.50336" lon="6.14318">
        <ele>1515</ele>
        <time>2019-05-05T01:42:43Z</time>
      </trkpt>
      <trkpt lat="46.50333" lon="6.14317">
        <ele>1515</ele>
        <time>2019-05-05T01:42:45Z</time>
      </trkpt>
      <trkpt lat="46.50331" lon="6.14317">
        <ele>1515</ele>
        <time>2019-05-05T01:42:47Z</time>
      </trkpt>
      <trkpt lat="46.50327" lon="6.14314">
        <ele>1516</ele>
        <time>2019-05-05T01:42:49Z</time>
      </trkpt>
      <trkpt lat="46.50322" lon="6.14311">
        <ele>1516</ele>
        <time>2019-05-05T01:42:54Z</time>
      </trkpt>
      <trkpt lat="46.50317" lon="6.14315">
        <ele>1517</ele>
        <time>2019-05-05T01:42:58Z</time>
      </trkpt>
      <trkpt lat="46.50316" lon="6.14316">
        <ele>1517</ele>
        <time>2019-05-05T01:42:59Z</time>
      </trkpt>
      <trkpt lat="46.50317" lon="6.14321">
        <ele>1516</ele>
        <time>2019-05-05T01:43:01Z</time>
      </trkpt>
      <trkpt lat="46.50317" lon="6.14322">
        <ele>1516</ele>
        <time>2019-05-05T01:43:02Z</time>
      </trkpt>
      <trkpt lat="46.50312" lon="6.14326">
        <ele>1517</ele>
        <time>2019-05-05T01:43:07Z</time>
      </trkpt>
      <trkpt lat="46.5031" lon="6.14327">
        <ele>1517</ele>
        <time>2019-05-05T01:43:08Z</time>
      </trkpt>
      <trkpt lat="46.50309" lon="6.14326">
        <ele>1517</ele>
        <time>2019-05-05T01:43:08Z</time>
      </trkpt>
      <trkpt lat="46.50308" lon="6.14327">
        <ele>1517</ele>
        <time>2019-05-05T01:43:09Z</time>
      </trkpt>
      <trkpt lat="46.50304" lon="6.14327">
        <ele>1517</ele>
        <time>2019-05-05T01:43:12Z</time>
      </trkpt>
      <trkpt lat="46.50302" lon="6.14327">
        <ele>1518</ele>
        <time>2019-05-05T01:43:14Z</time>
      </trkpt>
      <trkpt lat="46.50301" lon="6.14328">
        <ele>1518</ele>
        <time>2019-05-05T01:43:14Z</time>
      </trkpt>
      <trkpt lat="46.50297" lon="6.14329">
        <ele>1518</ele>
        <time>2019-05-05T01:43:18Z</time>
      </trkpt>
      <trkpt lat="46.50296" lon="6.14329">
        <ele>1518</ele>
        <time>2019-05-05T01:43:19Z</time>
      </trkpt>
      <trkpt lat="46.50293" lon="6.1433">
        <ele>1518</ele>
        <time>2019-05-05T01:43:21Z</time>
      </trkpt>
      <trkpt lat="46.50289" lon="6.14331">
        <ele>1519</ele>
        <time>2019-05-05T01:43:24Z</time>
      </trkpt>
      <trkpt lat="46.50287" lon="6.1433">
        <ele>1519</ele>
        <time>2019-05-05T01:43:25Z</time>
      </trkpt>
      <trkpt lat="46.50287" lon="6.1433">
        <ele>1519</ele>
        <time>2019-05-05T01:43:26Z</time>
      </trkpt>
      <trkpt lat="46.50285" lon="6.14329">
        <ele>1519</ele>
        <time>2019-05-05T01:43:27Z</time>
      </trkpt>
      <trkpt lat="46.50283" lon="6.14329">
        <ele>1519</ele>
        <time>2019-05-05T01:43:28Z</time>
      </trkpt>
      <trkpt lat="46.50281" lon="6.1433">
        <ele>1519</ele>
        <time>2019-05-05T01:43:30Z</time>
      </trkpt>
      <trkpt lat="46.50277" lon="6.14328">
        <ele>1519</ele>
        <time>2019-05-05T01:43:32Z</time>
      </trkpt>
      <trkpt lat="46.50275" lon="6.14328">
        <ele>1520</ele>
        <time>2019-05-05T01:43:34Z</time>
      </trkpt>
      <trkpt lat="46.50274" lon="6.14328">
        <ele>1520</ele>
        <time>2019-05-05T01:43:35Z</time>
      </trkpt>
      <trkpt lat="46.5027" lon="6.14329">
        <ele>1520</ele>
        <time>2019-05-05T01:43:38Z</time>
      </trkpt>
      <trkpt lat="46.50269" lon="6.14329">
        <ele>1520</ele>
        <time>2019-05-05T01:43:38Z</time>
      </trkpt>
      <trkpt lat="46.50257" lon="6.14333">
        <ele>1521</ele>
        <time>2019-05-05T01:43:48Z</time>
      </trkpt>
      <trkpt lat="46.50252" lon="6.14335">
        <ele>1521</ele>
        <time>2019-05-05T01:43:51Z</time>
      </trkpt>
      <trkpt lat="46.50248" lon="6.14337">
        <ele>1521</ele>
        <time>2019-05-05T01:43:55Z</time>
      </trkpt>
      <trkpt lat="46.50245" lon="6.14337">
        <ele>1522</ele>
        <time>2019-05-05T01:43:56Z</time>
      </trkpt>
      <trkpt lat="46.50243" lon="6.14338">
        <ele>1522</ele>
        <time>2019-05-05T01:43:58Z</time>
      </trkpt>
      <trkpt lat="46.50235" lon="6.14337">
        <ele>1522</ele>
        <time>2019-05-05T01:44:04Z</time>
      </trkpt>
      <trkpt lat="46.50234" lon="6.14338">
        <ele>1522</ele>
        <time>2019-05-05T01:44:05Z</time>
      </trkpt>
      <trkpt lat="46.50215" lon="6.14331">
        <ele>1524</ele>
        <time>2019-05-05T01:44:19Z</time>
      </trkpt>
      <trkpt lat="46.50213" lon="6.1433">
        <ele>1524</ele>
        <time>2019-05-05T01:44:20Z</time>
      </trkpt>
      <trkpt lat="46.50199" lon="6.14329">
        <ele>1525</ele>
        <time>2019-05-05T01:44:30Z</time>
      </trkpt>
      <trkpt lat="46.50196" lon="6.1433">
        <ele>1525</ele>
        <time>2019-05-05T01:44:33Z</time>
      </trkpt>
      <trkpt lat="46.50192" lon="6.14329">
        <ele>1525</ele>
        <time>2019-05-05T01:44:36Z</time>
      </trkpt>
      <trkpt lat="46.50189" lon="6.14328">
        <ele>1525</ele>
        <time>2019-05-05T01:44:38Z</time>
      </trkpt>
      <trkpt lat="46.50185" lon="6.1433">
        <ele>1526</ele>
        <time>2019-05-05T01:44:41Z</time>
      </trkpt>
      <trkpt lat="46.5018" lon="6.1433">
        <ele>1526</ele>
        <time>2019-05-05T01:44:45Z</time>
      </trkpt>
      <trkpt lat="46.50178" lon="6.1433">
        <ele>1526</ele>
        <time>2019-05-05T01:44:46Z</time>
      </trkpt>
      <trkpt lat="46.50174" lon="6.14331">
        <ele>1526</ele>
        <time>2019-05-05T01:44:49Z</time>
      </trkpt>
      <trkpt lat="46.50172" lon="6.14331">
        <ele>1526</ele>
        <time>2019-05-05T01:44:50Z</time>
      </trkpt>
      <trkpt lat="46.50155" lon="6.14325">
        <ele>1526</ele>
        <time>2019-05-05T01:45:03Z</time>
      </trkpt>
      <trkpt lat="46.50144" lon="6.14304">
        <ele>1526</ele>
        <time>2019-05-05T01:45:16Z</time>
      </trkpt>
      <trkpt lat="46.50144" lon="6.14298">
        <ele>1526</ele>
        <time>2019-05-05T01:45:19Z</time>
      </trkpt>
      <trkpt lat="46.50141" lon="6.14288">
        <ele>1526</ele>
        <time>2019-05-05T01:45:24Z</time>
      </trkpt>
      <trkpt lat="46.50138" lon="6.14272">
        <ele>1525</ele>
        <time>2019-05-05T01:45:33Z</time>
      </trkpt>
      <trkpt lat="46.50139" lon="6.14261">
        <ele>1525</ele>
        <time>2019-05-05T01:45:38Z</time>
      </trkpt>
      <trkpt lat="46.5014" lon="6.1426">
        <ele>1525</ele>
        <time>2019-05-05T01:45:39Z</time>
      </trkpt>
      <trkpt lat="46.50137" lon="6.1425">
        <ele>1524</ele>
        <time>2019-05-05T01:45:44Z</time>
      </trkpt>
      <trkpt lat="46.50133" lon="6.14241">
        <ele>1524</ele>
        <time>2019-05-05T01:45:49Z</time>
      </trkpt>
      <trkpt lat="46.50132" lon="6.14237">
        <ele>1523</ele>
        <time>2019-05-05T01:45:52Z</time>
      </trkpt>
      <trkpt lat="46.50131" lon="6.1423">
        <ele>1523</ele>
        <time>2019-05-05T01:45:55Z</time>
      </trkpt>
      <trkpt lat="46.5013" lon="6.14226">
        <ele>1523</ele>
        <time>2019-05-05T01:45:58Z</time>
      </trkpt>
      <trkpt lat="46.5013" lon="6.14224">
        <ele>1523</ele>
        <time>2019-05-05T01:45:59Z</time>
      </trkpt>
      <trkpt lat="46.50129" lon="6.1422">
        <ele>1522</ele>
        <time>2019-05-05T01:46:01Z</time>
      </trkpt>
      <trkpt lat="46.50128" lon="6.14216">
        <ele>1522</ele>
        <time>2019-05-05T01:46:03Z</time>
      </trkpt>
      <trkpt lat="46.50128" lon="6.14212">
        <ele>1522</ele>
        <time>2019-05-05T01:46:05Z</time>
      </trkpt>
      <trkpt lat="46.50127" lon="6.14207">
        <ele>1522</ele>
        <time>2019-05-05T01:46:08Z</time>
      </trkpt>
      <trkpt lat="46.50125" lon="6.14202">
        <ele>1521</ele>
        <time>2019-05-05T01:46:10Z</time>
      </trkpt>
      <trkpt lat="46.50124" lon="6.14201">
        <ele>1521</ele>
        <time>2019-05-05T01:46:11Z</time>
      </trkpt>
      <trkpt lat="46.50124" lon="6.14198">
        <ele>1521</ele>
        <time>2019-05-05T01:46:12Z</time>
      </trkpt>
      <trkpt lat="46.50122" lon="6.14195">
        <ele>1521</ele>
        <time>2019-05-05T01:46:14Z</time>
      </trkpt>
      <trkpt lat="46.50119" lon="6.14188">
        <ele>1520</ele>
        <time>2019-05-05T01:46:18Z</time>
      </trkpt>
      <trkpt lat="46.50118" lon="6.14184">
        <ele>1520</ele>
        <time>2019-05-05T01:46:21Z</time>
      </trkpt>
      <trkpt lat="46.50112" lon="6.14166">
        <ele>1519</ele>
        <time>2019-05-05T01:46:31Z</time>
      </trkpt>
      <trkpt lat="46.50105" lon="6.1415">
        <ele>1519</ele>
        <time>2019-05-05T01:46:40Z</time>
      </trkpt>
      <trkpt lat="46.50104" lon="6.14148">
        <ele>1519</ele>
        <time>2019-05-05T01:46:41Z</time>
      </trkpt>
      <trkpt lat="46.50101" lon="6.14144">
        <ele>1518</ele>
        <time>2019-05-05T01:46:45Z</time>
      </trkpt>
      <trkpt lat="46.50091" lon="6.14128">
        <ele>1518</ele>
        <time>2019-05-05T01:46:55Z</time>
      </trkpt>
      <trkpt lat="46.5009" lon="6.1412">
        <ele>1518</ele>
        <time>2019-05-05T01:46:59Z</time>
      </trkpt>
      <trkpt lat="46.50091" lon="6.14113">
        <ele>1517</ele>
        <time>2019-05-05T01:47:03Z</time>
      </trkpt>
      <trkpt lat="46.50091" lon="6.14107">
        <ele>1517</ele>
        <time>2019-05-05T01:47:06Z</time>
      </trkpt>
      <trkpt lat="46.50095" lon="6.14104">
        <ele>1517</ele>
        <time>2019-05-05T01:47:09Z</time>
      </trkpt>
      <trkpt lat="46.50096" lon="6.14106">
        <ele>1517</ele>
        <time>2019-05-05T01:47:11Z</time>
      </trkpt>
      <trkpt lat="46.50093" lon="6.14099">
        <ele>1517</ele>
        <time>2019-05-05T01:47:15Z</time>
      </trkpt>
      <trkpt lat="46.5009" lon="6.14089">
        <ele>1517</ele>
        <time>2019-05-05T01:47:20Z</time>
      </trkpt>
      <trkpt lat="46.50085" lon="6.14082">
        <ele>1517</ele>
        <time>2019-05-05T01:47:25Z</time>
      </trkpt>
      <trkpt lat="46.50085" lon="6.1408">
        <ele>1517</ele>
        <time>2019-05-05T01:47:26Z</time>
      </trkpt>
      <trkpt lat="46.50085" lon="6.14065">
        <ele>1517</ele>
        <time>2019-05-05T01:47:34Z</time>
      </trkpt>
      <trkpt lat="46.50084" lon="6.14057">
        <ele>1518</ele>
        <time>2019-05-05T01:47:38Z</time>
      </trkpt>
      <trkpt lat="46.50084" lon="6.14049">
        <ele>1518</ele>
        <time>2019-05-05T01:47:41Z</time>
      </trkpt>
      <trkpt lat="46.50083" lon="6.14038">
        <ele>1518</ele>
        <time>2019-05-05T01:47:47Z</time>
      </trkpt>
      <trkpt lat="46.50078" lon="6.14018">
        <ele>1518</ele>
        <time>2019-05-05T01:47:57Z</time>
      </trkpt>
      <trkpt lat="46.50077" lon="6.1401">
        <ele>1518</ele>
        <time>2019-05-05T01:48:02Z</time>
      </trkpt>
      <trkpt lat="46.50075" lon="6.14001">
        <ele>1518</ele>
        <time>2019-05-05T01:48:07Z</time>
      </trkpt>
      <trkpt lat="46.50074" lon="6.13994">
        <ele>1518</ele>
        <time>2019-05-05T01:48:10Z</time>
      </trkpt>
      <trkpt lat="46.50073" lon="6.13985">
        <ele>1518</ele>
        <time>2019-05-05T01:48:14Z</time>
      </trkpt>
      <trkpt lat="46.50072" lon="6.1398">
        <ele>1518</ele>
        <time>2019-05-05T01:48:17Z</time>
      </trkpt>
      <trkpt lat="46.50071" lon="6.13975">
        <ele>1518</ele>
        <time>2019-05-05T01:48:20Z</time>
      </trkpt>
      <trkpt lat="46.5007" lon="6.13969">
        <ele>1518</ele>
        <time>2019-05-05T01:48:23Z</time>
      </trkpt>
      <trkpt lat="46.5006" lon="6.13947">
        <ele>1519</ele>
        <time>2019-05-05T01:48:36Z</time>
      </trkpt>
      <trkpt lat="46.50056" lon="6.13939">
        <ele>1520</ele>
        <time>2019-05-05T01:48:41Z</time>
      </trkpt>
      <trkpt lat="46.50051" lon="6.13913">
        <ele>1519</ele>
        <time>2019-05-05T01:48:54Z</time>
      </trkpt>
      <trkpt lat="46.5005" lon="6.1391">
        <ele>1519</ele>
        <time>2019-05-05T01:48:56Z</time>
      </trkpt>
      <trkpt lat="46.50049" lon="6.13896">
        <ele>1518</ele>
        <time>2019-05-05T01:49:03Z</time>
      </trkpt>
      <trkpt lat="46.50043" lon="6.13884">
        <ele>1518</ele>
        <time>2019-05-05T01:49:10Z</time>
      </trkpt>
      <trkpt lat="46.5004" lon="6.13874">
        <ele>1518</ele>
        <time>2019-05-05T01:49:16Z</time>
      </trkpt>
      <trkpt lat="46.50033" lon="6.13848">
        <ele>1517</ele>
        <time>2019-05-05T01:49:30Z</time>
      </trkpt>
      <trkpt lat="46.50031" lon="6.13841">
        <ele>1517</ele>
        <time>2019-05-05T01:49:33Z</time>
      </trkpt>
      <trkpt lat="46.50022" lon="6.13819">
        <ele>1516</ele>
        <time>2019-05-05T01:49:46Z</time>
      </trkpt>
      <trkpt lat="46.50011" lon="6.13799">
        <ele>1514</ele>
        <time>2019-05-05T01:49:59Z</time>
      </trkpt>
      <trkpt lat="46.50008" lon="6.13791">
        <ele>1513</ele>
        <time>2019-05-05T01:50:04Z</time>
      </trkpt>
      <trkpt lat="46.50005" lon="6.1378">
        <ele>1512</ele>
        <time>2019-05-05T01:50:10Z</time>
      </trkpt>
      <trkpt lat="46.50001" lon="6.13766">
        <ele>1511</ele>
        <time>2019-05-05T01:50:17Z</time>
      </trkpt>
      <trkpt lat="46.49999" lon="6.13758">
        <ele>1510</ele>
        <time>2019-05-05T01:50:22Z</time>
      </trkpt>
      <trkpt lat="46.49997" lon="6.13753">
        <ele>1510</ele>
        <time>2019-05-05T01:50:25Z</time>
      </trkpt>
      <trkpt lat="46.49981" lon="6.1374">
        <ele>1509</ele>
        <time>2019-05-05T01:50:38Z</time>
      </trkpt>
      <trkpt lat="46.49962" lon="6.13732">
        <ele>1508</ele>
        <time>2019-05-05T01:50:52Z</time>
      </trkpt>
      <trkpt lat="46.4996" lon="6.1373">
        <ele>1508</ele>
        <time>2019-05-05T01:50:54Z</time>
      </trkpt>
      <trkpt lat="46.49944" lon="6.13714">
        <ele>1506</ele>
        <time>2019-05-05T01:51:08Z</time>
      </trkpt>
      <trkpt lat="46.49941" lon="6.13709">
        <ele>1505</ele>
        <time>2019-05-05T01:51:11Z</time>
      </trkpt>
      <trkpt lat="46.49932" lon="6.13689">
        <ele>1504</ele>
        <time>2019-05-05T01:51:23Z</time>
      </trkpt>
      <trkpt lat="46.49929" lon="6.13678">
        <ele>1503</ele>
        <time>2019-05-05T01:51:29Z</time>
      </trkpt>
      <trkpt lat="46.49925" lon="6.13669">
        <ele>1503</ele>
        <time>2019-05-05T01:51:34Z</time>
      </trkpt>
      <trkpt lat="46.49917" lon="6.13649">
        <ele>1502</ele>
        <time>2019-05-05T01:51:46Z</time>
      </trkpt>
      <trkpt lat="46.49912" lon="6.13634">
        <ele>1501</ele>
        <time>2019-05-05T01:51:54Z</time>
      </trkpt>
      <trkpt lat="46.49902" lon="6.13609">
        <ele>1499</ele>
        <time>2019-05-05T01:52:09Z</time>
      </trkpt>
      <trkpt lat="46.49899" lon="6.13596">
        <ele>1499</ele>
        <time>2019-05-05T01:52:15Z</time>
      </trkpt>
      <trkpt lat="46.49894" lon="6.13573">
        <ele>1497</ele>
        <time>2019-05-05T01:52:28Z</time>
      </trkpt>
      <trkpt lat="46.49891" lon="6.13555">
        <ele>1496</ele>
        <time>2019-05-05T01:52:37Z</time>
      </trkpt>
      <trkpt lat="46.4989" lon="6.13547">
        <ele>1496</ele>
        <time>2019-05-05T01:52:41Z</time>
      </trkpt>
      <trkpt lat="46.49888" lon="6.1354">
        <ele>1495</ele>
        <time>2019-05-05T01:52:45Z</time>
      </trkpt>
      <trkpt lat="46.49885" lon="6.13526">
        <ele>1494</ele>
        <time>2019-05-05T01:52:52Z</time>
      </trkpt>
      <trkpt lat="46.49882" lon="6.13517">
        <ele>1493</ele>
        <time>2019-05-05T01:52:57Z</time>
      </trkpt>
      <trkpt lat="46.49868" lon="6.13504">
        <ele>1491</ele>
        <time>2019-05-05T01:53:09Z</time>
      </trkpt>
      <trkpt lat="46.49857" lon="6.13494">
        <ele>1490</ele>
        <time>2019-05-05T01:53:19Z</time>
      </trkpt>
      <trkpt lat="46.49843" lon="6.13479">
        <ele>1489</ele>
        <time>2019-05-05T01:53:31Z</time>
      </trkpt>
      <trkpt lat="46.49828" lon="6.13464">
        <ele>1488</ele>
        <time>2019-05-05T01:53:44Z</time>
      </trkpt>
      <trkpt lat="46.49823" lon="6.13458">
        <ele>1488</ele>
        <time>2019-05-05T01:53:49Z</time>
      </trkpt>
      <trkpt lat="46.49813" lon="6.13441">
        <ele>1486</ele>
        <time>2019-05-05T01:54:00Z</time>
      </trkpt>
      <trkpt lat="46.49803" lon="6.13431">
        <ele>1485</ele>
        <time>2019-05-05T01:54:09Z</time>
      </trkpt>
      <trkpt lat="46.49795" lon="6.13429">
        <ele>1484</ele>
        <time>2019-05-05T01:54:15Z</time>
      </trkpt>
      <trkpt lat="46.49793" lon="6.13428">
        <ele>1484</ele>
        <time>2019-05-05T01:54:16Z</time>
      </trkpt>
      <trkpt lat="46.49796" lon="6.13399">
        <ele>1480</ele>
        <time>2019-05-05T01:54:31Z</time>
      </trkpt>
      <trkpt lat="46.49798" lon="6.13393">
        <ele>1479</ele>
        <time>2019-05-05T01:54:34Z</time>
      </trkpt>
      <trkpt lat="46.49799" lon="6.1339">
        <ele>1478</ele>
        <time>2019-05-05T01:54:36Z</time>
      </trkpt>
      <trkpt lat="46.49803" lon="6.13376">
        <ele>1476</ele>
        <time>2019-05-05T01:54:44Z</time>
      </trkpt>
      <trkpt lat="46.49807" lon="6.13367">
        <ele>1475</ele>
        <time>2019-05-05T01:54:49Z</time>
      </trkpt>
      <trkpt lat="46.49809" lon="6.13361">
        <ele>1475</ele>
        <time>2019-05-05T01:54:53Z</time>
      </trkpt>
      <trkpt lat="46.4981" lon="6.1335">
        <ele>1473</ele>
        <time>2019-05-05T01:54:58Z</time>
      </trkpt>
      <trkpt lat="46.4981" lon="6.1334">
        <ele>1473</ele>
        <time>2019-05-05T01:55:03Z</time>
      </trkpt>
      <trkpt lat="46.49808" lon="6.13321">
        <ele>1471</ele>
        <time>2019-05-05T01:55:13Z</time>
      </trkpt>
      <trkpt lat="46.49806" lon="6.13309">
        <ele>1470</ele>
        <time>2019-05-05T01:55:19Z</time>
      </trkpt>
      <trkpt lat="46.49801" lon="6.13301">
        <ele>1468</ele>
        <time>2019-05-05T01:55:25Z</time>
      </trkpt>
      <trkpt lat="46.49795" lon="6.13294">
        <ele>1466</ele>
        <time>2019-05-05T01:55:30Z</time>
      </trkpt>
      <trkpt lat="46.49792" lon="6.13289">
        <ele>1464</ele>
        <time>2019-05-05T01:55:34Z</time>
      </trkpt>
      <trkpt lat="46.49788" lon="6.13272">
        <ele>1461</ele>
        <time>2019-05-05T01:55:43Z</time>
      </trkpt>
      <trkpt lat="46.49787" lon="6.13262">
        <ele>1461</ele>
        <time>2019-05-05T01:55:48Z</time>
      </trkpt>
      <trkpt lat="46.49785" lon="6.1325">
        <ele>1460</ele>
        <time>2019-05-05T01:55:54Z</time>
      </trkpt>
      <trkpt lat="46.49782" lon="6.13241">
        <ele>1459</ele>
        <time>2019-05-05T01:56:00Z</time>
      </trkpt>
      <trkpt lat="46.49777" lon="6.13231">
        <ele>1457</ele>
        <time>2019-05-05T01:56:06Z</time>
      </trkpt>
      <trkpt lat="46.49775" lon="6.13224">
        <ele>1456</ele>
        <time>2019-05-05T01:56:09Z</time>
      </trkpt>
      <trkpt lat="46.49772" lon="6.13214">
        <ele>1455</ele>
        <time>2019-05-05T01:56:15Z</time>
      </trkpt>
      <trkpt lat="46.49769" lon="6.13205">
        <ele>1455</ele>
        <time>2019-05-05T01:56:20Z</time>
      </trkpt>
      <trkpt lat="46.49767" lon="6.13195">
        <ele>1454</ele>
        <time>2019-05-05T01:56:25Z</time>
      </trkpt>
      <trkpt lat="46.49766" lon="6.13192">
        <ele>1454</ele>
        <time>2019-05-05T01:56:27Z</time>
      </trkpt>
      <trkpt lat="46.49764" lon="6.13186">
        <ele>1454</ele>
        <time>2019-05-05T01:56:30Z</time>
      </trkpt>
      <trkpt lat="46.49762" lon="6.13179">
        <ele>1454</ele>
        <time>2019-05-05T01:56:34Z</time>
      </trkpt>
      <trkpt lat="46.4976" lon="6.13172">
        <ele>1453</ele>
        <time>2019-05-05T01:56:38Z</time>
      </trkpt>
      <trkpt lat="46.49758" lon="6.13165">
        <ele>1453</ele>
        <time>2019-05-05T01:56:42Z</time>
      </trkpt>
      <trkpt lat="46.49754" lon="6.13158">
        <ele>1453</ele>
        <time>2019-05-05T01:56:46Z</time>
      </trkpt>
      <trkpt lat="46.49751" lon="6.13151">
        <ele>1452</ele>
        <time>2019-05-05T01:56:50Z</time>
      </trkpt>
      <trkpt lat="46.49749" lon="6.13147">
        <ele>1452</ele>
        <time>2019-05-05T01:56:52Z</time>
      </trkpt>
      <trkpt lat="46.49748" lon="6.13143">
        <ele>1452</ele>
        <time>2019-05-05T01:56:55Z</time>
      </trkpt>
      <trkpt lat="46.49746" lon="6.13139">
        <ele>1452</ele>
        <time>2019-05-05T01:56:57Z</time>
      </trkpt>
      <trkpt lat="46.49744" lon="6.13133">
        <ele>1451</ele>
        <time>2019-05-05T01:57:01Z</time>
      </trkpt>
      <trkpt lat="46.4974" lon="6.13127">
        <ele>1451</ele>
        <time>2019-05-05T01:57:05Z</time>
      </trkpt>
      <trkpt lat="46.49736" lon="6.13124">
        <ele>1450</ele>
        <time>2019-05-05T01:57:08Z</time>
      </trkpt>
      <trkpt lat="46.49734" lon="6.13121">
        <ele>1450</ele>
        <time>2019-05-05T01:57:10Z</time>
      </trkpt>
      <trkpt lat="46.49726" lon="6.1311">
        <ele>1448</ele>
        <time>2019-05-05T01:57:18Z</time>
      </trkpt>
      <trkpt lat="46.49724" lon="6.13106">
        <ele>1448</ele>
        <time>2019-05-05T01:57:21Z</time>
      </trkpt>
      <trkpt lat="46.49723" lon="6.13103">
        <ele>1448</ele>
        <time>2019-05-05T01:57:22Z</time>
      </trkpt>
      <trkpt lat="46.49723" lon="6.131">
        <ele>1448</ele>
        <time>2019-05-05T01:57:24Z</time>
      </trkpt>
      <trkpt lat="46.49725" lon="6.13099">
        <ele>1448</ele>
        <time>2019-05-05T01:57:25Z</time>
      </trkpt>
      <trkpt lat="46.49724" lon="6.13094">
        <ele>1449</ele>
        <time>2019-05-05T01:57:28Z</time>
      </trkpt>
      <trkpt lat="46.49723" lon="6.13092">
        <ele>1448</ele>
        <time>2019-05-05T01:57:29Z</time>
      </trkpt>
      <trkpt lat="46.49723" lon="6.13093">
        <ele>1448</ele>
        <time>2019-05-05T01:57:29Z</time>
      </trkpt>
      <trkpt lat="46.49724" lon="6.13093">
        <ele>1448</ele>
        <time>2019-05-05T01:57:30Z</time>
      </trkpt>
      <trkpt lat="46.49725" lon="6.13094">
        <ele>1449</ele>
        <time>2019-05-05T01:57:31Z</time>
      </trkpt>
      <trkpt lat="46.49725" lon="6.13093">
        <ele>1449</ele>
        <time>2019-05-05T01:57:32Z</time>
      </trkpt>
      <trkpt lat="46.49723" lon="6.13084">
        <ele>1449</ele>
        <time>2019-05-05T01:57:36Z</time>
      </trkpt>
      <trkpt lat="46.49724" lon="6.13081">
        <ele>1449</ele>
        <time>2019-05-05T01:57:38Z</time>
      </trkpt>
      <trkpt lat="46.49724" lon="6.13077">
        <ele>1449</ele>
        <time>2019-05-05T01:57:40Z</time>
      </trkpt>
      <trkpt lat="46.49724" lon="6.13076">
        <ele>1449</ele>
        <time>2019-05-05T01:57:40Z</time>
      </trkpt>
      <trkpt lat="46.49724" lon="6.13064">
        <ele>1450</ele>
        <time>2019-05-05T01:57:46Z</time>
      </trkpt>
      <trkpt lat="46.49723" lon="6.13057">
        <ele>1451</ele>
        <time>2019-05-05T01:57:50Z</time>
      </trkpt>
      <trkpt lat="46.49728" lon="6.13033">
        <ele>1452</ele>
        <time>2019-05-05T01:58:02Z</time>
      </trkpt>
      <trkpt lat="46.49729" lon="6.13027">
        <ele>1452</ele>
        <time>2019-05-05T01:58:05Z</time>
      </trkpt>
      <trkpt lat="46.49738" lon="6.13013">
        <ele>1452</ele>
        <time>2019-05-05T01:58:15Z</time>
      </trkpt>
      <trkpt lat="46.49753" lon="6.12999">
        <ele>1450</ele>
        <time>2019-05-05T01:58:28Z</time>
      </trkpt>
      <trkpt lat="46.49756" lon="6.12997">
        <ele>1449</ele>
        <time>2019-05-05T01:58:30Z</time>
      </trkpt>
      <trkpt lat="46.49757" lon="6.12996">
        <ele>1449</ele>
        <time>2019-05-05T01:58:31Z</time>
      </trkpt>
      <trkpt lat="46.49759" lon="6.12992">
        <ele>1449</ele>
        <time>2019-05-05T01:58:34Z</time>
      </trkpt>
      <trkpt lat="46.4976" lon="6.12989">
        <ele>1448</ele>
        <time>2019-05-05T01:58:35Z</time>
      </trkpt>
      <trkpt lat="46.4976" lon="6.12981">
        <ele>1447</ele>
        <time>2019-05-05T01:58:40Z</time>
      </trkpt>
      <trkpt lat="46.49759" lon="6.12976">
        <ele>1446</ele>
        <time>2019-05-05T01:58:42Z</time>
      </trkpt>
      <trkpt lat="46.4976" lon="6.12971">
        <ele>1446</ele>
        <time>2019-05-05T01:58:45Z</time>
      </trkpt>
      <trkpt lat="46.49762" lon="6.12968">
        <ele>1445</ele>
        <time>2019-05-05T01:58:47Z</time>
      </trkpt>
      <trkpt lat="46.49763" lon="6.12966">
        <ele>1445</ele>
        <time>2019-05-05T01:58:48Z</time>
      </trkpt>
      <trkpt lat="46.49763" lon="6.12963">
        <ele>1444</ele>
        <time>2019-05-05T01:58:50Z</time>
      </trkpt>
      <trkpt lat="46.49763" lon="6.12962">
        <ele>1444</ele>
        <time>2019-05-05T01:58:51Z</time>
      </trkpt>
      <trkpt lat="46.49762" lon="6.12962">
        <ele>1444</ele>
        <time>2019-05-05T01:58:52Z</time>
      </trkpt>
      <trkpt lat="46.49764" lon="6.12963">
        <ele>1444</ele>
        <time>2019-05-05T01:58:53Z</time>
      </trkpt>
      <trkpt lat="46.49766" lon="6.12956">
        <ele>1443</ele>
        <time>2019-05-05T01:58:57Z</time>
      </trkpt>
      <trkpt lat="46.49774" lon="6.12932">
        <ele>1437</ele>
        <time>2019-05-05T01:59:10Z</time>
      </trkpt>
      <trkpt lat="46.49776" lon="6.12923">
        <ele>1435</ele>
        <time>2019-05-05T01:59:15Z</time>
      </trkpt>
      <trkpt lat="46.49778" lon="6.1292">
        <ele>1435</ele>
        <time>2019-05-05T01:59:17Z</time>
      </trkpt>
      <trkpt lat="46.4978" lon="6.12917">
        <ele>1434</ele>
        <time>2019-05-05T01:59:20Z</time>
      </trkpt>
      <trkpt lat="46.49783" lon="6.12915">
        <ele>1434</ele>
        <time>2019-05-05T01:59:22Z</time>
      </trkpt>
      <trkpt lat="46.49786" lon="6.1291">
        <ele>1433</ele>
        <time>2019-05-05T01:59:25Z</time>
      </trkpt>
      <trkpt lat="46.49786" lon="6.12908">
        <ele>1433</ele>
        <time>2019-05-05T01:59:26Z</time>
      </trkpt>
      <trkpt lat="46.49787" lon="6.12905">
        <ele>1432</ele>
        <time>2019-05-05T01:59:28Z</time>
      </trkpt>
      <trkpt lat="46.49787" lon="6.12904">
        <ele>1432</ele>
        <time>2019-05-05T01:59:29Z</time>
      </trkpt>
      <trkpt lat="46.49798" lon="6.12906">
        <ele>1434</ele>
        <time>2019-05-05T01:59:37Z</time>
      </trkpt>
      <trkpt lat="46.49798" lon="6.12901">
        <ele>1433</ele>
        <time>2019-05-05T01:59:39Z</time>
      </trkpt>
      <trkpt lat="46.49797" lon="6.12901">
        <ele>1433</ele>
        <time>2019-05-05T01:59:39Z</time>
      </trkpt>
      <trkpt lat="46.49796" lon="6.129">
        <ele>1432</ele>
        <time>2019-05-05T01:59:40Z</time>
      </trkpt>
      <trkpt lat="46.49798" lon="6.12889">
        <ele>1429</ele>
        <time>2019-05-05T01:59:46Z</time>
      </trkpt>
      <trkpt lat="46.498" lon="6.12885">
        <ele>1428</ele>
        <time>2019-05-05T01:59:49Z</time>
      </trkpt>
      <trkpt lat="46.49802" lon="6.12883">
        <ele>1428</ele>
        <time>2019-05-05T01:59:50Z</time>
      </trkpt>
      <trkpt lat="46.49804" lon="6.12881">
        <ele>1428</ele>
        <time>2019-05-05T01:59:52Z</time>
      </trkpt>
      <trkpt lat="46.49805" lon="6.12881">
        <ele>1428</ele>
        <time>2019-05-05T01:59:53Z</time>
      </trkpt>
      <trkpt lat="46.49806" lon="6.1288">
        <ele>1428</ele>
        <time>2019-05-05T01:59:54Z</time>
      </trkpt>
      <trkpt lat="46.49807" lon="6.1288">
        <ele>1428</ele>
        <time>2019-05-05T01:59:54Z</time>
      </trkpt>
      <trkpt lat="46.49809" lon="6.12876">
        <ele>1427</ele>
        <time>2019-05-05T01:59:57Z</time>
      </trkpt>
      <trkpt lat="46.49811" lon="6.12875">
        <ele>1427</ele>
        <time>2019-05-05T01:59:59Z</time>
      </trkpt>
      <trkpt lat="46.49812" lon="6.12875">
        <ele>1427</ele>
        <time>2019-05-05T01:59:59Z</time>
      </trkpt>
      <trkpt lat="46.49815" lon="6.1287">
        <ele>1425</ele>
        <time>2019-05-05T02:00:03Z</time>
      </trkpt>
      <trkpt lat="46.49818" lon="6.12867">
        <ele>1425</ele>
        <time>2019-05-05T02:00:05Z</time>
      </trkpt>
      <trkpt lat="46.49819" lon="6.12865">
        <ele>1424</ele>
        <time>2019-05-05T02:00:06Z</time>
      </trkpt>
      <trkpt lat="46.49823" lon="6.12862">
        <ele>1423</ele>
        <time>2019-05-05T02:00:10Z</time>
      </trkpt>
      <trkpt lat="46.49827" lon="6.1286">
        <ele>1423</ele>
        <time>2019-05-05T02:00:13Z</time>
      </trkpt>
      <trkpt lat="46.49827" lon="6.12859">
        <ele>1423</ele>
        <time>2019-05-05T02:00:14Z</time>
      </trkpt>
      <trkpt lat="46.49831" lon="6.12855">
        <ele>1421</ele>
        <time>2019-05-05T02:00:17Z</time>
      </trkpt>
      <trkpt lat="46.49832" lon="6.12854">
        <ele>1421</ele>
        <time>2019-05-05T02:00:18Z</time>
      </trkpt>
      <trkpt lat="46.49835" lon="6.12849">
        <ele>1420</ele>
        <time>2019-05-05T02:00:21Z</time>
      </trkpt>
      <trkpt lat="46.49839" lon="6.12846">
        <ele>1418</ele>
        <time>2019-05-05T02:00:25Z</time>
      </trkpt>
      <trkpt lat="46.49849" lon="6.12836">
        <ele>1415</ele>
        <time>2019-05-05T02:00:34Z</time>
      </trkpt>
      <trkpt lat="46.49851" lon="6.12834">
        <ele>1414</ele>
        <time>2019-05-05T02:00:36Z</time>
      </trkpt>
      <trkpt lat="46.49856" lon="6.12831">
        <ele>1414</ele>
        <time>2019-05-05T02:00:40Z</time>
      </trkpt>
      <trkpt lat="46.4986" lon="6.12829">
        <ele>1413</ele>
        <time>2019-05-05T02:00:43Z</time>
      </trkpt>
      <trkpt lat="46.49865" lon="6.12827">
        <ele>1414</ele>
        <time>2019-05-05T02:00:46Z</time>
      </trkpt>
      <trkpt lat="46.49871" lon="6.12823">
        <ele>1414</ele>
        <time>2019-05-05T02:00:51Z</time>
      </trkpt>
      <trkpt lat="46.49876" lon="6.12816">
        <ele>1413</ele>
        <time>2019-05-05T02:00:56Z</time>
      </trkpt>
      <trkpt lat="46.49879" lon="6.12811">
        <ele>1412</ele>
        <time>2019-05-05T02:01:00Z</time>
      </trkpt>
      <trkpt lat="46.49888" lon="6.128">
        <ele>1410</ele>
        <time>2019-05-05T02:01:09Z</time>
      </trkpt>
      <trkpt lat="46.4989" lon="6.12793">
        <ele>1408</ele>
        <time>2019-05-05T02:01:12Z</time>
      </trkpt>
      <trkpt lat="46.49895" lon="6.12787">
        <ele>1407</ele>
        <time>2019-05-05T02:01:17Z</time>
      </trkpt>
      <trkpt lat="46.49898" lon="6.12784">
        <ele>1407</ele>
        <time>2019-05-05T02:01:19Z</time>
      </trkpt>
      <trkpt lat="46.49899" lon="6.12779">
        <ele>1405</ele>
        <time>2019-05-05T02:01:22Z</time>
      </trkpt>
      <trkpt lat="46.499" lon="6.12775">
        <ele>1404</ele>
        <time>2019-05-05T02:01:25Z</time>
      </trkpt>
      <trkpt lat="46.499" lon="6.12771">
        <ele>1403</ele>
        <time>2019-05-05T02:01:27Z</time>
      </trkpt>
      <trkpt lat="46.49901" lon="6.12769">
        <ele>1402</ele>
        <time>2019-05-05T02:01:28Z</time>
      </trkpt>
      <trkpt lat="46.49903" lon="6.12766">
        <ele>1402</ele>
        <time>2019-05-05T02:01:30Z</time>
      </trkpt>
      <trkpt lat="46.49905" lon="6.12765">
        <ele>1402</ele>
        <time>2019-05-05T02:01:31Z</time>
      </trkpt>
      <trkpt lat="46.49912" lon="6.12749">
        <ele>1400</ele>
        <time>2019-05-05T02:01:41Z</time>
      </trkpt>
      <trkpt lat="46.49914" lon="6.12748">
        <ele>1400</ele>
        <time>2019-05-05T02:01:42Z</time>
      </trkpt>
      <trkpt lat="46.49916" lon="6.12742">
        <ele>1399</ele>
        <time>2019-05-05T02:01:46Z</time>
      </trkpt>
      <trkpt lat="46.49925" lon="6.12718">
        <ele>1396</ele>
        <time>2019-05-05T02:01:59Z</time>
      </trkpt>
      <trkpt lat="46.49927" lon="6.12717">
        <ele>1396</ele>
        <time>2019-05-05T02:02:01Z</time>
      </trkpt>
      <trkpt lat="46.49927" lon="6.12716">
        <ele>1396</ele>
        <time>2019-05-05T02:02:01Z</time>
      </trkpt>
      <trkpt lat="46.49928" lon="6.12716">
        <ele>1396</ele>
        <time>2019-05-05T02:02:02Z</time>
      </trkpt>
      <trkpt lat="46.49929" lon="6.12714">
        <ele>1396</ele>
        <time>2019-05-05T02:02:03Z</time>
      </trkpt>
      <trkpt lat="46.49929" lon="6.12714">
        <ele>1396</ele>
        <time>2019-05-05T02:02:03Z</time>
      </trkpt>
      <trkpt lat="46.49931" lon="6.12713">
        <ele>1396</ele>
        <time>2019-05-05T02:02:05Z</time>
      </trkpt>
      <trkpt lat="46.49933" lon="6.12707">
        <ele>1395</ele>
        <time>2019-05-05T02:02:08Z</time>
      </trkpt>
      <trkpt lat="46.49936" lon="6.12703">
        <ele>1394</ele>
        <time>2019-05-05T02:02:11Z</time>
      </trkpt>
      <trkpt lat="46.4994" lon="6.12693">
        <ele>1393</ele>
        <time>2019-05-05T02:02:16Z</time>
      </trkpt>
      <trkpt lat="46.49945" lon="6.12678">
        <ele>1391</ele>
        <time>2019-05-05T02:02:25Z</time>
      </trkpt>
      <trkpt lat="46.49947" lon="6.1267">
        <ele>1390</ele>
        <time>2019-05-05T02:02:29Z</time>
      </trkpt>
      <trkpt lat="46.49953" lon="6.12645">
        <ele>1388</ele>
        <time>2019-05-05T02:02:43Z</time>
      </trkpt>
      <trkpt lat="46.49953" lon="6.12642">
        <ele>1388</ele>
        <time>2019-05-05T02:02:44Z</time>
      </trkpt>
      <trkpt lat="46.49955" lon="6.12631">
        <ele>1387</ele>
        <time>2019-05-05T02:02:50Z</time>
      </trkpt>
      <trkpt lat="46.49957" lon="6.12623">
        <ele>1386</ele>
        <time>2019-05-05T02:02:54Z</time>
      </trkpt>
      <trkpt lat="46.49959" lon="6.12609">
        <ele>1385</ele>
        <time>2019-05-05T02:03:01Z</time>
      </trkpt>
      <trkpt lat="46.49965" lon="6.12586">
        <ele>1385</ele>
        <time>2019-05-05T02:03:14Z</time>
      </trkpt>
      <trkpt lat="46.49964" lon="6.12576">
        <ele>1384</ele>
        <time>2019-05-05T02:03:18Z</time>
      </trkpt>
      <trkpt lat="46.4996" lon="6.12566">
        <ele>1382</ele>
        <time>2019-05-05T02:03:24Z</time>
      </trkpt>
      <trkpt lat="46.49957" lon="6.12545">
        <ele>1378</ele>
        <time>2019-05-05T02:03:35Z</time>
      </trkpt>
      <trkpt lat="46.49956" lon="6.12538">
        <ele>1377</ele>
        <time>2019-05-05T02:03:39Z</time>
      </trkpt>
      <trkpt lat="46.49957" lon="6.1253">
        <ele>1377</ele>
        <time>2019-05-05T02:03:43Z</time>
      </trkpt>
      <trkpt lat="46.49954" lon="6.12508">
        <ele>1375</ele>
        <time>2019-05-05T02:03:54Z</time>
      </trkpt>
      <trkpt lat="46.49952" lon="6.12496">
        <ele>1374</ele>
        <time>2019-05-05T02:04:00Z</time>
      </trkpt>
      <trkpt lat="46.49952" lon="6.12488">
        <ele>1374</ele>
        <time>2019-05-05T02:04:04Z</time>
      </trkpt>
      <trkpt lat="46.49952" lon="6.12479">
        <ele>1374</ele>
        <time>2019-05-05T02:04:09Z</time>
      </trkpt>
      <trkpt lat="46.49951" lon="6.12463">
        <ele>1373</ele>
        <time>2019-05-05T02:04:17Z</time>
      </trkpt>
      <trkpt lat="46.4995" lon="6.12458">
        <ele>1373</ele>
        <time>2019-05-05T02:04:19Z</time>
      </trkpt>
      <trkpt lat="46.49951" lon="6.12452">
        <ele>1373</ele>
        <time>2019-05-05T02:04:22Z</time>
      </trkpt>
      <trkpt lat="46.49952" lon="6.12446">
        <ele>1373</ele>
        <time>2019-05-05T02:04:25Z</time>
      </trkpt>
      <trkpt lat="46.49951" lon="6.1242">
        <ele>1373</ele>
        <time>2019-05-05T02:04:38Z</time>
      </trkpt>
      <trkpt lat="46.49948" lon="6.1241">
        <ele>1372</ele>
        <time>2019-05-05T02:04:44Z</time>
      </trkpt>
      <trkpt lat="46.49947" lon="6.12403">
        <ele>1371</ele>
        <time>2019-05-05T02:04:47Z</time>
      </trkpt>
      <trkpt lat="46.49947" lon="6.12398">
        <ele>1371</ele>
        <time>2019-05-05T02:04:50Z</time>
      </trkpt>
      <trkpt lat="46.49944" lon="6.12391">
        <ele>1370</ele>
        <time>2019-05-05T02:04:54Z</time>
      </trkpt>
      <trkpt lat="46.49942" lon="6.12384">
        <ele>1369</ele>
        <time>2019-05-05T02:04:58Z</time>
      </trkpt>
      <trkpt lat="46.49941" lon="6.12372">
        <ele>1369</ele>
        <time>2019-05-05T02:05:04Z</time>
      </trkpt>
      <trkpt lat="46.49939" lon="6.12353">
        <ele>1369</ele>
        <time>2019-05-05T02:05:13Z</time>
      </trkpt>
      <trkpt lat="46.49936" lon="6.12343">
        <ele>1368</ele>
        <time>2019-05-05T02:05:19Z</time>
      </trkpt>
      <trkpt lat="46.4993" lon="6.12318">
        <ele>1368</ele>
        <time>2019-05-05T02:05:32Z</time>
      </trkpt>
      <trkpt lat="46.49926" lon="6.12291">
        <ele>1368</ele>
        <time>2019-05-05T02:05:46Z</time>
      </trkpt>
      <trkpt lat="46.49926" lon="6.12283">
        <ele>1369</ele>
        <time>2019-05-05T02:05:50Z</time>
      </trkpt>
      <trkpt lat="46.49926" lon="6.12282">
        <ele>1368</ele>
        <time>2019-05-05T02:05:51Z</time>
      </trkpt>
      <trkpt lat="46.49924" lon="6.12277">
        <ele>1368</ele>
        <time>2019-05-05T02:05:54Z</time>
      </trkpt>
      <trkpt lat="46.49923" lon="6.12269">
        <ele>1368</ele>
        <time>2019-05-05T02:05:58Z</time>
      </trkpt>
      <trkpt lat="46.49921" lon="6.12261">
        <ele>1368</ele>
        <time>2019-05-05T02:06:02Z</time>
      </trkpt>
      <trkpt lat="46.49915" lon="6.12255">
        <ele>1367</ele>
        <time>2019-05-05T02:06:08Z</time>
      </trkpt>
      <trkpt lat="46.4991" lon="6.12259">
        <ele>1367</ele>
        <time>2019-05-05T02:06:11Z</time>
      </trkpt>
      <trkpt lat="46.49909" lon="6.12259">
        <ele>1366</ele>
        <time>2019-05-05T02:06:12Z</time>
      </trkpt>
      <trkpt lat="46.49905" lon="6.12261">
        <ele>1366</ele>
        <time>2019-05-05T02:06:15Z</time>
      </trkpt>
      <trkpt lat="46.49901" lon="6.12261">
        <ele>1365</ele>
        <time>2019-05-05T02:06:18Z</time>
      </trkpt>
      <trkpt lat="46.49898" lon="6.12262">
        <ele>1364</ele>
        <time>2019-05-05T02:06:21Z</time>
      </trkpt>
      <trkpt lat="46.49892" lon="6.12264">
        <ele>1363</ele>
        <time>2019-05-05T02:06:25Z</time>
      </trkpt>
      <trkpt lat="46.49888" lon="6.12263">
        <ele>1362</ele>
        <time>2019-05-05T02:06:28Z</time>
      </trkpt>
      <trkpt lat="46.49885" lon="6.12264">
        <ele>1362</ele>
        <time>2019-05-05T02:06:30Z</time>
      </trkpt>
      <trkpt lat="46.49885" lon="6.12263">
        <ele>1362</ele>
        <time>2019-05-05T02:06:30Z</time>
      </trkpt>
      <trkpt lat="46.49882" lon="6.12266">
        <ele>1361</ele>
        <time>2019-05-05T02:06:33Z</time>
      </trkpt>
      <trkpt lat="46.49876" lon="6.12266">
        <ele>1360</ele>
        <time>2019-05-05T02:06:37Z</time>
      </trkpt>
      <trkpt lat="46.49872" lon="6.12265">
        <ele>1359</ele>
        <time>2019-05-05T02:06:40Z</time>
      </trkpt>
      <trkpt lat="46.49868" lon="6.12263">
        <ele>1359</ele>
        <time>2019-05-05T02:06:43Z</time>
      </trkpt>
      <trkpt lat="46.49858" lon="6.1226">
        <ele>1357</ele>
        <time>2019-05-05T02:06:51Z</time>
      </trkpt>
      <trkpt lat="46.49856" lon="6.12259">
        <ele>1358</ele>
        <time>2019-05-05T02:06:52Z</time>
      </trkpt>
      <trkpt lat="46.49852" lon="6.12257">
        <ele>1358</ele>
        <time>2019-05-05T02:06:55Z</time>
      </trkpt>
      <trkpt lat="46.49846" lon="6.12259">
        <ele>1357</ele>
        <time>2019-05-05T02:07:00Z</time>
      </trkpt>
      <trkpt lat="46.49844" lon="6.1226">
        <ele>1357</ele>
        <time>2019-05-05T02:07:01Z</time>
      </trkpt>
      <trkpt lat="46.49845" lon="6.12259">
        <ele>1357</ele>
        <time>2019-05-05T02:07:02Z</time>
      </trkpt>
      <trkpt lat="46.49846" lon="6.12245">
        <ele>1359</ele>
        <time>2019-05-05T02:07:09Z</time>
      </trkpt>
      <trkpt lat="46.49847" lon="6.12244">
        <ele>1360</ele>
        <time>2019-05-05T02:07:10Z</time>
      </trkpt>
      <trkpt lat="46.49846" lon="6.12239">
        <ele>1360</ele>
        <time>2019-05-05T02:07:12Z</time>
      </trkpt>
      <trkpt lat="46.49845" lon="6.12236">
        <ele>1361</ele>
        <time>2019-05-05T02:07:14Z</time>
      </trkpt>
      <trkpt lat="46.49846" lon="6.12234">
        <ele>1361</ele>
        <time>2019-05-05T02:07:15Z</time>
      </trkpt>
      <trkpt lat="46.49847" lon="6.1223">
        <ele>1362</ele>
        <time>2019-05-05T02:07:17Z</time>
      </trkpt>
      <trkpt lat="46.49847" lon="6.12228">
        <ele>1362</ele>
        <time>2019-05-05T02:07:18Z</time>
      </trkpt>
      <trkpt lat="46.49847" lon="6.12226">
        <ele>1363</ele>
        <time>2019-05-05T02:07:19Z</time>
      </trkpt>
      <trkpt lat="46.4985" lon="6.12223">
        <ele>1363</ele>
        <time>2019-05-05T02:07:22Z</time>
      </trkpt>
      <trkpt lat="46.49851" lon="6.12223">
        <ele>1363</ele>
        <time>2019-05-05T02:07:22Z</time>
      </trkpt>
      <trkpt lat="46.49851" lon="6.12221">
        <ele>1363</ele>
        <time>2019-05-05T02:07:23Z</time>
      </trkpt>
      <trkpt lat="46.49854" lon="6.12221">
        <ele>1363</ele>
        <time>2019-05-05T02:07:25Z</time>
      </trkpt>
      <trkpt lat="46.49856" lon="6.12217">
        <ele>1364</ele>
        <time>2019-05-05T02:07:28Z</time>
      </trkpt>
      <trkpt lat="46.49857" lon="6.12215">
        <ele>1364</ele>
        <time>2019-05-05T02:07:29Z</time>
      </trkpt>
      <trkpt lat="46.49859" lon="6.12211">
        <ele>1365</ele>
        <time>2019-05-05T02:07:31Z</time>
      </trkpt>
      <trkpt lat="46.49859" lon="6.12208">
        <ele>1366</ele>
        <time>2019-05-05T02:07:33Z</time>
      </trkpt>
      <trkpt lat="46.49859" lon="6.12206">
        <ele>1366</ele>
        <time>2019-05-05T02:07:34Z</time>
      </trkpt>
      <trkpt lat="46.49857" lon="6.12201">
        <ele>1367</ele>
        <time>2019-05-05T02:07:37Z</time>
      </trkpt>
      <trkpt lat="46.49856" lon="6.122">
        <ele>1367</ele>
        <time>2019-05-05T02:07:38Z</time>
      </trkpt>
      <trkpt lat="46.49853" lon="6.12199">
        <ele>1367</ele>
        <time>2019-05-05T02:07:41Z</time>
      </trkpt>
      <trkpt lat="46.4985" lon="6.12193">
        <ele>1368</ele>
        <time>2019-05-05T02:07:44Z</time>
      </trkpt>
      <trkpt lat="46.49849" lon="6.12191">
        <ele>1368</ele>
        <time>2019-05-05T02:07:45Z</time>
      </trkpt>
      <trkpt lat="46.49847" lon="6.12189">
        <ele>1369</ele>
        <time>2019-05-05T02:07:47Z</time>
      </trkpt>
      <trkpt lat="46.49833" lon="6.12181">
        <ele>1370</ele>
        <time>2019-05-05T02:07:58Z</time>
      </trkpt>
      <trkpt lat="46.49828" lon="6.12177">
        <ele>1370</ele>
        <time>2019-05-05T02:08:02Z</time>
      </trkpt>
      <trkpt lat="46.49827" lon="6.12172">
        <ele>1371</ele>
        <time>2019-05-05T02:08:05Z</time>
      </trkpt>
      <trkpt lat="46.49824" lon="6.1217">
        <ele>1371</ele>
        <time>2019-05-05T02:08:07Z</time>
      </trkpt>
      <trkpt lat="46.49822" lon="6.12168">
        <ele>1372</ele>
        <time>2019-05-05T02:08:09Z</time>
      </trkpt>
      <trkpt lat="46.49817" lon="6.12161">
        <ele>1373</ele>
        <time>2019-05-05T02:08:14Z</time>
      </trkpt>
      <trkpt lat="46.49805" lon="6.12145">
        <ele>1377</ele>
        <time>2019-05-05T02:08:26Z</time>
      </trkpt>
      <trkpt lat="46.49798" lon="6.12142">
        <ele>1378</ele>
        <time>2019-05-05T02:08:32Z</time>
      </trkpt>
      <trkpt lat="46.49796" lon="6.12143">
        <ele>1378</ele>
        <time>2019-05-05T02:08:33Z</time>
      </trkpt>
      <trkpt lat="46.49792" lon="6.12144">
        <ele>1379</ele>
        <time>2019-05-05T02:08:36Z</time>
      </trkpt>
      <trkpt lat="46.49786" lon="6.12146">
        <ele>1379</ele>
        <time>2019-05-05T02:08:40Z</time>
      </trkpt>
      <trkpt lat="46.49784" lon="6.12145">
        <ele>1380</ele>
        <time>2019-05-05T02:08:42Z</time>
      </trkpt>
      <trkpt lat="46.49781" lon="6.12137">
        <ele>1382</ele>
        <time>2019-05-05T02:08:47Z</time>
      </trkpt>
      <trkpt lat="46.49774" lon="6.12141">
        <ele>1382</ele>
        <time>2019-05-05T02:08:53Z</time>
      </trkpt>
      <trkpt lat="46.49771" lon="6.12141">
        <ele>1382</ele>
        <time>2019-05-05T02:08:55Z</time>
      </trkpt>
      <trkpt lat="46.4976" lon="6.12142">
        <ele>1382</ele>
        <time>2019-05-05T02:09:02Z</time>
      </trkpt>
      <trkpt lat="46.49757" lon="6.12144">
        <ele>1382</ele>
        <time>2019-05-05T02:09:05Z</time>
      </trkpt>
      <trkpt lat="46.49754" lon="6.12142">
        <ele>1382</ele>
        <time>2019-05-05T02:09:07Z</time>
      </trkpt>
      <trkpt lat="46.49749" lon="6.12142">
        <ele>1382</ele>
        <time>2019-05-05T02:09:10Z</time>
      </trkpt>
      <trkpt lat="46.49747" lon="6.12143">
        <ele>1382</ele>
        <time>2019-05-05T02:09:12Z</time>
      </trkpt>
      <trkpt lat="46.49737" lon="6.12143">
        <ele>1383</ele>
        <time>2019-05-05T02:09:19Z</time>
      </trkpt>
      <trkpt lat="46.49733" lon="6.12143">
        <ele>1383</ele>
        <time>2019-05-05T02:09:22Z</time>
      </trkpt>
      <trkpt lat="46.4973" lon="6.1214">
        <ele>1384</ele>
        <time>2019-05-05T02:09:25Z</time>
      </trkpt>
      <trkpt lat="46.49726" lon="6.12138">
        <ele>1385</ele>
        <time>2019-05-05T02:09:28Z</time>
      </trkpt>
      <trkpt lat="46.49724" lon="6.12137">
        <ele>1385</ele>
        <time>2019-05-05T02:09:29Z</time>
      </trkpt>
      <trkpt lat="46.49723" lon="6.12137">
        <ele>1385</ele>
        <time>2019-05-05T02:09:30Z</time>
      </trkpt>
      <trkpt lat="46.49722" lon="6.12137">
        <ele>1385</ele>
        <time>2019-05-05T02:09:31Z</time>
      </trkpt>
      <trkpt lat="46.4972" lon="6.12135">
        <ele>1386</ele>
        <time>2019-05-05T02:09:33Z</time>
      </trkpt>
      <trkpt lat="46.49716" lon="6.12131">
        <ele>1388</ele>
        <time>2019-05-05T02:09:37Z</time>
      </trkpt>
      <trkpt lat="46.49714" lon="6.12128">
        <ele>1389</ele>
        <time>2019-05-05T02:09:39Z</time>
      </trkpt>
      <trkpt lat="46.49713" lon="6.12125">
        <ele>1390</ele>
        <time>2019-05-05T02:09:41Z</time>
      </trkpt>
      <trkpt lat="46.49709" lon="6.12124">
        <ele>1390</ele>
        <time>2019-05-05T02:09:44Z</time>
      </trkpt>
      <trkpt lat="46.49708" lon="6.1212">
        <ele>1392</ele>
        <time>2019-05-05T02:09:46Z</time>
      </trkpt>
      <trkpt lat="46.49706" lon="6.12122">
        <ele>1392</ele>
        <time>2019-05-05T02:09:48Z</time>
      </trkpt>
      <trkpt lat="46.49702" lon="6.12122">
        <ele>1392</ele>
        <time>2019-05-05T02:09:51Z</time>
      </trkpt>
      <trkpt lat="46.49703" lon="6.12106">
        <ele>1397</ele>
        <time>2019-05-05T02:10:00Z</time>
      </trkpt>
      <trkpt lat="46.49702" lon="6.121">
        <ele>1399</ele>
        <time>2019-05-05T02:10:03Z</time>
      </trkpt>
      <trkpt lat="46.49702" lon="6.12099">
        <ele>1400</ele>
        <time>2019-05-05T02:10:04Z</time>
      </trkpt>
      <trkpt lat="46.49703" lon="6.12096">
        <ele>1400</ele>
        <time>2019-05-05T02:10:06Z</time>
      </trkpt>
      <trkpt lat="46.49704" lon="6.12095">
        <ele>1400</ele>
        <time>2019-05-05T02:10:06Z</time>
      </trkpt>
      <trkpt lat="46.49705" lon="6.12092">
        <ele>1400</ele>
        <time>2019-05-05T02:10:08Z</time>
      </trkpt>
      <trkpt lat="46.49706" lon="6.12086">
        <ele>1401</ele>
        <time>2019-05-05T02:10:11Z</time>
      </trkpt>
      <trkpt lat="46.49707" lon="6.12083">
        <ele>1402</ele>
        <time>2019-05-05T02:10:13Z</time>
      </trkpt>
      <trkpt lat="46.49708" lon="6.1208">
        <ele>1402</ele>
        <time>2019-05-05T02:10:15Z</time>
      </trkpt>
      <trkpt lat="46.49708" lon="6.12078">
        <ele>1402</ele>
        <time>2019-05-05T02:10:16Z</time>
      </trkpt>
      <trkpt lat="46.49708" lon="6.12073">
        <ele>1403</ele>
        <time>2019-05-05T02:10:18Z</time>
      </trkpt>
      <trkpt lat="46.4971" lon="6.1207">
        <ele>1404</ele>
        <time>2019-05-05T02:10:20Z</time>
      </trkpt>
      <trkpt lat="46.49711" lon="6.12065">
        <ele>1404</ele>
        <time>2019-05-05T02:10:23Z</time>
      </trkpt>
      <trkpt lat="46.49709" lon="6.12062">
        <ele>1405</ele>
        <time>2019-05-05T02:10:25Z</time>
      </trkpt>
      <trkpt lat="46.49708" lon="6.12058">
        <ele>1406</ele>
        <time>2019-05-05T02:10:27Z</time>
      </trkpt>
      <trkpt lat="46.49709" lon="6.12045">
        <ele>1408</ele>
        <time>2019-05-05T02:10:34Z</time>
      </trkpt>
      <trkpt lat="46.49707" lon="6.12045">
        <ele>1408</ele>
        <time>2019-05-05T02:10:35Z</time>
      </trkpt>
      <trkpt lat="46.49706" lon="6.12044">
        <ele>1409</ele>
        <time>2019-05-05T02:10:36Z</time>
      </trkpt>
      <trkpt lat="46.49703" lon="6.1204">
        <ele>1410</ele>
        <time>2019-05-05T02:10:39Z</time>
      </trkpt>
      <trkpt lat="46.49701" lon="6.12037">
        <ele>1411</ele>
        <time>2019-05-05T02:10:41Z</time>
      </trkpt>
      <trkpt lat="46.497" lon="6.12036">
        <ele>1411</ele>
        <time>2019-05-05T02:10:42Z</time>
      </trkpt>
      <trkpt lat="46.49697" lon="6.12036">
        <ele>1412</ele>
        <time>2019-05-05T02:10:44Z</time>
      </trkpt>
      <trkpt lat="46.49695" lon="6.12036">
        <ele>1413</ele>
        <time>2019-05-05T02:10:46Z</time>
      </trkpt>
      <trkpt lat="46.49694" lon="6.12039">
        <ele>1412</ele>
        <time>2019-05-05T02:10:48Z</time>
      </trkpt>
      <trkpt lat="46.49692" lon="6.12041">
        <ele>1412</ele>
        <time>2019-05-05T02:10:50Z</time>
      </trkpt>
      <trkpt lat="46.49693" lon="6.12044">
        <ele>1411</ele>
        <time>2019-05-05T02:10:51Z</time>
      </trkpt>
      <trkpt lat="46.49692" lon="6.12045">
        <ele>1411</ele>
        <time>2019-05-05T02:10:52Z</time>
      </trkpt>
      <trkpt lat="46.49689" lon="6.12045">
        <ele>1412</ele>
        <time>2019-05-05T02:10:54Z</time>
      </trkpt>
      <trkpt lat="46.49687" lon="6.12044">
        <ele>1413</ele>
        <time>2019-05-05T02:10:56Z</time>
      </trkpt>
      <trkpt lat="46.49683" lon="6.12041">
        <ele>1414</ele>
        <time>2019-05-05T02:11:00Z</time>
      </trkpt>
      <trkpt lat="46.49681" lon="6.12039">
        <ele>1414</ele>
        <time>2019-05-05T02:11:01Z</time>
      </trkpt>
      <trkpt lat="46.49677" lon="6.12036">
        <ele>1416</ele>
        <time>2019-05-05T02:11:05Z</time>
      </trkpt>
      <trkpt lat="46.49675" lon="6.12038">
        <ele>1416</ele>
        <time>2019-05-05T02:11:06Z</time>
      </trkpt>
      <trkpt lat="46.49673" lon="6.12042">
        <ele>1415</ele>
        <time>2019-05-05T02:11:09Z</time>
      </trkpt>
      <trkpt lat="46.49673" lon="6.12044">
        <ele>1415</ele>
        <time>2019-05-05T02:11:10Z</time>
      </trkpt>
      <trkpt lat="46.49674" lon="6.12046">
        <ele>1414</ele>
        <time>2019-05-05T02:11:11Z</time>
      </trkpt>
      <trkpt lat="46.49673" lon="6.12049">
        <ele>1413</ele>
        <time>2019-05-05T02:11:13Z</time>
      </trkpt>
      <trkpt lat="46.4967" lon="6.12049">
        <ele>1414</ele>
        <time>2019-05-05T02:11:16Z</time>
      </trkpt>
      <trkpt lat="46.49667" lon="6.12049">
        <ele>1414</ele>
        <time>2019-05-05T02:11:18Z</time>
      </trkpt>
      <trkpt lat="46.49664" lon="6.12049">
        <ele>1415</ele>
        <time>2019-05-05T02:11:20Z</time>
      </trkpt>
      <trkpt lat="46.49662" lon="6.12049">
        <ele>1415</ele>
        <time>2019-05-05T02:11:22Z</time>
      </trkpt>
      <trkpt lat="46.49657" lon="6.12047">
        <ele>1416</ele>
        <time>2019-05-05T02:11:25Z</time>
      </trkpt>
      <trkpt lat="46.49653" lon="6.12045">
        <ele>1417</ele>
        <time>2019-05-05T02:11:28Z</time>
      </trkpt>
      <trkpt lat="46.49647" lon="6.12042">
        <ele>1419</ele>
        <time>2019-05-05T02:11:33Z</time>
      </trkpt>
      <trkpt lat="46.49646" lon="6.12042">
        <ele>1419</ele>
        <time>2019-05-05T02:11:33Z</time>
      </trkpt>
      <trkpt lat="46.49644" lon="6.12043">
        <ele>1419</ele>
        <time>2019-05-05T02:11:35Z</time>
      </trkpt>
      <trkpt lat="46.4964" lon="6.12041">
        <ele>1420</ele>
        <time>2019-05-05T02:11:38Z</time>
      </trkpt>
      <trkpt lat="46.49637" lon="6.12041">
        <ele>1421</ele>
        <time>2019-05-05T02:11:41Z</time>
      </trkpt>
      <trkpt lat="46.49635" lon="6.12042">
        <ele>1421</ele>
        <time>2019-05-05T02:11:42Z</time>
      </trkpt>
      <trkpt lat="46.49631" lon="6.12042">
        <ele>1421</ele>
        <time>2019-05-05T02:11:45Z</time>
      </trkpt>
      <trkpt lat="46.49628" lon="6.1204">
        <ele>1422</ele>
        <time>2019-05-05T02:11:48Z</time>
      </trkpt>
      <trkpt lat="46.49623" lon="6.12037">
        <ele>1424</ele>
        <time>2019-05-05T02:11:51Z</time>
      </trkpt>
      <trkpt lat="46.4962" lon="6.12033">
        <ele>1426</ele>
        <time>2019-05-05T02:11:55Z</time>
      </trkpt>
      <trkpt lat="46.49617" lon="6.12029">
        <ele>1428</ele>
        <time>2019-05-05T02:11:58Z</time>
      </trkpt>
      <trkpt lat="46.49614" lon="6.12024">
        <ele>1430</ele>
        <time>2019-05-05T02:12:01Z</time>
      </trkpt>
      <trkpt lat="46.49613" lon="6.1202">
        <ele>1432</ele>
        <time>2019-05-05T02:12:04Z</time>
      </trkpt>
      <trkpt lat="46.4961" lon="6.12016">
        <ele>1433</ele>
        <time>2019-05-05T02:12:07Z</time>
      </trkpt>
      <trkpt lat="46.4961" lon="6.12015">
        <ele>1433</ele>
        <time>2019-05-05T02:12:07Z</time>
      </trkpt>
      <trkpt lat="46.49609" lon="6.12015">
        <ele>1433</ele>
        <time>2019-05-05T02:12:08Z</time>
      </trkpt>
      <trkpt lat="46.49606" lon="6.12013">
        <ele>1433</ele>
        <time>2019-05-05T02:12:10Z</time>
      </trkpt>
      <trkpt lat="46.49601" lon="6.12012">
        <ele>1433</ele>
        <time>2019-05-05T02:12:14Z</time>
      </trkpt>
      <trkpt lat="46.4959" lon="6.12006">
        <ele>1434</ele>
        <time>2019-05-05T02:12:22Z</time>
      </trkpt>
      <trkpt lat="46.49583" lon="6.12001">
        <ele>1434</ele>
        <time>2019-05-05T02:12:28Z</time>
      </trkpt>
      <trkpt lat="46.49582" lon="6.12">
        <ele>1434</ele>
        <time>2019-05-05T02:12:29Z</time>
      </trkpt>
      <trkpt lat="46.49568" lon="6.11985">
        <ele>1436</ele>
        <time>2019-05-05T02:12:41Z</time>
      </trkpt>
      <trkpt lat="46.49566" lon="6.11985">
        <ele>1437</ele>
        <time>2019-05-05T02:12:43Z</time>
      </trkpt>
      <trkpt lat="46.49562" lon="6.11984">
        <ele>1437</ele>
        <time>2019-05-05T02:12:46Z</time>
      </trkpt>
      <trkpt lat="46.49561" lon="6.11984">
        <ele>1437</ele>
        <time>2019-05-05T02:12:46Z</time>
      </trkpt>
      <trkpt lat="46.49559" lon="6.11981">
        <ele>1437</ele>
        <time>2019-05-05T02:12:49Z</time>
      </trkpt>
      <trkpt lat="46.49558" lon="6.11977">
        <ele>1438</ele>
        <time>2019-05-05T02:12:51Z</time>
      </trkpt>
      <trkpt lat="46.49559" lon="6.11974">
        <ele>1438</ele>
        <time>2019-05-05T02:12:52Z</time>
      </trkpt>
      <trkpt lat="46.49559" lon="6.11967">
        <ele>1439</ele>
        <time>2019-05-05T02:12:56Z</time>
      </trkpt>
      <trkpt lat="46.49558" lon="6.11963">
        <ele>1440</ele>
        <time>2019-05-05T02:12:58Z</time>
      </trkpt>
      <trkpt lat="46.49555" lon="6.11959">
        <ele>1441</ele>
        <time>2019-05-05T02:13:01Z</time>
      </trkpt>
      <trkpt lat="46.49555" lon="6.11954">
        <ele>1441</ele>
        <time>2019-05-05T02:13:04Z</time>
      </trkpt>
      <trkpt lat="46.49551" lon="6.11956">
        <ele>1442</ele>
        <time>2019-05-05T02:13:06Z</time>
      </trkpt>
      <trkpt lat="46.49548" lon="6.11958">
        <ele>1442</ele>
        <time>2019-05-05T02:13:09Z</time>
      </trkpt>
      <trkpt lat="46.49544" lon="6.11959">
        <ele>1442</ele>
        <time>2019-05-05T02:13:12Z</time>
      </trkpt>
      <trkpt lat="46.4954" lon="6.11961">
        <ele>1442</ele>
        <time>2019-05-05T02:13:15Z</time>
      </trkpt>
      <trkpt lat="46.49531" lon="6.11961">
        <ele>1443</ele>
        <time>2019-05-05T02:13:21Z</time>
      </trkpt>
      <trkpt lat="46.49521" lon="6.11961">
        <ele>1444</ele>
        <time>2019-05-05T02:13:28Z</time>
      </trkpt>
      <trkpt lat="46.49504" lon="6.11955">
        <ele>1447</ele>
        <time>2019-05-05T02:13:42Z</time>
      </trkpt>
      <trkpt lat="46.49487" lon="6.11949">
        <ele>1450</ele>
        <time>2019-05-05T02:13:54Z</time>
      </trkpt>
      <trkpt lat="46.49484" lon="6.1195">
        <ele>1450</ele>
        <time>2019-05-05T02:13:57Z</time>
      </trkpt>
      <trkpt lat="46.49481" lon="6.1195">
        <ele>1451</ele>
        <time>2019-05-05T02:13:58Z</time>
      </trkpt>
      <trkpt lat="46.49479" lon="6.11948">
        <ele>1452</ele>
        <time>2019-05-05T02:14:01Z</time>
      </trkpt>
      <trkpt lat="46.49477" lon="6.11947">
        <ele>1452</ele>
        <time>2019-05-05T02:14:02Z</time>
      </trkpt>
      <trkpt lat="46.49476" lon="6.11945">
        <ele>1453</ele>
        <time>2019-05-05T02:14:04Z</time>
      </trkpt>
      <trkpt lat="46.49475" lon="6.11944">
        <ele>1453</ele>
        <time>2019-05-05T02:14:04Z</time>
      </trkpt>
      <trkpt lat="46.49473" lon="6.11941">
        <ele>1455</ele>
        <time>2019-05-05T02:14:07Z</time>
      </trkpt>
      <trkpt lat="46.49471" lon="6.11937">
        <ele>1456</ele>
        <time>2019-05-05T02:14:09Z</time>
      </trkpt>
      <trkpt lat="46.49471" lon="6.11933">
        <ele>1457</ele>
        <time>2019-05-05T02:14:12Z</time>
      </trkpt>
      <trkpt lat="46.49469" lon="6.11934">
        <ele>1457</ele>
        <time>2019-05-05T02:14:14Z</time>
      </trkpt>
      <trkpt lat="46.49469" lon="6.11935">
        <ele>1457</ele>
        <time>2019-05-05T02:14:14Z</time>
      </trkpt>
      <trkpt lat="46.49468" lon="6.11936">
        <ele>1457</ele>
        <time>2019-05-05T02:14:15Z</time>
      </trkpt>
      <trkpt lat="46.49465" lon="6.11937">
        <ele>1457</ele>
        <time>2019-05-05T02:14:17Z</time>
      </trkpt>
      <trkpt lat="46.49463" lon="6.11937">
        <ele>1457</ele>
        <time>2019-05-05T02:14:19Z</time>
      </trkpt>
      <trkpt lat="46.49461" lon="6.11937">
        <ele>1457</ele>
        <time>2019-05-05T02:14:20Z</time>
      </trkpt>
      <trkpt lat="46.49459" lon="6.11938">
        <ele>1457</ele>
        <time>2019-05-05T02:14:21Z</time>
      </trkpt>
      <trkpt lat="46.49457" lon="6.11938">
        <ele>1458</ele>
        <time>2019-05-05T02:14:23Z</time>
      </trkpt>
      <trkpt lat="46.49452" lon="6.11938">
        <ele>1458</ele>
        <time>2019-05-05T02:14:27Z</time>
      </trkpt>
      <trkpt lat="46.49446" lon="6.11939">
        <ele>1459</ele>
        <time>2019-05-05T02:14:31Z</time>
      </trkpt>
      <trkpt lat="46.49437" lon="6.11935">
        <ele>1462</ele>
        <time>2019-05-05T02:14:38Z</time>
      </trkpt>
      <trkpt lat="46.4943" lon="6.11935">
        <ele>1464</ele>
        <time>2019-05-05T02:14:43Z</time>
      </trkpt>
      <trkpt lat="46.49423" lon="6.11932">
        <ele>1466</ele>
        <time>2019-05-05T02:14:49Z</time>
      </trkpt>
      <trkpt lat="46.49419" lon="6.1193">
        <ele>1468</ele>
        <time>2019-05-05T02:14:52Z</time>
      </trkpt>
      <trkpt lat="46.49417" lon="6.11931">
        <ele>1468</ele>
        <time>2019-05-05T02:14:53Z</time>
      </trkpt>
      <trkpt lat="46.49415" lon="6.11931">
        <ele>1469</ele>
        <time>2019-05-05T02:14:55Z</time>
      </trkpt>
      <trkpt lat="46.49413" lon="6.11928">
        <ele>1469</ele>
        <time>2019-05-05T02:14:57Z</time>
      </trkpt>
      <trkpt lat="46.49409" lon="6.11927">
        <ele>1471</ele>
        <time>2019-05-05T02:15:00Z</time>
      </trkpt>
      <trkpt lat="46.49402" lon="6.11931">
        <ele>1472</ele>
        <time>2019-05-05T02:15:06Z</time>
      </trkpt>
      <trkpt lat="46.494" lon="6.1193">
        <ele>1473</ele>
        <time>2019-05-05T02:15:07Z</time>
      </trkpt>
      <trkpt lat="46.49398" lon="6.11928">
        <ele>1473</ele>
        <time>2019-05-05T02:15:09Z</time>
      </trkpt>
      <trkpt lat="46.49394" lon="6.11925">
        <ele>1475</ele>
        <time>2019-05-05T02:15:13Z</time>
      </trkpt>
      <trkpt lat="46.49394" lon="6.11924">
        <ele>1475</ele>
        <time>2019-05-05T02:15:13Z</time>
      </trkpt>
      <trkpt lat="46.49393" lon="6.11923">
        <ele>1475</ele>
        <time>2019-05-05T02:15:14Z</time>
      </trkpt>
      <trkpt lat="46.49389" lon="6.11922">
        <ele>1476</ele>
        <time>2019-05-05T02:15:17Z</time>
      </trkpt>
      <trkpt lat="46.49387" lon="6.1192">
        <ele>1477</ele>
        <time>2019-05-05T02:15:19Z</time>
      </trkpt>
      <trkpt lat="46.49383" lon="6.1192">
        <ele>1478</ele>
        <time>2019-05-05T02:15:22Z</time>
      </trkpt>
      <trkpt lat="46.49382" lon="6.1192">
        <ele>1479</ele>
        <time>2019-05-05T02:15:23Z</time>
      </trkpt>
      <trkpt lat="46.49381" lon="6.1192">
        <ele>1479</ele>
        <time>2019-05-05T02:15:24Z</time>
      </trkpt>
      <trkpt lat="46.49371" lon="6.11917">
        <ele>1482</ele>
        <time>2019-05-05T02:15:31Z</time>
      </trkpt>
      <trkpt lat="46.49368" lon="6.11917">
        <ele>1483</ele>
        <time>2019-05-05T02:15:34Z</time>
      </trkpt>
      <trkpt lat="46.49362" lon="6.11912">
        <ele>1485</ele>
        <time>2019-05-05T02:15:39Z</time>
      </trkpt>
      <trkpt lat="46.4936" lon="6.11912">
        <ele>1486</ele>
        <time>2019-05-05T02:15:40Z</time>
      </trkpt>
      <trkpt lat="46.49358" lon="6.11912">
        <ele>1486</ele>
        <time>2019-05-05T02:15:42Z</time>
      </trkpt>
      <trkpt lat="46.49354" lon="6.11913">
        <ele>1487</ele>
        <time>2019-05-05T02:15:45Z</time>
      </trkpt>
      <trkpt lat="46.49343" lon="6.11912">
        <ele>1489</ele>
        <time>2019-05-05T02:15:53Z</time>
      </trkpt>
      <trkpt lat="46.4934" lon="6.11912">
        <ele>1490</ele>
        <time>2019-05-05T02:15:55Z</time>
      </trkpt>
      <trkpt lat="46.4934" lon="6.11908">
        <ele>1491</ele>
        <time>2019-05-05T02:15:57Z</time>
      </trkpt>
      <trkpt lat="46.4934" lon="6.11907">
        <ele>1491</ele>
        <time>2019-05-05T02:15:58Z</time>
      </trkpt>
      <trkpt lat="46.49337" lon="6.11904">
        <ele>1492</ele>
        <time>2019-05-05T02:16:00Z</time>
      </trkpt>
      <trkpt lat="46.49335" lon="6.11904">
        <ele>1492</ele>
        <time>2019-05-05T02:16:02Z</time>
      </trkpt>
      <trkpt lat="46.49336" lon="6.11904">
        <ele>1492</ele>
        <time>2019-05-05T02:16:02Z</time>
      </trkpt>
      <trkpt lat="46.49332" lon="6.11903">
        <ele>1493</ele>
        <time>2019-05-05T02:16:04Z</time>
      </trkpt>
      <trkpt lat="46.49329" lon="6.11902">
        <ele>1494</ele>
        <time>2019-05-05T02:16:07Z</time>
      </trkpt>
      <trkpt lat="46.49324" lon="6.11905">
        <ele>1495</ele>
        <time>2019-05-05T02:16:11Z</time>
      </trkpt>
      <trkpt lat="46.49322" lon="6.11903">
        <ele>1496</ele>
        <time>2019-05-05T02:16:13Z</time>
      </trkpt>
      <trkpt lat="46.49321" lon="6.11902">
        <ele>1496</ele>
        <time>2019-05-05T02:16:13Z</time>
      </trkpt>
      <trkpt lat="46.49321" lon="6.11901">
        <ele>1496</ele>
        <time>2019-05-05T02:16:14Z</time>
      </trkpt>
      <trkpt lat="46.49318" lon="6.119">
        <ele>1497</ele>
        <time>2019-05-05T02:16:16Z</time>
      </trkpt>
      <trkpt lat="46.49317" lon="6.119">
        <ele>1497</ele>
        <time>2019-05-05T02:16:17Z</time>
      </trkpt>
      <trkpt lat="46.49316" lon="6.11901">
        <ele>1497</ele>
        <time>2019-05-05T02:16:17Z</time>
      </trkpt>
      <trkpt lat="46.49312" lon="6.11901">
        <ele>1498</ele>
        <time>2019-05-05T02:16:20Z</time>
      </trkpt>
      <trkpt lat="46.49311" lon="6.11902">
        <ele>1498</ele>
        <time>2019-05-05T02:16:21Z</time>
      </trkpt>
      <trkpt lat="46.49307" lon="6.11902">
        <ele>1499</ele>
        <time>2019-05-05T02:16:24Z</time>
      </trkpt>
      <trkpt lat="46.49305" lon="6.11901">
        <ele>1500</ele>
        <time>2019-05-05T02:16:26Z</time>
      </trkpt>
      <trkpt lat="46.49303" lon="6.11899">
        <ele>1501</ele>
        <time>2019-05-05T02:16:28Z</time>
      </trkpt>
      <trkpt lat="46.49298" lon="6.11898">
        <ele>1502</ele>
        <time>2019-05-05T02:16:31Z</time>
      </trkpt>
      <trkpt lat="46.49297" lon="6.11898">
        <ele>1502</ele>
        <time>2019-05-05T02:16:32Z</time>
      </trkpt>
      <trkpt lat="46.4929" lon="6.11896">
        <ele>1504</ele>
        <time>2019-05-05T02:16:37Z</time>
      </trkpt>
      <trkpt lat="46.49287" lon="6.11896">
        <ele>1505</ele>
        <time>2019-05-05T02:16:40Z</time>
      </trkpt>
      <trkpt lat="46.49284" lon="6.11895">
        <ele>1506</ele>
        <time>2019-05-05T02:16:42Z</time>
      </trkpt>
      <trkpt lat="46.49283" lon="6.11895">
        <ele>1506</ele>
        <time>2019-05-05T02:16:43Z</time>
      </trkpt>
      <trkpt lat="46.49282" lon="6.11895">
        <ele>1507</ele>
        <time>2019-05-05T02:16:44Z</time>
      </trkpt>
      <trkpt lat="46.4928" lon="6.11895">
        <ele>1507</ele>
        <time>2019-05-05T02:16:45Z</time>
      </trkpt>
      <trkpt lat="46.49272" lon="6.11893">
        <ele>1509</ele>
        <time>2019-05-05T02:16:51Z</time>
      </trkpt>
      <trkpt lat="46.49266" lon="6.11889">
        <ele>1511</ele>
        <time>2019-05-05T02:16:56Z</time>
      </trkpt>
      <trkpt lat="46.49262" lon="6.11887">
        <ele>1512</ele>
        <time>2019-05-05T02:16:59Z</time>
      </trkpt>
      <trkpt lat="46.49255" lon="6.11887">
        <ele>1513</ele>
        <time>2019-05-05T02:17:04Z</time>
      </trkpt>
      <trkpt lat="46.49251" lon="6.11887">
        <ele>1514</ele>
        <time>2019-05-05T02:17:08Z</time>
      </trkpt>
      <trkpt lat="46.4925" lon="6.11887">
        <ele>1514</ele>
        <time>2019-05-05T02:17:08Z</time>
      </trkpt>
      <trkpt lat="46.49247" lon="6.11885">
        <ele>1515</ele>
        <time>2019-05-05T02:17:11Z</time>
      </trkpt>
      <trkpt lat="46.49244" lon="6.11884">
        <ele>1516</ele>
        <time>2019-05-05T02:17:13Z</time>
      </trkpt>
      <trkpt lat="46.49242" lon="6.11883">
        <ele>1517</ele>
        <time>2019-05-05T02:17:15Z</time>
      </trkpt>
      <trkpt lat="46.49237" lon="6.11881">
        <ele>1518</ele>
        <time>2019-05-05T02:17:18Z</time>
      </trkpt>
      <trkpt lat="46.49235" lon="6.1188">
        <ele>1518</ele>
        <time>2019-05-05T02:17:20Z</time>
      </trkpt>
      <trkpt lat="46.49234" lon="6.11879">
        <ele>1519</ele>
        <time>2019-05-05T02:17:21Z</time>
      </trkpt>
      <trkpt lat="46.49229" lon="6.11879">
        <ele>1520</ele>
        <time>2019-05-05T02:17:24Z</time>
      </trkpt>
      <trkpt lat="46.49228" lon="6.11877">
        <ele>1520</ele>
        <time>2019-05-05T02:17:26Z</time>
      </trkpt>
      <trkpt lat="46.49227" lon="6.11877">
        <ele>1520</ele>
        <time>2019-05-05T02:17:26Z</time>
      </trkpt>
      <trkpt lat="46.49226" lon="6.11877">
        <ele>1521</ele>
        <time>2019-05-05T02:17:27Z</time>
      </trkpt>
      <trkpt lat="46.49223" lon="6.11876">
        <ele>1521</ele>
        <time>2019-05-05T02:17:29Z</time>
      </trkpt>
      <trkpt lat="46.4922" lon="6.11877">
        <ele>1522</ele>
        <time>2019-05-05T02:17:31Z</time>
      </trkpt>
      <trkpt lat="46.49217" lon="6.11875">
        <ele>1523</ele>
        <time>2019-05-05T02:17:34Z</time>
      </trkpt>
      <trkpt lat="46.49216" lon="6.11872">
        <ele>1524</ele>
        <time>2019-05-05T02:17:36Z</time>
      </trkpt>
      <trkpt lat="46.49216" lon="6.11872">
        <ele>1524</ele>
        <time>2019-05-05T02:17:36Z</time>
      </trkpt>
      <trkpt lat="46.49214" lon="6.11872">
        <ele>1524</ele>
        <time>2019-05-05T02:17:38Z</time>
      </trkpt>
      <trkpt lat="46.49212" lon="6.11872">
        <ele>1524</ele>
        <time>2019-05-05T02:17:39Z</time>
      </trkpt>
      <trkpt lat="46.49211" lon="6.11872">
        <ele>1524</ele>
        <time>2019-05-05T02:17:40Z</time>
      </trkpt>
      <trkpt lat="46.49207" lon="6.1187">
        <ele>1525</ele>
        <time>2019-05-05T02:17:42Z</time>
      </trkpt>
      <trkpt lat="46.49205" lon="6.11869">
        <ele>1526</ele>
        <time>2019-05-05T02:17:44Z</time>
      </trkpt>
      <trkpt lat="46.492" lon="6.1186">
        <ele>1529</ele>
        <time>2019-05-05T02:17:51Z</time>
      </trkpt>
      <trkpt lat="46.49197" lon="6.11856">
        <ele>1530</ele>
        <time>2019-05-05T02:17:54Z</time>
      </trkpt>
      <trkpt lat="46.49196" lon="6.11855">
        <ele>1531</ele>
        <time>2019-05-05T02:17:55Z</time>
      </trkpt>
      <trkpt lat="46.49195" lon="6.11854">
        <ele>1531</ele>
        <time>2019-05-05T02:17:55Z</time>
      </trkpt>
      <trkpt lat="46.49192" lon="6.11852">
        <ele>1532</ele>
        <time>2019-05-05T02:17:58Z</time>
      </trkpt>
      <trkpt lat="46.49191" lon="6.1185">
        <ele>1532</ele>
        <time>2019-05-05T02:17:59Z</time>
      </trkpt>
      <trkpt lat="46.4919" lon="6.11849">
        <ele>1532</ele>
        <time>2019-05-05T02:18:00Z</time>
      </trkpt>
      <trkpt lat="46.49188" lon="6.11848">
        <ele>1532</ele>
        <time>2019-05-05T02:18:01Z</time>
      </trkpt>
      <trkpt lat="46.49185" lon="6.11845">
        <ele>1531</ele>
        <time>2019-05-05T02:18:05Z</time>
      </trkpt>
      <trkpt lat="46.49181" lon="6.11842">
        <ele>1531</ele>
        <time>2019-05-05T02:18:08Z</time>
      </trkpt>
      <trkpt lat="46.49163" lon="6.11838">
        <ele>1532</ele>
        <time>2019-05-05T02:18:21Z</time>
      </trkpt>
      <trkpt lat="46.49162" lon="6.11837">
        <ele>1532</ele>
        <time>2019-05-05T02:18:22Z</time>
      </trkpt>
      <trkpt lat="46.49161" lon="6.11834">
        <ele>1531</ele>
        <time>2019-05-05T02:18:23Z</time>
      </trkpt>
      <trkpt lat="46.49157" lon="6.11833">
        <ele>1531</ele>
        <time>2019-05-05T02:18:26Z</time>
      </trkpt>
      <trkpt lat="46.49155" lon="6.11832">
        <ele>1531</ele>
        <time>2019-05-05T02:18:28Z</time>
      </trkpt>
      <trkpt lat="46.49149" lon="6.11827">
        <ele>1531</ele>
        <time>2019-05-05T02:18:32Z</time>
      </trkpt>
      <trkpt lat="46.49149" lon="6.11827">
        <ele>1531</ele>
        <time>2019-05-05T02:18:33Z</time>
      </trkpt>
      <trkpt lat="46.49149" lon="6.11825">
        <ele>1531</ele>
        <time>2019-05-05T02:18:34Z</time>
      </trkpt>
      <trkpt lat="46.49145" lon="6.11824">
        <ele>1531</ele>
        <time>2019-05-05T02:18:37Z</time>
      </trkpt>
      <trkpt lat="46.49137" lon="6.11826">
        <ele>1532</ele>
        <time>2019-05-05T02:18:42Z</time>
      </trkpt>
      <trkpt lat="46.49137" lon="6.11827">
        <ele>1532</ele>
        <time>2019-05-05T02:18:43Z</time>
      </trkpt>
      <trkpt lat="46.49133" lon="6.11828">
        <ele>1532</ele>
        <time>2019-05-05T02:18:46Z</time>
      </trkpt>
      <trkpt lat="46.49133" lon="6.11828">
        <ele>1532</ele>
        <time>2019-05-05T02:18:46Z</time>
      </trkpt>
      <trkpt lat="46.49133" lon="6.11827">
        <ele>1532</ele>
        <time>2019-05-05T02:18:47Z</time>
      </trkpt>
      <trkpt lat="46.49133" lon="6.11827">
        <ele>1532</ele>
        <time>2019-05-05T02:18:47Z</time>
      </trkpt>
      <trkpt lat="46.49133" lon="6.11827">
        <ele>1532</ele>
        <time>2019-05-05T02:18:47Z</time>
      </trkpt>
      <trkpt lat="46.49134" lon="6.11827">
        <ele>1532</ele>
        <time>2019-05-05T02:18:47Z</time>
      </trkpt>
      <trkpt lat="46.49134" lon="6.11827">
        <ele>1532</ele>
        <time>2019-05-05T02:18:47Z</time>
      </trkpt>
      <trkpt lat="46.49134" lon="6.11827">
        <ele>1532</ele>
        <time>2019-05-05T02:18:47Z</time>
      </trkpt>
      <trkpt lat="46.49134" lon="6.11827">
        <ele>1532</ele>
        <time>2019-05-05T02:18:47Z</time>
      </trkpt>
      <trkpt lat="46.49134" lon="6.11827">
        <ele>1532</ele>
        <time>2019-05-05T02:18:47Z</time>
      </trkpt>
      <trkpt lat="46.49134" lon="6.11827">
        <ele>1532</ele>
        <time>2019-05-05T02:18:47Z</time>
      </trkpt>
      <trkpt lat="46.49134" lon="6.11827">
        <ele>1532</ele>
        <time>2019-05-05T02:18:47Z</time>
      </trkpt>
      <trkpt lat="46.49136" lon="6.11825">
        <ele>1532</ele>
        <time>2019-05-05T02:18:49Z</time>
      </trkpt>
      <trkpt lat="46.49139" lon="6.11824">
        <ele>1532</ele>
        <time>2019-05-05T02:18:51Z</time>
      </trkpt>
      <trkpt lat="46.49148" lon="6.11824">
        <ele>1531</ele>
        <time>2019-05-05T02:18:58Z</time>
      </trkpt>
      <trkpt lat="46.4915" lon="6.11825">
        <ele>1531</ele>
        <time>2019-05-05T02:18:59Z</time>
      </trkpt>
      <trkpt lat="46.49151" lon="6.11826">
        <ele>1531</ele>
        <time>2019-05-05T02:19:00Z</time>
      </trkpt>
      <trkpt lat="46.49154" lon="6.11826">
        <ele>1531</ele>
        <time>2019-05-05T02:19:02Z</time>
      </trkpt>
      <trkpt lat="46.49157" lon="6.11827">
        <ele>1531</ele>
        <time>2019-05-05T02:19:05Z</time>
      </trkpt>
      <trkpt lat="46.49158" lon="6.11827">
        <ele>1531</ele>
        <time>2019-05-05T02:19:05Z</time>
      </trkpt>
      <trkpt lat="46.49155" lon="6.11827">
        <ele>1531</ele>
        <time>2019-05-05T02:19:07Z</time>
      </trkpt>
      <trkpt lat="46.49152" lon="6.11828">
        <ele>1531</ele>
        <time>2019-05-05T02:19:09Z</time>
      </trkpt>
      <trkpt lat="46.49148" lon="6.11827">
        <ele>1531</ele>
        <time>2019-05-05T02:19:12Z</time>
      </trkpt>
      <trkpt lat="46.49145" lon="6.11827">
        <ele>1532</ele>
        <time>2019-05-05T02:19:14Z</time>
      </trkpt>
      <trkpt lat="46.49143" lon="6.11827">
        <ele>1532</ele>
        <time>2019-05-05T02:19:16Z</time>
      </trkpt>
      <trkpt lat="46.4914" lon="6.11827">
        <ele>1532</ele>
        <time>2019-05-05T02:19:18Z</time>
      </trkpt>
      <trkpt lat="46.49138" lon="6.11826">
        <ele>1532</ele>
        <time>2019-05-05T02:19:20Z</time>
      </trkpt>
      <trkpt lat="46.49132" lon="6.11827">
        <ele>1532</ele>
        <time>2019-05-05T02:19:24Z</time>
      </trkpt>
      <trkpt lat="46.49131" lon="6.11828">
        <ele>1532</ele>
        <time>2019-05-05T02:19:25Z</time>
      </trkpt>
      <trkpt lat="46.49128" lon="6.11829">
        <ele>1533</ele>
        <time>2019-05-05T02:19:27Z</time>
      </trkpt>
      <trkpt lat="46.49127" lon="6.1183">
        <ele>1533</ele>
        <time>2019-05-05T02:19:28Z</time>
      </trkpt>
      <trkpt lat="46.49121" lon="6.11834">
        <ele>1533</ele>
        <time>2019-05-05T02:19:32Z</time>
      </trkpt>
      <trkpt lat="46.49119" lon="6.11835">
        <ele>1533</ele>
        <time>2019-05-05T02:19:34Z</time>
      </trkpt>
      <trkpt lat="46.49117" lon="6.11835">
        <ele>1533</ele>
        <time>2019-05-05T02:19:35Z</time>
      </trkpt>
      <trkpt lat="46.49117" lon="6.11835">
        <ele>1533</ele>
        <time>2019-05-05T02:19:36Z</time>
      </trkpt>
      <trkpt lat="46.49114" lon="6.11837">
        <ele>1533</ele>
        <time>2019-05-05T02:19:38Z</time>
      </trkpt>
      <trkpt lat="46.49111" lon="6.11838">
        <ele>1534</ele>
        <time>2019-05-05T02:19:41Z</time>
      </trkpt>
      <trkpt lat="46.49102" lon="6.11837">
        <ele>1533</ele>
        <time>2019-05-05T02:19:47Z</time>
      </trkpt>
      <trkpt lat="46.49101" lon="6.11837">
        <ele>1533</ele>
        <time>2019-05-05T02:19:48Z</time>
      </trkpt>
      <trkpt lat="46.49099" lon="6.11836">
        <ele>1533</ele>
        <time>2019-05-05T02:19:49Z</time>
      </trkpt>
      <trkpt lat="46.49093" lon="6.11831">
        <ele>1532</ele>
        <time>2019-05-05T02:19:55Z</time>
      </trkpt>
      <trkpt lat="46.49087" lon="6.11826">
        <ele>1531</ele>
        <time>2019-05-05T02:19:59Z</time>
      </trkpt>
      <trkpt lat="46.49086" lon="6.11826">
        <ele>1531</ele>
        <time>2019-05-05T02:20:00Z</time>
      </trkpt>
      <trkpt lat="46.4908" lon="6.1182">
        <ele>1531</ele>
        <time>2019-05-05T02:20:05Z</time>
      </trkpt>
      <trkpt lat="46.49076" lon="6.11817">
        <ele>1530</ele>
        <time>2019-05-05T02:20:09Z</time>
      </trkpt>
      <trkpt lat="46.49075" lon="6.11816">
        <ele>1530</ele>
        <time>2019-05-05T02:20:09Z</time>
      </trkpt>
      <trkpt lat="46.49067" lon="6.11812">
        <ele>1530</ele>
        <time>2019-05-05T02:20:15Z</time>
      </trkpt>
      <trkpt lat="46.49063" lon="6.11807">
        <ele>1530</ele>
        <time>2019-05-05T02:20:20Z</time>
      </trkpt>
      <trkpt lat="46.4906" lon="6.11807">
        <ele>1529</ele>
        <time>2019-05-05T02:20:21Z</time>
      </trkpt>
      <trkpt lat="46.49051" lon="6.11801">
        <ele>1529</ele>
        <time>2019-05-05T02:20:28Z</time>
      </trkpt>
      <trkpt lat="46.49051" lon="6.11801">
        <ele>1529</ele>
        <time>2019-05-05T02:20:29Z</time>
      </trkpt>
      <trkpt lat="46.49048" lon="6.118">
        <ele>1529</ele>
        <time>2019-05-05T02:20:31Z</time>
      </trkpt>
      <trkpt lat="46.49046" lon="6.11799">
        <ele>1529</ele>
        <time>2019-05-05T02:20:33Z</time>
      </trkpt>
      <trkpt lat="46.49042" lon="6.11797">
        <ele>1528</ele>
        <time>2019-05-05T02:20:35Z</time>
      </trkpt>
      <trkpt lat="46.49038" lon="6.11794">
        <ele>1528</ele>
        <time>2019-05-05T02:20:39Z</time>
      </trkpt>
      <trkpt lat="46.49036" lon="6.11794">
        <ele>1528</ele>
        <time>2019-05-05T02:20:40Z</time>
      </trkpt>
      <trkpt lat="46.49034" lon="6.11794">
        <ele>1528</ele>
        <time>2019-05-05T02:20:42Z</time>
      </trkpt>
      <trkpt lat="46.49032" lon="6.11794">
        <ele>1528</ele>
        <time>2019-05-05T02:20:43Z</time>
      </trkpt>
      <trkpt lat="46.49028" lon="6.11793">
        <ele>1528</ele>
        <time>2019-05-05T02:20:46Z</time>
      </trkpt>
      <trkpt lat="46.49025" lon="6.11794">
        <ele>1528</ele>
        <time>2019-05-05T02:20:48Z</time>
      </trkpt>
      <trkpt lat="46.49022" lon="6.11794">
        <ele>1527</ele>
        <time>2019-05-05T02:20:50Z</time>
      </trkpt>
      <trkpt lat="46.49019" lon="6.11794">
        <ele>1526</ele>
        <time>2019-05-05T02:20:53Z</time>
      </trkpt>
      <trkpt lat="46.49014" lon="6.11791">
        <ele>1526</ele>
        <time>2019-05-05T02:20:57Z</time>
      </trkpt>
      <trkpt lat="46.48998" lon="6.11781">
        <ele>1523</ele>
        <time>2019-05-05T02:21:10Z</time>
      </trkpt>
      <trkpt lat="46.48988" lon="6.11769">
        <ele>1521</ele>
        <time>2019-05-05T02:21:19Z</time>
      </trkpt>
      <trkpt lat="46.48984" lon="6.11763">
        <ele>1521</ele>
        <time>2019-05-05T02:21:23Z</time>
      </trkpt>
      <trkpt lat="46.48983" lon="6.11763">
        <ele>1520</ele>
        <time>2019-05-05T02:21:24Z</time>
      </trkpt>
      <trkpt lat="46.48982" lon="6.11762">
        <ele>1520</ele>
        <time>2019-05-05T02:21:25Z</time>
      </trkpt>
      <trkpt lat="46.48981" lon="6.11761">
        <ele>1520</ele>
        <time>2019-05-05T02:21:25Z</time>
      </trkpt>
      <trkpt lat="46.48981" lon="6.1176">
        <ele>1520</ele>
        <time>2019-05-05T02:21:26Z</time>
      </trkpt>
      <trkpt lat="46.48976" lon="6.11754">
        <ele>1519</ele>
        <time>2019-05-05T02:21:31Z</time>
      </trkpt>
      <trkpt lat="46.48973" lon="6.11746">
        <ele>1519</ele>
        <time>2019-05-05T02:21:35Z</time>
      </trkpt>
      <trkpt lat="46.48972" lon="6.11737">
        <ele>1518</ele>
        <time>2019-05-05T02:21:40Z</time>
      </trkpt>
      <trkpt lat="46.48969" lon="6.11733">
        <ele>1518</ele>
        <time>2019-05-05T02:21:43Z</time>
      </trkpt>
      <trkpt lat="46.48968" lon="6.11732">
        <ele>1518</ele>
        <time>2019-05-05T02:21:44Z</time>
      </trkpt>
      <trkpt lat="46.48958" lon="6.11725">
        <ele>1516</ele>
        <time>2019-05-05T02:21:52Z</time>
      </trkpt>
      <trkpt lat="46.48957" lon="6.11725">
        <ele>1516</ele>
        <time>2019-05-05T02:21:53Z</time>
      </trkpt>
      <trkpt lat="46.48952" lon="6.11723">
        <ele>1516</ele>
        <time>2019-05-05T02:21:56Z</time>
      </trkpt>
      <trkpt lat="46.48943" lon="6.11718">
        <ele>1515</ele>
        <time>2019-05-05T02:22:03Z</time>
      </trkpt>
      <trkpt lat="46.48928" lon="6.11704">
        <ele>1513</ele>
        <time>2019-05-05T02:22:16Z</time>
      </trkpt>
      <trkpt lat="46.48921" lon="6.11697">
        <ele>1512</ele>
        <time>2019-05-05T02:22:22Z</time>
      </trkpt>
      <trkpt lat="46.4892" lon="6.11696">
        <ele>1512</ele>
        <time>2019-05-05T02:22:23Z</time>
      </trkpt>
      <trkpt lat="46.48918" lon="6.11694">
        <ele>1512</ele>
        <time>2019-05-05T02:22:25Z</time>
      </trkpt>
      <trkpt lat="46.48909" lon="6.11686">
        <ele>1511</ele>
        <time>2019-05-05T02:22:33Z</time>
      </trkpt>
      <trkpt lat="46.48898" lon="6.11678">
        <ele>1510</ele>
        <time>2019-05-05T02:22:42Z</time>
      </trkpt>
      <trkpt lat="46.48893" lon="6.11673">
        <ele>1509</ele>
        <time>2019-05-05T02:22:46Z</time>
      </trkpt>
      <trkpt lat="46.48878" lon="6.11662">
        <ele>1509</ele>
        <time>2019-05-05T02:22:58Z</time>
      </trkpt>
      <trkpt lat="46.48875" lon="6.11661">
        <ele>1508</ele>
        <time>2019-05-05T02:23:00Z</time>
      </trkpt>
      <trkpt lat="46.48869" lon="6.11654">
        <ele>1508</ele>
        <time>2019-05-05T02:23:06Z</time>
      </trkpt>
      <trkpt lat="46.48866" lon="6.11649">
        <ele>1509</ele>
        <time>2019-05-05T02:23:09Z</time>
      </trkpt>
      <trkpt lat="46.48863" lon="6.11646">
        <ele>1509</ele>
        <time>2019-05-05T02:23:12Z</time>
      </trkpt>
      <trkpt lat="46.48861" lon="6.11643">
        <ele>1509</ele>
        <time>2019-05-05T02:23:14Z</time>
      </trkpt>
      <trkpt lat="46.48858" lon="6.1164">
        <ele>1509</ele>
        <time>2019-05-05T02:23:16Z</time>
      </trkpt>
      <trkpt lat="46.48854" lon="6.11635">
        <ele>1510</ele>
        <time>2019-05-05T02:23:20Z</time>
      </trkpt>
      <trkpt lat="46.48851" lon="6.11634">
        <ele>1510</ele>
        <time>2019-05-05T02:23:22Z</time>
      </trkpt>
      <trkpt lat="46.4885" lon="6.11633">
        <ele>1510</ele>
        <time>2019-05-05T02:23:24Z</time>
      </trkpt>
      <trkpt lat="46.48848" lon="6.11634">
        <ele>1510</ele>
        <time>2019-05-05T02:23:25Z</time>
      </trkpt>
      <trkpt lat="46.48847" lon="6.11634">
        <ele>1510</ele>
        <time>2019-05-05T02:23:26Z</time>
      </trkpt>
      <trkpt lat="46.48844" lon="6.11631">
        <ele>1510</ele>
        <time>2019-05-05T02:23:28Z</time>
      </trkpt>
      <trkpt lat="46.48844" lon="6.11629">
        <ele>1510</ele>
        <time>2019-05-05T02:23:29Z</time>
      </trkpt>
      <trkpt lat="46.48844" lon="6.11625">
        <ele>1511</ele>
        <time>2019-05-05T02:23:31Z</time>
      </trkpt>
      <trkpt lat="46.48843" lon="6.11619">
        <ele>1511</ele>
        <time>2019-05-05T02:23:35Z</time>
      </trkpt>
      <trkpt lat="46.48842" lon="6.11618">
        <ele>1512</ele>
        <time>2019-05-05T02:23:36Z</time>
      </trkpt>
      <trkpt lat="46.48836" lon="6.11617">
        <ele>1512</ele>
        <time>2019-05-05T02:23:40Z</time>
      </trkpt>
      <trkpt lat="46.4883" lon="6.11611">
        <ele>1512</ele>
        <time>2019-05-05T02:23:45Z</time>
      </trkpt>
      <trkpt lat="46.48818" lon="6.11607">
        <ele>1512</ele>
        <time>2019-05-05T02:23:54Z</time>
      </trkpt>
      <trkpt lat="46.48814" lon="6.11608">
        <ele>1512</ele>
        <time>2019-05-05T02:23:57Z</time>
      </trkpt>
      <trkpt lat="46.48813" lon="6.11607">
        <ele>1512</ele>
        <time>2019-05-05T02:23:58Z</time>
      </trkpt>
      <trkpt lat="46.48806" lon="6.11604">
        <ele>1512</ele>
        <time>2019-05-05T02:24:03Z</time>
      </trkpt>
      <trkpt lat="46.48804" lon="6.11603">
        <ele>1512</ele>
        <time>2019-05-05T02:24:04Z</time>
      </trkpt>
      <trkpt lat="46.48788" lon="6.1159">
        <ele>1512</ele>
        <time>2019-05-05T02:24:18Z</time>
      </trkpt>
      <trkpt lat="46.48787" lon="6.11587">
        <ele>1513</ele>
        <time>2019-05-05T02:24:19Z</time>
      </trkpt>
      <trkpt lat="46.48786" lon="6.11586">
        <ele>1513</ele>
        <time>2019-05-05T02:24:21Z</time>
      </trkpt>
      <trkpt lat="46.4878" lon="6.11584">
        <ele>1513</ele>
        <time>2019-05-05T02:24:25Z</time>
      </trkpt>
      <trkpt lat="46.4878" lon="6.11583">
        <ele>1513</ele>
        <time>2019-05-05T02:24:25Z</time>
      </trkpt>
      <trkpt lat="46.48777" lon="6.11583">
        <ele>1513</ele>
        <time>2019-05-05T02:24:27Z</time>
      </trkpt>
      <trkpt lat="46.48774" lon="6.11583">
        <ele>1513</ele>
        <time>2019-05-05T02:24:29Z</time>
      </trkpt>
      <trkpt lat="46.4877" lon="6.11583">
        <ele>1513</ele>
        <time>2019-05-05T02:24:33Z</time>
      </trkpt>
      <trkpt lat="46.48766" lon="6.11581">
        <ele>1514</ele>
        <time>2019-05-05T02:24:36Z</time>
      </trkpt>
      <trkpt lat="46.48759" lon="6.11579">
        <ele>1516</ele>
        <time>2019-05-05T02:24:41Z</time>
      </trkpt>
      <trkpt lat="46.48753" lon="6.11577">
        <ele>1517</ele>
        <time>2019-05-05T02:24:45Z</time>
      </trkpt>
      <trkpt lat="46.48746" lon="6.11575">
        <ele>1518</ele>
        <time>2019-05-05T02:24:51Z</time>
      </trkpt>
      <trkpt lat="46.48743" lon="6.11573">
        <ele>1519</ele>
        <time>2019-05-05T02:24:53Z</time>
      </trkpt>
      <trkpt lat="46.48736" lon="6.11571">
        <ele>1520</ele>
        <time>2019-05-05T02:24:58Z</time>
      </trkpt>
      <trkpt lat="46.48731" lon="6.1157">
        <ele>1521</ele>
        <time>2019-05-05T02:25:02Z</time>
      </trkpt>
      <trkpt lat="46.48728" lon="6.11567">
        <ele>1522</ele>
        <time>2019-05-05T02:25:05Z</time>
      </trkpt>
      <trkpt lat="46.48726" lon="6.11566">
        <ele>1522</ele>
        <time>2019-05-05T02:25:06Z</time>
      </trkpt>
      <trkpt lat="46.48723" lon="6.11565">
        <ele>1523</ele>
        <time>2019-05-05T02:25:08Z</time>
      </trkpt>
      <trkpt lat="46.48722" lon="6.11565">
        <ele>1523</ele>
        <time>2019-05-05T02:25:09Z</time>
      </trkpt>
      <trkpt lat="46.48706" lon="6.11554">
        <ele>1527</ele>
        <time>2019-05-05T02:25:23Z</time>
      </trkpt>
      <trkpt lat="46.48689" lon="6.11549">
        <ele>1530</ele>
        <time>2019-05-05T02:25:35Z</time>
      </trkpt>
      <trkpt lat="46.48687" lon="6.11549">
        <ele>1530</ele>
        <time>2019-05-05T02:25:36Z</time>
      </trkpt>
      <trkpt lat="46.48671" lon="6.11562">
        <ele>1532</ele>
        <time>2019-05-05T02:25:50Z</time>
      </trkpt>
      <trkpt lat="46.48666" lon="6.11567">
        <ele>1533</ele>
        <time>2019-05-05T02:25:54Z</time>
      </trkpt>
      <trkpt lat="46.48658" lon="6.11572">
        <ele>1534</ele>
        <time>2019-05-05T02:26:00Z</time>
      </trkpt>
      <trkpt lat="46.48657" lon="6.11574">
        <ele>1534</ele>
        <time>2019-05-05T02:26:02Z</time>
      </trkpt>
      <trkpt lat="46.48655" lon="6.11574">
        <ele>1534</ele>
        <time>2019-05-05T02:26:03Z</time>
      </trkpt>
      <trkpt lat="46.48653" lon="6.11574">
        <ele>1534</ele>
        <time>2019-05-05T02:26:04Z</time>
      </trkpt>
      <trkpt lat="46.4865" lon="6.11573">
        <ele>1535</ele>
        <time>2019-05-05T02:26:07Z</time>
      </trkpt>
      <trkpt lat="46.48643" lon="6.11573">
        <ele>1536</ele>
        <time>2019-05-05T02:26:12Z</time>
      </trkpt>
      <trkpt lat="46.48642" lon="6.11573">
        <ele>1537</ele>
        <time>2019-05-05T02:26:13Z</time>
      </trkpt>
      <trkpt lat="46.48641" lon="6.11573">
        <ele>1537</ele>
        <time>2019-05-05T02:26:14Z</time>
      </trkpt>
      <trkpt lat="46.48639" lon="6.11574">
        <ele>1537</ele>
        <time>2019-05-05T02:26:15Z</time>
      </trkpt>
      <trkpt lat="46.48638" lon="6.11574">
        <ele>1537</ele>
        <time>2019-05-05T02:26:16Z</time>
      </trkpt>
      <trkpt lat="46.48637" lon="6.11575">
        <ele>1537</ele>
        <time>2019-05-05T02:26:17Z</time>
      </trkpt>
      <trkpt lat="46.48637" lon="6.11574">
        <ele>1537</ele>
        <time>2019-05-05T02:26:17Z</time>
      </trkpt>
      <trkpt lat="46.48635" lon="6.11574">
        <ele>1538</ele>
        <time>2019-05-05T02:26:18Z</time>
      </trkpt>
      <trkpt lat="46.48634" lon="6.11574">
        <ele>1538</ele>
        <time>2019-05-05T02:26:19Z</time>
      </trkpt>
      <trkpt lat="46.48632" lon="6.11572">
        <ele>1538</ele>
        <time>2019-05-05T02:26:21Z</time>
      </trkpt>
      <trkpt lat="46.4863" lon="6.11574">
        <ele>1539</ele>
        <time>2019-05-05T02:26:23Z</time>
      </trkpt>
      <trkpt lat="46.48628" lon="6.1158">
        <ele>1538</ele>
        <time>2019-05-05T02:26:26Z</time>
      </trkpt>
      <trkpt lat="46.48627" lon="6.11584">
        <ele>1538</ele>
        <time>2019-05-05T02:26:28Z</time>
      </trkpt>
      <trkpt lat="46.48626" lon="6.11587">
        <ele>1538</ele>
        <time>2019-05-05T02:26:30Z</time>
      </trkpt>
      <trkpt lat="46.48626" lon="6.11588">
        <ele>1538</ele>
        <time>2019-05-05T02:26:30Z</time>
      </trkpt>
      <trkpt lat="46.48621" lon="6.11589">
        <ele>1538</ele>
        <time>2019-05-05T02:26:34Z</time>
      </trkpt>
      <trkpt lat="46.48616" lon="6.11592">
        <ele>1539</ele>
        <time>2019-05-05T02:26:38Z</time>
      </trkpt>
      <trkpt lat="46.48612" lon="6.11593">
        <ele>1539</ele>
        <time>2019-05-05T02:26:41Z</time>
      </trkpt>
      <trkpt lat="46.48596" lon="6.11602">
        <ele>1541</ele>
        <time>2019-05-05T02:26:54Z</time>
      </trkpt>
      <trkpt lat="46.48592" lon="6.11605">
        <ele>1541</ele>
        <time>2019-05-05T02:26:56Z</time>
      </trkpt>
      <trkpt lat="46.48591" lon="6.11606">
        <ele>1541</ele>
        <time>2019-05-05T02:26:57Z</time>
      </trkpt>
      <trkpt lat="46.48589" lon="6.11608">
        <ele>1541</ele>
        <time>2019-05-05T02:26:59Z</time>
      </trkpt>
      <trkpt lat="46.48571" lon="6.11608">
        <ele>1543</ele>
        <time>2019-05-05T02:27:12Z</time>
      </trkpt>
      <trkpt lat="46.48567" lon="6.11606">
        <ele>1544</ele>
        <time>2019-05-05T02:27:15Z</time>
      </trkpt>
      <trkpt lat="46.4856" lon="6.11601">
        <ele>1545</ele>
        <time>2019-05-05T02:27:21Z</time>
      </trkpt>
      <trkpt lat="46.4855" lon="6.11594">
        <ele>1547</ele>
        <time>2019-05-05T02:27:29Z</time>
      </trkpt>
      <trkpt lat="46.48549" lon="6.11594">
        <ele>1547</ele>
        <time>2019-05-05T02:27:30Z</time>
      </trkpt>
      <trkpt lat="46.48548" lon="6.1159">
        <ele>1547</ele>
        <time>2019-05-05T02:27:32Z</time>
      </trkpt>
      <trkpt lat="46.48545" lon="6.11583">
        <ele>1548</ele>
        <time>2019-05-05T02:27:36Z</time>
      </trkpt>
      <trkpt lat="46.48545" lon="6.11582">
        <ele>1548</ele>
        <time>2019-05-05T02:27:36Z</time>
      </trkpt>
      <trkpt lat="46.48543" lon="6.11578">
        <ele>1548</ele>
        <time>2019-05-05T02:27:39Z</time>
      </trkpt>
      <trkpt lat="46.4854" lon="6.11572">
        <ele>1549</ele>
        <time>2019-05-05T02:27:43Z</time>
      </trkpt>
      <trkpt lat="46.48539" lon="6.11572">
        <ele>1549</ele>
        <time>2019-05-05T02:27:43Z</time>
      </trkpt>
      <trkpt lat="46.48537" lon="6.1157">
        <ele>1549</ele>
        <time>2019-05-05T02:27:45Z</time>
      </trkpt>
      <trkpt lat="46.48532" lon="6.11567">
        <ele>1549</ele>
        <time>2019-05-05T02:27:49Z</time>
      </trkpt>
      <trkpt lat="46.48527" lon="6.11565">
        <ele>1550</ele>
        <time>2019-05-05T02:27:53Z</time>
      </trkpt>
      <trkpt lat="46.48523" lon="6.11562">
        <ele>1550</ele>
        <time>2019-05-05T02:27:56Z</time>
      </trkpt>
      <trkpt lat="46.48521" lon="6.1156">
        <ele>1550</ele>
        <time>2019-05-05T02:27:57Z</time>
      </trkpt>
      <trkpt lat="46.48518" lon="6.11559">
        <ele>1550</ele>
        <time>2019-05-05T02:28:00Z</time>
      </trkpt>
      <trkpt lat="46.48516" lon="6.11558">
        <ele>1550</ele>
        <time>2019-05-05T02:28:01Z</time>
      </trkpt>
      <trkpt lat="46.48513" lon="6.11559">
        <ele>1550</ele>
        <time>2019-05-05T02:28:04Z</time>
      </trkpt>
      <trkpt lat="46.48511" lon="6.11558">
        <ele>1550</ele>
        <time>2019-05-05T02:28:05Z</time>
      </trkpt>
      <trkpt lat="46.4851" lon="6.11558">
        <ele>1550</ele>
        <time>2019-05-05T02:28:06Z</time>
      </trkpt>
      <trkpt lat="46.48507" lon="6.11556">
        <ele>1550</ele>
        <time>2019-05-05T02:28:09Z</time>
      </trkpt>
      <trkpt lat="46.48505" lon="6.11554">
        <ele>1550</ele>
        <time>2019-05-05T02:28:10Z</time>
      </trkpt>
      <trkpt lat="46.48505" lon="6.11554">
        <ele>1550</ele>
        <time>2019-05-05T02:28:10Z</time>
      </trkpt>
      <trkpt lat="46.485" lon="6.1155">
        <ele>1550</ele>
        <time>2019-05-05T02:28:14Z</time>
      </trkpt>
      <trkpt lat="46.485" lon="6.1155">
        <ele>1550</ele>
        <time>2019-05-05T02:28:15Z</time>
      </trkpt>
      <trkpt lat="46.48495" lon="6.11547">
        <ele>1550</ele>
        <time>2019-05-05T02:28:18Z</time>
      </trkpt>
      <trkpt lat="46.48493" lon="6.11545">
        <ele>1550</ele>
        <time>2019-05-05T02:28:20Z</time>
      </trkpt>
      <trkpt lat="46.48491" lon="6.11542">
        <ele>1550</ele>
        <time>2019-05-05T02:28:22Z</time>
      </trkpt>
      <trkpt lat="46.48488" lon="6.11542">
        <ele>1550</ele>
        <time>2019-05-05T02:28:24Z</time>
      </trkpt>
      <trkpt lat="46.48486" lon="6.11538">
        <ele>1550</ele>
        <time>2019-05-05T02:28:26Z</time>
      </trkpt>
      <trkpt lat="46.48485" lon="6.11536">
        <ele>1550</ele>
        <time>2019-05-05T02:28:28Z</time>
      </trkpt>
      <trkpt lat="46.48481" lon="6.11534">
        <ele>1550</ele>
        <time>2019-05-05T02:28:30Z</time>
      </trkpt>
      <trkpt lat="46.48481" lon="6.11533">
        <ele>1550</ele>
        <time>2019-05-05T02:28:31Z</time>
      </trkpt>
      <trkpt lat="46.4848" lon="6.11533">
        <ele>1550</ele>
        <time>2019-05-05T02:28:32Z</time>
      </trkpt>
      <trkpt lat="46.48479" lon="6.11532">
        <ele>1550</ele>
        <time>2019-05-05T02:28:32Z</time>
      </trkpt>
      <trkpt lat="46.48469" lon="6.11529">
        <ele>1550</ele>
        <time>2019-05-05T02:28:39Z</time>
      </trkpt>
      <trkpt lat="46.48468" lon="6.11528">
        <ele>1550</ele>
        <time>2019-05-05T02:28:40Z</time>
      </trkpt>
      <trkpt lat="46.48467" lon="6.1153">
        <ele>1550</ele>
        <time>2019-05-05T02:28:41Z</time>
      </trkpt>
      <trkpt lat="46.48468" lon="6.11528">
        <ele>1550</ele>
        <time>2019-05-05T02:28:43Z</time>
      </trkpt>
      <trkpt lat="46.48465" lon="6.11525">
        <ele>1550</ele>
        <time>2019-05-05T02:28:45Z</time>
      </trkpt>
      <trkpt lat="46.48463" lon="6.1152">
        <ele>1550</ele>
        <time>2019-05-05T02:28:49Z</time>
      </trkpt>
      <trkpt lat="46.48462" lon="6.11519">
        <ele>1550</ele>
        <time>2019-05-05T02:28:49Z</time>
      </trkpt>
      <trkpt lat="46.4846" lon="6.11517">
        <ele>1550</ele>
        <time>2019-05-05T02:28:51Z</time>
      </trkpt>
      <trkpt lat="46.4846" lon="6.11511">
        <ele>1549</ele>
        <time>2019-05-05T02:28:54Z</time>
      </trkpt>
      <trkpt lat="46.4846" lon="6.11508">
        <ele>1549</ele>
        <time>2019-05-05T02:28:55Z</time>
      </trkpt>
      <trkpt lat="46.48456" lon="6.11499">
        <ele>1548</ele>
        <time>2019-05-05T02:29:01Z</time>
      </trkpt>
      <trkpt lat="46.48454" lon="6.11498">
        <ele>1548</ele>
        <time>2019-05-05T02:29:02Z</time>
      </trkpt>
      <trkpt lat="46.48448" lon="6.11499">
        <ele>1548</ele>
        <time>2019-05-05T02:29:07Z</time>
      </trkpt>
      <trkpt lat="46.48447" lon="6.11499">
        <ele>1548</ele>
        <time>2019-05-05T02:29:08Z</time>
      </trkpt>
      <trkpt lat="46.4843" lon="6.1151">
        <ele>1547</ele>
        <time>2019-05-05T02:29:21Z</time>
      </trkpt>
      <trkpt lat="46.48426" lon="6.1151">
        <ele>1546</ele>
        <time>2019-05-05T02:29:24Z</time>
      </trkpt>
      <trkpt lat="46.48417" lon="6.11504">
        <ele>1544</ele>
        <time>2019-05-05T02:29:31Z</time>
      </trkpt>
      <trkpt lat="46.4841" lon="6.11493">
        <ele>1541</ele>
        <time>2019-05-05T02:29:39Z</time>
      </trkpt>
      <trkpt lat="46.48406" lon="6.11487">
        <ele>1540</ele>
        <time>2019-05-05T02:29:43Z</time>
      </trkpt>
      <trkpt lat="46.48404" lon="6.11483">
        <ele>1539</ele>
        <time>2019-05-05T02:29:46Z</time>
      </trkpt>
      <trkpt lat="46.48402" lon="6.11479">
        <ele>1539</ele>
        <time>2019-05-05T02:29:48Z</time>
      </trkpt>
      <trkpt lat="46.48401" lon="6.11478">
        <ele>1538</ele>
        <time>2019-05-05T02:29:49Z</time>
      </trkpt>
      <trkpt lat="46.48401" lon="6.11477">
        <ele>1538</ele>
        <time>2019-05-05T02:29:50Z</time>
      </trkpt>
      <trkpt lat="46.484" lon="6.11476">
        <ele>1538</ele>
        <time>2019-05-05T02:29:50Z</time>
      </trkpt>
      <trkpt lat="46.48397" lon="6.11473">
        <ele>1538</ele>
        <time>2019-05-05T02:29:53Z</time>
      </trkpt>
      <trkpt lat="46.48396" lon="6.11472">
        <ele>1537</ele>
        <time>2019-05-05T02:29:54Z</time>
      </trkpt>
      <trkpt lat="46.48394" lon="6.11472">
        <ele>1537</ele>
        <time>2019-05-05T02:29:55Z</time>
      </trkpt>
      <trkpt lat="46.48393" lon="6.11473">
        <ele>1537</ele>
        <time>2019-05-05T02:29:56Z</time>
      </trkpt>
      <trkpt lat="46.48389" lon="6.11472">
        <ele>1536</ele>
        <time>2019-05-05T02:29:59Z</time>
      </trkpt>
      <trkpt lat="46.48386" lon="6.11471">
        <ele>1536</ele>
        <time>2019-05-05T02:30:01Z</time>
      </trkpt>
      <trkpt lat="46.48382" lon="6.11469">
        <ele>1535</ele>
        <time>2019-05-05T02:30:05Z</time>
      </trkpt>
      <trkpt lat="46.48365" lon="6.11458">
        <ele>1532</ele>
        <time>2019-05-05T02:30:18Z</time>
      </trkpt>
      <trkpt lat="46.48364" lon="6.11449">
        <ele>1531</ele>
        <time>2019-05-05T02:30:23Z</time>
      </trkpt>
      <trkpt lat="46.48363" lon="6.11447">
        <ele>1531</ele>
        <time>2019-05-05T02:30:24Z</time>
      </trkpt>
      <trkpt lat="46.48362" lon="6.11445">
        <ele>1531</ele>
        <time>2019-05-05T02:30:25Z</time>
      </trkpt>
      <trkpt lat="46.48358" lon="6.11441">
        <ele>1530</ele>
        <time>2019-05-05T02:30:28Z</time>
      </trkpt>
      <trkpt lat="46.48352" lon="6.11422">
        <ele>1528</ele>
        <time>2019-05-05T02:30:39Z</time>
      </trkpt>
      <trkpt lat="46.48351" lon="6.11416">
        <ele>1528</ele>
        <time>2019-05-05T02:30:42Z</time>
      </trkpt>
      <trkpt lat="46.4835" lon="6.11411">
        <ele>1527</ele>
        <time>2019-05-05T02:30:45Z</time>
      </trkpt>
      <trkpt lat="46.48348" lon="6.11405">
        <ele>1527</ele>
        <time>2019-05-05T02:30:48Z</time>
      </trkpt>
      <trkpt lat="46.48346" lon="6.11397">
        <ele>1527</ele>
        <time>2019-05-05T02:30:52Z</time>
      </trkpt>
      <trkpt lat="46.48343" lon="6.11393">
        <ele>1526</ele>
        <time>2019-05-05T02:30:55Z</time>
      </trkpt>
      <trkpt lat="46.48342" lon="6.1139">
        <ele>1526</ele>
        <time>2019-05-05T02:30:57Z</time>
      </trkpt>
      <trkpt lat="46.48337" lon="6.11378">
        <ele>1525</ele>
        <time>2019-05-05T02:31:04Z</time>
      </trkpt>
      <trkpt lat="46.48333" lon="6.11375">
        <ele>1525</ele>
        <time>2019-05-05T02:31:07Z</time>
      </trkpt>
      <trkpt lat="46.48331" lon="6.11374">
        <ele>1525</ele>
        <time>2019-05-05T02:31:09Z</time>
      </trkpt>
      <trkpt lat="46.48326" lon="6.1137">
        <ele>1525</ele>
        <time>2019-05-05T02:31:13Z</time>
      </trkpt>
      <trkpt lat="46.48323" lon="6.11366">
        <ele>1525</ele>
        <time>2019-05-05T02:31:16Z</time>
      </trkpt>
      <trkpt lat="46.48323" lon="6.11364">
        <ele>1525</ele>
        <time>2019-05-05T02:31:17Z</time>
      </trkpt>
      <trkpt lat="46.48321" lon="6.1136">
        <ele>1525</ele>
        <time>2019-05-05T02:31:19Z</time>
      </trkpt>
      <trkpt lat="46.48317" lon="6.11356">
        <ele>1525</ele>
        <time>2019-05-05T02:31:23Z</time>
      </trkpt>
      <trkpt lat="46.48308" lon="6.11353">
        <ele>1525</ele>
        <time>2019-05-05T02:31:30Z</time>
      </trkpt>
      <trkpt lat="46.483" lon="6.11355">
        <ele>1524</ele>
        <time>2019-05-05T02:31:35Z</time>
      </trkpt>
      <trkpt lat="46.48299" lon="6.11355">
        <ele>1524</ele>
        <time>2019-05-05T02:31:36Z</time>
      </trkpt>
      <trkpt lat="46.48298" lon="6.11356">
        <ele>1524</ele>
        <time>2019-05-05T02:31:37Z</time>
      </trkpt>
      <trkpt lat="46.48297" lon="6.11355">
        <ele>1524</ele>
        <time>2019-05-05T02:31:37Z</time>
      </trkpt>
      <trkpt lat="46.48295" lon="6.11354">
        <ele>1524</ele>
        <time>2019-05-05T02:31:39Z</time>
      </trkpt>
      <trkpt lat="46.48292" lon="6.11355">
        <ele>1524</ele>
        <time>2019-05-05T02:31:41Z</time>
      </trkpt>
      <trkpt lat="46.4829" lon="6.11354">
        <ele>1524</ele>
        <time>2019-05-05T02:31:43Z</time>
      </trkpt>
      <trkpt lat="46.48283" lon="6.1135">
        <ele>1524</ele>
        <time>2019-05-05T02:31:48Z</time>
      </trkpt>
      <trkpt lat="46.48278" lon="6.11349">
        <ele>1525</ele>
        <time>2019-05-05T02:31:52Z</time>
      </trkpt>
      <trkpt lat="46.48277" lon="6.11348">
        <ele>1525</ele>
        <time>2019-05-05T02:31:52Z</time>
      </trkpt>
      <trkpt lat="46.48275" lon="6.11348">
        <ele>1525</ele>
        <time>2019-05-05T02:31:54Z</time>
      </trkpt>
      <trkpt lat="46.48269" lon="6.11342">
        <ele>1524</ele>
        <time>2019-05-05T02:31:59Z</time>
      </trkpt>
      <trkpt lat="46.48269" lon="6.11339">
        <ele>1524</ele>
        <time>2019-05-05T02:32:01Z</time>
      </trkpt>
      <trkpt lat="46.48268" lon="6.11338">
        <ele>1524</ele>
        <time>2019-05-05T02:32:02Z</time>
      </trkpt>
      <trkpt lat="46.48267" lon="6.11335">
        <ele>1525</ele>
        <time>2019-05-05T02:32:03Z</time>
      </trkpt>
      <trkpt lat="46.48267" lon="6.11326">
        <ele>1526</ele>
        <time>2019-05-05T02:32:08Z</time>
      </trkpt>
      <trkpt lat="46.48267" lon="6.11323">
        <ele>1526</ele>
        <time>2019-05-05T02:32:09Z</time>
      </trkpt>
      <trkpt lat="46.48268" lon="6.11321">
        <ele>1527</ele>
        <time>2019-05-05T02:32:10Z</time>
      </trkpt>
      <trkpt lat="46.48268" lon="6.11314">
        <ele>1528</ele>
        <time>2019-05-05T02:32:14Z</time>
      </trkpt>
      <trkpt lat="46.48266" lon="6.11304">
        <ele>1529</ele>
        <time>2019-05-05T02:32:19Z</time>
      </trkpt>
      <trkpt lat="46.48265" lon="6.11302">
        <ele>1529</ele>
        <time>2019-05-05T02:32:20Z</time>
      </trkpt>
      <trkpt lat="46.48259" lon="6.11292">
        <ele>1529</ele>
        <time>2019-05-05T02:32:27Z</time>
      </trkpt>
      <trkpt lat="46.48254" lon="6.11286">
        <ele>1529</ele>
        <time>2019-05-05T02:32:32Z</time>
      </trkpt>
      <trkpt lat="46.4825" lon="6.11278">
        <ele>1529</ele>
        <time>2019-05-05T02:32:37Z</time>
      </trkpt>
      <trkpt lat="46.48242" lon="6.11256">
        <ele>1530</ele>
        <time>2019-05-05T02:32:49Z</time>
      </trkpt>
      <trkpt lat="46.48241" lon="6.11254">
        <ele>1530</ele>
        <time>2019-05-05T02:32:50Z</time>
      </trkpt>
      <trkpt lat="46.48239" lon="6.1125">
        <ele>1530</ele>
        <time>2019-05-05T02:32:53Z</time>
      </trkpt>
      <trkpt lat="46.48237" lon="6.11248">
        <ele>1529</ele>
        <time>2019-05-05T02:32:55Z</time>
      </trkpt>
      <trkpt lat="46.48238" lon="6.11241">
        <ele>1530</ele>
        <time>2019-05-05T02:32:58Z</time>
      </trkpt>
      <trkpt lat="46.48239" lon="6.11238">
        <ele>1530</ele>
        <time>2019-05-05T02:33:00Z</time>
      </trkpt>
      <trkpt lat="46.4824" lon="6.11235">
        <ele>1531</ele>
        <time>2019-05-05T02:33:01Z</time>
      </trkpt>
      <trkpt lat="46.48239" lon="6.11228">
        <ele>1531</ele>
        <time>2019-05-05T02:33:05Z</time>
      </trkpt>
      <trkpt lat="46.48235" lon="6.11201">
        <ele>1532</ele>
        <time>2019-05-05T02:33:19Z</time>
      </trkpt>
      <trkpt lat="46.48234" lon="6.11196">
        <ele>1533</ele>
        <time>2019-05-05T02:33:22Z</time>
      </trkpt>
      <trkpt lat="46.48233" lon="6.11191">
        <ele>1533</ele>
        <time>2019-05-05T02:33:24Z</time>
      </trkpt>
      <trkpt lat="46.48229" lon="6.11165">
        <ele>1533</ele>
        <time>2019-05-05T02:33:38Z</time>
      </trkpt>
      <trkpt lat="46.48227" lon="6.11137">
        <ele>1533</ele>
        <time>2019-05-05T02:33:52Z</time>
      </trkpt>
      <trkpt lat="46.48228" lon="6.11133">
        <ele>1533</ele>
        <time>2019-05-05T02:33:53Z</time>
      </trkpt>
      <trkpt lat="46.4823" lon="6.1112">
        <ele>1533</ele>
        <time>2019-05-05T02:34:00Z</time>
      </trkpt>
      <trkpt lat="46.4823" lon="6.11118">
        <ele>1533</ele>
        <time>2019-05-05T02:34:01Z</time>
      </trkpt>
      <trkpt lat="46.48235" lon="6.11091">
        <ele>1532</ele>
        <time>2019-05-05T02:34:15Z</time>
      </trkpt>
      <trkpt lat="46.48243" lon="6.11068">
        <ele>1531</ele>
        <time>2019-05-05T02:34:28Z</time>
      </trkpt>
      <trkpt lat="46.48246" lon="6.11062">
        <ele>1531</ele>
        <time>2019-05-05T02:34:32Z</time>
      </trkpt>
      <trkpt lat="46.48247" lon="6.11059">
        <ele>1531</ele>
        <time>2019-05-05T02:34:34Z</time>
      </trkpt>
      <trkpt lat="46.48248" lon="6.11055">
        <ele>1530</ele>
        <time>2019-05-05T02:34:35Z</time>
      </trkpt>
      <trkpt lat="46.48248" lon="6.11047">
        <ele>1530</ele>
        <time>2019-05-05T02:34:40Z</time>
      </trkpt>
      <trkpt lat="46.48249" lon="6.11037">
        <ele>1529</ele>
        <time>2019-05-05T02:34:45Z</time>
      </trkpt>
      <trkpt lat="46.4825" lon="6.11021">
        <ele>1528</ele>
        <time>2019-05-05T02:34:52Z</time>
      </trkpt>
      <trkpt lat="46.48249" lon="6.11017">
        <ele>1528</ele>
        <time>2019-05-05T02:34:55Z</time>
      </trkpt>
      <trkpt lat="46.48248" lon="6.11013">
        <ele>1527</ele>
        <time>2019-05-05T02:34:57Z</time>
      </trkpt>
      <trkpt lat="46.48248" lon="6.11007">
        <ele>1527</ele>
        <time>2019-05-05T02:35:00Z</time>
      </trkpt>
      <trkpt lat="46.48244" lon="6.10998">
        <ele>1525</ele>
        <time>2019-05-05T02:35:05Z</time>
      </trkpt>
      <trkpt lat="46.48231" lon="6.10977">
        <ele>1521</ele>
        <time>2019-05-05T02:35:19Z</time>
      </trkpt>
      <trkpt lat="46.48228" lon="6.10971">
        <ele>1520</ele>
        <time>2019-05-05T02:35:23Z</time>
      </trkpt>
      <trkpt lat="46.48223" lon="6.10966">
        <ele>1519</ele>
        <time>2019-05-05T02:35:28Z</time>
      </trkpt>
      <trkpt lat="46.48218" lon="6.10962">
        <ele>1518</ele>
        <time>2019-05-05T02:35:32Z</time>
      </trkpt>
      <trkpt lat="46.48216" lon="6.1096">
        <ele>1518</ele>
        <time>2019-05-05T02:35:34Z</time>
      </trkpt>
      <trkpt lat="46.48214" lon="6.10959">
        <ele>1518</ele>
        <time>2019-05-05T02:35:35Z</time>
      </trkpt>
      <trkpt lat="46.48201" lon="6.10952">
        <ele>1516</ele>
        <time>2019-05-05T02:35:45Z</time>
      </trkpt>
      <trkpt lat="46.48197" lon="6.10949">
        <ele>1515</ele>
        <time>2019-05-05T02:35:49Z</time>
      </trkpt>
      <trkpt lat="46.48194" lon="6.10946">
        <ele>1515</ele>
        <time>2019-05-05T02:35:51Z</time>
      </trkpt>
      <trkpt lat="46.48192" lon="6.10942">
        <ele>1514</ele>
        <time>2019-05-05T02:35:54Z</time>
      </trkpt>
      <trkpt lat="46.48185" lon="6.10937">
        <ele>1512</ele>
        <time>2019-05-05T02:36:00Z</time>
      </trkpt>
      <trkpt lat="46.48182" lon="6.10935">
        <ele>1512</ele>
        <time>2019-05-05T02:36:02Z</time>
      </trkpt>
      <trkpt lat="46.4818" lon="6.10933">
        <ele>1511</ele>
        <time>2019-05-05T02:36:04Z</time>
      </trkpt>
      <trkpt lat="46.48175" lon="6.1093">
        <ele>1510</ele>
        <time>2019-05-05T02:36:08Z</time>
      </trkpt>
      <trkpt lat="46.48173" lon="6.10929">
        <ele>1509</ele>
        <time>2019-05-05T02:36:10Z</time>
      </trkpt>
      <trkpt lat="46.4817" lon="6.10927">
        <ele>1509</ele>
        <time>2019-05-05T02:36:12Z</time>
      </trkpt>
      <trkpt lat="46.48167" lon="6.10926">
        <ele>1508</ele>
        <time>2019-05-05T02:36:14Z</time>
      </trkpt>
      <trkpt lat="46.48164" lon="6.10924">
        <ele>1507</ele>
        <time>2019-05-05T02:36:17Z</time>
      </trkpt>
      <trkpt lat="46.48162" lon="6.10922">
        <ele>1507</ele>
        <time>2019-05-05T02:36:19Z</time>
      </trkpt>
      <trkpt lat="46.48159" lon="6.1092">
        <ele>1506</ele>
        <time>2019-05-05T02:36:21Z</time>
      </trkpt>
      <trkpt lat="46.48151" lon="6.10915">
        <ele>1504</ele>
        <time>2019-05-05T02:36:27Z</time>
      </trkpt>
      <trkpt lat="46.48147" lon="6.10913">
        <ele>1503</ele>
        <time>2019-05-05T02:36:30Z</time>
      </trkpt>
      <trkpt lat="46.48144" lon="6.1091">
        <ele>1503</ele>
        <time>2019-05-05T02:36:33Z</time>
      </trkpt>
      <trkpt lat="46.4814" lon="6.10908">
        <ele>1502</ele>
        <time>2019-05-05T02:36:36Z</time>
      </trkpt>
      <trkpt lat="46.48138" lon="6.10905">
        <ele>1501</ele>
        <time>2019-05-05T02:36:38Z</time>
      </trkpt>
      <trkpt lat="46.48137" lon="6.10905">
        <ele>1501</ele>
        <time>2019-05-05T02:36:39Z</time>
      </trkpt>
      <trkpt lat="46.48127" lon="6.10899">
        <ele>1499</ele>
        <time>2019-05-05T02:36:47Z</time>
      </trkpt>
      <trkpt lat="46.48121" lon="6.10898">
        <ele>1498</ele>
        <time>2019-05-05T02:36:52Z</time>
      </trkpt>
      <trkpt lat="46.48116" lon="6.10896">
        <ele>1498</ele>
        <time>2019-05-05T02:36:55Z</time>
      </trkpt>
      <trkpt lat="46.48114" lon="6.10894">
        <ele>1497</ele>
        <time>2019-05-05T02:36:57Z</time>
      </trkpt>
      <trkpt lat="46.48102" lon="6.10884">
        <ele>1495</ele>
        <time>2019-05-05T02:37:07Z</time>
      </trkpt>
      <trkpt lat="46.48098" lon="6.1088">
        <ele>1494</ele>
        <time>2019-05-05T02:37:10Z</time>
      </trkpt>
      <trkpt lat="46.48093" lon="6.10874">
        <ele>1493</ele>
        <time>2019-05-05T02:37:15Z</time>
      </trkpt>
      <trkpt lat="46.48087" lon="6.10868">
        <ele>1491</ele>
        <time>2019-05-05T02:37:20Z</time>
      </trkpt>
      <trkpt lat="46.48073" lon="6.10849">
        <ele>1489</ele>
        <time>2019-05-05T02:37:34Z</time>
      </trkpt>
      <trkpt lat="46.48072" lon="6.10847">
        <ele>1489</ele>
        <time>2019-05-05T02:37:36Z</time>
      </trkpt>
      <trkpt lat="46.4806" lon="6.10834">
        <ele>1487</ele>
        <time>2019-05-05T02:37:46Z</time>
      </trkpt>
      <trkpt lat="46.48057" lon="6.10829">
        <ele>1487</ele>
        <time>2019-05-05T02:37:50Z</time>
      </trkpt>
      <trkpt lat="46.48054" lon="6.10824">
        <ele>1486</ele>
        <time>2019-05-05T02:37:53Z</time>
      </trkpt>
      <trkpt lat="46.48048" lon="6.108">
        <ele>1484</ele>
        <time>2019-05-05T02:38:06Z</time>
      </trkpt>
      <trkpt lat="46.48047" lon="6.10794">
        <ele>1484</ele>
        <time>2019-05-05T02:38:09Z</time>
      </trkpt>
      <trkpt lat="46.48047" lon="6.10788">
        <ele>1483</ele>
        <time>2019-05-05T02:38:12Z</time>
      </trkpt>
      <trkpt lat="46.48046" lon="6.10783">
        <ele>1483</ele>
        <time>2019-05-05T02:38:15Z</time>
      </trkpt>
      <trkpt lat="46.48043" lon="6.1077">
        <ele>1482</ele>
        <time>2019-05-05T02:38:22Z</time>
      </trkpt>
      <trkpt lat="46.48038" lon="6.10762">
        <ele>1481</ele>
        <time>2019-05-05T02:38:27Z</time>
      </trkpt>
      <trkpt lat="46.48036" lon="6.10756">
        <ele>1480</ele>
        <time>2019-05-05T02:38:30Z</time>
      </trkpt>
      <trkpt lat="46.48033" lon="6.10747">
        <ele>1479</ele>
        <time>2019-05-05T02:38:36Z</time>
      </trkpt>
      <trkpt lat="46.48029" lon="6.10738">
        <ele>1477</ele>
        <time>2019-05-05T02:38:41Z</time>
      </trkpt>
      <trkpt lat="46.48022" lon="6.10716">
        <ele>1473</ele>
        <time>2019-05-05T02:38:53Z</time>
      </trkpt>
      <trkpt lat="46.48018" lon="6.1071">
        <ele>1472</ele>
        <time>2019-05-05T02:38:57Z</time>
      </trkpt>
      <trkpt lat="46.48014" lon="6.10702">
        <ele>1471</ele>
        <time>2019-05-05T02:39:02Z</time>
      </trkpt>
      <trkpt lat="46.48007" lon="6.10695">
        <ele>1469</ele>
        <time>2019-05-05T02:39:09Z</time>
      </trkpt>
      <trkpt lat="46.47995" lon="6.10682">
        <ele>1466</ele>
        <time>2019-05-05T02:39:19Z</time>
      </trkpt>
      <trkpt lat="46.47989" lon="6.10672">
        <ele>1464</ele>
        <time>2019-05-05T02:39:27Z</time>
      </trkpt>
      <trkpt lat="46.47985" lon="6.10663">
        <ele>1462</ele>
        <time>2019-05-05T02:39:32Z</time>
      </trkpt>
      <trkpt lat="46.47983" lon="6.1066">
        <ele>1461</ele>
        <time>2019-05-05T02:39:34Z</time>
      </trkpt>
      <trkpt lat="46.47979" lon="6.10654">
        <ele>1460</ele>
        <time>2019-05-05T02:39:38Z</time>
      </trkpt>
      <trkpt lat="46.47974" lon="6.10647">
        <ele>1459</ele>
        <time>2019-05-05T02:39:43Z</time>
      </trkpt>
      <trkpt lat="46.47969" lon="6.1064">
        <ele>1458</ele>
        <time>2019-05-05T02:39:49Z</time>
      </trkpt>
      <trkpt lat="46.47966" lon="6.10636">
        <ele>1457</ele>
        <time>2019-05-05T02:39:51Z</time>
      </trkpt>
      <trkpt lat="46.47964" lon="6.10632">
        <ele>1456</ele>
        <time>2019-05-05T02:39:54Z</time>
      </trkpt>
      <trkpt lat="46.47958" lon="6.10622">
        <ele>1455</ele>
        <time>2019-05-05T02:40:01Z</time>
      </trkpt>
      <trkpt lat="46.47955" lon="6.10618">
        <ele>1454</ele>
        <time>2019-05-05T02:40:04Z</time>
      </trkpt>
      <trkpt lat="46.47952" lon="6.10614">
        <ele>1454</ele>
        <time>2019-05-05T02:40:07Z</time>
      </trkpt>
      <trkpt lat="46.47947" lon="6.10609">
        <ele>1453</ele>
        <time>2019-05-05T02:40:11Z</time>
      </trkpt>
      <trkpt lat="46.47944" lon="6.10606">
        <ele>1453</ele>
        <time>2019-05-05T02:40:14Z</time>
      </trkpt>
      <trkpt lat="46.47939" lon="6.10601">
        <ele>1451</ele>
        <time>2019-05-05T02:40:18Z</time>
      </trkpt>
      <trkpt lat="46.47936" lon="6.10598">
        <ele>1450</ele>
        <time>2019-05-05T02:40:21Z</time>
      </trkpt>
      <trkpt lat="46.4793" lon="6.10596">
        <ele>1449</ele>
        <time>2019-05-05T02:40:25Z</time>
      </trkpt>
      <trkpt lat="46.47927" lon="6.10594">
        <ele>1448</ele>
        <time>2019-05-05T02:40:28Z</time>
      </trkpt>
      <trkpt lat="46.47923" lon="6.10592">
        <ele>1447</ele>
        <time>2019-05-05T02:40:31Z</time>
      </trkpt>
      <trkpt lat="46.47917" lon="6.10589">
        <ele>1445</ele>
        <time>2019-05-05T02:40:36Z</time>
      </trkpt>
      <trkpt lat="46.4791" lon="6.10587">
        <ele>1444</ele>
        <time>2019-05-05T02:40:41Z</time>
      </trkpt>
      <trkpt lat="46.47905" lon="6.10586">
        <ele>1443</ele>
        <time>2019-05-05T02:40:44Z</time>
      </trkpt>
      <trkpt lat="46.47901" lon="6.10584">
        <ele>1442</ele>
        <time>2019-05-05T02:40:48Z</time>
      </trkpt>
      <trkpt lat="46.47893" lon="6.10581">
        <ele>1440</ele>
        <time>2019-05-05T02:40:54Z</time>
      </trkpt>
      <trkpt lat="46.47888" lon="6.10579">
        <ele>1439</ele>
        <time>2019-05-05T02:40:58Z</time>
      </trkpt>
      <trkpt lat="46.47885" lon="6.10578">
        <ele>1438</ele>
        <time>2019-05-05T02:41:00Z</time>
      </trkpt>
      <trkpt lat="46.47879" lon="6.10575">
        <ele>1437</ele>
        <time>2019-05-05T02:41:04Z</time>
      </trkpt>
      <trkpt lat="46.47876" lon="6.10573">
        <ele>1436</ele>
        <time>2019-05-05T02:41:07Z</time>
      </trkpt>
      <trkpt lat="46.47874" lon="6.10572">
        <ele>1435</ele>
        <time>2019-05-05T02:41:09Z</time>
      </trkpt>
      <trkpt lat="46.47871" lon="6.1057">
        <ele>1434</ele>
        <time>2019-05-05T02:41:11Z</time>
      </trkpt>
      <trkpt lat="46.47867" lon="6.10568">
        <ele>1433</ele>
        <time>2019-05-05T02:41:15Z</time>
      </trkpt>
      <trkpt lat="46.47863" lon="6.10565">
        <ele>1432</ele>
        <time>2019-05-05T02:41:18Z</time>
      </trkpt>
      <trkpt lat="46.47859" lon="6.10561">
        <ele>1431</ele>
        <time>2019-05-05T02:41:21Z</time>
      </trkpt>
      <trkpt lat="46.47856" lon="6.10559">
        <ele>1431</ele>
        <time>2019-05-05T02:41:24Z</time>
      </trkpt>
      <trkpt lat="46.4785" lon="6.10557">
        <ele>1429</ele>
        <time>2019-05-05T02:41:28Z</time>
      </trkpt>
      <trkpt lat="46.47847" lon="6.10556">
        <ele>1429</ele>
        <time>2019-05-05T02:41:31Z</time>
      </trkpt>
      <trkpt lat="46.47842" lon="6.10555">
        <ele>1427</ele>
        <time>2019-05-05T02:41:35Z</time>
      </trkpt>
      <trkpt lat="46.47836" lon="6.10554">
        <ele>1426</ele>
        <time>2019-05-05T02:41:39Z</time>
      </trkpt>
      <trkpt lat="46.4783" lon="6.10554">
        <ele>1425</ele>
        <time>2019-05-05T02:41:43Z</time>
      </trkpt>
      <trkpt lat="46.47825" lon="6.10551">
        <ele>1424</ele>
        <time>2019-05-05T02:41:47Z</time>
      </trkpt>
      <trkpt lat="46.47822" lon="6.10548">
        <ele>1423</ele>
        <time>2019-05-05T02:41:50Z</time>
      </trkpt>
      <trkpt lat="46.47819" lon="6.10544">
        <ele>1422</ele>
        <time>2019-05-05T02:41:53Z</time>
      </trkpt>
      <trkpt lat="46.47814" lon="6.1054">
        <ele>1421</ele>
        <time>2019-05-05T02:41:57Z</time>
      </trkpt>
      <trkpt lat="46.47812" lon="6.10537">
        <ele>1421</ele>
        <time>2019-05-05T02:41:59Z</time>
      </trkpt>
      <trkpt lat="46.4781" lon="6.10532">
        <ele>1420</ele>
        <time>2019-05-05T02:42:02Z</time>
      </trkpt>
      <trkpt lat="46.47811" lon="6.10533">
        <ele>1420</ele>
        <time>2019-05-05T02:42:03Z</time>
      </trkpt>
      <trkpt lat="46.47808" lon="6.10532">
        <ele>1419</ele>
        <time>2019-05-05T02:42:05Z</time>
      </trkpt>
      <trkpt lat="46.47806" lon="6.10531">
        <ele>1419</ele>
        <time>2019-05-05T02:42:07Z</time>
      </trkpt>
      <trkpt lat="46.47803" lon="6.10529">
        <ele>1418</ele>
        <time>2019-05-05T02:42:09Z</time>
      </trkpt>
      <trkpt lat="46.47799" lon="6.10527">
        <ele>1417</ele>
        <time>2019-05-05T02:42:13Z</time>
      </trkpt>
      <trkpt lat="46.47794" lon="6.10521">
        <ele>1416</ele>
        <time>2019-05-05T02:42:17Z</time>
      </trkpt>
      <trkpt lat="46.47793" lon="6.10519">
        <ele>1416</ele>
        <time>2019-05-05T02:42:19Z</time>
      </trkpt>
      <trkpt lat="46.47789" lon="6.10514">
        <ele>1415</ele>
        <time>2019-05-05T02:42:22Z</time>
      </trkpt>
      <trkpt lat="46.47787" lon="6.10512">
        <ele>1414</ele>
        <time>2019-05-05T02:42:24Z</time>
      </trkpt>
      <trkpt lat="46.47785" lon="6.10509">
        <ele>1414</ele>
        <time>2019-05-05T02:42:26Z</time>
      </trkpt>
      <trkpt lat="46.47779" lon="6.10505">
        <ele>1413</ele>
        <time>2019-05-05T02:42:31Z</time>
      </trkpt>
      <trkpt lat="46.47769" lon="6.10495">
        <ele>1411</ele>
        <time>2019-05-05T02:42:40Z</time>
      </trkpt>
      <trkpt lat="46.47759" lon="6.10485">
        <ele>1408</ele>
        <time>2019-05-05T02:42:49Z</time>
      </trkpt>
      <trkpt lat="46.47756" lon="6.1048">
        <ele>1407</ele>
        <time>2019-05-05T02:42:52Z</time>
      </trkpt>
      <trkpt lat="46.47754" lon="6.10477">
        <ele>1407</ele>
        <time>2019-05-05T02:42:54Z</time>
      </trkpt>
      <trkpt lat="46.47752" lon="6.10476">
        <ele>1406</ele>
        <time>2019-05-05T02:42:56Z</time>
      </trkpt>
      <trkpt lat="46.47749" lon="6.10474">
        <ele>1406</ele>
        <time>2019-05-05T02:42:58Z</time>
      </trkpt>
      <trkpt lat="46.47748" lon="6.10472">
        <ele>1406</ele>
        <time>2019-05-05T02:42:59Z</time>
      </trkpt>
      <trkpt lat="46.47742" lon="6.10464">
        <ele>1404</ele>
        <time>2019-05-05T02:43:05Z</time>
      </trkpt>
      <trkpt lat="46.4774" lon="6.1046">
        <ele>1404</ele>
        <time>2019-05-05T02:43:08Z</time>
      </trkpt>
      <trkpt lat="46.47734" lon="6.10455">
        <ele>1403</ele>
        <time>2019-05-05T02:43:13Z</time>
      </trkpt>
      <trkpt lat="46.47731" lon="6.10452">
        <ele>1402</ele>
        <time>2019-05-05T02:43:16Z</time>
      </trkpt>
      <trkpt lat="46.47731" lon="6.10452">
        <ele>1402</ele>
        <time>2019-05-05T02:43:16Z</time>
      </trkpt>
      <trkpt lat="46.47728" lon="6.10452">
        <ele>1402</ele>
        <time>2019-05-05T02:43:18Z</time>
      </trkpt>
      <trkpt lat="46.47727" lon="6.10452">
        <ele>1401</ele>
        <time>2019-05-05T02:43:19Z</time>
      </trkpt>
      <trkpt lat="46.47722" lon="6.1045">
        <ele>1401</ele>
        <time>2019-05-05T02:43:22Z</time>
      </trkpt>
      <trkpt lat="46.47716" lon="6.10448">
        <ele>1400</ele>
        <time>2019-05-05T02:43:27Z</time>
      </trkpt>
      <trkpt lat="46.47708" lon="6.10445">
        <ele>1398</ele>
        <time>2019-05-05T02:43:33Z</time>
      </trkpt>
      <trkpt lat="46.47704" lon="6.1044">
        <ele>1398</ele>
        <time>2019-05-05T02:43:37Z</time>
      </trkpt>
      <trkpt lat="46.47701" lon="6.10432">
        <ele>1397</ele>
        <time>2019-05-05T02:43:42Z</time>
      </trkpt>
      <trkpt lat="46.477" lon="6.10431">
        <ele>1397</ele>
        <time>2019-05-05T02:43:43Z</time>
      </trkpt>
      <trkpt lat="46.47691" lon="6.10415">
        <ele>1394</ele>
        <time>2019-05-05T02:43:53Z</time>
      </trkpt>
      <trkpt lat="46.47686" lon="6.10408">
        <ele>1393</ele>
        <time>2019-05-05T02:43:58Z</time>
      </trkpt>
      <trkpt lat="46.47683" lon="6.10406">
        <ele>1392</ele>
        <time>2019-05-05T02:44:00Z</time>
      </trkpt>
      <trkpt lat="46.47681" lon="6.10405">
        <ele>1392</ele>
        <time>2019-05-05T02:44:02Z</time>
      </trkpt>
      <trkpt lat="46.47677" lon="6.10403">
        <ele>1391</ele>
        <time>2019-05-05T02:44:05Z</time>
      </trkpt>
      <trkpt lat="46.47673" lon="6.10399">
        <ele>1390</ele>
        <time>2019-05-05T02:44:09Z</time>
      </trkpt>
      <trkpt lat="46.4767" lon="6.10395">
        <ele>1390</ele>
        <time>2019-05-05T02:44:12Z</time>
      </trkpt>
      <trkpt lat="46.47665" lon="6.10387">
        <ele>1388</ele>
        <time>2019-05-05T02:44:17Z</time>
      </trkpt>
      <trkpt lat="46.47663" lon="6.10383">
        <ele>1388</ele>
        <time>2019-05-05T02:44:20Z</time>
      </trkpt>
      <trkpt lat="46.47661" lon="6.10381">
        <ele>1387</ele>
        <time>2019-05-05T02:44:22Z</time>
      </trkpt>
      <trkpt lat="46.47659" lon="6.10378">
        <ele>1387</ele>
        <time>2019-05-05T02:44:24Z</time>
      </trkpt>
      <trkpt lat="46.47651" lon="6.10375">
        <ele>1386</ele>
        <time>2019-05-05T02:44:29Z</time>
      </trkpt>
      <trkpt lat="46.47644" lon="6.10372">
        <ele>1385</ele>
        <time>2019-05-05T02:44:34Z</time>
      </trkpt>
      <trkpt lat="46.47625" lon="6.10365">
        <ele>1382</ele>
        <time>2019-05-05T02:44:49Z</time>
      </trkpt>
      <trkpt lat="46.47624" lon="6.10363">
        <ele>1382</ele>
        <time>2019-05-05T02:44:50Z</time>
      </trkpt>
      <trkpt lat="46.47623" lon="6.10362">
        <ele>1382</ele>
        <time>2019-05-05T02:44:51Z</time>
      </trkpt>
      <trkpt lat="46.47621" lon="6.10361">
        <ele>1382</ele>
        <time>2019-05-05T02:44:52Z</time>
      </trkpt>
      <trkpt lat="46.4762" lon="6.1036">
        <ele>1381</ele>
        <time>2019-05-05T02:44:54Z</time>
      </trkpt>
      <trkpt lat="46.47614" lon="6.10357">
        <ele>1381</ele>
        <time>2019-05-05T02:44:58Z</time>
      </trkpt>
      <trkpt lat="46.47608" lon="6.10356">
        <ele>1380</ele>
        <time>2019-05-05T02:45:03Z</time>
      </trkpt>
      <trkpt lat="46.47602" lon="6.10354">
        <ele>1378</ele>
        <time>2019-05-05T02:45:07Z</time>
      </trkpt>
      <trkpt lat="46.47599" lon="6.10351">
        <ele>1377</ele>
        <time>2019-05-05T02:45:10Z</time>
      </trkpt>
      <trkpt lat="46.47593" lon="6.10348">
        <ele>1376</ele>
        <time>2019-05-05T02:45:14Z</time>
      </trkpt>
      <trkpt lat="46.4759" lon="6.10346">
        <ele>1375</ele>
        <time>2019-05-05T02:45:17Z</time>
      </trkpt>
      <trkpt lat="46.4759" lon="6.10346">
        <ele>1375</ele>
        <time>2019-05-05T02:45:17Z</time>
      </trkpt>
      <trkpt lat="46.47581" lon="6.10344">
        <ele>1372</ele>
        <time>2019-05-05T02:45:24Z</time>
      </trkpt>
      <trkpt lat="46.47578" lon="6.10341">
        <ele>1371</ele>
        <time>2019-05-05T02:45:27Z</time>
      </trkpt>
      <trkpt lat="46.4757" lon="6.10337">
        <ele>1369</ele>
        <time>2019-05-05T02:45:33Z</time>
      </trkpt>
      <trkpt lat="46.47561" lon="6.10336">
        <ele>1367</ele>
        <time>2019-05-05T02:45:39Z</time>
      </trkpt>
      <trkpt lat="46.47554" lon="6.10332">
        <ele>1364</ele>
        <time>2019-05-05T02:45:45Z</time>
      </trkpt>
      <trkpt lat="46.47547" lon="6.10325">
        <ele>1363</ele>
        <time>2019-05-05T02:45:51Z</time>
      </trkpt>
      <trkpt lat="46.47544" lon="6.1032">
        <ele>1362</ele>
        <time>2019-05-05T02:45:55Z</time>
      </trkpt>
      <trkpt lat="46.47538" lon="6.10312">
        <ele>1361</ele>
        <time>2019-05-05T02:46:01Z</time>
      </trkpt>
      <trkpt lat="46.47533" lon="6.10304">
        <ele>1359</ele>
        <time>2019-05-05T02:46:06Z</time>
      </trkpt>
      <trkpt lat="46.47529" lon="6.10297">
        <ele>1358</ele>
        <time>2019-05-05T02:46:11Z</time>
      </trkpt>
      <trkpt lat="46.47523" lon="6.10289">
        <ele>1357</ele>
        <time>2019-05-05T02:46:16Z</time>
      </trkpt>
      <trkpt lat="46.47519" lon="6.10282">
        <ele>1356</ele>
        <time>2019-05-05T02:46:21Z</time>
      </trkpt>
      <trkpt lat="46.47515" lon="6.10275">
        <ele>1355</ele>
        <time>2019-05-05T02:46:25Z</time>
      </trkpt>
      <trkpt lat="46.47511" lon="6.10267">
        <ele>1354</ele>
        <time>2019-05-05T02:46:30Z</time>
      </trkpt>
      <trkpt lat="46.47509" lon="6.10262">
        <ele>1353</ele>
        <time>2019-05-05T02:46:34Z</time>
      </trkpt>
      <trkpt lat="46.47503" lon="6.10252">
        <ele>1351</ele>
        <time>2019-05-05T02:46:40Z</time>
      </trkpt>
      <trkpt lat="46.47493" lon="6.10237">
        <ele>1348</ele>
        <time>2019-05-05T02:46:51Z</time>
      </trkpt>
      <trkpt lat="46.47491" lon="6.10234">
        <ele>1348</ele>
        <time>2019-05-05T02:46:53Z</time>
      </trkpt>
      <trkpt lat="46.47489" lon="6.10227">
        <ele>1347</ele>
        <time>2019-05-05T02:46:57Z</time>
      </trkpt>
      <trkpt lat="46.47486" lon="6.10224">
        <ele>1346</ele>
        <time>2019-05-05T02:46:59Z</time>
      </trkpt>
      <trkpt lat="46.47485" lon="6.1022">
        <ele>1346</ele>
        <time>2019-05-05T02:47:02Z</time>
      </trkpt>
      <trkpt lat="46.47484" lon="6.10213">
        <ele>1345</ele>
        <time>2019-05-05T02:47:05Z</time>
      </trkpt>
      <trkpt lat="46.47477" lon="6.10199">
        <ele>1343</ele>
        <time>2019-05-05T02:47:14Z</time>
      </trkpt>
      <trkpt lat="46.47473" lon="6.10193">
        <ele>1342</ele>
        <time>2019-05-05T02:47:18Z</time>
      </trkpt>
      <trkpt lat="46.47468" lon="6.10189">
        <ele>1341</ele>
        <time>2019-05-05T02:47:22Z</time>
      </trkpt>
      <trkpt lat="46.47465" lon="6.10184">
        <ele>1340</ele>
        <time>2019-05-05T02:47:26Z</time>
      </trkpt>
      <trkpt lat="46.47462" lon="6.10177">
        <ele>1339</ele>
        <time>2019-05-05T02:47:30Z</time>
      </trkpt>
      <trkpt lat="46.47457" lon="6.10163">
        <ele>1337</ele>
        <time>2019-05-05T02:47:38Z</time>
      </trkpt>
      <trkpt lat="46.47451" lon="6.10148">
        <ele>1336</ele>
        <time>2019-05-05T02:47:46Z</time>
      </trkpt>
      <trkpt lat="46.47449" lon="6.10136">
        <ele>1335</ele>
        <time>2019-05-05T02:47:52Z</time>
      </trkpt>
      <trkpt lat="46.47448" lon="6.10128">
        <ele>1335</ele>
        <time>2019-05-05T02:47:56Z</time>
      </trkpt>
      <trkpt lat="46.47446" lon="6.10121">
        <ele>1334</ele>
        <time>2019-05-05T02:48:01Z</time>
      </trkpt>
      <trkpt lat="46.47441" lon="6.10105">
        <ele>1333</ele>
        <time>2019-05-05T02:48:09Z</time>
      </trkpt>
      <trkpt lat="46.47438" lon="6.10092">
        <ele>1332</ele>
        <time>2019-05-05T02:48:16Z</time>
      </trkpt>
      <trkpt lat="46.47435" lon="6.1008">
        <ele>1330</ele>
        <time>2019-05-05T02:48:22Z</time>
      </trkpt>
      <trkpt lat="46.47432" lon="6.10077">
        <ele>1329</ele>
        <time>2019-05-05T02:48:25Z</time>
      </trkpt>
      <trkpt lat="46.47431" lon="6.10075">
        <ele>1329</ele>
        <time>2019-05-05T02:48:26Z</time>
      </trkpt>
      <trkpt lat="46.47428" lon="6.1007">
        <ele>1328</ele>
        <time>2019-05-05T02:48:30Z</time>
      </trkpt>
      <trkpt lat="46.47421" lon="6.10062">
        <ele>1326</ele>
        <time>2019-05-05T02:48:36Z</time>
      </trkpt>
      <trkpt lat="46.47418" lon="6.10057">
        <ele>1325</ele>
        <time>2019-05-05T02:48:40Z</time>
      </trkpt>
      <trkpt lat="46.47415" lon="6.10051">
        <ele>1324</ele>
        <time>2019-05-05T02:48:43Z</time>
      </trkpt>
      <trkpt lat="46.4741" lon="6.10035">
        <ele>1323</ele>
        <time>2019-05-05T02:48:52Z</time>
      </trkpt>
      <trkpt lat="46.47407" lon="6.10028">
        <ele>1322</ele>
        <time>2019-05-05T02:48:56Z</time>
      </trkpt>
      <trkpt lat="46.47404" lon="6.1002">
        <ele>1321</ele>
        <time>2019-05-05T02:49:01Z</time>
      </trkpt>
      <trkpt lat="46.47402" lon="6.10012">
        <ele>1320</ele>
        <time>2019-05-05T02:49:05Z</time>
      </trkpt>
      <trkpt lat="46.47401" lon="6.10005">
        <ele>1319</ele>
        <time>2019-05-05T02:49:09Z</time>
      </trkpt>
      <trkpt lat="46.474" lon="6.09999">
        <ele>1318</ele>
        <time>2019-05-05T02:49:12Z</time>
      </trkpt>
      <trkpt lat="46.474" lon="6.09995">
        <ele>1318</ele>
        <time>2019-05-05T02:49:14Z</time>
      </trkpt>
      <trkpt lat="46.47399" lon="6.09989">
        <ele>1317</ele>
        <time>2019-05-05T02:49:17Z</time>
      </trkpt>
      <trkpt lat="46.47398" lon="6.09985">
        <ele>1316</ele>
        <time>2019-05-05T02:49:19Z</time>
      </trkpt>
      <trkpt lat="46.47396" lon="6.09983">
        <ele>1316</ele>
        <time>2019-05-05T02:49:21Z</time>
      </trkpt>
      <trkpt lat="46.47396" lon="6.09982">
        <ele>1316</ele>
        <time>2019-05-05T02:49:21Z</time>
      </trkpt>
      <trkpt lat="46.47396" lon="6.09979">
        <ele>1315</ele>
        <time>2019-05-05T02:49:23Z</time>
      </trkpt>
      <trkpt lat="46.47395" lon="6.0997">
        <ele>1314</ele>
        <time>2019-05-05T02:49:28Z</time>
      </trkpt>
      <trkpt lat="46.47395" lon="6.09959">
        <ele>1313</ele>
        <time>2019-05-05T02:49:33Z</time>
      </trkpt>
      <trkpt lat="46.47392" lon="6.09949">
        <ele>1312</ele>
        <time>2019-05-05T02:49:39Z</time>
      </trkpt>
      <trkpt lat="46.47388" lon="6.09943">
        <ele>1311</ele>
        <time>2019-05-05T02:49:43Z</time>
      </trkpt>
      <trkpt lat="46.47384" lon="6.09936">
        <ele>1310</ele>
        <time>2019-05-05T02:49:48Z</time>
      </trkpt>
      <trkpt lat="46.4738" lon="6.09931">
        <ele>1309</ele>
        <time>2019-05-05T02:49:51Z</time>
      </trkpt>
      <trkpt lat="46.47377" lon="6.09928">
        <ele>1308</ele>
        <time>2019-05-05T02:49:54Z</time>
      </trkpt>
      <trkpt lat="46.47373" lon="6.09925">
        <ele>1308</ele>
        <time>2019-05-05T02:49:57Z</time>
      </trkpt>
      <trkpt lat="46.47368" lon="6.09924">
        <ele>1307</ele>
        <time>2019-05-05T02:50:01Z</time>
      </trkpt>
      <trkpt lat="46.47364" lon="6.09922">
        <ele>1307</ele>
        <time>2019-05-05T02:50:04Z</time>
      </trkpt>
      <trkpt lat="46.47364" lon="6.09922">
        <ele>1307</ele>
        <time>2019-05-05T02:50:04Z</time>
      </trkpt>
      <trkpt lat="46.47361" lon="6.09924">
        <ele>1307</ele>
        <time>2019-05-05T02:50:06Z</time>
      </trkpt>
      <trkpt lat="46.47359" lon="6.09925">
        <ele>1306</ele>
        <time>2019-05-05T02:50:08Z</time>
      </trkpt>
      <trkpt lat="46.47358" lon="6.09926">
        <ele>1306</ele>
        <time>2019-05-05T02:50:09Z</time>
      </trkpt>
      <trkpt lat="46.47358" lon="6.09927">
        <ele>1306</ele>
        <time>2019-05-05T02:50:09Z</time>
      </trkpt>
      <trkpt lat="46.47357" lon="6.09928">
        <ele>1306</ele>
        <time>2019-05-05T02:50:10Z</time>
      </trkpt>
      <trkpt lat="46.47356" lon="6.0993">
        <ele>1306</ele>
        <time>2019-05-05T02:50:11Z</time>
      </trkpt>
      <trkpt lat="46.47356" lon="6.09934">
        <ele>1306</ele>
        <time>2019-05-05T02:50:13Z</time>
      </trkpt>
      <trkpt lat="46.47353" lon="6.09937">
        <ele>1306</ele>
        <time>2019-05-05T02:50:16Z</time>
      </trkpt>
      <trkpt lat="46.47353" lon="6.09938">
        <ele>1306</ele>
        <time>2019-05-05T02:50:16Z</time>
      </trkpt>
      <trkpt lat="46.47352" lon="6.09944">
        <ele>1306</ele>
        <time>2019-05-05T02:50:19Z</time>
      </trkpt>
      <trkpt lat="46.47352" lon="6.09947">
        <ele>1306</ele>
        <time>2019-05-05T02:50:20Z</time>
      </trkpt>
      <trkpt lat="46.47351" lon="6.09948">
        <ele>1306</ele>
        <time>2019-05-05T02:50:21Z</time>
      </trkpt>
      <trkpt lat="46.47351" lon="6.09953">
        <ele>1306</ele>
        <time>2019-05-05T02:50:24Z</time>
      </trkpt>
      <trkpt lat="46.47351" lon="6.09956">
        <ele>1306</ele>
        <time>2019-05-05T02:50:25Z</time>
      </trkpt>
      <trkpt lat="46.47351" lon="6.09961">
        <ele>1307</ele>
        <time>2019-05-05T02:50:28Z</time>
      </trkpt>
      <trkpt lat="46.47351" lon="6.09968">
        <ele>1307</ele>
        <time>2019-05-05T02:50:31Z</time>
      </trkpt>
      <trkpt lat="46.47351" lon="6.09972">
        <ele>1307</ele>
        <time>2019-05-05T02:50:33Z</time>
      </trkpt>
      <trkpt lat="46.47344" lon="6.09983">
        <ele>1306</ele>
        <time>2019-05-05T02:50:40Z</time>
      </trkpt>
      <trkpt lat="46.47337" lon="6.09985">
        <ele>1304</ele>
        <time>2019-05-05T02:50:46Z</time>
      </trkpt>
      <trkpt lat="46.47343" lon="6.09993">
        <ele>1306</ele>
        <time>2019-05-05T02:50:53Z</time>
      </trkpt>
      <trkpt lat="46.4734" lon="6.09996">
        <ele>1306</ele>
        <time>2019-05-05T02:50:55Z</time>
      </trkpt>
      <trkpt lat="46.47339" lon="6.09996">
        <ele>1305</ele>
        <time>2019-05-05T02:50:56Z</time>
      </trkpt>
      <trkpt lat="46.47336" lon="6.09998">
        <ele>1305</ele>
        <time>2019-05-05T02:50:58Z</time>
      </trkpt>
      <trkpt lat="46.47328" lon="6.09986">
        <ele>1302</ele>
        <time>2019-05-05T02:51:07Z</time>
      </trkpt>
      <trkpt lat="46.47328" lon="6.09995">
        <ele>1303</ele>
        <time>2019-05-05T02:51:11Z</time>
      </trkpt>
      <trkpt lat="46.47328" lon="6.10001">
        <ele>1303</ele>
        <time>2019-05-05T02:51:14Z</time>
      </trkpt>
      <trkpt lat="46.47327" lon="6.10002">
        <ele>1303</ele>
        <time>2019-05-05T02:51:15Z</time>
      </trkpt>
      <trkpt lat="46.47323" lon="6.10011">
        <ele>1302</ele>
        <time>2019-05-05T02:51:20Z</time>
      </trkpt>
      <trkpt lat="46.47317" lon="6.10014">
        <ele>1301</ele>
        <time>2019-05-05T02:51:25Z</time>
      </trkpt>
      <trkpt lat="46.47313" lon="6.10017">
        <ele>1300</ele>
        <time>2019-05-05T02:51:28Z</time>
      </trkpt>
      <trkpt lat="46.47312" lon="6.10017">
        <ele>1300</ele>
        <time>2019-05-05T02:51:29Z</time>
      </trkpt>
      <trkpt lat="46.47311" lon="6.10017">
        <ele>1300</ele>
        <time>2019-05-05T02:51:29Z</time>
      </trkpt>
      <trkpt lat="46.47308" lon="6.10005">
        <ele>1298</ele>
        <time>2019-05-05T02:51:35Z</time>
      </trkpt>
      <trkpt lat="46.47302" lon="6.10015">
        <ele>1297</ele>
        <time>2019-05-05T02:51:42Z</time>
      </trkpt>
      <trkpt lat="46.47305" lon="6.10017">
        <ele>1298</ele>
        <time>2019-05-05T02:51:44Z</time>
      </trkpt>
      <trkpt lat="46.47305" lon="6.10006">
        <ele>1298</ele>
        <time>2019-05-05T02:51:50Z</time>
      </trkpt>
      <trkpt lat="46.47296" lon="6.10002">
        <ele>1295</ele>
        <time>2019-05-05T02:51:57Z</time>
      </trkpt>
      <trkpt lat="46.47293" lon="6.10007">
        <ele>1295</ele>
        <time>2019-05-05T02:52:01Z</time>
      </trkpt>
      <trkpt lat="46.47293" lon="6.10017">
        <ele>1295</ele>
        <time>2019-05-05T02:52:06Z</time>
      </trkpt>
      <trkpt lat="46.47289" lon="6.1002">
        <ele>1294</ele>
        <time>2019-05-05T02:52:09Z</time>
      </trkpt>
      <trkpt lat="46.47279" lon="6.10016">
        <ele>1292</ele>
        <time>2019-05-05T02:52:16Z</time>
      </trkpt>
      <trkpt lat="46.47277" lon="6.09997">
        <ele>1290</ele>
        <time>2019-05-05T02:52:26Z</time>
      </trkpt>
      <trkpt lat="46.47277" lon="6.09984">
        <ele>1290</ele>
        <time>2019-05-05T02:52:33Z</time>
      </trkpt>
      <trkpt lat="46.47275" lon="6.09969">
        <ele>1289</ele>
        <time>2019-05-05T02:52:40Z</time>
      </trkpt>
      <trkpt lat="46.47272" lon="6.09959">
        <ele>1288</ele>
        <time>2019-05-05T02:52:46Z</time>
      </trkpt>
      <trkpt lat="46.47268" lon="6.09945">
        <ele>1287</ele>
        <time>2019-05-05T02:52:53Z</time>
      </trkpt>
      <trkpt lat="46.47261" lon="6.09927">
        <ele>1285</ele>
        <time>2019-05-05T02:53:04Z</time>
      </trkpt>
      <trkpt lat="46.47259" lon="6.09923">
        <ele>1284</ele>
        <time>2019-05-05T02:53:07Z</time>
      </trkpt>
      <trkpt lat="46.47256" lon="6.09917">
        <ele>1284</ele>
        <time>2019-05-05T02:53:10Z</time>
      </trkpt>
      <trkpt lat="46.47251" lon="6.09908">
        <ele>1283</ele>
        <time>2019-05-05T02:53:16Z</time>
      </trkpt>
      <trkpt lat="46.47231" lon="6.09893">
        <ele>1280</ele>
        <time>2019-05-05T02:53:32Z</time>
      </trkpt>
      <trkpt lat="46.47222" lon="6.09886">
        <ele>1279</ele>
        <time>2019-05-05T02:53:39Z</time>
      </trkpt>
      <trkpt lat="46.47216" lon="6.09883">
        <ele>1279</ele>
        <time>2019-05-05T02:53:44Z</time>
      </trkpt>
      <trkpt lat="46.47206" lon="6.09877">
        <ele>1277</ele>
        <time>2019-05-05T02:53:52Z</time>
      </trkpt>
      <trkpt lat="46.47203" lon="6.09875">
        <ele>1277</ele>
        <time>2019-05-05T02:53:55Z</time>
      </trkpt>
      <trkpt lat="46.47199" lon="6.09847">
        <ele>1277</ele>
        <time>2019-05-05T02:54:09Z</time>
      </trkpt>
      <trkpt lat="46.472" lon="6.09833">
        <ele>1277</ele>
        <time>2019-05-05T02:54:16Z</time>
      </trkpt>
      <trkpt lat="46.472" lon="6.09835">
        <ele>1277</ele>
        <time>2019-05-05T02:54:17Z</time>
      </trkpt>
      <trkpt lat="46.472" lon="6.09837">
        <ele>1277</ele>
        <time>2019-05-05T02:54:18Z</time>
      </trkpt>
      <trkpt lat="46.47199" lon="6.09841">
        <ele>1277</ele>
        <time>2019-05-05T02:54:20Z</time>
      </trkpt>
      <trkpt lat="46.47184" lon="6.09844">
        <ele>1275</ele>
        <time>2019-05-05T02:54:31Z</time>
      </trkpt>
      <trkpt lat="46.47174" lon="6.09839">
        <ele>1274</ele>
        <time>2019-05-05T02:54:39Z</time>
      </trkpt>
      <trkpt lat="46.47158" lon="6.09824">
        <ele>1272</ele>
        <time>2019-05-05T02:54:53Z</time>
      </trkpt>
      <trkpt lat="46.47154" lon="6.09812">
        <ele>1272</ele>
        <time>2019-05-05T02:54:59Z</time>
      </trkpt>
      <trkpt lat="46.47149" lon="6.09788">
        <ele>1271</ele>
        <time>2019-05-05T02:55:12Z</time>
      </trkpt>
      <trkpt lat="46.47149" lon="6.09785">
        <ele>1271</ele>
        <time>2019-05-05T02:55:13Z</time>
      </trkpt>
      <trkpt lat="46.47143" lon="6.09759">
        <ele>1271</ele>
        <time>2019-05-05T02:55:27Z</time>
      </trkpt>
      <trkpt lat="46.47138" lon="6.09732">
        <ele>1270</ele>
        <time>2019-05-05T02:55:41Z</time>
      </trkpt>
      <trkpt lat="46.47136" lon="6.0972">
        <ele>1270</ele>
        <time>2019-05-05T02:55:47Z</time>
      </trkpt>
      <trkpt lat="46.47136" lon="6.09718">
        <ele>1270</ele>
        <time>2019-05-05T02:55:48Z</time>
      </trkpt>
      <trkpt lat="46.47134" lon="6.09713">
        <ele>1270</ele>
        <time>2019-05-05T02:55:51Z</time>
      </trkpt>
      <trkpt lat="46.47132" lon="6.09704">
        <ele>1269</ele>
        <time>2019-05-05T02:55:55Z</time>
      </trkpt>
      <trkpt lat="46.4713" lon="6.09691">
        <ele>1269</ele>
        <time>2019-05-05T02:56:02Z</time>
      </trkpt>
      <trkpt lat="46.47126" lon="6.09682">
        <ele>1269</ele>
        <time>2019-05-05T02:56:08Z</time>
      </trkpt>
      <trkpt lat="46.47121" lon="6.09662">
        <ele>1268</ele>
        <time>2019-05-05T02:56:18Z</time>
      </trkpt>
      <trkpt lat="46.47115" lon="6.09635">
        <ele>1267</ele>
        <time>2019-05-05T02:56:32Z</time>
      </trkpt>
      <trkpt lat="46.47112" lon="6.09625">
        <ele>1267</ele>
        <time>2019-05-05T02:56:38Z</time>
      </trkpt>
      <trkpt lat="46.47104" lon="6.096">
        <ele>1265</ele>
        <time>2019-05-05T02:56:52Z</time>
      </trkpt>
      <trkpt lat="46.47103" lon="6.09596">
        <ele>1265</ele>
        <time>2019-05-05T02:56:53Z</time>
      </trkpt>
      <trkpt lat="46.47099" lon="6.09568">
        <ele>1264</ele>
        <time>2019-05-05T02:57:08Z</time>
      </trkpt>
      <trkpt lat="46.47097" lon="6.09557">
        <ele>1264</ele>
        <time>2019-05-05T02:57:13Z</time>
      </trkpt>
      <trkpt lat="46.47095" lon="6.09545">
        <ele>1263</ele>
        <time>2019-05-05T02:57:20Z</time>
      </trkpt>
      <trkpt lat="46.47086" lon="6.09519">
        <ele>1262</ele>
        <time>2019-05-05T02:57:34Z</time>
      </trkpt>
      <trkpt lat="46.47084" lon="6.09511">
        <ele>1262</ele>
        <time>2019-05-05T02:57:38Z</time>
      </trkpt>
      <trkpt lat="46.47082" lon="6.09483">
        <ele>1262</ele>
        <time>2019-05-05T02:57:52Z</time>
      </trkpt>
      <trkpt lat="46.47082" lon="6.09475">
        <ele>1262</ele>
        <time>2019-05-05T02:57:57Z</time>
      </trkpt>
      <trkpt lat="46.47077" lon="6.09459">
        <ele>1261</ele>
        <time>2019-05-05T02:58:05Z</time>
      </trkpt>
      <trkpt lat="46.47071" lon="6.09434">
        <ele>1260</ele>
        <time>2019-05-05T02:58:18Z</time>
      </trkpt>
      <trkpt lat="46.47062" lon="6.09416">
        <ele>1259</ele>
        <time>2019-05-05T02:58:30Z</time>
      </trkpt>
      <trkpt lat="46.47059" lon="6.0941">
        <ele>1259</ele>
        <time>2019-05-05T02:58:33Z</time>
      </trkpt>
      <trkpt lat="46.47052" lon="6.09385">
        <ele>1257</ele>
        <time>2019-05-05T02:58:47Z</time>
      </trkpt>
      <trkpt lat="46.47045" lon="6.09366">
        <ele>1256</ele>
        <time>2019-05-05T02:58:57Z</time>
      </trkpt>
      <trkpt lat="46.47042" lon="6.09361">
        <ele>1256</ele>
        <time>2019-05-05T02:59:01Z</time>
      </trkpt>
      <trkpt lat="46.47039" lon="6.09349">
        <ele>1255</ele>
        <time>2019-05-05T02:59:07Z</time>
      </trkpt>
      <trkpt lat="46.47036" lon="6.09343">
        <ele>1255</ele>
        <time>2019-05-05T02:59:11Z</time>
      </trkpt>
      <trkpt lat="46.47034" lon="6.09339">
        <ele>1255</ele>
        <time>2019-05-05T02:59:13Z</time>
      </trkpt>
      <trkpt lat="46.47027" lon="6.09324">
        <ele>1253</ele>
        <time>2019-05-05T02:59:22Z</time>
      </trkpt>
      <trkpt lat="46.47022" lon="6.09317">
        <ele>1252</ele>
        <time>2019-05-05T02:59:28Z</time>
      </trkpt>
      <trkpt lat="46.4702" lon="6.09311">
        <ele>1251</ele>
        <time>2019-05-05T02:59:31Z</time>
      </trkpt>
      <trkpt lat="46.47017" lon="6.09299">
        <ele>1250</ele>
        <time>2019-05-05T02:59:37Z</time>
      </trkpt>
      <trkpt lat="46.47014" lon="6.0929">
        <ele>1248</ele>
        <time>2019-05-05T02:59:42Z</time>
      </trkpt>
      <trkpt lat="46.47009" lon="6.09281">
        <ele>1247</ele>
        <time>2019-05-05T02:59:48Z</time>
      </trkpt>
      <trkpt lat="46.47004" lon="6.09269">
        <ele>1245</ele>
        <time>2019-05-05T02:59:55Z</time>
      </trkpt>
      <trkpt lat="46.47001" lon="6.09263">
        <ele>1244</ele>
        <time>2019-05-05T02:59:59Z</time>
      </trkpt>
      <trkpt lat="46.46996" lon="6.09256">
        <ele>1243</ele>
        <time>2019-05-05T03:00:04Z</time>
      </trkpt>
      <trkpt lat="46.4699" lon="6.09246">
        <ele>1241</ele>
        <time>2019-05-05T03:00:11Z</time>
      </trkpt>
      <trkpt lat="46.46983" lon="6.0923">
        <ele>1239</ele>
        <time>2019-05-05T03:00:20Z</time>
      </trkpt>
      <trkpt lat="46.46977" lon="6.09218">
        <ele>1238</ele>
        <time>2019-05-05T03:00:28Z</time>
      </trkpt>
      <trkpt lat="46.46967" lon="6.092">
        <ele>1235</ele>
        <time>2019-05-05T03:00:39Z</time>
      </trkpt>
      <trkpt lat="46.4696" lon="6.09183">
        <ele>1233</ele>
        <time>2019-05-05T03:00:49Z</time>
      </trkpt>
      <trkpt lat="46.46958" lon="6.09174">
        <ele>1233</ele>
        <time>2019-05-05T03:00:54Z</time>
      </trkpt>
      <trkpt lat="46.46956" lon="6.09165">
        <ele>1233</ele>
        <time>2019-05-05T03:00:59Z</time>
      </trkpt>
      <trkpt lat="46.46949" lon="6.09139">
        <ele>1233</ele>
        <time>2019-05-05T03:01:13Z</time>
      </trkpt>
      <trkpt lat="46.46944" lon="6.09113">
        <ele>1234</ele>
        <time>2019-05-05T03:01:26Z</time>
      </trkpt>
      <trkpt lat="46.46936" lon="6.09088">
        <ele>1234</ele>
        <time>2019-05-05T03:01:40Z</time>
      </trkpt>
      <trkpt lat="46.46929" lon="6.09076">
        <ele>1233</ele>
        <time>2019-05-05T03:01:48Z</time>
      </trkpt>
      <trkpt lat="46.46919" lon="6.09051">
        <ele>1232</ele>
        <time>2019-05-05T03:02:02Z</time>
      </trkpt>
      <trkpt lat="46.4691" lon="6.09025">
        <ele>1232</ele>
        <time>2019-05-05T03:02:17Z</time>
      </trkpt>
      <trkpt lat="46.46903" lon="6.08999">
        <ele>1231</ele>
        <time>2019-05-05T03:02:31Z</time>
      </trkpt>
      <trkpt lat="46.46893" lon="6.08973">
        <ele>1230</ele>
        <time>2019-05-05T03:02:45Z</time>
      </trkpt>
      <trkpt lat="46.46884" lon="6.08953">
        <ele>1228</ele>
        <time>2019-05-05T03:02:57Z</time>
      </trkpt>
      <trkpt lat="46.46876" lon="6.0893">
        <ele>1227</ele>
        <time>2019-05-05T03:03:10Z</time>
      </trkpt>
      <trkpt lat="46.46869" lon="6.08911">
        <ele>1226</ele>
        <time>2019-05-05T03:03:21Z</time>
      </trkpt>
      <trkpt lat="46.46865" lon="6.08902">
        <ele>1225</ele>
        <time>2019-05-05T03:03:27Z</time>
      </trkpt>
      <trkpt lat="46.46861" lon="6.08891">
        <ele>1225</ele>
        <time>2019-05-05T03:03:32Z</time>
      </trkpt>
      <trkpt lat="46.46856" lon="6.08879">
        <ele>1224</ele>
        <time>2019-05-05T03:03:40Z</time>
      </trkpt>
      <trkpt lat="46.46853" lon="6.0887">
        <ele>1224</ele>
        <time>2019-05-05T03:03:45Z</time>
      </trkpt>
      <trkpt lat="46.46845" lon="6.08846">
        <ele>1223</ele>
        <time>2019-05-05T03:03:58Z</time>
      </trkpt>
      <trkpt lat="46.4684" lon="6.08833">
        <ele>1223</ele>
        <time>2019-05-05T03:04:05Z</time>
      </trkpt>
      <trkpt lat="46.4683" lon="6.08809">
        <ele>1222</ele>
        <time>2019-05-05T03:04:19Z</time>
      </trkpt>
      <trkpt lat="46.46828" lon="6.08803">
        <ele>1221</ele>
        <time>2019-05-05T03:04:23Z</time>
      </trkpt>
      <trkpt lat="46.4682" lon="6.08777">
        <ele>1221</ele>
        <time>2019-05-05T03:04:37Z</time>
      </trkpt>
      <trkpt lat="46.46811" lon="6.08752">
        <ele>1220</ele>
        <time>2019-05-05T03:04:51Z</time>
      </trkpt>
      <trkpt lat="46.46803" lon="6.08727">
        <ele>1219</ele>
        <time>2019-05-05T03:05:05Z</time>
      </trkpt>
      <trkpt lat="46.46799" lon="6.08714">
        <ele>1219</ele>
        <time>2019-05-05T03:05:12Z</time>
      </trkpt>
      <trkpt lat="46.46792" lon="6.08688">
        <ele>1219</ele>
        <time>2019-05-05T03:05:26Z</time>
      </trkpt>
      <trkpt lat="46.46789" lon="6.0867">
        <ele>1218</ele>
        <time>2019-05-05T03:05:35Z</time>
      </trkpt>
      <trkpt lat="46.46785" lon="6.08646">
        <ele>1216</ele>
        <time>2019-05-05T03:05:48Z</time>
      </trkpt>
      <trkpt lat="46.46781" lon="6.08635">
        <ele>1215</ele>
        <time>2019-05-05T03:05:54Z</time>
      </trkpt>
      <trkpt lat="46.46777" lon="6.08625">
        <ele>1215</ele>
        <time>2019-05-05T03:05:59Z</time>
      </trkpt>
      <trkpt lat="46.46768" lon="6.086">
        <ele>1214</ele>
        <time>2019-05-05T03:06:14Z</time>
      </trkpt>
      <trkpt lat="46.46756" lon="6.08576">
        <ele>1213</ele>
        <time>2019-05-05T03:06:28Z</time>
      </trkpt>
      <trkpt lat="46.46746" lon="6.08552">
        <ele>1212</ele>
        <time>2019-05-05T03:06:42Z</time>
      </trkpt>
      <trkpt lat="46.46738" lon="6.08529">
        <ele>1212</ele>
        <time>2019-05-05T03:06:55Z</time>
      </trkpt>
      <trkpt lat="46.46726" lon="6.08507">
        <ele>1211</ele>
        <time>2019-05-05T03:07:09Z</time>
      </trkpt>
      <trkpt lat="46.46719" lon="6.08489">
        <ele>1211</ele>
        <time>2019-05-05T03:07:20Z</time>
      </trkpt>
      <trkpt lat="46.4671" lon="6.08472">
        <ele>1210</ele>
        <time>2019-05-05T03:07:30Z</time>
      </trkpt>
      <trkpt lat="46.46699" lon="6.08449">
        <ele>1210</ele>
        <time>2019-05-05T03:07:44Z</time>
      </trkpt>
      <trkpt lat="46.46697" lon="6.08447">
        <ele>1210</ele>
        <time>2019-05-05T03:07:46Z</time>
      </trkpt>
      <trkpt lat="46.46692" lon="6.08437">
        <ele>1210</ele>
        <time>2019-05-05T03:07:52Z</time>
      </trkpt>
      <trkpt lat="46.46683" lon="6.08421">
        <ele>1209</ele>
        <time>2019-05-05T03:08:03Z</time>
      </trkpt>
      <trkpt lat="46.46678" lon="6.08411">
        <ele>1209</ele>
        <time>2019-05-05T03:08:08Z</time>
      </trkpt>
      <trkpt lat="46.46673" lon="6.08402">
        <ele>1209</ele>
        <time>2019-05-05T03:08:14Z</time>
      </trkpt>
      <trkpt lat="46.46664" lon="6.08388">
        <ele>1208</ele>
        <time>2019-05-05T03:08:24Z</time>
      </trkpt>
      <trkpt lat="46.46654" lon="6.08372">
        <ele>1207</ele>
        <time>2019-05-05T03:08:34Z</time>
      </trkpt>
      <trkpt lat="46.46651" lon="6.08368">
        <ele>1207</ele>
        <time>2019-05-05T03:08:38Z</time>
      </trkpt>
      <trkpt lat="46.46645" lon="6.08359">
        <ele>1207</ele>
        <time>2019-05-05T03:08:44Z</time>
      </trkpt>
      <trkpt lat="46.46638" lon="6.08346">
        <ele>1206</ele>
        <time>2019-05-05T03:08:52Z</time>
      </trkpt>
      <trkpt lat="46.4663" lon="6.08334">
        <ele>1206</ele>
        <time>2019-05-05T03:09:00Z</time>
      </trkpt>
      <trkpt lat="46.46629" lon="6.08327">
        <ele>1206</ele>
        <time>2019-05-05T03:09:04Z</time>
      </trkpt>
      <trkpt lat="46.46632" lon="6.0832">
        <ele>1205</ele>
        <time>2019-05-05T03:09:08Z</time>
      </trkpt>
      <trkpt lat="46.46634" lon="6.08314">
        <ele>1205</ele>
        <time>2019-05-05T03:09:11Z</time>
      </trkpt>
      <trkpt lat="46.46632" lon="6.08289">
        <ele>1204</ele>
        <time>2019-05-05T03:09:24Z</time>
      </trkpt>
      <trkpt lat="46.46633" lon="6.08286">
        <ele>1204</ele>
        <time>2019-05-05T03:09:25Z</time>
      </trkpt>
      <trkpt lat="46.46636" lon="6.08269">
        <ele>1204</ele>
        <time>2019-05-05T03:09:34Z</time>
      </trkpt>
      <trkpt lat="46.46636" lon="6.08265">
        <ele>1204</ele>
        <time>2019-05-05T03:09:36Z</time>
      </trkpt>
      <trkpt lat="46.46638" lon="6.08255">
        <ele>1203</ele>
        <time>2019-05-05T03:09:41Z</time>
      </trkpt>
      <trkpt lat="46.46637" lon="6.0824">
        <ele>1203</ele>
        <time>2019-05-05T03:09:49Z</time>
      </trkpt>
      <trkpt lat="46.46636" lon="6.08213">
        <ele>1203</ele>
        <time>2019-05-05T03:10:02Z</time>
      </trkpt>
      <trkpt lat="46.46635" lon="6.08209">
        <ele>1202</ele>
        <time>2019-05-05T03:10:04Z</time>
      </trkpt>
      <trkpt lat="46.46635" lon="6.08208">
        <ele>1202</ele>
        <time>2019-05-05T03:10:05Z</time>
      </trkpt>
      <trkpt lat="46.46636" lon="6.08204">
        <ele>1202</ele>
        <time>2019-05-05T03:10:07Z</time>
      </trkpt>
      <trkpt lat="46.46641" lon="6.08177">
        <ele>1202</ele>
        <time>2019-05-05T03:10:21Z</time>
      </trkpt>
      <trkpt lat="46.46645" lon="6.08151">
        <ele>1201</ele>
        <time>2019-05-05T03:10:35Z</time>
      </trkpt>
      <trkpt lat="46.46653" lon="6.0813">
        <ele>1200</ele>
        <time>2019-05-05T03:10:46Z</time>
      </trkpt>
      <trkpt lat="46.46655" lon="6.08124">
        <ele>1200</ele>
        <time>2019-05-05T03:10:50Z</time>
      </trkpt>
      <trkpt lat="46.46656" lon="6.08116">
        <ele>1200</ele>
        <time>2019-05-05T03:10:54Z</time>
      </trkpt>
      <trkpt lat="46.46654" lon="6.08101">
        <ele>1200</ele>
        <time>2019-05-05T03:11:01Z</time>
      </trkpt>
      <trkpt lat="46.46647" lon="6.0809">
        <ele>1199</ele>
        <time>2019-05-05T03:11:09Z</time>
      </trkpt>
      <trkpt lat="46.46643" lon="6.08085">
        <ele>1199</ele>
        <time>2019-05-05T03:11:13Z</time>
      </trkpt>
      <trkpt lat="46.46628" lon="6.08069">
        <ele>1198</ele>
        <time>2019-05-05T03:11:26Z</time>
      </trkpt>
      <trkpt lat="46.46623" lon="6.08056">
        <ele>1197</ele>
        <time>2019-05-05T03:11:33Z</time>
      </trkpt>
      <trkpt lat="46.46621" lon="6.08049">
        <ele>1197</ele>
        <time>2019-05-05T03:11:37Z</time>
      </trkpt>
      <trkpt lat="46.46612" lon="6.08024">
        <ele>1196</ele>
        <time>2019-05-05T03:11:51Z</time>
      </trkpt>
      <trkpt lat="46.46604" lon="6.08">
        <ele>1195</ele>
        <time>2019-05-05T03:12:05Z</time>
      </trkpt>
      <trkpt lat="46.466" lon="6.07991">
        <ele>1195</ele>
        <time>2019-05-05T03:12:10Z</time>
      </trkpt>
      <trkpt lat="46.46593" lon="6.07964">
        <ele>1195</ele>
        <time>2019-05-05T03:12:24Z</time>
      </trkpt>
      <trkpt lat="46.46592" lon="6.07957">
        <ele>1195</ele>
        <time>2019-05-05T03:12:28Z</time>
      </trkpt>
      <trkpt lat="46.46591" lon="6.07943">
        <ele>1195</ele>
        <time>2019-05-05T03:12:35Z</time>
      </trkpt>
      <trkpt lat="46.46587" lon="6.07916">
        <ele>1194</ele>
        <time>2019-05-05T03:12:49Z</time>
      </trkpt>
      <trkpt lat="46.46579" lon="6.07889">
        <ele>1193</ele>
        <time>2019-05-05T03:13:03Z</time>
      </trkpt>
      <trkpt lat="46.46576" lon="6.07863">
        <ele>1192</ele>
        <time>2019-05-05T03:13:16Z</time>
      </trkpt>
      <trkpt lat="46.46575" lon="6.07852">
        <ele>1191</ele>
        <time>2019-05-05T03:13:22Z</time>
      </trkpt>
      <trkpt lat="46.46574" lon="6.07848">
        <ele>1191</ele>
        <time>2019-05-05T03:13:24Z</time>
      </trkpt>
      <trkpt lat="46.46572" lon="6.07824">
        <ele>1191</ele>
        <time>2019-05-05T03:13:36Z</time>
      </trkpt>
      <trkpt lat="46.46568" lon="6.07816">
        <ele>1191</ele>
        <time>2019-05-05T03:13:41Z</time>
      </trkpt>
      <trkpt lat="46.46563" lon="6.07807">
        <ele>1191</ele>
        <time>2019-05-05T03:13:47Z</time>
      </trkpt>
      <trkpt lat="46.46569" lon="6.07803">
        <ele>1191</ele>
        <time>2019-05-05T03:13:51Z</time>
      </trkpt>
      <trkpt lat="46.46566" lon="6.07801">
        <ele>1191</ele>
        <time>2019-05-05T03:13:54Z</time>
      </trkpt>
      <trkpt lat="46.46566" lon="6.07797">
        <ele>1191</ele>
        <time>2019-05-05T03:13:56Z</time>
      </trkpt>
      <trkpt lat="46.46568" lon="6.07797">
        <ele>1191</ele>
        <time>2019-05-05T03:13:57Z</time>
      </trkpt>
      <trkpt lat="46.46419" lon="6.07492">
        <ele>1165</ele>
        <time>2019-05-05T03:17:04Z</time>
      </trkpt>
      <trkpt lat="46.46417" lon="6.07491">
        <ele>1165</ele>
        <time>2019-05-05T03:17:06Z</time>
      </trkpt>
      <trkpt lat="46.46399" lon="6.07486">
        <ele>1166</ele>
        <time>2019-05-05T03:17:20Z</time>
      </trkpt>
      <trkpt lat="46.46381" lon="6.07481">
        <ele>1166</ele>
        <time>2019-05-05T03:17:33Z</time>
      </trkpt>
      <trkpt lat="46.46363" lon="6.07473">
        <ele>1166</ele>
        <time>2019-05-05T03:17:46Z</time>
      </trkpt>
      <trkpt lat="46.46352" lon="6.0745">
        <ele>1165</ele>
        <time>2019-05-05T03:18:00Z</time>
      </trkpt>
      <trkpt lat="46.4634" lon="6.07432">
        <ele>1164</ele>
        <time>2019-05-05T03:18:12Z</time>
      </trkpt>
      <trkpt lat="46.46322" lon="6.07427">
        <ele>1164</ele>
        <time>2019-05-05T03:18:26Z</time>
      </trkpt>
      <trkpt lat="46.46309" lon="6.07443">
        <ele>1164</ele>
        <time>2019-05-05T03:18:38Z</time>
      </trkpt>
      <trkpt lat="46.46297" lon="6.07459">
        <ele>1165</ele>
        <time>2019-05-05T03:18:50Z</time>
      </trkpt>
      <trkpt lat="46.46284" lon="6.07477">
        <ele>1166</ele>
        <time>2019-05-05T03:19:03Z</time>
      </trkpt>
      <trkpt lat="46.46282" lon="6.07478">
        <ele>1166</ele>
        <time>2019-05-05T03:19:05Z</time>
      </trkpt>
      <trkpt lat="46.4627" lon="6.07498">
        <ele>1167</ele>
        <time>2019-05-05T03:19:18Z</time>
      </trkpt>
      <trkpt lat="46.46265" lon="6.07507">
        <ele>1168</ele>
        <time>2019-05-05T03:19:23Z</time>
      </trkpt>
      <trkpt lat="46.46254" lon="6.0753">
        <ele>1170</ele>
        <time>2019-05-05T03:19:37Z</time>
      </trkpt>
      <trkpt lat="46.46248" lon="6.07544">
        <ele>1171</ele>
        <time>2019-05-05T03:19:46Z</time>
      </trkpt>
      <trkpt lat="46.46239" lon="6.07556">
        <ele>1172</ele>
        <time>2019-05-05T03:19:54Z</time>
      </trkpt>
      <trkpt lat="46.46231" lon="6.07562">
        <ele>1173</ele>
        <time>2019-05-05T03:20:01Z</time>
      </trkpt>
      <trkpt lat="46.46224" lon="6.07565">
        <ele>1173</ele>
        <time>2019-05-05T03:20:07Z</time>
      </trkpt>
      <trkpt lat="46.46204" lon="6.07565">
        <ele>1174</ele>
        <time>2019-05-05T03:20:21Z</time>
      </trkpt>
      <trkpt lat="46.46198" lon="6.07565">
        <ele>1175</ele>
        <time>2019-05-05T03:20:25Z</time>
      </trkpt>
      <trkpt lat="46.46178" lon="6.07561">
        <ele>1176</ele>
        <time>2019-05-05T03:20:40Z</time>
      </trkpt>
      <trkpt lat="46.4617" lon="6.07556">
        <ele>1177</ele>
        <time>2019-05-05T03:20:46Z</time>
      </trkpt>
      <trkpt lat="46.46155" lon="6.07541">
        <ele>1178</ele>
        <time>2019-05-05T03:21:00Z</time>
      </trkpt>
      <trkpt lat="46.46151" lon="6.07537">
        <ele>1178</ele>
        <time>2019-05-05T03:21:03Z</time>
      </trkpt>
      <trkpt lat="46.46136" lon="6.07519">
        <ele>1179</ele>
        <time>2019-05-05T03:21:17Z</time>
      </trkpt>
      <trkpt lat="46.4613" lon="6.07513">
        <ele>1179</ele>
        <time>2019-05-05T03:21:22Z</time>
      </trkpt>
      <trkpt lat="46.46115" lon="6.07496">
        <ele>1181</ele>
        <time>2019-05-05T03:21:36Z</time>
      </trkpt>
      <trkpt lat="46.46106" lon="6.07495">
        <ele>1182</ele>
        <time>2019-05-05T03:21:43Z</time>
      </trkpt>
      <trkpt lat="46.46099" lon="6.07496">
        <ele>1182</ele>
        <time>2019-05-05T03:21:48Z</time>
      </trkpt>
      <trkpt lat="46.46091" lon="6.07502">
        <ele>1182</ele>
        <time>2019-05-05T03:21:54Z</time>
      </trkpt>
      <trkpt lat="46.46085" lon="6.07504">
        <ele>1183</ele>
        <time>2019-05-05T03:21:59Z</time>
      </trkpt>
      <trkpt lat="46.46073" lon="6.07516">
        <ele>1183</ele>
        <time>2019-05-05T03:22:09Z</time>
      </trkpt>
      <trkpt lat="46.46061" lon="6.07522">
        <ele>1184</ele>
        <time>2019-05-05T03:22:18Z</time>
      </trkpt>
      <trkpt lat="46.46052" lon="6.07527">
        <ele>1185</ele>
        <time>2019-05-05T03:22:25Z</time>
      </trkpt>
      <trkpt lat="46.46045" lon="6.0753">
        <ele>1185</ele>
        <time>2019-05-05T03:22:30Z</time>
      </trkpt>
      <trkpt lat="46.46041" lon="6.07532">
        <ele>1186</ele>
        <time>2019-05-05T03:22:34Z</time>
      </trkpt>
      <trkpt lat="46.46034" lon="6.0754">
        <ele>1186</ele>
        <time>2019-05-05T03:22:40Z</time>
      </trkpt>
      <trkpt lat="46.46022" lon="6.07554">
        <ele>1187</ele>
        <time>2019-05-05T03:22:51Z</time>
      </trkpt>
      <trkpt lat="46.46013" lon="6.07563">
        <ele>1188</ele>
        <time>2019-05-05T03:22:59Z</time>
      </trkpt>
      <trkpt lat="46.46006" lon="6.07571">
        <ele>1188</ele>
        <time>2019-05-05T03:23:06Z</time>
      </trkpt>
      <trkpt lat="46.45991" lon="6.07587">
        <ele>1189</ele>
        <time>2019-05-05T03:23:19Z</time>
      </trkpt>
      <trkpt lat="46.45982" lon="6.07597">
        <ele>1189</ele>
        <time>2019-05-05T03:23:27Z</time>
      </trkpt>
      <trkpt lat="46.45966" lon="6.07614">
        <ele>1189</ele>
        <time>2019-05-05T03:23:42Z</time>
      </trkpt>
      <trkpt lat="46.45957" lon="6.07625">
        <ele>1190</ele>
        <time>2019-05-05T03:23:50Z</time>
      </trkpt>
      <trkpt lat="46.45952" lon="6.07631">
        <ele>1190</ele>
        <time>2019-05-05T03:23:55Z</time>
      </trkpt>
      <trkpt lat="46.45937" lon="6.07647">
        <ele>1190</ele>
        <time>2019-05-05T03:24:08Z</time>
      </trkpt>
      <trkpt lat="46.45927" lon="6.07658">
        <ele>1191</ele>
        <time>2019-05-05T03:24:17Z</time>
      </trkpt>
      <trkpt lat="46.45922" lon="6.07666">
        <ele>1191</ele>
        <time>2019-05-05T03:24:23Z</time>
      </trkpt>
      <trkpt lat="46.45907" lon="6.07682">
        <ele>1192</ele>
        <time>2019-05-05T03:24:36Z</time>
      </trkpt>
      <trkpt lat="46.45897" lon="6.07694">
        <ele>1193</ele>
        <time>2019-05-05T03:24:45Z</time>
      </trkpt>
      <trkpt lat="46.45882" lon="6.07712">
        <ele>1195</ele>
        <time>2019-05-05T03:24:59Z</time>
      </trkpt>
      <trkpt lat="46.45868" lon="6.07731">
        <ele>1197</ele>
        <time>2019-05-05T03:25:13Z</time>
      </trkpt>
      <trkpt lat="46.45861" lon="6.07739">
        <ele>1198</ele>
        <time>2019-05-05T03:25:20Z</time>
      </trkpt>
      <trkpt lat="46.45857" lon="6.07743">
        <ele>1199</ele>
        <time>2019-05-05T03:25:24Z</time>
      </trkpt>
      <trkpt lat="46.45844" lon="6.07763">
        <ele>1200</ele>
        <time>2019-05-05T03:25:37Z</time>
      </trkpt>
      <trkpt lat="46.45841" lon="6.07768">
        <ele>1201</ele>
        <time>2019-05-05T03:25:41Z</time>
      </trkpt>
      <trkpt lat="46.45837" lon="6.07776">
        <ele>1201</ele>
        <time>2019-05-05T03:25:45Z</time>
      </trkpt>
      <trkpt lat="46.45832" lon="6.07787">
        <ele>1201</ele>
        <time>2019-05-05T03:25:52Z</time>
      </trkpt>
      <trkpt lat="46.45827" lon="6.07797">
        <ele>1202</ele>
        <time>2019-05-05T03:25:58Z</time>
      </trkpt>
      <trkpt lat="46.45814" lon="6.07814">
        <ele>1202</ele>
        <time>2019-05-05T03:26:11Z</time>
      </trkpt>
      <trkpt lat="46.45811" lon="6.07817">
        <ele>1202</ele>
        <time>2019-05-05T03:26:14Z</time>
      </trkpt>
      <trkpt lat="46.45807" lon="6.07824">
        <ele>1203</ele>
        <time>2019-05-05T03:26:18Z</time>
      </trkpt>
      <trkpt lat="46.45801" lon="6.07838">
        <ele>1203</ele>
        <time>2019-05-05T03:26:27Z</time>
      </trkpt>
      <trkpt lat="46.45791" lon="6.0786">
        <ele>1205</ele>
        <time>2019-05-05T03:26:40Z</time>
      </trkpt>
      <trkpt lat="46.45784" lon="6.07876">
        <ele>1207</ele>
        <time>2019-05-05T03:26:49Z</time>
      </trkpt>
      <trkpt lat="46.45781" lon="6.07887">
        <ele>1209</ele>
        <time>2019-05-05T03:26:55Z</time>
      </trkpt>
      <trkpt lat="46.45778" lon="6.07895">
        <ele>1210</ele>
        <time>2019-05-05T03:27:00Z</time>
      </trkpt>
      <trkpt lat="46.45771" lon="6.07905">
        <ele>1211</ele>
        <time>2019-05-05T03:27:07Z</time>
      </trkpt>
      <trkpt lat="46.45768" lon="6.07907">
        <ele>1210</ele>
        <time>2019-05-05T03:27:09Z</time>
      </trkpt>
      <trkpt lat="46.45767" lon="6.07909">
        <ele>1211</ele>
        <time>2019-05-05T03:27:11Z</time>
      </trkpt>
      <trkpt lat="46.45765" lon="6.0791">
        <ele>1211</ele>
        <time>2019-05-05T03:27:12Z</time>
      </trkpt>
      <trkpt lat="46.45759" lon="6.0792">
        <ele>1211</ele>
        <time>2019-05-05T03:27:19Z</time>
      </trkpt>
      <trkpt lat="46.45754" lon="6.0793">
        <ele>1212</ele>
        <time>2019-05-05T03:27:25Z</time>
      </trkpt>
      <trkpt lat="46.45752" lon="6.07933">
        <ele>1212</ele>
        <time>2019-05-05T03:27:27Z</time>
      </trkpt>
      <trkpt lat="46.45752" lon="6.07933">
        <ele>1212</ele>
        <time>2019-05-05T03:27:27Z</time>
      </trkpt>
      <trkpt lat="46.45749" lon="6.07936">
        <ele>1212</ele>
        <time>2019-05-05T03:27:30Z</time>
      </trkpt>
      <trkpt lat="46.45747" lon="6.07938">
        <ele>1212</ele>
        <time>2019-05-05T03:27:32Z</time>
      </trkpt>
      <trkpt lat="46.45747" lon="6.0794">
        <ele>1212</ele>
        <time>2019-05-05T03:27:33Z</time>
      </trkpt>
      <trkpt lat="46.45746" lon="6.07942">
        <ele>1212</ele>
        <time>2019-05-05T03:27:33Z</time>
      </trkpt>
      <trkpt lat="46.45746" lon="6.07947">
        <ele>1213</ele>
        <time>2019-05-05T03:27:36Z</time>
      </trkpt>
      <trkpt lat="46.45745" lon="6.07953">
        <ele>1213</ele>
        <time>2019-05-05T03:27:39Z</time>
      </trkpt>
      <trkpt lat="46.45743" lon="6.07957">
        <ele>1214</ele>
        <time>2019-05-05T03:27:42Z</time>
      </trkpt>
      <trkpt lat="46.45739" lon="6.07971">
        <ele>1215</ele>
        <time>2019-05-05T03:27:49Z</time>
      </trkpt>
      <trkpt lat="46.45736" lon="6.0798">
        <ele>1216</ele>
        <time>2019-05-05T03:27:54Z</time>
      </trkpt>
      <trkpt lat="46.45729" lon="6.08006">
        <ele>1217</ele>
        <time>2019-05-05T03:28:08Z</time>
      </trkpt>
      <trkpt lat="46.45724" lon="6.08022">
        <ele>1218</ele>
        <time>2019-05-05T03:28:17Z</time>
      </trkpt>
      <trkpt lat="46.45718" lon="6.08048">
        <ele>1219</ele>
        <time>2019-05-05T03:28:30Z</time>
      </trkpt>
      <trkpt lat="46.45713" lon="6.08067">
        <ele>1219</ele>
        <time>2019-05-05T03:28:41Z</time>
      </trkpt>
      <trkpt lat="46.45709" lon="6.08092">
        <ele>1219</ele>
        <time>2019-05-05T03:28:54Z</time>
      </trkpt>
      <trkpt lat="46.45708" lon="6.08097">
        <ele>1219</ele>
        <time>2019-05-05T03:28:56Z</time>
      </trkpt>
      <trkpt lat="46.45707" lon="6.081">
        <ele>1219</ele>
        <time>2019-05-05T03:28:58Z</time>
      </trkpt>
      <trkpt lat="46.45704" lon="6.08101">
        <ele>1219</ele>
        <time>2019-05-05T03:29:00Z</time>
      </trkpt>
      <trkpt lat="46.45686" lon="6.08099">
        <ele>1217</ele>
        <time>2019-05-05T03:29:13Z</time>
      </trkpt>
      <trkpt lat="46.45674" lon="6.08093">
        <ele>1219</ele>
        <time>2019-05-05T03:29:23Z</time>
      </trkpt>
      <trkpt lat="46.45667" lon="6.08094">
        <ele>1221</ele>
        <time>2019-05-05T03:29:28Z</time>
      </trkpt>
      <trkpt lat="46.45652" lon="6.08078">
        <ele>1223</ele>
        <time>2019-05-05T03:29:41Z</time>
      </trkpt>
      <trkpt lat="46.45646" lon="6.08076">
        <ele>1224</ele>
        <time>2019-05-05T03:29:46Z</time>
      </trkpt>
      <trkpt lat="46.45644" lon="6.0806">
        <ele>1223</ele>
        <time>2019-05-05T03:29:54Z</time>
      </trkpt>
      <trkpt lat="46.45647" lon="6.08034">
        <ele>1220</ele>
        <time>2019-05-05T03:30:07Z</time>
      </trkpt>
      <trkpt lat="46.45647" lon="6.08008">
        <ele>1217</ele>
        <time>2019-05-05T03:30:20Z</time>
      </trkpt>
      <trkpt lat="46.45647" lon="6.07996">
        <ele>1216</ele>
        <time>2019-05-05T03:30:26Z</time>
      </trkpt>
      <trkpt lat="46.45638" lon="6.07974">
        <ele>1214</ele>
        <time>2019-05-05T03:30:39Z</time>
      </trkpt>
      <trkpt lat="46.4562" lon="6.07976">
        <ele>1216</ele>
        <time>2019-05-05T03:30:52Z</time>
      </trkpt>
      <trkpt lat="46.45617" lon="6.07978">
        <ele>1217</ele>
        <time>2019-05-05T03:30:54Z</time>
      </trkpt>
      <trkpt lat="46.456" lon="6.07988">
        <ele>1221</ele>
        <time>2019-05-05T03:31:08Z</time>
      </trkpt>
      <trkpt lat="46.45582" lon="6.0799">
        <ele>1224</ele>
        <time>2019-05-05T03:31:21Z</time>
      </trkpt>
      <trkpt lat="46.45579" lon="6.07991">
        <ele>1225</ele>
        <time>2019-05-05T03:31:23Z</time>
      </trkpt>
      <trkpt lat="46.45561" lon="6.07994">
        <ele>1229</ele>
        <time>2019-05-05T03:31:37Z</time>
      </trkpt>
      <trkpt lat="46.45555" lon="6.07993">
        <ele>1230</ele>
        <time>2019-05-05T03:31:41Z</time>
      </trkpt>
      <trkpt lat="46.4555" lon="6.07991">
        <ele>1230</ele>
        <time>2019-05-05T03:31:45Z</time>
      </trkpt>
      <trkpt lat="46.45532" lon="6.07984">
        <ele>1233</ele>
        <time>2019-05-05T03:31:58Z</time>
      </trkpt>
      <trkpt lat="46.4553" lon="6.07984">
        <ele>1233</ele>
        <time>2019-05-05T03:32:00Z</time>
      </trkpt>
      <trkpt lat="46.45522" lon="6.07982">
        <ele>1235</ele>
        <time>2019-05-05T03:32:06Z</time>
      </trkpt>
      <trkpt lat="46.45515" lon="6.0798">
        <ele>1235</ele>
        <time>2019-05-05T03:32:11Z</time>
      </trkpt>
      <trkpt lat="46.45511" lon="6.0798">
        <ele>1236</ele>
        <time>2019-05-05T03:32:14Z</time>
      </trkpt>
      <trkpt lat="46.45499" lon="6.07979">
        <ele>1238</ele>
        <time>2019-05-05T03:32:23Z</time>
      </trkpt>
      <trkpt lat="46.4549" lon="6.07976">
        <ele>1239</ele>
        <time>2019-05-05T03:32:29Z</time>
      </trkpt>
      <trkpt lat="46.45488" lon="6.07976">
        <ele>1240</ele>
        <time>2019-05-05T03:32:31Z</time>
      </trkpt>
      <trkpt lat="46.45484" lon="6.07979">
        <ele>1241</ele>
        <time>2019-05-05T03:32:34Z</time>
      </trkpt>
      <trkpt lat="46.45482" lon="6.0798">
        <ele>1241</ele>
        <time>2019-05-05T03:32:36Z</time>
      </trkpt>
      <trkpt lat="46.45478" lon="6.07981">
        <ele>1242</ele>
        <time>2019-05-05T03:32:38Z</time>
      </trkpt>
      <trkpt lat="46.45475" lon="6.07981">
        <ele>1242</ele>
        <time>2019-05-05T03:32:41Z</time>
      </trkpt>
      <trkpt lat="46.45472" lon="6.07981">
        <ele>1243</ele>
        <time>2019-05-05T03:32:43Z</time>
      </trkpt>
      <trkpt lat="46.45469" lon="6.07982">
        <ele>1243</ele>
        <time>2019-05-05T03:32:46Z</time>
      </trkpt>
      <trkpt lat="46.45458" lon="6.0799">
        <ele>1245</ele>
        <time>2019-05-05T03:32:54Z</time>
      </trkpt>
      <trkpt lat="46.45456" lon="6.07991">
        <ele>1246</ele>
        <time>2019-05-05T03:32:56Z</time>
      </trkpt>
      <trkpt lat="46.45452" lon="6.07995">
        <ele>1246</ele>
        <time>2019-05-05T03:32:59Z</time>
      </trkpt>
      <trkpt lat="46.45445" lon="6.08002">
        <ele>1248</ele>
        <time>2019-05-05T03:33:06Z</time>
      </trkpt>
      <trkpt lat="46.45444" lon="6.08002">
        <ele>1248</ele>
        <time>2019-05-05T03:33:07Z</time>
      </trkpt>
      <trkpt lat="46.45439" lon="6.08002">
        <ele>1249</ele>
        <time>2019-05-05T03:33:10Z</time>
      </trkpt>
      <trkpt lat="46.45437" lon="6.08003">
        <ele>1249</ele>
        <time>2019-05-05T03:33:12Z</time>
      </trkpt>
      <trkpt lat="46.45429" lon="6.08007">
        <ele>1250</ele>
        <time>2019-05-05T03:33:18Z</time>
      </trkpt>
      <trkpt lat="46.45425" lon="6.0801">
        <ele>1250</ele>
        <time>2019-05-05T03:33:21Z</time>
      </trkpt>
      <trkpt lat="46.45423" lon="6.0801">
        <ele>1251</ele>
        <time>2019-05-05T03:33:23Z</time>
      </trkpt>
      <trkpt lat="46.4542" lon="6.08011">
        <ele>1251</ele>
        <time>2019-05-05T03:33:25Z</time>
      </trkpt>
      <trkpt lat="46.45419" lon="6.08012">
        <ele>1251</ele>
        <time>2019-05-05T03:33:26Z</time>
      </trkpt>
      <trkpt lat="46.45412" lon="6.08017">
        <ele>1252</ele>
        <time>2019-05-05T03:33:32Z</time>
      </trkpt>
      <trkpt lat="46.45397" lon="6.08019">
        <ele>1254</ele>
        <time>2019-05-05T03:33:42Z</time>
      </trkpt>
      <trkpt lat="46.45394" lon="6.08021">
        <ele>1254</ele>
        <time>2019-05-05T03:33:45Z</time>
      </trkpt>
      <trkpt lat="46.45392" lon="6.08023">
        <ele>1255</ele>
        <time>2019-05-05T03:33:47Z</time>
      </trkpt>
      <trkpt lat="46.45388" lon="6.08026">
        <ele>1255</ele>
        <time>2019-05-05T03:33:50Z</time>
      </trkpt>
      <trkpt lat="46.45378" lon="6.0803">
        <ele>1256</ele>
        <time>2019-05-05T03:33:57Z</time>
      </trkpt>
      <trkpt lat="46.45369" lon="6.08037">
        <ele>1257</ele>
        <time>2019-05-05T03:34:05Z</time>
      </trkpt>
      <trkpt lat="46.45368" lon="6.08037">
        <ele>1257</ele>
        <time>2019-05-05T03:34:06Z</time>
      </trkpt>
      <trkpt lat="46.45365" lon="6.08038">
        <ele>1258</ele>
        <time>2019-05-05T03:34:08Z</time>
      </trkpt>
      <trkpt lat="46.45363" lon="6.08041">
        <ele>1258</ele>
        <time>2019-05-05T03:34:10Z</time>
      </trkpt>
      <trkpt lat="46.45361" lon="6.08043">
        <ele>1258</ele>
        <time>2019-05-05T03:34:11Z</time>
      </trkpt>
      <trkpt lat="46.45356" lon="6.08047">
        <ele>1258</ele>
        <time>2019-05-05T03:34:15Z</time>
      </trkpt>
      <trkpt lat="46.45351" lon="6.0805">
        <ele>1258</ele>
        <time>2019-05-05T03:34:19Z</time>
      </trkpt>
      <trkpt lat="46.45342" lon="6.08056">
        <ele>1257</ele>
        <time>2019-05-05T03:34:26Z</time>
      </trkpt>
      <trkpt lat="46.4534" lon="6.08058">
        <ele>1257</ele>
        <time>2019-05-05T03:34:28Z</time>
      </trkpt>
      <trkpt lat="46.45335" lon="6.08062">
        <ele>1257</ele>
        <time>2019-05-05T03:34:33Z</time>
      </trkpt>
      <trkpt lat="46.45314" lon="6.08071">
        <ele>1256</ele>
        <time>2019-05-05T03:34:48Z</time>
      </trkpt>
      <trkpt lat="46.45304" lon="6.08076">
        <ele>1255</ele>
        <time>2019-05-05T03:34:56Z</time>
      </trkpt>
      <trkpt lat="46.45295" lon="6.0809">
        <ele>1254</ele>
        <time>2019-05-05T03:35:06Z</time>
      </trkpt>
      <trkpt lat="46.45286" lon="6.08101">
        <ele>1253</ele>
        <time>2019-05-05T03:35:14Z</time>
      </trkpt>
      <trkpt lat="46.45285" lon="6.08103">
        <ele>1253</ele>
        <time>2019-05-05T03:35:15Z</time>
      </trkpt>
      <trkpt lat="46.45267" lon="6.08117">
        <ele>1253</ele>
        <time>2019-05-05T03:35:30Z</time>
      </trkpt>
      <trkpt lat="46.45259" lon="6.08125">
        <ele>1253</ele>
        <time>2019-05-05T03:35:37Z</time>
      </trkpt>
      <trkpt lat="46.45243" lon="6.08139">
        <ele>1253</ele>
        <time>2019-05-05T03:35:51Z</time>
      </trkpt>
      <trkpt lat="46.45225" lon="6.08154">
        <ele>1253</ele>
        <time>2019-05-05T03:36:05Z</time>
      </trkpt>
      <trkpt lat="46.4521" lon="6.08165">
        <ele>1252</ele>
        <time>2019-05-05T03:36:18Z</time>
      </trkpt>
      <trkpt lat="46.45191" lon="6.08173">
        <ele>1251</ele>
        <time>2019-05-05T03:36:32Z</time>
      </trkpt>
      <trkpt lat="46.4517" lon="6.08183">
        <ele>1251</ele>
        <time>2019-05-05T03:36:48Z</time>
      </trkpt>
      <trkpt lat="46.45153" lon="6.08195">
        <ele>1250</ele>
        <time>2019-05-05T03:37:02Z</time>
      </trkpt>
      <trkpt lat="46.45137" lon="6.08213">
        <ele>1250</ele>
        <time>2019-05-05T03:37:16Z</time>
      </trkpt>
      <trkpt lat="46.45123" lon="6.08234">
        <ele>1250</ele>
        <time>2019-05-05T03:37:30Z</time>
      </trkpt>
      <trkpt lat="46.45113" lon="6.08256">
        <ele>1249</ele>
        <time>2019-05-05T03:37:44Z</time>
      </trkpt>
      <trkpt lat="46.45104" lon="6.0828">
        <ele>1249</ele>
        <time>2019-05-05T03:37:58Z</time>
      </trkpt>
      <trkpt lat="46.45104" lon="6.08289">
        <ele>1250</ele>
        <time>2019-05-05T03:38:02Z</time>
      </trkpt>
      <trkpt lat="46.45103" lon="6.08295">
        <ele>1250</ele>
        <time>2019-05-05T03:38:05Z</time>
      </trkpt>
      <trkpt lat="46.45101" lon="6.08311">
        <ele>1251</ele>
        <time>2019-05-05T03:38:13Z</time>
      </trkpt>
      <trkpt lat="46.45097" lon="6.08337">
        <ele>1252</ele>
        <time>2019-05-05T03:38:27Z</time>
      </trkpt>
      <trkpt lat="46.45095" lon="6.08343">
        <ele>1252</ele>
        <time>2019-05-05T03:38:30Z</time>
      </trkpt>
      <trkpt lat="46.45092" lon="6.08353">
        <ele>1252</ele>
        <time>2019-05-05T03:38:35Z</time>
      </trkpt>
      <trkpt lat="46.45083" lon="6.08368">
        <ele>1251</ele>
        <time>2019-05-05T03:38:45Z</time>
      </trkpt>
      <trkpt lat="46.45071" lon="6.08389">
        <ele>1250</ele>
        <time>2019-05-05T03:38:59Z</time>
      </trkpt>
      <trkpt lat="46.45061" lon="6.08413">
        <ele>1250</ele>
        <time>2019-05-05T03:39:13Z</time>
      </trkpt>
      <trkpt lat="46.45056" lon="6.08421">
        <ele>1249</ele>
        <time>2019-05-05T03:39:18Z</time>
      </trkpt>
      <trkpt lat="46.45045" lon="6.08443">
        <ele>1249</ele>
        <time>2019-05-05T03:39:32Z</time>
      </trkpt>
      <trkpt lat="46.45041" lon="6.08448">
        <ele>1249</ele>
        <time>2019-05-05T03:39:36Z</time>
      </trkpt>
      <trkpt lat="46.45029" lon="6.08468">
        <ele>1248</ele>
        <time>2019-05-05T03:39:49Z</time>
      </trkpt>
      <trkpt lat="46.45016" lon="6.08489">
        <ele>1248</ele>
        <time>2019-05-05T03:40:03Z</time>
      </trkpt>
      <trkpt lat="46.45006" lon="6.08513">
        <ele>1249</ele>
        <time>2019-05-05T03:40:17Z</time>
      </trkpt>
      <trkpt lat="46.45005" lon="6.08516">
        <ele>1249</ele>
        <time>2019-05-05T03:40:18Z</time>
      </trkpt>
      <trkpt lat="46.45" lon="6.08542">
        <ele>1250</ele>
        <time>2019-05-05T03:40:32Z</time>
      </trkpt>
      <trkpt lat="46.44993" lon="6.08569">
        <ele>1250</ele>
        <time>2019-05-05T03:40:46Z</time>
      </trkpt>
      <trkpt lat="46.44988" lon="6.08595">
        <ele>1251</ele>
        <time>2019-05-05T03:41:00Z</time>
      </trkpt>
      <trkpt lat="46.44983" lon="6.08609">
        <ele>1251</ele>
        <time>2019-05-05T03:41:07Z</time>
      </trkpt>
      <trkpt lat="46.4497" lon="6.08624">
        <ele>1250</ele>
        <time>2019-05-05T03:41:20Z</time>
      </trkpt>
      <trkpt lat="46.44962" lon="6.08622">
        <ele>1249</ele>
        <time>2019-05-05T03:41:26Z</time>
      </trkpt>
      <trkpt lat="46.44945" lon="6.08615">
        <ele>1247</ele>
        <time>2019-05-05T03:41:39Z</time>
      </trkpt>
      <trkpt lat="46.44939" lon="6.08608">
        <ele>1246</ele>
        <time>2019-05-05T03:41:44Z</time>
      </trkpt>
      <trkpt lat="46.44924" lon="6.08603">
        <ele>1243</ele>
        <time>2019-05-05T03:41:55Z</time>
      </trkpt>
      <trkpt lat="46.44914" lon="6.08585">
        <ele>1241</ele>
        <time>2019-05-05T03:42:06Z</time>
      </trkpt>
      <trkpt lat="46.44909" lon="6.08575">
        <ele>1240</ele>
        <time>2019-05-05T03:42:13Z</time>
      </trkpt>
      <trkpt lat="46.44902" lon="6.08563">
        <ele>1239</ele>
        <time>2019-05-05T03:42:21Z</time>
      </trkpt>
      <trkpt lat="46.44886" lon="6.0855">
        <ele>1238</ele>
        <time>2019-05-05T03:42:34Z</time>
      </trkpt>
      <trkpt lat="46.44884" lon="6.08548">
        <ele>1237</ele>
        <time>2019-05-05T03:42:36Z</time>
      </trkpt>
      <trkpt lat="46.44871" lon="6.08529">
        <ele>1237</ele>
        <time>2019-05-05T03:42:49Z</time>
      </trkpt>
      <trkpt lat="46.44869" lon="6.08518">
        <ele>1237</ele>
        <time>2019-05-05T03:42:55Z</time>
      </trkpt>
      <trkpt lat="46.44866" lon="6.08501">
        <ele>1236</ele>
        <time>2019-05-05T03:43:03Z</time>
      </trkpt>
      <trkpt lat="46.44855" lon="6.08479">
        <ele>1236</ele>
        <time>2019-05-05T03:43:17Z</time>
      </trkpt>
      <trkpt lat="46.44844" lon="6.08462">
        <ele>1236</ele>
        <time>2019-05-05T03:43:29Z</time>
      </trkpt>
      <trkpt lat="46.44842" lon="6.08461">
        <ele>1236</ele>
        <time>2019-05-05T03:43:30Z</time>
      </trkpt>
      <trkpt lat="46.4484" lon="6.08464">
        <ele>1236</ele>
        <time>2019-05-05T03:43:32Z</time>
      </trkpt>
      <trkpt lat="46.44839" lon="6.08465">
        <ele>1236</ele>
        <time>2019-05-05T03:43:33Z</time>
      </trkpt>
      <trkpt lat="46.44837" lon="6.08468">
        <ele>1236</ele>
        <time>2019-05-05T03:43:35Z</time>
      </trkpt>
      <trkpt lat="46.44837" lon="6.0847">
        <ele>1236</ele>
        <time>2019-05-05T03:43:36Z</time>
      </trkpt>
      <trkpt lat="46.44838" lon="6.08478">
        <ele>1236</ele>
        <time>2019-05-05T03:43:41Z</time>
      </trkpt>
      <trkpt lat="46.44836" lon="6.08499">
        <ele>1235</ele>
        <time>2019-05-05T03:43:51Z</time>
      </trkpt>
      <trkpt lat="46.44834" lon="6.08502">
        <ele>1235</ele>
        <time>2019-05-05T03:43:53Z</time>
      </trkpt>
      <trkpt lat="46.44832" lon="6.08502">
        <ele>1235</ele>
        <time>2019-05-05T03:43:54Z</time>
      </trkpt>
      <trkpt lat="46.44827" lon="6.08508">
        <ele>1235</ele>
        <time>2019-05-05T03:43:59Z</time>
      </trkpt>
      <trkpt lat="46.44826" lon="6.08513">
        <ele>1235</ele>
        <time>2019-05-05T03:44:02Z</time>
      </trkpt>
      <trkpt lat="46.44813" lon="6.08523">
        <ele>1234</ele>
        <time>2019-05-05T03:44:12Z</time>
      </trkpt>
      <trkpt lat="46.44803" lon="6.08527">
        <ele>1234</ele>
        <time>2019-05-05T03:44:20Z</time>
      </trkpt>
      <trkpt lat="46.44798" lon="6.08532">
        <ele>1233</ele>
        <time>2019-05-05T03:44:24Z</time>
      </trkpt>
      <trkpt lat="46.44781" lon="6.08542">
        <ele>1232</ele>
        <time>2019-05-05T03:44:38Z</time>
      </trkpt>
      <trkpt lat="46.44771" lon="6.08564">
        <ele>1230</ele>
        <time>2019-05-05T03:44:51Z</time>
      </trkpt>
      <trkpt lat="46.44763" lon="6.08589">
        <ele>1228</ele>
        <time>2019-05-05T03:45:04Z</time>
      </trkpt>
      <trkpt lat="46.44748" lon="6.08604">
        <ele>1229</ele>
        <time>2019-05-05T03:45:18Z</time>
      </trkpt>
      <trkpt lat="46.44742" lon="6.08616">
        <ele>1230</ele>
        <time>2019-05-05T03:45:25Z</time>
      </trkpt>
      <trkpt lat="46.44732" lon="6.08639">
        <ele>1232</ele>
        <time>2019-05-05T03:45:39Z</time>
      </trkpt>
      <trkpt lat="46.44726" lon="6.08663">
        <ele>1233</ele>
        <time>2019-05-05T03:45:52Z</time>
      </trkpt>
      <trkpt lat="46.44728" lon="6.08691">
        <ele>1235</ele>
        <time>2019-05-05T03:46:06Z</time>
      </trkpt>
      <trkpt lat="46.44733" lon="6.08716">
        <ele>1235</ele>
        <time>2019-05-05T03:46:18Z</time>
      </trkpt>
      <trkpt lat="46.44732" lon="6.08744">
        <ele>1236</ele>
        <time>2019-05-05T03:46:33Z</time>
      </trkpt>
      <trkpt lat="46.44733" lon="6.0877">
        <ele>1237</ele>
        <time>2019-05-05T03:46:46Z</time>
      </trkpt>
      <trkpt lat="46.44734" lon="6.08777">
        <ele>1237</ele>
        <time>2019-05-05T03:46:49Z</time>
      </trkpt>
      <trkpt lat="46.44735" lon="6.08805">
        <ele>1236</ele>
        <time>2019-05-05T03:47:03Z</time>
      </trkpt>
      <trkpt lat="46.44738" lon="6.0883">
        <ele>1235</ele>
        <time>2019-05-05T03:47:16Z</time>
      </trkpt>
      <trkpt lat="46.44748" lon="6.08853">
        <ele>1235</ele>
        <time>2019-05-05T03:47:29Z</time>
      </trkpt>
      <trkpt lat="46.4475" lon="6.08864">
        <ele>1235</ele>
        <time>2019-05-05T03:47:35Z</time>
      </trkpt>
      <trkpt lat="46.44748" lon="6.08883">
        <ele>1235</ele>
        <time>2019-05-05T03:47:45Z</time>
      </trkpt>
      <trkpt lat="46.44746" lon="6.0891">
        <ele>1236</ele>
        <time>2019-05-05T03:47:58Z</time>
      </trkpt>
      <trkpt lat="46.44745" lon="6.08926">
        <ele>1236</ele>
        <time>2019-05-05T03:48:06Z</time>
      </trkpt>
      <trkpt lat="46.44745" lon="6.08932">
        <ele>1236</ele>
        <time>2019-05-05T03:48:09Z</time>
      </trkpt>
      <trkpt lat="46.44746" lon="6.08956">
        <ele>1236</ele>
        <time>2019-05-05T03:48:21Z</time>
      </trkpt>
      <trkpt lat="46.44745" lon="6.0898">
        <ele>1237</ele>
        <time>2019-05-05T03:48:33Z</time>
      </trkpt>
      <trkpt lat="46.44744" lon="6.08986">
        <ele>1237</ele>
        <time>2019-05-05T03:48:36Z</time>
      </trkpt>
      <trkpt lat="46.4474" lon="6.09012">
        <ele>1237</ele>
        <time>2019-05-05T03:48:50Z</time>
      </trkpt>
      <trkpt lat="46.44738" lon="6.09038">
        <ele>1237</ele>
        <time>2019-05-05T03:49:03Z</time>
      </trkpt>
      <trkpt lat="46.44737" lon="6.0904">
        <ele>1237</ele>
        <time>2019-05-05T03:49:04Z</time>
      </trkpt>
      <trkpt lat="46.44737" lon="6.09041">
        <ele>1237</ele>
        <time>2019-05-05T03:49:04Z</time>
      </trkpt>
      <trkpt lat="46.44738" lon="6.09048">
        <ele>1237</ele>
        <time>2019-05-05T03:49:08Z</time>
      </trkpt>
      <trkpt lat="46.4474" lon="6.09076">
        <ele>1238</ele>
        <time>2019-05-05T03:49:22Z</time>
      </trkpt>
      <trkpt lat="46.44741" lon="6.09085">
        <ele>1238</ele>
        <time>2019-05-05T03:49:27Z</time>
      </trkpt>
      <trkpt lat="46.44743" lon="6.0911">
        <ele>1238</ele>
        <time>2019-05-05T03:49:39Z</time>
      </trkpt>
      <trkpt lat="46.44734" lon="6.09134">
        <ele>1240</ele>
        <time>2019-05-05T03:49:52Z</time>
      </trkpt>
      <trkpt lat="46.44728" lon="6.09161">
        <ele>1242</ele>
        <time>2019-05-05T03:50:07Z</time>
      </trkpt>
      <trkpt lat="46.44728" lon="6.09165">
        <ele>1242</ele>
        <time>2019-05-05T03:50:09Z</time>
      </trkpt>
      <trkpt lat="46.44726" lon="6.09184">
        <ele>1243</ele>
        <time>2019-05-05T03:50:18Z</time>
      </trkpt>
      <trkpt lat="46.44726" lon="6.09197">
        <ele>1244</ele>
        <time>2019-05-05T03:50:25Z</time>
      </trkpt>
      <trkpt lat="46.44722" lon="6.09222">
        <ele>1245</ele>
        <time>2019-05-05T03:50:38Z</time>
      </trkpt>
      <trkpt lat="46.44715" lon="6.09226">
        <ele>1246</ele>
        <time>2019-05-05T03:50:43Z</time>
      </trkpt>
      <trkpt lat="46.44713" lon="6.09226">
        <ele>1246</ele>
        <time>2019-05-05T03:50:44Z</time>
      </trkpt>
      <trkpt lat="46.44705" lon="6.09221">
        <ele>1247</ele>
        <time>2019-05-05T03:50:50Z</time>
      </trkpt>
      <trkpt lat="46.44696" lon="6.09198">
        <ele>1247</ele>
        <time>2019-05-05T03:51:04Z</time>
      </trkpt>
      <trkpt lat="46.44691" lon="6.09181">
        <ele>1247</ele>
        <time>2019-05-05T03:51:13Z</time>
      </trkpt>
      <trkpt lat="46.44682" lon="6.09155">
        <ele>1245</ele>
        <time>2019-05-05T03:51:27Z</time>
      </trkpt>
      <trkpt lat="46.44671" lon="6.09133">
        <ele>1245</ele>
        <time>2019-05-05T03:51:41Z</time>
      </trkpt>
      <trkpt lat="46.44666" lon="6.09124">
        <ele>1244</ele>
        <time>2019-05-05T03:51:47Z</time>
      </trkpt>
      <trkpt lat="46.44653" lon="6.09104">
        <ele>1244</ele>
        <time>2019-05-05T03:52:01Z</time>
      </trkpt>
      <trkpt lat="46.44638" lon="6.09086">
        <ele>1244</ele>
        <time>2019-05-05T03:52:14Z</time>
      </trkpt>
      <trkpt lat="46.44619" lon="6.09077">
        <ele>1245</ele>
        <time>2019-05-05T03:52:29Z</time>
      </trkpt>
      <trkpt lat="46.44606" lon="6.0906">
        <ele>1244</ele>
        <time>2019-05-05T03:52:42Z</time>
      </trkpt>
      <trkpt lat="46.44591" lon="6.09042">
        <ele>1242</ele>
        <time>2019-05-05T03:52:56Z</time>
      </trkpt>
      <trkpt lat="46.44587" lon="6.09037">
        <ele>1242</ele>
        <time>2019-05-05T03:53:00Z</time>
      </trkpt>
      <trkpt lat="46.44574" lon="6.09018">
        <ele>1240</ele>
        <time>2019-05-05T03:53:14Z</time>
      </trkpt>
      <trkpt lat="46.44561" lon="6.08998">
        <ele>1239</ele>
        <time>2019-05-05T03:53:27Z</time>
      </trkpt>
      <trkpt lat="46.44552" lon="6.08976">
        <ele>1237</ele>
        <time>2019-05-05T03:53:40Z</time>
      </trkpt>
      <trkpt lat="46.44547" lon="6.08959">
        <ele>1236</ele>
        <time>2019-05-05T03:53:49Z</time>
      </trkpt>
      <trkpt lat="46.44544" lon="6.08933">
        <ele>1235</ele>
        <time>2019-05-05T03:54:02Z</time>
      </trkpt>
      <trkpt lat="46.44537" lon="6.08915">
        <ele>1234</ele>
        <time>2019-05-05T03:54:12Z</time>
      </trkpt>
      <trkpt lat="46.44528" lon="6.08892">
        <ele>1234</ele>
        <time>2019-05-05T03:54:26Z</time>
      </trkpt>
      <trkpt lat="46.44518" lon="6.08867">
        <ele>1233</ele>
        <time>2019-05-05T03:54:40Z</time>
      </trkpt>
      <trkpt lat="46.44506" lon="6.08844">
        <ele>1233</ele>
        <time>2019-05-05T03:54:54Z</time>
      </trkpt>
      <trkpt lat="46.44494" lon="6.08822">
        <ele>1234</ele>
        <time>2019-05-05T03:55:09Z</time>
      </trkpt>
      <trkpt lat="46.44477" lon="6.08817">
        <ele>1234</ele>
        <time>2019-05-05T03:55:21Z</time>
      </trkpt>
      <trkpt lat="46.44459" lon="6.08819">
        <ele>1235</ele>
        <time>2019-05-05T03:55:34Z</time>
      </trkpt>
      <trkpt lat="46.44441" lon="6.0881">
        <ele>1234</ele>
        <time>2019-05-05T03:55:48Z</time>
      </trkpt>
      <trkpt lat="46.44426" lon="6.08794">
        <ele>1235</ele>
        <time>2019-05-05T03:56:01Z</time>
      </trkpt>
      <trkpt lat="46.44415" lon="6.08787">
        <ele>1235</ele>
        <time>2019-05-05T03:56:10Z</time>
      </trkpt>
      <trkpt lat="46.44397" lon="6.08774">
        <ele>1236</ele>
        <time>2019-05-05T03:56:24Z</time>
      </trkpt>
      <trkpt lat="46.44393" lon="6.0877">
        <ele>1236</ele>
        <time>2019-05-05T03:56:28Z</time>
      </trkpt>
      <trkpt lat="46.4438" lon="6.08752">
        <ele>1237</ele>
        <time>2019-05-05T03:56:41Z</time>
      </trkpt>
      <trkpt lat="46.44365" lon="6.08736">
        <ele>1238</ele>
        <time>2019-05-05T03:56:55Z</time>
      </trkpt>
      <trkpt lat="46.44354" lon="6.0872">
        <ele>1238</ele>
        <time>2019-05-05T03:57:05Z</time>
      </trkpt>
      <trkpt lat="46.44349" lon="6.08712">
        <ele>1239</ele>
        <time>2019-05-05T03:57:11Z</time>
      </trkpt>
      <trkpt lat="46.44352" lon="6.0872">
        <ele>1239</ele>
        <time>2019-05-05T03:57:16Z</time>
      </trkpt>
      <trkpt lat="46.4435" lon="6.08734">
        <ele>1240</ele>
        <time>2019-05-05T03:57:23Z</time>
      </trkpt>
      <trkpt lat="46.4435" lon="6.08741">
        <ele>1240</ele>
        <time>2019-05-05T03:57:26Z</time>
      </trkpt>
      <trkpt lat="46.44349" lon="6.0877">
        <ele>1242</ele>
        <time>2019-05-05T03:57:41Z</time>
      </trkpt>
      <trkpt lat="46.44349" lon="6.08771">
        <ele>1242</ele>
        <time>2019-05-05T03:57:41Z</time>
      </trkpt>
      <trkpt lat="46.44347" lon="6.08775">
        <ele>1242</ele>
        <time>2019-05-05T03:57:44Z</time>
      </trkpt>
      <trkpt lat="46.44345" lon="6.08782">
        <ele>1243</ele>
        <time>2019-05-05T03:57:48Z</time>
      </trkpt>
      <trkpt lat="46.44343" lon="6.08788">
        <ele>1244</ele>
        <time>2019-05-05T03:57:51Z</time>
      </trkpt>
      <trkpt lat="46.44341" lon="6.08793">
        <ele>1244</ele>
        <time>2019-05-05T03:57:54Z</time>
      </trkpt>
      <trkpt lat="46.44338" lon="6.08807">
        <ele>1245</ele>
        <time>2019-05-05T03:58:01Z</time>
      </trkpt>
      <trkpt lat="46.44336" lon="6.08814">
        <ele>1246</ele>
        <time>2019-05-05T03:58:05Z</time>
      </trkpt>
      <trkpt lat="46.44329" lon="6.0884">
        <ele>1248</ele>
        <time>2019-05-05T03:58:19Z</time>
      </trkpt>
      <trkpt lat="46.44319" lon="6.08861">
        <ele>1250</ele>
        <time>2019-05-05T03:58:32Z</time>
      </trkpt>
      <trkpt lat="46.44311" lon="6.08875">
        <ele>1251</ele>
        <time>2019-05-05T03:58:41Z</time>
      </trkpt>
      <trkpt lat="46.44306" lon="6.08895">
        <ele>1251</ele>
        <time>2019-05-05T03:58:52Z</time>
      </trkpt>
      <trkpt lat="46.443" lon="6.08918">
        <ele>1252</ele>
        <time>2019-05-05T03:59:04Z</time>
      </trkpt>
      <trkpt lat="46.44298" lon="6.08924">
        <ele>1252</ele>
        <time>2019-05-05T03:59:08Z</time>
      </trkpt>
      <trkpt lat="46.44297" lon="6.08926">
        <ele>1252</ele>
        <time>2019-05-05T03:59:09Z</time>
      </trkpt>
      <trkpt lat="46.44296" lon="6.0893">
        <ele>1252</ele>
        <time>2019-05-05T03:59:11Z</time>
      </trkpt>
      <trkpt lat="46.44286" lon="6.08953">
        <ele>1253</ele>
        <time>2019-05-05T03:59:24Z</time>
      </trkpt>
      <trkpt lat="46.44284" lon="6.08954">
        <ele>1253</ele>
        <time>2019-05-05T03:59:25Z</time>
      </trkpt>
      <trkpt lat="46.44279" lon="6.08962">
        <ele>1254</ele>
        <time>2019-05-05T03:59:31Z</time>
      </trkpt>
      <trkpt lat="46.44268" lon="6.08985">
        <ele>1255</ele>
        <time>2019-05-05T03:59:45Z</time>
      </trkpt>
      <trkpt lat="46.44266" lon="6.08991">
        <ele>1255</ele>
        <time>2019-05-05T03:59:48Z</time>
      </trkpt>
      <trkpt lat="46.44254" lon="6.0901">
        <ele>1256</ele>
        <time>2019-05-05T04:00:01Z</time>
      </trkpt>
      <trkpt lat="46.44252" lon="6.09013">
        <ele>1256</ele>
        <time>2019-05-05T04:00:03Z</time>
      </trkpt>
      <trkpt lat="46.44244" lon="6.09037">
        <ele>1258</ele>
        <time>2019-05-05T04:00:17Z</time>
      </trkpt>
      <trkpt lat="46.44238" lon="6.09062">
        <ele>1260</ele>
        <time>2019-05-05T04:00:30Z</time>
      </trkpt>
      <trkpt lat="46.44236" lon="6.09067">
        <ele>1260</ele>
        <time>2019-05-05T04:00:33Z</time>
      </trkpt>
      <trkpt lat="46.44233" lon="6.09073">
        <ele>1261</ele>
        <time>2019-05-05T04:00:37Z</time>
      </trkpt>
      <trkpt lat="46.44228" lon="6.09077">
        <ele>1261</ele>
        <time>2019-05-05T04:00:41Z</time>
      </trkpt>
      <trkpt lat="46.44224" lon="6.09081">
        <ele>1262</ele>
        <time>2019-05-05T04:00:44Z</time>
      </trkpt>
      <trkpt lat="46.44218" lon="6.09087">
        <ele>1263</ele>
        <time>2019-05-05T04:00:49Z</time>
      </trkpt>
      <trkpt lat="46.44215" lon="6.09093">
        <ele>1264</ele>
        <time>2019-05-05T04:00:53Z</time>
      </trkpt>
      <trkpt lat="46.44212" lon="6.09096">
        <ele>1264</ele>
        <time>2019-05-05T04:00:56Z</time>
      </trkpt>
      <trkpt lat="46.44205" lon="6.09103">
        <ele>1265</ele>
        <time>2019-05-05T04:01:02Z</time>
      </trkpt>
      <trkpt lat="46.44197" lon="6.09113">
        <ele>1267</ele>
        <time>2019-05-05T04:01:10Z</time>
      </trkpt>
      <trkpt lat="46.44192" lon="6.09117">
        <ele>1267</ele>
        <time>2019-05-05T04:01:14Z</time>
      </trkpt>
      <trkpt lat="46.44188" lon="6.0912">
        <ele>1268</ele>
        <time>2019-05-05T04:01:17Z</time>
      </trkpt>
      <trkpt lat="46.44176" lon="6.09133">
        <ele>1270</ele>
        <time>2019-05-05T04:01:28Z</time>
      </trkpt>
      <trkpt lat="46.44167" lon="6.09144">
        <ele>1271</ele>
        <time>2019-05-05T04:01:36Z</time>
      </trkpt>
      <trkpt lat="46.44162" lon="6.09148">
        <ele>1272</ele>
        <time>2019-05-05T04:01:41Z</time>
      </trkpt>
      <trkpt lat="46.44158" lon="6.09151">
        <ele>1272</ele>
        <time>2019-05-05T04:01:44Z</time>
      </trkpt>
      <trkpt lat="46.44152" lon="6.09157">
        <ele>1274</ele>
        <time>2019-05-05T04:01:50Z</time>
      </trkpt>
      <trkpt lat="46.44146" lon="6.0916">
        <ele>1274</ele>
        <time>2019-05-05T04:01:54Z</time>
      </trkpt>
      <trkpt lat="46.44142" lon="6.0916">
        <ele>1275</ele>
        <time>2019-05-05T04:01:57Z</time>
      </trkpt>
      <trkpt lat="46.44137" lon="6.0916">
        <ele>1275</ele>
        <time>2019-05-05T04:02:00Z</time>
      </trkpt>
      <trkpt lat="46.44134" lon="6.09159">
        <ele>1276</ele>
        <time>2019-05-05T04:02:03Z</time>
      </trkpt>
      <trkpt lat="46.44129" lon="6.09161">
        <ele>1277</ele>
        <time>2019-05-05T04:02:07Z</time>
      </trkpt>
      <trkpt lat="46.44124" lon="6.09164">
        <ele>1277</ele>
        <time>2019-05-05T04:02:11Z</time>
      </trkpt>
      <trkpt lat="46.44121" lon="6.09165">
        <ele>1278</ele>
        <time>2019-05-05T04:02:13Z</time>
      </trkpt>
      <trkpt lat="46.44115" lon="6.09168">
        <ele>1279</ele>
        <time>2019-05-05T04:02:18Z</time>
      </trkpt>
      <trkpt lat="46.44109" lon="6.09173">
        <ele>1280</ele>
        <time>2019-05-05T04:02:23Z</time>
      </trkpt>
      <trkpt lat="46.44102" lon="6.09178">
        <ele>1281</ele>
        <time>2019-05-05T04:02:28Z</time>
      </trkpt>
      <trkpt lat="46.44095" lon="6.09188">
        <ele>1282</ele>
        <time>2019-05-05T04:02:35Z</time>
      </trkpt>
      <trkpt lat="46.44086" lon="6.09197">
        <ele>1284</ele>
        <time>2019-05-05T04:02:43Z</time>
      </trkpt>
      <trkpt lat="46.44075" lon="6.09197">
        <ele>1286</ele>
        <time>2019-05-05T04:02:51Z</time>
      </trkpt>
      <trkpt lat="46.44068" lon="6.092">
        <ele>1288</ele>
        <time>2019-05-05T04:02:56Z</time>
      </trkpt>
      <trkpt lat="46.44063" lon="6.092">
        <ele>1289</ele>
        <time>2019-05-05T04:03:01Z</time>
      </trkpt>
      <trkpt lat="46.44057" lon="6.09202">
        <ele>1290</ele>
        <time>2019-05-05T04:03:05Z</time>
      </trkpt>
      <trkpt lat="46.44052" lon="6.09206">
        <ele>1291</ele>
        <time>2019-05-05T04:03:09Z</time>
      </trkpt>
      <trkpt lat="46.44037" lon="6.09221">
        <ele>1294</ele>
        <time>2019-05-05T04:03:22Z</time>
      </trkpt>
      <trkpt lat="46.4403" lon="6.09224">
        <ele>1296</ele>
        <time>2019-05-05T04:03:28Z</time>
      </trkpt>
      <trkpt lat="46.44024" lon="6.09225">
        <ele>1297</ele>
        <time>2019-05-05T04:03:32Z</time>
      </trkpt>
      <trkpt lat="46.44019" lon="6.09228">
        <ele>1299</ele>
        <time>2019-05-05T04:03:36Z</time>
      </trkpt>
      <trkpt lat="46.44008" lon="6.0923">
        <ele>1302</ele>
        <time>2019-05-05T04:03:44Z</time>
      </trkpt>
      <trkpt lat="46.44003" lon="6.0923">
        <ele>1304</ele>
        <time>2019-05-05T04:03:49Z</time>
      </trkpt>
      <trkpt lat="46.44" lon="6.0923">
        <ele>1304</ele>
        <time>2019-05-05T04:03:51Z</time>
      </trkpt>
      <trkpt lat="46.43996" lon="6.09228">
        <ele>1305</ele>
        <time>2019-05-05T04:03:54Z</time>
      </trkpt>
      <trkpt lat="46.43993" lon="6.09227">
        <ele>1306</ele>
        <time>2019-05-05T04:03:56Z</time>
      </trkpt>
      <trkpt lat="46.4399" lon="6.09226">
        <ele>1307</ele>
        <time>2019-05-05T04:03:58Z</time>
      </trkpt>
      <trkpt lat="46.43987" lon="6.09227">
        <ele>1308</ele>
        <time>2019-05-05T04:04:01Z</time>
      </trkpt>
      <trkpt lat="46.43981" lon="6.09228">
        <ele>1310</ele>
        <time>2019-05-05T04:04:06Z</time>
      </trkpt>
      <trkpt lat="46.4398" lon="6.09228">
        <ele>1310</ele>
        <time>2019-05-05T04:04:06Z</time>
      </trkpt>
      <trkpt lat="46.43978" lon="6.09229">
        <ele>1311</ele>
        <time>2019-05-05T04:04:08Z</time>
      </trkpt>
      <trkpt lat="46.43977" lon="6.0923">
        <ele>1311</ele>
        <time>2019-05-05T04:04:08Z</time>
      </trkpt>
      <trkpt lat="46.43976" lon="6.0923">
        <ele>1311</ele>
        <time>2019-05-05T04:04:09Z</time>
      </trkpt>
      <trkpt lat="46.43975" lon="6.09231">
        <ele>1312</ele>
        <time>2019-05-05T04:04:10Z</time>
      </trkpt>
      <trkpt lat="46.43974" lon="6.09231">
        <ele>1312</ele>
        <time>2019-05-05T04:04:11Z</time>
      </trkpt>
      <trkpt lat="46.43972" lon="6.09231">
        <ele>1313</ele>
        <time>2019-05-05T04:04:12Z</time>
      </trkpt>
      <trkpt lat="46.43969" lon="6.0923">
        <ele>1313</ele>
        <time>2019-05-05T04:04:14Z</time>
      </trkpt>
      <trkpt lat="46.43969" lon="6.0923">
        <ele>1314</ele>
        <time>2019-05-05T04:04:15Z</time>
      </trkpt>
      <trkpt lat="46.43963" lon="6.09233">
        <ele>1315</ele>
        <time>2019-05-05T04:04:19Z</time>
      </trkpt>
      <trkpt lat="46.43958" lon="6.09231">
        <ele>1317</ele>
        <time>2019-05-05T04:04:24Z</time>
      </trkpt>
      <trkpt lat="46.43954" lon="6.09231">
        <ele>1318</ele>
        <time>2019-05-05T04:04:26Z</time>
      </trkpt>
      <trkpt lat="46.43953" lon="6.09232">
        <ele>1318</ele>
        <time>2019-05-05T04:04:27Z</time>
      </trkpt>
      <trkpt lat="46.43952" lon="6.09232">
        <ele>1319</ele>
        <time>2019-05-05T04:04:28Z</time>
      </trkpt>
      <trkpt lat="46.43949" lon="6.09233">
        <ele>1320</ele>
        <time>2019-05-05T04:04:31Z</time>
      </trkpt>
      <trkpt lat="46.43946" lon="6.09231">
        <ele>1321</ele>
        <time>2019-05-05T04:04:33Z</time>
      </trkpt>
      <trkpt lat="46.43941" lon="6.09229">
        <ele>1322</ele>
        <time>2019-05-05T04:04:37Z</time>
      </trkpt>
      <trkpt lat="46.43936" lon="6.09225">
        <ele>1323</ele>
        <time>2019-05-05T04:04:41Z</time>
      </trkpt>
      <trkpt lat="46.4393" lon="6.09219">
        <ele>1324</ele>
        <time>2019-05-05T04:04:46Z</time>
      </trkpt>
      <trkpt lat="46.43928" lon="6.09215">
        <ele>1324</ele>
        <time>2019-05-05T04:04:49Z</time>
      </trkpt>
      <trkpt lat="46.43926" lon="6.09214">
        <ele>1324</ele>
        <time>2019-05-05T04:04:50Z</time>
      </trkpt>
      <trkpt lat="46.43924" lon="6.09213">
        <ele>1325</ele>
        <time>2019-05-05T04:04:52Z</time>
      </trkpt>
      <trkpt lat="46.43921" lon="6.0921">
        <ele>1325</ele>
        <time>2019-05-05T04:04:55Z</time>
      </trkpt>
      <trkpt lat="46.43917" lon="6.09207">
        <ele>1326</ele>
        <time>2019-05-05T04:04:58Z</time>
      </trkpt>
      <trkpt lat="46.43907" lon="6.09196">
        <ele>1328</ele>
        <time>2019-05-05T04:05:07Z</time>
      </trkpt>
      <trkpt lat="46.43905" lon="6.09192">
        <ele>1328</ele>
        <time>2019-05-05T04:05:09Z</time>
      </trkpt>
      <trkpt lat="46.43901" lon="6.0919">
        <ele>1329</ele>
        <time>2019-05-05T04:05:12Z</time>
      </trkpt>
      <trkpt lat="46.43899" lon="6.09187">
        <ele>1329</ele>
        <time>2019-05-05T04:05:15Z</time>
      </trkpt>
      <trkpt lat="46.43894" lon="6.09184">
        <ele>1330</ele>
        <time>2019-05-05T04:05:18Z</time>
      </trkpt>
      <trkpt lat="46.43892" lon="6.09184">
        <ele>1331</ele>
        <time>2019-05-05T04:05:20Z</time>
      </trkpt>
      <trkpt lat="46.43878" lon="6.09184">
        <ele>1335</ele>
        <time>2019-05-05T04:05:30Z</time>
      </trkpt>
      <trkpt lat="46.43877" lon="6.09182">
        <ele>1335</ele>
        <time>2019-05-05T04:05:31Z</time>
      </trkpt>
      <trkpt lat="46.43875" lon="6.09181">
        <ele>1336</ele>
        <time>2019-05-05T04:05:33Z</time>
      </trkpt>
      <trkpt lat="46.43873" lon="6.09178">
        <ele>1336</ele>
        <time>2019-05-05T04:05:35Z</time>
      </trkpt>
      <trkpt lat="46.43871" lon="6.09175">
        <ele>1336</ele>
        <time>2019-05-05T04:05:37Z</time>
      </trkpt>
      <trkpt lat="46.4387" lon="6.09174">
        <ele>1336</ele>
        <time>2019-05-05T04:05:38Z</time>
      </trkpt>
      <trkpt lat="46.43869" lon="6.09173">
        <ele>1336</ele>
        <time>2019-05-05T04:05:39Z</time>
      </trkpt>
      <trkpt lat="46.43867" lon="6.09171">
        <ele>1337</ele>
        <time>2019-05-05T04:05:41Z</time>
      </trkpt>
      <trkpt lat="46.43865" lon="6.09169">
        <ele>1337</ele>
        <time>2019-05-05T04:05:43Z</time>
      </trkpt>
      <trkpt lat="46.43864" lon="6.09168">
        <ele>1338</ele>
        <time>2019-05-05T04:05:44Z</time>
      </trkpt>
      <trkpt lat="46.43859" lon="6.09165">
        <ele>1339</ele>
        <time>2019-05-05T04:05:48Z</time>
      </trkpt>
      <trkpt lat="46.43857" lon="6.09163">
        <ele>1339</ele>
        <time>2019-05-05T04:05:49Z</time>
      </trkpt>
      <trkpt lat="46.43855" lon="6.09159">
        <ele>1339</ele>
        <time>2019-05-05T04:05:52Z</time>
      </trkpt>
      <trkpt lat="46.43853" lon="6.09156">
        <ele>1339</ele>
        <time>2019-05-05T04:05:54Z</time>
      </trkpt>
      <trkpt lat="46.4385" lon="6.09158">
        <ele>1340</ele>
        <time>2019-05-05T04:05:57Z</time>
      </trkpt>
      <trkpt lat="46.43848" lon="6.09156">
        <ele>1340</ele>
        <time>2019-05-05T04:05:58Z</time>
      </trkpt>
      <trkpt lat="46.43846" lon="6.09154">
        <ele>1341</ele>
        <time>2019-05-05T04:06:00Z</time>
      </trkpt>
      <trkpt lat="46.43842" lon="6.09151">
        <ele>1341</ele>
        <time>2019-05-05T04:06:03Z</time>
      </trkpt>
      <trkpt lat="46.43839" lon="6.09148">
        <ele>1342</ele>
        <time>2019-05-05T04:06:06Z</time>
      </trkpt>
      <trkpt lat="46.43836" lon="6.09147">
        <ele>1342</ele>
        <time>2019-05-05T04:06:08Z</time>
      </trkpt>
      <trkpt lat="46.43831" lon="6.09145">
        <ele>1343</ele>
        <time>2019-05-05T04:06:12Z</time>
      </trkpt>
      <trkpt lat="46.4383" lon="6.09143">
        <ele>1343</ele>
        <time>2019-05-05T04:06:13Z</time>
      </trkpt>
      <trkpt lat="46.43829" lon="6.0914">
        <ele>1344</ele>
        <time>2019-05-05T04:06:15Z</time>
      </trkpt>
      <trkpt lat="46.43827" lon="6.09138">
        <ele>1344</ele>
        <time>2019-05-05T04:06:16Z</time>
      </trkpt>
      <trkpt lat="46.43822" lon="6.09127">
        <ele>1344</ele>
        <time>2019-05-05T04:06:23Z</time>
      </trkpt>
      <trkpt lat="46.43819" lon="6.09124">
        <ele>1344</ele>
        <time>2019-05-05T04:06:26Z</time>
      </trkpt>
      <trkpt lat="46.4381" lon="6.09124">
        <ele>1346</ele>
        <time>2019-05-05T04:06:32Z</time>
      </trkpt>
      <trkpt lat="46.438" lon="6.09111">
        <ele>1348</ele>
        <time>2019-05-05T04:06:42Z</time>
      </trkpt>
      <trkpt lat="46.43783" lon="6.09098">
        <ele>1350</ele>
        <time>2019-05-05T04:06:56Z</time>
      </trkpt>
      <trkpt lat="46.43781" lon="6.09097">
        <ele>1351</ele>
        <time>2019-05-05T04:06:57Z</time>
      </trkpt>
      <trkpt lat="46.43778" lon="6.09091">
        <ele>1351</ele>
        <time>2019-05-05T04:07:01Z</time>
      </trkpt>
      <trkpt lat="46.43772" lon="6.09084">
        <ele>1352</ele>
        <time>2019-05-05T04:07:07Z</time>
      </trkpt>
      <trkpt lat="46.43767" lon="6.09082">
        <ele>1353</ele>
        <time>2019-05-05T04:07:11Z</time>
      </trkpt>
      <trkpt lat="46.43764" lon="6.09079">
        <ele>1353</ele>
        <time>2019-05-05T04:07:13Z</time>
      </trkpt>
      <trkpt lat="46.43762" lon="6.09077">
        <ele>1353</ele>
        <time>2019-05-05T04:07:15Z</time>
      </trkpt>
      <trkpt lat="46.43753" lon="6.0907">
        <ele>1355</ele>
        <time>2019-05-05T04:07:23Z</time>
      </trkpt>
      <trkpt lat="46.4374" lon="6.0906">
        <ele>1357</ele>
        <time>2019-05-05T04:07:33Z</time>
      </trkpt>
      <trkpt lat="46.43739" lon="6.09058">
        <ele>1357</ele>
        <time>2019-05-05T04:07:34Z</time>
      </trkpt>
      <trkpt lat="46.43739" lon="6.09054">
        <ele>1356</ele>
        <time>2019-05-05T04:07:36Z</time>
      </trkpt>
      <trkpt lat="46.43737" lon="6.09054">
        <ele>1357</ele>
        <time>2019-05-05T04:07:38Z</time>
      </trkpt>
      <trkpt lat="46.43735" lon="6.09053">
        <ele>1357</ele>
        <time>2019-05-05T04:07:39Z</time>
      </trkpt>
      <trkpt lat="46.43732" lon="6.0905">
        <ele>1357</ele>
        <time>2019-05-05T04:07:42Z</time>
      </trkpt>
      <trkpt lat="46.43731" lon="6.09049">
        <ele>1357</ele>
        <time>2019-05-05T04:07:43Z</time>
      </trkpt>
      <trkpt lat="46.43726" lon="6.09045">
        <ele>1358</ele>
        <time>2019-05-05T04:07:47Z</time>
      </trkpt>
      <trkpt lat="46.43719" lon="6.09041">
        <ele>1359</ele>
        <time>2019-05-05T04:07:53Z</time>
      </trkpt>
      <trkpt lat="46.43717" lon="6.0904">
        <ele>1360</ele>
        <time>2019-05-05T04:07:54Z</time>
      </trkpt>
      <trkpt lat="46.43715" lon="6.09038">
        <ele>1360</ele>
        <time>2019-05-05T04:07:56Z</time>
      </trkpt>
      <trkpt lat="46.43703" lon="6.09039">
        <ele>1363</ele>
        <time>2019-05-05T04:08:05Z</time>
      </trkpt>
      <trkpt lat="46.437" lon="6.09039">
        <ele>1364</ele>
        <time>2019-05-05T04:08:07Z</time>
      </trkpt>
      <trkpt lat="46.43699" lon="6.09037">
        <ele>1364</ele>
        <time>2019-05-05T04:08:08Z</time>
      </trkpt>
      <trkpt lat="46.43699" lon="6.09037">
        <ele>1364</ele>
        <time>2019-05-05T04:08:08Z</time>
      </trkpt>
      <trkpt lat="46.43698" lon="6.09036">
        <ele>1364</ele>
        <time>2019-05-05T04:08:09Z</time>
      </trkpt>
      <trkpt lat="46.43697" lon="6.09036">
        <ele>1364</ele>
        <time>2019-05-05T04:08:10Z</time>
      </trkpt>
      <trkpt lat="46.43696" lon="6.09036">
        <ele>1364</ele>
        <time>2019-05-05T04:08:10Z</time>
      </trkpt>
      <trkpt lat="46.43695" lon="6.09035">
        <ele>1364</ele>
        <time>2019-05-05T04:08:11Z</time>
      </trkpt>
      <trkpt lat="46.43693" lon="6.09034">
        <ele>1364</ele>
        <time>2019-05-05T04:08:13Z</time>
      </trkpt>
      <trkpt lat="46.43691" lon="6.09033">
        <ele>1365</ele>
        <time>2019-05-05T04:08:14Z</time>
      </trkpt>
      <trkpt lat="46.43687" lon="6.09035">
        <ele>1366</ele>
        <time>2019-05-05T04:08:17Z</time>
      </trkpt>
      <trkpt lat="46.43684" lon="6.0903">
        <ele>1366</ele>
        <time>2019-05-05T04:08:21Z</time>
      </trkpt>
      <trkpt lat="46.43677" lon="6.09032">
        <ele>1367</ele>
        <time>2019-05-05T04:08:26Z</time>
      </trkpt>
      <trkpt lat="46.43676" lon="6.09031">
        <ele>1367</ele>
        <time>2019-05-05T04:08:27Z</time>
      </trkpt>
      <trkpt lat="46.43673" lon="6.09029">
        <ele>1367</ele>
        <time>2019-05-05T04:08:29Z</time>
      </trkpt>
      <trkpt lat="46.43673" lon="6.09028">
        <ele>1367</ele>
        <time>2019-05-05T04:08:30Z</time>
      </trkpt>
      <trkpt lat="46.43672" lon="6.09027">
        <ele>1367</ele>
        <time>2019-05-05T04:08:31Z</time>
      </trkpt>
      <trkpt lat="46.43671" lon="6.09025">
        <ele>1367</ele>
        <time>2019-05-05T04:08:32Z</time>
      </trkpt>
      <trkpt lat="46.43671" lon="6.09022">
        <ele>1367</ele>
        <time>2019-05-05T04:08:33Z</time>
      </trkpt>
      <trkpt lat="46.4367" lon="6.09021">
        <ele>1367</ele>
        <time>2019-05-05T04:08:35Z</time>
      </trkpt>
      <trkpt lat="46.43668" lon="6.09019">
        <ele>1367</ele>
        <time>2019-05-05T04:08:36Z</time>
      </trkpt>
      <trkpt lat="46.43664" lon="6.09021">
        <ele>1368</ele>
        <time>2019-05-05T04:08:39Z</time>
      </trkpt>
      <trkpt lat="46.43662" lon="6.09016">
        <ele>1368</ele>
        <time>2019-05-05T04:08:42Z</time>
      </trkpt>
      <trkpt lat="46.43662" lon="6.09015">
        <ele>1367</ele>
        <time>2019-05-05T04:08:42Z</time>
      </trkpt>
      <trkpt lat="46.43659" lon="6.0901">
        <ele>1367</ele>
        <time>2019-05-05T04:08:46Z</time>
      </trkpt>
      <trkpt lat="46.43657" lon="6.09009">
        <ele>1367</ele>
        <time>2019-05-05T04:08:47Z</time>
      </trkpt>
      <trkpt lat="46.43652" lon="6.09009">
        <ele>1368</ele>
        <time>2019-05-05T04:08:51Z</time>
      </trkpt>
      <trkpt lat="46.43646" lon="6.09006">
        <ele>1369</ele>
        <time>2019-05-05T04:08:55Z</time>
      </trkpt>
      <trkpt lat="46.43644" lon="6.09002">
        <ele>1369</ele>
        <time>2019-05-05T04:08:58Z</time>
      </trkpt>
      <trkpt lat="46.43644" lon="6.08996">
        <ele>1368</ele>
        <time>2019-05-05T04:09:01Z</time>
      </trkpt>
      <trkpt lat="46.43642" lon="6.08995">
        <ele>1368</ele>
        <time>2019-05-05T04:09:03Z</time>
      </trkpt>
      <trkpt lat="46.43631" lon="6.08986">
        <ele>1369</ele>
        <time>2019-05-05T04:09:12Z</time>
      </trkpt>
      <trkpt lat="46.4362" lon="6.08976">
        <ele>1369</ele>
        <time>2019-05-05T04:09:21Z</time>
      </trkpt>
      <trkpt lat="46.43617" lon="6.08979">
        <ele>1370</ele>
        <time>2019-05-05T04:09:24Z</time>
      </trkpt>
      <trkpt lat="46.43614" lon="6.08979">
        <ele>1371</ele>
        <time>2019-05-05T04:09:26Z</time>
      </trkpt>
      <trkpt lat="46.43609" lon="6.08979">
        <ele>1372</ele>
        <time>2019-05-05T04:09:30Z</time>
      </trkpt>
      <trkpt lat="46.43604" lon="6.08977">
        <ele>1373</ele>
        <time>2019-05-05T04:09:34Z</time>
      </trkpt>
      <trkpt lat="46.43601" lon="6.08979">
        <ele>1374</ele>
        <time>2019-05-05T04:09:36Z</time>
      </trkpt>
      <trkpt lat="46.43598" lon="6.08982">
        <ele>1375</ele>
        <time>2019-05-05T04:09:39Z</time>
      </trkpt>
      <trkpt lat="46.43598" lon="6.08982">
        <ele>1375</ele>
        <time>2019-05-05T04:09:39Z</time>
      </trkpt>
      <trkpt lat="46.43593" lon="6.08983">
        <ele>1377</ele>
        <time>2019-05-05T04:09:43Z</time>
      </trkpt>
      <trkpt lat="46.43587" lon="6.08981">
        <ele>1378</ele>
        <time>2019-05-05T04:09:47Z</time>
      </trkpt>
      <trkpt lat="46.43581" lon="6.08984">
        <ele>1380</ele>
        <time>2019-05-05T04:09:52Z</time>
      </trkpt>
      <trkpt lat="46.43578" lon="6.08984">
        <ele>1380</ele>
        <time>2019-05-05T04:09:54Z</time>
      </trkpt>
      <trkpt lat="46.43574" lon="6.08988">
        <ele>1382</ele>
        <time>2019-05-05T04:09:58Z</time>
      </trkpt>
      <trkpt lat="46.43568" lon="6.08994">
        <ele>1384</ele>
        <time>2019-05-05T04:10:03Z</time>
      </trkpt>
      <trkpt lat="46.43566" lon="6.08999">
        <ele>1385</ele>
        <time>2019-05-05T04:10:06Z</time>
      </trkpt>
      <trkpt lat="46.43565" lon="6.09004">
        <ele>1386</ele>
        <time>2019-05-05T04:10:09Z</time>
      </trkpt>
      <trkpt lat="46.43564" lon="6.09007">
        <ele>1387</ele>
        <time>2019-05-05T04:10:11Z</time>
      </trkpt>
      <trkpt lat="46.43561" lon="6.09011">
        <ele>1388</ele>
        <time>2019-05-05T04:10:14Z</time>
      </trkpt>
      <trkpt lat="46.4356" lon="6.09014">
        <ele>1388</ele>
        <time>2019-05-05T04:10:15Z</time>
      </trkpt>
      <trkpt lat="46.43557" lon="6.09019">
        <ele>1390</ele>
        <time>2019-05-05T04:10:19Z</time>
      </trkpt>
      <trkpt lat="46.43554" lon="6.09022">
        <ele>1391</ele>
        <time>2019-05-05T04:10:22Z</time>
      </trkpt>
      <trkpt lat="46.43552" lon="6.09024">
        <ele>1392</ele>
        <time>2019-05-05T04:10:23Z</time>
      </trkpt>
      <trkpt lat="46.4355" lon="6.09031">
        <ele>1393</ele>
        <time>2019-05-05T04:10:27Z</time>
      </trkpt>
      <trkpt lat="46.43548" lon="6.09034">
        <ele>1394</ele>
        <time>2019-05-05T04:10:29Z</time>
      </trkpt>
      <trkpt lat="46.43545" lon="6.09039">
        <ele>1395</ele>
        <time>2019-05-05T04:10:32Z</time>
      </trkpt>
      <trkpt lat="46.43541" lon="6.09044">
        <ele>1397</ele>
        <time>2019-05-05T04:10:36Z</time>
      </trkpt>
      <trkpt lat="46.43538" lon="6.09048">
        <ele>1398</ele>
        <time>2019-05-05T04:10:40Z</time>
      </trkpt>
      <trkpt lat="46.43536" lon="6.09052">
        <ele>1399</ele>
        <time>2019-05-05T04:10:42Z</time>
      </trkpt>
      <trkpt lat="46.43534" lon="6.09055">
        <ele>1399</ele>
        <time>2019-05-05T04:10:44Z</time>
      </trkpt>
      <trkpt lat="46.43532" lon="6.09059">
        <ele>1400</ele>
        <time>2019-05-05T04:10:47Z</time>
      </trkpt>
      <trkpt lat="46.43529" lon="6.09064">
        <ele>1401</ele>
        <time>2019-05-05T04:10:50Z</time>
      </trkpt>
      <trkpt lat="46.43527" lon="6.09066">
        <ele>1402</ele>
        <time>2019-05-05T04:10:52Z</time>
      </trkpt>
      <trkpt lat="46.43525" lon="6.0907">
        <ele>1403</ele>
        <time>2019-05-05T04:10:55Z</time>
      </trkpt>
      <trkpt lat="46.43522" lon="6.09073">
        <ele>1404</ele>
        <time>2019-05-05T04:10:57Z</time>
      </trkpt>
      <trkpt lat="46.4352" lon="6.09079">
        <ele>1405</ele>
        <time>2019-05-05T04:11:01Z</time>
      </trkpt>
      <trkpt lat="46.43518" lon="6.09083">
        <ele>1405</ele>
        <time>2019-05-05T04:11:03Z</time>
      </trkpt>
      <trkpt lat="46.43514" lon="6.09087">
        <ele>1407</ele>
        <time>2019-05-05T04:11:07Z</time>
      </trkpt>
      <trkpt lat="46.43508" lon="6.09096">
        <ele>1409</ele>
        <time>2019-05-05T04:11:13Z</time>
      </trkpt>
      <trkpt lat="46.43508" lon="6.09097">
        <ele>1409</ele>
        <time>2019-05-05T04:11:14Z</time>
      </trkpt>
      <trkpt lat="46.43506" lon="6.091">
        <ele>1409</ele>
        <time>2019-05-05T04:11:16Z</time>
      </trkpt>
      <trkpt lat="46.43504" lon="6.09105">
        <ele>1411</ele>
        <time>2019-05-05T04:11:19Z</time>
      </trkpt>
      <trkpt lat="46.43499" lon="6.09114">
        <ele>1413</ele>
        <time>2019-05-05T04:11:25Z</time>
      </trkpt>
      <trkpt lat="46.43496" lon="6.09121">
        <ele>1414</ele>
        <time>2019-05-05T04:11:29Z</time>
      </trkpt>
      <trkpt lat="46.43492" lon="6.09124">
        <ele>1415</ele>
        <time>2019-05-05T04:11:32Z</time>
      </trkpt>
      <trkpt lat="46.43492" lon="6.09125">
        <ele>1416</ele>
        <time>2019-05-05T04:11:33Z</time>
      </trkpt>
      <trkpt lat="46.43491" lon="6.09128">
        <ele>1416</ele>
        <time>2019-05-05T04:11:35Z</time>
      </trkpt>
      <trkpt lat="46.43492" lon="6.0913">
        <ele>1416</ele>
        <time>2019-05-05T04:11:36Z</time>
      </trkpt>
      <trkpt lat="46.43493" lon="6.09145">
        <ele>1418</ele>
        <time>2019-05-05T04:11:43Z</time>
      </trkpt>
      <trkpt lat="46.43492" lon="6.09148">
        <ele>1419</ele>
        <time>2019-05-05T04:11:45Z</time>
      </trkpt>
      <trkpt lat="46.43492" lon="6.09151">
        <ele>1419</ele>
        <time>2019-05-05T04:11:47Z</time>
      </trkpt>
      <trkpt lat="46.43486" lon="6.09156">
        <ele>1421</ele>
        <time>2019-05-05T04:11:51Z</time>
      </trkpt>
      <trkpt lat="46.43483" lon="6.09162">
        <ele>1423</ele>
        <time>2019-05-05T04:11:55Z</time>
      </trkpt>
      <trkpt lat="46.43484" lon="6.09167">
        <ele>1423</ele>
        <time>2019-05-05T04:11:58Z</time>
      </trkpt>
      <trkpt lat="46.43481" lon="6.09179">
        <ele>1425</ele>
        <time>2019-05-05T04:12:04Z</time>
      </trkpt>
      <trkpt lat="46.43482" lon="6.09186">
        <ele>1426</ele>
        <time>2019-05-05T04:12:08Z</time>
      </trkpt>
      <trkpt lat="46.43482" lon="6.09193">
        <ele>1427</ele>
        <time>2019-05-05T04:12:11Z</time>
      </trkpt>
      <trkpt lat="46.43479" lon="6.09202">
        <ele>1428</ele>
        <time>2019-05-05T04:12:17Z</time>
      </trkpt>
      <trkpt lat="46.43479" lon="6.0921">
        <ele>1429</ele>
        <time>2019-05-05T04:12:20Z</time>
      </trkpt>
      <trkpt lat="46.43477" lon="6.09215">
        <ele>1430</ele>
        <time>2019-05-05T04:12:23Z</time>
      </trkpt>
      <trkpt lat="46.43472" lon="6.09225">
        <ele>1432</ele>
        <time>2019-05-05T04:12:29Z</time>
      </trkpt>
      <trkpt lat="46.43472" lon="6.09228">
        <ele>1432</ele>
        <time>2019-05-05T04:12:31Z</time>
      </trkpt>
      <trkpt lat="46.4347" lon="6.09233">
        <ele>1433</ele>
        <time>2019-05-05T04:12:34Z</time>
      </trkpt>
      <trkpt lat="46.43468" lon="6.09236">
        <ele>1434</ele>
        <time>2019-05-05T04:12:36Z</time>
      </trkpt>
      <trkpt lat="46.43467" lon="6.09239">
        <ele>1434</ele>
        <time>2019-05-05T04:12:38Z</time>
      </trkpt>
      <trkpt lat="46.43467" lon="6.09243">
        <ele>1435</ele>
        <time>2019-05-05T04:12:40Z</time>
      </trkpt>
      <trkpt lat="46.43465" lon="6.09246">
        <ele>1435</ele>
        <time>2019-05-05T04:12:42Z</time>
      </trkpt>
      <trkpt lat="46.43463" lon="6.09256">
        <ele>1437</ele>
        <time>2019-05-05T04:12:47Z</time>
      </trkpt>
      <trkpt lat="46.43463" lon="6.09259">
        <ele>1437</ele>
        <time>2019-05-05T04:12:49Z</time>
      </trkpt>
      <trkpt lat="46.43462" lon="6.0927">
        <ele>1438</ele>
        <time>2019-05-05T04:12:55Z</time>
      </trkpt>
      <trkpt lat="46.43456" lon="6.09274">
        <ele>1439</ele>
        <time>2019-05-05T04:12:59Z</time>
      </trkpt>
      <trkpt lat="46.43454" lon="6.09275">
        <ele>1440</ele>
        <time>2019-05-05T04:13:01Z</time>
      </trkpt>
      <trkpt lat="46.43452" lon="6.09276">
        <ele>1440</ele>
        <time>2019-05-05T04:13:03Z</time>
      </trkpt>
      <trkpt lat="46.4345" lon="6.09258">
        <ele>1440</ele>
        <time>2019-05-05T04:13:11Z</time>
      </trkpt>
      <trkpt lat="46.43449" lon="6.09256">
        <ele>1439</ele>
        <time>2019-05-05T04:13:13Z</time>
      </trkpt>
      <trkpt lat="46.43446" lon="6.09248">
        <ele>1439</ele>
        <time>2019-05-05T04:13:17Z</time>
      </trkpt>
      <trkpt lat="46.43446" lon="6.09245">
        <ele>1439</ele>
        <time>2019-05-05T04:13:19Z</time>
      </trkpt>
      <trkpt lat="46.43445" lon="6.09243">
        <ele>1439</ele>
        <time>2019-05-05T04:13:20Z</time>
      </trkpt>
      <trkpt lat="46.43444" lon="6.09244">
        <ele>1439</ele>
        <time>2019-05-05T04:13:21Z</time>
      </trkpt>
      <trkpt lat="46.43445" lon="6.09233">
        <ele>1438</ele>
        <time>2019-05-05T04:13:27Z</time>
      </trkpt>
      <trkpt lat="46.43445" lon="6.09226">
        <ele>1438</ele>
        <time>2019-05-05T04:13:30Z</time>
      </trkpt>
      <trkpt lat="46.4344" lon="6.09223">
        <ele>1438</ele>
        <time>2019-05-05T04:13:34Z</time>
      </trkpt>
      <trkpt lat="46.43439" lon="6.09223">
        <ele>1439</ele>
        <time>2019-05-05T04:13:35Z</time>
      </trkpt>
      <trkpt lat="46.43436" lon="6.09225">
        <ele>1439</ele>
        <time>2019-05-05T04:13:37Z</time>
      </trkpt>
      <trkpt lat="46.43436" lon="6.09227">
        <ele>1439</ele>
        <time>2019-05-05T04:13:38Z</time>
      </trkpt>
      <trkpt lat="46.43434" lon="6.09228">
        <ele>1440</ele>
        <time>2019-05-05T04:13:39Z</time>
      </trkpt>
      <trkpt lat="46.43432" lon="6.09229">
        <ele>1440</ele>
        <time>2019-05-05T04:13:41Z</time>
      </trkpt>
      <trkpt lat="46.43431" lon="6.09229">
        <ele>1440</ele>
        <time>2019-05-05T04:13:42Z</time>
      </trkpt>
      <trkpt lat="46.4343" lon="6.09229">
        <ele>1441</ele>
        <time>2019-05-05T04:13:43Z</time>
      </trkpt>
      <trkpt lat="46.43428" lon="6.0923">
        <ele>1441</ele>
        <time>2019-05-05T04:13:45Z</time>
      </trkpt>
      <trkpt lat="46.43427" lon="6.0923">
        <ele>1441</ele>
        <time>2019-05-05T04:13:45Z</time>
      </trkpt>
      <trkpt lat="46.43427" lon="6.0923">
        <ele>1441</ele>
        <time>2019-05-05T04:13:45Z</time>
      </trkpt>
      <trkpt lat="46.43426" lon="6.09233">
        <ele>1441</ele>
        <time>2019-05-05T04:13:47Z</time>
      </trkpt>
      <trkpt lat="46.43423" lon="6.09236">
        <ele>1442</ele>
        <time>2019-05-05T04:13:50Z</time>
      </trkpt>
      <trkpt lat="46.43419" lon="6.09237">
        <ele>1443</ele>
        <time>2019-05-05T04:13:52Z</time>
      </trkpt>
      <trkpt lat="46.43416" lon="6.09238">
        <ele>1444</ele>
        <time>2019-05-05T04:13:55Z</time>
      </trkpt>
      <trkpt lat="46.4341" lon="6.09237">
        <ele>1445</ele>
        <time>2019-05-05T04:13:59Z</time>
      </trkpt>
      <trkpt lat="46.43407" lon="6.09246">
        <ele>1446</ele>
        <time>2019-05-05T04:14:04Z</time>
      </trkpt>
      <trkpt lat="46.43406" lon="6.09246">
        <ele>1446</ele>
        <time>2019-05-05T04:14:05Z</time>
      </trkpt>
      <trkpt lat="46.43406" lon="6.09245">
        <ele>1446</ele>
        <time>2019-05-05T04:14:05Z</time>
      </trkpt>
      <trkpt lat="46.4341" lon="6.09256">
        <ele>1447</ele>
        <time>2019-05-05T04:14:12Z</time>
      </trkpt>
      <trkpt lat="46.43412" lon="6.09261">
        <ele>1447</ele>
        <time>2019-05-05T04:14:15Z</time>
      </trkpt>
      <trkpt lat="46.43422" lon="6.09277">
        <ele>1446</ele>
        <time>2019-05-05T04:14:25Z</time>
      </trkpt>
      <trkpt lat="46.43425" lon="6.09286">
        <ele>1446</ele>
        <time>2019-05-05T04:14:30Z</time>
      </trkpt>
      <trkpt lat="46.4343" lon="6.09293">
        <ele>1446</ele>
        <time>2019-05-05T04:14:35Z</time>
      </trkpt>
      <trkpt lat="46.43436" lon="6.09298">
        <ele>1445</ele>
        <time>2019-05-05T04:14:41Z</time>
      </trkpt>
      <trkpt lat="46.43439" lon="6.093">
        <ele>1444</ele>
        <time>2019-05-05T04:14:43Z</time>
      </trkpt>
      <trkpt lat="46.4344" lon="6.09302">
        <ele>1444</ele>
        <time>2019-05-05T04:14:44Z</time>
      </trkpt>
      <trkpt lat="46.43444" lon="6.0931">
        <ele>1444</ele>
        <time>2019-05-05T04:14:49Z</time>
      </trkpt>
      <trkpt lat="46.43445" lon="6.09315">
        <ele>1444</ele>
        <time>2019-05-05T04:14:52Z</time>
      </trkpt>
      <trkpt lat="46.43446" lon="6.09319">
        <ele>1444</ele>
        <time>2019-05-05T04:14:54Z</time>
      </trkpt>
      <trkpt lat="46.43439" lon="6.09331">
        <ele>1446</ele>
        <time>2019-05-05T04:15:02Z</time>
      </trkpt>
      <trkpt lat="46.43438" lon="6.09334">
        <ele>1446</ele>
        <time>2019-05-05T04:15:03Z</time>
      </trkpt>
      <trkpt lat="46.43436" lon="6.09344">
        <ele>1447</ele>
        <time>2019-05-05T04:15:08Z</time>
      </trkpt>
      <trkpt lat="46.43434" lon="6.09352">
        <ele>1448</ele>
        <time>2019-05-05T04:15:13Z</time>
      </trkpt>
      <trkpt lat="46.43427" lon="6.09366">
        <ele>1450</ele>
        <time>2019-05-05T04:15:22Z</time>
      </trkpt>
      <trkpt lat="46.43421" lon="6.09383">
        <ele>1451</ele>
        <time>2019-05-05T04:15:31Z</time>
      </trkpt>
      <trkpt lat="46.43417" lon="6.094">
        <ele>1453</ele>
        <time>2019-05-05T04:15:40Z</time>
      </trkpt>
      <trkpt lat="46.43415" lon="6.09404">
        <ele>1453</ele>
        <time>2019-05-05T04:15:43Z</time>
      </trkpt>
      <trkpt lat="46.4341" lon="6.09413">
        <ele>1454</ele>
        <time>2019-05-05T04:15:48Z</time>
      </trkpt>
      <trkpt lat="46.434" lon="6.09426">
        <ele>1455</ele>
        <time>2019-05-05T04:15:58Z</time>
      </trkpt>
      <trkpt lat="46.43394" lon="6.09436">
        <ele>1456</ele>
        <time>2019-05-05T04:16:05Z</time>
      </trkpt>
      <trkpt lat="46.43393" lon="6.09443">
        <ele>1456</ele>
        <time>2019-05-05T04:16:08Z</time>
      </trkpt>
      <trkpt lat="46.43388" lon="6.09449">
        <ele>1456</ele>
        <time>2019-05-05T04:16:13Z</time>
      </trkpt>
      <trkpt lat="46.43383" lon="6.09453">
        <ele>1457</ele>
        <time>2019-05-05T04:16:17Z</time>
      </trkpt>
      <trkpt lat="46.43379" lon="6.09456">
        <ele>1457</ele>
        <time>2019-05-05T04:16:20Z</time>
      </trkpt>
      <trkpt lat="46.43376" lon="6.09458">
        <ele>1457</ele>
        <time>2019-05-05T04:16:22Z</time>
      </trkpt>
      <trkpt lat="46.43376" lon="6.09459">
        <ele>1457</ele>
        <time>2019-05-05T04:16:23Z</time>
      </trkpt>
      <trkpt lat="46.43374" lon="6.09461">
        <ele>1457</ele>
        <time>2019-05-05T04:16:25Z</time>
      </trkpt>
      <trkpt lat="46.43356" lon="6.0947">
        <ele>1458</ele>
        <time>2019-05-05T04:16:38Z</time>
      </trkpt>
      <trkpt lat="46.43349" lon="6.09479">
        <ele>1458</ele>
        <time>2019-05-05T04:16:45Z</time>
      </trkpt>
      <trkpt lat="46.43338" lon="6.09493">
        <ele>1459</ele>
        <time>2019-05-05T04:16:56Z</time>
      </trkpt>
      <trkpt lat="46.43331" lon="6.09507">
        <ele>1460</ele>
        <time>2019-05-05T04:17:05Z</time>
      </trkpt>
      <trkpt lat="46.4333" lon="6.09511">
        <ele>1460</ele>
        <time>2019-05-05T04:17:07Z</time>
      </trkpt>
      <trkpt lat="46.43324" lon="6.0953">
        <ele>1461</ele>
        <time>2019-05-05T04:17:17Z</time>
      </trkpt>
      <trkpt lat="46.43324" lon="6.09532">
        <ele>1461</ele>
        <time>2019-05-05T04:17:18Z</time>
      </trkpt>
      <trkpt lat="46.43322" lon="6.09536">
        <ele>1462</ele>
        <time>2019-05-05T04:17:21Z</time>
      </trkpt>
      <trkpt lat="46.4332" lon="6.09539">
        <ele>1462</ele>
        <time>2019-05-05T04:17:23Z</time>
      </trkpt>
      <trkpt lat="46.43317" lon="6.0954">
        <ele>1463</ele>
        <time>2019-05-05T04:17:25Z</time>
      </trkpt>
      <trkpt lat="46.43316" lon="6.0954">
        <ele>1463</ele>
        <time>2019-05-05T04:17:26Z</time>
      </trkpt>
      <trkpt lat="46.43312" lon="6.09542">
        <ele>1464</ele>
        <time>2019-05-05T04:17:28Z</time>
      </trkpt>
      <trkpt lat="46.43309" lon="6.09547">
        <ele>1465</ele>
        <time>2019-05-05T04:17:32Z</time>
      </trkpt>
      <trkpt lat="46.43308" lon="6.09552">
        <ele>1465</ele>
        <time>2019-05-05T04:17:35Z</time>
      </trkpt>
      <trkpt lat="46.43302" lon="6.0956">
        <ele>1467</ele>
        <time>2019-05-05T04:17:41Z</time>
      </trkpt>
      <trkpt lat="46.433" lon="6.09563">
        <ele>1467</ele>
        <time>2019-05-05T04:17:43Z</time>
      </trkpt>
      <trkpt lat="46.43299" lon="6.09565">
        <ele>1468</ele>
        <time>2019-05-05T04:17:44Z</time>
      </trkpt>
      <trkpt lat="46.43296" lon="6.09568">
        <ele>1468</ele>
        <time>2019-05-05T04:17:47Z</time>
      </trkpt>
      <trkpt lat="46.43294" lon="6.09571">
        <ele>1469</ele>
        <time>2019-05-05T04:17:49Z</time>
      </trkpt>
      <trkpt lat="46.43292" lon="6.09574">
        <ele>1469</ele>
        <time>2019-05-05T04:17:51Z</time>
      </trkpt>
      <trkpt lat="46.4329" lon="6.09576">
        <ele>1470</ele>
        <time>2019-05-05T04:17:53Z</time>
      </trkpt>
      <trkpt lat="46.43288" lon="6.09583">
        <ele>1471</ele>
        <time>2019-05-05T04:17:56Z</time>
      </trkpt>
      <trkpt lat="46.43286" lon="6.09586">
        <ele>1471</ele>
        <time>2019-05-05T04:17:59Z</time>
      </trkpt>
      <trkpt lat="46.43279" lon="6.09599">
        <ele>1474</ele>
        <time>2019-05-05T04:18:07Z</time>
      </trkpt>
      <trkpt lat="46.4327" lon="6.09613">
        <ele>1475</ele>
        <time>2019-05-05T04:18:16Z</time>
      </trkpt>
      <trkpt lat="46.43266" lon="6.09618">
        <ele>1475</ele>
        <time>2019-05-05T04:18:20Z</time>
      </trkpt>
      <trkpt lat="46.43264" lon="6.09625">
        <ele>1475</ele>
        <time>2019-05-05T04:18:24Z</time>
      </trkpt>
      <trkpt lat="46.43261" lon="6.09628">
        <ele>1476</ele>
        <time>2019-05-05T04:18:27Z</time>
      </trkpt>
      <trkpt lat="46.43259" lon="6.0963">
        <ele>1476</ele>
        <time>2019-05-05T04:18:29Z</time>
      </trkpt>
      <trkpt lat="46.43257" lon="6.0963">
        <ele>1476</ele>
        <time>2019-05-05T04:18:30Z</time>
      </trkpt>
      <trkpt lat="46.43254" lon="6.09633">
        <ele>1476</ele>
        <time>2019-05-05T04:18:32Z</time>
      </trkpt>
      <trkpt lat="46.43251" lon="6.09636">
        <ele>1476</ele>
        <time>2019-05-05T04:18:35Z</time>
      </trkpt>
      <trkpt lat="46.43247" lon="6.09639">
        <ele>1476</ele>
        <time>2019-05-05T04:18:39Z</time>
      </trkpt>
      <trkpt lat="46.43242" lon="6.09646">
        <ele>1477</ele>
        <time>2019-05-05T04:18:44Z</time>
      </trkpt>
      <trkpt lat="46.43237" lon="6.09655">
        <ele>1477</ele>
        <time>2019-05-05T04:18:49Z</time>
      </trkpt>
      <trkpt lat="46.43232" lon="6.09668">
        <ele>1478</ele>
        <time>2019-05-05T04:18:57Z</time>
      </trkpt>
      <trkpt lat="46.43228" lon="6.09674">
        <ele>1479</ele>
        <time>2019-05-05T04:19:01Z</time>
      </trkpt>
      <trkpt lat="46.43225" lon="6.09678">
        <ele>1479</ele>
        <time>2019-05-05T04:19:04Z</time>
      </trkpt>
      <trkpt lat="46.43223" lon="6.09682">
        <ele>1480</ele>
        <time>2019-05-05T04:19:06Z</time>
      </trkpt>
      <trkpt lat="46.43222" lon="6.09685">
        <ele>1480</ele>
        <time>2019-05-05T04:19:08Z</time>
      </trkpt>
      <trkpt lat="46.4322" lon="6.09688">
        <ele>1481</ele>
        <time>2019-05-05T04:19:10Z</time>
      </trkpt>
      <trkpt lat="46.43217" lon="6.09692">
        <ele>1482</ele>
        <time>2019-05-05T04:19:13Z</time>
      </trkpt>
      <trkpt lat="46.43216" lon="6.09694">
        <ele>1482</ele>
        <time>2019-05-05T04:19:15Z</time>
      </trkpt>
      <trkpt lat="46.43215" lon="6.09696">
        <ele>1482</ele>
        <time>2019-05-05T04:19:16Z</time>
      </trkpt>
      <trkpt lat="46.43214" lon="6.09698">
        <ele>1483</ele>
        <time>2019-05-05T04:19:17Z</time>
      </trkpt>
      <trkpt lat="46.43213" lon="6.09701">
        <ele>1483</ele>
        <time>2019-05-05T04:19:19Z</time>
      </trkpt>
      <trkpt lat="46.43213" lon="6.09701">
        <ele>1483</ele>
        <time>2019-05-05T04:19:19Z</time>
      </trkpt>
      <trkpt lat="46.43212" lon="6.09709">
        <ele>1485</ele>
        <time>2019-05-05T04:19:23Z</time>
      </trkpt>
      <trkpt lat="46.43212" lon="6.0971">
        <ele>1485</ele>
        <time>2019-05-05T04:19:24Z</time>
      </trkpt>
      <trkpt lat="46.43211" lon="6.09713">
        <ele>1485</ele>
        <time>2019-05-05T04:19:26Z</time>
      </trkpt>
      <trkpt lat="46.43209" lon="6.09717">
        <ele>1486</ele>
        <time>2019-05-05T04:19:28Z</time>
      </trkpt>
      <trkpt lat="46.43209" lon="6.09717">
        <ele>1486</ele>
        <time>2019-05-05T04:19:28Z</time>
      </trkpt>
      <trkpt lat="46.43208" lon="6.0972">
        <ele>1487</ele>
        <time>2019-05-05T04:19:30Z</time>
      </trkpt>
      <trkpt lat="46.43206" lon="6.09724">
        <ele>1488</ele>
        <time>2019-05-05T04:19:32Z</time>
      </trkpt>
      <trkpt lat="46.43205" lon="6.09729">
        <ele>1489</ele>
        <time>2019-05-05T04:19:35Z</time>
      </trkpt>
      <trkpt lat="46.43202" lon="6.09743">
        <ele>1491</ele>
        <time>2019-05-05T04:19:42Z</time>
      </trkpt>
      <trkpt lat="46.432" lon="6.09747">
        <ele>1492</ele>
        <time>2019-05-05T04:19:45Z</time>
      </trkpt>
      <trkpt lat="46.43197" lon="6.09753">
        <ele>1494</ele>
        <time>2019-05-05T04:19:49Z</time>
      </trkpt>
      <trkpt lat="46.43194" lon="6.09757">
        <ele>1495</ele>
        <time>2019-05-05T04:19:52Z</time>
      </trkpt>
      <trkpt lat="46.43192" lon="6.09762">
        <ele>1496</ele>
        <time>2019-05-05T04:19:55Z</time>
      </trkpt>
      <trkpt lat="46.4319" lon="6.09765">
        <ele>1496</ele>
        <time>2019-05-05T04:19:57Z</time>
      </trkpt>
      <trkpt lat="46.43189" lon="6.09769">
        <ele>1497</ele>
        <time>2019-05-05T04:19:59Z</time>
      </trkpt>
      <trkpt lat="46.43186" lon="6.09778">
        <ele>1499</ele>
        <time>2019-05-05T04:20:04Z</time>
      </trkpt>
      <trkpt lat="46.43183" lon="6.09784">
        <ele>1500</ele>
        <time>2019-05-05T04:20:08Z</time>
      </trkpt>
      <trkpt lat="46.43174" lon="6.09802">
        <ele>1503</ele>
        <time>2019-05-05T04:20:20Z</time>
      </trkpt>
      <trkpt lat="46.43173" lon="6.09806">
        <ele>1504</ele>
        <time>2019-05-05T04:20:22Z</time>
      </trkpt>
      <trkpt lat="46.4317" lon="6.0981">
        <ele>1504</ele>
        <time>2019-05-05T04:20:24Z</time>
      </trkpt>
      <trkpt lat="46.43168" lon="6.09813">
        <ele>1505</ele>
        <time>2019-05-05T04:20:27Z</time>
      </trkpt>
      <trkpt lat="46.43166" lon="6.09817">
        <ele>1506</ele>
        <time>2019-05-05T04:20:29Z</time>
      </trkpt>
      <trkpt lat="46.43164" lon="6.09822">
        <ele>1507</ele>
        <time>2019-05-05T04:20:32Z</time>
      </trkpt>
      <trkpt lat="46.43164" lon="6.09823">
        <ele>1507</ele>
        <time>2019-05-05T04:20:33Z</time>
      </trkpt>
      <trkpt lat="46.43159" lon="6.09831">
        <ele>1508</ele>
        <time>2019-05-05T04:20:38Z</time>
      </trkpt>
      <trkpt lat="46.43157" lon="6.09835">
        <ele>1509</ele>
        <time>2019-05-05T04:20:41Z</time>
      </trkpt>
      <trkpt lat="46.43155" lon="6.09838">
        <ele>1510</ele>
        <time>2019-05-05T04:20:43Z</time>
      </trkpt>
      <trkpt lat="46.43152" lon="6.09841">
        <ele>1510</ele>
        <time>2019-05-05T04:20:46Z</time>
      </trkpt>
      <trkpt lat="46.4315" lon="6.09846">
        <ele>1511</ele>
        <time>2019-05-05T04:20:48Z</time>
      </trkpt>
      <trkpt lat="46.43148" lon="6.0985">
        <ele>1512</ele>
        <time>2019-05-05T04:20:51Z</time>
      </trkpt>
      <trkpt lat="46.43139" lon="6.09873">
        <ele>1516</ele>
        <time>2019-05-05T04:21:04Z</time>
      </trkpt>
      <trkpt lat="46.43137" lon="6.09877">
        <ele>1517</ele>
        <time>2019-05-05T04:21:07Z</time>
      </trkpt>
      <trkpt lat="46.43133" lon="6.09879">
        <ele>1517</ele>
        <time>2019-05-05T04:21:10Z</time>
      </trkpt>
      <trkpt lat="46.43131" lon="6.09882">
        <ele>1518</ele>
        <time>2019-05-05T04:21:12Z</time>
      </trkpt>
      <trkpt lat="46.43129" lon="6.09886">
        <ele>1519</ele>
        <time>2019-05-05T04:21:14Z</time>
      </trkpt>
      <trkpt lat="46.43124" lon="6.09897">
        <ele>1521</ele>
        <time>2019-05-05T04:21:21Z</time>
      </trkpt>
      <trkpt lat="46.43122" lon="6.099">
        <ele>1522</ele>
        <time>2019-05-05T04:21:24Z</time>
      </trkpt>
      <trkpt lat="46.43113" lon="6.0991">
        <ele>1524</ele>
        <time>2019-05-05T04:21:32Z</time>
      </trkpt>
      <trkpt lat="46.43109" lon="6.09914">
        <ele>1525</ele>
        <time>2019-05-05T04:21:35Z</time>
      </trkpt>
      <trkpt lat="46.43106" lon="6.09917">
        <ele>1525</ele>
        <time>2019-05-05T04:21:38Z</time>
      </trkpt>
      <trkpt lat="46.43104" lon="6.09921">
        <ele>1526</ele>
        <time>2019-05-05T04:21:41Z</time>
      </trkpt>
      <trkpt lat="46.43102" lon="6.09925">
        <ele>1527</ele>
        <time>2019-05-05T04:21:44Z</time>
      </trkpt>
      <trkpt lat="46.43098" lon="6.0993">
        <ele>1528</ele>
        <time>2019-05-05T04:21:47Z</time>
      </trkpt>
      <trkpt lat="46.43096" lon="6.09931">
        <ele>1529</ele>
        <time>2019-05-05T04:21:49Z</time>
      </trkpt>
      <trkpt lat="46.43096" lon="6.09933">
        <ele>1529</ele>
        <time>2019-05-05T04:21:49Z</time>
      </trkpt>
      <trkpt lat="46.43095" lon="6.09937">
        <ele>1530</ele>
        <time>2019-05-05T04:21:52Z</time>
      </trkpt>
      <trkpt lat="46.43093" lon="6.09942">
        <ele>1531</ele>
        <time>2019-05-05T04:21:55Z</time>
      </trkpt>
      <trkpt lat="46.4309" lon="6.09946">
        <ele>1532</ele>
        <time>2019-05-05T04:21:58Z</time>
      </trkpt>
      <trkpt lat="46.43087" lon="6.0995">
        <ele>1533</ele>
        <time>2019-05-05T04:22:01Z</time>
      </trkpt>
      <trkpt lat="46.43084" lon="6.09956">
        <ele>1535</ele>
        <time>2019-05-05T04:22:04Z</time>
      </trkpt>
      <trkpt lat="46.43085" lon="6.09957">
        <ele>1535</ele>
        <time>2019-05-05T04:22:05Z</time>
      </trkpt>
      <trkpt lat="46.43084" lon="6.09959">
        <ele>1536</ele>
        <time>2019-05-05T04:22:06Z</time>
      </trkpt>
      <trkpt lat="46.43083" lon="6.09961">
        <ele>1536</ele>
        <time>2019-05-05T04:22:08Z</time>
      </trkpt>
      <trkpt lat="46.4308" lon="6.09965">
        <ele>1537</ele>
        <time>2019-05-05T04:22:11Z</time>
      </trkpt>
      <trkpt lat="46.4308" lon="6.09965">
        <ele>1537</ele>
        <time>2019-05-05T04:22:11Z</time>
      </trkpt>
      <trkpt lat="46.43079" lon="6.09966">
        <ele>1538</ele>
        <time>2019-05-05T04:22:12Z</time>
      </trkpt>
      <trkpt lat="46.43078" lon="6.09967">
        <ele>1538</ele>
        <time>2019-05-05T04:22:13Z</time>
      </trkpt>
      <trkpt lat="46.43076" lon="6.09969">
        <ele>1539</ele>
        <time>2019-05-05T04:22:14Z</time>
      </trkpt>
      <trkpt lat="46.43074" lon="6.09971">
        <ele>1540</ele>
        <time>2019-05-05T04:22:16Z</time>
      </trkpt>
      <trkpt lat="46.43071" lon="6.09974">
        <ele>1541</ele>
        <time>2019-05-05T04:22:19Z</time>
      </trkpt>
      <trkpt lat="46.43068" lon="6.0998">
        <ele>1542</ele>
        <time>2019-05-05T04:22:23Z</time>
      </trkpt>
      <trkpt lat="46.43066" lon="6.09982">
        <ele>1543</ele>
        <time>2019-05-05T04:22:25Z</time>
      </trkpt>
      <trkpt lat="46.43066" lon="6.09983">
        <ele>1544</ele>
        <time>2019-05-05T04:22:26Z</time>
      </trkpt>
      <trkpt lat="46.43065" lon="6.09984">
        <ele>1544</ele>
        <time>2019-05-05T04:22:26Z</time>
      </trkpt>
      <trkpt lat="46.43063" lon="6.09988">
        <ele>1545</ele>
        <time>2019-05-05T04:22:29Z</time>
      </trkpt>
      <trkpt lat="46.43062" lon="6.09995">
        <ele>1547</ele>
        <time>2019-05-05T04:22:33Z</time>
      </trkpt>
      <trkpt lat="46.4306" lon="6.1">
        <ele>1548</ele>
        <time>2019-05-05T04:22:35Z</time>
      </trkpt>
      <trkpt lat="46.4306" lon="6.10004">
        <ele>1549</ele>
        <time>2019-05-05T04:22:38Z</time>
      </trkpt>
      <trkpt lat="46.43058" lon="6.10008">
        <ele>1550</ele>
        <time>2019-05-05T04:22:40Z</time>
      </trkpt>
      <trkpt lat="46.43057" lon="6.1001">
        <ele>1551</ele>
        <time>2019-05-05T04:22:41Z</time>
      </trkpt>
      <trkpt lat="46.43055" lon="6.10014">
        <ele>1552</ele>
        <time>2019-05-05T04:22:44Z</time>
      </trkpt>
      <trkpt lat="46.43053" lon="6.10015">
        <ele>1553</ele>
        <time>2019-05-05T04:22:46Z</time>
      </trkpt>
      <trkpt lat="46.43051" lon="6.10017">
        <ele>1553</ele>
        <time>2019-05-05T04:22:47Z</time>
      </trkpt>
      <trkpt lat="46.43048" lon="6.1002">
        <ele>1555</ele>
        <time>2019-05-05T04:22:50Z</time>
      </trkpt>
      <trkpt lat="46.43047" lon="6.1002">
        <ele>1555</ele>
        <time>2019-05-05T04:22:51Z</time>
      </trkpt>
      <trkpt lat="46.43038" lon="6.10022">
        <ele>1557</ele>
        <time>2019-05-05T04:22:58Z</time>
      </trkpt>
      <trkpt lat="46.43036" lon="6.10023">
        <ele>1557</ele>
        <time>2019-05-05T04:22:59Z</time>
      </trkpt>
      <trkpt lat="46.43035" lon="6.10024">
        <ele>1558</ele>
        <time>2019-05-05T04:23:00Z</time>
      </trkpt>
      <trkpt lat="46.43034" lon="6.10025">
        <ele>1558</ele>
        <time>2019-05-05T04:23:01Z</time>
      </trkpt>
      <trkpt lat="46.43034" lon="6.10025">
        <ele>1558</ele>
        <time>2019-05-05T04:23:01Z</time>
      </trkpt>
      <trkpt lat="46.43034" lon="6.10026">
        <ele>1558</ele>
        <time>2019-05-05T04:23:02Z</time>
      </trkpt>
      <trkpt lat="46.43033" lon="6.10026">
        <ele>1559</ele>
        <time>2019-05-05T04:23:02Z</time>
      </trkpt>
      <trkpt lat="46.43029" lon="6.1003">
        <ele>1561</ele>
        <time>2019-05-05T04:23:06Z</time>
      </trkpt>
      <trkpt lat="46.43027" lon="6.1003">
        <ele>1561</ele>
        <time>2019-05-05T04:23:08Z</time>
      </trkpt>
      <trkpt lat="46.43022" lon="6.10034">
        <ele>1563</ele>
        <time>2019-05-05T04:23:12Z</time>
      </trkpt>
      <trkpt lat="46.4302" lon="6.10037">
        <ele>1565</ele>
        <time>2019-05-05T04:23:15Z</time>
      </trkpt>
      <trkpt lat="46.43019" lon="6.10039">
        <ele>1566</ele>
        <time>2019-05-05T04:23:16Z</time>
      </trkpt>
      <trkpt lat="46.43018" lon="6.10041">
        <ele>1566</ele>
        <time>2019-05-05T04:23:17Z</time>
      </trkpt>
      <trkpt lat="46.43016" lon="6.10042">
        <ele>1567</ele>
        <time>2019-05-05T04:23:19Z</time>
      </trkpt>
      <trkpt lat="46.43014" lon="6.10043">
        <ele>1568</ele>
        <time>2019-05-05T04:23:20Z</time>
      </trkpt>
      <trkpt lat="46.43012" lon="6.10045">
        <ele>1569</ele>
        <time>2019-05-05T04:23:22Z</time>
      </trkpt>
      <trkpt lat="46.4301" lon="6.10048">
        <ele>1571</ele>
        <time>2019-05-05T04:23:25Z</time>
      </trkpt>
      <trkpt lat="46.43006" lon="6.10055">
        <ele>1574</ele>
        <time>2019-05-05T04:23:29Z</time>
      </trkpt>
      <trkpt lat="46.43005" lon="6.10056">
        <ele>1575</ele>
        <time>2019-05-05T04:23:31Z</time>
      </trkpt>
      <trkpt lat="46.43002" lon="6.10057">
        <ele>1576</ele>
        <time>2019-05-05T04:23:33Z</time>
      </trkpt>
      <trkpt lat="46.42998" lon="6.10058">
        <ele>1577</ele>
        <time>2019-05-05T04:23:36Z</time>
      </trkpt>
      <trkpt lat="46.42993" lon="6.10057">
        <ele>1579</ele>
        <time>2019-05-05T04:23:40Z</time>
      </trkpt>
      <trkpt lat="46.42992" lon="6.10056">
        <ele>1579</ele>
        <time>2019-05-05T04:23:41Z</time>
      </trkpt>
      <trkpt lat="46.42987" lon="6.10056">
        <ele>1580</ele>
        <time>2019-05-05T04:23:44Z</time>
      </trkpt>
      <trkpt lat="46.42986" lon="6.10057">
        <ele>1581</ele>
        <time>2019-05-05T04:23:46Z</time>
      </trkpt>
      <trkpt lat="46.42984" lon="6.10058">
        <ele>1582</ele>
        <time>2019-05-05T04:23:47Z</time>
      </trkpt>
      <trkpt lat="46.42983" lon="6.10058">
        <ele>1582</ele>
        <time>2019-05-05T04:23:48Z</time>
      </trkpt>
      <trkpt lat="46.42979" lon="6.10059">
        <ele>1584</ele>
        <time>2019-05-05T04:23:51Z</time>
      </trkpt>
      <trkpt lat="46.42977" lon="6.10061">
        <ele>1585</ele>
        <time>2019-05-05T04:23:53Z</time>
      </trkpt>
      <trkpt lat="46.42974" lon="6.10063">
        <ele>1587</ele>
        <time>2019-05-05T04:23:56Z</time>
      </trkpt>
      <trkpt lat="46.42971" lon="6.10065">
        <ele>1588</ele>
        <time>2019-05-05T04:23:58Z</time>
      </trkpt>
      <trkpt lat="46.42968" lon="6.10068">
        <ele>1590</ele>
        <time>2019-05-05T04:24:01Z</time>
      </trkpt>
      <trkpt lat="46.42966" lon="6.1007">
        <ele>1591</ele>
        <time>2019-05-05T04:24:03Z</time>
      </trkpt>
      <trkpt lat="46.42963" lon="6.10071">
        <ele>1592</ele>
        <time>2019-05-05T04:24:05Z</time>
      </trkpt>
      <trkpt lat="46.42961" lon="6.10071">
        <ele>1593</ele>
        <time>2019-05-05T04:24:07Z</time>
      </trkpt>
      <trkpt lat="46.4296" lon="6.1007">
        <ele>1593</ele>
        <time>2019-05-05T04:24:08Z</time>
      </trkpt>
      <trkpt lat="46.42954" lon="6.10073">
        <ele>1596</ele>
        <time>2019-05-05T04:24:13Z</time>
      </trkpt>
      <trkpt lat="46.42953" lon="6.10074">
        <ele>1597</ele>
        <time>2019-05-05T04:24:14Z</time>
      </trkpt>
      <trkpt lat="46.42952" lon="6.10075">
        <ele>1597</ele>
        <time>2019-05-05T04:24:15Z</time>
      </trkpt>
      <trkpt lat="46.42949" lon="6.10074">
        <ele>1598</ele>
        <time>2019-05-05T04:24:17Z</time>
      </trkpt>
      <trkpt lat="46.42945" lon="6.10073">
        <ele>1599</ele>
        <time>2019-05-05T04:24:20Z</time>
      </trkpt>
      <trkpt lat="46.4294" lon="6.10073">
        <ele>1600</ele>
        <time>2019-05-05T04:24:24Z</time>
      </trkpt>
      <trkpt lat="46.42936" lon="6.10069">
        <ele>1600</ele>
        <time>2019-05-05T04:24:27Z</time>
      </trkpt>
      <trkpt lat="46.42935" lon="6.10069">
        <ele>1601</ele>
        <time>2019-05-05T04:24:28Z</time>
      </trkpt>
      <trkpt lat="46.42932" lon="6.1007">
        <ele>1602</ele>
        <time>2019-05-05T04:24:31Z</time>
      </trkpt>
      <trkpt lat="46.42925" lon="6.10067">
        <ele>1603</ele>
        <time>2019-05-05T04:24:35Z</time>
      </trkpt>
      <trkpt lat="46.4292" lon="6.10063">
        <ele>1603</ele>
        <time>2019-05-05T04:24:40Z</time>
      </trkpt>
      <trkpt lat="46.4292" lon="6.10063">
        <ele>1603</ele>
        <time>2019-05-05T04:24:40Z</time>
      </trkpt>
      <trkpt lat="46.42918" lon="6.10063">
        <ele>1603</ele>
        <time>2019-05-05T04:24:41Z</time>
      </trkpt>
      <trkpt lat="46.42916" lon="6.10063">
        <ele>1604</ele>
        <time>2019-05-05T04:24:43Z</time>
      </trkpt>
      <trkpt lat="46.42913" lon="6.10062">
        <ele>1605</ele>
        <time>2019-05-05T04:24:45Z</time>
      </trkpt>
      <trkpt lat="46.42912" lon="6.1006">
        <ele>1605</ele>
        <time>2019-05-05T04:24:46Z</time>
      </trkpt>
      <trkpt lat="46.4291" lon="6.10059">
        <ele>1605</ele>
        <time>2019-05-05T04:24:48Z</time>
      </trkpt>
      <trkpt lat="46.42907" lon="6.10059">
        <ele>1606</ele>
        <time>2019-05-05T04:24:50Z</time>
      </trkpt>
      <trkpt lat="46.42906" lon="6.10058">
        <ele>1606</ele>
        <time>2019-05-05T04:24:51Z</time>
      </trkpt>
      <trkpt lat="46.42903" lon="6.10057">
        <ele>1606</ele>
        <time>2019-05-05T04:24:53Z</time>
      </trkpt>
      <trkpt lat="46.42899" lon="6.10057">
        <ele>1607</ele>
        <time>2019-05-05T04:24:56Z</time>
      </trkpt>
      <trkpt lat="46.42896" lon="6.10056">
        <ele>1608</ele>
        <time>2019-05-05T04:24:58Z</time>
      </trkpt>
      <trkpt lat="46.42894" lon="6.10055">
        <ele>1609</ele>
        <time>2019-05-05T04:25:00Z</time>
      </trkpt>
      <trkpt lat="46.42887" lon="6.10051">
        <ele>1610</ele>
        <time>2019-05-05T04:25:05Z</time>
      </trkpt>
      <trkpt lat="46.42884" lon="6.1005">
        <ele>1610</ele>
        <time>2019-05-05T04:25:08Z</time>
      </trkpt>
      <trkpt lat="46.42881" lon="6.10048">
        <ele>1611</ele>
        <time>2019-05-05T04:25:10Z</time>
      </trkpt>
      <trkpt lat="46.42878" lon="6.10047">
        <ele>1612</ele>
        <time>2019-05-05T04:25:13Z</time>
      </trkpt>
      <trkpt lat="46.42875" lon="6.10046">
        <ele>1612</ele>
        <time>2019-05-05T04:25:14Z</time>
      </trkpt>
      <trkpt lat="46.42875" lon="6.10046">
        <ele>1612</ele>
        <time>2019-05-05T04:25:15Z</time>
      </trkpt>
      <trkpt lat="46.42872" lon="6.10045">
        <ele>1613</ele>
        <time>2019-05-05T04:25:17Z</time>
      </trkpt>
      <trkpt lat="46.42867" lon="6.10045">
        <ele>1614</ele>
        <time>2019-05-05T04:25:21Z</time>
      </trkpt>
      <trkpt lat="46.42861" lon="6.10043">
        <ele>1616</ele>
        <time>2019-05-05T04:25:25Z</time>
      </trkpt>
      <trkpt lat="46.42859" lon="6.10042">
        <ele>1616</ele>
        <time>2019-05-05T04:25:27Z</time>
      </trkpt>
      <trkpt lat="46.42855" lon="6.10041">
        <ele>1617</ele>
        <time>2019-05-05T04:25:30Z</time>
      </trkpt>
      <trkpt lat="46.42852" lon="6.10038">
        <ele>1617</ele>
        <time>2019-05-05T04:25:33Z</time>
      </trkpt>
      <trkpt lat="46.42847" lon="6.10038">
        <ele>1618</ele>
        <time>2019-05-05T04:25:36Z</time>
      </trkpt>
      <trkpt lat="46.42839" lon="6.10035">
        <ele>1619</ele>
        <time>2019-05-05T04:25:42Z</time>
      </trkpt>
      <trkpt lat="46.42837" lon="6.10035">
        <ele>1620</ele>
        <time>2019-05-05T04:25:43Z</time>
      </trkpt>
      <trkpt lat="46.42832" lon="6.10035">
        <ele>1621</ele>
        <time>2019-05-05T04:25:47Z</time>
      </trkpt>
      <trkpt lat="46.4283" lon="6.10035">
        <ele>1621</ele>
        <time>2019-05-05T04:25:49Z</time>
      </trkpt>
      <trkpt lat="46.42821" lon="6.10031">
        <ele>1623</ele>
        <time>2019-05-05T04:25:56Z</time>
      </trkpt>
      <trkpt lat="46.4282" lon="6.10031">
        <ele>1623</ele>
        <time>2019-05-05T04:25:57Z</time>
      </trkpt>
      <trkpt lat="46.42819" lon="6.10031">
        <ele>1623</ele>
        <time>2019-05-05T04:25:57Z</time>
      </trkpt>
      <trkpt lat="46.42818" lon="6.10031">
        <ele>1623</ele>
        <time>2019-05-05T04:25:58Z</time>
      </trkpt>
      <trkpt lat="46.42815" lon="6.10029">
        <ele>1624</ele>
        <time>2019-05-05T04:26:00Z</time>
      </trkpt>
      <trkpt lat="46.42813" lon="6.10029">
        <ele>1624</ele>
        <time>2019-05-05T04:26:02Z</time>
      </trkpt>
      <trkpt lat="46.4281" lon="6.10029">
        <ele>1625</ele>
        <time>2019-05-05T04:26:04Z</time>
      </trkpt>
      <trkpt lat="46.42808" lon="6.10029">
        <ele>1626</ele>
        <time>2019-05-05T04:26:06Z</time>
      </trkpt>
      <trkpt lat="46.42806" lon="6.10027">
        <ele>1626</ele>
        <time>2019-05-05T04:26:07Z</time>
      </trkpt>
      <trkpt lat="46.42804" lon="6.10026">
        <ele>1626</ele>
        <time>2019-05-05T04:26:09Z</time>
      </trkpt>
      <trkpt lat="46.42802" lon="6.10025">
        <ele>1626</ele>
        <time>2019-05-05T04:26:10Z</time>
      </trkpt>
      <trkpt lat="46.42795" lon="6.10024">
        <ele>1628</ele>
        <time>2019-05-05T04:26:16Z</time>
      </trkpt>
      <trkpt lat="46.42788" lon="6.10022">
        <ele>1629</ele>
        <time>2019-05-05T04:26:21Z</time>
      </trkpt>
      <trkpt lat="46.42785" lon="6.10022">
        <ele>1630</ele>
        <time>2019-05-05T04:26:23Z</time>
      </trkpt>
      <trkpt lat="46.42783" lon="6.10021">
        <ele>1630</ele>
        <time>2019-05-05T04:26:25Z</time>
      </trkpt>
      <trkpt lat="46.42782" lon="6.10021">
        <ele>1630</ele>
        <time>2019-05-05T04:26:26Z</time>
      </trkpt>
      <trkpt lat="46.4278" lon="6.10019">
        <ele>1631</ele>
        <time>2019-05-05T04:26:27Z</time>
      </trkpt>
      <trkpt lat="46.42775" lon="6.10016">
        <ele>1631</ele>
        <time>2019-05-05T04:26:31Z</time>
      </trkpt>
      <trkpt lat="46.42772" lon="6.10014">
        <ele>1631</ele>
        <time>2019-05-05T04:26:33Z</time>
      </trkpt>
      <trkpt lat="46.42767" lon="6.10011">
        <ele>1632</ele>
        <time>2019-05-05T04:26:38Z</time>
      </trkpt>
      <trkpt lat="46.42766" lon="6.10011">
        <ele>1632</ele>
        <time>2019-05-05T04:26:38Z</time>
      </trkpt>
      <trkpt lat="46.42763" lon="6.10009">
        <ele>1632</ele>
        <time>2019-05-05T04:26:40Z</time>
      </trkpt>
      <trkpt lat="46.42761" lon="6.10008">
        <ele>1632</ele>
        <time>2019-05-05T04:26:42Z</time>
      </trkpt>
      <trkpt lat="46.42743" lon="6.10003">
        <ele>1635</ele>
        <time>2019-05-05T04:26:55Z</time>
      </trkpt>
      <trkpt lat="46.42738" lon="6.1">
        <ele>1635</ele>
        <time>2019-05-05T04:26:59Z</time>
      </trkpt>
      <trkpt lat="46.42732" lon="6.09998">
        <ele>1636</ele>
        <time>2019-05-05T04:27:04Z</time>
      </trkpt>
      <trkpt lat="46.42717" lon="6.09989">
        <ele>1637</ele>
        <time>2019-05-05T04:27:15Z</time>
      </trkpt>
      <trkpt lat="46.4271" lon="6.09983">
        <ele>1638</ele>
        <time>2019-05-05T04:27:21Z</time>
      </trkpt>
      <trkpt lat="46.42694" lon="6.09975">
        <ele>1639</ele>
        <time>2019-05-05T04:27:34Z</time>
      </trkpt>
      <trkpt lat="46.42694" lon="6.09975">
        <ele>1640</ele>
        <time>2019-05-05T04:27:34Z</time>
      </trkpt>
      <trkpt lat="46.42693" lon="6.09975">
        <ele>1640</ele>
        <time>2019-05-05T04:27:35Z</time>
      </trkpt>
      <trkpt lat="46.42691" lon="6.09974">
        <ele>1640</ele>
        <time>2019-05-05T04:27:37Z</time>
      </trkpt>
      <trkpt lat="46.42689" lon="6.09973">
        <ele>1640</ele>
        <time>2019-05-05T04:27:38Z</time>
      </trkpt>
      <trkpt lat="46.42688" lon="6.09969">
        <ele>1639</ele>
        <time>2019-05-05T04:27:40Z</time>
      </trkpt>
      <trkpt lat="46.42685" lon="6.09967">
        <ele>1640</ele>
        <time>2019-05-05T04:27:42Z</time>
      </trkpt>
      <trkpt lat="46.42672" lon="6.09954">
        <ele>1640</ele>
        <time>2019-05-05T04:27:54Z</time>
      </trkpt>
      <trkpt lat="46.42668" lon="6.09952">
        <ele>1641</ele>
        <time>2019-05-05T04:27:57Z</time>
      </trkpt>
      <trkpt lat="46.42662" lon="6.09952">
        <ele>1643</ele>
        <time>2019-05-05T04:28:02Z</time>
      </trkpt>
      <trkpt lat="46.42651" lon="6.09953">
        <ele>1646</ele>
        <time>2019-05-05T04:28:09Z</time>
      </trkpt>
      <trkpt lat="46.42645" lon="6.09952">
        <ele>1648</ele>
        <time>2019-05-05T04:28:15Z</time>
      </trkpt>
      <trkpt lat="46.42644" lon="6.09951">
        <ele>1648</ele>
        <time>2019-05-05T04:28:15Z</time>
      </trkpt>
      <trkpt lat="46.42643" lon="6.09951">
        <ele>1648</ele>
        <time>2019-05-05T04:28:16Z</time>
      </trkpt>
      <trkpt lat="46.42642" lon="6.09951">
        <ele>1648</ele>
        <time>2019-05-05T04:28:17Z</time>
      </trkpt>
      <trkpt lat="46.4264" lon="6.09952">
        <ele>1649</ele>
        <time>2019-05-05T04:28:18Z</time>
      </trkpt>
      <trkpt lat="46.42638" lon="6.09953">
        <ele>1650</ele>
        <time>2019-05-05T04:28:20Z</time>
      </trkpt>
      <trkpt lat="46.4263" lon="6.09953">
        <ele>1652</ele>
        <time>2019-05-05T04:28:26Z</time>
      </trkpt>
      <trkpt lat="46.42629" lon="6.09952">
        <ele>1652</ele>
        <time>2019-05-05T04:28:27Z</time>
      </trkpt>
      <trkpt lat="46.42626" lon="6.09951">
        <ele>1653</ele>
        <time>2019-05-05T04:28:29Z</time>
      </trkpt>
      <trkpt lat="46.42625" lon="6.0995">
        <ele>1653</ele>
        <time>2019-05-05T04:28:30Z</time>
      </trkpt>
      <trkpt lat="46.42624" lon="6.0995">
        <ele>1653</ele>
        <time>2019-05-05T04:28:30Z</time>
      </trkpt>
      <trkpt lat="46.42623" lon="6.09948">
        <ele>1653</ele>
        <time>2019-05-05T04:28:32Z</time>
      </trkpt>
      <trkpt lat="46.42621" lon="6.09948">
        <ele>1654</ele>
        <time>2019-05-05T04:28:33Z</time>
      </trkpt>
      <trkpt lat="46.42617" lon="6.09948">
        <ele>1655</ele>
        <time>2019-05-05T04:28:36Z</time>
      </trkpt>
      <trkpt lat="46.42614" lon="6.09948">
        <ele>1656</ele>
        <time>2019-05-05T04:28:38Z</time>
      </trkpt>
      <trkpt lat="46.42609" lon="6.0995">
        <ele>1657</ele>
        <time>2019-05-05T04:28:42Z</time>
      </trkpt>
      <trkpt lat="46.42607" lon="6.09952">
        <ele>1658</ele>
        <time>2019-05-05T04:28:44Z</time>
      </trkpt>
      <trkpt lat="46.42604" lon="6.09955">
        <ele>1659</ele>
        <time>2019-05-05T04:28:47Z</time>
      </trkpt>
      <trkpt lat="46.42602" lon="6.09957">
        <ele>1659</ele>
        <time>2019-05-05T04:28:48Z</time>
      </trkpt>
      <trkpt lat="46.42593" lon="6.09965">
        <ele>1660</ele>
        <time>2019-05-05T04:28:56Z</time>
      </trkpt>
      <trkpt lat="46.42593" lon="6.09965">
        <ele>1660</ele>
        <time>2019-05-05T04:28:56Z</time>
      </trkpt>
      <trkpt lat="46.42592" lon="6.09969">
        <ele>1661</ele>
        <time>2019-05-05T04:28:59Z</time>
      </trkpt>
      <trkpt lat="46.4259" lon="6.09973">
        <ele>1661</ele>
        <time>2019-05-05T04:29:01Z</time>
      </trkpt>
      <trkpt lat="46.42589" lon="6.09978">
        <ele>1662</ele>
        <time>2019-05-05T04:29:03Z</time>
      </trkpt>
      <trkpt lat="46.42589" lon="6.09978">
        <ele>1662</ele>
        <time>2019-05-05T04:29:04Z</time>
      </trkpt>
      <trkpt lat="46.42589" lon="6.09987">
        <ele>1662</ele>
        <time>2019-05-05T04:29:08Z</time>
      </trkpt>
      <trkpt lat="46.4259" lon="6.09992">
        <ele>1663</ele>
        <time>2019-05-05T04:29:10Z</time>
      </trkpt>
      <trkpt lat="46.42591" lon="6.09992">
        <ele>1663</ele>
        <time>2019-05-05T04:29:11Z</time>
      </trkpt>
      <trkpt lat="46.42591" lon="6.09993">
        <ele>1663</ele>
        <time>2019-05-05T04:29:12Z</time>
      </trkpt>
      <trkpt lat="46.42591" lon="6.09993">
        <ele>1663</ele>
        <time>2019-05-05T04:29:12Z</time>
      </trkpt>
      <trkpt lat="46.42591" lon="6.09994">
        <ele>1663</ele>
        <time>2019-05-05T04:29:12Z</time>
      </trkpt>
      <trkpt lat="46.42587" lon="6.09996">
        <ele>1663</ele>
        <time>2019-05-05T04:29:15Z</time>
      </trkpt>
      <trkpt lat="46.42586" lon="6.09998">
        <ele>1663</ele>
        <time>2019-05-05T04:29:16Z</time>
      </trkpt>
      <trkpt lat="46.42581" lon="6.10006">
        <ele>1663</ele>
        <time>2019-05-05T04:29:21Z</time>
      </trkpt>
      <trkpt lat="46.42577" lon="6.10013">
        <ele>1664</ele>
        <time>2019-05-05T04:29:27Z</time>
      </trkpt>
      <trkpt lat="46.42577" lon="6.10017">
        <ele>1664</ele>
        <time>2019-05-05T04:29:28Z</time>
      </trkpt>
      <trkpt lat="46.42579" lon="6.10021">
        <ele>1663</ele>
        <time>2019-05-05T04:29:31Z</time>
      </trkpt>
      <trkpt lat="46.4258" lon="6.10024">
        <ele>1661</ele>
        <time>2019-05-05T04:29:33Z</time>
      </trkpt>
      <trkpt lat="46.42582" lon="6.10028">
        <ele>1660</ele>
        <time>2019-05-05T04:29:36Z</time>
      </trkpt>
      <trkpt lat="46.42583" lon="6.10028">
        <ele>1660</ele>
        <time>2019-05-05T04:29:36Z</time>
      </trkpt>
      <trkpt lat="46.42597" lon="6.10039">
        <ele>1657</ele>
        <time>2019-05-05T04:29:48Z</time>
      </trkpt>
      <trkpt lat="46.42597" lon="6.1004">
        <ele>1657</ele>
        <time>2019-05-05T04:29:48Z</time>
      </trkpt>
      <trkpt lat="46.42595" lon="6.10039">
        <ele>1657</ele>
        <time>2019-05-05T04:29:50Z</time>
      </trkpt>
      <trkpt lat="46.42596" lon="6.10041">
        <ele>1656</ele>
        <time>2019-05-05T04:29:51Z</time>
      </trkpt>
      <trkpt lat="46.42595" lon="6.10042">
        <ele>1656</ele>
        <time>2019-05-05T04:29:51Z</time>
      </trkpt>
      <trkpt lat="46.42578" lon="6.10047">
        <ele>1650</ele>
        <time>2019-05-05T04:30:05Z</time>
      </trkpt>
      <trkpt lat="46.42574" lon="6.10045">
        <ele>1650</ele>
        <time>2019-05-05T04:30:08Z</time>
      </trkpt>
      <trkpt lat="46.42574" lon="6.10045">
        <ele>1650</ele>
        <time>2019-05-05T04:30:08Z</time>
      </trkpt>
      <trkpt lat="46.42574" lon="6.10045">
        <ele>1650</ele>
        <time>2019-05-05T04:30:08Z</time>
      </trkpt>
      <trkpt lat="46.42574" lon="6.10043">
        <ele>1651</ele>
        <time>2019-05-05T04:30:09Z</time>
      </trkpt>
      <trkpt lat="46.42573" lon="6.10047">
        <ele>1648</ele>
        <time>2019-05-05T04:30:12Z</time>
      </trkpt>
      <trkpt lat="46.42571" lon="6.10047">
        <ele>1649</ele>
        <time>2019-05-05T04:30:13Z</time>
      </trkpt>
      <trkpt lat="46.42571" lon="6.10045">
        <ele>1649</ele>
        <time>2019-05-05T04:30:14Z</time>
      </trkpt>
      <trkpt lat="46.42571" lon="6.10044">
        <ele>1650</ele>
        <time>2019-05-05T04:30:15Z</time>
      </trkpt>
      <trkpt lat="46.42577" lon="6.1005">
        <ele>1648</ele>
        <time>2019-05-05T04:30:21Z</time>
      </trkpt>
      <trkpt lat="46.42578" lon="6.10051">
        <ele>1648</ele>
        <time>2019-05-05T04:30:21Z</time>
      </trkpt>
      <trkpt lat="46.42578" lon="6.10052">
        <ele>1648</ele>
        <time>2019-05-05T04:30:22Z</time>
      </trkpt>
      <trkpt lat="46.42579" lon="6.10051">
        <ele>1648</ele>
        <time>2019-05-05T04:30:22Z</time>
      </trkpt>
      <trkpt lat="46.4258" lon="6.10052">
        <ele>1648</ele>
        <time>2019-05-05T04:30:23Z</time>
      </trkpt>
      <trkpt lat="46.42578" lon="6.10047">
        <ele>1650</ele>
        <time>2019-05-05T04:30:26Z</time>
      </trkpt>
      <trkpt lat="46.42578" lon="6.10046">
        <ele>1650</ele>
        <time>2019-05-05T04:30:27Z</time>
      </trkpt>
      <trkpt lat="46.42578" lon="6.10045">
        <ele>1651</ele>
        <time>2019-05-05T04:30:27Z</time>
      </trkpt>
      <trkpt lat="46.42578" lon="6.10044">
        <ele>1651</ele>
        <time>2019-05-05T04:30:28Z</time>
      </trkpt>
      <trkpt lat="46.42576" lon="6.10041">
        <ele>1652</ele>
        <time>2019-05-05T04:30:30Z</time>
      </trkpt>
      <trkpt lat="46.42575" lon="6.10037">
        <ele>1654</ele>
        <time>2019-05-05T04:30:32Z</time>
      </trkpt>
      <trkpt lat="46.42575" lon="6.10036">
        <ele>1655</ele>
        <time>2019-05-05T04:30:33Z</time>
      </trkpt>
      <trkpt lat="46.42573" lon="6.10033">
        <ele>1656</ele>
        <time>2019-05-05T04:30:35Z</time>
      </trkpt>
      <trkpt lat="46.42571" lon="6.10027">
        <ele>1659</ele>
        <time>2019-05-05T04:30:39Z</time>
      </trkpt>
      <trkpt lat="46.42571" lon="6.10025">
        <ele>1660</ele>
        <time>2019-05-05T04:30:40Z</time>
      </trkpt>
      <trkpt lat="46.4257" lon="6.10024">
        <ele>1660</ele>
        <time>2019-05-05T04:30:41Z</time>
      </trkpt>
      <trkpt lat="46.4257" lon="6.10023">
        <ele>1661</ele>
        <time>2019-05-05T04:30:42Z</time>
      </trkpt>
      <trkpt lat="46.4257" lon="6.10019">
        <ele>1663</ele>
        <time>2019-05-05T04:30:44Z</time>
      </trkpt>
      <trkpt lat="46.42569" lon="6.10017">
        <ele>1663</ele>
        <time>2019-05-05T04:30:45Z</time>
      </trkpt>
      <trkpt lat="46.42566" lon="6.10017">
        <ele>1663</ele>
        <time>2019-05-05T04:30:48Z</time>
      </trkpt>
      <trkpt lat="46.4256" lon="6.10021">
        <ele>1661</ele>
        <time>2019-05-05T04:30:52Z</time>
      </trkpt>
      <trkpt lat="46.42559" lon="6.10023">
        <ele>1660</ele>
        <time>2019-05-05T04:30:54Z</time>
      </trkpt>
      <trkpt lat="46.4256" lon="6.10025">
        <ele>1658</ele>
        <time>2019-05-05T04:30:56Z</time>
      </trkpt>
      <trkpt lat="46.4256" lon="6.10026">
        <ele>1658</ele>
        <time>2019-05-05T04:30:56Z</time>
      </trkpt>
      <trkpt lat="46.4256" lon="6.10025">
        <ele>1658</ele>
        <time>2019-05-05T04:30:56Z</time>
      </trkpt>
      <trkpt lat="46.4256" lon="6.10025">
        <ele>1659</ele>
        <time>2019-05-05T04:30:57Z</time>
      </trkpt>
      <trkpt lat="46.4256" lon="6.10025">
        <ele>1659</ele>
        <time>2019-05-05T04:30:57Z</time>
      </trkpt>
      <trkpt lat="46.42559" lon="6.10025">
        <ele>1659</ele>
        <time>2019-05-05T04:30:57Z</time>
      </trkpt>
      <trkpt lat="46.42559" lon="6.10025">
        <ele>1659</ele>
        <time>2019-05-05T04:30:57Z</time>
      </trkpt>
      <trkpt lat="46.42559" lon="6.10025">
        <ele>1659</ele>
        <time>2019-05-05T04:30:57Z</time>
      </trkpt>
      <trkpt lat="46.42559" lon="6.10025">
        <ele>1659</ele>
        <time>2019-05-05T04:30:58Z</time>
      </trkpt>
      <trkpt lat="46.42557" lon="6.10022">
        <ele>1660</ele>
        <time>2019-05-05T04:31:00Z</time>
      </trkpt>
      <trkpt lat="46.42557" lon="6.10019">
        <ele>1662</ele>
        <time>2019-05-05T04:31:02Z</time>
      </trkpt>
      <trkpt lat="46.42553" lon="6.1001">
        <ele>1662</ele>
        <time>2019-05-05T04:31:07Z</time>
      </trkpt>
      <trkpt lat="46.42551" lon="6.10005">
        <ele>1662</ele>
        <time>2019-05-05T04:31:09Z</time>
      </trkpt>
      <trkpt lat="46.42549" lon="6.10006">
        <ele>1662</ele>
        <time>2019-05-05T04:31:11Z</time>
      </trkpt>
      <trkpt lat="46.42548" lon="6.10006">
        <ele>1662</ele>
        <time>2019-05-05T04:31:12Z</time>
      </trkpt>
      <trkpt lat="46.42544" lon="6.10001">
        <ele>1662</ele>
        <time>2019-05-05T04:31:16Z</time>
      </trkpt>
      <trkpt lat="46.42541" lon="6.09998">
        <ele>1662</ele>
        <time>2019-05-05T04:31:18Z</time>
      </trkpt>
      <trkpt lat="46.42528" lon="6.09995">
        <ele>1662</ele>
        <time>2019-05-05T04:31:27Z</time>
      </trkpt>
      <trkpt lat="46.42527" lon="6.09995">
        <ele>1662</ele>
        <time>2019-05-05T04:31:29Z</time>
      </trkpt>
      <trkpt lat="46.42526" lon="6.09996">
        <ele>1662</ele>
        <time>2019-05-05T04:31:29Z</time>
      </trkpt>
      <trkpt lat="46.42522" lon="6.09992">
        <ele>1661</ele>
        <time>2019-05-05T04:31:33Z</time>
      </trkpt>
      <trkpt lat="46.42528" lon="6.09993">
        <ele>1662</ele>
        <time>2019-05-05T04:31:37Z</time>
      </trkpt>
      <trkpt lat="46.42537" lon="6.09995">
        <ele>1662</ele>
        <time>2019-05-05T04:31:44Z</time>
      </trkpt>
      <trkpt lat="46.42543" lon="6.09994">
        <ele>1662</ele>
        <time>2019-05-05T04:31:48Z</time>
      </trkpt>
      <trkpt lat="46.42547" lon="6.09994">
        <ele>1662</ele>
        <time>2019-05-05T04:31:51Z</time>
      </trkpt>
      <trkpt lat="46.4255" lon="6.09994">
        <ele>1662</ele>
        <time>2019-05-05T04:31:53Z</time>
      </trkpt>
      <trkpt lat="46.42553" lon="6.09996">
        <ele>1662</ele>
        <time>2019-05-05T04:31:56Z</time>
      </trkpt>
      <trkpt lat="46.42554" lon="6.09996">
        <ele>1662</ele>
        <time>2019-05-05T04:31:56Z</time>
      </trkpt>
      <trkpt lat="46.42559" lon="6.09996">
        <ele>1662</ele>
        <time>2019-05-05T04:32:00Z</time>
      </trkpt>
      <trkpt lat="46.42558" lon="6.09995">
        <ele>1662</ele>
        <time>2019-05-05T04:32:01Z</time>
      </trkpt>
      <trkpt lat="46.42558" lon="6.09995">
        <ele>1662</ele>
        <time>2019-05-05T04:32:01Z</time>
      </trkpt>
      <trkpt lat="46.42554" lon="6.09996">
        <ele>1662</ele>
        <time>2019-05-05T04:32:04Z</time>
      </trkpt>
      <trkpt lat="46.42552" lon="6.09998">
        <ele>1662</ele>
        <time>2019-05-05T04:32:06Z</time>
      </trkpt>
      <trkpt lat="46.42546" lon="6.09998">
        <ele>1662</ele>
        <time>2019-05-05T04:32:09Z</time>
      </trkpt>
      <trkpt lat="46.42538" lon="6.09995">
        <ele>1662</ele>
        <time>2019-05-05T04:32:15Z</time>
      </trkpt>
      <trkpt lat="46.42532" lon="6.09992">
        <ele>1662</ele>
        <time>2019-05-05T04:32:20Z</time>
      </trkpt>
      <trkpt lat="46.42525" lon="6.09988">
        <ele>1662</ele>
        <time>2019-05-05T04:32:25Z</time>
      </trkpt>
      <trkpt lat="46.42519" lon="6.09982">
        <ele>1661</ele>
        <time>2019-05-05T04:32:31Z</time>
      </trkpt>
      <trkpt lat="46.42504" lon="6.09972">
        <ele>1658</ele>
        <time>2019-05-05T04:32:43Z</time>
      </trkpt>
      <trkpt lat="46.42498" lon="6.09967">
        <ele>1657</ele>
        <time>2019-05-05T04:32:48Z</time>
      </trkpt>
      <trkpt lat="46.42485" lon="6.09948">
        <ele>1657</ele>
        <time>2019-05-05T04:33:02Z</time>
      </trkpt>
      <trkpt lat="46.42482" lon="6.09943">
        <ele>1657</ele>
        <time>2019-05-05T04:33:05Z</time>
      </trkpt>
      <trkpt lat="46.42472" lon="6.09938">
        <ele>1656</ele>
        <time>2019-05-05T04:33:13Z</time>
      </trkpt>
      <trkpt lat="46.42471" lon="6.09938">
        <ele>1656</ele>
        <time>2019-05-05T04:33:13Z</time>
      </trkpt>
      <trkpt lat="46.42469" lon="6.09936">
        <ele>1656</ele>
        <time>2019-05-05T04:33:15Z</time>
      </trkpt>
      <trkpt lat="46.42468" lon="6.09934">
        <ele>1656</ele>
        <time>2019-05-05T04:33:16Z</time>
      </trkpt>
      <trkpt lat="46.42463" lon="6.09926">
        <ele>1654</ele>
        <time>2019-05-05T04:33:22Z</time>
      </trkpt>
      <trkpt lat="46.42461" lon="6.09924">
        <ele>1654</ele>
        <time>2019-05-05T04:33:23Z</time>
      </trkpt>
      <trkpt lat="46.42453" lon="6.09911">
        <ele>1652</ele>
        <time>2019-05-05T04:33:32Z</time>
      </trkpt>
      <trkpt lat="46.42451" lon="6.09908">
        <ele>1651</ele>
        <time>2019-05-05T04:33:34Z</time>
      </trkpt>
      <trkpt lat="46.42445" lon="6.09899">
        <ele>1650</ele>
        <time>2019-05-05T04:33:40Z</time>
      </trkpt>
      <trkpt lat="46.42443" lon="6.09896">
        <ele>1649</ele>
        <time>2019-05-05T04:33:42Z</time>
      </trkpt>
      <trkpt lat="46.4244" lon="6.09896">
        <ele>1649</ele>
        <time>2019-05-05T04:33:45Z</time>
      </trkpt>
      <trkpt lat="46.42438" lon="6.09897">
        <ele>1649</ele>
        <time>2019-05-05T04:33:46Z</time>
      </trkpt>
      <trkpt lat="46.42436" lon="6.09899">
        <ele>1648</ele>
        <time>2019-05-05T04:33:48Z</time>
      </trkpt>
      <trkpt lat="46.42431" lon="6.09898">
        <ele>1647</ele>
        <time>2019-05-05T04:33:51Z</time>
      </trkpt>
      <trkpt lat="46.4243" lon="6.09897">
        <ele>1647</ele>
        <time>2019-05-05T04:33:52Z</time>
      </trkpt>
      <trkpt lat="46.42425" lon="6.09891">
        <ele>1646</ele>
        <time>2019-05-05T04:33:57Z</time>
      </trkpt>
      <trkpt lat="46.42417" lon="6.09884">
        <ele>1644</ele>
        <time>2019-05-05T04:34:04Z</time>
      </trkpt>
      <trkpt lat="46.42415" lon="6.09884">
        <ele>1644</ele>
        <time>2019-05-05T04:34:06Z</time>
      </trkpt>
      <trkpt lat="46.42414" lon="6.09884">
        <ele>1644</ele>
        <time>2019-05-05T04:34:07Z</time>
      </trkpt>
      <trkpt lat="46.4241" lon="6.0988">
        <ele>1643</ele>
        <time>2019-05-05T04:34:10Z</time>
      </trkpt>
      <trkpt lat="46.42406" lon="6.09874">
        <ele>1642</ele>
        <time>2019-05-05T04:34:14Z</time>
      </trkpt>
      <trkpt lat="46.42401" lon="6.09869">
        <ele>1641</ele>
        <time>2019-05-05T04:34:19Z</time>
      </trkpt>
      <trkpt lat="46.42396" lon="6.09866">
        <ele>1641</ele>
        <time>2019-05-05T04:34:22Z</time>
      </trkpt>
      <trkpt lat="46.42392" lon="6.09861">
        <ele>1640</ele>
        <time>2019-05-05T04:34:26Z</time>
      </trkpt>
      <trkpt lat="46.42386" lon="6.09851">
        <ele>1640</ele>
        <time>2019-05-05T04:34:33Z</time>
      </trkpt>
      <trkpt lat="46.42375" lon="6.09832">
        <ele>1636</ele>
        <time>2019-05-05T04:34:46Z</time>
      </trkpt>
      <trkpt lat="46.42373" lon="6.09831">
        <ele>1636</ele>
        <time>2019-05-05T04:34:47Z</time>
      </trkpt>
      <trkpt lat="46.42371" lon="6.09827">
        <ele>1635</ele>
        <time>2019-05-05T04:34:50Z</time>
      </trkpt>
      <trkpt lat="46.42367" lon="6.0982">
        <ele>1634</ele>
        <time>2019-05-05T04:34:54Z</time>
      </trkpt>
      <trkpt lat="46.42364" lon="6.09818">
        <ele>1634</ele>
        <time>2019-05-05T04:34:56Z</time>
      </trkpt>
      <trkpt lat="46.42362" lon="6.09814">
        <ele>1634</ele>
        <time>2019-05-05T04:34:59Z</time>
      </trkpt>
      <trkpt lat="46.42361" lon="6.09808">
        <ele>1633</ele>
        <time>2019-05-05T04:35:02Z</time>
      </trkpt>
      <trkpt lat="46.42358" lon="6.09801">
        <ele>1632</ele>
        <time>2019-05-05T04:35:06Z</time>
      </trkpt>
      <trkpt lat="46.42349" lon="6.0979">
        <ele>1631</ele>
        <time>2019-05-05T04:35:15Z</time>
      </trkpt>
      <trkpt lat="46.42346" lon="6.09787">
        <ele>1630</ele>
        <time>2019-05-05T04:35:18Z</time>
      </trkpt>
      <trkpt lat="46.42343" lon="6.09784">
        <ele>1629</ele>
        <time>2019-05-05T04:35:20Z</time>
      </trkpt>
      <trkpt lat="46.42336" lon="6.09774">
        <ele>1628</ele>
        <time>2019-05-05T04:35:28Z</time>
      </trkpt>
      <trkpt lat="46.42331" lon="6.09769">
        <ele>1628</ele>
        <time>2019-05-05T04:35:32Z</time>
      </trkpt>
      <trkpt lat="46.42327" lon="6.09764">
        <ele>1626</ele>
        <time>2019-05-05T04:35:36Z</time>
      </trkpt>
      <trkpt lat="46.42322" lon="6.09758">
        <ele>1625</ele>
        <time>2019-05-05T04:35:40Z</time>
      </trkpt>
      <trkpt lat="46.42321" lon="6.09756">
        <ele>1624</ele>
        <time>2019-05-05T04:35:42Z</time>
      </trkpt>
      <trkpt lat="46.42319" lon="6.09753">
        <ele>1624</ele>
        <time>2019-05-05T04:35:44Z</time>
      </trkpt>
      <trkpt lat="46.42316" lon="6.09751">
        <ele>1623</ele>
        <time>2019-05-05T04:35:46Z</time>
      </trkpt>
      <trkpt lat="46.42311" lon="6.09749">
        <ele>1623</ele>
        <time>2019-05-05T04:35:50Z</time>
      </trkpt>
      <trkpt lat="46.42306" lon="6.09745">
        <ele>1622</ele>
        <time>2019-05-05T04:35:54Z</time>
      </trkpt>
      <trkpt lat="46.42295" lon="6.09738">
        <ele>1621</ele>
        <time>2019-05-05T04:36:03Z</time>
      </trkpt>
      <trkpt lat="46.42283" lon="6.0973">
        <ele>1620</ele>
        <time>2019-05-05T04:36:12Z</time>
      </trkpt>
      <trkpt lat="46.42281" lon="6.09728">
        <ele>1620</ele>
        <time>2019-05-05T04:36:15Z</time>
      </trkpt>
      <trkpt lat="46.42277" lon="6.09722">
        <ele>1620</ele>
        <time>2019-05-05T04:36:19Z</time>
      </trkpt>
      <trkpt lat="46.42271" lon="6.09714">
        <ele>1620</ele>
        <time>2019-05-05T04:36:24Z</time>
      </trkpt>
      <trkpt lat="46.42252" lon="6.09704">
        <ele>1618</ele>
        <time>2019-05-05T04:36:39Z</time>
      </trkpt>
      <trkpt lat="46.42246" lon="6.097">
        <ele>1618</ele>
        <time>2019-05-05T04:36:43Z</time>
      </trkpt>
      <trkpt lat="46.42233" lon="6.09689">
        <ele>1617</ele>
        <time>2019-05-05T04:36:54Z</time>
      </trkpt>
      <trkpt lat="46.4223" lon="6.09685">
        <ele>1617</ele>
        <time>2019-05-05T04:36:58Z</time>
      </trkpt>
      <trkpt lat="46.42214" lon="6.09669">
        <ele>1615</ele>
        <time>2019-05-05T04:37:12Z</time>
      </trkpt>
      <trkpt lat="46.4221" lon="6.09666">
        <ele>1615</ele>
        <time>2019-05-05T04:37:15Z</time>
      </trkpt>
      <trkpt lat="46.42197" lon="6.09648">
        <ele>1614</ele>
        <time>2019-05-05T04:37:28Z</time>
      </trkpt>
      <trkpt lat="46.42189" lon="6.09645">
        <ele>1614</ele>
        <time>2019-05-05T04:37:34Z</time>
      </trkpt>
      <trkpt lat="46.42186" lon="6.09642">
        <ele>1613</ele>
        <time>2019-05-05T04:37:36Z</time>
      </trkpt>
      <trkpt lat="46.42184" lon="6.09639">
        <ele>1613</ele>
        <time>2019-05-05T04:37:38Z</time>
      </trkpt>
      <trkpt lat="46.42182" lon="6.09637">
        <ele>1613</ele>
        <time>2019-05-05T04:37:40Z</time>
      </trkpt>
      <trkpt lat="46.42178" lon="6.0963">
        <ele>1612</ele>
        <time>2019-05-05T04:37:45Z</time>
      </trkpt>
      <trkpt lat="46.42171" lon="6.09627">
        <ele>1611</ele>
        <time>2019-05-05T04:37:50Z</time>
      </trkpt>
      <trkpt lat="46.42169" lon="6.09627">
        <ele>1611</ele>
        <time>2019-05-05T04:37:52Z</time>
      </trkpt>
      <trkpt lat="46.42166" lon="6.09627">
        <ele>1610</ele>
        <time>2019-05-05T04:37:54Z</time>
      </trkpt>
      <trkpt lat="46.42162" lon="6.09625">
        <ele>1610</ele>
        <time>2019-05-05T04:37:57Z</time>
      </trkpt>
      <trkpt lat="46.42161" lon="6.0962">
        <ele>1610</ele>
        <time>2019-05-05T04:38:00Z</time>
      </trkpt>
      <trkpt lat="46.42158" lon="6.09618">
        <ele>1609</ele>
        <time>2019-05-05T04:38:02Z</time>
      </trkpt>
      <trkpt lat="46.42156" lon="6.09618">
        <ele>1609</ele>
        <time>2019-05-05T04:38:04Z</time>
      </trkpt>
      <trkpt lat="46.42155" lon="6.09619">
        <ele>1609</ele>
        <time>2019-05-05T04:38:04Z</time>
      </trkpt>
      <trkpt lat="46.42155" lon="6.09619">
        <ele>1609</ele>
        <time>2019-05-05T04:38:05Z</time>
      </trkpt>
      <trkpt lat="46.42153" lon="6.0962">
        <ele>1609</ele>
        <time>2019-05-05T04:38:06Z</time>
      </trkpt>
      <trkpt lat="46.42148" lon="6.0962">
        <ele>1608</ele>
        <time>2019-05-05T04:38:10Z</time>
      </trkpt>
      <trkpt lat="46.42145" lon="6.09618">
        <ele>1608</ele>
        <time>2019-05-05T04:38:12Z</time>
      </trkpt>
      <trkpt lat="46.42144" lon="6.09617">
        <ele>1608</ele>
        <time>2019-05-05T04:38:13Z</time>
      </trkpt>
      <trkpt lat="46.42142" lon="6.09616">
        <ele>1608</ele>
        <time>2019-05-05T04:38:14Z</time>
      </trkpt>
      <trkpt lat="46.42137" lon="6.09611">
        <ele>1607</ele>
        <time>2019-05-05T04:38:18Z</time>
      </trkpt>
      <trkpt lat="46.42135" lon="6.09608">
        <ele>1607</ele>
        <time>2019-05-05T04:38:21Z</time>
      </trkpt>
      <trkpt lat="46.42133" lon="6.09607">
        <ele>1607</ele>
        <time>2019-05-05T04:38:22Z</time>
      </trkpt>
      <trkpt lat="46.42126" lon="6.09604">
        <ele>1607</ele>
        <time>2019-05-05T04:38:28Z</time>
      </trkpt>
      <trkpt lat="46.42124" lon="6.09601">
        <ele>1607</ele>
        <time>2019-05-05T04:38:30Z</time>
      </trkpt>
      <trkpt lat="46.42114" lon="6.09594">
        <ele>1605</ele>
        <time>2019-05-05T04:38:38Z</time>
      </trkpt>
      <trkpt lat="46.42112" lon="6.09593">
        <ele>1604</ele>
        <time>2019-05-05T04:38:39Z</time>
      </trkpt>
      <trkpt lat="46.4211" lon="6.09592">
        <ele>1604</ele>
        <time>2019-05-05T04:38:41Z</time>
      </trkpt>
      <trkpt lat="46.42106" lon="6.09589">
        <ele>1603</ele>
        <time>2019-05-05T04:38:44Z</time>
      </trkpt>
      <trkpt lat="46.42102" lon="6.09586">
        <ele>1602</ele>
        <time>2019-05-05T04:38:47Z</time>
      </trkpt>
      <trkpt lat="46.42101" lon="6.09585">
        <ele>1601</ele>
        <time>2019-05-05T04:38:49Z</time>
      </trkpt>
      <trkpt lat="46.421" lon="6.09585">
        <ele>1601</ele>
        <time>2019-05-05T04:38:49Z</time>
      </trkpt>
      <trkpt lat="46.42098" lon="6.0958">
        <ele>1600</ele>
        <time>2019-05-05T04:38:52Z</time>
      </trkpt>
      <trkpt lat="46.42098" lon="6.09579">
        <ele>1600</ele>
        <time>2019-05-05T04:38:53Z</time>
      </trkpt>
      <trkpt lat="46.42096" lon="6.09576">
        <ele>1599</ele>
        <time>2019-05-05T04:38:54Z</time>
      </trkpt>
      <trkpt lat="46.42093" lon="6.09573">
        <ele>1598</ele>
        <time>2019-05-05T04:38:58Z</time>
      </trkpt>
      <trkpt lat="46.42088" lon="6.09568">
        <ele>1596</ele>
        <time>2019-05-05T04:39:02Z</time>
      </trkpt>
      <trkpt lat="46.42085" lon="6.09565">
        <ele>1595</ele>
        <time>2019-05-05T04:39:05Z</time>
      </trkpt>
      <trkpt lat="46.42081" lon="6.09564">
        <ele>1594</ele>
        <time>2019-05-05T04:39:07Z</time>
      </trkpt>
      <trkpt lat="46.42079" lon="6.09564">
        <ele>1593</ele>
        <time>2019-05-05T04:39:09Z</time>
      </trkpt>
      <trkpt lat="46.42078" lon="6.09565">
        <ele>1593</ele>
        <time>2019-05-05T04:39:10Z</time>
      </trkpt>
      <trkpt lat="46.42077" lon="6.09564">
        <ele>1593</ele>
        <time>2019-05-05T04:39:11Z</time>
      </trkpt>
      <trkpt lat="46.42075" lon="6.09564">
        <ele>1592</ele>
        <time>2019-05-05T04:39:12Z</time>
      </trkpt>
      <trkpt lat="46.42073" lon="6.09564">
        <ele>1592</ele>
        <time>2019-05-05T04:39:14Z</time>
      </trkpt>
      <trkpt lat="46.42067" lon="6.09562">
        <ele>1590</ele>
        <time>2019-05-05T04:39:18Z</time>
      </trkpt>
      <trkpt lat="46.42063" lon="6.09555">
        <ele>1589</ele>
        <time>2019-05-05T04:39:23Z</time>
      </trkpt>
      <trkpt lat="46.42062" lon="6.09552">
        <ele>1588</ele>
        <time>2019-05-05T04:39:25Z</time>
      </trkpt>
      <trkpt lat="46.42061" lon="6.09551">
        <ele>1588</ele>
        <time>2019-05-05T04:39:25Z</time>
      </trkpt>
      <trkpt lat="46.42058" lon="6.09546">
        <ele>1587</ele>
        <time>2019-05-05T04:39:29Z</time>
      </trkpt>
      <trkpt lat="46.42054" lon="6.09545">
        <ele>1586</ele>
        <time>2019-05-05T04:39:32Z</time>
      </trkpt>
      <trkpt lat="46.42049" lon="6.09541">
        <ele>1585</ele>
        <time>2019-05-05T04:39:36Z</time>
      </trkpt>
      <trkpt lat="46.42048" lon="6.0954">
        <ele>1584</ele>
        <time>2019-05-05T04:39:37Z</time>
      </trkpt>
      <trkpt lat="46.42045" lon="6.09537">
        <ele>1584</ele>
        <time>2019-05-05T04:39:40Z</time>
      </trkpt>
      <trkpt lat="46.4204" lon="6.09528">
        <ele>1582</ele>
        <time>2019-05-05T04:39:45Z</time>
      </trkpt>
      <trkpt lat="46.42038" lon="6.09525">
        <ele>1582</ele>
        <time>2019-05-05T04:39:48Z</time>
      </trkpt>
      <trkpt lat="46.42036" lon="6.09524">
        <ele>1581</ele>
        <time>2019-05-05T04:39:50Z</time>
      </trkpt>
      <trkpt lat="46.42034" lon="6.09523">
        <ele>1581</ele>
        <time>2019-05-05T04:39:51Z</time>
      </trkpt>
      <trkpt lat="46.42032" lon="6.0952">
        <ele>1581</ele>
        <time>2019-05-05T04:39:53Z</time>
      </trkpt>
      <trkpt lat="46.42032" lon="6.0952">
        <ele>1581</ele>
        <time>2019-05-05T04:39:53Z</time>
      </trkpt>
      <trkpt lat="46.4203" lon="6.09517">
        <ele>1580</ele>
        <time>2019-05-05T04:39:55Z</time>
      </trkpt>
      <trkpt lat="46.42029" lon="6.09517">
        <ele>1580</ele>
        <time>2019-05-05T04:39:56Z</time>
      </trkpt>
      <trkpt lat="46.42024" lon="6.09514">
        <ele>1578</ele>
        <time>2019-05-05T04:40:00Z</time>
      </trkpt>
      <trkpt lat="46.42021" lon="6.09513">
        <ele>1578</ele>
        <time>2019-05-05T04:40:02Z</time>
      </trkpt>
      <trkpt lat="46.4202" lon="6.09511">
        <ele>1577</ele>
        <time>2019-05-05T04:40:04Z</time>
      </trkpt>
      <trkpt lat="46.42018" lon="6.09508">
        <ele>1576</ele>
        <time>2019-05-05T04:40:06Z</time>
      </trkpt>
      <trkpt lat="46.42018" lon="6.09507">
        <ele>1576</ele>
        <time>2019-05-05T04:40:06Z</time>
      </trkpt>
      <trkpt lat="46.42017" lon="6.09505">
        <ele>1576</ele>
        <time>2019-05-05T04:40:07Z</time>
      </trkpt>
      <trkpt lat="46.42016" lon="6.09499">
        <ele>1575</ele>
        <time>2019-05-05T04:40:11Z</time>
      </trkpt>
      <trkpt lat="46.42015" lon="6.09496">
        <ele>1574</ele>
        <time>2019-05-05T04:40:12Z</time>
      </trkpt>
      <trkpt lat="46.42013" lon="6.09495">
        <ele>1573</ele>
        <time>2019-05-05T04:40:14Z</time>
      </trkpt>
      <trkpt lat="46.42012" lon="6.09492">
        <ele>1573</ele>
        <time>2019-05-05T04:40:16Z</time>
      </trkpt>
      <trkpt lat="46.42009" lon="6.09485">
        <ele>1571</ele>
        <time>2019-05-05T04:40:20Z</time>
      </trkpt>
      <trkpt lat="46.42006" lon="6.0948">
        <ele>1570</ele>
        <time>2019-05-05T04:40:24Z</time>
      </trkpt>
      <trkpt lat="46.42004" lon="6.09479">
        <ele>1569</ele>
        <time>2019-05-05T04:40:25Z</time>
      </trkpt>
      <trkpt lat="46.42002" lon="6.09476">
        <ele>1569</ele>
        <time>2019-05-05T04:40:27Z</time>
      </trkpt>
      <trkpt lat="46.42001" lon="6.09474">
        <ele>1569</ele>
        <time>2019-05-05T04:40:28Z</time>
      </trkpt>
      <trkpt lat="46.42" lon="6.09471">
        <ele>1568</ele>
        <time>2019-05-05T04:40:30Z</time>
      </trkpt>
      <trkpt lat="46.41997" lon="6.09466">
        <ele>1567</ele>
        <time>2019-05-05T04:40:34Z</time>
      </trkpt>
      <trkpt lat="46.41993" lon="6.09462">
        <ele>1566</ele>
        <time>2019-05-05T04:40:37Z</time>
      </trkpt>
      <trkpt lat="46.41991" lon="6.0946">
        <ele>1565</ele>
        <time>2019-05-05T04:40:39Z</time>
      </trkpt>
      <trkpt lat="46.41986" lon="6.09456">
        <ele>1564</ele>
        <time>2019-05-05T04:40:43Z</time>
      </trkpt>
      <trkpt lat="46.41984" lon="6.09453">
        <ele>1563</ele>
        <time>2019-05-05T04:40:45Z</time>
      </trkpt>
      <trkpt lat="46.41981" lon="6.0945">
        <ele>1562</ele>
        <time>2019-05-05T04:40:48Z</time>
      </trkpt>
      <trkpt lat="46.41978" lon="6.09446">
        <ele>1562</ele>
        <time>2019-05-05T04:40:51Z</time>
      </trkpt>
      <trkpt lat="46.41976" lon="6.09441">
        <ele>1561</ele>
        <time>2019-05-05T04:40:54Z</time>
      </trkpt>
      <trkpt lat="46.41974" lon="6.0944">
        <ele>1560</ele>
        <time>2019-05-05T04:40:55Z</time>
      </trkpt>
      <trkpt lat="46.41973" lon="6.09438">
        <ele>1560</ele>
        <time>2019-05-05T04:40:57Z</time>
      </trkpt>
      <trkpt lat="46.41971" lon="6.09433">
        <ele>1559</ele>
        <time>2019-05-05T04:41:00Z</time>
      </trkpt>
      <trkpt lat="46.4197" lon="6.0943">
        <ele>1559</ele>
        <time>2019-05-05T04:41:02Z</time>
      </trkpt>
      <trkpt lat="46.41969" lon="6.0943">
        <ele>1558</ele>
        <time>2019-05-05T04:41:02Z</time>
      </trkpt>
      <trkpt lat="46.41963" lon="6.09429">
        <ele>1557</ele>
        <time>2019-05-05T04:41:07Z</time>
      </trkpt>
      <trkpt lat="46.41959" lon="6.09426">
        <ele>1556</ele>
        <time>2019-05-05T04:41:11Z</time>
      </trkpt>
      <trkpt lat="46.41952" lon="6.09422">
        <ele>1554</ele>
        <time>2019-05-05T04:41:16Z</time>
      </trkpt>
      <trkpt lat="46.4195" lon="6.09421">
        <ele>1554</ele>
        <time>2019-05-05T04:41:18Z</time>
      </trkpt>
      <trkpt lat="46.41947" lon="6.09419">
        <ele>1553</ele>
        <time>2019-05-05T04:41:20Z</time>
      </trkpt>
      <trkpt lat="46.41939" lon="6.09414">
        <ele>1551</ele>
        <time>2019-05-05T04:41:27Z</time>
      </trkpt>
      <trkpt lat="46.41936" lon="6.09412">
        <ele>1550</ele>
        <time>2019-05-05T04:41:29Z</time>
      </trkpt>
      <trkpt lat="46.41935" lon="6.09411">
        <ele>1549</ele>
        <time>2019-05-05T04:41:30Z</time>
      </trkpt>
      <trkpt lat="46.41933" lon="6.09411">
        <ele>1549</ele>
        <time>2019-05-05T04:41:31Z</time>
      </trkpt>
      <trkpt lat="46.41933" lon="6.0941">
        <ele>1549</ele>
        <time>2019-05-05T04:41:32Z</time>
      </trkpt>
      <trkpt lat="46.4193" lon="6.09403">
        <ele>1547</ele>
        <time>2019-05-05T04:41:36Z</time>
      </trkpt>
      <trkpt lat="46.41927" lon="6.09396">
        <ele>1545</ele>
        <time>2019-05-05T04:41:40Z</time>
      </trkpt>
      <trkpt lat="46.41924" lon="6.0939">
        <ele>1544</ele>
        <time>2019-05-05T04:41:44Z</time>
      </trkpt>
      <trkpt lat="46.41922" lon="6.09385">
        <ele>1543</ele>
        <time>2019-05-05T04:41:47Z</time>
      </trkpt>
      <trkpt lat="46.41922" lon="6.09382">
        <ele>1542</ele>
        <time>2019-05-05T04:41:49Z</time>
      </trkpt>
      <trkpt lat="46.41922" lon="6.09381">
        <ele>1542</ele>
        <time>2019-05-05T04:41:49Z</time>
      </trkpt>
      <trkpt lat="46.41921" lon="6.09378">
        <ele>1542</ele>
        <time>2019-05-05T04:41:51Z</time>
      </trkpt>
      <trkpt lat="46.41921" lon="6.09377">
        <ele>1541</ele>
        <time>2019-05-05T04:41:52Z</time>
      </trkpt>
      <trkpt lat="46.4192" lon="6.09375">
        <ele>1541</ele>
        <time>2019-05-05T04:41:53Z</time>
      </trkpt>
      <trkpt lat="46.41919" lon="6.09374">
        <ele>1541</ele>
        <time>2019-05-05T04:41:54Z</time>
      </trkpt>
      <trkpt lat="46.41918" lon="6.09372">
        <ele>1540</ele>
        <time>2019-05-05T04:41:56Z</time>
      </trkpt>
      <trkpt lat="46.41914" lon="6.09368">
        <ele>1539</ele>
        <time>2019-05-05T04:41:59Z</time>
      </trkpt>
      <trkpt lat="46.41911" lon="6.09368">
        <ele>1538</ele>
        <time>2019-05-05T04:42:02Z</time>
      </trkpt>
      <trkpt lat="46.41907" lon="6.09366">
        <ele>1537</ele>
        <time>2019-05-05T04:42:05Z</time>
      </trkpt>
      <trkpt lat="46.41906" lon="6.09366">
        <ele>1537</ele>
        <time>2019-05-05T04:42:05Z</time>
      </trkpt>
      <trkpt lat="46.41904" lon="6.09366">
        <ele>1536</ele>
        <time>2019-05-05T04:42:07Z</time>
      </trkpt>
      <trkpt lat="46.41903" lon="6.09367">
        <ele>1536</ele>
        <time>2019-05-05T04:42:07Z</time>
      </trkpt>
      <trkpt lat="46.41902" lon="6.0936">
        <ele>1535</ele>
        <time>2019-05-05T04:42:11Z</time>
      </trkpt>
      <trkpt lat="46.419" lon="6.09354">
        <ele>1534</ele>
        <time>2019-05-05T04:42:15Z</time>
      </trkpt>
      <trkpt lat="46.41901" lon="6.09345">
        <ele>1533</ele>
        <time>2019-05-05T04:42:19Z</time>
      </trkpt>
      <trkpt lat="46.41899" lon="6.09339">
        <ele>1532</ele>
        <time>2019-05-05T04:42:22Z</time>
      </trkpt>
      <trkpt lat="46.41898" lon="6.09335">
        <ele>1530</ele>
        <time>2019-05-05T04:42:25Z</time>
      </trkpt>
      <trkpt lat="46.41896" lon="6.09333">
        <ele>1530</ele>
        <time>2019-05-05T04:42:26Z</time>
      </trkpt>
      <trkpt lat="46.41894" lon="6.09331">
        <ele>1529</ele>
        <time>2019-05-05T04:42:28Z</time>
      </trkpt>
      <trkpt lat="46.41887" lon="6.09324">
        <ele>1527</ele>
        <time>2019-05-05T04:42:35Z</time>
      </trkpt>
      <trkpt lat="46.41882" lon="6.09318">
        <ele>1525</ele>
        <time>2019-05-05T04:42:39Z</time>
      </trkpt>
      <trkpt lat="46.41879" lon="6.09315">
        <ele>1524</ele>
        <time>2019-05-05T04:42:42Z</time>
      </trkpt>
      <trkpt lat="46.41876" lon="6.09314">
        <ele>1523</ele>
        <time>2019-05-05T04:42:45Z</time>
      </trkpt>
      <trkpt lat="46.4187" lon="6.09311">
        <ele>1522</ele>
        <time>2019-05-05T04:42:49Z</time>
      </trkpt>
      <trkpt lat="46.41867" lon="6.09307">
        <ele>1521</ele>
        <time>2019-05-05T04:42:52Z</time>
      </trkpt>
      <trkpt lat="46.41865" lon="6.09302">
        <ele>1520</ele>
        <time>2019-05-05T04:42:55Z</time>
      </trkpt>
      <trkpt lat="46.41864" lon="6.09297">
        <ele>1520</ele>
        <time>2019-05-05T04:42:58Z</time>
      </trkpt>
      <trkpt lat="46.4186" lon="6.0929">
        <ele>1519</ele>
        <time>2019-05-05T04:43:02Z</time>
      </trkpt>
      <trkpt lat="46.41857" lon="6.09287">
        <ele>1518</ele>
        <time>2019-05-05T04:43:05Z</time>
      </trkpt>
      <trkpt lat="46.41855" lon="6.09286">
        <ele>1517</ele>
        <time>2019-05-05T04:43:07Z</time>
      </trkpt>
      <trkpt lat="46.41851" lon="6.09284">
        <ele>1517</ele>
        <time>2019-05-05T04:43:10Z</time>
      </trkpt>
      <trkpt lat="46.41847" lon="6.09281">
        <ele>1516</ele>
        <time>2019-05-05T04:43:13Z</time>
      </trkpt>
      <trkpt lat="46.4184" lon="6.09274">
        <ele>1514</ele>
        <time>2019-05-05T04:43:19Z</time>
      </trkpt>
      <trkpt lat="46.41834" lon="6.09269">
        <ele>1512</ele>
        <time>2019-05-05T04:43:25Z</time>
      </trkpt>
      <trkpt lat="46.41829" lon="6.09263">
        <ele>1511</ele>
        <time>2019-05-05T04:43:29Z</time>
      </trkpt>
      <trkpt lat="46.41824" lon="6.09256">
        <ele>1509</ele>
        <time>2019-05-05T04:43:34Z</time>
      </trkpt>
      <trkpt lat="46.41819" lon="6.0925">
        <ele>1508</ele>
        <time>2019-05-05T04:43:39Z</time>
      </trkpt>
      <trkpt lat="46.41811" lon="6.09243">
        <ele>1506</ele>
        <time>2019-05-05T04:43:46Z</time>
      </trkpt>
      <trkpt lat="46.41798" lon="6.09236">
        <ele>1504</ele>
        <time>2019-05-05T04:43:56Z</time>
      </trkpt>
      <trkpt lat="46.41795" lon="6.09236">
        <ele>1504</ele>
        <time>2019-05-05T04:43:58Z</time>
      </trkpt>
      <trkpt lat="46.4179" lon="6.09235">
        <ele>1503</ele>
        <time>2019-05-05T04:44:02Z</time>
      </trkpt>
      <trkpt lat="46.41784" lon="6.09234">
        <ele>1502</ele>
        <time>2019-05-05T04:44:07Z</time>
      </trkpt>
      <trkpt lat="46.41777" lon="6.09234">
        <ele>1502</ele>
        <time>2019-05-05T04:44:12Z</time>
      </trkpt>
      <trkpt lat="46.4177" lon="6.09231">
        <ele>1501</ele>
        <time>2019-05-05T04:44:17Z</time>
      </trkpt>
      <trkpt lat="46.41762" lon="6.09226">
        <ele>1500</ele>
        <time>2019-05-05T04:44:23Z</time>
      </trkpt>
      <trkpt lat="46.41755" lon="6.09227">
        <ele>1499</ele>
        <time>2019-05-05T04:44:28Z</time>
      </trkpt>
      <trkpt lat="46.41752" lon="6.09232">
        <ele>1499</ele>
        <time>2019-05-05T04:44:31Z</time>
      </trkpt>
      <trkpt lat="46.41744" lon="6.09237">
        <ele>1499</ele>
        <time>2019-05-05T04:44:37Z</time>
      </trkpt>
      <trkpt lat="46.41734" lon="6.09235">
        <ele>1498</ele>
        <time>2019-05-05T04:44:45Z</time>
      </trkpt>
      <trkpt lat="46.41726" lon="6.0923">
        <ele>1497</ele>
        <time>2019-05-05T04:44:51Z</time>
      </trkpt>
      <trkpt lat="46.41718" lon="6.09227">
        <ele>1496</ele>
        <time>2019-05-05T04:44:57Z</time>
      </trkpt>
      <trkpt lat="46.41714" lon="6.09224">
        <ele>1496</ele>
        <time>2019-05-05T04:45:00Z</time>
      </trkpt>
      <trkpt lat="46.4171" lon="6.09218">
        <ele>1495</ele>
        <time>2019-05-05T04:45:04Z</time>
      </trkpt>
      <trkpt lat="46.41699" lon="6.09216">
        <ele>1494</ele>
        <time>2019-05-05T04:45:13Z</time>
      </trkpt>
      <trkpt lat="46.41699" lon="6.09216">
        <ele>1494</ele>
        <time>2019-05-05T04:45:13Z</time>
      </trkpt>
      <trkpt lat="46.41693" lon="6.09209">
        <ele>1492</ele>
        <time>2019-05-05T04:45:18Z</time>
      </trkpt>
      <trkpt lat="46.41687" lon="6.09201">
        <ele>1491</ele>
        <time>2019-05-05T04:45:24Z</time>
      </trkpt>
      <trkpt lat="46.41682" lon="6.09197">
        <ele>1491</ele>
        <time>2019-05-05T04:45:29Z</time>
      </trkpt>
      <trkpt lat="46.41678" lon="6.09189">
        <ele>1491</ele>
        <time>2019-05-05T04:45:33Z</time>
      </trkpt>
      <trkpt lat="46.41677" lon="6.09187">
        <ele>1491</ele>
        <time>2019-05-05T04:45:35Z</time>
      </trkpt>
      <trkpt lat="46.41673" lon="6.0918">
        <ele>1490</ele>
        <time>2019-05-05T04:45:39Z</time>
      </trkpt>
      <trkpt lat="46.41672" lon="6.09175">
        <ele>1490</ele>
        <time>2019-05-05T04:45:42Z</time>
      </trkpt>
      <trkpt lat="46.41667" lon="6.09164">
        <ele>1489</ele>
        <time>2019-05-05T04:45:49Z</time>
      </trkpt>
      <trkpt lat="46.41666" lon="6.09164">
        <ele>1489</ele>
        <time>2019-05-05T04:45:49Z</time>
      </trkpt>
      <trkpt lat="46.41661" lon="6.09161">
        <ele>1489</ele>
        <time>2019-05-05T04:45:53Z</time>
      </trkpt>
      <trkpt lat="46.41663" lon="6.09162">
        <ele>1489</ele>
        <time>2019-05-05T04:45:55Z</time>
      </trkpt>
      <trkpt lat="46.41664" lon="6.09162">
        <ele>1489</ele>
        <time>2019-05-05T04:45:55Z</time>
      </trkpt>
      <trkpt lat="46.41664" lon="6.09161">
        <ele>1489</ele>
        <time>2019-05-05T04:45:56Z</time>
      </trkpt>
      <trkpt lat="46.41661" lon="6.09155">
        <ele>1489</ele>
        <time>2019-05-05T04:46:00Z</time>
      </trkpt>
      <trkpt lat="46.41659" lon="6.09152">
        <ele>1488</ele>
        <time>2019-05-05T04:46:02Z</time>
      </trkpt>
      <trkpt lat="46.41658" lon="6.0915">
        <ele>1488</ele>
        <time>2019-05-05T04:46:03Z</time>
      </trkpt>
      <trkpt lat="46.41657" lon="6.09143">
        <ele>1487</ele>
        <time>2019-05-05T04:46:07Z</time>
      </trkpt>
      <trkpt lat="46.41655" lon="6.09135">
        <ele>1486</ele>
        <time>2019-05-05T04:46:11Z</time>
      </trkpt>
      <trkpt lat="46.41652" lon="6.0913">
        <ele>1486</ele>
        <time>2019-05-05T04:46:15Z</time>
      </trkpt>
      <trkpt lat="46.41649" lon="6.09124">
        <ele>1485</ele>
        <time>2019-05-05T04:46:18Z</time>
      </trkpt>
      <trkpt lat="46.41644" lon="6.09117">
        <ele>1484</ele>
        <time>2019-05-05T04:46:23Z</time>
      </trkpt>
      <trkpt lat="46.41643" lon="6.09113">
        <ele>1483</ele>
        <time>2019-05-05T04:46:25Z</time>
      </trkpt>
      <trkpt lat="46.41641" lon="6.09104">
        <ele>1482</ele>
        <time>2019-05-05T04:46:30Z</time>
      </trkpt>
      <trkpt lat="46.41639" lon="6.09096">
        <ele>1480</ele>
        <time>2019-05-05T04:46:35Z</time>
      </trkpt>
      <trkpt lat="46.41636" lon="6.09091">
        <ele>1479</ele>
        <time>2019-05-05T04:46:38Z</time>
      </trkpt>
      <trkpt lat="46.41633" lon="6.09085">
        <ele>1478</ele>
        <time>2019-05-05T04:46:42Z</time>
      </trkpt>
      <trkpt lat="46.41632" lon="6.09081">
        <ele>1477</ele>
        <time>2019-05-05T04:46:44Z</time>
      </trkpt>
      <trkpt lat="46.41632" lon="6.0908">
        <ele>1477</ele>
        <time>2019-05-05T04:46:45Z</time>
      </trkpt>
      <trkpt lat="46.4163" lon="6.09072">
        <ele>1475</ele>
        <time>2019-05-05T04:46:49Z</time>
      </trkpt>
      <trkpt lat="46.41627" lon="6.09068">
        <ele>1474</ele>
        <time>2019-05-05T04:46:52Z</time>
      </trkpt>
      <trkpt lat="46.41626" lon="6.09065">
        <ele>1473</ele>
        <time>2019-05-05T04:46:54Z</time>
      </trkpt>
      <trkpt lat="46.41624" lon="6.09058">
        <ele>1472</ele>
        <time>2019-05-05T04:46:57Z</time>
      </trkpt>
      <trkpt lat="46.41623" lon="6.09053">
        <ele>1471</ele>
        <time>2019-05-05T04:47:00Z</time>
      </trkpt>
      <trkpt lat="46.41622" lon="6.09049">
        <ele>1470</ele>
        <time>2019-05-05T04:47:02Z</time>
      </trkpt>
      <trkpt lat="46.41621" lon="6.09043">
        <ele>1469</ele>
        <time>2019-05-05T04:47:06Z</time>
      </trkpt>
      <trkpt lat="46.41617" lon="6.09035">
        <ele>1467</ele>
        <time>2019-05-05T04:47:10Z</time>
      </trkpt>
      <trkpt lat="46.41616" lon="6.0903">
        <ele>1465</ele>
        <time>2019-05-05T04:47:13Z</time>
      </trkpt>
      <trkpt lat="46.41612" lon="6.0902">
        <ele>1463</ele>
        <time>2019-05-05T04:47:20Z</time>
      </trkpt>
      <trkpt lat="46.4161" lon="6.09015">
        <ele>1462</ele>
        <time>2019-05-05T04:47:23Z</time>
      </trkpt>
      <trkpt lat="46.41608" lon="6.09011">
        <ele>1461</ele>
        <time>2019-05-05T04:47:25Z</time>
      </trkpt>
      <trkpt lat="46.41605" lon="6.09004">
        <ele>1460</ele>
        <time>2019-05-05T04:47:29Z</time>
      </trkpt>
      <trkpt lat="46.41598" lon="6.08979">
        <ele>1458</ele>
        <time>2019-05-05T04:47:42Z</time>
      </trkpt>
      <trkpt lat="46.41596" lon="6.08973">
        <ele>1457</ele>
        <time>2019-05-05T04:47:46Z</time>
      </trkpt>
      <trkpt lat="46.41594" lon="6.08963">
        <ele>1456</ele>
        <time>2019-05-05T04:47:51Z</time>
      </trkpt>
      <trkpt lat="46.41594" lon="6.0896">
        <ele>1456</ele>
        <time>2019-05-05T04:47:52Z</time>
      </trkpt>
      <trkpt lat="46.41591" lon="6.08957">
        <ele>1456</ele>
        <time>2019-05-05T04:47:55Z</time>
      </trkpt>
      <trkpt lat="46.41588" lon="6.08951">
        <ele>1455</ele>
        <time>2019-05-05T04:47:59Z</time>
      </trkpt>
      <trkpt lat="46.41588" lon="6.08948">
        <ele>1455</ele>
        <time>2019-05-05T04:48:00Z</time>
      </trkpt>
      <trkpt lat="46.41587" lon="6.08943">
        <ele>1454</ele>
        <time>2019-05-05T04:48:03Z</time>
      </trkpt>
      <trkpt lat="46.41588" lon="6.08936">
        <ele>1453</ele>
        <time>2019-05-05T04:48:07Z</time>
      </trkpt>
      <trkpt lat="46.41588" lon="6.08932">
        <ele>1453</ele>
        <time>2019-05-05T04:48:09Z</time>
      </trkpt>
      <trkpt lat="46.41588" lon="6.08927">
        <ele>1452</ele>
        <time>2019-05-05T04:48:12Z</time>
      </trkpt>
      <trkpt lat="46.41588" lon="6.08924">
        <ele>1451</ele>
        <time>2019-05-05T04:48:13Z</time>
      </trkpt>
      <trkpt lat="46.41587" lon="6.08919">
        <ele>1450</ele>
        <time>2019-05-05T04:48:16Z</time>
      </trkpt>
      <trkpt lat="46.41587" lon="6.08917">
        <ele>1450</ele>
        <time>2019-05-05T04:48:17Z</time>
      </trkpt>
      <trkpt lat="46.41587" lon="6.08914">
        <ele>1449</ele>
        <time>2019-05-05T04:48:18Z</time>
      </trkpt>
      <trkpt lat="46.41587" lon="6.08911">
        <ele>1449</ele>
        <time>2019-05-05T04:48:20Z</time>
      </trkpt>
      <trkpt lat="46.41587" lon="6.08911">
        <ele>1449</ele>
        <time>2019-05-05T04:48:20Z</time>
      </trkpt>
      <trkpt lat="46.41587" lon="6.0891">
        <ele>1449</ele>
        <time>2019-05-05T04:48:21Z</time>
      </trkpt>
      <trkpt lat="46.41587" lon="6.08903">
        <ele>1447</ele>
        <time>2019-05-05T04:48:25Z</time>
      </trkpt>
      <trkpt lat="46.41587" lon="6.08901">
        <ele>1447</ele>
        <time>2019-05-05T04:48:26Z</time>
      </trkpt>
      <trkpt lat="46.41586" lon="6.08892">
        <ele>1445</ele>
        <time>2019-05-05T04:48:30Z</time>
      </trkpt>
      <trkpt lat="46.41586" lon="6.08889">
        <ele>1445</ele>
        <time>2019-05-05T04:48:32Z</time>
      </trkpt>
      <trkpt lat="46.41586" lon="6.08888">
        <ele>1444</ele>
        <time>2019-05-05T04:48:33Z</time>
      </trkpt>
      <trkpt lat="46.41586" lon="6.08884">
        <ele>1444</ele>
        <time>2019-05-05T04:48:34Z</time>
      </trkpt>
      <trkpt lat="46.41584" lon="6.08877">
        <ele>1443</ele>
        <time>2019-05-05T04:48:38Z</time>
      </trkpt>
      <trkpt lat="46.4158" lon="6.08869">
        <ele>1442</ele>
        <time>2019-05-05T04:48:43Z</time>
      </trkpt>
      <trkpt lat="46.41578" lon="6.08867">
        <ele>1442</ele>
        <time>2019-05-05T04:48:45Z</time>
      </trkpt>
      <trkpt lat="46.41567" lon="6.08854">
        <ele>1442</ele>
        <time>2019-05-05T04:48:56Z</time>
      </trkpt>
      <trkpt lat="46.41551" lon="6.08839">
        <ele>1442</ele>
        <time>2019-05-05T04:49:09Z</time>
      </trkpt>
      <trkpt lat="46.41547" lon="6.08834">
        <ele>1442</ele>
        <time>2019-05-05T04:49:13Z</time>
      </trkpt>
      <trkpt lat="46.41543" lon="6.08824">
        <ele>1441</ele>
        <time>2019-05-05T04:49:19Z</time>
      </trkpt>
      <trkpt lat="46.4154" lon="6.08812">
        <ele>1439</ele>
        <time>2019-05-05T04:49:25Z</time>
      </trkpt>
      <trkpt lat="46.4154" lon="6.08801">
        <ele>1437</ele>
        <time>2019-05-05T04:49:31Z</time>
      </trkpt>
      <trkpt lat="46.4154" lon="6.088">
        <ele>1436</ele>
        <time>2019-05-05T04:49:32Z</time>
      </trkpt>
      <trkpt lat="46.41542" lon="6.08796">
        <ele>1435</ele>
        <time>2019-05-05T04:49:34Z</time>
      </trkpt>
      <trkpt lat="46.41544" lon="6.08793">
        <ele>1434</ele>
        <time>2019-05-05T04:49:36Z</time>
      </trkpt>
      <trkpt lat="46.41543" lon="6.08789">
        <ele>1433</ele>
        <time>2019-05-05T04:49:38Z</time>
      </trkpt>
      <trkpt lat="46.41544" lon="6.08787">
        <ele>1432</ele>
        <time>2019-05-05T04:49:40Z</time>
      </trkpt>
      <trkpt lat="46.41545" lon="6.08784">
        <ele>1432</ele>
        <time>2019-05-05T04:49:41Z</time>
      </trkpt>
      <trkpt lat="46.41545" lon="6.08783">
        <ele>1431</ele>
        <time>2019-05-05T04:49:42Z</time>
      </trkpt>
      <trkpt lat="46.41544" lon="6.08769">
        <ele>1429</ele>
        <time>2019-05-05T04:49:49Z</time>
      </trkpt>
      <trkpt lat="46.41544" lon="6.08759">
        <ele>1426</ele>
        <time>2019-05-05T04:49:54Z</time>
      </trkpt>
      <trkpt lat="46.41543" lon="6.0875">
        <ele>1424</ele>
        <time>2019-05-05T04:49:59Z</time>
      </trkpt>
      <trkpt lat="46.41529" lon="6.08733">
        <ele>1423</ele>
        <time>2019-05-05T04:50:12Z</time>
      </trkpt>
      <trkpt lat="46.41526" lon="6.08729">
        <ele>1423</ele>
        <time>2019-05-05T04:50:15Z</time>
      </trkpt>
      <trkpt lat="46.41513" lon="6.08709">
        <ele>1420</ele>
        <time>2019-05-05T04:50:29Z</time>
      </trkpt>
      <trkpt lat="46.41509" lon="6.08706">
        <ele>1419</ele>
        <time>2019-05-05T04:50:33Z</time>
      </trkpt>
      <trkpt lat="46.41504" lon="6.08701">
        <ele>1419</ele>
        <time>2019-05-05T04:50:37Z</time>
      </trkpt>
      <trkpt lat="46.41488" lon="6.08686">
        <ele>1418</ele>
        <time>2019-05-05T04:50:51Z</time>
      </trkpt>
      <trkpt lat="46.41474" lon="6.08669">
        <ele>1416</ele>
        <time>2019-05-05T04:51:04Z</time>
      </trkpt>
      <trkpt lat="46.41458" lon="6.08657">
        <ele>1416</ele>
        <time>2019-05-05T04:51:17Z</time>
      </trkpt>
      <trkpt lat="46.41439" lon="6.08651">
        <ele>1417</ele>
        <time>2019-05-05T04:51:31Z</time>
      </trkpt>
      <trkpt lat="46.41427" lon="6.08647">
        <ele>1416</ele>
        <time>2019-05-05T04:51:40Z</time>
      </trkpt>
      <trkpt lat="46.41415" lon="6.08643">
        <ele>1415</ele>
        <time>2019-05-05T04:51:49Z</time>
      </trkpt>
      <trkpt lat="46.41412" lon="6.08642">
        <ele>1415</ele>
        <time>2019-05-05T04:51:51Z</time>
      </trkpt>
      <trkpt lat="46.41394" lon="6.08635">
        <ele>1413</ele>
        <time>2019-05-05T04:52:05Z</time>
      </trkpt>
      <trkpt lat="46.41375" lon="6.08632">
        <ele>1413</ele>
        <time>2019-05-05T04:52:18Z</time>
      </trkpt>
      <trkpt lat="46.41368" lon="6.0863">
        <ele>1413</ele>
        <time>2019-05-05T04:52:24Z</time>
      </trkpt>
      <trkpt lat="46.41366" lon="6.0863">
        <ele>1413</ele>
        <time>2019-05-05T04:52:25Z</time>
      </trkpt>
      <trkpt lat="46.41364" lon="6.08631">
        <ele>1413</ele>
        <time>2019-05-05T04:52:26Z</time>
      </trkpt>
      <trkpt lat="46.41359" lon="6.08633">
        <ele>1413</ele>
        <time>2019-05-05T04:52:30Z</time>
      </trkpt>
      <trkpt lat="46.41356" lon="6.08635">
        <ele>1414</ele>
        <time>2019-05-05T04:52:33Z</time>
      </trkpt>
      <trkpt lat="46.41351" lon="6.08637">
        <ele>1414</ele>
        <time>2019-05-05T04:52:36Z</time>
      </trkpt>
      <trkpt lat="46.41336" lon="6.08652">
        <ele>1417</ele>
        <time>2019-05-05T04:52:50Z</time>
      </trkpt>
      <trkpt lat="46.41332" lon="6.08655">
        <ele>1417</ele>
        <time>2019-05-05T04:52:53Z</time>
      </trkpt>
      <trkpt lat="46.41315" lon="6.08667">
        <ele>1418</ele>
        <time>2019-05-05T04:53:07Z</time>
      </trkpt>
      <trkpt lat="46.41308" lon="6.08671">
        <ele>1418</ele>
        <time>2019-05-05T04:53:12Z</time>
      </trkpt>
      <trkpt lat="46.41287" lon="6.08671">
        <ele>1417</ele>
        <time>2019-05-05T04:53:27Z</time>
      </trkpt>
      <trkpt lat="46.41269" lon="6.08673">
        <ele>1416</ele>
        <time>2019-05-05T04:53:40Z</time>
      </trkpt>
      <trkpt lat="46.41266" lon="6.08672">
        <ele>1416</ele>
        <time>2019-05-05T04:53:43Z</time>
      </trkpt>
      <trkpt lat="46.41255" lon="6.08669">
        <ele>1415</ele>
        <time>2019-05-05T04:53:51Z</time>
      </trkpt>
      <trkpt lat="46.41245" lon="6.08659">
        <ele>1414</ele>
        <time>2019-05-05T04:53:59Z</time>
      </trkpt>
      <trkpt lat="46.41237" lon="6.08648">
        <ele>1412</ele>
        <time>2019-05-05T04:54:08Z</time>
      </trkpt>
      <trkpt lat="46.41232" lon="6.08642">
        <ele>1411</ele>
        <time>2019-05-05T04:54:12Z</time>
      </trkpt>
      <trkpt lat="46.41219" lon="6.08624">
        <ele>1409</ele>
        <time>2019-05-05T04:54:25Z</time>
      </trkpt>
      <trkpt lat="46.41214" lon="6.08619">
        <ele>1409</ele>
        <time>2019-05-05T04:54:29Z</time>
      </trkpt>
      <trkpt lat="46.4121" lon="6.08615">
        <ele>1408</ele>
        <time>2019-05-05T04:54:33Z</time>
      </trkpt>
      <trkpt lat="46.41206" lon="6.08611">
        <ele>1407</ele>
        <time>2019-05-05T04:54:37Z</time>
      </trkpt>
      <trkpt lat="46.41201" lon="6.08604">
        <ele>1407</ele>
        <time>2019-05-05T04:54:42Z</time>
      </trkpt>
      <trkpt lat="46.41196" lon="6.08596">
        <ele>1406</ele>
        <time>2019-05-05T04:54:47Z</time>
      </trkpt>
      <trkpt lat="46.41187" lon="6.08583">
        <ele>1405</ele>
        <time>2019-05-05T04:54:56Z</time>
      </trkpt>
      <trkpt lat="46.41178" lon="6.08567">
        <ele>1406</ele>
        <time>2019-05-05T04:55:07Z</time>
      </trkpt>
      <trkpt lat="46.41173" lon="6.0855">
        <ele>1407</ele>
        <time>2019-05-05T04:55:16Z</time>
      </trkpt>
      <trkpt lat="46.41175" lon="6.08539">
        <ele>1406</ele>
        <time>2019-05-05T04:55:22Z</time>
      </trkpt>
      <trkpt lat="46.4118" lon="6.0852">
        <ele>1404</ele>
        <time>2019-05-05T04:55:32Z</time>
      </trkpt>
      <trkpt lat="46.41183" lon="6.08491">
        <ele>1400</ele>
        <time>2019-05-05T04:55:46Z</time>
      </trkpt>
      <trkpt lat="46.41184" lon="6.08484">
        <ele>1399</ele>
        <time>2019-05-05T04:55:50Z</time>
      </trkpt>
      <trkpt lat="46.41186" lon="6.08477">
        <ele>1397</ele>
        <time>2019-05-05T04:55:54Z</time>
      </trkpt>
      <trkpt lat="46.4119" lon="6.08451">
        <ele>1394</ele>
        <time>2019-05-05T04:56:07Z</time>
      </trkpt>
      <trkpt lat="46.41193" lon="6.08441">
        <ele>1393</ele>
        <time>2019-05-05T04:56:13Z</time>
      </trkpt>
      <trkpt lat="46.41194" lon="6.08441">
        <ele>1393</ele>
        <time>2019-05-05T04:56:14Z</time>
      </trkpt>
      <trkpt lat="46.41195" lon="6.08436">
        <ele>1392</ele>
        <time>2019-05-05T04:56:16Z</time>
      </trkpt>
      <trkpt lat="46.41201" lon="6.08412">
        <ele>1391</ele>
        <time>2019-05-05T04:56:29Z</time>
      </trkpt>
      <trkpt lat="46.41202" lon="6.08409">
        <ele>1391</ele>
        <time>2019-05-05T04:56:30Z</time>
      </trkpt>
      <trkpt lat="46.41208" lon="6.08382">
        <ele>1390</ele>
        <time>2019-05-05T04:56:45Z</time>
      </trkpt>
      <trkpt lat="46.41215" lon="6.08357">
        <ele>1389</ele>
        <time>2019-05-05T04:56:58Z</time>
      </trkpt>
      <trkpt lat="46.41216" lon="6.08353">
        <ele>1389</ele>
        <time>2019-05-05T04:57:00Z</time>
      </trkpt>
      <trkpt lat="46.4122" lon="6.08339">
        <ele>1388</ele>
        <time>2019-05-05T04:57:08Z</time>
      </trkpt>
      <trkpt lat="46.41228" lon="6.08316">
        <ele>1387</ele>
        <time>2019-05-05T04:57:21Z</time>
      </trkpt>
      <trkpt lat="46.4124" lon="6.08297">
        <ele>1385</ele>
        <time>2019-05-05T04:57:33Z</time>
      </trkpt>
      <trkpt lat="46.41244" lon="6.08291">
        <ele>1384</ele>
        <time>2019-05-05T04:57:38Z</time>
      </trkpt>
      <trkpt lat="46.4125" lon="6.08271">
        <ele>1383</ele>
        <time>2019-05-05T04:57:49Z</time>
      </trkpt>
      <trkpt lat="46.4125" lon="6.08268">
        <ele>1383</ele>
        <time>2019-05-05T04:57:50Z</time>
      </trkpt>
      <trkpt lat="46.41251" lon="6.08261">
        <ele>1382</ele>
        <time>2019-05-05T04:57:54Z</time>
      </trkpt>
      <trkpt lat="46.41255" lon="6.08234">
        <ele>1379</ele>
        <time>2019-05-05T04:58:08Z</time>
      </trkpt>
      <trkpt lat="46.41259" lon="6.08213">
        <ele>1376</ele>
        <time>2019-05-05T04:58:19Z</time>
      </trkpt>
      <trkpt lat="46.4126" lon="6.08206">
        <ele>1375</ele>
        <time>2019-05-05T04:58:23Z</time>
      </trkpt>
      <trkpt lat="46.41262" lon="6.08189">
        <ele>1373</ele>
        <time>2019-05-05T04:58:31Z</time>
      </trkpt>
      <trkpt lat="46.41269" lon="6.08164">
        <ele>1370</ele>
        <time>2019-05-05T04:58:45Z</time>
      </trkpt>
      <trkpt lat="46.41271" lon="6.08156">
        <ele>1369</ele>
        <time>2019-05-05T04:58:49Z</time>
      </trkpt>
      <trkpt lat="46.41273" lon="6.08148">
        <ele>1368</ele>
        <time>2019-05-05T04:58:53Z</time>
      </trkpt>
      <trkpt lat="46.41275" lon="6.0814">
        <ele>1367</ele>
        <time>2019-05-05T04:58:57Z</time>
      </trkpt>
      <trkpt lat="46.41276" lon="6.08132">
        <ele>1366</ele>
        <time>2019-05-05T04:59:02Z</time>
      </trkpt>
      <trkpt lat="46.41276" lon="6.08124">
        <ele>1366</ele>
        <time>2019-05-05T04:59:06Z</time>
      </trkpt>
      <trkpt lat="46.41277" lon="6.08115">
        <ele>1365</ele>
        <time>2019-05-05T04:59:10Z</time>
      </trkpt>
      <trkpt lat="46.41278" lon="6.08108">
        <ele>1364</ele>
        <time>2019-05-05T04:59:14Z</time>
      </trkpt>
      <trkpt lat="46.41282" lon="6.08084">
        <ele>1361</ele>
        <time>2019-05-05T04:59:26Z</time>
      </trkpt>
      <trkpt lat="46.41287" lon="6.08074">
        <ele>1360</ele>
        <time>2019-05-05T04:59:32Z</time>
      </trkpt>
      <trkpt lat="46.41289" lon="6.08068">
        <ele>1359</ele>
        <time>2019-05-05T04:59:36Z</time>
      </trkpt>
      <trkpt lat="46.4129" lon="6.08063">
        <ele>1358</ele>
        <time>2019-05-05T04:59:39Z</time>
      </trkpt>
      <trkpt lat="46.41292" lon="6.08057">
        <ele>1357</ele>
        <time>2019-05-05T04:59:42Z</time>
      </trkpt>
      <trkpt lat="46.41296" lon="6.08046">
        <ele>1356</ele>
        <time>2019-05-05T04:59:48Z</time>
      </trkpt>
      <trkpt lat="46.41298" lon="6.08039">
        <ele>1355</ele>
        <time>2019-05-05T04:59:52Z</time>
      </trkpt>
      <trkpt lat="46.41299" lon="6.08036">
        <ele>1354</ele>
        <time>2019-05-05T04:59:54Z</time>
      </trkpt>
      <trkpt lat="46.41298" lon="6.08028">
        <ele>1353</ele>
        <time>2019-05-05T04:59:58Z</time>
      </trkpt>
      <trkpt lat="46.41295" lon="6.08023">
        <ele>1353</ele>
        <time>2019-05-05T05:00:01Z</time>
      </trkpt>
      <trkpt lat="46.41291" lon="6.08017">
        <ele>1352</ele>
        <time>2019-05-05T05:00:05Z</time>
      </trkpt>
      <trkpt lat="46.41285" lon="6.08009">
        <ele>1352</ele>
        <time>2019-05-05T05:00:11Z</time>
      </trkpt>
      <trkpt lat="46.41281" lon="6.08003">
        <ele>1351</ele>
        <time>2019-05-05T05:00:16Z</time>
      </trkpt>
      <trkpt lat="46.41277" lon="6.07992">
        <ele>1350</ele>
        <time>2019-05-05T05:00:22Z</time>
      </trkpt>
      <trkpt lat="46.4128" lon="6.07966">
        <ele>1345</ele>
        <time>2019-05-05T05:00:35Z</time>
      </trkpt>
      <trkpt lat="46.41283" lon="6.0796">
        <ele>1344</ele>
        <time>2019-05-05T05:00:39Z</time>
      </trkpt>
      <trkpt lat="46.41297" lon="6.07948">
        <ele>1340</ele>
        <time>2019-05-05T05:00:51Z</time>
      </trkpt>
      <trkpt lat="46.41299" lon="6.07947">
        <ele>1339</ele>
        <time>2019-05-05T05:00:53Z</time>
      </trkpt>
      <trkpt lat="46.41305" lon="6.07946">
        <ele>1339</ele>
        <time>2019-05-05T05:00:57Z</time>
      </trkpt>
      <trkpt lat="46.41307" lon="6.07946">
        <ele>1338</ele>
        <time>2019-05-05T05:00:59Z</time>
      </trkpt>
      <trkpt lat="46.4131" lon="6.07945">
        <ele>1338</ele>
        <time>2019-05-05T05:01:01Z</time>
      </trkpt>
      <trkpt lat="46.41315" lon="6.07945">
        <ele>1337</ele>
        <time>2019-05-05T05:01:05Z</time>
      </trkpt>
      <trkpt lat="46.41333" lon="6.07945">
        <ele>1335</ele>
        <time>2019-05-05T05:01:18Z</time>
      </trkpt>
      <trkpt lat="46.41341" lon="6.07946">
        <ele>1334</ele>
        <time>2019-05-05T05:01:23Z</time>
      </trkpt>
      <trkpt lat="46.4135" lon="6.07948">
        <ele>1333</ele>
        <time>2019-05-05T05:01:30Z</time>
      </trkpt>
      <trkpt lat="46.4137" lon="6.07948">
        <ele>1332</ele>
        <time>2019-05-05T05:01:44Z</time>
      </trkpt>
      <trkpt lat="46.41376" lon="6.07948">
        <ele>1332</ele>
        <time>2019-05-05T05:01:49Z</time>
      </trkpt>
      <trkpt lat="46.4139" lon="6.07949">
        <ele>1332</ele>
        <time>2019-05-05T05:01:59Z</time>
      </trkpt>
      <trkpt lat="46.41394" lon="6.07947">
        <ele>1332</ele>
        <time>2019-05-05T05:02:02Z</time>
      </trkpt>
      <trkpt lat="46.414" lon="6.07939">
        <ele>1331</ele>
        <time>2019-05-05T05:02:08Z</time>
      </trkpt>
      <trkpt lat="46.41404" lon="6.07935">
        <ele>1331</ele>
        <time>2019-05-05T05:02:11Z</time>
      </trkpt>
      <trkpt lat="46.41408" lon="6.07931">
        <ele>1331</ele>
        <time>2019-05-05T05:02:15Z</time>
      </trkpt>
      <trkpt lat="46.41424" lon="6.07919">
        <ele>1330</ele>
        <time>2019-05-05T05:02:28Z</time>
      </trkpt>
      <trkpt lat="46.41437" lon="6.07911">
        <ele>1330</ele>
        <time>2019-05-05T05:02:38Z</time>
      </trkpt>
      <trkpt lat="46.41448" lon="6.07904">
        <ele>1330</ele>
        <time>2019-05-05T05:02:47Z</time>
      </trkpt>
      <trkpt lat="46.41457" lon="6.07895">
        <ele>1329</ele>
        <time>2019-05-05T05:02:55Z</time>
      </trkpt>
      <trkpt lat="46.41462" lon="6.07892">
        <ele>1329</ele>
        <time>2019-05-05T05:02:59Z</time>
      </trkpt>
      <trkpt lat="46.41477" lon="6.0788">
        <ele>1328</ele>
        <time>2019-05-05T05:03:12Z</time>
      </trkpt>
      <trkpt lat="46.41495" lon="6.07868">
        <ele>1328</ele>
        <time>2019-05-05T05:03:26Z</time>
      </trkpt>
      <trkpt lat="46.415" lon="6.07861">
        <ele>1328</ele>
        <time>2019-05-05T05:03:30Z</time>
      </trkpt>
      <trkpt lat="46.41502" lon="6.07857">
        <ele>1328</ele>
        <time>2019-05-05T05:03:33Z</time>
      </trkpt>
      <trkpt lat="46.41502" lon="6.07854">
        <ele>1328</ele>
        <time>2019-05-05T05:03:35Z</time>
      </trkpt>
      <trkpt lat="46.41502" lon="6.07847">
        <ele>1327</ele>
        <time>2019-05-05T05:03:38Z</time>
      </trkpt>
      <trkpt lat="46.41504" lon="6.07846">
        <ele>1327</ele>
        <time>2019-05-05T05:03:40Z</time>
      </trkpt>
      <trkpt lat="46.41508" lon="6.07846">
        <ele>1327</ele>
        <time>2019-05-05T05:03:42Z</time>
      </trkpt>
      <trkpt lat="46.41519" lon="6.07838">
        <ele>1327</ele>
        <time>2019-05-05T05:03:51Z</time>
      </trkpt>
      <trkpt lat="46.41536" lon="6.07826">
        <ele>1325</ele>
        <time>2019-05-05T05:04:05Z</time>
      </trkpt>
      <trkpt lat="46.41547" lon="6.07818">
        <ele>1324</ele>
        <time>2019-05-05T05:04:14Z</time>
      </trkpt>
      <trkpt lat="46.41554" lon="6.07811">
        <ele>1323</ele>
        <time>2019-05-05T05:04:20Z</time>
      </trkpt>
      <trkpt lat="46.41562" lon="6.07805">
        <ele>1322</ele>
        <time>2019-05-05T05:04:26Z</time>
      </trkpt>
      <trkpt lat="46.41576" lon="6.07788">
        <ele>1320</ele>
        <time>2019-05-05T05:04:40Z</time>
      </trkpt>
      <trkpt lat="46.41581" lon="6.07782">
        <ele>1319</ele>
        <time>2019-05-05T05:04:44Z</time>
      </trkpt>
      <trkpt lat="46.41585" lon="6.07775">
        <ele>1318</ele>
        <time>2019-05-05T05:04:49Z</time>
      </trkpt>
      <trkpt lat="46.41589" lon="6.07768">
        <ele>1318</ele>
        <time>2019-05-05T05:04:54Z</time>
      </trkpt>
      <trkpt lat="46.41593" lon="6.07762">
        <ele>1317</ele>
        <time>2019-05-05T05:04:58Z</time>
      </trkpt>
      <trkpt lat="46.41606" lon="6.07742">
        <ele>1316</ele>
        <time>2019-05-05T05:05:12Z</time>
      </trkpt>
      <trkpt lat="46.41617" lon="6.07727">
        <ele>1316</ele>
        <time>2019-05-05T05:05:22Z</time>
      </trkpt>
      <trkpt lat="46.41623" lon="6.07718">
        <ele>1315</ele>
        <time>2019-05-05T05:05:29Z</time>
      </trkpt>
      <trkpt lat="46.41627" lon="6.07712">
        <ele>1315</ele>
        <time>2019-05-05T05:05:33Z</time>
      </trkpt>
      <trkpt lat="46.4163" lon="6.07707">
        <ele>1315</ele>
        <time>2019-05-05T05:05:36Z</time>
      </trkpt>
      <trkpt lat="46.41643" lon="6.07687">
        <ele>1314</ele>
        <time>2019-05-05T05:05:50Z</time>
      </trkpt>
      <trkpt lat="46.41648" lon="6.07679">
        <ele>1313</ele>
        <time>2019-05-05T05:05:55Z</time>
      </trkpt>
      <trkpt lat="46.41649" lon="6.07677">
        <ele>1313</ele>
        <time>2019-05-05T05:05:57Z</time>
      </trkpt>
      <trkpt lat="46.41652" lon="6.0767">
        <ele>1313</ele>
        <time>2019-05-05T05:06:00Z</time>
      </trkpt>
      <trkpt lat="46.41652" lon="6.07669">
        <ele>1313</ele>
        <time>2019-05-05T05:06:01Z</time>
      </trkpt>
      <trkpt lat="46.41653" lon="6.07668">
        <ele>1313</ele>
        <time>2019-05-05T05:06:02Z</time>
      </trkpt>
      <trkpt lat="46.41663" lon="6.07646">
        <ele>1312</ele>
        <time>2019-05-05T05:06:16Z</time>
      </trkpt>
      <trkpt lat="46.41674" lon="6.07624">
        <ele>1312</ele>
        <time>2019-05-05T05:06:29Z</time>
      </trkpt>
      <trkpt lat="46.41683" lon="6.07601">
        <ele>1312</ele>
        <time>2019-05-05T05:06:42Z</time>
      </trkpt>
      <trkpt lat="46.41691" lon="6.07579">
        <ele>1312</ele>
        <time>2019-05-05T05:06:54Z</time>
      </trkpt>
      <trkpt lat="46.41694" lon="6.07572">
        <ele>1312</ele>
        <time>2019-05-05T05:06:58Z</time>
      </trkpt>
      <trkpt lat="46.41704" lon="6.0755">
        <ele>1312</ele>
        <time>2019-05-05T05:07:12Z</time>
      </trkpt>
      <trkpt lat="46.41705" lon="6.0754">
        <ele>1312</ele>
        <time>2019-05-05T05:07:17Z</time>
      </trkpt>
      <trkpt lat="46.41707" lon="6.07535">
        <ele>1312</ele>
        <time>2019-05-05T05:07:20Z</time>
      </trkpt>
      <trkpt lat="46.41708" lon="6.07532">
        <ele>1312</ele>
        <time>2019-05-05T05:07:21Z</time>
      </trkpt>
      <trkpt lat="46.41708" lon="6.07525">
        <ele>1312</ele>
        <time>2019-05-05T05:07:25Z</time>
      </trkpt>
      <trkpt lat="46.41708" lon="6.07499">
        <ele>1312</ele>
        <time>2019-05-05T05:07:38Z</time>
      </trkpt>
      <trkpt lat="46.41701" lon="6.07473">
        <ele>1313</ele>
        <time>2019-05-05T05:07:52Z</time>
      </trkpt>
      <trkpt lat="46.417" lon="6.07469">
        <ele>1313</ele>
        <time>2019-05-05T05:07:54Z</time>
      </trkpt>
      <trkpt lat="46.41693" lon="6.07446">
        <ele>1313</ele>
        <time>2019-05-05T05:08:06Z</time>
      </trkpt>
      <trkpt lat="46.41693" lon="6.07445">
        <ele>1313</ele>
        <time>2019-05-05T05:08:07Z</time>
      </trkpt>
      <trkpt lat="46.4169" lon="6.07418">
        <ele>1313</ele>
        <time>2019-05-05T05:08:21Z</time>
      </trkpt>
      <trkpt lat="46.41689" lon="6.07395">
        <ele>1313</ele>
        <time>2019-05-05T05:08:32Z</time>
      </trkpt>
      <trkpt lat="46.41689" lon="6.07375">
        <ele>1314</ele>
        <time>2019-05-05T05:08:42Z</time>
      </trkpt>
      <trkpt lat="46.41692" lon="6.07347">
        <ele>1315</ele>
        <time>2019-05-05T05:08:56Z</time>
      </trkpt>
      <trkpt lat="46.41693" lon="6.07338">
        <ele>1315</ele>
        <time>2019-05-05T05:09:01Z</time>
      </trkpt>
      <trkpt lat="46.41695" lon="6.07321">
        <ele>1317</ele>
        <time>2019-05-05T05:09:10Z</time>
      </trkpt>
      <trkpt lat="46.41696" lon="6.07299">
        <ele>1318</ele>
        <time>2019-05-05T05:09:20Z</time>
      </trkpt>
      <trkpt lat="46.41696" lon="6.07287">
        <ele>1319</ele>
        <time>2019-05-05T05:09:27Z</time>
      </trkpt>
      <trkpt lat="46.41697" lon="6.07273">
        <ele>1320</ele>
        <time>2019-05-05T05:09:34Z</time>
      </trkpt>
      <trkpt lat="46.41699" lon="6.07247">
        <ele>1322</ele>
        <time>2019-05-05T05:09:47Z</time>
      </trkpt>
      <trkpt lat="46.41699" lon="6.07233">
        <ele>1323</ele>
        <time>2019-05-05T05:09:54Z</time>
      </trkpt>
      <trkpt lat="46.417" lon="6.07223">
        <ele>1323</ele>
        <time>2019-05-05T05:09:59Z</time>
      </trkpt>
      <trkpt lat="46.417" lon="6.07213">
        <ele>1323</ele>
        <time>2019-05-05T05:10:04Z</time>
      </trkpt>
      <trkpt lat="46.41686" lon="6.07196">
        <ele>1323</ele>
        <time>2019-05-05T05:10:17Z</time>
      </trkpt>
      <trkpt lat="46.41672" lon="6.07178">
        <ele>1322</ele>
        <time>2019-05-05T05:10:30Z</time>
      </trkpt>
      <trkpt lat="46.41662" lon="6.07167">
        <ele>1321</ele>
        <time>2019-05-05T05:10:39Z</time>
      </trkpt>
      <trkpt lat="46.41647" lon="6.0715">
        <ele>1320</ele>
        <time>2019-05-05T05:10:53Z</time>
      </trkpt>
      <trkpt lat="46.41635" lon="6.07131">
        <ele>1320</ele>
        <time>2019-05-05T05:11:06Z</time>
      </trkpt>
      <trkpt lat="46.41629" lon="6.0712">
        <ele>1319</ele>
        <time>2019-05-05T05:11:13Z</time>
      </trkpt>
      <trkpt lat="46.41615" lon="6.07099">
        <ele>1319</ele>
        <time>2019-05-05T05:11:28Z</time>
      </trkpt>
      <trkpt lat="46.41602" lon="6.07079">
        <ele>1316</ele>
        <time>2019-05-05T05:11:42Z</time>
      </trkpt>
      <trkpt lat="46.41597" lon="6.07072">
        <ele>1314</ele>
        <time>2019-05-05T05:11:47Z</time>
      </trkpt>
      <trkpt lat="46.41593" lon="6.07065">
        <ele>1313</ele>
        <time>2019-05-05T05:11:51Z</time>
      </trkpt>
      <trkpt lat="46.41586" lon="6.0705">
        <ele>1311</ele>
        <time>2019-05-05T05:12:00Z</time>
      </trkpt>
      <trkpt lat="46.41585" lon="6.07042">
        <ele>1311</ele>
        <time>2019-05-05T05:12:04Z</time>
      </trkpt>
      <trkpt lat="46.41584" lon="6.07026">
        <ele>1310</ele>
        <time>2019-05-05T05:12:12Z</time>
      </trkpt>
      <trkpt lat="46.41582" lon="6.07015">
        <ele>1309</ele>
        <time>2019-05-05T05:12:18Z</time>
      </trkpt>
      <trkpt lat="46.41576" lon="6.07002">
        <ele>1308</ele>
        <time>2019-05-05T05:12:26Z</time>
      </trkpt>
      <trkpt lat="46.41572" lon="6.06998">
        <ele>1307</ele>
        <time>2019-05-05T05:12:30Z</time>
      </trkpt>
      <trkpt lat="46.41568" lon="6.06992">
        <ele>1307</ele>
        <time>2019-05-05T05:12:34Z</time>
      </trkpt>
      <trkpt lat="46.41555" lon="6.06981">
        <ele>1304</ele>
        <time>2019-05-05T05:12:45Z</time>
      </trkpt>
      <trkpt lat="46.41553" lon="6.06979">
        <ele>1304</ele>
        <time>2019-05-05T05:12:46Z</time>
      </trkpt>
      <trkpt lat="46.41551" lon="6.06978">
        <ele>1303</ele>
        <time>2019-05-05T05:12:48Z</time>
      </trkpt>
      <trkpt lat="46.41548" lon="6.06976">
        <ele>1303</ele>
        <time>2019-05-05T05:12:50Z</time>
      </trkpt>
      <trkpt lat="46.41545" lon="6.06971">
        <ele>1302</ele>
        <time>2019-05-05T05:12:54Z</time>
      </trkpt>
      <trkpt lat="46.41538" lon="6.06958">
        <ele>1301</ele>
        <time>2019-05-05T05:13:02Z</time>
      </trkpt>
      <trkpt lat="46.41535" lon="6.06946">
        <ele>1300</ele>
        <time>2019-05-05T05:13:09Z</time>
      </trkpt>
      <trkpt lat="46.41533" lon="6.06938">
        <ele>1300</ele>
        <time>2019-05-05T05:13:13Z</time>
      </trkpt>
      <trkpt lat="46.41531" lon="6.06929">
        <ele>1300</ele>
        <time>2019-05-05T05:13:17Z</time>
      </trkpt>
      <trkpt lat="46.41529" lon="6.06918">
        <ele>1300</ele>
        <time>2019-05-05T05:13:23Z</time>
      </trkpt>
      <trkpt lat="46.41524" lon="6.06889">
        <ele>1300</ele>
        <time>2019-05-05T05:13:38Z</time>
      </trkpt>
      <trkpt lat="46.41509" lon="6.06874">
        <ele>1298</ele>
        <time>2019-05-05T05:13:51Z</time>
      </trkpt>
      <trkpt lat="46.41493" lon="6.06858">
        <ele>1296</ele>
        <time>2019-05-05T05:14:05Z</time>
      </trkpt>
      <trkpt lat="46.41488" lon="6.06831">
        <ele>1295</ele>
        <time>2019-05-05T05:14:20Z</time>
      </trkpt>
      <trkpt lat="46.41487" lon="6.06803">
        <ele>1295</ele>
        <time>2019-05-05T05:14:33Z</time>
      </trkpt>
      <trkpt lat="46.41488" lon="6.068">
        <ele>1295</ele>
        <time>2019-05-05T05:14:35Z</time>
      </trkpt>
      <trkpt lat="46.41487" lon="6.06795">
        <ele>1295</ele>
        <time>2019-05-05T05:14:37Z</time>
      </trkpt>
      <trkpt lat="46.41487" lon="6.06792">
        <ele>1296</ele>
        <time>2019-05-05T05:14:39Z</time>
      </trkpt>
      <trkpt lat="46.41488" lon="6.06785">
        <ele>1296</ele>
        <time>2019-05-05T05:14:43Z</time>
      </trkpt>
      <trkpt lat="46.41485" lon="6.06776">
        <ele>1295</ele>
        <time>2019-05-05T05:14:48Z</time>
      </trkpt>
      <trkpt lat="46.41481" lon="6.0675">
        <ele>1295</ele>
        <time>2019-05-05T05:15:01Z</time>
      </trkpt>
      <trkpt lat="46.41481" lon="6.06736">
        <ele>1295</ele>
        <time>2019-05-05T05:15:08Z</time>
      </trkpt>
      <trkpt lat="46.41483" lon="6.06707">
        <ele>1295</ele>
        <time>2019-05-05T05:15:22Z</time>
      </trkpt>
      <trkpt lat="46.41483" lon="6.06693">
        <ele>1295</ele>
        <time>2019-05-05T05:15:29Z</time>
      </trkpt>
      <trkpt lat="46.41482" lon="6.06692">
        <ele>1295</ele>
        <time>2019-05-05T05:15:30Z</time>
      </trkpt>
      <trkpt lat="46.41481" lon="6.06691">
        <ele>1294</ele>
        <time>2019-05-05T05:15:32Z</time>
      </trkpt>
      <trkpt lat="46.41481" lon="6.06688">
        <ele>1294</ele>
        <time>2019-05-05T05:15:33Z</time>
      </trkpt>
      <trkpt lat="46.41482" lon="6.06683">
        <ele>1294</ele>
        <time>2019-05-05T05:15:35Z</time>
      </trkpt>
      <trkpt lat="46.41481" lon="6.06673">
        <ele>1294</ele>
        <time>2019-05-05T05:15:41Z</time>
      </trkpt>
      <trkpt lat="46.41481" lon="6.06665">
        <ele>1293</ele>
        <time>2019-05-05T05:15:45Z</time>
      </trkpt>
      <trkpt lat="46.41481" lon="6.06659">
        <ele>1293</ele>
        <time>2019-05-05T05:15:48Z</time>
      </trkpt>
      <trkpt lat="46.41477" lon="6.06647">
        <ele>1292</ele>
        <time>2019-05-05T05:15:54Z</time>
      </trkpt>
      <trkpt lat="46.41476" lon="6.06636">
        <ele>1291</ele>
        <time>2019-05-05T05:16:00Z</time>
      </trkpt>
      <trkpt lat="46.41476" lon="6.06617">
        <ele>1290</ele>
        <time>2019-05-05T05:16:09Z</time>
      </trkpt>
      <trkpt lat="46.41476" lon="6.06604">
        <ele>1289</ele>
        <time>2019-05-05T05:16:16Z</time>
      </trkpt>
      <trkpt lat="46.41471" lon="6.06578">
        <ele>1287</ele>
        <time>2019-05-05T05:16:29Z</time>
      </trkpt>
      <trkpt lat="46.41472" lon="6.06566">
        <ele>1287</ele>
        <time>2019-05-05T05:16:35Z</time>
      </trkpt>
      <trkpt lat="46.41483" lon="6.06549">
        <ele>1286</ele>
        <time>2019-05-05T05:16:47Z</time>
      </trkpt>
      <trkpt lat="46.41494" lon="6.06539">
        <ele>1285</ele>
        <time>2019-05-05T05:16:56Z</time>
      </trkpt>
      <trkpt lat="46.41502" lon="6.06531">
        <ele>1284</ele>
        <time>2019-05-05T05:17:04Z</time>
      </trkpt>
      <trkpt lat="46.41501" lon="6.06514">
        <ele>1283</ele>
        <time>2019-05-05T05:17:12Z</time>
      </trkpt>
      <trkpt lat="46.41502" lon="6.065">
        <ele>1283</ele>
        <time>2019-05-05T05:17:19Z</time>
      </trkpt>
      <trkpt lat="46.41503" lon="6.06492">
        <ele>1282</ele>
        <time>2019-05-05T05:17:23Z</time>
      </trkpt>
      <trkpt lat="46.41506" lon="6.06485">
        <ele>1282</ele>
        <time>2019-05-05T05:17:27Z</time>
      </trkpt>
      <trkpt lat="46.4151" lon="6.06473">
        <ele>1281</ele>
        <time>2019-05-05T05:17:34Z</time>
      </trkpt>
      <trkpt lat="46.41511" lon="6.06466">
        <ele>1280</ele>
        <time>2019-05-05T05:17:38Z</time>
      </trkpt>
      <trkpt lat="46.41515" lon="6.0646">
        <ele>1280</ele>
        <time>2019-05-05T05:17:42Z</time>
      </trkpt>
      <trkpt lat="46.41515" lon="6.06459">
        <ele>1280</ele>
        <time>2019-05-05T05:17:43Z</time>
      </trkpt>
      <trkpt lat="46.41515" lon="6.06455">
        <ele>1280</ele>
        <time>2019-05-05T05:17:44Z</time>
      </trkpt>
      <trkpt lat="46.41515" lon="6.06453">
        <ele>1279</ele>
        <time>2019-05-05T05:17:46Z</time>
      </trkpt>
      <trkpt lat="46.41521" lon="6.06433">
        <ele>1278</ele>
        <time>2019-05-05T05:17:56Z</time>
      </trkpt>
      <trkpt lat="46.41528" lon="6.06412">
        <ele>1277</ele>
        <time>2019-05-05T05:18:08Z</time>
      </trkpt>
      <trkpt lat="46.41532" lon="6.06408">
        <ele>1276</ele>
        <time>2019-05-05T05:18:12Z</time>
      </trkpt>
      <trkpt lat="46.41534" lon="6.06399">
        <ele>1276</ele>
        <time>2019-05-05T05:18:16Z</time>
      </trkpt>
      <trkpt lat="46.41539" lon="6.06394">
        <ele>1275</ele>
        <time>2019-05-05T05:18:20Z</time>
      </trkpt>
      <trkpt lat="46.41536" lon="6.06366">
        <ele>1274</ele>
        <time>2019-05-05T05:18:35Z</time>
      </trkpt>
      <trkpt lat="46.41537" lon="6.06345">
        <ele>1272</ele>
        <time>2019-05-05T05:18:45Z</time>
      </trkpt>
      <trkpt lat="46.41536" lon="6.06336">
        <ele>1271</ele>
        <time>2019-05-05T05:18:50Z</time>
      </trkpt>
      <trkpt lat="46.41537" lon="6.06331">
        <ele>1270</ele>
        <time>2019-05-05T05:18:52Z</time>
      </trkpt>
      <trkpt lat="46.4154" lon="6.06325">
        <ele>1269</ele>
        <time>2019-05-05T05:18:56Z</time>
      </trkpt>
      <trkpt lat="46.41546" lon="6.06324">
        <ele>1269</ele>
        <time>2019-05-05T05:19:01Z</time>
      </trkpt>
      <trkpt lat="46.41548" lon="6.06322">
        <ele>1268</ele>
        <time>2019-05-05T05:19:02Z</time>
      </trkpt>
      <trkpt lat="46.41547" lon="6.06315">
        <ele>1267</ele>
        <time>2019-05-05T05:19:06Z</time>
      </trkpt>
      <trkpt lat="46.41547" lon="6.06312">
        <ele>1267</ele>
        <time>2019-05-05T05:19:07Z</time>
      </trkpt>
      <trkpt lat="46.41545" lon="6.06303">
        <ele>1266</ele>
        <time>2019-05-05T05:19:12Z</time>
      </trkpt>
      <trkpt lat="46.41544" lon="6.06301">
        <ele>1265</ele>
        <time>2019-05-05T05:19:14Z</time>
      </trkpt>
      <trkpt lat="46.41543" lon="6.06298">
        <ele>1265</ele>
        <time>2019-05-05T05:19:15Z</time>
      </trkpt>
      <trkpt lat="46.41543" lon="6.06294">
        <ele>1265</ele>
        <time>2019-05-05T05:19:17Z</time>
      </trkpt>
      <trkpt lat="46.41541" lon="6.06281">
        <ele>1263</ele>
        <time>2019-05-05T05:19:24Z</time>
      </trkpt>
      <trkpt lat="46.41542" lon="6.06278">
        <ele>1262</ele>
        <time>2019-05-05T05:19:25Z</time>
      </trkpt>
      <trkpt lat="46.41542" lon="6.06277">
        <ele>1262</ele>
        <time>2019-05-05T05:19:26Z</time>
      </trkpt>
      <trkpt lat="46.41544" lon="6.06277">
        <ele>1262</ele>
        <time>2019-05-05T05:19:27Z</time>
      </trkpt>
      <trkpt lat="46.4155" lon="6.06289">
        <ele>1263</ele>
        <time>2019-05-05T05:19:35Z</time>
      </trkpt>
      <trkpt lat="46.41543" lon="6.06281">
        <ele>1263</ele>
        <time>2019-05-05T05:19:41Z</time>
      </trkpt>
      <trkpt lat="46.41541" lon="6.06277">
        <ele>1262</ele>
        <time>2019-05-05T05:19:43Z</time>
      </trkpt>
      <trkpt lat="46.41534" lon="6.06262">
        <ele>1260</ele>
        <time>2019-05-05T05:19:52Z</time>
      </trkpt>
      <trkpt lat="46.4153" lon="6.06254">
        <ele>1259</ele>
        <time>2019-05-05T05:19:57Z</time>
      </trkpt>
      <trkpt lat="46.41525" lon="6.06247">
        <ele>1259</ele>
        <time>2019-05-05T05:20:03Z</time>
      </trkpt>
      <trkpt lat="46.41517" lon="6.06241">
        <ele>1258</ele>
        <time>2019-05-05T05:20:09Z</time>
      </trkpt>
      <trkpt lat="46.41509" lon="6.06234">
        <ele>1258</ele>
        <time>2019-05-05T05:20:16Z</time>
      </trkpt>
      <trkpt lat="46.41509" lon="6.06232">
        <ele>1258</ele>
        <time>2019-05-05T05:20:17Z</time>
      </trkpt>
      <trkpt lat="46.41509" lon="6.06229">
        <ele>1257</ele>
        <time>2019-05-05T05:20:19Z</time>
      </trkpt>
      <trkpt lat="46.4151" lon="6.06227">
        <ele>1257</ele>
        <time>2019-05-05T05:20:20Z</time>
      </trkpt>
      <trkpt lat="46.415" lon="6.06209">
        <ele>1255</ele>
        <time>2019-05-05T05:20:31Z</time>
      </trkpt>
      <trkpt lat="46.41498" lon="6.06205">
        <ele>1255</ele>
        <time>2019-05-05T05:20:34Z</time>
      </trkpt>
      <trkpt lat="46.41495" lon="6.06198">
        <ele>1254</ele>
        <time>2019-05-05T05:20:38Z</time>
      </trkpt>
      <trkpt lat="46.41493" lon="6.06189">
        <ele>1253</ele>
        <time>2019-05-05T05:20:43Z</time>
      </trkpt>
      <trkpt lat="46.41491" lon="6.06188">
        <ele>1254</ele>
        <time>2019-05-05T05:20:45Z</time>
      </trkpt>
      <trkpt lat="46.41491" lon="6.06189">
        <ele>1254</ele>
        <time>2019-05-05T05:20:45Z</time>
      </trkpt>
      <trkpt lat="46.41491" lon="6.06188">
        <ele>1254</ele>
        <time>2019-05-05T05:20:46Z</time>
      </trkpt>
      <trkpt lat="46.41491" lon="6.0619">
        <ele>1254</ele>
        <time>2019-05-05T05:20:47Z</time>
      </trkpt>
      <trkpt lat="46.41491" lon="6.06187">
        <ele>1253</ele>
        <time>2019-05-05T05:20:48Z</time>
      </trkpt>
      <trkpt lat="46.41486" lon="6.06171">
        <ele>1252</ele>
        <time>2019-05-05T05:20:57Z</time>
      </trkpt>
      <trkpt lat="46.41484" lon="6.06172">
        <ele>1253</ele>
        <time>2019-05-05T05:20:59Z</time>
      </trkpt>
      <trkpt lat="46.41484" lon="6.06176">
        <ele>1253</ele>
        <time>2019-05-05T05:21:01Z</time>
      </trkpt>
      <trkpt lat="46.41482" lon="6.06168">
        <ele>1253</ele>
        <time>2019-05-05T05:21:05Z</time>
      </trkpt>
      <trkpt lat="46.41493" lon="6.06189">
        <ele>1253</ele>
        <time>2019-05-05T05:21:19Z</time>
      </trkpt>
      <trkpt lat="46.41491" lon="6.06196">
        <ele>1255</ele>
        <time>2019-05-05T05:21:23Z</time>
      </trkpt>
      <trkpt lat="46.41491" lon="6.0619">
        <ele>1254</ele>
        <time>2019-05-05T05:21:26Z</time>
      </trkpt>
      <trkpt lat="46.41491" lon="6.06183">
        <ele>1253</ele>
        <time>2019-05-05T05:21:29Z</time>
      </trkpt>
      <trkpt lat="46.41492" lon="6.06182">
        <ele>1253</ele>
        <time>2019-05-05T05:21:30Z</time>
      </trkpt>
      <trkpt lat="46.4149" lon="6.06185">
        <ele>1253</ele>
        <time>2019-05-05T05:21:31Z</time>
      </trkpt>
      <trkpt lat="46.41486" lon="6.06182">
        <ele>1253</ele>
        <time>2019-05-05T05:21:35Z</time>
      </trkpt>
      <trkpt lat="46.41488" lon="6.06185">
        <ele>1253</ele>
        <time>2019-05-05T05:21:37Z</time>
      </trkpt>
      <trkpt lat="46.41494" lon="6.06188">
        <ele>1253</ele>
        <time>2019-05-05T05:21:42Z</time>
      </trkpt>
      <trkpt lat="46.41496" lon="6.06188">
        <ele>1253</ele>
        <time>2019-05-05T05:21:43Z</time>
      </trkpt>
      <trkpt lat="46.41492" lon="6.06192">
        <ele>1254</ele>
        <time>2019-05-05T05:21:47Z</time>
      </trkpt>
      <trkpt lat="46.41492" lon="6.06194">
        <ele>1254</ele>
        <time>2019-05-05T05:21:49Z</time>
      </trkpt>
      <trkpt lat="46.41486" lon="6.06172">
        <ele>1252</ele>
        <time>2019-05-05T05:22:01Z</time>
      </trkpt>
      <trkpt lat="46.41488" lon="6.0618">
        <ele>1253</ele>
        <time>2019-05-05T05:22:05Z</time>
      </trkpt>
      <trkpt lat="46.41492" lon="6.06178">
        <ele>1252</ele>
        <time>2019-05-05T05:22:08Z</time>
      </trkpt>
      <trkpt lat="46.41494" lon="6.06174">
        <ele>1252</ele>
        <time>2019-05-05T05:22:10Z</time>
      </trkpt>
      <trkpt lat="46.41498" lon="6.06173">
        <ele>1251</ele>
        <time>2019-05-05T05:22:13Z</time>
      </trkpt>
      <trkpt lat="46.415" lon="6.06173">
        <ele>1251</ele>
        <time>2019-05-05T05:22:15Z</time>
      </trkpt>
      <trkpt lat="46.41504" lon="6.06176">
        <ele>1251</ele>
        <time>2019-05-05T05:22:18Z</time>
      </trkpt>
      <trkpt lat="46.41507" lon="6.06178">
        <ele>1251</ele>
        <time>2019-05-05T05:22:20Z</time>
      </trkpt>
      <trkpt lat="46.41512" lon="6.06181">
        <ele>1250</ele>
        <time>2019-05-05T05:22:24Z</time>
      </trkpt>
      <trkpt lat="46.41518" lon="6.06185">
        <ele>1250</ele>
        <time>2019-05-05T05:22:29Z</time>
      </trkpt>
      <trkpt lat="46.41534" lon="6.06197">
        <ele>1250</ele>
        <time>2019-05-05T05:22:42Z</time>
      </trkpt>
      <trkpt lat="46.4155" lon="6.06202">
        <ele>1250</ele>
        <time>2019-05-05T05:22:54Z</time>
      </trkpt>
      <trkpt lat="46.41569" lon="6.06213">
        <ele>1251</ele>
        <time>2019-05-05T05:23:09Z</time>
      </trkpt>
      <trkpt lat="46.41576" lon="6.06218">
        <ele>1251</ele>
        <time>2019-05-05T05:23:14Z</time>
      </trkpt>
      <trkpt lat="46.41594" lon="6.06226">
        <ele>1251</ele>
        <time>2019-05-05T05:23:28Z</time>
      </trkpt>
      <trkpt lat="46.41614" lon="6.06224">
        <ele>1250</ele>
        <time>2019-05-05T05:23:42Z</time>
      </trkpt>
      <trkpt lat="46.4162" lon="6.06221">
        <ele>1250</ele>
        <time>2019-05-05T05:23:47Z</time>
      </trkpt>
      <trkpt lat="46.41622" lon="6.0622">
        <ele>1250</ele>
        <time>2019-05-05T05:23:48Z</time>
      </trkpt>
      <trkpt lat="46.41627" lon="6.0622">
        <ele>1250</ele>
        <time>2019-05-05T05:23:52Z</time>
      </trkpt>
      <trkpt lat="46.41637" lon="6.06221">
        <ele>1250</ele>
        <time>2019-05-05T05:23:59Z</time>
      </trkpt>
      <trkpt lat="46.41641" lon="6.0622">
        <ele>1249</ele>
        <time>2019-05-05T05:24:02Z</time>
      </trkpt>
      <trkpt lat="46.41648" lon="6.06221">
        <ele>1250</ele>
        <time>2019-05-05T05:24:07Z</time>
      </trkpt>
      <trkpt lat="46.41666" lon="6.06229">
        <ele>1251</ele>
        <time>2019-05-05T05:24:21Z</time>
      </trkpt>
      <trkpt lat="46.41684" lon="6.0624">
        <ele>1252</ele>
        <time>2019-05-05T05:24:35Z</time>
      </trkpt>
      <trkpt lat="46.41689" lon="6.06243">
        <ele>1252</ele>
        <time>2019-05-05T05:24:39Z</time>
      </trkpt>
      <trkpt lat="46.41692" lon="6.06243">
        <ele>1252</ele>
        <time>2019-05-05T05:24:41Z</time>
      </trkpt>
      <trkpt lat="46.41693" lon="6.06245">
        <ele>1252</ele>
        <time>2019-05-05T05:24:42Z</time>
      </trkpt>
      <trkpt lat="46.41699" lon="6.06251">
        <ele>1252</ele>
        <time>2019-05-05T05:24:48Z</time>
      </trkpt>
      <trkpt lat="46.41706" lon="6.06258">
        <ele>1252</ele>
        <time>2019-05-05T05:24:54Z</time>
      </trkpt>
      <trkpt lat="46.41721" lon="6.06273">
        <ele>1253</ele>
        <time>2019-05-05T05:25:07Z</time>
      </trkpt>
      <trkpt lat="46.41737" lon="6.06285">
        <ele>1253</ele>
        <time>2019-05-05T05:25:20Z</time>
      </trkpt>
      <trkpt lat="46.41754" lon="6.06296">
        <ele>1253</ele>
        <time>2019-05-05T05:25:34Z</time>
      </trkpt>
      <trkpt lat="46.41765" lon="6.06304">
        <ele>1254</ele>
        <time>2019-05-05T05:25:42Z</time>
      </trkpt>
      <trkpt lat="46.4177" lon="6.06308">
        <ele>1254</ele>
        <time>2019-05-05T05:25:47Z</time>
      </trkpt>
      <trkpt lat="46.41775" lon="6.06312">
        <ele>1254</ele>
        <time>2019-05-05T05:25:50Z</time>
      </trkpt>
      <trkpt lat="46.41789" lon="6.06318">
        <ele>1253</ele>
        <time>2019-05-05T05:26:01Z</time>
      </trkpt>
      <trkpt lat="46.41802" lon="6.06326">
        <ele>1252</ele>
        <time>2019-05-05T05:26:11Z</time>
      </trkpt>
      <trkpt lat="46.41818" lon="6.06343">
        <ele>1254</ele>
        <time>2019-05-05T05:26:25Z</time>
      </trkpt>
      <trkpt lat="46.41827" lon="6.06353">
        <ele>1254</ele>
        <time>2019-05-05T05:26:34Z</time>
      </trkpt>
      <trkpt lat="46.4184" lon="6.06375">
        <ele>1254</ele>
        <time>2019-05-05T05:26:48Z</time>
      </trkpt>
      <trkpt lat="46.41851" lon="6.06398">
        <ele>1254</ele>
        <time>2019-05-05T05:27:02Z</time>
      </trkpt>
      <trkpt lat="46.41854" lon="6.0641">
        <ele>1255</ele>
        <time>2019-05-05T05:27:08Z</time>
      </trkpt>
      <trkpt lat="46.41866" lon="6.06434">
        <ele>1255</ele>
        <time>2019-05-05T05:27:24Z</time>
      </trkpt>
      <trkpt lat="46.41873" lon="6.06441">
        <ele>1255</ele>
        <time>2019-05-05T05:27:29Z</time>
      </trkpt>
      <trkpt lat="46.41883" lon="6.06453">
        <ele>1255</ele>
        <time>2019-05-05T05:27:39Z</time>
      </trkpt>
      <trkpt lat="46.41896" lon="6.0647">
        <ele>1255</ele>
        <time>2019-05-05T05:27:52Z</time>
      </trkpt>
      <trkpt lat="46.41908" lon="6.0648">
        <ele>1255</ele>
        <time>2019-05-05T05:28:02Z</time>
      </trkpt>
      <trkpt lat="46.41911" lon="6.06481">
        <ele>1255</ele>
        <time>2019-05-05T05:28:04Z</time>
      </trkpt>
      <trkpt lat="46.41919" lon="6.06485">
        <ele>1254</ele>
        <time>2019-05-05T05:28:10Z</time>
      </trkpt>
      <trkpt lat="46.41938" lon="6.06491">
        <ele>1252</ele>
        <time>2019-05-05T05:28:24Z</time>
      </trkpt>
      <trkpt lat="46.41956" lon="6.06492">
        <ele>1251</ele>
        <time>2019-05-05T05:28:37Z</time>
      </trkpt>
      <trkpt lat="46.41973" lon="6.06502">
        <ele>1252</ele>
        <time>2019-05-05T05:28:50Z</time>
      </trkpt>
      <trkpt lat="46.41978" lon="6.06506">
        <ele>1253</ele>
        <time>2019-05-05T05:28:54Z</time>
      </trkpt>
      <trkpt lat="46.4199" lon="6.06519">
        <ele>1255</ele>
        <time>2019-05-05T05:29:05Z</time>
      </trkpt>
      <trkpt lat="46.42005" lon="6.06534">
        <ele>1257</ele>
        <time>2019-05-05T05:29:19Z</time>
      </trkpt>
      <trkpt lat="46.42011" lon="6.06539">
        <ele>1258</ele>
        <time>2019-05-05T05:29:24Z</time>
      </trkpt>
      <trkpt lat="46.4203" lon="6.06547">
        <ele>1257</ele>
        <time>2019-05-05T05:29:38Z</time>
      </trkpt>
      <trkpt lat="46.42047" lon="6.06559">
        <ele>1257</ele>
        <time>2019-05-05T05:29:51Z</time>
      </trkpt>
      <trkpt lat="46.42062" lon="6.06567">
        <ele>1257</ele>
        <time>2019-05-05T05:30:03Z</time>
      </trkpt>
      <trkpt lat="46.42081" lon="6.06579">
        <ele>1257</ele>
        <time>2019-05-05T05:30:18Z</time>
      </trkpt>
      <trkpt lat="46.42099" lon="6.06588">
        <ele>1257</ele>
        <time>2019-05-05T05:30:32Z</time>
      </trkpt>
      <trkpt lat="46.42103" lon="6.06591">
        <ele>1257</ele>
        <time>2019-05-05T05:30:35Z</time>
      </trkpt>
      <trkpt lat="46.42105" lon="6.06593">
        <ele>1257</ele>
        <time>2019-05-05T05:30:37Z</time>
      </trkpt>
      <trkpt lat="46.42117" lon="6.066">
        <ele>1257</ele>
        <time>2019-05-05T05:30:46Z</time>
      </trkpt>
      <trkpt lat="46.42135" lon="6.0661">
        <ele>1257</ele>
        <time>2019-05-05T05:31:00Z</time>
      </trkpt>
      <trkpt lat="46.42138" lon="6.06612">
        <ele>1257</ele>
        <time>2019-05-05T05:31:02Z</time>
      </trkpt>
      <trkpt lat="46.42156" lon="6.06621">
        <ele>1256</ele>
        <time>2019-05-05T05:31:17Z</time>
      </trkpt>
      <trkpt lat="46.42173" lon="6.06632">
        <ele>1256</ele>
        <time>2019-05-05T05:31:30Z</time>
      </trkpt>
      <trkpt lat="46.42177" lon="6.06637">
        <ele>1256</ele>
        <time>2019-05-05T05:31:34Z</time>
      </trkpt>
      <trkpt lat="46.42194" lon="6.06653">
        <ele>1257</ele>
        <time>2019-05-05T05:31:48Z</time>
      </trkpt>
      <trkpt lat="46.42208" lon="6.0667">
        <ele>1258</ele>
        <time>2019-05-05T05:32:02Z</time>
      </trkpt>
      <trkpt lat="46.42225" lon="6.06684">
        <ele>1258</ele>
        <time>2019-05-05T05:32:16Z</time>
      </trkpt>
      <trkpt lat="46.42244" lon="6.06692">
        <ele>1258</ele>
        <time>2019-05-05T05:32:30Z</time>
      </trkpt>
      <trkpt lat="46.42249" lon="6.06693">
        <ele>1257</ele>
        <time>2019-05-05T05:32:33Z</time>
      </trkpt>
      <trkpt lat="46.42268" lon="6.06697">
        <ele>1256</ele>
        <time>2019-05-05T05:32:48Z</time>
      </trkpt>
      <trkpt lat="46.42286" lon="6.06705">
        <ele>1255</ele>
        <time>2019-05-05T05:33:01Z</time>
      </trkpt>
      <trkpt lat="46.42305" lon="6.06715">
        <ele>1256</ele>
        <time>2019-05-05T05:33:16Z</time>
      </trkpt>
      <trkpt lat="46.42322" lon="6.06726">
        <ele>1257</ele>
        <time>2019-05-05T05:33:29Z</time>
      </trkpt>
      <trkpt lat="46.4234" lon="6.06737">
        <ele>1258</ele>
        <time>2019-05-05T05:33:43Z</time>
      </trkpt>
      <trkpt lat="46.42355" lon="6.06748">
        <ele>1260</ele>
        <time>2019-05-05T05:33:56Z</time>
      </trkpt>
      <trkpt lat="46.42355" lon="6.06747">
        <ele>1259</ele>
        <time>2019-05-05T05:33:57Z</time>
      </trkpt>
      <trkpt lat="46.42363" lon="6.06753">
        <ele>1260</ele>
        <time>2019-05-05T05:34:03Z</time>
      </trkpt>
      <trkpt lat="46.42378" lon="6.06766">
        <ele>1260</ele>
        <time>2019-05-05T05:34:15Z</time>
      </trkpt>
      <trkpt lat="46.42387" lon="6.06772">
        <ele>1260</ele>
        <time>2019-05-05T05:34:23Z</time>
      </trkpt>
      <trkpt lat="46.42398" lon="6.06783">
        <ele>1261</ele>
        <time>2019-05-05T05:34:33Z</time>
      </trkpt>
      <trkpt lat="46.42406" lon="6.0679">
        <ele>1261</ele>
        <time>2019-05-05T05:34:39Z</time>
      </trkpt>
      <trkpt lat="46.4241" lon="6.06794">
        <ele>1261</ele>
        <time>2019-05-05T05:34:43Z</time>
      </trkpt>
      <trkpt lat="46.4242" lon="6.06802">
        <ele>1262</ele>
        <time>2019-05-05T05:34:51Z</time>
      </trkpt>
      <trkpt lat="46.42437" lon="6.06818">
        <ele>1263</ele>
        <time>2019-05-05T05:35:05Z</time>
      </trkpt>
      <trkpt lat="46.42441" lon="6.06822">
        <ele>1263</ele>
        <time>2019-05-05T05:35:09Z</time>
      </trkpt>
      <trkpt lat="46.42452" lon="6.06833">
        <ele>1264</ele>
        <time>2019-05-05T05:35:19Z</time>
      </trkpt>
      <trkpt lat="46.42467" lon="6.06847">
        <ele>1264</ele>
        <time>2019-05-05T05:35:32Z</time>
      </trkpt>
      <trkpt lat="46.42485" lon="6.0686">
        <ele>1262</ele>
        <time>2019-05-05T05:35:46Z</time>
      </trkpt>
      <trkpt lat="46.42489" lon="6.06864">
        <ele>1262</ele>
        <time>2019-05-05T05:35:49Z</time>
      </trkpt>
      <trkpt lat="46.42497" lon="6.06868">
        <ele>1261</ele>
        <time>2019-05-05T05:35:56Z</time>
      </trkpt>
      <trkpt lat="46.42499" lon="6.06868">
        <ele>1261</ele>
        <time>2019-05-05T05:35:57Z</time>
      </trkpt>
      <trkpt lat="46.42502" lon="6.06871">
        <ele>1261</ele>
        <time>2019-05-05T05:36:00Z</time>
      </trkpt>
      <trkpt lat="46.42507" lon="6.06876">
        <ele>1261</ele>
        <time>2019-05-05T05:36:04Z</time>
      </trkpt>
      <trkpt lat="46.42511" lon="6.06879">
        <ele>1261</ele>
        <time>2019-05-05T05:36:07Z</time>
      </trkpt>
      <trkpt lat="46.4252" lon="6.06887">
        <ele>1261</ele>
        <time>2019-05-05T05:36:15Z</time>
      </trkpt>
      <trkpt lat="46.42535" lon="6.06901">
        <ele>1261</ele>
        <time>2019-05-05T05:36:28Z</time>
      </trkpt>
      <trkpt lat="46.4255" lon="6.06919">
        <ele>1263</ele>
        <time>2019-05-05T05:36:42Z</time>
      </trkpt>
      <trkpt lat="46.42552" lon="6.06921">
        <ele>1263</ele>
        <time>2019-05-05T05:36:44Z</time>
      </trkpt>
      <trkpt lat="46.42553" lon="6.06922">
        <ele>1263</ele>
        <time>2019-05-05T05:36:45Z</time>
      </trkpt>
      <trkpt lat="46.4257" lon="6.06936">
        <ele>1263</ele>
        <time>2019-05-05T05:36:59Z</time>
      </trkpt>
      <trkpt lat="46.42572" lon="6.06938">
        <ele>1263</ele>
        <time>2019-05-05T05:37:00Z</time>
      </trkpt>
      <trkpt lat="46.42588" lon="6.06953">
        <ele>1263</ele>
        <time>2019-05-05T05:37:15Z</time>
      </trkpt>
      <trkpt lat="46.42605" lon="6.06965">
        <ele>1262</ele>
        <time>2019-05-05T05:37:28Z</time>
      </trkpt>
      <trkpt lat="46.42606" lon="6.06967">
        <ele>1262</ele>
        <time>2019-05-05T05:37:29Z</time>
      </trkpt>
      <trkpt lat="46.42606" lon="6.06969">
        <ele>1263</ele>
        <time>2019-05-05T05:37:30Z</time>
      </trkpt>
      <trkpt lat="46.42609" lon="6.06973">
        <ele>1263</ele>
        <time>2019-05-05T05:37:33Z</time>
      </trkpt>
      <trkpt lat="46.42624" lon="6.06983">
        <ele>1263</ele>
        <time>2019-05-05T05:37:45Z</time>
      </trkpt>
      <trkpt lat="46.42641" lon="6.06993">
        <ele>1263</ele>
        <time>2019-05-05T05:37:58Z</time>
      </trkpt>
      <trkpt lat="46.42653" lon="6.06999">
        <ele>1263</ele>
        <time>2019-05-05T05:38:07Z</time>
      </trkpt>
      <trkpt lat="46.4267" lon="6.07009">
        <ele>1262</ele>
        <time>2019-05-05T05:38:21Z</time>
      </trkpt>
      <trkpt lat="46.42686" lon="6.07023">
        <ele>1263</ele>
        <time>2019-05-05T05:38:34Z</time>
      </trkpt>
      <trkpt lat="46.42691" lon="6.07028">
        <ele>1263</ele>
        <time>2019-05-05T05:38:39Z</time>
      </trkpt>
      <trkpt lat="46.42705" lon="6.0704">
        <ele>1263</ele>
        <time>2019-05-05T05:38:50Z</time>
      </trkpt>
      <trkpt lat="46.42707" lon="6.07041">
        <ele>1262</ele>
        <time>2019-05-05T05:38:52Z</time>
      </trkpt>
      <trkpt lat="46.42722" lon="6.07058">
        <ele>1262</ele>
        <time>2019-05-05T05:39:06Z</time>
      </trkpt>
      <trkpt lat="46.4274" lon="6.07075">
        <ele>1260</ele>
        <time>2019-05-05T05:39:21Z</time>
      </trkpt>
      <trkpt lat="46.42749" lon="6.07084">
        <ele>1260</ele>
        <time>2019-05-05T05:39:29Z</time>
      </trkpt>
      <trkpt lat="46.42764" lon="6.07099">
        <ele>1257</ele>
        <time>2019-05-05T05:39:43Z</time>
      </trkpt>
      <trkpt lat="46.42767" lon="6.07101">
        <ele>1257</ele>
        <time>2019-05-05T05:39:45Z</time>
      </trkpt>
      <trkpt lat="46.42782" lon="6.07117">
        <ele>1257</ele>
        <time>2019-05-05T05:39:58Z</time>
      </trkpt>
      <trkpt lat="46.42784" lon="6.0712">
        <ele>1258</ele>
        <time>2019-05-05T05:40:01Z</time>
      </trkpt>
      <trkpt lat="46.42798" lon="6.07137">
        <ele>1259</ele>
        <time>2019-05-05T05:40:14Z</time>
      </trkpt>
      <trkpt lat="46.42809" lon="6.07154">
        <ele>1260</ele>
        <time>2019-05-05T05:40:26Z</time>
      </trkpt>
      <trkpt lat="46.42815" lon="6.07162">
        <ele>1260</ele>
        <time>2019-05-05T05:40:31Z</time>
      </trkpt>
      <trkpt lat="46.42831" lon="6.0718">
        <ele>1260</ele>
        <time>2019-05-05T05:40:46Z</time>
      </trkpt>
      <trkpt lat="46.42838" lon="6.0719">
        <ele>1260</ele>
        <time>2019-05-05T05:40:53Z</time>
      </trkpt>
      <trkpt lat="46.42853" lon="6.07207">
        <ele>1260</ele>
        <time>2019-05-05T05:41:07Z</time>
      </trkpt>
      <trkpt lat="46.42856" lon="6.07209">
        <ele>1259</ele>
        <time>2019-05-05T05:41:09Z</time>
      </trkpt>
      <trkpt lat="46.42872" lon="6.07229">
        <ele>1261</ele>
        <time>2019-05-05T05:41:25Z</time>
      </trkpt>
      <trkpt lat="46.42877" lon="6.07234">
        <ele>1261</ele>
        <time>2019-05-05T05:41:29Z</time>
      </trkpt>
      <trkpt lat="46.42891" lon="6.07245">
        <ele>1260</ele>
        <time>2019-05-05T05:41:40Z</time>
      </trkpt>
      <trkpt lat="46.42892" lon="6.07244">
        <ele>1260</ele>
        <time>2019-05-05T05:41:41Z</time>
      </trkpt>
      <trkpt lat="46.42894" lon="6.07243">
        <ele>1259</ele>
        <time>2019-05-05T05:41:43Z</time>
      </trkpt>
      <trkpt lat="46.42898" lon="6.07236">
        <ele>1257</ele>
        <time>2019-05-05T05:41:47Z</time>
      </trkpt>
      <trkpt lat="46.42901" lon="6.07231">
        <ele>1256</ele>
        <time>2019-05-05T05:41:51Z</time>
      </trkpt>
      <trkpt lat="46.42893" lon="6.07217">
        <ele>1256</ele>
        <time>2019-05-05T05:42:00Z</time>
      </trkpt>
      <trkpt lat="46.4289" lon="6.07214">
        <ele>1256</ele>
        <time>2019-05-05T05:42:03Z</time>
      </trkpt>
      <trkpt lat="46.42882" lon="6.07208">
        <ele>1256</ele>
        <time>2019-05-05T05:42:09Z</time>
      </trkpt>
      <trkpt lat="46.42875" lon="6.07203">
        <ele>1256</ele>
        <time>2019-05-05T05:42:15Z</time>
      </trkpt>
      <trkpt lat="46.4287" lon="6.07195">
        <ele>1255</ele>
        <time>2019-05-05T05:42:20Z</time>
      </trkpt>
      <trkpt lat="46.42857" lon="6.07177">
        <ele>1253</ele>
        <time>2019-05-05T05:42:33Z</time>
      </trkpt>
      <trkpt lat="46.42844" lon="6.07164">
        <ele>1254</ele>
        <time>2019-05-05T05:42:45Z</time>
      </trkpt>
      <trkpt lat="46.4284" lon="6.07162">
        <ele>1255</ele>
        <time>2019-05-05T05:42:48Z</time>
      </trkpt>
      <trkpt lat="46.42835" lon="6.07159">
        <ele>1256</ele>
        <time>2019-05-05T05:42:52Z</time>
      </trkpt>
      <trkpt lat="46.42831" lon="6.07147">
        <ele>1254</ele>
        <time>2019-05-05T05:42:59Z</time>
      </trkpt>
      <trkpt lat="46.42817" lon="6.0713">
        <ele>1254</ele>
        <time>2019-05-05T05:43:12Z</time>
      </trkpt>
      <trkpt lat="46.4281" lon="6.0711">
        <ele>1251</ele>
        <time>2019-05-05T05:43:24Z</time>
      </trkpt>
      <trkpt lat="46.42809" lon="6.07103">
        <ele>1250</ele>
        <time>2019-05-05T05:43:27Z</time>
      </trkpt>
      <trkpt lat="46.42803" lon="6.0709">
        <ele>1250</ele>
        <time>2019-05-05T05:43:35Z</time>
      </trkpt>
      <trkpt lat="46.4279" lon="6.07067">
        <ele>1249</ele>
        <time>2019-05-05T05:43:50Z</time>
      </trkpt>
      <trkpt lat="46.42779" lon="6.07057">
        <ele>1249</ele>
        <time>2019-05-05T05:43:59Z</time>
      </trkpt>
      <trkpt lat="46.42773" lon="6.07032">
        <ele>1246</ele>
        <time>2019-05-05T05:44:13Z</time>
      </trkpt>
      <trkpt lat="46.42771" lon="6.0701">
        <ele>1244</ele>
        <time>2019-05-05T05:44:24Z</time>
      </trkpt>
      <trkpt lat="46.42767" lon="6.06985">
        <ele>1244</ele>
        <time>2019-05-05T05:44:37Z</time>
      </trkpt>
      <trkpt lat="46.42755" lon="6.06961">
        <ele>1243</ele>
        <time>2019-05-05T05:44:52Z</time>
      </trkpt>
      <trkpt lat="46.42753" lon="6.06959">
        <ele>1243</ele>
        <time>2019-05-05T05:44:53Z</time>
      </trkpt>
      <trkpt lat="46.42748" lon="6.06955">
        <ele>1243</ele>
        <time>2019-05-05T05:44:57Z</time>
      </trkpt>
      <trkpt lat="46.42731" lon="6.06951">
        <ele>1243</ele>
        <time>2019-05-05T05:45:10Z</time>
      </trkpt>
      <trkpt lat="46.42727" lon="6.0694">
        <ele>1242</ele>
        <time>2019-05-05T05:45:16Z</time>
      </trkpt>
      <trkpt lat="46.42725" lon="6.06929">
        <ele>1241</ele>
        <time>2019-05-05T05:45:22Z</time>
      </trkpt>
      <trkpt lat="46.4272" lon="6.06926">
        <ele>1241</ele>
        <time>2019-05-05T05:45:26Z</time>
      </trkpt>
      <trkpt lat="46.42707" lon="6.06905">
        <ele>1241</ele>
        <time>2019-05-05T05:45:40Z</time>
      </trkpt>
      <trkpt lat="46.42703" lon="6.069">
        <ele>1240</ele>
        <time>2019-05-05T05:45:43Z</time>
      </trkpt>
      <trkpt lat="46.42698" lon="6.06892">
        <ele>1239</ele>
        <time>2019-05-05T05:45:49Z</time>
      </trkpt>
      <trkpt lat="46.42684" lon="6.06873">
        <ele>1237</ele>
        <time>2019-05-05T05:46:02Z</time>
      </trkpt>
      <trkpt lat="46.42671" lon="6.06852">
        <ele>1235</ele>
        <time>2019-05-05T05:46:17Z</time>
      </trkpt>
      <trkpt lat="46.42656" lon="6.06833">
        <ele>1237</ele>
        <time>2019-05-05T05:46:31Z</time>
      </trkpt>
      <trkpt lat="46.42645" lon="6.06819">
        <ele>1237</ele>
        <time>2019-05-05T05:46:42Z</time>
      </trkpt>
      <trkpt lat="46.42632" lon="6.06799">
        <ele>1235</ele>
        <time>2019-05-05T05:46:56Z</time>
      </trkpt>
      <trkpt lat="46.42627" lon="6.06792">
        <ele>1235</ele>
        <time>2019-05-05T05:47:01Z</time>
      </trkpt>
      <trkpt lat="46.42623" lon="6.06783">
        <ele>1233</ele>
        <time>2019-05-05T05:47:06Z</time>
      </trkpt>
      <trkpt lat="46.42612" lon="6.06767">
        <ele>1230</ele>
        <time>2019-05-05T05:47:18Z</time>
      </trkpt>
      <trkpt lat="46.42598" lon="6.06747">
        <ele>1233</ele>
        <time>2019-05-05T05:47:32Z</time>
      </trkpt>
      <trkpt lat="46.42593" lon="6.06739">
        <ele>1234</ele>
        <time>2019-05-05T05:47:37Z</time>
      </trkpt>
      <trkpt lat="46.42581" lon="6.06722">
        <ele>1235</ele>
        <time>2019-05-05T05:47:50Z</time>
      </trkpt>
      <trkpt lat="46.42568" lon="6.0671">
        <ele>1235</ele>
        <time>2019-05-05T05:48:00Z</time>
      </trkpt>
      <trkpt lat="46.42554" lon="6.0669">
        <ele>1233</ele>
        <time>2019-05-05T05:48:15Z</time>
      </trkpt>
      <trkpt lat="46.42539" lon="6.06674">
        <ele>1232</ele>
        <time>2019-05-05T05:48:28Z</time>
      </trkpt>
      <trkpt lat="46.42537" lon="6.06672">
        <ele>1232</ele>
        <time>2019-05-05T05:48:30Z</time>
      </trkpt>
      <trkpt lat="46.42529" lon="6.06668">
        <ele>1230</ele>
        <time>2019-05-05T05:48:36Z</time>
      </trkpt>
      <trkpt lat="46.42511" lon="6.06654">
        <ele>1230</ele>
        <time>2019-05-05T05:48:51Z</time>
      </trkpt>
      <trkpt lat="46.42495" lon="6.06641">
        <ele>1229</ele>
        <time>2019-05-05T05:49:04Z</time>
      </trkpt>
      <trkpt lat="46.4249" lon="6.06633">
        <ele>1229</ele>
        <time>2019-05-05T05:49:10Z</time>
      </trkpt>
      <trkpt lat="46.42486" lon="6.06628">
        <ele>1229</ele>
        <time>2019-05-05T05:49:13Z</time>
      </trkpt>
      <trkpt lat="46.42479" lon="6.06618">
        <ele>1228</ele>
        <time>2019-05-05T05:49:20Z</time>
      </trkpt>
      <trkpt lat="46.42461" lon="6.06604">
        <ele>1223</ele>
        <time>2019-05-05T05:49:36Z</time>
      </trkpt>
      <trkpt lat="46.42447" lon="6.06586">
        <ele>1221</ele>
        <time>2019-05-05T05:49:49Z</time>
      </trkpt>
      <trkpt lat="46.42441" lon="6.06576">
        <ele>1221</ele>
        <time>2019-05-05T05:49:56Z</time>
      </trkpt>
      <trkpt lat="46.42424" lon="6.06562">
        <ele>1221</ele>
        <time>2019-05-05T05:50:10Z</time>
      </trkpt>
      <trkpt lat="46.4241" lon="6.06546">
        <ele>1220</ele>
        <time>2019-05-05T05:50:23Z</time>
      </trkpt>
      <trkpt lat="46.42409" lon="6.06544">
        <ele>1220</ele>
        <time>2019-05-05T05:50:24Z</time>
      </trkpt>
      <trkpt lat="46.42402" lon="6.06536">
        <ele>1219</ele>
        <time>2019-05-05T05:50:31Z</time>
      </trkpt>
      <trkpt lat="46.42388" lon="6.0652">
        <ele>1216</ele>
        <time>2019-05-05T05:50:44Z</time>
      </trkpt>
      <trkpt lat="46.4238" lon="6.06506">
        <ele>1216</ele>
        <time>2019-05-05T05:50:52Z</time>
      </trkpt>
      <trkpt lat="46.42377" lon="6.06499">
        <ele>1217</ele>
        <time>2019-05-05T05:50:57Z</time>
      </trkpt>
      <trkpt lat="46.42367" lon="6.06484">
        <ele>1217</ele>
        <time>2019-05-05T05:51:07Z</time>
      </trkpt>
      <trkpt lat="46.42353" lon="6.06468">
        <ele>1216</ele>
        <time>2019-05-05T05:51:20Z</time>
      </trkpt>
      <trkpt lat="46.42343" lon="6.06456">
        <ele>1216</ele>
        <time>2019-05-05T05:51:30Z</time>
      </trkpt>
      <trkpt lat="46.42329" lon="6.06438">
        <ele>1214</ele>
        <time>2019-05-05T05:51:43Z</time>
      </trkpt>
      <trkpt lat="46.42322" lon="6.06425">
        <ele>1214</ele>
        <time>2019-05-05T05:51:51Z</time>
      </trkpt>
      <trkpt lat="46.42316" lon="6.06416">
        <ele>1214</ele>
        <time>2019-05-05T05:51:58Z</time>
      </trkpt>
      <trkpt lat="46.42306" lon="6.06395">
        <ele>1215</ele>
        <time>2019-05-05T05:52:11Z</time>
      </trkpt>
      <trkpt lat="46.42301" lon="6.06389">
        <ele>1214</ele>
        <time>2019-05-05T05:52:15Z</time>
      </trkpt>
      <trkpt lat="46.4229" lon="6.06377">
        <ele>1212</ele>
        <time>2019-05-05T05:52:25Z</time>
      </trkpt>
      <trkpt lat="46.42273" lon="6.06362">
        <ele>1209</ele>
        <time>2019-05-05T05:52:40Z</time>
      </trkpt>
      <trkpt lat="46.42271" lon="6.0636">
        <ele>1209</ele>
        <time>2019-05-05T05:52:41Z</time>
      </trkpt>
      <trkpt lat="46.42254" lon="6.06346">
        <ele>1207</ele>
        <time>2019-05-05T05:52:55Z</time>
      </trkpt>
      <trkpt lat="46.42237" lon="6.06335">
        <ele>1205</ele>
        <time>2019-05-05T05:53:09Z</time>
      </trkpt>
      <trkpt lat="46.42225" lon="6.06325">
        <ele>1205</ele>
        <time>2019-05-05T05:53:19Z</time>
      </trkpt>
      <trkpt lat="46.42208" lon="6.06316">
        <ele>1202</ele>
        <time>2019-05-05T05:53:32Z</time>
      </trkpt>
      <trkpt lat="46.42206" lon="6.06315">
        <ele>1202</ele>
        <time>2019-05-05T05:53:34Z</time>
      </trkpt>
      <trkpt lat="46.42195" lon="6.06306">
        <ele>1200</ele>
        <time>2019-05-05T05:53:43Z</time>
      </trkpt>
      <trkpt lat="46.42181" lon="6.06289">
        <ele>1201</ele>
        <time>2019-05-05T05:53:57Z</time>
      </trkpt>
      <trkpt lat="46.42167" lon="6.06267">
        <ele>1203</ele>
        <time>2019-05-05T05:54:11Z</time>
      </trkpt>
      <trkpt lat="46.42166" lon="6.06265">
        <ele>1203</ele>
        <time>2019-05-05T05:54:13Z</time>
      </trkpt>
      <trkpt lat="46.42155" lon="6.06253">
        <ele>1204</ele>
        <time>2019-05-05T05:54:22Z</time>
      </trkpt>
      <trkpt lat="46.42138" lon="6.06247">
        <ele>1201</ele>
        <time>2019-05-05T05:54:36Z</time>
      </trkpt>
      <trkpt lat="46.42122" lon="6.06245">
        <ele>1198</ele>
        <time>2019-05-05T05:54:47Z</time>
      </trkpt>
      <trkpt lat="46.42105" lon="6.06237">
        <ele>1195</ele>
        <time>2019-05-05T05:55:00Z</time>
      </trkpt>
      <trkpt lat="46.42089" lon="6.06223">
        <ele>1196</ele>
        <time>2019-05-05T05:55:14Z</time>
      </trkpt>
      <trkpt lat="46.42085" lon="6.06219">
        <ele>1196</ele>
        <time>2019-05-05T05:55:17Z</time>
      </trkpt>
      <trkpt lat="46.4208" lon="6.06215">
        <ele>1196</ele>
        <time>2019-05-05T05:55:22Z</time>
      </trkpt>
      <trkpt lat="46.42076" lon="6.06212">
        <ele>1195</ele>
        <time>2019-05-05T05:55:25Z</time>
      </trkpt>
      <trkpt lat="46.42072" lon="6.0621">
        <ele>1195</ele>
        <time>2019-05-05T05:55:28Z</time>
      </trkpt>
      <trkpt lat="46.42058" lon="6.06194">
        <ele>1193</ele>
        <time>2019-05-05T05:55:41Z</time>
      </trkpt>
      <trkpt lat="46.42042" lon="6.06178">
        <ele>1191</ele>
        <time>2019-05-05T05:55:55Z</time>
      </trkpt>
      <trkpt lat="46.42037" lon="6.06171">
        <ele>1191</ele>
        <time>2019-05-05T05:56:00Z</time>
      </trkpt>
      <trkpt lat="46.42032" lon="6.06164">
        <ele>1192</ele>
        <time>2019-05-05T05:56:05Z</time>
      </trkpt>
      <trkpt lat="46.42022" lon="6.0615">
        <ele>1192</ele>
        <time>2019-05-05T05:56:15Z</time>
      </trkpt>
      <trkpt lat="46.42007" lon="6.06132">
        <ele>1193</ele>
        <time>2019-05-05T05:56:29Z</time>
      </trkpt>
      <trkpt lat="46.41991" lon="6.06118">
        <ele>1191</ele>
        <time>2019-05-05T05:56:43Z</time>
      </trkpt>
      <trkpt lat="46.41987" lon="6.06113">
        <ele>1191</ele>
        <time>2019-05-05T05:56:47Z</time>
      </trkpt>
      <trkpt lat="46.41978" lon="6.06099">
        <ele>1190</ele>
        <time>2019-05-05T05:56:56Z</time>
      </trkpt>
      <trkpt lat="46.41971" lon="6.06088">
        <ele>1189</ele>
        <time>2019-05-05T05:57:04Z</time>
      </trkpt>
      <trkpt lat="46.41959" lon="6.0607">
        <ele>1187</ele>
        <time>2019-05-05T05:57:16Z</time>
      </trkpt>
      <trkpt lat="46.41943" lon="6.06051">
        <ele>1184</ele>
        <time>2019-05-05T05:57:31Z</time>
      </trkpt>
      <trkpt lat="46.41928" lon="6.06036">
        <ele>1183</ele>
        <time>2019-05-05T05:57:45Z</time>
      </trkpt>
      <trkpt lat="46.41913" lon="6.06021">
        <ele>1182</ele>
        <time>2019-05-05T05:57:58Z</time>
      </trkpt>
      <trkpt lat="46.41909" lon="6.06017">
        <ele>1182</ele>
        <time>2019-05-05T05:58:01Z</time>
      </trkpt>
      <trkpt lat="46.41902" lon="6.06008">
        <ele>1181</ele>
        <time>2019-05-05T05:58:08Z</time>
      </trkpt>
      <trkpt lat="46.41893" lon="6.05998">
        <ele>1181</ele>
        <time>2019-05-05T05:58:16Z</time>
      </trkpt>
      <trkpt lat="46.4188" lon="6.05977">
        <ele>1179</ele>
        <time>2019-05-05T05:58:30Z</time>
      </trkpt>
      <trkpt lat="46.41867" lon="6.05959">
        <ele>1177</ele>
        <time>2019-05-05T05:58:44Z</time>
      </trkpt>
      <trkpt lat="46.41857" lon="6.05942">
        <ele>1176</ele>
        <time>2019-05-05T05:58:54Z</time>
      </trkpt>
      <trkpt lat="46.41845" lon="6.05921">
        <ele>1176</ele>
        <time>2019-05-05T05:59:08Z</time>
      </trkpt>
      <trkpt lat="46.41833" lon="6.05899">
        <ele>1176</ele>
        <time>2019-05-05T05:59:22Z</time>
      </trkpt>
      <trkpt lat="46.41822" lon="6.05875">
        <ele>1177</ele>
        <time>2019-05-05T05:59:36Z</time>
      </trkpt>
      <trkpt lat="46.41812" lon="6.05853">
        <ele>1176</ele>
        <time>2019-05-05T05:59:50Z</time>
      </trkpt>
      <trkpt lat="46.41809" lon="6.05847">
        <ele>1176</ele>
        <time>2019-05-05T05:59:53Z</time>
      </trkpt>
      <trkpt lat="46.41796" lon="6.05829">
        <ele>1175</ele>
        <time>2019-05-05T06:00:06Z</time>
      </trkpt>
      <trkpt lat="46.41782" lon="6.05813">
        <ele>1174</ele>
        <time>2019-05-05T06:00:19Z</time>
      </trkpt>
      <trkpt lat="46.41778" lon="6.05807">
        <ele>1173</ele>
        <time>2019-05-05T06:00:23Z</time>
      </trkpt>
      <trkpt lat="46.41763" lon="6.05788">
        <ele>1174</ele>
        <time>2019-05-05T06:00:38Z</time>
      </trkpt>
      <trkpt lat="46.41751" lon="6.05768">
        <ele>1175</ele>
        <time>2019-05-05T06:00:51Z</time>
      </trkpt>
      <trkpt lat="46.41739" lon="6.05745">
        <ele>1176</ele>
        <time>2019-05-05T06:01:05Z</time>
      </trkpt>
      <trkpt lat="46.41726" lon="6.05724">
        <ele>1176</ele>
        <time>2019-05-05T06:01:19Z</time>
      </trkpt>
      <trkpt lat="46.41723" lon="6.05718">
        <ele>1175</ele>
        <time>2019-05-05T06:01:23Z</time>
      </trkpt>
      <trkpt lat="46.41711" lon="6.05697">
        <ele>1172</ele>
        <time>2019-05-05T06:01:37Z</time>
      </trkpt>
      <trkpt lat="46.41698" lon="6.05678">
        <ele>1168</ele>
        <time>2019-05-05T06:01:50Z</time>
      </trkpt>
      <trkpt lat="46.41687" lon="6.05656">
        <ele>1166</ele>
        <time>2019-05-05T06:02:04Z</time>
      </trkpt>
      <trkpt lat="46.41679" lon="6.05641">
        <ele>1167</ele>
        <time>2019-05-05T06:02:14Z</time>
      </trkpt>
      <trkpt lat="46.4167" lon="6.05617">
        <ele>1167</ele>
        <time>2019-05-05T06:02:27Z</time>
      </trkpt>
      <trkpt lat="46.41666" lon="6.05607">
        <ele>1166</ele>
        <time>2019-05-05T06:02:33Z</time>
      </trkpt>
      <trkpt lat="46.41661" lon="6.0559">
        <ele>1165</ele>
        <time>2019-05-05T06:02:42Z</time>
      </trkpt>
      <trkpt lat="46.41657" lon="6.05564">
        <ele>1165</ele>
        <time>2019-05-05T06:02:56Z</time>
      </trkpt>
      <trkpt lat="46.41656" lon="6.0556">
        <ele>1165</ele>
        <time>2019-05-05T06:02:58Z</time>
      </trkpt>
      <trkpt lat="46.41648" lon="6.05534">
        <ele>1165</ele>
        <time>2019-05-05T06:03:12Z</time>
      </trkpt>
      <trkpt lat="46.41645" lon="6.05528">
        <ele>1164</ele>
        <time>2019-05-05T06:03:16Z</time>
      </trkpt>
      <trkpt lat="46.41635" lon="6.05504">
        <ele>1163</ele>
        <time>2019-05-05T06:03:30Z</time>
      </trkpt>
      <trkpt lat="46.41627" lon="6.05485">
        <ele>1162</ele>
        <time>2019-05-05T06:03:41Z</time>
      </trkpt>
      <trkpt lat="46.41618" lon="6.05461">
        <ele>1160</ele>
        <time>2019-05-05T06:03:55Z</time>
      </trkpt>
      <trkpt lat="46.4161" lon="6.05434">
        <ele>1160</ele>
        <time>2019-05-05T06:04:09Z</time>
      </trkpt>
      <trkpt lat="46.41609" lon="6.05418">
        <ele>1161</ele>
        <time>2019-05-05T06:04:17Z</time>
      </trkpt>
      <trkpt lat="46.41608" lon="6.05389">
        <ele>1163</ele>
        <time>2019-05-05T06:04:32Z</time>
      </trkpt>
      <trkpt lat="46.41602" lon="6.05362">
        <ele>1165</ele>
        <time>2019-05-05T06:04:46Z</time>
      </trkpt>
      <trkpt lat="46.41598" lon="6.0535">
        <ele>1166</ele>
        <time>2019-05-05T06:04:52Z</time>
      </trkpt>
      <trkpt lat="46.41585" lon="6.05331">
        <ele>1168</ele>
        <time>2019-05-05T06:05:06Z</time>
      </trkpt>
      <trkpt lat="46.41568" lon="6.05321">
        <ele>1167</ele>
        <time>2019-05-05T06:05:19Z</time>
      </trkpt>
      <trkpt lat="46.41549" lon="6.05314">
        <ele>1165</ele>
        <time>2019-05-05T06:05:33Z</time>
      </trkpt>
      <trkpt lat="46.41532" lon="6.0531">
        <ele>1162</ele>
        <time>2019-05-05T06:05:46Z</time>
      </trkpt>
      <trkpt lat="46.41518" lon="6.05307">
        <ele>1161</ele>
        <time>2019-05-05T06:05:56Z</time>
      </trkpt>
      <trkpt lat="46.41501" lon="6.05292">
        <ele>1160</ele>
        <time>2019-05-05T06:06:11Z</time>
      </trkpt>
      <trkpt lat="46.41497" lon="6.05291">
        <ele>1160</ele>
        <time>2019-05-05T06:06:14Z</time>
      </trkpt>
      <trkpt lat="46.41477" lon="6.05292">
        <ele>1158</ele>
        <time>2019-05-05T06:06:28Z</time>
      </trkpt>
      <trkpt lat="46.41471" lon="6.05286">
        <ele>1158</ele>
        <time>2019-05-05T06:06:33Z</time>
      </trkpt>
      <trkpt lat="46.41474" lon="6.05269">
        <ele>1159</ele>
        <time>2019-05-05T06:06:42Z</time>
      </trkpt>
      <trkpt lat="46.41474" lon="6.05266">
        <ele>1159</ele>
        <time>2019-05-05T06:06:44Z</time>
      </trkpt>
      <trkpt lat="46.41475" lon="6.05259">
        <ele>1161</ele>
        <time>2019-05-05T06:06:48Z</time>
      </trkpt>
      <trkpt lat="46.41479" lon="6.05255">
        <ele>1162</ele>
        <time>2019-05-05T06:06:51Z</time>
      </trkpt>
      <trkpt lat="46.4148" lon="6.05253">
        <ele>1162</ele>
        <time>2019-05-05T06:06:52Z</time>
      </trkpt>
      <trkpt lat="46.41483" lon="6.0525">
        <ele>1163</ele>
        <time>2019-05-05T06:06:55Z</time>
      </trkpt>
      <trkpt lat="46.41485" lon="6.05246">
        <ele>1164</ele>
        <time>2019-05-05T06:06:57Z</time>
      </trkpt>
      <trkpt lat="46.41487" lon="6.05242">
        <ele>1165</ele>
        <time>2019-05-05T06:07:00Z</time>
      </trkpt>
      <trkpt lat="46.41489" lon="6.05237">
        <ele>1167</ele>
        <time>2019-05-05T06:07:03Z</time>
      </trkpt>
      <trkpt lat="46.41489" lon="6.05236">
        <ele>1167</ele>
        <time>2019-05-05T06:07:03Z</time>
      </trkpt>
      <trkpt lat="46.4149" lon="6.05235">
        <ele>1167</ele>
        <time>2019-05-05T06:07:04Z</time>
      </trkpt>
      <trkpt lat="46.41492" lon="6.05231">
        <ele>1168</ele>
        <time>2019-05-05T06:07:07Z</time>
      </trkpt>
      <trkpt lat="46.41495" lon="6.05226">
        <ele>1170</ele>
        <time>2019-05-05T06:07:10Z</time>
      </trkpt>
      <trkpt lat="46.41496" lon="6.05222">
        <ele>1171</ele>
        <time>2019-05-05T06:07:12Z</time>
      </trkpt>
      <trkpt lat="46.41497" lon="6.0522">
        <ele>1172</ele>
        <time>2019-05-05T06:07:14Z</time>
      </trkpt>
      <trkpt lat="46.41497" lon="6.05214">
        <ele>1173</ele>
        <time>2019-05-05T06:07:17Z</time>
      </trkpt>
      <trkpt lat="46.41495" lon="6.05206">
        <ele>1175</ele>
        <time>2019-05-05T06:07:21Z</time>
      </trkpt>
      <trkpt lat="46.41494" lon="6.05201">
        <ele>1175</ele>
        <time>2019-05-05T06:07:24Z</time>
      </trkpt>
      <trkpt lat="46.41494" lon="6.05197">
        <ele>1176</ele>
        <time>2019-05-05T06:07:26Z</time>
      </trkpt>
      <trkpt lat="46.41493" lon="6.05192">
        <ele>1177</ele>
        <time>2019-05-05T06:07:29Z</time>
      </trkpt>
      <trkpt lat="46.4149" lon="6.05187">
        <ele>1178</ele>
        <time>2019-05-05T06:07:32Z</time>
      </trkpt>
      <trkpt lat="46.41488" lon="6.05183">
        <ele>1178</ele>
        <time>2019-05-05T06:07:34Z</time>
      </trkpt>
      <trkpt lat="46.41486" lon="6.05179">
        <ele>1179</ele>
        <time>2019-05-05T06:07:37Z</time>
      </trkpt>
      <trkpt lat="46.41483" lon="6.05174">
        <ele>1179</ele>
        <time>2019-05-05T06:07:40Z</time>
      </trkpt>
      <trkpt lat="46.41482" lon="6.05173">
        <ele>1179</ele>
        <time>2019-05-05T06:07:41Z</time>
      </trkpt>
      <trkpt lat="46.41479" lon="6.05164">
        <ele>1181</ele>
        <time>2019-05-05T06:07:46Z</time>
      </trkpt>
      <trkpt lat="46.41476" lon="6.0516">
        <ele>1181</ele>
        <time>2019-05-05T06:07:49Z</time>
      </trkpt>
      <trkpt lat="46.41472" lon="6.05152">
        <ele>1182</ele>
        <time>2019-05-05T06:07:54Z</time>
      </trkpt>
      <trkpt lat="46.41469" lon="6.05149">
        <ele>1182</ele>
        <time>2019-05-05T06:07:57Z</time>
      </trkpt>
      <trkpt lat="46.41464" lon="6.05142">
        <ele>1183</ele>
        <time>2019-05-05T06:08:02Z</time>
      </trkpt>
      <trkpt lat="46.41462" lon="6.05139">
        <ele>1183</ele>
        <time>2019-05-05T06:08:04Z</time>
      </trkpt>
      <trkpt lat="46.41459" lon="6.05133">
        <ele>1184</ele>
        <time>2019-05-05T06:08:08Z</time>
      </trkpt>
      <trkpt lat="46.41457" lon="6.05129">
        <ele>1185</ele>
        <time>2019-05-05T06:08:11Z</time>
      </trkpt>
      <trkpt lat="46.41456" lon="6.05128">
        <ele>1185</ele>
        <time>2019-05-05T06:08:11Z</time>
      </trkpt>
      <trkpt lat="46.41456" lon="6.05122">
        <ele>1186</ele>
        <time>2019-05-05T06:08:14Z</time>
      </trkpt>
      <trkpt lat="46.41456" lon="6.05118">
        <ele>1187</ele>
        <time>2019-05-05T06:08:16Z</time>
      </trkpt>
      <trkpt lat="46.41455" lon="6.05115">
        <ele>1188</ele>
        <time>2019-05-05T06:08:18Z</time>
      </trkpt>
      <trkpt lat="46.41454" lon="6.0511">
        <ele>1189</ele>
        <time>2019-05-05T06:08:21Z</time>
      </trkpt>
      <trkpt lat="46.41455" lon="6.05106">
        <ele>1190</ele>
        <time>2019-05-05T06:08:23Z</time>
      </trkpt>
      <trkpt lat="46.41456" lon="6.05101">
        <ele>1192</ele>
        <time>2019-05-05T06:08:26Z</time>
      </trkpt>
      <trkpt lat="46.41457" lon="6.05093">
        <ele>1193</ele>
        <time>2019-05-05T06:08:30Z</time>
      </trkpt>
      <trkpt lat="46.41457" lon="6.05092">
        <ele>1193</ele>
        <time>2019-05-05T06:08:30Z</time>
      </trkpt>
      <trkpt lat="46.41458" lon="6.05087">
        <ele>1194</ele>
        <time>2019-05-05T06:08:33Z</time>
      </trkpt>
      <trkpt lat="46.4146" lon="6.05085">
        <ele>1195</ele>
        <time>2019-05-05T06:08:35Z</time>
      </trkpt>
      <trkpt lat="46.41461" lon="6.05082">
        <ele>1196</ele>
        <time>2019-05-05T06:08:37Z</time>
      </trkpt>
      <trkpt lat="46.41462" lon="6.05077">
        <ele>1197</ele>
        <time>2019-05-05T06:08:39Z</time>
      </trkpt>
      <trkpt lat="46.41464" lon="6.05071">
        <ele>1198</ele>
        <time>2019-05-05T06:08:43Z</time>
      </trkpt>
      <trkpt lat="46.41465" lon="6.0507">
        <ele>1198</ele>
        <time>2019-05-05T06:08:43Z</time>
      </trkpt>
      <trkpt lat="46.41467" lon="6.05066">
        <ele>1199</ele>
        <time>2019-05-05T06:08:46Z</time>
      </trkpt>
      <trkpt lat="46.41467" lon="6.05065">
        <ele>1200</ele>
        <time>2019-05-05T06:08:47Z</time>
      </trkpt>
      <trkpt lat="46.4147" lon="6.05061">
        <ele>1201</ele>
        <time>2019-05-05T06:08:50Z</time>
      </trkpt>
      <trkpt lat="46.41471" lon="6.05052">
        <ele>1202</ele>
        <time>2019-05-05T06:08:54Z</time>
      </trkpt>
      <trkpt lat="46.41471" lon="6.05052">
        <ele>1202</ele>
        <time>2019-05-05T06:08:54Z</time>
      </trkpt>
      <trkpt lat="46.41472" lon="6.0505">
        <ele>1203</ele>
        <time>2019-05-05T06:08:56Z</time>
      </trkpt>
      <trkpt lat="46.41474" lon="6.05049">
        <ele>1203</ele>
        <time>2019-05-05T06:08:57Z</time>
      </trkpt>
      <trkpt lat="46.41476" lon="6.05046">
        <ele>1204</ele>
        <time>2019-05-05T06:08:59Z</time>
      </trkpt>
      <trkpt lat="46.41476" lon="6.05043">
        <ele>1205</ele>
        <time>2019-05-05T06:09:00Z</time>
      </trkpt>
      <trkpt lat="46.41478" lon="6.05042">
        <ele>1205</ele>
        <time>2019-05-05T06:09:02Z</time>
      </trkpt>
      <trkpt lat="46.41479" lon="6.0504">
        <ele>1206</ele>
        <time>2019-05-05T06:09:03Z</time>
      </trkpt>
      <trkpt lat="46.41481" lon="6.05036">
        <ele>1207</ele>
        <time>2019-05-05T06:09:06Z</time>
      </trkpt>
      <trkpt lat="46.41482" lon="6.05034">
        <ele>1207</ele>
        <time>2019-05-05T06:09:07Z</time>
      </trkpt>
      <trkpt lat="46.41483" lon="6.05031">
        <ele>1208</ele>
        <time>2019-05-05T06:09:09Z</time>
      </trkpt>
      <trkpt lat="46.41484" lon="6.0503">
        <ele>1208</ele>
        <time>2019-05-05T06:09:10Z</time>
      </trkpt>
      <trkpt lat="46.41487" lon="6.05025">
        <ele>1210</ele>
        <time>2019-05-05T06:09:13Z</time>
      </trkpt>
      <trkpt lat="46.4149" lon="6.05021">
        <ele>1211</ele>
        <time>2019-05-05T06:09:16Z</time>
      </trkpt>
      <trkpt lat="46.415" lon="6.0501">
        <ele>1215</ele>
        <time>2019-05-05T06:09:26Z</time>
      </trkpt>
      <trkpt lat="46.41507" lon="6.05002">
        <ele>1218</ele>
        <time>2019-05-05T06:09:33Z</time>
      </trkpt>
      <trkpt lat="46.41508" lon="6.05002">
        <ele>1218</ele>
        <time>2019-05-05T06:09:33Z</time>
      </trkpt>
      <trkpt lat="46.41511" lon="6.05">
        <ele>1219</ele>
        <time>2019-05-05T06:09:36Z</time>
      </trkpt>
      <trkpt lat="46.41515" lon="6.04997">
        <ele>1220</ele>
        <time>2019-05-05T06:09:39Z</time>
      </trkpt>
      <trkpt lat="46.41516" lon="6.04994">
        <ele>1221</ele>
        <time>2019-05-05T06:09:41Z</time>
      </trkpt>
      <trkpt lat="46.41516" lon="6.04985">
        <ele>1223</ele>
        <time>2019-05-05T06:09:46Z</time>
      </trkpt>
      <trkpt lat="46.41516" lon="6.04983">
        <ele>1223</ele>
        <time>2019-05-05T06:09:46Z</time>
      </trkpt>
      <trkpt lat="46.41517" lon="6.04983">
        <ele>1223</ele>
        <time>2019-05-05T06:09:47Z</time>
      </trkpt>
      <trkpt lat="46.41516" lon="6.04977">
        <ele>1224</ele>
        <time>2019-05-05T06:09:50Z</time>
      </trkpt>
      <trkpt lat="46.41517" lon="6.04972">
        <ele>1226</ele>
        <time>2019-05-05T06:09:53Z</time>
      </trkpt>
      <trkpt lat="46.41517" lon="6.0497">
        <ele>1226</ele>
        <time>2019-05-05T06:09:53Z</time>
      </trkpt>
      <trkpt lat="46.4152" lon="6.0496">
        <ele>1229</ele>
        <time>2019-05-05T06:09:59Z</time>
      </trkpt>
      <trkpt lat="46.4152" lon="6.04957">
        <ele>1229</ele>
        <time>2019-05-05T06:10:01Z</time>
      </trkpt>
      <trkpt lat="46.4152" lon="6.04956">
        <ele>1230</ele>
        <time>2019-05-05T06:10:01Z</time>
      </trkpt>
      <trkpt lat="46.41521" lon="6.04952">
        <ele>1231</ele>
        <time>2019-05-05T06:10:04Z</time>
      </trkpt>
      <trkpt lat="46.41519" lon="6.04946">
        <ele>1231</ele>
        <time>2019-05-05T06:10:07Z</time>
      </trkpt>
      <trkpt lat="46.41518" lon="6.04943">
        <ele>1232</ele>
        <time>2019-05-05T06:10:09Z</time>
      </trkpt>
      <trkpt lat="46.41518" lon="6.0494">
        <ele>1233</ele>
        <time>2019-05-05T06:10:10Z</time>
      </trkpt>
      <trkpt lat="46.4152" lon="6.04938">
        <ele>1234</ele>
        <time>2019-05-05T06:10:12Z</time>
      </trkpt>
      <trkpt lat="46.41521" lon="6.04934">
        <ele>1235</ele>
        <time>2019-05-05T06:10:15Z</time>
      </trkpt>
      <trkpt lat="46.4152" lon="6.04928">
        <ele>1235</ele>
        <time>2019-05-05T06:10:18Z</time>
      </trkpt>
      <trkpt lat="46.4152" lon="6.04924">
        <ele>1236</ele>
        <time>2019-05-05T06:10:20Z</time>
      </trkpt>
      <trkpt lat="46.41521" lon="6.04919">
        <ele>1237</ele>
        <time>2019-05-05T06:10:22Z</time>
      </trkpt>
      <trkpt lat="46.41521" lon="6.04915">
        <ele>1238</ele>
        <time>2019-05-05T06:10:24Z</time>
      </trkpt>
      <trkpt lat="46.41522" lon="6.04914">
        <ele>1238</ele>
        <time>2019-05-05T06:10:25Z</time>
      </trkpt>
      <trkpt lat="46.41523" lon="6.0491">
        <ele>1239</ele>
        <time>2019-05-05T06:10:27Z</time>
      </trkpt>
      <trkpt lat="46.41523" lon="6.0491">
        <ele>1239</ele>
        <time>2019-05-05T06:10:28Z</time>
      </trkpt>
      <trkpt lat="46.41522" lon="6.04904">
        <ele>1240</ele>
        <time>2019-05-05T06:10:31Z</time>
      </trkpt>
      <trkpt lat="46.41522" lon="6.04901">
        <ele>1240</ele>
        <time>2019-05-05T06:10:32Z</time>
      </trkpt>
      <trkpt lat="46.41523" lon="6.04897">
        <ele>1241</ele>
        <time>2019-05-05T06:10:34Z</time>
      </trkpt>
      <trkpt lat="46.41525" lon="6.04891">
        <ele>1242</ele>
        <time>2019-05-05T06:10:37Z</time>
      </trkpt>
      <trkpt lat="46.41525" lon="6.04886">
        <ele>1243</ele>
        <time>2019-05-05T06:10:40Z</time>
      </trkpt>
      <trkpt lat="46.41525" lon="6.04879">
        <ele>1245</ele>
        <time>2019-05-05T06:10:44Z</time>
      </trkpt>
      <trkpt lat="46.41525" lon="6.04873">
        <ele>1246</ele>
        <time>2019-05-05T06:10:47Z</time>
      </trkpt>
      <trkpt lat="46.41525" lon="6.04871">
        <ele>1246</ele>
        <time>2019-05-05T06:10:48Z</time>
      </trkpt>
      <trkpt lat="46.41526" lon="6.04868">
        <ele>1247</ele>
        <time>2019-05-05T06:10:50Z</time>
      </trkpt>
      <trkpt lat="46.41527" lon="6.04862">
        <ele>1248</ele>
        <time>2019-05-05T06:10:53Z</time>
      </trkpt>
      <trkpt lat="46.4153" lon="6.04857">
        <ele>1250</ele>
        <time>2019-05-05T06:10:56Z</time>
      </trkpt>
      <trkpt lat="46.41531" lon="6.04856">
        <ele>1250</ele>
        <time>2019-05-05T06:10:57Z</time>
      </trkpt>
      <trkpt lat="46.41531" lon="6.04854">
        <ele>1250</ele>
        <time>2019-05-05T06:10:58Z</time>
      </trkpt>
      <trkpt lat="46.41533" lon="6.04854">
        <ele>1251</ele>
        <time>2019-05-05T06:11:00Z</time>
      </trkpt>
      <trkpt lat="46.41533" lon="6.04852">
        <ele>1251</ele>
        <time>2019-05-05T06:11:01Z</time>
      </trkpt>
      <trkpt lat="46.41536" lon="6.04848">
        <ele>1253</ele>
        <time>2019-05-05T06:11:04Z</time>
      </trkpt>
      <trkpt lat="46.41539" lon="6.04844">
        <ele>1254</ele>
        <time>2019-05-05T06:11:07Z</time>
      </trkpt>
      <trkpt lat="46.41541" lon="6.0484">
        <ele>1255</ele>
        <time>2019-05-05T06:11:10Z</time>
      </trkpt>
      <trkpt lat="46.41543" lon="6.04837">
        <ele>1256</ele>
        <time>2019-05-05T06:11:12Z</time>
      </trkpt>
      <trkpt lat="46.41546" lon="6.04833">
        <ele>1257</ele>
        <time>2019-05-05T06:11:15Z</time>
      </trkpt>
      <trkpt lat="46.41547" lon="6.04827">
        <ele>1258</ele>
        <time>2019-05-05T06:11:18Z</time>
      </trkpt>
      <trkpt lat="46.41546" lon="6.0482">
        <ele>1259</ele>
        <time>2019-05-05T06:11:22Z</time>
      </trkpt>
      <trkpt lat="46.41546" lon="6.04817">
        <ele>1259</ele>
        <time>2019-05-05T06:11:23Z</time>
      </trkpt>
      <trkpt lat="46.41548" lon="6.04816">
        <ele>1260</ele>
        <time>2019-05-05T06:11:25Z</time>
      </trkpt>
      <trkpt lat="46.4155" lon="6.04815">
        <ele>1261</ele>
        <time>2019-05-05T06:11:26Z</time>
      </trkpt>
      <trkpt lat="46.41552" lon="6.04813">
        <ele>1262</ele>
        <time>2019-05-05T06:11:28Z</time>
      </trkpt>
      <trkpt lat="46.41553" lon="6.0481">
        <ele>1262</ele>
        <time>2019-05-05T06:11:30Z</time>
      </trkpt>
      <trkpt lat="46.41554" lon="6.04809">
        <ele>1262</ele>
        <time>2019-05-05T06:11:31Z</time>
      </trkpt>
      <trkpt lat="46.41554" lon="6.04809">
        <ele>1263</ele>
        <time>2019-05-05T06:11:31Z</time>
      </trkpt>
      <trkpt lat="46.41555" lon="6.04805">
        <ele>1263</ele>
        <time>2019-05-05T06:11:33Z</time>
      </trkpt>
      <trkpt lat="46.41559" lon="6.04801">
        <ele>1265</ele>
        <time>2019-05-05T06:11:37Z</time>
      </trkpt>
      <trkpt lat="46.4156" lon="6.04797">
        <ele>1265</ele>
        <time>2019-05-05T06:11:39Z</time>
      </trkpt>
      <trkpt lat="46.41563" lon="6.04793">
        <ele>1267</ele>
        <time>2019-05-05T06:11:42Z</time>
      </trkpt>
      <trkpt lat="46.41568" lon="6.04793">
        <ele>1268</ele>
        <time>2019-05-05T06:11:46Z</time>
      </trkpt>
      <trkpt lat="46.41569" lon="6.04793">
        <ele>1268</ele>
        <time>2019-05-05T06:11:47Z</time>
      </trkpt>
      <trkpt lat="46.41571" lon="6.04791">
        <ele>1269</ele>
        <time>2019-05-05T06:11:49Z</time>
      </trkpt>
      <trkpt lat="46.4157" lon="6.04787">
        <ele>1269</ele>
        <time>2019-05-05T06:11:51Z</time>
      </trkpt>
      <trkpt lat="46.41572" lon="6.04786">
        <ele>1270</ele>
        <time>2019-05-05T06:11:52Z</time>
      </trkpt>
      <trkpt lat="46.41573" lon="6.04774">
        <ele>1271</ele>
        <time>2019-05-05T06:11:58Z</time>
      </trkpt>
      <trkpt lat="46.41573" lon="6.04768">
        <ele>1272</ele>
        <time>2019-05-05T06:12:02Z</time>
      </trkpt>
      <trkpt lat="46.41576" lon="6.04765">
        <ele>1273</ele>
        <time>2019-05-05T06:12:04Z</time>
      </trkpt>
      <trkpt lat="46.41578" lon="6.04764">
        <ele>1274</ele>
        <time>2019-05-05T06:12:06Z</time>
      </trkpt>
      <trkpt lat="46.41579" lon="6.04764">
        <ele>1275</ele>
        <time>2019-05-05T06:12:07Z</time>
      </trkpt>
      <trkpt lat="46.4158" lon="6.04762">
        <ele>1275</ele>
        <time>2019-05-05T06:12:08Z</time>
      </trkpt>
      <trkpt lat="46.4158" lon="6.04761">
        <ele>1275</ele>
        <time>2019-05-05T06:12:08Z</time>
      </trkpt>
      <trkpt lat="46.41581" lon="6.04757">
        <ele>1276</ele>
        <time>2019-05-05T06:12:11Z</time>
      </trkpt>
      <trkpt lat="46.41584" lon="6.04753">
        <ele>1278</ele>
        <time>2019-05-05T06:12:14Z</time>
      </trkpt>
      <trkpt lat="46.41585" lon="6.0475">
        <ele>1279</ele>
        <time>2019-05-05T06:12:16Z</time>
      </trkpt>
      <trkpt lat="46.4159" lon="6.04751">
        <ele>1280</ele>
        <time>2019-05-05T06:12:19Z</time>
      </trkpt>
      <trkpt lat="46.41593" lon="6.04754">
        <ele>1280</ele>
        <time>2019-05-05T06:12:22Z</time>
      </trkpt>
      <trkpt lat="46.41598" lon="6.04758">
        <ele>1280</ele>
        <time>2019-05-05T06:12:26Z</time>
      </trkpt>
      <trkpt lat="46.41599" lon="6.0476">
        <ele>1280</ele>
        <time>2019-05-05T06:12:28Z</time>
      </trkpt>
      <trkpt lat="46.41601" lon="6.04763">
        <ele>1280</ele>
        <time>2019-05-05T06:12:30Z</time>
      </trkpt>
      <trkpt lat="46.41604" lon="6.04766">
        <ele>1279</ele>
        <time>2019-05-05T06:12:32Z</time>
      </trkpt>
      <trkpt lat="46.41606" lon="6.0477">
        <ele>1280</ele>
        <time>2019-05-05T06:12:35Z</time>
      </trkpt>
      <trkpt lat="46.41607" lon="6.04773">
        <ele>1280</ele>
        <time>2019-05-05T06:12:37Z</time>
      </trkpt>
      <trkpt lat="46.41609" lon="6.04775">
        <ele>1280</ele>
        <time>2019-05-05T06:12:38Z</time>
      </trkpt>
      <trkpt lat="46.41614" lon="6.0478">
        <ele>1281</ele>
        <time>2019-05-05T06:12:43Z</time>
      </trkpt>
      <trkpt lat="46.41615" lon="6.04781">
        <ele>1282</ele>
        <time>2019-05-05T06:12:44Z</time>
      </trkpt>
      <trkpt lat="46.41616" lon="6.04783">
        <ele>1282</ele>
        <time>2019-05-05T06:12:45Z</time>
      </trkpt>
      <trkpt lat="46.41616" lon="6.04784">
        <ele>1282</ele>
        <time>2019-05-05T06:12:45Z</time>
      </trkpt>
      <trkpt lat="46.41618" lon="6.04787">
        <ele>1282</ele>
        <time>2019-05-05T06:12:47Z</time>
      </trkpt>
      <trkpt lat="46.41618" lon="6.04788">
        <ele>1282</ele>
        <time>2019-05-05T06:12:48Z</time>
      </trkpt>
      <trkpt lat="46.41618" lon="6.04789">
        <ele>1282</ele>
        <time>2019-05-05T06:12:48Z</time>
      </trkpt>
      <trkpt lat="46.41616" lon="6.0479">
        <ele>1281</ele>
        <time>2019-05-05T06:12:50Z</time>
      </trkpt>
      <trkpt lat="46.41619" lon="6.04795">
        <ele>1282</ele>
        <time>2019-05-05T06:12:53Z</time>
      </trkpt>
      <trkpt lat="46.41618" lon="6.048">
        <ele>1281</ele>
        <time>2019-05-05T06:12:55Z</time>
      </trkpt>
      <trkpt lat="46.4162" lon="6.04808">
        <ele>1281</ele>
        <time>2019-05-05T06:13:00Z</time>
      </trkpt>
      <trkpt lat="46.41622" lon="6.04816">
        <ele>1281</ele>
        <time>2019-05-05T06:13:04Z</time>
      </trkpt>
      <trkpt lat="46.41622" lon="6.04818">
        <ele>1281</ele>
        <time>2019-05-05T06:13:05Z</time>
      </trkpt>
      <trkpt lat="46.41624" lon="6.04822">
        <ele>1281</ele>
        <time>2019-05-05T06:13:07Z</time>
      </trkpt>
      <trkpt lat="46.41625" lon="6.04823">
        <ele>1281</ele>
        <time>2019-05-05T06:13:08Z</time>
      </trkpt>
      <trkpt lat="46.41627" lon="6.04826">
        <ele>1282</ele>
        <time>2019-05-05T06:13:10Z</time>
      </trkpt>
      <trkpt lat="46.4163" lon="6.04831">
        <ele>1282</ele>
        <time>2019-05-05T06:13:14Z</time>
      </trkpt>
      <trkpt lat="46.41631" lon="6.04837">
        <ele>1282</ele>
        <time>2019-05-05T06:13:17Z</time>
      </trkpt>
      <trkpt lat="46.41633" lon="6.0484">
        <ele>1283</ele>
        <time>2019-05-05T06:13:19Z</time>
      </trkpt>
      <trkpt lat="46.41633" lon="6.04841">
        <ele>1283</ele>
        <time>2019-05-05T06:13:19Z</time>
      </trkpt>
      <trkpt lat="46.41633" lon="6.04842">
        <ele>1282</ele>
        <time>2019-05-05T06:13:20Z</time>
      </trkpt>
      <trkpt lat="46.41633" lon="6.04842">
        <ele>1282</ele>
        <time>2019-05-05T06:13:20Z</time>
      </trkpt>
      <trkpt lat="46.41634" lon="6.04843">
        <ele>1283</ele>
        <time>2019-05-05T06:13:22Z</time>
      </trkpt>
      <trkpt lat="46.41637" lon="6.04844">
        <ele>1284</ele>
        <time>2019-05-05T06:13:24Z</time>
      </trkpt>
      <trkpt lat="46.4164" lon="6.04843">
        <ele>1285</ele>
        <time>2019-05-05T06:13:26Z</time>
      </trkpt>
      <trkpt lat="46.41641" lon="6.04842">
        <ele>1286</ele>
        <time>2019-05-05T06:13:27Z</time>
      </trkpt>
      <trkpt lat="46.41642" lon="6.04842">
        <ele>1286</ele>
        <time>2019-05-05T06:13:28Z</time>
      </trkpt>
      <trkpt lat="46.41644" lon="6.0484">
        <ele>1287</ele>
        <time>2019-05-05T06:13:30Z</time>
      </trkpt>
      <trkpt lat="46.41645" lon="6.0484">
        <ele>1288</ele>
        <time>2019-05-05T06:13:31Z</time>
      </trkpt>
      <trkpt lat="46.41646" lon="6.0484">
        <ele>1288</ele>
        <time>2019-05-05T06:13:32Z</time>
      </trkpt>
      <trkpt lat="46.41647" lon="6.0484">
        <ele>1289</ele>
        <time>2019-05-05T06:13:33Z</time>
      </trkpt>
      <trkpt lat="46.41649" lon="6.04838">
        <ele>1290</ele>
        <time>2019-05-05T06:13:34Z</time>
      </trkpt>
      <trkpt lat="46.41652" lon="6.04839">
        <ele>1291</ele>
        <time>2019-05-05T06:13:37Z</time>
      </trkpt>
      <trkpt lat="46.41653" lon="6.04839">
        <ele>1291</ele>
        <time>2019-05-05T06:13:38Z</time>
      </trkpt>
      <trkpt lat="46.41655" lon="6.0484">
        <ele>1292</ele>
        <time>2019-05-05T06:13:39Z</time>
      </trkpt>
      <trkpt lat="46.41659" lon="6.04842">
        <ele>1293</ele>
        <time>2019-05-05T06:13:42Z</time>
      </trkpt>
      <trkpt lat="46.41662" lon="6.04845">
        <ele>1294</ele>
        <time>2019-05-05T06:13:45Z</time>
      </trkpt>
      <trkpt lat="46.41663" lon="6.04846">
        <ele>1294</ele>
        <time>2019-05-05T06:13:46Z</time>
      </trkpt>
      <trkpt lat="46.41664" lon="6.04847">
        <ele>1295</ele>
        <time>2019-05-05T06:13:47Z</time>
      </trkpt>
      <trkpt lat="46.41665" lon="6.04848">
        <ele>1295</ele>
        <time>2019-05-05T06:13:48Z</time>
      </trkpt>
      <trkpt lat="46.41667" lon="6.04849">
        <ele>1296</ele>
        <time>2019-05-05T06:13:49Z</time>
      </trkpt>
      <trkpt lat="46.41669" lon="6.0485">
        <ele>1296</ele>
        <time>2019-05-05T06:13:51Z</time>
      </trkpt>
      <trkpt lat="46.4167" lon="6.0485">
        <ele>1297</ele>
        <time>2019-05-05T06:13:52Z</time>
      </trkpt>
      <trkpt lat="46.4167" lon="6.04846">
        <ele>1297</ele>
        <time>2019-05-05T06:13:54Z</time>
      </trkpt>
      <trkpt lat="46.4167" lon="6.04846">
        <ele>1297</ele>
        <time>2019-05-05T06:13:54Z</time>
      </trkpt>
      <trkpt lat="46.41671" lon="6.04846">
        <ele>1297</ele>
        <time>2019-05-05T06:13:55Z</time>
      </trkpt>
      <trkpt lat="46.41672" lon="6.04846">
        <ele>1298</ele>
        <time>2019-05-05T06:13:56Z</time>
      </trkpt>
      <trkpt lat="46.4168" lon="6.04854">
        <ele>1300</ele>
        <time>2019-05-05T06:14:03Z</time>
      </trkpt>
      <trkpt lat="46.41682" lon="6.04854">
        <ele>1301</ele>
        <time>2019-05-05T06:14:05Z</time>
      </trkpt>
      <trkpt lat="46.41685" lon="6.04853">
        <ele>1302</ele>
        <time>2019-05-05T06:14:07Z</time>
      </trkpt>
      <trkpt lat="46.41687" lon="6.04854">
        <ele>1303</ele>
        <time>2019-05-05T06:14:08Z</time>
      </trkpt>
      <trkpt lat="46.41687" lon="6.04852">
        <ele>1304</ele>
        <time>2019-05-05T06:14:09Z</time>
      </trkpt>
      <trkpt lat="46.4169" lon="6.04851">
        <ele>1305</ele>
        <time>2019-05-05T06:14:11Z</time>
      </trkpt>
      <trkpt lat="46.41694" lon="6.04852">
        <ele>1306</ele>
        <time>2019-05-05T06:14:15Z</time>
      </trkpt>
      <trkpt lat="46.41699" lon="6.04857">
        <ele>1306</ele>
        <time>2019-05-05T06:14:19Z</time>
      </trkpt>
      <trkpt lat="46.41701" lon="6.0486">
        <ele>1306</ele>
        <time>2019-05-05T06:14:21Z</time>
      </trkpt>
      <trkpt lat="46.41706" lon="6.04866">
        <ele>1307</ele>
        <time>2019-05-05T06:14:25Z</time>
      </trkpt>
      <trkpt lat="46.41708" lon="6.0487">
        <ele>1307</ele>
        <time>2019-05-05T06:14:28Z</time>
      </trkpt>
      <trkpt lat="46.41709" lon="6.04873">
        <ele>1307</ele>
        <time>2019-05-05T06:14:30Z</time>
      </trkpt>
      <trkpt lat="46.41719" lon="6.04879">
        <ele>1308</ele>
        <time>2019-05-05T06:14:38Z</time>
      </trkpt>
      <trkpt lat="46.41727" lon="6.04885">
        <ele>1309</ele>
        <time>2019-05-05T06:14:44Z</time>
      </trkpt>
      <trkpt lat="46.41728" lon="6.04885">
        <ele>1309</ele>
        <time>2019-05-05T06:14:45Z</time>
      </trkpt>
      <trkpt lat="46.41731" lon="6.04888">
        <ele>1310</ele>
        <time>2019-05-05T06:14:47Z</time>
      </trkpt>
      <trkpt lat="46.41732" lon="6.04888">
        <ele>1310</ele>
        <time>2019-05-05T06:14:48Z</time>
      </trkpt>
      <trkpt lat="46.41735" lon="6.04891">
        <ele>1310</ele>
        <time>2019-05-05T06:14:51Z</time>
      </trkpt>
      <trkpt lat="46.41737" lon="6.04893">
        <ele>1310</ele>
        <time>2019-05-05T06:14:52Z</time>
      </trkpt>
      <trkpt lat="46.4174" lon="6.04896">
        <ele>1311</ele>
        <time>2019-05-05T06:14:55Z</time>
      </trkpt>
      <trkpt lat="46.41747" lon="6.04898">
        <ele>1312</ele>
        <time>2019-05-05T06:15:01Z</time>
      </trkpt>
      <trkpt lat="46.41752" lon="6.04898">
        <ele>1314</ele>
        <time>2019-05-05T06:15:04Z</time>
      </trkpt>
      <trkpt lat="46.4176" lon="6.04897">
        <ele>1316</ele>
        <time>2019-05-05T06:15:10Z</time>
      </trkpt>
      <trkpt lat="46.41769" lon="6.04901">
        <ele>1318</ele>
        <time>2019-05-05T06:15:17Z</time>
      </trkpt>
      <trkpt lat="46.41785" lon="6.04913">
        <ele>1317</ele>
        <time>2019-05-05T06:15:30Z</time>
      </trkpt>
      <trkpt lat="46.41787" lon="6.04916">
        <ele>1317</ele>
        <time>2019-05-05T06:15:32Z</time>
      </trkpt>
      <trkpt lat="46.41789" lon="6.04919">
        <ele>1317</ele>
        <time>2019-05-05T06:15:34Z</time>
      </trkpt>
      <trkpt lat="46.41793" lon="6.04923">
        <ele>1316</ele>
        <time>2019-05-05T06:15:38Z</time>
      </trkpt>
      <trkpt lat="46.41799" lon="6.04926">
        <ele>1316</ele>
        <time>2019-05-05T06:15:42Z</time>
      </trkpt>
      <trkpt lat="46.41801" lon="6.04928">
        <ele>1316</ele>
        <time>2019-05-05T06:15:44Z</time>
      </trkpt>
      <trkpt lat="46.41809" lon="6.04933">
        <ele>1316</ele>
        <time>2019-05-05T06:15:50Z</time>
      </trkpt>
      <trkpt lat="46.41818" lon="6.04943">
        <ele>1315</ele>
        <time>2019-05-05T06:15:59Z</time>
      </trkpt>
      <trkpt lat="46.41834" lon="6.04957">
        <ele>1315</ele>
        <time>2019-05-05T06:16:12Z</time>
      </trkpt>
      <trkpt lat="46.41851" lon="6.04972">
        <ele>1315</ele>
        <time>2019-05-05T06:16:26Z</time>
      </trkpt>
      <trkpt lat="46.41855" lon="6.04978">
        <ele>1314</ele>
        <time>2019-05-05T06:16:31Z</time>
      </trkpt>
      <trkpt lat="46.41861" lon="6.04981">
        <ele>1315</ele>
        <time>2019-05-05T06:16:36Z</time>
      </trkpt>
      <trkpt lat="46.41863" lon="6.0498">
        <ele>1315</ele>
        <time>2019-05-05T06:16:37Z</time>
      </trkpt>
      <trkpt lat="46.41865" lon="6.0498">
        <ele>1316</ele>
        <time>2019-05-05T06:16:39Z</time>
      </trkpt>
      <trkpt lat="46.41868" lon="6.04979">
        <ele>1316</ele>
        <time>2019-05-05T06:16:41Z</time>
      </trkpt>
      <trkpt lat="46.4187" lon="6.0498">
        <ele>1316</ele>
        <time>2019-05-05T06:16:42Z</time>
      </trkpt>
      <trkpt lat="46.4188" lon="6.04983">
        <ele>1317</ele>
        <time>2019-05-05T06:16:49Z</time>
      </trkpt>
      <trkpt lat="46.41891" lon="6.04995">
        <ele>1318</ele>
        <time>2019-05-05T06:16:59Z</time>
      </trkpt>
      <trkpt lat="46.41893" lon="6.04995">
        <ele>1318</ele>
        <time>2019-05-05T06:17:01Z</time>
      </trkpt>
      <trkpt lat="46.41894" lon="6.04996">
        <ele>1318</ele>
        <time>2019-05-05T06:17:02Z</time>
      </trkpt>
      <trkpt lat="46.41896" lon="6.04995">
        <ele>1318</ele>
        <time>2019-05-05T06:17:03Z</time>
      </trkpt>
      <trkpt lat="46.41897" lon="6.04992">
        <ele>1319</ele>
        <time>2019-05-05T06:17:05Z</time>
      </trkpt>
      <trkpt lat="46.41901" lon="6.04989">
        <ele>1320</ele>
        <time>2019-05-05T06:17:08Z</time>
      </trkpt>
      <trkpt lat="46.41907" lon="6.04989">
        <ele>1321</ele>
        <time>2019-05-05T06:17:13Z</time>
      </trkpt>
      <trkpt lat="46.41908" lon="6.04989">
        <ele>1321</ele>
        <time>2019-05-05T06:17:13Z</time>
      </trkpt>
      <trkpt lat="46.4191" lon="6.04991">
        <ele>1321</ele>
        <time>2019-05-05T06:17:15Z</time>
      </trkpt>
      <trkpt lat="46.41913" lon="6.04994">
        <ele>1321</ele>
        <time>2019-05-05T06:17:18Z</time>
      </trkpt>
      <trkpt lat="46.41916" lon="6.04997">
        <ele>1321</ele>
        <time>2019-05-05T06:17:21Z</time>
      </trkpt>
      <trkpt lat="46.41922" lon="6.05004">
        <ele>1321</ele>
        <time>2019-05-05T06:17:26Z</time>
      </trkpt>
      <trkpt lat="46.41925" lon="6.05008">
        <ele>1321</ele>
        <time>2019-05-05T06:17:29Z</time>
      </trkpt>
      <trkpt lat="46.41933" lon="6.05025">
        <ele>1321</ele>
        <time>2019-05-05T06:17:39Z</time>
      </trkpt>
      <trkpt lat="46.41933" lon="6.05026">
        <ele>1321</ele>
        <time>2019-05-05T06:17:40Z</time>
      </trkpt>
      <trkpt lat="46.41934" lon="6.05026">
        <ele>1321</ele>
        <time>2019-05-05T06:17:40Z</time>
      </trkpt>
      <trkpt lat="46.41935" lon="6.05029">
        <ele>1321</ele>
        <time>2019-05-05T06:17:42Z</time>
      </trkpt>
      <trkpt lat="46.41936" lon="6.05032">
        <ele>1321</ele>
        <time>2019-05-05T06:17:43Z</time>
      </trkpt>
      <trkpt lat="46.41946" lon="6.05057">
        <ele>1319</ele>
        <time>2019-05-05T06:17:58Z</time>
      </trkpt>
      <trkpt lat="46.41949" lon="6.05077">
        <ele>1318</ele>
        <time>2019-05-05T06:18:08Z</time>
      </trkpt>
      <trkpt lat="46.41955" lon="6.05088">
        <ele>1317</ele>
        <time>2019-05-05T06:18:15Z</time>
      </trkpt>
      <trkpt lat="46.41957" lon="6.05092">
        <ele>1317</ele>
        <time>2019-05-05T06:18:18Z</time>
      </trkpt>
      <trkpt lat="46.41968" lon="6.05105">
        <ele>1317</ele>
        <time>2019-05-05T06:18:28Z</time>
      </trkpt>
      <trkpt lat="46.41972" lon="6.0511">
        <ele>1316</ele>
        <time>2019-05-05T06:18:32Z</time>
      </trkpt>
      <trkpt lat="46.41986" lon="6.05131">
        <ele>1315</ele>
        <time>2019-05-05T06:18:46Z</time>
      </trkpt>
      <trkpt lat="46.41997" lon="6.05148">
        <ele>1314</ele>
        <time>2019-05-05T06:18:58Z</time>
      </trkpt>
      <trkpt lat="46.42" lon="6.05151">
        <ele>1314</ele>
        <time>2019-05-05T06:19:01Z</time>
      </trkpt>
      <trkpt lat="46.42018" lon="6.05161">
        <ele>1315</ele>
        <time>2019-05-05T06:19:15Z</time>
      </trkpt>
      <trkpt lat="46.42024" lon="6.05167">
        <ele>1315</ele>
        <time>2019-05-05T06:19:20Z</time>
      </trkpt>
      <trkpt lat="46.42027" lon="6.05167">
        <ele>1316</ele>
        <time>2019-05-05T06:19:22Z</time>
      </trkpt>
      <trkpt lat="46.42031" lon="6.05168">
        <ele>1316</ele>
        <time>2019-05-05T06:19:25Z</time>
      </trkpt>
      <trkpt lat="46.42034" lon="6.05167">
        <ele>1316</ele>
        <time>2019-05-05T06:19:27Z</time>
      </trkpt>
      <trkpt lat="46.42037" lon="6.05165">
        <ele>1317</ele>
        <time>2019-05-05T06:19:29Z</time>
      </trkpt>
      <trkpt lat="46.42038" lon="6.05163">
        <ele>1317</ele>
        <time>2019-05-05T06:19:31Z</time>
      </trkpt>
      <trkpt lat="46.42038" lon="6.05162">
        <ele>1318</ele>
        <time>2019-05-05T06:19:32Z</time>
      </trkpt>
      <trkpt lat="46.4204" lon="6.05159">
        <ele>1318</ele>
        <time>2019-05-05T06:19:33Z</time>
      </trkpt>
      <trkpt lat="46.4204" lon="6.05158">
        <ele>1318</ele>
        <time>2019-05-05T06:19:34Z</time>
      </trkpt>
      <trkpt lat="46.42042" lon="6.05157">
        <ele>1319</ele>
        <time>2019-05-05T06:19:36Z</time>
      </trkpt>
      <trkpt lat="46.42047" lon="6.05154">
        <ele>1319</ele>
        <time>2019-05-05T06:19:39Z</time>
      </trkpt>
      <trkpt lat="46.42051" lon="6.05157">
        <ele>1320</ele>
        <time>2019-05-05T06:19:43Z</time>
      </trkpt>
      <trkpt lat="46.42054" lon="6.05157">
        <ele>1320</ele>
        <time>2019-05-05T06:19:45Z</time>
      </trkpt>
      <trkpt lat="46.42058" lon="6.05159">
        <ele>1320</ele>
        <time>2019-05-05T06:19:48Z</time>
      </trkpt>
      <trkpt lat="46.42061" lon="6.05161">
        <ele>1320</ele>
        <time>2019-05-05T06:19:50Z</time>
      </trkpt>
      <trkpt lat="46.42064" lon="6.0516">
        <ele>1321</ele>
        <time>2019-05-05T06:19:52Z</time>
      </trkpt>
      <trkpt lat="46.42066" lon="6.0516">
        <ele>1321</ele>
        <time>2019-05-05T06:19:54Z</time>
      </trkpt>
      <trkpt lat="46.42069" lon="6.05157">
        <ele>1321</ele>
        <time>2019-05-05T06:19:56Z</time>
      </trkpt>
      <trkpt lat="46.42078" lon="6.05149">
        <ele>1323</ele>
        <time>2019-05-05T06:20:04Z</time>
      </trkpt>
      <trkpt lat="46.42086" lon="6.05143">
        <ele>1325</ele>
        <time>2019-05-05T06:20:11Z</time>
      </trkpt>
      <trkpt lat="46.42089" lon="6.05142">
        <ele>1325</ele>
        <time>2019-05-05T06:20:13Z</time>
      </trkpt>
      <trkpt lat="46.4209" lon="6.0514">
        <ele>1326</ele>
        <time>2019-05-05T06:20:14Z</time>
      </trkpt>
      <trkpt lat="46.42093" lon="6.0514">
        <ele>1326</ele>
        <time>2019-05-05T06:20:16Z</time>
      </trkpt>
      <trkpt lat="46.42098" lon="6.05141">
        <ele>1326</ele>
        <time>2019-05-05T06:20:20Z</time>
      </trkpt>
      <trkpt lat="46.42102" lon="6.05138">
        <ele>1327</ele>
        <time>2019-05-05T06:20:23Z</time>
      </trkpt>
      <trkpt lat="46.42102" lon="6.05136">
        <ele>1327</ele>
        <time>2019-05-05T06:20:24Z</time>
      </trkpt>
      <trkpt lat="46.42106" lon="6.05131">
        <ele>1328</ele>
        <time>2019-05-05T06:20:28Z</time>
      </trkpt>
      <trkpt lat="46.42109" lon="6.05131">
        <ele>1328</ele>
        <time>2019-05-05T06:20:29Z</time>
      </trkpt>
      <trkpt lat="46.42111" lon="6.05131">
        <ele>1329</ele>
        <time>2019-05-05T06:20:32Z</time>
      </trkpt>
      <trkpt lat="46.42113" lon="6.05132">
        <ele>1329</ele>
        <time>2019-05-05T06:20:33Z</time>
      </trkpt>
      <trkpt lat="46.42114" lon="6.05132">
        <ele>1329</ele>
        <time>2019-05-05T06:20:34Z</time>
      </trkpt>
      <trkpt lat="46.42118" lon="6.05134">
        <ele>1329</ele>
        <time>2019-05-05T06:20:36Z</time>
      </trkpt>
      <trkpt lat="46.42121" lon="6.05136">
        <ele>1329</ele>
        <time>2019-05-05T06:20:39Z</time>
      </trkpt>
      <trkpt lat="46.42128" lon="6.05138">
        <ele>1330</ele>
        <time>2019-05-05T06:20:44Z</time>
      </trkpt>
      <trkpt lat="46.42129" lon="6.05138">
        <ele>1330</ele>
        <time>2019-05-05T06:20:45Z</time>
      </trkpt>
      <trkpt lat="46.42136" lon="6.05137">
        <ele>1331</ele>
        <time>2019-05-05T06:20:50Z</time>
      </trkpt>
      <trkpt lat="46.4214" lon="6.05137">
        <ele>1332</ele>
        <time>2019-05-05T06:20:53Z</time>
      </trkpt>
      <trkpt lat="46.42142" lon="6.05136">
        <ele>1332</ele>
        <time>2019-05-05T06:20:55Z</time>
      </trkpt>
      <trkpt lat="46.42147" lon="6.05136">
        <ele>1333</ele>
        <time>2019-05-05T06:20:58Z</time>
      </trkpt>
      <trkpt lat="46.42148" lon="6.05135">
        <ele>1333</ele>
        <time>2019-05-05T06:20:59Z</time>
      </trkpt>
      <trkpt lat="46.42151" lon="6.05134">
        <ele>1333</ele>
        <time>2019-05-05T06:21:01Z</time>
      </trkpt>
      <trkpt lat="46.42156" lon="6.05128">
        <ele>1335</ele>
        <time>2019-05-05T06:21:06Z</time>
      </trkpt>
      <trkpt lat="46.42157" lon="6.05128">
        <ele>1335</ele>
        <time>2019-05-05T06:21:07Z</time>
      </trkpt>
      <trkpt lat="46.42159" lon="6.05126">
        <ele>1335</ele>
        <time>2019-05-05T06:21:09Z</time>
      </trkpt>
      <trkpt lat="46.42162" lon="6.05122">
        <ele>1336</ele>
        <time>2019-05-05T06:21:12Z</time>
      </trkpt>
      <trkpt lat="46.42165" lon="6.05114">
        <ele>1337</ele>
        <time>2019-05-05T06:21:16Z</time>
      </trkpt>
      <trkpt lat="46.42167" lon="6.05111">
        <ele>1337</ele>
        <time>2019-05-05T06:21:18Z</time>
      </trkpt>
      <trkpt lat="46.4217" lon="6.05108">
        <ele>1338</ele>
        <time>2019-05-05T06:21:21Z</time>
      </trkpt>
      <trkpt lat="46.42171" lon="6.05107">
        <ele>1338</ele>
        <time>2019-05-05T06:21:22Z</time>
      </trkpt>
      <trkpt lat="46.42174" lon="6.05104">
        <ele>1339</ele>
        <time>2019-05-05T06:21:24Z</time>
      </trkpt>
      <trkpt lat="46.42176" lon="6.05101">
        <ele>1339</ele>
        <time>2019-05-05T06:21:26Z</time>
      </trkpt>
      <trkpt lat="46.42177" lon="6.05099">
        <ele>1339</ele>
        <time>2019-05-05T06:21:28Z</time>
      </trkpt>
      <trkpt lat="46.42177" lon="6.05096">
        <ele>1340</ele>
        <time>2019-05-05T06:21:30Z</time>
      </trkpt>
      <trkpt lat="46.42182" lon="6.0509">
        <ele>1341</ele>
        <time>2019-05-05T06:21:34Z</time>
      </trkpt>
      <trkpt lat="46.42183" lon="6.05089">
        <ele>1341</ele>
        <time>2019-05-05T06:21:35Z</time>
      </trkpt>
      <trkpt lat="46.42185" lon="6.05086">
        <ele>1341</ele>
        <time>2019-05-05T06:21:37Z</time>
      </trkpt>
      <trkpt lat="46.42189" lon="6.05084">
        <ele>1342</ele>
        <time>2019-05-05T06:21:40Z</time>
      </trkpt>
      <trkpt lat="46.42191" lon="6.05081">
        <ele>1342</ele>
        <time>2019-05-05T06:21:42Z</time>
      </trkpt>
      <trkpt lat="46.42191" lon="6.05078">
        <ele>1342</ele>
        <time>2019-05-05T06:21:43Z</time>
      </trkpt>
      <trkpt lat="46.42194" lon="6.05075">
        <ele>1343</ele>
        <time>2019-05-05T06:21:46Z</time>
      </trkpt>
      <trkpt lat="46.42194" lon="6.05071">
        <ele>1343</ele>
        <time>2019-05-05T06:21:48Z</time>
      </trkpt>
      <trkpt lat="46.42194" lon="6.0507">
        <ele>1343</ele>
        <time>2019-05-05T06:21:48Z</time>
      </trkpt>
      <trkpt lat="46.42195" lon="6.05067">
        <ele>1343</ele>
        <time>2019-05-05T06:21:50Z</time>
      </trkpt>
      <trkpt lat="46.42194" lon="6.05063">
        <ele>1343</ele>
        <time>2019-05-05T06:21:52Z</time>
      </trkpt>
      <trkpt lat="46.42189" lon="6.05063">
        <ele>1343</ele>
        <time>2019-05-05T06:21:56Z</time>
      </trkpt>
      <trkpt lat="46.42171" lon="6.0506">
        <ele>1341</ele>
        <time>2019-05-05T06:22:09Z</time>
      </trkpt>
      <trkpt lat="46.42168" lon="6.05058">
        <ele>1341</ele>
        <time>2019-05-05T06:22:12Z</time>
      </trkpt>
      <trkpt lat="46.42163" lon="6.05058">
        <ele>1341</ele>
        <time>2019-05-05T06:22:15Z</time>
      </trkpt>
      <trkpt lat="46.42158" lon="6.05059">
        <ele>1340</ele>
        <time>2019-05-05T06:22:19Z</time>
      </trkpt>
      <trkpt lat="46.42141" lon="6.05052">
        <ele>1339</ele>
        <time>2019-05-05T06:22:32Z</time>
      </trkpt>
      <trkpt lat="46.42135" lon="6.0505">
        <ele>1338</ele>
        <time>2019-05-05T06:22:36Z</time>
      </trkpt>
      <trkpt lat="46.42127" lon="6.05044">
        <ele>1338</ele>
        <time>2019-05-05T06:22:42Z</time>
      </trkpt>
      <trkpt lat="46.42125" lon="6.05042">
        <ele>1338</ele>
        <time>2019-05-05T06:22:44Z</time>
      </trkpt>
      <trkpt lat="46.42117" lon="6.05035">
        <ele>1338</ele>
        <time>2019-05-05T06:22:51Z</time>
      </trkpt>
      <trkpt lat="46.42112" lon="6.05032">
        <ele>1337</ele>
        <time>2019-05-05T06:22:55Z</time>
      </trkpt>
      <trkpt lat="46.4211" lon="6.05029">
        <ele>1337</ele>
        <time>2019-05-05T06:22:57Z</time>
      </trkpt>
      <trkpt lat="46.42105" lon="6.05025">
        <ele>1337</ele>
        <time>2019-05-05T06:23:01Z</time>
      </trkpt>
      <trkpt lat="46.42105" lon="6.05023">
        <ele>1337</ele>
        <time>2019-05-05T06:23:02Z</time>
      </trkpt>
      <trkpt lat="46.42103" lon="6.05019">
        <ele>1338</ele>
        <time>2019-05-05T06:23:05Z</time>
      </trkpt>
      <trkpt lat="46.42101" lon="6.05018">
        <ele>1338</ele>
        <time>2019-05-05T06:23:06Z</time>
      </trkpt>
      <trkpt lat="46.42085" lon="6.05011">
        <ele>1338</ele>
        <time>2019-05-05T06:23:18Z</time>
      </trkpt>
      <trkpt lat="46.4208" lon="6.05006">
        <ele>1338</ele>
        <time>2019-05-05T06:23:23Z</time>
      </trkpt>
      <trkpt lat="46.42071" lon="6.04988">
        <ele>1340</ele>
        <time>2019-05-05T06:23:34Z</time>
      </trkpt>
      <trkpt lat="46.42069" lon="6.0498">
        <ele>1340</ele>
        <time>2019-05-05T06:23:38Z</time>
      </trkpt>
      <trkpt lat="46.42068" lon="6.04973">
        <ele>1341</ele>
        <time>2019-05-05T06:23:42Z</time>
      </trkpt>
      <trkpt lat="46.42063" lon="6.0496">
        <ele>1343</ele>
        <time>2019-05-05T06:23:50Z</time>
      </trkpt>
      <trkpt lat="46.42058" lon="6.04945">
        <ele>1344</ele>
        <time>2019-05-05T06:23:58Z</time>
      </trkpt>
      <trkpt lat="46.42056" lon="6.0494">
        <ele>1345</ele>
        <time>2019-05-05T06:24:01Z</time>
      </trkpt>
      <trkpt lat="46.42054" lon="6.04932">
        <ele>1346</ele>
        <time>2019-05-05T06:24:05Z</time>
      </trkpt>
      <trkpt lat="46.42053" lon="6.04928">
        <ele>1346</ele>
        <time>2019-05-05T06:24:07Z</time>
      </trkpt>
      <trkpt lat="46.42052" lon="6.04923">
        <ele>1346</ele>
        <time>2019-05-05T06:24:10Z</time>
      </trkpt>
      <trkpt lat="46.42051" lon="6.0492">
        <ele>1347</ele>
        <time>2019-05-05T06:24:11Z</time>
      </trkpt>
      <trkpt lat="46.42049" lon="6.04915">
        <ele>1347</ele>
        <time>2019-05-05T06:24:14Z</time>
      </trkpt>
      <trkpt lat="46.42048" lon="6.04904">
        <ele>1348</ele>
        <time>2019-05-05T06:24:20Z</time>
      </trkpt>
      <trkpt lat="46.42049" lon="6.04898">
        <ele>1349</ele>
        <time>2019-05-05T06:24:23Z</time>
      </trkpt>
      <trkpt lat="46.4205" lon="6.04897">
        <ele>1349</ele>
        <time>2019-05-05T06:24:24Z</time>
      </trkpt>
      <trkpt lat="46.42048" lon="6.04885">
        <ele>1350</ele>
        <time>2019-05-05T06:24:30Z</time>
      </trkpt>
      <trkpt lat="46.42047" lon="6.04883">
        <ele>1350</ele>
        <time>2019-05-05T06:24:31Z</time>
      </trkpt>
      <trkpt lat="46.42047" lon="6.04878">
        <ele>1351</ele>
        <time>2019-05-05T06:24:34Z</time>
      </trkpt>
      <trkpt lat="46.42046" lon="6.04877">
        <ele>1351</ele>
        <time>2019-05-05T06:24:34Z</time>
      </trkpt>
      <trkpt lat="46.42045" lon="6.04853">
        <ele>1353</ele>
        <time>2019-05-05T06:24:46Z</time>
      </trkpt>
      <trkpt lat="46.42045" lon="6.04851">
        <ele>1353</ele>
        <time>2019-05-05T06:24:47Z</time>
      </trkpt>
      <trkpt lat="46.42045" lon="6.0485">
        <ele>1354</ele>
        <time>2019-05-05T06:24:48Z</time>
      </trkpt>
      <trkpt lat="46.42045" lon="6.04846">
        <ele>1354</ele>
        <time>2019-05-05T06:24:50Z</time>
      </trkpt>
      <trkpt lat="46.42044" lon="6.04841">
        <ele>1354</ele>
        <time>2019-05-05T06:24:53Z</time>
      </trkpt>
      <trkpt lat="46.42043" lon="6.04832">
        <ele>1355</ele>
        <time>2019-05-05T06:24:57Z</time>
      </trkpt>
      <trkpt lat="46.4204" lon="6.04822">
        <ele>1355</ele>
        <time>2019-05-05T06:25:02Z</time>
      </trkpt>
      <trkpt lat="46.4204" lon="6.04821">
        <ele>1355</ele>
        <time>2019-05-05T06:25:03Z</time>
      </trkpt>
      <trkpt lat="46.42035" lon="6.04813">
        <ele>1356</ele>
        <time>2019-05-05T06:25:08Z</time>
      </trkpt>
      <trkpt lat="46.42034" lon="6.0481">
        <ele>1356</ele>
        <time>2019-05-05T06:25:10Z</time>
      </trkpt>
      <trkpt lat="46.42034" lon="6.04808">
        <ele>1356</ele>
        <time>2019-05-05T06:25:11Z</time>
      </trkpt>
      <trkpt lat="46.42033" lon="6.04807">
        <ele>1356</ele>
        <time>2019-05-05T06:25:12Z</time>
      </trkpt>
      <trkpt lat="46.42026" lon="6.04788">
        <ele>1357</ele>
        <time>2019-05-05T06:25:23Z</time>
      </trkpt>
      <trkpt lat="46.42021" lon="6.04778">
        <ele>1357</ele>
        <time>2019-05-05T06:25:28Z</time>
      </trkpt>
      <trkpt lat="46.42021" lon="6.04775">
        <ele>1357</ele>
        <time>2019-05-05T06:25:30Z</time>
      </trkpt>
      <trkpt lat="46.42015" lon="6.04769">
        <ele>1357</ele>
        <time>2019-05-05T06:25:35Z</time>
      </trkpt>
      <trkpt lat="46.42011" lon="6.04766">
        <ele>1357</ele>
        <time>2019-05-05T06:25:39Z</time>
      </trkpt>
      <trkpt lat="46.42009" lon="6.04764">
        <ele>1357</ele>
        <time>2019-05-05T06:25:40Z</time>
      </trkpt>
      <trkpt lat="46.42008" lon="6.04762">
        <ele>1358</ele>
        <time>2019-05-05T06:25:41Z</time>
      </trkpt>
      <trkpt lat="46.42007" lon="6.04759">
        <ele>1358</ele>
        <time>2019-05-05T06:25:43Z</time>
      </trkpt>
      <trkpt lat="46.42004" lon="6.04755">
        <ele>1358</ele>
        <time>2019-05-05T06:25:46Z</time>
      </trkpt>
      <trkpt lat="46.42003" lon="6.04753">
        <ele>1358</ele>
        <time>2019-05-05T06:25:47Z</time>
      </trkpt>
      <trkpt lat="46.41999" lon="6.0475">
        <ele>1358</ele>
        <time>2019-05-05T06:25:50Z</time>
      </trkpt>
      <trkpt lat="46.41996" lon="6.04748">
        <ele>1358</ele>
        <time>2019-05-05T06:25:53Z</time>
      </trkpt>
      <trkpt lat="46.41993" lon="6.04747">
        <ele>1358</ele>
        <time>2019-05-05T06:25:55Z</time>
      </trkpt>
      <trkpt lat="46.41991" lon="6.04744">
        <ele>1358</ele>
        <time>2019-05-05T06:25:57Z</time>
      </trkpt>
      <trkpt lat="46.41986" lon="6.04741">
        <ele>1358</ele>
        <time>2019-05-05T06:26:01Z</time>
      </trkpt>
      <trkpt lat="46.41976" lon="6.04738">
        <ele>1358</ele>
        <time>2019-05-05T06:26:09Z</time>
      </trkpt>
      <trkpt lat="46.41972" lon="6.04738">
        <ele>1358</ele>
        <time>2019-05-05T06:26:12Z</time>
      </trkpt>
      <trkpt lat="46.41969" lon="6.04736">
        <ele>1358</ele>
        <time>2019-05-05T06:26:14Z</time>
      </trkpt>
      <trkpt lat="46.41967" lon="6.04734">
        <ele>1358</ele>
        <time>2019-05-05T06:26:16Z</time>
      </trkpt>
      <trkpt lat="46.41954" lon="6.04728">
        <ele>1358</ele>
        <time>2019-05-05T06:26:25Z</time>
      </trkpt>
      <trkpt lat="46.41952" lon="6.04727">
        <ele>1358</ele>
        <time>2019-05-05T06:26:27Z</time>
      </trkpt>
      <trkpt lat="46.41943" lon="6.0472">
        <ele>1358</ele>
        <time>2019-05-05T06:26:35Z</time>
      </trkpt>
      <trkpt lat="46.41942" lon="6.04719">
        <ele>1358</ele>
        <time>2019-05-05T06:26:35Z</time>
      </trkpt>
      <trkpt lat="46.41935" lon="6.04713">
        <ele>1358</ele>
        <time>2019-05-05T06:26:41Z</time>
      </trkpt>
      <trkpt lat="46.41934" lon="6.0471">
        <ele>1358</ele>
        <time>2019-05-05T06:26:43Z</time>
      </trkpt>
      <trkpt lat="46.41933" lon="6.04708">
        <ele>1358</ele>
        <time>2019-05-05T06:26:44Z</time>
      </trkpt>
      <trkpt lat="46.41929" lon="6.04693">
        <ele>1359</ele>
        <time>2019-05-05T06:26:52Z</time>
      </trkpt>
      <trkpt lat="46.41923" lon="6.04677">
        <ele>1360</ele>
        <time>2019-05-05T06:27:01Z</time>
      </trkpt>
      <trkpt lat="46.41913" lon="6.04654">
        <ele>1360</ele>
        <time>2019-05-05T06:27:15Z</time>
      </trkpt>
      <trkpt lat="46.4191" lon="6.0463">
        <ele>1361</ele>
        <time>2019-05-05T06:27:27Z</time>
      </trkpt>
      <trkpt lat="46.41909" lon="6.04626">
        <ele>1361</ele>
        <time>2019-05-05T06:27:29Z</time>
      </trkpt>
      <trkpt lat="46.41909" lon="6.04615">
        <ele>1362</ele>
        <time>2019-05-05T06:27:34Z</time>
      </trkpt>
      <trkpt lat="46.4191" lon="6.0459">
        <ele>1363</ele>
        <time>2019-05-05T06:27:47Z</time>
      </trkpt>
      <trkpt lat="46.4191" lon="6.04563">
        <ele>1363</ele>
        <time>2019-05-05T06:28:01Z</time>
      </trkpt>
      <trkpt lat="46.4191" lon="6.04559">
        <ele>1363</ele>
        <time>2019-05-05T06:28:02Z</time>
      </trkpt>
      <trkpt lat="46.41907" lon="6.04531">
        <ele>1363</ele>
        <time>2019-05-05T06:28:17Z</time>
      </trkpt>
      <trkpt lat="46.41908" lon="6.04512">
        <ele>1364</ele>
        <time>2019-05-05T06:28:26Z</time>
      </trkpt>
      <trkpt lat="46.41908" lon="6.04507">
        <ele>1364</ele>
        <time>2019-05-05T06:28:29Z</time>
      </trkpt>
      <trkpt lat="46.41907" lon="6.04498">
        <ele>1365</ele>
        <time>2019-05-05T06:28:33Z</time>
      </trkpt>
      <trkpt lat="46.41908" lon="6.04493">
        <ele>1365</ele>
        <time>2019-05-05T06:28:36Z</time>
      </trkpt>
      <trkpt lat="46.41906" lon="6.0448">
        <ele>1366</ele>
        <time>2019-05-05T06:28:43Z</time>
      </trkpt>
      <trkpt lat="46.41906" lon="6.04478">
        <ele>1366</ele>
        <time>2019-05-05T06:28:44Z</time>
      </trkpt>
      <trkpt lat="46.41906" lon="6.04477">
        <ele>1366</ele>
        <time>2019-05-05T06:28:44Z</time>
      </trkpt>
      <trkpt lat="46.41905" lon="6.04474">
        <ele>1366</ele>
        <time>2019-05-05T06:28:46Z</time>
      </trkpt>
      <trkpt lat="46.41905" lon="6.0447">
        <ele>1366</ele>
        <time>2019-05-05T06:28:47Z</time>
      </trkpt>
      <trkpt lat="46.41901" lon="6.04461">
        <ele>1366</ele>
        <time>2019-05-05T06:28:53Z</time>
      </trkpt>
      <trkpt lat="46.41897" lon="6.04453">
        <ele>1366</ele>
        <time>2019-05-05T06:28:58Z</time>
      </trkpt>
      <trkpt lat="46.41896" lon="6.04446">
        <ele>1366</ele>
        <time>2019-05-05T06:29:01Z</time>
      </trkpt>
      <trkpt lat="46.41897" lon="6.04438">
        <ele>1367</ele>
        <time>2019-05-05T06:29:05Z</time>
      </trkpt>
      <trkpt lat="46.41897" lon="6.04435">
        <ele>1367</ele>
        <time>2019-05-05T06:29:07Z</time>
      </trkpt>
      <trkpt lat="46.41897" lon="6.04432">
        <ele>1367</ele>
        <time>2019-05-05T06:29:08Z</time>
      </trkpt>
      <trkpt lat="46.41895" lon="6.0443">
        <ele>1367</ele>
        <time>2019-05-05T06:29:10Z</time>
      </trkpt>
      <trkpt lat="46.41894" lon="6.04422">
        <ele>1368</ele>
        <time>2019-05-05T06:29:14Z</time>
      </trkpt>
      <trkpt lat="46.41891" lon="6.04406">
        <ele>1369</ele>
        <time>2019-05-05T06:29:22Z</time>
      </trkpt>
      <trkpt lat="46.41891" lon="6.04394">
        <ele>1370</ele>
        <time>2019-05-05T06:29:28Z</time>
      </trkpt>
      <trkpt lat="46.4189" lon="6.04392">
        <ele>1370</ele>
        <time>2019-05-05T06:29:29Z</time>
      </trkpt>
      <trkpt lat="46.41889" lon="6.04385">
        <ele>1371</ele>
        <time>2019-05-05T06:29:33Z</time>
      </trkpt>
      <trkpt lat="46.41889" lon="6.04379">
        <ele>1371</ele>
        <time>2019-05-05T06:29:36Z</time>
      </trkpt>
      <trkpt lat="46.4189" lon="6.0437">
        <ele>1372</ele>
        <time>2019-05-05T06:29:41Z</time>
      </trkpt>
      <trkpt lat="46.41889" lon="6.04368">
        <ele>1372</ele>
        <time>2019-05-05T06:29:42Z</time>
      </trkpt>
      <trkpt lat="46.41889" lon="6.04367">
        <ele>1372</ele>
        <time>2019-05-05T06:29:42Z</time>
      </trkpt>
      <trkpt lat="46.41894" lon="6.0434">
        <ele>1374</ele>
        <time>2019-05-05T06:29:56Z</time>
      </trkpt>
      <trkpt lat="46.41894" lon="6.04339">
        <ele>1375</ele>
        <time>2019-05-05T06:29:57Z</time>
      </trkpt>
      <trkpt lat="46.41902" lon="6.04317">
        <ele>1375</ele>
        <time>2019-05-05T06:30:10Z</time>
      </trkpt>
      <trkpt lat="46.41903" lon="6.04316">
        <ele>1375</ele>
        <time>2019-05-05T06:30:11Z</time>
      </trkpt>
      <trkpt lat="46.41905" lon="6.04306">
        <ele>1375</ele>
        <time>2019-05-05T06:30:15Z</time>
      </trkpt>
      <trkpt lat="46.41907" lon="6.04301">
        <ele>1375</ele>
        <time>2019-05-05T06:30:18Z</time>
      </trkpt>
      <trkpt lat="46.41908" lon="6.04299">
        <ele>1375</ele>
        <time>2019-05-05T06:30:19Z</time>
      </trkpt>
      <trkpt lat="46.41908" lon="6.04298">
        <ele>1375</ele>
        <time>2019-05-05T06:30:20Z</time>
      </trkpt>
      <trkpt lat="46.41913" lon="6.04287">
        <ele>1376</ele>
        <time>2019-05-05T06:30:27Z</time>
      </trkpt>
      <trkpt lat="46.41921" lon="6.04271">
        <ele>1376</ele>
        <time>2019-05-05T06:30:37Z</time>
      </trkpt>
      <trkpt lat="46.41924" lon="6.04266">
        <ele>1376</ele>
        <time>2019-05-05T06:30:40Z</time>
      </trkpt>
      <trkpt lat="46.41926" lon="6.04264">
        <ele>1376</ele>
        <time>2019-05-05T06:30:41Z</time>
      </trkpt>
      <trkpt lat="46.41931" lon="6.04242">
        <ele>1376</ele>
        <time>2019-05-05T06:30:53Z</time>
      </trkpt>
      <trkpt lat="46.41932" lon="6.04229">
        <ele>1375</ele>
        <time>2019-05-05T06:31:00Z</time>
      </trkpt>
      <trkpt lat="46.41931" lon="6.04212">
        <ele>1375</ele>
        <time>2019-05-05T06:31:08Z</time>
      </trkpt>
      <trkpt lat="46.41928" lon="6.04195">
        <ele>1374</ele>
        <time>2019-05-05T06:31:17Z</time>
      </trkpt>
      <trkpt lat="46.41926" lon="6.04195">
        <ele>1374</ele>
        <time>2019-05-05T06:31:18Z</time>
      </trkpt>
      <trkpt lat="46.41928" lon="6.04191">
        <ele>1374</ele>
        <time>2019-05-05T06:31:21Z</time>
      </trkpt>
      <trkpt lat="46.41929" lon="6.04187">
        <ele>1374</ele>
        <time>2019-05-05T06:31:23Z</time>
      </trkpt>
      <trkpt lat="46.41931" lon="6.04184">
        <ele>1374</ele>
        <time>2019-05-05T06:31:25Z</time>
      </trkpt>
      <trkpt lat="46.41932" lon="6.04195">
        <ele>1374</ele>
        <time>2019-05-05T06:31:30Z</time>
      </trkpt>
      <trkpt lat="46.41914" lon="6.04201">
        <ele>1374</ele>
        <time>2019-05-05T06:31:43Z</time>
      </trkpt>
      <trkpt lat="46.41909" lon="6.04199">
        <ele>1373</ele>
        <time>2019-05-05T06:31:47Z</time>
      </trkpt>
      <trkpt lat="46.41895" lon="6.04187">
        <ele>1372</ele>
        <time>2019-05-05T06:31:59Z</time>
      </trkpt>
      <trkpt lat="46.41894" lon="6.04185">
        <ele>1372</ele>
        <time>2019-05-05T06:32:00Z</time>
      </trkpt>
      <trkpt lat="46.41896" lon="6.04184">
        <ele>1372</ele>
        <time>2019-05-05T06:32:02Z</time>
      </trkpt>
      <trkpt lat="46.41893" lon="6.04182">
        <ele>1372</ele>
        <time>2019-05-05T06:32:04Z</time>
      </trkpt>
      <trkpt lat="46.4189" lon="6.04179">
        <ele>1372</ele>
        <time>2019-05-05T06:32:07Z</time>
      </trkpt>
      <trkpt lat="46.41888" lon="6.04178">
        <ele>1372</ele>
        <time>2019-05-05T06:32:08Z</time>
      </trkpt>
      <trkpt lat="46.41884" lon="6.04172">
        <ele>1372</ele>
        <time>2019-05-05T06:32:12Z</time>
      </trkpt>
      <trkpt lat="46.41884" lon="6.04171">
        <ele>1372</ele>
        <time>2019-05-05T06:32:13Z</time>
      </trkpt>
      <trkpt lat="46.41883" lon="6.04168">
        <ele>1372</ele>
        <time>2019-05-05T06:32:15Z</time>
      </trkpt>
      <trkpt lat="46.4188" lon="6.04167">
        <ele>1372</ele>
        <time>2019-05-05T06:32:17Z</time>
      </trkpt>
      <trkpt lat="46.4188" lon="6.04164">
        <ele>1372</ele>
        <time>2019-05-05T06:32:18Z</time>
      </trkpt>
      <trkpt lat="46.41881" lon="6.04159">
        <ele>1372</ele>
        <time>2019-05-05T06:32:21Z</time>
      </trkpt>
      <trkpt lat="46.4188" lon="6.04155">
        <ele>1372</ele>
        <time>2019-05-05T06:32:23Z</time>
      </trkpt>
      <trkpt lat="46.41877" lon="6.04153">
        <ele>1372</ele>
        <time>2019-05-05T06:32:26Z</time>
      </trkpt>
      <trkpt lat="46.41873" lon="6.04152">
        <ele>1372</ele>
        <time>2019-05-05T06:32:29Z</time>
      </trkpt>
      <trkpt lat="46.4187" lon="6.04147">
        <ele>1372</ele>
        <time>2019-05-05T06:32:32Z</time>
      </trkpt>
      <trkpt lat="46.41867" lon="6.04137">
        <ele>1371</ele>
        <time>2019-05-05T06:32:38Z</time>
      </trkpt>
      <trkpt lat="46.41864" lon="6.04133">
        <ele>1371</ele>
        <time>2019-05-05T06:32:40Z</time>
      </trkpt>
      <trkpt lat="46.41863" lon="6.04131">
        <ele>1371</ele>
        <time>2019-05-05T06:32:41Z</time>
      </trkpt>
      <trkpt lat="46.41857" lon="6.04114">
        <ele>1371</ele>
        <time>2019-05-05T06:32:51Z</time>
      </trkpt>
      <trkpt lat="46.41856" lon="6.04112">
        <ele>1371</ele>
        <time>2019-05-05T06:32:52Z</time>
      </trkpt>
      <trkpt lat="46.41843" lon="6.04098">
        <ele>1369</ele>
        <time>2019-05-05T06:33:04Z</time>
      </trkpt>
      <trkpt lat="46.41836" lon="6.04096">
        <ele>1368</ele>
        <time>2019-05-05T06:33:10Z</time>
      </trkpt>
      <trkpt lat="46.41832" lon="6.04096">
        <ele>1367</ele>
        <time>2019-05-05T06:33:12Z</time>
      </trkpt>
      <trkpt lat="46.41829" lon="6.04096">
        <ele>1366</ele>
        <time>2019-05-05T06:33:15Z</time>
      </trkpt>
      <trkpt lat="46.41813" lon="6.04083">
        <ele>1364</ele>
        <time>2019-05-05T06:33:28Z</time>
      </trkpt>
      <trkpt lat="46.41812" lon="6.04083">
        <ele>1364</ele>
        <time>2019-05-05T06:33:29Z</time>
      </trkpt>
      <trkpt lat="46.41812" lon="6.04081">
        <ele>1364</ele>
        <time>2019-05-05T06:33:29Z</time>
      </trkpt>
      <trkpt lat="46.41812" lon="6.04077">
        <ele>1364</ele>
        <time>2019-05-05T06:33:31Z</time>
      </trkpt>
      <trkpt lat="46.41814" lon="6.04072">
        <ele>1365</ele>
        <time>2019-05-05T06:33:35Z</time>
      </trkpt>
      <trkpt lat="46.41816" lon="6.04066">
        <ele>1365</ele>
        <time>2019-05-05T06:33:37Z</time>
      </trkpt>
      <trkpt lat="46.41816" lon="6.04062">
        <ele>1365</ele>
        <time>2019-05-05T06:33:39Z</time>
      </trkpt>
      <trkpt lat="46.41814" lon="6.04056">
        <ele>1365</ele>
        <time>2019-05-05T06:33:43Z</time>
      </trkpt>
      <trkpt lat="46.41807" lon="6.04046">
        <ele>1364</ele>
        <time>2019-05-05T06:33:50Z</time>
      </trkpt>
      <trkpt lat="46.41803" lon="6.04045">
        <ele>1364</ele>
        <time>2019-05-05T06:33:53Z</time>
      </trkpt>
      <trkpt lat="46.41799" lon="6.04044">
        <ele>1363</ele>
        <time>2019-05-05T06:33:56Z</time>
      </trkpt>
      <trkpt lat="46.41792" lon="6.04038">
        <ele>1363</ele>
        <time>2019-05-05T06:34:01Z</time>
      </trkpt>
      <trkpt lat="46.41787" lon="6.04037">
        <ele>1362</ele>
        <time>2019-05-05T06:34:05Z</time>
      </trkpt>
      <trkpt lat="46.4178" lon="6.04036">
        <ele>1361</ele>
        <time>2019-05-05T06:34:10Z</time>
      </trkpt>
      <trkpt lat="46.4178" lon="6.04036">
        <ele>1361</ele>
        <time>2019-05-05T06:34:11Z</time>
      </trkpt>
      <trkpt lat="46.4178" lon="6.04034">
        <ele>1361</ele>
        <time>2019-05-05T06:34:12Z</time>
      </trkpt>
      <trkpt lat="46.4178" lon="6.04034">
        <ele>1361</ele>
        <time>2019-05-05T06:34:12Z</time>
      </trkpt>
      <trkpt lat="46.41778" lon="6.04034">
        <ele>1361</ele>
        <time>2019-05-05T06:34:14Z</time>
      </trkpt>
      <trkpt lat="46.41774" lon="6.04035">
        <ele>1360</ele>
        <time>2019-05-05T06:34:16Z</time>
      </trkpt>
      <trkpt lat="46.41773" lon="6.04035">
        <ele>1360</ele>
        <time>2019-05-05T06:34:17Z</time>
      </trkpt>
      <trkpt lat="46.41772" lon="6.04034">
        <ele>1360</ele>
        <time>2019-05-05T06:34:18Z</time>
      </trkpt>
      <trkpt lat="46.41772" lon="6.04033">
        <ele>1360</ele>
        <time>2019-05-05T06:34:19Z</time>
      </trkpt>
      <trkpt lat="46.41769" lon="6.04029">
        <ele>1360</ele>
        <time>2019-05-05T06:34:22Z</time>
      </trkpt>
      <trkpt lat="46.41764" lon="6.04025">
        <ele>1359</ele>
        <time>2019-05-05T06:34:26Z</time>
      </trkpt>
      <trkpt lat="46.41752" lon="6.04018">
        <ele>1357</ele>
        <time>2019-05-05T06:34:35Z</time>
      </trkpt>
      <trkpt lat="46.4175" lon="6.04013">
        <ele>1357</ele>
        <time>2019-05-05T06:34:38Z</time>
      </trkpt>
      <trkpt lat="46.41748" lon="6.04006">
        <ele>1357</ele>
        <time>2019-05-05T06:34:42Z</time>
      </trkpt>
      <trkpt lat="46.41748" lon="6.04005">
        <ele>1357</ele>
        <time>2019-05-05T06:34:43Z</time>
      </trkpt>
      <trkpt lat="46.41746" lon="6.04002">
        <ele>1357</ele>
        <time>2019-05-05T06:34:44Z</time>
      </trkpt>
      <trkpt lat="46.41744" lon="6.04">
        <ele>1356</ele>
        <time>2019-05-05T06:34:46Z</time>
      </trkpt>
      <trkpt lat="46.41744" lon="6.04">
        <ele>1356</ele>
        <time>2019-05-05T06:34:47Z</time>
      </trkpt>
      <trkpt lat="46.41743" lon="6.04">
        <ele>1356</ele>
        <time>2019-05-05T06:34:47Z</time>
      </trkpt>
      <trkpt lat="46.41741" lon="6.04">
        <ele>1356</ele>
        <time>2019-05-05T06:34:49Z</time>
      </trkpt>
      <trkpt lat="46.41737" lon="6.03997">
        <ele>1355</ele>
        <time>2019-05-05T06:34:52Z</time>
      </trkpt>
      <trkpt lat="46.41732" lon="6.03993">
        <ele>1354</ele>
        <time>2019-05-05T06:34:56Z</time>
      </trkpt>
      <trkpt lat="46.41729" lon="6.03993">
        <ele>1354</ele>
        <time>2019-05-05T06:34:58Z</time>
      </trkpt>
      <trkpt lat="46.41727" lon="6.03988">
        <ele>1353</ele>
        <time>2019-05-05T06:35:01Z</time>
      </trkpt>
      <trkpt lat="46.41725" lon="6.03982">
        <ele>1353</ele>
        <time>2019-05-05T06:35:04Z</time>
      </trkpt>
      <trkpt lat="46.4172" lon="6.03964">
        <ele>1352</ele>
        <time>2019-05-05T06:35:14Z</time>
      </trkpt>
      <trkpt lat="46.41709" lon="6.03957">
        <ele>1350</ele>
        <time>2019-05-05T06:35:23Z</time>
      </trkpt>
      <trkpt lat="46.41705" lon="6.03959">
        <ele>1350</ele>
        <time>2019-05-05T06:35:26Z</time>
      </trkpt>
      <trkpt lat="46.41703" lon="6.03956">
        <ele>1349</ele>
        <time>2019-05-05T06:35:28Z</time>
      </trkpt>
      <trkpt lat="46.417" lon="6.03947">
        <ele>1349</ele>
        <time>2019-05-05T06:35:33Z</time>
      </trkpt>
      <trkpt lat="46.41698" lon="6.03944">
        <ele>1348</ele>
        <time>2019-05-05T06:35:35Z</time>
      </trkpt>
      <trkpt lat="46.41691" lon="6.0393">
        <ele>1347</ele>
        <time>2019-05-05T06:35:44Z</time>
      </trkpt>
      <trkpt lat="46.41678" lon="6.03912">
        <ele>1347</ele>
        <time>2019-05-05T06:35:56Z</time>
      </trkpt>
      <trkpt lat="46.41675" lon="6.03902">
        <ele>1348</ele>
        <time>2019-05-05T06:36:02Z</time>
      </trkpt>
      <trkpt lat="46.41669" lon="6.03893">
        <ele>1348</ele>
        <time>2019-05-05T06:36:08Z</time>
      </trkpt>
      <trkpt lat="46.4166" lon="6.03886">
        <ele>1348</ele>
        <time>2019-05-05T06:36:16Z</time>
      </trkpt>
      <trkpt lat="46.41654" lon="6.03878">
        <ele>1349</ele>
        <time>2019-05-05T06:36:22Z</time>
      </trkpt>
      <trkpt lat="46.41645" lon="6.03871">
        <ele>1349</ele>
        <time>2019-05-05T06:36:29Z</time>
      </trkpt>
      <trkpt lat="46.41638" lon="6.03871">
        <ele>1349</ele>
        <time>2019-05-05T06:36:34Z</time>
      </trkpt>
      <trkpt lat="46.41633" lon="6.03871">
        <ele>1349</ele>
        <time>2019-05-05T06:36:37Z</time>
      </trkpt>
      <trkpt lat="46.41613" lon="6.03873">
        <ele>1350</ele>
        <time>2019-05-05T06:36:52Z</time>
      </trkpt>
      <trkpt lat="46.41594" lon="6.03868">
        <ele>1350</ele>
        <time>2019-05-05T06:37:06Z</time>
      </trkpt>
      <trkpt lat="46.4158" lon="6.03849">
        <ele>1351</ele>
        <time>2019-05-05T06:37:20Z</time>
      </trkpt>
      <trkpt lat="46.41574" lon="6.03845">
        <ele>1352</ele>
        <time>2019-05-05T06:37:25Z</time>
      </trkpt>
      <trkpt lat="46.41572" lon="6.03845">
        <ele>1352</ele>
        <time>2019-05-05T06:37:26Z</time>
      </trkpt>
      <trkpt lat="46.41571" lon="6.03845">
        <ele>1352</ele>
        <time>2019-05-05T06:37:27Z</time>
      </trkpt>
      <trkpt lat="46.41567" lon="6.03845">
        <ele>1352</ele>
        <time>2019-05-05T06:37:30Z</time>
      </trkpt>
      <trkpt lat="46.41562" lon="6.03843">
        <ele>1352</ele>
        <time>2019-05-05T06:37:34Z</time>
      </trkpt>
      <trkpt lat="46.4156" lon="6.03842">
        <ele>1352</ele>
        <time>2019-05-05T06:37:35Z</time>
      </trkpt>
      <trkpt lat="46.41545" lon="6.03825">
        <ele>1353</ele>
        <time>2019-05-05T06:37:49Z</time>
      </trkpt>
      <trkpt lat="46.41538" lon="6.0382">
        <ele>1354</ele>
        <time>2019-05-05T06:37:55Z</time>
      </trkpt>
      <trkpt lat="46.41537" lon="6.03814">
        <ele>1354</ele>
        <time>2019-05-05T06:37:57Z</time>
      </trkpt>
      <trkpt lat="46.41536" lon="6.03813">
        <ele>1354</ele>
        <time>2019-05-05T06:37:59Z</time>
      </trkpt>
      <trkpt lat="46.41534" lon="6.03812">
        <ele>1354</ele>
        <time>2019-05-05T06:38:00Z</time>
      </trkpt>
      <trkpt lat="46.41533" lon="6.03784">
        <ele>1356</ele>
        <time>2019-05-05T06:38:14Z</time>
      </trkpt>
      <trkpt lat="46.41533" lon="6.03758">
        <ele>1357</ele>
        <time>2019-05-05T06:38:27Z</time>
      </trkpt>
      <trkpt lat="46.41534" lon="6.03752">
        <ele>1358</ele>
        <time>2019-05-05T06:38:30Z</time>
      </trkpt>
      <trkpt lat="46.41537" lon="6.03724">
        <ele>1359</ele>
        <time>2019-05-05T06:38:45Z</time>
      </trkpt>
      <trkpt lat="46.41536" lon="6.0372">
        <ele>1360</ele>
        <time>2019-05-05T06:38:47Z</time>
      </trkpt>
      <trkpt lat="46.41537" lon="6.03706">
        <ele>1360</ele>
        <time>2019-05-05T06:38:54Z</time>
      </trkpt>
      <trkpt lat="46.41538" lon="6.03695">
        <ele>1361</ele>
        <time>2019-05-05T06:38:59Z</time>
      </trkpt>
      <trkpt lat="46.41539" lon="6.03691">
        <ele>1361</ele>
        <time>2019-05-05T06:39:02Z</time>
      </trkpt>
      <trkpt lat="46.41539" lon="6.03683">
        <ele>1362</ele>
        <time>2019-05-05T06:39:05Z</time>
      </trkpt>
      <trkpt lat="46.41536" lon="6.03677">
        <ele>1362</ele>
        <time>2019-05-05T06:39:09Z</time>
      </trkpt>
      <trkpt lat="46.41534" lon="6.03673">
        <ele>1363</ele>
        <time>2019-05-05T06:39:12Z</time>
      </trkpt>
      <trkpt lat="46.41531" lon="6.0367">
        <ele>1363</ele>
        <time>2019-05-05T06:39:14Z</time>
      </trkpt>
      <trkpt lat="46.41527" lon="6.03666">
        <ele>1363</ele>
        <time>2019-05-05T06:39:18Z</time>
      </trkpt>
      <trkpt lat="46.41514" lon="6.03652">
        <ele>1365</ele>
        <time>2019-05-05T06:39:29Z</time>
      </trkpt>
      <trkpt lat="46.41504" lon="6.03643">
        <ele>1366</ele>
        <time>2019-05-05T06:39:38Z</time>
      </trkpt>
      <trkpt lat="46.41498" lon="6.03639">
        <ele>1366</ele>
        <time>2019-05-05T06:39:43Z</time>
      </trkpt>
      <trkpt lat="46.41496" lon="6.03636">
        <ele>1366</ele>
        <time>2019-05-05T06:39:45Z</time>
      </trkpt>
      <trkpt lat="46.41491" lon="6.03628">
        <ele>1367</ele>
        <time>2019-05-05T06:39:51Z</time>
      </trkpt>
      <trkpt lat="46.41489" lon="6.03625">
        <ele>1367</ele>
        <time>2019-05-05T06:39:53Z</time>
      </trkpt>
      <trkpt lat="46.41472" lon="6.03615">
        <ele>1367</ele>
        <time>2019-05-05T06:40:06Z</time>
      </trkpt>
      <trkpt lat="46.41455" lon="6.03608">
        <ele>1367</ele>
        <time>2019-05-05T06:40:18Z</time>
      </trkpt>
      <trkpt lat="46.4144" lon="6.0361">
        <ele>1367</ele>
        <time>2019-05-05T06:40:29Z</time>
      </trkpt>
      <trkpt lat="46.41425" lon="6.03619">
        <ele>1368</ele>
        <time>2019-05-05T06:40:41Z</time>
      </trkpt>
      <trkpt lat="46.41408" lon="6.03629">
        <ele>1369</ele>
        <time>2019-05-05T06:40:54Z</time>
      </trkpt>
      <trkpt lat="46.4139" lon="6.03631">
        <ele>1370</ele>
        <time>2019-05-05T06:41:07Z</time>
      </trkpt>
      <trkpt lat="46.41384" lon="6.03629">
        <ele>1371</ele>
        <time>2019-05-05T06:41:12Z</time>
      </trkpt>
      <trkpt lat="46.41371" lon="6.03624">
        <ele>1372</ele>
        <time>2019-05-05T06:41:22Z</time>
      </trkpt>
      <trkpt lat="46.41361" lon="6.03623">
        <ele>1372</ele>
        <time>2019-05-05T06:41:29Z</time>
      </trkpt>
      <trkpt lat="46.41356" lon="6.03622">
        <ele>1373</ele>
        <time>2019-05-05T06:41:33Z</time>
      </trkpt>
      <trkpt lat="46.41342" lon="6.03611">
        <ele>1375</ele>
        <time>2019-05-05T06:41:44Z</time>
      </trkpt>
      <trkpt lat="46.41341" lon="6.03609">
        <ele>1375</ele>
        <time>2019-05-05T06:41:45Z</time>
      </trkpt>
      <trkpt lat="46.41337" lon="6.03606">
        <ele>1376</ele>
        <time>2019-05-05T06:41:49Z</time>
      </trkpt>
      <trkpt lat="46.41334" lon="6.03604">
        <ele>1376</ele>
        <time>2019-05-05T06:41:51Z</time>
      </trkpt>
      <trkpt lat="46.41329" lon="6.03599">
        <ele>1377</ele>
        <time>2019-05-05T06:41:56Z</time>
      </trkpt>
      <trkpt lat="46.41325" lon="6.03592">
        <ele>1377</ele>
        <time>2019-05-05T06:42:00Z</time>
      </trkpt>
      <trkpt lat="46.4132" lon="6.03584">
        <ele>1378</ele>
        <time>2019-05-05T06:42:05Z</time>
      </trkpt>
      <trkpt lat="46.41315" lon="6.03581">
        <ele>1378</ele>
        <time>2019-05-05T06:42:09Z</time>
      </trkpt>
      <trkpt lat="46.41308" lon="6.03579">
        <ele>1379</ele>
        <time>2019-05-05T06:42:15Z</time>
      </trkpt>
      <trkpt lat="46.41306" lon="6.03579">
        <ele>1380</ele>
        <time>2019-05-05T06:42:17Z</time>
      </trkpt>
      <trkpt lat="46.41301" lon="6.03578">
        <ele>1380</ele>
        <time>2019-05-05T06:42:20Z</time>
      </trkpt>
      <trkpt lat="46.41294" lon="6.03579">
        <ele>1381</ele>
        <time>2019-05-05T06:42:25Z</time>
      </trkpt>
      <trkpt lat="46.41293" lon="6.03579">
        <ele>1381</ele>
        <time>2019-05-05T06:42:26Z</time>
      </trkpt>
      <trkpt lat="46.41292" lon="6.0358">
        <ele>1381</ele>
        <time>2019-05-05T06:42:27Z</time>
      </trkpt>
      <trkpt lat="46.4129" lon="6.0358">
        <ele>1382</ele>
        <time>2019-05-05T06:42:28Z</time>
      </trkpt>
      <trkpt lat="46.41285" lon="6.03581">
        <ele>1382</ele>
        <time>2019-05-05T06:42:31Z</time>
      </trkpt>
      <trkpt lat="46.41267" lon="6.03574">
        <ele>1384</ele>
        <time>2019-05-05T06:42:45Z</time>
      </trkpt>
      <trkpt lat="46.41251" lon="6.03567">
        <ele>1386</ele>
        <time>2019-05-05T06:42:57Z</time>
      </trkpt>
      <trkpt lat="46.4125" lon="6.03566">
        <ele>1386</ele>
        <time>2019-05-05T06:42:58Z</time>
      </trkpt>
      <trkpt lat="46.41247" lon="6.03564">
        <ele>1386</ele>
        <time>2019-05-05T06:43:00Z</time>
      </trkpt>
      <trkpt lat="46.41246" lon="6.03563">
        <ele>1386</ele>
        <time>2019-05-05T06:43:01Z</time>
      </trkpt>
      <trkpt lat="46.41241" lon="6.03559">
        <ele>1387</ele>
        <time>2019-05-05T06:43:06Z</time>
      </trkpt>
      <trkpt lat="46.4124" lon="6.03559">
        <ele>1387</ele>
        <time>2019-05-05T06:43:06Z</time>
      </trkpt>
      <trkpt lat="46.41232" lon="6.03555">
        <ele>1387</ele>
        <time>2019-05-05T06:43:13Z</time>
      </trkpt>
      <trkpt lat="46.41226" lon="6.03552">
        <ele>1388</ele>
        <time>2019-05-05T06:43:17Z</time>
      </trkpt>
      <trkpt lat="46.41224" lon="6.0355">
        <ele>1388</ele>
        <time>2019-05-05T06:43:19Z</time>
      </trkpt>
      <trkpt lat="46.41214" lon="6.03537">
        <ele>1389</ele>
        <time>2019-05-05T06:43:29Z</time>
      </trkpt>
      <trkpt lat="46.41202" lon="6.03515">
        <ele>1389</ele>
        <time>2019-05-05T06:43:42Z</time>
      </trkpt>
      <trkpt lat="46.41199" lon="6.03509">
        <ele>1389</ele>
        <time>2019-05-05T06:43:46Z</time>
      </trkpt>
      <trkpt lat="46.41192" lon="6.03502">
        <ele>1389</ele>
        <time>2019-05-05T06:43:52Z</time>
      </trkpt>
      <trkpt lat="46.4118" lon="6.03483">
        <ele>1390</ele>
        <time>2019-05-05T06:44:05Z</time>
      </trkpt>
      <trkpt lat="46.4117" lon="6.03466">
        <ele>1390</ele>
        <time>2019-05-05T06:44:16Z</time>
      </trkpt>
      <trkpt lat="46.41161" lon="6.03443">
        <ele>1390</ele>
        <time>2019-05-05T06:44:30Z</time>
      </trkpt>
      <trkpt lat="46.41155" lon="6.03436">
        <ele>1390</ele>
        <time>2019-05-05T06:44:35Z</time>
      </trkpt>
      <trkpt lat="46.41139" lon="6.03422">
        <ele>1391</ele>
        <time>2019-05-05T06:44:49Z</time>
      </trkpt>
      <trkpt lat="46.41128" lon="6.03414">
        <ele>1392</ele>
        <time>2019-05-05T06:44:58Z</time>
      </trkpt>
      <trkpt lat="46.41113" lon="6.03399">
        <ele>1392</ele>
        <time>2019-05-05T06:45:11Z</time>
      </trkpt>
      <trkpt lat="46.41097" lon="6.03385">
        <ele>1394</ele>
        <time>2019-05-05T06:45:24Z</time>
      </trkpt>
      <trkpt lat="46.41086" lon="6.0338">
        <ele>1395</ele>
        <time>2019-05-05T06:45:32Z</time>
      </trkpt>
      <trkpt lat="46.41074" lon="6.0336">
        <ele>1395</ele>
        <time>2019-05-05T06:45:46Z</time>
      </trkpt>
      <trkpt lat="46.41063" lon="6.0335">
        <ele>1395</ele>
        <time>2019-05-05T06:45:55Z</time>
      </trkpt>
      <trkpt lat="46.41057" lon="6.03343">
        <ele>1395</ele>
        <time>2019-05-05T06:46:01Z</time>
      </trkpt>
      <trkpt lat="46.41047" lon="6.03323">
        <ele>1395</ele>
        <time>2019-05-05T06:46:13Z</time>
      </trkpt>
      <trkpt lat="46.41035" lon="6.03308">
        <ele>1394</ele>
        <time>2019-05-05T06:46:25Z</time>
      </trkpt>
      <trkpt lat="46.41019" lon="6.03294">
        <ele>1393</ele>
        <time>2019-05-05T06:46:38Z</time>
      </trkpt>
      <trkpt lat="46.41003" lon="6.03279">
        <ele>1393</ele>
        <time>2019-05-05T06:46:52Z</time>
      </trkpt>
      <trkpt lat="46.40988" lon="6.03263">
        <ele>1392</ele>
        <time>2019-05-05T06:47:06Z</time>
      </trkpt>
      <trkpt lat="46.40978" lon="6.03249">
        <ele>1392</ele>
        <time>2019-05-05T06:47:15Z</time>
      </trkpt>
      <trkpt lat="46.40966" lon="6.03227">
        <ele>1390</ele>
        <time>2019-05-05T06:47:29Z</time>
      </trkpt>
      <trkpt lat="46.40955" lon="6.03204">
        <ele>1388</ele>
        <time>2019-05-05T06:47:43Z</time>
      </trkpt>
      <trkpt lat="46.40953" lon="6.03198">
        <ele>1388</ele>
        <time>2019-05-05T06:47:47Z</time>
      </trkpt>
      <trkpt lat="46.4095" lon="6.03191">
        <ele>1387</ele>
        <time>2019-05-05T06:47:51Z</time>
      </trkpt>
      <trkpt lat="46.4094" lon="6.03166">
        <ele>1385</ele>
        <time>2019-05-05T06:48:06Z</time>
      </trkpt>
      <trkpt lat="46.40928" lon="6.03146">
        <ele>1385</ele>
        <time>2019-05-05T06:48:19Z</time>
      </trkpt>
      <trkpt lat="46.40925" lon="6.03142">
        <ele>1385</ele>
        <time>2019-05-05T06:48:22Z</time>
      </trkpt>
      <trkpt lat="46.40908" lon="6.03131">
        <ele>1386</ele>
        <time>2019-05-05T06:48:35Z</time>
      </trkpt>
      <trkpt lat="46.40903" lon="6.03129">
        <ele>1386</ele>
        <time>2019-05-05T06:48:39Z</time>
      </trkpt>
      <trkpt lat="46.40901" lon="6.03126">
        <ele>1386</ele>
        <time>2019-05-05T06:48:41Z</time>
      </trkpt>
      <trkpt lat="46.40899" lon="6.03126">
        <ele>1386</ele>
        <time>2019-05-05T06:48:43Z</time>
      </trkpt>
      <trkpt lat="46.40898" lon="6.03125">
        <ele>1386</ele>
        <time>2019-05-05T06:48:43Z</time>
      </trkpt>
      <trkpt lat="46.40893" lon="6.03127">
        <ele>1386</ele>
        <time>2019-05-05T06:48:47Z</time>
      </trkpt>
      <trkpt lat="46.40879" lon="6.03111">
        <ele>1385</ele>
        <time>2019-05-05T06:49:00Z</time>
      </trkpt>
      <trkpt lat="46.40877" lon="6.03107">
        <ele>1385</ele>
        <time>2019-05-05T06:49:02Z</time>
      </trkpt>
      <trkpt lat="46.40876" lon="6.03102">
        <ele>1385</ele>
        <time>2019-05-05T06:49:05Z</time>
      </trkpt>
      <trkpt lat="46.40867" lon="6.0309">
        <ele>1384</ele>
        <time>2019-05-05T06:49:14Z</time>
      </trkpt>
      <trkpt lat="46.40855" lon="6.03078">
        <ele>1383</ele>
        <time>2019-05-05T06:49:24Z</time>
      </trkpt>
      <trkpt lat="46.4085" lon="6.03072">
        <ele>1383</ele>
        <time>2019-05-05T06:49:29Z</time>
      </trkpt>
      <trkpt lat="46.40833" lon="6.03069">
        <ele>1385</ele>
        <time>2019-05-05T06:49:42Z</time>
      </trkpt>
      <trkpt lat="46.40827" lon="6.0307">
        <ele>1385</ele>
        <time>2019-05-05T06:49:46Z</time>
      </trkpt>
      <trkpt lat="46.4081" lon="6.03059">
        <ele>1386</ele>
        <time>2019-05-05T06:50:00Z</time>
      </trkpt>
      <trkpt lat="46.40798" lon="6.03045">
        <ele>1385</ele>
        <time>2019-05-05T06:50:11Z</time>
      </trkpt>
      <trkpt lat="46.40785" lon="6.03026">
        <ele>1384</ele>
        <time>2019-05-05T06:50:24Z</time>
      </trkpt>
      <trkpt lat="46.4077" lon="6.03009">
        <ele>1384</ele>
        <time>2019-05-05T06:50:38Z</time>
      </trkpt>
      <trkpt lat="46.4076" lon="6.02991">
        <ele>1385</ele>
        <time>2019-05-05T06:50:50Z</time>
      </trkpt>
      <trkpt lat="46.40758" lon="6.02988">
        <ele>1385</ele>
        <time>2019-05-05T06:50:52Z</time>
      </trkpt>
      <trkpt lat="46.40746" lon="6.02967">
        <ele>1385</ele>
        <time>2019-05-05T06:51:05Z</time>
      </trkpt>
      <trkpt lat="46.40734" lon="6.02947">
        <ele>1384</ele>
        <time>2019-05-05T06:51:18Z</time>
      </trkpt>
      <trkpt lat="46.4072" lon="6.02931">
        <ele>1384</ele>
        <time>2019-05-05T06:51:31Z</time>
      </trkpt>
      <trkpt lat="46.40705" lon="6.02913">
        <ele>1384</ele>
        <time>2019-05-05T06:51:46Z</time>
      </trkpt>
      <trkpt lat="46.40696" lon="6.02904">
        <ele>1383</ele>
        <time>2019-05-05T06:51:53Z</time>
      </trkpt>
      <trkpt lat="46.40689" lon="6.02895">
        <ele>1383</ele>
        <time>2019-05-05T06:52:00Z</time>
      </trkpt>
      <trkpt lat="46.40676" lon="6.02878">
        <ele>1382</ele>
        <time>2019-05-05T06:52:13Z</time>
      </trkpt>
      <trkpt lat="46.40675" lon="6.02877">
        <ele>1382</ele>
        <time>2019-05-05T06:52:14Z</time>
      </trkpt>
      <trkpt lat="46.4067" lon="6.0287">
        <ele>1382</ele>
        <time>2019-05-05T06:52:18Z</time>
      </trkpt>
      <trkpt lat="46.4066" lon="6.02862">
        <ele>1381</ele>
        <time>2019-05-05T06:52:27Z</time>
      </trkpt>
      <trkpt lat="46.40656" lon="6.02857">
        <ele>1381</ele>
        <time>2019-05-05T06:52:31Z</time>
      </trkpt>
      <trkpt lat="46.40653" lon="6.02854">
        <ele>1381</ele>
        <time>2019-05-05T06:52:33Z</time>
      </trkpt>
      <trkpt lat="46.40637" lon="6.02838">
        <ele>1380</ele>
        <time>2019-05-05T06:52:47Z</time>
      </trkpt>
      <trkpt lat="46.40632" lon="6.02818">
        <ele>1379</ele>
        <time>2019-05-05T06:52:58Z</time>
      </trkpt>
      <trkpt lat="46.40615" lon="6.02804">
        <ele>1377</ele>
        <time>2019-05-05T06:53:12Z</time>
      </trkpt>
      <trkpt lat="46.4061" lon="6.028">
        <ele>1376</ele>
        <time>2019-05-05T06:53:16Z</time>
      </trkpt>
      <trkpt lat="46.4061" lon="6.02798">
        <ele>1376</ele>
        <time>2019-05-05T06:53:17Z</time>
      </trkpt>
      <trkpt lat="46.40609" lon="6.02797">
        <ele>1376</ele>
        <time>2019-05-05T06:53:18Z</time>
      </trkpt>
      <trkpt lat="46.40604" lon="6.02794">
        <ele>1375</ele>
        <time>2019-05-05T06:53:22Z</time>
      </trkpt>
      <trkpt lat="46.40597" lon="6.02786">
        <ele>1374</ele>
        <time>2019-05-05T06:53:29Z</time>
      </trkpt>
      <trkpt lat="46.40587" lon="6.02779">
        <ele>1373</ele>
        <time>2019-05-05T06:53:37Z</time>
      </trkpt>
      <trkpt lat="46.40574" lon="6.0277">
        <ele>1371</ele>
        <time>2019-05-05T06:53:47Z</time>
      </trkpt>
      <trkpt lat="46.40569" lon="6.02766">
        <ele>1370</ele>
        <time>2019-05-05T06:53:51Z</time>
      </trkpt>
      <trkpt lat="46.40566" lon="6.02762">
        <ele>1370</ele>
        <time>2019-05-05T06:53:54Z</time>
      </trkpt>
      <trkpt lat="46.40563" lon="6.02757">
        <ele>1369</ele>
        <time>2019-05-05T06:53:58Z</time>
      </trkpt>
      <trkpt lat="46.40557" lon="6.02751">
        <ele>1368</ele>
        <time>2019-05-05T06:54:03Z</time>
      </trkpt>
      <trkpt lat="46.40551" lon="6.02743">
        <ele>1367</ele>
        <time>2019-05-05T06:54:09Z</time>
      </trkpt>
      <trkpt lat="46.40549" lon="6.0274">
        <ele>1367</ele>
        <time>2019-05-05T06:54:11Z</time>
      </trkpt>
      <trkpt lat="46.40542" lon="6.02732">
        <ele>1366</ele>
        <time>2019-05-05T06:54:17Z</time>
      </trkpt>
      <trkpt lat="46.40536" lon="6.02723">
        <ele>1364</ele>
        <time>2019-05-05T06:54:24Z</time>
      </trkpt>
      <trkpt lat="46.40527" lon="6.0271">
        <ele>1362</ele>
        <time>2019-05-05T06:54:33Z</time>
      </trkpt>
      <trkpt lat="46.40527" lon="6.02709">
        <ele>1362</ele>
        <time>2019-05-05T06:54:34Z</time>
      </trkpt>
      <trkpt lat="46.40526" lon="6.02705">
        <ele>1361</ele>
        <time>2019-05-05T06:54:36Z</time>
      </trkpt>
      <trkpt lat="46.40519" lon="6.02695">
        <ele>1361</ele>
        <time>2019-05-05T06:54:43Z</time>
      </trkpt>
      <trkpt lat="46.40514" lon="6.02685">
        <ele>1360</ele>
        <time>2019-05-05T06:54:49Z</time>
      </trkpt>
      <trkpt lat="46.40508" lon="6.02676">
        <ele>1360</ele>
        <time>2019-05-05T06:54:55Z</time>
      </trkpt>
      <trkpt lat="46.40501" lon="6.02665">
        <ele>1360</ele>
        <time>2019-05-05T06:55:03Z</time>
      </trkpt>
      <trkpt lat="46.40493" lon="6.0266">
        <ele>1360</ele>
        <time>2019-05-05T06:55:09Z</time>
      </trkpt>
      <trkpt lat="46.4048" lon="6.02641">
        <ele>1359</ele>
        <time>2019-05-05T06:55:23Z</time>
      </trkpt>
      <trkpt lat="46.4047" lon="6.02625">
        <ele>1358</ele>
        <time>2019-05-05T06:55:33Z</time>
      </trkpt>
      <trkpt lat="46.40466" lon="6.02618">
        <ele>1357</ele>
        <time>2019-05-05T06:55:38Z</time>
      </trkpt>
      <trkpt lat="46.40461" lon="6.02611">
        <ele>1356</ele>
        <time>2019-05-05T06:55:43Z</time>
      </trkpt>
      <trkpt lat="46.40452" lon="6.02597">
        <ele>1354</ele>
        <time>2019-05-05T06:55:53Z</time>
      </trkpt>
      <trkpt lat="46.40447" lon="6.0259">
        <ele>1353</ele>
        <time>2019-05-05T06:55:58Z</time>
      </trkpt>
      <trkpt lat="46.40439" lon="6.02578">
        <ele>1351</ele>
        <time>2019-05-05T06:56:06Z</time>
      </trkpt>
      <trkpt lat="46.40432" lon="6.02564">
        <ele>1350</ele>
        <time>2019-05-05T06:56:15Z</time>
      </trkpt>
      <trkpt lat="46.40425" lon="6.02551">
        <ele>1349</ele>
        <time>2019-05-05T06:56:23Z</time>
      </trkpt>
      <trkpt lat="46.40425" lon="6.0254">
        <ele>1348</ele>
        <time>2019-05-05T06:56:29Z</time>
      </trkpt>
      <trkpt lat="46.40421" lon="6.02531">
        <ele>1347</ele>
        <time>2019-05-05T06:56:33Z</time>
      </trkpt>
      <trkpt lat="46.4042" lon="6.02529">
        <ele>1347</ele>
        <time>2019-05-05T06:56:35Z</time>
      </trkpt>
      <trkpt lat="46.40411" lon="6.02505">
        <ele>1345</ele>
        <time>2019-05-05T06:56:49Z</time>
      </trkpt>
      <trkpt lat="46.40407" lon="6.02497">
        <ele>1345</ele>
        <time>2019-05-05T06:56:53Z</time>
      </trkpt>
      <trkpt lat="46.40403" lon="6.02489">
        <ele>1344</ele>
        <time>2019-05-05T06:56:58Z</time>
      </trkpt>
      <trkpt lat="46.404" lon="6.02481">
        <ele>1344</ele>
        <time>2019-05-05T06:57:03Z</time>
      </trkpt>
      <trkpt lat="46.40395" lon="6.02472">
        <ele>1343</ele>
        <time>2019-05-05T06:57:09Z</time>
      </trkpt>
      <trkpt lat="46.4039" lon="6.02462">
        <ele>1342</ele>
        <time>2019-05-05T06:57:15Z</time>
      </trkpt>
      <trkpt lat="46.40386" lon="6.02454">
        <ele>1341</ele>
        <time>2019-05-05T06:57:20Z</time>
      </trkpt>
      <trkpt lat="46.40376" lon="6.02447">
        <ele>1340</ele>
        <time>2019-05-05T06:57:28Z</time>
      </trkpt>
      <trkpt lat="46.40361" lon="6.02431">
        <ele>1338</ele>
        <time>2019-05-05T06:57:41Z</time>
      </trkpt>
      <trkpt lat="46.40361" lon="6.02429">
        <ele>1338</ele>
        <time>2019-05-05T06:57:43Z</time>
      </trkpt>
      <trkpt lat="46.40353" lon="6.02414">
        <ele>1337</ele>
        <time>2019-05-05T06:57:52Z</time>
      </trkpt>
      <trkpt lat="46.40342" lon="6.02391">
        <ele>1336</ele>
        <time>2019-05-05T06:58:05Z</time>
      </trkpt>
      <trkpt lat="46.40339" lon="6.02382">
        <ele>1335</ele>
        <time>2019-05-05T06:58:11Z</time>
      </trkpt>
      <trkpt lat="46.4033" lon="6.02357">
        <ele>1333</ele>
        <time>2019-05-05T06:58:25Z</time>
      </trkpt>
      <trkpt lat="46.40328" lon="6.02352">
        <ele>1332</ele>
        <time>2019-05-05T06:58:28Z</time>
      </trkpt>
      <trkpt lat="46.40316" lon="6.02336">
        <ele>1332</ele>
        <time>2019-05-05T06:58:40Z</time>
      </trkpt>
      <trkpt lat="46.4031" lon="6.0233">
        <ele>1331</ele>
        <time>2019-05-05T06:58:45Z</time>
      </trkpt>
      <trkpt lat="46.40308" lon="6.02328">
        <ele>1331</ele>
        <time>2019-05-05T06:58:47Z</time>
      </trkpt>
      <trkpt lat="46.40304" lon="6.02324">
        <ele>1331</ele>
        <time>2019-05-05T06:58:50Z</time>
      </trkpt>
      <trkpt lat="46.40298" lon="6.0232">
        <ele>1330</ele>
        <time>2019-05-05T06:58:55Z</time>
      </trkpt>
      <trkpt lat="46.40283" lon="6.02313">
        <ele>1329</ele>
        <time>2019-05-05T06:59:07Z</time>
      </trkpt>
      <trkpt lat="46.40275" lon="6.02311">
        <ele>1328</ele>
        <time>2019-05-05T06:59:12Z</time>
      </trkpt>
      <trkpt lat="46.40269" lon="6.0231">
        <ele>1328</ele>
        <time>2019-05-05T06:59:17Z</time>
      </trkpt>
      <trkpt lat="46.40259" lon="6.02308">
        <ele>1327</ele>
        <time>2019-05-05T06:59:24Z</time>
      </trkpt>
      <trkpt lat="46.40253" lon="6.02305">
        <ele>1326</ele>
        <time>2019-05-05T06:59:28Z</time>
      </trkpt>
      <trkpt lat="46.40246" lon="6.02299">
        <ele>1325</ele>
        <time>2019-05-05T06:59:34Z</time>
      </trkpt>
      <trkpt lat="46.40238" lon="6.02291">
        <ele>1324</ele>
        <time>2019-05-05T06:59:42Z</time>
      </trkpt>
      <trkpt lat="46.40232" lon="6.02288">
        <ele>1323</ele>
        <time>2019-05-05T06:59:46Z</time>
      </trkpt>
      <trkpt lat="46.40222" lon="6.02281">
        <ele>1321</ele>
        <time>2019-05-05T06:59:54Z</time>
      </trkpt>
      <trkpt lat="46.40215" lon="6.02278">
        <ele>1320</ele>
        <time>2019-05-05T07:00:00Z</time>
      </trkpt>
      <trkpt lat="46.40206" lon="6.02271">
        <ele>1319</ele>
        <time>2019-05-05T07:00:07Z</time>
      </trkpt>
      <trkpt lat="46.40187" lon="6.02269">
        <ele>1317</ele>
        <time>2019-05-05T07:00:20Z</time>
      </trkpt>
      <trkpt lat="46.40176" lon="6.02266">
        <ele>1317</ele>
        <time>2019-05-05T07:00:29Z</time>
      </trkpt>
      <trkpt lat="46.40173" lon="6.02265">
        <ele>1317</ele>
        <time>2019-05-05T07:00:31Z</time>
      </trkpt>
      <trkpt lat="46.40155" lon="6.02257">
        <ele>1316</ele>
        <time>2019-05-05T07:00:45Z</time>
      </trkpt>
      <trkpt lat="46.40153" lon="6.02256">
        <ele>1316</ele>
        <time>2019-05-05T07:00:46Z</time>
      </trkpt>
      <trkpt lat="46.40149" lon="6.02254">
        <ele>1316</ele>
        <time>2019-05-05T07:00:49Z</time>
      </trkpt>
      <trkpt lat="46.40142" lon="6.02253">
        <ele>1315</ele>
        <time>2019-05-05T07:00:54Z</time>
      </trkpt>
      <trkpt lat="46.40135" lon="6.02248">
        <ele>1315</ele>
        <time>2019-05-05T07:01:00Z</time>
      </trkpt>
      <trkpt lat="46.40123" lon="6.02243">
        <ele>1314</ele>
        <time>2019-05-05T07:01:09Z</time>
      </trkpt>
      <trkpt lat="46.4011" lon="6.02236">
        <ele>1313</ele>
        <time>2019-05-05T07:01:20Z</time>
      </trkpt>
      <trkpt lat="46.40106" lon="6.02233">
        <ele>1313</ele>
        <time>2019-05-05T07:01:23Z</time>
      </trkpt>
      <trkpt lat="46.40089" lon="6.02223">
        <ele>1312</ele>
        <time>2019-05-05T07:01:36Z</time>
      </trkpt>
      <trkpt lat="46.40084" lon="6.02219">
        <ele>1311</ele>
        <time>2019-05-05T07:01:40Z</time>
      </trkpt>
      <trkpt lat="46.40076" lon="6.02214">
        <ele>1311</ele>
        <time>2019-05-05T07:01:46Z</time>
      </trkpt>
      <trkpt lat="46.40071" lon="6.02211">
        <ele>1311</ele>
        <time>2019-05-05T07:01:50Z</time>
      </trkpt>
      <trkpt lat="46.40055" lon="6.02198">
        <ele>1310</ele>
        <time>2019-05-05T07:02:03Z</time>
      </trkpt>
      <trkpt lat="46.40045" lon="6.02189">
        <ele>1309</ele>
        <time>2019-05-05T07:02:12Z</time>
      </trkpt>
      <trkpt lat="46.40039" lon="6.02181">
        <ele>1308</ele>
        <time>2019-05-05T07:02:18Z</time>
      </trkpt>
      <trkpt lat="46.40027" lon="6.02174">
        <ele>1308</ele>
        <time>2019-05-05T07:02:27Z</time>
      </trkpt>
      <trkpt lat="46.40027" lon="6.02162">
        <ele>1308</ele>
        <time>2019-05-05T07:02:33Z</time>
      </trkpt>
      <trkpt lat="46.40015" lon="6.02144">
        <ele>1308</ele>
        <time>2019-05-05T07:02:45Z</time>
      </trkpt>
      <trkpt lat="46.40004" lon="6.02123">
        <ele>1308</ele>
        <time>2019-05-05T07:02:58Z</time>
      </trkpt>
      <trkpt lat="46.40002" lon="6.02121">
        <ele>1308</ele>
        <time>2019-05-05T07:03:00Z</time>
      </trkpt>
      <trkpt lat="46.3999" lon="6.02099">
        <ele>1309</ele>
        <time>2019-05-05T07:03:14Z</time>
      </trkpt>
      <trkpt lat="46.39977" lon="6.0208">
        <ele>1308</ele>
        <time>2019-05-05T07:03:27Z</time>
      </trkpt>
      <trkpt lat="46.39963" lon="6.0206">
        <ele>1307</ele>
        <time>2019-05-05T07:03:42Z</time>
      </trkpt>
      <trkpt lat="46.39958" lon="6.02049">
        <ele>1306</ele>
        <time>2019-05-05T07:03:48Z</time>
      </trkpt>
      <trkpt lat="46.39946" lon="6.02028">
        <ele>1304</ele>
        <time>2019-05-05T07:04:02Z</time>
      </trkpt>
      <trkpt lat="46.39937" lon="6.0201">
        <ele>1303</ele>
        <time>2019-05-05T07:04:13Z</time>
      </trkpt>
      <trkpt lat="46.39924" lon="6.01993">
        <ele>1303</ele>
        <time>2019-05-05T07:04:26Z</time>
      </trkpt>
      <trkpt lat="46.39917" lon="6.01989">
        <ele>1303</ele>
        <time>2019-05-05T07:04:31Z</time>
      </trkpt>
      <trkpt lat="46.39909" lon="6.0198">
        <ele>1302</ele>
        <time>2019-05-05T07:04:38Z</time>
      </trkpt>
      <trkpt lat="46.399" lon="6.01963">
        <ele>1302</ele>
        <time>2019-05-05T07:04:49Z</time>
      </trkpt>
      <trkpt lat="46.39896" lon="6.01957">
        <ele>1301</ele>
        <time>2019-05-05T07:04:53Z</time>
      </trkpt>
      <trkpt lat="46.39889" lon="6.0195">
        <ele>1301</ele>
        <time>2019-05-05T07:04:59Z</time>
      </trkpt>
      <trkpt lat="46.39878" lon="6.01931">
        <ele>1299</ele>
        <time>2019-05-05T07:05:12Z</time>
      </trkpt>
      <trkpt lat="46.39865" lon="6.01913">
        <ele>1298</ele>
        <time>2019-05-05T07:05:25Z</time>
      </trkpt>
      <trkpt lat="46.39854" lon="6.01892">
        <ele>1296</ele>
        <time>2019-05-05T07:05:38Z</time>
      </trkpt>
      <trkpt lat="46.39849" lon="6.01885">
        <ele>1296</ele>
        <time>2019-05-05T07:05:43Z</time>
      </trkpt>
      <trkpt lat="46.3984" lon="6.01874">
        <ele>1295</ele>
        <time>2019-05-05T07:05:51Z</time>
      </trkpt>
      <trkpt lat="46.39829" lon="6.01851">
        <ele>1293</ele>
        <time>2019-05-05T07:06:06Z</time>
      </trkpt>
      <trkpt lat="46.39815" lon="6.01832">
        <ele>1293</ele>
        <time>2019-05-05T07:06:20Z</time>
      </trkpt>
      <trkpt lat="46.39809" lon="6.01822">
        <ele>1292</ele>
        <time>2019-05-05T07:06:26Z</time>
      </trkpt>
      <trkpt lat="46.39802" lon="6.01797">
        <ele>1291</ele>
        <time>2019-05-05T07:06:40Z</time>
      </trkpt>
      <trkpt lat="46.39801" lon="6.01791">
        <ele>1291</ele>
        <time>2019-05-05T07:06:43Z</time>
      </trkpt>
      <trkpt lat="46.39798" lon="6.01768">
        <ele>1290</ele>
        <time>2019-05-05T07:06:54Z</time>
      </trkpt>
      <trkpt lat="46.39799" lon="6.01765">
        <ele>1290</ele>
        <time>2019-05-05T07:06:56Z</time>
      </trkpt>
      <trkpt lat="46.39799" lon="6.01763">
        <ele>1290</ele>
        <time>2019-05-05T07:06:57Z</time>
      </trkpt>
      <trkpt lat="46.39791" lon="6.01744">
        <ele>1290</ele>
        <time>2019-05-05T07:07:08Z</time>
      </trkpt>
      <trkpt lat="46.3979" lon="6.01745">
        <ele>1290</ele>
        <time>2019-05-05T07:07:09Z</time>
      </trkpt>
      <trkpt lat="46.39788" lon="6.01743">
        <ele>1290</ele>
        <time>2019-05-05T07:07:10Z</time>
      </trkpt>
      <trkpt lat="46.39786" lon="6.01743">
        <ele>1290</ele>
        <time>2019-05-05T07:07:12Z</time>
      </trkpt>
      <trkpt lat="46.39785" lon="6.01742">
        <ele>1290</ele>
        <time>2019-05-05T07:07:13Z</time>
      </trkpt>
      <trkpt lat="46.39785" lon="6.01741">
        <ele>1290</ele>
        <time>2019-05-05T07:07:13Z</time>
      </trkpt>
      <trkpt lat="46.39776" lon="6.01732">
        <ele>1290</ele>
        <time>2019-05-05T07:07:21Z</time>
      </trkpt>
      <trkpt lat="46.3977" lon="6.01727">
        <ele>1290</ele>
        <time>2019-05-05T07:07:26Z</time>
      </trkpt>
      <trkpt lat="46.39757" lon="6.01709">
        <ele>1291</ele>
        <time>2019-05-05T07:07:39Z</time>
      </trkpt>
      <trkpt lat="46.39747" lon="6.01686">
        <ele>1292</ele>
        <time>2019-05-05T07:07:52Z</time>
      </trkpt>
      <trkpt lat="46.39737" lon="6.01665">
        <ele>1292</ele>
        <time>2019-05-05T07:08:05Z</time>
      </trkpt>
      <trkpt lat="46.39724" lon="6.01644">
        <ele>1291</ele>
        <time>2019-05-05T07:08:19Z</time>
      </trkpt>
      <trkpt lat="46.39716" lon="6.01636">
        <ele>1291</ele>
        <time>2019-05-05T07:08:27Z</time>
      </trkpt>
      <trkpt lat="46.39703" lon="6.01624">
        <ele>1291</ele>
        <time>2019-05-05T07:08:38Z</time>
      </trkpt>
      <trkpt lat="46.39685" lon="6.0161">
        <ele>1290</ele>
        <time>2019-05-05T07:08:52Z</time>
      </trkpt>
      <trkpt lat="46.3967" lon="6.01591">
        <ele>1289</ele>
        <time>2019-05-05T07:09:06Z</time>
      </trkpt>
      <trkpt lat="46.39659" lon="6.01577">
        <ele>1288</ele>
        <time>2019-05-05T07:09:17Z</time>
      </trkpt>
      <trkpt lat="46.39648" lon="6.01561">
        <ele>1288</ele>
        <time>2019-05-05T07:09:29Z</time>
      </trkpt>
      <trkpt lat="46.39641" lon="6.01553">
        <ele>1287</ele>
        <time>2019-05-05T07:09:35Z</time>
      </trkpt>
      <trkpt lat="46.39634" lon="6.01545">
        <ele>1287</ele>
        <time>2019-05-05T07:09:42Z</time>
      </trkpt>
      <trkpt lat="46.39634" lon="6.01541">
        <ele>1287</ele>
        <time>2019-05-05T07:09:43Z</time>
      </trkpt>
      <trkpt lat="46.39631" lon="6.01539">
        <ele>1286</ele>
        <time>2019-05-05T07:09:46Z</time>
      </trkpt>
      <trkpt lat="46.39632" lon="6.01533">
        <ele>1286</ele>
        <time>2019-05-05T07:09:48Z</time>
      </trkpt>
      <trkpt lat="46.39632" lon="6.01532">
        <ele>1286</ele>
        <time>2019-05-05T07:09:49Z</time>
      </trkpt>
      <trkpt lat="46.39629" lon="6.01529">
        <ele>1286</ele>
        <time>2019-05-05T07:09:51Z</time>
      </trkpt>
      <trkpt lat="46.39615" lon="6.01512">
        <ele>1285</ele>
        <time>2019-05-05T07:10:05Z</time>
      </trkpt>
      <trkpt lat="46.39607" lon="6.015">
        <ele>1284</ele>
        <time>2019-05-05T07:10:13Z</time>
      </trkpt>
      <trkpt lat="46.396" lon="6.01489">
        <ele>1284</ele>
        <time>2019-05-05T07:10:21Z</time>
      </trkpt>
      <trkpt lat="46.39593" lon="6.01477">
        <ele>1283</ele>
        <time>2019-05-05T07:10:28Z</time>
      </trkpt>
      <trkpt lat="46.39584" lon="6.01458">
        <ele>1282</ele>
        <time>2019-05-05T07:10:40Z</time>
      </trkpt>
      <trkpt lat="46.39576" lon="6.01435">
        <ele>1280</ele>
        <time>2019-05-05T07:10:53Z</time>
      </trkpt>
      <trkpt lat="46.39569" lon="6.01408">
        <ele>1278</ele>
        <time>2019-05-05T07:11:08Z</time>
      </trkpt>
      <trkpt lat="46.39565" lon="6.0138">
        <ele>1277</ele>
        <time>2019-05-05T07:11:22Z</time>
      </trkpt>
      <trkpt lat="46.39561" lon="6.01372">
        <ele>1276</ele>
        <time>2019-05-05T07:11:26Z</time>
      </trkpt>
      <trkpt lat="46.39557" lon="6.01365">
        <ele>1275</ele>
        <time>2019-05-05T07:11:31Z</time>
      </trkpt>
      <trkpt lat="46.39546" lon="6.01343">
        <ele>1273</ele>
        <time>2019-05-05T07:11:45Z</time>
      </trkpt>
      <trkpt lat="46.39539" lon="6.01332">
        <ele>1272</ele>
        <time>2019-05-05T07:11:52Z</time>
      </trkpt>
      <trkpt lat="46.3953" lon="6.01317">
        <ele>1270</ele>
        <time>2019-05-05T07:12:02Z</time>
      </trkpt>
      <trkpt lat="46.39514" lon="6.01301">
        <ele>1269</ele>
        <time>2019-05-05T07:12:16Z</time>
      </trkpt>
      <trkpt lat="46.39502" lon="6.01285">
        <ele>1269</ele>
        <time>2019-05-05T07:12:28Z</time>
      </trkpt>
      <trkpt lat="46.3949" lon="6.01267">
        <ele>1269</ele>
        <time>2019-05-05T07:12:41Z</time>
      </trkpt>
      <trkpt lat="46.39481" lon="6.01243">
        <ele>1270</ele>
        <time>2019-05-05T07:12:54Z</time>
      </trkpt>
      <trkpt lat="46.3948" lon="6.01239">
        <ele>1270</ele>
        <time>2019-05-05T07:12:56Z</time>
      </trkpt>
      <trkpt lat="46.39479" lon="6.01234">
        <ele>1270</ele>
        <time>2019-05-05T07:12:59Z</time>
      </trkpt>
      <trkpt lat="46.39478" lon="6.01206">
        <ele>1268</ele>
        <time>2019-05-05T07:13:13Z</time>
      </trkpt>
      <trkpt lat="46.39479" lon="6.0118">
        <ele>1267</ele>
        <time>2019-05-05T07:13:26Z</time>
      </trkpt>
      <trkpt lat="46.39481" lon="6.01167">
        <ele>1266</ele>
        <time>2019-05-05T07:13:33Z</time>
      </trkpt>
      <trkpt lat="46.39483" lon="6.01156">
        <ele>1265</ele>
        <time>2019-05-05T07:13:39Z</time>
      </trkpt>
      <trkpt lat="46.39485" lon="6.01144">
        <ele>1265</ele>
        <time>2019-05-05T07:13:45Z</time>
      </trkpt>
      <trkpt lat="46.39484" lon="6.01137">
        <ele>1264</ele>
        <time>2019-05-05T07:13:48Z</time>
      </trkpt>
      <trkpt lat="46.39482" lon="6.0113">
        <ele>1264</ele>
        <time>2019-05-05T07:13:52Z</time>
      </trkpt>
      <trkpt lat="46.39473" lon="6.01102">
        <ele>1264</ele>
        <time>2019-05-05T07:14:07Z</time>
      </trkpt>
      <trkpt lat="46.39468" lon="6.01082">
        <ele>1263</ele>
        <time>2019-05-05T07:14:18Z</time>
      </trkpt>
      <trkpt lat="46.39464" lon="6.01056">
        <ele>1261</ele>
        <time>2019-05-05T07:14:31Z</time>
      </trkpt>
      <trkpt lat="46.39464" lon="6.01048">
        <ele>1260</ele>
        <time>2019-05-05T07:14:36Z</time>
      </trkpt>
      <trkpt lat="46.39459" lon="6.01021">
        <ele>1258</ele>
        <time>2019-05-05T07:14:49Z</time>
      </trkpt>
      <trkpt lat="46.39458" lon="6.01005">
        <ele>1257</ele>
        <time>2019-05-05T07:14:57Z</time>
      </trkpt>
      <trkpt lat="46.39447" lon="6.00983">
        <ele>1256</ele>
        <time>2019-05-05T07:15:11Z</time>
      </trkpt>
      <trkpt lat="46.39435" lon="6.00964">
        <ele>1255</ele>
        <time>2019-05-05T07:15:24Z</time>
      </trkpt>
      <trkpt lat="46.39424" lon="6.00943">
        <ele>1254</ele>
        <time>2019-05-05T07:15:37Z</time>
      </trkpt>
      <trkpt lat="46.3941" lon="6.00926">
        <ele>1253</ele>
        <time>2019-05-05T07:15:50Z</time>
      </trkpt>
      <trkpt lat="46.39399" lon="6.00904">
        <ele>1253</ele>
        <time>2019-05-05T07:16:04Z</time>
      </trkpt>
      <trkpt lat="46.39388" lon="6.00882">
        <ele>1254</ele>
        <time>2019-05-05T07:16:17Z</time>
      </trkpt>
      <trkpt lat="46.39377" lon="6.00861">
        <ele>1254</ele>
        <time>2019-05-05T07:16:31Z</time>
      </trkpt>
      <trkpt lat="46.39367" lon="6.00838">
        <ele>1254</ele>
        <time>2019-05-05T07:16:44Z</time>
      </trkpt>
      <trkpt lat="46.39357" lon="6.00816">
        <ele>1255</ele>
        <time>2019-05-05T07:16:57Z</time>
      </trkpt>
      <trkpt lat="46.39353" lon="6.00807">
        <ele>1256</ele>
        <time>2019-05-05T07:17:03Z</time>
      </trkpt>
      <trkpt lat="46.39347" lon="6.00795">
        <ele>1256</ele>
        <time>2019-05-05T07:17:10Z</time>
      </trkpt>
      <trkpt lat="46.39332" lon="6.00783">
        <ele>1258</ele>
        <time>2019-05-05T07:17:22Z</time>
      </trkpt>
      <trkpt lat="46.39317" lon="6.00768">
        <ele>1259</ele>
        <time>2019-05-05T07:17:36Z</time>
      </trkpt>
      <trkpt lat="46.39304" lon="6.00746">
        <ele>1261</ele>
        <time>2019-05-05T07:17:50Z</time>
      </trkpt>
      <trkpt lat="46.393" lon="6.00739">
        <ele>1261</ele>
        <time>2019-05-05T07:17:55Z</time>
      </trkpt>
      <trkpt lat="46.39293" lon="6.00734">
        <ele>1262</ele>
        <time>2019-05-05T07:18:00Z</time>
      </trkpt>
      <trkpt lat="46.39278" lon="6.0072">
        <ele>1263</ele>
        <time>2019-05-05T07:18:13Z</time>
      </trkpt>
      <trkpt lat="46.39273" lon="6.00713">
        <ele>1263</ele>
        <time>2019-05-05T07:18:18Z</time>
      </trkpt>
      <trkpt lat="46.39263" lon="6.00702">
        <ele>1264</ele>
        <time>2019-05-05T07:18:27Z</time>
      </trkpt>
      <trkpt lat="46.39245" lon="6.00705">
        <ele>1263</ele>
        <time>2019-05-05T07:18:40Z</time>
      </trkpt>
      <trkpt lat="46.39236" lon="6.00705">
        <ele>1263</ele>
        <time>2019-05-05T07:18:46Z</time>
      </trkpt>
      <trkpt lat="46.39232" lon="6.00706">
        <ele>1263</ele>
        <time>2019-05-05T07:18:50Z</time>
      </trkpt>
      <trkpt lat="46.39223" lon="6.00709">
        <ele>1263</ele>
        <time>2019-05-05T07:18:56Z</time>
      </trkpt>
      <trkpt lat="46.39215" lon="6.00709">
        <ele>1263</ele>
        <time>2019-05-05T07:19:02Z</time>
      </trkpt>
      <trkpt lat="46.39204" lon="6.00711">
        <ele>1263</ele>
        <time>2019-05-05T07:19:10Z</time>
      </trkpt>
      <trkpt lat="46.39189" lon="6.00712">
        <ele>1263</ele>
        <time>2019-05-05T07:19:21Z</time>
      </trkpt>
      <trkpt lat="46.39176" lon="6.00715">
        <ele>1264</ele>
        <time>2019-05-05T07:19:30Z</time>
      </trkpt>
      <trkpt lat="46.39171" lon="6.00717">
        <ele>1264</ele>
        <time>2019-05-05T07:19:34Z</time>
      </trkpt>
      <trkpt lat="46.39155" lon="6.00719">
        <ele>1265</ele>
        <time>2019-05-05T07:19:45Z</time>
      </trkpt>
      <trkpt lat="46.3914" lon="6.0072">
        <ele>1267</ele>
        <time>2019-05-05T07:19:57Z</time>
      </trkpt>
      <trkpt lat="46.39127" lon="6.00726">
        <ele>1268</ele>
        <time>2019-05-05T07:20:06Z</time>
      </trkpt>
      <trkpt lat="46.39118" lon="6.00729">
        <ele>1268</ele>
        <time>2019-05-05T07:20:14Z</time>
      </trkpt>
      <trkpt lat="46.39107" lon="6.00735">
        <ele>1269</ele>
        <time>2019-05-05T07:20:22Z</time>
      </trkpt>
      <trkpt lat="46.39102" lon="6.00736">
        <ele>1269</ele>
        <time>2019-05-05T07:20:25Z</time>
      </trkpt>
      <trkpt lat="46.39095" lon="6.00736">
        <ele>1269</ele>
        <time>2019-05-05T07:20:30Z</time>
      </trkpt>
      <trkpt lat="46.39089" lon="6.00731">
        <ele>1269</ele>
        <time>2019-05-05T07:20:36Z</time>
      </trkpt>
      <trkpt lat="46.39083" lon="6.00719">
        <ele>1270</ele>
        <time>2019-05-05T07:20:43Z</time>
      </trkpt>
      <trkpt lat="46.3908" lon="6.00711">
        <ele>1270</ele>
        <time>2019-05-05T07:20:47Z</time>
      </trkpt>
      <trkpt lat="46.39079" lon="6.00698">
        <ele>1271</ele>
        <time>2019-05-05T07:20:54Z</time>
      </trkpt>
      <trkpt lat="46.39075" lon="6.0068">
        <ele>1272</ele>
        <time>2019-05-05T07:21:03Z</time>
      </trkpt>
      <trkpt lat="46.39075" lon="6.00678">
        <ele>1272</ele>
        <time>2019-05-05T07:21:04Z</time>
      </trkpt>
      <trkpt lat="46.39075" lon="6.00681">
        <ele>1272</ele>
        <time>2019-05-05T07:21:06Z</time>
      </trkpt>
      <trkpt lat="46.39073" lon="6.0068">
        <ele>1272</ele>
        <time>2019-05-05T07:21:07Z</time>
      </trkpt>
      <trkpt lat="46.39072" lon="6.00676">
        <ele>1272</ele>
        <time>2019-05-05T07:21:10Z</time>
      </trkpt>
      <trkpt lat="46.39067" lon="6.00671">
        <ele>1272</ele>
        <time>2019-05-05T07:21:14Z</time>
      </trkpt>
      <trkpt lat="46.39065" lon="6.00669">
        <ele>1272</ele>
        <time>2019-05-05T07:21:16Z</time>
      </trkpt>
      <trkpt lat="46.39065" lon="6.00661">
        <ele>1272</ele>
        <time>2019-05-05T07:21:20Z</time>
      </trkpt>
      <trkpt lat="46.3906" lon="6.00648">
        <ele>1272</ele>
        <time>2019-05-05T07:21:27Z</time>
      </trkpt>
      <trkpt lat="46.3906" lon="6.00649">
        <ele>1272</ele>
        <time>2019-05-05T07:21:27Z</time>
      </trkpt>
      <trkpt lat="46.39061" lon="6.00649">
        <ele>1272</ele>
        <time>2019-05-05T07:21:28Z</time>
      </trkpt>
      <trkpt lat="46.39064" lon="6.00652">
        <ele>1272</ele>
        <time>2019-05-05T07:21:31Z</time>
      </trkpt>
      <trkpt lat="46.39082" lon="6.0066">
        <ele>1273</ele>
        <time>2019-05-05T07:21:44Z</time>
      </trkpt>
      <trkpt lat="46.39085" lon="6.00659">
        <ele>1273</ele>
        <time>2019-05-05T07:21:47Z</time>
      </trkpt>
      <trkpt lat="46.39086" lon="6.00659">
        <ele>1273</ele>
        <time>2019-05-05T07:21:48Z</time>
      </trkpt>
      <trkpt lat="46.39089" lon="6.00658">
        <ele>1273</ele>
        <time>2019-05-05T07:21:50Z</time>
      </trkpt>
      <trkpt lat="46.39104" lon="6.00644">
        <ele>1274</ele>
        <time>2019-05-05T07:22:03Z</time>
      </trkpt>
      <trkpt lat="46.3911" lon="6.00632">
        <ele>1274</ele>
        <time>2019-05-05T07:22:10Z</time>
      </trkpt>
      <trkpt lat="46.39121" lon="6.00611">
        <ele>1274</ele>
        <time>2019-05-05T07:22:23Z</time>
      </trkpt>
      <trkpt lat="46.39134" lon="6.00592">
        <ele>1276</ele>
        <time>2019-05-05T07:22:37Z</time>
      </trkpt>
      <trkpt lat="46.39139" lon="6.00584">
        <ele>1278</ele>
        <time>2019-05-05T07:22:42Z</time>
      </trkpt>
      <trkpt lat="46.39145" lon="6.00575">
        <ele>1279</ele>
        <time>2019-05-05T07:22:48Z</time>
      </trkpt>
      <trkpt lat="46.39158" lon="6.00554">
        <ele>1283</ele>
        <time>2019-05-05T07:23:02Z</time>
      </trkpt>
      <trkpt lat="46.3917" lon="6.00532">
        <ele>1288</ele>
        <time>2019-05-05T07:23:17Z</time>
      </trkpt>
      <trkpt lat="46.3918" lon="6.00509">
        <ele>1292</ele>
        <time>2019-05-05T07:23:31Z</time>
      </trkpt>
      <trkpt lat="46.39194" lon="6.00493">
        <ele>1293</ele>
        <time>2019-05-05T07:23:44Z</time>
      </trkpt>
      <trkpt lat="46.39212" lon="6.00481">
        <ele>1291</ele>
        <time>2019-05-05T07:23:58Z</time>
      </trkpt>
      <trkpt lat="46.39215" lon="6.00479">
        <ele>1291</ele>
        <time>2019-05-05T07:24:01Z</time>
      </trkpt>
      <trkpt lat="46.39223" lon="6.00473">
        <ele>1290</ele>
        <time>2019-05-05T07:24:07Z</time>
      </trkpt>
      <trkpt lat="46.3923" lon="6.00463">
        <ele>1290</ele>
        <time>2019-05-05T07:24:14Z</time>
      </trkpt>
      <trkpt lat="46.39231" lon="6.00457">
        <ele>1290</ele>
        <time>2019-05-05T07:24:17Z</time>
      </trkpt>
      <trkpt lat="46.39238" lon="6.00454">
        <ele>1289</ele>
        <time>2019-05-05T07:24:22Z</time>
      </trkpt>
      <trkpt lat="46.39241" lon="6.00448">
        <ele>1289</ele>
        <time>2019-05-05T07:24:26Z</time>
      </trkpt>
      <trkpt lat="46.39256" lon="6.00431">
        <ele>1287</ele>
        <time>2019-05-05T07:24:39Z</time>
      </trkpt>
      <trkpt lat="46.39257" lon="6.0043">
        <ele>1287</ele>
        <time>2019-05-05T07:24:40Z</time>
      </trkpt>
      <trkpt lat="46.3927" lon="6.00412">
        <ele>1286</ele>
        <time>2019-05-05T07:24:54Z</time>
      </trkpt>
      <trkpt lat="46.39269" lon="6.00403">
        <ele>1288</ele>
        <time>2019-05-05T07:24:59Z</time>
      </trkpt>
      <trkpt lat="46.39267" lon="6.00397">
        <ele>1288</ele>
        <time>2019-05-05T07:25:02Z</time>
      </trkpt>
      <trkpt lat="46.39264" lon="6.00393">
        <ele>1289</ele>
        <time>2019-05-05T07:25:05Z</time>
      </trkpt>
      <trkpt lat="46.39261" lon="6.00391">
        <ele>1290</ele>
        <time>2019-05-05T07:25:07Z</time>
      </trkpt>
      <trkpt lat="46.39246" lon="6.00378">
        <ele>1292</ele>
        <time>2019-05-05T07:25:20Z</time>
      </trkpt>
      <trkpt lat="46.39243" lon="6.00369">
        <ele>1293</ele>
        <time>2019-05-05T07:25:25Z</time>
      </trkpt>
      <trkpt lat="46.39239" lon="6.00357">
        <ele>1294</ele>
        <time>2019-05-05T07:25:32Z</time>
      </trkpt>
      <trkpt lat="46.39232" lon="6.00334">
        <ele>1295</ele>
        <time>2019-05-05T07:25:44Z</time>
      </trkpt>
      <trkpt lat="46.39226" lon="6.00309">
        <ele>1295</ele>
        <time>2019-05-05T07:25:58Z</time>
      </trkpt>
      <trkpt lat="46.39222" lon="6.00295">
        <ele>1294</ele>
        <time>2019-05-05T07:26:05Z</time>
      </trkpt>
      <trkpt lat="46.39219" lon="6.00285">
        <ele>1294</ele>
        <time>2019-05-05T07:26:11Z</time>
      </trkpt>
      <trkpt lat="46.39211" lon="6.00264">
        <ele>1293</ele>
        <time>2019-05-05T07:26:23Z</time>
      </trkpt>
      <trkpt lat="46.39202" lon="6.00239">
        <ele>1293</ele>
        <time>2019-05-05T07:26:37Z</time>
      </trkpt>
      <trkpt lat="46.39197" lon="6.00222">
        <ele>1293</ele>
        <time>2019-05-05T07:26:46Z</time>
      </trkpt>
      <trkpt lat="46.39188" lon="6.00201">
        <ele>1293</ele>
        <time>2019-05-05T07:26:58Z</time>
      </trkpt>
      <trkpt lat="46.39178" lon="6.0018">
        <ele>1294</ele>
        <time>2019-05-05T07:27:11Z</time>
      </trkpt>
      <trkpt lat="46.39168" lon="6.00165">
        <ele>1294</ele>
        <time>2019-05-05T07:27:21Z</time>
      </trkpt>
      <trkpt lat="46.39151" lon="6.00154">
        <ele>1294</ele>
        <time>2019-05-05T07:27:35Z</time>
      </trkpt>
      <trkpt lat="46.39133" lon="6.00144">
        <ele>1294</ele>
        <time>2019-05-05T07:27:49Z</time>
      </trkpt>
      <trkpt lat="46.39126" lon="6.00141">
        <ele>1294</ele>
        <time>2019-05-05T07:27:54Z</time>
      </trkpt>
      <trkpt lat="46.3911" lon="6.00125">
        <ele>1292</ele>
        <time>2019-05-05T07:28:08Z</time>
      </trkpt>
      <trkpt lat="46.39094" lon="6.00113">
        <ele>1292</ele>
        <time>2019-05-05T07:28:21Z</time>
      </trkpt>
      <trkpt lat="46.39079" lon="6.00094">
        <ele>1292</ele>
        <time>2019-05-05T07:28:36Z</time>
      </trkpt>
      <trkpt lat="46.39074" lon="6.00071">
        <ele>1292</ele>
        <time>2019-05-05T07:28:48Z</time>
      </trkpt>
      <trkpt lat="46.39071" lon="6.0006">
        <ele>1292</ele>
        <time>2019-05-05T07:28:53Z</time>
      </trkpt>
      <trkpt lat="46.39071" lon="6.00056">
        <ele>1292</ele>
        <time>2019-05-05T07:28:55Z</time>
      </trkpt>
      <trkpt lat="46.39068" lon="6.00039">
        <ele>1292</ele>
        <time>2019-05-05T07:29:04Z</time>
      </trkpt>
      <trkpt lat="46.39065" lon="6.00013">
        <ele>1292</ele>
        <time>2019-05-05T07:29:17Z</time>
      </trkpt>
      <trkpt lat="46.39057" lon="5.99989">
        <ele>1293</ele>
        <time>2019-05-05T07:29:30Z</time>
      </trkpt>
      <trkpt lat="46.39043" lon="5.99972">
        <ele>1293</ele>
        <time>2019-05-05T07:29:44Z</time>
      </trkpt>
      <trkpt lat="46.39039" lon="5.99967">
        <ele>1293</ele>
        <time>2019-05-05T07:29:48Z</time>
      </trkpt>
      <trkpt lat="46.39031" lon="5.99943">
        <ele>1292</ele>
        <time>2019-05-05T07:30:01Z</time>
      </trkpt>
      <trkpt lat="46.3903" lon="5.9994">
        <ele>1292</ele>
        <time>2019-05-05T07:30:02Z</time>
      </trkpt>
      <trkpt lat="46.3903" lon="5.99913">
        <ele>1293</ele>
        <time>2019-05-05T07:30:16Z</time>
      </trkpt>
      <trkpt lat="46.39029" lon="5.99896">
        <ele>1294</ele>
        <time>2019-05-05T07:30:25Z</time>
      </trkpt>
      <trkpt lat="46.39028" lon="5.99894">
        <ele>1294</ele>
        <time>2019-05-05T07:30:26Z</time>
      </trkpt>
      <trkpt lat="46.39024" lon="5.99877">
        <ele>1294</ele>
        <time>2019-05-05T07:30:35Z</time>
      </trkpt>
      <trkpt lat="46.39022" lon="5.9987">
        <ele>1294</ele>
        <time>2019-05-05T07:30:39Z</time>
      </trkpt>
      <trkpt lat="46.39018" lon="5.99857">
        <ele>1295</ele>
        <time>2019-05-05T07:30:46Z</time>
      </trkpt>
      <trkpt lat="46.39017" lon="5.99853">
        <ele>1295</ele>
        <time>2019-05-05T07:30:48Z</time>
      </trkpt>
      <trkpt lat="46.39009" lon="5.99829">
        <ele>1296</ele>
        <time>2019-05-05T07:31:01Z</time>
      </trkpt>
      <trkpt lat="46.39008" lon="5.99824">
        <ele>1296</ele>
        <time>2019-05-05T07:31:04Z</time>
      </trkpt>
      <trkpt lat="46.39003" lon="5.998">
        <ele>1297</ele>
        <time>2019-05-05T07:31:17Z</time>
      </trkpt>
      <trkpt lat="46.38998" lon="5.99793">
        <ele>1297</ele>
        <time>2019-05-05T07:31:22Z</time>
      </trkpt>
      <trkpt lat="46.38995" lon="5.99791">
        <ele>1297</ele>
        <time>2019-05-05T07:31:24Z</time>
      </trkpt>
      <trkpt lat="46.38986" lon="5.99784">
        <ele>1297</ele>
        <time>2019-05-05T07:31:31Z</time>
      </trkpt>
      <trkpt lat="46.38979" lon="5.99778">
        <ele>1297</ele>
        <time>2019-05-05T07:31:37Z</time>
      </trkpt>
      <trkpt lat="46.38972" lon="5.99775">
        <ele>1297</ele>
        <time>2019-05-05T07:31:42Z</time>
      </trkpt>
      <trkpt lat="46.38969" lon="5.99773">
        <ele>1297</ele>
        <time>2019-05-05T07:31:44Z</time>
      </trkpt>
      <trkpt lat="46.3896" lon="5.99766">
        <ele>1296</ele>
        <time>2019-05-05T07:31:52Z</time>
      </trkpt>
      <trkpt lat="46.38954" lon="5.99759">
        <ele>1296</ele>
        <time>2019-05-05T07:31:58Z</time>
      </trkpt>
      <trkpt lat="46.38946" lon="5.9975">
        <ele>1296</ele>
        <time>2019-05-05T07:32:05Z</time>
      </trkpt>
      <trkpt lat="46.38935" lon="5.9973">
        <ele>1297</ele>
        <time>2019-05-05T07:32:18Z</time>
      </trkpt>
      <trkpt lat="46.38934" lon="5.9972">
        <ele>1297</ele>
        <time>2019-05-05T07:32:23Z</time>
      </trkpt>
      <trkpt lat="46.38933" lon="5.99703">
        <ele>1298</ele>
        <time>2019-05-05T07:32:31Z</time>
      </trkpt>
      <trkpt lat="46.38931" lon="5.99691">
        <ele>1298</ele>
        <time>2019-05-05T07:32:38Z</time>
      </trkpt>
      <trkpt lat="46.3893" lon="5.99687">
        <ele>1298</ele>
        <time>2019-05-05T07:32:40Z</time>
      </trkpt>
      <trkpt lat="46.3893" lon="5.99684">
        <ele>1298</ele>
        <time>2019-05-05T07:32:42Z</time>
      </trkpt>
      <trkpt lat="46.38931" lon="5.99678">
        <ele>1299</ele>
        <time>2019-05-05T07:32:45Z</time>
      </trkpt>
      <trkpt lat="46.38936" lon="5.99662">
        <ele>1299</ele>
        <time>2019-05-05T07:32:54Z</time>
      </trkpt>
      <trkpt lat="46.3894" lon="5.99646">
        <ele>1299</ele>
        <time>2019-05-05T07:33:02Z</time>
      </trkpt>
      <trkpt lat="46.38939" lon="5.99643">
        <ele>1299</ele>
        <time>2019-05-05T07:33:03Z</time>
      </trkpt>
      <trkpt lat="46.38932" lon="5.99617">
        <ele>1299</ele>
        <time>2019-05-05T07:33:17Z</time>
      </trkpt>
      <trkpt lat="46.38927" lon="5.99601">
        <ele>1299</ele>
        <time>2019-05-05T07:33:26Z</time>
      </trkpt>
      <trkpt lat="46.38921" lon="5.99594">
        <ele>1299</ele>
        <time>2019-05-05T07:33:32Z</time>
      </trkpt>
      <trkpt lat="46.38914" lon="5.99586">
        <ele>1299</ele>
        <time>2019-05-05T07:33:38Z</time>
      </trkpt>
      <trkpt lat="46.38904" lon="5.99565">
        <ele>1299</ele>
        <time>2019-05-05T07:33:51Z</time>
      </trkpt>
      <trkpt lat="46.38902" lon="5.99557">
        <ele>1299</ele>
        <time>2019-05-05T07:33:55Z</time>
      </trkpt>
      <trkpt lat="46.38899" lon="5.9954">
        <ele>1299</ele>
        <time>2019-05-05T07:34:04Z</time>
      </trkpt>
      <trkpt lat="46.38895" lon="5.99513">
        <ele>1299</ele>
        <time>2019-05-05T07:34:18Z</time>
      </trkpt>
      <trkpt lat="46.38893" lon="5.99486">
        <ele>1300</ele>
        <time>2019-05-05T07:34:31Z</time>
      </trkpt>
      <trkpt lat="46.38892" lon="5.99483">
        <ele>1300</ele>
        <time>2019-05-05T07:34:33Z</time>
      </trkpt>
      <trkpt lat="46.3889" lon="5.99477">
        <ele>1301</ele>
        <time>2019-05-05T07:34:37Z</time>
      </trkpt>
      <trkpt lat="46.38888" lon="5.99472">
        <ele>1301</ele>
        <time>2019-05-05T07:34:39Z</time>
      </trkpt>
      <trkpt lat="46.38876" lon="5.99451">
        <ele>1300</ele>
        <time>2019-05-05T07:34:53Z</time>
      </trkpt>
      <trkpt lat="46.38864" lon="5.99429">
        <ele>1300</ele>
        <time>2019-05-05T07:35:07Z</time>
      </trkpt>
      <trkpt lat="46.38857" lon="5.99414">
        <ele>1300</ele>
        <time>2019-05-05T07:35:16Z</time>
      </trkpt>
      <trkpt lat="46.38843" lon="5.99397">
        <ele>1300</ele>
        <time>2019-05-05T07:35:29Z</time>
      </trkpt>
      <trkpt lat="46.3884" lon="5.99396">
        <ele>1300</ele>
        <time>2019-05-05T07:35:31Z</time>
      </trkpt>
      <trkpt lat="46.38823" lon="5.99384">
        <ele>1299</ele>
        <time>2019-05-05T07:35:45Z</time>
      </trkpt>
      <trkpt lat="46.38814" lon="5.99368">
        <ele>1299</ele>
        <time>2019-05-05T07:35:55Z</time>
      </trkpt>
      <trkpt lat="46.38803" lon="5.99354">
        <ele>1298</ele>
        <time>2019-05-05T07:36:06Z</time>
      </trkpt>
      <trkpt lat="46.38795" lon="5.99346">
        <ele>1298</ele>
        <time>2019-05-05T07:36:13Z</time>
      </trkpt>
      <trkpt lat="46.38785" lon="5.99338">
        <ele>1297</ele>
        <time>2019-05-05T07:36:21Z</time>
      </trkpt>
      <trkpt lat="46.38776" lon="5.99328">
        <ele>1296</ele>
        <time>2019-05-05T07:36:30Z</time>
      </trkpt>
      <trkpt lat="46.38762" lon="5.99309">
        <ele>1296</ele>
        <time>2019-05-05T07:36:43Z</time>
      </trkpt>
      <trkpt lat="46.38748" lon="5.99287">
        <ele>1295</ele>
        <time>2019-05-05T07:36:59Z</time>
      </trkpt>
      <trkpt lat="46.38737" lon="5.99273">
        <ele>1295</ele>
        <time>2019-05-05T07:37:09Z</time>
      </trkpt>
      <trkpt lat="46.3873" lon="5.99256">
        <ele>1295</ele>
        <time>2019-05-05T07:37:19Z</time>
      </trkpt>
      <trkpt lat="46.3872" lon="5.99234">
        <ele>1294</ele>
        <time>2019-05-05T07:37:32Z</time>
      </trkpt>
      <trkpt lat="46.38714" lon="5.99219">
        <ele>1293</ele>
        <time>2019-05-05T07:37:41Z</time>
      </trkpt>
      <trkpt lat="46.38712" lon="5.99212">
        <ele>1293</ele>
        <time>2019-05-05T07:37:44Z</time>
      </trkpt>
      <trkpt lat="46.38701" lon="5.99192">
        <ele>1292</ele>
        <time>2019-05-05T07:37:58Z</time>
      </trkpt>
      <trkpt lat="46.38684" lon="5.99179">
        <ele>1290</ele>
        <time>2019-05-05T07:38:11Z</time>
      </trkpt>
      <trkpt lat="46.38672" lon="5.99166">
        <ele>1289</ele>
        <time>2019-05-05T07:38:23Z</time>
      </trkpt>
      <trkpt lat="46.3866" lon="5.99156">
        <ele>1288</ele>
        <time>2019-05-05T07:38:32Z</time>
      </trkpt>
      <trkpt lat="46.38659" lon="5.99154">
        <ele>1288</ele>
        <time>2019-05-05T07:38:34Z</time>
      </trkpt>
      <trkpt lat="46.38656" lon="5.99148">
        <ele>1288</ele>
        <time>2019-05-05T07:38:37Z</time>
      </trkpt>
      <trkpt lat="46.38654" lon="5.99146">
        <ele>1288</ele>
        <time>2019-05-05T07:38:39Z</time>
      </trkpt>
      <trkpt lat="46.38642" lon="5.99134">
        <ele>1287</ele>
        <time>2019-05-05T07:38:49Z</time>
      </trkpt>
      <trkpt lat="46.3864" lon="5.99129">
        <ele>1286</ele>
        <time>2019-05-05T07:38:53Z</time>
      </trkpt>
      <trkpt lat="46.38631" lon="5.99108">
        <ele>1285</ele>
        <time>2019-05-05T07:39:05Z</time>
      </trkpt>
      <trkpt lat="46.38629" lon="5.99104">
        <ele>1285</ele>
        <time>2019-05-05T07:39:07Z</time>
      </trkpt>
      <trkpt lat="46.38624" lon="5.99097">
        <ele>1285</ele>
        <time>2019-05-05T07:39:12Z</time>
      </trkpt>
      <trkpt lat="46.38613" lon="5.99077">
        <ele>1282</ele>
        <time>2019-05-05T07:39:25Z</time>
      </trkpt>
      <trkpt lat="46.38604" lon="5.99053">
        <ele>1279</ele>
        <time>2019-05-05T07:39:39Z</time>
      </trkpt>
      <trkpt lat="46.38599" lon="5.99038">
        <ele>1277</ele>
        <time>2019-05-05T07:39:47Z</time>
      </trkpt>
      <trkpt lat="46.38596" lon="5.99027">
        <ele>1276</ele>
        <time>2019-05-05T07:39:53Z</time>
      </trkpt>
      <trkpt lat="46.38592" lon="5.99017">
        <ele>1274</ele>
        <time>2019-05-05T07:39:59Z</time>
      </trkpt>
      <trkpt lat="46.38587" lon="5.99004">
        <ele>1273</ele>
        <time>2019-05-05T07:40:06Z</time>
      </trkpt>
      <trkpt lat="46.38576" lon="5.98985">
        <ele>1271</ele>
        <time>2019-05-05T07:40:19Z</time>
      </trkpt>
      <trkpt lat="46.38568" lon="5.98975">
        <ele>1269</ele>
        <time>2019-05-05T07:40:27Z</time>
      </trkpt>
      <trkpt lat="46.38555" lon="5.98955">
        <ele>1267</ele>
        <time>2019-05-05T07:40:40Z</time>
      </trkpt>
      <trkpt lat="46.38552" lon="5.98949">
        <ele>1267</ele>
        <time>2019-05-05T07:40:45Z</time>
      </trkpt>
      <trkpt lat="46.38545" lon="5.98936">
        <ele>1266</ele>
        <time>2019-05-05T07:40:53Z</time>
      </trkpt>
      <trkpt lat="46.38532" lon="5.98916">
        <ele>1265</ele>
        <time>2019-05-05T07:41:06Z</time>
      </trkpt>
      <trkpt lat="46.38518" lon="5.98886">
        <ele>1264</ele>
        <time>2019-05-05T07:41:25Z</time>
      </trkpt>
      <trkpt lat="46.38513" lon="5.98877">
        <ele>1264</ele>
        <time>2019-05-05T07:41:30Z</time>
      </trkpt>
      <trkpt lat="46.38503" lon="5.98855">
        <ele>1264</ele>
        <time>2019-05-05T07:41:43Z</time>
      </trkpt>
      <trkpt lat="46.38502" lon="5.98852">
        <ele>1264</ele>
        <time>2019-05-05T07:41:45Z</time>
      </trkpt>
      <trkpt lat="46.38495" lon="5.98836">
        <ele>1265</ele>
        <time>2019-05-05T07:41:54Z</time>
      </trkpt>
      <trkpt lat="46.38491" lon="5.98825">
        <ele>1266</ele>
        <time>2019-05-05T07:42:01Z</time>
      </trkpt>
      <trkpt lat="46.3849" lon="5.98822">
        <ele>1266</ele>
        <time>2019-05-05T07:42:02Z</time>
      </trkpt>
      <trkpt lat="46.38485" lon="5.98806">
        <ele>1267</ele>
        <time>2019-05-05T07:42:11Z</time>
      </trkpt>
      <trkpt lat="46.38483" lon="5.98795">
        <ele>1267</ele>
        <time>2019-05-05T07:42:17Z</time>
      </trkpt>
      <trkpt lat="46.3848" lon="5.98771">
        <ele>1268</ele>
        <time>2019-05-05T07:42:29Z</time>
      </trkpt>
      <trkpt lat="46.38472" lon="5.98745">
        <ele>1269</ele>
        <time>2019-05-05T07:42:43Z</time>
      </trkpt>
      <trkpt lat="46.38464" lon="5.98719">
        <ele>1270</ele>
        <time>2019-05-05T07:42:57Z</time>
      </trkpt>
      <trkpt lat="46.38463" lon="5.98715">
        <ele>1270</ele>
        <time>2019-05-05T07:42:59Z</time>
      </trkpt>
      <trkpt lat="46.38454" lon="5.98691">
        <ele>1271</ele>
        <time>2019-05-05T07:43:13Z</time>
      </trkpt>
      <trkpt lat="46.38451" lon="5.98683">
        <ele>1271</ele>
        <time>2019-05-05T07:43:18Z</time>
      </trkpt>
      <trkpt lat="46.38443" lon="5.98669">
        <ele>1271</ele>
        <time>2019-05-05T07:43:27Z</time>
      </trkpt>
      <trkpt lat="46.38437" lon="5.9866">
        <ele>1271</ele>
        <time>2019-05-05T07:43:33Z</time>
      </trkpt>
      <trkpt lat="46.38423" lon="5.98645">
        <ele>1271</ele>
        <time>2019-05-05T07:43:46Z</time>
      </trkpt>
      <trkpt lat="46.38421" lon="5.98642">
        <ele>1271</ele>
        <time>2019-05-05T07:43:48Z</time>
      </trkpt>
      <trkpt lat="46.38407" lon="5.98621">
        <ele>1271</ele>
        <time>2019-05-05T07:44:02Z</time>
      </trkpt>
      <trkpt lat="46.38396" lon="5.98604">
        <ele>1271</ele>
        <time>2019-05-05T07:44:14Z</time>
      </trkpt>
      <trkpt lat="46.38385" lon="5.98583">
        <ele>1270</ele>
        <time>2019-05-05T07:44:27Z</time>
      </trkpt>
      <trkpt lat="46.38371" lon="5.98563">
        <ele>1269</ele>
        <time>2019-05-05T07:44:41Z</time>
      </trkpt>
      <trkpt lat="46.38367" lon="5.98556">
        <ele>1268</ele>
        <time>2019-05-05T07:44:46Z</time>
      </trkpt>
      <trkpt lat="46.38365" lon="5.98553">
        <ele>1268</ele>
        <time>2019-05-05T07:44:48Z</time>
      </trkpt>
      <trkpt lat="46.38364" lon="5.98552">
        <ele>1268</ele>
        <time>2019-05-05T07:44:49Z</time>
      </trkpt>
      <trkpt lat="46.38363" lon="5.98551">
        <ele>1268</ele>
        <time>2019-05-05T07:44:50Z</time>
      </trkpt>
      <trkpt lat="46.38356" lon="5.98536">
        <ele>1267</ele>
        <time>2019-05-05T07:44:58Z</time>
      </trkpt>
      <trkpt lat="46.38355" lon="5.98529">
        <ele>1267</ele>
        <time>2019-05-05T07:45:02Z</time>
      </trkpt>
      <trkpt lat="46.38352" lon="5.98517">
        <ele>1267</ele>
        <time>2019-05-05T07:45:09Z</time>
      </trkpt>
      <trkpt lat="46.3835" lon="5.98507">
        <ele>1266</ele>
        <time>2019-05-05T07:45:14Z</time>
      </trkpt>
      <trkpt lat="46.38351" lon="5.98501">
        <ele>1266</ele>
        <time>2019-05-05T07:45:17Z</time>
      </trkpt>
      <trkpt lat="46.38353" lon="5.98495">
        <ele>1266</ele>
        <time>2019-05-05T07:45:20Z</time>
      </trkpt>
      <trkpt lat="46.38359" lon="5.98486">
        <ele>1265</ele>
        <time>2019-05-05T07:45:26Z</time>
      </trkpt>
      <trkpt lat="46.38359" lon="5.98477">
        <ele>1264</ele>
        <time>2019-05-05T07:45:31Z</time>
      </trkpt>
      <trkpt lat="46.38358" lon="5.98467">
        <ele>1264</ele>
        <time>2019-05-05T07:45:36Z</time>
      </trkpt>
      <trkpt lat="46.3835" lon="5.98442">
        <ele>1262</ele>
        <time>2019-05-05T07:45:49Z</time>
      </trkpt>
      <trkpt lat="46.38347" lon="5.98434">
        <ele>1261</ele>
        <time>2019-05-05T07:45:54Z</time>
      </trkpt>
      <trkpt lat="46.38347" lon="5.98433">
        <ele>1261</ele>
        <time>2019-05-05T07:45:55Z</time>
      </trkpt>
      <trkpt lat="46.38345" lon="5.98429">
        <ele>1261</ele>
        <time>2019-05-05T07:45:57Z</time>
      </trkpt>
      <trkpt lat="46.38345" lon="5.98406">
        <ele>1259</ele>
        <time>2019-05-05T07:46:09Z</time>
      </trkpt>
      <trkpt lat="46.38345" lon="5.98399">
        <ele>1259</ele>
        <time>2019-05-05T07:46:12Z</time>
      </trkpt>
      <trkpt lat="46.38342" lon="5.98392">
        <ele>1258</ele>
        <time>2019-05-05T07:46:16Z</time>
      </trkpt>
      <trkpt lat="46.38338" lon="5.98371">
        <ele>1256</ele>
        <time>2019-05-05T07:46:27Z</time>
      </trkpt>
      <trkpt lat="46.38334" lon="5.98353">
        <ele>1255</ele>
        <time>2019-05-05T07:46:36Z</time>
      </trkpt>
      <trkpt lat="46.38331" lon="5.98347">
        <ele>1254</ele>
        <time>2019-05-05T07:46:40Z</time>
      </trkpt>
      <trkpt lat="46.38328" lon="5.9834">
        <ele>1254</ele>
        <time>2019-05-05T07:46:44Z</time>
      </trkpt>
      <trkpt lat="46.38319" lon="5.98316">
        <ele>1251</ele>
        <time>2019-05-05T07:46:58Z</time>
      </trkpt>
      <trkpt lat="46.38315" lon="5.98305">
        <ele>1250</ele>
        <time>2019-05-05T07:47:04Z</time>
      </trkpt>
      <trkpt lat="46.38308" lon="5.98281">
        <ele>1247</ele>
        <time>2019-05-05T07:47:17Z</time>
      </trkpt>
      <trkpt lat="46.38306" lon="5.98272">
        <ele>1246</ele>
        <time>2019-05-05T07:47:22Z</time>
      </trkpt>
      <trkpt lat="46.38301" lon="5.98264">
        <ele>1245</ele>
        <time>2019-05-05T07:47:28Z</time>
      </trkpt>
      <trkpt lat="46.38297" lon="5.98256">
        <ele>1244</ele>
        <time>2019-05-05T07:47:33Z</time>
      </trkpt>
      <trkpt lat="46.38285" lon="5.98235">
        <ele>1240</ele>
        <time>2019-05-05T07:47:46Z</time>
      </trkpt>
      <trkpt lat="46.38282" lon="5.98221">
        <ele>1239</ele>
        <time>2019-05-05T07:47:54Z</time>
      </trkpt>
      <trkpt lat="46.38278" lon="5.98195">
        <ele>1236</ele>
        <time>2019-05-05T07:48:07Z</time>
      </trkpt>
      <trkpt lat="46.38274" lon="5.9817">
        <ele>1234</ele>
        <time>2019-05-05T07:48:20Z</time>
      </trkpt>
      <trkpt lat="46.38274" lon="5.9814">
        <ele>1235</ele>
        <time>2019-05-05T07:48:35Z</time>
      </trkpt>
      <trkpt lat="46.38273" lon="5.98114">
        <ele>1235</ele>
        <time>2019-05-05T07:48:48Z</time>
      </trkpt>
      <trkpt lat="46.38264" lon="5.98089">
        <ele>1235</ele>
        <time>2019-05-05T07:49:02Z</time>
      </trkpt>
      <trkpt lat="46.38255" lon="5.98066">
        <ele>1234</ele>
        <time>2019-05-05T07:49:15Z</time>
      </trkpt>
      <trkpt lat="46.38245" lon="5.98043">
        <ele>1234</ele>
        <time>2019-05-05T07:49:29Z</time>
      </trkpt>
      <trkpt lat="46.38244" lon="5.98041">
        <ele>1234</ele>
        <time>2019-05-05T07:49:31Z</time>
      </trkpt>
      <trkpt lat="46.3824" lon="5.98033">
        <ele>1234</ele>
        <time>2019-05-05T07:49:35Z</time>
      </trkpt>
      <trkpt lat="46.3823" lon="5.98008">
        <ele>1234</ele>
        <time>2019-05-05T07:49:50Z</time>
      </trkpt>
      <trkpt lat="46.38228" lon="5.98005">
        <ele>1234</ele>
        <time>2019-05-05T07:49:52Z</time>
      </trkpt>
      <trkpt lat="46.38222" lon="5.97979">
        <ele>1233</ele>
        <time>2019-05-05T07:50:05Z</time>
      </trkpt>
      <trkpt lat="46.38215" lon="5.97952">
        <ele>1233</ele>
        <time>2019-05-05T07:50:20Z</time>
      </trkpt>
      <trkpt lat="46.38209" lon="5.97924">
        <ele>1233</ele>
        <time>2019-05-05T07:50:34Z</time>
      </trkpt>
      <trkpt lat="46.38202" lon="5.97899">
        <ele>1233</ele>
        <time>2019-05-05T07:50:48Z</time>
      </trkpt>
      <trkpt lat="46.38196" lon="5.97875">
        <ele>1233</ele>
        <time>2019-05-05T07:51:01Z</time>
      </trkpt>
      <trkpt lat="46.38192" lon="5.97848">
        <ele>1233</ele>
        <time>2019-05-05T07:51:15Z</time>
      </trkpt>
      <trkpt lat="46.38186" lon="5.97823">
        <ele>1231</ele>
        <time>2019-05-05T07:51:28Z</time>
      </trkpt>
      <trkpt lat="46.38185" lon="5.9782">
        <ele>1231</ele>
        <time>2019-05-05T07:51:29Z</time>
      </trkpt>
      <trkpt lat="46.38183" lon="5.97809">
        <ele>1230</ele>
        <time>2019-05-05T07:51:35Z</time>
      </trkpt>
      <trkpt lat="46.38178" lon="5.97796">
        <ele>1230</ele>
        <time>2019-05-05T07:51:42Z</time>
      </trkpt>
      <trkpt lat="46.38166" lon="5.97776">
        <ele>1229</ele>
        <time>2019-05-05T07:51:56Z</time>
      </trkpt>
      <trkpt lat="46.38156" lon="5.97757">
        <ele>1228</ele>
        <time>2019-05-05T07:52:08Z</time>
      </trkpt>
      <trkpt lat="46.38152" lon="5.97749">
        <ele>1228</ele>
        <time>2019-05-05T07:52:12Z</time>
      </trkpt>
      <trkpt lat="46.38146" lon="5.97739">
        <ele>1229</ele>
        <time>2019-05-05T07:52:19Z</time>
      </trkpt>
      <trkpt lat="46.38138" lon="5.97724">
        <ele>1229</ele>
        <time>2019-05-05T07:52:29Z</time>
      </trkpt>
      <trkpt lat="46.38134" lon="5.97707">
        <ele>1229</ele>
        <time>2019-05-05T07:52:37Z</time>
      </trkpt>
      <trkpt lat="46.3813" lon="5.97681">
        <ele>1229</ele>
        <time>2019-05-05T07:52:51Z</time>
      </trkpt>
      <trkpt lat="46.38129" lon="5.97665">
        <ele>1229</ele>
        <time>2019-05-05T07:52:59Z</time>
      </trkpt>
      <trkpt lat="46.38126" lon="5.97638">
        <ele>1229</ele>
        <time>2019-05-05T07:53:13Z</time>
      </trkpt>
      <trkpt lat="46.38125" lon="5.97608">
        <ele>1228</ele>
        <time>2019-05-05T07:53:28Z</time>
      </trkpt>
      <trkpt lat="46.38123" lon="5.97587">
        <ele>1228</ele>
        <time>2019-05-05T07:53:38Z</time>
      </trkpt>
      <trkpt lat="46.3812" lon="5.97561">
        <ele>1227</ele>
        <time>2019-05-05T07:53:52Z</time>
      </trkpt>
      <trkpt lat="46.38114" lon="5.97535">
        <ele>1226</ele>
        <time>2019-05-05T07:54:05Z</time>
      </trkpt>
      <trkpt lat="46.38106" lon="5.9751">
        <ele>1226</ele>
        <time>2019-05-05T07:54:19Z</time>
      </trkpt>
      <trkpt lat="46.381" lon="5.9749">
        <ele>1225</ele>
        <time>2019-05-05T07:54:30Z</time>
      </trkpt>
      <trkpt lat="46.38093" lon="5.97465">
        <ele>1223</ele>
        <time>2019-05-05T07:54:43Z</time>
      </trkpt>
      <trkpt lat="46.38091" lon="5.97437">
        <ele>1222</ele>
        <time>2019-05-05T07:54:58Z</time>
      </trkpt>
      <trkpt lat="46.38086" lon="5.97411">
        <ele>1221</ele>
        <time>2019-05-05T07:55:11Z</time>
      </trkpt>
      <trkpt lat="46.3808" lon="5.97388">
        <ele>1220</ele>
        <time>2019-05-05T07:55:23Z</time>
      </trkpt>
      <trkpt lat="46.38076" lon="5.97379">
        <ele>1219</ele>
        <time>2019-05-05T07:55:29Z</time>
      </trkpt>
      <trkpt lat="46.38064" lon="5.97358">
        <ele>1218</ele>
        <time>2019-05-05T07:55:42Z</time>
      </trkpt>
      <trkpt lat="46.38057" lon="5.97349">
        <ele>1217</ele>
        <time>2019-05-05T07:55:49Z</time>
      </trkpt>
      <trkpt lat="46.38048" lon="5.97343">
        <ele>1216</ele>
        <time>2019-05-05T07:55:56Z</time>
      </trkpt>
      <trkpt lat="46.3804" lon="5.97341">
        <ele>1216</ele>
        <time>2019-05-05T07:56:02Z</time>
      </trkpt>
      <trkpt lat="46.38032" lon="5.97339">
        <ele>1215</ele>
        <time>2019-05-05T07:56:08Z</time>
      </trkpt>
      <trkpt lat="46.3802" lon="5.97335">
        <ele>1214</ele>
        <time>2019-05-05T07:56:17Z</time>
      </trkpt>
      <trkpt lat="46.38007" lon="5.97328">
        <ele>1213</ele>
        <time>2019-05-05T07:56:27Z</time>
      </trkpt>
      <trkpt lat="46.38004" lon="5.97325">
        <ele>1213</ele>
        <time>2019-05-05T07:56:29Z</time>
      </trkpt>
      <trkpt lat="46.37996" lon="5.97316">
        <ele>1211</ele>
        <time>2019-05-05T07:56:37Z</time>
      </trkpt>
      <trkpt lat="46.37994" lon="5.97314">
        <ele>1211</ele>
        <time>2019-05-05T07:56:39Z</time>
      </trkpt>
      <trkpt lat="46.37993" lon="5.97314">
        <ele>1211</ele>
        <time>2019-05-05T07:56:40Z</time>
      </trkpt>
      <trkpt lat="46.37987" lon="5.97308">
        <ele>1210</ele>
        <time>2019-05-05T07:56:44Z</time>
      </trkpt>
      <trkpt lat="46.37979" lon="5.97284">
        <ele>1208</ele>
        <time>2019-05-05T07:56:58Z</time>
      </trkpt>
      <trkpt lat="46.37973" lon="5.9727">
        <ele>1206</ele>
        <time>2019-05-05T07:57:06Z</time>
      </trkpt>
      <trkpt lat="46.37971" lon="5.97262">
        <ele>1205</ele>
        <time>2019-05-05T07:57:10Z</time>
      </trkpt>
      <trkpt lat="46.37971" lon="5.97261">
        <ele>1205</ele>
        <time>2019-05-05T07:57:11Z</time>
      </trkpt>
      <trkpt lat="46.37971" lon="5.9726">
        <ele>1205</ele>
        <time>2019-05-05T07:57:11Z</time>
      </trkpt>
      <trkpt lat="46.37971" lon="5.97258">
        <ele>1205</ele>
        <time>2019-05-05T07:57:12Z</time>
      </trkpt>
      <trkpt lat="46.37971" lon="5.97257">
        <ele>1205</ele>
        <time>2019-05-05T07:57:13Z</time>
      </trkpt>
      <trkpt lat="46.37965" lon="5.97248">
        <ele>1204</ele>
        <time>2019-05-05T07:57:19Z</time>
      </trkpt>
      <trkpt lat="46.37962" lon="5.97238">
        <ele>1203</ele>
        <time>2019-05-05T07:57:25Z</time>
      </trkpt>
      <trkpt lat="46.37961" lon="5.97234">
        <ele>1203</ele>
        <time>2019-05-05T07:57:27Z</time>
      </trkpt>
      <trkpt lat="46.37955" lon="5.9721">
        <ele>1201</ele>
        <time>2019-05-05T07:57:40Z</time>
      </trkpt>
      <trkpt lat="46.37952" lon="5.97197">
        <ele>1200</ele>
        <time>2019-05-05T07:57:47Z</time>
      </trkpt>
      <trkpt lat="46.3795" lon="5.97192">
        <ele>1200</ele>
        <time>2019-05-05T07:57:49Z</time>
      </trkpt>
      <trkpt lat="46.37947" lon="5.97181">
        <ele>1199</ele>
        <time>2019-05-05T07:57:55Z</time>
      </trkpt>
      <trkpt lat="46.37943" lon="5.97164">
        <ele>1197</ele>
        <time>2019-05-05T07:58:05Z</time>
      </trkpt>
      <trkpt lat="46.37938" lon="5.97141">
        <ele>1195</ele>
        <time>2019-05-05T07:58:17Z</time>
      </trkpt>
      <trkpt lat="46.37935" lon="5.97129">
        <ele>1194</ele>
        <time>2019-05-05T07:58:23Z</time>
      </trkpt>
      <trkpt lat="46.37928" lon="5.97104">
        <ele>1191</ele>
        <time>2019-05-05T07:58:36Z</time>
      </trkpt>
      <trkpt lat="46.37927" lon="5.97101">
        <ele>1191</ele>
        <time>2019-05-05T07:58:38Z</time>
      </trkpt>
      <trkpt lat="46.37924" lon="5.97092">
        <ele>1191</ele>
        <time>2019-05-05T07:58:43Z</time>
      </trkpt>
      <trkpt lat="46.37922" lon="5.97083">
        <ele>1190</ele>
        <time>2019-05-05T07:58:48Z</time>
      </trkpt>
      <trkpt lat="46.37918" lon="5.97071">
        <ele>1189</ele>
        <time>2019-05-05T07:58:55Z</time>
      </trkpt>
      <trkpt lat="46.37913" lon="5.9706">
        <ele>1189</ele>
        <time>2019-05-05T07:59:01Z</time>
      </trkpt>
      <trkpt lat="46.37904" lon="5.97048">
        <ele>1188</ele>
        <time>2019-05-05T07:59:10Z</time>
      </trkpt>
      <trkpt lat="46.37897" lon="5.9704">
        <ele>1187</ele>
        <time>2019-05-05T07:59:17Z</time>
      </trkpt>
      <trkpt lat="46.37893" lon="5.97036">
        <ele>1187</ele>
        <time>2019-05-05T07:59:20Z</time>
      </trkpt>
      <trkpt lat="46.37885" lon="5.97031">
        <ele>1186</ele>
        <time>2019-05-05T07:59:26Z</time>
      </trkpt>
      <trkpt lat="46.37877" lon="5.97024">
        <ele>1185</ele>
        <time>2019-05-05T07:59:33Z</time>
      </trkpt>
      <trkpt lat="46.37873" lon="5.97022">
        <ele>1185</ele>
        <time>2019-05-05T07:59:36Z</time>
      </trkpt>
      <trkpt lat="46.37867" lon="5.97017">
        <ele>1184</ele>
        <time>2019-05-05T07:59:41Z</time>
      </trkpt>
      <trkpt lat="46.37856" lon="5.97011">
        <ele>1183</ele>
        <time>2019-05-05T07:59:50Z</time>
      </trkpt>
      <trkpt lat="46.37847" lon="5.97004">
        <ele>1183</ele>
        <time>2019-05-05T07:59:57Z</time>
      </trkpt>
      <trkpt lat="46.37836" lon="5.96995">
        <ele>1182</ele>
        <time>2019-05-05T08:00:06Z</time>
      </trkpt>
      <trkpt lat="46.37819" lon="5.96984">
        <ele>1182</ele>
        <time>2019-05-05T08:00:20Z</time>
      </trkpt>
      <trkpt lat="46.37803" lon="5.96969">
        <ele>1181</ele>
        <time>2019-05-05T08:00:34Z</time>
      </trkpt>
      <trkpt lat="46.37796" lon="5.96965">
        <ele>1181</ele>
        <time>2019-05-05T08:00:39Z</time>
      </trkpt>
      <trkpt lat="46.3778" lon="5.9695">
        <ele>1181</ele>
        <time>2019-05-05T08:00:52Z</time>
      </trkpt>
      <trkpt lat="46.37769" lon="5.96942">
        <ele>1181</ele>
        <time>2019-05-05T08:01:01Z</time>
      </trkpt>
      <trkpt lat="46.37752" lon="5.96931">
        <ele>1180</ele>
        <time>2019-05-05T08:01:15Z</time>
      </trkpt>
      <trkpt lat="46.37743" lon="5.96924">
        <ele>1180</ele>
        <time>2019-05-05T08:01:22Z</time>
      </trkpt>
      <trkpt lat="46.37742" lon="5.96922">
        <ele>1180</ele>
        <time>2019-05-05T08:01:24Z</time>
      </trkpt>
      <trkpt lat="46.37733" lon="5.96902">
        <ele>1180</ele>
        <time>2019-05-05T08:01:35Z</time>
      </trkpt>
      <trkpt lat="46.37725" lon="5.9688">
        <ele>1180</ele>
        <time>2019-05-05T08:01:48Z</time>
      </trkpt>
      <trkpt lat="46.37717" lon="5.96855">
        <ele>1180</ele>
        <time>2019-05-05T08:02:02Z</time>
      </trkpt>
      <trkpt lat="46.37713" lon="5.96846">
        <ele>1180</ele>
        <time>2019-05-05T08:02:07Z</time>
      </trkpt>
      <trkpt lat="46.37706" lon="5.96822">
        <ele>1180</ele>
        <time>2019-05-05T08:02:20Z</time>
      </trkpt>
      <trkpt lat="46.37702" lon="5.96796">
        <ele>1179</ele>
        <time>2019-05-05T08:02:34Z</time>
      </trkpt>
      <trkpt lat="46.37694" lon="5.96777">
        <ele>1179</ele>
        <time>2019-05-05T08:02:45Z</time>
      </trkpt>
      <trkpt lat="46.37694" lon="5.96776">
        <ele>1179</ele>
        <time>2019-05-05T08:02:45Z</time>
      </trkpt>
      <trkpt lat="46.37693" lon="5.96775">
        <ele>1179</ele>
        <time>2019-05-05T08:02:45Z</time>
      </trkpt>
      <trkpt lat="46.37694" lon="5.96771">
        <ele>1179</ele>
        <time>2019-05-05T08:02:48Z</time>
      </trkpt>
      <trkpt lat="46.37703" lon="5.96762">
        <ele>1179</ele>
        <time>2019-05-05T08:02:55Z</time>
      </trkpt>
      <trkpt lat="46.37705" lon="5.96761">
        <ele>1179</ele>
        <time>2019-05-05T08:02:57Z</time>
      </trkpt>
      <trkpt lat="46.37708" lon="5.96758">
        <ele>1179</ele>
        <time>2019-05-05T08:02:59Z</time>
      </trkpt>
      <trkpt lat="46.37706" lon="5.96758">
        <ele>1179</ele>
        <time>2019-05-05T08:03:01Z</time>
      </trkpt>
      <trkpt lat="46.37707" lon="5.96754">
        <ele>1179</ele>
        <time>2019-05-05T08:03:03Z</time>
      </trkpt>
      <trkpt lat="46.37708" lon="5.96729">
        <ele>1179</ele>
        <time>2019-05-05T08:03:15Z</time>
      </trkpt>
      <trkpt lat="46.37713" lon="5.96702">
        <ele>1180</ele>
        <time>2019-05-05T08:03:29Z</time>
      </trkpt>
      <trkpt lat="46.37717" lon="5.96676">
        <ele>1180</ele>
        <time>2019-05-05T08:03:43Z</time>
      </trkpt>
      <trkpt lat="46.37719" lon="5.96648">
        <ele>1181</ele>
        <time>2019-05-05T08:03:57Z</time>
      </trkpt>
      <trkpt lat="46.37723" lon="5.96621">
        <ele>1182</ele>
        <time>2019-05-05T08:04:10Z</time>
      </trkpt>
      <trkpt lat="46.37723" lon="5.96613">
        <ele>1182</ele>
        <time>2019-05-05T08:04:15Z</time>
      </trkpt>
      <trkpt lat="46.37725" lon="5.96604">
        <ele>1182</ele>
        <time>2019-05-05T08:04:20Z</time>
      </trkpt>
      <trkpt lat="46.37729" lon="5.96588">
        <ele>1181</ele>
        <time>2019-05-05T08:04:28Z</time>
      </trkpt>
      <trkpt lat="46.37733" lon="5.96571">
        <ele>1180</ele>
        <time>2019-05-05T08:04:37Z</time>
      </trkpt>
      <trkpt lat="46.37736" lon="5.96562">
        <ele>1180</ele>
        <time>2019-05-05T08:04:42Z</time>
      </trkpt>
      <trkpt lat="46.37746" lon="5.96537">
        <ele>1178</ele>
        <time>2019-05-05T08:04:57Z</time>
      </trkpt>
      <trkpt lat="46.37748" lon="5.9653">
        <ele>1177</ele>
        <time>2019-05-05T08:05:00Z</time>
      </trkpt>
      <trkpt lat="46.37751" lon="5.96522">
        <ele>1177</ele>
        <time>2019-05-05T08:05:05Z</time>
      </trkpt>
      <trkpt lat="46.37761" lon="5.96499">
        <ele>1174</ele>
        <time>2019-05-05T08:05:18Z</time>
      </trkpt>
      <trkpt lat="46.37769" lon="5.96473">
        <ele>1172</ele>
        <time>2019-05-05T08:05:33Z</time>
      </trkpt>
      <trkpt lat="46.37775" lon="5.96453">
        <ele>1171</ele>
        <time>2019-05-05T08:05:43Z</time>
      </trkpt>
      <trkpt lat="46.37782" lon="5.96431">
        <ele>1170</ele>
        <time>2019-05-05T08:05:56Z</time>
      </trkpt>
      <trkpt lat="46.37785" lon="5.9642">
        <ele>1169</ele>
        <time>2019-05-05T08:06:02Z</time>
      </trkpt>
      <trkpt lat="46.37788" lon="5.96392">
        <ele>1168</ele>
        <time>2019-05-05T08:06:16Z</time>
      </trkpt>
      <trkpt lat="46.37789" lon="5.96384">
        <ele>1168</ele>
        <time>2019-05-05T08:06:20Z</time>
      </trkpt>
      <trkpt lat="46.37791" lon="5.96356">
        <ele>1167</ele>
        <time>2019-05-05T08:06:34Z</time>
      </trkpt>
      <trkpt lat="46.37791" lon="5.96352">
        <ele>1167</ele>
        <time>2019-05-05T08:06:36Z</time>
      </trkpt>
      <trkpt lat="46.37791" lon="5.96324">
        <ele>1166</ele>
        <time>2019-05-05T08:06:50Z</time>
      </trkpt>
      <trkpt lat="46.37795" lon="5.96302">
        <ele>1165</ele>
        <time>2019-05-05T08:07:02Z</time>
      </trkpt>
      <trkpt lat="46.37802" lon="5.96273">
        <ele>1164</ele>
        <time>2019-05-05T08:07:16Z</time>
      </trkpt>
      <trkpt lat="46.37803" lon="5.96266">
        <ele>1163</ele>
        <time>2019-05-05T08:07:20Z</time>
      </trkpt>
      <trkpt lat="46.37805" lon="5.96239">
        <ele>1162</ele>
        <time>2019-05-05T08:07:34Z</time>
      </trkpt>
      <trkpt lat="46.37803" lon="5.96211">
        <ele>1161</ele>
        <time>2019-05-05T08:07:48Z</time>
      </trkpt>
      <trkpt lat="46.37798" lon="5.96186">
        <ele>1160</ele>
        <time>2019-05-05T08:08:01Z</time>
      </trkpt>
      <trkpt lat="46.37795" lon="5.96176">
        <ele>1160</ele>
        <time>2019-05-05T08:08:06Z</time>
      </trkpt>
      <trkpt lat="46.37792" lon="5.96161">
        <ele>1160</ele>
        <time>2019-05-05T08:08:14Z</time>
      </trkpt>
      <trkpt lat="46.37785" lon="5.96134">
        <ele>1161</ele>
        <time>2019-05-05T08:08:29Z</time>
      </trkpt>
      <trkpt lat="46.37778" lon="5.96106">
        <ele>1161</ele>
        <time>2019-05-05T08:08:43Z</time>
      </trkpt>
      <trkpt lat="46.37777" lon="5.96082">
        <ele>1161</ele>
        <time>2019-05-05T08:08:56Z</time>
      </trkpt>
      <trkpt lat="46.37781" lon="5.96063">
        <ele>1162</ele>
        <time>2019-05-05T08:09:05Z</time>
      </trkpt>
      <trkpt lat="46.37786" lon="5.96042">
        <ele>1163</ele>
        <time>2019-05-05T08:09:16Z</time>
      </trkpt>
      <trkpt lat="46.37792" lon="5.96016">
        <ele>1164</ele>
        <time>2019-05-05T08:09:30Z</time>
      </trkpt>
      <trkpt lat="46.37801" lon="5.95994">
        <ele>1167</ele>
        <time>2019-05-05T08:09:43Z</time>
      </trkpt>
      <trkpt lat="46.37812" lon="5.95996">
        <ele>1167</ele>
        <time>2019-05-05T08:09:51Z</time>
      </trkpt>
      <trkpt lat="46.37829" lon="5.96007">
        <ele>1167</ele>
        <time>2019-05-05T08:10:04Z</time>
      </trkpt>
      <trkpt lat="46.37838" lon="5.96011">
        <ele>1167</ele>
        <time>2019-05-05T08:10:11Z</time>
      </trkpt>
      <trkpt lat="46.37856" lon="5.96018">
        <ele>1168</ele>
        <time>2019-05-05T08:10:25Z</time>
      </trkpt>
      <trkpt lat="46.37863" lon="5.96017">
        <ele>1168</ele>
        <time>2019-05-05T08:10:30Z</time>
      </trkpt>
      <trkpt lat="46.37866" lon="5.96014">
        <ele>1168</ele>
        <time>2019-05-05T08:10:32Z</time>
      </trkpt>
      <trkpt lat="46.37869" lon="5.96009">
        <ele>1169</ele>
        <time>2019-05-05T08:10:36Z</time>
      </trkpt>
      <trkpt lat="46.3787" lon="5.96008">
        <ele>1169</ele>
        <time>2019-05-05T08:10:36Z</time>
      </trkpt>
      <trkpt lat="46.37872" lon="5.96005">
        <ele>1169</ele>
        <time>2019-05-05T08:10:39Z</time>
      </trkpt>
      <trkpt lat="46.37874" lon="5.96">
        <ele>1170</ele>
        <time>2019-05-05T08:10:41Z</time>
      </trkpt>
      <trkpt lat="46.37876" lon="5.95996">
        <ele>1170</ele>
        <time>2019-05-05T08:10:44Z</time>
      </trkpt>
      <trkpt lat="46.37878" lon="5.95995">
        <ele>1170</ele>
        <time>2019-05-05T08:10:45Z</time>
      </trkpt>
      <trkpt lat="46.37879" lon="5.96">
        <ele>1170</ele>
        <time>2019-05-05T08:10:48Z</time>
      </trkpt>
      <trkpt lat="46.37876" lon="5.96003">
        <ele>1169</ele>
        <time>2019-05-05T08:10:50Z</time>
      </trkpt>
      <trkpt lat="46.37875" lon="5.96005">
        <ele>1169</ele>
        <time>2019-05-05T08:10:52Z</time>
      </trkpt>
      <trkpt lat="46.3786" lon="5.96022">
        <ele>1167</ele>
        <time>2019-05-05T08:11:06Z</time>
      </trkpt>
      <trkpt lat="46.3785" lon="5.9602">
        <ele>1167</ele>
        <time>2019-05-05T08:11:13Z</time>
      </trkpt>
      <trkpt lat="46.3784" lon="5.96016">
        <ele>1167</ele>
        <time>2019-05-05T08:11:20Z</time>
      </trkpt>
      <trkpt lat="46.37827" lon="5.96008">
        <ele>1167</ele>
        <time>2019-05-05T08:11:30Z</time>
      </trkpt>
      <trkpt lat="46.3781" lon="5.95996">
        <ele>1167</ele>
        <time>2019-05-05T08:11:44Z</time>
      </trkpt>
      <trkpt lat="46.37796" lon="5.96012">
        <ele>1165</ele>
        <time>2019-05-05T08:11:57Z</time>
      </trkpt>
      <trkpt lat="46.37794" lon="5.96021">
        <ele>1164</ele>
        <time>2019-05-05T08:12:02Z</time>
      </trkpt>
      <trkpt lat="46.37789" lon="5.96046">
        <ele>1163</ele>
        <time>2019-05-05T08:12:15Z</time>
      </trkpt>
      <trkpt lat="46.37788" lon="5.96049">
        <ele>1163</ele>
        <time>2019-05-05T08:12:17Z</time>
      </trkpt>
      <trkpt lat="46.37784" lon="5.96068">
        <ele>1162</ele>
        <time>2019-05-05T08:12:26Z</time>
      </trkpt>
      <trkpt lat="46.3778" lon="5.96094">
        <ele>1161</ele>
        <time>2019-05-05T08:12:40Z</time>
      </trkpt>
      <trkpt lat="46.37784" lon="5.96121">
        <ele>1161</ele>
        <time>2019-05-05T08:12:54Z</time>
      </trkpt>
      <trkpt lat="46.37786" lon="5.96142">
        <ele>1160</ele>
        <time>2019-05-05T08:13:04Z</time>
      </trkpt>
      <trkpt lat="46.37794" lon="5.96168">
        <ele>1160</ele>
        <time>2019-05-05T08:13:18Z</time>
      </trkpt>
      <trkpt lat="46.378" lon="5.96193">
        <ele>1160</ele>
        <time>2019-05-05T08:13:31Z</time>
      </trkpt>
      <trkpt lat="46.37802" lon="5.96202">
        <ele>1161</ele>
        <time>2019-05-05T08:13:36Z</time>
      </trkpt>
      <trkpt lat="46.37805" lon="5.96223">
        <ele>1162</ele>
        <time>2019-05-05T08:13:47Z</time>
      </trkpt>
      <trkpt lat="46.37808" lon="5.96232">
        <ele>1162</ele>
        <time>2019-05-05T08:13:52Z</time>
      </trkpt>
      <trkpt lat="46.3781" lon="5.96245">
        <ele>1162</ele>
        <time>2019-05-05T08:13:58Z</time>
      </trkpt>
      <trkpt lat="46.37805" lon="5.96271">
        <ele>1163</ele>
        <time>2019-05-05T08:14:12Z</time>
      </trkpt>
      <trkpt lat="46.37804" lon="5.96294">
        <ele>1164</ele>
        <time>2019-05-05T08:14:23Z</time>
      </trkpt>
      <trkpt lat="46.378" lon="5.96318">
        <ele>1165</ele>
        <time>2019-05-05T08:14:36Z</time>
      </trkpt>
      <trkpt lat="46.37797" lon="5.96335">
        <ele>1166</ele>
        <time>2019-05-05T08:14:45Z</time>
      </trkpt>
      <trkpt lat="46.37794" lon="5.96361">
        <ele>1167</ele>
        <time>2019-05-05T08:14:58Z</time>
      </trkpt>
      <trkpt lat="46.37791" lon="5.96388">
        <ele>1168</ele>
        <time>2019-05-05T08:15:11Z</time>
      </trkpt>
      <trkpt lat="46.37789" lon="5.964">
        <ele>1169</ele>
        <time>2019-05-05T08:15:18Z</time>
      </trkpt>
      <trkpt lat="46.37782" lon="5.96427">
        <ele>1170</ele>
        <time>2019-05-05T08:15:32Z</time>
      </trkpt>
      <trkpt lat="46.37781" lon="5.9643">
        <ele>1170</ele>
        <time>2019-05-05T08:15:34Z</time>
      </trkpt>
      <trkpt lat="46.37775" lon="5.96453">
        <ele>1171</ele>
        <time>2019-05-05T08:15:46Z</time>
      </trkpt>
      <trkpt lat="46.37769" lon="5.96472">
        <ele>1172</ele>
        <time>2019-05-05T08:15:57Z</time>
      </trkpt>
      <trkpt lat="46.37767" lon="5.96478">
        <ele>1173</ele>
        <time>2019-05-05T08:16:00Z</time>
      </trkpt>
      <trkpt lat="46.37759" lon="5.96503">
        <ele>1175</ele>
        <time>2019-05-05T08:16:14Z</time>
      </trkpt>
      <trkpt lat="46.37752" lon="5.96529">
        <ele>1177</ele>
        <time>2019-05-05T08:16:28Z</time>
      </trkpt>
      <trkpt lat="46.3775" lon="5.9654">
        <ele>1177</ele>
        <time>2019-05-05T08:16:33Z</time>
      </trkpt>
      <trkpt lat="46.37745" lon="5.96553">
        <ele>1178</ele>
        <time>2019-05-05T08:16:41Z</time>
      </trkpt>
      <trkpt lat="46.37735" lon="5.96576">
        <ele>1180</ele>
        <time>2019-05-05T08:16:54Z</time>
      </trkpt>
      <trkpt lat="46.37727" lon="5.96602">
        <ele>1181</ele>
        <time>2019-05-05T08:17:09Z</time>
      </trkpt>
      <trkpt lat="46.37725" lon="5.96617">
        <ele>1181</ele>
        <time>2019-05-05T08:17:16Z</time>
      </trkpt>
      <trkpt lat="46.37725" lon="5.96624">
        <ele>1181</ele>
        <time>2019-05-05T08:17:20Z</time>
      </trkpt>
      <trkpt lat="46.37723" lon="5.96648">
        <ele>1181</ele>
        <time>2019-05-05T08:17:32Z</time>
      </trkpt>
      <trkpt lat="46.37721" lon="5.9666">
        <ele>1180</ele>
        <time>2019-05-05T08:17:38Z</time>
      </trkpt>
      <trkpt lat="46.3772" lon="5.96686">
        <ele>1180</ele>
        <time>2019-05-05T08:17:51Z</time>
      </trkpt>
      <trkpt lat="46.37718" lon="5.96695">
        <ele>1180</ele>
        <time>2019-05-05T08:17:56Z</time>
      </trkpt>
      <trkpt lat="46.37712" lon="5.96722">
        <ele>1179</ele>
        <time>2019-05-05T08:18:10Z</time>
      </trkpt>
      <trkpt lat="46.377" lon="5.96747">
        <ele>1179</ele>
        <time>2019-05-05T08:18:25Z</time>
      </trkpt>
      <trkpt lat="46.37685" lon="5.96765">
        <ele>1179</ele>
        <time>2019-05-05T08:18:39Z</time>
      </trkpt>
      <trkpt lat="46.37669" lon="5.9678">
        <ele>1179</ele>
        <time>2019-05-05T08:18:53Z</time>
      </trkpt>
      <trkpt lat="46.37654" lon="5.96796">
        <ele>1179</ele>
        <time>2019-05-05T08:19:07Z</time>
      </trkpt>
      <trkpt lat="46.3764" lon="5.96816">
        <ele>1179</ele>
        <time>2019-05-05T08:19:21Z</time>
      </trkpt>
      <trkpt lat="46.37628" lon="5.9684">
        <ele>1178</ele>
        <time>2019-05-05T08:19:36Z</time>
      </trkpt>
      <trkpt lat="46.37619" lon="5.96863">
        <ele>1177</ele>
        <time>2019-05-05T08:19:49Z</time>
      </trkpt>
      <trkpt lat="46.37609" lon="5.96887">
        <ele>1177</ele>
        <time>2019-05-05T08:20:03Z</time>
      </trkpt>
      <trkpt lat="46.37606" lon="5.96893">
        <ele>1176</ele>
        <time>2019-05-05T08:20:06Z</time>
      </trkpt>
      <trkpt lat="46.37597" lon="5.96914">
        <ele>1176</ele>
        <time>2019-05-05T08:20:19Z</time>
      </trkpt>
      <trkpt lat="46.37586" lon="5.96938">
        <ele>1175</ele>
        <time>2019-05-05T08:20:33Z</time>
      </trkpt>
      <trkpt lat="46.37582" lon="5.96947">
        <ele>1175</ele>
        <time>2019-05-05T08:20:39Z</time>
      </trkpt>
      <trkpt lat="46.37574" lon="5.96966">
        <ele>1175</ele>
        <time>2019-05-05T08:20:50Z</time>
      </trkpt>
      <trkpt lat="46.37565" lon="5.96991">
        <ele>1175</ele>
        <time>2019-05-05T08:21:04Z</time>
      </trkpt>
      <trkpt lat="46.37558" lon="5.97016">
        <ele>1175</ele>
        <time>2019-05-05T08:21:17Z</time>
      </trkpt>
      <trkpt lat="46.37552" lon="5.97042">
        <ele>1175</ele>
        <time>2019-05-05T08:21:31Z</time>
      </trkpt>
      <trkpt lat="46.37549" lon="5.97053">
        <ele>1175</ele>
        <time>2019-05-05T08:21:37Z</time>
      </trkpt>
      <trkpt lat="46.37544" lon="5.97079">
        <ele>1175</ele>
        <time>2019-05-05T08:21:51Z</time>
      </trkpt>
      <trkpt lat="46.37542" lon="5.97091">
        <ele>1175</ele>
        <time>2019-05-05T08:21:56Z</time>
      </trkpt>
      <trkpt lat="46.37536" lon="5.97113">
        <ele>1175</ele>
        <time>2019-05-05T08:22:08Z</time>
      </trkpt>
      <trkpt lat="46.3753" lon="5.97137">
        <ele>1175</ele>
        <time>2019-05-05T08:22:21Z</time>
      </trkpt>
      <trkpt lat="46.37525" lon="5.97164">
        <ele>1174</ele>
        <time>2019-05-05T08:22:35Z</time>
      </trkpt>
      <trkpt lat="46.37516" lon="5.97188">
        <ele>1174</ele>
        <time>2019-05-05T08:22:48Z</time>
      </trkpt>
      <trkpt lat="46.37514" lon="5.97194">
        <ele>1173</ele>
        <time>2019-05-05T08:22:52Z</time>
      </trkpt>
      <trkpt lat="46.37502" lon="5.97216">
        <ele>1173</ele>
        <time>2019-05-05T08:23:06Z</time>
      </trkpt>
      <trkpt lat="46.37491" lon="5.97222">
        <ele>1172</ele>
        <time>2019-05-05T08:23:14Z</time>
      </trkpt>
      <trkpt lat="46.37482" lon="5.97241">
        <ele>1172</ele>
        <time>2019-05-05T08:23:26Z</time>
      </trkpt>
      <trkpt lat="46.37477" lon="5.9726">
        <ele>1172</ele>
        <time>2019-05-05T08:23:36Z</time>
      </trkpt>
      <trkpt lat="46.3747" lon="5.97287">
        <ele>1172</ele>
        <time>2019-05-05T08:23:50Z</time>
      </trkpt>
      <trkpt lat="46.37466" lon="5.97315">
        <ele>1173</ele>
        <time>2019-05-05T08:24:05Z</time>
      </trkpt>
      <trkpt lat="46.37467" lon="5.97342">
        <ele>1174</ele>
        <time>2019-05-05T08:24:18Z</time>
      </trkpt>
      <trkpt lat="46.37465" lon="5.97369">
        <ele>1174</ele>
        <time>2019-05-05T08:24:32Z</time>
      </trkpt>
      <trkpt lat="46.37463" lon="5.97396">
        <ele>1175</ele>
        <time>2019-05-05T08:24:45Z</time>
      </trkpt>
      <trkpt lat="46.37462" lon="5.97422">
        <ele>1175</ele>
        <time>2019-05-05T08:24:58Z</time>
      </trkpt>
      <trkpt lat="46.37458" lon="5.97449">
        <ele>1175</ele>
        <time>2019-05-05T08:25:12Z</time>
      </trkpt>
      <trkpt lat="46.37458" lon="5.97453">
        <ele>1175</ele>
        <time>2019-05-05T08:25:14Z</time>
      </trkpt>
      <trkpt lat="46.37454" lon="5.97479">
        <ele>1175</ele>
        <time>2019-05-05T08:25:27Z</time>
      </trkpt>
      <trkpt lat="46.37452" lon="5.9749">
        <ele>1174</ele>
        <time>2019-05-05T08:25:33Z</time>
      </trkpt>
      <trkpt lat="46.37449" lon="5.97511">
        <ele>1174</ele>
        <time>2019-05-05T08:25:44Z</time>
      </trkpt>
      <trkpt lat="46.37447" lon="5.97517">
        <ele>1174</ele>
        <time>2019-05-05T08:25:47Z</time>
      </trkpt>
      <trkpt lat="46.37445" lon="5.97543">
        <ele>1174</ele>
        <time>2019-05-05T08:26:00Z</time>
      </trkpt>
      <trkpt lat="46.37444" lon="5.97556">
        <ele>1173</ele>
        <time>2019-05-05T08:26:07Z</time>
      </trkpt>
      <trkpt lat="46.3744" lon="5.97585">
        <ele>1173</ele>
        <time>2019-05-05T08:26:21Z</time>
      </trkpt>
      <trkpt lat="46.37437" lon="5.97603">
        <ele>1173</ele>
        <time>2019-05-05T08:26:31Z</time>
      </trkpt>
      <trkpt lat="46.37429" lon="5.97627">
        <ele>1175</ele>
        <time>2019-05-05T08:26:44Z</time>
      </trkpt>
      <trkpt lat="46.3742" lon="5.9765">
        <ele>1177</ele>
        <time>2019-05-05T08:26:57Z</time>
      </trkpt>
      <trkpt lat="46.37417" lon="5.97657">
        <ele>1178</ele>
        <time>2019-05-05T08:27:01Z</time>
      </trkpt>
      <trkpt lat="46.37413" lon="5.97664">
        <ele>1179</ele>
        <time>2019-05-05T08:27:06Z</time>
      </trkpt>
      <trkpt lat="46.37407" lon="5.97675">
        <ele>1181</ele>
        <time>2019-05-05T08:27:13Z</time>
      </trkpt>
      <trkpt lat="46.374" lon="5.97688">
        <ele>1183</ele>
        <time>2019-05-05T08:27:21Z</time>
      </trkpt>
      <trkpt lat="46.37398" lon="5.97692">
        <ele>1184</ele>
        <time>2019-05-05T08:27:24Z</time>
      </trkpt>
      <trkpt lat="46.37392" lon="5.97704">
        <ele>1185</ele>
        <time>2019-05-05T08:27:31Z</time>
      </trkpt>
      <trkpt lat="46.37392" lon="5.97704">
        <ele>1185</ele>
        <time>2019-05-05T08:27:32Z</time>
      </trkpt>
      <trkpt lat="46.37389" lon="5.97709">
        <ele>1186</ele>
        <time>2019-05-05T08:27:35Z</time>
      </trkpt>
      <trkpt lat="46.37387" lon="5.97721">
        <ele>1187</ele>
        <time>2019-05-05T08:27:41Z</time>
      </trkpt>
      <trkpt lat="46.37396" lon="5.97727">
        <ele>1186</ele>
        <time>2019-05-05T08:27:48Z</time>
      </trkpt>
      <trkpt lat="46.37389" lon="5.97731">
        <ele>1187</ele>
        <time>2019-05-05T08:27:54Z</time>
      </trkpt>
      <trkpt lat="46.37385" lon="5.97735">
        <ele>1188</ele>
        <time>2019-05-05T08:27:58Z</time>
      </trkpt>
      <trkpt lat="46.37378" lon="5.97743">
        <ele>1189</ele>
        <time>2019-05-05T08:28:04Z</time>
      </trkpt>
      <trkpt lat="46.37376" lon="5.97746">
        <ele>1189</ele>
        <time>2019-05-05T08:28:06Z</time>
      </trkpt>
      <trkpt lat="46.37372" lon="5.97754">
        <ele>1190</ele>
        <time>2019-05-05T08:28:11Z</time>
      </trkpt>
      <trkpt lat="46.37363" lon="5.97768">
        <ele>1191</ele>
        <time>2019-05-05T08:28:21Z</time>
      </trkpt>
      <trkpt lat="46.37361" lon="5.97773">
        <ele>1191</ele>
        <time>2019-05-05T08:28:24Z</time>
      </trkpt>
      <trkpt lat="46.37356" lon="5.97781">
        <ele>1192</ele>
        <time>2019-05-05T08:28:29Z</time>
      </trkpt>
      <trkpt lat="46.37348" lon="5.97792">
        <ele>1192</ele>
        <time>2019-05-05T08:28:37Z</time>
      </trkpt>
      <trkpt lat="46.37344" lon="5.97795">
        <ele>1192</ele>
        <time>2019-05-05T08:28:40Z</time>
      </trkpt>
      <trkpt lat="46.37332" lon="5.97804">
        <ele>1192</ele>
        <time>2019-05-05T08:28:50Z</time>
      </trkpt>
      <trkpt lat="46.37326" lon="5.97808">
        <ele>1192</ele>
        <time>2019-05-05T08:28:54Z</time>
      </trkpt>
      <trkpt lat="46.37319" lon="5.9781">
        <ele>1192</ele>
        <time>2019-05-05T08:29:00Z</time>
      </trkpt>
      <trkpt lat="46.37308" lon="5.97814">
        <ele>1192</ele>
        <time>2019-05-05T08:29:08Z</time>
      </trkpt>
      <trkpt lat="46.37304" lon="5.97819">
        <ele>1192</ele>
        <time>2019-05-05T08:29:12Z</time>
      </trkpt>
      <trkpt lat="46.37296" lon="5.97833">
        <ele>1193</ele>
        <time>2019-05-05T08:29:21Z</time>
      </trkpt>
      <trkpt lat="46.37295" lon="5.97838">
        <ele>1194</ele>
        <time>2019-05-05T08:29:24Z</time>
      </trkpt>
      <trkpt lat="46.37295" lon="5.9784">
        <ele>1194</ele>
        <time>2019-05-05T08:29:25Z</time>
      </trkpt>
      <trkpt lat="46.37295" lon="5.97843">
        <ele>1194</ele>
        <time>2019-05-05T08:29:26Z</time>
      </trkpt>
      <trkpt lat="46.37298" lon="5.97862">
        <ele>1195</ele>
        <time>2019-05-05T08:29:36Z</time>
      </trkpt>
      <trkpt lat="46.37298" lon="5.97867">
        <ele>1196</ele>
        <time>2019-05-05T08:29:39Z</time>
      </trkpt>
      <trkpt lat="46.37297" lon="5.97884">
        <ele>1197</ele>
        <time>2019-05-05T08:29:47Z</time>
      </trkpt>
      <trkpt lat="46.37297" lon="5.97891">
        <ele>1197</ele>
        <time>2019-05-05T08:29:51Z</time>
      </trkpt>
      <trkpt lat="46.37298" lon="5.97905">
        <ele>1198</ele>
        <time>2019-05-05T08:29:57Z</time>
      </trkpt>
      <trkpt lat="46.37299" lon="5.97919">
        <ele>1199</ele>
        <time>2019-05-05T08:30:05Z</time>
      </trkpt>
      <trkpt lat="46.37298" lon="5.97925">
        <ele>1199</ele>
        <time>2019-05-05T08:30:08Z</time>
      </trkpt>
      <trkpt lat="46.37294" lon="5.97951">
        <ele>1200</ele>
        <time>2019-05-05T08:30:21Z</time>
      </trkpt>
      <trkpt lat="46.37289" lon="5.97977">
        <ele>1201</ele>
        <time>2019-05-05T08:30:34Z</time>
      </trkpt>
      <trkpt lat="46.37283" lon="5.98002">
        <ele>1202</ele>
        <time>2019-05-05T08:30:48Z</time>
      </trkpt>
      <trkpt lat="46.37278" lon="5.98018">
        <ele>1202</ele>
        <time>2019-05-05T08:30:57Z</time>
      </trkpt>
      <trkpt lat="46.37273" lon="5.98043">
        <ele>1204</ele>
        <time>2019-05-05T08:31:10Z</time>
      </trkpt>
      <trkpt lat="46.37267" lon="5.98068">
        <ele>1206</ele>
        <time>2019-05-05T08:31:23Z</time>
      </trkpt>
      <trkpt lat="46.37257" lon="5.98091">
        <ele>1208</ele>
        <time>2019-05-05T08:31:37Z</time>
      </trkpt>
      <trkpt lat="46.37247" lon="5.98106">
        <ele>1210</ele>
        <time>2019-05-05T08:31:47Z</time>
      </trkpt>
      <trkpt lat="46.37229" lon="5.98122">
        <ele>1211</ele>
        <time>2019-05-05T08:32:02Z</time>
      </trkpt>
      <trkpt lat="46.37222" lon="5.98129">
        <ele>1212</ele>
        <time>2019-05-05T08:32:09Z</time>
      </trkpt>
      <trkpt lat="46.37208" lon="5.98147">
        <ele>1212</ele>
        <time>2019-05-05T08:32:22Z</time>
      </trkpt>
      <trkpt lat="46.37204" lon="5.98154">
        <ele>1212</ele>
        <time>2019-05-05T08:32:26Z</time>
      </trkpt>
      <trkpt lat="46.37196" lon="5.98167">
        <ele>1211</ele>
        <time>2019-05-05T08:32:35Z</time>
      </trkpt>
      <trkpt lat="46.37185" lon="5.98189">
        <ele>1210</ele>
        <time>2019-05-05T08:32:49Z</time>
      </trkpt>
      <trkpt lat="46.37179" lon="5.98203">
        <ele>1210</ele>
        <time>2019-05-05T08:32:57Z</time>
      </trkpt>
      <trkpt lat="46.37167" lon="5.98226">
        <ele>1210</ele>
        <time>2019-05-05T08:33:11Z</time>
      </trkpt>
      <trkpt lat="46.37163" lon="5.98252">
        <ele>1210</ele>
        <time>2019-05-05T08:33:25Z</time>
      </trkpt>
      <trkpt lat="46.37161" lon="5.98279">
        <ele>1211</ele>
        <time>2019-05-05T08:33:38Z</time>
      </trkpt>
      <trkpt lat="46.37158" lon="5.98292">
        <ele>1211</ele>
        <time>2019-05-05T08:33:45Z</time>
      </trkpt>
      <trkpt lat="46.37154" lon="5.98314">
        <ele>1210</ele>
        <time>2019-05-05T08:33:57Z</time>
      </trkpt>
      <trkpt lat="46.37143" lon="5.9834">
        <ele>1209</ele>
        <time>2019-05-05T08:34:11Z</time>
      </trkpt>
      <trkpt lat="46.3713" lon="5.98358">
        <ele>1208</ele>
        <time>2019-05-05T08:34:25Z</time>
      </trkpt>
      <trkpt lat="46.37116" lon="5.98377">
        <ele>1206</ele>
        <time>2019-05-05T08:34:38Z</time>
      </trkpt>
      <trkpt lat="46.37112" lon="5.98387">
        <ele>1206</ele>
        <time>2019-05-05T08:34:44Z</time>
      </trkpt>
      <trkpt lat="46.37105" lon="5.98411">
        <ele>1205</ele>
        <time>2019-05-05T08:34:58Z</time>
      </trkpt>
      <trkpt lat="46.37097" lon="5.98435">
        <ele>1206</ele>
        <time>2019-05-05T08:35:11Z</time>
      </trkpt>
      <trkpt lat="46.37087" lon="5.98459">
        <ele>1207</ele>
        <time>2019-05-05T08:35:25Z</time>
      </trkpt>
      <trkpt lat="46.37085" lon="5.98462">
        <ele>1207</ele>
        <time>2019-05-05T08:35:27Z</time>
      </trkpt>
      <trkpt lat="46.37074" lon="5.98485">
        <ele>1208</ele>
        <time>2019-05-05T08:35:41Z</time>
      </trkpt>
      <trkpt lat="46.37064" lon="5.98509">
        <ele>1208</ele>
        <time>2019-05-05T08:35:55Z</time>
      </trkpt>
      <trkpt lat="46.37056" lon="5.98536">
        <ele>1208</ele>
        <time>2019-05-05T08:36:09Z</time>
      </trkpt>
      <trkpt lat="46.37047" lon="5.98561">
        <ele>1206</ele>
        <time>2019-05-05T08:36:24Z</time>
      </trkpt>
      <trkpt lat="46.37046" lon="5.98564">
        <ele>1206</ele>
        <time>2019-05-05T08:36:25Z</time>
      </trkpt>
      <trkpt lat="46.37037" lon="5.98588">
        <ele>1204</ele>
        <time>2019-05-05T08:36:39Z</time>
      </trkpt>
      <trkpt lat="46.37027" lon="5.98608">
        <ele>1202</ele>
        <time>2019-05-05T08:36:51Z</time>
      </trkpt>
      <trkpt lat="46.37017" lon="5.9863">
        <ele>1201</ele>
        <time>2019-05-05T08:37:04Z</time>
      </trkpt>
      <trkpt lat="46.37006" lon="5.98637">
        <ele>1200</ele>
        <time>2019-05-05T08:37:14Z</time>
      </trkpt>
      <trkpt lat="46.37002" lon="5.98635">
        <ele>1200</ele>
        <time>2019-05-05T08:37:16Z</time>
      </trkpt>
      <trkpt lat="46.36998" lon="5.98663">
        <ele>1200</ele>
        <time>2019-05-05T08:37:31Z</time>
      </trkpt>
      <trkpt lat="46.36991" lon="5.98692">
        <ele>1199</ele>
        <time>2019-05-05T08:37:46Z</time>
      </trkpt>
      <trkpt lat="46.36987" lon="5.98718">
        <ele>1198</ele>
        <time>2019-05-05T08:37:59Z</time>
      </trkpt>
      <trkpt lat="46.36986" lon="5.98725">
        <ele>1197</ele>
        <time>2019-05-05T08:38:03Z</time>
      </trkpt>
      <trkpt lat="46.36984" lon="5.98736">
        <ele>1197</ele>
        <time>2019-05-05T08:38:09Z</time>
      </trkpt>
      <trkpt lat="46.3698" lon="5.98743">
        <ele>1195</ele>
        <time>2019-05-05T08:38:14Z</time>
      </trkpt>
      <trkpt lat="46.36974" lon="5.98748">
        <ele>1194</ele>
        <time>2019-05-05T08:38:18Z</time>
      </trkpt>
      <trkpt lat="46.36968" lon="5.98746">
        <ele>1192</ele>
        <time>2019-05-05T08:38:23Z</time>
      </trkpt>
      <trkpt lat="46.36963" lon="5.98741">
        <ele>1191</ele>
        <time>2019-05-05T08:38:27Z</time>
      </trkpt>
      <trkpt lat="46.36957" lon="5.9873">
        <ele>1190</ele>
        <time>2019-05-05T08:38:34Z</time>
      </trkpt>
      <trkpt lat="46.3695" lon="5.98716">
        <ele>1189</ele>
        <time>2019-05-05T08:38:43Z</time>
      </trkpt>
      <trkpt lat="46.36945" lon="5.98709">
        <ele>1189</ele>
        <time>2019-05-05T08:38:48Z</time>
      </trkpt>
      <trkpt lat="46.36943" lon="5.98704">
        <ele>1189</ele>
        <time>2019-05-05T08:38:51Z</time>
      </trkpt>
      <trkpt lat="46.36938" lon="5.9869">
        <ele>1189</ele>
        <time>2019-05-05T08:38:59Z</time>
      </trkpt>
      <trkpt lat="46.36933" lon="5.98677">
        <ele>1188</ele>
        <time>2019-05-05T08:39:06Z</time>
      </trkpt>
      <trkpt lat="46.36929" lon="5.98672">
        <ele>1188</ele>
        <time>2019-05-05T08:39:10Z</time>
      </trkpt>
      <trkpt lat="46.36928" lon="5.98675">
        <ele>1187</ele>
        <time>2019-05-05T08:39:12Z</time>
      </trkpt>
      <trkpt lat="46.36927" lon="5.98674">
        <ele>1187</ele>
        <time>2019-05-05T08:39:13Z</time>
      </trkpt>
      <trkpt lat="46.36925" lon="5.98666">
        <ele>1187</ele>
        <time>2019-05-05T08:39:17Z</time>
      </trkpt>
      <trkpt lat="46.36924" lon="5.98665">
        <ele>1187</ele>
        <time>2019-05-05T08:39:18Z</time>
      </trkpt>
      <trkpt lat="46.36921" lon="5.98662">
        <ele>1186</ele>
        <time>2019-05-05T08:39:21Z</time>
      </trkpt>
      <trkpt lat="46.36915" lon="5.98657">
        <ele>1185</ele>
        <time>2019-05-05T08:39:26Z</time>
      </trkpt>
      <trkpt lat="46.36913" lon="5.98659">
        <ele>1184</ele>
        <time>2019-05-05T08:39:27Z</time>
      </trkpt>
      <trkpt lat="46.36912" lon="5.98664">
        <ele>1184</ele>
        <time>2019-05-05T08:39:30Z</time>
      </trkpt>
      <trkpt lat="46.36913" lon="5.98666">
        <ele>1184</ele>
        <time>2019-05-05T08:39:31Z</time>
      </trkpt>
      <trkpt lat="46.36912" lon="5.9867">
        <ele>1183</ele>
        <time>2019-05-05T08:39:33Z</time>
      </trkpt>
      <trkpt lat="46.3691" lon="5.98673">
        <ele>1182</ele>
        <time>2019-05-05T08:39:35Z</time>
      </trkpt>
      <trkpt lat="46.3691" lon="5.98677">
        <ele>1182</ele>
        <time>2019-05-05T08:39:37Z</time>
      </trkpt>
      <trkpt lat="46.3691" lon="5.98687">
        <ele>1181</ele>
        <time>2019-05-05T08:39:42Z</time>
      </trkpt>
      <trkpt lat="46.36911" lon="5.98695">
        <ele>1180</ele>
        <time>2019-05-05T08:39:46Z</time>
      </trkpt>
      <trkpt lat="46.36909" lon="5.98693">
        <ele>1180</ele>
        <time>2019-05-05T08:39:48Z</time>
      </trkpt>
      <trkpt lat="46.36906" lon="5.98679">
        <ele>1181</ele>
        <time>2019-05-05T08:39:55Z</time>
      </trkpt>
      <trkpt lat="46.36907" lon="5.98671">
        <ele>1182</ele>
        <time>2019-05-05T08:40:00Z</time>
      </trkpt>
      <trkpt lat="46.3691" lon="5.9866">
        <ele>1184</ele>
        <time>2019-05-05T08:40:05Z</time>
      </trkpt>
      <trkpt lat="46.36915" lon="5.98653">
        <ele>1185</ele>
        <time>2019-05-05T08:40:10Z</time>
      </trkpt>
      <trkpt lat="46.36917" lon="5.98653">
        <ele>1186</ele>
        <time>2019-05-05T08:40:12Z</time>
      </trkpt>
      <trkpt lat="46.36922" lon="5.98657">
        <ele>1187</ele>
        <time>2019-05-05T08:40:17Z</time>
      </trkpt>
      <trkpt lat="46.36926" lon="5.98664">
        <ele>1187</ele>
        <time>2019-05-05T08:40:21Z</time>
      </trkpt>
      <trkpt lat="46.36931" lon="5.98671">
        <ele>1188</ele>
        <time>2019-05-05T08:40:26Z</time>
      </trkpt>
      <trkpt lat="46.36932" lon="5.98671">
        <ele>1188</ele>
        <time>2019-05-05T08:40:27Z</time>
      </trkpt>
      <trkpt lat="46.36934" lon="5.98669">
        <ele>1189</ele>
        <time>2019-05-05T08:40:29Z</time>
      </trkpt>
      <trkpt lat="46.36932" lon="5.98662">
        <ele>1189</ele>
        <time>2019-05-05T08:40:32Z</time>
      </trkpt>
      <trkpt lat="46.36925" lon="5.98645">
        <ele>1189</ele>
        <time>2019-05-05T08:40:42Z</time>
      </trkpt>
      <trkpt lat="46.36925" lon="5.98643">
        <ele>1189</ele>
        <time>2019-05-05T08:40:43Z</time>
      </trkpt>
      <trkpt lat="46.36926" lon="5.98644">
        <ele>1189</ele>
        <time>2019-05-05T08:40:44Z</time>
      </trkpt>
      <trkpt lat="46.36929" lon="5.9865">
        <ele>1189</ele>
        <time>2019-05-05T08:40:47Z</time>
      </trkpt>
      <trkpt lat="46.36933" lon="5.98668">
        <ele>1189</ele>
        <time>2019-05-05T08:40:56Z</time>
      </trkpt>
      <trkpt lat="46.36934" lon="5.98676">
        <ele>1189</ele>
        <time>2019-05-05T08:41:01Z</time>
      </trkpt>
      <trkpt lat="46.36932" lon="5.98676">
        <ele>1188</ele>
        <time>2019-05-05T08:41:02Z</time>
      </trkpt>
      <trkpt lat="46.3693" lon="5.98669">
        <ele>1188</ele>
        <time>2019-05-05T08:41:06Z</time>
      </trkpt>
      <trkpt lat="46.36929" lon="5.98666">
        <ele>1188</ele>
        <time>2019-05-05T08:41:08Z</time>
      </trkpt>
      <trkpt lat="46.36927" lon="5.98663">
        <ele>1188</ele>
        <time>2019-05-05T08:41:10Z</time>
      </trkpt>
      <trkpt lat="46.36919" lon="5.98661">
        <ele>1186</ele>
        <time>2019-05-05T08:41:15Z</time>
      </trkpt>
      <trkpt lat="46.36915" lon="5.98662">
        <ele>1185</ele>
        <time>2019-05-05T08:41:19Z</time>
      </trkpt>
      <trkpt lat="46.36913" lon="5.98675">
        <ele>1183</ele>
        <time>2019-05-05T08:41:25Z</time>
      </trkpt>
      <trkpt lat="46.36914" lon="5.98688">
        <ele>1182</ele>
        <time>2019-05-05T08:41:32Z</time>
      </trkpt>
      <trkpt lat="46.36915" lon="5.98696">
        <ele>1181</ele>
        <time>2019-05-05T08:41:36Z</time>
      </trkpt>
      <trkpt lat="46.36916" lon="5.98703">
        <ele>1181</ele>
        <time>2019-05-05T08:41:40Z</time>
      </trkpt>
      <trkpt lat="46.36918" lon="5.98707">
        <ele>1181</ele>
        <time>2019-05-05T08:41:42Z</time>
      </trkpt>
      <trkpt lat="46.36922" lon="5.98718">
        <ele>1181</ele>
        <time>2019-05-05T08:41:48Z</time>
      </trkpt>
      <trkpt lat="46.3692" lon="5.98725">
        <ele>1180</ele>
        <time>2019-05-05T08:41:52Z</time>
      </trkpt>
      <trkpt lat="46.36918" lon="5.98727">
        <ele>1179</ele>
        <time>2019-05-05T08:41:54Z</time>
      </trkpt>
      <trkpt lat="46.36915" lon="5.98728">
        <ele>1178</ele>
        <time>2019-05-05T08:41:56Z</time>
      </trkpt>
      <trkpt lat="46.36906" lon="5.98727">
        <ele>1175</ele>
        <time>2019-05-05T08:42:03Z</time>
      </trkpt>
      <trkpt lat="46.36895" lon="5.98719">
        <ele>1172</ele>
        <time>2019-05-05T08:42:12Z</time>
      </trkpt>
      <trkpt lat="46.36888" lon="5.98712">
        <ele>1171</ele>
        <time>2019-05-05T08:42:18Z</time>
      </trkpt>
      <trkpt lat="46.36879" lon="5.98703">
        <ele>1169</ele>
        <time>2019-05-05T08:42:26Z</time>
      </trkpt>
      <trkpt lat="46.36876" lon="5.987">
        <ele>1169</ele>
        <time>2019-05-05T08:42:29Z</time>
      </trkpt>
      <trkpt lat="46.36868" lon="5.98689">
        <ele>1168</ele>
        <time>2019-05-05T08:42:37Z</time>
      </trkpt>
      <trkpt lat="46.36858" lon="5.98676">
        <ele>1168</ele>
        <time>2019-05-05T08:42:47Z</time>
      </trkpt>
      <trkpt lat="46.36855" lon="5.98671">
        <ele>1167</ele>
        <time>2019-05-05T08:42:50Z</time>
      </trkpt>
      <trkpt lat="46.36853" lon="5.9867">
        <ele>1167</ele>
        <time>2019-05-05T08:42:52Z</time>
      </trkpt>
      <trkpt lat="46.36847" lon="5.98666">
        <ele>1164</ele>
        <time>2019-05-05T08:42:57Z</time>
      </trkpt>
      <trkpt lat="46.36844" lon="5.98664">
        <ele>1164</ele>
        <time>2019-05-05T08:42:59Z</time>
      </trkpt>
      <trkpt lat="46.36835" lon="5.98651">
        <ele>1162</ele>
        <time>2019-05-05T08:43:09Z</time>
      </trkpt>
      <trkpt lat="46.3683" lon="5.9864">
        <ele>1162</ele>
        <time>2019-05-05T08:43:15Z</time>
      </trkpt>
      <trkpt lat="46.36824" lon="5.98622">
        <ele>1162</ele>
        <time>2019-05-05T08:43:25Z</time>
      </trkpt>
      <trkpt lat="46.36817" lon="5.98599">
        <ele>1164</ele>
        <time>2019-05-05T08:43:38Z</time>
      </trkpt>
      <trkpt lat="46.36802" lon="5.98585">
        <ele>1159</ele>
        <time>2019-05-05T08:43:51Z</time>
      </trkpt>
      <trkpt lat="46.36786" lon="5.98576">
        <ele>1154</ele>
        <time>2019-05-05T08:44:04Z</time>
      </trkpt>
      <trkpt lat="46.36782" lon="5.98571">
        <ele>1153</ele>
        <time>2019-05-05T08:44:08Z</time>
      </trkpt>
      <trkpt lat="46.36776" lon="5.98564">
        <ele>1152</ele>
        <time>2019-05-05T08:44:13Z</time>
      </trkpt>
      <trkpt lat="46.36774" lon="5.98562">
        <ele>1151</ele>
        <time>2019-05-05T08:44:15Z</time>
      </trkpt>
      <trkpt lat="46.36772" lon="5.98561">
        <ele>1150</ele>
        <time>2019-05-05T08:44:17Z</time>
      </trkpt>
      <trkpt lat="46.36771" lon="5.98559">
        <ele>1150</ele>
        <time>2019-05-05T08:44:18Z</time>
      </trkpt>
      <trkpt lat="46.36769" lon="5.98557">
        <ele>1149</ele>
        <time>2019-05-05T08:44:20Z</time>
      </trkpt>
      <trkpt lat="46.36767" lon="5.98556">
        <ele>1148</ele>
        <time>2019-05-05T08:44:22Z</time>
      </trkpt>
      <trkpt lat="46.36764" lon="5.98552">
        <ele>1147</ele>
        <time>2019-05-05T08:44:25Z</time>
      </trkpt>
      <trkpt lat="46.36763" lon="5.9855">
        <ele>1146</ele>
        <time>2019-05-05T08:44:26Z</time>
      </trkpt>
      <trkpt lat="46.3676" lon="5.98546">
        <ele>1145</ele>
        <time>2019-05-05T08:44:29Z</time>
      </trkpt>
      <trkpt lat="46.36756" lon="5.98542">
        <ele>1144</ele>
        <time>2019-05-05T08:44:33Z</time>
      </trkpt>
      <trkpt lat="46.36753" lon="5.98536">
        <ele>1143</ele>
        <time>2019-05-05T08:44:37Z</time>
      </trkpt>
      <trkpt lat="46.3675" lon="5.98531">
        <ele>1141</ele>
        <time>2019-05-05T08:44:40Z</time>
      </trkpt>
      <trkpt lat="46.36746" lon="5.9853">
        <ele>1140</ele>
        <time>2019-05-05T08:44:43Z</time>
      </trkpt>
      <trkpt lat="46.36744" lon="5.98524">
        <ele>1139</ele>
        <time>2019-05-05T08:44:46Z</time>
      </trkpt>
      <trkpt lat="46.36742" lon="5.9852">
        <ele>1139</ele>
        <time>2019-05-05T08:44:49Z</time>
      </trkpt>
      <trkpt lat="46.3674" lon="5.98515">
        <ele>1138</ele>
        <time>2019-05-05T08:44:52Z</time>
      </trkpt>
      <trkpt lat="46.36736" lon="5.98513">
        <ele>1136</ele>
        <time>2019-05-05T08:44:55Z</time>
      </trkpt>
      <trkpt lat="46.36732" lon="5.98507">
        <ele>1136</ele>
        <time>2019-05-05T08:44:58Z</time>
      </trkpt>
      <trkpt lat="46.36725" lon="5.98495">
        <ele>1134</ele>
        <time>2019-05-05T08:45:07Z</time>
      </trkpt>
      <trkpt lat="46.36721" lon="5.98488">
        <ele>1133</ele>
        <time>2019-05-05T08:45:11Z</time>
      </trkpt>
      <trkpt lat="46.36711" lon="5.98482">
        <ele>1129</ele>
        <time>2019-05-05T08:45:19Z</time>
      </trkpt>
      <trkpt lat="46.36708" lon="5.98477">
        <ele>1128</ele>
        <time>2019-05-05T08:45:23Z</time>
      </trkpt>
      <trkpt lat="46.36705" lon="5.9847">
        <ele>1128</ele>
        <time>2019-05-05T08:45:27Z</time>
      </trkpt>
      <trkpt lat="46.36702" lon="5.98462">
        <ele>1127</ele>
        <time>2019-05-05T08:45:31Z</time>
      </trkpt>
      <trkpt lat="46.36699" lon="5.98455">
        <ele>1127</ele>
        <time>2019-05-05T08:45:36Z</time>
      </trkpt>
      <trkpt lat="46.36696" lon="5.98447">
        <ele>1127</ele>
        <time>2019-05-05T08:45:40Z</time>
      </trkpt>
      <trkpt lat="46.36691" lon="5.98439">
        <ele>1126</ele>
        <time>2019-05-05T08:45:46Z</time>
      </trkpt>
      <trkpt lat="46.3668" lon="5.98421">
        <ele>1123</ele>
        <time>2019-05-05T08:45:58Z</time>
      </trkpt>
      <trkpt lat="46.36675" lon="5.98411">
        <ele>1123</ele>
        <time>2019-05-05T08:46:04Z</time>
      </trkpt>
      <trkpt lat="46.36673" lon="5.98404">
        <ele>1123</ele>
        <time>2019-05-05T08:46:08Z</time>
      </trkpt>
      <trkpt lat="46.36669" lon="5.98399">
        <ele>1121</ele>
        <time>2019-05-05T08:46:12Z</time>
      </trkpt>
      <trkpt lat="46.36662" lon="5.98388">
        <ele>1120</ele>
        <time>2019-05-05T08:46:19Z</time>
      </trkpt>
      <trkpt lat="46.36658" lon="5.98381">
        <ele>1119</ele>
        <time>2019-05-05T08:46:24Z</time>
      </trkpt>
      <trkpt lat="46.36655" lon="5.9837">
        <ele>1119</ele>
        <time>2019-05-05T08:46:30Z</time>
      </trkpt>
      <trkpt lat="46.36647" lon="5.98364">
        <ele>1116</ele>
        <time>2019-05-05T08:46:37Z</time>
      </trkpt>
      <trkpt lat="46.36645" lon="5.9836">
        <ele>1116</ele>
        <time>2019-05-05T08:46:39Z</time>
      </trkpt>
      <trkpt lat="46.36641" lon="5.98348">
        <ele>1116</ele>
        <time>2019-05-05T08:46:46Z</time>
      </trkpt>
      <trkpt lat="46.36629" lon="5.98334">
        <ele>1111</ele>
        <time>2019-05-05T08:46:57Z</time>
      </trkpt>
      <trkpt lat="46.36624" lon="5.98327">
        <ele>1109</ele>
        <time>2019-05-05T08:47:02Z</time>
      </trkpt>
      <trkpt lat="46.36619" lon="5.98319">
        <ele>1108</ele>
        <time>2019-05-05T08:47:08Z</time>
      </trkpt>
      <trkpt lat="46.36614" lon="5.98315">
        <ele>1105</ele>
        <time>2019-05-05T08:47:13Z</time>
      </trkpt>
      <trkpt lat="46.36606" lon="5.98299">
        <ele>1103</ele>
        <time>2019-05-05T08:47:22Z</time>
      </trkpt>
      <trkpt lat="46.36602" lon="5.98291">
        <ele>1102</ele>
        <time>2019-05-05T08:47:27Z</time>
      </trkpt>
      <trkpt lat="46.36599" lon="5.98282">
        <ele>1101</ele>
        <time>2019-05-05T08:47:32Z</time>
      </trkpt>
      <trkpt lat="46.3659" lon="5.98267">
        <ele>1099</ele>
        <time>2019-05-05T08:47:42Z</time>
      </trkpt>
      <trkpt lat="46.36588" lon="5.98266">
        <ele>1097</ele>
        <time>2019-05-05T08:47:44Z</time>
      </trkpt>
      <trkpt lat="46.36587" lon="5.98262">
        <ele>1098</ele>
        <time>2019-05-05T08:47:47Z</time>
      </trkpt>
      <trkpt lat="46.36587" lon="5.98262">
        <ele>1098</ele>
        <time>2019-05-05T08:47:47Z</time>
      </trkpt>
      <trkpt lat="46.36587" lon="5.98261">
        <ele>1098</ele>
        <time>2019-05-05T08:47:48Z</time>
      </trkpt>
      <trkpt lat="46.36586" lon="5.98258">
        <ele>1098</ele>
        <time>2019-05-05T08:47:49Z</time>
      </trkpt>
      <trkpt lat="46.36587" lon="5.98254">
        <ele>1100</ele>
        <time>2019-05-05T08:47:51Z</time>
      </trkpt>
      <trkpt lat="46.36587" lon="5.98253">
        <ele>1100</ele>
        <time>2019-05-05T08:47:52Z</time>
      </trkpt>
      <trkpt lat="46.36587" lon="5.98247">
        <ele>1102</ele>
        <time>2019-05-05T08:47:55Z</time>
      </trkpt>
      <trkpt lat="46.36588" lon="5.98246">
        <ele>1102</ele>
        <time>2019-05-05T08:47:56Z</time>
      </trkpt>
      <trkpt lat="46.36589" lon="5.98242">
        <ele>1104</ele>
        <time>2019-05-05T08:47:59Z</time>
      </trkpt>
      <trkpt lat="46.3659" lon="5.98237">
        <ele>1106</ele>
        <time>2019-05-05T08:48:01Z</time>
      </trkpt>
      <trkpt lat="46.36591" lon="5.98235">
        <ele>1107</ele>
        <time>2019-05-05T08:48:03Z</time>
      </trkpt>
      <trkpt lat="46.36589" lon="5.98229">
        <ele>1107</ele>
        <time>2019-05-05T08:48:06Z</time>
      </trkpt>
      <trkpt lat="46.36588" lon="5.98226">
        <ele>1107</ele>
        <time>2019-05-05T08:48:07Z</time>
      </trkpt>
      <trkpt lat="46.36588" lon="5.98225">
        <ele>1107</ele>
        <time>2019-05-05T08:48:08Z</time>
      </trkpt>
      <trkpt lat="46.36587" lon="5.98223">
        <ele>1107</ele>
        <time>2019-05-05T08:48:09Z</time>
      </trkpt>
      <trkpt lat="46.36586" lon="5.98221">
        <ele>1108</ele>
        <time>2019-05-05T08:48:11Z</time>
      </trkpt>
      <trkpt lat="46.36587" lon="5.98219">
        <ele>1108</ele>
        <time>2019-05-05T08:48:12Z</time>
      </trkpt>
      <trkpt lat="46.36586" lon="5.98218">
        <ele>1108</ele>
        <time>2019-05-05T08:48:12Z</time>
      </trkpt>
      <trkpt lat="46.36586" lon="5.98218">
        <ele>1108</ele>
        <time>2019-05-05T08:48:12Z</time>
      </trkpt>
      <trkpt lat="46.36586" lon="5.98217">
        <ele>1108</ele>
        <time>2019-05-05T08:48:13Z</time>
      </trkpt>
      <trkpt lat="46.36588" lon="5.98214">
        <ele>1110</ele>
        <time>2019-05-05T08:48:15Z</time>
      </trkpt>
      <trkpt lat="46.36587" lon="5.98208">
        <ele>1111</ele>
        <time>2019-05-05T08:48:18Z</time>
      </trkpt>
      <trkpt lat="46.36587" lon="5.98203">
        <ele>1112</ele>
        <time>2019-05-05T08:48:21Z</time>
      </trkpt>
      <trkpt lat="46.36587" lon="5.98201">
        <ele>1113</ele>
        <time>2019-05-05T08:48:22Z</time>
      </trkpt>
      <trkpt lat="46.36587" lon="5.98198">
        <ele>1113</ele>
        <time>2019-05-05T08:48:23Z</time>
      </trkpt>
      <trkpt lat="46.36587" lon="5.98195">
        <ele>1114</ele>
        <time>2019-05-05T08:48:25Z</time>
      </trkpt>
      <trkpt lat="46.36589" lon="5.9819">
        <ele>1117</ele>
        <time>2019-05-05T08:48:29Z</time>
      </trkpt>
      <trkpt lat="46.36589" lon="5.98187">
        <ele>1117</ele>
        <time>2019-05-05T08:48:30Z</time>
      </trkpt>
      <trkpt lat="46.36589" lon="5.98185">
        <ele>1118</ele>
        <time>2019-05-05T08:48:31Z</time>
      </trkpt>
      <trkpt lat="46.36589" lon="5.9818">
        <ele>1119</ele>
        <time>2019-05-05T08:48:34Z</time>
      </trkpt>
      <trkpt lat="46.36589" lon="5.98176">
        <ele>1120</ele>
        <time>2019-05-05T08:48:36Z</time>
      </trkpt>
      <trkpt lat="46.36589" lon="5.98176">
        <ele>1120</ele>
        <time>2019-05-05T08:48:36Z</time>
      </trkpt>
      <trkpt lat="46.36585" lon="5.98172">
        <ele>1119</ele>
        <time>2019-05-05T08:48:40Z</time>
      </trkpt>
      <trkpt lat="46.36584" lon="5.98166">
        <ele>1120</ele>
        <time>2019-05-05T08:48:43Z</time>
      </trkpt>
      <trkpt lat="46.36584" lon="5.98159">
        <ele>1121</ele>
        <time>2019-05-05T08:48:46Z</time>
      </trkpt>
      <trkpt lat="46.36582" lon="5.98157">
        <ele>1121</ele>
        <time>2019-05-05T08:48:48Z</time>
      </trkpt>
      <trkpt lat="46.36581" lon="5.98153">
        <ele>1121</ele>
        <time>2019-05-05T08:48:50Z</time>
      </trkpt>
      <trkpt lat="46.36578" lon="5.98142">
        <ele>1122</ele>
        <time>2019-05-05T08:48:56Z</time>
      </trkpt>
      <trkpt lat="46.36575" lon="5.98132">
        <ele>1123</ele>
        <time>2019-05-05T08:49:02Z</time>
      </trkpt>
      <trkpt lat="46.36574" lon="5.98128">
        <ele>1123</ele>
        <time>2019-05-05T08:49:04Z</time>
      </trkpt>
      <trkpt lat="46.36573" lon="5.98122">
        <ele>1124</ele>
        <time>2019-05-05T08:49:07Z</time>
      </trkpt>
      <trkpt lat="46.36573" lon="5.9812">
        <ele>1125</ele>
        <time>2019-05-05T08:49:08Z</time>
      </trkpt>
      <trkpt lat="46.36573" lon="5.98117">
        <ele>1125</ele>
        <time>2019-05-05T08:49:10Z</time>
      </trkpt>
      <trkpt lat="46.36572" lon="5.98113">
        <ele>1126</ele>
        <time>2019-05-05T08:49:12Z</time>
      </trkpt>
      <trkpt lat="46.36572" lon="5.98106">
        <ele>1128</ele>
        <time>2019-05-05T08:49:15Z</time>
      </trkpt>
      <trkpt lat="46.36571" lon="5.98102">
        <ele>1128</ele>
        <time>2019-05-05T08:49:17Z</time>
      </trkpt>
      <trkpt lat="46.3657" lon="5.98091">
        <ele>1130</ele>
        <time>2019-05-05T08:49:23Z</time>
      </trkpt>
      <trkpt lat="46.36567" lon="5.98084">
        <ele>1130</ele>
        <time>2019-05-05T08:49:27Z</time>
      </trkpt>
      <trkpt lat="46.36564" lon="5.98079">
        <ele>1129</ele>
        <time>2019-05-05T08:49:31Z</time>
      </trkpt>
      <trkpt lat="46.36564" lon="5.98078">
        <ele>1129</ele>
        <time>2019-05-05T08:49:31Z</time>
      </trkpt>
      <trkpt lat="46.36564" lon="5.98074">
        <ele>1130</ele>
        <time>2019-05-05T08:49:34Z</time>
      </trkpt>
      <trkpt lat="46.36565" lon="5.98071">
        <ele>1131</ele>
        <time>2019-05-05T08:49:35Z</time>
      </trkpt>
      <trkpt lat="46.36564" lon="5.98065">
        <ele>1132</ele>
        <time>2019-05-05T08:49:38Z</time>
      </trkpt>
      <trkpt lat="46.36563" lon="5.98062">
        <ele>1132</ele>
        <time>2019-05-05T08:49:40Z</time>
      </trkpt>
      <trkpt lat="46.36563" lon="5.98061">
        <ele>1132</ele>
        <time>2019-05-05T08:49:41Z</time>
      </trkpt>
      <trkpt lat="46.36563" lon="5.98058">
        <ele>1132</ele>
        <time>2019-05-05T08:49:42Z</time>
      </trkpt>
      <trkpt lat="46.36564" lon="5.98054">
        <ele>1134</ele>
        <time>2019-05-05T08:49:45Z</time>
      </trkpt>
      <trkpt lat="46.36563" lon="5.98052">
        <ele>1134</ele>
        <time>2019-05-05T08:49:46Z</time>
      </trkpt>
      <trkpt lat="46.36563" lon="5.98042">
        <ele>1135</ele>
        <time>2019-05-05T08:49:50Z</time>
      </trkpt>
      <trkpt lat="46.36563" lon="5.98041">
        <ele>1136</ele>
        <time>2019-05-05T08:49:51Z</time>
      </trkpt>
      <trkpt lat="46.36563" lon="5.98033">
        <ele>1137</ele>
        <time>2019-05-05T08:49:56Z</time>
      </trkpt>
      <trkpt lat="46.36563" lon="5.98022">
        <ele>1139</ele>
        <time>2019-05-05T08:50:01Z</time>
      </trkpt>
      <trkpt lat="46.36563" lon="5.98017">
        <ele>1140</ele>
        <time>2019-05-05T08:50:04Z</time>
      </trkpt>
      <trkpt lat="46.36562" lon="5.98015">
        <ele>1140</ele>
        <time>2019-05-05T08:50:05Z</time>
      </trkpt>
      <trkpt lat="46.3656" lon="5.98008">
        <ele>1141</ele>
        <time>2019-05-05T08:50:08Z</time>
      </trkpt>
      <trkpt lat="46.36559" lon="5.98004">
        <ele>1141</ele>
        <time>2019-05-05T08:50:11Z</time>
      </trkpt>
      <trkpt lat="46.36559" lon="5.97999">
        <ele>1142</ele>
        <time>2019-05-05T08:50:14Z</time>
      </trkpt>
      <trkpt lat="46.36558" lon="5.97995">
        <ele>1142</ele>
        <time>2019-05-05T08:50:15Z</time>
      </trkpt>
      <trkpt lat="46.36557" lon="5.97992">
        <ele>1142</ele>
        <time>2019-05-05T08:50:17Z</time>
      </trkpt>
      <trkpt lat="46.36557" lon="5.97989">
        <ele>1143</ele>
        <time>2019-05-05T08:50:19Z</time>
      </trkpt>
      <trkpt lat="46.36555" lon="5.97986">
        <ele>1143</ele>
        <time>2019-05-05T08:50:21Z</time>
      </trkpt>
      <trkpt lat="46.36552" lon="5.9798">
        <ele>1142</ele>
        <time>2019-05-05T08:50:25Z</time>
      </trkpt>
      <trkpt lat="46.36553" lon="5.97975">
        <ele>1144</ele>
        <time>2019-05-05T08:50:28Z</time>
      </trkpt>
      <trkpt lat="46.36553" lon="5.9797">
        <ele>1145</ele>
        <time>2019-05-05T08:50:30Z</time>
      </trkpt>
      <trkpt lat="46.36553" lon="5.97967">
        <ele>1146</ele>
        <time>2019-05-05T08:50:32Z</time>
      </trkpt>
      <trkpt lat="46.36553" lon="5.97966">
        <ele>1146</ele>
        <time>2019-05-05T08:50:33Z</time>
      </trkpt>
      <trkpt lat="46.36553" lon="5.97964">
        <ele>1146</ele>
        <time>2019-05-05T08:50:33Z</time>
      </trkpt>
      <trkpt lat="46.36552" lon="5.97957">
        <ele>1147</ele>
        <time>2019-05-05T08:50:37Z</time>
      </trkpt>
      <trkpt lat="46.3655" lon="5.97953">
        <ele>1147</ele>
        <time>2019-05-05T08:50:40Z</time>
      </trkpt>
      <trkpt lat="46.3655" lon="5.97949">
        <ele>1148</ele>
        <time>2019-05-05T08:50:41Z</time>
      </trkpt>
      <trkpt lat="46.36549" lon="5.97947">
        <ele>1148</ele>
        <time>2019-05-05T08:50:43Z</time>
      </trkpt>
      <trkpt lat="46.36549" lon="5.97945">
        <ele>1148</ele>
        <time>2019-05-05T08:50:44Z</time>
      </trkpt>
      <trkpt lat="46.36547" lon="5.97943">
        <ele>1148</ele>
        <time>2019-05-05T08:50:46Z</time>
      </trkpt>
      <trkpt lat="46.36547" lon="5.97936">
        <ele>1149</ele>
        <time>2019-05-05T08:50:49Z</time>
      </trkpt>
      <trkpt lat="46.36547" lon="5.97934">
        <ele>1150</ele>
        <time>2019-05-05T08:50:50Z</time>
      </trkpt>
      <trkpt lat="46.36549" lon="5.97927">
        <ele>1153</ele>
        <time>2019-05-05T08:50:55Z</time>
      </trkpt>
      <trkpt lat="46.36553" lon="5.97919">
        <ele>1156</ele>
        <time>2019-05-05T08:51:00Z</time>
      </trkpt>
      <trkpt lat="46.36554" lon="5.97915">
        <ele>1157</ele>
        <time>2019-05-05T08:51:02Z</time>
      </trkpt>
      <trkpt lat="46.36554" lon="5.97914">
        <ele>1158</ele>
        <time>2019-05-05T08:51:03Z</time>
      </trkpt>
      <trkpt lat="46.36558" lon="5.9791">
        <ele>1160</ele>
        <time>2019-05-05T08:51:06Z</time>
      </trkpt>
      <trkpt lat="46.36563" lon="5.97906">
        <ele>1163</ele>
        <time>2019-05-05T08:51:11Z</time>
      </trkpt>
      <trkpt lat="46.36567" lon="5.97903">
        <ele>1165</ele>
        <time>2019-05-05T08:51:14Z</time>
      </trkpt>
      <trkpt lat="46.3657" lon="5.979">
        <ele>1167</ele>
        <time>2019-05-05T08:51:18Z</time>
      </trkpt>
      <trkpt lat="46.36571" lon="5.979">
        <ele>1167</ele>
        <time>2019-05-05T08:51:18Z</time>
      </trkpt>
      <trkpt lat="46.36574" lon="5.97897">
        <ele>1169</ele>
        <time>2019-05-05T08:51:21Z</time>
      </trkpt>
      <trkpt lat="46.36575" lon="5.97895">
        <ele>1169</ele>
        <time>2019-05-05T08:51:22Z</time>
      </trkpt>
      <trkpt lat="46.36577" lon="5.97892">
        <ele>1170</ele>
        <time>2019-05-05T08:51:24Z</time>
      </trkpt>
      <trkpt lat="46.36578" lon="5.97889">
        <ele>1171</ele>
        <time>2019-05-05T08:51:26Z</time>
      </trkpt>
      <trkpt lat="46.36579" lon="5.97886">
        <ele>1172</ele>
        <time>2019-05-05T08:51:28Z</time>
      </trkpt>
      <trkpt lat="46.36581" lon="5.97883">
        <ele>1173</ele>
        <time>2019-05-05T08:51:30Z</time>
      </trkpt>
      <trkpt lat="46.36582" lon="5.97877">
        <ele>1174</ele>
        <time>2019-05-05T08:51:33Z</time>
      </trkpt>
      <trkpt lat="46.36583" lon="5.97875">
        <ele>1175</ele>
        <time>2019-05-05T08:51:34Z</time>
      </trkpt>
      <trkpt lat="46.36583" lon="5.97873">
        <ele>1175</ele>
        <time>2019-05-05T08:51:36Z</time>
      </trkpt>
      <trkpt lat="46.36583" lon="5.97872">
        <ele>1176</ele>
        <time>2019-05-05T08:51:36Z</time>
      </trkpt>
      <trkpt lat="46.36583" lon="5.97868">
        <ele>1176</ele>
        <time>2019-05-05T08:51:38Z</time>
      </trkpt>
      <trkpt lat="46.36583" lon="5.97861">
        <ele>1177</ele>
        <time>2019-05-05T08:51:42Z</time>
      </trkpt>
      <trkpt lat="46.36583" lon="5.97859">
        <ele>1177</ele>
        <time>2019-05-05T08:51:43Z</time>
      </trkpt>
      <trkpt lat="46.36584" lon="5.97856">
        <ele>1178</ele>
        <time>2019-05-05T08:51:45Z</time>
      </trkpt>
      <trkpt lat="46.36584" lon="5.97851">
        <ele>1179</ele>
        <time>2019-05-05T08:51:48Z</time>
      </trkpt>
      <trkpt lat="46.36586" lon="5.97842">
        <ele>1181</ele>
        <time>2019-05-05T08:51:52Z</time>
      </trkpt>
      <trkpt lat="46.36585" lon="5.9784">
        <ele>1181</ele>
        <time>2019-05-05T08:51:53Z</time>
      </trkpt>
      <trkpt lat="46.36583" lon="5.97845">
        <ele>1180</ele>
        <time>2019-05-05T08:51:56Z</time>
      </trkpt>
      <trkpt lat="46.36581" lon="5.97845">
        <ele>1179</ele>
        <time>2019-05-05T08:51:58Z</time>
      </trkpt>
      <trkpt lat="46.36581" lon="5.97845">
        <ele>1179</ele>
        <time>2019-05-05T08:51:58Z</time>
      </trkpt>
      <trkpt lat="46.36578" lon="5.97844">
        <ele>1179</ele>
        <time>2019-05-05T08:52:00Z</time>
      </trkpt>
      <trkpt lat="46.36575" lon="5.97845">
        <ele>1178</ele>
        <time>2019-05-05T08:52:02Z</time>
      </trkpt>
      <trkpt lat="46.3657" lon="5.97847">
        <ele>1176</ele>
        <time>2019-05-05T08:52:07Z</time>
      </trkpt>
      <trkpt lat="46.36562" lon="5.97841">
        <ele>1176</ele>
        <time>2019-05-05T08:52:13Z</time>
      </trkpt>
      <trkpt lat="46.3656" lon="5.9784">
        <ele>1176</ele>
        <time>2019-05-05T08:52:14Z</time>
      </trkpt>
      <trkpt lat="46.36559" lon="5.97839">
        <ele>1176</ele>
        <time>2019-05-05T08:52:15Z</time>
      </trkpt>
      <trkpt lat="46.36566" lon="5.97831">
        <ele>1179</ele>
        <time>2019-05-05T08:52:22Z</time>
      </trkpt>
      <trkpt lat="46.36564" lon="5.97826">
        <ele>1180</ele>
        <time>2019-05-05T08:52:25Z</time>
      </trkpt>
      <trkpt lat="46.36564" lon="5.97824">
        <ele>1180</ele>
        <time>2019-05-05T08:52:25Z</time>
      </trkpt>
      <trkpt lat="46.36563" lon="5.97823">
        <ele>1180</ele>
        <time>2019-05-05T08:52:26Z</time>
      </trkpt>
      <trkpt lat="46.36561" lon="5.97821">
        <ele>1180</ele>
        <time>2019-05-05T08:52:28Z</time>
      </trkpt>
      <trkpt lat="46.3656" lon="5.9782">
        <ele>1180</ele>
        <time>2019-05-05T08:52:28Z</time>
      </trkpt>
      <trkpt lat="46.36558" lon="5.97818">
        <ele>1180</ele>
        <time>2019-05-05T08:52:30Z</time>
      </trkpt>
      <trkpt lat="46.3656" lon="5.97805">
        <ele>1183</ele>
        <time>2019-05-05T08:52:37Z</time>
      </trkpt>
      <trkpt lat="46.36558" lon="5.97804">
        <ele>1184</ele>
        <time>2019-05-05T08:52:39Z</time>
      </trkpt>
      <trkpt lat="46.36556" lon="5.97802">
        <ele>1184</ele>
        <time>2019-05-05T08:52:40Z</time>
      </trkpt>
      <trkpt lat="46.36552" lon="5.97801">
        <ele>1184</ele>
        <time>2019-05-05T08:52:44Z</time>
      </trkpt>
      <trkpt lat="46.36551" lon="5.97799">
        <ele>1184</ele>
        <time>2019-05-05T08:52:44Z</time>
      </trkpt>
      <trkpt lat="46.3655" lon="5.97795">
        <ele>1185</ele>
        <time>2019-05-05T08:52:47Z</time>
      </trkpt>
      <trkpt lat="46.36548" lon="5.97792">
        <ele>1185</ele>
        <time>2019-05-05T08:52:49Z</time>
      </trkpt>
      <trkpt lat="46.36546" lon="5.97789">
        <ele>1186</ele>
        <time>2019-05-05T08:52:51Z</time>
      </trkpt>
      <trkpt lat="46.36545" lon="5.97783">
        <ele>1187</ele>
        <time>2019-05-05T08:52:54Z</time>
      </trkpt>
      <trkpt lat="46.36544" lon="5.97782">
        <ele>1188</ele>
        <time>2019-05-05T08:52:55Z</time>
      </trkpt>
      <trkpt lat="46.36544" lon="5.97779">
        <ele>1188</ele>
        <time>2019-05-05T08:52:57Z</time>
      </trkpt>
      <trkpt lat="46.36542" lon="5.97775">
        <ele>1189</ele>
        <time>2019-05-05T08:52:59Z</time>
      </trkpt>
      <trkpt lat="46.36541" lon="5.9777">
        <ele>1191</ele>
        <time>2019-05-05T08:53:02Z</time>
      </trkpt>
      <trkpt lat="46.36538" lon="5.97764">
        <ele>1192</ele>
        <time>2019-05-05T08:53:06Z</time>
      </trkpt>
      <trkpt lat="46.36535" lon="5.97762">
        <ele>1193</ele>
        <time>2019-05-05T08:53:08Z</time>
      </trkpt>
      <trkpt lat="46.36534" lon="5.9776">
        <ele>1193</ele>
        <time>2019-05-05T08:53:09Z</time>
      </trkpt>
      <trkpt lat="46.36533" lon="5.97759">
        <ele>1193</ele>
        <time>2019-05-05T08:53:10Z</time>
      </trkpt>
      <trkpt lat="46.36533" lon="5.97756">
        <ele>1194</ele>
        <time>2019-05-05T08:53:12Z</time>
      </trkpt>
      <trkpt lat="46.36532" lon="5.97754">
        <ele>1195</ele>
        <time>2019-05-05T08:53:13Z</time>
      </trkpt>
      <trkpt lat="46.3653" lon="5.9775">
        <ele>1196</ele>
        <time>2019-05-05T08:53:15Z</time>
      </trkpt>
      <trkpt lat="46.36527" lon="5.97745">
        <ele>1197</ele>
        <time>2019-05-05T08:53:19Z</time>
      </trkpt>
      <trkpt lat="46.36526" lon="5.97744">
        <ele>1197</ele>
        <time>2019-05-05T08:53:20Z</time>
      </trkpt>
      <trkpt lat="46.36524" lon="5.9774">
        <ele>1199</ele>
        <time>2019-05-05T08:53:22Z</time>
      </trkpt>
      <trkpt lat="46.36521" lon="5.97734">
        <ele>1200</ele>
        <time>2019-05-05T08:53:26Z</time>
      </trkpt>
      <trkpt lat="46.36518" lon="5.97729">
        <ele>1200</ele>
        <time>2019-05-05T08:53:29Z</time>
      </trkpt>
      <trkpt lat="46.36515" lon="5.97723">
        <ele>1201</ele>
        <time>2019-05-05T08:53:33Z</time>
      </trkpt>
      <trkpt lat="46.36512" lon="5.97718">
        <ele>1201</ele>
        <time>2019-05-05T08:53:37Z</time>
      </trkpt>
      <trkpt lat="46.3651" lon="5.97713">
        <ele>1202</ele>
        <time>2019-05-05T08:53:40Z</time>
      </trkpt>
      <trkpt lat="46.36508" lon="5.97707">
        <ele>1203</ele>
        <time>2019-05-05T08:53:43Z</time>
      </trkpt>
      <trkpt lat="46.36505" lon="5.97703">
        <ele>1203</ele>
        <time>2019-05-05T08:53:46Z</time>
      </trkpt>
      <trkpt lat="46.36501" lon="5.97698">
        <ele>1204</ele>
        <time>2019-05-05T08:53:50Z</time>
      </trkpt>
      <trkpt lat="46.36502" lon="5.97698">
        <ele>1204</ele>
        <time>2019-05-05T08:53:50Z</time>
      </trkpt>
      <trkpt lat="46.36508" lon="5.97705">
        <ele>1204</ele>
        <time>2019-05-05T08:53:56Z</time>
      </trkpt>
      <trkpt lat="46.36511" lon="5.97709">
        <ele>1204</ele>
        <time>2019-05-05T08:53:59Z</time>
      </trkpt>
      <trkpt lat="46.36521" lon="5.97721">
        <ele>1203</ele>
        <time>2019-05-05T08:54:08Z</time>
      </trkpt>
      <trkpt lat="46.36525" lon="5.97726">
        <ele>1202</ele>
        <time>2019-05-05T08:54:12Z</time>
      </trkpt>
      <trkpt lat="46.36529" lon="5.97733">
        <ele>1200</ele>
        <time>2019-05-05T08:54:17Z</time>
      </trkpt>
      <trkpt lat="46.36533" lon="5.97739">
        <ele>1199</ele>
        <time>2019-05-05T08:54:21Z</time>
      </trkpt>
      <trkpt lat="46.36538" lon="5.97748">
        <ele>1196</ele>
        <time>2019-05-05T08:54:27Z</time>
      </trkpt>
      <trkpt lat="46.36543" lon="5.97753">
        <ele>1195</ele>
        <time>2019-05-05T08:54:31Z</time>
      </trkpt>
      <trkpt lat="46.36545" lon="5.97759">
        <ele>1194</ele>
        <time>2019-05-05T08:54:35Z</time>
      </trkpt>
      <trkpt lat="46.36547" lon="5.97766">
        <ele>1192</ele>
        <time>2019-05-05T08:54:39Z</time>
      </trkpt>
      <trkpt lat="46.36547" lon="5.97774">
        <ele>1190</ele>
        <time>2019-05-05T08:54:43Z</time>
      </trkpt>
      <trkpt lat="46.36548" lon="5.97785">
        <ele>1187</ele>
        <time>2019-05-05T08:54:49Z</time>
      </trkpt>
      <trkpt lat="46.36549" lon="5.97788">
        <ele>1186</ele>
        <time>2019-05-05T08:54:50Z</time>
      </trkpt>
      <trkpt lat="46.3655" lon="5.9779">
        <ele>1186</ele>
        <time>2019-05-05T08:54:52Z</time>
      </trkpt>
      <trkpt lat="46.36551" lon="5.97792">
        <ele>1186</ele>
        <time>2019-05-05T08:54:53Z</time>
      </trkpt>
      <trkpt lat="46.36553" lon="5.97794">
        <ele>1185</ele>
        <time>2019-05-05T08:54:55Z</time>
      </trkpt>
      <trkpt lat="46.36556" lon="5.97799">
        <ele>1184</ele>
        <time>2019-05-05T08:54:58Z</time>
      </trkpt>
      <trkpt lat="46.36559" lon="5.97803">
        <ele>1184</ele>
        <time>2019-05-05T08:55:01Z</time>
      </trkpt>
      <trkpt lat="46.36562" lon="5.97808">
        <ele>1183</ele>
        <time>2019-05-05T08:55:05Z</time>
      </trkpt>
      <trkpt lat="46.36565" lon="5.97813">
        <ele>1182</ele>
        <time>2019-05-05T08:55:08Z</time>
      </trkpt>
      <trkpt lat="46.36567" lon="5.97815">
        <ele>1182</ele>
        <time>2019-05-05T08:55:10Z</time>
      </trkpt>
      <trkpt lat="46.36568" lon="5.97818">
        <ele>1182</ele>
        <time>2019-05-05T08:55:11Z</time>
      </trkpt>
      <trkpt lat="46.36569" lon="5.97821">
        <ele>1182</ele>
        <time>2019-05-05T08:55:13Z</time>
      </trkpt>
      <trkpt lat="46.3657" lon="5.97825">
        <ele>1181</ele>
        <time>2019-05-05T08:55:15Z</time>
      </trkpt>
      <trkpt lat="46.36571" lon="5.97829">
        <ele>1180</ele>
        <time>2019-05-05T08:55:18Z</time>
      </trkpt>
      <trkpt lat="46.3657" lon="5.97833">
        <ele>1179</ele>
        <time>2019-05-05T08:55:20Z</time>
      </trkpt>
      <trkpt lat="46.36568" lon="5.97834">
        <ele>1179</ele>
        <time>2019-05-05T08:55:21Z</time>
      </trkpt>
      <trkpt lat="46.36565" lon="5.97834">
        <ele>1178</ele>
        <time>2019-05-05T08:55:24Z</time>
      </trkpt>
      <trkpt lat="46.36546" lon="5.97825">
        <ele>1177</ele>
        <time>2019-05-05T08:55:38Z</time>
      </trkpt>
      <trkpt lat="46.36531" lon="5.97816">
        <ele>1177</ele>
        <time>2019-05-05T08:55:50Z</time>
      </trkpt>
      <trkpt lat="46.36528" lon="5.97812">
        <ele>1178</ele>
        <time>2019-05-05T08:55:53Z</time>
      </trkpt>
      <trkpt lat="46.36528" lon="5.97812">
        <ele>1178</ele>
        <time>2019-05-05T08:55:53Z</time>
      </trkpt>
      <trkpt lat="46.36526" lon="5.97806">
        <ele>1179</ele>
        <time>2019-05-05T08:55:56Z</time>
      </trkpt>
      <trkpt lat="46.36523" lon="5.97805">
        <ele>1179</ele>
        <time>2019-05-05T08:55:58Z</time>
      </trkpt>
      <trkpt lat="46.36509" lon="5.9779">
        <ele>1178</ele>
        <time>2019-05-05T08:56:11Z</time>
      </trkpt>
      <trkpt lat="46.36495" lon="5.97773">
        <ele>1179</ele>
        <time>2019-05-05T08:56:24Z</time>
      </trkpt>
      <trkpt lat="46.36488" lon="5.97763">
        <ele>1180</ele>
        <time>2019-05-05T08:56:31Z</time>
      </trkpt>
      <trkpt lat="46.36476" lon="5.97744">
        <ele>1181</ele>
        <time>2019-05-05T08:56:44Z</time>
      </trkpt>
      <trkpt lat="46.36463" lon="5.97723">
        <ele>1183</ele>
        <time>2019-05-05T08:56:58Z</time>
      </trkpt>
      <trkpt lat="46.36457" lon="5.97715">
        <ele>1184</ele>
        <time>2019-05-05T08:57:04Z</time>
      </trkpt>
      <trkpt lat="46.36444" lon="5.97694">
        <ele>1186</ele>
        <time>2019-05-05T08:57:18Z</time>
      </trkpt>
      <trkpt lat="46.36435" lon="5.97684">
        <ele>1186</ele>
        <time>2019-05-05T08:57:26Z</time>
      </trkpt>
      <trkpt lat="46.36421" lon="5.97669">
        <ele>1186</ele>
        <time>2019-05-05T08:57:39Z</time>
      </trkpt>
      <trkpt lat="46.36407" lon="5.97652">
        <ele>1187</ele>
        <time>2019-05-05T08:57:52Z</time>
      </trkpt>
      <trkpt lat="46.36404" lon="5.97646">
        <ele>1187</ele>
        <time>2019-05-05T08:57:56Z</time>
      </trkpt>
      <trkpt lat="46.3639" lon="5.97629">
        <ele>1188</ele>
        <time>2019-05-05T08:58:09Z</time>
      </trkpt>
      <trkpt lat="46.36388" lon="5.97626">
        <ele>1188</ele>
        <time>2019-05-05T08:58:11Z</time>
      </trkpt>
      <trkpt lat="46.36371" lon="5.97611">
        <ele>1186</ele>
        <time>2019-05-05T08:58:25Z</time>
      </trkpt>
      <trkpt lat="46.36356" lon="5.97593">
        <ele>1186</ele>
        <time>2019-05-05T08:58:40Z</time>
      </trkpt>
      <trkpt lat="46.36339" lon="5.9758">
        <ele>1185</ele>
        <time>2019-05-05T08:58:54Z</time>
      </trkpt>
      <trkpt lat="46.36323" lon="5.97565">
        <ele>1185</ele>
        <time>2019-05-05T08:59:07Z</time>
      </trkpt>
      <trkpt lat="46.36308" lon="5.97552">
        <ele>1183</ele>
        <time>2019-05-05T08:59:20Z</time>
      </trkpt>
      <trkpt lat="46.36292" lon="5.97535">
        <ele>1182</ele>
        <time>2019-05-05T08:59:35Z</time>
      </trkpt>
      <trkpt lat="46.36279" lon="5.97516">
        <ele>1182</ele>
        <time>2019-05-05T08:59:48Z</time>
      </trkpt>
      <trkpt lat="46.36268" lon="5.97501">
        <ele>1183</ele>
        <time>2019-05-05T08:59:59Z</time>
      </trkpt>
      <trkpt lat="46.3626" lon="5.97489">
        <ele>1185</ele>
        <time>2019-05-05T09:00:07Z</time>
      </trkpt>
      <trkpt lat="46.36253" lon="5.97478">
        <ele>1186</ele>
        <time>2019-05-05T09:00:14Z</time>
      </trkpt>
      <trkpt lat="46.36246" lon="5.97471">
        <ele>1187</ele>
        <time>2019-05-05T09:00:21Z</time>
      </trkpt>
      <trkpt lat="46.36229" lon="5.9746">
        <ele>1186</ele>
        <time>2019-05-05T09:00:35Z</time>
      </trkpt>
      <trkpt lat="46.3622" lon="5.97456">
        <ele>1185</ele>
        <time>2019-05-05T09:00:41Z</time>
      </trkpt>
      <trkpt lat="46.362" lon="5.97448">
        <ele>1182</ele>
        <time>2019-05-05T09:00:57Z</time>
      </trkpt>
      <trkpt lat="46.36192" lon="5.97443">
        <ele>1181</ele>
        <time>2019-05-05T09:01:02Z</time>
      </trkpt>
      <trkpt lat="46.36187" lon="5.97436">
        <ele>1181</ele>
        <time>2019-05-05T09:01:08Z</time>
      </trkpt>
      <trkpt lat="46.36173" lon="5.97414">
        <ele>1183</ele>
        <time>2019-05-05T09:01:23Z</time>
      </trkpt>
      <trkpt lat="46.36167" lon="5.97403">
        <ele>1184</ele>
        <time>2019-05-05T09:01:30Z</time>
      </trkpt>
      <trkpt lat="46.36162" lon="5.97396">
        <ele>1184</ele>
        <time>2019-05-05T09:01:35Z</time>
      </trkpt>
      <trkpt lat="46.36157" lon="5.97385">
        <ele>1185</ele>
        <time>2019-05-05T09:01:41Z</time>
      </trkpt>
      <trkpt lat="46.36144" lon="5.97364">
        <ele>1187</ele>
        <time>2019-05-05T09:01:56Z</time>
      </trkpt>
      <trkpt lat="46.36135" lon="5.97341">
        <ele>1190</ele>
        <time>2019-05-05T09:02:09Z</time>
      </trkpt>
      <trkpt lat="46.36121" lon="5.97324">
        <ele>1191</ele>
        <time>2019-05-05T09:02:22Z</time>
      </trkpt>
      <trkpt lat="46.36102" lon="5.97316">
        <ele>1190</ele>
        <time>2019-05-05T09:02:37Z</time>
      </trkpt>
      <trkpt lat="46.36099" lon="5.97315">
        <ele>1190</ele>
        <time>2019-05-05T09:02:39Z</time>
      </trkpt>
      <trkpt lat="46.36081" lon="5.97311">
        <ele>1190</ele>
        <time>2019-05-05T09:02:52Z</time>
      </trkpt>
      <trkpt lat="46.36061" lon="5.97305">
        <ele>1190</ele>
        <time>2019-05-05T09:03:07Z</time>
      </trkpt>
      <trkpt lat="46.36048" lon="5.97296">
        <ele>1191</ele>
        <time>2019-05-05T09:03:17Z</time>
      </trkpt>
      <trkpt lat="46.36036" lon="5.97282">
        <ele>1193</ele>
        <time>2019-05-05T09:03:28Z</time>
      </trkpt>
      <trkpt lat="46.36034" lon="5.97282">
        <ele>1193</ele>
        <time>2019-05-05T09:03:30Z</time>
      </trkpt>
      <trkpt lat="46.36018" lon="5.97266">
        <ele>1195</ele>
        <time>2019-05-05T09:03:44Z</time>
      </trkpt>
      <trkpt lat="46.36011" lon="5.97263">
        <ele>1195</ele>
        <time>2019-05-05T09:03:49Z</time>
      </trkpt>
      <trkpt lat="46.36005" lon="5.97261">
        <ele>1194</ele>
        <time>2019-05-05T09:03:53Z</time>
      </trkpt>
      <trkpt lat="46.36001" lon="5.97259">
        <ele>1194</ele>
        <time>2019-05-05T09:03:56Z</time>
      </trkpt>
      <trkpt lat="46.35992" lon="5.97251">
        <ele>1194</ele>
        <time>2019-05-05T09:04:04Z</time>
      </trkpt>
      <trkpt lat="46.35974" lon="5.9724">
        <ele>1194</ele>
        <time>2019-05-05T09:04:18Z</time>
      </trkpt>
      <trkpt lat="46.35967" lon="5.97231">
        <ele>1194</ele>
        <time>2019-05-05T09:04:25Z</time>
      </trkpt>
      <trkpt lat="46.35966" lon="5.97229">
        <ele>1194</ele>
        <time>2019-05-05T09:04:26Z</time>
      </trkpt>
      <trkpt lat="46.35962" lon="5.97224">
        <ele>1195</ele>
        <time>2019-05-05T09:04:30Z</time>
      </trkpt>
      <trkpt lat="46.35958" lon="5.97218">
        <ele>1195</ele>
        <time>2019-05-05T09:04:34Z</time>
      </trkpt>
      <trkpt lat="46.35954" lon="5.9721">
        <ele>1196</ele>
        <time>2019-05-05T09:04:39Z</time>
      </trkpt>
      <trkpt lat="46.3595" lon="5.97205">
        <ele>1196</ele>
        <time>2019-05-05T09:04:43Z</time>
      </trkpt>
      <trkpt lat="46.35941" lon="5.97193">
        <ele>1197</ele>
        <time>2019-05-05T09:04:52Z</time>
      </trkpt>
      <trkpt lat="46.35931" lon="5.97188">
        <ele>1195</ele>
        <time>2019-05-05T09:04:59Z</time>
      </trkpt>
      <trkpt lat="46.35923" lon="5.97182">
        <ele>1194</ele>
        <time>2019-05-05T09:05:06Z</time>
      </trkpt>
      <trkpt lat="46.35908" lon="5.97165">
        <ele>1194</ele>
        <time>2019-05-05T09:05:20Z</time>
      </trkpt>
      <trkpt lat="46.35894" lon="5.97148">
        <ele>1194</ele>
        <time>2019-05-05T09:05:34Z</time>
      </trkpt>
      <trkpt lat="46.3588" lon="5.97128">
        <ele>1195</ele>
        <time>2019-05-05T09:05:47Z</time>
      </trkpt>
      <trkpt lat="46.35872" lon="5.97116">
        <ele>1195</ele>
        <time>2019-05-05T09:05:56Z</time>
      </trkpt>
      <trkpt lat="46.35864" lon="5.97108">
        <ele>1195</ele>
        <time>2019-05-05T09:06:03Z</time>
      </trkpt>
      <trkpt lat="46.3586" lon="5.97101">
        <ele>1196</ele>
        <time>2019-05-05T09:06:07Z</time>
      </trkpt>
      <trkpt lat="46.35855" lon="5.97094">
        <ele>1196</ele>
        <time>2019-05-05T09:06:12Z</time>
      </trkpt>
      <trkpt lat="46.35839" lon="5.97077">
        <ele>1198</ele>
        <time>2019-05-05T09:06:27Z</time>
      </trkpt>
      <trkpt lat="46.35827" lon="5.97068">
        <ele>1199</ele>
        <time>2019-05-05T09:06:36Z</time>
      </trkpt>
      <trkpt lat="46.35809" lon="5.97055">
        <ele>1199</ele>
        <time>2019-05-05T09:06:51Z</time>
      </trkpt>
      <trkpt lat="46.35807" lon="5.97053">
        <ele>1200</ele>
        <time>2019-05-05T09:06:53Z</time>
      </trkpt>
      <trkpt lat="46.35798" lon="5.97042">
        <ele>1201</ele>
        <time>2019-05-05T09:07:01Z</time>
      </trkpt>
      <trkpt lat="46.35793" lon="5.97034">
        <ele>1202</ele>
        <time>2019-05-05T09:07:07Z</time>
      </trkpt>
      <trkpt lat="46.35784" lon="5.97018">
        <ele>1204</ele>
        <time>2019-05-05T09:07:17Z</time>
      </trkpt>
      <trkpt lat="46.35774" lon="5.97003">
        <ele>1205</ele>
        <time>2019-05-05T09:07:28Z</time>
      </trkpt>
      <trkpt lat="46.3577" lon="5.96997">
        <ele>1205</ele>
        <time>2019-05-05T09:07:32Z</time>
      </trkpt>
      <trkpt lat="46.35756" lon="5.96977">
        <ele>1205</ele>
        <time>2019-05-05T09:07:46Z</time>
      </trkpt>
      <trkpt lat="46.35751" lon="5.96971">
        <ele>1205</ele>
        <time>2019-05-05T09:07:51Z</time>
      </trkpt>
      <trkpt lat="46.35736" lon="5.96954">
        <ele>1206</ele>
        <time>2019-05-05T09:08:05Z</time>
      </trkpt>
      <trkpt lat="46.35722" lon="5.96935">
        <ele>1206</ele>
        <time>2019-05-05T09:08:18Z</time>
      </trkpt>
      <trkpt lat="46.35706" lon="5.96922">
        <ele>1206</ele>
        <time>2019-05-05T09:08:32Z</time>
      </trkpt>
      <trkpt lat="46.357" lon="5.96918">
        <ele>1206</ele>
        <time>2019-05-05T09:08:36Z</time>
      </trkpt>
      <trkpt lat="46.35683" lon="5.96906">
        <ele>1206</ele>
        <time>2019-05-05T09:08:50Z</time>
      </trkpt>
      <trkpt lat="46.3568" lon="5.96904">
        <ele>1206</ele>
        <time>2019-05-05T09:08:52Z</time>
      </trkpt>
      <trkpt lat="46.35663" lon="5.96894">
        <ele>1205</ele>
        <time>2019-05-05T09:09:05Z</time>
      </trkpt>
      <trkpt lat="46.35644" lon="5.96883">
        <ele>1204</ele>
        <time>2019-05-05T09:09:20Z</time>
      </trkpt>
      <trkpt lat="46.35638" lon="5.9688">
        <ele>1204</ele>
        <time>2019-05-05T09:09:25Z</time>
      </trkpt>
      <trkpt lat="46.35632" lon="5.96878">
        <ele>1204</ele>
        <time>2019-05-05T09:09:29Z</time>
      </trkpt>
      <trkpt lat="46.35627" lon="5.96874">
        <ele>1204</ele>
        <time>2019-05-05T09:09:34Z</time>
      </trkpt>
      <trkpt lat="46.35608" lon="5.96864">
        <ele>1203</ele>
        <time>2019-05-05T09:09:48Z</time>
      </trkpt>
      <trkpt lat="46.3559" lon="5.96856">
        <ele>1203</ele>
        <time>2019-05-05T09:10:02Z</time>
      </trkpt>
      <trkpt lat="46.35574" lon="5.96845">
        <ele>1202</ele>
        <time>2019-05-05T09:10:15Z</time>
      </trkpt>
      <trkpt lat="46.35561" lon="5.96834">
        <ele>1202</ele>
        <time>2019-05-05T09:10:25Z</time>
      </trkpt>
      <trkpt lat="46.35553" lon="5.96827">
        <ele>1203</ele>
        <time>2019-05-05T09:10:32Z</time>
      </trkpt>
      <trkpt lat="46.35541" lon="5.96816">
        <ele>1203</ele>
        <time>2019-05-05T09:10:42Z</time>
      </trkpt>
      <trkpt lat="46.35528" lon="5.96807">
        <ele>1203</ele>
        <time>2019-05-05T09:10:53Z</time>
      </trkpt>
      <trkpt lat="46.35523" lon="5.96802">
        <ele>1203</ele>
        <time>2019-05-05T09:10:57Z</time>
      </trkpt>
      <trkpt lat="46.35512" lon="5.96794">
        <ele>1203</ele>
        <time>2019-05-05T09:11:06Z</time>
      </trkpt>
      <trkpt lat="46.35492" lon="5.96784">
        <ele>1201</ele>
        <time>2019-05-05T09:11:21Z</time>
      </trkpt>
      <trkpt lat="46.35475" lon="5.96777">
        <ele>1200</ele>
        <time>2019-05-05T09:11:34Z</time>
      </trkpt>
      <trkpt lat="46.35471" lon="5.96776">
        <ele>1199</ele>
        <time>2019-05-05T09:11:37Z</time>
      </trkpt>
      <trkpt lat="46.35452" lon="5.96775">
        <ele>1196</ele>
        <time>2019-05-05T09:11:51Z</time>
      </trkpt>
      <trkpt lat="46.35448" lon="5.96775">
        <ele>1196</ele>
        <time>2019-05-05T09:11:54Z</time>
      </trkpt>
      <trkpt lat="46.35443" lon="5.96772">
        <ele>1196</ele>
        <time>2019-05-05T09:11:58Z</time>
      </trkpt>
      <trkpt lat="46.35438" lon="5.96769">
        <ele>1195</ele>
        <time>2019-05-05T09:12:02Z</time>
      </trkpt>
      <trkpt lat="46.35432" lon="5.96766">
        <ele>1195</ele>
        <time>2019-05-05T09:12:06Z</time>
      </trkpt>
      <trkpt lat="46.35416" lon="5.96754">
        <ele>1193</ele>
        <time>2019-05-05T09:12:19Z</time>
      </trkpt>
      <trkpt lat="46.35414" lon="5.96752">
        <ele>1193</ele>
        <time>2019-05-05T09:12:21Z</time>
      </trkpt>
      <trkpt lat="46.35398" lon="5.96737">
        <ele>1192</ele>
        <time>2019-05-05T09:12:35Z</time>
      </trkpt>
      <trkpt lat="46.35388" lon="5.96728">
        <ele>1191</ele>
        <time>2019-05-05T09:12:43Z</time>
      </trkpt>
      <trkpt lat="46.35374" lon="5.96714">
        <ele>1190</ele>
        <time>2019-05-05T09:12:56Z</time>
      </trkpt>
      <trkpt lat="46.3537" lon="5.96706">
        <ele>1191</ele>
        <time>2019-05-05T09:13:01Z</time>
      </trkpt>
      <trkpt lat="46.35357" lon="5.96687">
        <ele>1191</ele>
        <time>2019-05-05T09:13:15Z</time>
      </trkpt>
      <trkpt lat="46.35345" lon="5.96665">
        <ele>1194</ele>
        <time>2019-05-05T09:13:29Z</time>
      </trkpt>
      <trkpt lat="46.35334" lon="5.96653">
        <ele>1195</ele>
        <time>2019-05-05T09:13:38Z</time>
      </trkpt>
      <trkpt lat="46.35334" lon="5.96652">
        <ele>1195</ele>
        <time>2019-05-05T09:13:39Z</time>
      </trkpt>
      <trkpt lat="46.35328" lon="5.96645">
        <ele>1196</ele>
        <time>2019-05-05T09:13:44Z</time>
      </trkpt>
      <trkpt lat="46.35321" lon="5.96637">
        <ele>1197</ele>
        <time>2019-05-05T09:13:51Z</time>
      </trkpt>
      <trkpt lat="46.35309" lon="5.96622">
        <ele>1198</ele>
        <time>2019-05-05T09:14:02Z</time>
      </trkpt>
      <trkpt lat="46.35294" lon="5.96608">
        <ele>1198</ele>
        <time>2019-05-05T09:14:15Z</time>
      </trkpt>
      <trkpt lat="46.35292" lon="5.96606">
        <ele>1198</ele>
        <time>2019-05-05T09:14:17Z</time>
      </trkpt>
      <trkpt lat="46.35285" lon="5.96598">
        <ele>1198</ele>
        <time>2019-05-05T09:14:23Z</time>
      </trkpt>
      <trkpt lat="46.3528" lon="5.96594">
        <ele>1199</ele>
        <time>2019-05-05T09:14:28Z</time>
      </trkpt>
      <trkpt lat="46.35272" lon="5.96587">
        <ele>1199</ele>
        <time>2019-05-05T09:14:34Z</time>
      </trkpt>
      <trkpt lat="46.35264" lon="5.96574">
        <ele>1201</ele>
        <time>2019-05-05T09:14:43Z</time>
      </trkpt>
      <trkpt lat="46.3526" lon="5.96567">
        <ele>1202</ele>
        <time>2019-05-05T09:14:48Z</time>
      </trkpt>
      <trkpt lat="46.35256" lon="5.96565">
        <ele>1202</ele>
        <time>2019-05-05T09:14:50Z</time>
      </trkpt>
      <trkpt lat="46.35251" lon="5.96561">
        <ele>1202</ele>
        <time>2019-05-05T09:14:55Z</time>
      </trkpt>
      <trkpt lat="46.35248" lon="5.9656">
        <ele>1202</ele>
        <time>2019-05-05T09:14:57Z</time>
      </trkpt>
      <trkpt lat="46.35245" lon="5.96557">
        <ele>1202</ele>
        <time>2019-05-05T09:15:00Z</time>
      </trkpt>
      <trkpt lat="46.3524" lon="5.96555">
        <ele>1201</ele>
        <time>2019-05-05T09:15:03Z</time>
      </trkpt>
      <trkpt lat="46.35239" lon="5.96555">
        <ele>1201</ele>
        <time>2019-05-05T09:15:04Z</time>
      </trkpt>
      <trkpt lat="46.35231" lon="5.96549">
        <ele>1201</ele>
        <time>2019-05-05T09:15:10Z</time>
      </trkpt>
      <trkpt lat="46.35218" lon="5.9653">
        <ele>1202</ele>
        <time>2019-05-05T09:15:24Z</time>
      </trkpt>
      <trkpt lat="46.35214" lon="5.96525">
        <ele>1202</ele>
        <time>2019-05-05T09:15:27Z</time>
      </trkpt>
      <trkpt lat="46.35207" lon="5.96513">
        <ele>1203</ele>
        <time>2019-05-05T09:15:35Z</time>
      </trkpt>
      <trkpt lat="46.352" lon="5.96504">
        <ele>1203</ele>
        <time>2019-05-05T09:15:42Z</time>
      </trkpt>
      <trkpt lat="46.35197" lon="5.96488">
        <ele>1205</ele>
        <time>2019-05-05T09:15:50Z</time>
      </trkpt>
      <trkpt lat="46.35197" lon="5.96472">
        <ele>1207</ele>
        <time>2019-05-05T09:15:58Z</time>
      </trkpt>
      <trkpt lat="46.35197" lon="5.96464">
        <ele>1209</ele>
        <time>2019-05-05T09:16:03Z</time>
      </trkpt>
      <trkpt lat="46.35196" lon="5.96457">
        <ele>1210</ele>
        <time>2019-05-05T09:16:07Z</time>
      </trkpt>
      <trkpt lat="46.35194" lon="5.96449">
        <ele>1210</ele>
        <time>2019-05-05T09:16:11Z</time>
      </trkpt>
      <trkpt lat="46.3519" lon="5.96438">
        <ele>1211</ele>
        <time>2019-05-05T09:16:17Z</time>
      </trkpt>
      <trkpt lat="46.35191" lon="5.96436">
        <ele>1212</ele>
        <time>2019-05-05T09:16:18Z</time>
      </trkpt>
      <trkpt lat="46.3519" lon="5.96431">
        <ele>1213</ele>
        <time>2019-05-05T09:16:21Z</time>
      </trkpt>
      <trkpt lat="46.35188" lon="5.96423">
        <ele>1214</ele>
        <time>2019-05-05T09:16:25Z</time>
      </trkpt>
      <trkpt lat="46.35189" lon="5.9641">
        <ele>1216</ele>
        <time>2019-05-05T09:16:32Z</time>
      </trkpt>
      <trkpt lat="46.35192" lon="5.96404">
        <ele>1218</ele>
        <time>2019-05-05T09:16:36Z</time>
      </trkpt>
      <trkpt lat="46.35193" lon="5.96398">
        <ele>1220</ele>
        <time>2019-05-05T09:16:39Z</time>
      </trkpt>
      <trkpt lat="46.35193" lon="5.96396">
        <ele>1220</ele>
        <time>2019-05-05T09:16:40Z</time>
      </trkpt>
      <trkpt lat="46.35191" lon="5.96386">
        <ele>1221</ele>
        <time>2019-05-05T09:16:45Z</time>
      </trkpt>
      <trkpt lat="46.35185" lon="5.96358">
        <ele>1226</ele>
        <time>2019-05-05T09:17:00Z</time>
      </trkpt>
      <trkpt lat="46.35181" lon="5.96354">
        <ele>1226</ele>
        <time>2019-05-05T09:17:03Z</time>
      </trkpt>
      <trkpt lat="46.35179" lon="5.96352">
        <ele>1226</ele>
        <time>2019-05-05T09:17:05Z</time>
      </trkpt>
      <trkpt lat="46.35175" lon="5.96346">
        <ele>1227</ele>
        <time>2019-05-05T09:17:09Z</time>
      </trkpt>
      <trkpt lat="46.35174" lon="5.96345">
        <ele>1227</ele>
        <time>2019-05-05T09:17:11Z</time>
      </trkpt>
      <trkpt lat="46.35172" lon="5.96342">
        <ele>1227</ele>
        <time>2019-05-05T09:17:13Z</time>
      </trkpt>
      <trkpt lat="46.35163" lon="5.96317">
        <ele>1230</ele>
        <time>2019-05-05T09:17:27Z</time>
      </trkpt>
      <trkpt lat="46.35146" lon="5.96301">
        <ele>1231</ele>
        <time>2019-05-05T09:17:41Z</time>
      </trkpt>
      <trkpt lat="46.35144" lon="5.963">
        <ele>1231</ele>
        <time>2019-05-05T09:17:43Z</time>
      </trkpt>
      <trkpt lat="46.35139" lon="5.96299">
        <ele>1231</ele>
        <time>2019-05-05T09:17:46Z</time>
      </trkpt>
      <trkpt lat="46.35126" lon="5.96293">
        <ele>1230</ele>
        <time>2019-05-05T09:17:56Z</time>
      </trkpt>
      <trkpt lat="46.3512" lon="5.96289">
        <ele>1230</ele>
        <time>2019-05-05T09:18:01Z</time>
      </trkpt>
      <trkpt lat="46.35115" lon="5.96284">
        <ele>1230</ele>
        <time>2019-05-05T09:18:05Z</time>
      </trkpt>
      <trkpt lat="46.35107" lon="5.96277">
        <ele>1230</ele>
        <time>2019-05-05T09:18:12Z</time>
      </trkpt>
      <trkpt lat="46.35094" lon="5.96264">
        <ele>1230</ele>
        <time>2019-05-05T09:18:24Z</time>
      </trkpt>
      <trkpt lat="46.35083" lon="5.96255">
        <ele>1230</ele>
        <time>2019-05-05T09:18:33Z</time>
      </trkpt>
      <trkpt lat="46.35068" lon="5.96241">
        <ele>1230</ele>
        <time>2019-05-05T09:18:46Z</time>
      </trkpt>
      <trkpt lat="46.35066" lon="5.96238">
        <ele>1231</ele>
        <time>2019-05-05T09:18:48Z</time>
      </trkpt>
      <trkpt lat="46.35051" lon="5.96224">
        <ele>1231</ele>
        <time>2019-05-05T09:19:01Z</time>
      </trkpt>
      <trkpt lat="46.35038" lon="5.96205">
        <ele>1234</ele>
        <time>2019-05-05T09:19:15Z</time>
      </trkpt>
      <trkpt lat="46.35023" lon="5.96189">
        <ele>1236</ele>
        <time>2019-05-05T09:19:28Z</time>
      </trkpt>
      <trkpt lat="46.35019" lon="5.96184">
        <ele>1236</ele>
        <time>2019-05-05T09:19:32Z</time>
      </trkpt>
      <trkpt lat="46.35007" lon="5.96166">
        <ele>1238</ele>
        <time>2019-05-05T09:19:44Z</time>
      </trkpt>
      <trkpt lat="46.35005" lon="5.96165">
        <ele>1238</ele>
        <time>2019-05-05T09:19:46Z</time>
      </trkpt>
      <trkpt lat="46.34999" lon="5.9616">
        <ele>1238</ele>
        <time>2019-05-05T09:19:51Z</time>
      </trkpt>
      <trkpt lat="46.34998" lon="5.96158">
        <ele>1238</ele>
        <time>2019-05-05T09:19:52Z</time>
      </trkpt>
      <trkpt lat="46.34997" lon="5.96151">
        <ele>1239</ele>
        <time>2019-05-05T09:19:56Z</time>
      </trkpt>
      <trkpt lat="46.34996" lon="5.9615">
        <ele>1239</ele>
        <time>2019-05-05T09:19:56Z</time>
      </trkpt>
      <trkpt lat="46.34994" lon="5.96148">
        <ele>1239</ele>
        <time>2019-05-05T09:19:58Z</time>
      </trkpt>
      <trkpt lat="46.34994" lon="5.96147">
        <ele>1240</ele>
        <time>2019-05-05T09:19:59Z</time>
      </trkpt>
      <trkpt lat="46.34994" lon="5.96145">
        <ele>1240</ele>
        <time>2019-05-05T09:20:00Z</time>
      </trkpt>
      <trkpt lat="46.34993" lon="5.96144">
        <ele>1240</ele>
        <time>2019-05-05T09:20:01Z</time>
      </trkpt>
      <trkpt lat="46.34993" lon="5.96144">
        <ele>1240</ele>
        <time>2019-05-05T09:20:01Z</time>
      </trkpt>
      <trkpt lat="46.34985" lon="5.96132">
        <ele>1241</ele>
        <time>2019-05-05T09:20:09Z</time>
      </trkpt>
      <trkpt lat="46.34985" lon="5.9612">
        <ele>1242</ele>
        <time>2019-05-05T09:20:15Z</time>
      </trkpt>
      <trkpt lat="46.34981" lon="5.96111">
        <ele>1243</ele>
        <time>2019-05-05T09:20:20Z</time>
      </trkpt>
      <trkpt lat="46.34966" lon="5.96098">
        <ele>1243</ele>
        <time>2019-05-05T09:20:33Z</time>
      </trkpt>
      <trkpt lat="46.34962" lon="5.96099">
        <ele>1242</ele>
        <time>2019-05-05T09:20:36Z</time>
      </trkpt>
      <trkpt lat="46.34958" lon="5.96101">
        <ele>1241</ele>
        <time>2019-05-05T09:20:39Z</time>
      </trkpt>
      <trkpt lat="46.34954" lon="5.96102">
        <ele>1241</ele>
        <time>2019-05-05T09:20:42Z</time>
      </trkpt>
      <trkpt lat="46.34953" lon="5.96101">
        <ele>1241</ele>
        <time>2019-05-05T09:20:43Z</time>
      </trkpt>
      <trkpt lat="46.34949" lon="5.96099">
        <ele>1240</ele>
        <time>2019-05-05T09:20:46Z</time>
      </trkpt>
      <trkpt lat="46.34947" lon="5.96097">
        <ele>1240</ele>
        <time>2019-05-05T09:20:48Z</time>
      </trkpt>
      <trkpt lat="46.34944" lon="5.96085">
        <ele>1242</ele>
        <time>2019-05-05T09:20:54Z</time>
      </trkpt>
      <trkpt lat="46.34944" lon="5.96084">
        <ele>1242</ele>
        <time>2019-05-05T09:20:55Z</time>
      </trkpt>
      <trkpt lat="46.34943" lon="5.96075">
        <ele>1243</ele>
        <time>2019-05-05T09:21:00Z</time>
      </trkpt>
      <trkpt lat="46.34943" lon="5.96071">
        <ele>1243</ele>
        <time>2019-05-05T09:21:01Z</time>
      </trkpt>
      <trkpt lat="46.34944" lon="5.96065">
        <ele>1244</ele>
        <time>2019-05-05T09:21:04Z</time>
      </trkpt>
      <trkpt lat="46.34944" lon="5.96065">
        <ele>1244</ele>
        <time>2019-05-05T09:21:05Z</time>
      </trkpt>
      <trkpt lat="46.34943" lon="5.96063">
        <ele>1244</ele>
        <time>2019-05-05T09:21:06Z</time>
      </trkpt>
      <trkpt lat="46.34943" lon="5.96062">
        <ele>1244</ele>
        <time>2019-05-05T09:21:06Z</time>
      </trkpt>
      <trkpt lat="46.34942" lon="5.96058">
        <ele>1245</ele>
        <time>2019-05-05T09:21:09Z</time>
      </trkpt>
      <trkpt lat="46.34941" lon="5.96047">
        <ele>1246</ele>
        <time>2019-05-05T09:21:14Z</time>
      </trkpt>
      <trkpt lat="46.34939" lon="5.96039">
        <ele>1247</ele>
        <time>2019-05-05T09:21:19Z</time>
      </trkpt>
      <trkpt lat="46.34939" lon="5.96036">
        <ele>1247</ele>
        <time>2019-05-05T09:21:20Z</time>
      </trkpt>
      <trkpt lat="46.34939" lon="5.96034">
        <ele>1247</ele>
        <time>2019-05-05T09:21:21Z</time>
      </trkpt>
      <trkpt lat="46.34938" lon="5.96032">
        <ele>1248</ele>
        <time>2019-05-05T09:21:22Z</time>
      </trkpt>
      <trkpt lat="46.34938" lon="5.96029">
        <ele>1248</ele>
        <time>2019-05-05T09:21:24Z</time>
      </trkpt>
      <trkpt lat="46.34937" lon="5.96025">
        <ele>1248</ele>
        <time>2019-05-05T09:21:26Z</time>
      </trkpt>
      <trkpt lat="46.34933" lon="5.96021">
        <ele>1248</ele>
        <time>2019-05-05T09:21:29Z</time>
      </trkpt>
      <trkpt lat="46.34933" lon="5.96021">
        <ele>1248</ele>
        <time>2019-05-05T09:21:29Z</time>
      </trkpt>
      <trkpt lat="46.34933" lon="5.96024">
        <ele>1248</ele>
        <time>2019-05-05T09:21:31Z</time>
      </trkpt>
      <trkpt lat="46.34935" lon="5.96027">
        <ele>1248</ele>
        <time>2019-05-05T09:21:32Z</time>
      </trkpt>
      <trkpt lat="46.34935" lon="5.96028">
        <ele>1247</ele>
        <time>2019-05-05T09:21:34Z</time>
      </trkpt>
      <trkpt lat="46.34943" lon="5.96041">
        <ele>1247</ele>
        <time>2019-05-05T09:21:42Z</time>
      </trkpt>
      <trkpt lat="46.34945" lon="5.96051">
        <ele>1246</ele>
        <time>2019-05-05T09:21:47Z</time>
      </trkpt>
      <trkpt lat="46.34947" lon="5.96061">
        <ele>1245</ele>
        <time>2019-05-05T09:21:52Z</time>
      </trkpt>
      <trkpt lat="46.34947" lon="5.96064">
        <ele>1245</ele>
        <time>2019-05-05T09:21:54Z</time>
      </trkpt>
      <trkpt lat="46.34946" lon="5.96072">
        <ele>1244</ele>
        <time>2019-05-05T09:21:58Z</time>
      </trkpt>
      <trkpt lat="46.34945" lon="5.96078">
        <ele>1243</ele>
        <time>2019-05-05T09:22:01Z</time>
      </trkpt>
      <trkpt lat="46.34943" lon="5.96081">
        <ele>1242</ele>
        <time>2019-05-05T09:22:04Z</time>
      </trkpt>
      <trkpt lat="46.34938" lon="5.96078">
        <ele>1242</ele>
        <time>2019-05-05T09:22:07Z</time>
      </trkpt>
      <trkpt lat="46.3492" lon="5.96067">
        <ele>1239</ele>
        <time>2019-05-05T09:22:21Z</time>
      </trkpt>
      <trkpt lat="46.34919" lon="5.96067">
        <ele>1239</ele>
        <time>2019-05-05T09:22:22Z</time>
      </trkpt>
      <trkpt lat="46.34913" lon="5.96065">
        <ele>1238</ele>
        <time>2019-05-05T09:22:26Z</time>
      </trkpt>
      <trkpt lat="46.34911" lon="5.96064">
        <ele>1238</ele>
        <time>2019-05-05T09:22:29Z</time>
      </trkpt>
      <trkpt lat="46.34907" lon="5.96059">
        <ele>1237</ele>
        <time>2019-05-05T09:22:32Z</time>
      </trkpt>
      <trkpt lat="46.34901" lon="5.96039">
        <ele>1238</ele>
        <time>2019-05-05T09:22:43Z</time>
      </trkpt>
      <trkpt lat="46.349" lon="5.96037">
        <ele>1238</ele>
        <time>2019-05-05T09:22:44Z</time>
      </trkpt>
      <trkpt lat="46.34899" lon="5.96034">
        <ele>1238</ele>
        <time>2019-05-05T09:22:46Z</time>
      </trkpt>
      <trkpt lat="46.34891" lon="5.96026">
        <ele>1237</ele>
        <time>2019-05-05T09:22:53Z</time>
      </trkpt>
      <trkpt lat="46.34889" lon="5.96026">
        <ele>1237</ele>
        <time>2019-05-05T09:22:54Z</time>
      </trkpt>
      <trkpt lat="46.34887" lon="5.96028">
        <ele>1236</ele>
        <time>2019-05-05T09:22:56Z</time>
      </trkpt>
      <trkpt lat="46.34881" lon="5.96029">
        <ele>1235</ele>
        <time>2019-05-05T09:23:01Z</time>
      </trkpt>
      <trkpt lat="46.3487" lon="5.96029">
        <ele>1232</ele>
        <time>2019-05-05T09:23:09Z</time>
      </trkpt>
      <trkpt lat="46.34866" lon="5.96026">
        <ele>1232</ele>
        <time>2019-05-05T09:23:12Z</time>
      </trkpt>
      <trkpt lat="46.34863" lon="5.96024">
        <ele>1231</ele>
        <time>2019-05-05T09:23:14Z</time>
      </trkpt>
      <trkpt lat="46.34863" lon="5.96023">
        <ele>1231</ele>
        <time>2019-05-05T09:23:15Z</time>
      </trkpt>
      <trkpt lat="46.34862" lon="5.96022">
        <ele>1231</ele>
        <time>2019-05-05T09:23:15Z</time>
      </trkpt>
      <trkpt lat="46.34865" lon="5.9602">
        <ele>1232</ele>
        <time>2019-05-05T09:23:18Z</time>
      </trkpt>
      <trkpt lat="46.3487" lon="5.96019">
        <ele>1233</ele>
        <time>2019-05-05T09:23:21Z</time>
      </trkpt>
      <trkpt lat="46.34873" lon="5.9602">
        <ele>1234</ele>
        <time>2019-05-05T09:23:24Z</time>
      </trkpt>
      <trkpt lat="46.34874" lon="5.96021">
        <ele>1234</ele>
        <time>2019-05-05T09:23:25Z</time>
      </trkpt>
      <trkpt lat="46.34874" lon="5.96022">
        <ele>1234</ele>
        <time>2019-05-05T09:23:25Z</time>
      </trkpt>
      <trkpt lat="46.34871" lon="5.96023">
        <ele>1233</ele>
        <time>2019-05-05T09:23:28Z</time>
      </trkpt>
      <trkpt lat="46.34864" lon="5.96021">
        <ele>1232</ele>
        <time>2019-05-05T09:23:33Z</time>
      </trkpt>
      <trkpt lat="46.34862" lon="5.96019">
        <ele>1231</ele>
        <time>2019-05-05T09:23:35Z</time>
      </trkpt>
      <trkpt lat="46.3486" lon="5.96019">
        <ele>1231</ele>
        <time>2019-05-05T09:23:36Z</time>
      </trkpt>
      <trkpt lat="46.3486" lon="5.96019">
        <ele>1231</ele>
        <time>2019-05-05T09:23:36Z</time>
      </trkpt>
      <trkpt lat="46.34857" lon="5.96022">
        <ele>1230</ele>
        <time>2019-05-05T09:23:39Z</time>
      </trkpt>
      <trkpt lat="46.34856" lon="5.96024">
        <ele>1229</ele>
        <time>2019-05-05T09:23:40Z</time>
      </trkpt>
      <trkpt lat="46.34854" lon="5.96027">
        <ele>1229</ele>
        <time>2019-05-05T09:23:42Z</time>
      </trkpt>
      <trkpt lat="46.34853" lon="5.96027">
        <ele>1228</ele>
        <time>2019-05-05T09:23:44Z</time>
      </trkpt>
      <trkpt lat="46.34846" lon="5.96027">
        <ele>1226</ele>
        <time>2019-05-05T09:23:49Z</time>
      </trkpt>
      <trkpt lat="46.34843" lon="5.9603">
        <ele>1225</ele>
        <time>2019-05-05T09:23:52Z</time>
      </trkpt>
      <trkpt lat="46.34841" lon="5.96033">
        <ele>1224</ele>
        <time>2019-05-05T09:23:54Z</time>
      </trkpt>
      <trkpt lat="46.34839" lon="5.96034">
        <ele>1224</ele>
        <time>2019-05-05T09:23:55Z</time>
      </trkpt>
      <trkpt lat="46.34835" lon="5.96035">
        <ele>1222</ele>
        <time>2019-05-05T09:23:58Z</time>
      </trkpt>
      <trkpt lat="46.34832" lon="5.96035">
        <ele>1221</ele>
        <time>2019-05-05T09:24:00Z</time>
      </trkpt>
      <trkpt lat="46.3483" lon="5.96035">
        <ele>1221</ele>
        <time>2019-05-05T09:24:02Z</time>
      </trkpt>
      <trkpt lat="46.34828" lon="5.96035">
        <ele>1220</ele>
        <time>2019-05-05T09:24:04Z</time>
      </trkpt>
      <trkpt lat="46.34827" lon="5.96035">
        <ele>1220</ele>
        <time>2019-05-05T09:24:04Z</time>
      </trkpt>
      <trkpt lat="46.34825" lon="5.96035">
        <ele>1219</ele>
        <time>2019-05-05T09:24:06Z</time>
      </trkpt>
      <trkpt lat="46.3482" lon="5.96037">
        <ele>1218</ele>
        <time>2019-05-05T09:24:10Z</time>
      </trkpt>
      <trkpt lat="46.34814" lon="5.96037">
        <ele>1216</ele>
        <time>2019-05-05T09:24:14Z</time>
      </trkpt>
      <trkpt lat="46.3481" lon="5.96037">
        <ele>1215</ele>
        <time>2019-05-05T09:24:18Z</time>
      </trkpt>
      <trkpt lat="46.34806" lon="5.96037">
        <ele>1214</ele>
        <time>2019-05-05T09:24:20Z</time>
      </trkpt>
      <trkpt lat="46.34804" lon="5.96038">
        <ele>1213</ele>
        <time>2019-05-05T09:24:22Z</time>
      </trkpt>
      <trkpt lat="46.34801" lon="5.96041">
        <ele>1212</ele>
        <time>2019-05-05T09:24:24Z</time>
      </trkpt>
      <trkpt lat="46.348" lon="5.96041">
        <ele>1212</ele>
        <time>2019-05-05T09:24:25Z</time>
      </trkpt>
      <trkpt lat="46.34799" lon="5.96039">
        <ele>1211</ele>
        <time>2019-05-05T09:24:27Z</time>
      </trkpt>
      <trkpt lat="46.34799" lon="5.96037">
        <ele>1211</ele>
        <time>2019-05-05T09:24:27Z</time>
      </trkpt>
      <trkpt lat="46.34795" lon="5.96038">
        <ele>1210</ele>
        <time>2019-05-05T09:24:30Z</time>
      </trkpt>
      <trkpt lat="46.34793" lon="5.96041">
        <ele>1209</ele>
        <time>2019-05-05T09:24:32Z</time>
      </trkpt>
      <trkpt lat="46.34789" lon="5.96052">
        <ele>1207</ele>
        <time>2019-05-05T09:24:39Z</time>
      </trkpt>
      <trkpt lat="46.34786" lon="5.96061">
        <ele>1205</ele>
        <time>2019-05-05T09:24:44Z</time>
      </trkpt>
      <trkpt lat="46.34788" lon="5.96076">
        <ele>1204</ele>
        <time>2019-05-05T09:24:52Z</time>
      </trkpt>
      <trkpt lat="46.34788" lon="5.96086">
        <ele>1203</ele>
        <time>2019-05-05T09:24:57Z</time>
      </trkpt>
      <trkpt lat="46.34784" lon="5.96083">
        <ele>1202</ele>
        <time>2019-05-05T09:25:00Z</time>
      </trkpt>
      <trkpt lat="46.34781" lon="5.96078">
        <ele>1202</ele>
        <time>2019-05-05T09:25:04Z</time>
      </trkpt>
      <trkpt lat="46.34777" lon="5.96072">
        <ele>1201</ele>
        <time>2019-05-05T09:25:08Z</time>
      </trkpt>
      <trkpt lat="46.34766" lon="5.96052">
        <ele>1201</ele>
        <time>2019-05-05T09:25:21Z</time>
      </trkpt>
      <trkpt lat="46.34765" lon="5.96052">
        <ele>1201</ele>
        <time>2019-05-05T09:25:21Z</time>
      </trkpt>
      <trkpt lat="46.34765" lon="5.96049">
        <ele>1201</ele>
        <time>2019-05-05T09:25:22Z</time>
      </trkpt>
      <trkpt lat="46.34762" lon="5.96045">
        <ele>1202</ele>
        <time>2019-05-05T09:25:25Z</time>
      </trkpt>
      <trkpt lat="46.34761" lon="5.9604">
        <ele>1202</ele>
        <time>2019-05-05T09:25:28Z</time>
      </trkpt>
      <trkpt lat="46.34753" lon="5.96023">
        <ele>1203</ele>
        <time>2019-05-05T09:25:38Z</time>
      </trkpt>
      <trkpt lat="46.34751" lon="5.96021">
        <ele>1203</ele>
        <time>2019-05-05T09:25:40Z</time>
      </trkpt>
      <trkpt lat="46.34746" lon="5.96013">
        <ele>1204</ele>
        <time>2019-05-05T09:25:45Z</time>
      </trkpt>
      <trkpt lat="46.34738" lon="5.96003">
        <ele>1205</ele>
        <time>2019-05-05T09:25:53Z</time>
      </trkpt>
      <trkpt lat="46.34735" lon="5.95999">
        <ele>1205</ele>
        <time>2019-05-05T09:25:56Z</time>
      </trkpt>
      <trkpt lat="46.3473" lon="5.95995">
        <ele>1206</ele>
        <time>2019-05-05T09:26:00Z</time>
      </trkpt>
      <trkpt lat="46.34715" lon="5.95988">
        <ele>1206</ele>
        <time>2019-05-05T09:26:11Z</time>
      </trkpt>
      <trkpt lat="46.34705" lon="5.9599">
        <ele>1205</ele>
        <time>2019-05-05T09:26:19Z</time>
      </trkpt>
      <trkpt lat="46.34701" lon="5.95992">
        <ele>1204</ele>
        <time>2019-05-05T09:26:22Z</time>
      </trkpt>
      <trkpt lat="46.34697" lon="5.95994">
        <ele>1203</ele>
        <time>2019-05-05T09:26:25Z</time>
      </trkpt>
      <trkpt lat="46.34683" lon="5.96008">
        <ele>1199</ele>
        <time>2019-05-05T09:26:38Z</time>
      </trkpt>
      <trkpt lat="46.34682" lon="5.96008">
        <ele>1199</ele>
        <time>2019-05-05T09:26:38Z</time>
      </trkpt>
      <trkpt lat="46.34663" lon="5.96007">
        <ele>1198</ele>
        <time>2019-05-05T09:26:52Z</time>
      </trkpt>
      <trkpt lat="46.3466" lon="5.96007">
        <ele>1197</ele>
        <time>2019-05-05T09:26:54Z</time>
      </trkpt>
      <trkpt lat="46.34646" lon="5.96007">
        <ele>1196</ele>
        <time>2019-05-05T09:27:05Z</time>
      </trkpt>
      <trkpt lat="46.34631" lon="5.95999">
        <ele>1197</ele>
        <time>2019-05-05T09:27:16Z</time>
      </trkpt>
      <trkpt lat="46.34617" lon="5.95989">
        <ele>1198</ele>
        <time>2019-05-05T09:27:28Z</time>
      </trkpt>
      <trkpt lat="46.34604" lon="5.95977">
        <ele>1200</ele>
        <time>2019-05-05T09:27:38Z</time>
      </trkpt>
      <trkpt lat="46.34585" lon="5.95968">
        <ele>1200</ele>
        <time>2019-05-05T09:27:53Z</time>
      </trkpt>
      <trkpt lat="46.34567" lon="5.95965">
        <ele>1199</ele>
        <time>2019-05-05T09:28:06Z</time>
      </trkpt>
      <trkpt lat="46.34549" lon="5.95961">
        <ele>1198</ele>
        <time>2019-05-05T09:28:19Z</time>
      </trkpt>
      <trkpt lat="46.34544" lon="5.95958">
        <ele>1198</ele>
        <time>2019-05-05T09:28:23Z</time>
      </trkpt>
      <trkpt lat="46.34538" lon="5.95958">
        <ele>1197</ele>
        <time>2019-05-05T09:28:28Z</time>
      </trkpt>
      <trkpt lat="46.34531" lon="5.95963">
        <ele>1196</ele>
        <time>2019-05-05T09:28:33Z</time>
      </trkpt>
      <trkpt lat="46.34527" lon="5.95963">
        <ele>1195</ele>
        <time>2019-05-05T09:28:36Z</time>
      </trkpt>
      <trkpt lat="46.34522" lon="5.95965">
        <ele>1194</ele>
        <time>2019-05-05T09:28:41Z</time>
      </trkpt>
      <trkpt lat="46.34516" lon="5.95971">
        <ele>1192</ele>
        <time>2019-05-05T09:28:46Z</time>
      </trkpt>
      <trkpt lat="46.34512" lon="5.95972">
        <ele>1192</ele>
        <time>2019-05-05T09:28:49Z</time>
      </trkpt>
      <trkpt lat="46.34504" lon="5.9597">
        <ele>1191</ele>
        <time>2019-05-05T09:28:55Z</time>
      </trkpt>
      <trkpt lat="46.34499" lon="5.95967">
        <ele>1191</ele>
        <time>2019-05-05T09:28:58Z</time>
      </trkpt>
      <trkpt lat="46.34493" lon="5.95962">
        <ele>1191</ele>
        <time>2019-05-05T09:29:03Z</time>
      </trkpt>
      <trkpt lat="46.3449" lon="5.95955">
        <ele>1192</ele>
        <time>2019-05-05T09:29:07Z</time>
      </trkpt>
      <trkpt lat="46.34492" lon="5.95955">
        <ele>1192</ele>
        <time>2019-05-05T09:29:09Z</time>
      </trkpt>
      <trkpt lat="46.34491" lon="5.95954">
        <ele>1192</ele>
        <time>2019-05-05T09:29:10Z</time>
      </trkpt>
      <trkpt lat="46.34486" lon="5.95953">
        <ele>1192</ele>
        <time>2019-05-05T09:29:14Z</time>
      </trkpt>
      <trkpt lat="46.34484" lon="5.95952">
        <ele>1192</ele>
        <time>2019-05-05T09:29:15Z</time>
      </trkpt>
      <trkpt lat="46.3448" lon="5.95951">
        <ele>1191</ele>
        <time>2019-05-05T09:29:18Z</time>
      </trkpt>
      <trkpt lat="46.34476" lon="5.95947">
        <ele>1191</ele>
        <time>2019-05-05T09:29:21Z</time>
      </trkpt>
      <trkpt lat="46.34473" lon="5.95945">
        <ele>1191</ele>
        <time>2019-05-05T09:29:24Z</time>
      </trkpt>
      <trkpt lat="46.34469" lon="5.9594">
        <ele>1191</ele>
        <time>2019-05-05T09:29:28Z</time>
      </trkpt>
      <trkpt lat="46.34468" lon="5.95939">
        <ele>1191</ele>
        <time>2019-05-05T09:29:29Z</time>
      </trkpt>
      <trkpt lat="46.34464" lon="5.95933">
        <ele>1192</ele>
        <time>2019-05-05T09:29:33Z</time>
      </trkpt>
      <trkpt lat="46.34459" lon="5.95926">
        <ele>1192</ele>
        <time>2019-05-05T09:29:38Z</time>
      </trkpt>
      <trkpt lat="46.3445" lon="5.95905">
        <ele>1195</ele>
        <time>2019-05-05T09:29:50Z</time>
      </trkpt>
      <trkpt lat="46.34437" lon="5.95886">
        <ele>1196</ele>
        <time>2019-05-05T09:30:04Z</time>
      </trkpt>
      <trkpt lat="46.34424" lon="5.95873">
        <ele>1197</ele>
        <time>2019-05-05T09:30:15Z</time>
      </trkpt>
      <trkpt lat="46.34409" lon="5.95854">
        <ele>1199</ele>
        <time>2019-05-05T09:30:30Z</time>
      </trkpt>
      <trkpt lat="46.34401" lon="5.95831">
        <ele>1203</ele>
        <time>2019-05-05T09:30:43Z</time>
      </trkpt>
      <trkpt lat="46.34387" lon="5.95814">
        <ele>1204</ele>
        <time>2019-05-05T09:30:56Z</time>
      </trkpt>
      <trkpt lat="46.34381" lon="5.95808">
        <ele>1205</ele>
        <time>2019-05-05T09:31:01Z</time>
      </trkpt>
      <trkpt lat="46.34376" lon="5.95806">
        <ele>1205</ele>
        <time>2019-05-05T09:31:05Z</time>
      </trkpt>
      <trkpt lat="46.34371" lon="5.95797">
        <ele>1206</ele>
        <time>2019-05-05T09:31:11Z</time>
      </trkpt>
      <trkpt lat="46.34366" lon="5.95794">
        <ele>1206</ele>
        <time>2019-05-05T09:31:15Z</time>
      </trkpt>
      <trkpt lat="46.34364" lon="5.95792">
        <ele>1206</ele>
        <time>2019-05-05T09:31:17Z</time>
      </trkpt>
      <trkpt lat="46.34363" lon="5.95791">
        <ele>1206</ele>
        <time>2019-05-05T09:31:18Z</time>
      </trkpt>
      <trkpt lat="46.34359" lon="5.95791">
        <ele>1205</ele>
        <time>2019-05-05T09:31:21Z</time>
      </trkpt>
      <trkpt lat="46.34356" lon="5.95791">
        <ele>1205</ele>
        <time>2019-05-05T09:31:23Z</time>
      </trkpt>
      <trkpt lat="46.34354" lon="5.95789">
        <ele>1205</ele>
        <time>2019-05-05T09:31:24Z</time>
      </trkpt>
      <trkpt lat="46.34353" lon="5.95786">
        <ele>1206</ele>
        <time>2019-05-05T09:31:26Z</time>
      </trkpt>
      <trkpt lat="46.3435" lon="5.95784">
        <ele>1206</ele>
        <time>2019-05-05T09:31:28Z</time>
      </trkpt>
      <trkpt lat="46.34347" lon="5.95782">
        <ele>1206</ele>
        <time>2019-05-05T09:31:31Z</time>
      </trkpt>
      <trkpt lat="46.34346" lon="5.95779">
        <ele>1206</ele>
        <time>2019-05-05T09:31:32Z</time>
      </trkpt>
      <trkpt lat="46.34342" lon="5.95771">
        <ele>1207</ele>
        <time>2019-05-05T09:31:37Z</time>
      </trkpt>
      <trkpt lat="46.34341" lon="5.95767">
        <ele>1208</ele>
        <time>2019-05-05T09:31:39Z</time>
      </trkpt>
      <trkpt lat="46.3434" lon="5.95764">
        <ele>1209</ele>
        <time>2019-05-05T09:31:41Z</time>
      </trkpt>
      <trkpt lat="46.34338" lon="5.95763">
        <ele>1209</ele>
        <time>2019-05-05T09:31:43Z</time>
      </trkpt>
      <trkpt lat="46.34337" lon="5.95762">
        <ele>1209</ele>
        <time>2019-05-05T09:31:44Z</time>
      </trkpt>
      <trkpt lat="46.3433" lon="5.9576">
        <ele>1208</ele>
        <time>2019-05-05T09:31:49Z</time>
      </trkpt>
      <trkpt lat="46.34326" lon="5.95756">
        <ele>1209</ele>
        <time>2019-05-05T09:31:52Z</time>
      </trkpt>
      <trkpt lat="46.3432" lon="5.95751">
        <ele>1209</ele>
        <time>2019-05-05T09:31:57Z</time>
      </trkpt>
      <trkpt lat="46.34317" lon="5.95748">
        <ele>1209</ele>
        <time>2019-05-05T09:32:00Z</time>
      </trkpt>
      <trkpt lat="46.34316" lon="5.95747">
        <ele>1209</ele>
        <time>2019-05-05T09:32:01Z</time>
      </trkpt>
      <trkpt lat="46.34313" lon="5.95745">
        <ele>1209</ele>
        <time>2019-05-05T09:32:03Z</time>
      </trkpt>
      <trkpt lat="46.34308" lon="5.95743">
        <ele>1209</ele>
        <time>2019-05-05T09:32:07Z</time>
      </trkpt>
      <trkpt lat="46.34304" lon="5.95739">
        <ele>1209</ele>
        <time>2019-05-05T09:32:11Z</time>
      </trkpt>
      <trkpt lat="46.34302" lon="5.95733">
        <ele>1210</ele>
        <time>2019-05-05T09:32:14Z</time>
      </trkpt>
      <trkpt lat="46.34301" lon="5.9573">
        <ele>1210</ele>
        <time>2019-05-05T09:32:16Z</time>
      </trkpt>
      <trkpt lat="46.343" lon="5.95723">
        <ele>1211</ele>
        <time>2019-05-05T09:32:20Z</time>
      </trkpt>
      <trkpt lat="46.343" lon="5.95721">
        <ele>1211</ele>
        <time>2019-05-05T09:32:20Z</time>
      </trkpt>
      <trkpt lat="46.34298" lon="5.95716">
        <ele>1212</ele>
        <time>2019-05-05T09:32:23Z</time>
      </trkpt>
      <trkpt lat="46.34299" lon="5.95709">
        <ele>1213</ele>
        <time>2019-05-05T09:32:27Z</time>
      </trkpt>
      <trkpt lat="46.34299" lon="5.95707">
        <ele>1214</ele>
        <time>2019-05-05T09:32:28Z</time>
      </trkpt>
      <trkpt lat="46.343" lon="5.95705">
        <ele>1214</ele>
        <time>2019-05-05T09:32:29Z</time>
      </trkpt>
      <trkpt lat="46.34298" lon="5.95699">
        <ele>1215</ele>
        <time>2019-05-05T09:32:32Z</time>
      </trkpt>
      <trkpt lat="46.34294" lon="5.95694">
        <ele>1215</ele>
        <time>2019-05-05T09:32:36Z</time>
      </trkpt>
      <trkpt lat="46.34289" lon="5.95692">
        <ele>1215</ele>
        <time>2019-05-05T09:32:40Z</time>
      </trkpt>
      <trkpt lat="46.34288" lon="5.95686">
        <ele>1215</ele>
        <time>2019-05-05T09:32:43Z</time>
      </trkpt>
      <trkpt lat="46.34284" lon="5.95681">
        <ele>1216</ele>
        <time>2019-05-05T09:32:47Z</time>
      </trkpt>
      <trkpt lat="46.34284" lon="5.95678">
        <ele>1216</ele>
        <time>2019-05-05T09:32:48Z</time>
      </trkpt>
      <trkpt lat="46.34282" lon="5.95672">
        <ele>1217</ele>
        <time>2019-05-05T09:32:52Z</time>
      </trkpt>
      <trkpt lat="46.34279" lon="5.95668">
        <ele>1217</ele>
        <time>2019-05-05T09:32:54Z</time>
      </trkpt>
      <trkpt lat="46.34273" lon="5.95664">
        <ele>1217</ele>
        <time>2019-05-05T09:32:59Z</time>
      </trkpt>
      <trkpt lat="46.34272" lon="5.95662">
        <ele>1217</ele>
        <time>2019-05-05T09:33:00Z</time>
      </trkpt>
      <trkpt lat="46.3427" lon="5.95655">
        <ele>1218</ele>
        <time>2019-05-05T09:33:04Z</time>
      </trkpt>
      <trkpt lat="46.34266" lon="5.9565">
        <ele>1218</ele>
        <time>2019-05-05T09:33:08Z</time>
      </trkpt>
      <trkpt lat="46.34264" lon="5.95645">
        <ele>1218</ele>
        <time>2019-05-05T09:33:11Z</time>
      </trkpt>
      <trkpt lat="46.34264" lon="5.95643">
        <ele>1219</ele>
        <time>2019-05-05T09:33:12Z</time>
      </trkpt>
      <trkpt lat="46.34262" lon="5.95638">
        <ele>1219</ele>
        <time>2019-05-05T09:33:15Z</time>
      </trkpt>
      <trkpt lat="46.34259" lon="5.95625">
        <ele>1221</ele>
        <time>2019-05-05T09:33:22Z</time>
      </trkpt>
      <trkpt lat="46.34259" lon="5.95622">
        <ele>1221</ele>
        <time>2019-05-05T09:33:23Z</time>
      </trkpt>
      <trkpt lat="46.34258" lon="5.95613">
        <ele>1223</ele>
        <time>2019-05-05T09:33:28Z</time>
      </trkpt>
      <trkpt lat="46.34258" lon="5.95611">
        <ele>1223</ele>
        <time>2019-05-05T09:33:29Z</time>
      </trkpt>
      <trkpt lat="46.34255" lon="5.95602">
        <ele>1224</ele>
        <time>2019-05-05T09:33:35Z</time>
      </trkpt>
      <trkpt lat="46.34246" lon="5.95592">
        <ele>1224</ele>
        <time>2019-05-05T09:33:42Z</time>
      </trkpt>
      <trkpt lat="46.34238" lon="5.95579">
        <ele>1225</ele>
        <time>2019-05-05T09:33:51Z</time>
      </trkpt>
      <trkpt lat="46.34234" lon="5.95562">
        <ele>1226</ele>
        <time>2019-05-05T09:34:00Z</time>
      </trkpt>
      <trkpt lat="46.34231" lon="5.95557">
        <ele>1227</ele>
        <time>2019-05-05T09:34:03Z</time>
      </trkpt>
      <trkpt lat="46.3423" lon="5.95555">
        <ele>1227</ele>
        <time>2019-05-05T09:34:05Z</time>
      </trkpt>
      <trkpt lat="46.34226" lon="5.9555">
        <ele>1227</ele>
        <time>2019-05-05T09:34:08Z</time>
      </trkpt>
      <trkpt lat="46.34224" lon="5.9554">
        <ele>1228</ele>
        <time>2019-05-05T09:34:14Z</time>
      </trkpt>
      <trkpt lat="46.34223" lon="5.95531">
        <ele>1229</ele>
        <time>2019-05-05T09:34:18Z</time>
      </trkpt>
      <trkpt lat="46.3422" lon="5.95529">
        <ele>1229</ele>
        <time>2019-05-05T09:34:21Z</time>
      </trkpt>
      <trkpt lat="46.34218" lon="5.9552">
        <ele>1230</ele>
        <time>2019-05-05T09:34:25Z</time>
      </trkpt>
      <trkpt lat="46.34217" lon="5.95515">
        <ele>1230</ele>
        <time>2019-05-05T09:34:28Z</time>
      </trkpt>
      <trkpt lat="46.34215" lon="5.95513">
        <ele>1230</ele>
        <time>2019-05-05T09:34:29Z</time>
      </trkpt>
      <trkpt lat="46.34212" lon="5.95506">
        <ele>1231</ele>
        <time>2019-05-05T09:34:34Z</time>
      </trkpt>
      <trkpt lat="46.34202" lon="5.95481">
        <ele>1234</ele>
        <time>2019-05-05T09:34:48Z</time>
      </trkpt>
      <trkpt lat="46.34203" lon="5.95462">
        <ele>1237</ele>
        <time>2019-05-05T09:34:58Z</time>
      </trkpt>
      <trkpt lat="46.34203" lon="5.9546">
        <ele>1237</ele>
        <time>2019-05-05T09:34:59Z</time>
      </trkpt>
      <trkpt lat="46.34203" lon="5.95455">
        <ele>1238</ele>
        <time>2019-05-05T09:35:01Z</time>
      </trkpt>
      <trkpt lat="46.342" lon="5.95448">
        <ele>1238</ele>
        <time>2019-05-05T09:35:06Z</time>
      </trkpt>
      <trkpt lat="46.34192" lon="5.95441">
        <ele>1239</ele>
        <time>2019-05-05T09:35:12Z</time>
      </trkpt>
      <trkpt lat="46.34188" lon="5.95439">
        <ele>1239</ele>
        <time>2019-05-05T09:35:15Z</time>
      </trkpt>
      <trkpt lat="46.34183" lon="5.95438">
        <ele>1239</ele>
        <time>2019-05-05T09:35:19Z</time>
      </trkpt>
      <trkpt lat="46.3418" lon="5.95436">
        <ele>1239</ele>
        <time>2019-05-05T09:35:21Z</time>
      </trkpt>
      <trkpt lat="46.34164" lon="5.95423">
        <ele>1239</ele>
        <time>2019-05-05T09:35:35Z</time>
      </trkpt>
      <trkpt lat="46.34151" lon="5.95405">
        <ele>1240</ele>
        <time>2019-05-05T09:35:48Z</time>
      </trkpt>
      <trkpt lat="46.34143" lon="5.95379">
        <ele>1243</ele>
        <time>2019-05-05T09:36:02Z</time>
      </trkpt>
      <trkpt lat="46.34129" lon="5.95362">
        <ele>1244</ele>
        <time>2019-05-05T09:36:16Z</time>
      </trkpt>
      <trkpt lat="46.34127" lon="5.9536">
        <ele>1244</ele>
        <time>2019-05-05T09:36:17Z</time>
      </trkpt>
      <trkpt lat="46.34126" lon="5.95359">
        <ele>1244</ele>
        <time>2019-05-05T09:36:18Z</time>
      </trkpt>
      <trkpt lat="46.34119" lon="5.95349">
        <ele>1244</ele>
        <time>2019-05-05T09:36:26Z</time>
      </trkpt>
      <trkpt lat="46.34108" lon="5.95337">
        <ele>1245</ele>
        <time>2019-05-05T09:36:35Z</time>
      </trkpt>
      <trkpt lat="46.34098" lon="5.95325">
        <ele>1245</ele>
        <time>2019-05-05T09:36:44Z</time>
      </trkpt>
      <trkpt lat="46.34101" lon="5.95326">
        <ele>1245</ele>
        <time>2019-05-05T09:36:46Z</time>
      </trkpt>
      <trkpt lat="46.34096" lon="5.95324">
        <ele>1245</ele>
        <time>2019-05-05T09:36:50Z</time>
      </trkpt>
      <trkpt lat="46.34095" lon="5.95322">
        <ele>1245</ele>
        <time>2019-05-05T09:36:52Z</time>
      </trkpt>
      <trkpt lat="46.34083" lon="5.95304">
        <ele>1245</ele>
        <time>2019-05-05T09:37:04Z</time>
      </trkpt>
      <trkpt lat="46.34072" lon="5.95288">
        <ele>1246</ele>
        <time>2019-05-05T09:37:15Z</time>
      </trkpt>
      <trkpt lat="46.34062" lon="5.95267">
        <ele>1248</ele>
        <time>2019-05-05T09:37:29Z</time>
      </trkpt>
      <trkpt lat="46.34057" lon="5.95259">
        <ele>1248</ele>
        <time>2019-05-05T09:37:34Z</time>
      </trkpt>
      <trkpt lat="46.34046" lon="5.95244">
        <ele>1248</ele>
        <time>2019-05-05T09:37:45Z</time>
      </trkpt>
      <trkpt lat="46.34044" lon="5.95242">
        <ele>1248</ele>
        <time>2019-05-05T09:37:46Z</time>
      </trkpt>
      <trkpt lat="46.34041" lon="5.95237">
        <ele>1249</ele>
        <time>2019-05-05T09:37:50Z</time>
      </trkpt>
      <trkpt lat="46.34031" lon="5.95224">
        <ele>1249</ele>
        <time>2019-05-05T09:38:00Z</time>
      </trkpt>
      <trkpt lat="46.34023" lon="5.95219">
        <ele>1249</ele>
        <time>2019-05-05T09:38:06Z</time>
      </trkpt>
      <trkpt lat="46.34003" lon="5.95214">
        <ele>1244</ele>
        <time>2019-05-05T09:38:21Z</time>
      </trkpt>
      <trkpt lat="46.34001" lon="5.95212">
        <ele>1244</ele>
        <time>2019-05-05T09:38:23Z</time>
      </trkpt>
      <trkpt lat="46.3399" lon="5.95203">
        <ele>1243</ele>
        <time>2019-05-05T09:38:32Z</time>
      </trkpt>
      <trkpt lat="46.33979" lon="5.95195">
        <ele>1241</ele>
        <time>2019-05-05T09:38:41Z</time>
      </trkpt>
      <trkpt lat="46.33971" lon="5.95188">
        <ele>1240</ele>
        <time>2019-05-05T09:38:48Z</time>
      </trkpt>
      <trkpt lat="46.33953" lon="5.95174">
        <ele>1238</ele>
        <time>2019-05-05T09:39:02Z</time>
      </trkpt>
      <trkpt lat="46.3394" lon="5.95168">
        <ele>1236</ele>
        <time>2019-05-05T09:39:12Z</time>
      </trkpt>
      <trkpt lat="46.3393" lon="5.95162">
        <ele>1236</ele>
        <time>2019-05-05T09:39:20Z</time>
      </trkpt>
      <trkpt lat="46.33924" lon="5.95155">
        <ele>1236</ele>
        <time>2019-05-05T09:39:25Z</time>
      </trkpt>
      <trkpt lat="46.33914" lon="5.95149">
        <ele>1236</ele>
        <time>2019-05-05T09:39:33Z</time>
      </trkpt>
      <trkpt lat="46.33902" lon="5.95133">
        <ele>1237</ele>
        <time>2019-05-05T09:39:45Z</time>
      </trkpt>
      <trkpt lat="46.33895" lon="5.95127">
        <ele>1237</ele>
        <time>2019-05-05T09:39:51Z</time>
      </trkpt>
      <trkpt lat="46.33892" lon="5.95122">
        <ele>1238</ele>
        <time>2019-05-05T09:39:54Z</time>
      </trkpt>
      <trkpt lat="46.33883" lon="5.9511">
        <ele>1239</ele>
        <time>2019-05-05T09:40:03Z</time>
      </trkpt>
      <trkpt lat="46.33872" lon="5.95095">
        <ele>1241</ele>
        <time>2019-05-05T09:40:14Z</time>
      </trkpt>
      <trkpt lat="46.33862" lon="5.95092">
        <ele>1241</ele>
        <time>2019-05-05T09:40:21Z</time>
      </trkpt>
      <trkpt lat="46.33853" lon="5.95084">
        <ele>1241</ele>
        <time>2019-05-05T09:40:29Z</time>
      </trkpt>
      <trkpt lat="46.33845" lon="5.95081">
        <ele>1240</ele>
        <time>2019-05-05T09:40:35Z</time>
      </trkpt>
      <trkpt lat="46.33842" lon="5.95076">
        <ele>1240</ele>
        <time>2019-05-05T09:40:38Z</time>
      </trkpt>
      <trkpt lat="46.33841" lon="5.95076">
        <ele>1240</ele>
        <time>2019-05-05T09:40:39Z</time>
      </trkpt>
      <trkpt lat="46.33828" lon="5.95059">
        <ele>1241</ele>
        <time>2019-05-05T09:40:52Z</time>
      </trkpt>
      <trkpt lat="46.3381" lon="5.95047">
        <ele>1241</ele>
        <time>2019-05-05T09:41:06Z</time>
      </trkpt>
      <trkpt lat="46.33802" lon="5.95038">
        <ele>1241</ele>
        <time>2019-05-05T09:41:13Z</time>
      </trkpt>
      <trkpt lat="46.33787" lon="5.95025">
        <ele>1241</ele>
        <time>2019-05-05T09:41:26Z</time>
      </trkpt>
      <trkpt lat="46.33774" lon="5.95013">
        <ele>1242</ele>
        <time>2019-05-05T09:41:37Z</time>
      </trkpt>
      <trkpt lat="46.33769" lon="5.95006">
        <ele>1242</ele>
        <time>2019-05-05T09:41:42Z</time>
      </trkpt>
      <trkpt lat="46.33758" lon="5.94996">
        <ele>1241</ele>
        <time>2019-05-05T09:41:51Z</time>
      </trkpt>
      <trkpt lat="46.3374" lon="5.94985">
        <ele>1239</ele>
        <time>2019-05-05T09:42:05Z</time>
      </trkpt>
      <trkpt lat="46.33732" lon="5.9498">
        <ele>1237</ele>
        <time>2019-05-05T09:42:12Z</time>
      </trkpt>
      <trkpt lat="46.33725" lon="5.94976">
        <ele>1237</ele>
        <time>2019-05-05T09:42:18Z</time>
      </trkpt>
      <trkpt lat="46.33715" lon="5.94965">
        <ele>1236</ele>
        <time>2019-05-05T09:42:27Z</time>
      </trkpt>
      <trkpt lat="46.33712" lon="5.94963">
        <ele>1236</ele>
        <time>2019-05-05T09:42:29Z</time>
      </trkpt>
      <trkpt lat="46.33705" lon="5.94955">
        <ele>1235</ele>
        <time>2019-05-05T09:42:35Z</time>
      </trkpt>
      <trkpt lat="46.33695" lon="5.94931">
        <ele>1236</ele>
        <time>2019-05-05T09:42:49Z</time>
      </trkpt>
      <trkpt lat="46.33685" lon="5.94907">
        <ele>1234</ele>
        <time>2019-05-05T09:43:04Z</time>
      </trkpt>
      <trkpt lat="46.33682" lon="5.94893">
        <ele>1234</ele>
        <time>2019-05-05T09:43:11Z</time>
      </trkpt>
      <trkpt lat="46.33681" lon="5.94891">
        <ele>1233</ele>
        <time>2019-05-05T09:43:12Z</time>
      </trkpt>
      <trkpt lat="46.33676" lon="5.94873">
        <ele>1232</ele>
        <time>2019-05-05T09:43:22Z</time>
      </trkpt>
      <trkpt lat="46.33674" lon="5.9487">
        <ele>1231</ele>
        <time>2019-05-05T09:43:24Z</time>
      </trkpt>
      <trkpt lat="46.33672" lon="5.94866">
        <ele>1231</ele>
        <time>2019-05-05T09:43:26Z</time>
      </trkpt>
      <trkpt lat="46.33671" lon="5.94865">
        <ele>1230</ele>
        <time>2019-05-05T09:43:28Z</time>
      </trkpt>
      <trkpt lat="46.33669" lon="5.94864">
        <ele>1229</ele>
        <time>2019-05-05T09:43:29Z</time>
      </trkpt>
      <trkpt lat="46.33667" lon="5.9486">
        <ele>1229</ele>
        <time>2019-05-05T09:43:32Z</time>
      </trkpt>
      <trkpt lat="46.3366" lon="5.94837">
        <ele>1226</ele>
        <time>2019-05-05T09:43:45Z</time>
      </trkpt>
      <trkpt lat="46.33654" lon="5.94825">
        <ele>1224</ele>
        <time>2019-05-05T09:43:52Z</time>
      </trkpt>
      <trkpt lat="46.33655" lon="5.94823">
        <ele>1224</ele>
        <time>2019-05-05T09:43:53Z</time>
      </trkpt>
      <trkpt lat="46.33658" lon="5.94822">
        <ele>1226</ele>
        <time>2019-05-05T09:43:56Z</time>
      </trkpt>
      <trkpt lat="46.33653" lon="5.94828">
        <ele>1223</ele>
        <time>2019-05-05T09:44:01Z</time>
      </trkpt>
      <trkpt lat="46.33641" lon="5.94836">
        <ele>1218</ele>
        <time>2019-05-05T09:44:11Z</time>
      </trkpt>
      <trkpt lat="46.33643" lon="5.94829">
        <ele>1219</ele>
        <time>2019-05-05T09:44:15Z</time>
      </trkpt>
      <trkpt lat="46.33646" lon="5.94815">
        <ele>1221</ele>
        <time>2019-05-05T09:44:22Z</time>
      </trkpt>
      <trkpt lat="46.3364" lon="5.94805">
        <ele>1218</ele>
        <time>2019-05-05T09:44:30Z</time>
      </trkpt>
      <trkpt lat="46.3364" lon="5.94801">
        <ele>1218</ele>
        <time>2019-05-05T09:44:31Z</time>
      </trkpt>
      <trkpt lat="46.3364" lon="5.94795">
        <ele>1218</ele>
        <time>2019-05-05T09:44:35Z</time>
      </trkpt>
      <trkpt lat="46.33639" lon="5.94791">
        <ele>1218</ele>
        <time>2019-05-05T09:44:36Z</time>
      </trkpt>
      <trkpt lat="46.33639" lon="5.9479">
        <ele>1218</ele>
        <time>2019-05-05T09:44:37Z</time>
      </trkpt>
      <trkpt lat="46.33638" lon="5.94789">
        <ele>1218</ele>
        <time>2019-05-05T09:44:38Z</time>
      </trkpt>
      <trkpt lat="46.33638" lon="5.94783">
        <ele>1217</ele>
        <time>2019-05-05T09:44:41Z</time>
      </trkpt>
      <trkpt lat="46.33632" lon="5.94757">
        <ele>1215</ele>
        <time>2019-05-05T09:44:54Z</time>
      </trkpt>
      <trkpt lat="46.33629" lon="5.94728">
        <ele>1213</ele>
        <time>2019-05-05T09:45:09Z</time>
      </trkpt>
      <trkpt lat="46.3363" lon="5.9471">
        <ele>1213</ele>
        <time>2019-05-05T09:45:18Z</time>
      </trkpt>
      <trkpt lat="46.33631" lon="5.94699">
        <ele>1213</ele>
        <time>2019-05-05T09:45:23Z</time>
      </trkpt>
      <trkpt lat="46.33631" lon="5.94694">
        <ele>1213</ele>
        <time>2019-05-05T09:45:26Z</time>
      </trkpt>
      <trkpt lat="46.33632" lon="5.9468">
        <ele>1214</ele>
        <time>2019-05-05T09:45:33Z</time>
      </trkpt>
      <trkpt lat="46.33633" lon="5.94666">
        <ele>1217</ele>
        <time>2019-05-05T09:45:40Z</time>
      </trkpt>
      <trkpt lat="46.33632" lon="5.94658">
        <ele>1219</ele>
        <time>2019-05-05T09:45:44Z</time>
      </trkpt>
      <trkpt lat="46.3363" lon="5.94636">
        <ele>1223</ele>
        <time>2019-05-05T09:45:56Z</time>
      </trkpt>
      <trkpt lat="46.33627" lon="5.94616">
        <ele>1228</ele>
        <time>2019-05-05T09:46:07Z</time>
      </trkpt>
      <trkpt lat="46.33617" lon="5.94593">
        <ele>1233</ele>
        <time>2019-05-05T09:46:21Z</time>
      </trkpt>
      <trkpt lat="46.33602" lon="5.94588">
        <ele>1234</ele>
        <time>2019-05-05T09:46:32Z</time>
      </trkpt>
      <trkpt lat="46.33595" lon="5.94591">
        <ele>1233</ele>
        <time>2019-05-05T09:46:37Z</time>
      </trkpt>
      <trkpt lat="46.33589" lon="5.94592">
        <ele>1232</ele>
        <time>2019-05-05T09:46:41Z</time>
      </trkpt>
      <trkpt lat="46.3357" lon="5.94598">
        <ele>1230</ele>
        <time>2019-05-05T09:46:55Z</time>
      </trkpt>
      <trkpt lat="46.33565" lon="5.94599">
        <ele>1230</ele>
        <time>2019-05-05T09:46:59Z</time>
      </trkpt>
      <trkpt lat="46.3356" lon="5.94599">
        <ele>1230</ele>
        <time>2019-05-05T09:47:03Z</time>
      </trkpt>
      <trkpt lat="46.33555" lon="5.94599">
        <ele>1229</ele>
        <time>2019-05-05T09:47:07Z</time>
      </trkpt>
      <trkpt lat="46.33534" lon="5.94603">
        <ele>1227</ele>
        <time>2019-05-05T09:47:22Z</time>
      </trkpt>
      <trkpt lat="46.33532" lon="5.94604">
        <ele>1227</ele>
        <time>2019-05-05T09:47:24Z</time>
      </trkpt>
      <trkpt lat="46.33526" lon="5.94607">
        <ele>1226</ele>
        <time>2019-05-05T09:47:28Z</time>
      </trkpt>
      <trkpt lat="46.33521" lon="5.94608">
        <ele>1225</ele>
        <time>2019-05-05T09:47:31Z</time>
      </trkpt>
      <trkpt lat="46.33503" lon="5.94614">
        <ele>1222</ele>
        <time>2019-05-05T09:47:45Z</time>
      </trkpt>
      <trkpt lat="46.33485" lon="5.94619">
        <ele>1219</ele>
        <time>2019-05-05T09:47:59Z</time>
      </trkpt>
      <trkpt lat="46.33477" lon="5.94619">
        <ele>1219</ele>
        <time>2019-05-05T09:48:04Z</time>
      </trkpt>
      <trkpt lat="46.33474" lon="5.94619">
        <ele>1219</ele>
        <time>2019-05-05T09:48:06Z</time>
      </trkpt>
      <trkpt lat="46.33467" lon="5.94619">
        <ele>1219</ele>
        <time>2019-05-05T09:48:12Z</time>
      </trkpt>
      <trkpt lat="46.33455" lon="5.94618">
        <ele>1219</ele>
        <time>2019-05-05T09:48:20Z</time>
      </trkpt>
      <trkpt lat="46.33435" lon="5.94612">
        <ele>1221</ele>
        <time>2019-05-05T09:48:35Z</time>
      </trkpt>
      <trkpt lat="46.33429" lon="5.94609">
        <ele>1222</ele>
        <time>2019-05-05T09:48:40Z</time>
      </trkpt>
      <trkpt lat="46.33422" lon="5.94608">
        <ele>1221</ele>
        <time>2019-05-05T09:48:45Z</time>
      </trkpt>
      <trkpt lat="46.33411" lon="5.94608">
        <ele>1219</ele>
        <time>2019-05-05T09:48:53Z</time>
      </trkpt>
      <trkpt lat="46.33398" lon="5.94606">
        <ele>1218</ele>
        <time>2019-05-05T09:49:02Z</time>
      </trkpt>
      <trkpt lat="46.33389" lon="5.94605">
        <ele>1217</ele>
        <time>2019-05-05T09:49:09Z</time>
      </trkpt>
      <trkpt lat="46.33372" lon="5.94599">
        <ele>1218</ele>
        <time>2019-05-05T09:49:21Z</time>
      </trkpt>
      <trkpt lat="46.33354" lon="5.94596">
        <ele>1216</ele>
        <time>2019-05-05T09:49:34Z</time>
      </trkpt>
      <trkpt lat="46.33336" lon="5.946">
        <ele>1212</ele>
        <time>2019-05-05T09:49:48Z</time>
      </trkpt>
      <trkpt lat="46.33317" lon="5.94603">
        <ele>1207</ele>
        <time>2019-05-05T09:50:02Z</time>
      </trkpt>
      <trkpt lat="46.33312" lon="5.94605">
        <ele>1205</ele>
        <time>2019-05-05T09:50:06Z</time>
      </trkpt>
      <trkpt lat="46.33298" lon="5.94608">
        <ele>1202</ele>
        <time>2019-05-05T09:50:17Z</time>
      </trkpt>
      <trkpt lat="46.33285" lon="5.94612">
        <ele>1198</ele>
        <time>2019-05-05T09:50:27Z</time>
      </trkpt>
      <trkpt lat="46.33272" lon="5.94615">
        <ele>1195</ele>
        <time>2019-05-05T09:50:36Z</time>
      </trkpt>
      <trkpt lat="46.33259" lon="5.94618">
        <ele>1193</ele>
        <time>2019-05-05T09:50:46Z</time>
      </trkpt>
      <trkpt lat="46.33246" lon="5.94615">
        <ele>1193</ele>
        <time>2019-05-05T09:50:56Z</time>
      </trkpt>
      <trkpt lat="46.33238" lon="5.94606">
        <ele>1195</ele>
        <time>2019-05-05T09:51:03Z</time>
      </trkpt>
      <trkpt lat="46.33229" lon="5.94606">
        <ele>1194</ele>
        <time>2019-05-05T09:51:10Z</time>
      </trkpt>
      <trkpt lat="46.33222" lon="5.94604">
        <ele>1194</ele>
        <time>2019-05-05T09:51:15Z</time>
      </trkpt>
      <trkpt lat="46.33216" lon="5.94598">
        <ele>1195</ele>
        <time>2019-05-05T09:51:20Z</time>
      </trkpt>
      <trkpt lat="46.33216" lon="5.94598">
        <ele>1196</ele>
        <time>2019-05-05T09:51:20Z</time>
      </trkpt>
      <trkpt lat="46.33214" lon="5.94599">
        <ele>1195</ele>
        <time>2019-05-05T09:51:22Z</time>
      </trkpt>
      <trkpt lat="46.3321" lon="5.94597">
        <ele>1195</ele>
        <time>2019-05-05T09:51:26Z</time>
      </trkpt>
      <trkpt lat="46.33192" lon="5.94591">
        <ele>1195</ele>
        <time>2019-05-05T09:51:39Z</time>
      </trkpt>
      <trkpt lat="46.33183" lon="5.94587">
        <ele>1195</ele>
        <time>2019-05-05T09:51:46Z</time>
      </trkpt>
      <trkpt lat="46.33178" lon="5.94587">
        <ele>1194</ele>
        <time>2019-05-05T09:51:49Z</time>
      </trkpt>
      <trkpt lat="46.33173" lon="5.94586">
        <ele>1194</ele>
        <time>2019-05-05T09:51:53Z</time>
      </trkpt>
      <trkpt lat="46.33165" lon="5.94586">
        <ele>1192</ele>
        <time>2019-05-05T09:51:59Z</time>
      </trkpt>
      <trkpt lat="46.33156" lon="5.94585">
        <ele>1191</ele>
        <time>2019-05-05T09:52:05Z</time>
      </trkpt>
      <trkpt lat="46.33136" lon="5.94587">
        <ele>1187</ele>
        <time>2019-05-05T09:52:20Z</time>
      </trkpt>
      <trkpt lat="46.33125" lon="5.94588">
        <ele>1185</ele>
        <time>2019-05-05T09:52:28Z</time>
      </trkpt>
      <trkpt lat="46.33124" lon="5.94586">
        <ele>1185</ele>
        <time>2019-05-05T09:52:29Z</time>
      </trkpt>
      <trkpt lat="46.33124" lon="5.94586">
        <ele>1185</ele>
        <time>2019-05-05T09:52:29Z</time>
      </trkpt>
      <trkpt lat="46.33108" lon="5.94581">
        <ele>1184</ele>
        <time>2019-05-05T09:52:41Z</time>
      </trkpt>
      <trkpt lat="46.3309" lon="5.94571">
        <ele>1184</ele>
        <time>2019-05-05T09:52:55Z</time>
      </trkpt>
      <trkpt lat="46.33075" lon="5.94556">
        <ele>1184</ele>
        <time>2019-05-05T09:53:08Z</time>
      </trkpt>
      <trkpt lat="46.33065" lon="5.94544">
        <ele>1184</ele>
        <time>2019-05-05T09:53:18Z</time>
      </trkpt>
      <trkpt lat="46.33051" lon="5.94527">
        <ele>1183</ele>
        <time>2019-05-05T09:53:31Z</time>
      </trkpt>
      <trkpt lat="46.33049" lon="5.94525">
        <ele>1183</ele>
        <time>2019-05-05T09:53:33Z</time>
      </trkpt>
      <trkpt lat="46.33039" lon="5.94516">
        <ele>1181</ele>
        <time>2019-05-05T09:53:41Z</time>
      </trkpt>
      <trkpt lat="46.33021" lon="5.94503">
        <ele>1180</ele>
        <time>2019-05-05T09:53:56Z</time>
      </trkpt>
      <trkpt lat="46.33004" lon="5.94488">
        <ele>1180</ele>
        <time>2019-05-05T09:54:10Z</time>
      </trkpt>
      <trkpt lat="46.32997" lon="5.94482">
        <ele>1180</ele>
        <time>2019-05-05T09:54:16Z</time>
      </trkpt>
      <trkpt lat="46.32979" lon="5.9447">
        <ele>1178</ele>
        <time>2019-05-05T09:54:31Z</time>
      </trkpt>
      <trkpt lat="46.32962" lon="5.94451">
        <ele>1176</ele>
        <time>2019-05-05T09:54:46Z</time>
      </trkpt>
      <trkpt lat="46.32958" lon="5.94448">
        <ele>1175</ele>
        <time>2019-05-05T09:54:49Z</time>
      </trkpt>
      <trkpt lat="46.32952" lon="5.94442">
        <ele>1174</ele>
        <time>2019-05-05T09:54:55Z</time>
      </trkpt>
      <trkpt lat="46.32946" lon="5.94436">
        <ele>1172</ele>
        <time>2019-05-05T09:55:00Z</time>
      </trkpt>
      <trkpt lat="46.32928" lon="5.94423">
        <ele>1168</ele>
        <time>2019-05-05T09:55:15Z</time>
      </trkpt>
      <trkpt lat="46.32921" lon="5.94418">
        <ele>1166</ele>
        <time>2019-05-05T09:55:20Z</time>
      </trkpt>
      <trkpt lat="46.32917" lon="5.94417">
        <ele>1165</ele>
        <time>2019-05-05T09:55:23Z</time>
      </trkpt>
      <trkpt lat="46.32914" lon="5.94416">
        <ele>1164</ele>
        <time>2019-05-05T09:55:26Z</time>
      </trkpt>
      <trkpt lat="46.3291" lon="5.94414">
        <ele>1163</ele>
        <time>2019-05-05T09:55:29Z</time>
      </trkpt>
      <trkpt lat="46.32904" lon="5.9441">
        <ele>1161</ele>
        <time>2019-05-05T09:55:34Z</time>
      </trkpt>
      <trkpt lat="46.32894" lon="5.94405">
        <ele>1157</ele>
        <time>2019-05-05T09:55:42Z</time>
      </trkpt>
      <trkpt lat="46.32888" lon="5.94402">
        <ele>1155</ele>
        <time>2019-05-05T09:55:46Z</time>
      </trkpt>
      <trkpt lat="46.32883" lon="5.94398">
        <ele>1154</ele>
        <time>2019-05-05T09:55:51Z</time>
      </trkpt>
      <trkpt lat="46.32878" lon="5.94396">
        <ele>1152</ele>
        <time>2019-05-05T09:55:55Z</time>
      </trkpt>
      <trkpt lat="46.32875" lon="5.94394">
        <ele>1151</ele>
        <time>2019-05-05T09:55:57Z</time>
      </trkpt>
      <trkpt lat="46.32871" lon="5.9439">
        <ele>1149</ele>
        <time>2019-05-05T09:56:01Z</time>
      </trkpt>
      <trkpt lat="46.32866" lon="5.94388">
        <ele>1147</ele>
        <time>2019-05-05T09:56:05Z</time>
      </trkpt>
      <trkpt lat="46.32862" lon="5.94385">
        <ele>1146</ele>
        <time>2019-05-05T09:56:08Z</time>
      </trkpt>
      <trkpt lat="46.3286" lon="5.94384">
        <ele>1145</ele>
        <time>2019-05-05T09:56:10Z</time>
      </trkpt>
      <trkpt lat="46.32858" lon="5.94381">
        <ele>1145</ele>
        <time>2019-05-05T09:56:12Z</time>
      </trkpt>
      <trkpt lat="46.32852" lon="5.94376">
        <ele>1143</ele>
        <time>2019-05-05T09:56:17Z</time>
      </trkpt>
      <trkpt lat="46.32846" lon="5.94371">
        <ele>1141</ele>
        <time>2019-05-05T09:56:22Z</time>
      </trkpt>
      <trkpt lat="46.32839" lon="5.94362">
        <ele>1138</ele>
        <time>2019-05-05T09:56:30Z</time>
      </trkpt>
      <trkpt lat="46.32835" lon="5.94356">
        <ele>1137</ele>
        <time>2019-05-05T09:56:34Z</time>
      </trkpt>
      <trkpt lat="46.32833" lon="5.9435">
        <ele>1136</ele>
        <time>2019-05-05T09:56:37Z</time>
      </trkpt>
      <trkpt lat="46.3283" lon="5.94344">
        <ele>1136</ele>
        <time>2019-05-05T09:56:41Z</time>
      </trkpt>
      <trkpt lat="46.32826" lon="5.94339">
        <ele>1136</ele>
        <time>2019-05-05T09:56:44Z</time>
      </trkpt>
      <trkpt lat="46.32821" lon="5.94334">
        <ele>1134</ele>
        <time>2019-05-05T09:56:49Z</time>
      </trkpt>
      <trkpt lat="46.32817" lon="5.94331">
        <ele>1133</ele>
        <time>2019-05-05T09:56:52Z</time>
      </trkpt>
      <trkpt lat="46.32815" lon="5.9433">
        <ele>1132</ele>
        <time>2019-05-05T09:56:54Z</time>
      </trkpt>
      <trkpt lat="46.32814" lon="5.94328">
        <ele>1132</ele>
        <time>2019-05-05T09:56:56Z</time>
      </trkpt>
      <trkpt lat="46.32812" lon="5.94326">
        <ele>1132</ele>
        <time>2019-05-05T09:56:57Z</time>
      </trkpt>
      <trkpt lat="46.32807" lon="5.94321">
        <ele>1130</ele>
        <time>2019-05-05T09:57:01Z</time>
      </trkpt>
      <trkpt lat="46.32803" lon="5.94316">
        <ele>1130</ele>
        <time>2019-05-05T09:57:05Z</time>
      </trkpt>
      <trkpt lat="46.32799" lon="5.94312">
        <ele>1128</ele>
        <time>2019-05-05T09:57:09Z</time>
      </trkpt>
      <trkpt lat="46.32795" lon="5.94306">
        <ele>1127</ele>
        <time>2019-05-05T09:57:13Z</time>
      </trkpt>
      <trkpt lat="46.32792" lon="5.94301">
        <ele>1126</ele>
        <time>2019-05-05T09:57:17Z</time>
      </trkpt>
      <trkpt lat="46.32788" lon="5.94295">
        <ele>1126</ele>
        <time>2019-05-05T09:57:21Z</time>
      </trkpt>
      <trkpt lat="46.32783" lon="5.94289">
        <ele>1124</ele>
        <time>2019-05-05T09:57:26Z</time>
      </trkpt>
      <trkpt lat="46.32778" lon="5.94284">
        <ele>1122</ele>
        <time>2019-05-05T09:57:30Z</time>
      </trkpt>
      <trkpt lat="46.32774" lon="5.94278">
        <ele>1121</ele>
        <time>2019-05-05T09:57:35Z</time>
      </trkpt>
      <trkpt lat="46.32767" lon="5.94269">
        <ele>1119</ele>
        <time>2019-05-05T09:57:42Z</time>
      </trkpt>
      <trkpt lat="46.32762" lon="5.94264">
        <ele>1118</ele>
        <time>2019-05-05T09:57:46Z</time>
      </trkpt>
      <trkpt lat="46.32757" lon="5.94258">
        <ele>1117</ele>
        <time>2019-05-05T09:57:51Z</time>
      </trkpt>
      <trkpt lat="46.32751" lon="5.94249">
        <ele>1116</ele>
        <time>2019-05-05T09:57:57Z</time>
      </trkpt>
      <trkpt lat="46.32746" lon="5.94245">
        <ele>1114</ele>
        <time>2019-05-05T09:58:01Z</time>
      </trkpt>
      <trkpt lat="46.32741" lon="5.94237">
        <ele>1113</ele>
        <time>2019-05-05T09:58:06Z</time>
      </trkpt>
      <trkpt lat="46.32735" lon="5.94229">
        <ele>1112</ele>
        <time>2019-05-05T09:58:12Z</time>
      </trkpt>
      <trkpt lat="46.32733" lon="5.94225">
        <ele>1111</ele>
        <time>2019-05-05T09:58:15Z</time>
      </trkpt>
      <trkpt lat="46.32728" lon="5.94216">
        <ele>1110</ele>
        <time>2019-05-05T09:58:21Z</time>
      </trkpt>
      <trkpt lat="46.32723" lon="5.94209">
        <ele>1109</ele>
        <time>2019-05-05T09:58:26Z</time>
      </trkpt>
      <trkpt lat="46.32715" lon="5.94199">
        <ele>1107</ele>
        <time>2019-05-05T09:58:34Z</time>
      </trkpt>
      <trkpt lat="46.32708" lon="5.94187">
        <ele>1105</ele>
        <time>2019-05-05T09:58:42Z</time>
      </trkpt>
      <trkpt lat="46.327" lon="5.94172">
        <ele>1103</ele>
        <time>2019-05-05T09:58:51Z</time>
      </trkpt>
      <trkpt lat="46.32696" lon="5.94163">
        <ele>1103</ele>
        <time>2019-05-05T09:58:56Z</time>
      </trkpt>
      <trkpt lat="46.32692" lon="5.94156">
        <ele>1102</ele>
        <time>2019-05-05T09:59:01Z</time>
      </trkpt>
      <trkpt lat="46.32687" lon="5.94147">
        <ele>1101</ele>
        <time>2019-05-05T09:59:07Z</time>
      </trkpt>
      <trkpt lat="46.3268" lon="5.9414">
        <ele>1100</ele>
        <time>2019-05-05T09:59:13Z</time>
      </trkpt>
      <trkpt lat="46.32674" lon="5.94134">
        <ele>1099</ele>
        <time>2019-05-05T09:59:18Z</time>
      </trkpt>
      <trkpt lat="46.32671" lon="5.94131">
        <ele>1099</ele>
        <time>2019-05-05T09:59:21Z</time>
      </trkpt>
      <trkpt lat="46.32667" lon="5.94129">
        <ele>1098</ele>
        <time>2019-05-05T09:59:24Z</time>
      </trkpt>
      <trkpt lat="46.32664" lon="5.94126">
        <ele>1098</ele>
        <time>2019-05-05T09:59:27Z</time>
      </trkpt>
      <trkpt lat="46.3266" lon="5.94124">
        <ele>1097</ele>
        <time>2019-05-05T09:59:30Z</time>
      </trkpt>
      <trkpt lat="46.32653" lon="5.94119">
        <ele>1096</ele>
        <time>2019-05-05T09:59:36Z</time>
      </trkpt>
      <trkpt lat="46.32644" lon="5.94114">
        <ele>1095</ele>
        <time>2019-05-05T09:59:43Z</time>
      </trkpt>
      <trkpt lat="46.3263" lon="5.94114">
        <ele>1091</ele>
        <time>2019-05-05T09:59:53Z</time>
      </trkpt>
      <trkpt lat="46.32625" lon="5.94116">
        <ele>1090</ele>
        <time>2019-05-05T09:59:57Z</time>
      </trkpt>
      <trkpt lat="46.3262" lon="5.94122">
        <ele>1087</ele>
        <time>2019-05-05T10:00:02Z</time>
      </trkpt>
      <trkpt lat="46.32618" lon="5.94126">
        <ele>1086</ele>
        <time>2019-05-05T10:00:04Z</time>
      </trkpt>
      <trkpt lat="46.32616" lon="5.94135">
        <ele>1083</ele>
        <time>2019-05-05T10:00:09Z</time>
      </trkpt>
      <trkpt lat="46.32615" lon="5.94144">
        <ele>1080</ele>
        <time>2019-05-05T10:00:15Z</time>
      </trkpt>
      <trkpt lat="46.32614" lon="5.94154">
        <ele>1078</ele>
        <time>2019-05-05T10:00:20Z</time>
      </trkpt>
      <trkpt lat="46.32614" lon="5.94164">
        <ele>1075</ele>
        <time>2019-05-05T10:00:25Z</time>
      </trkpt>
      <trkpt lat="46.32616" lon="5.94173">
        <ele>1074</ele>
        <time>2019-05-05T10:00:30Z</time>
      </trkpt>
      <trkpt lat="46.32616" lon="5.94182">
        <ele>1072</ele>
        <time>2019-05-05T10:00:34Z</time>
      </trkpt>
      <trkpt lat="46.32619" lon="5.94194">
        <ele>1071</ele>
        <time>2019-05-05T10:00:41Z</time>
      </trkpt>
      <trkpt lat="46.32622" lon="5.94206">
        <ele>1071</ele>
        <time>2019-05-05T10:00:47Z</time>
      </trkpt>
      <trkpt lat="46.32623" lon="5.94217">
        <ele>1070</ele>
        <time>2019-05-05T10:00:53Z</time>
      </trkpt>
      <trkpt lat="46.32622" lon="5.94232">
        <ele>1068</ele>
        <time>2019-05-05T10:01:00Z</time>
      </trkpt>
      <trkpt lat="46.32621" lon="5.94241">
        <ele>1067</ele>
        <time>2019-05-05T10:01:05Z</time>
      </trkpt>
      <trkpt lat="46.3262" lon="5.94253">
        <ele>1065</ele>
        <time>2019-05-05T10:01:11Z</time>
      </trkpt>
      <trkpt lat="46.32619" lon="5.94262">
        <ele>1063</ele>
        <time>2019-05-05T10:01:16Z</time>
      </trkpt>
      <trkpt lat="46.32616" lon="5.94277">
        <ele>1062</ele>
        <time>2019-05-05T10:01:23Z</time>
      </trkpt>
      <trkpt lat="46.32614" lon="5.94291">
        <ele>1061</ele>
        <time>2019-05-05T10:01:31Z</time>
      </trkpt>
      <trkpt lat="46.32612" lon="5.94299">
        <ele>1060</ele>
        <time>2019-05-05T10:01:35Z</time>
      </trkpt>
      <trkpt lat="46.32604" lon="5.94308">
        <ele>1058</ele>
        <time>2019-05-05T10:01:43Z</time>
      </trkpt>
      <trkpt lat="46.32596" lon="5.94316">
        <ele>1056</ele>
        <time>2019-05-05T10:01:50Z</time>
      </trkpt>
      <trkpt lat="46.32584" lon="5.94314">
        <ele>1053</ele>
        <time>2019-05-05T10:01:59Z</time>
      </trkpt>
      <trkpt lat="46.32575" lon="5.94311">
        <ele>1051</ele>
        <time>2019-05-05T10:02:05Z</time>
      </trkpt>
      <trkpt lat="46.32568" lon="5.94306">
        <ele>1049</ele>
        <time>2019-05-05T10:02:11Z</time>
      </trkpt>
      <trkpt lat="46.32561" lon="5.94304">
        <ele>1048</ele>
        <time>2019-05-05T10:02:16Z</time>
      </trkpt>
      <trkpt lat="46.32554" lon="5.94302">
        <ele>1046</ele>
        <time>2019-05-05T10:02:22Z</time>
      </trkpt>
      <trkpt lat="46.32543" lon="5.943">
        <ele>1043</ele>
        <time>2019-05-05T10:02:30Z</time>
      </trkpt>
      <trkpt lat="46.32536" lon="5.943">
        <ele>1041</ele>
        <time>2019-05-05T10:02:35Z</time>
      </trkpt>
      <trkpt lat="46.32529" lon="5.94298">
        <ele>1040</ele>
        <time>2019-05-05T10:02:41Z</time>
      </trkpt>
      <trkpt lat="46.32522" lon="5.94296">
        <ele>1038</ele>
        <time>2019-05-05T10:02:46Z</time>
      </trkpt>
      <trkpt lat="46.32515" lon="5.94286">
        <ele>1038</ele>
        <time>2019-05-05T10:02:53Z</time>
      </trkpt>
      <trkpt lat="46.32511" lon="5.94277">
        <ele>1038</ele>
        <time>2019-05-05T10:02:58Z</time>
      </trkpt>
      <trkpt lat="46.32502" lon="5.94266">
        <ele>1037</ele>
        <time>2019-05-05T10:03:07Z</time>
      </trkpt>
      <trkpt lat="46.32496" lon="5.94262">
        <ele>1038</ele>
        <time>2019-05-05T10:03:11Z</time>
      </trkpt>
      <trkpt lat="46.32488" lon="5.94256">
        <ele>1039</ele>
        <time>2019-05-05T10:03:18Z</time>
      </trkpt>
      <trkpt lat="46.32475" lon="5.94247">
        <ele>1040</ele>
        <time>2019-05-05T10:03:29Z</time>
      </trkpt>
      <trkpt lat="46.32456" lon="5.94241">
        <ele>1042</ele>
        <time>2019-05-05T10:03:43Z</time>
      </trkpt>
      <trkpt lat="46.32443" lon="5.94239">
        <ele>1042</ele>
        <time>2019-05-05T10:03:52Z</time>
      </trkpt>
      <trkpt lat="46.32433" lon="5.94243">
        <ele>1042</ele>
        <time>2019-05-05T10:03:59Z</time>
      </trkpt>
      <trkpt lat="46.32423" lon="5.94255">
        <ele>1041</ele>
        <time>2019-05-05T10:04:09Z</time>
      </trkpt>
      <trkpt lat="46.32421" lon="5.94258">
        <ele>1041</ele>
        <time>2019-05-05T10:04:11Z</time>
      </trkpt>
      <trkpt lat="46.3242" lon="5.94262">
        <ele>1040</ele>
        <time>2019-05-05T10:04:13Z</time>
      </trkpt>
      <trkpt lat="46.32415" lon="5.94271">
        <ele>1040</ele>
        <time>2019-05-05T10:04:19Z</time>
      </trkpt>
      <trkpt lat="46.32409" lon="5.9428">
        <ele>1039</ele>
        <time>2019-05-05T10:04:25Z</time>
      </trkpt>
      <trkpt lat="46.32406" lon="5.94284">
        <ele>1039</ele>
        <time>2019-05-05T10:04:28Z</time>
      </trkpt>
      <trkpt lat="46.32404" lon="5.94293">
        <ele>1038</ele>
        <time>2019-05-05T10:04:33Z</time>
      </trkpt>
      <trkpt lat="46.32403" lon="5.94297">
        <ele>1038</ele>
        <time>2019-05-05T10:04:34Z</time>
      </trkpt>
      <trkpt lat="46.32402" lon="5.94301">
        <ele>1037</ele>
        <time>2019-05-05T10:04:37Z</time>
      </trkpt>
      <trkpt lat="46.32396" lon="5.94311">
        <ele>1036</ele>
        <time>2019-05-05T10:04:43Z</time>
      </trkpt>
      <trkpt lat="46.32386" lon="5.94333">
        <ele>1034</ele>
        <time>2019-05-05T10:04:57Z</time>
      </trkpt>
      <trkpt lat="46.32382" lon="5.94344">
        <ele>1032</ele>
        <time>2019-05-05T10:05:03Z</time>
      </trkpt>
      <trkpt lat="46.32379" lon="5.94354">
        <ele>1031</ele>
        <time>2019-05-05T10:05:09Z</time>
      </trkpt>
      <trkpt lat="46.32377" lon="5.94361">
        <ele>1030</ele>
        <time>2019-05-05T10:05:12Z</time>
      </trkpt>
      <trkpt lat="46.32375" lon="5.94368">
        <ele>1029</ele>
        <time>2019-05-05T10:05:16Z</time>
      </trkpt>
      <trkpt lat="46.32374" lon="5.94374">
        <ele>1028</ele>
        <time>2019-05-05T10:05:20Z</time>
      </trkpt>
      <trkpt lat="46.32376" lon="5.94384">
        <ele>1027</ele>
        <time>2019-05-05T10:05:25Z</time>
      </trkpt>
      <trkpt lat="46.32376" lon="5.94385">
        <ele>1027</ele>
        <time>2019-05-05T10:05:25Z</time>
      </trkpt>
      <trkpt lat="46.32376" lon="5.94386">
        <ele>1027</ele>
        <time>2019-05-05T10:05:26Z</time>
      </trkpt>
      <trkpt lat="46.32377" lon="5.94389">
        <ele>1027</ele>
        <time>2019-05-05T10:05:28Z</time>
      </trkpt>
      <trkpt lat="46.32373" lon="5.94388">
        <ele>1027</ele>
        <time>2019-05-05T10:05:31Z</time>
      </trkpt>
      <trkpt lat="46.32372" lon="5.94385">
        <ele>1027</ele>
        <time>2019-05-05T10:05:33Z</time>
      </trkpt>
      <trkpt lat="46.32376" lon="5.9438">
        <ele>1028</ele>
        <time>2019-05-05T10:05:37Z</time>
      </trkpt>
      <trkpt lat="46.3238" lon="5.94383">
        <ele>1028</ele>
        <time>2019-05-05T10:05:39Z</time>
      </trkpt>
      <trkpt lat="46.32382" lon="5.94384">
        <ele>1028</ele>
        <time>2019-05-05T10:05:41Z</time>
      </trkpt>
      <trkpt lat="46.32385" lon="5.94385">
        <ele>1028</ele>
        <time>2019-05-05T10:05:43Z</time>
      </trkpt>
      <trkpt lat="46.32387" lon="5.94386">
        <ele>1028</ele>
        <time>2019-05-05T10:05:45Z</time>
      </trkpt>
      <trkpt lat="46.32393" lon="5.9439">
        <ele>1028</ele>
        <time>2019-05-05T10:05:49Z</time>
      </trkpt>
      <trkpt lat="46.32394" lon="5.94393">
        <ele>1027</ele>
        <time>2019-05-05T10:05:51Z</time>
      </trkpt>
      <trkpt lat="46.32395" lon="5.94401">
        <ele>1027</ele>
        <time>2019-05-05T10:05:55Z</time>
      </trkpt>
      <trkpt lat="46.32396" lon="5.94408">
        <ele>1026</ele>
        <time>2019-05-05T10:05:59Z</time>
      </trkpt>
      <trkpt lat="46.32394" lon="5.94417">
        <ele>1025</ele>
        <time>2019-05-05T10:06:04Z</time>
      </trkpt>
      <trkpt lat="46.32394" lon="5.9442">
        <ele>1024</ele>
        <time>2019-05-05T10:06:05Z</time>
      </trkpt>
      <trkpt lat="46.32394" lon="5.94421">
        <ele>1024</ele>
        <time>2019-05-05T10:06:06Z</time>
      </trkpt>
      <trkpt lat="46.32397" lon="5.94432">
        <ele>1024</ele>
        <time>2019-05-05T10:06:11Z</time>
      </trkpt>
      <trkpt lat="46.32393" lon="5.94435">
        <ele>1023</ele>
        <time>2019-05-05T10:06:15Z</time>
      </trkpt>
      <trkpt lat="46.32391" lon="5.94437">
        <ele>1022</ele>
        <time>2019-05-05T10:06:17Z</time>
      </trkpt>
      <trkpt lat="46.32397" lon="5.94428">
        <ele>1024</ele>
        <time>2019-05-05T10:06:23Z</time>
      </trkpt>
      <trkpt lat="46.32395" lon="5.94431">
        <ele>1023</ele>
        <time>2019-05-05T10:06:25Z</time>
      </trkpt>
      <trkpt lat="46.32393" lon="5.94444">
        <ele>1021</ele>
        <time>2019-05-05T10:06:32Z</time>
      </trkpt>
      <trkpt lat="46.32393" lon="5.9446">
        <ele>1019</ele>
        <time>2019-05-05T10:06:40Z</time>
      </trkpt>
      <trkpt lat="46.32394" lon="5.94464">
        <ele>1018</ele>
        <time>2019-05-05T10:06:42Z</time>
      </trkpt>
      <trkpt lat="46.32394" lon="5.94471">
        <ele>1017</ele>
        <time>2019-05-05T10:06:45Z</time>
      </trkpt>
      <trkpt lat="46.32389" lon="5.94493">
        <ele>1013</ele>
        <time>2019-05-05T10:06:57Z</time>
      </trkpt>
      <trkpt lat="46.32386" lon="5.94501">
        <ele>1011</ele>
        <time>2019-05-05T10:07:02Z</time>
      </trkpt>
      <trkpt lat="46.32383" lon="5.94508">
        <ele>1010</ele>
        <time>2019-05-05T10:07:06Z</time>
      </trkpt>
      <trkpt lat="46.32382" lon="5.94515">
        <ele>1008</ele>
        <time>2019-05-05T10:07:10Z</time>
      </trkpt>
      <trkpt lat="46.32381" lon="5.94522">
        <ele>1007</ele>
        <time>2019-05-05T10:07:14Z</time>
      </trkpt>
      <trkpt lat="46.3238" lon="5.94528">
        <ele>1006</ele>
        <time>2019-05-05T10:07:17Z</time>
      </trkpt>
      <trkpt lat="46.32376" lon="5.94535">
        <ele>1005</ele>
        <time>2019-05-05T10:07:21Z</time>
      </trkpt>
      <trkpt lat="46.32372" lon="5.94547">
        <ele>1002</ele>
        <time>2019-05-05T10:07:28Z</time>
      </trkpt>
      <trkpt lat="46.32367" lon="5.94572">
        <ele>998</ele>
        <time>2019-05-05T10:07:42Z</time>
      </trkpt>
      <trkpt lat="46.32364" lon="5.9458">
        <ele>996</ele>
        <time>2019-05-05T10:07:47Z</time>
      </trkpt>
      <trkpt lat="46.32362" lon="5.94584">
        <ele>996</ele>
        <time>2019-05-05T10:07:49Z</time>
      </trkpt>
      <trkpt lat="46.32361" lon="5.94588">
        <ele>995</ele>
        <time>2019-05-05T10:07:51Z</time>
      </trkpt>
      <trkpt lat="46.32358" lon="5.94597">
        <ele>993</ele>
        <time>2019-05-05T10:07:56Z</time>
      </trkpt>
      <trkpt lat="46.32355" lon="5.94606">
        <ele>991</ele>
        <time>2019-05-05T10:08:01Z</time>
      </trkpt>
      <trkpt lat="46.32351" lon="5.94619">
        <ele>989</ele>
        <time>2019-05-05T10:08:09Z</time>
      </trkpt>
      <trkpt lat="46.32349" lon="5.9463">
        <ele>987</ele>
        <time>2019-05-05T10:08:14Z</time>
      </trkpt>
      <trkpt lat="46.32347" lon="5.9464">
        <ele>986</ele>
        <time>2019-05-05T10:08:20Z</time>
      </trkpt>
      <trkpt lat="46.32346" lon="5.9465">
        <ele>985</ele>
        <time>2019-05-05T10:08:25Z</time>
      </trkpt>
      <trkpt lat="46.32343" lon="5.94663">
        <ele>983</ele>
        <time>2019-05-05T10:08:32Z</time>
      </trkpt>
      <trkpt lat="46.32341" lon="5.94676">
        <ele>981</ele>
        <time>2019-05-05T10:08:39Z</time>
      </trkpt>
      <trkpt lat="46.32341" lon="5.94686">
        <ele>980</ele>
        <time>2019-05-05T10:08:43Z</time>
      </trkpt>
      <trkpt lat="46.32339" lon="5.94695">
        <ele>979</ele>
        <time>2019-05-05T10:08:48Z</time>
      </trkpt>
      <trkpt lat="46.32336" lon="5.9472">
        <ele>975</ele>
        <time>2019-05-05T10:09:01Z</time>
      </trkpt>
      <trkpt lat="46.3234" lon="5.94745">
        <ele>973</ele>
        <time>2019-05-05T10:09:14Z</time>
      </trkpt>
      <trkpt lat="46.32339" lon="5.94748">
        <ele>972</ele>
        <time>2019-05-05T10:09:16Z</time>
      </trkpt>
      <trkpt lat="46.32338" lon="5.9475">
        <ele>971</ele>
        <time>2019-05-05T10:09:17Z</time>
      </trkpt>
      <trkpt lat="46.32336" lon="5.94754">
        <ele>970</ele>
        <time>2019-05-05T10:09:20Z</time>
      </trkpt>
      <trkpt lat="46.32332" lon="5.94757">
        <ele>969</ele>
        <time>2019-05-05T10:09:23Z</time>
      </trkpt>
      <trkpt lat="46.32328" lon="5.94757">
        <ele>967</ele>
        <time>2019-05-05T10:09:26Z</time>
      </trkpt>
      <trkpt lat="46.32324" lon="5.94757">
        <ele>966</ele>
        <time>2019-05-05T10:09:30Z</time>
      </trkpt>
      <trkpt lat="46.32318" lon="5.94756">
        <ele>964</ele>
        <time>2019-05-05T10:09:34Z</time>
      </trkpt>
      <trkpt lat="46.32316" lon="5.94755">
        <ele>964</ele>
        <time>2019-05-05T10:09:35Z</time>
      </trkpt>
      <trkpt lat="46.32314" lon="5.94754">
        <ele>963</ele>
        <time>2019-05-05T10:09:37Z</time>
      </trkpt>
      <trkpt lat="46.3231" lon="5.94752">
        <ele>963</ele>
        <time>2019-05-05T10:09:40Z</time>
      </trkpt>
      <trkpt lat="46.32308" lon="5.94751">
        <ele>962</ele>
        <time>2019-05-05T10:09:42Z</time>
      </trkpt>
      <trkpt lat="46.32306" lon="5.94751">
        <ele>961</ele>
        <time>2019-05-05T10:09:44Z</time>
      </trkpt>
      <trkpt lat="46.32301" lon="5.94751">
        <ele>960</ele>
        <time>2019-05-05T10:09:47Z</time>
      </trkpt>
      <trkpt lat="46.32297" lon="5.94751">
        <ele>959</ele>
        <time>2019-05-05T10:09:50Z</time>
      </trkpt>
      <trkpt lat="46.32294" lon="5.94749">
        <ele>958</ele>
        <time>2019-05-05T10:09:53Z</time>
      </trkpt>
      <trkpt lat="46.32289" lon="5.94748">
        <ele>957</ele>
        <time>2019-05-05T10:09:56Z</time>
      </trkpt>
      <trkpt lat="46.32284" lon="5.94748">
        <ele>955</ele>
        <time>2019-05-05T10:10:00Z</time>
      </trkpt>
      <trkpt lat="46.3228" lon="5.94748">
        <ele>954</ele>
        <time>2019-05-05T10:10:03Z</time>
      </trkpt>
      <trkpt lat="46.32278" lon="5.94748">
        <ele>953</ele>
        <time>2019-05-05T10:10:05Z</time>
      </trkpt>
      <trkpt lat="46.32275" lon="5.94747">
        <ele>953</ele>
        <time>2019-05-05T10:10:06Z</time>
      </trkpt>
      <trkpt lat="46.32271" lon="5.94745">
        <ele>952</ele>
        <time>2019-05-05T10:10:10Z</time>
      </trkpt>
      <trkpt lat="46.32267" lon="5.94743">
        <ele>951</ele>
        <time>2019-05-05T10:10:13Z</time>
      </trkpt>
      <trkpt lat="46.32262" lon="5.94741">
        <ele>950</ele>
        <time>2019-05-05T10:10:17Z</time>
      </trkpt>
      <trkpt lat="46.32256" lon="5.94737">
        <ele>949</ele>
        <time>2019-05-05T10:10:22Z</time>
      </trkpt>
      <trkpt lat="46.32254" lon="5.94736">
        <ele>949</ele>
        <time>2019-05-05T10:10:23Z</time>
      </trkpt>
      <trkpt lat="46.32252" lon="5.94735">
        <ele>948</ele>
        <time>2019-05-05T10:10:25Z</time>
      </trkpt>
      <trkpt lat="46.32248" lon="5.94734">
        <ele>947</ele>
        <time>2019-05-05T10:10:28Z</time>
      </trkpt>
      <trkpt lat="46.32244" lon="5.94738">
        <ele>945</ele>
        <time>2019-05-05T10:10:32Z</time>
      </trkpt>
      <trkpt lat="46.32238" lon="5.9475">
        <ele>941</ele>
        <time>2019-05-05T10:10:39Z</time>
      </trkpt>
      <trkpt lat="46.32237" lon="5.94754">
        <ele>940</ele>
        <time>2019-05-05T10:10:41Z</time>
      </trkpt>
      <trkpt lat="46.32235" lon="5.94758">
        <ele>939</ele>
        <time>2019-05-05T10:10:44Z</time>
      </trkpt>
      <trkpt lat="46.32233" lon="5.94763">
        <ele>937</ele>
        <time>2019-05-05T10:10:47Z</time>
      </trkpt>
      <trkpt lat="46.3223" lon="5.94766">
        <ele>935</ele>
        <time>2019-05-05T10:10:51Z</time>
      </trkpt>
      <trkpt lat="46.32228" lon="5.94767">
        <ele>935</ele>
        <time>2019-05-05T10:10:52Z</time>
      </trkpt>
      <trkpt lat="46.32225" lon="5.94767">
        <ele>934</ele>
        <time>2019-05-05T10:10:54Z</time>
      </trkpt>
      <trkpt lat="46.32223" lon="5.94766">
        <ele>933</ele>
        <time>2019-05-05T10:10:56Z</time>
      </trkpt>
      <trkpt lat="46.32221" lon="5.94766">
        <ele>933</ele>
        <time>2019-05-05T10:10:57Z</time>
      </trkpt>
      <trkpt lat="46.32213" lon="5.94763">
        <ele>931</ele>
        <time>2019-05-05T10:11:03Z</time>
      </trkpt>
      <trkpt lat="46.32207" lon="5.94762">
        <ele>929</ele>
        <time>2019-05-05T10:11:08Z</time>
      </trkpt>
      <trkpt lat="46.32201" lon="5.94761">
        <ele>928</ele>
        <time>2019-05-05T10:11:12Z</time>
      </trkpt>
      <trkpt lat="46.32196" lon="5.94759">
        <ele>927</ele>
        <time>2019-05-05T10:11:16Z</time>
      </trkpt>
      <trkpt lat="46.3219" lon="5.94757">
        <ele>926</ele>
        <time>2019-05-05T10:11:20Z</time>
      </trkpt>
      <trkpt lat="46.32183" lon="5.94757">
        <ele>925</ele>
        <time>2019-05-05T10:11:25Z</time>
      </trkpt>
      <trkpt lat="46.32172" lon="5.94758">
        <ele>924</ele>
        <time>2019-05-05T10:11:33Z</time>
      </trkpt>
      <trkpt lat="46.32166" lon="5.94761">
        <ele>923</ele>
        <time>2019-05-05T10:11:38Z</time>
      </trkpt>
      <trkpt lat="46.32163" lon="5.94769">
        <ele>922</ele>
        <time>2019-05-05T10:11:43Z</time>
      </trkpt>
      <trkpt lat="46.32161" lon="5.94776">
        <ele>921</ele>
        <time>2019-05-05T10:11:46Z</time>
      </trkpt>
      <trkpt lat="46.32159" lon="5.94781">
        <ele>920</ele>
        <time>2019-05-05T10:11:49Z</time>
      </trkpt>
      <trkpt lat="46.32158" lon="5.94784">
        <ele>919</ele>
        <time>2019-05-05T10:11:51Z</time>
      </trkpt>
      <trkpt lat="46.32156" lon="5.94786">
        <ele>919</ele>
        <time>2019-05-05T10:11:53Z</time>
      </trkpt>
      <trkpt lat="46.32153" lon="5.94791">
        <ele>918</ele>
        <time>2019-05-05T10:11:57Z</time>
      </trkpt>
      <trkpt lat="46.3215" lon="5.94795">
        <ele>917</ele>
        <time>2019-05-05T10:12:00Z</time>
      </trkpt>
      <trkpt lat="46.32148" lon="5.948">
        <ele>917</ele>
        <time>2019-05-05T10:12:02Z</time>
      </trkpt>
      <trkpt lat="46.32144" lon="5.94809">
        <ele>915</ele>
        <time>2019-05-05T10:12:08Z</time>
      </trkpt>
      <trkpt lat="46.32142" lon="5.94817">
        <ele>914</ele>
        <time>2019-05-05T10:12:12Z</time>
      </trkpt>
      <trkpt lat="46.32141" lon="5.94821">
        <ele>913</ele>
        <time>2019-05-05T10:12:14Z</time>
      </trkpt>
      <trkpt lat="46.32139" lon="5.94828">
        <ele>912</ele>
        <time>2019-05-05T10:12:18Z</time>
      </trkpt>
      <trkpt lat="46.32136" lon="5.94835">
        <ele>911</ele>
        <time>2019-05-05T10:12:22Z</time>
      </trkpt>
      <trkpt lat="46.32135" lon="5.94844">
        <ele>910</ele>
        <time>2019-05-05T10:12:27Z</time>
      </trkpt>
      <trkpt lat="46.32135" lon="5.9485">
        <ele>909</ele>
        <time>2019-05-05T10:12:30Z</time>
      </trkpt>
      <trkpt lat="46.32134" lon="5.94856">
        <ele>909</ele>
        <time>2019-05-05T10:12:33Z</time>
      </trkpt>
      <trkpt lat="46.32135" lon="5.94863">
        <ele>908</ele>
        <time>2019-05-05T10:12:37Z</time>
      </trkpt>
      <trkpt lat="46.32135" lon="5.94871">
        <ele>908</ele>
        <time>2019-05-05T10:12:41Z</time>
      </trkpt>
      <trkpt lat="46.32136" lon="5.9488">
        <ele>907</ele>
        <time>2019-05-05T10:12:45Z</time>
      </trkpt>
      <trkpt lat="46.32136" lon="5.94894">
        <ele>906</ele>
        <time>2019-05-05T10:12:52Z</time>
      </trkpt>
      <trkpt lat="46.32134" lon="5.94908">
        <ele>905</ele>
        <time>2019-05-05T10:12:59Z</time>
      </trkpt>
      <trkpt lat="46.32133" lon="5.94911">
        <ele>905</ele>
        <time>2019-05-05T10:13:01Z</time>
      </trkpt>
      <trkpt lat="46.32132" lon="5.94914">
        <ele>905</ele>
        <time>2019-05-05T10:13:03Z</time>
      </trkpt>
      <trkpt lat="46.32131" lon="5.94917">
        <ele>904</ele>
        <time>2019-05-05T10:13:04Z</time>
      </trkpt>
      <trkpt lat="46.32132" lon="5.94918">
        <ele>904</ele>
        <time>2019-05-05T10:13:05Z</time>
      </trkpt>
      <trkpt lat="46.32133" lon="5.94921">
        <ele>904</ele>
        <time>2019-05-05T10:13:07Z</time>
      </trkpt>
      <trkpt lat="46.32132" lon="5.94922">
        <ele>904</ele>
        <time>2019-05-05T10:13:08Z</time>
      </trkpt>
      <trkpt lat="46.32129" lon="5.94923">
        <ele>904</ele>
        <time>2019-05-05T10:13:10Z</time>
      </trkpt>
      <trkpt lat="46.3212" lon="5.94916">
        <ele>904</ele>
        <time>2019-05-05T10:13:17Z</time>
      </trkpt>
      <trkpt lat="46.32118" lon="5.94912">
        <ele>905</ele>
        <time>2019-05-05T10:13:20Z</time>
      </trkpt>
      <trkpt lat="46.32117" lon="5.9491">
        <ele>905</ele>
        <time>2019-05-05T10:13:21Z</time>
      </trkpt>
      <trkpt lat="46.32113" lon="5.94906">
        <ele>905</ele>
        <time>2019-05-05T10:13:25Z</time>
      </trkpt>
      <trkpt lat="46.32115" lon="5.94906">
        <ele>905</ele>
        <time>2019-05-05T10:13:26Z</time>
      </trkpt>
      <trkpt lat="46.32116" lon="5.94907">
        <ele>905</ele>
        <time>2019-05-05T10:13:27Z</time>
      </trkpt>
      <trkpt lat="46.32116" lon="5.94909">
        <ele>905</ele>
        <time>2019-05-05T10:13:28Z</time>
      </trkpt>
      <trkpt lat="46.32118" lon="5.94913">
        <ele>905</ele>
        <time>2019-05-05T10:13:30Z</time>
      </trkpt>
      <trkpt lat="46.32121" lon="5.94922">
        <ele>904</ele>
        <time>2019-05-05T10:13:36Z</time>
      </trkpt>
      <trkpt lat="46.32121" lon="5.94922">
        <ele>904</ele>
        <time>2019-05-05T10:13:36Z</time>
      </trkpt>
      <trkpt lat="46.3212" lon="5.94921">
        <ele>904</ele>
        <time>2019-05-05T10:13:36Z</time>
      </trkpt>
      <trkpt lat="46.3212" lon="5.94915">
        <ele>904</ele>
        <time>2019-05-05T10:13:39Z</time>
      </trkpt>
      <trkpt lat="46.3212" lon="5.94911">
        <ele>905</ele>
        <time>2019-05-05T10:13:42Z</time>
      </trkpt>
      <trkpt lat="46.32119" lon="5.94907">
        <ele>905</ele>
        <time>2019-05-05T10:13:43Z</time>
      </trkpt>
      <trkpt lat="46.32116" lon="5.94903">
        <ele>905</ele>
        <time>2019-05-05T10:13:46Z</time>
      </trkpt>
      <trkpt lat="46.32113" lon="5.94901">
        <ele>905</ele>
        <time>2019-05-05T10:13:49Z</time>
      </trkpt>
      <trkpt lat="46.3211" lon="5.949">
        <ele>905</ele>
        <time>2019-05-05T10:13:51Z</time>
      </trkpt>
      <trkpt lat="46.32108" lon="5.94899">
        <ele>905</ele>
        <time>2019-05-05T10:13:52Z</time>
      </trkpt>
      <trkpt lat="46.32103" lon="5.94895">
        <ele>906</ele>
        <time>2019-05-05T10:13:57Z</time>
      </trkpt>
      <trkpt lat="46.32103" lon="5.94894">
        <ele>906</ele>
        <time>2019-05-05T10:13:57Z</time>
      </trkpt>
      <trkpt lat="46.321" lon="5.94892">
        <ele>906</ele>
        <time>2019-05-05T10:13:59Z</time>
      </trkpt>
      <trkpt lat="46.32097" lon="5.94885">
        <ele>906</ele>
        <time>2019-05-05T10:14:04Z</time>
      </trkpt>
      <trkpt lat="46.32096" lon="5.94884">
        <ele>906</ele>
        <time>2019-05-05T10:14:04Z</time>
      </trkpt>
      <trkpt lat="46.32095" lon="5.94883">
        <ele>907</ele>
        <time>2019-05-05T10:14:05Z</time>
      </trkpt>
      <trkpt lat="46.32095" lon="5.94873">
        <ele>907</ele>
        <time>2019-05-05T10:14:10Z</time>
      </trkpt>
      <trkpt lat="46.32096" lon="5.9487">
        <ele>908</ele>
        <time>2019-05-05T10:14:12Z</time>
      </trkpt>
      <trkpt lat="46.32095" lon="5.9486">
        <ele>908</ele>
        <time>2019-05-05T10:14:17Z</time>
      </trkpt>
      <trkpt lat="46.32092" lon="5.94849">
        <ele>910</ele>
        <time>2019-05-05T10:14:23Z</time>
      </trkpt>
      <trkpt lat="46.32088" lon="5.94843">
        <ele>910</ele>
        <time>2019-05-05T10:14:27Z</time>
      </trkpt>
      <trkpt lat="46.32085" lon="5.94839">
        <ele>911</ele>
        <time>2019-05-05T10:14:30Z</time>
      </trkpt>
      <trkpt lat="46.32079" lon="5.94819">
        <ele>913</ele>
        <time>2019-05-05T10:14:41Z</time>
      </trkpt>
      <trkpt lat="46.32077" lon="5.9481">
        <ele>914</ele>
        <time>2019-05-05T10:14:46Z</time>
      </trkpt>
      <trkpt lat="46.32074" lon="5.94801">
        <ele>915</ele>
        <time>2019-05-05T10:14:51Z</time>
      </trkpt>
      <trkpt lat="46.32068" lon="5.94791">
        <ele>916</ele>
        <time>2019-05-05T10:14:58Z</time>
      </trkpt>
      <trkpt lat="46.3206" lon="5.94783">
        <ele>916</ele>
        <time>2019-05-05T10:15:05Z</time>
      </trkpt>
      <trkpt lat="46.32051" lon="5.94774">
        <ele>917</ele>
        <time>2019-05-05T10:15:13Z</time>
      </trkpt>
      <trkpt lat="46.32048" lon="5.9477">
        <ele>917</ele>
        <time>2019-05-05T10:15:15Z</time>
      </trkpt>
      <trkpt lat="46.32044" lon="5.94765">
        <ele>917</ele>
        <time>2019-05-05T10:15:20Z</time>
      </trkpt>
      <trkpt lat="46.32028" lon="5.94753">
        <ele>919</ele>
        <time>2019-05-05T10:15:32Z</time>
      </trkpt>
      <trkpt lat="46.3201" lon="5.94745">
        <ele>918</ele>
        <time>2019-05-05T10:15:46Z</time>
      </trkpt>
      <trkpt lat="46.3199" lon="5.94737">
        <ele>918</ele>
        <time>2019-05-05T10:16:01Z</time>
      </trkpt>
      <trkpt lat="46.31985" lon="5.94734">
        <ele>918</ele>
        <time>2019-05-05T10:16:05Z</time>
      </trkpt>
      <trkpt lat="46.31968" lon="5.94723">
        <ele>918</ele>
        <time>2019-05-05T10:16:18Z</time>
      </trkpt>
      <trkpt lat="46.31966" lon="5.94721">
        <ele>918</ele>
        <time>2019-05-05T10:16:20Z</time>
      </trkpt>
      <trkpt lat="46.31949" lon="5.94704">
        <ele>920</ele>
        <time>2019-05-05T10:16:35Z</time>
      </trkpt>
      <trkpt lat="46.3194" lon="5.94697">
        <ele>921</ele>
        <time>2019-05-05T10:16:42Z</time>
      </trkpt>
      <trkpt lat="46.31927" lon="5.94679">
        <ele>923</ele>
        <time>2019-05-05T10:16:56Z</time>
      </trkpt>
      <trkpt lat="46.31908" lon="5.94668">
        <ele>923</ele>
        <time>2019-05-05T10:17:10Z</time>
      </trkpt>
      <trkpt lat="46.31891" lon="5.94658">
        <ele>922</ele>
        <time>2019-05-05T10:17:24Z</time>
      </trkpt>
      <trkpt lat="46.31886" lon="5.94656">
        <ele>921</ele>
        <time>2019-05-05T10:17:27Z</time>
      </trkpt>
      <trkpt lat="46.31876" lon="5.94651">
        <ele>921</ele>
        <time>2019-05-05T10:17:35Z</time>
      </trkpt>
      <trkpt lat="46.3187" lon="5.94649">
        <ele>920</ele>
        <time>2019-05-05T10:17:40Z</time>
      </trkpt>
      <trkpt lat="46.31862" lon="5.94644">
        <ele>920</ele>
        <time>2019-05-05T10:17:46Z</time>
      </trkpt>
      <trkpt lat="46.3185" lon="5.94633">
        <ele>919</ele>
        <time>2019-05-05T10:17:56Z</time>
      </trkpt>
      <trkpt lat="46.31846" lon="5.94628">
        <ele>919</ele>
        <time>2019-05-05T10:18:00Z</time>
      </trkpt>
      <trkpt lat="46.31832" lon="5.94613">
        <ele>919</ele>
        <time>2019-05-05T10:18:13Z</time>
      </trkpt>
      <trkpt lat="46.31819" lon="5.94599">
        <ele>918</ele>
        <time>2019-05-05T10:18:24Z</time>
      </trkpt>
      <trkpt lat="46.31818" lon="5.94595">
        <ele>918</ele>
        <time>2019-05-05T10:18:26Z</time>
      </trkpt>
      <trkpt lat="46.31807" lon="5.94578">
        <ele>918</ele>
        <time>2019-05-05T10:18:38Z</time>
      </trkpt>
      <trkpt lat="46.31804" lon="5.9458">
        <ele>917</ele>
        <time>2019-05-05T10:18:40Z</time>
      </trkpt>
      <trkpt lat="46.31797" lon="5.9459">
        <ele>915</ele>
        <time>2019-05-05T10:18:47Z</time>
      </trkpt>
      <trkpt lat="46.31795" lon="5.94593">
        <ele>914</ele>
        <time>2019-05-05T10:18:49Z</time>
      </trkpt>
      <trkpt lat="46.31794" lon="5.94594">
        <ele>914</ele>
        <time>2019-05-05T10:18:50Z</time>
      </trkpt>
      <trkpt lat="46.31793" lon="5.94583">
        <ele>915</ele>
        <time>2019-05-05T10:18:56Z</time>
      </trkpt>
      <trkpt lat="46.31793" lon="5.94575">
        <ele>916</ele>
        <time>2019-05-05T10:19:00Z</time>
      </trkpt>
      <trkpt lat="46.31792" lon="5.94571">
        <ele>916</ele>
        <time>2019-05-05T10:19:02Z</time>
      </trkpt>
      <trkpt lat="46.31789" lon="5.94572">
        <ele>915</ele>
        <time>2019-05-05T10:19:05Z</time>
      </trkpt>
      <trkpt lat="46.31784" lon="5.94565">
        <ele>915</ele>
        <time>2019-05-05T10:19:10Z</time>
      </trkpt>
      <trkpt lat="46.31773" lon="5.94559">
        <ele>914</ele>
        <time>2019-05-05T10:19:18Z</time>
      </trkpt>
      <trkpt lat="46.31761" lon="5.94554">
        <ele>913</ele>
        <time>2019-05-05T10:19:27Z</time>
      </trkpt>
      <trkpt lat="46.31754" lon="5.9455">
        <ele>913</ele>
        <time>2019-05-05T10:19:33Z</time>
      </trkpt>
      <trkpt lat="46.31745" lon="5.94545">
        <ele>912</ele>
        <time>2019-05-05T10:19:40Z</time>
      </trkpt>
      <trkpt lat="46.31727" lon="5.94543">
        <ele>910</ele>
        <time>2019-05-05T10:19:53Z</time>
      </trkpt>
      <trkpt lat="46.31723" lon="5.94542">
        <ele>910</ele>
        <time>2019-05-05T10:19:56Z</time>
      </trkpt>
      <trkpt lat="46.31723" lon="5.94542">
        <ele>910</ele>
        <time>2019-05-05T10:19:56Z</time>
      </trkpt>
      <trkpt lat="46.31726" lon="5.94543">
        <ele>910</ele>
        <time>2019-05-05T10:19:59Z</time>
      </trkpt>
      <trkpt lat="46.31726" lon="5.9455">
        <ele>910</ele>
        <time>2019-05-05T10:20:02Z</time>
      </trkpt>
      <trkpt lat="46.31728" lon="5.94554">
        <ele>909</ele>
        <time>2019-05-05T10:20:05Z</time>
      </trkpt>
      <trkpt lat="46.31728" lon="5.94557">
        <ele>909</ele>
        <time>2019-05-05T10:20:06Z</time>
      </trkpt>
      <trkpt lat="46.31728" lon="5.94559">
        <ele>909</ele>
        <time>2019-05-05T10:20:07Z</time>
      </trkpt>
      <trkpt lat="46.31727" lon="5.94564">
        <ele>909</ele>
        <time>2019-05-05T10:20:09Z</time>
      </trkpt>
      <trkpt lat="46.31725" lon="5.94568">
        <ele>908</ele>
        <time>2019-05-05T10:20:12Z</time>
      </trkpt>
      <trkpt lat="46.31722" lon="5.94572">
        <ele>908</ele>
        <time>2019-05-05T10:20:15Z</time>
      </trkpt>
      <trkpt lat="46.31717" lon="5.94575">
        <ele>907</ele>
        <time>2019-05-05T10:20:19Z</time>
      </trkpt>
      <trkpt lat="46.31711" lon="5.94578">
        <ele>907</ele>
        <time>2019-05-05T10:20:24Z</time>
      </trkpt>
      <trkpt lat="46.31709" lon="5.94579">
        <ele>906</ele>
        <time>2019-05-05T10:20:26Z</time>
      </trkpt>
      <trkpt lat="46.31707" lon="5.94579">
        <ele>906</ele>
        <time>2019-05-05T10:20:27Z</time>
      </trkpt>
      <trkpt lat="46.31702" lon="5.94578">
        <ele>906</ele>
        <time>2019-05-05T10:20:31Z</time>
      </trkpt>
      <trkpt lat="46.31695" lon="5.94573">
        <ele>905</ele>
        <time>2019-05-05T10:20:36Z</time>
      </trkpt>
      <trkpt lat="46.31686" lon="5.94568">
        <ele>905</ele>
        <time>2019-05-05T10:20:43Z</time>
      </trkpt>
      <trkpt lat="46.31684" lon="5.94567">
        <ele>905</ele>
        <time>2019-05-05T10:20:45Z</time>
      </trkpt>
      <trkpt lat="46.31675" lon="5.94552">
        <ele>904</ele>
        <time>2019-05-05T10:20:55Z</time>
      </trkpt>
      <trkpt lat="46.31672" lon="5.94551">
        <ele>904</ele>
        <time>2019-05-05T10:20:57Z</time>
      </trkpt>
      <trkpt lat="46.31667" lon="5.94544">
        <ele>904</ele>
        <time>2019-05-05T10:21:02Z</time>
      </trkpt>
      <trkpt lat="46.3165" lon="5.94527">
        <ele>904</ele>
        <time>2019-05-05T10:21:17Z</time>
      </trkpt>
      <trkpt lat="46.31644" lon="5.9452">
        <ele>904</ele>
        <time>2019-05-05T10:21:22Z</time>
      </trkpt>
      <trkpt lat="46.31641" lon="5.94519">
        <ele>904</ele>
        <time>2019-05-05T10:21:24Z</time>
      </trkpt>
      <trkpt lat="46.31633" lon="5.94513">
        <ele>904</ele>
        <time>2019-05-05T10:21:31Z</time>
      </trkpt>
      <trkpt lat="46.31625" lon="5.94505">
        <ele>904</ele>
        <time>2019-05-05T10:21:38Z</time>
      </trkpt>
      <trkpt lat="46.31611" lon="5.94494">
        <ele>903</ele>
        <time>2019-05-05T10:21:50Z</time>
      </trkpt>
      <trkpt lat="46.31597" lon="5.94476">
        <ele>903</ele>
        <time>2019-05-05T10:22:03Z</time>
      </trkpt>
      <trkpt lat="46.3158" lon="5.94462">
        <ele>902</ele>
        <time>2019-05-05T10:22:17Z</time>
      </trkpt>
      <trkpt lat="46.31565" lon="5.94447">
        <ele>901</ele>
        <time>2019-05-05T10:22:31Z</time>
      </trkpt>
      <trkpt lat="46.3156" lon="5.94442">
        <ele>901</ele>
        <time>2019-05-05T10:22:35Z</time>
      </trkpt>
      <trkpt lat="46.31544" lon="5.94429">
        <ele>900</ele>
        <time>2019-05-05T10:22:49Z</time>
      </trkpt>
      <trkpt lat="46.31524" lon="5.94422">
        <ele>899</ele>
        <time>2019-05-05T10:23:03Z</time>
      </trkpt>
      <trkpt lat="46.31516" lon="5.94417">
        <ele>899</ele>
        <time>2019-05-05T10:23:09Z</time>
      </trkpt>
      <trkpt lat="46.31498" lon="5.94404">
        <ele>898</ele>
        <time>2019-05-05T10:23:24Z</time>
      </trkpt>
      <trkpt lat="46.31494" lon="5.944">
        <ele>898</ele>
        <time>2019-05-05T10:23:27Z</time>
      </trkpt>
      <trkpt lat="46.31493" lon="5.94396">
        <ele>898</ele>
        <time>2019-05-05T10:23:30Z</time>
      </trkpt>
      <trkpt lat="46.31488" lon="5.94388">
        <ele>898</ele>
        <time>2019-05-05T10:23:35Z</time>
      </trkpt>
      <trkpt lat="46.31479" lon="5.9438">
        <ele>898</ele>
        <time>2019-05-05T10:23:43Z</time>
      </trkpt>
      <trkpt lat="46.3147" lon="5.94372">
        <ele>898</ele>
        <time>2019-05-05T10:23:50Z</time>
      </trkpt>
      <trkpt lat="46.31453" lon="5.94363">
        <ele>897</ele>
        <time>2019-05-05T10:24:03Z</time>
      </trkpt>
      <trkpt lat="46.31443" lon="5.94356">
        <ele>896</ele>
        <time>2019-05-05T10:24:11Z</time>
      </trkpt>
      <trkpt lat="46.31431" lon="5.94346">
        <ele>895</ele>
        <time>2019-05-05T10:24:21Z</time>
      </trkpt>
      <trkpt lat="46.31425" lon="5.94336">
        <ele>895</ele>
        <time>2019-05-05T10:24:28Z</time>
      </trkpt>
      <trkpt lat="46.31425" lon="5.94336">
        <ele>895</ele>
        <time>2019-05-05T10:24:28Z</time>
      </trkpt>
      <trkpt lat="46.3142" lon="5.94331">
        <ele>895</ele>
        <time>2019-05-05T10:24:32Z</time>
      </trkpt>
      <trkpt lat="46.31411" lon="5.94327">
        <ele>894</ele>
        <time>2019-05-05T10:24:39Z</time>
      </trkpt>
      <trkpt lat="46.31396" lon="5.94328">
        <ele>893</ele>
        <time>2019-05-05T10:24:50Z</time>
      </trkpt>
      <trkpt lat="46.31376" lon="5.94332">
        <ele>890</ele>
        <time>2019-05-05T10:25:04Z</time>
      </trkpt>
      <trkpt lat="46.31359" lon="5.94346">
        <ele>886</ele>
        <time>2019-05-05T10:25:19Z</time>
      </trkpt>
      <trkpt lat="46.31347" lon="5.94354">
        <ele>884</ele>
        <time>2019-05-05T10:25:28Z</time>
      </trkpt>
      <trkpt lat="46.31347" lon="5.94352">
        <ele>884</ele>
        <time>2019-05-05T10:25:29Z</time>
      </trkpt>
      <trkpt lat="46.31347" lon="5.94351">
        <ele>884</ele>
        <time>2019-05-05T10:25:30Z</time>
      </trkpt>
      <trkpt lat="46.31348" lon="5.94345">
        <ele>884</ele>
        <time>2019-05-05T10:25:32Z</time>
      </trkpt>
      <trkpt lat="46.31346" lon="5.9433">
        <ele>886</ele>
        <time>2019-05-05T10:25:40Z</time>
      </trkpt>
      <trkpt lat="46.31342" lon="5.94313">
        <ele>887</ele>
        <time>2019-05-05T10:25:49Z</time>
      </trkpt>
      <trkpt lat="46.31332" lon="5.94295">
        <ele>888</ele>
        <time>2019-05-05T10:26:01Z</time>
      </trkpt>
      <trkpt lat="46.3133" lon="5.94292">
        <ele>887</ele>
        <time>2019-05-05T10:26:03Z</time>
      </trkpt>
      <trkpt lat="46.31327" lon="5.9429">
        <ele>887</ele>
        <time>2019-05-05T10:26:05Z</time>
      </trkpt>
      <trkpt lat="46.31324" lon="5.94289">
        <ele>887</ele>
        <time>2019-05-05T10:26:08Z</time>
      </trkpt>
      <trkpt lat="46.31321" lon="5.94291">
        <ele>886</ele>
        <time>2019-05-05T10:26:10Z</time>
      </trkpt>
      <trkpt lat="46.31317" lon="5.94295">
        <ele>885</ele>
        <time>2019-05-05T10:26:14Z</time>
      </trkpt>
      <trkpt lat="46.31316" lon="5.94296">
        <ele>884</ele>
        <time>2019-05-05T10:26:15Z</time>
      </trkpt>
      <trkpt lat="46.31313" lon="5.94297">
        <ele>884</ele>
        <time>2019-05-05T10:26:17Z</time>
      </trkpt>
      <trkpt lat="46.31294" lon="5.94294">
        <ele>880</ele>
        <time>2019-05-05T10:26:31Z</time>
      </trkpt>
      <trkpt lat="46.31294" lon="5.94294">
        <ele>880</ele>
        <time>2019-05-05T10:26:31Z</time>
      </trkpt>
      <trkpt lat="46.31286" lon="5.94289">
        <ele>879</ele>
        <time>2019-05-05T10:26:37Z</time>
      </trkpt>
      <trkpt lat="46.31268" lon="5.94275">
        <ele>877</ele>
        <time>2019-05-05T10:26:52Z</time>
      </trkpt>
      <trkpt lat="46.31262" lon="5.9427">
        <ele>877</ele>
        <time>2019-05-05T10:26:57Z</time>
      </trkpt>
      <trkpt lat="46.31249" lon="5.94257">
        <ele>877</ele>
        <time>2019-05-05T10:27:08Z</time>
      </trkpt>
      <trkpt lat="46.31247" lon="5.94255">
        <ele>877</ele>
        <time>2019-05-05T10:27:11Z</time>
      </trkpt>
      <trkpt lat="46.31241" lon="5.94252">
        <ele>877</ele>
        <time>2019-05-05T10:27:15Z</time>
      </trkpt>
      <trkpt lat="46.31236" lon="5.94246">
        <ele>878</ele>
        <time>2019-05-05T10:27:20Z</time>
      </trkpt>
      <trkpt lat="46.31222" lon="5.94235">
        <ele>878</ele>
        <time>2019-05-05T10:27:31Z</time>
      </trkpt>
      <trkpt lat="46.31206" lon="5.94231">
        <ele>877</ele>
        <time>2019-05-05T10:27:42Z</time>
      </trkpt>
      <trkpt lat="46.31189" lon="5.94222">
        <ele>876</ele>
        <time>2019-05-05T10:27:56Z</time>
      </trkpt>
      <trkpt lat="46.31174" lon="5.9422">
        <ele>876</ele>
        <time>2019-05-05T10:28:07Z</time>
      </trkpt>
      <trkpt lat="46.31175" lon="5.94218">
        <ele>876</ele>
        <time>2019-05-05T10:28:08Z</time>
      </trkpt>
      <trkpt lat="46.31179" lon="5.94218">
        <ele>876</ele>
        <time>2019-05-05T10:28:11Z</time>
      </trkpt>
      <trkpt lat="46.31183" lon="5.94215">
        <ele>877</ele>
        <time>2019-05-05T10:28:14Z</time>
      </trkpt>
      <trkpt lat="46.31182" lon="5.9421">
        <ele>877</ele>
        <time>2019-05-05T10:28:17Z</time>
      </trkpt>
      <trkpt lat="46.31167" lon="5.94191">
        <ele>879</ele>
        <time>2019-05-05T10:28:32Z</time>
      </trkpt>
      <trkpt lat="46.31165" lon="5.94188">
        <ele>879</ele>
        <time>2019-05-05T10:28:34Z</time>
      </trkpt>
      <trkpt lat="46.31153" lon="5.94177">
        <ele>880</ele>
        <time>2019-05-05T10:28:43Z</time>
      </trkpt>
      <trkpt lat="46.31147" lon="5.94171">
        <ele>880</ele>
        <time>2019-05-05T10:28:49Z</time>
      </trkpt>
      <trkpt lat="46.31138" lon="5.94164">
        <ele>880</ele>
        <time>2019-05-05T10:28:56Z</time>
      </trkpt>
      <trkpt lat="46.31124" lon="5.94148">
        <ele>880</ele>
        <time>2019-05-05T10:29:09Z</time>
      </trkpt>
      <trkpt lat="46.31118" lon="5.9414">
        <ele>880</ele>
        <time>2019-05-05T10:29:15Z</time>
      </trkpt>
      <trkpt lat="46.31112" lon="5.94133">
        <ele>880</ele>
        <time>2019-05-05T10:29:21Z</time>
      </trkpt>
      <trkpt lat="46.31096" lon="5.94116">
        <ele>879</ele>
        <time>2019-05-05T10:29:35Z</time>
      </trkpt>
      <trkpt lat="46.31081" lon="5.94097">
        <ele>880</ele>
        <time>2019-05-05T10:29:50Z</time>
      </trkpt>
      <trkpt lat="46.31063" lon="5.94085">
        <ele>880</ele>
        <time>2019-05-05T10:30:04Z</time>
      </trkpt>
      <trkpt lat="46.31046" lon="5.94067">
        <ele>881</ele>
        <time>2019-05-05T10:30:19Z</time>
      </trkpt>
      <trkpt lat="46.31041" lon="5.94065">
        <ele>882</ele>
        <time>2019-05-05T10:30:23Z</time>
      </trkpt>
      <trkpt lat="46.3104" lon="5.94064">
        <ele>881</ele>
        <time>2019-05-05T10:30:24Z</time>
      </trkpt>
      <trkpt lat="46.31037" lon="5.94061">
        <ele>882</ele>
        <time>2019-05-05T10:30:26Z</time>
      </trkpt>
      <trkpt lat="46.31037" lon="5.94063">
        <ele>881</ele>
        <time>2019-05-05T10:30:28Z</time>
      </trkpt>
      <trkpt lat="46.31026" lon="5.94065">
        <ele>880</ele>
        <time>2019-05-05T10:30:36Z</time>
      </trkpt>
      <trkpt lat="46.31025" lon="5.94065">
        <ele>880</ele>
        <time>2019-05-05T10:30:36Z</time>
      </trkpt>
      <trkpt lat="46.3102" lon="5.94063">
        <ele>880</ele>
        <time>2019-05-05T10:30:40Z</time>
      </trkpt>
      <trkpt lat="46.31014" lon="5.94054">
        <ele>881</ele>
        <time>2019-05-05T10:30:47Z</time>
      </trkpt>
      <trkpt lat="46.31012" lon="5.94051">
        <ele>881</ele>
        <time>2019-05-05T10:30:48Z</time>
      </trkpt>
      <trkpt lat="46.31004" lon="5.9404">
        <ele>883</ele>
        <time>2019-05-05T10:30:56Z</time>
      </trkpt>
      <trkpt lat="46.30994" lon="5.94028">
        <ele>884</ele>
        <time>2019-05-05T10:31:06Z</time>
      </trkpt>
      <trkpt lat="46.30981" lon="5.94035">
        <ele>882</ele>
        <time>2019-05-05T10:31:16Z</time>
      </trkpt>
      <trkpt lat="46.30964" lon="5.94028">
        <ele>882</ele>
        <time>2019-05-05T10:31:28Z</time>
      </trkpt>
      <trkpt lat="46.30944" lon="5.94023">
        <ele>882</ele>
        <time>2019-05-05T10:31:43Z</time>
      </trkpt>
      <trkpt lat="46.30924" lon="5.9402">
        <ele>880</ele>
        <time>2019-05-05T10:31:58Z</time>
      </trkpt>
      <trkpt lat="46.30921" lon="5.9402">
        <ele>880</ele>
        <time>2019-05-05T10:32:00Z</time>
      </trkpt>
      <trkpt lat="46.30909" lon="5.94012">
        <ele>879</ele>
        <time>2019-05-05T10:32:09Z</time>
      </trkpt>
      <trkpt lat="46.30904" lon="5.94005">
        <ele>879</ele>
        <time>2019-05-05T10:32:15Z</time>
      </trkpt>
      <trkpt lat="46.30893" lon="5.93986">
        <ele>880</ele>
        <time>2019-05-05T10:32:27Z</time>
      </trkpt>
      <trkpt lat="46.30884" lon="5.93963">
        <ele>883</ele>
        <time>2019-05-05T10:32:40Z</time>
      </trkpt>
      <trkpt lat="46.30879" lon="5.93952">
        <ele>884</ele>
        <time>2019-05-05T10:32:47Z</time>
      </trkpt>
      <trkpt lat="46.30868" lon="5.93931">
        <ele>886</ele>
        <time>2019-05-05T10:33:00Z</time>
      </trkpt>
      <trkpt lat="46.30866" lon="5.93928">
        <ele>886</ele>
        <time>2019-05-05T10:33:02Z</time>
      </trkpt>
      <trkpt lat="46.30865" lon="5.93923">
        <ele>887</ele>
        <time>2019-05-05T10:33:05Z</time>
      </trkpt>
      <trkpt lat="46.30865" lon="5.93918">
        <ele>888</ele>
        <time>2019-05-05T10:33:08Z</time>
      </trkpt>
      <trkpt lat="46.30858" lon="5.93913">
        <ele>888</ele>
        <time>2019-05-05T10:33:13Z</time>
      </trkpt>
      <trkpt lat="46.30854" lon="5.93908">
        <ele>889</ele>
        <time>2019-05-05T10:33:17Z</time>
      </trkpt>
      <trkpt lat="46.30849" lon="5.93901">
        <ele>890</ele>
        <time>2019-05-05T10:33:22Z</time>
      </trkpt>
      <trkpt lat="46.30848" lon="5.93899">
        <ele>890</ele>
        <time>2019-05-05T10:33:23Z</time>
      </trkpt>
      <trkpt lat="46.30847" lon="5.93898">
        <ele>890</ele>
        <time>2019-05-05T10:33:24Z</time>
      </trkpt>
      <trkpt lat="46.30847" lon="5.93898">
        <ele>890</ele>
        <time>2019-05-05T10:33:24Z</time>
      </trkpt>
      <trkpt lat="46.30845" lon="5.93897">
        <ele>890</ele>
        <time>2019-05-05T10:33:25Z</time>
      </trkpt>
      <trkpt lat="46.30843" lon="5.93897">
        <ele>889</ele>
        <time>2019-05-05T10:33:27Z</time>
      </trkpt>
      <trkpt lat="46.30842" lon="5.93896">
        <ele>889</ele>
        <time>2019-05-05T10:33:28Z</time>
      </trkpt>
      <trkpt lat="46.30842" lon="5.93897">
        <ele>889</ele>
        <time>2019-05-05T10:33:28Z</time>
      </trkpt>
      <trkpt lat="46.30842" lon="5.93897">
        <ele>889</ele>
        <time>2019-05-05T10:33:28Z</time>
      </trkpt>
      <trkpt lat="46.30841" lon="5.93895">
        <ele>889</ele>
        <time>2019-05-05T10:33:30Z</time>
      </trkpt>
      <trkpt lat="46.30836" lon="5.93891">
        <ele>889</ele>
        <time>2019-05-05T10:33:34Z</time>
      </trkpt>
      <trkpt lat="46.30836" lon="5.93889">
        <ele>890</ele>
        <time>2019-05-05T10:33:35Z</time>
      </trkpt>
      <trkpt lat="46.30836" lon="5.93887">
        <ele>890</ele>
        <time>2019-05-05T10:33:36Z</time>
      </trkpt>
      <trkpt lat="46.30837" lon="5.93888">
        <ele>890</ele>
        <time>2019-05-05T10:33:36Z</time>
      </trkpt>
      <trkpt lat="46.30824" lon="5.93887">
        <ele>888</ele>
        <time>2019-05-05T10:33:46Z</time>
      </trkpt>
      <trkpt lat="46.3082" lon="5.93886">
        <ele>887</ele>
        <time>2019-05-05T10:33:49Z</time>
      </trkpt>
      <trkpt lat="46.30811" lon="5.93879">
        <ele>886</ele>
        <time>2019-05-05T10:33:56Z</time>
      </trkpt>
      <trkpt lat="46.30803" lon="5.93872">
        <ele>886</ele>
        <time>2019-05-05T10:34:03Z</time>
      </trkpt>
      <trkpt lat="46.30791" lon="5.93861">
        <ele>886</ele>
        <time>2019-05-05T10:34:13Z</time>
      </trkpt>
      <trkpt lat="46.30785" lon="5.93859">
        <ele>885</ele>
        <time>2019-05-05T10:34:17Z</time>
      </trkpt>
      <trkpt lat="46.3077" lon="5.93846">
        <ele>885</ele>
        <time>2019-05-05T10:34:30Z</time>
      </trkpt>
      <trkpt lat="46.30762" lon="5.93838">
        <ele>886</ele>
        <time>2019-05-05T10:34:37Z</time>
      </trkpt>
      <trkpt lat="46.30761" lon="5.93836">
        <ele>886</ele>
        <time>2019-05-05T10:34:39Z</time>
      </trkpt>
      <trkpt lat="46.30755" lon="5.93832">
        <ele>887</ele>
        <time>2019-05-05T10:34:43Z</time>
      </trkpt>
      <trkpt lat="46.30754" lon="5.93832">
        <ele>887</ele>
        <time>2019-05-05T10:34:44Z</time>
      </trkpt>
      <trkpt lat="46.30751" lon="5.93832">
        <ele>886</ele>
        <time>2019-05-05T10:34:46Z</time>
      </trkpt>
      <trkpt lat="46.30745" lon="5.93831">
        <ele>886</ele>
        <time>2019-05-05T10:34:50Z</time>
      </trkpt>
      <trkpt lat="46.30741" lon="5.93825">
        <ele>887</ele>
        <time>2019-05-05T10:34:55Z</time>
      </trkpt>
      <trkpt lat="46.30736" lon="5.93823">
        <ele>887</ele>
        <time>2019-05-05T10:34:58Z</time>
      </trkpt>
      <trkpt lat="46.30717" lon="5.93815">
        <ele>886</ele>
        <time>2019-05-05T10:35:13Z</time>
      </trkpt>
      <trkpt lat="46.30715" lon="5.93816">
        <ele>886</ele>
        <time>2019-05-05T10:35:14Z</time>
      </trkpt>
      <trkpt lat="46.30714" lon="5.93816">
        <ele>885</ele>
        <time>2019-05-05T10:35:15Z</time>
      </trkpt>
      <trkpt lat="46.30711" lon="5.93814">
        <ele>886</ele>
        <time>2019-05-05T10:35:17Z</time>
      </trkpt>
      <trkpt lat="46.30709" lon="5.93815">
        <ele>885</ele>
        <time>2019-05-05T10:35:19Z</time>
      </trkpt>
      <trkpt lat="46.30706" lon="5.93812">
        <ele>885</ele>
        <time>2019-05-05T10:35:22Z</time>
      </trkpt>
      <trkpt lat="46.30691" lon="5.93798">
        <ele>887</ele>
        <time>2019-05-05T10:35:35Z</time>
      </trkpt>
      <trkpt lat="46.30688" lon="5.93796">
        <ele>887</ele>
        <time>2019-05-05T10:35:37Z</time>
      </trkpt>
      <trkpt lat="46.30682" lon="5.93793">
        <ele>887</ele>
        <time>2019-05-05T10:35:42Z</time>
      </trkpt>
      <trkpt lat="46.30675" lon="5.93789">
        <ele>887</ele>
        <time>2019-05-05T10:35:47Z</time>
      </trkpt>
      <trkpt lat="46.30672" lon="5.93788">
        <ele>886</ele>
        <time>2019-05-05T10:35:49Z</time>
      </trkpt>
      <trkpt lat="46.30663" lon="5.93785">
        <ele>886</ele>
        <time>2019-05-05T10:35:56Z</time>
      </trkpt>
      <trkpt lat="46.30644" lon="5.93783">
        <ele>883</ele>
        <time>2019-05-05T10:36:10Z</time>
      </trkpt>
      <trkpt lat="46.30635" lon="5.93784">
        <ele>881</ele>
        <time>2019-05-05T10:36:17Z</time>
      </trkpt>
      <trkpt lat="46.30626" lon="5.93785">
        <ele>880</ele>
        <time>2019-05-05T10:36:23Z</time>
      </trkpt>
      <trkpt lat="46.30611" lon="5.93777">
        <ele>878</ele>
        <time>2019-05-05T10:36:35Z</time>
      </trkpt>
      <trkpt lat="46.30597" lon="5.93769">
        <ele>878</ele>
        <time>2019-05-05T10:36:45Z</time>
      </trkpt>
      <trkpt lat="46.30587" lon="5.93767">
        <ele>877</ele>
        <time>2019-05-05T10:36:53Z</time>
      </trkpt>
      <trkpt lat="46.30574" lon="5.93761">
        <ele>876</ele>
        <time>2019-05-05T10:37:03Z</time>
      </trkpt>
      <trkpt lat="46.3057" lon="5.93759">
        <ele>876</ele>
        <time>2019-05-05T10:37:06Z</time>
      </trkpt>
      <trkpt lat="46.30562" lon="5.93756">
        <ele>875</ele>
        <time>2019-05-05T10:37:12Z</time>
      </trkpt>
      <trkpt lat="46.30557" lon="5.93754">
        <ele>874</ele>
        <time>2019-05-05T10:37:16Z</time>
      </trkpt>
      <trkpt lat="46.30553" lon="5.93752">
        <ele>874</ele>
        <time>2019-05-05T10:37:19Z</time>
      </trkpt>
      <trkpt lat="46.30544" lon="5.93753">
        <ele>873</ele>
        <time>2019-05-05T10:37:25Z</time>
      </trkpt>
      <trkpt lat="46.30539" lon="5.93755">
        <ele>872</ele>
        <time>2019-05-05T10:37:29Z</time>
      </trkpt>
      <trkpt lat="46.30535" lon="5.93757">
        <ele>871</ele>
        <time>2019-05-05T10:37:32Z</time>
      </trkpt>
      <trkpt lat="46.30525" lon="5.93759">
        <ele>870</ele>
        <time>2019-05-05T10:37:39Z</time>
      </trkpt>
      <trkpt lat="46.3051" lon="5.9376">
        <ele>868</ele>
        <time>2019-05-05T10:37:51Z</time>
      </trkpt>
      <trkpt lat="46.30491" lon="5.93746">
        <ele>867</ele>
        <time>2019-05-05T10:38:06Z</time>
      </trkpt>
      <trkpt lat="46.30487" lon="5.93741">
        <ele>866</ele>
        <time>2019-05-05T10:38:10Z</time>
      </trkpt>
      <trkpt lat="46.30484" lon="5.93741">
        <ele>866</ele>
        <time>2019-05-05T10:38:11Z</time>
      </trkpt>
      <trkpt lat="46.3048" lon="5.93739">
        <ele>866</ele>
        <time>2019-05-05T10:38:15Z</time>
      </trkpt>
      <trkpt lat="46.30473" lon="5.93733">
        <ele>865</ele>
        <time>2019-05-05T10:38:21Z</time>
      </trkpt>
      <trkpt lat="46.30469" lon="5.93729">
        <ele>865</ele>
        <time>2019-05-05T10:38:25Z</time>
      </trkpt>
      <trkpt lat="46.30467" lon="5.93726">
        <ele>864</ele>
        <time>2019-05-05T10:38:26Z</time>
      </trkpt>
      <trkpt lat="46.30464" lon="5.93721">
        <ele>864</ele>
        <time>2019-05-05T10:38:30Z</time>
      </trkpt>
      <trkpt lat="46.30464" lon="5.93718">
        <ele>864</ele>
        <time>2019-05-05T10:38:31Z</time>
      </trkpt>
      <trkpt lat="46.30462" lon="5.93715">
        <ele>864</ele>
        <time>2019-05-05T10:38:33Z</time>
      </trkpt>
      <trkpt lat="46.30459" lon="5.93703">
        <ele>864</ele>
        <time>2019-05-05T10:38:40Z</time>
      </trkpt>
      <trkpt lat="46.30457" lon="5.93699">
        <ele>864</ele>
        <time>2019-05-05T10:38:42Z</time>
      </trkpt>
      <trkpt lat="46.30457" lon="5.93704">
        <ele>864</ele>
        <time>2019-05-05T10:38:45Z</time>
      </trkpt>
      <trkpt lat="46.30457" lon="5.93705">
        <ele>864</ele>
        <time>2019-05-05T10:38:45Z</time>
      </trkpt>
      <trkpt lat="46.3046" lon="5.93711">
        <ele>864</ele>
        <time>2019-05-05T10:38:49Z</time>
      </trkpt>
      <trkpt lat="46.30461" lon="5.9371">
        <ele>864</ele>
        <time>2019-05-05T10:38:50Z</time>
      </trkpt>
      <trkpt lat="46.30462" lon="5.9371">
        <ele>864</ele>
        <time>2019-05-05T10:38:50Z</time>
      </trkpt>
      <trkpt lat="46.30458" lon="5.93711">
        <ele>864</ele>
        <time>2019-05-05T10:38:53Z</time>
      </trkpt>
      <trkpt lat="46.30455" lon="5.93728">
        <ele>863</ele>
        <time>2019-05-05T10:39:02Z</time>
      </trkpt>
      <trkpt lat="46.30453" lon="5.93735">
        <ele>862</ele>
        <time>2019-05-05T10:39:06Z</time>
      </trkpt>
      <trkpt lat="46.30452" lon="5.93748">
        <ele>862</ele>
        <time>2019-05-05T10:39:12Z</time>
      </trkpt>
      <trkpt lat="46.30451" lon="5.93761">
        <ele>861</ele>
        <time>2019-05-05T10:39:19Z</time>
      </trkpt>
      <trkpt lat="46.30452" lon="5.93763">
        <ele>862</ele>
        <time>2019-05-05T10:39:20Z</time>
      </trkpt>
      <trkpt lat="46.30452" lon="5.93766">
        <ele>861</ele>
        <time>2019-05-05T10:39:22Z</time>
      </trkpt>
      <trkpt lat="46.30455" lon="5.93767">
        <ele>862</ele>
        <time>2019-05-05T10:39:24Z</time>
      </trkpt>
      <trkpt lat="46.30454" lon="5.93771">
        <ele>862</ele>
        <time>2019-05-05T10:39:26Z</time>
      </trkpt>
      <trkpt lat="46.30451" lon="5.93774">
        <ele>861</ele>
        <time>2019-05-05T10:39:29Z</time>
      </trkpt>
      <trkpt lat="46.3044" lon="5.93795">
        <ele>860</ele>
        <time>2019-05-05T10:39:42Z</time>
      </trkpt>
      <trkpt lat="46.30424" lon="5.93814">
        <ele>861</ele>
        <time>2019-05-05T10:39:57Z</time>
      </trkpt>
      <trkpt lat="46.30417" lon="5.93831">
        <ele>861</ele>
        <time>2019-05-05T10:40:06Z</time>
      </trkpt>
      <trkpt lat="46.30417" lon="5.93834">
        <ele>861</ele>
        <time>2019-05-05T10:40:08Z</time>
      </trkpt>
      <trkpt lat="46.30417" lon="5.93843">
        <ele>861</ele>
        <time>2019-05-05T10:40:13Z</time>
      </trkpt>
      <trkpt lat="46.30411" lon="5.93854">
        <ele>862</ele>
        <time>2019-05-05T10:40:20Z</time>
      </trkpt>
      <trkpt lat="46.30399" lon="5.93873">
        <ele>865</ele>
        <time>2019-05-05T10:40:33Z</time>
      </trkpt>
      <trkpt lat="46.30385" lon="5.9388">
        <ele>866</ele>
        <time>2019-05-05T10:40:43Z</time>
      </trkpt>
      <trkpt lat="46.30378" lon="5.93884">
        <ele>867</ele>
        <time>2019-05-05T10:40:49Z</time>
      </trkpt>
      <trkpt lat="46.3037" lon="5.93886">
        <ele>868</ele>
        <time>2019-05-05T10:40:54Z</time>
      </trkpt>
      <trkpt lat="46.3036" lon="5.93889">
        <ele>869</ele>
        <time>2019-05-05T10:41:02Z</time>
      </trkpt>
      <trkpt lat="46.30354" lon="5.93888">
        <ele>869</ele>
        <time>2019-05-05T10:41:06Z</time>
      </trkpt>
      <trkpt lat="46.30342" lon="5.93886">
        <ele>870</ele>
        <time>2019-05-05T10:41:15Z</time>
      </trkpt>
      <trkpt lat="46.30335" lon="5.93886">
        <ele>870</ele>
        <time>2019-05-05T10:41:20Z</time>
      </trkpt>
      <trkpt lat="46.3033" lon="5.93884">
        <ele>871</ele>
        <time>2019-05-05T10:41:24Z</time>
      </trkpt>
      <trkpt lat="46.30329" lon="5.93883">
        <ele>871</ele>
        <time>2019-05-05T10:41:25Z</time>
      </trkpt>
      <trkpt lat="46.30328" lon="5.93882">
        <ele>871</ele>
        <time>2019-05-05T10:41:26Z</time>
      </trkpt>
      <trkpt lat="46.30322" lon="5.93881">
        <ele>871</ele>
        <time>2019-05-05T10:41:30Z</time>
      </trkpt>
      <trkpt lat="46.30318" lon="5.9388">
        <ele>871</ele>
        <time>2019-05-05T10:41:33Z</time>
      </trkpt>
      <trkpt lat="46.30308" lon="5.93879">
        <ele>872</ele>
        <time>2019-05-05T10:41:40Z</time>
      </trkpt>
      <trkpt lat="46.30303" lon="5.93879">
        <ele>872</ele>
        <time>2019-05-05T10:41:44Z</time>
      </trkpt>
      <trkpt lat="46.30284" lon="5.93883">
        <ele>874</ele>
        <time>2019-05-05T10:41:57Z</time>
      </trkpt>
      <trkpt lat="46.30282" lon="5.93882">
        <ele>874</ele>
        <time>2019-05-05T10:41:59Z</time>
      </trkpt>
      <trkpt lat="46.30279" lon="5.93882">
        <ele>875</ele>
        <time>2019-05-05T10:42:01Z</time>
      </trkpt>
      <trkpt lat="46.30276" lon="5.93886">
        <ele>875</ele>
        <time>2019-05-05T10:42:04Z</time>
      </trkpt>
      <trkpt lat="46.30276" lon="5.93887">
        <ele>875</ele>
        <time>2019-05-05T10:42:05Z</time>
      </trkpt>
      <trkpt lat="46.3027" lon="5.93899">
        <ele>877</ele>
        <time>2019-05-05T10:42:12Z</time>
      </trkpt>
      <trkpt lat="46.30259" lon="5.93909">
        <ele>878</ele>
        <time>2019-05-05T10:42:22Z</time>
      </trkpt>
      <trkpt lat="46.30255" lon="5.93917">
        <ele>879</ele>
        <time>2019-05-05T10:42:26Z</time>
      </trkpt>
      <trkpt lat="46.30252" lon="5.93922">
        <ele>880</ele>
        <time>2019-05-05T10:42:30Z</time>
      </trkpt>
      <trkpt lat="46.3025" lon="5.93928">
        <ele>880</ele>
        <time>2019-05-05T10:42:33Z</time>
      </trkpt>
      <trkpt lat="46.30243" lon="5.93946">
        <ele>882</ele>
        <time>2019-05-05T10:42:44Z</time>
      </trkpt>
      <trkpt lat="46.30231" lon="5.93963">
        <ele>884</ele>
        <time>2019-05-05T10:42:56Z</time>
      </trkpt>
      <trkpt lat="46.30229" lon="5.9397">
        <ele>884</ele>
        <time>2019-05-05T10:43:00Z</time>
      </trkpt>
      <trkpt lat="46.3022" lon="5.93985">
        <ele>886</ele>
        <time>2019-05-05T10:43:10Z</time>
      </trkpt>
      <trkpt lat="46.30219" lon="5.9399">
        <ele>886</ele>
        <time>2019-05-05T10:43:12Z</time>
      </trkpt>
      <trkpt lat="46.30217" lon="5.93997">
        <ele>887</ele>
        <time>2019-05-05T10:43:16Z</time>
      </trkpt>
      <trkpt lat="46.30216" lon="5.94007">
        <ele>888</ele>
        <time>2019-05-05T10:43:21Z</time>
      </trkpt>
      <trkpt lat="46.30217" lon="5.94013">
        <ele>888</ele>
        <time>2019-05-05T10:43:25Z</time>
      </trkpt>
      <trkpt lat="46.30219" lon="5.94019">
        <ele>889</ele>
        <time>2019-05-05T10:43:28Z</time>
      </trkpt>
      <trkpt lat="46.30226" lon="5.94043">
        <ele>890</ele>
        <time>2019-05-05T10:43:41Z</time>
      </trkpt>
      <trkpt lat="46.30231" lon="5.94053">
        <ele>891</ele>
        <time>2019-05-05T10:43:47Z</time>
      </trkpt>
      <trkpt lat="46.30231" lon="5.94054">
        <ele>891</ele>
        <time>2019-05-05T10:43:48Z</time>
      </trkpt>
      <trkpt lat="46.30232" lon="5.94056">
        <ele>891</ele>
        <time>2019-05-05T10:43:49Z</time>
      </trkpt>
      <trkpt lat="46.3025" lon="5.94067">
        <ele>892</ele>
        <time>2019-05-05T10:44:03Z</time>
      </trkpt>
      <trkpt lat="46.30254" lon="5.94075">
        <ele>892</ele>
        <time>2019-05-05T10:44:08Z</time>
      </trkpt>
      <trkpt lat="46.30251" lon="5.94081">
        <ele>893</ele>
        <time>2019-05-05T10:44:11Z</time>
      </trkpt>
      <trkpt lat="46.3025" lon="5.94082">
        <ele>893</ele>
        <time>2019-05-05T10:44:12Z</time>
      </trkpt>
      <trkpt lat="46.30248" lon="5.94085">
        <ele>893</ele>
        <time>2019-05-05T10:44:14Z</time>
      </trkpt>
      <trkpt lat="46.30245" lon="5.94087">
        <ele>893</ele>
        <time>2019-05-05T10:44:16Z</time>
      </trkpt>
      <trkpt lat="46.30237" lon="5.94096">
        <ele>894</ele>
        <time>2019-05-05T10:44:24Z</time>
      </trkpt>
      <trkpt lat="46.30227" lon="5.94099">
        <ele>895</ele>
        <time>2019-05-05T10:44:31Z</time>
      </trkpt>
      <trkpt lat="46.30218" lon="5.94099">
        <ele>896</ele>
        <time>2019-05-05T10:44:38Z</time>
      </trkpt>
      <trkpt lat="46.30204" lon="5.941">
        <ele>896</ele>
        <time>2019-05-05T10:44:48Z</time>
      </trkpt>
      <trkpt lat="46.30195" lon="5.94098">
        <ele>897</ele>
        <time>2019-05-05T10:44:55Z</time>
      </trkpt>
      <trkpt lat="46.3019" lon="5.94098">
        <ele>897</ele>
        <time>2019-05-05T10:44:59Z</time>
      </trkpt>
      <trkpt lat="46.30181" lon="5.94101">
        <ele>898</ele>
        <time>2019-05-05T10:45:05Z</time>
      </trkpt>
      <trkpt lat="46.30174" lon="5.94105">
        <ele>900</ele>
        <time>2019-05-05T10:45:10Z</time>
      </trkpt>
      <trkpt lat="46.3017" lon="5.94106">
        <ele>901</ele>
        <time>2019-05-05T10:45:14Z</time>
      </trkpt>
      <trkpt lat="46.30168" lon="5.94106">
        <ele>901</ele>
        <time>2019-05-05T10:45:15Z</time>
      </trkpt>
      <trkpt lat="46.30167" lon="5.94106">
        <ele>901</ele>
        <time>2019-05-05T10:45:16Z</time>
      </trkpt>
      <trkpt lat="46.30164" lon="5.94107">
        <ele>902</ele>
        <time>2019-05-05T10:45:18Z</time>
      </trkpt>
      <trkpt lat="46.30163" lon="5.94107">
        <ele>902</ele>
        <time>2019-05-05T10:45:19Z</time>
      </trkpt>
      <trkpt lat="46.30154" lon="5.9411">
        <ele>904</ele>
        <time>2019-05-05T10:45:26Z</time>
      </trkpt>
      <trkpt lat="46.30151" lon="5.9411">
        <ele>904</ele>
        <time>2019-05-05T10:45:28Z</time>
      </trkpt>
      <trkpt lat="46.30143" lon="5.94114">
        <ele>906</ele>
        <time>2019-05-05T10:45:34Z</time>
      </trkpt>
      <trkpt lat="46.30142" lon="5.94115">
        <ele>906</ele>
        <time>2019-05-05T10:45:35Z</time>
      </trkpt>
      <trkpt lat="46.30141" lon="5.94116">
        <ele>907</ele>
        <time>2019-05-05T10:45:36Z</time>
      </trkpt>
      <trkpt lat="46.30132" lon="5.94121">
        <ele>909</ele>
        <time>2019-05-05T10:45:43Z</time>
      </trkpt>
      <trkpt lat="46.30126" lon="5.94122">
        <ele>910</ele>
        <time>2019-05-05T10:45:48Z</time>
      </trkpt>
      <trkpt lat="46.30121" lon="5.94125">
        <ele>912</ele>
        <time>2019-05-05T10:45:52Z</time>
      </trkpt>
      <trkpt lat="46.30114" lon="5.94126">
        <ele>913</ele>
        <time>2019-05-05T10:45:57Z</time>
      </trkpt>
      <trkpt lat="46.30113" lon="5.94126">
        <ele>913</ele>
        <time>2019-05-05T10:45:58Z</time>
      </trkpt>
      <trkpt lat="46.30106" lon="5.94125">
        <ele>914</ele>
        <time>2019-05-05T10:46:02Z</time>
      </trkpt>
      <trkpt lat="46.30099" lon="5.94124">
        <ele>916</ele>
        <time>2019-05-05T10:46:08Z</time>
      </trkpt>
      <trkpt lat="46.30094" lon="5.94124">
        <ele>917</ele>
        <time>2019-05-05T10:46:11Z</time>
      </trkpt>
      <trkpt lat="46.30088" lon="5.94126">
        <ele>919</ele>
        <time>2019-05-05T10:46:16Z</time>
      </trkpt>
      <trkpt lat="46.30084" lon="5.94127">
        <ele>921</ele>
        <time>2019-05-05T10:46:19Z</time>
      </trkpt>
      <trkpt lat="46.30083" lon="5.94129">
        <ele>921</ele>
        <time>2019-05-05T10:46:20Z</time>
      </trkpt>
      <trkpt lat="46.30081" lon="5.94131">
        <ele>922</ele>
        <time>2019-05-05T10:46:22Z</time>
      </trkpt>
      <trkpt lat="46.3008" lon="5.94136">
        <ele>924</ele>
        <time>2019-05-05T10:46:25Z</time>
      </trkpt>
      <trkpt lat="46.30081" lon="5.94137">
        <ele>924</ele>
        <time>2019-05-05T10:46:25Z</time>
      </trkpt>
      <trkpt lat="46.30082" lon="5.94142">
        <ele>925</ele>
        <time>2019-05-05T10:46:28Z</time>
      </trkpt>
      <trkpt lat="46.30084" lon="5.94146">
        <ele>925</ele>
        <time>2019-05-05T10:46:31Z</time>
      </trkpt>
      <trkpt lat="46.30085" lon="5.94148">
        <ele>925</ele>
        <time>2019-05-05T10:46:32Z</time>
      </trkpt>
      <trkpt lat="46.3009" lon="5.94155">
        <ele>925</ele>
        <time>2019-05-05T10:46:37Z</time>
      </trkpt>
      <trkpt lat="46.30093" lon="5.94158">
        <ele>925</ele>
        <time>2019-05-05T10:46:40Z</time>
      </trkpt>
      <trkpt lat="46.30097" lon="5.94164">
        <ele>925</ele>
        <time>2019-05-05T10:46:44Z</time>
      </trkpt>
      <trkpt lat="46.30099" lon="5.94168">
        <ele>926</ele>
        <time>2019-05-05T10:46:46Z</time>
      </trkpt>
      <trkpt lat="46.30103" lon="5.94176">
        <ele>926</ele>
        <time>2019-05-05T10:46:51Z</time>
      </trkpt>
      <trkpt lat="46.30105" lon="5.9418">
        <ele>927</ele>
        <time>2019-05-05T10:46:54Z</time>
      </trkpt>
      <trkpt lat="46.30107" lon="5.94186">
        <ele>928</ele>
        <time>2019-05-05T10:46:57Z</time>
      </trkpt>
      <trkpt lat="46.30108" lon="5.94192">
        <ele>929</ele>
        <time>2019-05-05T10:47:00Z</time>
      </trkpt>
      <trkpt lat="46.3011" lon="5.94199">
        <ele>931</ele>
        <time>2019-05-05T10:47:05Z</time>
      </trkpt>
      <trkpt lat="46.3011" lon="5.94205">
        <ele>933</ele>
        <time>2019-05-05T10:47:08Z</time>
      </trkpt>
      <trkpt lat="46.30111" lon="5.94207">
        <ele>934</ele>
        <time>2019-05-05T10:47:09Z</time>
      </trkpt>
      <trkpt lat="46.30113" lon="5.94214">
        <ele>935</ele>
        <time>2019-05-05T10:47:13Z</time>
      </trkpt>
      <trkpt lat="46.30114" lon="5.9422">
        <ele>937</ele>
        <time>2019-05-05T10:47:17Z</time>
      </trkpt>
      <trkpt lat="46.30115" lon="5.94225">
        <ele>939</ele>
        <time>2019-05-05T10:47:19Z</time>
      </trkpt>
      <trkpt lat="46.30116" lon="5.94232">
        <ele>941</ele>
        <time>2019-05-05T10:47:23Z</time>
      </trkpt>
      <trkpt lat="46.30117" lon="5.94237">
        <ele>942</ele>
        <time>2019-05-05T10:47:26Z</time>
      </trkpt>
      <trkpt lat="46.30119" lon="5.94242">
        <ele>943</ele>
        <time>2019-05-05T10:47:28Z</time>
      </trkpt>
      <trkpt lat="46.30119" lon="5.94246">
        <ele>944</ele>
        <time>2019-05-05T10:47:31Z</time>
      </trkpt>
      <trkpt lat="46.30119" lon="5.94247">
        <ele>944</ele>
        <time>2019-05-05T10:47:31Z</time>
      </trkpt>
      <trkpt lat="46.30119" lon="5.94248">
        <ele>945</ele>
        <time>2019-05-05T10:47:32Z</time>
      </trkpt>
      <trkpt lat="46.30117" lon="5.94252">
        <ele>946</ele>
        <time>2019-05-05T10:47:35Z</time>
      </trkpt>
      <trkpt lat="46.30111" lon="5.94258">
        <ele>950</ele>
        <time>2019-05-05T10:47:41Z</time>
      </trkpt>
      <trkpt lat="46.30109" lon="5.94258">
        <ele>950</ele>
        <time>2019-05-05T10:47:42Z</time>
      </trkpt>
      <trkpt lat="46.30104" lon="5.94256">
        <ele>951</ele>
        <time>2019-05-05T10:47:46Z</time>
      </trkpt>
      <trkpt lat="46.30102" lon="5.94256">
        <ele>952</ele>
        <time>2019-05-05T10:47:47Z</time>
      </trkpt>
      <trkpt lat="46.301" lon="5.94255">
        <ele>952</ele>
        <time>2019-05-05T10:47:49Z</time>
      </trkpt>
      <trkpt lat="46.30099" lon="5.94255">
        <ele>952</ele>
        <time>2019-05-05T10:47:50Z</time>
      </trkpt>
      <trkpt lat="46.30093" lon="5.94254">
        <ele>954</ele>
        <time>2019-05-05T10:47:54Z</time>
      </trkpt>
      <trkpt lat="46.30086" lon="5.94254">
        <ele>956</ele>
        <time>2019-05-05T10:47:59Z</time>
      </trkpt>
      <trkpt lat="46.30086" lon="5.94254">
        <ele>956</ele>
        <time>2019-05-05T10:47:59Z</time>
      </trkpt>
      <trkpt lat="46.30085" lon="5.94254">
        <ele>956</ele>
        <time>2019-05-05T10:48:00Z</time>
      </trkpt>
      <trkpt lat="46.30086" lon="5.94252">
        <ele>955</ele>
        <time>2019-05-05T10:48:01Z</time>
      </trkpt>
      <trkpt lat="46.30085" lon="5.94251">
        <ele>955</ele>
        <time>2019-05-05T10:48:02Z</time>
      </trkpt>
      <trkpt lat="46.30084" lon="5.9425">
        <ele>955</ele>
        <time>2019-05-05T10:48:02Z</time>
      </trkpt>
      <trkpt lat="46.30084" lon="5.9425">
        <ele>955</ele>
        <time>2019-05-05T10:48:02Z</time>
      </trkpt>
      <trkpt lat="46.30083" lon="5.9425">
        <ele>955</ele>
        <time>2019-05-05T10:48:03Z</time>
      </trkpt>
      <trkpt lat="46.3008" lon="5.9425">
        <ele>956</ele>
        <time>2019-05-05T10:48:05Z</time>
      </trkpt>
      <trkpt lat="46.30079" lon="5.94248">
        <ele>956</ele>
        <time>2019-05-05T10:48:07Z</time>
      </trkpt>
      <trkpt lat="46.30077" lon="5.94247">
        <ele>956</ele>
        <time>2019-05-05T10:48:08Z</time>
      </trkpt>
      <trkpt lat="46.30075" lon="5.94248">
        <ele>957</ele>
        <time>2019-05-05T10:48:10Z</time>
      </trkpt>
      <trkpt lat="46.30071" lon="5.94247">
        <ele>958</ele>
        <time>2019-05-05T10:48:13Z</time>
      </trkpt>
      <trkpt lat="46.3007" lon="5.94247">
        <ele>958</ele>
        <time>2019-05-05T10:48:14Z</time>
      </trkpt>
      <trkpt lat="46.30069" lon="5.9425">
        <ele>960</ele>
        <time>2019-05-05T10:48:16Z</time>
      </trkpt>
      <trkpt lat="46.30068" lon="5.94251">
        <ele>960</ele>
        <time>2019-05-05T10:48:16Z</time>
      </trkpt>
      <trkpt lat="46.30067" lon="5.94252">
        <ele>960</ele>
        <time>2019-05-05T10:48:17Z</time>
      </trkpt>
      <trkpt lat="46.30066" lon="5.94253">
        <ele>961</ele>
        <time>2019-05-05T10:48:18Z</time>
      </trkpt>
      <trkpt lat="46.30066" lon="5.94254">
        <ele>961</ele>
        <time>2019-05-05T10:48:19Z</time>
      </trkpt>
      <trkpt lat="46.30062" lon="5.94253">
        <ele>962</ele>
        <time>2019-05-05T10:48:21Z</time>
      </trkpt>
      <trkpt lat="46.30059" lon="5.94253">
        <ele>963</ele>
        <time>2019-05-05T10:48:24Z</time>
      </trkpt>
      <trkpt lat="46.30056" lon="5.94254">
        <ele>964</ele>
        <time>2019-05-05T10:48:26Z</time>
      </trkpt>
      <trkpt lat="46.30053" lon="5.94254">
        <ele>965</ele>
        <time>2019-05-05T10:48:28Z</time>
      </trkpt>
      <trkpt lat="46.30051" lon="5.94254">
        <ele>966</ele>
        <time>2019-05-05T10:48:30Z</time>
      </trkpt>
      <trkpt lat="46.30049" lon="5.94254">
        <ele>967</ele>
        <time>2019-05-05T10:48:32Z</time>
      </trkpt>
      <trkpt lat="46.30044" lon="5.94255">
        <ele>968</ele>
        <time>2019-05-05T10:48:35Z</time>
      </trkpt>
      <trkpt lat="46.30043" lon="5.94255">
        <ele>968</ele>
        <time>2019-05-05T10:48:36Z</time>
      </trkpt>
      <trkpt lat="46.30038" lon="5.94257">
        <ele>971</ele>
        <time>2019-05-05T10:48:40Z</time>
      </trkpt>
      <trkpt lat="46.30032" lon="5.94259">
        <ele>973</ele>
        <time>2019-05-05T10:48:45Z</time>
      </trkpt>
      <trkpt lat="46.30031" lon="5.94259">
        <ele>973</ele>
        <time>2019-05-05T10:48:46Z</time>
      </trkpt>
      <trkpt lat="46.3003" lon="5.94259">
        <ele>974</ele>
        <time>2019-05-05T10:48:47Z</time>
      </trkpt>
      <trkpt lat="46.30026" lon="5.94258">
        <ele>974</ele>
        <time>2019-05-05T10:48:49Z</time>
      </trkpt>
      <trkpt lat="46.30019" lon="5.94254">
        <ele>975</ele>
        <time>2019-05-05T10:48:55Z</time>
      </trkpt>
      <trkpt lat="46.30013" lon="5.94254">
        <ele>977</ele>
        <time>2019-05-05T10:48:59Z</time>
      </trkpt>
      <trkpt lat="46.30008" lon="5.94255">
        <ele>979</ele>
        <time>2019-05-05T10:49:03Z</time>
      </trkpt>
      <trkpt lat="46.30007" lon="5.94256">
        <ele>980</ele>
        <time>2019-05-05T10:49:04Z</time>
      </trkpt>
      <trkpt lat="46.30007" lon="5.94255">
        <ele>980</ele>
        <time>2019-05-05T10:49:04Z</time>
      </trkpt>
      <trkpt lat="46.30008" lon="5.94256">
        <ele>980</ele>
        <time>2019-05-05T10:49:05Z</time>
      </trkpt>
      <trkpt lat="46.30006" lon="5.94259">
        <ele>981</ele>
        <time>2019-05-05T10:49:07Z</time>
      </trkpt>
      <trkpt lat="46.30007" lon="5.94262">
        <ele>982</ele>
        <time>2019-05-05T10:49:08Z</time>
      </trkpt>
      <trkpt lat="46.30009" lon="5.94263">
        <ele>982</ele>
        <time>2019-05-05T10:49:10Z</time>
      </trkpt>
      <trkpt lat="46.3001" lon="5.94264">
        <ele>981</ele>
        <time>2019-05-05T10:49:11Z</time>
      </trkpt>
      <trkpt lat="46.30013" lon="5.94266">
        <ele>981</ele>
        <time>2019-05-05T10:49:14Z</time>
      </trkpt>
      <trkpt lat="46.3001" lon="5.94272">
        <ele>984</ele>
        <time>2019-05-05T10:49:17Z</time>
      </trkpt>
      <trkpt lat="46.3001" lon="5.94273">
        <ele>984</ele>
        <time>2019-05-05T10:49:18Z</time>
      </trkpt>
      <trkpt lat="46.3001" lon="5.94276">
        <ele>985</ele>
        <time>2019-05-05T10:49:20Z</time>
      </trkpt>
      <trkpt lat="46.30011" lon="5.94277">
        <ele>985</ele>
        <time>2019-05-05T10:49:21Z</time>
      </trkpt>
      <trkpt lat="46.30011" lon="5.94279">
        <ele>985</ele>
        <time>2019-05-05T10:49:21Z</time>
      </trkpt>
      <trkpt lat="46.30011" lon="5.9428">
        <ele>985</ele>
        <time>2019-05-05T10:49:22Z</time>
      </trkpt>
      <trkpt lat="46.3001" lon="5.94283">
        <ele>986</ele>
        <time>2019-05-05T10:49:24Z</time>
      </trkpt>
      <trkpt lat="46.30011" lon="5.94284">
        <ele>986</ele>
        <time>2019-05-05T10:49:24Z</time>
      </trkpt>
      <trkpt lat="46.30012" lon="5.94287">
        <ele>987</ele>
        <time>2019-05-05T10:49:27Z</time>
      </trkpt>
      <trkpt lat="46.30012" lon="5.94289">
        <ele>988</ele>
        <time>2019-05-05T10:49:28Z</time>
      </trkpt>
      <trkpt lat="46.30013" lon="5.9429">
        <ele>988</ele>
        <time>2019-05-05T10:49:28Z</time>
      </trkpt>
      <trkpt lat="46.30014" lon="5.94293">
        <ele>988</ele>
        <time>2019-05-05T10:49:30Z</time>
      </trkpt>
      <trkpt lat="46.30016" lon="5.94296">
        <ele>988</ele>
        <time>2019-05-05T10:49:32Z</time>
      </trkpt>
      <trkpt lat="46.3002" lon="5.94299">
        <ele>988</ele>
        <time>2019-05-05T10:49:36Z</time>
      </trkpt>
      <trkpt lat="46.30022" lon="5.943">
        <ele>988</ele>
        <time>2019-05-05T10:49:37Z</time>
      </trkpt>
      <trkpt lat="46.30026" lon="5.94302">
        <ele>987</ele>
        <time>2019-05-05T10:49:40Z</time>
      </trkpt>
      <trkpt lat="46.30027" lon="5.94303">
        <ele>987</ele>
        <time>2019-05-05T10:49:41Z</time>
      </trkpt>
      <trkpt lat="46.30029" lon="5.94306">
        <ele>988</ele>
        <time>2019-05-05T10:49:43Z</time>
      </trkpt>
      <trkpt lat="46.30032" lon="5.94313">
        <ele>989</ele>
        <time>2019-05-05T10:49:47Z</time>
      </trkpt>
      <trkpt lat="46.30035" lon="5.94316">
        <ele>989</ele>
        <time>2019-05-05T10:49:50Z</time>
      </trkpt>
      <trkpt lat="46.30035" lon="5.94319">
        <ele>990</ele>
        <time>2019-05-05T10:49:51Z</time>
      </trkpt>
      <trkpt lat="46.30036" lon="5.9432">
        <ele>990</ele>
        <time>2019-05-05T10:49:52Z</time>
      </trkpt>
      <trkpt lat="46.30037" lon="5.94323">
        <ele>990</ele>
        <time>2019-05-05T10:49:54Z</time>
      </trkpt>
      <trkpt lat="46.30038" lon="5.94328">
        <ele>992</ele>
        <time>2019-05-05T10:49:57Z</time>
      </trkpt>
      <trkpt lat="46.3004" lon="5.94332">
        <ele>992</ele>
        <time>2019-05-05T10:49:59Z</time>
      </trkpt>
      <trkpt lat="46.30042" lon="5.94337">
        <ele>993</ele>
        <time>2019-05-05T10:50:02Z</time>
      </trkpt>
      <trkpt lat="46.30043" lon="5.94342">
        <ele>994</ele>
        <time>2019-05-05T10:50:05Z</time>
      </trkpt>
      <trkpt lat="46.30045" lon="5.94347">
        <ele>995</ele>
        <time>2019-05-05T10:50:08Z</time>
      </trkpt>
      <trkpt lat="46.30044" lon="5.94349">
        <ele>996</ele>
        <time>2019-05-05T10:50:09Z</time>
      </trkpt>
      <trkpt lat="46.30044" lon="5.9435">
        <ele>997</ele>
        <time>2019-05-05T10:50:10Z</time>
      </trkpt>
      <trkpt lat="46.30043" lon="5.94354">
        <ele>998</ele>
        <time>2019-05-05T10:50:12Z</time>
      </trkpt>
      <trkpt lat="46.30042" lon="5.94355">
        <ele>999</ele>
        <time>2019-05-05T10:50:13Z</time>
      </trkpt>
      <trkpt lat="46.30037" lon="5.94358">
        <ele>1001</ele>
        <time>2019-05-05T10:50:18Z</time>
      </trkpt>
      <trkpt lat="46.30033" lon="5.94363">
        <ele>1003</ele>
        <time>2019-05-05T10:50:21Z</time>
      </trkpt>
      <trkpt lat="46.30033" lon="5.94365">
        <ele>1004</ele>
        <time>2019-05-05T10:50:23Z</time>
      </trkpt>
      <trkpt lat="46.30034" lon="5.94366">
        <ele>1004</ele>
        <time>2019-05-05T10:50:24Z</time>
      </trkpt>
      <trkpt lat="46.30034" lon="5.94368">
        <ele>1004</ele>
        <time>2019-05-05T10:50:25Z</time>
      </trkpt>
      <trkpt lat="46.3003" lon="5.9437">
        <ele>1006</ele>
        <time>2019-05-05T10:50:28Z</time>
      </trkpt>
      <trkpt lat="46.30027" lon="5.9437">
        <ele>1007</ele>
        <time>2019-05-05T10:50:30Z</time>
      </trkpt>
      <trkpt lat="46.30023" lon="5.9437">
        <ele>1008</ele>
        <time>2019-05-05T10:50:34Z</time>
      </trkpt>
      <trkpt lat="46.30019" lon="5.9437">
        <ele>1009</ele>
        <time>2019-05-05T10:50:37Z</time>
      </trkpt>
      <trkpt lat="46.30015" lon="5.94369">
        <ele>1010</ele>
        <time>2019-05-05T10:50:40Z</time>
      </trkpt>
      <trkpt lat="46.30011" lon="5.94369">
        <ele>1010</ele>
        <time>2019-05-05T10:50:42Z</time>
      </trkpt>
      <trkpt lat="46.30001" lon="5.94371">
        <ele>1014</ele>
        <time>2019-05-05T10:50:50Z</time>
      </trkpt>
      <trkpt lat="46.29997" lon="5.94372">
        <ele>1015</ele>
        <time>2019-05-05T10:50:53Z</time>
      </trkpt>
      <trkpt lat="46.29995" lon="5.94373">
        <ele>1016</ele>
        <time>2019-05-05T10:50:55Z</time>
      </trkpt>
      <trkpt lat="46.29993" lon="5.94377">
        <ele>1018</ele>
        <time>2019-05-05T10:50:58Z</time>
      </trkpt>
      <trkpt lat="46.29993" lon="5.9438">
        <ele>1018</ele>
        <time>2019-05-05T10:50:59Z</time>
      </trkpt>
      <trkpt lat="46.29988" lon="5.9438">
        <ele>1020</ele>
        <time>2019-05-05T10:51:03Z</time>
      </trkpt>
      <trkpt lat="46.2998" lon="5.94378">
        <ele>1021</ele>
        <time>2019-05-05T10:51:08Z</time>
      </trkpt>
      <trkpt lat="46.29966" lon="5.94373">
        <ele>1023</ele>
        <time>2019-05-05T10:51:19Z</time>
      </trkpt>
      <trkpt lat="46.29962" lon="5.94369">
        <ele>1023</ele>
        <time>2019-05-05T10:51:22Z</time>
      </trkpt>
      <trkpt lat="46.2995" lon="5.94361">
        <ele>1024</ele>
        <time>2019-05-05T10:51:32Z</time>
      </trkpt>
      <trkpt lat="46.29945" lon="5.94358">
        <ele>1024</ele>
        <time>2019-05-05T10:51:36Z</time>
      </trkpt>
      <trkpt lat="46.29942" lon="5.94359">
        <ele>1025</ele>
        <time>2019-05-05T10:51:39Z</time>
      </trkpt>
      <trkpt lat="46.29939" lon="5.94359">
        <ele>1026</ele>
        <time>2019-05-05T10:51:41Z</time>
      </trkpt>
      <trkpt lat="46.2994" lon="5.9436">
        <ele>1026</ele>
        <time>2019-05-05T10:51:42Z</time>
      </trkpt>
      <trkpt lat="46.2994" lon="5.9436">
        <ele>1026</ele>
        <time>2019-05-05T10:51:42Z</time>
      </trkpt>
      <trkpt lat="46.29939" lon="5.94358">
        <ele>1026</ele>
        <time>2019-05-05T10:51:43Z</time>
      </trkpt>
      <trkpt lat="46.29938" lon="5.94358">
        <ele>1026</ele>
        <time>2019-05-05T10:51:44Z</time>
      </trkpt>
      <trkpt lat="46.2994" lon="5.94356">
        <ele>1025</ele>
        <time>2019-05-05T10:51:45Z</time>
      </trkpt>
      <trkpt lat="46.29938" lon="5.94355">
        <ele>1025</ele>
        <time>2019-05-05T10:51:47Z</time>
      </trkpt>
      <trkpt lat="46.29934" lon="5.94354">
        <ele>1026</ele>
        <time>2019-05-05T10:51:50Z</time>
      </trkpt>
      <trkpt lat="46.29929" lon="5.94352">
        <ele>1028</ele>
        <time>2019-05-05T10:51:54Z</time>
      </trkpt>
      <trkpt lat="46.29924" lon="5.94352">
        <ele>1029</ele>
        <time>2019-05-05T10:51:58Z</time>
      </trkpt>
      <trkpt lat="46.29909" lon="5.94334">
        <ele>1030</ele>
        <time>2019-05-05T10:52:12Z</time>
      </trkpt>
      <trkpt lat="46.29906" lon="5.9433">
        <ele>1030</ele>
        <time>2019-05-05T10:52:15Z</time>
      </trkpt>
      <trkpt lat="46.299" lon="5.94325">
        <ele>1031</ele>
        <time>2019-05-05T10:52:19Z</time>
      </trkpt>
      <trkpt lat="46.29896" lon="5.94323">
        <ele>1031</ele>
        <time>2019-05-05T10:52:23Z</time>
      </trkpt>
      <trkpt lat="46.29896" lon="5.94323">
        <ele>1031</ele>
        <time>2019-05-05T10:52:23Z</time>
      </trkpt>
      <trkpt lat="46.29894" lon="5.94322">
        <ele>1032</ele>
        <time>2019-05-05T10:52:24Z</time>
      </trkpt>
      <trkpt lat="46.29893" lon="5.94321">
        <ele>1032</ele>
        <time>2019-05-05T10:52:26Z</time>
      </trkpt>
      <trkpt lat="46.2989" lon="5.94318">
        <ele>1032</ele>
        <time>2019-05-05T10:52:28Z</time>
      </trkpt>
      <trkpt lat="46.29885" lon="5.94316">
        <ele>1033</ele>
        <time>2019-05-05T10:52:32Z</time>
      </trkpt>
      <trkpt lat="46.29884" lon="5.94315">
        <ele>1033</ele>
        <time>2019-05-05T10:52:33Z</time>
      </trkpt>
      <trkpt lat="46.29878" lon="5.94316">
        <ele>1035</ele>
        <time>2019-05-05T10:52:37Z</time>
      </trkpt>
      <trkpt lat="46.29865" lon="5.94309">
        <ele>1037</ele>
        <time>2019-05-05T10:52:47Z</time>
      </trkpt>
      <trkpt lat="46.29846" lon="5.94298">
        <ele>1041</ele>
        <time>2019-05-05T10:53:02Z</time>
      </trkpt>
      <trkpt lat="46.29845" lon="5.94297">
        <ele>1041</ele>
        <time>2019-05-05T10:53:03Z</time>
      </trkpt>
      <trkpt lat="46.29843" lon="5.94295">
        <ele>1041</ele>
        <time>2019-05-05T10:53:05Z</time>
      </trkpt>
      <trkpt lat="46.29842" lon="5.94293">
        <ele>1041</ele>
        <time>2019-05-05T10:53:06Z</time>
      </trkpt>
      <trkpt lat="46.2984" lon="5.94293">
        <ele>1042</ele>
        <time>2019-05-05T10:53:08Z</time>
      </trkpt>
      <trkpt lat="46.2984" lon="5.94294">
        <ele>1042</ele>
        <time>2019-05-05T10:53:09Z</time>
      </trkpt>
      <trkpt lat="46.29839" lon="5.94293">
        <ele>1043</ele>
        <time>2019-05-05T10:53:11Z</time>
      </trkpt>
      <trkpt lat="46.29831" lon="5.94295">
        <ele>1047</ele>
        <time>2019-05-05T10:53:17Z</time>
      </trkpt>
      <trkpt lat="46.29826" lon="5.94295">
        <ele>1049</ele>
        <time>2019-05-05T10:53:21Z</time>
      </trkpt>
      <trkpt lat="46.29818" lon="5.94295">
        <ele>1053</ele>
        <time>2019-05-05T10:53:27Z</time>
      </trkpt>
      <trkpt lat="46.29816" lon="5.94294">
        <ele>1054</ele>
        <time>2019-05-05T10:53:29Z</time>
      </trkpt>
      <trkpt lat="46.29806" lon="5.94287">
        <ele>1056</ele>
        <time>2019-05-05T10:53:37Z</time>
      </trkpt>
      <trkpt lat="46.29802" lon="5.94283">
        <ele>1057</ele>
        <time>2019-05-05T10:53:41Z</time>
      </trkpt>
      <trkpt lat="46.29798" lon="5.94281">
        <ele>1058</ele>
        <time>2019-05-05T10:53:43Z</time>
      </trkpt>
      <trkpt lat="46.29795" lon="5.9428">
        <ele>1059</ele>
        <time>2019-05-05T10:53:46Z</time>
      </trkpt>
      <trkpt lat="46.2979" lon="5.94275">
        <ele>1060</ele>
        <time>2019-05-05T10:53:50Z</time>
      </trkpt>
      <trkpt lat="46.29788" lon="5.94268">
        <ele>1058</ele>
        <time>2019-05-05T10:53:54Z</time>
      </trkpt>
      <trkpt lat="46.29788" lon="5.94265">
        <ele>1057</ele>
        <time>2019-05-05T10:53:56Z</time>
      </trkpt>
      <trkpt lat="46.29784" lon="5.94259">
        <ele>1058</ele>
        <time>2019-05-05T10:54:00Z</time>
      </trkpt>
      <trkpt lat="46.2978" lon="5.94254">
        <ele>1057</ele>
        <time>2019-05-05T10:54:04Z</time>
      </trkpt>
      <trkpt lat="46.29779" lon="5.94252">
        <ele>1057</ele>
        <time>2019-05-05T10:54:05Z</time>
      </trkpt>
      <trkpt lat="46.29776" lon="5.94246">
        <ele>1057</ele>
        <time>2019-05-05T10:54:09Z</time>
      </trkpt>
      <trkpt lat="46.29774" lon="5.94244">
        <ele>1058</ele>
        <time>2019-05-05T10:54:11Z</time>
      </trkpt>
      <trkpt lat="46.29771" lon="5.94242">
        <ele>1058</ele>
        <time>2019-05-05T10:54:13Z</time>
      </trkpt>
      <trkpt lat="46.29768" lon="5.94239">
        <ele>1059</ele>
        <time>2019-05-05T10:54:16Z</time>
      </trkpt>
      <trkpt lat="46.29765" lon="5.94234">
        <ele>1058</ele>
        <time>2019-05-05T10:54:19Z</time>
      </trkpt>
      <trkpt lat="46.29765" lon="5.94233">
        <ele>1058</ele>
        <time>2019-05-05T10:54:20Z</time>
      </trkpt>
      <trkpt lat="46.29764" lon="5.94231">
        <ele>1058</ele>
        <time>2019-05-05T10:54:21Z</time>
      </trkpt>
      <trkpt lat="46.29762" lon="5.9423">
        <ele>1058</ele>
        <time>2019-05-05T10:54:22Z</time>
      </trkpt>
      <trkpt lat="46.29757" lon="5.9423">
        <ele>1060</ele>
        <time>2019-05-05T10:54:26Z</time>
      </trkpt>
      <trkpt lat="46.29757" lon="5.9423">
        <ele>1061</ele>
        <time>2019-05-05T10:54:27Z</time>
      </trkpt>
      <trkpt lat="46.29754" lon="5.94229">
        <ele>1062</ele>
        <time>2019-05-05T10:54:29Z</time>
      </trkpt>
      <trkpt lat="46.29747" lon="5.94227">
        <ele>1064</ele>
        <time>2019-05-05T10:54:35Z</time>
      </trkpt>
      <trkpt lat="46.29742" lon="5.94225">
        <ele>1065</ele>
        <time>2019-05-05T10:54:38Z</time>
      </trkpt>
      <trkpt lat="46.29736" lon="5.94222">
        <ele>1067</ele>
        <time>2019-05-05T10:54:43Z</time>
      </trkpt>
      <trkpt lat="46.29732" lon="5.9422">
        <ele>1068</ele>
        <time>2019-05-05T10:54:46Z</time>
      </trkpt>
      <trkpt lat="46.29728" lon="5.94217">
        <ele>1068</ele>
        <time>2019-05-05T10:54:49Z</time>
      </trkpt>
      <trkpt lat="46.29727" lon="5.94216">
        <ele>1068</ele>
        <time>2019-05-05T10:54:50Z</time>
      </trkpt>
      <trkpt lat="46.29727" lon="5.94215">
        <ele>1068</ele>
        <time>2019-05-05T10:54:51Z</time>
      </trkpt>
      <trkpt lat="46.29726" lon="5.94215">
        <ele>1068</ele>
        <time>2019-05-05T10:54:51Z</time>
      </trkpt>
      <trkpt lat="46.29726" lon="5.94213">
        <ele>1068</ele>
        <time>2019-05-05T10:54:52Z</time>
      </trkpt>
      <trkpt lat="46.29724" lon="5.94213">
        <ele>1068</ele>
        <time>2019-05-05T10:54:53Z</time>
      </trkpt>
      <trkpt lat="46.29721" lon="5.94211">
        <ele>1069</ele>
        <time>2019-05-05T10:54:56Z</time>
      </trkpt>
      <trkpt lat="46.29719" lon="5.94211">
        <ele>1069</ele>
        <time>2019-05-05T10:54:57Z</time>
      </trkpt>
      <trkpt lat="46.29717" lon="5.94211">
        <ele>1070</ele>
        <time>2019-05-05T10:54:59Z</time>
      </trkpt>
      <trkpt lat="46.29715" lon="5.94211">
        <ele>1071</ele>
        <time>2019-05-05T10:55:00Z</time>
      </trkpt>
      <trkpt lat="46.29712" lon="5.94209">
        <ele>1071</ele>
        <time>2019-05-05T10:55:03Z</time>
      </trkpt>
      <trkpt lat="46.2971" lon="5.94209">
        <ele>1072</ele>
        <time>2019-05-05T10:55:04Z</time>
      </trkpt>
      <trkpt lat="46.29708" lon="5.94209">
        <ele>1073</ele>
        <time>2019-05-05T10:55:06Z</time>
      </trkpt>
      <trkpt lat="46.29708" lon="5.94208">
        <ele>1072</ele>
        <time>2019-05-05T10:55:07Z</time>
      </trkpt>
      <trkpt lat="46.29708" lon="5.94208">
        <ele>1072</ele>
        <time>2019-05-05T10:55:07Z</time>
      </trkpt>
      <trkpt lat="46.29707" lon="5.94208">
        <ele>1073</ele>
        <time>2019-05-05T10:55:08Z</time>
      </trkpt>
      <trkpt lat="46.29707" lon="5.94208">
        <ele>1073</ele>
        <time>2019-05-05T10:55:08Z</time>
      </trkpt>
      <trkpt lat="46.29707" lon="5.94207">
        <ele>1072</ele>
        <time>2019-05-05T10:55:09Z</time>
      </trkpt>
      <trkpt lat="46.29705" lon="5.94204">
        <ele>1072</ele>
        <time>2019-05-05T10:55:11Z</time>
      </trkpt>
      <trkpt lat="46.29704" lon="5.94202">
        <ele>1072</ele>
        <time>2019-05-05T10:55:13Z</time>
      </trkpt>
      <trkpt lat="46.29703" lon="5.94201">
        <ele>1072</ele>
        <time>2019-05-05T10:55:13Z</time>
      </trkpt>
      <trkpt lat="46.29695" lon="5.942">
        <ele>1074</ele>
        <time>2019-05-05T10:55:19Z</time>
      </trkpt>
      <trkpt lat="46.29684" lon="5.94201">
        <ele>1078</ele>
        <time>2019-05-05T10:55:28Z</time>
      </trkpt>
      <trkpt lat="46.29683" lon="5.94201">
        <ele>1078</ele>
        <time>2019-05-05T10:55:28Z</time>
      </trkpt>
      <trkpt lat="46.2968" lon="5.94198">
        <ele>1077</ele>
        <time>2019-05-05T10:55:31Z</time>
      </trkpt>
      <trkpt lat="46.29674" lon="5.94199">
        <ele>1079</ele>
        <time>2019-05-05T10:55:36Z</time>
      </trkpt>
      <trkpt lat="46.29672" lon="5.94197">
        <ele>1079</ele>
        <time>2019-05-05T10:55:37Z</time>
      </trkpt>
      <trkpt lat="46.29671" lon="5.94195">
        <ele>1078</ele>
        <time>2019-05-05T10:55:39Z</time>
      </trkpt>
      <trkpt lat="46.2967" lon="5.94195">
        <ele>1078</ele>
        <time>2019-05-05T10:55:40Z</time>
      </trkpt>
      <trkpt lat="46.29664" lon="5.94194">
        <ele>1079</ele>
        <time>2019-05-05T10:55:44Z</time>
      </trkpt>
      <trkpt lat="46.29663" lon="5.94193">
        <ele>1079</ele>
        <time>2019-05-05T10:55:45Z</time>
      </trkpt>
      <trkpt lat="46.29658" lon="5.9419">
        <ele>1079</ele>
        <time>2019-05-05T10:55:48Z</time>
      </trkpt>
      <trkpt lat="46.29653" lon="5.9419">
        <ele>1079</ele>
        <time>2019-05-05T10:55:52Z</time>
      </trkpt>
      <trkpt lat="46.29647" lon="5.9419">
        <ele>1081</ele>
        <time>2019-05-05T10:55:56Z</time>
      </trkpt>
      <trkpt lat="46.29645" lon="5.9419">
        <ele>1081</ele>
        <time>2019-05-05T10:55:58Z</time>
      </trkpt>
      <trkpt lat="46.29644" lon="5.9419">
        <ele>1081</ele>
        <time>2019-05-05T10:55:59Z</time>
      </trkpt>
      <trkpt lat="46.29641" lon="5.94188">
        <ele>1081</ele>
        <time>2019-05-05T10:56:01Z</time>
      </trkpt>
      <trkpt lat="46.2964" lon="5.94188">
        <ele>1081</ele>
        <time>2019-05-05T10:56:02Z</time>
      </trkpt>
      <trkpt lat="46.29638" lon="5.94187">
        <ele>1081</ele>
        <time>2019-05-05T10:56:03Z</time>
      </trkpt>
      <trkpt lat="46.29638" lon="5.94187">
        <ele>1082</ele>
        <time>2019-05-05T10:56:04Z</time>
      </trkpt>
      <trkpt lat="46.29637" lon="5.94187">
        <ele>1082</ele>
        <time>2019-05-05T10:56:04Z</time>
      </trkpt>
      <trkpt lat="46.29635" lon="5.94186">
        <ele>1082</ele>
        <time>2019-05-05T10:56:06Z</time>
      </trkpt>
      <trkpt lat="46.29634" lon="5.94186">
        <ele>1082</ele>
        <time>2019-05-05T10:56:06Z</time>
      </trkpt>
      <trkpt lat="46.29634" lon="5.94187">
        <ele>1082</ele>
        <time>2019-05-05T10:56:07Z</time>
      </trkpt>
      <trkpt lat="46.29633" lon="5.94187">
        <ele>1082</ele>
        <time>2019-05-05T10:56:07Z</time>
      </trkpt>
      <trkpt lat="46.29632" lon="5.94187">
        <ele>1083</ele>
        <time>2019-05-05T10:56:09Z</time>
      </trkpt>
      <trkpt lat="46.29632" lon="5.94186">
        <ele>1082</ele>
        <time>2019-05-05T10:56:10Z</time>
      </trkpt>
      <trkpt lat="46.29631" lon="5.94186">
        <ele>1082</ele>
        <time>2019-05-05T10:56:10Z</time>
      </trkpt>
      <trkpt lat="46.29629" lon="5.94186">
        <ele>1083</ele>
        <time>2019-05-05T10:56:11Z</time>
      </trkpt>
      <trkpt lat="46.29628" lon="5.94187">
        <ele>1083</ele>
        <time>2019-05-05T10:56:12Z</time>
      </trkpt>
      <trkpt lat="46.29625" lon="5.94186">
        <ele>1084</ele>
        <time>2019-05-05T10:56:15Z</time>
      </trkpt>
      <trkpt lat="46.29623" lon="5.94185">
        <ele>1084</ele>
        <time>2019-05-05T10:56:16Z</time>
      </trkpt>
      <trkpt lat="46.29619" lon="5.94184">
        <ele>1084</ele>
        <time>2019-05-05T10:56:19Z</time>
      </trkpt>
      <trkpt lat="46.29617" lon="5.94184">
        <ele>1084</ele>
        <time>2019-05-05T10:56:21Z</time>
      </trkpt>
      <trkpt lat="46.29611" lon="5.94184">
        <ele>1085</ele>
        <time>2019-05-05T10:56:25Z</time>
      </trkpt>
      <trkpt lat="46.29608" lon="5.94184">
        <ele>1086</ele>
        <time>2019-05-05T10:56:27Z</time>
      </trkpt>
      <trkpt lat="46.29607" lon="5.94185">
        <ele>1087</ele>
        <time>2019-05-05T10:56:28Z</time>
      </trkpt>
      <trkpt lat="46.29605" lon="5.94186">
        <ele>1088</ele>
        <time>2019-05-05T10:56:30Z</time>
      </trkpt>
      <trkpt lat="46.29604" lon="5.94186">
        <ele>1088</ele>
        <time>2019-05-05T10:56:31Z</time>
      </trkpt>
      <trkpt lat="46.29603" lon="5.94185">
        <ele>1088</ele>
        <time>2019-05-05T10:56:31Z</time>
      </trkpt>
      <trkpt lat="46.29602" lon="5.94185">
        <ele>1088</ele>
        <time>2019-05-05T10:56:32Z</time>
      </trkpt>
      <trkpt lat="46.29602" lon="5.94185">
        <ele>1088</ele>
        <time>2019-05-05T10:56:32Z</time>
      </trkpt>
      <trkpt lat="46.29601" lon="5.94185">
        <ele>1088</ele>
        <time>2019-05-05T10:56:33Z</time>
      </trkpt>
      <trkpt lat="46.29601" lon="5.94185">
        <ele>1088</ele>
        <time>2019-05-05T10:56:33Z</time>
      </trkpt>
      <trkpt lat="46.29599" lon="5.94185">
        <ele>1089</ele>
        <time>2019-05-05T10:56:35Z</time>
      </trkpt>
      <trkpt lat="46.29597" lon="5.94186">
        <ele>1089</ele>
        <time>2019-05-05T10:56:36Z</time>
      </trkpt>
      <trkpt lat="46.29596" lon="5.94186">
        <ele>1090</ele>
        <time>2019-05-05T10:56:37Z</time>
      </trkpt>
      <trkpt lat="46.29593" lon="5.94186">
        <ele>1090</ele>
        <time>2019-05-05T10:56:39Z</time>
      </trkpt>
      <trkpt lat="46.29589" lon="5.94189">
        <ele>1092</ele>
        <time>2019-05-05T10:56:43Z</time>
      </trkpt>
      <trkpt lat="46.29587" lon="5.94191">
        <ele>1094</ele>
        <time>2019-05-05T10:56:45Z</time>
      </trkpt>
      <trkpt lat="46.29587" lon="5.94191">
        <ele>1094</ele>
        <time>2019-05-05T10:56:45Z</time>
      </trkpt>
      <trkpt lat="46.29588" lon="5.94191">
        <ele>1094</ele>
        <time>2019-05-05T10:56:45Z</time>
      </trkpt>
      <trkpt lat="46.29587" lon="5.94191">
        <ele>1094</ele>
        <time>2019-05-05T10:56:46Z</time>
      </trkpt>
      <trkpt lat="46.29582" lon="5.94191">
        <ele>1095</ele>
        <time>2019-05-05T10:56:50Z</time>
      </trkpt>
      <trkpt lat="46.29581" lon="5.94193">
        <ele>1096</ele>
        <time>2019-05-05T10:56:51Z</time>
      </trkpt>
      <trkpt lat="46.2958" lon="5.94194">
        <ele>1097</ele>
        <time>2019-05-05T10:56:52Z</time>
      </trkpt>
      <trkpt lat="46.29579" lon="5.94197">
        <ele>1098</ele>
        <time>2019-05-05T10:56:54Z</time>
      </trkpt>
      <trkpt lat="46.29581" lon="5.94199">
        <ele>1099</ele>
        <time>2019-05-05T10:56:56Z</time>
      </trkpt>
      <trkpt lat="46.29585" lon="5.94201">
        <ele>1099</ele>
        <time>2019-05-05T10:56:59Z</time>
      </trkpt>
      <trkpt lat="46.29589" lon="5.94201">
        <ele>1098</ele>
        <time>2019-05-05T10:57:02Z</time>
      </trkpt>
      <trkpt lat="46.2959" lon="5.94203">
        <ele>1099</ele>
        <time>2019-05-05T10:57:03Z</time>
      </trkpt>
      <trkpt lat="46.29591" lon="5.94203">
        <ele>1099</ele>
        <time>2019-05-05T10:57:04Z</time>
      </trkpt>
      <trkpt lat="46.29595" lon="5.94202">
        <ele>1097</ele>
        <time>2019-05-05T10:57:07Z</time>
      </trkpt>
      <trkpt lat="46.29597" lon="5.94204">
        <ele>1097</ele>
        <time>2019-05-05T10:57:09Z</time>
      </trkpt>
      <trkpt lat="46.296" lon="5.94206">
        <ele>1098</ele>
        <time>2019-05-05T10:57:11Z</time>
      </trkpt>
      <trkpt lat="46.29604" lon="5.94207">
        <ele>1097</ele>
        <time>2019-05-05T10:57:14Z</time>
      </trkpt>
      <trkpt lat="46.29608" lon="5.94209">
        <ele>1098</ele>
        <time>2019-05-05T10:57:17Z</time>
      </trkpt>
      <trkpt lat="46.2961" lon="5.94211">
        <ele>1098</ele>
        <time>2019-05-05T10:57:19Z</time>
      </trkpt>
      <trkpt lat="46.2961" lon="5.94213">
        <ele>1099</ele>
        <time>2019-05-05T10:57:20Z</time>
      </trkpt>
      <trkpt lat="46.29612" lon="5.94214">
        <ele>1099</ele>
        <time>2019-05-05T10:57:21Z</time>
      </trkpt>
      <trkpt lat="46.29613" lon="5.94215">
        <ele>1099</ele>
        <time>2019-05-05T10:57:22Z</time>
      </trkpt>
      <trkpt lat="46.29616" lon="5.94219">
        <ele>1100</ele>
        <time>2019-05-05T10:57:25Z</time>
      </trkpt>
      <trkpt lat="46.29616" lon="5.94221">
        <ele>1101</ele>
        <time>2019-05-05T10:57:26Z</time>
      </trkpt>
      <trkpt lat="46.29618" lon="5.94224">
        <ele>1102</ele>
        <time>2019-05-05T10:57:29Z</time>
      </trkpt>
      <trkpt lat="46.29619" lon="5.94225">
        <ele>1102</ele>
        <time>2019-05-05T10:57:30Z</time>
      </trkpt>
      <trkpt lat="46.29621" lon="5.94228">
        <ele>1103</ele>
        <time>2019-05-05T10:57:32Z</time>
      </trkpt>
      <trkpt lat="46.29623" lon="5.9423">
        <ele>1104</ele>
        <time>2019-05-05T10:57:34Z</time>
      </trkpt>
      <trkpt lat="46.29623" lon="5.94232">
        <ele>1104</ele>
        <time>2019-05-05T10:57:35Z</time>
      </trkpt>
      <trkpt lat="46.29625" lon="5.94238">
        <ele>1107</ele>
        <time>2019-05-05T10:57:39Z</time>
      </trkpt>
      <trkpt lat="46.29627" lon="5.94245">
        <ele>1110</ele>
        <time>2019-05-05T10:57:43Z</time>
      </trkpt>
      <trkpt lat="46.2963" lon="5.94251">
        <ele>1112</ele>
        <time>2019-05-05T10:57:47Z</time>
      </trkpt>
      <trkpt lat="46.29631" lon="5.94253">
        <ele>1113</ele>
        <time>2019-05-05T10:57:48Z</time>
      </trkpt>
      <trkpt lat="46.29631" lon="5.94255">
        <ele>1113</ele>
        <time>2019-05-05T10:57:49Z</time>
      </trkpt>
      <trkpt lat="46.29634" lon="5.94261">
        <ele>1115</ele>
        <time>2019-05-05T10:57:53Z</time>
      </trkpt>
      <trkpt lat="46.29635" lon="5.94262">
        <ele>1115</ele>
        <time>2019-05-05T10:57:54Z</time>
      </trkpt>
      <trkpt lat="46.29635" lon="5.94266">
        <ele>1117</ele>
        <time>2019-05-05T10:57:56Z</time>
      </trkpt>
      <trkpt lat="46.29632" lon="5.9427">
        <ele>1119</ele>
        <time>2019-05-05T10:57:59Z</time>
      </trkpt>
      <trkpt lat="46.29632" lon="5.9427">
        <ele>1120</ele>
        <time>2019-05-05T10:58:00Z</time>
      </trkpt>
      <trkpt lat="46.29626" lon="5.94272">
        <ele>1122</ele>
        <time>2019-05-05T10:58:04Z</time>
      </trkpt>
      <trkpt lat="46.29622" lon="5.94275">
        <ele>1124</ele>
        <time>2019-05-05T10:58:08Z</time>
      </trkpt>
      <trkpt lat="46.29623" lon="5.94277">
        <ele>1125</ele>
        <time>2019-05-05T10:58:10Z</time>
      </trkpt>
      <trkpt lat="46.29623" lon="5.94278">
        <ele>1125</ele>
        <time>2019-05-05T10:58:10Z</time>
      </trkpt>
      <trkpt lat="46.29625" lon="5.94279">
        <ele>1125</ele>
        <time>2019-05-05T10:58:11Z</time>
      </trkpt>
      <trkpt lat="46.29627" lon="5.94281">
        <ele>1125</ele>
        <time>2019-05-05T10:58:13Z</time>
      </trkpt>
      <trkpt lat="46.29628" lon="5.94282">
        <ele>1126</ele>
        <time>2019-05-05T10:58:14Z</time>
      </trkpt>
      <trkpt lat="46.29631" lon="5.94283">
        <ele>1125</ele>
        <time>2019-05-05T10:58:17Z</time>
      </trkpt>
      <trkpt lat="46.29632" lon="5.94285">
        <ele>1126</ele>
        <time>2019-05-05T10:58:19Z</time>
      </trkpt>
      <trkpt lat="46.29632" lon="5.94289">
        <ele>1127</ele>
        <time>2019-05-05T10:58:21Z</time>
      </trkpt>
      <trkpt lat="46.29633" lon="5.94293">
        <ele>1129</ele>
        <time>2019-05-05T10:58:23Z</time>
      </trkpt>
      <trkpt lat="46.29633" lon="5.94294">
        <ele>1129</ele>
        <time>2019-05-05T10:58:23Z</time>
      </trkpt>
      <trkpt lat="46.29636" lon="5.94298">
        <ele>1130</ele>
        <time>2019-05-05T10:58:26Z</time>
      </trkpt>
      <trkpt lat="46.29635" lon="5.94299">
        <ele>1131</ele>
        <time>2019-05-05T10:58:27Z</time>
      </trkpt>
      <trkpt lat="46.29632" lon="5.94303">
        <ele>1133</ele>
        <time>2019-05-05T10:58:30Z</time>
      </trkpt>
      <trkpt lat="46.29632" lon="5.94304">
        <ele>1134</ele>
        <time>2019-05-05T10:58:31Z</time>
      </trkpt>
      <trkpt lat="46.29631" lon="5.94305">
        <ele>1134</ele>
        <time>2019-05-05T10:58:32Z</time>
      </trkpt>
      <trkpt lat="46.29628" lon="5.94308">
        <ele>1136</ele>
        <time>2019-05-05T10:58:35Z</time>
      </trkpt>
      <trkpt lat="46.29627" lon="5.94308">
        <ele>1137</ele>
        <time>2019-05-05T10:58:36Z</time>
      </trkpt>
      <trkpt lat="46.29628" lon="5.94309">
        <ele>1137</ele>
        <time>2019-05-05T10:58:37Z</time>
      </trkpt>
      <trkpt lat="46.29626" lon="5.94311">
        <ele>1139</ele>
        <time>2019-05-05T10:58:39Z</time>
      </trkpt>
      <trkpt lat="46.29624" lon="5.94312">
        <ele>1139</ele>
        <time>2019-05-05T10:58:41Z</time>
      </trkpt>
      <trkpt lat="46.29621" lon="5.94314">
        <ele>1141</ele>
        <time>2019-05-05T10:58:43Z</time>
      </trkpt>
      <trkpt lat="46.29621" lon="5.94315">
        <ele>1142</ele>
        <time>2019-05-05T10:58:44Z</time>
      </trkpt>
      <trkpt lat="46.29622" lon="5.94317">
        <ele>1142</ele>
        <time>2019-05-05T10:58:45Z</time>
      </trkpt>
      <trkpt lat="46.29621" lon="5.94317">
        <ele>1142</ele>
        <time>2019-05-05T10:58:46Z</time>
      </trkpt>
      <trkpt lat="46.29618" lon="5.94317">
        <ele>1143</ele>
        <time>2019-05-05T10:58:48Z</time>
      </trkpt>
      <trkpt lat="46.29614" lon="5.94319">
        <ele>1146</ele>
        <time>2019-05-05T10:58:52Z</time>
      </trkpt>
      <trkpt lat="46.29613" lon="5.94319">
        <ele>1146</ele>
        <time>2019-05-05T10:58:53Z</time>
      </trkpt>
      <trkpt lat="46.29611" lon="5.94319">
        <ele>1146</ele>
        <time>2019-05-05T10:58:54Z</time>
      </trkpt>
      <trkpt lat="46.2961" lon="5.94317">
        <ele>1146</ele>
        <time>2019-05-05T10:58:55Z</time>
      </trkpt>
      <trkpt lat="46.29611" lon="5.94318">
        <ele>1146</ele>
        <time>2019-05-05T10:58:56Z</time>
      </trkpt>
      <trkpt lat="46.29612" lon="5.94318">
        <ele>1145</ele>
        <time>2019-05-05T10:58:57Z</time>
      </trkpt>
      <trkpt lat="46.29611" lon="5.94316">
        <ele>1145</ele>
        <time>2019-05-05T10:58:57Z</time>
      </trkpt>
      <trkpt lat="46.29611" lon="5.94317">
        <ele>1145</ele>
        <time>2019-05-05T10:58:58Z</time>
      </trkpt>
      <trkpt lat="46.2961" lon="5.94317">
        <ele>1146</ele>
        <time>2019-05-05T10:58:59Z</time>
      </trkpt>
      <trkpt lat="46.29609" lon="5.94317">
        <ele>1146</ele>
        <time>2019-05-05T10:59:00Z</time>
      </trkpt>
      <trkpt lat="46.29607" lon="5.94318">
        <ele>1147</ele>
        <time>2019-05-05T10:59:01Z</time>
      </trkpt>
      <trkpt lat="46.29603" lon="5.94318">
        <ele>1148</ele>
        <time>2019-05-05T10:59:05Z</time>
      </trkpt>
      <trkpt lat="46.296" lon="5.94317">
        <ele>1149</ele>
        <time>2019-05-05T10:59:07Z</time>
      </trkpt>
      <trkpt lat="46.29596" lon="5.9432">
        <ele>1151</ele>
        <time>2019-05-05T10:59:10Z</time>
      </trkpt>
      <trkpt lat="46.29598" lon="5.9432">
        <ele>1151</ele>
        <time>2019-05-05T10:59:12Z</time>
      </trkpt>
      <trkpt lat="46.296" lon="5.94325">
        <ele>1153</ele>
        <time>2019-05-05T10:59:15Z</time>
      </trkpt>
      <trkpt lat="46.29601" lon="5.94328">
        <ele>1154</ele>
        <time>2019-05-05T10:59:17Z</time>
      </trkpt>
      <trkpt lat="46.29603" lon="5.9433">
        <ele>1154</ele>
        <time>2019-05-05T10:59:19Z</time>
      </trkpt>
      <trkpt lat="46.29603" lon="5.94333">
        <ele>1155</ele>
        <time>2019-05-05T10:59:20Z</time>
      </trkpt>
      <trkpt lat="46.29604" lon="5.94338">
        <ele>1157</ele>
        <time>2019-05-05T10:59:23Z</time>
      </trkpt>
      <trkpt lat="46.29603" lon="5.94342">
        <ele>1159</ele>
        <time>2019-05-05T10:59:26Z</time>
      </trkpt>
      <trkpt lat="46.29604" lon="5.94346">
        <ele>1161</ele>
        <time>2019-05-05T10:59:28Z</time>
      </trkpt>
      <trkpt lat="46.29603" lon="5.9435">
        <ele>1163</ele>
        <time>2019-05-05T10:59:30Z</time>
      </trkpt>
      <trkpt lat="46.29604" lon="5.94354">
        <ele>1164</ele>
        <time>2019-05-05T10:59:33Z</time>
      </trkpt>
      <trkpt lat="46.29606" lon="5.94355">
        <ele>1163</ele>
        <time>2019-05-05T10:59:34Z</time>
      </trkpt>
      <trkpt lat="46.29608" lon="5.9436">
        <ele>1164</ele>
        <time>2019-05-05T10:59:37Z</time>
      </trkpt>
      <trkpt lat="46.2961" lon="5.94362">
        <ele>1164</ele>
        <time>2019-05-05T10:59:39Z</time>
      </trkpt>
      <trkpt lat="46.2961" lon="5.94362">
        <ele>1164</ele>
        <time>2019-05-05T10:59:39Z</time>
      </trkpt>
      <trkpt lat="46.29611" lon="5.94363">
        <ele>1164</ele>
        <time>2019-05-05T10:59:40Z</time>
      </trkpt>
      <trkpt lat="46.29613" lon="5.94364">
        <ele>1163</ele>
        <time>2019-05-05T10:59:41Z</time>
      </trkpt>
      <trkpt lat="46.29614" lon="5.94364">
        <ele>1163</ele>
        <time>2019-05-05T10:59:42Z</time>
      </trkpt>
      <trkpt lat="46.29618" lon="5.94367">
        <ele>1163</ele>
        <time>2019-05-05T10:59:45Z</time>
      </trkpt>
      <trkpt lat="46.29622" lon="5.94371">
        <ele>1162</ele>
        <time>2019-05-05T10:59:49Z</time>
      </trkpt>
      <trkpt lat="46.29621" lon="5.94375">
        <ele>1164</ele>
        <time>2019-05-05T10:59:51Z</time>
      </trkpt>
      <trkpt lat="46.29621" lon="5.94378">
        <ele>1164</ele>
        <time>2019-05-05T10:59:52Z</time>
      </trkpt>
      <trkpt lat="46.29621" lon="5.94383">
        <ele>1166</ele>
        <time>2019-05-05T10:59:56Z</time>
      </trkpt>
      <trkpt lat="46.2962" lon="5.94388">
        <ele>1168</ele>
        <time>2019-05-05T10:59:58Z</time>
      </trkpt>
      <trkpt lat="46.29618" lon="5.94389">
        <ele>1169</ele>
        <time>2019-05-05T11:00:00Z</time>
      </trkpt>
      <trkpt lat="46.29619" lon="5.94391">
        <ele>1169</ele>
        <time>2019-05-05T11:00:00Z</time>
      </trkpt>
      <trkpt lat="46.2962" lon="5.94393">
        <ele>1169</ele>
        <time>2019-05-05T11:00:02Z</time>
      </trkpt>
      <trkpt lat="46.29621" lon="5.94396">
        <ele>1170</ele>
        <time>2019-05-05T11:00:04Z</time>
      </trkpt>
      <trkpt lat="46.29622" lon="5.94402">
        <ele>1171</ele>
        <time>2019-05-05T11:00:07Z</time>
      </trkpt>
      <trkpt lat="46.29622" lon="5.94404">
        <ele>1172</ele>
        <time>2019-05-05T11:00:08Z</time>
      </trkpt>
      <trkpt lat="46.2962" lon="5.9441">
        <ele>1174</ele>
        <time>2019-05-05T11:00:12Z</time>
      </trkpt>
      <trkpt lat="46.29618" lon="5.94414">
        <ele>1176</ele>
        <time>2019-05-05T11:00:14Z</time>
      </trkpt>
      <trkpt lat="46.29619" lon="5.94418">
        <ele>1177</ele>
        <time>2019-05-05T11:00:16Z</time>
      </trkpt>
      <trkpt lat="46.2962" lon="5.9442">
        <ele>1177</ele>
        <time>2019-05-05T11:00:18Z</time>
      </trkpt>
      <trkpt lat="46.29622" lon="5.94429">
        <ele>1179</ele>
        <time>2019-05-05T11:00:23Z</time>
      </trkpt>
      <trkpt lat="46.29623" lon="5.94432">
        <ele>1180</ele>
        <time>2019-05-05T11:00:25Z</time>
      </trkpt>
      <trkpt lat="46.29624" lon="5.94434">
        <ele>1180</ele>
        <time>2019-05-05T11:00:26Z</time>
      </trkpt>
      <trkpt lat="46.29625" lon="5.94435">
        <ele>1180</ele>
        <time>2019-05-05T11:00:27Z</time>
      </trkpt>
      <trkpt lat="46.29626" lon="5.94438">
        <ele>1180</ele>
        <time>2019-05-05T11:00:28Z</time>
      </trkpt>
      <trkpt lat="46.29625" lon="5.94443">
        <ele>1181</ele>
        <time>2019-05-05T11:00:31Z</time>
      </trkpt>
      <trkpt lat="46.29622" lon="5.9445">
        <ele>1184</ele>
        <time>2019-05-05T11:00:35Z</time>
      </trkpt>
      <trkpt lat="46.29628" lon="5.94457">
        <ele>1184</ele>
        <time>2019-05-05T11:00:41Z</time>
      </trkpt>
      <trkpt lat="46.29628" lon="5.94459">
        <ele>1184</ele>
        <time>2019-05-05T11:00:41Z</time>
      </trkpt>
      <trkpt lat="46.29628" lon="5.94461">
        <ele>1185</ele>
        <time>2019-05-05T11:00:43Z</time>
      </trkpt>
      <trkpt lat="46.29631" lon="5.94465">
        <ele>1185</ele>
        <time>2019-05-05T11:00:46Z</time>
      </trkpt>
      <trkpt lat="46.29632" lon="5.94467">
        <ele>1185</ele>
        <time>2019-05-05T11:00:47Z</time>
      </trkpt>
      <trkpt lat="46.29633" lon="5.94472">
        <ele>1186</ele>
        <time>2019-05-05T11:00:49Z</time>
      </trkpt>
      <trkpt lat="46.29645" lon="5.9449">
        <ele>1187</ele>
        <time>2019-05-05T11:01:02Z</time>
      </trkpt>
      <trkpt lat="46.29646" lon="5.94492">
        <ele>1187</ele>
        <time>2019-05-05T11:01:03Z</time>
      </trkpt>
      <trkpt lat="46.2965" lon="5.94495">
        <ele>1187</ele>
        <time>2019-05-05T11:01:06Z</time>
      </trkpt>
      <trkpt lat="46.29654" lon="5.94499">
        <ele>1187</ele>
        <time>2019-05-05T11:01:10Z</time>
      </trkpt>
      <trkpt lat="46.29657" lon="5.94505">
        <ele>1187</ele>
        <time>2019-05-05T11:01:13Z</time>
      </trkpt>
      <trkpt lat="46.29656" lon="5.94509">
        <ele>1189</ele>
        <time>2019-05-05T11:01:16Z</time>
      </trkpt>
      <trkpt lat="46.29659" lon="5.94514">
        <ele>1189</ele>
        <time>2019-05-05T11:01:19Z</time>
      </trkpt>
      <trkpt lat="46.29662" lon="5.94514">
        <ele>1188</ele>
        <time>2019-05-05T11:01:21Z</time>
      </trkpt>
      <trkpt lat="46.29665" lon="5.94517">
        <ele>1188</ele>
        <time>2019-05-05T11:01:24Z</time>
      </trkpt>
      <trkpt lat="46.29666" lon="5.94518">
        <ele>1188</ele>
        <time>2019-05-05T11:01:25Z</time>
      </trkpt>
      <trkpt lat="46.29669" lon="5.94519">
        <ele>1187</ele>
        <time>2019-05-05T11:01:27Z</time>
      </trkpt>
      <trkpt lat="46.29673" lon="5.94522">
        <ele>1187</ele>
        <time>2019-05-05T11:01:30Z</time>
      </trkpt>
      <trkpt lat="46.29675" lon="5.94524">
        <ele>1187</ele>
        <time>2019-05-05T11:01:32Z</time>
      </trkpt>
      <trkpt lat="46.29677" lon="5.94526">
        <ele>1187</ele>
        <time>2019-05-05T11:01:33Z</time>
      </trkpt>
      <trkpt lat="46.29677" lon="5.94533">
        <ele>1189</ele>
        <time>2019-05-05T11:01:37Z</time>
      </trkpt>
      <trkpt lat="46.29678" lon="5.94535">
        <ele>1189</ele>
        <time>2019-05-05T11:01:38Z</time>
      </trkpt>
      <trkpt lat="46.29682" lon="5.94546">
        <ele>1192</ele>
        <time>2019-05-05T11:01:45Z</time>
      </trkpt>
      <trkpt lat="46.29682" lon="5.94552">
        <ele>1193</ele>
        <time>2019-05-05T11:01:48Z</time>
      </trkpt>
      <trkpt lat="46.29682" lon="5.94553">
        <ele>1193</ele>
        <time>2019-05-05T11:01:48Z</time>
      </trkpt>
      <trkpt lat="46.29684" lon="5.94558">
        <ele>1194</ele>
        <time>2019-05-05T11:01:51Z</time>
      </trkpt>
      <trkpt lat="46.29685" lon="5.94561">
        <ele>1195</ele>
        <time>2019-05-05T11:01:53Z</time>
      </trkpt>
      <trkpt lat="46.29687" lon="5.94564">
        <ele>1195</ele>
        <time>2019-05-05T11:01:55Z</time>
      </trkpt>
      <trkpt lat="46.29689" lon="5.94566">
        <ele>1195</ele>
        <time>2019-05-05T11:01:56Z</time>
      </trkpt>
      <trkpt lat="46.29691" lon="5.94568">
        <ele>1195</ele>
        <time>2019-05-05T11:01:59Z</time>
      </trkpt>
      <trkpt lat="46.29693" lon="5.94571">
        <ele>1196</ele>
        <time>2019-05-05T11:02:01Z</time>
      </trkpt>
      <trkpt lat="46.29691" lon="5.94575">
        <ele>1197</ele>
        <time>2019-05-05T11:02:03Z</time>
      </trkpt>
      <trkpt lat="46.29692" lon="5.94577">
        <ele>1198</ele>
        <time>2019-05-05T11:02:05Z</time>
      </trkpt>
      <trkpt lat="46.29694" lon="5.9458">
        <ele>1198</ele>
        <time>2019-05-05T11:02:07Z</time>
      </trkpt>
      <trkpt lat="46.29695" lon="5.94582">
        <ele>1198</ele>
        <time>2019-05-05T11:02:08Z</time>
      </trkpt>
      <trkpt lat="46.29696" lon="5.94587">
        <ele>1199</ele>
        <time>2019-05-05T11:02:11Z</time>
      </trkpt>
      <trkpt lat="46.29696" lon="5.94589">
        <ele>1200</ele>
        <time>2019-05-05T11:02:12Z</time>
      </trkpt>
      <trkpt lat="46.29697" lon="5.94592">
        <ele>1200</ele>
        <time>2019-05-05T11:02:14Z</time>
      </trkpt>
      <trkpt lat="46.29697" lon="5.94593">
        <ele>1201</ele>
        <time>2019-05-05T11:02:15Z</time>
      </trkpt>
      <trkpt lat="46.29697" lon="5.94595">
        <ele>1201</ele>
        <time>2019-05-05T11:02:16Z</time>
      </trkpt>
      <trkpt lat="46.29699" lon="5.94597">
        <ele>1201</ele>
        <time>2019-05-05T11:02:17Z</time>
      </trkpt>
      <trkpt lat="46.29698" lon="5.94599">
        <ele>1202</ele>
        <time>2019-05-05T11:02:18Z</time>
      </trkpt>
      <trkpt lat="46.29698" lon="5.94607">
        <ele>1204</ele>
        <time>2019-05-05T11:02:23Z</time>
      </trkpt>
      <trkpt lat="46.29698" lon="5.94609">
        <ele>1204</ele>
        <time>2019-05-05T11:02:24Z</time>
      </trkpt>
      <trkpt lat="46.297" lon="5.94617">
        <ele>1205</ele>
        <time>2019-05-05T11:02:28Z</time>
      </trkpt>
      <trkpt lat="46.29701" lon="5.94621">
        <ele>1205</ele>
        <time>2019-05-05T11:02:30Z</time>
      </trkpt>
      <trkpt lat="46.297" lon="5.94624">
        <ele>1206</ele>
        <time>2019-05-05T11:02:32Z</time>
      </trkpt>
      <trkpt lat="46.29698" lon="5.9463">
        <ele>1208</ele>
        <time>2019-05-05T11:02:35Z</time>
      </trkpt>
      <trkpt lat="46.29693" lon="5.94635">
        <ele>1210</ele>
        <time>2019-05-05T11:02:40Z</time>
      </trkpt>
      <trkpt lat="46.29692" lon="5.94636">
        <ele>1211</ele>
        <time>2019-05-05T11:02:41Z</time>
      </trkpt>
      <trkpt lat="46.2969" lon="5.94638">
        <ele>1212</ele>
        <time>2019-05-05T11:02:43Z</time>
      </trkpt>
      <trkpt lat="46.29687" lon="5.9464">
        <ele>1213</ele>
        <time>2019-05-05T11:02:46Z</time>
      </trkpt>
      <trkpt lat="46.29688" lon="5.94643">
        <ele>1213</ele>
        <time>2019-05-05T11:02:47Z</time>
      </trkpt>
      <trkpt lat="46.29684" lon="5.94645">
        <ele>1214</ele>
        <time>2019-05-05T11:02:50Z</time>
      </trkpt>
      <trkpt lat="46.29679" lon="5.94646">
        <ele>1216</ele>
        <time>2019-05-05T11:02:54Z</time>
      </trkpt>
      <trkpt lat="46.29675" lon="5.94647">
        <ele>1217</ele>
        <time>2019-05-05T11:02:57Z</time>
      </trkpt>
      <trkpt lat="46.29667" lon="5.94647">
        <ele>1219</ele>
        <time>2019-05-05T11:03:03Z</time>
      </trkpt>
      <trkpt lat="46.29665" lon="5.94649">
        <ele>1219</ele>
        <time>2019-05-05T11:03:05Z</time>
      </trkpt>
      <trkpt lat="46.29661" lon="5.94649">
        <ele>1220</ele>
        <time>2019-05-05T11:03:08Z</time>
      </trkpt>
      <trkpt lat="46.29658" lon="5.94648">
        <ele>1221</ele>
        <time>2019-05-05T11:03:10Z</time>
      </trkpt>
      <trkpt lat="46.29657" lon="5.94648">
        <ele>1221</ele>
        <time>2019-05-05T11:03:11Z</time>
      </trkpt>
      <trkpt lat="46.29658" lon="5.94646">
        <ele>1221</ele>
        <time>2019-05-05T11:03:12Z</time>
      </trkpt>
      <trkpt lat="46.29653" lon="5.94647">
        <ele>1222</ele>
        <time>2019-05-05T11:03:15Z</time>
      </trkpt>
      <trkpt lat="46.29653" lon="5.94647">
        <ele>1222</ele>
        <time>2019-05-05T11:03:15Z</time>
      </trkpt>
      <trkpt lat="46.29645" lon="5.9465">
        <ele>1224</ele>
        <time>2019-05-05T11:03:21Z</time>
      </trkpt>
      <trkpt lat="46.29643" lon="5.94649">
        <ele>1225</ele>
        <time>2019-05-05T11:03:23Z</time>
      </trkpt>
      <trkpt lat="46.29641" lon="5.94649">
        <ele>1225</ele>
        <time>2019-05-05T11:03:24Z</time>
      </trkpt>
      <trkpt lat="46.29639" lon="5.94649">
        <ele>1226</ele>
        <time>2019-05-05T11:03:26Z</time>
      </trkpt>
      <trkpt lat="46.29638" lon="5.94649">
        <ele>1226</ele>
        <time>2019-05-05T11:03:27Z</time>
      </trkpt>
      <trkpt lat="46.29636" lon="5.94651">
        <ele>1227</ele>
        <time>2019-05-05T11:03:28Z</time>
      </trkpt>
      <trkpt lat="46.29635" lon="5.94652">
        <ele>1227</ele>
        <time>2019-05-05T11:03:29Z</time>
      </trkpt>
      <trkpt lat="46.29634" lon="5.94652">
        <ele>1227</ele>
        <time>2019-05-05T11:03:30Z</time>
      </trkpt>
      <trkpt lat="46.29631" lon="5.94652">
        <ele>1228</ele>
        <time>2019-05-05T11:03:32Z</time>
      </trkpt>
      <trkpt lat="46.29628" lon="5.94651">
        <ele>1229</ele>
        <time>2019-05-05T11:03:35Z</time>
      </trkpt>
      <trkpt lat="46.29626" lon="5.94651">
        <ele>1229</ele>
        <time>2019-05-05T11:03:36Z</time>
      </trkpt>
      <trkpt lat="46.29624" lon="5.9465">
        <ele>1229</ele>
        <time>2019-05-05T11:03:38Z</time>
      </trkpt>
      <trkpt lat="46.29623" lon="5.9465">
        <ele>1230</ele>
        <time>2019-05-05T11:03:39Z</time>
      </trkpt>
      <trkpt lat="46.29619" lon="5.94652">
        <ele>1231</ele>
        <time>2019-05-05T11:03:41Z</time>
      </trkpt>
      <trkpt lat="46.29616" lon="5.94655">
        <ele>1232</ele>
        <time>2019-05-05T11:03:45Z</time>
      </trkpt>
      <trkpt lat="46.29612" lon="5.94655">
        <ele>1233</ele>
        <time>2019-05-05T11:03:48Z</time>
      </trkpt>
      <trkpt lat="46.29611" lon="5.94656">
        <ele>1233</ele>
        <time>2019-05-05T11:03:48Z</time>
      </trkpt>
      <trkpt lat="46.29604" lon="5.94655">
        <ele>1235</ele>
        <time>2019-05-05T11:03:54Z</time>
      </trkpt>
      <trkpt lat="46.29603" lon="5.94655">
        <ele>1235</ele>
        <time>2019-05-05T11:03:54Z</time>
      </trkpt>
      <trkpt lat="46.29599" lon="5.94657">
        <ele>1236</ele>
        <time>2019-05-05T11:03:57Z</time>
      </trkpt>
      <trkpt lat="46.29593" lon="5.94662">
        <ele>1238</ele>
        <time>2019-05-05T11:04:02Z</time>
      </trkpt>
      <trkpt lat="46.29591" lon="5.94663">
        <ele>1239</ele>
        <time>2019-05-05T11:04:04Z</time>
      </trkpt>
      <trkpt lat="46.29583" lon="5.94665">
        <ele>1240</ele>
        <time>2019-05-05T11:04:10Z</time>
      </trkpt>
      <trkpt lat="46.2958" lon="5.94667">
        <ele>1241</ele>
        <time>2019-05-05T11:04:12Z</time>
      </trkpt>
      <trkpt lat="46.29581" lon="5.94667">
        <ele>1241</ele>
        <time>2019-05-05T11:04:13Z</time>
      </trkpt>
      <trkpt lat="46.2958" lon="5.94668">
        <ele>1241</ele>
        <time>2019-05-05T11:04:13Z</time>
      </trkpt>
      <trkpt lat="46.29578" lon="5.94668">
        <ele>1242</ele>
        <time>2019-05-05T11:04:15Z</time>
      </trkpt>
      <trkpt lat="46.29577" lon="5.94668">
        <ele>1242</ele>
        <time>2019-05-05T11:04:16Z</time>
      </trkpt>
      <trkpt lat="46.29576" lon="5.94669">
        <ele>1243</ele>
        <time>2019-05-05T11:04:17Z</time>
      </trkpt>
      <trkpt lat="46.29575" lon="5.9467">
        <ele>1243</ele>
        <time>2019-05-05T11:04:17Z</time>
      </trkpt>
      <trkpt lat="46.29574" lon="5.94671">
        <ele>1243</ele>
        <time>2019-05-05T11:04:18Z</time>
      </trkpt>
      <trkpt lat="46.29572" lon="5.94672">
        <ele>1244</ele>
        <time>2019-05-05T11:04:20Z</time>
      </trkpt>
      <trkpt lat="46.2957" lon="5.94672">
        <ele>1244</ele>
        <time>2019-05-05T11:04:21Z</time>
      </trkpt>
      <trkpt lat="46.29567" lon="5.94675">
        <ele>1245</ele>
        <time>2019-05-05T11:04:24Z</time>
      </trkpt>
      <trkpt lat="46.29565" lon="5.94677">
        <ele>1246</ele>
        <time>2019-05-05T11:04:26Z</time>
      </trkpt>
      <trkpt lat="46.29563" lon="5.94679">
        <ele>1246</ele>
        <time>2019-05-05T11:04:28Z</time>
      </trkpt>
      <trkpt lat="46.29559" lon="5.94681">
        <ele>1247</ele>
        <time>2019-05-05T11:04:31Z</time>
      </trkpt>
      <trkpt lat="46.29553" lon="5.94682">
        <ele>1249</ele>
        <time>2019-05-05T11:04:35Z</time>
      </trkpt>
      <trkpt lat="46.29553" lon="5.94681">
        <ele>1249</ele>
        <time>2019-05-05T11:04:36Z</time>
      </trkpt>
      <trkpt lat="46.29563" lon="5.94676">
        <ele>1246</ele>
        <time>2019-05-05T11:04:44Z</time>
      </trkpt>
      <trkpt lat="46.29563" lon="5.94672">
        <ele>1245</ele>
        <time>2019-05-05T11:04:46Z</time>
      </trkpt>
      <trkpt lat="46.29559" lon="5.9467">
        <ele>1246</ele>
        <time>2019-05-05T11:04:49Z</time>
      </trkpt>
      <trkpt lat="46.29557" lon="5.94669">
        <ele>1246</ele>
        <time>2019-05-05T11:04:50Z</time>
      </trkpt>
      <trkpt lat="46.29556" lon="5.94663">
        <ele>1245</ele>
        <time>2019-05-05T11:04:53Z</time>
      </trkpt>
      <trkpt lat="46.29561" lon="5.94661">
        <ele>1244</ele>
        <time>2019-05-05T11:04:57Z</time>
      </trkpt>
      <trkpt lat="46.29564" lon="5.9466">
        <ele>1243</ele>
        <time>2019-05-05T11:04:59Z</time>
      </trkpt>
      <trkpt lat="46.29565" lon="5.9466">
        <ele>1243</ele>
        <time>2019-05-05T11:05:00Z</time>
      </trkpt>
      <trkpt lat="46.29585" lon="5.94668">
        <ele>1241</ele>
        <time>2019-05-05T11:05:15Z</time>
      </trkpt>
      <trkpt lat="46.29585" lon="5.94654">
        <ele>1238</ele>
        <time>2019-05-05T11:05:23Z</time>
      </trkpt>
      <trkpt lat="46.29583" lon="5.9465">
        <ele>1238</ele>
        <time>2019-05-05T11:05:25Z</time>
      </trkpt>
      <trkpt lat="46.29585" lon="5.94648">
        <ele>1237</ele>
        <time>2019-05-05T11:05:27Z</time>
      </trkpt>
      <trkpt lat="46.29585" lon="5.94647">
        <ele>1237</ele>
        <time>2019-05-05T11:05:27Z</time>
      </trkpt>
      <trkpt lat="46.29585" lon="5.94646">
        <ele>1237</ele>
        <time>2019-05-05T11:05:28Z</time>
      </trkpt>
      <trkpt lat="46.29585" lon="5.94645">
        <ele>1236</ele>
        <time>2019-05-05T11:05:29Z</time>
      </trkpt>
      <trkpt lat="46.29587" lon="5.94644">
        <ele>1236</ele>
        <time>2019-05-05T11:05:30Z</time>
      </trkpt>
      <trkpt lat="46.29588" lon="5.94642">
        <ele>1235</ele>
        <time>2019-05-05T11:05:32Z</time>
      </trkpt>
      <trkpt lat="46.29589" lon="5.94641">
        <ele>1235</ele>
        <time>2019-05-05T11:05:33Z</time>
      </trkpt>
      <trkpt lat="46.29595" lon="5.94639">
        <ele>1233</ele>
        <time>2019-05-05T11:05:38Z</time>
      </trkpt>
      <trkpt lat="46.29602" lon="5.94634">
        <ele>1231</ele>
        <time>2019-05-05T11:05:43Z</time>
      </trkpt>
      <trkpt lat="46.29604" lon="5.94633">
        <ele>1231</ele>
        <time>2019-05-05T11:05:44Z</time>
      </trkpt>
      <trkpt lat="46.29608" lon="5.94631">
        <ele>1230</ele>
        <time>2019-05-05T11:05:47Z</time>
      </trkpt>
      <trkpt lat="46.29615" lon="5.94627">
        <ele>1227</ele>
        <time>2019-05-05T11:05:53Z</time>
      </trkpt>
      <trkpt lat="46.29614" lon="5.94626">
        <ele>1227</ele>
        <time>2019-05-05T11:05:54Z</time>
      </trkpt>
      <trkpt lat="46.29613" lon="5.94624">
        <ele>1227</ele>
        <time>2019-05-05T11:05:55Z</time>
      </trkpt>
      <trkpt lat="46.29605" lon="5.94631">
        <ele>1230</ele>
        <time>2019-05-05T11:06:02Z</time>
      </trkpt>
      <trkpt lat="46.29606" lon="5.94632">
        <ele>1230</ele>
        <time>2019-05-05T11:06:03Z</time>
      </trkpt>
      <trkpt lat="46.29596" lon="5.94636">
        <ele>1233</ele>
        <time>2019-05-05T11:06:11Z</time>
      </trkpt>
      <trkpt lat="46.29589" lon="5.94646">
        <ele>1236</ele>
        <time>2019-05-05T11:06:19Z</time>
      </trkpt>
      <trkpt lat="46.29586" lon="5.9465">
        <ele>1237</ele>
        <time>2019-05-05T11:06:21Z</time>
      </trkpt>
      <trkpt lat="46.29585" lon="5.94652">
        <ele>1238</ele>
        <time>2019-05-05T11:06:23Z</time>
      </trkpt>
      <trkpt lat="46.2958" lon="5.94656">
        <ele>1239</ele>
        <time>2019-05-05T11:06:27Z</time>
      </trkpt>
      <trkpt lat="46.29578" lon="5.94657">
        <ele>1240</ele>
        <time>2019-05-05T11:06:29Z</time>
      </trkpt>
      <trkpt lat="46.29576" lon="5.94662">
        <ele>1241</ele>
        <time>2019-05-05T11:06:32Z</time>
      </trkpt>
      <trkpt lat="46.29576" lon="5.94664">
        <ele>1242</ele>
        <time>2019-05-05T11:06:33Z</time>
      </trkpt>
      <trkpt lat="46.29575" lon="5.94665">
        <ele>1242</ele>
        <time>2019-05-05T11:06:34Z</time>
      </trkpt>
      <trkpt lat="46.29574" lon="5.94666">
        <ele>1242</ele>
        <time>2019-05-05T11:06:35Z</time>
      </trkpt>
      <trkpt lat="46.29573" lon="5.94669">
        <ele>1243</ele>
        <time>2019-05-05T11:06:37Z</time>
      </trkpt>
      <trkpt lat="46.29571" lon="5.94671">
        <ele>1244</ele>
        <time>2019-05-05T11:06:38Z</time>
      </trkpt>
      <trkpt lat="46.29568" lon="5.94671">
        <ele>1244</ele>
        <time>2019-05-05T11:06:40Z</time>
      </trkpt>
      <trkpt lat="46.29567" lon="5.94672">
        <ele>1244</ele>
        <time>2019-05-05T11:06:41Z</time>
      </trkpt>
      <trkpt lat="46.29564" lon="5.94673">
        <ele>1245</ele>
        <time>2019-05-05T11:06:44Z</time>
      </trkpt>
      <trkpt lat="46.29562" lon="5.94673">
        <ele>1246</ele>
        <time>2019-05-05T11:06:45Z</time>
      </trkpt>
      <trkpt lat="46.2956" lon="5.94676">
        <ele>1246</ele>
        <time>2019-05-05T11:06:47Z</time>
      </trkpt>
      <trkpt lat="46.29559" lon="5.94676">
        <ele>1247</ele>
        <time>2019-05-05T11:06:48Z</time>
      </trkpt>
      <trkpt lat="46.29551" lon="5.94676">
        <ele>1248</ele>
        <time>2019-05-05T11:06:54Z</time>
      </trkpt>
      <trkpt lat="46.29541" lon="5.94678">
        <ele>1250</ele>
        <time>2019-05-05T11:07:01Z</time>
      </trkpt>
      <trkpt lat="46.2954" lon="5.94678">
        <ele>1250</ele>
        <time>2019-05-05T11:07:02Z</time>
      </trkpt>
      <trkpt lat="46.29538" lon="5.94678">
        <ele>1250</ele>
        <time>2019-05-05T11:07:04Z</time>
      </trkpt>
      <trkpt lat="46.29537" lon="5.94678">
        <ele>1251</ele>
        <time>2019-05-05T11:07:05Z</time>
      </trkpt>
      <trkpt lat="46.29533" lon="5.94677">
        <ele>1251</ele>
        <time>2019-05-05T11:07:08Z</time>
      </trkpt>
      <trkpt lat="46.29532" lon="5.94677">
        <ele>1251</ele>
        <time>2019-05-05T11:07:08Z</time>
      </trkpt>
      <trkpt lat="46.29528" lon="5.9468">
        <ele>1252</ele>
        <time>2019-05-05T11:07:11Z</time>
      </trkpt>
      <trkpt lat="46.29525" lon="5.94682">
        <ele>1253</ele>
        <time>2019-05-05T11:07:14Z</time>
      </trkpt>
      <trkpt lat="46.29524" lon="5.94683">
        <ele>1254</ele>
        <time>2019-05-05T11:07:15Z</time>
      </trkpt>
      <trkpt lat="46.29521" lon="5.94685">
        <ele>1255</ele>
        <time>2019-05-05T11:07:18Z</time>
      </trkpt>
      <trkpt lat="46.29518" lon="5.94688">
        <ele>1256</ele>
        <time>2019-05-05T11:07:20Z</time>
      </trkpt>
      <trkpt lat="46.29517" lon="5.94688">
        <ele>1256</ele>
        <time>2019-05-05T11:07:21Z</time>
      </trkpt>
      <trkpt lat="46.29516" lon="5.94689">
        <ele>1256</ele>
        <time>2019-05-05T11:07:21Z</time>
      </trkpt>
      <trkpt lat="46.29514" lon="5.94687">
        <ele>1257</ele>
        <time>2019-05-05T11:07:23Z</time>
      </trkpt>
      <trkpt lat="46.29512" lon="5.94688">
        <ele>1257</ele>
        <time>2019-05-05T11:07:25Z</time>
      </trkpt>
      <trkpt lat="46.29512" lon="5.94689">
        <ele>1258</ele>
        <time>2019-05-05T11:07:25Z</time>
      </trkpt>
      <trkpt lat="46.29511" lon="5.9469">
        <ele>1258</ele>
        <time>2019-05-05T11:07:26Z</time>
      </trkpt>
      <trkpt lat="46.29512" lon="5.9469">
        <ele>1258</ele>
        <time>2019-05-05T11:07:27Z</time>
      </trkpt>
      <trkpt lat="46.29512" lon="5.94691">
        <ele>1258</ele>
        <time>2019-05-05T11:07:27Z</time>
      </trkpt>
      <trkpt lat="46.2951" lon="5.94693">
        <ele>1259</ele>
        <time>2019-05-05T11:07:29Z</time>
      </trkpt>
      <trkpt lat="46.29509" lon="5.94693">
        <ele>1259</ele>
        <time>2019-05-05T11:07:29Z</time>
      </trkpt>
      <trkpt lat="46.29508" lon="5.94693">
        <ele>1259</ele>
        <time>2019-05-05T11:07:30Z</time>
      </trkpt>
      <trkpt lat="46.29507" lon="5.94693">
        <ele>1259</ele>
        <time>2019-05-05T11:07:31Z</time>
      </trkpt>
      <trkpt lat="46.29505" lon="5.94695">
        <ele>1260</ele>
        <time>2019-05-05T11:07:32Z</time>
      </trkpt>
      <trkpt lat="46.29503" lon="5.94696">
        <ele>1261</ele>
        <time>2019-05-05T11:07:34Z</time>
      </trkpt>
      <trkpt lat="46.29501" lon="5.94701">
        <ele>1262</ele>
        <time>2019-05-05T11:07:37Z</time>
      </trkpt>
      <trkpt lat="46.295" lon="5.94702">
        <ele>1263</ele>
        <time>2019-05-05T11:07:38Z</time>
      </trkpt>
      <trkpt lat="46.29497" lon="5.94705">
        <ele>1264</ele>
        <time>2019-05-05T11:07:41Z</time>
      </trkpt>
      <trkpt lat="46.29497" lon="5.94706">
        <ele>1264</ele>
        <time>2019-05-05T11:07:41Z</time>
      </trkpt>
      <trkpt lat="46.29495" lon="5.94707">
        <ele>1265</ele>
        <time>2019-05-05T11:07:43Z</time>
      </trkpt>
      <trkpt lat="46.29493" lon="5.94709">
        <ele>1265</ele>
        <time>2019-05-05T11:07:45Z</time>
      </trkpt>
      <trkpt lat="46.29493" lon="5.9471">
        <ele>1266</ele>
        <time>2019-05-05T11:07:46Z</time>
      </trkpt>
      <trkpt lat="46.29492" lon="5.94713">
        <ele>1266</ele>
        <time>2019-05-05T11:07:47Z</time>
      </trkpt>
      <trkpt lat="46.29491" lon="5.94715">
        <ele>1267</ele>
        <time>2019-05-05T11:07:49Z</time>
      </trkpt>
      <trkpt lat="46.29489" lon="5.94716">
        <ele>1268</ele>
        <time>2019-05-05T11:07:50Z</time>
      </trkpt>
      <trkpt lat="46.29488" lon="5.94719">
        <ele>1268</ele>
        <time>2019-05-05T11:07:52Z</time>
      </trkpt>
      <trkpt lat="46.29487" lon="5.9472">
        <ele>1269</ele>
        <time>2019-05-05T11:07:53Z</time>
      </trkpt>
      <trkpt lat="46.29484" lon="5.94726">
        <ele>1270</ele>
        <time>2019-05-05T11:07:57Z</time>
      </trkpt>
      <trkpt lat="46.29479" lon="5.94731">
        <ele>1272</ele>
        <time>2019-05-05T11:08:01Z</time>
      </trkpt>
      <trkpt lat="46.29473" lon="5.94735">
        <ele>1274</ele>
        <time>2019-05-05T11:08:06Z</time>
      </trkpt>
      <trkpt lat="46.29472" lon="5.94735">
        <ele>1274</ele>
        <time>2019-05-05T11:08:07Z</time>
      </trkpt>
      <trkpt lat="46.29471" lon="5.94737">
        <ele>1274</ele>
        <time>2019-05-05T11:08:08Z</time>
      </trkpt>
      <trkpt lat="46.29469" lon="5.94739">
        <ele>1275</ele>
        <time>2019-05-05T11:08:10Z</time>
      </trkpt>
      <trkpt lat="46.29469" lon="5.9474">
        <ele>1275</ele>
        <time>2019-05-05T11:08:10Z</time>
      </trkpt>
      <trkpt lat="46.29471" lon="5.94741">
        <ele>1275</ele>
        <time>2019-05-05T11:08:12Z</time>
      </trkpt>
      <trkpt lat="46.29472" lon="5.94744">
        <ele>1275</ele>
        <time>2019-05-05T11:08:13Z</time>
      </trkpt>
      <trkpt lat="46.29471" lon="5.94747">
        <ele>1276</ele>
        <time>2019-05-05T11:08:15Z</time>
      </trkpt>
      <trkpt lat="46.2947" lon="5.94747">
        <ele>1276</ele>
        <time>2019-05-05T11:08:16Z</time>
      </trkpt>
      <trkpt lat="46.29468" lon="5.94748">
        <ele>1276</ele>
        <time>2019-05-05T11:08:18Z</time>
      </trkpt>
      <trkpt lat="46.29467" lon="5.94751">
        <ele>1277</ele>
        <time>2019-05-05T11:08:19Z</time>
      </trkpt>
      <trkpt lat="46.29465" lon="5.94752">
        <ele>1277</ele>
        <time>2019-05-05T11:08:20Z</time>
      </trkpt>
      <trkpt lat="46.29465" lon="5.94753">
        <ele>1277</ele>
        <time>2019-05-05T11:08:21Z</time>
      </trkpt>
      <trkpt lat="46.29465" lon="5.94755">
        <ele>1278</ele>
        <time>2019-05-05T11:08:22Z</time>
      </trkpt>
      <trkpt lat="46.29464" lon="5.94757">
        <ele>1278</ele>
        <time>2019-05-05T11:08:23Z</time>
      </trkpt>
      <trkpt lat="46.29465" lon="5.94758">
        <ele>1278</ele>
        <time>2019-05-05T11:08:24Z</time>
      </trkpt>
      <trkpt lat="46.29465" lon="5.94762">
        <ele>1279</ele>
        <time>2019-05-05T11:08:26Z</time>
      </trkpt>
      <trkpt lat="46.29463" lon="5.94764">
        <ele>1280</ele>
        <time>2019-05-05T11:08:28Z</time>
      </trkpt>
      <trkpt lat="46.29463" lon="5.94765">
        <ele>1280</ele>
        <time>2019-05-05T11:08:28Z</time>
      </trkpt>
      <trkpt lat="46.29464" lon="5.94768">
        <ele>1280</ele>
        <time>2019-05-05T11:08:30Z</time>
      </trkpt>
      <trkpt lat="46.29463" lon="5.9477">
        <ele>1280</ele>
        <time>2019-05-05T11:08:31Z</time>
      </trkpt>
      <trkpt lat="46.29461" lon="5.94774">
        <ele>1281</ele>
        <time>2019-05-05T11:08:34Z</time>
      </trkpt>
      <trkpt lat="46.29459" lon="5.94776">
        <ele>1282</ele>
        <time>2019-05-05T11:08:35Z</time>
      </trkpt>
      <trkpt lat="46.29459" lon="5.94778">
        <ele>1282</ele>
        <time>2019-05-05T11:08:36Z</time>
      </trkpt>
      <trkpt lat="46.29458" lon="5.94778">
        <ele>1282</ele>
        <time>2019-05-05T11:08:37Z</time>
      </trkpt>
      <trkpt lat="46.29457" lon="5.94779">
        <ele>1283</ele>
        <time>2019-05-05T11:08:38Z</time>
      </trkpt>
      <trkpt lat="46.29455" lon="5.94782">
        <ele>1283</ele>
        <time>2019-05-05T11:08:40Z</time>
      </trkpt>
      <trkpt lat="46.29456" lon="5.94783">
        <ele>1283</ele>
        <time>2019-05-05T11:08:40Z</time>
      </trkpt>
      <trkpt lat="46.29454" lon="5.94787">
        <ele>1284</ele>
        <time>2019-05-05T11:08:43Z</time>
      </trkpt>
      <trkpt lat="46.29454" lon="5.94788">
        <ele>1284</ele>
        <time>2019-05-05T11:08:43Z</time>
      </trkpt>
      <trkpt lat="46.29452" lon="5.94791">
        <ele>1285</ele>
        <time>2019-05-05T11:08:45Z</time>
      </trkpt>
      <trkpt lat="46.29452" lon="5.94792">
        <ele>1285</ele>
        <time>2019-05-05T11:08:46Z</time>
      </trkpt>
      <trkpt lat="46.29453" lon="5.94793">
        <ele>1285</ele>
        <time>2019-05-05T11:08:47Z</time>
      </trkpt>
      <trkpt lat="46.29453" lon="5.94794">
        <ele>1286</ele>
        <time>2019-05-05T11:08:48Z</time>
      </trkpt>
      <trkpt lat="46.29454" lon="5.94796">
        <ele>1286</ele>
        <time>2019-05-05T11:08:49Z</time>
      </trkpt>
      <trkpt lat="46.29453" lon="5.94798">
        <ele>1286</ele>
        <time>2019-05-05T11:08:50Z</time>
      </trkpt>
      <trkpt lat="46.29452" lon="5.94799">
        <ele>1286</ele>
        <time>2019-05-05T11:08:51Z</time>
      </trkpt>
      <trkpt lat="46.2945" lon="5.94801">
        <ele>1287</ele>
        <time>2019-05-05T11:08:53Z</time>
      </trkpt>
      <trkpt lat="46.29448" lon="5.94803">
        <ele>1288</ele>
        <time>2019-05-05T11:08:55Z</time>
      </trkpt>
      <trkpt lat="46.29448" lon="5.94806">
        <ele>1288</ele>
        <time>2019-05-05T11:08:56Z</time>
      </trkpt>
      <trkpt lat="46.29446" lon="5.94807">
        <ele>1288</ele>
        <time>2019-05-05T11:08:58Z</time>
      </trkpt>
      <trkpt lat="46.29444" lon="5.9481">
        <ele>1289</ele>
        <time>2019-05-05T11:09:00Z</time>
      </trkpt>
      <trkpt lat="46.29444" lon="5.94812">
        <ele>1289</ele>
        <time>2019-05-05T11:09:01Z</time>
      </trkpt>
      <trkpt lat="46.29444" lon="5.94813">
        <ele>1290</ele>
        <time>2019-05-05T11:09:02Z</time>
      </trkpt>
      <trkpt lat="46.29443" lon="5.94814">
        <ele>1290</ele>
        <time>2019-05-05T11:09:03Z</time>
      </trkpt>
      <trkpt lat="46.29443" lon="5.94816">
        <ele>1290</ele>
        <time>2019-05-05T11:09:04Z</time>
      </trkpt>
      <trkpt lat="46.29443" lon="5.94816">
        <ele>1290</ele>
        <time>2019-05-05T11:09:04Z</time>
      </trkpt>
      <trkpt lat="46.29442" lon="5.94818">
        <ele>1291</ele>
        <time>2019-05-05T11:09:05Z</time>
      </trkpt>
      <trkpt lat="46.29441" lon="5.94819">
        <ele>1291</ele>
        <time>2019-05-05T11:09:06Z</time>
      </trkpt>
      <trkpt lat="46.29439" lon="5.9482">
        <ele>1291</ele>
        <time>2019-05-05T11:09:08Z</time>
      </trkpt>
      <trkpt lat="46.29439" lon="5.94823">
        <ele>1292</ele>
        <time>2019-05-05T11:09:09Z</time>
      </trkpt>
      <trkpt lat="46.29438" lon="5.94826">
        <ele>1293</ele>
        <time>2019-05-05T11:09:11Z</time>
      </trkpt>
      <trkpt lat="46.29434" lon="5.94832">
        <ele>1295</ele>
        <time>2019-05-05T11:09:16Z</time>
      </trkpt>
      <trkpt lat="46.29433" lon="5.94834">
        <ele>1295</ele>
        <time>2019-05-05T11:09:16Z</time>
      </trkpt>
      <trkpt lat="46.29433" lon="5.94836">
        <ele>1295</ele>
        <time>2019-05-05T11:09:18Z</time>
      </trkpt>
      <trkpt lat="46.29432" lon="5.94839">
        <ele>1296</ele>
        <time>2019-05-05T11:09:19Z</time>
      </trkpt>
      <trkpt lat="46.29431" lon="5.94841">
        <ele>1297</ele>
        <time>2019-05-05T11:09:21Z</time>
      </trkpt>
      <trkpt lat="46.2943" lon="5.94842">
        <ele>1297</ele>
        <time>2019-05-05T11:09:22Z</time>
      </trkpt>
      <trkpt lat="46.29427" lon="5.94841">
        <ele>1298</ele>
        <time>2019-05-05T11:09:24Z</time>
      </trkpt>
      <trkpt lat="46.29427" lon="5.94844">
        <ele>1298</ele>
        <time>2019-05-05T11:09:26Z</time>
      </trkpt>
      <trkpt lat="46.29428" lon="5.94848">
        <ele>1299</ele>
        <time>2019-05-05T11:09:28Z</time>
      </trkpt>
      <trkpt lat="46.29427" lon="5.9485">
        <ele>1299</ele>
        <time>2019-05-05T11:09:29Z</time>
      </trkpt>
      <trkpt lat="46.29426" lon="5.94853">
        <ele>1300</ele>
        <time>2019-05-05T11:09:30Z</time>
      </trkpt>
      <trkpt lat="46.29426" lon="5.94853">
        <ele>1300</ele>
        <time>2019-05-05T11:09:31Z</time>
      </trkpt>
      <trkpt lat="46.29425" lon="5.94856">
        <ele>1301</ele>
        <time>2019-05-05T11:09:32Z</time>
      </trkpt>
      <trkpt lat="46.29425" lon="5.94859">
        <ele>1302</ele>
        <time>2019-05-05T11:09:34Z</time>
      </trkpt>
      <trkpt lat="46.29423" lon="5.94864">
        <ele>1303</ele>
        <time>2019-05-05T11:09:37Z</time>
      </trkpt>
      <trkpt lat="46.29422" lon="5.94864">
        <ele>1303</ele>
        <time>2019-05-05T11:09:37Z</time>
      </trkpt>
      <trkpt lat="46.29421" lon="5.94865">
        <ele>1304</ele>
        <time>2019-05-05T11:09:39Z</time>
      </trkpt>
      <trkpt lat="46.29416" lon="5.94867">
        <ele>1305</ele>
        <time>2019-05-05T11:09:42Z</time>
      </trkpt>
      <trkpt lat="46.29413" lon="5.94869">
        <ele>1307</ele>
        <time>2019-05-05T11:09:46Z</time>
      </trkpt>
      <trkpt lat="46.29413" lon="5.94867">
        <ele>1306</ele>
        <time>2019-05-05T11:09:47Z</time>
      </trkpt>
      <trkpt lat="46.29411" lon="5.94869">
        <ele>1307</ele>
        <time>2019-05-05T11:09:49Z</time>
      </trkpt>
      <trkpt lat="46.29409" lon="5.94871">
        <ele>1308</ele>
        <time>2019-05-05T11:09:51Z</time>
      </trkpt>
      <trkpt lat="46.29408" lon="5.94871">
        <ele>1308</ele>
        <time>2019-05-05T11:09:52Z</time>
      </trkpt>
      <trkpt lat="46.29408" lon="5.94872">
        <ele>1309</ele>
        <time>2019-05-05T11:09:52Z</time>
      </trkpt>
      <trkpt lat="46.29407" lon="5.94874">
        <ele>1309</ele>
        <time>2019-05-05T11:09:54Z</time>
      </trkpt>
      <trkpt lat="46.29406" lon="5.94876">
        <ele>1310</ele>
        <time>2019-05-05T11:09:55Z</time>
      </trkpt>
      <trkpt lat="46.29405" lon="5.94878">
        <ele>1310</ele>
        <time>2019-05-05T11:09:56Z</time>
      </trkpt>
      <trkpt lat="46.29403" lon="5.94882">
        <ele>1312</ele>
        <time>2019-05-05T11:09:59Z</time>
      </trkpt>
      <trkpt lat="46.29402" lon="5.94883">
        <ele>1312</ele>
        <time>2019-05-05T11:10:00Z</time>
      </trkpt>
      <trkpt lat="46.29401" lon="5.94886">
        <ele>1313</ele>
        <time>2019-05-05T11:10:02Z</time>
      </trkpt>
      <trkpt lat="46.29402" lon="5.94888">
        <ele>1313</ele>
        <time>2019-05-05T11:10:03Z</time>
      </trkpt>
      <trkpt lat="46.29402" lon="5.94889">
        <ele>1313</ele>
        <time>2019-05-05T11:10:03Z</time>
      </trkpt>
      <trkpt lat="46.29403" lon="5.94891">
        <ele>1314</ele>
        <time>2019-05-05T11:10:05Z</time>
      </trkpt>
      <trkpt lat="46.29402" lon="5.94893">
        <ele>1314</ele>
        <time>2019-05-05T11:10:06Z</time>
      </trkpt>
      <trkpt lat="46.29401" lon="5.94897">
        <ele>1315</ele>
        <time>2019-05-05T11:10:08Z</time>
      </trkpt>
      <trkpt lat="46.29399" lon="5.94901">
        <ele>1316</ele>
        <time>2019-05-05T11:10:10Z</time>
      </trkpt>
      <trkpt lat="46.29398" lon="5.94903">
        <ele>1317</ele>
        <time>2019-05-05T11:10:12Z</time>
      </trkpt>
      <trkpt lat="46.29394" lon="5.94907">
        <ele>1318</ele>
        <time>2019-05-05T11:10:15Z</time>
      </trkpt>
      <trkpt lat="46.29393" lon="5.94911">
        <ele>1319</ele>
        <time>2019-05-05T11:10:17Z</time>
      </trkpt>
      <trkpt lat="46.29391" lon="5.94912">
        <ele>1320</ele>
        <time>2019-05-05T11:10:19Z</time>
      </trkpt>
      <trkpt lat="46.29389" lon="5.94913">
        <ele>1320</ele>
        <time>2019-05-05T11:10:20Z</time>
      </trkpt>
      <trkpt lat="46.29389" lon="5.94915">
        <ele>1321</ele>
        <time>2019-05-05T11:10:22Z</time>
      </trkpt>
      <trkpt lat="46.29388" lon="5.94917">
        <ele>1321</ele>
        <time>2019-05-05T11:10:23Z</time>
      </trkpt>
      <trkpt lat="46.29386" lon="5.94919">
        <ele>1322</ele>
        <time>2019-05-05T11:10:24Z</time>
      </trkpt>
      <trkpt lat="46.29387" lon="5.94919">
        <ele>1322</ele>
        <time>2019-05-05T11:10:24Z</time>
      </trkpt>
      <trkpt lat="46.29387" lon="5.94919">
        <ele>1322</ele>
        <time>2019-05-05T11:10:25Z</time>
      </trkpt>
      <trkpt lat="46.29386" lon="5.9492">
        <ele>1322</ele>
        <time>2019-05-05T11:10:25Z</time>
      </trkpt>
      <trkpt lat="46.29385" lon="5.94921">
        <ele>1323</ele>
        <time>2019-05-05T11:10:27Z</time>
      </trkpt>
      <trkpt lat="46.29384" lon="5.94921">
        <ele>1323</ele>
        <time>2019-05-05T11:10:27Z</time>
      </trkpt>
      <trkpt lat="46.2938" lon="5.94925">
        <ele>1324</ele>
        <time>2019-05-05T11:10:31Z</time>
      </trkpt>
      <trkpt lat="46.29378" lon="5.94926">
        <ele>1325</ele>
        <time>2019-05-05T11:10:33Z</time>
      </trkpt>
      <trkpt lat="46.29374" lon="5.94928">
        <ele>1326</ele>
        <time>2019-05-05T11:10:35Z</time>
      </trkpt>
      <trkpt lat="46.29373" lon="5.9493">
        <ele>1326</ele>
        <time>2019-05-05T11:10:36Z</time>
      </trkpt>
      <trkpt lat="46.2937" lon="5.9493">
        <ele>1327</ele>
        <time>2019-05-05T11:10:39Z</time>
      </trkpt>
      <trkpt lat="46.29367" lon="5.94932">
        <ele>1328</ele>
        <time>2019-05-05T11:10:41Z</time>
      </trkpt>
      <trkpt lat="46.29365" lon="5.94933">
        <ele>1328</ele>
        <time>2019-05-05T11:10:43Z</time>
      </trkpt>
      <trkpt lat="46.29365" lon="5.94934">
        <ele>1328</ele>
        <time>2019-05-05T11:10:44Z</time>
      </trkpt>
      <trkpt lat="46.29366" lon="5.94936">
        <ele>1329</ele>
        <time>2019-05-05T11:10:45Z</time>
      </trkpt>
      <trkpt lat="46.29365" lon="5.94937">
        <ele>1329</ele>
        <time>2019-05-05T11:10:45Z</time>
      </trkpt>
      <trkpt lat="46.29364" lon="5.94937">
        <ele>1329</ele>
        <time>2019-05-05T11:10:46Z</time>
      </trkpt>
      <trkpt lat="46.29362" lon="5.94937">
        <ele>1330</ele>
        <time>2019-05-05T11:10:48Z</time>
      </trkpt>
      <trkpt lat="46.29361" lon="5.94937">
        <ele>1330</ele>
        <time>2019-05-05T11:10:49Z</time>
      </trkpt>
      <trkpt lat="46.2936" lon="5.94937">
        <ele>1330</ele>
        <time>2019-05-05T11:10:49Z</time>
      </trkpt>
      <trkpt lat="46.29357" lon="5.94938">
        <ele>1331</ele>
        <time>2019-05-05T11:10:52Z</time>
      </trkpt>
      <trkpt lat="46.29357" lon="5.94942">
        <ele>1331</ele>
        <time>2019-05-05T11:10:53Z</time>
      </trkpt>
      <trkpt lat="46.29357" lon="5.94944">
        <ele>1332</ele>
        <time>2019-05-05T11:10:55Z</time>
      </trkpt>
      <trkpt lat="46.29355" lon="5.94947">
        <ele>1333</ele>
        <time>2019-05-05T11:10:57Z</time>
      </trkpt>
      <trkpt lat="46.29356" lon="5.94948">
        <ele>1333</ele>
        <time>2019-05-05T11:10:58Z</time>
      </trkpt>
      <trkpt lat="46.29353" lon="5.94949">
        <ele>1333</ele>
        <time>2019-05-05T11:11:00Z</time>
      </trkpt>
      <trkpt lat="46.29351" lon="5.94951">
        <ele>1334</ele>
        <time>2019-05-05T11:11:02Z</time>
      </trkpt>
      <trkpt lat="46.29349" lon="5.94954">
        <ele>1336</ele>
        <time>2019-05-05T11:11:05Z</time>
      </trkpt>
      <trkpt lat="46.29347" lon="5.94955">
        <ele>1336</ele>
        <time>2019-05-05T11:11:06Z</time>
      </trkpt>
      <trkpt lat="46.29346" lon="5.94959">
        <ele>1337</ele>
        <time>2019-05-05T11:11:08Z</time>
      </trkpt>
      <trkpt lat="46.29346" lon="5.9496">
        <ele>1338</ele>
        <time>2019-05-05T11:11:09Z</time>
      </trkpt>
      <trkpt lat="46.29345" lon="5.94962">
        <ele>1338</ele>
        <time>2019-05-05T11:11:10Z</time>
      </trkpt>
      <trkpt lat="46.29344" lon="5.94965">
        <ele>1339</ele>
        <time>2019-05-05T11:11:12Z</time>
      </trkpt>
      <trkpt lat="46.29345" lon="5.94969">
        <ele>1339</ele>
        <time>2019-05-05T11:11:14Z</time>
      </trkpt>
      <trkpt lat="46.29344" lon="5.94974">
        <ele>1340</ele>
        <time>2019-05-05T11:11:16Z</time>
      </trkpt>
      <trkpt lat="46.29345" lon="5.94977">
        <ele>1341</ele>
        <time>2019-05-05T11:11:18Z</time>
      </trkpt>
      <trkpt lat="46.29344" lon="5.9498">
        <ele>1341</ele>
        <time>2019-05-05T11:11:20Z</time>
      </trkpt>
      <trkpt lat="46.29343" lon="5.94984">
        <ele>1343</ele>
        <time>2019-05-05T11:11:23Z</time>
      </trkpt>
      <trkpt lat="46.29342" lon="5.94988">
        <ele>1343</ele>
        <time>2019-05-05T11:11:25Z</time>
      </trkpt>
      <trkpt lat="46.2934" lon="5.94992">
        <ele>1345</ele>
        <time>2019-05-05T11:11:27Z</time>
      </trkpt>
      <trkpt lat="46.29335" lon="5.94998">
        <ele>1347</ele>
        <time>2019-05-05T11:11:32Z</time>
      </trkpt>
      <trkpt lat="46.29331" lon="5.95001">
        <ele>1348</ele>
        <time>2019-05-05T11:11:35Z</time>
      </trkpt>
      <trkpt lat="46.2933" lon="5.95004">
        <ele>1349</ele>
        <time>2019-05-05T11:11:37Z</time>
      </trkpt>
      <trkpt lat="46.29328" lon="5.9501">
        <ele>1351</ele>
        <time>2019-05-05T11:11:41Z</time>
      </trkpt>
      <trkpt lat="46.29324" lon="5.95016">
        <ele>1353</ele>
        <time>2019-05-05T11:11:45Z</time>
      </trkpt>
      <trkpt lat="46.29322" lon="5.95019">
        <ele>1354</ele>
        <time>2019-05-05T11:11:47Z</time>
      </trkpt>
      <trkpt lat="46.2932" lon="5.95023">
        <ele>1355</ele>
        <time>2019-05-05T11:11:50Z</time>
      </trkpt>
      <trkpt lat="46.29319" lon="5.95027">
        <ele>1356</ele>
        <time>2019-05-05T11:11:52Z</time>
      </trkpt>
      <trkpt lat="46.29313" lon="5.95031">
        <ele>1358</ele>
        <time>2019-05-05T11:11:57Z</time>
      </trkpt>
      <trkpt lat="46.29311" lon="5.95032">
        <ele>1359</ele>
        <time>2019-05-05T11:11:59Z</time>
      </trkpt>
      <trkpt lat="46.2931" lon="5.95037">
        <ele>1360</ele>
        <time>2019-05-05T11:12:01Z</time>
      </trkpt>
      <trkpt lat="46.29308" lon="5.9504">
        <ele>1361</ele>
        <time>2019-05-05T11:12:04Z</time>
      </trkpt>
      <trkpt lat="46.29306" lon="5.95043">
        <ele>1362</ele>
        <time>2019-05-05T11:12:06Z</time>
      </trkpt>
      <trkpt lat="46.29306" lon="5.95045">
        <ele>1362</ele>
        <time>2019-05-05T11:12:07Z</time>
      </trkpt>
      <trkpt lat="46.29305" lon="5.95047">
        <ele>1363</ele>
        <time>2019-05-05T11:12:08Z</time>
      </trkpt>
      <trkpt lat="46.29302" lon="5.9505">
        <ele>1364</ele>
        <time>2019-05-05T11:12:11Z</time>
      </trkpt>
      <trkpt lat="46.29302" lon="5.95052">
        <ele>1364</ele>
        <time>2019-05-05T11:12:12Z</time>
      </trkpt>
      <trkpt lat="46.293" lon="5.95056">
        <ele>1366</ele>
        <time>2019-05-05T11:12:15Z</time>
      </trkpt>
      <trkpt lat="46.29297" lon="5.9506">
        <ele>1367</ele>
        <time>2019-05-05T11:12:18Z</time>
      </trkpt>
      <trkpt lat="46.29295" lon="5.95064">
        <ele>1368</ele>
        <time>2019-05-05T11:12:20Z</time>
      </trkpt>
      <trkpt lat="46.29295" lon="5.95066">
        <ele>1369</ele>
        <time>2019-05-05T11:12:22Z</time>
      </trkpt>
      <trkpt lat="46.29294" lon="5.9507">
        <ele>1369</ele>
        <time>2019-05-05T11:12:23Z</time>
      </trkpt>
      <trkpt lat="46.2929" lon="5.95074">
        <ele>1371</ele>
        <time>2019-05-05T11:12:27Z</time>
      </trkpt>
      <trkpt lat="46.29287" lon="5.95086">
        <ele>1374</ele>
        <time>2019-05-05T11:12:34Z</time>
      </trkpt>
      <trkpt lat="46.29287" lon="5.95089">
        <ele>1374</ele>
        <time>2019-05-05T11:12:35Z</time>
      </trkpt>
      <trkpt lat="46.29287" lon="5.95093">
        <ele>1375</ele>
        <time>2019-05-05T11:12:37Z</time>
      </trkpt>
      <trkpt lat="46.29287" lon="5.95097">
        <ele>1375</ele>
        <time>2019-05-05T11:12:39Z</time>
      </trkpt>
      <trkpt lat="46.29287" lon="5.951">
        <ele>1376</ele>
        <time>2019-05-05T11:12:41Z</time>
      </trkpt>
      <trkpt lat="46.29286" lon="5.95101">
        <ele>1376</ele>
        <time>2019-05-05T11:12:42Z</time>
      </trkpt>
      <trkpt lat="46.29285" lon="5.95105">
        <ele>1377</ele>
        <time>2019-05-05T11:12:44Z</time>
      </trkpt>
      <trkpt lat="46.29283" lon="5.95108">
        <ele>1378</ele>
        <time>2019-05-05T11:12:46Z</time>
      </trkpt>
      <trkpt lat="46.29282" lon="5.9511">
        <ele>1379</ele>
        <time>2019-05-05T11:12:48Z</time>
      </trkpt>
      <trkpt lat="46.29282" lon="5.95112">
        <ele>1380</ele>
        <time>2019-05-05T11:12:48Z</time>
      </trkpt>
      <trkpt lat="46.29279" lon="5.95116">
        <ele>1381</ele>
        <time>2019-05-05T11:12:51Z</time>
      </trkpt>
      <trkpt lat="46.29277" lon="5.95118">
        <ele>1382</ele>
        <time>2019-05-05T11:12:53Z</time>
      </trkpt>
      <trkpt lat="46.29275" lon="5.9512">
        <ele>1383</ele>
        <time>2019-05-05T11:12:55Z</time>
      </trkpt>
      <trkpt lat="46.29273" lon="5.95122">
        <ele>1384</ele>
        <time>2019-05-05T11:12:57Z</time>
      </trkpt>
      <trkpt lat="46.29271" lon="5.95126">
        <ele>1385</ele>
        <time>2019-05-05T11:13:00Z</time>
      </trkpt>
      <trkpt lat="46.29268" lon="5.95129">
        <ele>1387</ele>
        <time>2019-05-05T11:13:02Z</time>
      </trkpt>
      <trkpt lat="46.29264" lon="5.95131">
        <ele>1388</ele>
        <time>2019-05-05T11:13:06Z</time>
      </trkpt>
      <trkpt lat="46.29261" lon="5.9513">
        <ele>1389</ele>
        <time>2019-05-05T11:13:08Z</time>
      </trkpt>
      <trkpt lat="46.29255" lon="5.95133">
        <ele>1391</ele>
        <time>2019-05-05T11:13:13Z</time>
      </trkpt>
      <trkpt lat="46.29253" lon="5.95135">
        <ele>1392</ele>
        <time>2019-05-05T11:13:15Z</time>
      </trkpt>
      <trkpt lat="46.29249" lon="5.95139">
        <ele>1393</ele>
        <time>2019-05-05T11:13:18Z</time>
      </trkpt>
      <trkpt lat="46.29246" lon="5.95142">
        <ele>1395</ele>
        <time>2019-05-05T11:13:21Z</time>
      </trkpt>
      <trkpt lat="46.29245" lon="5.95143">
        <ele>1395</ele>
        <time>2019-05-05T11:13:22Z</time>
      </trkpt>
      <trkpt lat="46.29244" lon="5.95143">
        <ele>1395</ele>
        <time>2019-05-05T11:13:23Z</time>
      </trkpt>
      <trkpt lat="46.29241" lon="5.95144">
        <ele>1396</ele>
        <time>2019-05-05T11:13:25Z</time>
      </trkpt>
      <trkpt lat="46.29237" lon="5.95143">
        <ele>1397</ele>
        <time>2019-05-05T11:13:28Z</time>
      </trkpt>
      <trkpt lat="46.29233" lon="5.95142">
        <ele>1398</ele>
        <time>2019-05-05T11:13:31Z</time>
      </trkpt>
      <trkpt lat="46.2923" lon="5.95141">
        <ele>1398</ele>
        <time>2019-05-05T11:13:34Z</time>
      </trkpt>
      <trkpt lat="46.29226" lon="5.95142">
        <ele>1399</ele>
        <time>2019-05-05T11:13:36Z</time>
      </trkpt>
      <trkpt lat="46.29223" lon="5.95144">
        <ele>1400</ele>
        <time>2019-05-05T11:13:38Z</time>
      </trkpt>
      <trkpt lat="46.29222" lon="5.95144">
        <ele>1401</ele>
        <time>2019-05-05T11:13:40Z</time>
      </trkpt>
      <trkpt lat="46.29221" lon="5.95144">
        <ele>1401</ele>
        <time>2019-05-05T11:13:40Z</time>
      </trkpt>
      <trkpt lat="46.29218" lon="5.95144">
        <ele>1402</ele>
        <time>2019-05-05T11:13:43Z</time>
      </trkpt>
      <trkpt lat="46.29217" lon="5.95145">
        <ele>1402</ele>
        <time>2019-05-05T11:13:44Z</time>
      </trkpt>
      <trkpt lat="46.29214" lon="5.95145">
        <ele>1403</ele>
        <time>2019-05-05T11:13:46Z</time>
      </trkpt>
      <trkpt lat="46.2921" lon="5.95148">
        <ele>1404</ele>
        <time>2019-05-05T11:13:49Z</time>
      </trkpt>
      <trkpt lat="46.29205" lon="5.95148">
        <ele>1405</ele>
        <time>2019-05-05T11:13:52Z</time>
      </trkpt>
      <trkpt lat="46.29203" lon="5.95148">
        <ele>1405</ele>
        <time>2019-05-05T11:13:54Z</time>
      </trkpt>
      <trkpt lat="46.29199" lon="5.9515">
        <ele>1407</ele>
        <time>2019-05-05T11:13:57Z</time>
      </trkpt>
      <trkpt lat="46.29192" lon="5.95152">
        <ele>1408</ele>
        <time>2019-05-05T11:14:02Z</time>
      </trkpt>
      <trkpt lat="46.29187" lon="5.95155">
        <ele>1410</ele>
        <time>2019-05-05T11:14:07Z</time>
      </trkpt>
      <trkpt lat="46.29185" lon="5.95156">
        <ele>1410</ele>
        <time>2019-05-05T11:14:08Z</time>
      </trkpt>
      <trkpt lat="46.29182" lon="5.9516">
        <ele>1411</ele>
        <time>2019-05-05T11:14:11Z</time>
      </trkpt>
      <trkpt lat="46.2918" lon="5.9516">
        <ele>1412</ele>
        <time>2019-05-05T11:14:13Z</time>
      </trkpt>
      <trkpt lat="46.29175" lon="5.95167">
        <ele>1413</ele>
        <time>2019-05-05T11:14:18Z</time>
      </trkpt>
      <trkpt lat="46.29167" lon="5.95175">
        <ele>1415</ele>
        <time>2019-05-05T11:14:25Z</time>
      </trkpt>
      <trkpt lat="46.29165" lon="5.95178">
        <ele>1416</ele>
        <time>2019-05-05T11:14:27Z</time>
      </trkpt>
      <trkpt lat="46.29157" lon="5.95189">
        <ele>1419</ele>
        <time>2019-05-05T11:14:35Z</time>
      </trkpt>
      <trkpt lat="46.29153" lon="5.95194">
        <ele>1420</ele>
        <time>2019-05-05T11:14:39Z</time>
      </trkpt>
      <trkpt lat="46.29147" lon="5.95206">
        <ele>1423</ele>
        <time>2019-05-05T11:14:47Z</time>
      </trkpt>
      <trkpt lat="46.29147" lon="5.95207">
        <ele>1424</ele>
        <time>2019-05-05T11:14:48Z</time>
      </trkpt>
      <trkpt lat="46.29144" lon="5.95213">
        <ele>1425</ele>
        <time>2019-05-05T11:14:51Z</time>
      </trkpt>
      <trkpt lat="46.29142" lon="5.95215">
        <ele>1425</ele>
        <time>2019-05-05T11:14:53Z</time>
      </trkpt>
      <trkpt lat="46.29141" lon="5.95215">
        <ele>1426</ele>
        <time>2019-05-05T11:14:54Z</time>
      </trkpt>
      <trkpt lat="46.2914" lon="5.95217">
        <ele>1426</ele>
        <time>2019-05-05T11:14:55Z</time>
      </trkpt>
      <trkpt lat="46.29139" lon="5.95218">
        <ele>1426</ele>
        <time>2019-05-05T11:14:56Z</time>
      </trkpt>
      <trkpt lat="46.29138" lon="5.95218">
        <ele>1427</ele>
        <time>2019-05-05T11:14:57Z</time>
      </trkpt>
      <trkpt lat="46.29137" lon="5.95219">
        <ele>1427</ele>
        <time>2019-05-05T11:14:58Z</time>
      </trkpt>
      <trkpt lat="46.29137" lon="5.9522">
        <ele>1427</ele>
        <time>2019-05-05T11:14:59Z</time>
      </trkpt>
      <trkpt lat="46.29135" lon="5.95221">
        <ele>1428</ele>
        <time>2019-05-05T11:15:00Z</time>
      </trkpt>
      <trkpt lat="46.29133" lon="5.95223">
        <ele>1428</ele>
        <time>2019-05-05T11:15:02Z</time>
      </trkpt>
      <trkpt lat="46.29129" lon="5.95225">
        <ele>1429</ele>
        <time>2019-05-05T11:15:05Z</time>
      </trkpt>
      <trkpt lat="46.29127" lon="5.9523">
        <ele>1430</ele>
        <time>2019-05-05T11:15:08Z</time>
      </trkpt>
      <trkpt lat="46.29126" lon="5.95234">
        <ele>1431</ele>
        <time>2019-05-05T11:15:10Z</time>
      </trkpt>
      <trkpt lat="46.29124" lon="5.95236">
        <ele>1432</ele>
        <time>2019-05-05T11:15:12Z</time>
      </trkpt>
      <trkpt lat="46.29119" lon="5.95239">
        <ele>1433</ele>
        <time>2019-05-05T11:15:16Z</time>
      </trkpt>
      <trkpt lat="46.29116" lon="5.95241">
        <ele>1434</ele>
        <time>2019-05-05T11:15:18Z</time>
      </trkpt>
      <trkpt lat="46.29116" lon="5.95245">
        <ele>1434</ele>
        <time>2019-05-05T11:15:20Z</time>
      </trkpt>
      <trkpt lat="46.29114" lon="5.95248">
        <ele>1435</ele>
        <time>2019-05-05T11:15:22Z</time>
      </trkpt>
      <trkpt lat="46.29111" lon="5.9525">
        <ele>1436</ele>
        <time>2019-05-05T11:15:25Z</time>
      </trkpt>
      <trkpt lat="46.2911" lon="5.95253">
        <ele>1436</ele>
        <time>2019-05-05T11:15:26Z</time>
      </trkpt>
      <trkpt lat="46.29106" lon="5.95256">
        <ele>1437</ele>
        <time>2019-05-05T11:15:29Z</time>
      </trkpt>
      <trkpt lat="46.29101" lon="5.9526">
        <ele>1439</ele>
        <time>2019-05-05T11:15:34Z</time>
      </trkpt>
      <trkpt lat="46.291" lon="5.95262">
        <ele>1439</ele>
        <time>2019-05-05T11:15:35Z</time>
      </trkpt>
      <trkpt lat="46.29096" lon="5.95268">
        <ele>1441</ele>
        <time>2019-05-05T11:15:40Z</time>
      </trkpt>
      <trkpt lat="46.29096" lon="5.95269">
        <ele>1441</ele>
        <time>2019-05-05T11:15:40Z</time>
      </trkpt>
      <trkpt lat="46.29091" lon="5.95277">
        <ele>1443</ele>
        <time>2019-05-05T11:15:45Z</time>
      </trkpt>
      <trkpt lat="46.29086" lon="5.95283">
        <ele>1444</ele>
        <time>2019-05-05T11:15:50Z</time>
      </trkpt>
      <trkpt lat="46.29081" lon="5.95288">
        <ele>1445</ele>
        <time>2019-05-05T11:15:54Z</time>
      </trkpt>
      <trkpt lat="46.29078" lon="5.95294">
        <ele>1446</ele>
        <time>2019-05-05T11:15:58Z</time>
      </trkpt>
      <trkpt lat="46.29074" lon="5.95297">
        <ele>1447</ele>
        <time>2019-05-05T11:16:01Z</time>
      </trkpt>
      <trkpt lat="46.29073" lon="5.95302">
        <ele>1448</ele>
        <time>2019-05-05T11:16:04Z</time>
      </trkpt>
      <trkpt lat="46.29069" lon="5.95309">
        <ele>1449</ele>
        <time>2019-05-05T11:16:09Z</time>
      </trkpt>
      <trkpt lat="46.29065" lon="5.95311">
        <ele>1450</ele>
        <time>2019-05-05T11:16:11Z</time>
      </trkpt>
      <trkpt lat="46.29063" lon="5.95313">
        <ele>1450</ele>
        <time>2019-05-05T11:16:13Z</time>
      </trkpt>
      <trkpt lat="46.29061" lon="5.95316">
        <ele>1451</ele>
        <time>2019-05-05T11:16:16Z</time>
      </trkpt>
      <trkpt lat="46.2906" lon="5.95317">
        <ele>1451</ele>
        <time>2019-05-05T11:16:16Z</time>
      </trkpt>
      <trkpt lat="46.29059" lon="5.95319">
        <ele>1451</ele>
        <time>2019-05-05T11:16:18Z</time>
      </trkpt>
      <trkpt lat="46.29056" lon="5.95322">
        <ele>1452</ele>
        <time>2019-05-05T11:16:20Z</time>
      </trkpt>
      <trkpt lat="46.29054" lon="5.95325">
        <ele>1453</ele>
        <time>2019-05-05T11:16:23Z</time>
      </trkpt>
      <trkpt lat="46.29052" lon="5.9533">
        <ele>1453</ele>
        <time>2019-05-05T11:16:26Z</time>
      </trkpt>
      <trkpt lat="46.29048" lon="5.95333">
        <ele>1454</ele>
        <time>2019-05-05T11:16:29Z</time>
      </trkpt>
      <trkpt lat="46.29047" lon="5.95333">
        <ele>1454</ele>
        <time>2019-05-05T11:16:30Z</time>
      </trkpt>
      <trkpt lat="46.29043" lon="5.95335">
        <ele>1455</ele>
        <time>2019-05-05T11:16:32Z</time>
      </trkpt>
      <trkpt lat="46.29039" lon="5.95336">
        <ele>1456</ele>
        <time>2019-05-05T11:16:36Z</time>
      </trkpt>
      <trkpt lat="46.29035" lon="5.95335">
        <ele>1456</ele>
        <time>2019-05-05T11:16:38Z</time>
      </trkpt>
      <trkpt lat="46.29028" lon="5.95317">
        <ele>1456</ele>
        <time>2019-05-05T11:16:48Z</time>
      </trkpt>
      <trkpt lat="46.29021" lon="5.95314">
        <ele>1457</ele>
        <time>2019-05-05T11:16:54Z</time>
      </trkpt>
      <trkpt lat="46.29018" lon="5.95313">
        <ele>1458</ele>
        <time>2019-05-05T11:16:56Z</time>
      </trkpt>
      <trkpt lat="46.29016" lon="5.95311">
        <ele>1458</ele>
        <time>2019-05-05T11:16:58Z</time>
      </trkpt>
      <trkpt lat="46.29013" lon="5.95309">
        <ele>1459</ele>
        <time>2019-05-05T11:17:00Z</time>
      </trkpt>
      <trkpt lat="46.2901" lon="5.95307">
        <ele>1459</ele>
        <time>2019-05-05T11:17:03Z</time>
      </trkpt>
      <trkpt lat="46.29008" lon="5.95306">
        <ele>1459</ele>
        <time>2019-05-05T11:17:04Z</time>
      </trkpt>
      <trkpt lat="46.29002" lon="5.95302">
        <ele>1460</ele>
        <time>2019-05-05T11:17:09Z</time>
      </trkpt>
      <trkpt lat="46.28991" lon="5.95298">
        <ele>1462</ele>
        <time>2019-05-05T11:17:17Z</time>
      </trkpt>
      <trkpt lat="46.28988" lon="5.95296">
        <ele>1462</ele>
        <time>2019-05-05T11:17:20Z</time>
      </trkpt>
      <trkpt lat="46.28979" lon="5.95284">
        <ele>1463</ele>
        <time>2019-05-05T11:17:29Z</time>
      </trkpt>
      <trkpt lat="46.28979" lon="5.95281">
        <ele>1463</ele>
        <time>2019-05-05T11:17:30Z</time>
      </trkpt>
      <trkpt lat="46.28978" lon="5.95276">
        <ele>1462</ele>
        <time>2019-05-05T11:17:33Z</time>
      </trkpt>
      <trkpt lat="46.28974" lon="5.95268">
        <ele>1463</ele>
        <time>2019-05-05T11:17:38Z</time>
      </trkpt>
      <trkpt lat="46.28968" lon="5.9526">
        <ele>1463</ele>
        <time>2019-05-05T11:17:44Z</time>
      </trkpt>
      <trkpt lat="46.28965" lon="5.95257">
        <ele>1463</ele>
        <time>2019-05-05T11:17:47Z</time>
      </trkpt>
      <trkpt lat="46.28964" lon="5.95256">
        <ele>1463</ele>
        <time>2019-05-05T11:17:47Z</time>
      </trkpt>
      <trkpt lat="46.28962" lon="5.95253">
        <ele>1463</ele>
        <time>2019-05-05T11:17:49Z</time>
      </trkpt>
      <trkpt lat="46.28957" lon="5.95246">
        <ele>1464</ele>
        <time>2019-05-05T11:17:54Z</time>
      </trkpt>
      <trkpt lat="46.28951" lon="5.95239">
        <ele>1464</ele>
        <time>2019-05-05T11:18:00Z</time>
      </trkpt>
      <trkpt lat="46.28947" lon="5.95234">
        <ele>1465</ele>
        <time>2019-05-05T11:18:04Z</time>
      </trkpt>
      <trkpt lat="46.28942" lon="5.95229">
        <ele>1465</ele>
        <time>2019-05-05T11:18:08Z</time>
      </trkpt>
      <trkpt lat="46.28939" lon="5.95224">
        <ele>1465</ele>
        <time>2019-05-05T11:18:12Z</time>
      </trkpt>
      <trkpt lat="46.28931" lon="5.9522">
        <ele>1466</ele>
        <time>2019-05-05T11:18:18Z</time>
      </trkpt>
      <trkpt lat="46.28931" lon="5.95218">
        <ele>1466</ele>
        <time>2019-05-05T11:18:19Z</time>
      </trkpt>
      <trkpt lat="46.28931" lon="5.95219">
        <ele>1466</ele>
        <time>2019-05-05T11:18:19Z</time>
      </trkpt>
      <trkpt lat="46.2893" lon="5.95218">
        <ele>1467</ele>
        <time>2019-05-05T11:18:20Z</time>
      </trkpt>
      <trkpt lat="46.28925" lon="5.95215">
        <ele>1467</ele>
        <time>2019-05-05T11:18:23Z</time>
      </trkpt>
      <trkpt lat="46.2892" lon="5.95211">
        <ele>1468</ele>
        <time>2019-05-05T11:18:28Z</time>
      </trkpt>
      <trkpt lat="46.28919" lon="5.9521">
        <ele>1468</ele>
        <time>2019-05-05T11:18:28Z</time>
      </trkpt>
      <trkpt lat="46.28916" lon="5.95208">
        <ele>1468</ele>
        <time>2019-05-05T11:18:31Z</time>
      </trkpt>
      <trkpt lat="46.28916" lon="5.95208">
        <ele>1469</ele>
        <time>2019-05-05T11:18:31Z</time>
      </trkpt>
      <trkpt lat="46.28915" lon="5.95207">
        <ele>1469</ele>
        <time>2019-05-05T11:18:32Z</time>
      </trkpt>
      <trkpt lat="46.28898" lon="5.95199">
        <ele>1471</ele>
        <time>2019-05-05T11:18:45Z</time>
      </trkpt>
      <trkpt lat="46.28889" lon="5.95204">
        <ele>1473</ele>
        <time>2019-05-05T11:18:53Z</time>
      </trkpt>
      <trkpt lat="46.28888" lon="5.95205">
        <ele>1473</ele>
        <time>2019-05-05T11:18:53Z</time>
      </trkpt>
      <trkpt lat="46.28887" lon="5.95207">
        <ele>1474</ele>
        <time>2019-05-05T11:18:55Z</time>
      </trkpt>
      <trkpt lat="46.28885" lon="5.95208">
        <ele>1474</ele>
        <time>2019-05-05T11:18:56Z</time>
      </trkpt>
      <trkpt lat="46.28883" lon="5.9521">
        <ele>1474</ele>
        <time>2019-05-05T11:18:58Z</time>
      </trkpt>
      <trkpt lat="46.28882" lon="5.95211">
        <ele>1475</ele>
        <time>2019-05-05T11:18:59Z</time>
      </trkpt>
      <trkpt lat="46.28878" lon="5.95217">
        <ele>1475</ele>
        <time>2019-05-05T11:19:03Z</time>
      </trkpt>
      <trkpt lat="46.28874" lon="5.95221">
        <ele>1476</ele>
        <time>2019-05-05T11:19:06Z</time>
      </trkpt>
      <trkpt lat="46.2887" lon="5.9522">
        <ele>1477</ele>
        <time>2019-05-05T11:19:10Z</time>
      </trkpt>
      <trkpt lat="46.28867" lon="5.9522">
        <ele>1477</ele>
        <time>2019-05-05T11:19:12Z</time>
      </trkpt>
      <trkpt lat="46.28866" lon="5.9522">
        <ele>1477</ele>
        <time>2019-05-05T11:19:13Z</time>
      </trkpt>
      <trkpt lat="46.28863" lon="5.95222">
        <ele>1478</ele>
        <time>2019-05-05T11:19:15Z</time>
      </trkpt>
      <trkpt lat="46.28854" lon="5.9522">
        <ele>1479</ele>
        <time>2019-05-05T11:19:22Z</time>
      </trkpt>
      <trkpt lat="46.28842" lon="5.95205">
        <ele>1480</ele>
        <time>2019-05-05T11:19:33Z</time>
      </trkpt>
      <trkpt lat="46.28839" lon="5.95205">
        <ele>1480</ele>
        <time>2019-05-05T11:19:36Z</time>
      </trkpt>
      <trkpt lat="46.2883" lon="5.95202">
        <ele>1480</ele>
        <time>2019-05-05T11:19:42Z</time>
      </trkpt>
      <trkpt lat="46.28823" lon="5.95198">
        <ele>1480</ele>
        <time>2019-05-05T11:19:47Z</time>
      </trkpt>
      <trkpt lat="46.28819" lon="5.95198">
        <ele>1480</ele>
        <time>2019-05-05T11:19:50Z</time>
      </trkpt>
      <trkpt lat="46.28808" lon="5.95202">
        <ele>1480</ele>
        <time>2019-05-05T11:19:59Z</time>
      </trkpt>
      <trkpt lat="46.28801" lon="5.95198">
        <ele>1481</ele>
        <time>2019-05-05T11:20:04Z</time>
      </trkpt>
      <trkpt lat="46.28789" lon="5.95185">
        <ele>1481</ele>
        <time>2019-05-05T11:20:15Z</time>
      </trkpt>
      <trkpt lat="46.28786" lon="5.95176">
        <ele>1481</ele>
        <time>2019-05-05T11:20:20Z</time>
      </trkpt>
      <trkpt lat="46.28782" lon="5.9517">
        <ele>1482</ele>
        <time>2019-05-05T11:20:24Z</time>
      </trkpt>
      <trkpt lat="46.2878" lon="5.95165">
        <ele>1482</ele>
        <time>2019-05-05T11:20:27Z</time>
      </trkpt>
      <trkpt lat="46.28779" lon="5.9516">
        <ele>1483</ele>
        <time>2019-05-05T11:20:30Z</time>
      </trkpt>
      <trkpt lat="46.28778" lon="5.95156">
        <ele>1483</ele>
        <time>2019-05-05T11:20:32Z</time>
      </trkpt>
      <trkpt lat="46.28778" lon="5.95155">
        <ele>1483</ele>
        <time>2019-05-05T11:20:32Z</time>
      </trkpt>
      <trkpt lat="46.28774" lon="5.9515">
        <ele>1484</ele>
        <time>2019-05-05T11:20:36Z</time>
      </trkpt>
      <trkpt lat="46.28773" lon="5.9515">
        <ele>1484</ele>
        <time>2019-05-05T11:20:37Z</time>
      </trkpt>
      <trkpt lat="46.2877" lon="5.95149">
        <ele>1484</ele>
        <time>2019-05-05T11:20:39Z</time>
      </trkpt>
      <trkpt lat="46.28768" lon="5.95149">
        <ele>1484</ele>
        <time>2019-05-05T11:20:41Z</time>
      </trkpt>
      <trkpt lat="46.28764" lon="5.95151">
        <ele>1484</ele>
        <time>2019-05-05T11:20:44Z</time>
      </trkpt>
      <trkpt lat="46.28763" lon="5.95153">
        <ele>1484</ele>
        <time>2019-05-05T11:20:45Z</time>
      </trkpt>
      <trkpt lat="46.28762" lon="5.95155">
        <ele>1484</ele>
        <time>2019-05-05T11:20:46Z</time>
      </trkpt>
      <trkpt lat="46.28746" lon="5.95169">
        <ele>1482</ele>
        <time>2019-05-05T11:20:59Z</time>
      </trkpt>
      <trkpt lat="46.28739" lon="5.95176">
        <ele>1481</ele>
        <time>2019-05-05T11:21:06Z</time>
      </trkpt>
      <trkpt lat="46.28737" lon="5.95177">
        <ele>1481</ele>
        <time>2019-05-05T11:21:07Z</time>
      </trkpt>
      <trkpt lat="46.28734" lon="5.95178">
        <ele>1481</ele>
        <time>2019-05-05T11:21:10Z</time>
      </trkpt>
      <trkpt lat="46.28732" lon="5.95178">
        <ele>1481</ele>
        <time>2019-05-05T11:21:11Z</time>
      </trkpt>
      <trkpt lat="46.28728" lon="5.9518">
        <ele>1481</ele>
        <time>2019-05-05T11:21:14Z</time>
      </trkpt>
      <trkpt lat="46.28725" lon="5.95177">
        <ele>1481</ele>
        <time>2019-05-05T11:21:17Z</time>
      </trkpt>
      <trkpt lat="46.28714" lon="5.95171">
        <ele>1482</ele>
        <time>2019-05-05T11:21:25Z</time>
      </trkpt>
      <trkpt lat="46.28711" lon="5.9517">
        <ele>1482</ele>
        <time>2019-05-05T11:21:27Z</time>
      </trkpt>
      <trkpt lat="46.28709" lon="5.95171">
        <ele>1482</ele>
        <time>2019-05-05T11:21:29Z</time>
      </trkpt>
      <trkpt lat="46.28707" lon="5.9517">
        <ele>1482</ele>
        <time>2019-05-05T11:21:30Z</time>
      </trkpt>
      <trkpt lat="46.28704" lon="5.95169">
        <ele>1482</ele>
        <time>2019-05-05T11:21:33Z</time>
      </trkpt>
      <trkpt lat="46.28699" lon="5.95164">
        <ele>1482</ele>
        <time>2019-05-05T11:21:37Z</time>
      </trkpt>
      <trkpt lat="46.28697" lon="5.95163">
        <ele>1482</ele>
        <time>2019-05-05T11:21:39Z</time>
      </trkpt>
      <trkpt lat="46.28692" lon="5.95154">
        <ele>1482</ele>
        <time>2019-05-05T11:21:44Z</time>
      </trkpt>
      <trkpt lat="46.28691" lon="5.9515">
        <ele>1483</ele>
        <time>2019-05-05T11:21:47Z</time>
      </trkpt>
      <trkpt lat="46.28691" lon="5.95147">
        <ele>1483</ele>
        <time>2019-05-05T11:21:48Z</time>
      </trkpt>
      <trkpt lat="46.28689" lon="5.95143">
        <ele>1483</ele>
        <time>2019-05-05T11:21:50Z</time>
      </trkpt>
      <trkpt lat="46.2869" lon="5.95141">
        <ele>1483</ele>
        <time>2019-05-05T11:21:51Z</time>
      </trkpt>
      <trkpt lat="46.2869" lon="5.95139">
        <ele>1483</ele>
        <time>2019-05-05T11:21:53Z</time>
      </trkpt>
      <trkpt lat="46.2869" lon="5.95136">
        <ele>1483</ele>
        <time>2019-05-05T11:21:54Z</time>
      </trkpt>
      <trkpt lat="46.28687" lon="5.95128">
        <ele>1484</ele>
        <time>2019-05-05T11:21:59Z</time>
      </trkpt>
      <trkpt lat="46.28684" lon="5.95124">
        <ele>1485</ele>
        <time>2019-05-05T11:22:02Z</time>
      </trkpt>
      <trkpt lat="46.28683" lon="5.95124">
        <ele>1485</ele>
        <time>2019-05-05T11:22:03Z</time>
      </trkpt>
      <trkpt lat="46.28681" lon="5.95123">
        <ele>1485</ele>
        <time>2019-05-05T11:22:04Z</time>
      </trkpt>
      <trkpt lat="46.28681" lon="5.95123">
        <ele>1485</ele>
        <time>2019-05-05T11:22:04Z</time>
      </trkpt>
      <trkpt lat="46.28676" lon="5.9512">
        <ele>1486</ele>
        <time>2019-05-05T11:22:08Z</time>
      </trkpt>
      <trkpt lat="46.28676" lon="5.95117">
        <ele>1486</ele>
        <time>2019-05-05T11:22:10Z</time>
      </trkpt>
      <trkpt lat="46.28674" lon="5.95114">
        <ele>1486</ele>
        <time>2019-05-05T11:22:12Z</time>
      </trkpt>
      <trkpt lat="46.28667" lon="5.95109">
        <ele>1487</ele>
        <time>2019-05-05T11:22:18Z</time>
      </trkpt>
      <trkpt lat="46.28663" lon="5.95105">
        <ele>1488</ele>
        <time>2019-05-05T11:22:21Z</time>
      </trkpt>
      <trkpt lat="46.28662" lon="5.95105">
        <ele>1488</ele>
        <time>2019-05-05T11:22:22Z</time>
      </trkpt>
      <trkpt lat="46.28655" lon="5.95093">
        <ele>1489</ele>
        <time>2019-05-05T11:22:30Z</time>
      </trkpt>
      <trkpt lat="46.28653" lon="5.95092">
        <ele>1489</ele>
        <time>2019-05-05T11:22:32Z</time>
      </trkpt>
      <trkpt lat="46.28634" lon="5.95092">
        <ele>1491</ele>
        <time>2019-05-05T11:22:45Z</time>
      </trkpt>
      <trkpt lat="46.28633" lon="5.95094">
        <ele>1491</ele>
        <time>2019-05-05T11:22:47Z</time>
      </trkpt>
      <trkpt lat="46.28629" lon="5.95094">
        <ele>1491</ele>
        <time>2019-05-05T11:22:49Z</time>
      </trkpt>
      <trkpt lat="46.28628" lon="5.95095">
        <ele>1491</ele>
        <time>2019-05-05T11:22:50Z</time>
      </trkpt>
      <trkpt lat="46.28623" lon="5.95094">
        <ele>1492</ele>
        <time>2019-05-05T11:22:54Z</time>
      </trkpt>
      <trkpt lat="46.28614" lon="5.95098">
        <ele>1492</ele>
        <time>2019-05-05T11:23:00Z</time>
      </trkpt>
      <trkpt lat="46.28611" lon="5.95099">
        <ele>1492</ele>
        <time>2019-05-05T11:23:03Z</time>
      </trkpt>
      <trkpt lat="46.28609" lon="5.95098">
        <ele>1493</ele>
        <time>2019-05-05T11:23:04Z</time>
      </trkpt>
      <trkpt lat="46.28607" lon="5.95098">
        <ele>1493</ele>
        <time>2019-05-05T11:23:06Z</time>
      </trkpt>
      <trkpt lat="46.286" lon="5.95098">
        <ele>1495</ele>
        <time>2019-05-05T11:23:11Z</time>
      </trkpt>
      <trkpt lat="46.28593" lon="5.95101">
        <ele>1497</ele>
        <time>2019-05-05T11:23:16Z</time>
      </trkpt>
      <trkpt lat="46.28586" lon="5.95098">
        <ele>1499</ele>
        <time>2019-05-05T11:23:22Z</time>
      </trkpt>
      <trkpt lat="46.28583" lon="5.951">
        <ele>1500</ele>
        <time>2019-05-05T11:23:24Z</time>
      </trkpt>
      <trkpt lat="46.28579" lon="5.9511">
        <ele>1504</ele>
        <time>2019-05-05T11:23:30Z</time>
      </trkpt>
      <trkpt lat="46.28576" lon="5.95114">
        <ele>1506</ele>
        <time>2019-05-05T11:23:34Z</time>
      </trkpt>
      <trkpt lat="46.28575" lon="5.95115">
        <ele>1506</ele>
        <time>2019-05-05T11:23:34Z</time>
      </trkpt>
      <trkpt lat="46.28575" lon="5.95115">
        <ele>1506</ele>
        <time>2019-05-05T11:23:35Z</time>
      </trkpt>
      <trkpt lat="46.2857" lon="5.9512">
        <ele>1509</ele>
        <time>2019-05-05T11:23:39Z</time>
      </trkpt>
      <trkpt lat="46.28569" lon="5.95123">
        <ele>1510</ele>
        <time>2019-05-05T11:23:41Z</time>
      </trkpt>
      <trkpt lat="46.28569" lon="5.95125">
        <ele>1510</ele>
        <time>2019-05-05T11:23:42Z</time>
      </trkpt>
      <trkpt lat="46.28569" lon="5.95127">
        <ele>1511</ele>
        <time>2019-05-05T11:23:44Z</time>
      </trkpt>
      <trkpt lat="46.28568" lon="5.95129">
        <ele>1511</ele>
        <time>2019-05-05T11:23:45Z</time>
      </trkpt>
      <trkpt lat="46.28566" lon="5.95131">
        <ele>1512</ele>
        <time>2019-05-05T11:23:46Z</time>
      </trkpt>
      <trkpt lat="46.28567" lon="5.95133">
        <ele>1512</ele>
        <time>2019-05-05T11:23:48Z</time>
      </trkpt>
      <trkpt lat="46.28568" lon="5.95134">
        <ele>1512</ele>
        <time>2019-05-05T11:23:49Z</time>
      </trkpt>
      <trkpt lat="46.28571" lon="5.95138">
        <ele>1512</ele>
        <time>2019-05-05T11:23:52Z</time>
      </trkpt>
      <trkpt lat="46.28573" lon="5.95146">
        <ele>1513</ele>
        <time>2019-05-05T11:23:56Z</time>
      </trkpt>
      <trkpt lat="46.28577" lon="5.95153">
        <ele>1512</ele>
        <time>2019-05-05T11:24:01Z</time>
      </trkpt>
      <trkpt lat="46.28579" lon="5.95156">
        <ele>1512</ele>
        <time>2019-05-05T11:24:02Z</time>
      </trkpt>
      <trkpt lat="46.28591" lon="5.95167">
        <ele>1510</ele>
        <time>2019-05-05T11:24:13Z</time>
      </trkpt>
      <trkpt lat="46.28591" lon="5.95168">
        <ele>1510</ele>
        <time>2019-05-05T11:24:13Z</time>
      </trkpt>
      <trkpt lat="46.28594" lon="5.95172">
        <ele>1510</ele>
        <time>2019-05-05T11:24:16Z</time>
      </trkpt>
      <trkpt lat="46.286" lon="5.95182">
        <ele>1509</ele>
        <time>2019-05-05T11:24:23Z</time>
      </trkpt>
      <trkpt lat="46.2861" lon="5.95197">
        <ele>1509</ele>
        <time>2019-05-05T11:24:33Z</time>
      </trkpt>
      <trkpt lat="46.28613" lon="5.95201">
        <ele>1509</ele>
        <time>2019-05-05T11:24:36Z</time>
      </trkpt>
      <trkpt lat="46.28614" lon="5.95206">
        <ele>1510</ele>
        <time>2019-05-05T11:24:39Z</time>
      </trkpt>
      <trkpt lat="46.28617" lon="5.95211">
        <ele>1510</ele>
        <time>2019-05-05T11:24:42Z</time>
      </trkpt>
      <trkpt lat="46.28621" lon="5.95215">
        <ele>1510</ele>
        <time>2019-05-05T11:24:46Z</time>
      </trkpt>
      <trkpt lat="46.2863" lon="5.95224">
        <ele>1509</ele>
        <time>2019-05-05T11:24:54Z</time>
      </trkpt>
      <trkpt lat="46.28626" lon="5.95232">
        <ele>1513</ele>
        <time>2019-05-05T11:25:00Z</time>
      </trkpt>
      <trkpt lat="46.28626" lon="5.95234">
        <ele>1513</ele>
        <time>2019-05-05T11:25:01Z</time>
      </trkpt>
      <trkpt lat="46.28635" lon="5.95237">
        <ele>1510</ele>
        <time>2019-05-05T11:25:08Z</time>
      </trkpt>
      <trkpt lat="46.28635" lon="5.9524">
        <ele>1511</ele>
        <time>2019-05-05T11:25:09Z</time>
      </trkpt>
      <trkpt lat="46.28636" lon="5.95242">
        <ele>1511</ele>
        <time>2019-05-05T11:25:11Z</time>
      </trkpt>
      <trkpt lat="46.28636" lon="5.95245">
        <ele>1512</ele>
        <time>2019-05-05T11:25:12Z</time>
      </trkpt>
      <trkpt lat="46.28636" lon="5.95246">
        <ele>1512</ele>
        <time>2019-05-05T11:25:13Z</time>
      </trkpt>
      <trkpt lat="46.28637" lon="5.95249">
        <ele>1513</ele>
        <time>2019-05-05T11:25:15Z</time>
      </trkpt>
      <trkpt lat="46.28637" lon="5.9525">
        <ele>1513</ele>
        <time>2019-05-05T11:25:15Z</time>
      </trkpt>
      <trkpt lat="46.28639" lon="5.95264">
        <ele>1516</ele>
        <time>2019-05-05T11:25:22Z</time>
      </trkpt>
      <trkpt lat="46.28639" lon="5.95269">
        <ele>1516</ele>
        <time>2019-05-05T11:25:25Z</time>
      </trkpt>
      <trkpt lat="46.28638" lon="5.95281">
        <ele>1519</ele>
        <time>2019-05-05T11:25:31Z</time>
      </trkpt>
      <trkpt lat="46.28636" lon="5.95286">
        <ele>1521</ele>
        <time>2019-05-05T11:25:34Z</time>
      </trkpt>
      <trkpt lat="46.28633" lon="5.95289">
        <ele>1522</ele>
        <time>2019-05-05T11:25:37Z</time>
      </trkpt>
      <trkpt lat="46.28631" lon="5.95291">
        <ele>1523</ele>
        <time>2019-05-05T11:25:39Z</time>
      </trkpt>
      <trkpt lat="46.28629" lon="5.95294">
        <ele>1525</ele>
        <time>2019-05-05T11:25:41Z</time>
      </trkpt>
      <trkpt lat="46.28627" lon="5.95297">
        <ele>1526</ele>
        <time>2019-05-05T11:25:44Z</time>
      </trkpt>
      <trkpt lat="46.28623" lon="5.95299">
        <ele>1528</ele>
        <time>2019-05-05T11:25:47Z</time>
      </trkpt>
      <trkpt lat="46.28621" lon="5.95299">
        <ele>1528</ele>
        <time>2019-05-05T11:25:48Z</time>
      </trkpt>
      <trkpt lat="46.2862" lon="5.95298">
        <ele>1528</ele>
        <time>2019-05-05T11:25:49Z</time>
      </trkpt>
      <trkpt lat="46.28618" lon="5.95294">
        <ele>1528</ele>
        <time>2019-05-05T11:25:52Z</time>
      </trkpt>
      <trkpt lat="46.28616" lon="5.9529">
        <ele>1529</ele>
        <time>2019-05-05T11:25:54Z</time>
      </trkpt>
      <trkpt lat="46.28615" lon="5.95289">
        <ele>1529</ele>
        <time>2019-05-05T11:25:55Z</time>
      </trkpt>
      <trkpt lat="46.28613" lon="5.95285">
        <ele>1529</ele>
        <time>2019-05-05T11:25:58Z</time>
      </trkpt>
      <trkpt lat="46.28609" lon="5.95281">
        <ele>1529</ele>
        <time>2019-05-05T11:26:01Z</time>
      </trkpt>
      <trkpt lat="46.28606" lon="5.95279">
        <ele>1530</ele>
        <time>2019-05-05T11:26:04Z</time>
      </trkpt>
      <trkpt lat="46.28605" lon="5.95278">
        <ele>1531</ele>
        <time>2019-05-05T11:26:05Z</time>
      </trkpt>
      <trkpt lat="46.28601" lon="5.95273">
        <ele>1531</ele>
        <time>2019-05-05T11:26:09Z</time>
      </trkpt>
      <trkpt lat="46.28596" lon="5.95266">
        <ele>1532</ele>
        <time>2019-05-05T11:26:14Z</time>
      </trkpt>
      <trkpt lat="46.28593" lon="5.95266">
        <ele>1533</ele>
        <time>2019-05-05T11:26:16Z</time>
      </trkpt>
      <trkpt lat="46.28591" lon="5.95266">
        <ele>1533</ele>
        <time>2019-05-05T11:26:17Z</time>
      </trkpt>
      <trkpt lat="46.28587" lon="5.95259">
        <ele>1533</ele>
        <time>2019-05-05T11:26:22Z</time>
      </trkpt>
      <trkpt lat="46.28583" lon="5.95246">
        <ele>1531</ele>
        <time>2019-05-05T11:26:29Z</time>
      </trkpt>
      <trkpt lat="46.28582" lon="5.95244">
        <ele>1531</ele>
        <time>2019-05-05T11:26:31Z</time>
      </trkpt>
      <trkpt lat="46.28578" lon="5.95242">
        <ele>1532</ele>
        <time>2019-05-05T11:26:34Z</time>
      </trkpt>
      <trkpt lat="46.28576" lon="5.95239">
        <ele>1532</ele>
        <time>2019-05-05T11:26:36Z</time>
      </trkpt>
      <trkpt lat="46.28576" lon="5.95237">
        <ele>1531</ele>
        <time>2019-05-05T11:26:37Z</time>
      </trkpt>
      <trkpt lat="46.28577" lon="5.95233">
        <ele>1530</ele>
        <time>2019-05-05T11:26:40Z</time>
      </trkpt>
      <trkpt lat="46.28578" lon="5.9523">
        <ele>1529</ele>
        <time>2019-05-05T11:26:41Z</time>
      </trkpt>
      <trkpt lat="46.28578" lon="5.95228">
        <ele>1528</ele>
        <time>2019-05-05T11:26:43Z</time>
      </trkpt>
      <trkpt lat="46.28579" lon="5.95226">
        <ele>1528</ele>
        <time>2019-05-05T11:26:44Z</time>
      </trkpt>
      <trkpt lat="46.2858" lon="5.95224">
        <ele>1527</ele>
        <time>2019-05-05T11:26:45Z</time>
      </trkpt>
      <trkpt lat="46.28581" lon="5.95222">
        <ele>1526</ele>
        <time>2019-05-05T11:26:46Z</time>
      </trkpt>
      <trkpt lat="46.28582" lon="5.95222">
        <ele>1525</ele>
        <time>2019-05-05T11:26:48Z</time>
      </trkpt>
      <trkpt lat="46.28582" lon="5.95221">
        <ele>1525</ele>
        <time>2019-05-05T11:26:48Z</time>
      </trkpt>
      <trkpt lat="46.28581" lon="5.95215">
        <ele>1524</ele>
        <time>2019-05-05T11:26:51Z</time>
      </trkpt>
      <trkpt lat="46.28582" lon="5.95216">
        <ele>1524</ele>
        <time>2019-05-05T11:26:52Z</time>
      </trkpt>
      <trkpt lat="46.2858" lon="5.95216">
        <ele>1525</ele>
        <time>2019-05-05T11:26:54Z</time>
      </trkpt>
      <trkpt lat="46.2858" lon="5.95211">
        <ele>1524</ele>
        <time>2019-05-05T11:26:56Z</time>
      </trkpt>
      <trkpt lat="46.2858" lon="5.95209">
        <ele>1523</ele>
        <time>2019-05-05T11:26:57Z</time>
      </trkpt>
      <trkpt lat="46.2858" lon="5.95208">
        <ele>1523</ele>
        <time>2019-05-05T11:26:58Z</time>
      </trkpt>
      <trkpt lat="46.2858" lon="5.95206">
        <ele>1523</ele>
        <time>2019-05-05T11:26:59Z</time>
      </trkpt>
      <trkpt lat="46.2858" lon="5.95205">
        <ele>1522</ele>
        <time>2019-05-05T11:27:00Z</time>
      </trkpt>
      <trkpt lat="46.28578" lon="5.95202">
        <ele>1522</ele>
        <time>2019-05-05T11:27:02Z</time>
      </trkpt>
      <trkpt lat="46.28576" lon="5.952">
        <ele>1523</ele>
        <time>2019-05-05T11:27:04Z</time>
      </trkpt>
      <trkpt lat="46.28576" lon="5.95196">
        <ele>1522</ele>
        <time>2019-05-05T11:27:06Z</time>
      </trkpt>
      <trkpt lat="46.28576" lon="5.95195">
        <ele>1521</ele>
        <time>2019-05-05T11:27:07Z</time>
      </trkpt>
      <trkpt lat="46.28577" lon="5.95186">
        <ele>1519</ele>
        <time>2019-05-05T11:27:11Z</time>
      </trkpt>
      <trkpt lat="46.28578" lon="5.95182">
        <ele>1517</ele>
        <time>2019-05-05T11:27:14Z</time>
      </trkpt>
      <trkpt lat="46.28579" lon="5.95177">
        <ele>1516</ele>
        <time>2019-05-05T11:27:16Z</time>
      </trkpt>
      <trkpt lat="46.28579" lon="5.95175">
        <ele>1516</ele>
        <time>2019-05-05T11:27:18Z</time>
      </trkpt>
      <trkpt lat="46.2858" lon="5.95171">
        <ele>1515</ele>
        <time>2019-05-05T11:27:20Z</time>
      </trkpt>
      <trkpt lat="46.2858" lon="5.9517">
        <ele>1514</ele>
        <time>2019-05-05T11:27:21Z</time>
      </trkpt>
      <trkpt lat="46.2858" lon="5.9517">
        <ele>1514</ele>
        <time>2019-05-05T11:27:21Z</time>
      </trkpt>
      <trkpt lat="46.2858" lon="5.95168">
        <ele>1514</ele>
        <time>2019-05-05T11:27:21Z</time>
      </trkpt>
      <trkpt lat="46.2858" lon="5.95167">
        <ele>1514</ele>
        <time>2019-05-05T11:27:22Z</time>
      </trkpt>
      <trkpt lat="46.2858" lon="5.95166">
        <ele>1514</ele>
        <time>2019-05-05T11:27:23Z</time>
      </trkpt>
      <trkpt lat="46.28581" lon="5.95164">
        <ele>1513</ele>
        <time>2019-05-05T11:27:24Z</time>
      </trkpt>
      <trkpt lat="46.28581" lon="5.95163">
        <ele>1513</ele>
        <time>2019-05-05T11:27:25Z</time>
      </trkpt>
      <trkpt lat="46.2858" lon="5.95161">
        <ele>1513</ele>
        <time>2019-05-05T11:27:26Z</time>
      </trkpt>
      <trkpt lat="46.2858" lon="5.95161">
        <ele>1513</ele>
        <time>2019-05-05T11:27:27Z</time>
      </trkpt>
      <trkpt lat="46.28577" lon="5.95157">
        <ele>1513</ele>
        <time>2019-05-05T11:27:29Z</time>
      </trkpt>
      <trkpt lat="46.28575" lon="5.95155">
        <ele>1513</ele>
        <time>2019-05-05T11:27:31Z</time>
      </trkpt>
      <trkpt lat="46.28574" lon="5.95154">
        <ele>1514</ele>
        <time>2019-05-05T11:27:32Z</time>
      </trkpt>
      <trkpt lat="46.28572" lon="5.95152">
        <ele>1514</ele>
        <time>2019-05-05T11:27:34Z</time>
      </trkpt>
      <trkpt lat="46.28572" lon="5.95147">
        <ele>1513</ele>
        <time>2019-05-05T11:27:36Z</time>
      </trkpt>
      <trkpt lat="46.28572" lon="5.95143">
        <ele>1513</ele>
        <time>2019-05-05T11:27:38Z</time>
      </trkpt>
      <trkpt lat="46.28572" lon="5.95143">
        <ele>1512</ele>
        <time>2019-05-05T11:27:39Z</time>
      </trkpt>
      <trkpt lat="46.28572" lon="5.95142">
        <ele>1512</ele>
        <time>2019-05-05T11:27:39Z</time>
      </trkpt>
      <trkpt lat="46.28571" lon="5.9514">
        <ele>1512</ele>
        <time>2019-05-05T11:27:41Z</time>
      </trkpt>
      <trkpt lat="46.2857" lon="5.95139">
        <ele>1512</ele>
        <time>2019-05-05T11:27:42Z</time>
      </trkpt>
      <trkpt lat="46.28569" lon="5.95139">
        <ele>1513</ele>
        <time>2019-05-05T11:27:42Z</time>
      </trkpt>
      <trkpt lat="46.28569" lon="5.95139">
        <ele>1513</ele>
        <time>2019-05-05T11:27:43Z</time>
      </trkpt>
      <trkpt lat="46.28567" lon="5.95136">
        <ele>1513</ele>
        <time>2019-05-05T11:27:45Z</time>
      </trkpt>
      <trkpt lat="46.28566" lon="5.95133">
        <ele>1513</ele>
        <time>2019-05-05T11:27:46Z</time>
      </trkpt>
      <trkpt lat="46.28566" lon="5.95133">
        <ele>1512</ele>
        <time>2019-05-05T11:27:47Z</time>
      </trkpt>
      <trkpt lat="46.28564" lon="5.95133">
        <ele>1513</ele>
        <time>2019-05-05T11:27:49Z</time>
      </trkpt>
      <trkpt lat="46.2857" lon="5.95135">
        <ele>1512</ele>
        <time>2019-05-05T11:27:53Z</time>
      </trkpt>
      <trkpt lat="46.28571" lon="5.95137">
        <ele>1512</ele>
        <time>2019-05-05T11:27:54Z</time>
      </trkpt>
      <trkpt lat="46.28574" lon="5.95138">
        <ele>1511</ele>
        <time>2019-05-05T11:27:56Z</time>
      </trkpt>
      <trkpt lat="46.28575" lon="5.9514">
        <ele>1511</ele>
        <time>2019-05-05T11:27:58Z</time>
      </trkpt>
      <trkpt lat="46.28575" lon="5.95144">
        <ele>1511</ele>
        <time>2019-05-05T11:28:00Z</time>
      </trkpt>
      <trkpt lat="46.28576" lon="5.95147">
        <ele>1512</ele>
        <time>2019-05-05T11:28:01Z</time>
      </trkpt>
      <trkpt lat="46.28577" lon="5.9515">
        <ele>1512</ele>
        <time>2019-05-05T11:28:03Z</time>
      </trkpt>
      <trkpt lat="46.28578" lon="5.95152">
        <ele>1512</ele>
        <time>2019-05-05T11:28:04Z</time>
      </trkpt>
      <trkpt lat="46.28579" lon="5.95153">
        <ele>1512</ele>
        <time>2019-05-05T11:28:05Z</time>
      </trkpt>
      <trkpt lat="46.28579" lon="5.95156">
        <ele>1512</ele>
        <time>2019-05-05T11:28:06Z</time>
      </trkpt>
      <trkpt lat="46.28582" lon="5.9516">
        <ele>1512</ele>
        <time>2019-05-05T11:28:09Z</time>
      </trkpt>
      <trkpt lat="46.28583" lon="5.95162">
        <ele>1512</ele>
        <time>2019-05-05T11:28:10Z</time>
      </trkpt>
      <trkpt lat="46.28584" lon="5.95163">
        <ele>1512</ele>
        <time>2019-05-05T11:28:11Z</time>
      </trkpt>
      <trkpt lat="46.28585" lon="5.95163">
        <ele>1511</ele>
        <time>2019-05-05T11:28:12Z</time>
      </trkpt>
      <trkpt lat="46.28586" lon="5.95164">
        <ele>1511</ele>
        <time>2019-05-05T11:28:13Z</time>
      </trkpt>
      <trkpt lat="46.28586" lon="5.95164">
        <ele>1511</ele>
        <time>2019-05-05T11:28:13Z</time>
      </trkpt>
      <trkpt lat="46.28588" lon="5.95166">
        <ele>1511</ele>
        <time>2019-05-05T11:28:15Z</time>
      </trkpt>
      <trkpt lat="46.28591" lon="5.95171">
        <ele>1510</ele>
        <time>2019-05-05T11:28:18Z</time>
      </trkpt>
      <trkpt lat="46.28595" lon="5.95176">
        <ele>1510</ele>
        <time>2019-05-05T11:28:22Z</time>
      </trkpt>
      <trkpt lat="46.28599" lon="5.95181">
        <ele>1509</ele>
        <time>2019-05-05T11:28:26Z</time>
      </trkpt>
      <trkpt lat="46.286" lon="5.95182">
        <ele>1509</ele>
        <time>2019-05-05T11:28:27Z</time>
      </trkpt>
      <trkpt lat="46.28601" lon="5.95186">
        <ele>1509</ele>
        <time>2019-05-05T11:28:29Z</time>
      </trkpt>
      <trkpt lat="46.28603" lon="5.95187">
        <ele>1509</ele>
        <time>2019-05-05T11:28:31Z</time>
      </trkpt>
      <trkpt lat="46.28606" lon="5.9519">
        <ele>1509</ele>
        <time>2019-05-05T11:28:33Z</time>
      </trkpt>
      <trkpt lat="46.28606" lon="5.95191">
        <ele>1509</ele>
        <time>2019-05-05T11:28:34Z</time>
      </trkpt>
      <trkpt lat="46.28608" lon="5.95192">
        <ele>1509</ele>
        <time>2019-05-05T11:28:35Z</time>
      </trkpt>
      <trkpt lat="46.28609" lon="5.95193">
        <ele>1509</ele>
        <time>2019-05-05T11:28:36Z</time>
      </trkpt>
      <trkpt lat="46.28609" lon="5.95194">
        <ele>1509</ele>
        <time>2019-05-05T11:28:36Z</time>
      </trkpt>
      <trkpt lat="46.28611" lon="5.95197">
        <ele>1509</ele>
        <time>2019-05-05T11:28:38Z</time>
      </trkpt>
      <trkpt lat="46.28612" lon="5.95202">
        <ele>1510</ele>
        <time>2019-05-05T11:28:41Z</time>
      </trkpt>
      <trkpt lat="46.28613" lon="5.95207">
        <ele>1511</ele>
        <time>2019-05-05T11:28:43Z</time>
      </trkpt>
      <trkpt lat="46.28613" lon="5.95207">
        <ele>1511</ele>
        <time>2019-05-05T11:28:44Z</time>
      </trkpt>
      <trkpt lat="46.28615" lon="5.9521">
        <ele>1511</ele>
        <time>2019-05-05T11:28:46Z</time>
      </trkpt>
      <trkpt lat="46.28615" lon="5.95211">
        <ele>1511</ele>
        <time>2019-05-05T11:28:46Z</time>
      </trkpt>
      <trkpt lat="46.28617" lon="5.95214">
        <ele>1511</ele>
        <time>2019-05-05T11:28:48Z</time>
      </trkpt>
      <trkpt lat="46.28621" lon="5.95221">
        <ele>1512</ele>
        <time>2019-05-05T11:28:53Z</time>
      </trkpt>
      <trkpt lat="46.28626" lon="5.95228">
        <ele>1512</ele>
        <time>2019-05-05T11:28:58Z</time>
      </trkpt>
      <trkpt lat="46.28626" lon="5.95231">
        <ele>1512</ele>
        <time>2019-05-05T11:28:59Z</time>
      </trkpt>
      <trkpt lat="46.28629" lon="5.95235">
        <ele>1512</ele>
        <time>2019-05-05T11:29:02Z</time>
      </trkpt>
      <trkpt lat="46.2863" lon="5.95237">
        <ele>1512</ele>
        <time>2019-05-05T11:29:03Z</time>
      </trkpt>
      <trkpt lat="46.2863" lon="5.95239">
        <ele>1513</ele>
        <time>2019-05-05T11:29:05Z</time>
      </trkpt>
      <trkpt lat="46.28631" lon="5.95243">
        <ele>1513</ele>
        <time>2019-05-05T11:29:07Z</time>
      </trkpt>
      <trkpt lat="46.28631" lon="5.95244">
        <ele>1514</ele>
        <time>2019-05-05T11:29:08Z</time>
      </trkpt>
      <trkpt lat="46.28631" lon="5.95246">
        <ele>1514</ele>
        <time>2019-05-05T11:29:08Z</time>
      </trkpt>
      <trkpt lat="46.28631" lon="5.95249">
        <ele>1515</ele>
        <time>2019-05-05T11:29:10Z</time>
      </trkpt>
      <trkpt lat="46.28634" lon="5.95253">
        <ele>1515</ele>
        <time>2019-05-05T11:29:13Z</time>
      </trkpt>
      <trkpt lat="46.28636" lon="5.95261">
        <ele>1516</ele>
        <time>2019-05-05T11:29:17Z</time>
      </trkpt>
      <trkpt lat="46.28636" lon="5.95262">
        <ele>1516</ele>
        <time>2019-05-05T11:29:18Z</time>
      </trkpt>
      <trkpt lat="46.28637" lon="5.95264">
        <ele>1516</ele>
        <time>2019-05-05T11:29:19Z</time>
      </trkpt>
      <trkpt lat="46.28637" lon="5.95265">
        <ele>1516</ele>
        <time>2019-05-05T11:29:19Z</time>
      </trkpt>
      <trkpt lat="46.28639" lon="5.95273">
        <ele>1517</ele>
        <time>2019-05-05T11:29:23Z</time>
      </trkpt>
      <trkpt lat="46.28637" lon="5.95282">
        <ele>1519</ele>
        <time>2019-05-05T11:29:28Z</time>
      </trkpt>
      <trkpt lat="46.28637" lon="5.95284">
        <ele>1520</ele>
        <time>2019-05-05T11:29:29Z</time>
      </trkpt>
      <trkpt lat="46.28637" lon="5.95287">
        <ele>1520</ele>
        <time>2019-05-05T11:29:31Z</time>
      </trkpt>
      <trkpt lat="46.28637" lon="5.95287">
        <ele>1521</ele>
        <time>2019-05-05T11:29:32Z</time>
      </trkpt>
      <trkpt lat="46.28636" lon="5.95289">
        <ele>1521</ele>
        <time>2019-05-05T11:29:33Z</time>
      </trkpt>
      <trkpt lat="46.28636" lon="5.9529">
        <ele>1522</ele>
        <time>2019-05-05T11:29:34Z</time>
      </trkpt>
      <trkpt lat="46.28635" lon="5.95291">
        <ele>1522</ele>
        <time>2019-05-05T11:29:34Z</time>
      </trkpt>
      <trkpt lat="46.28632" lon="5.95295">
        <ele>1524</ele>
        <time>2019-05-05T11:29:38Z</time>
      </trkpt>
      <trkpt lat="46.2863" lon="5.95298">
        <ele>1525</ele>
        <time>2019-05-05T11:29:40Z</time>
      </trkpt>
      <trkpt lat="46.28628" lon="5.95299">
        <ele>1526</ele>
        <time>2019-05-05T11:29:41Z</time>
      </trkpt>
      <trkpt lat="46.28628" lon="5.953">
        <ele>1526</ele>
        <time>2019-05-05T11:29:42Z</time>
      </trkpt>
      <trkpt lat="46.28626" lon="5.95301">
        <ele>1527</ele>
        <time>2019-05-05T11:29:44Z</time>
      </trkpt>
      <trkpt lat="46.28619" lon="5.95295">
        <ele>1528</ele>
        <time>2019-05-05T11:29:50Z</time>
      </trkpt>
      <trkpt lat="46.28618" lon="5.95293">
        <ele>1528</ele>
        <time>2019-05-05T11:29:51Z</time>
      </trkpt>
      <trkpt lat="46.28617" lon="5.95291">
        <ele>1528</ele>
        <time>2019-05-05T11:29:52Z</time>
      </trkpt>
      <trkpt lat="46.28612" lon="5.95287">
        <ele>1529</ele>
        <time>2019-05-05T11:29:56Z</time>
      </trkpt>
      <trkpt lat="46.28613" lon="5.95288">
        <ele>1529</ele>
        <time>2019-05-05T11:29:57Z</time>
      </trkpt>
      <trkpt lat="46.28613" lon="5.95294">
        <ele>1530</ele>
        <time>2019-05-05T11:30:00Z</time>
      </trkpt>
      <trkpt lat="46.28609" lon="5.95301">
        <ele>1533</ele>
        <time>2019-05-05T11:30:05Z</time>
      </trkpt>
      <trkpt lat="46.28608" lon="5.95304">
        <ele>1534</ele>
        <time>2019-05-05T11:30:06Z</time>
      </trkpt>
      <trkpt lat="46.28605" lon="5.95307">
        <ele>1535</ele>
        <time>2019-05-05T11:30:09Z</time>
      </trkpt>
      <trkpt lat="46.28602" lon="5.95309">
        <ele>1536</ele>
        <time>2019-05-05T11:30:12Z</time>
      </trkpt>
      <trkpt lat="46.28599" lon="5.95311">
        <ele>1537</ele>
        <time>2019-05-05T11:30:14Z</time>
      </trkpt>
      <trkpt lat="46.28597" lon="5.95311">
        <ele>1538</ele>
        <time>2019-05-05T11:30:15Z</time>
      </trkpt>
      <trkpt lat="46.28595" lon="5.95313">
        <ele>1539</ele>
        <time>2019-05-05T11:30:17Z</time>
      </trkpt>
      <trkpt lat="46.28588" lon="5.95316">
        <ele>1541</ele>
        <time>2019-05-05T11:30:23Z</time>
      </trkpt>
      <trkpt lat="46.28581" lon="5.95317">
        <ele>1543</ele>
        <time>2019-05-05T11:30:28Z</time>
      </trkpt>
      <trkpt lat="46.28578" lon="5.95317">
        <ele>1544</ele>
        <time>2019-05-05T11:30:30Z</time>
      </trkpt>
      <trkpt lat="46.28577" lon="5.95317">
        <ele>1544</ele>
        <time>2019-05-05T11:30:31Z</time>
      </trkpt>
      <trkpt lat="46.28576" lon="5.95317">
        <ele>1545</ele>
        <time>2019-05-05T11:30:32Z</time>
      </trkpt>
      <trkpt lat="46.28573" lon="5.95317">
        <ele>1546</ele>
        <time>2019-05-05T11:30:35Z</time>
      </trkpt>
      <trkpt lat="46.28572" lon="5.9532">
        <ele>1546</ele>
        <time>2019-05-05T11:30:36Z</time>
      </trkpt>
      <trkpt lat="46.28569" lon="5.95332">
        <ele>1549</ele>
        <time>2019-05-05T11:30:43Z</time>
      </trkpt>
      <trkpt lat="46.28565" lon="5.95334">
        <ele>1550</ele>
        <time>2019-05-05T11:30:46Z</time>
      </trkpt>
      <trkpt lat="46.28563" lon="5.95336">
        <ele>1551</ele>
        <time>2019-05-05T11:30:48Z</time>
      </trkpt>
      <trkpt lat="46.28559" lon="5.9534">
        <ele>1552</ele>
        <time>2019-05-05T11:30:51Z</time>
      </trkpt>
      <trkpt lat="46.28558" lon="5.95342">
        <ele>1553</ele>
        <time>2019-05-05T11:30:53Z</time>
      </trkpt>
      <trkpt lat="46.28557" lon="5.95343">
        <ele>1553</ele>
        <time>2019-05-05T11:30:53Z</time>
      </trkpt>
      <trkpt lat="46.28557" lon="5.95343">
        <ele>1554</ele>
        <time>2019-05-05T11:30:54Z</time>
      </trkpt>
      <trkpt lat="46.28554" lon="5.95346">
        <ele>1554</ele>
        <time>2019-05-05T11:30:56Z</time>
      </trkpt>
      <trkpt lat="46.28553" lon="5.95347">
        <ele>1555</ele>
        <time>2019-05-05T11:30:58Z</time>
      </trkpt>
      <trkpt lat="46.28551" lon="5.95347">
        <ele>1556</ele>
        <time>2019-05-05T11:30:59Z</time>
      </trkpt>
      <trkpt lat="46.28546" lon="5.95348">
        <ele>1557</ele>
        <time>2019-05-05T11:31:03Z</time>
      </trkpt>
      <trkpt lat="46.28545" lon="5.95348">
        <ele>1557</ele>
        <time>2019-05-05T11:31:04Z</time>
      </trkpt>
      <trkpt lat="46.2854" lon="5.95349">
        <ele>1559</ele>
        <time>2019-05-05T11:31:07Z</time>
      </trkpt>
      <trkpt lat="46.28538" lon="5.9535">
        <ele>1559</ele>
        <time>2019-05-05T11:31:09Z</time>
      </trkpt>
      <trkpt lat="46.28534" lon="5.95351">
        <ele>1561</ele>
        <time>2019-05-05T11:31:12Z</time>
      </trkpt>
      <trkpt lat="46.2853" lon="5.9535">
        <ele>1562</ele>
        <time>2019-05-05T11:31:15Z</time>
      </trkpt>
      <trkpt lat="46.28527" lon="5.95348">
        <ele>1562</ele>
        <time>2019-05-05T11:31:18Z</time>
      </trkpt>
      <trkpt lat="46.28523" lon="5.95346">
        <ele>1563</ele>
        <time>2019-05-05T11:31:21Z</time>
      </trkpt>
      <trkpt lat="46.28518" lon="5.95344">
        <ele>1564</ele>
        <time>2019-05-05T11:31:24Z</time>
      </trkpt>
      <trkpt lat="46.28516" lon="5.95339">
        <ele>1564</ele>
        <time>2019-05-05T11:31:27Z</time>
      </trkpt>
      <trkpt lat="46.28514" lon="5.95334">
        <ele>1564</ele>
        <time>2019-05-05T11:31:30Z</time>
      </trkpt>
      <trkpt lat="46.28509" lon="5.95326">
        <ele>1564</ele>
        <time>2019-05-05T11:31:35Z</time>
      </trkpt>
      <trkpt lat="46.28509" lon="5.95325">
        <ele>1564</ele>
        <time>2019-05-05T11:31:36Z</time>
      </trkpt>
      <trkpt lat="46.28508" lon="5.95324">
        <ele>1564</ele>
        <time>2019-05-05T11:31:37Z</time>
      </trkpt>
      <trkpt lat="46.28507" lon="5.95324">
        <ele>1565</ele>
        <time>2019-05-05T11:31:38Z</time>
      </trkpt>
      <trkpt lat="46.28504" lon="5.95322">
        <ele>1565</ele>
        <time>2019-05-05T11:31:40Z</time>
      </trkpt>
      <trkpt lat="46.28501" lon="5.95322">
        <ele>1566</ele>
        <time>2019-05-05T11:31:42Z</time>
      </trkpt>
      <trkpt lat="46.28498" lon="5.9532">
        <ele>1566</ele>
        <time>2019-05-05T11:31:44Z</time>
      </trkpt>
      <trkpt lat="46.28495" lon="5.95319">
        <ele>1567</ele>
        <time>2019-05-05T11:31:47Z</time>
      </trkpt>
      <trkpt lat="46.28491" lon="5.95318">
        <ele>1568</ele>
        <time>2019-05-05T11:31:50Z</time>
      </trkpt>
      <trkpt lat="46.28488" lon="5.95316">
        <ele>1568</ele>
        <time>2019-05-05T11:31:52Z</time>
      </trkpt>
      <trkpt lat="46.28487" lon="5.95316">
        <ele>1568</ele>
        <time>2019-05-05T11:31:53Z</time>
      </trkpt>
      <trkpt lat="46.28486" lon="5.95315">
        <ele>1568</ele>
        <time>2019-05-05T11:31:54Z</time>
      </trkpt>
      <trkpt lat="46.28473" lon="5.95299">
        <ele>1569</ele>
        <time>2019-05-05T11:32:06Z</time>
      </trkpt>
      <trkpt lat="46.28472" lon="5.95296">
        <ele>1569</ele>
        <time>2019-05-05T11:32:08Z</time>
      </trkpt>
      <trkpt lat="46.28468" lon="5.95293">
        <ele>1569</ele>
        <time>2019-05-05T11:32:11Z</time>
      </trkpt>
      <trkpt lat="46.28466" lon="5.9529">
        <ele>1569</ele>
        <time>2019-05-05T11:32:13Z</time>
      </trkpt>
      <trkpt lat="46.28449" lon="5.95281">
        <ele>1571</ele>
        <time>2019-05-05T11:32:26Z</time>
      </trkpt>
      <trkpt lat="46.28449" lon="5.95281">
        <ele>1571</ele>
        <time>2019-05-05T11:32:26Z</time>
      </trkpt>
      <trkpt lat="46.28447" lon="5.95281">
        <ele>1571</ele>
        <time>2019-05-05T11:32:28Z</time>
      </trkpt>
      <trkpt lat="46.28444" lon="5.95281">
        <ele>1572</ele>
        <time>2019-05-05T11:32:30Z</time>
      </trkpt>
      <trkpt lat="46.28441" lon="5.9528">
        <ele>1572</ele>
        <time>2019-05-05T11:32:32Z</time>
      </trkpt>
      <trkpt lat="46.28434" lon="5.95278">
        <ele>1574</ele>
        <time>2019-05-05T11:32:37Z</time>
      </trkpt>
      <trkpt lat="46.2843" lon="5.95272">
        <ele>1574</ele>
        <time>2019-05-05T11:32:41Z</time>
      </trkpt>
      <trkpt lat="46.28428" lon="5.95271">
        <ele>1575</ele>
        <time>2019-05-05T11:32:43Z</time>
      </trkpt>
      <trkpt lat="46.2841" lon="5.95262">
        <ele>1581</ele>
        <time>2019-05-05T11:32:57Z</time>
      </trkpt>
      <trkpt lat="46.28408" lon="5.95261">
        <ele>1581</ele>
        <time>2019-05-05T11:32:59Z</time>
      </trkpt>
      <trkpt lat="46.28405" lon="5.95262">
        <ele>1583</ele>
        <time>2019-05-05T11:33:01Z</time>
      </trkpt>
      <trkpt lat="46.28405" lon="5.95261">
        <ele>1582</ele>
        <time>2019-05-05T11:33:02Z</time>
      </trkpt>
      <trkpt lat="46.28403" lon="5.9526">
        <ele>1583</ele>
        <time>2019-05-05T11:33:04Z</time>
      </trkpt>
      <trkpt lat="46.284" lon="5.95259">
        <ele>1584</ele>
        <time>2019-05-05T11:33:06Z</time>
      </trkpt>
      <trkpt lat="46.2839" lon="5.95255">
        <ele>1588</ele>
        <time>2019-05-05T11:33:14Z</time>
      </trkpt>
      <trkpt lat="46.28388" lon="5.95251">
        <ele>1589</ele>
        <time>2019-05-05T11:33:17Z</time>
      </trkpt>
      <trkpt lat="46.28388" lon="5.9525">
        <ele>1589</ele>
        <time>2019-05-05T11:33:17Z</time>
      </trkpt>
      <trkpt lat="46.28385" lon="5.95243">
        <ele>1590</ele>
        <time>2019-05-05T11:33:21Z</time>
      </trkpt>
      <trkpt lat="46.28385" lon="5.95237">
        <ele>1590</ele>
        <time>2019-05-05T11:33:24Z</time>
      </trkpt>
      <trkpt lat="46.28385" lon="5.95234">
        <ele>1590</ele>
        <time>2019-05-05T11:33:26Z</time>
      </trkpt>
      <trkpt lat="46.28384" lon="5.9523">
        <ele>1590</ele>
        <time>2019-05-05T11:33:28Z</time>
      </trkpt>
      <trkpt lat="46.28383" lon="5.95225">
        <ele>1590</ele>
        <time>2019-05-05T11:33:30Z</time>
      </trkpt>
      <trkpt lat="46.28383" lon="5.95222">
        <ele>1590</ele>
        <time>2019-05-05T11:33:32Z</time>
      </trkpt>
      <trkpt lat="46.28382" lon="5.95218">
        <ele>1591</ele>
        <time>2019-05-05T11:33:34Z</time>
      </trkpt>
      <trkpt lat="46.2838" lon="5.95215">
        <ele>1592</ele>
        <time>2019-05-05T11:33:36Z</time>
      </trkpt>
      <trkpt lat="46.28378" lon="5.95209">
        <ele>1593</ele>
        <time>2019-05-05T11:33:40Z</time>
      </trkpt>
      <trkpt lat="46.28378" lon="5.95207">
        <ele>1592</ele>
        <time>2019-05-05T11:33:41Z</time>
      </trkpt>
      <trkpt lat="46.28377" lon="5.95203">
        <ele>1593</ele>
        <time>2019-05-05T11:33:43Z</time>
      </trkpt>
      <trkpt lat="46.28377" lon="5.95196">
        <ele>1593</ele>
        <time>2019-05-05T11:33:47Z</time>
      </trkpt>
      <trkpt lat="46.28377" lon="5.95195">
        <ele>1593</ele>
        <time>2019-05-05T11:33:48Z</time>
      </trkpt>
      <trkpt lat="46.28376" lon="5.95191">
        <ele>1593</ele>
        <time>2019-05-05T11:33:49Z</time>
      </trkpt>
      <trkpt lat="46.28376" lon="5.95188">
        <ele>1593</ele>
        <time>2019-05-05T11:33:51Z</time>
      </trkpt>
      <trkpt lat="46.28376" lon="5.9518">
        <ele>1593</ele>
        <time>2019-05-05T11:33:55Z</time>
      </trkpt>
      <trkpt lat="46.28376" lon="5.95179">
        <ele>1593</ele>
        <time>2019-05-05T11:33:55Z</time>
      </trkpt>
      <trkpt lat="46.28375" lon="5.95172">
        <ele>1593</ele>
        <time>2019-05-05T11:33:59Z</time>
      </trkpt>
      <trkpt lat="46.28375" lon="5.95166">
        <ele>1593</ele>
        <time>2019-05-05T11:34:02Z</time>
      </trkpt>
      <trkpt lat="46.28373" lon="5.95161">
        <ele>1593</ele>
        <time>2019-05-05T11:34:05Z</time>
      </trkpt>
      <trkpt lat="46.28372" lon="5.95157">
        <ele>1593</ele>
        <time>2019-05-05T11:34:07Z</time>
      </trkpt>
      <trkpt lat="46.28371" lon="5.95151">
        <ele>1594</ele>
        <time>2019-05-05T11:34:10Z</time>
      </trkpt>
      <trkpt lat="46.28368" lon="5.95133">
        <ele>1594</ele>
        <time>2019-05-05T11:34:19Z</time>
      </trkpt>
      <trkpt lat="46.28368" lon="5.95126">
        <ele>1594</ele>
        <time>2019-05-05T11:34:23Z</time>
      </trkpt>
      <trkpt lat="46.28367" lon="5.95122">
        <ele>1594</ele>
        <time>2019-05-05T11:34:25Z</time>
      </trkpt>
      <trkpt lat="46.28367" lon="5.9512">
        <ele>1594</ele>
        <time>2019-05-05T11:34:26Z</time>
      </trkpt>
      <trkpt lat="46.28368" lon="5.95116">
        <ele>1593</ele>
        <time>2019-05-05T11:34:28Z</time>
      </trkpt>
      <trkpt lat="46.28369" lon="5.95102">
        <ele>1592</ele>
        <time>2019-05-05T11:34:35Z</time>
      </trkpt>
      <trkpt lat="46.28368" lon="5.95099">
        <ele>1592</ele>
        <time>2019-05-05T11:34:37Z</time>
      </trkpt>
      <trkpt lat="46.28366" lon="5.95097">
        <ele>1592</ele>
        <time>2019-05-05T11:34:39Z</time>
      </trkpt>
      <trkpt lat="46.28365" lon="5.95094">
        <ele>1592</ele>
        <time>2019-05-05T11:34:40Z</time>
      </trkpt>
      <trkpt lat="46.28364" lon="5.95089">
        <ele>1592</ele>
        <time>2019-05-05T11:34:43Z</time>
      </trkpt>
      <trkpt lat="46.28361" lon="5.95086">
        <ele>1592</ele>
        <time>2019-05-05T11:34:45Z</time>
      </trkpt>
      <trkpt lat="46.28353" lon="5.95074">
        <ele>1593</ele>
        <time>2019-05-05T11:34:54Z</time>
      </trkpt>
      <trkpt lat="46.28353" lon="5.95073">
        <ele>1593</ele>
        <time>2019-05-05T11:34:54Z</time>
      </trkpt>
      <trkpt lat="46.28352" lon="5.9507">
        <ele>1592</ele>
        <time>2019-05-05T11:34:56Z</time>
      </trkpt>
      <trkpt lat="46.28351" lon="5.95067">
        <ele>1591</ele>
        <time>2019-05-05T11:34:58Z</time>
      </trkpt>
      <trkpt lat="46.28348" lon="5.95065">
        <ele>1591</ele>
        <time>2019-05-05T11:35:00Z</time>
      </trkpt>
      <trkpt lat="46.28347" lon="5.95063">
        <ele>1591</ele>
        <time>2019-05-05T11:35:01Z</time>
      </trkpt>
      <trkpt lat="46.28347" lon="5.95062">
        <ele>1591</ele>
        <time>2019-05-05T11:35:02Z</time>
      </trkpt>
      <trkpt lat="46.28346" lon="5.9506">
        <ele>1591</ele>
        <time>2019-05-05T11:35:03Z</time>
      </trkpt>
      <trkpt lat="46.28345" lon="5.95059">
        <ele>1591</ele>
        <time>2019-05-05T11:35:04Z</time>
      </trkpt>
      <trkpt lat="46.28343" lon="5.95057">
        <ele>1591</ele>
        <time>2019-05-05T11:35:06Z</time>
      </trkpt>
      <trkpt lat="46.28342" lon="5.95056">
        <ele>1591</ele>
        <time>2019-05-05T11:35:06Z</time>
      </trkpt>
      <trkpt lat="46.2834" lon="5.95054">
        <ele>1591</ele>
        <time>2019-05-05T11:35:08Z</time>
      </trkpt>
      <trkpt lat="46.28339" lon="5.95052">
        <ele>1590</ele>
        <time>2019-05-05T11:35:09Z</time>
      </trkpt>
      <trkpt lat="46.28333" lon="5.95048">
        <ele>1590</ele>
        <time>2019-05-05T11:35:14Z</time>
      </trkpt>
      <trkpt lat="46.28331" lon="5.95047">
        <ele>1591</ele>
        <time>2019-05-05T11:35:16Z</time>
      </trkpt>
      <trkpt lat="46.28324" lon="5.95043">
        <ele>1591</ele>
        <time>2019-05-05T11:35:21Z</time>
      </trkpt>
      <trkpt lat="46.28322" lon="5.95042">
        <ele>1592</ele>
        <time>2019-05-05T11:35:23Z</time>
      </trkpt>
      <trkpt lat="46.28317" lon="5.9504">
        <ele>1592</ele>
        <time>2019-05-05T11:35:27Z</time>
      </trkpt>
      <trkpt lat="46.28314" lon="5.95039">
        <ele>1593</ele>
        <time>2019-05-05T11:35:29Z</time>
      </trkpt>
      <trkpt lat="46.28308" lon="5.95033">
        <ele>1592</ele>
        <time>2019-05-05T11:35:34Z</time>
      </trkpt>
      <trkpt lat="46.28306" lon="5.95033">
        <ele>1593</ele>
        <time>2019-05-05T11:35:36Z</time>
      </trkpt>
      <trkpt lat="46.28304" lon="5.95034">
        <ele>1593</ele>
        <time>2019-05-05T11:35:37Z</time>
      </trkpt>
      <trkpt lat="46.28303" lon="5.95034">
        <ele>1594</ele>
        <time>2019-05-05T11:35:38Z</time>
      </trkpt>
      <trkpt lat="46.28301" lon="5.95035">
        <ele>1594</ele>
        <time>2019-05-05T11:35:40Z</time>
      </trkpt>
      <trkpt lat="46.28298" lon="5.95035">
        <ele>1595</ele>
        <time>2019-05-05T11:35:42Z</time>
      </trkpt>
      <trkpt lat="46.28291" lon="5.95034">
        <ele>1597</ele>
        <time>2019-05-05T11:35:48Z</time>
      </trkpt>
      <trkpt lat="46.28283" lon="5.95035">
        <ele>1599</ele>
        <time>2019-05-05T11:35:54Z</time>
      </trkpt>
      <trkpt lat="46.28276" lon="5.95037">
        <ele>1601</ele>
        <time>2019-05-05T11:35:58Z</time>
      </trkpt>
      <trkpt lat="46.28276" lon="5.95037">
        <ele>1601</ele>
        <time>2019-05-05T11:35:59Z</time>
      </trkpt>
      <trkpt lat="46.28274" lon="5.95039">
        <ele>1602</ele>
        <time>2019-05-05T11:36:01Z</time>
      </trkpt>
      <trkpt lat="46.28258" lon="5.9505">
        <ele>1606</ele>
        <time>2019-05-05T11:36:14Z</time>
      </trkpt>
      <trkpt lat="46.28255" lon="5.95051">
        <ele>1606</ele>
        <time>2019-05-05T11:36:16Z</time>
      </trkpt>
      <trkpt lat="46.28254" lon="5.95052">
        <ele>1607</ele>
        <time>2019-05-05T11:36:17Z</time>
      </trkpt>
      <trkpt lat="46.28252" lon="5.95056">
        <ele>1608</ele>
        <time>2019-05-05T11:36:19Z</time>
      </trkpt>
      <trkpt lat="46.28248" lon="5.95058">
        <ele>1609</ele>
        <time>2019-05-05T11:36:23Z</time>
      </trkpt>
      <trkpt lat="46.28245" lon="5.95059">
        <ele>1609</ele>
        <time>2019-05-05T11:36:25Z</time>
      </trkpt>
      <trkpt lat="46.28243" lon="5.95059">
        <ele>1609</ele>
        <time>2019-05-05T11:36:26Z</time>
      </trkpt>
      <trkpt lat="46.2823" lon="5.95066">
        <ele>1611</ele>
        <time>2019-05-05T11:36:36Z</time>
      </trkpt>
      <trkpt lat="46.28228" lon="5.95067">
        <ele>1612</ele>
        <time>2019-05-05T11:36:38Z</time>
      </trkpt>
      <trkpt lat="46.28227" lon="5.95068">
        <ele>1612</ele>
        <time>2019-05-05T11:36:39Z</time>
      </trkpt>
      <trkpt lat="46.28225" lon="5.95069">
        <ele>1612</ele>
        <time>2019-05-05T11:36:40Z</time>
      </trkpt>
      <trkpt lat="46.28224" lon="5.9507">
        <ele>1612</ele>
        <time>2019-05-05T11:36:41Z</time>
      </trkpt>
      <trkpt lat="46.28222" lon="5.95071">
        <ele>1613</ele>
        <time>2019-05-05T11:36:43Z</time>
      </trkpt>
      <trkpt lat="46.28221" lon="5.95072">
        <ele>1613</ele>
        <time>2019-05-05T11:36:44Z</time>
      </trkpt>
      <trkpt lat="46.2822" lon="5.95072">
        <ele>1613</ele>
        <time>2019-05-05T11:36:44Z</time>
      </trkpt>
      <trkpt lat="46.28218" lon="5.95073">
        <ele>1613</ele>
        <time>2019-05-05T11:36:46Z</time>
      </trkpt>
      <trkpt lat="46.28216" lon="5.95075">
        <ele>1614</ele>
        <time>2019-05-05T11:36:48Z</time>
      </trkpt>
      <trkpt lat="46.28198" lon="5.95077">
        <ele>1614</ele>
        <time>2019-05-05T11:37:01Z</time>
      </trkpt>
      <trkpt lat="46.28182" lon="5.95074">
        <ele>1615</ele>
        <time>2019-05-05T11:37:13Z</time>
      </trkpt>
      <trkpt lat="46.28164" lon="5.95074">
        <ele>1616</ele>
        <time>2019-05-05T11:37:26Z</time>
      </trkpt>
      <trkpt lat="46.2816" lon="5.95076">
        <ele>1617</ele>
        <time>2019-05-05T11:37:28Z</time>
      </trkpt>
      <trkpt lat="46.28158" lon="5.95075">
        <ele>1617</ele>
        <time>2019-05-05T11:37:30Z</time>
      </trkpt>
      <trkpt lat="46.28149" lon="5.95076">
        <ele>1618</ele>
        <time>2019-05-05T11:37:36Z</time>
      </trkpt>
      <trkpt lat="46.28143" lon="5.95079">
        <ele>1619</ele>
        <time>2019-05-05T11:37:41Z</time>
      </trkpt>
      <trkpt lat="46.28143" lon="5.95079">
        <ele>1619</ele>
        <time>2019-05-05T11:37:42Z</time>
      </trkpt>
      <trkpt lat="46.28143" lon="5.95083">
        <ele>1619</ele>
        <time>2019-05-05T11:37:44Z</time>
      </trkpt>
      <trkpt lat="46.28142" lon="5.95087">
        <ele>1620</ele>
        <time>2019-05-05T11:37:46Z</time>
      </trkpt>
      <trkpt lat="46.28139" lon="5.9509">
        <ele>1621</ele>
        <time>2019-05-05T11:37:49Z</time>
      </trkpt>
      <trkpt lat="46.28137" lon="5.95091">
        <ele>1621</ele>
        <time>2019-05-05T11:37:50Z</time>
      </trkpt>
      <trkpt lat="46.28136" lon="5.95091">
        <ele>1621</ele>
        <time>2019-05-05T11:37:51Z</time>
      </trkpt>
      <trkpt lat="46.2813" lon="5.95095">
        <ele>1622</ele>
        <time>2019-05-05T11:37:55Z</time>
      </trkpt>
      <trkpt lat="46.28128" lon="5.95096">
        <ele>1623</ele>
        <time>2019-05-05T11:37:57Z</time>
      </trkpt>
      <trkpt lat="46.28127" lon="5.95097">
        <ele>1623</ele>
        <time>2019-05-05T11:37:58Z</time>
      </trkpt>
      <trkpt lat="46.2811" lon="5.95109">
        <ele>1627</ele>
        <time>2019-05-05T11:38:12Z</time>
      </trkpt>
      <trkpt lat="46.28108" lon="5.95111">
        <ele>1628</ele>
        <time>2019-05-05T11:38:13Z</time>
      </trkpt>
      <trkpt lat="46.28104" lon="5.95113">
        <ele>1629</ele>
        <time>2019-05-05T11:38:17Z</time>
      </trkpt>
      <trkpt lat="46.28099" lon="5.95114">
        <ele>1630</ele>
        <time>2019-05-05T11:38:20Z</time>
      </trkpt>
      <trkpt lat="46.28098" lon="5.95114">
        <ele>1630</ele>
        <time>2019-05-05T11:38:21Z</time>
      </trkpt>
      <trkpt lat="46.28096" lon="5.95113">
        <ele>1630</ele>
        <time>2019-05-05T11:38:23Z</time>
      </trkpt>
      <trkpt lat="46.28092" lon="5.9511">
        <ele>1630</ele>
        <time>2019-05-05T11:38:26Z</time>
      </trkpt>
      <trkpt lat="46.28075" lon="5.95095">
        <ele>1628</ele>
        <time>2019-05-05T11:38:40Z</time>
      </trkpt>
      <trkpt lat="46.2807" lon="5.95088">
        <ele>1628</ele>
        <time>2019-05-05T11:38:46Z</time>
      </trkpt>
      <trkpt lat="46.28056" lon="5.95073">
        <ele>1626</ele>
        <time>2019-05-05T11:38:58Z</time>
      </trkpt>
      <trkpt lat="46.28052" lon="5.95072">
        <ele>1627</ele>
        <time>2019-05-05T11:39:01Z</time>
      </trkpt>
      <trkpt lat="46.2804" lon="5.95068">
        <ele>1627</ele>
        <time>2019-05-05T11:39:10Z</time>
      </trkpt>
      <trkpt lat="46.28023" lon="5.95058">
        <ele>1627</ele>
        <time>2019-05-05T11:39:24Z</time>
      </trkpt>
      <trkpt lat="46.2802" lon="5.95056">
        <ele>1626</ele>
        <time>2019-05-05T11:39:25Z</time>
      </trkpt>
      <trkpt lat="46.28016" lon="5.95054">
        <ele>1626</ele>
        <time>2019-05-05T11:39:29Z</time>
      </trkpt>
      <trkpt lat="46.28012" lon="5.95053">
        <ele>1627</ele>
        <time>2019-05-05T11:39:32Z</time>
      </trkpt>
      <trkpt lat="46.28009" lon="5.95056">
        <ele>1628</ele>
        <time>2019-05-05T11:39:35Z</time>
      </trkpt>
      <trkpt lat="46.28007" lon="5.95057">
        <ele>1628</ele>
        <time>2019-05-05T11:39:36Z</time>
      </trkpt>
      <trkpt lat="46.28004" lon="5.95058">
        <ele>1629</ele>
        <time>2019-05-05T11:39:38Z</time>
      </trkpt>
      <trkpt lat="46.28002" lon="5.95062">
        <ele>1630</ele>
        <time>2019-05-05T11:39:41Z</time>
      </trkpt>
      <trkpt lat="46.28002" lon="5.95067">
        <ele>1631</ele>
        <time>2019-05-05T11:39:43Z</time>
      </trkpt>
      <trkpt lat="46.27997" lon="5.95071">
        <ele>1633</ele>
        <time>2019-05-05T11:39:47Z</time>
      </trkpt>
      <trkpt lat="46.2799" lon="5.95073">
        <ele>1634</ele>
        <time>2019-05-05T11:39:53Z</time>
      </trkpt>
      <trkpt lat="46.27983" lon="5.95076">
        <ele>1636</ele>
        <time>2019-05-05T11:39:58Z</time>
      </trkpt>
      <trkpt lat="46.2798" lon="5.9508">
        <ele>1637</ele>
        <time>2019-05-05T11:40:01Z</time>
      </trkpt>
      <trkpt lat="46.27979" lon="5.95082">
        <ele>1638</ele>
        <time>2019-05-05T11:40:03Z</time>
      </trkpt>
      <trkpt lat="46.27978" lon="5.95085">
        <ele>1639</ele>
        <time>2019-05-05T11:40:05Z</time>
      </trkpt>
      <trkpt lat="46.27975" lon="5.95087">
        <ele>1639</ele>
        <time>2019-05-05T11:40:07Z</time>
      </trkpt>
      <trkpt lat="46.27968" lon="5.9509">
        <ele>1641</ele>
        <time>2019-05-05T11:40:12Z</time>
      </trkpt>
      <trkpt lat="46.27966" lon="5.95095">
        <ele>1642</ele>
        <time>2019-05-05T11:40:15Z</time>
      </trkpt>
      <trkpt lat="46.27962" lon="5.95094">
        <ele>1642</ele>
        <time>2019-05-05T11:40:18Z</time>
      </trkpt>
      <trkpt lat="46.27959" lon="5.95094">
        <ele>1643</ele>
        <time>2019-05-05T11:40:20Z</time>
      </trkpt>
      <trkpt lat="46.27956" lon="5.9509">
        <ele>1642</ele>
        <time>2019-05-05T11:40:23Z</time>
      </trkpt>
      <trkpt lat="46.27956" lon="5.95086">
        <ele>1641</ele>
        <time>2019-05-05T11:40:25Z</time>
      </trkpt>
      <trkpt lat="46.27953" lon="5.95084">
        <ele>1641</ele>
        <time>2019-05-05T11:40:28Z</time>
      </trkpt>
      <trkpt lat="46.2795" lon="5.95083">
        <ele>1641</ele>
        <time>2019-05-05T11:40:30Z</time>
      </trkpt>
      <trkpt lat="46.27947" lon="5.95081">
        <ele>1641</ele>
        <time>2019-05-05T11:40:32Z</time>
      </trkpt>
      <trkpt lat="46.27944" lon="5.95078">
        <ele>1641</ele>
        <time>2019-05-05T11:40:35Z</time>
      </trkpt>
      <trkpt lat="46.27939" lon="5.95077">
        <ele>1641</ele>
        <time>2019-05-05T11:40:39Z</time>
      </trkpt>
      <trkpt lat="46.27936" lon="5.95077">
        <ele>1642</ele>
        <time>2019-05-05T11:40:41Z</time>
      </trkpt>
      <trkpt lat="46.27934" lon="5.95077">
        <ele>1642</ele>
        <time>2019-05-05T11:40:42Z</time>
      </trkpt>
      <trkpt lat="46.27929" lon="5.95079">
        <ele>1643</ele>
        <time>2019-05-05T11:40:46Z</time>
      </trkpt>
      <trkpt lat="46.27926" lon="5.9508">
        <ele>1644</ele>
        <time>2019-05-05T11:40:48Z</time>
      </trkpt>
      <trkpt lat="46.27925" lon="5.95081">
        <ele>1644</ele>
        <time>2019-05-05T11:40:49Z</time>
      </trkpt>
      <trkpt lat="46.27922" lon="5.95082">
        <ele>1645</ele>
        <time>2019-05-05T11:40:51Z</time>
      </trkpt>
      <trkpt lat="46.2792" lon="5.95082">
        <ele>1645</ele>
        <time>2019-05-05T11:40:53Z</time>
      </trkpt>
      <trkpt lat="46.27918" lon="5.95082">
        <ele>1645</ele>
        <time>2019-05-05T11:40:55Z</time>
      </trkpt>
      <trkpt lat="46.27915" lon="5.95085">
        <ele>1646</ele>
        <time>2019-05-05T11:40:57Z</time>
      </trkpt>
      <trkpt lat="46.27908" lon="5.9509">
        <ele>1648</ele>
        <time>2019-05-05T11:41:03Z</time>
      </trkpt>
      <trkpt lat="46.27907" lon="5.95094">
        <ele>1649</ele>
        <time>2019-05-05T11:41:05Z</time>
      </trkpt>
      <trkpt lat="46.27903" lon="5.95096">
        <ele>1650</ele>
        <time>2019-05-05T11:41:08Z</time>
      </trkpt>
      <trkpt lat="46.27899" lon="5.95101">
        <ele>1651</ele>
        <time>2019-05-05T11:41:12Z</time>
      </trkpt>
      <trkpt lat="46.27897" lon="5.95104">
        <ele>1652</ele>
        <time>2019-05-05T11:41:14Z</time>
      </trkpt>
      <trkpt lat="46.27895" lon="5.95107">
        <ele>1653</ele>
        <time>2019-05-05T11:41:16Z</time>
      </trkpt>
      <trkpt lat="46.27894" lon="5.95108">
        <ele>1653</ele>
        <time>2019-05-05T11:41:17Z</time>
      </trkpt>
      <trkpt lat="46.27892" lon="5.95109">
        <ele>1653</ele>
        <time>2019-05-05T11:41:19Z</time>
      </trkpt>
      <trkpt lat="46.2789" lon="5.95114">
        <ele>1655</ele>
        <time>2019-05-05T11:41:22Z</time>
      </trkpt>
      <trkpt lat="46.27887" lon="5.95119">
        <ele>1656</ele>
        <time>2019-05-05T11:41:25Z</time>
      </trkpt>
      <trkpt lat="46.27886" lon="5.95122">
        <ele>1657</ele>
        <time>2019-05-05T11:41:27Z</time>
      </trkpt>
      <trkpt lat="46.27885" lon="5.95125">
        <ele>1657</ele>
        <time>2019-05-05T11:41:28Z</time>
      </trkpt>
      <trkpt lat="46.27881" lon="5.9513">
        <ele>1658</ele>
        <time>2019-05-05T11:41:32Z</time>
      </trkpt>
      <trkpt lat="46.27878" lon="5.95132">
        <ele>1659</ele>
        <time>2019-05-05T11:41:35Z</time>
      </trkpt>
      <trkpt lat="46.27877" lon="5.95132">
        <ele>1659</ele>
        <time>2019-05-05T11:41:35Z</time>
      </trkpt>
      <trkpt lat="46.2787" lon="5.95134">
        <ele>1660</ele>
        <time>2019-05-05T11:41:41Z</time>
      </trkpt>
      <trkpt lat="46.27867" lon="5.95137">
        <ele>1661</ele>
        <time>2019-05-05T11:41:44Z</time>
      </trkpt>
      <trkpt lat="46.27865" lon="5.95137">
        <ele>1661</ele>
        <time>2019-05-05T11:41:45Z</time>
      </trkpt>
      <trkpt lat="46.27863" lon="5.95138">
        <ele>1662</ele>
        <time>2019-05-05T11:41:46Z</time>
      </trkpt>
      <trkpt lat="46.27862" lon="5.95139">
        <ele>1662</ele>
        <time>2019-05-05T11:41:47Z</time>
      </trkpt>
      <trkpt lat="46.27848" lon="5.95138">
        <ele>1663</ele>
        <time>2019-05-05T11:41:57Z</time>
      </trkpt>
      <trkpt lat="46.27842" lon="5.95142">
        <ele>1664</ele>
        <time>2019-05-05T11:42:02Z</time>
      </trkpt>
      <trkpt lat="46.27835" lon="5.95147">
        <ele>1666</ele>
        <time>2019-05-05T11:42:08Z</time>
      </trkpt>
      <trkpt lat="46.27829" lon="5.95152">
        <ele>1667</ele>
        <time>2019-05-05T11:42:13Z</time>
      </trkpt>
      <trkpt lat="46.27813" lon="5.9515">
        <ele>1668</ele>
        <time>2019-05-05T11:42:25Z</time>
      </trkpt>
      <trkpt lat="46.27801" lon="5.95132">
        <ele>1667</ele>
        <time>2019-05-05T11:42:37Z</time>
      </trkpt>
      <trkpt lat="46.27795" lon="5.95125">
        <ele>1666</ele>
        <time>2019-05-05T11:42:43Z</time>
      </trkpt>
      <trkpt lat="46.27793" lon="5.95121">
        <ele>1666</ele>
        <time>2019-05-05T11:42:45Z</time>
      </trkpt>
      <trkpt lat="46.27786" lon="5.95116">
        <ele>1666</ele>
        <time>2019-05-05T11:42:51Z</time>
      </trkpt>
      <trkpt lat="46.27781" lon="5.95105">
        <ele>1666</ele>
        <time>2019-05-05T11:42:57Z</time>
      </trkpt>
      <trkpt lat="46.2778" lon="5.95103">
        <ele>1666</ele>
        <time>2019-05-05T11:42:59Z</time>
      </trkpt>
      <trkpt lat="46.27778" lon="5.95101">
        <ele>1666</ele>
        <time>2019-05-05T11:43:00Z</time>
      </trkpt>
      <trkpt lat="46.27771" lon="5.95095">
        <ele>1667</ele>
        <time>2019-05-05T11:43:06Z</time>
      </trkpt>
      <trkpt lat="46.27769" lon="5.95095">
        <ele>1667</ele>
        <time>2019-05-05T11:43:08Z</time>
      </trkpt>
      <trkpt lat="46.27767" lon="5.95096">
        <ele>1667</ele>
        <time>2019-05-05T11:43:09Z</time>
      </trkpt>
      <trkpt lat="46.27764" lon="5.95098">
        <ele>1667</ele>
        <time>2019-05-05T11:43:11Z</time>
      </trkpt>
      <trkpt lat="46.27763" lon="5.951">
        <ele>1667</ele>
        <time>2019-05-05T11:43:12Z</time>
      </trkpt>
      <trkpt lat="46.2776" lon="5.95105">
        <ele>1668</ele>
        <time>2019-05-05T11:43:16Z</time>
      </trkpt>
      <trkpt lat="46.27757" lon="5.95109">
        <ele>1668</ele>
        <time>2019-05-05T11:43:19Z</time>
      </trkpt>
      <trkpt lat="46.27755" lon="5.95113">
        <ele>1668</ele>
        <time>2019-05-05T11:43:22Z</time>
      </trkpt>
      <trkpt lat="46.27754" lon="5.95114">
        <ele>1668</ele>
        <time>2019-05-05T11:43:22Z</time>
      </trkpt>
      <trkpt lat="46.27752" lon="5.95117">
        <ele>1668</ele>
        <time>2019-05-05T11:43:25Z</time>
      </trkpt>
      <trkpt lat="46.2775" lon="5.95118">
        <ele>1668</ele>
        <time>2019-05-05T11:43:26Z</time>
      </trkpt>
      <trkpt lat="46.27749" lon="5.95119">
        <ele>1668</ele>
        <time>2019-05-05T11:43:27Z</time>
      </trkpt>
      <trkpt lat="46.27747" lon="5.95119">
        <ele>1668</ele>
        <time>2019-05-05T11:43:28Z</time>
      </trkpt>
      <trkpt lat="46.27745" lon="5.95119">
        <ele>1668</ele>
        <time>2019-05-05T11:43:29Z</time>
      </trkpt>
      <trkpt lat="46.27744" lon="5.9512">
        <ele>1668</ele>
        <time>2019-05-05T11:43:30Z</time>
      </trkpt>
      <trkpt lat="46.27743" lon="5.95119">
        <ele>1668</ele>
        <time>2019-05-05T11:43:31Z</time>
      </trkpt>
      <trkpt lat="46.27739" lon="5.95121">
        <ele>1668</ele>
        <time>2019-05-05T11:43:34Z</time>
      </trkpt>
      <trkpt lat="46.27737" lon="5.95123">
        <ele>1668</ele>
        <time>2019-05-05T11:43:36Z</time>
      </trkpt>
      <trkpt lat="46.27735" lon="5.95125">
        <ele>1668</ele>
        <time>2019-05-05T11:43:37Z</time>
      </trkpt>
      <trkpt lat="46.27731" lon="5.95124">
        <ele>1668</ele>
        <time>2019-05-05T11:43:41Z</time>
      </trkpt>
      <trkpt lat="46.2773" lon="5.95118">
        <ele>1669</ele>
        <time>2019-05-05T11:43:44Z</time>
      </trkpt>
      <trkpt lat="46.27728" lon="5.95115">
        <ele>1669</ele>
        <time>2019-05-05T11:43:46Z</time>
      </trkpt>
      <trkpt lat="46.27725" lon="5.95109">
        <ele>1669</ele>
        <time>2019-05-05T11:43:50Z</time>
      </trkpt>
      <trkpt lat="46.27724" lon="5.95108">
        <ele>1669</ele>
        <time>2019-05-05T11:43:50Z</time>
      </trkpt>
      <trkpt lat="46.27713" lon="5.95087">
        <ele>1669</ele>
        <time>2019-05-05T11:44:04Z</time>
      </trkpt>
      <trkpt lat="46.27711" lon="5.95084">
        <ele>1669</ele>
        <time>2019-05-05T11:44:06Z</time>
      </trkpt>
      <trkpt lat="46.27708" lon="5.95082">
        <ele>1669</ele>
        <time>2019-05-05T11:44:08Z</time>
      </trkpt>
      <trkpt lat="46.27705" lon="5.9508">
        <ele>1669</ele>
        <time>2019-05-05T11:44:10Z</time>
      </trkpt>
      <trkpt lat="46.27701" lon="5.9508">
        <ele>1670</ele>
        <time>2019-05-05T11:44:13Z</time>
      </trkpt>
      <trkpt lat="46.27697" lon="5.95077">
        <ele>1670</ele>
        <time>2019-05-05T11:44:16Z</time>
      </trkpt>
      <trkpt lat="46.27696" lon="5.95076">
        <ele>1670</ele>
        <time>2019-05-05T11:44:18Z</time>
      </trkpt>
      <trkpt lat="46.27683" lon="5.95066">
        <ele>1670</ele>
        <time>2019-05-05T11:44:28Z</time>
      </trkpt>
      <trkpt lat="46.27671" lon="5.95047">
        <ele>1669</ele>
        <time>2019-05-05T11:44:41Z</time>
      </trkpt>
      <trkpt lat="46.27658" lon="5.95029">
        <ele>1668</ele>
        <time>2019-05-05T11:44:54Z</time>
      </trkpt>
      <trkpt lat="46.27653" lon="5.95016">
        <ele>1667</ele>
        <time>2019-05-05T11:45:02Z</time>
      </trkpt>
      <trkpt lat="46.2764" lon="5.95013">
        <ele>1667</ele>
        <time>2019-05-05T11:45:11Z</time>
      </trkpt>
      <trkpt lat="46.27636" lon="5.95009">
        <ele>1666</ele>
        <time>2019-05-05T11:45:15Z</time>
      </trkpt>
      <trkpt lat="46.27627" lon="5.94986">
        <ele>1665</ele>
        <time>2019-05-05T11:45:28Z</time>
      </trkpt>
      <trkpt lat="46.27626" lon="5.94983">
        <ele>1665</ele>
        <time>2019-05-05T11:45:30Z</time>
      </trkpt>
      <trkpt lat="46.27625" lon="5.94981">
        <ele>1665</ele>
        <time>2019-05-05T11:45:31Z</time>
      </trkpt>
      <trkpt lat="46.27623" lon="5.94977">
        <ele>1665</ele>
        <time>2019-05-05T11:45:34Z</time>
      </trkpt>
      <trkpt lat="46.2762" lon="5.94973">
        <ele>1665</ele>
        <time>2019-05-05T11:45:36Z</time>
      </trkpt>
      <trkpt lat="46.2762" lon="5.94969">
        <ele>1665</ele>
        <time>2019-05-05T11:45:38Z</time>
      </trkpt>
      <trkpt lat="46.27623" lon="5.94966">
        <ele>1665</ele>
        <time>2019-05-05T11:45:41Z</time>
      </trkpt>
      <trkpt lat="46.27624" lon="5.94964">
        <ele>1665</ele>
        <time>2019-05-05T11:45:42Z</time>
      </trkpt>
      <trkpt lat="46.27622" lon="5.94957">
        <ele>1665</ele>
        <time>2019-05-05T11:45:46Z</time>
      </trkpt>
      <trkpt lat="46.27622" lon="5.94954">
        <ele>1665</ele>
        <time>2019-05-05T11:45:47Z</time>
      </trkpt>
      <trkpt lat="46.27621" lon="5.94952">
        <ele>1665</ele>
        <time>2019-05-05T11:45:49Z</time>
      </trkpt>
      <trkpt lat="46.27621" lon="5.94948">
        <ele>1665</ele>
        <time>2019-05-05T11:45:51Z</time>
      </trkpt>
      <trkpt lat="46.2762" lon="5.94947">
        <ele>1664</ele>
        <time>2019-05-05T11:45:51Z</time>
      </trkpt>
      <trkpt lat="46.27615" lon="5.94942">
        <ele>1665</ele>
        <time>2019-05-05T11:45:56Z</time>
      </trkpt>
      <trkpt lat="46.27614" lon="5.94936">
        <ele>1665</ele>
        <time>2019-05-05T11:45:59Z</time>
      </trkpt>
      <trkpt lat="46.27614" lon="5.94929">
        <ele>1665</ele>
        <time>2019-05-05T11:46:02Z</time>
      </trkpt>
      <trkpt lat="46.27613" lon="5.94921">
        <ele>1665</ele>
        <time>2019-05-05T11:46:06Z</time>
      </trkpt>
      <trkpt lat="46.27612" lon="5.94916">
        <ele>1666</ele>
        <time>2019-05-05T11:46:09Z</time>
      </trkpt>
      <trkpt lat="46.2761" lon="5.94914">
        <ele>1666</ele>
        <time>2019-05-05T11:46:11Z</time>
      </trkpt>
      <trkpt lat="46.27611" lon="5.94908">
        <ele>1666</ele>
        <time>2019-05-05T11:46:14Z</time>
      </trkpt>
      <trkpt lat="46.27611" lon="5.94906">
        <ele>1666</ele>
        <time>2019-05-05T11:46:15Z</time>
      </trkpt>
      <trkpt lat="46.2761" lon="5.949">
        <ele>1667</ele>
        <time>2019-05-05T11:46:18Z</time>
      </trkpt>
      <trkpt lat="46.2761" lon="5.94897">
        <ele>1667</ele>
        <time>2019-05-05T11:46:19Z</time>
      </trkpt>
      <trkpt lat="46.27608" lon="5.94888">
        <ele>1668</ele>
        <time>2019-05-05T11:46:24Z</time>
      </trkpt>
      <trkpt lat="46.27608" lon="5.94885">
        <ele>1668</ele>
        <time>2019-05-05T11:46:25Z</time>
      </trkpt>
      <trkpt lat="46.27607" lon="5.94881">
        <ele>1668</ele>
        <time>2019-05-05T11:46:28Z</time>
      </trkpt>
      <trkpt lat="46.27608" lon="5.94869">
        <ele>1669</ele>
        <time>2019-05-05T11:46:34Z</time>
      </trkpt>
      <trkpt lat="46.27608" lon="5.94867">
        <ele>1669</ele>
        <time>2019-05-05T11:46:35Z</time>
      </trkpt>
      <trkpt lat="46.27605" lon="5.94862">
        <ele>1670</ele>
        <time>2019-05-05T11:46:38Z</time>
      </trkpt>
      <trkpt lat="46.27601" lon="5.94855">
        <ele>1671</ele>
        <time>2019-05-05T11:46:43Z</time>
      </trkpt>
      <trkpt lat="46.27601" lon="5.94853">
        <ele>1671</ele>
        <time>2019-05-05T11:46:44Z</time>
      </trkpt>
      <trkpt lat="46.27601" lon="5.94844">
        <ele>1672</ele>
        <time>2019-05-05T11:46:48Z</time>
      </trkpt>
      <trkpt lat="46.27601" lon="5.94837">
        <ele>1672</ele>
        <time>2019-05-05T11:46:52Z</time>
      </trkpt>
      <trkpt lat="46.27598" lon="5.94833">
        <ele>1673</ele>
        <time>2019-05-05T11:46:55Z</time>
      </trkpt>
      <trkpt lat="46.27597" lon="5.9483">
        <ele>1673</ele>
        <time>2019-05-05T11:46:56Z</time>
      </trkpt>
      <trkpt lat="46.27597" lon="5.94828">
        <ele>1673</ele>
        <time>2019-05-05T11:46:57Z</time>
      </trkpt>
      <trkpt lat="46.27597" lon="5.9482">
        <ele>1674</ele>
        <time>2019-05-05T11:47:01Z</time>
      </trkpt>
      <trkpt lat="46.27597" lon="5.94816">
        <ele>1674</ele>
        <time>2019-05-05T11:47:03Z</time>
      </trkpt>
      <trkpt lat="46.27596" lon="5.94805">
        <ele>1675</ele>
        <time>2019-05-05T11:47:09Z</time>
      </trkpt>
      <trkpt lat="46.27594" lon="5.94799">
        <ele>1676</ele>
        <time>2019-05-05T11:47:12Z</time>
      </trkpt>
      <trkpt lat="46.27584" lon="5.94787">
        <ele>1679</ele>
        <time>2019-05-05T11:47:22Z</time>
      </trkpt>
      <trkpt lat="46.27576" lon="5.94783">
        <ele>1681</ele>
        <time>2019-05-05T11:47:29Z</time>
      </trkpt>
      <trkpt lat="46.27574" lon="5.94783">
        <ele>1681</ele>
        <time>2019-05-05T11:47:30Z</time>
      </trkpt>
      <trkpt lat="46.27573" lon="5.94783">
        <ele>1681</ele>
        <time>2019-05-05T11:47:31Z</time>
      </trkpt>
      <trkpt lat="46.27571" lon="5.94783">
        <ele>1682</ele>
        <time>2019-05-05T11:47:32Z</time>
      </trkpt>
      <trkpt lat="46.2757" lon="5.94783">
        <ele>1682</ele>
        <time>2019-05-05T11:47:33Z</time>
      </trkpt>
      <trkpt lat="46.27565" lon="5.94778">
        <ele>1684</ele>
        <time>2019-05-05T11:47:38Z</time>
      </trkpt>
      <trkpt lat="46.2756" lon="5.94775">
        <ele>1685</ele>
        <time>2019-05-05T11:47:42Z</time>
      </trkpt>
      <trkpt lat="46.27558" lon="5.94773">
        <ele>1686</ele>
        <time>2019-05-05T11:47:43Z</time>
      </trkpt>
      <trkpt lat="46.27556" lon="5.94772">
        <ele>1686</ele>
        <time>2019-05-05T11:47:45Z</time>
      </trkpt>
      <trkpt lat="46.27554" lon="5.94771">
        <ele>1687</ele>
        <time>2019-05-05T11:47:47Z</time>
      </trkpt>
      <trkpt lat="46.27552" lon="5.9477">
        <ele>1687</ele>
        <time>2019-05-05T11:47:48Z</time>
      </trkpt>
      <trkpt lat="46.27535" lon="5.94769">
        <ele>1691</ele>
        <time>2019-05-05T11:48:00Z</time>
      </trkpt>
      <trkpt lat="46.27533" lon="5.94769">
        <ele>1692</ele>
        <time>2019-05-05T11:48:02Z</time>
      </trkpt>
      <trkpt lat="46.27529" lon="5.94771">
        <ele>1693</ele>
        <time>2019-05-05T11:48:05Z</time>
      </trkpt>
      <trkpt lat="46.2751" lon="5.94772">
        <ele>1695</ele>
        <time>2019-05-05T11:48:19Z</time>
      </trkpt>
      <trkpt lat="46.27498" lon="5.94771">
        <ele>1697</ele>
        <time>2019-05-05T11:48:28Z</time>
      </trkpt>
      <trkpt lat="46.27492" lon="5.94771">
        <ele>1697</ele>
        <time>2019-05-05T11:48:32Z</time>
      </trkpt>
      <trkpt lat="46.27488" lon="5.9477">
        <ele>1698</ele>
        <time>2019-05-05T11:48:35Z</time>
      </trkpt>
      <trkpt lat="46.27488" lon="5.94769">
        <ele>1698</ele>
        <time>2019-05-05T11:48:36Z</time>
      </trkpt>
      <trkpt lat="46.27487" lon="5.94769">
        <ele>1698</ele>
        <time>2019-05-05T11:48:36Z</time>
      </trkpt>
      <trkpt lat="46.27484" lon="5.94768">
        <ele>1698</ele>
        <time>2019-05-05T11:48:38Z</time>
      </trkpt>
      <trkpt lat="46.27481" lon="5.94768">
        <ele>1699</ele>
        <time>2019-05-05T11:48:40Z</time>
      </trkpt>
      <trkpt lat="46.27478" lon="5.94768">
        <ele>1699</ele>
        <time>2019-05-05T11:48:43Z</time>
      </trkpt>
      <trkpt lat="46.27475" lon="5.94767">
        <ele>1699</ele>
        <time>2019-05-05T11:48:45Z</time>
      </trkpt>
      <trkpt lat="46.27473" lon="5.94767">
        <ele>1699</ele>
        <time>2019-05-05T11:48:46Z</time>
      </trkpt>
      <trkpt lat="46.27471" lon="5.94767">
        <ele>1700</ele>
        <time>2019-05-05T11:48:48Z</time>
      </trkpt>
      <trkpt lat="46.27465" lon="5.94766">
        <ele>1700</ele>
        <time>2019-05-05T11:48:52Z</time>
      </trkpt>
      <trkpt lat="46.27462" lon="5.94765">
        <ele>1701</ele>
        <time>2019-05-05T11:48:54Z</time>
      </trkpt>
      <trkpt lat="46.2746" lon="5.94763">
        <ele>1701</ele>
        <time>2019-05-05T11:48:57Z</time>
      </trkpt>
      <trkpt lat="46.27457" lon="5.94761">
        <ele>1701</ele>
        <time>2019-05-05T11:48:59Z</time>
      </trkpt>
      <trkpt lat="46.27446" lon="5.94744">
        <ele>1703</ele>
        <time>2019-05-05T11:49:11Z</time>
      </trkpt>
      <trkpt lat="46.27444" lon="5.9474">
        <ele>1703</ele>
        <time>2019-05-05T11:49:13Z</time>
      </trkpt>
      <trkpt lat="46.2744" lon="5.94733">
        <ele>1704</ele>
        <time>2019-05-05T11:49:17Z</time>
      </trkpt>
      <trkpt lat="46.27438" lon="5.9473">
        <ele>1704</ele>
        <time>2019-05-05T11:49:20Z</time>
      </trkpt>
      <trkpt lat="46.27436" lon="5.94725">
        <ele>1704</ele>
        <time>2019-05-05T11:49:23Z</time>
      </trkpt>
      <trkpt lat="46.27433" lon="5.94721">
        <ele>1705</ele>
        <time>2019-05-05T11:49:25Z</time>
      </trkpt>
      <trkpt lat="46.27429" lon="5.94717">
        <ele>1705</ele>
        <time>2019-05-05T11:49:29Z</time>
      </trkpt>
      <trkpt lat="46.27413" lon="5.94705">
        <ele>1705</ele>
        <time>2019-05-05T11:49:42Z</time>
      </trkpt>
      <trkpt lat="46.27395" lon="5.94701">
        <ele>1705</ele>
        <time>2019-05-05T11:49:55Z</time>
      </trkpt>
      <trkpt lat="46.27382" lon="5.94682">
        <ele>1706</ele>
        <time>2019-05-05T11:50:09Z</time>
      </trkpt>
      <trkpt lat="46.27371" lon="5.94668">
        <ele>1706</ele>
        <time>2019-05-05T11:50:20Z</time>
      </trkpt>
      <trkpt lat="46.27367" lon="5.94659">
        <ele>1706</ele>
        <time>2019-05-05T11:50:25Z</time>
      </trkpt>
      <trkpt lat="46.27362" lon="5.94653">
        <ele>1706</ele>
        <time>2019-05-05T11:50:29Z</time>
      </trkpt>
      <trkpt lat="46.27359" lon="5.94647">
        <ele>1706</ele>
        <time>2019-05-05T11:50:33Z</time>
      </trkpt>
      <trkpt lat="46.27355" lon="5.94637">
        <ele>1706</ele>
        <time>2019-05-05T11:50:39Z</time>
      </trkpt>
      <trkpt lat="46.27352" lon="5.94632">
        <ele>1706</ele>
        <time>2019-05-05T11:50:42Z</time>
      </trkpt>
      <trkpt lat="46.2735" lon="5.9463">
        <ele>1705</ele>
        <time>2019-05-05T11:50:44Z</time>
      </trkpt>
      <trkpt lat="46.27343" lon="5.94628">
        <ele>1704</ele>
        <time>2019-05-05T11:50:49Z</time>
      </trkpt>
      <trkpt lat="46.27339" lon="5.94628">
        <ele>1704</ele>
        <time>2019-05-05T11:50:52Z</time>
      </trkpt>
      <trkpt lat="46.27332" lon="5.94628">
        <ele>1703</ele>
        <time>2019-05-05T11:50:57Z</time>
      </trkpt>
      <trkpt lat="46.27331" lon="5.94628">
        <ele>1703</ele>
        <time>2019-05-05T11:50:58Z</time>
      </trkpt>
      <trkpt lat="46.27328" lon="5.94627">
        <ele>1702</ele>
        <time>2019-05-05T11:51:00Z</time>
      </trkpt>
      <trkpt lat="46.27326" lon="5.94627">
        <ele>1702</ele>
        <time>2019-05-05T11:51:02Z</time>
      </trkpt>
      <trkpt lat="46.27319" lon="5.94622">
        <ele>1701</ele>
        <time>2019-05-05T11:51:07Z</time>
      </trkpt>
      <trkpt lat="46.27319" lon="5.94622">
        <ele>1701</ele>
        <time>2019-05-05T11:51:07Z</time>
      </trkpt>
      <trkpt lat="46.27316" lon="5.94625">
        <ele>1701</ele>
        <time>2019-05-05T11:51:10Z</time>
      </trkpt>
      <trkpt lat="46.27312" lon="5.94625">
        <ele>1700</ele>
        <time>2019-05-05T11:51:13Z</time>
      </trkpt>
      <trkpt lat="46.27306" lon="5.94624">
        <ele>1699</ele>
        <time>2019-05-05T11:51:17Z</time>
      </trkpt>
      <trkpt lat="46.27303" lon="5.94622">
        <ele>1699</ele>
        <time>2019-05-05T11:51:20Z</time>
      </trkpt>
      <trkpt lat="46.27299" lon="5.94618">
        <ele>1698</ele>
        <time>2019-05-05T11:51:23Z</time>
      </trkpt>
      <trkpt lat="46.27293" lon="5.94614">
        <ele>1698</ele>
        <time>2019-05-05T11:51:28Z</time>
      </trkpt>
      <trkpt lat="46.2729" lon="5.94611">
        <ele>1697</ele>
        <time>2019-05-05T11:51:30Z</time>
      </trkpt>
      <trkpt lat="46.27291" lon="5.94599">
        <ele>1698</ele>
        <time>2019-05-05T11:51:37Z</time>
      </trkpt>
      <trkpt lat="46.27292" lon="5.94572">
        <ele>1699</ele>
        <time>2019-05-05T11:51:50Z</time>
      </trkpt>
      <trkpt lat="46.2729" lon="5.94567">
        <ele>1699</ele>
        <time>2019-05-05T11:51:53Z</time>
      </trkpt>
      <trkpt lat="46.27286" lon="5.94556">
        <ele>1700</ele>
        <time>2019-05-05T11:51:59Z</time>
      </trkpt>
      <trkpt lat="46.27287" lon="5.94554">
        <ele>1700</ele>
        <time>2019-05-05T11:52:00Z</time>
      </trkpt>
      <trkpt lat="46.27287" lon="5.94549">
        <ele>1700</ele>
        <time>2019-05-05T11:52:03Z</time>
      </trkpt>
      <trkpt lat="46.27287" lon="5.94542">
        <ele>1701</ele>
        <time>2019-05-05T11:52:06Z</time>
      </trkpt>
      <trkpt lat="46.27286" lon="5.94533">
        <ele>1701</ele>
        <time>2019-05-05T11:52:11Z</time>
      </trkpt>
      <trkpt lat="46.27286" lon="5.94528">
        <ele>1701</ele>
        <time>2019-05-05T11:52:13Z</time>
      </trkpt>
      <trkpt lat="46.27284" lon="5.94523">
        <ele>1701</ele>
        <time>2019-05-05T11:52:16Z</time>
      </trkpt>
      <trkpt lat="46.27281" lon="5.94504">
        <ele>1702</ele>
        <time>2019-05-05T11:52:26Z</time>
      </trkpt>
      <trkpt lat="46.27279" lon="5.94497">
        <ele>1702</ele>
        <time>2019-05-05T11:52:30Z</time>
      </trkpt>
      <trkpt lat="46.27275" lon="5.94487">
        <ele>1702</ele>
        <time>2019-05-05T11:52:35Z</time>
      </trkpt>
      <trkpt lat="46.27266" lon="5.94471">
        <ele>1703</ele>
        <time>2019-05-05T11:52:46Z</time>
      </trkpt>
      <trkpt lat="46.27266" lon="5.9447">
        <ele>1703</ele>
        <time>2019-05-05T11:52:46Z</time>
      </trkpt>
      <trkpt lat="46.27266" lon="5.94469">
        <ele>1703</ele>
        <time>2019-05-05T11:52:47Z</time>
      </trkpt>
      <trkpt lat="46.27264" lon="5.94464">
        <ele>1702</ele>
        <time>2019-05-05T11:52:50Z</time>
      </trkpt>
      <trkpt lat="46.27263" lon="5.94457">
        <ele>1703</ele>
        <time>2019-05-05T11:52:53Z</time>
      </trkpt>
      <trkpt lat="46.27263" lon="5.94454">
        <ele>1703</ele>
        <time>2019-05-05T11:52:55Z</time>
      </trkpt>
      <trkpt lat="46.27261" lon="5.94451">
        <ele>1703</ele>
        <time>2019-05-05T11:52:57Z</time>
      </trkpt>
      <trkpt lat="46.27259" lon="5.94448">
        <ele>1703</ele>
        <time>2019-05-05T11:52:59Z</time>
      </trkpt>
      <trkpt lat="46.27257" lon="5.94443">
        <ele>1703</ele>
        <time>2019-05-05T11:53:02Z</time>
      </trkpt>
      <trkpt lat="46.27255" lon="5.94436">
        <ele>1703</ele>
        <time>2019-05-05T11:53:06Z</time>
      </trkpt>
      <trkpt lat="46.27246" lon="5.94421">
        <ele>1701</ele>
        <time>2019-05-05T11:53:15Z</time>
      </trkpt>
      <trkpt lat="46.27238" lon="5.94399">
        <ele>1700</ele>
        <time>2019-05-05T11:53:28Z</time>
      </trkpt>
      <trkpt lat="46.27232" lon="5.94376">
        <ele>1699</ele>
        <time>2019-05-05T11:53:40Z</time>
      </trkpt>
      <trkpt lat="46.27225" lon="5.94361">
        <ele>1699</ele>
        <time>2019-05-05T11:53:50Z</time>
      </trkpt>
      <trkpt lat="46.27223" lon="5.94356">
        <ele>1699</ele>
        <time>2019-05-05T11:53:52Z</time>
      </trkpt>
      <trkpt lat="46.2721" lon="5.94337">
        <ele>1698</ele>
        <time>2019-05-05T11:54:06Z</time>
      </trkpt>
      <trkpt lat="46.27208" lon="5.94334">
        <ele>1698</ele>
        <time>2019-05-05T11:54:08Z</time>
      </trkpt>
      <trkpt lat="46.27206" lon="5.94333">
        <ele>1698</ele>
        <time>2019-05-05T11:54:10Z</time>
      </trkpt>
      <trkpt lat="46.272" lon="5.9433">
        <ele>1698</ele>
        <time>2019-05-05T11:54:14Z</time>
      </trkpt>
      <trkpt lat="46.27194" lon="5.94321">
        <ele>1697</ele>
        <time>2019-05-05T11:54:20Z</time>
      </trkpt>
      <trkpt lat="46.27194" lon="5.94316">
        <ele>1697</ele>
        <time>2019-05-05T11:54:22Z</time>
      </trkpt>
      <trkpt lat="46.27194" lon="5.94311">
        <ele>1697</ele>
        <time>2019-05-05T11:54:25Z</time>
      </trkpt>
      <trkpt lat="46.27188" lon="5.94291">
        <ele>1696</ele>
        <time>2019-05-05T11:54:36Z</time>
      </trkpt>
      <trkpt lat="46.27183" lon="5.94279">
        <ele>1695</ele>
        <time>2019-05-05T11:54:43Z</time>
      </trkpt>
      <trkpt lat="46.27175" lon="5.94254">
        <ele>1694</ele>
        <time>2019-05-05T11:54:57Z</time>
      </trkpt>
      <trkpt lat="46.27175" lon="5.94243">
        <ele>1694</ele>
        <time>2019-05-05T11:55:02Z</time>
      </trkpt>
      <trkpt lat="46.27174" lon="5.9424">
        <ele>1694</ele>
        <time>2019-05-05T11:55:04Z</time>
      </trkpt>
      <trkpt lat="46.27165" lon="5.94218">
        <ele>1693</ele>
        <time>2019-05-05T11:55:17Z</time>
      </trkpt>
      <trkpt lat="46.27163" lon="5.94211">
        <ele>1692</ele>
        <time>2019-05-05T11:55:21Z</time>
      </trkpt>
      <trkpt lat="46.27158" lon="5.94197">
        <ele>1692</ele>
        <time>2019-05-05T11:55:29Z</time>
      </trkpt>
      <trkpt lat="46.27146" lon="5.94176">
        <ele>1690</ele>
        <time>2019-05-05T11:55:42Z</time>
      </trkpt>
      <trkpt lat="46.27137" lon="5.94152">
        <ele>1690</ele>
        <time>2019-05-05T11:55:56Z</time>
      </trkpt>
      <trkpt lat="46.27129" lon="5.94128">
        <ele>1691</ele>
        <time>2019-05-05T11:56:09Z</time>
      </trkpt>
      <trkpt lat="46.27124" lon="5.94104">
        <ele>1692</ele>
        <time>2019-05-05T11:56:22Z</time>
      </trkpt>
      <trkpt lat="46.27122" lon="5.94102">
        <ele>1693</ele>
        <time>2019-05-05T11:56:24Z</time>
      </trkpt>
      <trkpt lat="46.27122" lon="5.94099">
        <ele>1693</ele>
        <time>2019-05-05T11:56:25Z</time>
      </trkpt>
      <trkpt lat="46.2712" lon="5.94093">
        <ele>1693</ele>
        <time>2019-05-05T11:56:28Z</time>
      </trkpt>
      <trkpt lat="46.27119" lon="5.9409">
        <ele>1694</ele>
        <time>2019-05-05T11:56:30Z</time>
      </trkpt>
      <trkpt lat="46.27119" lon="5.94084">
        <ele>1694</ele>
        <time>2019-05-05T11:56:33Z</time>
      </trkpt>
      <trkpt lat="46.27117" lon="5.94074">
        <ele>1695</ele>
        <time>2019-05-05T11:56:38Z</time>
      </trkpt>
      <trkpt lat="46.27116" lon="5.94071">
        <ele>1695</ele>
        <time>2019-05-05T11:56:40Z</time>
      </trkpt>
      <trkpt lat="46.2711" lon="5.94061">
        <ele>1697</ele>
        <time>2019-05-05T11:56:47Z</time>
      </trkpt>
      <trkpt lat="46.27111" lon="5.94059">
        <ele>1697</ele>
        <time>2019-05-05T11:56:48Z</time>
      </trkpt>
      <trkpt lat="46.2711" lon="5.94057">
        <ele>1698</ele>
        <time>2019-05-05T11:56:49Z</time>
      </trkpt>
      <trkpt lat="46.27108" lon="5.94053">
        <ele>1699</ele>
        <time>2019-05-05T11:56:52Z</time>
      </trkpt>
      <trkpt lat="46.271" lon="5.94046">
        <ele>1699</ele>
        <time>2019-05-05T11:56:58Z</time>
      </trkpt>
      <trkpt lat="46.27098" lon="5.94043">
        <ele>1699</ele>
        <time>2019-05-05T11:57:00Z</time>
      </trkpt>
      <trkpt lat="46.27097" lon="5.9404">
        <ele>1699</ele>
        <time>2019-05-05T11:57:02Z</time>
      </trkpt>
      <trkpt lat="46.27096" lon="5.94037">
        <ele>1699</ele>
        <time>2019-05-05T11:57:04Z</time>
      </trkpt>
      <trkpt lat="46.27096" lon="5.94036">
        <ele>1699</ele>
        <time>2019-05-05T11:57:04Z</time>
      </trkpt>
      <trkpt lat="46.27096" lon="5.94035">
        <ele>1699</ele>
        <time>2019-05-05T11:57:05Z</time>
      </trkpt>
      <trkpt lat="46.27095" lon="5.94034">
        <ele>1699</ele>
        <time>2019-05-05T11:57:05Z</time>
      </trkpt>
      <trkpt lat="46.27095" lon="5.9403">
        <ele>1699</ele>
        <time>2019-05-05T11:57:08Z</time>
      </trkpt>
      <trkpt lat="46.27093" lon="5.94027">
        <ele>1699</ele>
        <time>2019-05-05T11:57:09Z</time>
      </trkpt>
      <trkpt lat="46.27093" lon="5.94028">
        <ele>1699</ele>
        <time>2019-05-05T11:57:10Z</time>
      </trkpt>
      <trkpt lat="46.27098" lon="5.94016">
        <ele>1701</ele>
        <time>2019-05-05T11:57:17Z</time>
      </trkpt>
      <trkpt lat="46.27099" lon="5.94007">
        <ele>1701</ele>
        <time>2019-05-05T11:57:22Z</time>
      </trkpt>
      <trkpt lat="46.27093" lon="5.9399">
        <ele>1698</ele>
        <time>2019-05-05T11:57:31Z</time>
      </trkpt>
      <trkpt lat="46.27091" lon="5.9398">
        <ele>1697</ele>
        <time>2019-05-05T11:57:36Z</time>
      </trkpt>
      <trkpt lat="46.2709" lon="5.93976">
        <ele>1697</ele>
        <time>2019-05-05T11:57:39Z</time>
      </trkpt>
      <trkpt lat="46.27091" lon="5.93973">
        <ele>1697</ele>
        <time>2019-05-05T11:57:40Z</time>
      </trkpt>
      <trkpt lat="46.2709" lon="5.93963">
        <ele>1696</ele>
        <time>2019-05-05T11:57:45Z</time>
      </trkpt>
      <trkpt lat="46.27092" lon="5.93957">
        <ele>1695</ele>
        <time>2019-05-05T11:57:49Z</time>
      </trkpt>
      <trkpt lat="46.27092" lon="5.93951">
        <ele>1695</ele>
        <time>2019-05-05T11:57:52Z</time>
      </trkpt>
      <trkpt lat="46.27087" lon="5.93956">
        <ele>1695</ele>
        <time>2019-05-05T11:57:56Z</time>
      </trkpt>
      <trkpt lat="46.27085" lon="5.93957">
        <ele>1695</ele>
        <time>2019-05-05T11:57:57Z</time>
      </trkpt>
      <trkpt lat="46.27082" lon="5.93958">
        <ele>1694</ele>
        <time>2019-05-05T11:58:00Z</time>
      </trkpt>
      <trkpt lat="46.27077" lon="5.93958">
        <ele>1693</ele>
        <time>2019-05-05T11:58:04Z</time>
      </trkpt>
      <trkpt lat="46.27071" lon="5.93952">
        <ele>1692</ele>
        <time>2019-05-05T11:58:08Z</time>
      </trkpt>
      <trkpt lat="46.2707" lon="5.93951">
        <ele>1692</ele>
        <time>2019-05-05T11:58:09Z</time>
      </trkpt>
      <trkpt lat="46.27067" lon="5.93951">
        <ele>1692</ele>
        <time>2019-05-05T11:58:12Z</time>
      </trkpt>
      <trkpt lat="46.27065" lon="5.93949">
        <ele>1691</ele>
        <time>2019-05-05T11:58:13Z</time>
      </trkpt>
      <trkpt lat="46.27065" lon="5.93949">
        <ele>1691</ele>
        <time>2019-05-05T11:58:14Z</time>
      </trkpt>
      <trkpt lat="46.27063" lon="5.93949">
        <ele>1691</ele>
        <time>2019-05-05T11:58:15Z</time>
      </trkpt>
      <trkpt lat="46.27061" lon="5.93947">
        <ele>1691</ele>
        <time>2019-05-05T11:58:16Z</time>
      </trkpt>
      <trkpt lat="46.2706" lon="5.93945">
        <ele>1690</ele>
        <time>2019-05-05T11:58:18Z</time>
      </trkpt>
      <trkpt lat="46.27059" lon="5.93944">
        <ele>1690</ele>
        <time>2019-05-05T11:58:19Z</time>
      </trkpt>
      <trkpt lat="46.27059" lon="5.93941">
        <ele>1690</ele>
        <time>2019-05-05T11:58:20Z</time>
      </trkpt>
      <trkpt lat="46.27056" lon="5.9394">
        <ele>1690</ele>
        <time>2019-05-05T11:58:23Z</time>
      </trkpt>
      <trkpt lat="46.27054" lon="5.9394">
        <ele>1690</ele>
        <time>2019-05-05T11:58:24Z</time>
      </trkpt>
      <trkpt lat="46.27051" lon="5.93935">
        <ele>1689</ele>
        <time>2019-05-05T11:58:27Z</time>
      </trkpt>
      <trkpt lat="46.27051" lon="5.93935">
        <ele>1689</ele>
        <time>2019-05-05T11:58:27Z</time>
      </trkpt>
      <trkpt lat="46.2705" lon="5.93934">
        <ele>1689</ele>
        <time>2019-05-05T11:58:28Z</time>
      </trkpt>
      <trkpt lat="46.27048" lon="5.93932">
        <ele>1689</ele>
        <time>2019-05-05T11:58:30Z</time>
      </trkpt>
      <trkpt lat="46.27042" lon="5.93927">
        <ele>1688</ele>
        <time>2019-05-05T11:58:35Z</time>
      </trkpt>
      <trkpt lat="46.27029" lon="5.93912">
        <ele>1688</ele>
        <time>2019-05-05T11:58:47Z</time>
      </trkpt>
      <trkpt lat="46.27022" lon="5.93904">
        <ele>1688</ele>
        <time>2019-05-05T11:58:53Z</time>
      </trkpt>
      <trkpt lat="46.27018" lon="5.93903">
        <ele>1687</ele>
        <time>2019-05-05T11:58:56Z</time>
      </trkpt>
      <trkpt lat="46.27016" lon="5.93902">
        <ele>1687</ele>
        <time>2019-05-05T11:58:58Z</time>
      </trkpt>
      <trkpt lat="46.27011" lon="5.93898">
        <ele>1686</ele>
        <time>2019-05-05T11:59:02Z</time>
      </trkpt>
      <trkpt lat="46.27006" lon="5.93896">
        <ele>1686</ele>
        <time>2019-05-05T11:59:06Z</time>
      </trkpt>
      <trkpt lat="46.26992" lon="5.93884">
        <ele>1685</ele>
        <time>2019-05-05T11:59:18Z</time>
      </trkpt>
      <trkpt lat="46.26991" lon="5.93882">
        <ele>1685</ele>
        <time>2019-05-05T11:59:19Z</time>
      </trkpt>
      <trkpt lat="46.26988" lon="5.93879">
        <ele>1684</ele>
        <time>2019-05-05T11:59:21Z</time>
      </trkpt>
      <trkpt lat="46.26985" lon="5.93875">
        <ele>1684</ele>
        <time>2019-05-05T11:59:24Z</time>
      </trkpt>
      <trkpt lat="46.26978" lon="5.93869">
        <ele>1684</ele>
        <time>2019-05-05T11:59:30Z</time>
      </trkpt>
      <trkpt lat="46.26966" lon="5.93856">
        <ele>1684</ele>
        <time>2019-05-05T11:59:41Z</time>
      </trkpt>
      <trkpt lat="46.2696" lon="5.9385">
        <ele>1684</ele>
        <time>2019-05-05T11:59:46Z</time>
      </trkpt>
      <trkpt lat="46.26953" lon="5.9384">
        <ele>1682</ele>
        <time>2019-05-05T11:59:54Z</time>
      </trkpt>
      <trkpt lat="46.26939" lon="5.93818">
        <ele>1680</ele>
        <time>2019-05-05T12:00:08Z</time>
      </trkpt>
      <trkpt lat="46.26931" lon="5.93799">
        <ele>1678</ele>
        <time>2019-05-05T12:00:20Z</time>
      </trkpt>
      <trkpt lat="46.26928" lon="5.93794">
        <ele>1678</ele>
        <time>2019-05-05T12:00:23Z</time>
      </trkpt>
      <trkpt lat="46.26928" lon="5.93793">
        <ele>1677</ele>
        <time>2019-05-05T12:00:24Z</time>
      </trkpt>
      <trkpt lat="46.26925" lon="5.93792">
        <ele>1677</ele>
        <time>2019-05-05T12:00:26Z</time>
      </trkpt>
      <trkpt lat="46.26917" lon="5.93788">
        <ele>1676</ele>
        <time>2019-05-05T12:00:32Z</time>
      </trkpt>
      <trkpt lat="46.26906" lon="5.93781">
        <ele>1675</ele>
        <time>2019-05-05T12:00:41Z</time>
      </trkpt>
      <trkpt lat="46.26897" lon="5.93775">
        <ele>1675</ele>
        <time>2019-05-05T12:00:48Z</time>
      </trkpt>
      <trkpt lat="46.26887" lon="5.93766">
        <ele>1674</ele>
        <time>2019-05-05T12:00:56Z</time>
      </trkpt>
      <trkpt lat="46.2688" lon="5.93761">
        <ele>1673</ele>
        <time>2019-05-05T12:01:02Z</time>
      </trkpt>
      <trkpt lat="46.26879" lon="5.93759">
        <ele>1672</ele>
        <time>2019-05-05T12:01:04Z</time>
      </trkpt>
      <trkpt lat="46.26878" lon="5.93756">
        <ele>1672</ele>
        <time>2019-05-05T12:01:06Z</time>
      </trkpt>
      <trkpt lat="46.26876" lon="5.93752">
        <ele>1672</ele>
        <time>2019-05-05T12:01:08Z</time>
      </trkpt>
      <trkpt lat="46.26873" lon="5.93749">
        <ele>1671</ele>
        <time>2019-05-05T12:01:10Z</time>
      </trkpt>
      <trkpt lat="46.26872" lon="5.93746">
        <ele>1671</ele>
        <time>2019-05-05T12:01:12Z</time>
      </trkpt>
      <trkpt lat="46.26871" lon="5.93739">
        <ele>1670</ele>
        <time>2019-05-05T12:01:16Z</time>
      </trkpt>
      <trkpt lat="46.2687" lon="5.93738">
        <ele>1670</ele>
        <time>2019-05-05T12:01:16Z</time>
      </trkpt>
      <trkpt lat="46.26867" lon="5.93725">
        <ele>1669</ele>
        <time>2019-05-05T12:01:23Z</time>
      </trkpt>
      <trkpt lat="46.26867" lon="5.93724">
        <ele>1669</ele>
        <time>2019-05-05T12:01:24Z</time>
      </trkpt>
      <trkpt lat="46.26864" lon="5.93718">
        <ele>1668</ele>
        <time>2019-05-05T12:01:28Z</time>
      </trkpt>
      <trkpt lat="46.26862" lon="5.93716">
        <ele>1668</ele>
        <time>2019-05-05T12:01:29Z</time>
      </trkpt>
      <trkpt lat="46.26855" lon="5.9371">
        <ele>1669</ele>
        <time>2019-05-05T12:01:36Z</time>
      </trkpt>
      <trkpt lat="46.26847" lon="5.93701">
        <ele>1667</ele>
        <time>2019-05-05T12:01:43Z</time>
      </trkpt>
      <trkpt lat="46.26846" lon="5.93695">
        <ele>1667</ele>
        <time>2019-05-05T12:01:46Z</time>
      </trkpt>
      <trkpt lat="46.26841" lon="5.9369">
        <ele>1666</ele>
        <time>2019-05-05T12:01:50Z</time>
      </trkpt>
      <trkpt lat="46.26832" lon="5.9368">
        <ele>1665</ele>
        <time>2019-05-05T12:01:59Z</time>
      </trkpt>
      <trkpt lat="46.26828" lon="5.93675">
        <ele>1665</ele>
        <time>2019-05-05T12:02:02Z</time>
      </trkpt>
      <trkpt lat="46.26828" lon="5.93674">
        <ele>1664</ele>
        <time>2019-05-05T12:02:03Z</time>
      </trkpt>
      <trkpt lat="46.26828" lon="5.93673">
        <ele>1664</ele>
        <time>2019-05-05T12:02:04Z</time>
      </trkpt>
      <trkpt lat="46.26829" lon="5.93675">
        <ele>1665</ele>
        <time>2019-05-05T12:02:05Z</time>
      </trkpt>
      <trkpt lat="46.26831" lon="5.93677">
        <ele>1665</ele>
        <time>2019-05-05T12:02:07Z</time>
      </trkpt>
      <trkpt lat="46.26834" lon="5.93682">
        <ele>1666</ele>
        <time>2019-05-05T12:02:10Z</time>
      </trkpt>
      <trkpt lat="46.26837" lon="5.93685">
        <ele>1666</ele>
        <time>2019-05-05T12:02:13Z</time>
      </trkpt>
      <trkpt lat="46.26833" lon="5.93684">
        <ele>1666</ele>
        <time>2019-05-05T12:02:16Z</time>
      </trkpt>
      <trkpt lat="46.26832" lon="5.93683">
        <ele>1666</ele>
        <time>2019-05-05T12:02:17Z</time>
      </trkpt>
      <trkpt lat="46.26827" lon="5.9368">
        <ele>1665</ele>
        <time>2019-05-05T12:02:20Z</time>
      </trkpt>
      <trkpt lat="46.26826" lon="5.9368">
        <ele>1665</ele>
        <time>2019-05-05T12:02:21Z</time>
      </trkpt>
      <trkpt lat="46.26823" lon="5.93677">
        <ele>1665</ele>
        <time>2019-05-05T12:02:24Z</time>
      </trkpt>
      <trkpt lat="46.26821" lon="5.93673">
        <ele>1664</ele>
        <time>2019-05-05T12:02:26Z</time>
      </trkpt>
      <trkpt lat="46.26817" lon="5.9367">
        <ele>1664</ele>
        <time>2019-05-05T12:02:29Z</time>
      </trkpt>
      <trkpt lat="46.26808" lon="5.93668">
        <ele>1664</ele>
        <time>2019-05-05T12:02:36Z</time>
      </trkpt>
      <trkpt lat="46.26807" lon="5.93666">
        <ele>1664</ele>
        <time>2019-05-05T12:02:37Z</time>
      </trkpt>
      <trkpt lat="46.26804" lon="5.93663">
        <ele>1664</ele>
        <time>2019-05-05T12:02:40Z</time>
      </trkpt>
      <trkpt lat="46.26803" lon="5.9366">
        <ele>1664</ele>
        <time>2019-05-05T12:02:42Z</time>
      </trkpt>
      <trkpt lat="46.26803" lon="5.93659">
        <ele>1664</ele>
        <time>2019-05-05T12:02:42Z</time>
      </trkpt>
      <trkpt lat="46.268" lon="5.93655">
        <ele>1664</ele>
        <time>2019-05-05T12:02:45Z</time>
      </trkpt>
      <trkpt lat="46.26798" lon="5.93654">
        <ele>1664</ele>
        <time>2019-05-05T12:02:47Z</time>
      </trkpt>
      <trkpt lat="46.26795" lon="5.93653">
        <ele>1664</ele>
        <time>2019-05-05T12:02:49Z</time>
      </trkpt>
      <trkpt lat="46.26791" lon="5.93651">
        <ele>1664</ele>
        <time>2019-05-05T12:02:52Z</time>
      </trkpt>
      <trkpt lat="46.26785" lon="5.93649">
        <ele>1665</ele>
        <time>2019-05-05T12:02:56Z</time>
      </trkpt>
      <trkpt lat="46.26782" lon="5.93647">
        <ele>1665</ele>
        <time>2019-05-05T12:02:59Z</time>
      </trkpt>
      <trkpt lat="46.2678" lon="5.93644">
        <ele>1666</ele>
        <time>2019-05-05T12:03:01Z</time>
      </trkpt>
      <trkpt lat="46.26778" lon="5.93643">
        <ele>1666</ele>
        <time>2019-05-05T12:03:03Z</time>
      </trkpt>
      <trkpt lat="46.26775" lon="5.93642">
        <ele>1666</ele>
        <time>2019-05-05T12:03:05Z</time>
      </trkpt>
      <trkpt lat="46.26768" lon="5.93635">
        <ele>1667</ele>
        <time>2019-05-05T12:03:11Z</time>
      </trkpt>
      <trkpt lat="46.26763" lon="5.93627">
        <ele>1667</ele>
        <time>2019-05-05T12:03:16Z</time>
      </trkpt>
      <trkpt lat="46.26763" lon="5.93624">
        <ele>1667</ele>
        <time>2019-05-05T12:03:18Z</time>
      </trkpt>
      <trkpt lat="46.26763" lon="5.93623">
        <ele>1668</ele>
        <time>2019-05-05T12:03:19Z</time>
      </trkpt>
      <trkpt lat="46.26762" lon="5.93618">
        <ele>1668</ele>
        <time>2019-05-05T12:03:21Z</time>
      </trkpt>
      <trkpt lat="46.26762" lon="5.93617">
        <ele>1668</ele>
        <time>2019-05-05T12:03:22Z</time>
      </trkpt>
      <trkpt lat="46.26761" lon="5.93615">
        <ele>1668</ele>
        <time>2019-05-05T12:03:23Z</time>
      </trkpt>
      <trkpt lat="46.26759" lon="5.93611">
        <ele>1668</ele>
        <time>2019-05-05T12:03:25Z</time>
      </trkpt>
      <trkpt lat="46.26756" lon="5.93601">
        <ele>1669</ele>
        <time>2019-05-05T12:03:31Z</time>
      </trkpt>
      <trkpt lat="46.26755" lon="5.93597">
        <ele>1669</ele>
        <time>2019-05-05T12:03:33Z</time>
      </trkpt>
      <trkpt lat="46.26754" lon="5.93595">
        <ele>1669</ele>
        <time>2019-05-05T12:03:34Z</time>
      </trkpt>
      <trkpt lat="46.26751" lon="5.9359">
        <ele>1668</ele>
        <time>2019-05-05T12:03:37Z</time>
      </trkpt>
      <trkpt lat="46.26747" lon="5.9358">
        <ele>1668</ele>
        <time>2019-05-05T12:03:43Z</time>
      </trkpt>
      <trkpt lat="46.26743" lon="5.93574">
        <ele>1667</ele>
        <time>2019-05-05T12:03:47Z</time>
      </trkpt>
      <trkpt lat="46.26743" lon="5.93573">
        <ele>1667</ele>
        <time>2019-05-05T12:03:48Z</time>
      </trkpt>
      <trkpt lat="46.26739" lon="5.9357">
        <ele>1667</ele>
        <time>2019-05-05T12:03:51Z</time>
      </trkpt>
      <trkpt lat="46.26736" lon="5.93568">
        <ele>1667</ele>
        <time>2019-05-05T12:03:54Z</time>
      </trkpt>
      <trkpt lat="46.26734" lon="5.93566">
        <ele>1666</ele>
        <time>2019-05-05T12:03:56Z</time>
      </trkpt>
      <trkpt lat="46.26728" lon="5.93555">
        <ele>1667</ele>
        <time>2019-05-05T12:04:02Z</time>
      </trkpt>
      <trkpt lat="46.26714" lon="5.93538">
        <ele>1667</ele>
        <time>2019-05-05T12:04:16Z</time>
      </trkpt>
      <trkpt lat="46.26704" lon="5.93516">
        <ele>1670</ele>
        <time>2019-05-05T12:04:29Z</time>
      </trkpt>
      <trkpt lat="46.26703" lon="5.93514">
        <ele>1670</ele>
        <time>2019-05-05T12:04:30Z</time>
      </trkpt>
      <trkpt lat="46.26701" lon="5.93504">
        <ele>1671</ele>
        <time>2019-05-05T12:04:35Z</time>
      </trkpt>
      <trkpt lat="46.26699" lon="5.93502">
        <ele>1672</ele>
        <time>2019-05-05T12:04:37Z</time>
      </trkpt>
      <trkpt lat="46.26697" lon="5.93499">
        <ele>1672</ele>
        <time>2019-05-05T12:04:39Z</time>
      </trkpt>
      <trkpt lat="46.26695" lon="5.93488">
        <ele>1673</ele>
        <time>2019-05-05T12:04:45Z</time>
      </trkpt>
      <trkpt lat="46.26692" lon="5.9348">
        <ele>1674</ele>
        <time>2019-05-05T12:04:50Z</time>
      </trkpt>
      <trkpt lat="46.26688" lon="5.93478">
        <ele>1675</ele>
        <time>2019-05-05T12:04:52Z</time>
      </trkpt>
      <trkpt lat="46.26686" lon="5.93476">
        <ele>1675</ele>
        <time>2019-05-05T12:04:54Z</time>
      </trkpt>
      <trkpt lat="46.26684" lon="5.93475">
        <ele>1675</ele>
        <time>2019-05-05T12:04:56Z</time>
      </trkpt>
      <trkpt lat="46.26683" lon="5.93475">
        <ele>1675</ele>
        <time>2019-05-05T12:04:56Z</time>
      </trkpt>
      <trkpt lat="46.26679" lon="5.93472">
        <ele>1675</ele>
        <time>2019-05-05T12:04:59Z</time>
      </trkpt>
      <trkpt lat="46.26673" lon="5.93469">
        <ele>1675</ele>
        <time>2019-05-05T12:05:04Z</time>
      </trkpt>
      <trkpt lat="46.26656" lon="5.93461">
        <ele>1675</ele>
        <time>2019-05-05T12:05:17Z</time>
      </trkpt>
      <trkpt lat="46.26647" lon="5.93456">
        <ele>1675</ele>
        <time>2019-05-05T12:05:24Z</time>
      </trkpt>
      <trkpt lat="46.2663" lon="5.93447">
        <ele>1675</ele>
        <time>2019-05-05T12:05:37Z</time>
      </trkpt>
      <trkpt lat="46.26627" lon="5.93445">
        <ele>1675</ele>
        <time>2019-05-05T12:05:39Z</time>
      </trkpt>
      <trkpt lat="46.26619" lon="5.93437">
        <ele>1675</ele>
        <time>2019-05-05T12:05:47Z</time>
      </trkpt>
      <trkpt lat="46.26618" lon="5.93436">
        <ele>1675</ele>
        <time>2019-05-05T12:05:47Z</time>
      </trkpt>
      <trkpt lat="46.26615" lon="5.93431">
        <ele>1676</ele>
        <time>2019-05-05T12:05:51Z</time>
      </trkpt>
      <trkpt lat="46.26613" lon="5.93428">
        <ele>1676</ele>
        <time>2019-05-05T12:05:53Z</time>
      </trkpt>
      <trkpt lat="46.26611" lon="5.93426">
        <ele>1675</ele>
        <time>2019-05-05T12:05:55Z</time>
      </trkpt>
      <trkpt lat="46.26606" lon="5.93424">
        <ele>1675</ele>
        <time>2019-05-05T12:05:59Z</time>
      </trkpt>
      <trkpt lat="46.26603" lon="5.93424">
        <ele>1675</ele>
        <time>2019-05-05T12:06:01Z</time>
      </trkpt>
      <trkpt lat="46.26603" lon="5.93424">
        <ele>1675</ele>
        <time>2019-05-05T12:06:01Z</time>
      </trkpt>
      <trkpt lat="46.26602" lon="5.93424">
        <ele>1674</ele>
        <time>2019-05-05T12:06:02Z</time>
      </trkpt>
      <trkpt lat="46.26598" lon="5.93423">
        <ele>1673</ele>
        <time>2019-05-05T12:06:05Z</time>
      </trkpt>
      <trkpt lat="46.26597" lon="5.93422">
        <ele>1673</ele>
        <time>2019-05-05T12:06:06Z</time>
      </trkpt>
      <trkpt lat="46.26596" lon="5.93421">
        <ele>1673</ele>
        <time>2019-05-05T12:06:06Z</time>
      </trkpt>
      <trkpt lat="46.26594" lon="5.9342">
        <ele>1673</ele>
        <time>2019-05-05T12:06:08Z</time>
      </trkpt>
      <trkpt lat="46.26591" lon="5.93418">
        <ele>1672</ele>
        <time>2019-05-05T12:06:10Z</time>
      </trkpt>
      <trkpt lat="46.26588" lon="5.93413">
        <ele>1671</ele>
        <time>2019-05-05T12:06:14Z</time>
      </trkpt>
      <trkpt lat="46.26585" lon="5.9341">
        <ele>1670</ele>
        <time>2019-05-05T12:06:16Z</time>
      </trkpt>
      <trkpt lat="46.26582" lon="5.93408">
        <ele>1670</ele>
        <time>2019-05-05T12:06:19Z</time>
      </trkpt>
      <trkpt lat="46.26581" lon="5.93408">
        <ele>1669</ele>
        <time>2019-05-05T12:06:20Z</time>
      </trkpt>
      <trkpt lat="46.26578" lon="5.93408">
        <ele>1669</ele>
        <time>2019-05-05T12:06:22Z</time>
      </trkpt>
      <trkpt lat="46.26571" lon="5.934">
        <ele>1667</ele>
        <time>2019-05-05T12:06:29Z</time>
      </trkpt>
      <trkpt lat="46.26571" lon="5.934">
        <ele>1667</ele>
        <time>2019-05-05T12:06:29Z</time>
      </trkpt>
      <trkpt lat="46.26572" lon="5.93399">
        <ele>1667</ele>
        <time>2019-05-05T12:06:30Z</time>
      </trkpt>
      <trkpt lat="46.2657" lon="5.93395">
        <ele>1667</ele>
        <time>2019-05-05T12:06:32Z</time>
      </trkpt>
      <trkpt lat="46.26562" lon="5.93387">
        <ele>1665</ele>
        <time>2019-05-05T12:06:39Z</time>
      </trkpt>
      <trkpt lat="46.26551" lon="5.93378">
        <ele>1662</ele>
        <time>2019-05-05T12:06:48Z</time>
      </trkpt>
      <trkpt lat="46.26545" lon="5.9337">
        <ele>1660</ele>
        <time>2019-05-05T12:06:55Z</time>
      </trkpt>
      <trkpt lat="46.2654" lon="5.93364">
        <ele>1659</ele>
        <time>2019-05-05T12:06:59Z</time>
      </trkpt>
      <trkpt lat="46.26537" lon="5.9336">
        <ele>1657</ele>
        <time>2019-05-05T12:07:03Z</time>
      </trkpt>
      <trkpt lat="46.26534" lon="5.93356">
        <ele>1657</ele>
        <time>2019-05-05T12:07:05Z</time>
      </trkpt>
      <trkpt lat="46.2653" lon="5.93355">
        <ele>1655</ele>
        <time>2019-05-05T12:07:09Z</time>
      </trkpt>
      <trkpt lat="46.26526" lon="5.9335">
        <ele>1654</ele>
        <time>2019-05-05T12:07:12Z</time>
      </trkpt>
      <trkpt lat="46.26523" lon="5.93349">
        <ele>1654</ele>
        <time>2019-05-05T12:07:14Z</time>
      </trkpt>
      <trkpt lat="46.2652" lon="5.93348">
        <ele>1653</ele>
        <time>2019-05-05T12:07:17Z</time>
      </trkpt>
      <trkpt lat="46.26514" lon="5.93345">
        <ele>1652</ele>
        <time>2019-05-05T12:07:22Z</time>
      </trkpt>
      <trkpt lat="46.26503" lon="5.93338">
        <ele>1652</ele>
        <time>2019-05-05T12:07:30Z</time>
      </trkpt>
      <trkpt lat="46.265" lon="5.93333">
        <ele>1652</ele>
        <time>2019-05-05T12:07:33Z</time>
      </trkpt>
      <trkpt lat="46.26492" lon="5.93326">
        <ele>1652</ele>
        <time>2019-05-05T12:07:40Z</time>
      </trkpt>
      <trkpt lat="46.26489" lon="5.93324">
        <ele>1652</ele>
        <time>2019-05-05T12:07:42Z</time>
      </trkpt>
      <trkpt lat="46.26486" lon="5.93323">
        <ele>1651</ele>
        <time>2019-05-05T12:07:45Z</time>
      </trkpt>
      <trkpt lat="46.26481" lon="5.9332">
        <ele>1651</ele>
        <time>2019-05-05T12:07:49Z</time>
      </trkpt>
      <trkpt lat="46.26471" lon="5.93313">
        <ele>1651</ele>
        <time>2019-05-05T12:07:57Z</time>
      </trkpt>
      <trkpt lat="46.26466" lon="5.93314">
        <ele>1650</ele>
        <time>2019-05-05T12:08:01Z</time>
      </trkpt>
      <trkpt lat="46.26463" lon="5.93316">
        <ele>1649</ele>
        <time>2019-05-05T12:08:03Z</time>
      </trkpt>
      <trkpt lat="46.26463" lon="5.93316">
        <ele>1649</ele>
        <time>2019-05-05T12:08:03Z</time>
      </trkpt>
      <trkpt lat="46.26463" lon="5.93317">
        <ele>1649</ele>
        <time>2019-05-05T12:08:04Z</time>
      </trkpt>
      <trkpt lat="46.2646" lon="5.93319">
        <ele>1649</ele>
        <time>2019-05-05T12:08:06Z</time>
      </trkpt>
      <trkpt lat="46.26457" lon="5.93318">
        <ele>1648</ele>
        <time>2019-05-05T12:08:09Z</time>
      </trkpt>
      <trkpt lat="46.26453" lon="5.93317">
        <ele>1648</ele>
        <time>2019-05-05T12:08:11Z</time>
      </trkpt>
      <trkpt lat="46.26451" lon="5.93315">
        <ele>1648</ele>
        <time>2019-05-05T12:08:13Z</time>
      </trkpt>
      <trkpt lat="46.26443" lon="5.93311">
        <ele>1647</ele>
        <time>2019-05-05T12:08:20Z</time>
      </trkpt>
      <trkpt lat="46.2644" lon="5.93308">
        <ele>1647</ele>
        <time>2019-05-05T12:08:22Z</time>
      </trkpt>
      <trkpt lat="46.26423" lon="5.93308">
        <ele>1647</ele>
        <time>2019-05-05T12:08:35Z</time>
      </trkpt>
      <trkpt lat="46.26417" lon="5.93306">
        <ele>1647</ele>
        <time>2019-05-05T12:08:39Z</time>
      </trkpt>
      <trkpt lat="46.2641" lon="5.93306">
        <ele>1646</ele>
        <time>2019-05-05T12:08:44Z</time>
      </trkpt>
      <trkpt lat="46.264" lon="5.93307">
        <ele>1646</ele>
        <time>2019-05-05T12:08:52Z</time>
      </trkpt>
      <trkpt lat="46.26397" lon="5.93307">
        <ele>1646</ele>
        <time>2019-05-05T12:08:53Z</time>
      </trkpt>
      <trkpt lat="46.26381" lon="5.933">
        <ele>1645</ele>
        <time>2019-05-05T12:09:06Z</time>
      </trkpt>
      <trkpt lat="46.26378" lon="5.93298">
        <ele>1645</ele>
        <time>2019-05-05T12:09:08Z</time>
      </trkpt>
      <trkpt lat="46.26371" lon="5.93294">
        <ele>1645</ele>
        <time>2019-05-05T12:09:13Z</time>
      </trkpt>
      <trkpt lat="46.26363" lon="5.93281">
        <ele>1645</ele>
        <time>2019-05-05T12:09:22Z</time>
      </trkpt>
      <trkpt lat="46.26362" lon="5.93281">
        <ele>1645</ele>
        <time>2019-05-05T12:09:23Z</time>
      </trkpt>
      <trkpt lat="46.2636" lon="5.93282">
        <ele>1645</ele>
        <time>2019-05-05T12:09:24Z</time>
      </trkpt>
      <trkpt lat="46.26358" lon="5.93282">
        <ele>1644</ele>
        <time>2019-05-05T12:09:26Z</time>
      </trkpt>
      <trkpt lat="46.26356" lon="5.93281">
        <ele>1644</ele>
        <time>2019-05-05T12:09:27Z</time>
      </trkpt>
      <trkpt lat="46.26352" lon="5.93275">
        <ele>1645</ele>
        <time>2019-05-05T12:09:31Z</time>
      </trkpt>
      <trkpt lat="46.26351" lon="5.93275">
        <ele>1645</ele>
        <time>2019-05-05T12:09:32Z</time>
      </trkpt>
      <trkpt lat="46.26335" lon="5.93267">
        <ele>1648</ele>
        <time>2019-05-05T12:09:45Z</time>
      </trkpt>
      <trkpt lat="46.26333" lon="5.93264">
        <ele>1648</ele>
        <time>2019-05-05T12:09:47Z</time>
      </trkpt>
      <trkpt lat="46.26327" lon="5.93255">
        <ele>1647</ele>
        <time>2019-05-05T12:09:53Z</time>
      </trkpt>
      <trkpt lat="46.26325" lon="5.93255">
        <ele>1648</ele>
        <time>2019-05-05T12:09:55Z</time>
      </trkpt>
      <trkpt lat="46.26324" lon="5.93255">
        <ele>1648</ele>
        <time>2019-05-05T12:09:55Z</time>
      </trkpt>
      <trkpt lat="46.26322" lon="5.93257">
        <ele>1649</ele>
        <time>2019-05-05T12:09:57Z</time>
      </trkpt>
      <trkpt lat="46.26321" lon="5.93257">
        <ele>1649</ele>
        <time>2019-05-05T12:09:58Z</time>
      </trkpt>
      <trkpt lat="46.26317" lon="5.93256">
        <ele>1649</ele>
        <time>2019-05-05T12:10:00Z</time>
      </trkpt>
      <trkpt lat="46.26315" lon="5.93255">
        <ele>1649</ele>
        <time>2019-05-05T12:10:02Z</time>
      </trkpt>
      <trkpt lat="46.26302" lon="5.93246">
        <ele>1650</ele>
        <time>2019-05-05T12:10:13Z</time>
      </trkpt>
      <trkpt lat="46.26287" lon="5.93238">
        <ele>1651</ele>
        <time>2019-05-05T12:10:24Z</time>
      </trkpt>
      <trkpt lat="46.26282" lon="5.93235">
        <ele>1651</ele>
        <time>2019-05-05T12:10:28Z</time>
      </trkpt>
      <trkpt lat="46.26267" lon="5.93218">
        <ele>1650</ele>
        <time>2019-05-05T12:10:42Z</time>
      </trkpt>
      <trkpt lat="46.26256" lon="5.93204">
        <ele>1647</ele>
        <time>2019-05-05T12:10:52Z</time>
      </trkpt>
      <trkpt lat="46.26252" lon="5.932">
        <ele>1647</ele>
        <time>2019-05-05T12:10:56Z</time>
      </trkpt>
      <trkpt lat="46.2625" lon="5.93199">
        <ele>1646</ele>
        <time>2019-05-05T12:10:57Z</time>
      </trkpt>
      <trkpt lat="46.26247" lon="5.93198">
        <ele>1646</ele>
        <time>2019-05-05T12:11:00Z</time>
      </trkpt>
      <trkpt lat="46.2623" lon="5.93194">
        <ele>1646</ele>
        <time>2019-05-05T12:11:13Z</time>
      </trkpt>
      <trkpt lat="46.26224" lon="5.93192">
        <ele>1646</ele>
        <time>2019-05-05T12:11:17Z</time>
      </trkpt>
      <trkpt lat="46.26206" lon="5.93189">
        <ele>1646</ele>
        <time>2019-05-05T12:11:30Z</time>
      </trkpt>
      <trkpt lat="46.26202" lon="5.93189">
        <ele>1646</ele>
        <time>2019-05-05T12:11:33Z</time>
      </trkpt>
      <trkpt lat="46.262" lon="5.93189">
        <ele>1646</ele>
        <time>2019-05-05T12:11:34Z</time>
      </trkpt>
      <trkpt lat="46.26183" lon="5.93197">
        <ele>1647</ele>
        <time>2019-05-05T12:11:47Z</time>
      </trkpt>
      <trkpt lat="46.26181" lon="5.93198">
        <ele>1647</ele>
        <time>2019-05-05T12:11:49Z</time>
      </trkpt>
      <trkpt lat="46.2618" lon="5.93199">
        <ele>1647</ele>
        <time>2019-05-05T12:11:50Z</time>
      </trkpt>
      <trkpt lat="46.26179" lon="5.93199">
        <ele>1647</ele>
        <time>2019-05-05T12:11:50Z</time>
      </trkpt>
      <trkpt lat="46.26177" lon="5.93199">
        <ele>1646</ele>
        <time>2019-05-05T12:11:51Z</time>
      </trkpt>
      <trkpt lat="46.26173" lon="5.93203">
        <ele>1647</ele>
        <time>2019-05-05T12:11:55Z</time>
      </trkpt>
      <trkpt lat="46.26172" lon="5.93203">
        <ele>1646</ele>
        <time>2019-05-05T12:11:56Z</time>
      </trkpt>
      <trkpt lat="46.26169" lon="5.93202">
        <ele>1646</ele>
        <time>2019-05-05T12:11:58Z</time>
      </trkpt>
      <trkpt lat="46.26153" lon="5.9319">
        <ele>1644</ele>
        <time>2019-05-05T12:12:12Z</time>
      </trkpt>
      <trkpt lat="46.26147" lon="5.93187">
        <ele>1643</ele>
        <time>2019-05-05T12:12:16Z</time>
      </trkpt>
      <trkpt lat="46.26138" lon="5.93182">
        <ele>1642</ele>
        <time>2019-05-05T12:12:23Z</time>
      </trkpt>
      <trkpt lat="46.26134" lon="5.9318">
        <ele>1641</ele>
        <time>2019-05-05T12:12:27Z</time>
      </trkpt>
      <trkpt lat="46.26129" lon="5.93178">
        <ele>1640</ele>
        <time>2019-05-05T12:12:30Z</time>
      </trkpt>
      <trkpt lat="46.2611" lon="5.93176">
        <ele>1639</ele>
        <time>2019-05-05T12:12:44Z</time>
      </trkpt>
      <trkpt lat="46.26108" lon="5.93175">
        <ele>1639</ele>
        <time>2019-05-05T12:12:46Z</time>
      </trkpt>
      <trkpt lat="46.26106" lon="5.93176">
        <ele>1639</ele>
        <time>2019-05-05T12:12:47Z</time>
      </trkpt>
      <trkpt lat="46.26086" lon="5.93177">
        <ele>1639</ele>
        <time>2019-05-05T12:13:01Z</time>
      </trkpt>
      <trkpt lat="46.26084" lon="5.93177">
        <ele>1639</ele>
        <time>2019-05-05T12:13:03Z</time>
      </trkpt>
      <trkpt lat="46.26067" lon="5.93176">
        <ele>1638</ele>
        <time>2019-05-05T12:13:15Z</time>
      </trkpt>
      <trkpt lat="46.26065" lon="5.93176">
        <ele>1638</ele>
        <time>2019-05-05T12:13:16Z</time>
      </trkpt>
      <trkpt lat="46.26063" lon="5.93175">
        <ele>1638</ele>
        <time>2019-05-05T12:13:18Z</time>
      </trkpt>
      <trkpt lat="46.26056" lon="5.93172">
        <ele>1638</ele>
        <time>2019-05-05T12:13:23Z</time>
      </trkpt>
      <trkpt lat="46.26055" lon="5.93171">
        <ele>1637</ele>
        <time>2019-05-05T12:13:24Z</time>
      </trkpt>
      <trkpt lat="46.26049" lon="5.93167">
        <ele>1637</ele>
        <time>2019-05-05T12:13:29Z</time>
      </trkpt>
      <trkpt lat="46.26043" lon="5.93162">
        <ele>1636</ele>
        <time>2019-05-05T12:13:34Z</time>
      </trkpt>
      <trkpt lat="46.2604" lon="5.93161">
        <ele>1636</ele>
        <time>2019-05-05T12:13:37Z</time>
      </trkpt>
      <trkpt lat="46.26038" lon="5.93159">
        <ele>1636</ele>
        <time>2019-05-05T12:13:38Z</time>
      </trkpt>
      <trkpt lat="46.26035" lon="5.93157">
        <ele>1636</ele>
        <time>2019-05-05T12:13:40Z</time>
      </trkpt>
      <trkpt lat="46.26029" lon="5.93154">
        <ele>1636</ele>
        <time>2019-05-05T12:13:45Z</time>
      </trkpt>
      <trkpt lat="46.26025" lon="5.9315">
        <ele>1636</ele>
        <time>2019-05-05T12:13:49Z</time>
      </trkpt>
      <trkpt lat="46.2601" lon="5.93141">
        <ele>1636</ele>
        <time>2019-05-05T12:14:00Z</time>
      </trkpt>
      <trkpt lat="46.26003" lon="5.93136">
        <ele>1636</ele>
        <time>2019-05-05T12:14:06Z</time>
      </trkpt>
      <trkpt lat="46.25985" lon="5.93127">
        <ele>1638</ele>
        <time>2019-05-05T12:14:20Z</time>
      </trkpt>
      <trkpt lat="46.25984" lon="5.93127">
        <ele>1638</ele>
        <time>2019-05-05T12:14:21Z</time>
      </trkpt>
      <trkpt lat="46.25982" lon="5.93125">
        <ele>1638</ele>
        <time>2019-05-05T12:14:22Z</time>
      </trkpt>
      <trkpt lat="46.25974" lon="5.9312">
        <ele>1639</ele>
        <time>2019-05-05T12:14:28Z</time>
      </trkpt>
      <trkpt lat="46.25971" lon="5.93118">
        <ele>1640</ele>
        <time>2019-05-05T12:14:31Z</time>
      </trkpt>
      <trkpt lat="46.25959" lon="5.93107">
        <ele>1641</ele>
        <time>2019-05-05T12:14:41Z</time>
      </trkpt>
      <trkpt lat="46.25952" lon="5.93102">
        <ele>1643</ele>
        <time>2019-05-05T12:14:47Z</time>
      </trkpt>
      <trkpt lat="46.25949" lon="5.93099">
        <ele>1643</ele>
        <time>2019-05-05T12:14:50Z</time>
      </trkpt>
      <trkpt lat="46.25949" lon="5.93098">
        <ele>1643</ele>
        <time>2019-05-05T12:14:50Z</time>
      </trkpt>
      <trkpt lat="46.25947" lon="5.93095">
        <ele>1643</ele>
        <time>2019-05-05T12:14:52Z</time>
      </trkpt>
      <trkpt lat="46.25933" lon="5.93084">
        <ele>1645</ele>
        <time>2019-05-05T12:15:04Z</time>
      </trkpt>
      <trkpt lat="46.25932" lon="5.93086">
        <ele>1645</ele>
        <time>2019-05-05T12:15:05Z</time>
      </trkpt>
      <trkpt lat="46.2593" lon="5.93086">
        <ele>1645</ele>
        <time>2019-05-05T12:15:06Z</time>
      </trkpt>
      <trkpt lat="46.25928" lon="5.93087">
        <ele>1646</ele>
        <time>2019-05-05T12:15:08Z</time>
      </trkpt>
      <trkpt lat="46.25927" lon="5.93087">
        <ele>1646</ele>
        <time>2019-05-05T12:15:08Z</time>
      </trkpt>
      <trkpt lat="46.25924" lon="5.93084">
        <ele>1646</ele>
        <time>2019-05-05T12:15:10Z</time>
      </trkpt>
      <trkpt lat="46.25923" lon="5.93083">
        <ele>1646</ele>
        <time>2019-05-05T12:15:11Z</time>
      </trkpt>
      <trkpt lat="46.25923" lon="5.93082">
        <ele>1646</ele>
        <time>2019-05-05T12:15:12Z</time>
      </trkpt>
      <trkpt lat="46.2592" lon="5.9308">
        <ele>1647</ele>
        <time>2019-05-05T12:15:14Z</time>
      </trkpt>
      <trkpt lat="46.25915" lon="5.93075">
        <ele>1647</ele>
        <time>2019-05-05T12:15:19Z</time>
      </trkpt>
      <trkpt lat="46.25912" lon="5.93074">
        <ele>1648</ele>
        <time>2019-05-05T12:15:21Z</time>
      </trkpt>
      <trkpt lat="46.25909" lon="5.93073">
        <ele>1648</ele>
        <time>2019-05-05T12:15:23Z</time>
      </trkpt>
      <trkpt lat="46.25906" lon="5.93071">
        <ele>1649</ele>
        <time>2019-05-05T12:15:26Z</time>
      </trkpt>
      <trkpt lat="46.25904" lon="5.93071">
        <ele>1649</ele>
        <time>2019-05-05T12:15:27Z</time>
      </trkpt>
      <trkpt lat="46.259" lon="5.93068">
        <ele>1650</ele>
        <time>2019-05-05T12:15:30Z</time>
      </trkpt>
      <trkpt lat="46.25899" lon="5.93069">
        <ele>1650</ele>
        <time>2019-05-05T12:15:31Z</time>
      </trkpt>
      <trkpt lat="46.25899" lon="5.93069">
        <ele>1650</ele>
        <time>2019-05-05T12:15:31Z</time>
      </trkpt>
      <trkpt lat="46.25897" lon="5.93069">
        <ele>1651</ele>
        <time>2019-05-05T12:15:33Z</time>
      </trkpt>
      <trkpt lat="46.25892" lon="5.93072">
        <ele>1652</ele>
        <time>2019-05-05T12:15:37Z</time>
      </trkpt>
      <trkpt lat="46.25885" lon="5.93074">
        <ele>1653</ele>
        <time>2019-05-05T12:15:42Z</time>
      </trkpt>
      <trkpt lat="46.25878" lon="5.93077">
        <ele>1654</ele>
        <time>2019-05-05T12:15:47Z</time>
      </trkpt>
      <trkpt lat="46.25876" lon="5.93077">
        <ele>1655</ele>
        <time>2019-05-05T12:15:49Z</time>
      </trkpt>
      <trkpt lat="46.25875" lon="5.93077">
        <ele>1655</ele>
        <time>2019-05-05T12:15:49Z</time>
      </trkpt>
      <trkpt lat="46.25875" lon="5.93077">
        <ele>1655</ele>
        <time>2019-05-05T12:15:50Z</time>
      </trkpt>
      <trkpt lat="46.2587" lon="5.93078">
        <ele>1656</ele>
        <time>2019-05-05T12:15:53Z</time>
      </trkpt>
      <trkpt lat="46.25866" lon="5.93079">
        <ele>1657</ele>
        <time>2019-05-05T12:15:56Z</time>
      </trkpt>
      <trkpt lat="46.25865" lon="5.93079">
        <ele>1657</ele>
        <time>2019-05-05T12:15:57Z</time>
      </trkpt>
      <trkpt lat="46.25863" lon="5.93081">
        <ele>1657</ele>
        <time>2019-05-05T12:15:59Z</time>
      </trkpt>
      <trkpt lat="46.25862" lon="5.93082">
        <ele>1657</ele>
        <time>2019-05-05T12:15:59Z</time>
      </trkpt>
      <trkpt lat="46.2586" lon="5.93082">
        <ele>1657</ele>
        <time>2019-05-05T12:16:01Z</time>
      </trkpt>
      <trkpt lat="46.25857" lon="5.93082">
        <ele>1658</ele>
        <time>2019-05-05T12:16:03Z</time>
      </trkpt>
      <trkpt lat="46.2585" lon="5.9308">
        <ele>1659</ele>
        <time>2019-05-05T12:16:08Z</time>
      </trkpt>
      <trkpt lat="46.25848" lon="5.9308">
        <ele>1660</ele>
        <time>2019-05-05T12:16:10Z</time>
      </trkpt>
      <trkpt lat="46.25843" lon="5.93081">
        <ele>1660</ele>
        <time>2019-05-05T12:16:14Z</time>
      </trkpt>
      <trkpt lat="46.25839" lon="5.93081">
        <ele>1661</ele>
        <time>2019-05-05T12:16:17Z</time>
      </trkpt>
      <trkpt lat="46.25838" lon="5.93081">
        <ele>1661</ele>
        <time>2019-05-05T12:16:17Z</time>
      </trkpt>
      <trkpt lat="46.25836" lon="5.93079">
        <ele>1661</ele>
        <time>2019-05-05T12:16:19Z</time>
      </trkpt>
      <trkpt lat="46.25833" lon="5.93077">
        <ele>1662</ele>
        <time>2019-05-05T12:16:22Z</time>
      </trkpt>
      <trkpt lat="46.25829" lon="5.93074">
        <ele>1663</ele>
        <time>2019-05-05T12:16:25Z</time>
      </trkpt>
      <trkpt lat="46.25828" lon="5.93074">
        <ele>1663</ele>
        <time>2019-05-05T12:16:25Z</time>
      </trkpt>
      <trkpt lat="46.25827" lon="5.93073">
        <ele>1664</ele>
        <time>2019-05-05T12:16:26Z</time>
      </trkpt>
      <trkpt lat="46.25824" lon="5.93068">
        <ele>1665</ele>
        <time>2019-05-05T12:16:30Z</time>
      </trkpt>
      <trkpt lat="46.25821" lon="5.93064">
        <ele>1666</ele>
        <time>2019-05-05T12:16:33Z</time>
      </trkpt>
      <trkpt lat="46.25818" lon="5.93062">
        <ele>1667</ele>
        <time>2019-05-05T12:16:35Z</time>
      </trkpt>
      <trkpt lat="46.25817" lon="5.93062">
        <ele>1667</ele>
        <time>2019-05-05T12:16:36Z</time>
      </trkpt>
      <trkpt lat="46.25816" lon="5.9306">
        <ele>1667</ele>
        <time>2019-05-05T12:16:37Z</time>
      </trkpt>
      <trkpt lat="46.25813" lon="5.93057">
        <ele>1668</ele>
        <time>2019-05-05T12:16:40Z</time>
      </trkpt>
      <trkpt lat="46.25812" lon="5.93055">
        <ele>1669</ele>
        <time>2019-05-05T12:16:41Z</time>
      </trkpt>
      <trkpt lat="46.25808" lon="5.93047">
        <ele>1671</ele>
        <time>2019-05-05T12:16:46Z</time>
      </trkpt>
      <trkpt lat="46.25808" lon="5.93047">
        <ele>1671</ele>
        <time>2019-05-05T12:16:47Z</time>
      </trkpt>
      <trkpt lat="46.25801" lon="5.93038">
        <ele>1674</ele>
        <time>2019-05-05T12:16:54Z</time>
      </trkpt>
      <trkpt lat="46.25798" lon="5.93035">
        <ele>1676</ele>
        <time>2019-05-05T12:16:56Z</time>
      </trkpt>
      <trkpt lat="46.25794" lon="5.93032">
        <ele>1677</ele>
        <time>2019-05-05T12:17:00Z</time>
      </trkpt>
      <trkpt lat="46.2579" lon="5.93029">
        <ele>1679</ele>
        <time>2019-05-05T12:17:04Z</time>
      </trkpt>
      <trkpt lat="46.25785" lon="5.93028">
        <ele>1680</ele>
        <time>2019-05-05T12:17:07Z</time>
      </trkpt>
      <trkpt lat="46.25783" lon="5.93029">
        <ele>1681</ele>
        <time>2019-05-05T12:17:09Z</time>
      </trkpt>
      <trkpt lat="46.25783" lon="5.93029">
        <ele>1681</ele>
        <time>2019-05-05T12:17:09Z</time>
      </trkpt>
      <trkpt lat="46.25782" lon="5.93029">
        <ele>1681</ele>
        <time>2019-05-05T12:17:09Z</time>
      </trkpt>
      <trkpt lat="46.25782" lon="5.93028">
        <ele>1681</ele>
        <time>2019-05-05T12:17:10Z</time>
      </trkpt>
      <trkpt lat="46.25781" lon="5.93027">
        <ele>1682</ele>
        <time>2019-05-05T12:17:11Z</time>
      </trkpt>
      <trkpt lat="46.25781" lon="5.93025">
        <ele>1682</ele>
        <time>2019-05-05T12:17:12Z</time>
      </trkpt>
      <trkpt lat="46.25781" lon="5.93024">
        <ele>1682</ele>
        <time>2019-05-05T12:17:13Z</time>
      </trkpt>
      <trkpt lat="46.2578" lon="5.93023">
        <ele>1683</ele>
        <time>2019-05-05T12:17:13Z</time>
      </trkpt>
      <trkpt lat="46.25779" lon="5.93021">
        <ele>1684</ele>
        <time>2019-05-05T12:17:15Z</time>
      </trkpt>
      <trkpt lat="46.2578" lon="5.9302">
        <ele>1684</ele>
        <time>2019-05-05T12:17:15Z</time>
      </trkpt>
      <trkpt lat="46.2578" lon="5.93021">
        <ele>1683</ele>
        <time>2019-05-05T12:17:16Z</time>
      </trkpt>
      <trkpt lat="46.25779" lon="5.93021">
        <ele>1683</ele>
        <time>2019-05-05T12:17:16Z</time>
      </trkpt>
      <trkpt lat="46.25779" lon="5.93022">
        <ele>1683</ele>
        <time>2019-05-05T12:17:17Z</time>
      </trkpt>
      <trkpt lat="46.25779" lon="5.93023">
        <ele>1683</ele>
        <time>2019-05-05T12:17:17Z</time>
      </trkpt>
      <trkpt lat="46.25775" lon="5.9302">
        <ele>1685</ele>
        <time>2019-05-05T12:17:20Z</time>
      </trkpt>
      <trkpt lat="46.25774" lon="5.93019">
        <ele>1685</ele>
        <time>2019-05-05T12:17:21Z</time>
      </trkpt>
      <trkpt lat="46.25774" lon="5.93019">
        <ele>1685</ele>
        <time>2019-05-05T12:17:21Z</time>
      </trkpt>
      <trkpt lat="46.25774" lon="5.93019">
        <ele>1685</ele>
        <time>2019-05-05T12:17:22Z</time>
      </trkpt>
      <trkpt lat="46.25773" lon="5.93018">
        <ele>1686</ele>
        <time>2019-05-05T12:17:23Z</time>
      </trkpt>
      <trkpt lat="46.25769" lon="5.93015">
        <ele>1687</ele>
        <time>2019-05-05T12:17:26Z</time>
      </trkpt>
      <trkpt lat="46.25768" lon="5.93015">
        <ele>1687</ele>
        <time>2019-05-05T12:17:27Z</time>
      </trkpt>
      <trkpt lat="46.25766" lon="5.93015">
        <ele>1688</ele>
        <time>2019-05-05T12:17:28Z</time>
      </trkpt>
      <trkpt lat="46.25764" lon="5.93016">
        <ele>1688</ele>
        <time>2019-05-05T12:17:30Z</time>
      </trkpt>
      <trkpt lat="46.25764" lon="5.93016">
        <ele>1688</ele>
        <time>2019-05-05T12:17:30Z</time>
      </trkpt>
      <trkpt lat="46.25764" lon="5.93016">
        <ele>1688</ele>
        <time>2019-05-05T12:17:30Z</time>
      </trkpt>
      <trkpt lat="46.25763" lon="5.93016">
        <ele>1688</ele>
        <time>2019-05-05T12:17:30Z</time>
      </trkpt>
      <trkpt lat="46.25762" lon="5.93016">
        <ele>1688</ele>
        <time>2019-05-05T12:17:31Z</time>
      </trkpt>
      <trkpt lat="46.25762" lon="5.93016">
        <ele>1688</ele>
        <time>2019-05-05T12:17:31Z</time>
      </trkpt>
      <trkpt lat="46.2576" lon="5.93015">
        <ele>1688</ele>
        <time>2019-05-05T12:17:33Z</time>
      </trkpt>
      <trkpt lat="46.25759" lon="5.93015">
        <ele>1689</ele>
        <time>2019-05-05T12:17:34Z</time>
      </trkpt>
      <trkpt lat="46.25758" lon="5.93014">
        <ele>1689</ele>
        <time>2019-05-05T12:17:34Z</time>
      </trkpt>
      <trkpt lat="46.25757" lon="5.93014">
        <ele>1689</ele>
        <time>2019-05-05T12:17:35Z</time>
      </trkpt>
      <trkpt lat="46.25757" lon="5.93014">
        <ele>1689</ele>
        <time>2019-05-05T12:17:35Z</time>
      </trkpt>
      <trkpt lat="46.25754" lon="5.93012">
        <ele>1689</ele>
        <time>2019-05-05T12:17:38Z</time>
      </trkpt>
      <trkpt lat="46.25753" lon="5.93012">
        <ele>1689</ele>
        <time>2019-05-05T12:17:38Z</time>
      </trkpt>
      <trkpt lat="46.25752" lon="5.93012">
        <ele>1689</ele>
        <time>2019-05-05T12:17:39Z</time>
      </trkpt>
      <trkpt lat="46.25744" lon="5.9301">
        <ele>1690</ele>
        <time>2019-05-05T12:17:45Z</time>
      </trkpt>
      <trkpt lat="46.25738" lon="5.93007">
        <ele>1691</ele>
        <time>2019-05-05T12:17:50Z</time>
      </trkpt>
      <trkpt lat="46.25735" lon="5.93005">
        <ele>1691</ele>
        <time>2019-05-05T12:17:52Z</time>
      </trkpt>
      <trkpt lat="46.25731" lon="5.93003">
        <ele>1692</ele>
        <time>2019-05-05T12:17:55Z</time>
      </trkpt>
      <trkpt lat="46.25729" lon="5.93001">
        <ele>1692</ele>
        <time>2019-05-05T12:17:57Z</time>
      </trkpt>
      <trkpt lat="46.25726" lon="5.92999">
        <ele>1692</ele>
        <time>2019-05-05T12:17:59Z</time>
      </trkpt>
      <trkpt lat="46.25724" lon="5.92997">
        <ele>1692</ele>
        <time>2019-05-05T12:18:01Z</time>
      </trkpt>
      <trkpt lat="46.2572" lon="5.92994">
        <ele>1693</ele>
        <time>2019-05-05T12:18:04Z</time>
      </trkpt>
      <trkpt lat="46.25719" lon="5.92994">
        <ele>1693</ele>
        <time>2019-05-05T12:18:05Z</time>
      </trkpt>
      <trkpt lat="46.25717" lon="5.92993">
        <ele>1693</ele>
        <time>2019-05-05T12:18:06Z</time>
      </trkpt>
      <trkpt lat="46.25715" lon="5.9299">
        <ele>1693</ele>
        <time>2019-05-05T12:18:09Z</time>
      </trkpt>
      <trkpt lat="46.25709" lon="5.92988">
        <ele>1694</ele>
        <time>2019-05-05T12:18:13Z</time>
      </trkpt>
      <trkpt lat="46.25708" lon="5.92988">
        <ele>1694</ele>
        <time>2019-05-05T12:18:13Z</time>
      </trkpt>
      <trkpt lat="46.25709" lon="5.92988">
        <ele>1694</ele>
        <time>2019-05-05T12:18:14Z</time>
      </trkpt>
      <trkpt lat="46.25709" lon="5.92988">
        <ele>1694</ele>
        <time>2019-05-05T12:18:14Z</time>
      </trkpt>
      <trkpt lat="46.25708" lon="5.92988">
        <ele>1694</ele>
        <time>2019-05-05T12:18:14Z</time>
      </trkpt>
      <trkpt lat="46.25708" lon="5.92988">
        <ele>1694</ele>
        <time>2019-05-05T12:18:14Z</time>
      </trkpt>
      <trkpt lat="46.25706" lon="5.92987">
        <ele>1694</ele>
        <time>2019-05-05T12:18:16Z</time>
      </trkpt>
      <trkpt lat="46.25706" lon="5.92987">
        <ele>1694</ele>
        <time>2019-05-05T12:18:16Z</time>
      </trkpt>
      <trkpt lat="46.25706" lon="5.92987">
        <ele>1694</ele>
        <time>2019-05-05T12:18:16Z</time>
      </trkpt>
      <trkpt lat="46.25704" lon="5.9299">
        <ele>1694</ele>
        <time>2019-05-05T12:18:18Z</time>
      </trkpt>
      <trkpt lat="46.25703" lon="5.9299">
        <ele>1695</ele>
        <time>2019-05-05T12:18:19Z</time>
      </trkpt>
      <trkpt lat="46.25703" lon="5.92988">
        <ele>1695</ele>
        <time>2019-05-05T12:18:20Z</time>
      </trkpt>
      <trkpt lat="46.25701" lon="5.92989">
        <ele>1695</ele>
        <time>2019-05-05T12:18:21Z</time>
      </trkpt>
      <trkpt lat="46.25699" lon="5.9299">
        <ele>1695</ele>
        <time>2019-05-05T12:18:23Z</time>
      </trkpt>
      <trkpt lat="46.25701" lon="5.92988">
        <ele>1695</ele>
        <time>2019-05-05T12:18:24Z</time>
      </trkpt>
      <trkpt lat="46.25699" lon="5.92987">
        <ele>1695</ele>
        <time>2019-05-05T12:18:25Z</time>
      </trkpt>
      <trkpt lat="46.25693" lon="5.92983">
        <ele>1695</ele>
        <time>2019-05-05T12:18:30Z</time>
      </trkpt>
      <trkpt lat="46.25692" lon="5.92982">
        <ele>1695</ele>
        <time>2019-05-05T12:18:31Z</time>
      </trkpt>
      <trkpt lat="46.25691" lon="5.92977">
        <ele>1695</ele>
        <time>2019-05-05T12:18:33Z</time>
      </trkpt>
      <trkpt lat="46.2569" lon="5.92973">
        <ele>1695</ele>
        <time>2019-05-05T12:18:36Z</time>
      </trkpt>
      <trkpt lat="46.25689" lon="5.92972">
        <ele>1695</ele>
        <time>2019-05-05T12:18:37Z</time>
      </trkpt>
      <trkpt lat="46.25688" lon="5.92971">
        <ele>1695</ele>
        <time>2019-05-05T12:18:37Z</time>
      </trkpt>
      <trkpt lat="46.25686" lon="5.92971">
        <ele>1695</ele>
        <time>2019-05-05T12:18:39Z</time>
      </trkpt>
      <trkpt lat="46.25685" lon="5.92968">
        <ele>1694</ele>
        <time>2019-05-05T12:18:41Z</time>
      </trkpt>
      <trkpt lat="46.25683" lon="5.92965">
        <ele>1694</ele>
        <time>2019-05-05T12:18:43Z</time>
      </trkpt>
      <trkpt lat="46.25682" lon="5.92962">
        <ele>1693</ele>
        <time>2019-05-05T12:18:44Z</time>
      </trkpt>
      <trkpt lat="46.25681" lon="5.92961">
        <ele>1693</ele>
        <time>2019-05-05T12:18:45Z</time>
      </trkpt>
      <trkpt lat="46.2568" lon="5.9296">
        <ele>1693</ele>
        <time>2019-05-05T12:18:46Z</time>
      </trkpt>
      <trkpt lat="46.2568" lon="5.92958">
        <ele>1693</ele>
        <time>2019-05-05T12:18:47Z</time>
      </trkpt>
      <trkpt lat="46.25679" lon="5.92956">
        <ele>1692</ele>
        <time>2019-05-05T12:18:48Z</time>
      </trkpt>
      <trkpt lat="46.25679" lon="5.92955">
        <ele>1692</ele>
        <time>2019-05-05T12:18:49Z</time>
      </trkpt>
      <trkpt lat="46.25678" lon="5.92952">
        <ele>1692</ele>
        <time>2019-05-05T12:18:51Z</time>
      </trkpt>
      <trkpt lat="46.25676" lon="5.92948">
        <ele>1691</ele>
        <time>2019-05-05T12:18:53Z</time>
      </trkpt>
      <trkpt lat="46.25675" lon="5.92947">
        <ele>1691</ele>
        <time>2019-05-05T12:18:54Z</time>
      </trkpt>
      <trkpt lat="46.25672" lon="5.92943">
        <ele>1690</ele>
        <time>2019-05-05T12:18:57Z</time>
      </trkpt>
      <trkpt lat="46.25669" lon="5.9294">
        <ele>1689</ele>
        <time>2019-05-05T12:19:00Z</time>
      </trkpt>
      <trkpt lat="46.25666" lon="5.92939">
        <ele>1689</ele>
        <time>2019-05-05T12:19:02Z</time>
      </trkpt>
      <trkpt lat="46.25662" lon="5.92936">
        <ele>1688</ele>
        <time>2019-05-05T12:19:05Z</time>
      </trkpt>
      <trkpt lat="46.2566" lon="5.92934">
        <ele>1687</ele>
        <time>2019-05-05T12:19:07Z</time>
      </trkpt>
      <trkpt lat="46.25658" lon="5.92932">
        <ele>1686</ele>
        <time>2019-05-05T12:19:09Z</time>
      </trkpt>
      <trkpt lat="46.25655" lon="5.92927">
        <ele>1685</ele>
        <time>2019-05-05T12:19:12Z</time>
      </trkpt>
      <trkpt lat="46.25653" lon="5.92924">
        <ele>1684</ele>
        <time>2019-05-05T12:19:15Z</time>
      </trkpt>
      <trkpt lat="46.2565" lon="5.92917">
        <ele>1683</ele>
        <time>2019-05-05T12:19:19Z</time>
      </trkpt>
      <trkpt lat="46.25646" lon="5.92911">
        <ele>1681</ele>
        <time>2019-05-05T12:19:23Z</time>
      </trkpt>
      <trkpt lat="46.25643" lon="5.92907">
        <ele>1680</ele>
        <time>2019-05-05T12:19:26Z</time>
      </trkpt>
      <trkpt lat="46.25641" lon="5.92901">
        <ele>1679</ele>
        <time>2019-05-05T12:19:30Z</time>
      </trkpt>
      <trkpt lat="46.25637" lon="5.92895">
        <ele>1677</ele>
        <time>2019-05-05T12:19:34Z</time>
      </trkpt>
      <trkpt lat="46.25633" lon="5.92889">
        <ele>1676</ele>
        <time>2019-05-05T12:19:38Z</time>
      </trkpt>
      <trkpt lat="46.25631" lon="5.92885">
        <ele>1675</ele>
        <time>2019-05-05T12:19:41Z</time>
      </trkpt>
      <trkpt lat="46.25628" lon="5.9288">
        <ele>1674</ele>
        <time>2019-05-05T12:19:44Z</time>
      </trkpt>
      <trkpt lat="46.25628" lon="5.92879">
        <ele>1674</ele>
        <time>2019-05-05T12:19:44Z</time>
      </trkpt>
      <trkpt lat="46.25626" lon="5.92877">
        <ele>1674</ele>
        <time>2019-05-05T12:19:46Z</time>
      </trkpt>
      <trkpt lat="46.25625" lon="5.92876">
        <ele>1673</ele>
        <time>2019-05-05T12:19:47Z</time>
      </trkpt>
      <trkpt lat="46.25622" lon="5.92871">
        <ele>1672</ele>
        <time>2019-05-05T12:19:50Z</time>
      </trkpt>
      <trkpt lat="46.25619" lon="5.92867">
        <ele>1671</ele>
        <time>2019-05-05T12:19:54Z</time>
      </trkpt>
      <trkpt lat="46.25617" lon="5.92864">
        <ele>1671</ele>
        <time>2019-05-05T12:19:56Z</time>
      </trkpt>
      <trkpt lat="46.25612" lon="5.92856">
        <ele>1670</ele>
        <time>2019-05-05T12:20:01Z</time>
      </trkpt>
      <trkpt lat="46.25612" lon="5.92855">
        <ele>1669</ele>
        <time>2019-05-05T12:20:02Z</time>
      </trkpt>
      <trkpt lat="46.25611" lon="5.92852">
        <ele>1669</ele>
        <time>2019-05-05T12:20:03Z</time>
      </trkpt>
      <trkpt lat="46.2561" lon="5.92849">
        <ele>1669</ele>
        <time>2019-05-05T12:20:05Z</time>
      </trkpt>
      <trkpt lat="46.25608" lon="5.92844">
        <ele>1668</ele>
        <time>2019-05-05T12:20:08Z</time>
      </trkpt>
      <trkpt lat="46.25607" lon="5.9284">
        <ele>1667</ele>
        <time>2019-05-05T12:20:10Z</time>
      </trkpt>
      <trkpt lat="46.25605" lon="5.92837">
        <ele>1667</ele>
        <time>2019-05-05T12:20:12Z</time>
      </trkpt>
      <trkpt lat="46.25601" lon="5.9283">
        <ele>1664</ele>
        <time>2019-05-05T12:20:17Z</time>
      </trkpt>
      <trkpt lat="46.25596" lon="5.92824">
        <ele>1662</ele>
        <time>2019-05-05T12:20:22Z</time>
      </trkpt>
      <trkpt lat="46.25594" lon="5.92821">
        <ele>1661</ele>
        <time>2019-05-05T12:20:24Z</time>
      </trkpt>
      <trkpt lat="46.25591" lon="5.92813">
        <ele>1658</ele>
        <time>2019-05-05T12:20:29Z</time>
      </trkpt>
      <trkpt lat="46.2559" lon="5.92809">
        <ele>1658</ele>
        <time>2019-05-05T12:20:31Z</time>
      </trkpt>
      <trkpt lat="46.2559" lon="5.92799">
        <ele>1657</ele>
        <time>2019-05-05T12:20:36Z</time>
      </trkpt>
      <trkpt lat="46.25589" lon="5.92793">
        <ele>1656</ele>
        <time>2019-05-05T12:20:39Z</time>
      </trkpt>
      <trkpt lat="46.25589" lon="5.92792">
        <ele>1656</ele>
        <time>2019-05-05T12:20:40Z</time>
      </trkpt>
      <trkpt lat="46.25589" lon="5.92788">
        <ele>1655</ele>
        <time>2019-05-05T12:20:42Z</time>
      </trkpt>
      <trkpt lat="46.25587" lon="5.92784">
        <ele>1654</ele>
        <time>2019-05-05T12:20:44Z</time>
      </trkpt>
      <trkpt lat="46.25587" lon="5.92781">
        <ele>1654</ele>
        <time>2019-05-05T12:20:46Z</time>
      </trkpt>
      <trkpt lat="46.25586" lon="5.9278">
        <ele>1654</ele>
        <time>2019-05-05T12:20:47Z</time>
      </trkpt>
      <trkpt lat="46.25586" lon="5.92777">
        <ele>1653</ele>
        <time>2019-05-05T12:20:48Z</time>
      </trkpt>
      <trkpt lat="46.25584" lon="5.92771">
        <ele>1652</ele>
        <time>2019-05-05T12:20:51Z</time>
      </trkpt>
      <trkpt lat="46.25583" lon="5.92767">
        <ele>1652</ele>
        <time>2019-05-05T12:20:54Z</time>
      </trkpt>
      <trkpt lat="46.25582" lon="5.92766">
        <ele>1651</ele>
        <time>2019-05-05T12:20:55Z</time>
      </trkpt>
      <trkpt lat="46.2558" lon="5.92761">
        <ele>1651</ele>
        <time>2019-05-05T12:20:58Z</time>
      </trkpt>
      <trkpt lat="46.25573" lon="5.9275">
        <ele>1648</ele>
        <time>2019-05-05T12:21:06Z</time>
      </trkpt>
      <trkpt lat="46.25572" lon="5.92746">
        <ele>1648</ele>
        <time>2019-05-05T12:21:08Z</time>
      </trkpt>
      <trkpt lat="46.25564" lon="5.92729">
        <ele>1646</ele>
        <time>2019-05-05T12:21:18Z</time>
      </trkpt>
      <trkpt lat="46.25558" lon="5.92712">
        <ele>1645</ele>
        <time>2019-05-05T12:21:28Z</time>
      </trkpt>
      <trkpt lat="46.25557" lon="5.92708">
        <ele>1644</ele>
        <time>2019-05-05T12:21:30Z</time>
      </trkpt>
      <trkpt lat="46.25553" lon="5.92699">
        <ele>1644</ele>
        <time>2019-05-05T12:21:35Z</time>
      </trkpt>
      <trkpt lat="46.25551" lon="5.92694">
        <ele>1644</ele>
        <time>2019-05-05T12:21:38Z</time>
      </trkpt>
      <trkpt lat="46.25546" lon="5.92683">
        <ele>1643</ele>
        <time>2019-05-05T12:21:45Z</time>
      </trkpt>
      <trkpt lat="46.25545" lon="5.92679">
        <ele>1643</ele>
        <time>2019-05-05T12:21:47Z</time>
      </trkpt>
      <trkpt lat="46.25545" lon="5.92665">
        <ele>1644</ele>
        <time>2019-05-05T12:21:54Z</time>
      </trkpt>
      <trkpt lat="46.25544" lon="5.92663">
        <ele>1644</ele>
        <time>2019-05-05T12:21:55Z</time>
      </trkpt>
      <trkpt lat="46.25537" lon="5.92652">
        <ele>1644</ele>
        <time>2019-05-05T12:22:02Z</time>
      </trkpt>
      <trkpt lat="46.25529" lon="5.92644">
        <ele>1645</ele>
        <time>2019-05-05T12:22:10Z</time>
      </trkpt>
      <trkpt lat="46.25528" lon="5.9264">
        <ele>1645</ele>
        <time>2019-05-05T12:22:12Z</time>
      </trkpt>
      <trkpt lat="46.25526" lon="5.92633">
        <ele>1646</ele>
        <time>2019-05-05T12:22:15Z</time>
      </trkpt>
      <trkpt lat="46.25519" lon="5.92622">
        <ele>1647</ele>
        <time>2019-05-05T12:22:23Z</time>
      </trkpt>
      <trkpt lat="46.25518" lon="5.92618">
        <ele>1648</ele>
        <time>2019-05-05T12:22:25Z</time>
      </trkpt>
      <trkpt lat="46.25516" lon="5.92616">
        <ele>1648</ele>
        <time>2019-05-05T12:22:27Z</time>
      </trkpt>
      <trkpt lat="46.25515" lon="5.92613">
        <ele>1648</ele>
        <time>2019-05-05T12:22:29Z</time>
      </trkpt>
      <trkpt lat="46.25511" lon="5.92609">
        <ele>1649</ele>
        <time>2019-05-05T12:22:32Z</time>
      </trkpt>
      <trkpt lat="46.25509" lon="5.92606">
        <ele>1650</ele>
        <time>2019-05-05T12:22:34Z</time>
      </trkpt>
      <trkpt lat="46.25507" lon="5.92604">
        <ele>1650</ele>
        <time>2019-05-05T12:22:36Z</time>
      </trkpt>
      <trkpt lat="46.25503" lon="5.92599">
        <ele>1651</ele>
        <time>2019-05-05T12:22:39Z</time>
      </trkpt>
      <trkpt lat="46.25499" lon="5.92594">
        <ele>1652</ele>
        <time>2019-05-05T12:22:44Z</time>
      </trkpt>
      <trkpt lat="46.25496" lon="5.92586">
        <ele>1653</ele>
        <time>2019-05-05T12:22:48Z</time>
      </trkpt>
      <trkpt lat="46.25494" lon="5.92581">
        <ele>1654</ele>
        <time>2019-05-05T12:22:51Z</time>
      </trkpt>
      <trkpt lat="46.25493" lon="5.92578">
        <ele>1654</ele>
        <time>2019-05-05T12:22:53Z</time>
      </trkpt>
      <trkpt lat="46.25486" lon="5.92568">
        <ele>1656</ele>
        <time>2019-05-05T12:23:00Z</time>
      </trkpt>
      <trkpt lat="46.25482" lon="5.92563">
        <ele>1657</ele>
        <time>2019-05-05T12:23:04Z</time>
      </trkpt>
      <trkpt lat="46.25477" lon="5.9256">
        <ele>1658</ele>
        <time>2019-05-05T12:23:08Z</time>
      </trkpt>
      <trkpt lat="46.25464" lon="5.92551">
        <ele>1661</ele>
        <time>2019-05-05T12:23:18Z</time>
      </trkpt>
      <trkpt lat="46.25457" lon="5.92549">
        <ele>1663</ele>
        <time>2019-05-05T12:23:24Z</time>
      </trkpt>
      <trkpt lat="46.25455" lon="5.92549">
        <ele>1663</ele>
        <time>2019-05-05T12:23:25Z</time>
      </trkpt>
      <trkpt lat="46.25448" lon="5.92545">
        <ele>1665</ele>
        <time>2019-05-05T12:23:30Z</time>
      </trkpt>
      <trkpt lat="46.25444" lon="5.92543">
        <ele>1666</ele>
        <time>2019-05-05T12:23:34Z</time>
      </trkpt>
      <trkpt lat="46.25441" lon="5.9254">
        <ele>1667</ele>
        <time>2019-05-05T12:23:37Z</time>
      </trkpt>
      <trkpt lat="46.25432" lon="5.92533">
        <ele>1669</ele>
        <time>2019-05-05T12:23:44Z</time>
      </trkpt>
      <trkpt lat="46.25428" lon="5.92531">
        <ele>1669</ele>
        <time>2019-05-05T12:23:47Z</time>
      </trkpt>
      <trkpt lat="46.25425" lon="5.92528">
        <ele>1669</ele>
        <time>2019-05-05T12:23:50Z</time>
      </trkpt>
      <trkpt lat="46.25414" lon="5.92518">
        <ele>1670</ele>
        <time>2019-05-05T12:23:59Z</time>
      </trkpt>
      <trkpt lat="46.2541" lon="5.92512">
        <ele>1670</ele>
        <time>2019-05-05T12:24:04Z</time>
      </trkpt>
      <trkpt lat="46.25403" lon="5.92506">
        <ele>1669</ele>
        <time>2019-05-05T12:24:09Z</time>
      </trkpt>
      <trkpt lat="46.25396" lon="5.925">
        <ele>1669</ele>
        <time>2019-05-05T12:24:15Z</time>
      </trkpt>
      <trkpt lat="46.25381" lon="5.92486">
        <ele>1668</ele>
        <time>2019-05-05T12:24:28Z</time>
      </trkpt>
      <trkpt lat="46.25377" lon="5.92487">
        <ele>1668</ele>
        <time>2019-05-05T12:24:31Z</time>
      </trkpt>
      <trkpt lat="46.25373" lon="5.92488">
        <ele>1667</ele>
        <time>2019-05-05T12:24:34Z</time>
      </trkpt>
      <trkpt lat="46.2537" lon="5.92489">
        <ele>1667</ele>
        <time>2019-05-05T12:24:36Z</time>
      </trkpt>
      <trkpt lat="46.25368" lon="5.92489">
        <ele>1667</ele>
        <time>2019-05-05T12:24:38Z</time>
      </trkpt>
      <trkpt lat="46.25364" lon="5.92489">
        <ele>1667</ele>
        <time>2019-05-05T12:24:40Z</time>
      </trkpt>
      <trkpt lat="46.25351" lon="5.92488">
        <ele>1667</ele>
        <time>2019-05-05T12:24:49Z</time>
      </trkpt>
      <trkpt lat="46.25336" lon="5.92483">
        <ele>1667</ele>
        <time>2019-05-05T12:25:01Z</time>
      </trkpt>
      <trkpt lat="46.25318" lon="5.92478">
        <ele>1667</ele>
        <time>2019-05-05T12:25:14Z</time>
      </trkpt>
      <trkpt lat="46.25299" lon="5.9247">
        <ele>1666</ele>
        <time>2019-05-05T12:25:28Z</time>
      </trkpt>
      <trkpt lat="46.25284" lon="5.92456">
        <ele>1665</ele>
        <time>2019-05-05T12:25:41Z</time>
      </trkpt>
      <trkpt lat="46.25268" lon="5.92442">
        <ele>1663</ele>
        <time>2019-05-05T12:25:55Z</time>
      </trkpt>
      <trkpt lat="46.25256" lon="5.92433">
        <ele>1663</ele>
        <time>2019-05-05T12:26:04Z</time>
      </trkpt>
      <trkpt lat="46.2525" lon="5.92429">
        <ele>1663</ele>
        <time>2019-05-05T12:26:09Z</time>
      </trkpt>
      <trkpt lat="46.25234" lon="5.92415">
        <ele>1662</ele>
        <time>2019-05-05T12:26:23Z</time>
      </trkpt>
      <trkpt lat="46.2523" lon="5.92411">
        <ele>1662</ele>
        <time>2019-05-05T12:26:26Z</time>
      </trkpt>
      <trkpt lat="46.25224" lon="5.92407">
        <ele>1661</ele>
        <time>2019-05-05T12:26:32Z</time>
      </trkpt>
      <trkpt lat="46.2522" lon="5.92404">
        <ele>1661</ele>
        <time>2019-05-05T12:26:35Z</time>
      </trkpt>
      <trkpt lat="46.25217" lon="5.924">
        <ele>1661</ele>
        <time>2019-05-05T12:26:37Z</time>
      </trkpt>
      <trkpt lat="46.25215" lon="5.92398">
        <ele>1660</ele>
        <time>2019-05-05T12:26:39Z</time>
      </trkpt>
      <trkpt lat="46.2521" lon="5.92396">
        <ele>1660</ele>
        <time>2019-05-05T12:26:43Z</time>
      </trkpt>
      <trkpt lat="46.25197" lon="5.92388">
        <ele>1659</ele>
        <time>2019-05-05T12:26:53Z</time>
      </trkpt>
      <trkpt lat="46.25193" lon="5.92387">
        <ele>1659</ele>
        <time>2019-05-05T12:26:56Z</time>
      </trkpt>
      <trkpt lat="46.25178" lon="5.92375">
        <ele>1657</ele>
        <time>2019-05-05T12:27:08Z</time>
      </trkpt>
      <trkpt lat="46.25161" lon="5.92363">
        <ele>1655</ele>
        <time>2019-05-05T12:27:22Z</time>
      </trkpt>
      <trkpt lat="46.25159" lon="5.92361">
        <ele>1654</ele>
        <time>2019-05-05T12:27:24Z</time>
      </trkpt>
      <trkpt lat="46.25157" lon="5.92359">
        <ele>1654</ele>
        <time>2019-05-05T12:27:26Z</time>
      </trkpt>
      <trkpt lat="46.25148" lon="5.92355">
        <ele>1654</ele>
        <time>2019-05-05T12:27:33Z</time>
      </trkpt>
      <trkpt lat="46.25137" lon="5.92348">
        <ele>1653</ele>
        <time>2019-05-05T12:27:42Z</time>
      </trkpt>
      <trkpt lat="46.2513" lon="5.92344">
        <ele>1653</ele>
        <time>2019-05-05T12:27:47Z</time>
      </trkpt>
      <trkpt lat="46.25126" lon="5.92341">
        <ele>1652</ele>
        <time>2019-05-05T12:27:50Z</time>
      </trkpt>
      <trkpt lat="46.25107" lon="5.92333">
        <ele>1652</ele>
        <time>2019-05-05T12:28:04Z</time>
      </trkpt>
      <trkpt lat="46.25088" lon="5.92325">
        <ele>1649</ele>
        <time>2019-05-05T12:28:19Z</time>
      </trkpt>
      <trkpt lat="46.25078" lon="5.92321">
        <ele>1648</ele>
        <time>2019-05-05T12:28:27Z</time>
      </trkpt>
      <trkpt lat="46.25073" lon="5.92319">
        <ele>1648</ele>
        <time>2019-05-05T12:28:30Z</time>
      </trkpt>
      <trkpt lat="46.2506" lon="5.92319">
        <ele>1647</ele>
        <time>2019-05-05T12:28:39Z</time>
      </trkpt>
      <trkpt lat="46.25055" lon="5.9232">
        <ele>1647</ele>
        <time>2019-05-05T12:28:43Z</time>
      </trkpt>
      <trkpt lat="46.25038" lon="5.92322">
        <ele>1647</ele>
        <time>2019-05-05T12:28:55Z</time>
      </trkpt>
      <trkpt lat="46.25033" lon="5.92324">
        <ele>1647</ele>
        <time>2019-05-05T12:28:59Z</time>
      </trkpt>
      <trkpt lat="46.25014" lon="5.92329">
        <ele>1648</ele>
        <time>2019-05-05T12:29:13Z</time>
      </trkpt>
      <trkpt lat="46.25011" lon="5.92329">
        <ele>1648</ele>
        <time>2019-05-05T12:29:15Z</time>
      </trkpt>
      <trkpt lat="46.25007" lon="5.9233">
        <ele>1648</ele>
        <time>2019-05-05T12:29:18Z</time>
      </trkpt>
      <trkpt lat="46.2499" lon="5.92333">
        <ele>1651</ele>
        <time>2019-05-05T12:29:31Z</time>
      </trkpt>
      <trkpt lat="46.24985" lon="5.92332">
        <ele>1651</ele>
        <time>2019-05-05T12:29:34Z</time>
      </trkpt>
      <trkpt lat="46.24973" lon="5.92334">
        <ele>1653</ele>
        <time>2019-05-05T12:29:43Z</time>
      </trkpt>
      <trkpt lat="46.24965" lon="5.92335">
        <ele>1654</ele>
        <time>2019-05-05T12:29:49Z</time>
      </trkpt>
      <trkpt lat="46.24965" lon="5.92336">
        <ele>1654</ele>
        <time>2019-05-05T12:29:49Z</time>
      </trkpt>
      <trkpt lat="46.24964" lon="5.92337">
        <ele>1654</ele>
        <time>2019-05-05T12:29:50Z</time>
      </trkpt>
      <trkpt lat="46.24963" lon="5.9234">
        <ele>1654</ele>
        <time>2019-05-05T12:29:52Z</time>
      </trkpt>
      <trkpt lat="46.24961" lon="5.92341">
        <ele>1654</ele>
        <time>2019-05-05T12:29:53Z</time>
      </trkpt>
      <trkpt lat="46.2496" lon="5.92341">
        <ele>1654</ele>
        <time>2019-05-05T12:29:54Z</time>
      </trkpt>
      <trkpt lat="46.24959" lon="5.92341">
        <ele>1655</ele>
        <time>2019-05-05T12:29:55Z</time>
      </trkpt>
      <trkpt lat="46.24958" lon="5.92341">
        <ele>1655</ele>
        <time>2019-05-05T12:29:56Z</time>
      </trkpt>
      <trkpt lat="46.24955" lon="5.92342">
        <ele>1655</ele>
        <time>2019-05-05T12:29:58Z</time>
      </trkpt>
      <trkpt lat="46.24954" lon="5.92342">
        <ele>1655</ele>
        <time>2019-05-05T12:29:59Z</time>
      </trkpt>
      <trkpt lat="46.24953" lon="5.92343">
        <ele>1655</ele>
        <time>2019-05-05T12:29:59Z</time>
      </trkpt>
      <trkpt lat="46.24948" lon="5.92346">
        <ele>1656</ele>
        <time>2019-05-05T12:30:03Z</time>
      </trkpt>
      <trkpt lat="46.24947" lon="5.92346">
        <ele>1656</ele>
        <time>2019-05-05T12:30:04Z</time>
      </trkpt>
      <trkpt lat="46.24945" lon="5.92347">
        <ele>1656</ele>
        <time>2019-05-05T12:30:06Z</time>
      </trkpt>
      <trkpt lat="46.24943" lon="5.92347">
        <ele>1656</ele>
        <time>2019-05-05T12:30:07Z</time>
      </trkpt>
      <trkpt lat="46.24942" lon="5.92347">
        <ele>1656</ele>
        <time>2019-05-05T12:30:07Z</time>
      </trkpt>
      <trkpt lat="46.24942" lon="5.92347">
        <ele>1657</ele>
        <time>2019-05-05T12:30:08Z</time>
      </trkpt>
      <trkpt lat="46.24941" lon="5.92348">
        <ele>1657</ele>
        <time>2019-05-05T12:30:09Z</time>
      </trkpt>
      <trkpt lat="46.24938" lon="5.92349">
        <ele>1657</ele>
        <time>2019-05-05T12:30:11Z</time>
      </trkpt>
      <trkpt lat="46.2493" lon="5.92352">
        <ele>1659</ele>
        <time>2019-05-05T12:30:17Z</time>
      </trkpt>
      <trkpt lat="46.24927" lon="5.92353">
        <ele>1659</ele>
        <time>2019-05-05T12:30:19Z</time>
      </trkpt>
      <trkpt lat="46.24926" lon="5.92353">
        <ele>1659</ele>
        <time>2019-05-05T12:30:20Z</time>
      </trkpt>
      <trkpt lat="46.24924" lon="5.92352">
        <ele>1660</ele>
        <time>2019-05-05T12:30:21Z</time>
      </trkpt>
      <trkpt lat="46.24922" lon="5.92352">
        <ele>1661</ele>
        <time>2019-05-05T12:30:23Z</time>
      </trkpt>
      <trkpt lat="46.24921" lon="5.92352">
        <ele>1661</ele>
        <time>2019-05-05T12:30:24Z</time>
      </trkpt>
      <trkpt lat="46.2492" lon="5.92352">
        <ele>1661</ele>
        <time>2019-05-05T12:30:24Z</time>
      </trkpt>
      <trkpt lat="46.24918" lon="5.92351">
        <ele>1662</ele>
        <time>2019-05-05T12:30:26Z</time>
      </trkpt>
      <trkpt lat="46.24911" lon="5.92344">
        <ele>1664</ele>
        <time>2019-05-05T12:30:33Z</time>
      </trkpt>
      <trkpt lat="46.24911" lon="5.92343">
        <ele>1664</ele>
        <time>2019-05-05T12:30:33Z</time>
      </trkpt>
      <trkpt lat="46.2491" lon="5.92342">
        <ele>1664</ele>
        <time>2019-05-05T12:30:34Z</time>
      </trkpt>
      <trkpt lat="46.2491" lon="5.9234">
        <ele>1665</ele>
        <time>2019-05-05T12:30:35Z</time>
      </trkpt>
      <trkpt lat="46.24909" lon="5.92338">
        <ele>1665</ele>
        <time>2019-05-05T12:30:36Z</time>
      </trkpt>
      <trkpt lat="46.24907" lon="5.92337">
        <ele>1665</ele>
        <time>2019-05-05T12:30:37Z</time>
      </trkpt>
      <trkpt lat="46.24907" lon="5.92337">
        <ele>1665</ele>
        <time>2019-05-05T12:30:38Z</time>
      </trkpt>
      <trkpt lat="46.24906" lon="5.92336">
        <ele>1666</ele>
        <time>2019-05-05T12:30:39Z</time>
      </trkpt>
      <trkpt lat="46.24905" lon="5.92336">
        <ele>1666</ele>
        <time>2019-05-05T12:30:40Z</time>
      </trkpt>
      <trkpt lat="46.24902" lon="5.92332">
        <ele>1667</ele>
        <time>2019-05-05T12:30:43Z</time>
      </trkpt>
      <trkpt lat="46.24899" lon="5.9233">
        <ele>1668</ele>
        <time>2019-05-05T12:30:45Z</time>
      </trkpt>
      <trkpt lat="46.24898" lon="5.92328">
        <ele>1668</ele>
        <time>2019-05-05T12:30:46Z</time>
      </trkpt>
      <trkpt lat="46.24894" lon="5.92323">
        <ele>1669</ele>
        <time>2019-05-05T12:30:50Z</time>
      </trkpt>
      <trkpt lat="46.24891" lon="5.92321">
        <ele>1670</ele>
        <time>2019-05-05T12:30:52Z</time>
      </trkpt>
      <trkpt lat="46.24888" lon="5.92318">
        <ele>1671</ele>
        <time>2019-05-05T12:30:55Z</time>
      </trkpt>
      <trkpt lat="46.24883" lon="5.9231">
        <ele>1673</ele>
        <time>2019-05-05T12:31:01Z</time>
      </trkpt>
      <trkpt lat="46.2488" lon="5.92307">
        <ele>1674</ele>
        <time>2019-05-05T12:31:04Z</time>
      </trkpt>
      <trkpt lat="46.24874" lon="5.92301">
        <ele>1676</ele>
        <time>2019-05-05T12:31:09Z</time>
      </trkpt>
      <trkpt lat="46.24876" lon="5.92295">
        <ele>1675</ele>
        <time>2019-05-05T12:31:12Z</time>
      </trkpt>
      <trkpt lat="46.24878" lon="5.92293">
        <ele>1675</ele>
        <time>2019-05-05T12:31:13Z</time>
      </trkpt>
      <trkpt lat="46.24884" lon="5.92292">
        <ele>1673</ele>
        <time>2019-05-05T12:31:18Z</time>
      </trkpt>
      <trkpt lat="46.24887" lon="5.92291">
        <ele>1672</ele>
        <time>2019-05-05T12:31:20Z</time>
      </trkpt>
      <trkpt lat="46.24888" lon="5.9229">
        <ele>1672</ele>
        <time>2019-05-05T12:31:21Z</time>
      </trkpt>
      <trkpt lat="46.24889" lon="5.92288">
        <ele>1671</ele>
        <time>2019-05-05T12:31:22Z</time>
      </trkpt>
      <trkpt lat="46.24891" lon="5.92284">
        <ele>1671</ele>
        <time>2019-05-05T12:31:25Z</time>
      </trkpt>
      <trkpt lat="46.24891" lon="5.92281">
        <ele>1671</ele>
        <time>2019-05-05T12:31:26Z</time>
      </trkpt>
      <trkpt lat="46.2489" lon="5.92276">
        <ele>1671</ele>
        <time>2019-05-05T12:31:29Z</time>
      </trkpt>
      <trkpt lat="46.24889" lon="5.92256">
        <ele>1667</ele>
        <time>2019-05-05T12:31:39Z</time>
      </trkpt>
      <trkpt lat="46.24888" lon="5.92256">
        <ele>1666</ele>
        <time>2019-05-05T12:31:40Z</time>
      </trkpt>
      <trkpt lat="46.24886" lon="5.92255">
        <ele>1667</ele>
        <time>2019-05-05T12:31:42Z</time>
      </trkpt>
      <trkpt lat="46.2488" lon="5.92254">
        <ele>1668</ele>
        <time>2019-05-05T12:31:46Z</time>
      </trkpt>
      <trkpt lat="46.24879" lon="5.92254">
        <ele>1668</ele>
        <time>2019-05-05T12:31:47Z</time>
      </trkpt>
      <trkpt lat="46.24878" lon="5.92255">
        <ele>1669</ele>
        <time>2019-05-05T12:31:48Z</time>
      </trkpt>
      <trkpt lat="46.24875" lon="5.92254">
        <ele>1670</ele>
        <time>2019-05-05T12:31:50Z</time>
      </trkpt>
      <trkpt lat="46.24873" lon="5.92255">
        <ele>1671</ele>
        <time>2019-05-05T12:31:52Z</time>
      </trkpt>
      <trkpt lat="46.24867" lon="5.92255">
        <ele>1673</ele>
        <time>2019-05-05T12:31:56Z</time>
      </trkpt>
      <trkpt lat="46.24854" lon="5.92258">
        <ele>1679</ele>
        <time>2019-05-05T12:32:07Z</time>
      </trkpt>
      <trkpt lat="46.24853" lon="5.92259">
        <ele>1679</ele>
        <time>2019-05-05T12:32:07Z</time>
      </trkpt>
      <trkpt lat="46.24853" lon="5.92259">
        <ele>1680</ele>
        <time>2019-05-05T12:32:08Z</time>
      </trkpt>
      <trkpt lat="46.24851" lon="5.9226">
        <ele>1680</ele>
        <time>2019-05-05T12:32:09Z</time>
      </trkpt>
      <trkpt lat="46.24851" lon="5.9226">
        <ele>1681</ele>
        <time>2019-05-05T12:32:10Z</time>
      </trkpt>
      <trkpt lat="46.2485" lon="5.9226">
        <ele>1681</ele>
        <time>2019-05-05T12:32:11Z</time>
      </trkpt>
      <trkpt lat="46.24847" lon="5.92261">
        <ele>1681</ele>
        <time>2019-05-05T12:32:13Z</time>
      </trkpt>
      <trkpt lat="46.24847" lon="5.92261">
        <ele>1681</ele>
        <time>2019-05-05T12:32:13Z</time>
      </trkpt>
      <trkpt lat="46.24847" lon="5.92261">
        <ele>1681</ele>
        <time>2019-05-05T12:32:13Z</time>
      </trkpt>
      <trkpt lat="46.24846" lon="5.92262">
        <ele>1682</ele>
        <time>2019-05-05T12:32:14Z</time>
      </trkpt>
      <trkpt lat="46.24844" lon="5.92265">
        <ele>1684</ele>
        <time>2019-05-05T12:32:16Z</time>
      </trkpt>
      <trkpt lat="46.24842" lon="5.92267">
        <ele>1684</ele>
        <time>2019-05-05T12:32:18Z</time>
      </trkpt>
      <trkpt lat="46.24836" lon="5.92275">
        <ele>1684</ele>
        <time>2019-05-05T12:32:24Z</time>
      </trkpt>
      <trkpt lat="46.24833" lon="5.92277">
        <ele>1684</ele>
        <time>2019-05-05T12:32:27Z</time>
      </trkpt>
      <trkpt lat="46.24815" lon="5.92281">
        <ele>1683</ele>
        <time>2019-05-05T12:32:40Z</time>
      </trkpt>
      <trkpt lat="46.24807" lon="5.92281">
        <ele>1684</ele>
        <time>2019-05-05T12:32:46Z</time>
      </trkpt>
      <trkpt lat="46.24799" lon="5.92283">
        <ele>1683</ele>
        <time>2019-05-05T12:32:51Z</time>
      </trkpt>
      <trkpt lat="46.24795" lon="5.92283">
        <ele>1683</ele>
        <time>2019-05-05T12:32:54Z</time>
      </trkpt>
      <trkpt lat="46.24789" lon="5.92284">
        <ele>1683</ele>
        <time>2019-05-05T12:32:58Z</time>
      </trkpt>
      <trkpt lat="46.24779" lon="5.92287">
        <ele>1683</ele>
        <time>2019-05-05T12:33:06Z</time>
      </trkpt>
      <trkpt lat="46.24761" lon="5.92287">
        <ele>1682</ele>
        <time>2019-05-05T12:33:19Z</time>
      </trkpt>
      <trkpt lat="46.24755" lon="5.92286">
        <ele>1681</ele>
        <time>2019-05-05T12:33:23Z</time>
      </trkpt>
      <trkpt lat="46.24751" lon="5.92285">
        <ele>1681</ele>
        <time>2019-05-05T12:33:27Z</time>
      </trkpt>
      <trkpt lat="46.24746" lon="5.92285">
        <ele>1680</ele>
        <time>2019-05-05T12:33:30Z</time>
      </trkpt>
      <trkpt lat="46.24734" lon="5.92285">
        <ele>1679</ele>
        <time>2019-05-05T12:33:39Z</time>
      </trkpt>
      <trkpt lat="46.24726" lon="5.92285">
        <ele>1678</ele>
        <time>2019-05-05T12:33:44Z</time>
      </trkpt>
      <trkpt lat="46.24722" lon="5.92285">
        <ele>1677</ele>
        <time>2019-05-05T12:33:47Z</time>
      </trkpt>
      <trkpt lat="46.24719" lon="5.92284">
        <ele>1677</ele>
        <time>2019-05-05T12:33:50Z</time>
      </trkpt>
      <trkpt lat="46.24705" lon="5.92283">
        <ele>1675</ele>
        <time>2019-05-05T12:34:00Z</time>
      </trkpt>
      <trkpt lat="46.24687" lon="5.92282">
        <ele>1673</ele>
        <time>2019-05-05T12:34:13Z</time>
      </trkpt>
      <trkpt lat="46.24683" lon="5.92282">
        <ele>1673</ele>
        <time>2019-05-05T12:34:16Z</time>
      </trkpt>
      <trkpt lat="46.24664" lon="5.92282">
        <ele>1672</ele>
        <time>2019-05-05T12:34:29Z</time>
      </trkpt>
      <trkpt lat="46.24658" lon="5.9228">
        <ele>1672</ele>
        <time>2019-05-05T12:34:34Z</time>
      </trkpt>
      <trkpt lat="46.24655" lon="5.9228">
        <ele>1672</ele>
        <time>2019-05-05T12:34:36Z</time>
      </trkpt>
      <trkpt lat="46.24649" lon="5.92279">
        <ele>1672</ele>
        <time>2019-05-05T12:34:40Z</time>
      </trkpt>
      <trkpt lat="46.24647" lon="5.92279">
        <ele>1672</ele>
        <time>2019-05-05T12:34:42Z</time>
      </trkpt>
      <trkpt lat="46.24643" lon="5.92278">
        <ele>1672</ele>
        <time>2019-05-05T12:34:45Z</time>
      </trkpt>
      <trkpt lat="46.2464" lon="5.92278">
        <ele>1672</ele>
        <time>2019-05-05T12:34:47Z</time>
      </trkpt>
      <trkpt lat="46.24638" lon="5.92278">
        <ele>1672</ele>
        <time>2019-05-05T12:34:48Z</time>
      </trkpt>
      <trkpt lat="46.24626" lon="5.92281">
        <ele>1671</ele>
        <time>2019-05-05T12:34:57Z</time>
      </trkpt>
      <trkpt lat="46.24623" lon="5.92282">
        <ele>1671</ele>
        <time>2019-05-05T12:34:59Z</time>
      </trkpt>
      <trkpt lat="46.24623" lon="5.92282">
        <ele>1671</ele>
        <time>2019-05-05T12:35:00Z</time>
      </trkpt>
      <trkpt lat="46.24621" lon="5.92282">
        <ele>1671</ele>
        <time>2019-05-05T12:35:01Z</time>
      </trkpt>
      <trkpt lat="46.24618" lon="5.92282">
        <ele>1670</ele>
        <time>2019-05-05T12:35:03Z</time>
      </trkpt>
      <trkpt lat="46.24612" lon="5.92284">
        <ele>1670</ele>
        <time>2019-05-05T12:35:08Z</time>
      </trkpt>
      <trkpt lat="46.2461" lon="5.92286">
        <ele>1670</ele>
        <time>2019-05-05T12:35:10Z</time>
      </trkpt>
      <trkpt lat="46.24607" lon="5.92289">
        <ele>1669</ele>
        <time>2019-05-05T12:35:12Z</time>
      </trkpt>
      <trkpt lat="46.24604" lon="5.9229">
        <ele>1669</ele>
        <time>2019-05-05T12:35:14Z</time>
      </trkpt>
      <trkpt lat="46.24598" lon="5.92291">
        <ele>1668</ele>
        <time>2019-05-05T12:35:19Z</time>
      </trkpt>
      <trkpt lat="46.24597" lon="5.92294">
        <ele>1667</ele>
        <time>2019-05-05T12:35:20Z</time>
      </trkpt>
      <trkpt lat="46.24596" lon="5.92297">
        <ele>1667</ele>
        <time>2019-05-05T12:35:22Z</time>
      </trkpt>
      <trkpt lat="46.24594" lon="5.92301">
        <ele>1666</ele>
        <time>2019-05-05T12:35:25Z</time>
      </trkpt>
      <trkpt lat="46.24593" lon="5.92303">
        <ele>1666</ele>
        <time>2019-05-05T12:35:26Z</time>
      </trkpt>
      <trkpt lat="46.24591" lon="5.92305">
        <ele>1665</ele>
        <time>2019-05-05T12:35:27Z</time>
      </trkpt>
      <trkpt lat="46.24588" lon="5.92307">
        <ele>1665</ele>
        <time>2019-05-05T12:35:30Z</time>
      </trkpt>
      <trkpt lat="46.24587" lon="5.9231">
        <ele>1664</ele>
        <time>2019-05-05T12:35:32Z</time>
      </trkpt>
      <trkpt lat="46.24584" lon="5.92323">
        <ele>1662</ele>
        <time>2019-05-05T12:35:39Z</time>
      </trkpt>
      <trkpt lat="46.24582" lon="5.92333">
        <ele>1661</ele>
        <time>2019-05-05T12:35:44Z</time>
      </trkpt>
      <trkpt lat="46.24581" lon="5.92339">
        <ele>1660</ele>
        <time>2019-05-05T12:35:47Z</time>
      </trkpt>
      <trkpt lat="46.24578" lon="5.92351">
        <ele>1657</ele>
        <time>2019-05-05T12:35:54Z</time>
      </trkpt>
      <trkpt lat="46.24575" lon="5.92356">
        <ele>1656</ele>
        <time>2019-05-05T12:35:57Z</time>
      </trkpt>
      <trkpt lat="46.24571" lon="5.92356">
        <ele>1655</ele>
        <time>2019-05-05T12:36:00Z</time>
      </trkpt>
      <trkpt lat="46.24566" lon="5.92359">
        <ele>1654</ele>
        <time>2019-05-05T12:36:04Z</time>
      </trkpt>
      <trkpt lat="46.24563" lon="5.92359">
        <ele>1653</ele>
        <time>2019-05-05T12:36:06Z</time>
      </trkpt>
      <trkpt lat="46.2456" lon="5.92358">
        <ele>1653</ele>
        <time>2019-05-05T12:36:09Z</time>
      </trkpt>
      <trkpt lat="46.24556" lon="5.92356">
        <ele>1653</ele>
        <time>2019-05-05T12:36:12Z</time>
      </trkpt>
      <trkpt lat="46.24548" lon="5.92354">
        <ele>1652</ele>
        <time>2019-05-05T12:36:18Z</time>
      </trkpt>
      <trkpt lat="46.24545" lon="5.92354">
        <ele>1652</ele>
        <time>2019-05-05T12:36:20Z</time>
      </trkpt>
      <trkpt lat="46.24542" lon="5.92354">
        <ele>1651</ele>
        <time>2019-05-05T12:36:22Z</time>
      </trkpt>
      <trkpt lat="46.24539" lon="5.92354">
        <ele>1651</ele>
        <time>2019-05-05T12:36:24Z</time>
      </trkpt>
      <trkpt lat="46.24532" lon="5.92351">
        <ele>1651</ele>
        <time>2019-05-05T12:36:30Z</time>
      </trkpt>
      <trkpt lat="46.2452" lon="5.92345">
        <ele>1650</ele>
        <time>2019-05-05T12:36:39Z</time>
      </trkpt>
      <trkpt lat="46.24504" lon="5.92333">
        <ele>1646</ele>
        <time>2019-05-05T12:36:52Z</time>
      </trkpt>
      <trkpt lat="46.24499" lon="5.9233">
        <ele>1645</ele>
        <time>2019-05-05T12:36:56Z</time>
      </trkpt>
      <trkpt lat="46.24497" lon="5.92328">
        <ele>1644</ele>
        <time>2019-05-05T12:36:58Z</time>
      </trkpt>
      <trkpt lat="46.2449" lon="5.92323">
        <ele>1643</ele>
        <time>2019-05-05T12:37:03Z</time>
      </trkpt>
      <trkpt lat="46.2449" lon="5.92321">
        <ele>1643</ele>
        <time>2019-05-05T12:37:04Z</time>
      </trkpt>
      <trkpt lat="46.24487" lon="5.92319">
        <ele>1642</ele>
        <time>2019-05-05T12:37:06Z</time>
      </trkpt>
      <trkpt lat="46.24482" lon="5.92313">
        <ele>1641</ele>
        <time>2019-05-05T12:37:12Z</time>
      </trkpt>
      <trkpt lat="46.24476" lon="5.92308">
        <ele>1640</ele>
        <time>2019-05-05T12:37:16Z</time>
      </trkpt>
      <trkpt lat="46.2447" lon="5.92303">
        <ele>1639</ele>
        <time>2019-05-05T12:37:21Z</time>
      </trkpt>
      <trkpt lat="46.24468" lon="5.92302">
        <ele>1638</ele>
        <time>2019-05-05T12:37:23Z</time>
      </trkpt>
      <trkpt lat="46.24464" lon="5.923">
        <ele>1637</ele>
        <time>2019-05-05T12:37:26Z</time>
      </trkpt>
      <trkpt lat="46.2446" lon="5.92296">
        <ele>1636</ele>
        <time>2019-05-05T12:37:29Z</time>
      </trkpt>
      <trkpt lat="46.2445" lon="5.92288">
        <ele>1634</ele>
        <time>2019-05-05T12:37:38Z</time>
      </trkpt>
      <trkpt lat="46.24446" lon="5.92287">
        <ele>1633</ele>
        <time>2019-05-05T12:37:41Z</time>
      </trkpt>
      <trkpt lat="46.24445" lon="5.92284">
        <ele>1633</ele>
        <time>2019-05-05T12:37:43Z</time>
      </trkpt>
      <trkpt lat="46.24441" lon="5.92281">
        <ele>1632</ele>
        <time>2019-05-05T12:37:46Z</time>
      </trkpt>
      <trkpt lat="46.24438" lon="5.9228">
        <ele>1631</ele>
        <time>2019-05-05T12:37:48Z</time>
      </trkpt>
      <trkpt lat="46.24437" lon="5.92279">
        <ele>1631</ele>
        <time>2019-05-05T12:37:49Z</time>
      </trkpt>
      <trkpt lat="46.24434" lon="5.92277">
        <ele>1630</ele>
        <time>2019-05-05T12:37:51Z</time>
      </trkpt>
      <trkpt lat="46.24432" lon="5.92271">
        <ele>1630</ele>
        <time>2019-05-05T12:37:54Z</time>
      </trkpt>
      <trkpt lat="46.24431" lon="5.92271">
        <ele>1630</ele>
        <time>2019-05-05T12:37:55Z</time>
      </trkpt>
      <trkpt lat="46.24429" lon="5.9227">
        <ele>1629</ele>
        <time>2019-05-05T12:37:57Z</time>
      </trkpt>
      <trkpt lat="46.24427" lon="5.92267">
        <ele>1629</ele>
        <time>2019-05-05T12:37:59Z</time>
      </trkpt>
      <trkpt lat="46.24423" lon="5.92265">
        <ele>1627</ele>
        <time>2019-05-05T12:38:02Z</time>
      </trkpt>
      <trkpt lat="46.24421" lon="5.92264">
        <ele>1626</ele>
        <time>2019-05-05T12:38:04Z</time>
      </trkpt>
      <trkpt lat="46.24418" lon="5.92262">
        <ele>1625</ele>
        <time>2019-05-05T12:38:06Z</time>
      </trkpt>
      <trkpt lat="46.24411" lon="5.92256">
        <ele>1621</ele>
        <time>2019-05-05T12:38:13Z</time>
      </trkpt>
      <trkpt lat="46.24408" lon="5.92252">
        <ele>1619</ele>
        <time>2019-05-05T12:38:16Z</time>
      </trkpt>
      <trkpt lat="46.24405" lon="5.92248">
        <ele>1618</ele>
        <time>2019-05-05T12:38:19Z</time>
      </trkpt>
      <trkpt lat="46.24403" lon="5.92246">
        <ele>1617</ele>
        <time>2019-05-05T12:38:21Z</time>
      </trkpt>
      <trkpt lat="46.24401" lon="5.92244">
        <ele>1616</ele>
        <time>2019-05-05T12:38:23Z</time>
      </trkpt>
      <trkpt lat="46.24386" lon="5.92227">
        <ele>1611</ele>
        <time>2019-05-05T12:38:37Z</time>
      </trkpt>
      <trkpt lat="46.24381" lon="5.92223">
        <ele>1609</ele>
        <time>2019-05-05T12:38:41Z</time>
      </trkpt>
      <trkpt lat="46.24371" lon="5.92202">
        <ele>1607</ele>
        <time>2019-05-05T12:38:54Z</time>
      </trkpt>
      <trkpt lat="46.2437" lon="5.922">
        <ele>1607</ele>
        <time>2019-05-05T12:38:55Z</time>
      </trkpt>
      <trkpt lat="46.24368" lon="5.92198">
        <ele>1607</ele>
        <time>2019-05-05T12:38:56Z</time>
      </trkpt>
      <trkpt lat="46.24367" lon="5.92196">
        <ele>1607</ele>
        <time>2019-05-05T12:38:58Z</time>
      </trkpt>
      <trkpt lat="46.24363" lon="5.92195">
        <ele>1606</ele>
        <time>2019-05-05T12:39:01Z</time>
      </trkpt>
      <trkpt lat="46.24359" lon="5.92191">
        <ele>1606</ele>
        <time>2019-05-05T12:39:04Z</time>
      </trkpt>
      <trkpt lat="46.24355" lon="5.92188">
        <ele>1606</ele>
        <time>2019-05-05T12:39:08Z</time>
      </trkpt>
      <trkpt lat="46.24338" lon="5.92173">
        <ele>1597</ele>
        <time>2019-05-05T12:39:23Z</time>
      </trkpt>
      <trkpt lat="46.24334" lon="5.92169">
        <ele>1594</ele>
        <time>2019-05-05T12:39:27Z</time>
      </trkpt>
      <trkpt lat="46.2433" lon="5.92167">
        <ele>1592</ele>
        <time>2019-05-05T12:39:31Z</time>
      </trkpt>
      <trkpt lat="46.24318" lon="5.92166">
        <ele>1591</ele>
        <time>2019-05-05T12:39:39Z</time>
      </trkpt>
      <trkpt lat="46.24316" lon="5.92165">
        <ele>1590</ele>
        <time>2019-05-05T12:39:41Z</time>
      </trkpt>
      <trkpt lat="46.24313" lon="5.92162">
        <ele>1589</ele>
        <time>2019-05-05T12:39:44Z</time>
      </trkpt>
      <trkpt lat="46.24301" lon="5.92157">
        <ele>1587</ele>
        <time>2019-05-05T12:39:53Z</time>
      </trkpt>
      <trkpt lat="46.24295" lon="5.92155">
        <ele>1586</ele>
        <time>2019-05-05T12:39:57Z</time>
      </trkpt>
      <trkpt lat="46.24291" lon="5.92153">
        <ele>1585</ele>
        <time>2019-05-05T12:40:01Z</time>
      </trkpt>
      <trkpt lat="46.24289" lon="5.92152">
        <ele>1585</ele>
        <time>2019-05-05T12:40:02Z</time>
      </trkpt>
      <trkpt lat="46.24289" lon="5.92152">
        <ele>1585</ele>
        <time>2019-05-05T12:40:02Z</time>
      </trkpt>
      <trkpt lat="46.24286" lon="5.92151">
        <ele>1585</ele>
        <time>2019-05-05T12:40:04Z</time>
      </trkpt>
      <trkpt lat="46.24276" lon="5.92146">
        <ele>1584</ele>
        <time>2019-05-05T12:40:12Z</time>
      </trkpt>
      <trkpt lat="46.24274" lon="5.92145">
        <ele>1584</ele>
        <time>2019-05-05T12:40:13Z</time>
      </trkpt>
      <trkpt lat="46.24271" lon="5.92144">
        <ele>1584</ele>
        <time>2019-05-05T12:40:16Z</time>
      </trkpt>
      <trkpt lat="46.24268" lon="5.92143">
        <ele>1584</ele>
        <time>2019-05-05T12:40:18Z</time>
      </trkpt>
      <trkpt lat="46.24261" lon="5.92138">
        <ele>1584</ele>
        <time>2019-05-05T12:40:24Z</time>
      </trkpt>
      <trkpt lat="46.24255" lon="5.92134">
        <ele>1585</ele>
        <time>2019-05-05T12:40:28Z</time>
      </trkpt>
      <trkpt lat="46.24253" lon="5.92133">
        <ele>1585</ele>
        <time>2019-05-05T12:40:29Z</time>
      </trkpt>
      <trkpt lat="46.24253" lon="5.92133">
        <ele>1585</ele>
        <time>2019-05-05T12:40:30Z</time>
      </trkpt>
      <trkpt lat="46.24249" lon="5.92131">
        <ele>1585</ele>
        <time>2019-05-05T12:40:33Z</time>
      </trkpt>
      <trkpt lat="46.24246" lon="5.92129">
        <ele>1586</ele>
        <time>2019-05-05T12:40:35Z</time>
      </trkpt>
      <trkpt lat="46.24243" lon="5.92127">
        <ele>1586</ele>
        <time>2019-05-05T12:40:37Z</time>
      </trkpt>
      <trkpt lat="46.24236" lon="5.92121">
        <ele>1587</ele>
        <time>2019-05-05T12:40:43Z</time>
      </trkpt>
      <trkpt lat="46.24232" lon="5.92117">
        <ele>1588</ele>
        <time>2019-05-05T12:40:47Z</time>
      </trkpt>
      <trkpt lat="46.24222" lon="5.92111">
        <ele>1591</ele>
        <time>2019-05-05T12:40:55Z</time>
      </trkpt>
      <trkpt lat="46.24216" lon="5.92109">
        <ele>1593</ele>
        <time>2019-05-05T12:41:00Z</time>
      </trkpt>
      <trkpt lat="46.24214" lon="5.92108">
        <ele>1594</ele>
        <time>2019-05-05T12:41:02Z</time>
      </trkpt>
      <trkpt lat="46.24209" lon="5.92106">
        <ele>1595</ele>
        <time>2019-05-05T12:41:06Z</time>
      </trkpt>
      <trkpt lat="46.24208" lon="5.92105">
        <ele>1596</ele>
        <time>2019-05-05T12:41:07Z</time>
      </trkpt>
      <trkpt lat="46.24202" lon="5.92102">
        <ele>1598</ele>
        <time>2019-05-05T12:41:11Z</time>
      </trkpt>
      <trkpt lat="46.24196" lon="5.92098">
        <ele>1600</ele>
        <time>2019-05-05T12:41:16Z</time>
      </trkpt>
      <trkpt lat="46.2419" lon="5.92094">
        <ele>1600</ele>
        <time>2019-05-05T12:41:21Z</time>
      </trkpt>
      <trkpt lat="46.24182" lon="5.92089">
        <ele>1599</ele>
        <time>2019-05-05T12:41:27Z</time>
      </trkpt>
      <trkpt lat="46.24177" lon="5.92088">
        <ele>1598</ele>
        <time>2019-05-05T12:41:31Z</time>
      </trkpt>
      <trkpt lat="46.24166" lon="5.92084">
        <ele>1597</ele>
        <time>2019-05-05T12:41:39Z</time>
      </trkpt>
      <trkpt lat="46.24164" lon="5.92082">
        <ele>1597</ele>
        <time>2019-05-05T12:41:41Z</time>
      </trkpt>
      <trkpt lat="46.24155" lon="5.9208">
        <ele>1596</ele>
        <time>2019-05-05T12:41:47Z</time>
      </trkpt>
      <trkpt lat="46.24153" lon="5.92079">
        <ele>1596</ele>
        <time>2019-05-05T12:41:49Z</time>
      </trkpt>
      <trkpt lat="46.24142" lon="5.92078">
        <ele>1597</ele>
        <time>2019-05-05T12:41:57Z</time>
      </trkpt>
      <trkpt lat="46.2414" lon="5.92077">
        <ele>1597</ele>
        <time>2019-05-05T12:41:58Z</time>
      </trkpt>
      <trkpt lat="46.24139" lon="5.92077">
        <ele>1597</ele>
        <time>2019-05-05T12:42:00Z</time>
      </trkpt>
      <trkpt lat="46.24136" lon="5.92077">
        <ele>1598</ele>
        <time>2019-05-05T12:42:01Z</time>
      </trkpt>
      <trkpt lat="46.24125" lon="5.92074">
        <ele>1598</ele>
        <time>2019-05-05T12:42:10Z</time>
      </trkpt>
      <trkpt lat="46.24117" lon="5.92074">
        <ele>1599</ele>
        <time>2019-05-05T12:42:15Z</time>
      </trkpt>
      <trkpt lat="46.24108" lon="5.92074">
        <ele>1601</ele>
        <time>2019-05-05T12:42:22Z</time>
      </trkpt>
      <trkpt lat="46.24091" lon="5.92069">
        <ele>1602</ele>
        <time>2019-05-05T12:42:35Z</time>
      </trkpt>
      <trkpt lat="46.24086" lon="5.92067">
        <ele>1602</ele>
        <time>2019-05-05T12:42:38Z</time>
      </trkpt>
      <trkpt lat="46.24073" lon="5.92059">
        <ele>1602</ele>
        <time>2019-05-05T12:42:49Z</time>
      </trkpt>
      <trkpt lat="46.24055" lon="5.9205">
        <ele>1604</ele>
        <time>2019-05-05T12:43:02Z</time>
      </trkpt>
      <trkpt lat="46.24047" lon="5.9205">
        <ele>1606</ele>
        <time>2019-05-05T12:43:09Z</time>
      </trkpt>
      <trkpt lat="46.24044" lon="5.92049">
        <ele>1606</ele>
        <time>2019-05-05T12:43:10Z</time>
      </trkpt>
      <trkpt lat="46.2404" lon="5.92046">
        <ele>1607</ele>
        <time>2019-05-05T12:43:14Z</time>
      </trkpt>
      <trkpt lat="46.24034" lon="5.92045">
        <ele>1608</ele>
        <time>2019-05-05T12:43:18Z</time>
      </trkpt>
      <trkpt lat="46.24024" lon="5.92045">
        <ele>1610</ele>
        <time>2019-05-05T12:43:26Z</time>
      </trkpt>
      <trkpt lat="46.24012" lon="5.9205">
        <ele>1612</ele>
        <time>2019-05-05T12:43:35Z</time>
      </trkpt>
      <trkpt lat="46.24" lon="5.92051">
        <ele>1612</ele>
        <time>2019-05-05T12:43:43Z</time>
      </trkpt>
      <trkpt lat="46.23981" lon="5.92052">
        <ele>1613</ele>
        <time>2019-05-05T12:43:57Z</time>
      </trkpt>
      <trkpt lat="46.23978" lon="5.92051">
        <ele>1613</ele>
        <time>2019-05-05T12:43:59Z</time>
      </trkpt>
      <trkpt lat="46.23974" lon="5.92052">
        <ele>1613</ele>
        <time>2019-05-05T12:44:02Z</time>
      </trkpt>
      <trkpt lat="46.23968" lon="5.92052">
        <ele>1613</ele>
        <time>2019-05-05T12:44:06Z</time>
      </trkpt>
      <trkpt lat="46.23967" lon="5.92052">
        <ele>1613</ele>
        <time>2019-05-05T12:44:07Z</time>
      </trkpt>
      <trkpt lat="46.23964" lon="5.92053">
        <ele>1613</ele>
        <time>2019-05-05T12:44:10Z</time>
      </trkpt>
      <trkpt lat="46.23959" lon="5.92053">
        <ele>1613</ele>
        <time>2019-05-05T12:44:13Z</time>
      </trkpt>
      <trkpt lat="46.23957" lon="5.92053">
        <ele>1613</ele>
        <time>2019-05-05T12:44:15Z</time>
      </trkpt>
      <trkpt lat="46.23951" lon="5.92051">
        <ele>1614</ele>
        <time>2019-05-05T12:44:19Z</time>
      </trkpt>
      <trkpt lat="46.23948" lon="5.92052">
        <ele>1614</ele>
        <time>2019-05-05T12:44:21Z</time>
      </trkpt>
      <trkpt lat="46.23947" lon="5.92051">
        <ele>1614</ele>
        <time>2019-05-05T12:44:22Z</time>
      </trkpt>
      <trkpt lat="46.23931" lon="5.92041">
        <ele>1615</ele>
        <time>2019-05-05T12:44:35Z</time>
      </trkpt>
      <trkpt lat="46.23924" lon="5.92041">
        <ele>1614</ele>
        <time>2019-05-05T12:44:39Z</time>
      </trkpt>
      <trkpt lat="46.23922" lon="5.92041">
        <ele>1613</ele>
        <time>2019-05-05T12:44:41Z</time>
      </trkpt>
      <trkpt lat="46.2392" lon="5.9204">
        <ele>1613</ele>
        <time>2019-05-05T12:44:43Z</time>
      </trkpt>
      <trkpt lat="46.23903" lon="5.92036">
        <ele>1611</ele>
        <time>2019-05-05T12:44:55Z</time>
      </trkpt>
      <trkpt lat="46.23886" lon="5.92024">
        <ele>1611</ele>
        <time>2019-05-05T12:45:09Z</time>
      </trkpt>
      <trkpt lat="46.23883" lon="5.9202">
        <ele>1611</ele>
        <time>2019-05-05T12:45:11Z</time>
      </trkpt>
      <trkpt lat="46.23882" lon="5.9202">
        <ele>1611</ele>
        <time>2019-05-05T12:45:13Z</time>
      </trkpt>
      <trkpt lat="46.23879" lon="5.9202">
        <ele>1610</ele>
        <time>2019-05-05T12:45:15Z</time>
      </trkpt>
      <trkpt lat="46.23875" lon="5.9202">
        <ele>1609</ele>
        <time>2019-05-05T12:45:18Z</time>
      </trkpt>
      <trkpt lat="46.23872" lon="5.92019">
        <ele>1609</ele>
        <time>2019-05-05T12:45:20Z</time>
      </trkpt>
      <trkpt lat="46.23868" lon="5.92017">
        <ele>1609</ele>
        <time>2019-05-05T12:45:23Z</time>
      </trkpt>
      <trkpt lat="46.23865" lon="5.92015">
        <ele>1609</ele>
        <time>2019-05-05T12:45:25Z</time>
      </trkpt>
      <trkpt lat="46.23861" lon="5.92013">
        <ele>1607</ele>
        <time>2019-05-05T12:45:29Z</time>
      </trkpt>
      <trkpt lat="46.23846" lon="5.91999">
        <ele>1600</ele>
        <time>2019-05-05T12:45:43Z</time>
      </trkpt>
      <trkpt lat="46.2384" lon="5.91989">
        <ele>1597</ele>
        <time>2019-05-05T12:45:49Z</time>
      </trkpt>
      <trkpt lat="46.23826" lon="5.91973">
        <ele>1594</ele>
        <time>2019-05-05T12:46:03Z</time>
      </trkpt>
      <trkpt lat="46.23823" lon="5.91969">
        <ele>1593</ele>
        <time>2019-05-05T12:46:05Z</time>
      </trkpt>
      <trkpt lat="46.23809" lon="5.91952">
        <ele>1593</ele>
        <time>2019-05-05T12:46:19Z</time>
      </trkpt>
      <trkpt lat="46.23805" lon="5.91949">
        <ele>1593</ele>
        <time>2019-05-05T12:46:22Z</time>
      </trkpt>
      <trkpt lat="46.23798" lon="5.91947">
        <ele>1594</ele>
        <time>2019-05-05T12:46:27Z</time>
      </trkpt>
      <trkpt lat="46.23788" lon="5.91946">
        <ele>1597</ele>
        <time>2019-05-05T12:46:35Z</time>
      </trkpt>
      <trkpt lat="46.23783" lon="5.91946">
        <ele>1598</ele>
        <time>2019-05-05T12:46:38Z</time>
      </trkpt>
      <trkpt lat="46.2378" lon="5.91946">
        <ele>1598</ele>
        <time>2019-05-05T12:46:40Z</time>
      </trkpt>
      <trkpt lat="46.23766" lon="5.91942">
        <ele>1600</ele>
        <time>2019-05-05T12:46:51Z</time>
      </trkpt>
      <trkpt lat="46.23757" lon="5.91938">
        <ele>1599</ele>
        <time>2019-05-05T12:46:57Z</time>
      </trkpt>
      <trkpt lat="46.23747" lon="5.91938">
        <ele>1597</ele>
        <time>2019-05-05T12:47:05Z</time>
      </trkpt>
      <trkpt lat="46.23743" lon="5.91938">
        <ele>1596</ele>
        <time>2019-05-05T12:47:08Z</time>
      </trkpt>
      <trkpt lat="46.23724" lon="5.91937">
        <ele>1593</ele>
        <time>2019-05-05T12:47:22Z</time>
      </trkpt>
      <trkpt lat="46.23722" lon="5.91936">
        <ele>1593</ele>
        <time>2019-05-05T12:47:23Z</time>
      </trkpt>
      <trkpt lat="46.23716" lon="5.91934">
        <ele>1592</ele>
        <time>2019-05-05T12:47:28Z</time>
      </trkpt>
      <trkpt lat="46.23711" lon="5.91929">
        <ele>1590</ele>
        <time>2019-05-05T12:47:33Z</time>
      </trkpt>
      <trkpt lat="46.23705" lon="5.91927">
        <ele>1588</ele>
        <time>2019-05-05T12:47:37Z</time>
      </trkpt>
      <trkpt lat="46.23703" lon="5.91926">
        <ele>1587</ele>
        <time>2019-05-05T12:47:39Z</time>
      </trkpt>
      <trkpt lat="46.23695" lon="5.91927">
        <ele>1586</ele>
        <time>2019-05-05T12:47:44Z</time>
      </trkpt>
      <trkpt lat="46.2369" lon="5.91929">
        <ele>1587</ele>
        <time>2019-05-05T12:47:48Z</time>
      </trkpt>
      <trkpt lat="46.23685" lon="5.91929">
        <ele>1585</ele>
        <time>2019-05-05T12:47:52Z</time>
      </trkpt>
      <trkpt lat="46.23672" lon="5.91926">
        <ele>1581</ele>
        <time>2019-05-05T12:48:02Z</time>
      </trkpt>
      <trkpt lat="46.23669" lon="5.91924">
        <ele>1580</ele>
        <time>2019-05-05T12:48:04Z</time>
      </trkpt>
      <trkpt lat="46.23654" lon="5.9192">
        <ele>1575</ele>
        <time>2019-05-05T12:48:16Z</time>
      </trkpt>
      <trkpt lat="46.2365" lon="5.9192">
        <ele>1574</ele>
        <time>2019-05-05T12:48:19Z</time>
      </trkpt>
      <trkpt lat="46.23649" lon="5.91919">
        <ele>1574</ele>
        <time>2019-05-05T12:48:20Z</time>
      </trkpt>
      <trkpt lat="46.23648" lon="5.91917">
        <ele>1573</ele>
        <time>2019-05-05T12:48:21Z</time>
      </trkpt>
      <trkpt lat="46.23645" lon="5.91915">
        <ele>1572</ele>
        <time>2019-05-05T12:48:23Z</time>
      </trkpt>
      <trkpt lat="46.23645" lon="5.91914">
        <ele>1572</ele>
        <time>2019-05-05T12:48:24Z</time>
      </trkpt>
      <trkpt lat="46.23645" lon="5.91914">
        <ele>1571</ele>
        <time>2019-05-05T12:48:24Z</time>
      </trkpt>
      <trkpt lat="46.23644" lon="5.91915">
        <ele>1571</ele>
        <time>2019-05-05T12:48:25Z</time>
      </trkpt>
      <trkpt lat="46.23643" lon="5.91914">
        <ele>1571</ele>
        <time>2019-05-05T12:48:26Z</time>
      </trkpt>
      <trkpt lat="46.23641" lon="5.91915">
        <ele>1571</ele>
        <time>2019-05-05T12:48:27Z</time>
      </trkpt>
      <trkpt lat="46.2364" lon="5.91916">
        <ele>1571</ele>
        <time>2019-05-05T12:48:28Z</time>
      </trkpt>
      <trkpt lat="46.23638" lon="5.91918">
        <ele>1571</ele>
        <time>2019-05-05T12:48:30Z</time>
      </trkpt>
      <trkpt lat="46.23636" lon="5.91917">
        <ele>1570</ele>
        <time>2019-05-05T12:48:31Z</time>
      </trkpt>
      <trkpt lat="46.23633" lon="5.91915">
        <ele>1569</ele>
        <time>2019-05-05T12:48:34Z</time>
      </trkpt>
      <trkpt lat="46.23632" lon="5.91914">
        <ele>1569</ele>
        <time>2019-05-05T12:48:35Z</time>
      </trkpt>
      <trkpt lat="46.2363" lon="5.91912">
        <ele>1567</ele>
        <time>2019-05-05T12:48:37Z</time>
      </trkpt>
      <trkpt lat="46.23626" lon="5.9191">
        <ele>1566</ele>
        <time>2019-05-05T12:48:40Z</time>
      </trkpt>
      <trkpt lat="46.23622" lon="5.91907">
        <ele>1565</ele>
        <time>2019-05-05T12:48:44Z</time>
      </trkpt>
      <trkpt lat="46.23613" lon="5.91902">
        <ele>1561</ele>
        <time>2019-05-05T12:48:51Z</time>
      </trkpt>
      <trkpt lat="46.23602" lon="5.91891">
        <ele>1557</ele>
        <time>2019-05-05T12:49:01Z</time>
      </trkpt>
      <trkpt lat="46.23601" lon="5.91887">
        <ele>1555</ele>
        <time>2019-05-05T12:49:03Z</time>
      </trkpt>
      <trkpt lat="46.23597" lon="5.91878">
        <ele>1552</ele>
        <time>2019-05-05T12:49:09Z</time>
      </trkpt>
      <trkpt lat="46.23596" lon="5.91877">
        <ele>1552</ele>
        <time>2019-05-05T12:49:10Z</time>
      </trkpt>
      <trkpt lat="46.23587" lon="5.91869">
        <ele>1547</ele>
        <time>2019-05-05T12:49:18Z</time>
      </trkpt>
      <trkpt lat="46.23585" lon="5.91867">
        <ele>1546</ele>
        <time>2019-05-05T12:49:20Z</time>
      </trkpt>
      <trkpt lat="46.23584" lon="5.91864">
        <ele>1545</ele>
        <time>2019-05-05T12:49:21Z</time>
      </trkpt>
      <trkpt lat="46.23584" lon="5.91863">
        <ele>1545</ele>
        <time>2019-05-05T12:49:22Z</time>
      </trkpt>
      <trkpt lat="46.2358" lon="5.91866">
        <ele>1544</ele>
        <time>2019-05-05T12:49:25Z</time>
      </trkpt>
      <trkpt lat="46.2358" lon="5.91867">
        <ele>1544</ele>
        <time>2019-05-05T12:49:26Z</time>
      </trkpt>
      <trkpt lat="46.2358" lon="5.91867">
        <ele>1544</ele>
        <time>2019-05-05T12:49:26Z</time>
      </trkpt>
      <trkpt lat="46.23579" lon="5.91863">
        <ele>1543</ele>
        <time>2019-05-05T12:49:28Z</time>
      </trkpt>
      <trkpt lat="46.23579" lon="5.91862">
        <ele>1543</ele>
        <time>2019-05-05T12:49:28Z</time>
      </trkpt>
      <trkpt lat="46.23579" lon="5.91861">
        <ele>1543</ele>
        <time>2019-05-05T12:49:29Z</time>
      </trkpt>
      <trkpt lat="46.23575" lon="5.91861">
        <ele>1542</ele>
        <time>2019-05-05T12:49:32Z</time>
      </trkpt>
      <trkpt lat="46.23574" lon="5.9186">
        <ele>1541</ele>
        <time>2019-05-05T12:49:33Z</time>
      </trkpt>
      <trkpt lat="46.23572" lon="5.9186">
        <ele>1541</ele>
        <time>2019-05-05T12:49:35Z</time>
      </trkpt>
      <trkpt lat="46.23571" lon="5.9186">
        <ele>1540</ele>
        <time>2019-05-05T12:49:35Z</time>
      </trkpt>
      <trkpt lat="46.23571" lon="5.91859">
        <ele>1540</ele>
        <time>2019-05-05T12:49:36Z</time>
      </trkpt>
      <trkpt lat="46.2357" lon="5.91859">
        <ele>1540</ele>
        <time>2019-05-05T12:49:36Z</time>
      </trkpt>
      <trkpt lat="46.23568" lon="5.91863">
        <ele>1540</ele>
        <time>2019-05-05T12:49:39Z</time>
      </trkpt>
      <trkpt lat="46.23567" lon="5.91864">
        <ele>1540</ele>
        <time>2019-05-05T12:49:40Z</time>
      </trkpt>
      <trkpt lat="46.23565" lon="5.91866">
        <ele>1540</ele>
        <time>2019-05-05T12:49:41Z</time>
      </trkpt>
      <trkpt lat="46.23564" lon="5.91867">
        <ele>1539</ele>
        <time>2019-05-05T12:49:42Z</time>
      </trkpt>
      <trkpt lat="46.23562" lon="5.91868">
        <ele>1539</ele>
        <time>2019-05-05T12:49:45Z</time>
      </trkpt>
      <trkpt lat="46.23556" lon="5.91869">
        <ele>1537</ele>
        <time>2019-05-05T12:49:49Z</time>
      </trkpt>
      <trkpt lat="46.23551" lon="5.91874">
        <ele>1536</ele>
        <time>2019-05-05T12:49:53Z</time>
      </trkpt>
      <trkpt lat="46.23549" lon="5.91879">
        <ele>1536</ele>
        <time>2019-05-05T12:49:56Z</time>
      </trkpt>
      <trkpt lat="46.23547" lon="5.9188">
        <ele>1535</ele>
        <time>2019-05-05T12:49:58Z</time>
      </trkpt>
      <trkpt lat="46.23545" lon="5.91881">
        <ele>1535</ele>
        <time>2019-05-05T12:50:00Z</time>
      </trkpt>
      <trkpt lat="46.23544" lon="5.91882">
        <ele>1535</ele>
        <time>2019-05-05T12:50:00Z</time>
      </trkpt>
      <trkpt lat="46.23544" lon="5.91884">
        <ele>1535</ele>
        <time>2019-05-05T12:50:01Z</time>
      </trkpt>
      <trkpt lat="46.23543" lon="5.91888">
        <ele>1535</ele>
        <time>2019-05-05T12:50:03Z</time>
      </trkpt>
      <trkpt lat="46.23543" lon="5.91889">
        <ele>1535</ele>
        <time>2019-05-05T12:50:04Z</time>
      </trkpt>
      <trkpt lat="46.23543" lon="5.91889">
        <ele>1535</ele>
        <time>2019-05-05T12:50:04Z</time>
      </trkpt>
      <trkpt lat="46.23543" lon="5.9189">
        <ele>1535</ele>
        <time>2019-05-05T12:50:05Z</time>
      </trkpt>
      <trkpt lat="46.23541" lon="5.91894">
        <ele>1535</ele>
        <time>2019-05-05T12:50:07Z</time>
      </trkpt>
      <trkpt lat="46.23539" lon="5.91897">
        <ele>1535</ele>
        <time>2019-05-05T12:50:09Z</time>
      </trkpt>
      <trkpt lat="46.23537" lon="5.91899">
        <ele>1534</ele>
        <time>2019-05-05T12:50:11Z</time>
      </trkpt>
      <trkpt lat="46.23536" lon="5.91899">
        <ele>1534</ele>
        <time>2019-05-05T12:50:11Z</time>
      </trkpt>
      <trkpt lat="46.23535" lon="5.91899">
        <ele>1534</ele>
        <time>2019-05-05T12:50:12Z</time>
      </trkpt>
      <trkpt lat="46.23532" lon="5.919">
        <ele>1533</ele>
        <time>2019-05-05T12:50:14Z</time>
      </trkpt>
      <trkpt lat="46.2353" lon="5.91901">
        <ele>1532</ele>
        <time>2019-05-05T12:50:16Z</time>
      </trkpt>
      <trkpt lat="46.23528" lon="5.91903">
        <ele>1531</ele>
        <time>2019-05-05T12:50:18Z</time>
      </trkpt>
      <trkpt lat="46.23527" lon="5.91904">
        <ele>1531</ele>
        <time>2019-05-05T12:50:19Z</time>
      </trkpt>
      <trkpt lat="46.23525" lon="5.91907">
        <ele>1531</ele>
        <time>2019-05-05T12:50:21Z</time>
      </trkpt>
      <trkpt lat="46.23523" lon="5.91911">
        <ele>1530</ele>
        <time>2019-05-05T12:50:24Z</time>
      </trkpt>
      <trkpt lat="46.23521" lon="5.91914">
        <ele>1530</ele>
        <time>2019-05-05T12:50:26Z</time>
      </trkpt>
      <trkpt lat="46.2352" lon="5.91915">
        <ele>1529</ele>
        <time>2019-05-05T12:50:27Z</time>
      </trkpt>
      <trkpt lat="46.23519" lon="5.91916">
        <ele>1529</ele>
        <time>2019-05-05T12:50:28Z</time>
      </trkpt>
      <trkpt lat="46.23517" lon="5.91918">
        <ele>1528</ele>
        <time>2019-05-05T12:50:30Z</time>
      </trkpt>
      <trkpt lat="46.23515" lon="5.91919">
        <ele>1527</ele>
        <time>2019-05-05T12:50:31Z</time>
      </trkpt>
      <trkpt lat="46.23514" lon="5.91919">
        <ele>1527</ele>
        <time>2019-05-05T12:50:32Z</time>
      </trkpt>
      <trkpt lat="46.2351" lon="5.91923">
        <ele>1525</ele>
        <time>2019-05-05T12:50:35Z</time>
      </trkpt>
      <trkpt lat="46.23508" lon="5.91925">
        <ele>1524</ele>
        <time>2019-05-05T12:50:37Z</time>
      </trkpt>
      <trkpt lat="46.23507" lon="5.91926">
        <ele>1523</ele>
        <time>2019-05-05T12:50:38Z</time>
      </trkpt>
      <trkpt lat="46.23505" lon="5.91928">
        <ele>1523</ele>
        <time>2019-05-05T12:50:40Z</time>
      </trkpt>
      <trkpt lat="46.23503" lon="5.9193">
        <ele>1522</ele>
        <time>2019-05-05T12:50:42Z</time>
      </trkpt>
      <trkpt lat="46.23502" lon="5.91931">
        <ele>1522</ele>
        <time>2019-05-05T12:50:43Z</time>
      </trkpt>
      <trkpt lat="46.235" lon="5.91932">
        <ele>1521</ele>
        <time>2019-05-05T12:50:44Z</time>
      </trkpt>
      <trkpt lat="46.23498" lon="5.91932">
        <ele>1519</ele>
        <time>2019-05-05T12:50:47Z</time>
      </trkpt>
      <trkpt lat="46.23497" lon="5.91933">
        <ele>1519</ele>
        <time>2019-05-05T12:50:48Z</time>
      </trkpt>
      <trkpt lat="46.23496" lon="5.91934">
        <ele>1519</ele>
        <time>2019-05-05T12:50:48Z</time>
      </trkpt>
      <trkpt lat="46.23494" lon="5.91935">
        <ele>1517</ele>
        <time>2019-05-05T12:50:51Z</time>
      </trkpt>
      <trkpt lat="46.2349" lon="5.91939">
        <ele>1515</ele>
        <time>2019-05-05T12:50:54Z</time>
      </trkpt>
      <trkpt lat="46.23487" lon="5.91939">
        <ele>1514</ele>
        <time>2019-05-05T12:50:56Z</time>
      </trkpt>
      <trkpt lat="46.23486" lon="5.91939">
        <ele>1513</ele>
        <time>2019-05-05T12:50:57Z</time>
      </trkpt>
      <trkpt lat="46.23483" lon="5.9194">
        <ele>1512</ele>
        <time>2019-05-05T12:50:59Z</time>
      </trkpt>
      <trkpt lat="46.23483" lon="5.9194">
        <ele>1512</ele>
        <time>2019-05-05T12:51:00Z</time>
      </trkpt>
      <trkpt lat="46.23481" lon="5.9194">
        <ele>1511</ele>
        <time>2019-05-05T12:51:01Z</time>
      </trkpt>
      <trkpt lat="46.23474" lon="5.91943">
        <ele>1507</ele>
        <time>2019-05-05T12:51:07Z</time>
      </trkpt>
      <trkpt lat="46.23473" lon="5.91943">
        <ele>1507</ele>
        <time>2019-05-05T12:51:08Z</time>
      </trkpt>
      <trkpt lat="46.23472" lon="5.91942">
        <ele>1506</ele>
        <time>2019-05-05T12:51:09Z</time>
      </trkpt>
      <trkpt lat="46.23471" lon="5.91941">
        <ele>1506</ele>
        <time>2019-05-05T12:51:10Z</time>
      </trkpt>
      <trkpt lat="46.23468" lon="5.91941">
        <ele>1505</ele>
        <time>2019-05-05T12:51:12Z</time>
      </trkpt>
      <trkpt lat="46.23465" lon="5.91941">
        <ele>1503</ele>
        <time>2019-05-05T12:51:14Z</time>
      </trkpt>
      <trkpt lat="46.23462" lon="5.9194">
        <ele>1501</ele>
        <time>2019-05-05T12:51:17Z</time>
      </trkpt>
      <trkpt lat="46.23457" lon="5.91935">
        <ele>1499</ele>
        <time>2019-05-05T12:51:21Z</time>
      </trkpt>
      <trkpt lat="46.23457" lon="5.91933">
        <ele>1499</ele>
        <time>2019-05-05T12:51:23Z</time>
      </trkpt>
      <trkpt lat="46.23456" lon="5.91931">
        <ele>1498</ele>
        <time>2019-05-05T12:51:24Z</time>
      </trkpt>
      <trkpt lat="46.23456" lon="5.9193">
        <ele>1498</ele>
        <time>2019-05-05T12:51:24Z</time>
      </trkpt>
      <trkpt lat="46.23458" lon="5.91927">
        <ele>1499</ele>
        <time>2019-05-05T12:51:27Z</time>
      </trkpt>
      <trkpt lat="46.23458" lon="5.91926">
        <ele>1499</ele>
        <time>2019-05-05T12:51:27Z</time>
      </trkpt>
      <trkpt lat="46.23458" lon="5.91924">
        <ele>1499</ele>
        <time>2019-05-05T12:51:28Z</time>
      </trkpt>
      <trkpt lat="46.23458" lon="5.91923">
        <ele>1499</ele>
        <time>2019-05-05T12:51:29Z</time>
      </trkpt>
      <trkpt lat="46.23459" lon="5.91922">
        <ele>1498</ele>
        <time>2019-05-05T12:51:30Z</time>
      </trkpt>
      <trkpt lat="46.23459" lon="5.91918">
        <ele>1498</ele>
        <time>2019-05-05T12:51:31Z</time>
      </trkpt>
      <trkpt lat="46.2346" lon="5.91915">
        <ele>1498</ele>
        <time>2019-05-05T12:51:33Z</time>
      </trkpt>
      <trkpt lat="46.2346" lon="5.91905">
        <ele>1497</ele>
        <time>2019-05-05T12:51:38Z</time>
      </trkpt>
      <trkpt lat="46.2346" lon="5.91903">
        <ele>1497</ele>
        <time>2019-05-05T12:51:39Z</time>
      </trkpt>
      <trkpt lat="46.23459" lon="5.91902">
        <ele>1496</ele>
        <time>2019-05-05T12:51:40Z</time>
      </trkpt>
      <trkpt lat="46.23458" lon="5.91898">
        <ele>1495</ele>
        <time>2019-05-05T12:51:42Z</time>
      </trkpt>
      <trkpt lat="46.23458" lon="5.91891">
        <ele>1494</ele>
        <time>2019-05-05T12:51:46Z</time>
      </trkpt>
      <trkpt lat="46.23456" lon="5.91886">
        <ele>1493</ele>
        <time>2019-05-05T12:51:49Z</time>
      </trkpt>
      <trkpt lat="46.23455" lon="5.91885">
        <ele>1492</ele>
        <time>2019-05-05T12:51:50Z</time>
      </trkpt>
      <trkpt lat="46.23455" lon="5.91883">
        <ele>1492</ele>
        <time>2019-05-05T12:51:51Z</time>
      </trkpt>
      <trkpt lat="46.23454" lon="5.91879">
        <ele>1491</ele>
        <time>2019-05-05T12:51:53Z</time>
      </trkpt>
      <trkpt lat="46.23453" lon="5.91876">
        <ele>1490</ele>
        <time>2019-05-05T12:51:55Z</time>
      </trkpt>
      <trkpt lat="46.23452" lon="5.91872">
        <ele>1489</ele>
        <time>2019-05-05T12:51:57Z</time>
      </trkpt>
      <trkpt lat="46.2345" lon="5.91868">
        <ele>1487</ele>
        <time>2019-05-05T12:52:00Z</time>
      </trkpt>
      <trkpt lat="46.23451" lon="5.91858">
        <ele>1486</ele>
        <time>2019-05-05T12:52:05Z</time>
      </trkpt>
      <trkpt lat="46.23454" lon="5.91846">
        <ele>1487</ele>
        <time>2019-05-05T12:52:11Z</time>
      </trkpt>
      <trkpt lat="46.23454" lon="5.9184">
        <ele>1486</ele>
        <time>2019-05-05T12:52:14Z</time>
      </trkpt>
      <trkpt lat="46.23453" lon="5.91838">
        <ele>1485</ele>
        <time>2019-05-05T12:52:16Z</time>
      </trkpt>
      <trkpt lat="46.23451" lon="5.91834">
        <ele>1484</ele>
        <time>2019-05-05T12:52:18Z</time>
      </trkpt>
      <trkpt lat="46.23448" lon="5.91819">
        <ele>1480</ele>
        <time>2019-05-05T12:52:26Z</time>
      </trkpt>
      <trkpt lat="46.23446" lon="5.91808">
        <ele>1478</ele>
        <time>2019-05-05T12:52:32Z</time>
      </trkpt>
      <trkpt lat="46.23445" lon="5.91799">
        <ele>1477</ele>
        <time>2019-05-05T12:52:37Z</time>
      </trkpt>
      <trkpt lat="46.23448" lon="5.9178">
        <ele>1476</ele>
        <time>2019-05-05T12:52:47Z</time>
      </trkpt>
      <trkpt lat="46.23452" lon="5.9177">
        <ele>1475</ele>
        <time>2019-05-05T12:52:53Z</time>
      </trkpt>
      <trkpt lat="46.23451" lon="5.91759">
        <ele>1473</ele>
        <time>2019-05-05T12:52:58Z</time>
      </trkpt>
      <trkpt lat="46.23451" lon="5.91754">
        <ele>1472</ele>
        <time>2019-05-05T12:53:01Z</time>
      </trkpt>
      <trkpt lat="46.23453" lon="5.91742">
        <ele>1470</ele>
        <time>2019-05-05T12:53:07Z</time>
      </trkpt>
      <trkpt lat="46.23454" lon="5.91736">
        <ele>1469</ele>
        <time>2019-05-05T12:53:10Z</time>
      </trkpt>
      <trkpt lat="46.23454" lon="5.91731">
        <ele>1468</ele>
        <time>2019-05-05T12:53:13Z</time>
      </trkpt>
      <trkpt lat="46.23454" lon="5.9172">
        <ele>1465</ele>
        <time>2019-05-05T12:53:19Z</time>
      </trkpt>
      <trkpt lat="46.23454" lon="5.91713">
        <ele>1464</ele>
        <time>2019-05-05T12:53:23Z</time>
      </trkpt>
      <trkpt lat="46.23452" lon="5.91688">
        <ele>1458</ele>
        <time>2019-05-05T12:53:35Z</time>
      </trkpt>
      <trkpt lat="46.23452" lon="5.91684">
        <ele>1458</ele>
        <time>2019-05-05T12:53:38Z</time>
      </trkpt>
      <trkpt lat="46.23451" lon="5.91681">
        <ele>1457</ele>
        <time>2019-05-05T12:53:39Z</time>
      </trkpt>
      <trkpt lat="46.23451" lon="5.9168">
        <ele>1456</ele>
        <time>2019-05-05T12:53:40Z</time>
      </trkpt>
      <trkpt lat="46.2345" lon="5.91675">
        <ele>1454</ele>
        <time>2019-05-05T12:53:43Z</time>
      </trkpt>
      <trkpt lat="46.23449" lon="5.91674">
        <ele>1454</ele>
        <time>2019-05-05T12:53:44Z</time>
      </trkpt>
      <trkpt lat="46.23447" lon="5.91672">
        <ele>1454</ele>
        <time>2019-05-05T12:53:46Z</time>
      </trkpt>
      <trkpt lat="46.23445" lon="5.9167">
        <ele>1454</ele>
        <time>2019-05-05T12:53:48Z</time>
      </trkpt>
      <trkpt lat="46.23441" lon="5.91666">
        <ele>1454</ele>
        <time>2019-05-05T12:53:51Z</time>
      </trkpt>
      <trkpt lat="46.23434" lon="5.9166">
        <ele>1453</ele>
        <time>2019-05-05T12:53:57Z</time>
      </trkpt>
      <trkpt lat="46.23426" lon="5.91654">
        <ele>1451</ele>
        <time>2019-05-05T12:54:04Z</time>
      </trkpt>
      <trkpt lat="46.23414" lon="5.91641">
        <ele>1449</ele>
        <time>2019-05-05T12:54:15Z</time>
      </trkpt>
      <trkpt lat="46.23406" lon="5.91635">
        <ele>1448</ele>
        <time>2019-05-05T12:54:21Z</time>
      </trkpt>
      <trkpt lat="46.23399" lon="5.91632">
        <ele>1448</ele>
        <time>2019-05-05T12:54:26Z</time>
      </trkpt>
      <trkpt lat="46.23387" lon="5.9162">
        <ele>1448</ele>
        <time>2019-05-05T12:54:37Z</time>
      </trkpt>
      <trkpt lat="46.23384" lon="5.91619">
        <ele>1448</ele>
        <time>2019-05-05T12:54:39Z</time>
      </trkpt>
      <trkpt lat="46.23381" lon="5.91614">
        <ele>1448</ele>
        <time>2019-05-05T12:54:42Z</time>
      </trkpt>
      <trkpt lat="46.23381" lon="5.9161">
        <ele>1448</ele>
        <time>2019-05-05T12:54:44Z</time>
      </trkpt>
      <trkpt lat="46.23375" lon="5.916">
        <ele>1448</ele>
        <time>2019-05-05T12:54:51Z</time>
      </trkpt>
      <trkpt lat="46.23368" lon="5.91594">
        <ele>1448</ele>
        <time>2019-05-05T12:54:56Z</time>
      </trkpt>
      <trkpt lat="46.23363" lon="5.91591">
        <ele>1448</ele>
        <time>2019-05-05T12:55:00Z</time>
      </trkpt>
      <trkpt lat="46.23347" lon="5.91581">
        <ele>1448</ele>
        <time>2019-05-05T12:55:13Z</time>
      </trkpt>
      <trkpt lat="46.23344" lon="5.91576">
        <ele>1446</ele>
        <time>2019-05-05T12:55:17Z</time>
      </trkpt>
      <trkpt lat="46.23343" lon="5.91574">
        <ele>1446</ele>
        <time>2019-05-05T12:55:18Z</time>
      </trkpt>
      <trkpt lat="46.23342" lon="5.9157">
        <ele>1444</ele>
        <time>2019-05-05T12:55:21Z</time>
      </trkpt>
      <trkpt lat="46.23339" lon="5.91571">
        <ele>1446</ele>
        <time>2019-05-05T12:55:23Z</time>
      </trkpt>
      <trkpt lat="46.23336" lon="5.91572">
        <ele>1446</ele>
        <time>2019-05-05T12:55:25Z</time>
      </trkpt>
      <trkpt lat="46.2333" lon="5.91573">
        <ele>1448</ele>
        <time>2019-05-05T12:55:30Z</time>
      </trkpt>
      <trkpt lat="46.23327" lon="5.91579">
        <ele>1450</ele>
        <time>2019-05-05T12:55:34Z</time>
      </trkpt>
      <trkpt lat="46.23325" lon="5.9158">
        <ele>1450</ele>
        <time>2019-05-05T12:55:35Z</time>
      </trkpt>
      <trkpt lat="46.23314" lon="5.91598">
        <ele>1454</ele>
        <time>2019-05-05T12:55:47Z</time>
      </trkpt>
      <trkpt lat="46.23308" lon="5.91608">
        <ele>1454</ele>
        <time>2019-05-05T12:55:54Z</time>
      </trkpt>
      <trkpt lat="46.23305" lon="5.91613">
        <ele>1454</ele>
        <time>2019-05-05T12:55:58Z</time>
      </trkpt>
      <trkpt lat="46.23303" lon="5.91616">
        <ele>1454</ele>
        <time>2019-05-05T12:55:59Z</time>
      </trkpt>
      <trkpt lat="46.23301" lon="5.91619">
        <ele>1454</ele>
        <time>2019-05-05T12:56:01Z</time>
      </trkpt>
      <trkpt lat="46.233" lon="5.91622">
        <ele>1453</ele>
        <time>2019-05-05T12:56:03Z</time>
      </trkpt>
      <trkpt lat="46.23299" lon="5.91625">
        <ele>1453</ele>
        <time>2019-05-05T12:56:05Z</time>
      </trkpt>
      <trkpt lat="46.23296" lon="5.91634">
        <ele>1453</ele>
        <time>2019-05-05T12:56:10Z</time>
      </trkpt>
      <trkpt lat="46.23293" lon="5.91643">
        <ele>1452</ele>
        <time>2019-05-05T12:56:15Z</time>
      </trkpt>
      <trkpt lat="46.23287" lon="5.91653">
        <ele>1451</ele>
        <time>2019-05-05T12:56:22Z</time>
      </trkpt>
      <trkpt lat="46.23285" lon="5.91655">
        <ele>1451</ele>
        <time>2019-05-05T12:56:23Z</time>
      </trkpt>
      <trkpt lat="46.23282" lon="5.91658">
        <ele>1451</ele>
        <time>2019-05-05T12:56:26Z</time>
      </trkpt>
      <trkpt lat="46.23281" lon="5.91661">
        <ele>1450</ele>
        <time>2019-05-05T12:56:28Z</time>
      </trkpt>
      <trkpt lat="46.23277" lon="5.91667">
        <ele>1450</ele>
        <time>2019-05-05T12:56:32Z</time>
      </trkpt>
      <trkpt lat="46.23268" lon="5.9168">
        <ele>1448</ele>
        <time>2019-05-05T12:56:41Z</time>
      </trkpt>
      <trkpt lat="46.23259" lon="5.91691">
        <ele>1445</ele>
        <time>2019-05-05T12:56:50Z</time>
      </trkpt>
      <trkpt lat="46.23251" lon="5.91707">
        <ele>1443</ele>
        <time>2019-05-05T12:57:00Z</time>
      </trkpt>
      <trkpt lat="46.23246" lon="5.91715">
        <ele>1441</ele>
        <time>2019-05-05T12:57:05Z</time>
      </trkpt>
      <trkpt lat="46.23242" lon="5.91718">
        <ele>1440</ele>
        <time>2019-05-05T12:57:08Z</time>
      </trkpt>
      <trkpt lat="46.2324" lon="5.9172">
        <ele>1440</ele>
        <time>2019-05-05T12:57:10Z</time>
      </trkpt>
      <trkpt lat="46.23238" lon="5.91722">
        <ele>1439</ele>
        <time>2019-05-05T12:57:12Z</time>
      </trkpt>
      <trkpt lat="46.23234" lon="5.91726">
        <ele>1438</ele>
        <time>2019-05-05T12:57:16Z</time>
      </trkpt>
      <trkpt lat="46.23232" lon="5.91729">
        <ele>1438</ele>
        <time>2019-05-05T12:57:17Z</time>
      </trkpt>
      <trkpt lat="46.23231" lon="5.91729">
        <ele>1437</ele>
        <time>2019-05-05T12:57:18Z</time>
      </trkpt>
      <trkpt lat="46.2323" lon="5.9173">
        <ele>1437</ele>
        <time>2019-05-05T12:57:19Z</time>
      </trkpt>
      <trkpt lat="46.23228" lon="5.91732">
        <ele>1437</ele>
        <time>2019-05-05T12:57:21Z</time>
      </trkpt>
      <trkpt lat="46.23219" lon="5.91732">
        <ele>1435</ele>
        <time>2019-05-05T12:57:28Z</time>
      </trkpt>
      <trkpt lat="46.23212" lon="5.91732">
        <ele>1434</ele>
        <time>2019-05-05T12:57:33Z</time>
      </trkpt>
      <trkpt lat="46.23212" lon="5.91733">
        <ele>1434</ele>
        <time>2019-05-05T12:57:33Z</time>
      </trkpt>
      <trkpt lat="46.23211" lon="5.91733">
        <ele>1434</ele>
        <time>2019-05-05T12:57:34Z</time>
      </trkpt>
      <trkpt lat="46.2321" lon="5.91734">
        <ele>1434</ele>
        <time>2019-05-05T12:57:35Z</time>
      </trkpt>
      <trkpt lat="46.23208" lon="5.91738">
        <ele>1433</ele>
        <time>2019-05-05T12:57:37Z</time>
      </trkpt>
      <trkpt lat="46.23208" lon="5.9174">
        <ele>1433</ele>
        <time>2019-05-05T12:57:38Z</time>
      </trkpt>
      <trkpt lat="46.23207" lon="5.91746">
        <ele>1432</ele>
        <time>2019-05-05T12:57:41Z</time>
      </trkpt>
      <trkpt lat="46.23206" lon="5.9175">
        <ele>1431</ele>
        <time>2019-05-05T12:57:44Z</time>
      </trkpt>
      <trkpt lat="46.23205" lon="5.91753">
        <ele>1431</ele>
        <time>2019-05-05T12:57:45Z</time>
      </trkpt>
      <trkpt lat="46.23203" lon="5.91758">
        <ele>1430</ele>
        <time>2019-05-05T12:57:48Z</time>
      </trkpt>
      <trkpt lat="46.23201" lon="5.91763">
        <ele>1429</ele>
        <time>2019-05-05T12:57:51Z</time>
      </trkpt>
      <trkpt lat="46.23199" lon="5.91769">
        <ele>1428</ele>
        <time>2019-05-05T12:57:55Z</time>
      </trkpt>
      <trkpt lat="46.23195" lon="5.9178">
        <ele>1426</ele>
        <time>2019-05-05T12:58:01Z</time>
      </trkpt>
      <trkpt lat="46.23193" lon="5.91783">
        <ele>1425</ele>
        <time>2019-05-05T12:58:03Z</time>
      </trkpt>
      <trkpt lat="46.23192" lon="5.91786">
        <ele>1425</ele>
        <time>2019-05-05T12:58:05Z</time>
      </trkpt>
      <trkpt lat="46.2319" lon="5.91789">
        <ele>1424</ele>
        <time>2019-05-05T12:58:07Z</time>
      </trkpt>
      <trkpt lat="46.23187" lon="5.91795">
        <ele>1423</ele>
        <time>2019-05-05T12:58:11Z</time>
      </trkpt>
      <trkpt lat="46.23184" lon="5.918">
        <ele>1422</ele>
        <time>2019-05-05T12:58:14Z</time>
      </trkpt>
      <trkpt lat="46.23181" lon="5.91804">
        <ele>1421</ele>
        <time>2019-05-05T12:58:17Z</time>
      </trkpt>
      <trkpt lat="46.2318" lon="5.91808">
        <ele>1420</ele>
        <time>2019-05-05T12:58:19Z</time>
      </trkpt>
      <trkpt lat="46.23179" lon="5.9181">
        <ele>1420</ele>
        <time>2019-05-05T12:58:21Z</time>
      </trkpt>
      <trkpt lat="46.23177" lon="5.91816">
        <ele>1419</ele>
        <time>2019-05-05T12:58:24Z</time>
      </trkpt>
      <trkpt lat="46.23172" lon="5.91818">
        <ele>1417</ele>
        <time>2019-05-05T12:58:27Z</time>
      </trkpt>
      <trkpt lat="46.23169" lon="5.91818">
        <ele>1417</ele>
        <time>2019-05-05T12:58:30Z</time>
      </trkpt>
      <trkpt lat="46.23163" lon="5.91817">
        <ele>1415</ele>
        <time>2019-05-05T12:58:35Z</time>
      </trkpt>
      <trkpt lat="46.23163" lon="5.91817">
        <ele>1415</ele>
        <time>2019-05-05T12:58:35Z</time>
      </trkpt>
      <trkpt lat="46.23162" lon="5.91817">
        <ele>1415</ele>
        <time>2019-05-05T12:58:35Z</time>
      </trkpt>
      <trkpt lat="46.23156" lon="5.91816">
        <ele>1414</ele>
        <time>2019-05-05T12:58:39Z</time>
      </trkpt>
      <trkpt lat="46.23155" lon="5.91817">
        <ele>1413</ele>
        <time>2019-05-05T12:58:41Z</time>
      </trkpt>
      <trkpt lat="46.23151" lon="5.91817">
        <ele>1412</ele>
        <time>2019-05-05T12:58:44Z</time>
      </trkpt>
      <trkpt lat="46.23146" lon="5.91818">
        <ele>1411</ele>
        <time>2019-05-05T12:58:47Z</time>
      </trkpt>
      <trkpt lat="46.23128" lon="5.91826">
        <ele>1406</ele>
        <time>2019-05-05T12:59:01Z</time>
      </trkpt>
      <trkpt lat="46.23125" lon="5.91826">
        <ele>1405</ele>
        <time>2019-05-05T12:59:03Z</time>
      </trkpt>
      <trkpt lat="46.23121" lon="5.91826">
        <ele>1404</ele>
        <time>2019-05-05T12:59:06Z</time>
      </trkpt>
      <trkpt lat="46.23117" lon="5.91825">
        <ele>1403</ele>
        <time>2019-05-05T12:59:10Z</time>
      </trkpt>
      <trkpt lat="46.23113" lon="5.91826">
        <ele>1402</ele>
        <time>2019-05-05T12:59:12Z</time>
      </trkpt>
      <trkpt lat="46.23112" lon="5.91826">
        <ele>1402</ele>
        <time>2019-05-05T12:59:14Z</time>
      </trkpt>
      <trkpt lat="46.23111" lon="5.91826">
        <ele>1402</ele>
        <time>2019-05-05T12:59:14Z</time>
      </trkpt>
      <trkpt lat="46.2311" lon="5.91825">
        <ele>1402</ele>
        <time>2019-05-05T12:59:15Z</time>
      </trkpt>
      <trkpt lat="46.23106" lon="5.91823">
        <ele>1401</ele>
        <time>2019-05-05T12:59:18Z</time>
      </trkpt>
      <trkpt lat="46.23099" lon="5.91821">
        <ele>1399</ele>
        <time>2019-05-05T12:59:24Z</time>
      </trkpt>
      <trkpt lat="46.23095" lon="5.91819">
        <ele>1399</ele>
        <time>2019-05-05T12:59:27Z</time>
      </trkpt>
      <trkpt lat="46.23088" lon="5.91813">
        <ele>1398</ele>
        <time>2019-05-05T12:59:32Z</time>
      </trkpt>
      <trkpt lat="46.2308" lon="5.91801">
        <ele>1397</ele>
        <time>2019-05-05T12:59:41Z</time>
      </trkpt>
      <trkpt lat="46.23071" lon="5.91792">
        <ele>1396</ele>
        <time>2019-05-05T12:59:49Z</time>
      </trkpt>
      <trkpt lat="46.23067" lon="5.91791">
        <ele>1395</ele>
        <time>2019-05-05T12:59:51Z</time>
      </trkpt>
      <trkpt lat="46.23063" lon="5.9179">
        <ele>1394</ele>
        <time>2019-05-05T12:59:54Z</time>
      </trkpt>
      <trkpt lat="46.23056" lon="5.91789">
        <ele>1392</ele>
        <time>2019-05-05T13:00:00Z</time>
      </trkpt>
      <trkpt lat="46.2305" lon="5.91788">
        <ele>1391</ele>
        <time>2019-05-05T13:00:04Z</time>
      </trkpt>
      <trkpt lat="46.23045" lon="5.91785">
        <ele>1390</ele>
        <time>2019-05-05T13:00:08Z</time>
      </trkpt>
      <trkpt lat="46.23036" lon="5.9178">
        <ele>1388</ele>
        <time>2019-05-05T13:00:15Z</time>
      </trkpt>
      <trkpt lat="46.2303" lon="5.91775">
        <ele>1386</ele>
        <time>2019-05-05T13:00:20Z</time>
      </trkpt>
      <trkpt lat="46.23027" lon="5.91773">
        <ele>1385</ele>
        <time>2019-05-05T13:00:23Z</time>
      </trkpt>
      <trkpt lat="46.2302" lon="5.91771">
        <ele>1384</ele>
        <time>2019-05-05T13:00:28Z</time>
      </trkpt>
      <trkpt lat="46.23016" lon="5.91771">
        <ele>1383</ele>
        <time>2019-05-05T13:00:31Z</time>
      </trkpt>
      <trkpt lat="46.23004" lon="5.91768">
        <ele>1382</ele>
        <time>2019-05-05T13:00:40Z</time>
      </trkpt>
      <trkpt lat="46.22998" lon="5.91767">
        <ele>1381</ele>
        <time>2019-05-05T13:00:44Z</time>
      </trkpt>
      <trkpt lat="46.22993" lon="5.91767">
        <ele>1381</ele>
        <time>2019-05-05T13:00:48Z</time>
      </trkpt>
      <trkpt lat="46.22981" lon="5.91774">
        <ele>1379</ele>
        <time>2019-05-05T13:00:57Z</time>
      </trkpt>
      <trkpt lat="46.22967" lon="5.91783">
        <ele>1377</ele>
        <time>2019-05-05T13:01:08Z</time>
      </trkpt>
      <trkpt lat="46.22966" lon="5.91783">
        <ele>1377</ele>
        <time>2019-05-05T13:01:09Z</time>
      </trkpt>
      <trkpt lat="46.22951" lon="5.91767">
        <ele>1376</ele>
        <time>2019-05-05T13:01:22Z</time>
      </trkpt>
      <trkpt lat="46.22944" lon="5.91763">
        <ele>1376</ele>
        <time>2019-05-05T13:01:28Z</time>
      </trkpt>
      <trkpt lat="46.22925" lon="5.91762">
        <ele>1374</ele>
        <time>2019-05-05T13:01:42Z</time>
      </trkpt>
      <trkpt lat="46.22908" lon="5.91757">
        <ele>1373</ele>
        <time>2019-05-05T13:01:55Z</time>
      </trkpt>
      <trkpt lat="46.22892" lon="5.91742">
        <ele>1373</ele>
        <time>2019-05-05T13:02:08Z</time>
      </trkpt>
      <trkpt lat="46.22876" lon="5.91726">
        <ele>1373</ele>
        <time>2019-05-05T13:02:22Z</time>
      </trkpt>
      <trkpt lat="46.2287" lon="5.91721">
        <ele>1373</ele>
        <time>2019-05-05T13:02:27Z</time>
      </trkpt>
      <trkpt lat="46.22867" lon="5.91717">
        <ele>1374</ele>
        <time>2019-05-05T13:02:30Z</time>
      </trkpt>
      <trkpt lat="46.22865" lon="5.91715">
        <ele>1374</ele>
        <time>2019-05-05T13:02:32Z</time>
      </trkpt>
      <trkpt lat="46.2286" lon="5.91708">
        <ele>1374</ele>
        <time>2019-05-05T13:02:37Z</time>
      </trkpt>
      <trkpt lat="46.22845" lon="5.9169">
        <ele>1373</ele>
        <time>2019-05-05T13:02:51Z</time>
      </trkpt>
      <trkpt lat="46.22832" lon="5.91674">
        <ele>1371</ele>
        <time>2019-05-05T13:03:03Z</time>
      </trkpt>
      <trkpt lat="46.22823" lon="5.91662">
        <ele>1370</ele>
        <time>2019-05-05T13:03:12Z</time>
      </trkpt>
      <trkpt lat="46.22817" lon="5.91654">
        <ele>1369</ele>
        <time>2019-05-05T13:03:19Z</time>
      </trkpt>
      <trkpt lat="46.2281" lon="5.91649">
        <ele>1368</ele>
        <time>2019-05-05T13:03:24Z</time>
      </trkpt>
      <trkpt lat="46.22804" lon="5.91642">
        <ele>1367</ele>
        <time>2019-05-05T13:03:29Z</time>
      </trkpt>
      <trkpt lat="46.22802" lon="5.91638">
        <ele>1367</ele>
        <time>2019-05-05T13:03:32Z</time>
      </trkpt>
      <trkpt lat="46.22793" lon="5.91626">
        <ele>1366</ele>
        <time>2019-05-05T13:03:41Z</time>
      </trkpt>
      <trkpt lat="46.22787" lon="5.91616">
        <ele>1365</ele>
        <time>2019-05-05T13:03:48Z</time>
      </trkpt>
      <trkpt lat="46.22784" lon="5.91608">
        <ele>1365</ele>
        <time>2019-05-05T13:03:52Z</time>
      </trkpt>
      <trkpt lat="46.22781" lon="5.91602">
        <ele>1365</ele>
        <time>2019-05-05T13:03:56Z</time>
      </trkpt>
      <trkpt lat="46.22777" lon="5.91599">
        <ele>1364</ele>
        <time>2019-05-05T13:03:59Z</time>
      </trkpt>
      <trkpt lat="46.22773" lon="5.91595">
        <ele>1363</ele>
        <time>2019-05-05T13:04:03Z</time>
      </trkpt>
      <trkpt lat="46.22764" lon="5.91586">
        <ele>1362</ele>
        <time>2019-05-05T13:04:10Z</time>
      </trkpt>
      <trkpt lat="46.2276" lon="5.91589">
        <ele>1360</ele>
        <time>2019-05-05T13:04:14Z</time>
      </trkpt>
      <trkpt lat="46.22757" lon="5.91594">
        <ele>1359</ele>
        <time>2019-05-05T13:04:18Z</time>
      </trkpt>
      <trkpt lat="46.22756" lon="5.91606">
        <ele>1358</ele>
        <time>2019-05-05T13:04:24Z</time>
      </trkpt>
      <trkpt lat="46.22757" lon="5.91619">
        <ele>1356</ele>
        <time>2019-05-05T13:04:30Z</time>
      </trkpt>
      <trkpt lat="46.22759" lon="5.91634">
        <ele>1355</ele>
        <time>2019-05-05T13:04:38Z</time>
      </trkpt>
      <trkpt lat="46.22759" lon="5.91646">
        <ele>1354</ele>
        <time>2019-05-05T13:04:44Z</time>
      </trkpt>
      <trkpt lat="46.22761" lon="5.91671">
        <ele>1352</ele>
        <time>2019-05-05T13:04:57Z</time>
      </trkpt>
      <trkpt lat="46.22762" lon="5.91679">
        <ele>1351</ele>
        <time>2019-05-05T13:05:01Z</time>
      </trkpt>
      <trkpt lat="46.22762" lon="5.91683">
        <ele>1351</ele>
        <time>2019-05-05T13:05:03Z</time>
      </trkpt>
      <trkpt lat="46.22763" lon="5.9169">
        <ele>1351</ele>
        <time>2019-05-05T13:05:06Z</time>
      </trkpt>
      <trkpt lat="46.22766" lon="5.91713">
        <ele>1349</ele>
        <time>2019-05-05T13:05:18Z</time>
      </trkpt>
      <trkpt lat="46.2277" lon="5.9172">
        <ele>1349</ele>
        <time>2019-05-05T13:05:23Z</time>
      </trkpt>
      <trkpt lat="46.22772" lon="5.91727">
        <ele>1349</ele>
        <time>2019-05-05T13:05:27Z</time>
      </trkpt>
      <trkpt lat="46.22779" lon="5.91743">
        <ele>1348</ele>
        <time>2019-05-05T13:05:36Z</time>
      </trkpt>
      <trkpt lat="46.22782" lon="5.91752">
        <ele>1348</ele>
        <time>2019-05-05T13:05:41Z</time>
      </trkpt>
      <trkpt lat="46.22781" lon="5.91761">
        <ele>1346</ele>
        <time>2019-05-05T13:05:46Z</time>
      </trkpt>
      <trkpt lat="46.22778" lon="5.9176">
        <ele>1346</ele>
        <time>2019-05-05T13:05:47Z</time>
      </trkpt>
      <trkpt lat="46.22774" lon="5.91754">
        <ele>1345</ele>
        <time>2019-05-05T13:05:52Z</time>
      </trkpt>
      <trkpt lat="46.22764" lon="5.91742">
        <ele>1344</ele>
        <time>2019-05-05T13:06:01Z</time>
      </trkpt>
      <trkpt lat="46.22764" lon="5.91741">
        <ele>1344</ele>
        <time>2019-05-05T13:06:02Z</time>
      </trkpt>
      <trkpt lat="46.22763" lon="5.91741">
        <ele>1344</ele>
        <time>2019-05-05T13:06:02Z</time>
      </trkpt>
      <trkpt lat="46.2276" lon="5.91743">
        <ele>1342</ele>
        <time>2019-05-05T13:06:05Z</time>
      </trkpt>
      <trkpt lat="46.22758" lon="5.91742">
        <ele>1342</ele>
        <time>2019-05-05T13:06:06Z</time>
      </trkpt>
      <trkpt lat="46.22757" lon="5.91738">
        <ele>1342</ele>
        <time>2019-05-05T13:06:08Z</time>
      </trkpt>
      <trkpt lat="46.22753" lon="5.91734">
        <ele>1341</ele>
        <time>2019-05-05T13:06:12Z</time>
      </trkpt>
      <trkpt lat="46.22746" lon="5.91725">
        <ele>1340</ele>
        <time>2019-05-05T13:06:19Z</time>
      </trkpt>
      <trkpt lat="46.22744" lon="5.91723">
        <ele>1340</ele>
        <time>2019-05-05T13:06:20Z</time>
      </trkpt>
      <trkpt lat="46.22741" lon="5.91719">
        <ele>1339</ele>
        <time>2019-05-05T13:06:24Z</time>
      </trkpt>
      <trkpt lat="46.22736" lon="5.91714">
        <ele>1338</ele>
        <time>2019-05-05T13:06:28Z</time>
      </trkpt>
      <trkpt lat="46.22728" lon="5.91703">
        <ele>1337</ele>
        <time>2019-05-05T13:06:36Z</time>
      </trkpt>
      <trkpt lat="46.22722" lon="5.91696">
        <ele>1336</ele>
        <time>2019-05-05T13:06:42Z</time>
      </trkpt>
      <trkpt lat="46.22716" lon="5.91689">
        <ele>1335</ele>
        <time>2019-05-05T13:06:47Z</time>
      </trkpt>
      <trkpt lat="46.2271" lon="5.9168">
        <ele>1335</ele>
        <time>2019-05-05T13:06:53Z</time>
      </trkpt>
      <trkpt lat="46.22704" lon="5.91674">
        <ele>1334</ele>
        <time>2019-05-05T13:06:59Z</time>
      </trkpt>
      <trkpt lat="46.22697" lon="5.91665">
        <ele>1333</ele>
        <time>2019-05-05T13:07:06Z</time>
      </trkpt>
      <trkpt lat="46.22687" lon="5.91655">
        <ele>1331</ele>
        <time>2019-05-05T13:07:15Z</time>
      </trkpt>
      <trkpt lat="46.2268" lon="5.91644">
        <ele>1331</ele>
        <time>2019-05-05T13:07:22Z</time>
      </trkpt>
      <trkpt lat="46.22675" lon="5.91637">
        <ele>1331</ele>
        <time>2019-05-05T13:07:27Z</time>
      </trkpt>
      <trkpt lat="46.22671" lon="5.91633">
        <ele>1331</ele>
        <time>2019-05-05T13:07:30Z</time>
      </trkpt>
      <trkpt lat="46.22666" lon="5.91633">
        <ele>1329</ele>
        <time>2019-05-05T13:07:34Z</time>
      </trkpt>
      <trkpt lat="46.22654" lon="5.91632">
        <ele>1326</ele>
        <time>2019-05-05T13:07:44Z</time>
      </trkpt>
      <trkpt lat="46.22647" lon="5.91631">
        <ele>1324</ele>
        <time>2019-05-05T13:07:49Z</time>
      </trkpt>
      <trkpt lat="46.22642" lon="5.91632">
        <ele>1323</ele>
        <time>2019-05-05T13:07:52Z</time>
      </trkpt>
      <trkpt lat="46.22638" lon="5.91631">
        <ele>1322</ele>
        <time>2019-05-05T13:07:55Z</time>
      </trkpt>
      <trkpt lat="46.22634" lon="5.9163">
        <ele>1321</ele>
        <time>2019-05-05T13:07:58Z</time>
      </trkpt>
      <trkpt lat="46.22632" lon="5.9163">
        <ele>1320</ele>
        <time>2019-05-05T13:08:00Z</time>
      </trkpt>
      <trkpt lat="46.2263" lon="5.9163">
        <ele>1319</ele>
        <time>2019-05-05T13:08:02Z</time>
      </trkpt>
      <trkpt lat="46.22627" lon="5.91631">
        <ele>1318</ele>
        <time>2019-05-05T13:08:04Z</time>
      </trkpt>
      <trkpt lat="46.22624" lon="5.91632">
        <ele>1317</ele>
        <time>2019-05-05T13:08:06Z</time>
      </trkpt>
      <trkpt lat="46.2262" lon="5.91634">
        <ele>1316</ele>
        <time>2019-05-05T13:08:09Z</time>
      </trkpt>
      <trkpt lat="46.22618" lon="5.91635">
        <ele>1315</ele>
        <time>2019-05-05T13:08:11Z</time>
      </trkpt>
      <trkpt lat="46.22615" lon="5.91638">
        <ele>1313</ele>
        <time>2019-05-05T13:08:14Z</time>
      </trkpt>
      <trkpt lat="46.22614" lon="5.91641">
        <ele>1312</ele>
        <time>2019-05-05T13:08:16Z</time>
      </trkpt>
      <trkpt lat="46.22612" lon="5.91644">
        <ele>1311</ele>
        <time>2019-05-05T13:08:18Z</time>
      </trkpt>
      <trkpt lat="46.22611" lon="5.91645">
        <ele>1311</ele>
        <time>2019-05-05T13:08:19Z</time>
      </trkpt>
      <trkpt lat="46.2261" lon="5.91645">
        <ele>1310</ele>
        <time>2019-05-05T13:08:20Z</time>
      </trkpt>
      <trkpt lat="46.22607" lon="5.91646">
        <ele>1309</ele>
        <time>2019-05-05T13:08:22Z</time>
      </trkpt>
      <trkpt lat="46.22603" lon="5.91646">
        <ele>1308</ele>
        <time>2019-05-05T13:08:25Z</time>
      </trkpt>
      <trkpt lat="46.22595" lon="5.91644">
        <ele>1306</ele>
        <time>2019-05-05T13:08:31Z</time>
      </trkpt>
      <trkpt lat="46.22592" lon="5.91643">
        <ele>1306</ele>
        <time>2019-05-05T13:08:33Z</time>
      </trkpt>
      <trkpt lat="46.2259" lon="5.91643">
        <ele>1306</ele>
        <time>2019-05-05T13:08:34Z</time>
      </trkpt>
      <trkpt lat="46.22589" lon="5.91643">
        <ele>1305</ele>
        <time>2019-05-05T13:08:36Z</time>
      </trkpt>
      <trkpt lat="46.22586" lon="5.91644">
        <ele>1304</ele>
        <time>2019-05-05T13:08:38Z</time>
      </trkpt>
      <trkpt lat="46.22584" lon="5.91644">
        <ele>1304</ele>
        <time>2019-05-05T13:08:39Z</time>
      </trkpt>
      <trkpt lat="46.22582" lon="5.91644">
        <ele>1303</ele>
        <time>2019-05-05T13:08:41Z</time>
      </trkpt>
      <trkpt lat="46.22578" lon="5.91642">
        <ele>1303</ele>
        <time>2019-05-05T13:08:44Z</time>
      </trkpt>
      <trkpt lat="46.22577" lon="5.91641">
        <ele>1302</ele>
        <time>2019-05-05T13:08:45Z</time>
      </trkpt>
      <trkpt lat="46.22575" lon="5.91641">
        <ele>1302</ele>
        <time>2019-05-05T13:08:47Z</time>
      </trkpt>
      <trkpt lat="46.22572" lon="5.91641">
        <ele>1301</ele>
        <time>2019-05-05T13:08:48Z</time>
      </trkpt>
      <trkpt lat="46.22568" lon="5.91642">
        <ele>1300</ele>
        <time>2019-05-05T13:08:51Z</time>
      </trkpt>
      <trkpt lat="46.22567" lon="5.91643">
        <ele>1299</ele>
        <time>2019-05-05T13:08:53Z</time>
      </trkpt>
      <trkpt lat="46.22565" lon="5.91644">
        <ele>1299</ele>
        <time>2019-05-05T13:08:54Z</time>
      </trkpt>
      <trkpt lat="46.22562" lon="5.91648">
        <ele>1297</ele>
        <time>2019-05-05T13:08:57Z</time>
      </trkpt>
      <trkpt lat="46.2256" lon="5.91653">
        <ele>1295</ele>
        <time>2019-05-05T13:09:01Z</time>
      </trkpt>
      <trkpt lat="46.22559" lon="5.91658">
        <ele>1294</ele>
        <time>2019-05-05T13:09:03Z</time>
      </trkpt>
      <trkpt lat="46.22558" lon="5.91662">
        <ele>1293</ele>
        <time>2019-05-05T13:09:05Z</time>
      </trkpt>
      <trkpt lat="46.22557" lon="5.91667">
        <ele>1292</ele>
        <time>2019-05-05T13:09:08Z</time>
      </trkpt>
      <trkpt lat="46.22557" lon="5.91677">
        <ele>1290</ele>
        <time>2019-05-05T13:09:13Z</time>
      </trkpt>
      <trkpt lat="46.22558" lon="5.91684">
        <ele>1289</ele>
        <time>2019-05-05T13:09:17Z</time>
      </trkpt>
      <trkpt lat="46.22558" lon="5.91687">
        <ele>1288</ele>
        <time>2019-05-05T13:09:19Z</time>
      </trkpt>
      <trkpt lat="46.22557" lon="5.91691">
        <ele>1287</ele>
        <time>2019-05-05T13:09:21Z</time>
      </trkpt>
      <trkpt lat="46.22556" lon="5.91701">
        <ele>1286</ele>
        <time>2019-05-05T13:09:26Z</time>
      </trkpt>
      <trkpt lat="46.22557" lon="5.91706">
        <ele>1285</ele>
        <time>2019-05-05T13:09:29Z</time>
      </trkpt>
      <trkpt lat="46.2256" lon="5.9172">
        <ele>1284</ele>
        <time>2019-05-05T13:09:36Z</time>
      </trkpt>
      <trkpt lat="46.22562" lon="5.91723">
        <ele>1284</ele>
        <time>2019-05-05T13:09:38Z</time>
      </trkpt>
      <trkpt lat="46.22564" lon="5.91725">
        <ele>1284</ele>
        <time>2019-05-05T13:09:40Z</time>
      </trkpt>
      <trkpt lat="46.22566" lon="5.91727">
        <ele>1284</ele>
        <time>2019-05-05T13:09:42Z</time>
      </trkpt>
      <trkpt lat="46.22573" lon="5.91737">
        <ele>1284</ele>
        <time>2019-05-05T13:09:49Z</time>
      </trkpt>
      <trkpt lat="46.22574" lon="5.91739">
        <ele>1284</ele>
        <time>2019-05-05T13:09:50Z</time>
      </trkpt>
      <trkpt lat="46.22574" lon="5.91743">
        <ele>1284</ele>
        <time>2019-05-05T13:09:52Z</time>
      </trkpt>
      <trkpt lat="46.22571" lon="5.91749">
        <ele>1282</ele>
        <time>2019-05-05T13:09:56Z</time>
      </trkpt>
      <trkpt lat="46.22567" lon="5.91754">
        <ele>1280</ele>
        <time>2019-05-05T13:10:00Z</time>
      </trkpt>
      <trkpt lat="46.22563" lon="5.91756">
        <ele>1279</ele>
        <time>2019-05-05T13:10:03Z</time>
      </trkpt>
      <trkpt lat="46.22548" lon="5.91754">
        <ele>1276</ele>
        <time>2019-05-05T13:10:14Z</time>
      </trkpt>
      <trkpt lat="46.22542" lon="5.91755">
        <ele>1274</ele>
        <time>2019-05-05T13:10:18Z</time>
      </trkpt>
      <trkpt lat="46.22535" lon="5.91754">
        <ele>1272</ele>
        <time>2019-05-05T13:10:24Z</time>
      </trkpt>
      <trkpt lat="46.22528" lon="5.91755">
        <ele>1270</ele>
        <time>2019-05-05T13:10:29Z</time>
      </trkpt>
      <trkpt lat="46.22524" lon="5.91754">
        <ele>1270</ele>
        <time>2019-05-05T13:10:32Z</time>
      </trkpt>
      <trkpt lat="46.22516" lon="5.91751">
        <ele>1268</ele>
        <time>2019-05-05T13:10:38Z</time>
      </trkpt>
      <trkpt lat="46.22508" lon="5.91751">
        <ele>1265</ele>
        <time>2019-05-05T13:10:44Z</time>
      </trkpt>
      <trkpt lat="46.22494" lon="5.91747">
        <ele>1261</ele>
        <time>2019-05-05T13:10:55Z</time>
      </trkpt>
      <trkpt lat="46.2249" lon="5.91742">
        <ele>1261</ele>
        <time>2019-05-05T13:10:58Z</time>
      </trkpt>
      <trkpt lat="46.22489" lon="5.91741">
        <ele>1261</ele>
        <time>2019-05-05T13:11:00Z</time>
      </trkpt>
      <trkpt lat="46.22487" lon="5.91736">
        <ele>1261</ele>
        <time>2019-05-05T13:11:03Z</time>
      </trkpt>
      <trkpt lat="46.22485" lon="5.91734">
        <ele>1261</ele>
        <time>2019-05-05T13:11:04Z</time>
      </trkpt>
      <trkpt lat="46.22483" lon="5.91729">
        <ele>1261</ele>
        <time>2019-05-05T13:11:07Z</time>
      </trkpt>
      <trkpt lat="46.2248" lon="5.91725">
        <ele>1260</ele>
        <time>2019-05-05T13:11:10Z</time>
      </trkpt>
      <trkpt lat="46.22474" lon="5.9172">
        <ele>1259</ele>
        <time>2019-05-05T13:11:15Z</time>
      </trkpt>
      <trkpt lat="46.22471" lon="5.91713">
        <ele>1259</ele>
        <time>2019-05-05T13:11:19Z</time>
      </trkpt>
      <trkpt lat="46.22464" lon="5.91704">
        <ele>1258</ele>
        <time>2019-05-05T13:11:26Z</time>
      </trkpt>
      <trkpt lat="46.22457" lon="5.91697">
        <ele>1257</ele>
        <time>2019-05-05T13:11:32Z</time>
      </trkpt>
      <trkpt lat="46.22447" lon="5.9169">
        <ele>1255</ele>
        <time>2019-05-05T13:11:40Z</time>
      </trkpt>
      <trkpt lat="46.22445" lon="5.9169">
        <ele>1254</ele>
        <time>2019-05-05T13:11:42Z</time>
      </trkpt>
      <trkpt lat="46.22444" lon="5.91691">
        <ele>1254</ele>
        <time>2019-05-05T13:11:43Z</time>
      </trkpt>
      <trkpt lat="46.22443" lon="5.91694">
        <ele>1253</ele>
        <time>2019-05-05T13:11:44Z</time>
      </trkpt>
      <trkpt lat="46.22445" lon="5.91699">
        <ele>1253</ele>
        <time>2019-05-05T13:11:47Z</time>
      </trkpt>
      <trkpt lat="46.22453" lon="5.91719">
        <ele>1253</ele>
        <time>2019-05-05T13:11:59Z</time>
      </trkpt>
      <trkpt lat="46.22458" lon="5.91732">
        <ele>1253</ele>
        <time>2019-05-05T13:12:06Z</time>
      </trkpt>
      <trkpt lat="46.22463" lon="5.91744">
        <ele>1252</ele>
        <time>2019-05-05T13:12:14Z</time>
      </trkpt>
      <trkpt lat="46.22473" lon="5.91766">
        <ele>1252</ele>
        <time>2019-05-05T13:12:27Z</time>
      </trkpt>
      <trkpt lat="46.22486" lon="5.91786">
        <ele>1252</ele>
        <time>2019-05-05T13:12:40Z</time>
      </trkpt>
      <trkpt lat="46.22487" lon="5.91787">
        <ele>1252</ele>
        <time>2019-05-05T13:12:41Z</time>
      </trkpt>
      <trkpt lat="46.22497" lon="5.91802">
        <ele>1253</ele>
        <time>2019-05-05T13:12:52Z</time>
      </trkpt>
      <trkpt lat="46.2251" lon="5.91813">
        <ele>1255</ele>
        <time>2019-05-05T13:13:03Z</time>
      </trkpt>
      <trkpt lat="46.22518" lon="5.91824">
        <ele>1256</ele>
        <time>2019-05-05T13:13:11Z</time>
      </trkpt>
      <trkpt lat="46.22518" lon="5.91825">
        <ele>1255</ele>
        <time>2019-05-05T13:13:12Z</time>
      </trkpt>
      <trkpt lat="46.22518" lon="5.91829">
        <ele>1255</ele>
        <time>2019-05-05T13:13:14Z</time>
      </trkpt>
      <trkpt lat="46.22518" lon="5.91831">
        <ele>1254</ele>
        <time>2019-05-05T13:13:15Z</time>
      </trkpt>
      <trkpt lat="46.22517" lon="5.91833">
        <ele>1254</ele>
        <time>2019-05-05T13:13:16Z</time>
      </trkpt>
      <trkpt lat="46.22517" lon="5.91834">
        <ele>1254</ele>
        <time>2019-05-05T13:13:16Z</time>
      </trkpt>
      <trkpt lat="46.22524" lon="5.91839">
        <ele>1255</ele>
        <time>2019-05-05T13:13:22Z</time>
      </trkpt>
      <trkpt lat="46.22525" lon="5.9184">
        <ele>1255</ele>
        <time>2019-05-05T13:13:23Z</time>
      </trkpt>
      <trkpt lat="46.22532" lon="5.91844">
        <ele>1255</ele>
        <time>2019-05-05T13:13:28Z</time>
      </trkpt>
      <trkpt lat="46.22531" lon="5.91846">
        <ele>1255</ele>
        <time>2019-05-05T13:13:29Z</time>
      </trkpt>
      <trkpt lat="46.22531" lon="5.91848">
        <ele>1254</ele>
        <time>2019-05-05T13:13:30Z</time>
      </trkpt>
      <trkpt lat="46.22531" lon="5.9185">
        <ele>1254</ele>
        <time>2019-05-05T13:13:31Z</time>
      </trkpt>
      <trkpt lat="46.22543" lon="5.91862">
        <ele>1253</ele>
        <time>2019-05-05T13:13:42Z</time>
      </trkpt>
      <trkpt lat="46.22561" lon="5.91869">
        <ele>1255</ele>
        <time>2019-05-05T13:13:55Z</time>
      </trkpt>
      <trkpt lat="46.22562" lon="5.9187">
        <ele>1256</ele>
        <time>2019-05-05T13:13:57Z</time>
      </trkpt>
      <trkpt lat="46.22566" lon="5.91871">
        <ele>1256</ele>
        <time>2019-05-05T13:14:00Z</time>
      </trkpt>
      <trkpt lat="46.22571" lon="5.91874">
        <ele>1257</ele>
        <time>2019-05-05T13:14:04Z</time>
      </trkpt>
      <trkpt lat="46.22573" lon="5.91873">
        <ele>1257</ele>
        <time>2019-05-05T13:14:05Z</time>
      </trkpt>
      <trkpt lat="46.22579" lon="5.91876">
        <ele>1258</ele>
        <time>2019-05-05T13:14:10Z</time>
      </trkpt>
      <trkpt lat="46.22581" lon="5.91877">
        <ele>1258</ele>
        <time>2019-05-05T13:14:11Z</time>
      </trkpt>
      <trkpt lat="46.22586" lon="5.91883">
        <ele>1257</ele>
        <time>2019-05-05T13:14:16Z</time>
      </trkpt>
      <trkpt lat="46.22602" lon="5.91897">
        <ele>1257</ele>
        <time>2019-05-05T13:14:29Z</time>
      </trkpt>
      <trkpt lat="46.2262" lon="5.91914">
        <ele>1259</ele>
        <time>2019-05-05T13:14:44Z</time>
      </trkpt>
      <trkpt lat="46.22629" lon="5.91934">
        <ele>1256</ele>
        <time>2019-05-05T13:14:57Z</time>
      </trkpt>
      <trkpt lat="46.22634" lon="5.91943">
        <ele>1256</ele>
        <time>2019-05-05T13:15:03Z</time>
      </trkpt>
      <trkpt lat="46.22639" lon="5.9196">
        <ele>1252</ele>
        <time>2019-05-05T13:15:12Z</time>
      </trkpt>
      <trkpt lat="46.22646" lon="5.91975">
        <ele>1250</ele>
        <time>2019-05-05T13:15:21Z</time>
      </trkpt>
      <trkpt lat="46.22659" lon="5.91996">
        <ele>1249</ele>
        <time>2019-05-05T13:15:36Z</time>
      </trkpt>
      <trkpt lat="46.22664" lon="5.92004">
        <ele>1248</ele>
        <time>2019-05-05T13:15:41Z</time>
      </trkpt>
      <trkpt lat="46.22666" lon="5.92007">
        <ele>1248</ele>
        <time>2019-05-05T13:15:43Z</time>
      </trkpt>
      <trkpt lat="46.2267" lon="5.92014">
        <ele>1248</ele>
        <time>2019-05-05T13:15:48Z</time>
      </trkpt>
      <trkpt lat="46.22673" lon="5.92021">
        <ele>1247</ele>
        <time>2019-05-05T13:15:52Z</time>
      </trkpt>
      <trkpt lat="46.22673" lon="5.92024">
        <ele>1245</ele>
        <time>2019-05-05T13:15:54Z</time>
      </trkpt>
      <trkpt lat="46.22675" lon="5.92046">
        <ele>1239</ele>
        <time>2019-05-05T13:16:05Z</time>
      </trkpt>
      <trkpt lat="46.22677" lon="5.92059">
        <ele>1235</ele>
        <time>2019-05-05T13:16:13Z</time>
      </trkpt>
      <trkpt lat="46.2268" lon="5.92069">
        <ele>1233</ele>
        <time>2019-05-05T13:16:18Z</time>
      </trkpt>
      <trkpt lat="46.22689" lon="5.9208">
        <ele>1232</ele>
        <time>2019-05-05T13:16:27Z</time>
      </trkpt>
      <trkpt lat="46.22698" lon="5.92091">
        <ele>1232</ele>
        <time>2019-05-05T13:16:35Z</time>
      </trkpt>
      <trkpt lat="46.22709" lon="5.92101">
        <ele>1233</ele>
        <time>2019-05-05T13:16:45Z</time>
      </trkpt>
      <trkpt lat="46.22714" lon="5.92113">
        <ele>1231</ele>
        <time>2019-05-05T13:16:52Z</time>
      </trkpt>
      <trkpt lat="46.22717" lon="5.92119">
        <ele>1230</ele>
        <time>2019-05-05T13:16:55Z</time>
      </trkpt>
      <trkpt lat="46.2272" lon="5.92127">
        <ele>1229</ele>
        <time>2019-05-05T13:17:01Z</time>
      </trkpt>
      <trkpt lat="46.2273" lon="5.92142">
        <ele>1228</ele>
        <time>2019-05-05T13:17:11Z</time>
      </trkpt>
      <trkpt lat="46.22733" lon="5.92144">
        <ele>1228</ele>
        <time>2019-05-05T13:17:13Z</time>
      </trkpt>
      <trkpt lat="46.22737" lon="5.92146">
        <ele>1229</ele>
        <time>2019-05-05T13:17:16Z</time>
      </trkpt>
      <trkpt lat="46.22739" lon="5.92147">
        <ele>1230</ele>
        <time>2019-05-05T13:17:18Z</time>
      </trkpt>
      <trkpt lat="46.22745" lon="5.92148">
        <ele>1232</ele>
        <time>2019-05-05T13:17:23Z</time>
      </trkpt>
      <trkpt lat="46.22756" lon="5.92161">
        <ele>1232</ele>
        <time>2019-05-05T13:17:33Z</time>
      </trkpt>
      <trkpt lat="46.22762" lon="5.92176">
        <ele>1229</ele>
        <time>2019-05-05T13:17:42Z</time>
      </trkpt>
      <trkpt lat="46.22767" lon="5.92188">
        <ele>1226</ele>
        <time>2019-05-05T13:17:49Z</time>
      </trkpt>
      <trkpt lat="46.22779" lon="5.92214">
        <ele>1222</ele>
        <time>2019-05-05T13:18:05Z</time>
      </trkpt>
      <trkpt lat="46.22781" lon="5.92218">
        <ele>1221</ele>
        <time>2019-05-05T13:18:08Z</time>
      </trkpt>
      <trkpt lat="46.22788" lon="5.92228">
        <ele>1220</ele>
        <time>2019-05-05T13:18:15Z</time>
      </trkpt>
      <trkpt lat="46.2279" lon="5.9223">
        <ele>1220</ele>
        <time>2019-05-05T13:18:17Z</time>
      </trkpt>
      <trkpt lat="46.22793" lon="5.92233">
        <ele>1220</ele>
        <time>2019-05-05T13:18:19Z</time>
      </trkpt>
      <trkpt lat="46.22795" lon="5.92235">
        <ele>1220</ele>
        <time>2019-05-05T13:18:21Z</time>
      </trkpt>
      <trkpt lat="46.228" lon="5.9224">
        <ele>1220</ele>
        <time>2019-05-05T13:18:25Z</time>
      </trkpt>
      <trkpt lat="46.22805" lon="5.92244">
        <ele>1221</ele>
        <time>2019-05-05T13:18:30Z</time>
      </trkpt>
      <trkpt lat="46.2281" lon="5.92252">
        <ele>1219</ele>
        <time>2019-05-05T13:18:35Z</time>
      </trkpt>
      <trkpt lat="46.22815" lon="5.92258">
        <ele>1219</ele>
        <time>2019-05-05T13:18:40Z</time>
      </trkpt>
      <trkpt lat="46.22821" lon="5.92263">
        <ele>1220</ele>
        <time>2019-05-05T13:18:45Z</time>
      </trkpt>
      <trkpt lat="46.2283" lon="5.92265">
        <ele>1223</ele>
        <time>2019-05-05T13:18:52Z</time>
      </trkpt>
      <trkpt lat="46.22843" lon="5.92276">
        <ele>1223</ele>
        <time>2019-05-05T13:19:02Z</time>
      </trkpt>
      <trkpt lat="46.22848" lon="5.92283">
        <ele>1223</ele>
        <time>2019-05-05T13:19:08Z</time>
      </trkpt>
      <trkpt lat="46.22856" lon="5.92291">
        <ele>1222</ele>
        <time>2019-05-05T13:19:15Z</time>
      </trkpt>
      <trkpt lat="46.22862" lon="5.92299">
        <ele>1222</ele>
        <time>2019-05-05T13:19:21Z</time>
      </trkpt>
      <trkpt lat="46.22867" lon="5.92324">
        <ele>1214</ele>
        <time>2019-05-05T13:19:35Z</time>
      </trkpt>
      <trkpt lat="46.22872" lon="5.92353">
        <ele>1205</ele>
        <time>2019-05-05T13:19:51Z</time>
      </trkpt>
      <trkpt lat="46.22874" lon="5.92371">
        <ele>1201</ele>
        <time>2019-05-05T13:20:00Z</time>
      </trkpt>
      <trkpt lat="46.22876" lon="5.92396">
        <ele>1196</ele>
        <time>2019-05-05T13:20:13Z</time>
      </trkpt>
      <trkpt lat="46.22878" lon="5.92403">
        <ele>1195</ele>
        <time>2019-05-05T13:20:17Z</time>
      </trkpt>
      <trkpt lat="46.22879" lon="5.924">
        <ele>1196</ele>
        <time>2019-05-05T13:20:18Z</time>
      </trkpt>
      <trkpt lat="46.22877" lon="5.92396">
        <ele>1196</ele>
        <time>2019-05-05T13:20:21Z</time>
      </trkpt>
      <trkpt lat="46.22877" lon="5.92393">
        <ele>1197</ele>
        <time>2019-05-05T13:20:23Z</time>
      </trkpt>
      <trkpt lat="46.22873" lon="5.92372">
        <ele>1200</ele>
        <time>2019-05-05T13:20:33Z</time>
      </trkpt>
      <trkpt lat="46.2287" lon="5.92352">
        <ele>1204</ele>
        <time>2019-05-05T13:20:44Z</time>
      </trkpt>
      <trkpt lat="46.2287" lon="5.92347">
        <ele>1206</ele>
        <time>2019-05-05T13:20:47Z</time>
      </trkpt>
      <trkpt lat="46.22868" lon="5.92341">
        <ele>1207</ele>
        <time>2019-05-05T13:20:50Z</time>
      </trkpt>
      <trkpt lat="46.22867" lon="5.92338">
        <ele>1208</ele>
        <time>2019-05-05T13:20:52Z</time>
      </trkpt>
      <trkpt lat="46.22857" lon="5.9233">
        <ele>1208</ele>
        <time>2019-05-05T13:21:00Z</time>
      </trkpt>
      <trkpt lat="46.22854" lon="5.92325">
        <ele>1209</ele>
        <time>2019-05-05T13:21:04Z</time>
      </trkpt>
      <trkpt lat="46.22853" lon="5.92323">
        <ele>1209</ele>
        <time>2019-05-05T13:21:05Z</time>
      </trkpt>
      <trkpt lat="46.2285" lon="5.92323">
        <ele>1208</ele>
        <time>2019-05-05T13:21:07Z</time>
      </trkpt>
      <trkpt lat="46.22848" lon="5.92321">
        <ele>1208</ele>
        <time>2019-05-05T13:21:09Z</time>
      </trkpt>
      <trkpt lat="46.22842" lon="5.92315">
        <ele>1208</ele>
        <time>2019-05-05T13:21:14Z</time>
      </trkpt>
      <trkpt lat="46.2284" lon="5.92313">
        <ele>1208</ele>
        <time>2019-05-05T13:21:16Z</time>
      </trkpt>
      <trkpt lat="46.22839" lon="5.92312">
        <ele>1208</ele>
        <time>2019-05-05T13:21:17Z</time>
      </trkpt>
      <trkpt lat="46.22833" lon="5.92303">
        <ele>1209</ele>
        <time>2019-05-05T13:21:23Z</time>
      </trkpt>
      <trkpt lat="46.2283" lon="5.92302">
        <ele>1209</ele>
        <time>2019-05-05T13:21:25Z</time>
      </trkpt>
      <trkpt lat="46.22825" lon="5.92299">
        <ele>1208</ele>
        <time>2019-05-05T13:21:29Z</time>
      </trkpt>
      <trkpt lat="46.22818" lon="5.92287">
        <ele>1210</ele>
        <time>2019-05-05T13:21:37Z</time>
      </trkpt>
      <trkpt lat="46.22819" lon="5.92282">
        <ele>1212</ele>
        <time>2019-05-05T13:21:40Z</time>
      </trkpt>
      <trkpt lat="46.2282" lon="5.92281">
        <ele>1212</ele>
        <time>2019-05-05T13:21:41Z</time>
      </trkpt>
      <trkpt lat="46.22813" lon="5.92268">
        <ele>1215</ele>
        <time>2019-05-05T13:21:49Z</time>
      </trkpt>
      <trkpt lat="46.22808" lon="5.9226">
        <ele>1216</ele>
        <time>2019-05-05T13:21:55Z</time>
      </trkpt>
      <trkpt lat="46.22803" lon="5.92255">
        <ele>1216</ele>
        <time>2019-05-05T13:21:59Z</time>
      </trkpt>
      <trkpt lat="46.22791" lon="5.92239">
        <ele>1217</ele>
        <time>2019-05-05T13:22:11Z</time>
      </trkpt>
      <trkpt lat="46.22786" lon="5.92234">
        <ele>1217</ele>
        <time>2019-05-05T13:22:16Z</time>
      </trkpt>
      <trkpt lat="46.22781" lon="5.92228">
        <ele>1217</ele>
        <time>2019-05-05T13:22:20Z</time>
      </trkpt>
      <trkpt lat="46.22774" lon="5.92213">
        <ele>1220</ele>
        <time>2019-05-05T13:22:29Z</time>
      </trkpt>
      <trkpt lat="46.22769" lon="5.92205">
        <ele>1221</ele>
        <time>2019-05-05T13:22:35Z</time>
      </trkpt>
      <trkpt lat="46.22767" lon="5.92201">
        <ele>1222</ele>
        <time>2019-05-05T13:22:37Z</time>
      </trkpt>
      <trkpt lat="46.22764" lon="5.92195">
        <ele>1223</ele>
        <time>2019-05-05T13:22:41Z</time>
      </trkpt>
      <trkpt lat="46.22761" lon="5.92183">
        <ele>1226</ele>
        <time>2019-05-05T13:22:48Z</time>
      </trkpt>
      <trkpt lat="46.22757" lon="5.92176">
        <ele>1227</ele>
        <time>2019-05-05T13:22:52Z</time>
      </trkpt>
      <trkpt lat="46.22754" lon="5.92174">
        <ele>1227</ele>
        <time>2019-05-05T13:22:55Z</time>
      </trkpt>
      <trkpt lat="46.22751" lon="5.9217">
        <ele>1227</ele>
        <time>2019-05-05T13:22:58Z</time>
      </trkpt>
      <trkpt lat="46.2275" lon="5.92168">
        <ele>1227</ele>
        <time>2019-05-05T13:22:59Z</time>
      </trkpt>
      <trkpt lat="46.22746" lon="5.92167">
        <ele>1226</ele>
        <time>2019-05-05T13:23:02Z</time>
      </trkpt>
      <trkpt lat="46.2274" lon="5.92164">
        <ele>1225</ele>
        <time>2019-05-05T13:23:06Z</time>
      </trkpt>
      <trkpt lat="46.22739" lon="5.92163">
        <ele>1224</ele>
        <time>2019-05-05T13:23:07Z</time>
      </trkpt>
      <trkpt lat="46.22736" lon="5.92161">
        <ele>1224</ele>
        <time>2019-05-05T13:23:10Z</time>
      </trkpt>
      <trkpt lat="46.22734" lon="5.9216">
        <ele>1224</ele>
        <time>2019-05-05T13:23:12Z</time>
      </trkpt>
      <trkpt lat="46.22726" lon="5.92159">
        <ele>1221</ele>
        <time>2019-05-05T13:23:17Z</time>
      </trkpt>
      <trkpt lat="46.22715" lon="5.9215">
        <ele>1220</ele>
        <time>2019-05-05T13:23:27Z</time>
      </trkpt>
      <trkpt lat="46.22714" lon="5.92147">
        <ele>1220</ele>
        <time>2019-05-05T13:23:28Z</time>
      </trkpt>
      <trkpt lat="46.22713" lon="5.92145">
        <ele>1220</ele>
        <time>2019-05-05T13:23:29Z</time>
      </trkpt>
      <trkpt lat="46.22711" lon="5.92139">
        <ele>1222</ele>
        <time>2019-05-05T13:23:33Z</time>
      </trkpt>
      <trkpt lat="46.22711" lon="5.92136">
        <ele>1222</ele>
        <time>2019-05-05T13:23:34Z</time>
      </trkpt>
      <trkpt lat="46.22707" lon="5.92122">
        <ele>1225</ele>
        <time>2019-05-05T13:23:42Z</time>
      </trkpt>
      <trkpt lat="46.22707" lon="5.92118">
        <ele>1227</ele>
        <time>2019-05-05T13:23:45Z</time>
      </trkpt>
      <trkpt lat="46.22704" lon="5.92108">
        <ele>1229</ele>
        <time>2019-05-05T13:23:51Z</time>
      </trkpt>
      <trkpt lat="46.22703" lon="5.92107">
        <ele>1229</ele>
        <time>2019-05-05T13:23:51Z</time>
      </trkpt>
      <trkpt lat="46.22695" lon="5.921">
        <ele>1228</ele>
        <time>2019-05-05T13:23:58Z</time>
      </trkpt>
      <trkpt lat="46.22691" lon="5.92095">
        <ele>1228</ele>
        <time>2019-05-05T13:24:02Z</time>
      </trkpt>
      <trkpt lat="46.22686" lon="5.92091">
        <ele>1227</ele>
        <time>2019-05-05T13:24:06Z</time>
      </trkpt>
      <trkpt lat="46.22683" lon="5.92088">
        <ele>1227</ele>
        <time>2019-05-05T13:24:09Z</time>
      </trkpt>
      <trkpt lat="46.22679" lon="5.92082">
        <ele>1227</ele>
        <time>2019-05-05T13:24:13Z</time>
      </trkpt>
      <trkpt lat="46.22677" lon="5.92082">
        <ele>1227</ele>
        <time>2019-05-05T13:24:14Z</time>
      </trkpt>
      <trkpt lat="46.22672" lon="5.92074">
        <ele>1228</ele>
        <time>2019-05-05T13:24:20Z</time>
      </trkpt>
      <trkpt lat="46.2267" lon="5.92065">
        <ele>1230</ele>
        <time>2019-05-05T13:24:25Z</time>
      </trkpt>
      <trkpt lat="46.22665" lon="5.92039">
        <ele>1237</ele>
        <time>2019-05-05T13:24:38Z</time>
      </trkpt>
      <trkpt lat="46.22665" lon="5.92037">
        <ele>1238</ele>
        <time>2019-05-05T13:24:40Z</time>
      </trkpt>
      <trkpt lat="46.22662" lon="5.92034">
        <ele>1238</ele>
        <time>2019-05-05T13:24:43Z</time>
      </trkpt>
      <trkpt lat="46.22661" lon="5.92029">
        <ele>1239</ele>
        <time>2019-05-05T13:24:45Z</time>
      </trkpt>
      <trkpt lat="46.22659" lon="5.92026">
        <ele>1240</ele>
        <time>2019-05-05T13:24:48Z</time>
      </trkpt>
      <trkpt lat="46.22658" lon="5.92025">
        <ele>1239</ele>
        <time>2019-05-05T13:24:49Z</time>
      </trkpt>
      <trkpt lat="46.22654" lon="5.92024">
        <ele>1238</ele>
        <time>2019-05-05T13:24:51Z</time>
      </trkpt>
      <trkpt lat="46.2265" lon="5.92017">
        <ele>1239</ele>
        <time>2019-05-05T13:24:56Z</time>
      </trkpt>
      <trkpt lat="46.22646" lon="5.92007">
        <ele>1241</ele>
        <time>2019-05-05T13:25:02Z</time>
      </trkpt>
      <trkpt lat="46.2264" lon="5.91995">
        <ele>1242</ele>
        <time>2019-05-05T13:25:09Z</time>
      </trkpt>
      <trkpt lat="46.22638" lon="5.91986">
        <ele>1244</ele>
        <time>2019-05-05T13:25:14Z</time>
      </trkpt>
      <trkpt lat="46.22634" lon="5.9198">
        <ele>1244</ele>
        <time>2019-05-05T13:25:19Z</time>
      </trkpt>
      <trkpt lat="46.22629" lon="5.91965">
        <ele>1247</ele>
        <time>2019-05-05T13:25:28Z</time>
      </trkpt>
      <trkpt lat="46.22625" lon="5.91958">
        <ele>1248</ele>
        <time>2019-05-05T13:25:32Z</time>
      </trkpt>
      <trkpt lat="46.22624" lon="5.91957">
        <ele>1248</ele>
        <time>2019-05-05T13:25:33Z</time>
      </trkpt>
      <trkpt lat="46.22623" lon="5.91956">
        <ele>1248</ele>
        <time>2019-05-05T13:25:34Z</time>
      </trkpt>
      <trkpt lat="46.22622" lon="5.91955">
        <ele>1248</ele>
        <time>2019-05-05T13:25:34Z</time>
      </trkpt>
      <trkpt lat="46.2262" lon="5.91953">
        <ele>1247</ele>
        <time>2019-05-05T13:25:37Z</time>
      </trkpt>
      <trkpt lat="46.22619" lon="5.91951">
        <ele>1247</ele>
        <time>2019-05-05T13:25:38Z</time>
      </trkpt>
      <trkpt lat="46.22605" lon="5.91941">
        <ele>1246</ele>
        <time>2019-05-05T13:25:49Z</time>
      </trkpt>
      <trkpt lat="46.22595" lon="5.91931">
        <ele>1246</ele>
        <time>2019-05-05T13:25:58Z</time>
      </trkpt>
      <trkpt lat="46.22585" lon="5.91906">
        <ele>1251</ele>
        <time>2019-05-05T13:26:13Z</time>
      </trkpt>
      <trkpt lat="46.22578" lon="5.91898">
        <ele>1251</ele>
        <time>2019-05-05T13:26:19Z</time>
      </trkpt>
      <trkpt lat="46.22577" lon="5.91896">
        <ele>1252</ele>
        <time>2019-05-05T13:26:20Z</time>
      </trkpt>
      <trkpt lat="46.22569" lon="5.91888">
        <ele>1252</ele>
        <time>2019-05-05T13:26:27Z</time>
      </trkpt>
      <trkpt lat="46.22568" lon="5.91887">
        <ele>1252</ele>
        <time>2019-05-05T13:26:28Z</time>
      </trkpt>
      <trkpt lat="46.22563" lon="5.91882">
        <ele>1252</ele>
        <time>2019-05-05T13:26:33Z</time>
      </trkpt>
      <trkpt lat="46.22557" lon="5.91877">
        <ele>1252</ele>
        <time>2019-05-05T13:26:37Z</time>
      </trkpt>
      <trkpt lat="46.22547" lon="5.91875">
        <ele>1251</ele>
        <time>2019-05-05T13:26:45Z</time>
      </trkpt>
      <trkpt lat="46.22548" lon="5.91875">
        <ele>1251</ele>
        <time>2019-05-05T13:26:45Z</time>
      </trkpt>
      <trkpt lat="46.22549" lon="5.91877">
        <ele>1251</ele>
        <time>2019-05-05T13:26:46Z</time>
      </trkpt>
      <trkpt lat="46.22548" lon="5.91879">
        <ele>1250</ele>
        <time>2019-05-05T13:26:48Z</time>
      </trkpt>
      <trkpt lat="46.22544" lon="5.91881">
        <ele>1248</ele>
        <time>2019-05-05T13:26:51Z</time>
      </trkpt>
      <trkpt lat="46.22543" lon="5.91883">
        <ele>1247</ele>
        <time>2019-05-05T13:26:52Z</time>
      </trkpt>
      <trkpt lat="46.22542" lon="5.91883">
        <ele>1247</ele>
        <time>2019-05-05T13:26:53Z</time>
      </trkpt>
      <trkpt lat="46.22542" lon="5.91883">
        <ele>1247</ele>
        <time>2019-05-05T13:26:53Z</time>
      </trkpt>
      <trkpt lat="46.22537" lon="5.91886">
        <ele>1245</ele>
        <time>2019-05-05T13:26:57Z</time>
      </trkpt>
      <trkpt lat="46.22535" lon="5.91889">
        <ele>1244</ele>
        <time>2019-05-05T13:27:00Z</time>
      </trkpt>
      <trkpt lat="46.22535" lon="5.91892">
        <ele>1243</ele>
        <time>2019-05-05T13:27:01Z</time>
      </trkpt>
      <trkpt lat="46.22534" lon="5.91894">
        <ele>1242</ele>
        <time>2019-05-05T13:27:02Z</time>
      </trkpt>
      <trkpt lat="46.22532" lon="5.91898">
        <ele>1240</ele>
        <time>2019-05-05T13:27:05Z</time>
      </trkpt>
      <trkpt lat="46.22531" lon="5.91902">
        <ele>1239</ele>
        <time>2019-05-05T13:27:07Z</time>
      </trkpt>
      <trkpt lat="46.22531" lon="5.91904">
        <ele>1239</ele>
        <time>2019-05-05T13:27:08Z</time>
      </trkpt>
      <trkpt lat="46.2253" lon="5.91909">
        <ele>1237</ele>
        <time>2019-05-05T13:27:11Z</time>
      </trkpt>
      <trkpt lat="46.22529" lon="5.9191">
        <ele>1236</ele>
        <time>2019-05-05T13:27:12Z</time>
      </trkpt>
      <trkpt lat="46.22528" lon="5.9191">
        <ele>1236</ele>
        <time>2019-05-05T13:27:13Z</time>
      </trkpt>
      <trkpt lat="46.22526" lon="5.91913">
        <ele>1235</ele>
        <time>2019-05-05T13:27:15Z</time>
      </trkpt>
      <trkpt lat="46.22525" lon="5.91914">
        <ele>1234</ele>
        <time>2019-05-05T13:27:16Z</time>
      </trkpt>
      <trkpt lat="46.22521" lon="5.91914">
        <ele>1233</ele>
        <time>2019-05-05T13:27:19Z</time>
      </trkpt>
      <trkpt lat="46.22518" lon="5.91914">
        <ele>1232</ele>
        <time>2019-05-05T13:27:22Z</time>
      </trkpt>
      <trkpt lat="46.22513" lon="5.91914">
        <ele>1231</ele>
        <time>2019-05-05T13:27:25Z</time>
      </trkpt>
      <trkpt lat="46.2251" lon="5.91913">
        <ele>1230</ele>
        <time>2019-05-05T13:27:27Z</time>
      </trkpt>
      <trkpt lat="46.22507" lon="5.91912">
        <ele>1229</ele>
        <time>2019-05-05T13:27:30Z</time>
      </trkpt>
      <trkpt lat="46.22503" lon="5.91912">
        <ele>1228</ele>
        <time>2019-05-05T13:27:33Z</time>
      </trkpt>
      <trkpt lat="46.22501" lon="5.91912">
        <ele>1227</ele>
        <time>2019-05-05T13:27:34Z</time>
      </trkpt>
      <trkpt lat="46.22497" lon="5.91911">
        <ele>1226</ele>
        <time>2019-05-05T13:27:37Z</time>
      </trkpt>
      <trkpt lat="46.22495" lon="5.91911">
        <ele>1226</ele>
        <time>2019-05-05T13:27:39Z</time>
      </trkpt>
      <trkpt lat="46.22491" lon="5.91911">
        <ele>1225</ele>
        <time>2019-05-05T13:27:41Z</time>
      </trkpt>
      <trkpt lat="46.22489" lon="5.9191">
        <ele>1224</ele>
        <time>2019-05-05T13:27:43Z</time>
      </trkpt>
      <trkpt lat="46.22487" lon="5.91911">
        <ele>1223</ele>
        <time>2019-05-05T13:27:45Z</time>
      </trkpt>
      <trkpt lat="46.22485" lon="5.91911">
        <ele>1222</ele>
        <time>2019-05-05T13:27:47Z</time>
      </trkpt>
      <trkpt lat="46.22481" lon="5.91912">
        <ele>1221</ele>
        <time>2019-05-05T13:27:49Z</time>
      </trkpt>
      <trkpt lat="46.22476" lon="5.91913">
        <ele>1219</ele>
        <time>2019-05-05T13:27:53Z</time>
      </trkpt>
      <trkpt lat="46.22472" lon="5.91914">
        <ele>1217</ele>
        <time>2019-05-05T13:27:56Z</time>
      </trkpt>
      <trkpt lat="46.22469" lon="5.91915">
        <ele>1216</ele>
        <time>2019-05-05T13:27:59Z</time>
      </trkpt>
      <trkpt lat="46.22464" lon="5.91918">
        <ele>1214</ele>
        <time>2019-05-05T13:28:03Z</time>
      </trkpt>
      <trkpt lat="46.2246" lon="5.9192">
        <ele>1211</ele>
        <time>2019-05-05T13:28:07Z</time>
      </trkpt>
      <trkpt lat="46.22458" lon="5.9192">
        <ele>1211</ele>
        <time>2019-05-05T13:28:08Z</time>
      </trkpt>
      <trkpt lat="46.22456" lon="5.9192">
        <ele>1210</ele>
        <time>2019-05-05T13:28:10Z</time>
      </trkpt>
      <trkpt lat="46.22454" lon="5.9192">
        <ele>1210</ele>
        <time>2019-05-05T13:28:11Z</time>
      </trkpt>
      <trkpt lat="46.2245" lon="5.9192">
        <ele>1208</ele>
        <time>2019-05-05T13:28:14Z</time>
      </trkpt>
      <trkpt lat="46.22447" lon="5.91921">
        <ele>1207</ele>
        <time>2019-05-05T13:28:17Z</time>
      </trkpt>
      <trkpt lat="46.22445" lon="5.91922">
        <ele>1206</ele>
        <time>2019-05-05T13:28:18Z</time>
      </trkpt>
      <trkpt lat="46.22443" lon="5.91922">
        <ele>1206</ele>
        <time>2019-05-05T13:28:20Z</time>
      </trkpt>
      <trkpt lat="46.22437" lon="5.91924">
        <ele>1203</ele>
        <time>2019-05-05T13:28:25Z</time>
      </trkpt>
      <trkpt lat="46.22434" lon="5.91925">
        <ele>1202</ele>
        <time>2019-05-05T13:28:26Z</time>
      </trkpt>
      <trkpt lat="46.22433" lon="5.91924">
        <ele>1201</ele>
        <time>2019-05-05T13:28:28Z</time>
      </trkpt>
      <trkpt lat="46.22429" lon="5.91921">
        <ele>1200</ele>
        <time>2019-05-05T13:28:31Z</time>
      </trkpt>
      <trkpt lat="46.22427" lon="5.9192">
        <ele>1200</ele>
        <time>2019-05-05T13:28:33Z</time>
      </trkpt>
      <trkpt lat="46.22425" lon="5.91919">
        <ele>1199</ele>
        <time>2019-05-05T13:28:35Z</time>
      </trkpt>
      <trkpt lat="46.22421" lon="5.91916">
        <ele>1198</ele>
        <time>2019-05-05T13:28:38Z</time>
      </trkpt>
      <trkpt lat="46.22419" lon="5.91916">
        <ele>1198</ele>
        <time>2019-05-05T13:28:39Z</time>
      </trkpt>
      <trkpt lat="46.22417" lon="5.91915">
        <ele>1197</ele>
        <time>2019-05-05T13:28:40Z</time>
      </trkpt>
      <trkpt lat="46.22416" lon="5.91914">
        <ele>1197</ele>
        <time>2019-05-05T13:28:42Z</time>
      </trkpt>
      <trkpt lat="46.22414" lon="5.91914">
        <ele>1196</ele>
        <time>2019-05-05T13:28:43Z</time>
      </trkpt>
      <trkpt lat="46.2241" lon="5.91913">
        <ele>1195</ele>
        <time>2019-05-05T13:28:46Z</time>
      </trkpt>
      <trkpt lat="46.22409" lon="5.91913">
        <ele>1194</ele>
        <time>2019-05-05T13:28:47Z</time>
      </trkpt>
      <trkpt lat="46.22405" lon="5.91914">
        <ele>1192</ele>
        <time>2019-05-05T13:28:50Z</time>
      </trkpt>
      <trkpt lat="46.22404" lon="5.91914">
        <ele>1192</ele>
        <time>2019-05-05T13:28:51Z</time>
      </trkpt>
      <trkpt lat="46.22403" lon="5.91914">
        <ele>1191</ele>
        <time>2019-05-05T13:28:52Z</time>
      </trkpt>
      <trkpt lat="46.22402" lon="5.91913">
        <ele>1191</ele>
        <time>2019-05-05T13:28:53Z</time>
      </trkpt>
      <trkpt lat="46.22399" lon="5.91914">
        <ele>1190</ele>
        <time>2019-05-05T13:28:55Z</time>
      </trkpt>
      <trkpt lat="46.22395" lon="5.91914">
        <ele>1188</ele>
        <time>2019-05-05T13:28:58Z</time>
      </trkpt>
      <trkpt lat="46.22395" lon="5.91913">
        <ele>1188</ele>
        <time>2019-05-05T13:28:59Z</time>
      </trkpt>
      <trkpt lat="46.2239" lon="5.91911">
        <ele>1187</ele>
        <time>2019-05-05T13:29:02Z</time>
      </trkpt>
      <trkpt lat="46.22386" lon="5.91908">
        <ele>1186</ele>
        <time>2019-05-05T13:29:05Z</time>
      </trkpt>
      <trkpt lat="46.22385" lon="5.91908">
        <ele>1186</ele>
        <time>2019-05-05T13:29:06Z</time>
      </trkpt>
      <trkpt lat="46.22382" lon="5.91907">
        <ele>1184</ele>
        <time>2019-05-05T13:29:09Z</time>
      </trkpt>
      <trkpt lat="46.22376" lon="5.91907">
        <ele>1182</ele>
        <time>2019-05-05T13:29:13Z</time>
      </trkpt>
      <trkpt lat="46.22374" lon="5.91904">
        <ele>1182</ele>
        <time>2019-05-05T13:29:15Z</time>
      </trkpt>
      <trkpt lat="46.22372" lon="5.91903">
        <ele>1182</ele>
        <time>2019-05-05T13:29:17Z</time>
      </trkpt>
      <trkpt lat="46.22366" lon="5.91898">
        <ele>1181</ele>
        <time>2019-05-05T13:29:22Z</time>
      </trkpt>
      <trkpt lat="46.22363" lon="5.91897">
        <ele>1180</ele>
        <time>2019-05-05T13:29:24Z</time>
      </trkpt>
      <trkpt lat="46.2236" lon="5.91897">
        <ele>1179</ele>
        <time>2019-05-05T13:29:26Z</time>
      </trkpt>
      <trkpt lat="46.22358" lon="5.91897">
        <ele>1178</ele>
        <time>2019-05-05T13:29:28Z</time>
      </trkpt>
      <trkpt lat="46.22356" lon="5.91897">
        <ele>1177</ele>
        <time>2019-05-05T13:29:29Z</time>
      </trkpt>
      <trkpt lat="46.22357" lon="5.91897">
        <ele>1177</ele>
        <time>2019-05-05T13:29:30Z</time>
      </trkpt>
      <trkpt lat="46.22352" lon="5.91897">
        <ele>1175</ele>
        <time>2019-05-05T13:29:33Z</time>
      </trkpt>
      <trkpt lat="46.22349" lon="5.91898">
        <ele>1174</ele>
        <time>2019-05-05T13:29:35Z</time>
      </trkpt>
      <trkpt lat="46.22347" lon="5.91898">
        <ele>1174</ele>
        <time>2019-05-05T13:29:37Z</time>
      </trkpt>
      <trkpt lat="46.22343" lon="5.91896">
        <ele>1173</ele>
        <time>2019-05-05T13:29:40Z</time>
      </trkpt>
      <trkpt lat="46.22337" lon="5.91894">
        <ele>1172</ele>
        <time>2019-05-05T13:29:44Z</time>
      </trkpt>
      <trkpt lat="46.22333" lon="5.91893">
        <ele>1172</ele>
        <time>2019-05-05T13:29:47Z</time>
      </trkpt>
      <trkpt lat="46.22329" lon="5.91892">
        <ele>1171</ele>
        <time>2019-05-05T13:29:50Z</time>
      </trkpt>
      <trkpt lat="46.22326" lon="5.91892">
        <ele>1169</ele>
        <time>2019-05-05T13:29:53Z</time>
      </trkpt>
      <trkpt lat="46.22324" lon="5.91893">
        <ele>1169</ele>
        <time>2019-05-05T13:29:54Z</time>
      </trkpt>
      <trkpt lat="46.22322" lon="5.91894">
        <ele>1168</ele>
        <time>2019-05-05T13:29:56Z</time>
      </trkpt>
      <trkpt lat="46.22321" lon="5.91896">
        <ele>1167</ele>
        <time>2019-05-05T13:29:57Z</time>
      </trkpt>
      <trkpt lat="46.22317" lon="5.91895">
        <ele>1166</ele>
        <time>2019-05-05T13:30:00Z</time>
      </trkpt>
      <trkpt lat="46.22314" lon="5.91896">
        <ele>1165</ele>
        <time>2019-05-05T13:30:02Z</time>
      </trkpt>
      <trkpt lat="46.22312" lon="5.91898">
        <ele>1164</ele>
        <time>2019-05-05T13:30:04Z</time>
      </trkpt>
      <trkpt lat="46.2231" lon="5.919">
        <ele>1162</ele>
        <time>2019-05-05T13:30:07Z</time>
      </trkpt>
      <trkpt lat="46.22307" lon="5.91903">
        <ele>1161</ele>
        <time>2019-05-05T13:30:09Z</time>
      </trkpt>
      <trkpt lat="46.22305" lon="5.91904">
        <ele>1160</ele>
        <time>2019-05-05T13:30:11Z</time>
      </trkpt>
      <trkpt lat="46.22303" lon="5.91904">
        <ele>1159</ele>
        <time>2019-05-05T13:30:12Z</time>
      </trkpt>
      <trkpt lat="46.22298" lon="5.91904">
        <ele>1158</ele>
        <time>2019-05-05T13:30:16Z</time>
      </trkpt>
      <trkpt lat="46.22297" lon="5.91904">
        <ele>1158</ele>
        <time>2019-05-05T13:30:17Z</time>
      </trkpt>
      <trkpt lat="46.22296" lon="5.91904">
        <ele>1157</ele>
        <time>2019-05-05T13:30:18Z</time>
      </trkpt>
      <trkpt lat="46.22291" lon="5.91904">
        <ele>1156</ele>
        <time>2019-05-05T13:30:21Z</time>
      </trkpt>
      <trkpt lat="46.22289" lon="5.91904">
        <ele>1155</ele>
        <time>2019-05-05T13:30:23Z</time>
      </trkpt>
      <trkpt lat="46.22287" lon="5.91904">
        <ele>1155</ele>
        <time>2019-05-05T13:30:25Z</time>
      </trkpt>
      <trkpt lat="46.22285" lon="5.91903">
        <ele>1155</ele>
        <time>2019-05-05T13:30:26Z</time>
      </trkpt>
      <trkpt lat="46.22283" lon="5.91903">
        <ele>1154</ele>
        <time>2019-05-05T13:30:28Z</time>
      </trkpt>
      <trkpt lat="46.22281" lon="5.91903">
        <ele>1154</ele>
        <time>2019-05-05T13:30:29Z</time>
      </trkpt>
      <trkpt lat="46.2228" lon="5.91902">
        <ele>1153</ele>
        <time>2019-05-05T13:30:30Z</time>
      </trkpt>
      <trkpt lat="46.22274" lon="5.91903">
        <ele>1151</ele>
        <time>2019-05-05T13:30:34Z</time>
      </trkpt>
      <trkpt lat="46.22271" lon="5.91904">
        <ele>1150</ele>
        <time>2019-05-05T13:30:37Z</time>
      </trkpt>
      <trkpt lat="46.22269" lon="5.91907">
        <ele>1149</ele>
        <time>2019-05-05T13:30:39Z</time>
      </trkpt>
      <trkpt lat="46.22264" lon="5.91913">
        <ele>1146</ele>
        <time>2019-05-05T13:30:44Z</time>
      </trkpt>
      <trkpt lat="46.22262" lon="5.91917">
        <ele>1144</ele>
        <time>2019-05-05T13:30:47Z</time>
      </trkpt>
      <trkpt lat="46.22258" lon="5.91926">
        <ele>1141</ele>
        <time>2019-05-05T13:30:53Z</time>
      </trkpt>
      <trkpt lat="46.22255" lon="5.91929">
        <ele>1139</ele>
        <time>2019-05-05T13:30:55Z</time>
      </trkpt>
      <trkpt lat="46.22256" lon="5.9193">
        <ele>1139</ele>
        <time>2019-05-05T13:30:56Z</time>
      </trkpt>
      <trkpt lat="46.22257" lon="5.91929">
        <ele>1140</ele>
        <time>2019-05-05T13:30:57Z</time>
      </trkpt>
      <trkpt lat="46.22257" lon="5.91927">
        <ele>1140</ele>
        <time>2019-05-05T13:30:58Z</time>
      </trkpt>
      <trkpt lat="46.22256" lon="5.91932">
        <ele>1138</ele>
        <time>2019-05-05T13:31:01Z</time>
      </trkpt>
      <trkpt lat="46.22251" lon="5.91941">
        <ele>1135</ele>
        <time>2019-05-05T13:31:07Z</time>
      </trkpt>
      <trkpt lat="46.22244" lon="5.91947">
        <ele>1133</ele>
        <time>2019-05-05T13:31:13Z</time>
      </trkpt>
      <trkpt lat="46.22239" lon="5.91951">
        <ele>1131</ele>
        <time>2019-05-05T13:31:17Z</time>
      </trkpt>
      <trkpt lat="46.22234" lon="5.91956">
        <ele>1128</ele>
        <time>2019-05-05T13:31:22Z</time>
      </trkpt>
      <trkpt lat="46.22229" lon="5.91961">
        <ele>1126</ele>
        <time>2019-05-05T13:31:27Z</time>
      </trkpt>
      <trkpt lat="46.22223" lon="5.91967">
        <ele>1124</ele>
        <time>2019-05-05T13:31:32Z</time>
      </trkpt>
      <trkpt lat="46.22215" lon="5.91973">
        <ele>1121</ele>
        <time>2019-05-05T13:31:39Z</time>
      </trkpt>
      <trkpt lat="46.22209" lon="5.91976">
        <ele>1119</ele>
        <time>2019-05-05T13:31:43Z</time>
      </trkpt>
      <trkpt lat="46.22207" lon="5.91977">
        <ele>1119</ele>
        <time>2019-05-05T13:31:45Z</time>
      </trkpt>
      <trkpt lat="46.22204" lon="5.91978">
        <ele>1118</ele>
        <time>2019-05-05T13:31:47Z</time>
      </trkpt>
      <trkpt lat="46.22201" lon="5.9198">
        <ele>1117</ele>
        <time>2019-05-05T13:31:50Z</time>
      </trkpt>
      <trkpt lat="46.22197" lon="5.91982">
        <ele>1116</ele>
        <time>2019-05-05T13:31:53Z</time>
      </trkpt>
      <trkpt lat="46.22192" lon="5.91983">
        <ele>1115</ele>
        <time>2019-05-05T13:31:57Z</time>
      </trkpt>
      <trkpt lat="46.2219" lon="5.91983">
        <ele>1114</ele>
        <time>2019-05-05T13:31:59Z</time>
      </trkpt>
      <trkpt lat="46.22187" lon="5.91985">
        <ele>1113</ele>
        <time>2019-05-05T13:32:01Z</time>
      </trkpt>
      <trkpt lat="46.22181" lon="5.91988">
        <ele>1111</ele>
        <time>2019-05-05T13:32:06Z</time>
      </trkpt>
      <trkpt lat="46.22177" lon="5.9199">
        <ele>1110</ele>
        <time>2019-05-05T13:32:09Z</time>
      </trkpt>
      <trkpt lat="46.22172" lon="5.91991">
        <ele>1108</ele>
        <time>2019-05-05T13:32:13Z</time>
      </trkpt>
      <trkpt lat="46.22169" lon="5.91991">
        <ele>1108</ele>
        <time>2019-05-05T13:32:15Z</time>
      </trkpt>
      <trkpt lat="46.22165" lon="5.91993">
        <ele>1106</ele>
        <time>2019-05-05T13:32:18Z</time>
      </trkpt>
      <trkpt lat="46.22161" lon="5.91996">
        <ele>1105</ele>
        <time>2019-05-05T13:32:21Z</time>
      </trkpt>
      <trkpt lat="46.22159" lon="5.91998">
        <ele>1104</ele>
        <time>2019-05-05T13:32:24Z</time>
      </trkpt>
      <trkpt lat="46.22157" lon="5.91999">
        <ele>1103</ele>
        <time>2019-05-05T13:32:25Z</time>
      </trkpt>
      <trkpt lat="46.22156" lon="5.92">
        <ele>1103</ele>
        <time>2019-05-05T13:32:26Z</time>
      </trkpt>
      <trkpt lat="46.22153" lon="5.92002">
        <ele>1101</ele>
        <time>2019-05-05T13:32:29Z</time>
      </trkpt>
      <trkpt lat="46.22151" lon="5.92004">
        <ele>1101</ele>
        <time>2019-05-05T13:32:30Z</time>
      </trkpt>
      <trkpt lat="46.2215" lon="5.92003">
        <ele>1101</ele>
        <time>2019-05-05T13:32:31Z</time>
      </trkpt>
      <trkpt lat="46.22148" lon="5.92003">
        <ele>1100</ele>
        <time>2019-05-05T13:32:33Z</time>
      </trkpt>
      <trkpt lat="46.22146" lon="5.92006">
        <ele>1099</ele>
        <time>2019-05-05T13:32:35Z</time>
      </trkpt>
      <trkpt lat="46.22144" lon="5.92009">
        <ele>1098</ele>
        <time>2019-05-05T13:32:37Z</time>
      </trkpt>
      <trkpt lat="46.22142" lon="5.92011">
        <ele>1097</ele>
        <time>2019-05-05T13:32:39Z</time>
      </trkpt>
      <trkpt lat="46.2214" lon="5.92014">
        <ele>1096</ele>
        <time>2019-05-05T13:32:41Z</time>
      </trkpt>
      <trkpt lat="46.2214" lon="5.92018">
        <ele>1095</ele>
        <time>2019-05-05T13:32:43Z</time>
      </trkpt>
      <trkpt lat="46.22139" lon="5.92019">
        <ele>1095</ele>
        <time>2019-05-05T13:32:44Z</time>
      </trkpt>
      <trkpt lat="46.2214" lon="5.92024">
        <ele>1094</ele>
        <time>2019-05-05T13:32:47Z</time>
      </trkpt>
      <trkpt lat="46.22141" lon="5.92031">
        <ele>1092</ele>
        <time>2019-05-05T13:32:50Z</time>
      </trkpt>
      <trkpt lat="46.22142" lon="5.92033">
        <ele>1092</ele>
        <time>2019-05-05T13:32:52Z</time>
      </trkpt>
      <trkpt lat="46.22142" lon="5.92035">
        <ele>1092</ele>
        <time>2019-05-05T13:32:53Z</time>
      </trkpt>
      <trkpt lat="46.22143" lon="5.92037">
        <ele>1091</ele>
        <time>2019-05-05T13:32:54Z</time>
      </trkpt>
      <trkpt lat="46.22147" lon="5.92043">
        <ele>1091</ele>
        <time>2019-05-05T13:32:58Z</time>
      </trkpt>
      <trkpt lat="46.22148" lon="5.92051">
        <ele>1089</ele>
        <time>2019-05-05T13:33:02Z</time>
      </trkpt>
      <trkpt lat="46.22148" lon="5.92054">
        <ele>1088</ele>
        <time>2019-05-05T13:33:04Z</time>
      </trkpt>
      <trkpt lat="46.22149" lon="5.92059">
        <ele>1087</ele>
        <time>2019-05-05T13:33:07Z</time>
      </trkpt>
      <trkpt lat="46.2215" lon="5.92064">
        <ele>1086</ele>
        <time>2019-05-05T13:33:09Z</time>
      </trkpt>
      <trkpt lat="46.22152" lon="5.92069">
        <ele>1085</ele>
        <time>2019-05-05T13:33:12Z</time>
      </trkpt>
      <trkpt lat="46.22155" lon="5.92074">
        <ele>1085</ele>
        <time>2019-05-05T13:33:15Z</time>
      </trkpt>
      <trkpt lat="46.22157" lon="5.92078">
        <ele>1084</ele>
        <time>2019-05-05T13:33:18Z</time>
      </trkpt>
      <trkpt lat="46.22158" lon="5.92081">
        <ele>1083</ele>
        <time>2019-05-05T13:33:19Z</time>
      </trkpt>
      <trkpt lat="46.22158" lon="5.92083">
        <ele>1083</ele>
        <time>2019-05-05T13:33:21Z</time>
      </trkpt>
      <trkpt lat="46.22159" lon="5.92091">
        <ele>1081</ele>
        <time>2019-05-05T13:33:25Z</time>
      </trkpt>
      <trkpt lat="46.22156" lon="5.92098">
        <ele>1079</ele>
        <time>2019-05-05T13:33:29Z</time>
      </trkpt>
      <trkpt lat="46.22152" lon="5.92105">
        <ele>1076</ele>
        <time>2019-05-05T13:33:34Z</time>
      </trkpt>
      <trkpt lat="46.22147" lon="5.92114">
        <ele>1072</ele>
        <time>2019-05-05T13:33:41Z</time>
      </trkpt>
      <trkpt lat="46.22141" lon="5.9212">
        <ele>1070</ele>
        <time>2019-05-05T13:33:46Z</time>
      </trkpt>
      <trkpt lat="46.22135" lon="5.92128">
        <ele>1066</ele>
        <time>2019-05-05T13:33:52Z</time>
      </trkpt>
      <trkpt lat="46.22133" lon="5.92132">
        <ele>1064</ele>
        <time>2019-05-05T13:33:55Z</time>
      </trkpt>
      <trkpt lat="46.22131" lon="5.92134">
        <ele>1064</ele>
        <time>2019-05-05T13:33:57Z</time>
      </trkpt>
      <trkpt lat="46.22129" lon="5.92137">
        <ele>1062</ele>
        <time>2019-05-05T13:33:59Z</time>
      </trkpt>
      <trkpt lat="46.22123" lon="5.92142">
        <ele>1060</ele>
        <time>2019-05-05T13:34:04Z</time>
      </trkpt>
      <trkpt lat="46.22118" lon="5.92147">
        <ele>1057</ele>
        <time>2019-05-05T13:34:09Z</time>
      </trkpt>
      <trkpt lat="46.22116" lon="5.92149">
        <ele>1056</ele>
        <time>2019-05-05T13:34:11Z</time>
      </trkpt>
      <trkpt lat="46.22112" lon="5.92153">
        <ele>1054</ele>
        <time>2019-05-05T13:34:14Z</time>
      </trkpt>
      <trkpt lat="46.22106" lon="5.92153">
        <ele>1053</ele>
        <time>2019-05-05T13:34:19Z</time>
      </trkpt>
      <trkpt lat="46.22102" lon="5.92155">
        <ele>1051</ele>
        <time>2019-05-05T13:34:22Z</time>
      </trkpt>
      <trkpt lat="46.221" lon="5.92157">
        <ele>1050</ele>
        <time>2019-05-05T13:34:24Z</time>
      </trkpt>
      <trkpt lat="46.22099" lon="5.92159">
        <ele>1049</ele>
        <time>2019-05-05T13:34:26Z</time>
      </trkpt>
      <trkpt lat="46.22094" lon="5.92166">
        <ele>1046</ele>
        <time>2019-05-05T13:34:31Z</time>
      </trkpt>
      <trkpt lat="46.22092" lon="5.92168">
        <ele>1045</ele>
        <time>2019-05-05T13:34:33Z</time>
      </trkpt>
      <trkpt lat="46.22078" lon="5.9216">
        <ele>1043</ele>
        <time>2019-05-05T13:34:44Z</time>
      </trkpt>
      <trkpt lat="46.22072" lon="5.92152">
        <ele>1043</ele>
        <time>2019-05-05T13:34:50Z</time>
      </trkpt>
      <trkpt lat="46.2207" lon="5.9215">
        <ele>1043</ele>
        <time>2019-05-05T13:34:52Z</time>
      </trkpt>
      <trkpt lat="46.22066" lon="5.92149">
        <ele>1042</ele>
        <time>2019-05-05T13:34:54Z</time>
      </trkpt>
      <trkpt lat="46.22063" lon="5.92147">
        <ele>1042</ele>
        <time>2019-05-05T13:34:57Z</time>
      </trkpt>
      <trkpt lat="46.22057" lon="5.92145">
        <ele>1041</ele>
        <time>2019-05-05T13:35:01Z</time>
      </trkpt>
      <trkpt lat="46.22056" lon="5.92143">
        <ele>1041</ele>
        <time>2019-05-05T13:35:02Z</time>
      </trkpt>
      <trkpt lat="46.22057" lon="5.92143">
        <ele>1041</ele>
        <time>2019-05-05T13:35:03Z</time>
      </trkpt>
      <trkpt lat="46.22057" lon="5.92142">
        <ele>1041</ele>
        <time>2019-05-05T13:35:03Z</time>
      </trkpt>
      <trkpt lat="46.22056" lon="5.92142">
        <ele>1041</ele>
        <time>2019-05-05T13:35:03Z</time>
      </trkpt>
      <trkpt lat="46.22061" lon="5.92131">
        <ele>1046</ele>
        <time>2019-05-05T13:35:10Z</time>
      </trkpt>
      <trkpt lat="46.22061" lon="5.92132">
        <ele>1045</ele>
        <time>2019-05-05T13:35:11Z</time>
      </trkpt>
      <trkpt lat="46.22062" lon="5.92134">
        <ele>1045</ele>
        <time>2019-05-05T13:35:12Z</time>
      </trkpt>
      <trkpt lat="46.2206" lon="5.92128">
        <ele>1046</ele>
        <time>2019-05-05T13:35:16Z</time>
      </trkpt>
      <trkpt lat="46.22054" lon="5.92124">
        <ele>1045</ele>
        <time>2019-05-05T13:35:21Z</time>
      </trkpt>
      <trkpt lat="46.22053" lon="5.92124">
        <ele>1045</ele>
        <time>2019-05-05T13:35:21Z</time>
      </trkpt>
      <trkpt lat="46.22052" lon="5.92124">
        <ele>1044</ele>
        <time>2019-05-05T13:35:22Z</time>
      </trkpt>
      <trkpt lat="46.22051" lon="5.92126">
        <ele>1044</ele>
        <time>2019-05-05T13:35:24Z</time>
      </trkpt>
      <trkpt lat="46.22055" lon="5.92127">
        <ele>1045</ele>
        <time>2019-05-05T13:35:27Z</time>
      </trkpt>
      <trkpt lat="46.22056" lon="5.92128">
        <ele>1045</ele>
        <time>2019-05-05T13:35:28Z</time>
      </trkpt>
      <trkpt lat="46.22057" lon="5.92128">
        <ele>1045</ele>
        <time>2019-05-05T13:35:28Z</time>
      </trkpt>
      <trkpt lat="46.22057" lon="5.9213">
        <ele>1045</ele>
        <time>2019-05-05T13:35:29Z</time>
      </trkpt>
      <trkpt lat="46.22052" lon="5.9213">
        <ele>1043</ele>
        <time>2019-05-05T13:35:33Z</time>
      </trkpt>
      <trkpt lat="46.22047" lon="5.92128">
        <ele>1042</ele>
        <time>2019-05-05T13:35:37Z</time>
      </trkpt>
      <trkpt lat="46.22045" lon="5.92128">
        <ele>1041</ele>
        <time>2019-05-05T13:35:38Z</time>
      </trkpt>
      <trkpt lat="46.22041" lon="5.92125">
        <ele>1041</ele>
        <time>2019-05-05T13:35:42Z</time>
      </trkpt>
      <trkpt lat="46.22039" lon="5.92119">
        <ele>1042</ele>
        <time>2019-05-05T13:35:45Z</time>
      </trkpt>
      <trkpt lat="46.22025" lon="5.92106">
        <ele>1040</ele>
        <time>2019-05-05T13:35:57Z</time>
      </trkpt>
      <trkpt lat="46.2202" lon="5.92099">
        <ele>1040</ele>
        <time>2019-05-05T13:36:02Z</time>
      </trkpt>
      <trkpt lat="46.22012" lon="5.92089">
        <ele>1040</ele>
        <time>2019-05-05T13:36:10Z</time>
      </trkpt>
      <trkpt lat="46.22011" lon="5.92087">
        <ele>1040</ele>
        <time>2019-05-05T13:36:11Z</time>
      </trkpt>
      <trkpt lat="46.22011" lon="5.92086">
        <ele>1040</ele>
        <time>2019-05-05T13:36:11Z</time>
      </trkpt>
      <trkpt lat="46.22009" lon="5.92079">
        <ele>1041</ele>
        <time>2019-05-05T13:36:15Z</time>
      </trkpt>
      <trkpt lat="46.22009" lon="5.92074">
        <ele>1042</ele>
        <time>2019-05-05T13:36:18Z</time>
      </trkpt>
      <trkpt lat="46.22008" lon="5.92063">
        <ele>1045</ele>
        <time>2019-05-05T13:36:24Z</time>
      </trkpt>
      <trkpt lat="46.22008" lon="5.92059">
        <ele>1046</ele>
        <time>2019-05-05T13:36:26Z</time>
      </trkpt>
      <trkpt lat="46.22" lon="5.92045">
        <ele>1047</ele>
        <time>2019-05-05T13:36:35Z</time>
      </trkpt>
      <trkpt lat="46.21992" lon="5.92038">
        <ele>1046</ele>
        <time>2019-05-05T13:36:41Z</time>
      </trkpt>
      <trkpt lat="46.2199" lon="5.92038">
        <ele>1045</ele>
        <time>2019-05-05T13:36:43Z</time>
      </trkpt>
      <trkpt lat="46.21986" lon="5.92033">
        <ele>1045</ele>
        <time>2019-05-05T13:36:47Z</time>
      </trkpt>
      <trkpt lat="46.21984" lon="5.92032">
        <ele>1045</ele>
        <time>2019-05-05T13:36:48Z</time>
      </trkpt>
      <trkpt lat="46.21983" lon="5.9203">
        <ele>1045</ele>
        <time>2019-05-05T13:36:50Z</time>
      </trkpt>
      <trkpt lat="46.21981" lon="5.92024">
        <ele>1046</ele>
        <time>2019-05-05T13:36:53Z</time>
      </trkpt>
      <trkpt lat="46.21979" lon="5.92017">
        <ele>1047</ele>
        <time>2019-05-05T13:36:57Z</time>
      </trkpt>
      <trkpt lat="46.21972" lon="5.91991">
        <ele>1049</ele>
        <time>2019-05-05T13:37:11Z</time>
      </trkpt>
      <trkpt lat="46.21966" lon="5.91982">
        <ele>1049</ele>
        <time>2019-05-05T13:37:17Z</time>
      </trkpt>
      <trkpt lat="46.21954" lon="5.91961">
        <ele>1050</ele>
        <time>2019-05-05T13:37:31Z</time>
      </trkpt>
      <trkpt lat="46.21952" lon="5.91954">
        <ele>1050</ele>
        <time>2019-05-05T13:37:34Z</time>
      </trkpt>
      <trkpt lat="46.21951" lon="5.91953">
        <ele>1050</ele>
        <time>2019-05-05T13:37:35Z</time>
      </trkpt>
      <trkpt lat="46.2195" lon="5.91952">
        <ele>1050</ele>
        <time>2019-05-05T13:37:36Z</time>
      </trkpt>
      <trkpt lat="46.21948" lon="5.91947">
        <ele>1050</ele>
        <time>2019-05-05T13:37:39Z</time>
      </trkpt>
      <trkpt lat="46.21946" lon="5.91944">
        <ele>1050</ele>
        <time>2019-05-05T13:37:41Z</time>
      </trkpt>
      <trkpt lat="46.21936" lon="5.91936">
        <ele>1049</ele>
        <time>2019-05-05T13:37:49Z</time>
      </trkpt>
      <trkpt lat="46.21935" lon="5.91934">
        <ele>1049</ele>
        <time>2019-05-05T13:37:51Z</time>
      </trkpt>
      <trkpt lat="46.21932" lon="5.91933">
        <ele>1048</ele>
        <time>2019-05-05T13:37:53Z</time>
      </trkpt>
      <trkpt lat="46.21917" lon="5.91924">
        <ele>1043</ele>
        <time>2019-05-05T13:38:05Z</time>
      </trkpt>
      <trkpt lat="46.21911" lon="5.91916">
        <ele>1043</ele>
        <time>2019-05-05T13:38:11Z</time>
      </trkpt>
      <trkpt lat="46.21906" lon="5.91909">
        <ele>1042</ele>
        <time>2019-05-05T13:38:16Z</time>
      </trkpt>
      <trkpt lat="46.21905" lon="5.91906">
        <ele>1043</ele>
        <time>2019-05-05T13:38:18Z</time>
      </trkpt>
      <trkpt lat="46.219" lon="5.91902">
        <ele>1041</ele>
        <time>2019-05-05T13:38:22Z</time>
      </trkpt>
      <trkpt lat="46.21899" lon="5.91901">
        <ele>1041</ele>
        <time>2019-05-05T13:38:23Z</time>
      </trkpt>
      <trkpt lat="46.21888" lon="5.91887">
        <ele>1039</ele>
        <time>2019-05-05T13:38:34Z</time>
      </trkpt>
      <trkpt lat="46.21878" lon="5.91867">
        <ele>1039</ele>
        <time>2019-05-05T13:38:46Z</time>
      </trkpt>
      <trkpt lat="46.21866" lon="5.91845">
        <ele>1039</ele>
        <time>2019-05-05T13:39:00Z</time>
      </trkpt>
      <trkpt lat="46.21861" lon="5.9182">
        <ele>1043</ele>
        <time>2019-05-05T13:39:13Z</time>
      </trkpt>
      <trkpt lat="46.2185" lon="5.91795">
        <ele>1046</ele>
        <time>2019-05-05T13:39:28Z</time>
      </trkpt>
      <trkpt lat="46.21849" lon="5.91792">
        <ele>1046</ele>
        <time>2019-05-05T13:39:30Z</time>
      </trkpt>
      <trkpt lat="46.21839" lon="5.91768">
        <ele>1049</ele>
        <time>2019-05-05T13:39:44Z</time>
      </trkpt>
      <trkpt lat="46.21829" lon="5.91745">
        <ele>1053</ele>
        <time>2019-05-05T13:39:58Z</time>
      </trkpt>
      <trkpt lat="46.21816" lon="5.91724">
        <ele>1055</ele>
        <time>2019-05-05T13:40:12Z</time>
      </trkpt>
      <trkpt lat="46.21814" lon="5.91718">
        <ele>1056</ele>
        <time>2019-05-05T13:40:15Z</time>
      </trkpt>
      <trkpt lat="46.21813" lon="5.91714">
        <ele>1057</ele>
        <time>2019-05-05T13:40:18Z</time>
      </trkpt>
      <trkpt lat="46.21806" lon="5.91688">
        <ele>1063</ele>
        <time>2019-05-05T13:40:32Z</time>
      </trkpt>
      <trkpt lat="46.21794" lon="5.91674">
        <ele>1065</ele>
        <time>2019-05-05T13:40:43Z</time>
      </trkpt>
      <trkpt lat="46.21787" lon="5.91669">
        <ele>1065</ele>
        <time>2019-05-05T13:40:49Z</time>
      </trkpt>
      <trkpt lat="46.21782" lon="5.91665">
        <ele>1065</ele>
        <time>2019-05-05T13:40:53Z</time>
      </trkpt>
      <trkpt lat="46.21763" lon="5.91659">
        <ele>1064</ele>
        <time>2019-05-05T13:41:07Z</time>
      </trkpt>
      <trkpt lat="46.21756" lon="5.91661">
        <ele>1063</ele>
        <time>2019-05-05T13:41:12Z</time>
      </trkpt>
      <trkpt lat="46.21744" lon="5.91658">
        <ele>1064</ele>
        <time>2019-05-05T13:41:21Z</time>
      </trkpt>
      <trkpt lat="46.21738" lon="5.91655">
        <ele>1064</ele>
        <time>2019-05-05T13:41:26Z</time>
      </trkpt>
      <trkpt lat="46.21737" lon="5.91655">
        <ele>1064</ele>
        <time>2019-05-05T13:41:26Z</time>
      </trkpt>
      <trkpt lat="46.21736" lon="5.91652">
        <ele>1066</ele>
        <time>2019-05-05T13:41:29Z</time>
      </trkpt>
      <trkpt lat="46.21733" lon="5.91649">
        <ele>1067</ele>
        <time>2019-05-05T13:41:31Z</time>
      </trkpt>
      <trkpt lat="46.21728" lon="5.91648">
        <ele>1067</ele>
        <time>2019-05-05T13:41:35Z</time>
      </trkpt>
      <trkpt lat="46.21726" lon="5.91647">
        <ele>1067</ele>
        <time>2019-05-05T13:41:36Z</time>
      </trkpt>
      <trkpt lat="46.21719" lon="5.91649">
        <ele>1066</ele>
        <time>2019-05-05T13:41:41Z</time>
      </trkpt>
      <trkpt lat="46.21704" lon="5.91664">
        <ele>1059</ele>
        <time>2019-05-05T13:41:56Z</time>
      </trkpt>
      <trkpt lat="46.21693" lon="5.91665">
        <ele>1058</ele>
        <time>2019-05-05T13:42:04Z</time>
      </trkpt>
      <trkpt lat="46.21685" lon="5.91657">
        <ele>1060</ele>
        <time>2019-05-05T13:42:10Z</time>
      </trkpt>
      <trkpt lat="46.21666" lon="5.91649">
        <ele>1061</ele>
        <time>2019-05-05T13:42:25Z</time>
      </trkpt>
      <trkpt lat="46.21662" lon="5.91647">
        <ele>1062</ele>
        <time>2019-05-05T13:42:28Z</time>
      </trkpt>
      <trkpt lat="46.21643" lon="5.91639">
        <ele>1062</ele>
        <time>2019-05-05T13:42:42Z</time>
      </trkpt>
      <trkpt lat="46.21639" lon="5.91639">
        <ele>1062</ele>
        <time>2019-05-05T13:42:45Z</time>
      </trkpt>
      <trkpt lat="46.21634" lon="5.91638">
        <ele>1061</ele>
        <time>2019-05-05T13:42:49Z</time>
      </trkpt>
      <trkpt lat="46.21616" lon="5.91627">
        <ele>1063</ele>
        <time>2019-05-05T13:43:03Z</time>
      </trkpt>
      <trkpt lat="46.21612" lon="5.91624">
        <ele>1063</ele>
        <time>2019-05-05T13:43:06Z</time>
      </trkpt>
      <trkpt lat="46.21603" lon="5.91619">
        <ele>1064</ele>
        <time>2019-05-05T13:43:13Z</time>
      </trkpt>
      <trkpt lat="46.21585" lon="5.91602">
        <ele>1065</ele>
        <time>2019-05-05T13:43:29Z</time>
      </trkpt>
      <trkpt lat="46.2157" lon="5.91593">
        <ele>1064</ele>
        <time>2019-05-05T13:43:40Z</time>
      </trkpt>
      <trkpt lat="46.21553" lon="5.91583">
        <ele>1062</ele>
        <time>2019-05-05T13:43:54Z</time>
      </trkpt>
      <trkpt lat="46.21534" lon="5.91576">
        <ele>1060</ele>
        <time>2019-05-05T13:44:08Z</time>
      </trkpt>
      <trkpt lat="46.21521" lon="5.91567">
        <ele>1059</ele>
        <time>2019-05-05T13:44:18Z</time>
      </trkpt>
      <trkpt lat="46.21506" lon="5.91549">
        <ele>1063</ele>
        <time>2019-05-05T13:44:32Z</time>
      </trkpt>
      <trkpt lat="46.21498" lon="5.91537">
        <ele>1066</ele>
        <time>2019-05-05T13:44:41Z</time>
      </trkpt>
      <trkpt lat="46.2148" lon="5.91524">
        <ele>1068</ele>
        <time>2019-05-05T13:44:56Z</time>
      </trkpt>
      <trkpt lat="46.21477" lon="5.91523">
        <ele>1068</ele>
        <time>2019-05-05T13:44:58Z</time>
      </trkpt>
      <trkpt lat="46.2146" lon="5.91519">
        <ele>1067</ele>
        <time>2019-05-05T13:45:11Z</time>
      </trkpt>
      <trkpt lat="46.21443" lon="5.91532">
        <ele>1060</ele>
        <time>2019-05-05T13:45:25Z</time>
      </trkpt>
      <trkpt lat="46.21424" lon="5.91525">
        <ele>1059</ele>
        <time>2019-05-05T13:45:39Z</time>
      </trkpt>
      <trkpt lat="46.21405" lon="5.91516">
        <ele>1057</ele>
        <time>2019-05-05T13:45:53Z</time>
      </trkpt>
      <trkpt lat="46.21388" lon="5.91505">
        <ele>1057</ele>
        <time>2019-05-05T13:46:07Z</time>
      </trkpt>
      <trkpt lat="46.21374" lon="5.9149">
        <ele>1058</ele>
        <time>2019-05-05T13:46:20Z</time>
      </trkpt>
      <trkpt lat="46.21361" lon="5.9148">
        <ele>1058</ele>
        <time>2019-05-05T13:46:30Z</time>
      </trkpt>
      <trkpt lat="46.21345" lon="5.91465">
        <ele>1057</ele>
        <time>2019-05-05T13:46:44Z</time>
      </trkpt>
      <trkpt lat="46.2133" lon="5.91448">
        <ele>1057</ele>
        <time>2019-05-05T13:46:58Z</time>
      </trkpt>
      <trkpt lat="46.21318" lon="5.91436">
        <ele>1056</ele>
        <time>2019-05-05T13:47:08Z</time>
      </trkpt>
      <trkpt lat="46.21303" lon="5.91418">
        <ele>1055</ele>
        <time>2019-05-05T13:47:22Z</time>
      </trkpt>
      <trkpt lat="46.2129" lon="5.91399">
        <ele>1055</ele>
        <time>2019-05-05T13:47:36Z</time>
      </trkpt>
      <trkpt lat="46.21282" lon="5.91387">
        <ele>1056</ele>
        <time>2019-05-05T13:47:44Z</time>
      </trkpt>
      <trkpt lat="46.21273" lon="5.91364">
        <ele>1058</ele>
        <time>2019-05-05T13:47:57Z</time>
      </trkpt>
      <trkpt lat="46.2127" lon="5.9136">
        <ele>1059</ele>
        <time>2019-05-05T13:48:00Z</time>
      </trkpt>
      <trkpt lat="46.21263" lon="5.91345">
        <ele>1060</ele>
        <time>2019-05-05T13:48:09Z</time>
      </trkpt>
      <trkpt lat="46.21253" lon="5.91322">
        <ele>1060</ele>
        <time>2019-05-05T13:48:23Z</time>
      </trkpt>
      <trkpt lat="46.21239" lon="5.91298">
        <ele>1059</ele>
        <time>2019-05-05T13:48:39Z</time>
      </trkpt>
      <trkpt lat="46.21226" lon="5.91279">
        <ele>1057</ele>
        <time>2019-05-05T13:48:52Z</time>
      </trkpt>
      <trkpt lat="46.21224" lon="5.91276">
        <ele>1057</ele>
        <time>2019-05-05T13:48:54Z</time>
      </trkpt>
      <trkpt lat="46.21216" lon="5.91249">
        <ele>1057</ele>
        <time>2019-05-05T13:49:09Z</time>
      </trkpt>
      <trkpt lat="46.21209" lon="5.91222">
        <ele>1056</ele>
        <time>2019-05-05T13:49:23Z</time>
      </trkpt>
      <trkpt lat="46.21203" lon="5.91197">
        <ele>1056</ele>
        <time>2019-05-05T13:49:36Z</time>
      </trkpt>
      <trkpt lat="46.21197" lon="5.91172">
        <ele>1055</ele>
        <time>2019-05-05T13:49:50Z</time>
      </trkpt>
      <trkpt lat="46.21196" lon="5.91168">
        <ele>1054</ele>
        <time>2019-05-05T13:49:52Z</time>
      </trkpt>
      <trkpt lat="46.21196" lon="5.9114">
        <ele>1055</ele>
        <time>2019-05-05T13:50:06Z</time>
      </trkpt>
      <trkpt lat="46.21198" lon="5.9112">
        <ele>1057</ele>
        <time>2019-05-05T13:50:17Z</time>
      </trkpt>
      <trkpt lat="46.212" lon="5.91091">
        <ele>1059</ele>
        <time>2019-05-05T13:50:31Z</time>
      </trkpt>
      <trkpt lat="46.21199" lon="5.91065">
        <ele>1060</ele>
        <time>2019-05-05T13:50:44Z</time>
      </trkpt>
      <trkpt lat="46.21199" lon="5.91058">
        <ele>1061</ele>
        <time>2019-05-05T13:50:48Z</time>
      </trkpt>
      <trkpt lat="46.21201" lon="5.91032">
        <ele>1063</ele>
        <time>2019-05-05T13:51:01Z</time>
      </trkpt>
      <trkpt lat="46.21201" lon="5.91006">
        <ele>1066</ele>
        <time>2019-05-05T13:51:14Z</time>
      </trkpt>
      <trkpt lat="46.212" lon="5.9098">
        <ele>1069</ele>
        <time>2019-05-05T13:51:27Z</time>
      </trkpt>
      <trkpt lat="46.212" lon="5.90953">
        <ele>1072</ele>
        <time>2019-05-05T13:51:41Z</time>
      </trkpt>
      <trkpt lat="46.212" lon="5.90948">
        <ele>1073</ele>
        <time>2019-05-05T13:51:43Z</time>
      </trkpt>
      <trkpt lat="46.21203" lon="5.90921">
        <ele>1080</ele>
        <time>2019-05-05T13:51:58Z</time>
      </trkpt>
      <trkpt lat="46.21201" lon="5.90899">
        <ele>1085</ele>
        <time>2019-05-05T13:52:10Z</time>
      </trkpt>
      <trkpt lat="46.21199" lon="5.90888">
        <ele>1087</ele>
        <time>2019-05-05T13:52:15Z</time>
      </trkpt>
      <trkpt lat="46.21192" lon="5.90866">
        <ele>1090</ele>
        <time>2019-05-05T13:52:27Z</time>
      </trkpt>
      <trkpt lat="46.21186" lon="5.90857">
        <ele>1091</ele>
        <time>2019-05-05T13:52:34Z</time>
      </trkpt>
      <trkpt lat="46.21177" lon="5.90852">
        <ele>1090</ele>
        <time>2019-05-05T13:52:40Z</time>
      </trkpt>
      <trkpt lat="46.21176" lon="5.90851">
        <ele>1089</ele>
        <time>2019-05-05T13:52:42Z</time>
      </trkpt>
      <trkpt lat="46.21171" lon="5.90851">
        <ele>1088</ele>
        <time>2019-05-05T13:52:46Z</time>
      </trkpt>
      <trkpt lat="46.21154" lon="5.90848">
        <ele>1083</ele>
        <time>2019-05-05T13:52:58Z</time>
      </trkpt>
      <trkpt lat="46.2115" lon="5.90845">
        <ele>1083</ele>
        <time>2019-05-05T13:53:02Z</time>
      </trkpt>
      <trkpt lat="46.21135" lon="5.9083">
        <ele>1083</ele>
        <time>2019-05-05T13:53:15Z</time>
      </trkpt>
      <trkpt lat="46.21128" lon="5.90824">
        <ele>1083</ele>
        <time>2019-05-05T13:53:21Z</time>
      </trkpt>
      <trkpt lat="46.21119" lon="5.90816">
        <ele>1083</ele>
        <time>2019-05-05T13:53:28Z</time>
      </trkpt>
      <trkpt lat="46.21101" lon="5.90804">
        <ele>1082</ele>
        <time>2019-05-05T13:53:43Z</time>
      </trkpt>
      <trkpt lat="46.21098" lon="5.90801">
        <ele>1082</ele>
        <time>2019-05-05T13:53:45Z</time>
      </trkpt>
      <trkpt lat="46.21092" lon="5.90796">
        <ele>1082</ele>
        <time>2019-05-05T13:53:50Z</time>
      </trkpt>
      <trkpt lat="46.21078" lon="5.90777">
        <ele>1085</ele>
        <time>2019-05-05T13:54:04Z</time>
      </trkpt>
      <trkpt lat="46.21075" lon="5.90768">
        <ele>1087</ele>
        <time>2019-05-05T13:54:09Z</time>
      </trkpt>
      <trkpt lat="46.2107" lon="5.90754">
        <ele>1091</ele>
        <time>2019-05-05T13:54:18Z</time>
      </trkpt>
      <trkpt lat="46.21067" lon="5.90741">
        <ele>1094</ele>
        <time>2019-05-05T13:54:25Z</time>
      </trkpt>
      <trkpt lat="46.21062" lon="5.90729">
        <ele>1097</ele>
        <time>2019-05-05T13:54:32Z</time>
      </trkpt>
      <trkpt lat="46.21047" lon="5.9071">
        <ele>1099</ele>
        <time>2019-05-05T13:54:46Z</time>
      </trkpt>
      <trkpt lat="46.21044" lon="5.90708">
        <ele>1099</ele>
        <time>2019-05-05T13:54:49Z</time>
      </trkpt>
      <trkpt lat="46.21026" lon="5.90698">
        <ele>1098</ele>
        <time>2019-05-05T13:55:03Z</time>
      </trkpt>
      <trkpt lat="46.21017" lon="5.90693">
        <ele>1098</ele>
        <time>2019-05-05T13:55:10Z</time>
      </trkpt>
      <trkpt lat="46.2101" lon="5.90688">
        <ele>1099</ele>
        <time>2019-05-05T13:55:15Z</time>
      </trkpt>
      <trkpt lat="46.20998" lon="5.90683">
        <ele>1099</ele>
        <time>2019-05-05T13:55:24Z</time>
      </trkpt>
      <trkpt lat="46.20992" lon="5.90687">
        <ele>1096</ele>
        <time>2019-05-05T13:55:29Z</time>
      </trkpt>
      <trkpt lat="46.20989" lon="5.90682">
        <ele>1098</ele>
        <time>2019-05-05T13:55:33Z</time>
      </trkpt>
      <trkpt lat="46.20986" lon="5.9068">
        <ele>1098</ele>
        <time>2019-05-05T13:55:35Z</time>
      </trkpt>
      <trkpt lat="46.20979" lon="5.90673">
        <ele>1100</ele>
        <time>2019-05-05T13:55:42Z</time>
      </trkpt>
      <trkpt lat="46.20962" lon="5.90658">
        <ele>1104</ele>
        <time>2019-05-05T13:55:56Z</time>
      </trkpt>
      <trkpt lat="46.20951" lon="5.90651">
        <ele>1104</ele>
        <time>2019-05-05T13:56:05Z</time>
      </trkpt>
      <trkpt lat="46.20937" lon="5.90647">
        <ele>1104</ele>
        <time>2019-05-05T13:56:15Z</time>
      </trkpt>
      <trkpt lat="46.20929" lon="5.90644">
        <ele>1105</ele>
        <time>2019-05-05T13:56:22Z</time>
      </trkpt>
      <trkpt lat="46.20918" lon="5.90638">
        <ele>1107</ele>
        <time>2019-05-05T13:56:30Z</time>
      </trkpt>
      <trkpt lat="46.20904" lon="5.90632">
        <ele>1109</ele>
        <time>2019-05-05T13:56:41Z</time>
      </trkpt>
      <trkpt lat="46.20888" lon="5.90626">
        <ele>1111</ele>
        <time>2019-05-05T13:56:53Z</time>
      </trkpt>
      <trkpt lat="46.20871" lon="5.90622">
        <ele>1111</ele>
        <time>2019-05-05T13:57:05Z</time>
      </trkpt>
      <trkpt lat="46.20857" lon="5.9062">
        <ele>1111</ele>
        <time>2019-05-05T13:57:15Z</time>
      </trkpt>
      <trkpt lat="46.20843" lon="5.90619">
        <ele>1111</ele>
        <time>2019-05-05T13:57:26Z</time>
      </trkpt>
      <trkpt lat="46.20824" lon="5.90614">
        <ele>1112</ele>
        <time>2019-05-05T13:57:39Z</time>
      </trkpt>
      <trkpt lat="46.20819" lon="5.90613">
        <ele>1112</ele>
        <time>2019-05-05T13:57:43Z</time>
      </trkpt>
      <trkpt lat="46.20811" lon="5.90609">
        <ele>1113</ele>
        <time>2019-05-05T13:57:49Z</time>
      </trkpt>
      <trkpt lat="46.20797" lon="5.90602">
        <ele>1115</ele>
        <time>2019-05-05T13:58:00Z</time>
      </trkpt>
      <trkpt lat="46.20777" lon="5.90596">
        <ele>1116</ele>
        <time>2019-05-05T13:58:14Z</time>
      </trkpt>
      <trkpt lat="46.20775" lon="5.90595">
        <ele>1116</ele>
        <time>2019-05-05T13:58:16Z</time>
      </trkpt>
      <trkpt lat="46.20759" lon="5.90587">
        <ele>1116</ele>
        <time>2019-05-05T13:58:29Z</time>
      </trkpt>
      <trkpt lat="46.20742" lon="5.90583">
        <ele>1115</ele>
        <time>2019-05-05T13:58:41Z</time>
      </trkpt>
      <trkpt lat="46.20733" lon="5.90577">
        <ele>1115</ele>
        <time>2019-05-05T13:58:48Z</time>
      </trkpt>
      <trkpt lat="46.20716" lon="5.90566">
        <ele>1115</ele>
        <time>2019-05-05T13:59:01Z</time>
      </trkpt>
      <trkpt lat="46.20713" lon="5.90564">
        <ele>1115</ele>
        <time>2019-05-05T13:59:04Z</time>
      </trkpt>
      <trkpt lat="46.20703" lon="5.90554">
        <ele>1116</ele>
        <time>2019-05-05T13:59:13Z</time>
      </trkpt>
      <trkpt lat="46.20686" lon="5.90539">
        <ele>1117</ele>
        <time>2019-05-05T13:59:27Z</time>
      </trkpt>
      <trkpt lat="46.20673" lon="5.90528">
        <ele>1116</ele>
        <time>2019-05-05T13:59:38Z</time>
      </trkpt>
      <trkpt lat="46.20657" lon="5.90511">
        <ele>1116</ele>
        <time>2019-05-05T13:59:52Z</time>
      </trkpt>
      <trkpt lat="46.20651" lon="5.90503">
        <ele>1117</ele>
        <time>2019-05-05T13:59:58Z</time>
      </trkpt>
      <trkpt lat="46.20643" lon="5.90488">
        <ele>1119</ele>
        <time>2019-05-05T14:00:08Z</time>
      </trkpt>
      <trkpt lat="46.20634" lon="5.90478">
        <ele>1119</ele>
        <time>2019-05-05T14:00:16Z</time>
      </trkpt>
      <trkpt lat="46.20624" lon="5.9046">
        <ele>1121</ele>
        <time>2019-05-05T14:00:27Z</time>
      </trkpt>
      <trkpt lat="46.20613" lon="5.90439">
        <ele>1124</ele>
        <time>2019-05-05T14:00:41Z</time>
      </trkpt>
      <trkpt lat="46.20609" lon="5.90432">
        <ele>1125</ele>
        <time>2019-05-05T14:00:46Z</time>
      </trkpt>
      <trkpt lat="46.20598" lon="5.90407">
        <ele>1127</ele>
        <time>2019-05-05T14:01:00Z</time>
      </trkpt>
      <trkpt lat="46.20588" lon="5.90392">
        <ele>1127</ele>
        <time>2019-05-05T14:01:11Z</time>
      </trkpt>
      <trkpt lat="46.20576" lon="5.90373">
        <ele>1128</ele>
        <time>2019-05-05T14:01:24Z</time>
      </trkpt>
      <trkpt lat="46.20573" lon="5.90367">
        <ele>1129</ele>
        <time>2019-05-05T14:01:27Z</time>
      </trkpt>
      <trkpt lat="46.20563" lon="5.90343">
        <ele>1132</ele>
        <time>2019-05-05T14:01:42Z</time>
      </trkpt>
      <trkpt lat="46.20557" lon="5.90329">
        <ele>1133</ele>
        <time>2019-05-05T14:01:50Z</time>
      </trkpt>
      <trkpt lat="46.20549" lon="5.90313">
        <ele>1135</ele>
        <time>2019-05-05T14:01:59Z</time>
      </trkpt>
      <trkpt lat="46.20544" lon="5.90304">
        <ele>1136</ele>
        <time>2019-05-05T14:02:06Z</time>
      </trkpt>
      <trkpt lat="46.20534" lon="5.90281">
        <ele>1139</ele>
        <time>2019-05-05T14:02:19Z</time>
      </trkpt>
      <trkpt lat="46.20533" lon="5.90278">
        <ele>1139</ele>
        <time>2019-05-05T14:02:21Z</time>
      </trkpt>
      <trkpt lat="46.20518" lon="5.90259">
        <ele>1140</ele>
        <time>2019-05-05T14:02:35Z</time>
      </trkpt>
      <trkpt lat="46.20516" lon="5.90257">
        <ele>1141</ele>
        <time>2019-05-05T14:02:37Z</time>
      </trkpt>
      <trkpt lat="46.20499" lon="5.90244">
        <ele>1141</ele>
        <time>2019-05-05T14:02:51Z</time>
      </trkpt>
      <trkpt lat="46.20492" lon="5.90239">
        <ele>1141</ele>
        <time>2019-05-05T14:02:57Z</time>
      </trkpt>
      <trkpt lat="46.20482" lon="5.9023">
        <ele>1142</ele>
        <time>2019-05-05T14:03:06Z</time>
      </trkpt>
      <trkpt lat="46.20467" lon="5.90214">
        <ele>1144</ele>
        <time>2019-05-05T14:03:19Z</time>
      </trkpt>
      <trkpt lat="46.20458" lon="5.90204">
        <ele>1145</ele>
        <time>2019-05-05T14:03:27Z</time>
      </trkpt>
      <trkpt lat="46.20446" lon="5.90193">
        <ele>1145</ele>
        <time>2019-05-05T14:03:37Z</time>
      </trkpt>
      <trkpt lat="46.20435" lon="5.90182">
        <ele>1146</ele>
        <time>2019-05-05T14:03:47Z</time>
      </trkpt>
      <trkpt lat="46.20423" lon="5.90166">
        <ele>1147</ele>
        <time>2019-05-05T14:03:59Z</time>
      </trkpt>
      <trkpt lat="46.20413" lon="5.90156">
        <ele>1147</ele>
        <time>2019-05-05T14:04:08Z</time>
      </trkpt>
      <trkpt lat="46.20398" lon="5.90138">
        <ele>1148</ele>
        <time>2019-05-05T14:04:22Z</time>
      </trkpt>
      <trkpt lat="46.20389" lon="5.90129">
        <ele>1148</ele>
        <time>2019-05-05T14:04:30Z</time>
      </trkpt>
      <trkpt lat="46.20378" lon="5.90119">
        <ele>1148</ele>
        <time>2019-05-05T14:04:39Z</time>
      </trkpt>
      <trkpt lat="46.20367" lon="5.901">
        <ele>1149</ele>
        <time>2019-05-05T14:04:52Z</time>
      </trkpt>
      <trkpt lat="46.20354" lon="5.9008">
        <ele>1151</ele>
        <time>2019-05-05T14:05:05Z</time>
      </trkpt>
      <trkpt lat="46.20352" lon="5.90077">
        <ele>1151</ele>
        <time>2019-05-05T14:05:08Z</time>
      </trkpt>
      <trkpt lat="46.20339" lon="5.90064">
        <ele>1150</ele>
        <time>2019-05-05T14:05:19Z</time>
      </trkpt>
      <trkpt lat="46.20323" lon="5.90047">
        <ele>1149</ele>
        <time>2019-05-05T14:05:33Z</time>
      </trkpt>
      <trkpt lat="46.20309" lon="5.90026">
        <ele>1149</ele>
        <time>2019-05-05T14:05:48Z</time>
      </trkpt>
      <trkpt lat="46.20307" lon="5.90023">
        <ele>1149</ele>
        <time>2019-05-05T14:05:50Z</time>
      </trkpt>
      <trkpt lat="46.20297" lon="5.9">
        <ele>1152</ele>
        <time>2019-05-05T14:06:04Z</time>
      </trkpt>
      <trkpt lat="46.20294" lon="5.89994">
        <ele>1152</ele>
        <time>2019-05-05T14:06:07Z</time>
      </trkpt>
      <trkpt lat="46.20287" lon="5.89973">
        <ele>1155</ele>
        <time>2019-05-05T14:06:19Z</time>
      </trkpt>
      <trkpt lat="46.2028" lon="5.89959">
        <ele>1157</ele>
        <time>2019-05-05T14:06:28Z</time>
      </trkpt>
      <trkpt lat="46.20267" lon="5.89941">
        <ele>1158</ele>
        <time>2019-05-05T14:06:41Z</time>
      </trkpt>
      <trkpt lat="46.20263" lon="5.89937">
        <ele>1158</ele>
        <time>2019-05-05T14:06:45Z</time>
      </trkpt>
      <trkpt lat="46.20256" lon="5.89929">
        <ele>1158</ele>
        <time>2019-05-05T14:06:51Z</time>
      </trkpt>
      <trkpt lat="46.20243" lon="5.89919">
        <ele>1157</ele>
        <time>2019-05-05T14:07:01Z</time>
      </trkpt>
      <trkpt lat="46.20226" lon="5.89904">
        <ele>1156</ele>
        <time>2019-05-05T14:07:16Z</time>
      </trkpt>
      <trkpt lat="46.20212" lon="5.89887">
        <ele>1157</ele>
        <time>2019-05-05T14:07:29Z</time>
      </trkpt>
      <trkpt lat="46.20197" lon="5.89868">
        <ele>1158</ele>
        <time>2019-05-05T14:07:44Z</time>
      </trkpt>
      <trkpt lat="46.2018" lon="5.89851">
        <ele>1159</ele>
        <time>2019-05-05T14:07:59Z</time>
      </trkpt>
      <trkpt lat="46.20165" lon="5.89836">
        <ele>1163</ele>
        <time>2019-05-05T14:08:12Z</time>
      </trkpt>
      <trkpt lat="46.20149" lon="5.89823">
        <ele>1166</ele>
        <time>2019-05-05T14:08:25Z</time>
      </trkpt>
      <trkpt lat="46.20131" lon="5.89811">
        <ele>1169</ele>
        <time>2019-05-05T14:08:40Z</time>
      </trkpt>
      <trkpt lat="46.20114" lon="5.89798">
        <ele>1172</ele>
        <time>2019-05-05T14:08:54Z</time>
      </trkpt>
      <trkpt lat="46.20096" lon="5.8979">
        <ele>1173</ele>
        <time>2019-05-05T14:09:07Z</time>
      </trkpt>
      <trkpt lat="46.20077" lon="5.89782">
        <ele>1175</ele>
        <time>2019-05-05T14:09:22Z</time>
      </trkpt>
      <trkpt lat="46.20059" lon="5.89785">
        <ele>1173</ele>
        <time>2019-05-05T14:09:35Z</time>
      </trkpt>
      <trkpt lat="46.20039" lon="5.89792">
        <ele>1171</ele>
        <time>2019-05-05T14:09:50Z</time>
      </trkpt>
      <trkpt lat="46.20018" lon="5.89788">
        <ele>1171</ele>
        <time>2019-05-05T14:10:05Z</time>
      </trkpt>
      <trkpt lat="46.20002" lon="5.8978">
        <ele>1170</ele>
        <time>2019-05-05T14:10:17Z</time>
      </trkpt>
      <trkpt lat="46.19983" lon="5.89774">
        <ele>1167</ele>
        <time>2019-05-05T14:10:31Z</time>
      </trkpt>
      <trkpt lat="46.19966" lon="5.89763">
        <ele>1167</ele>
        <time>2019-05-05T14:10:45Z</time>
      </trkpt>
      <trkpt lat="46.1995" lon="5.89748">
        <ele>1167</ele>
        <time>2019-05-05T14:10:59Z</time>
      </trkpt>
      <trkpt lat="46.19934" lon="5.89733">
        <ele>1167</ele>
        <time>2019-05-05T14:11:12Z</time>
      </trkpt>
      <trkpt lat="46.1992" lon="5.89716">
        <ele>1166</ele>
        <time>2019-05-05T14:11:25Z</time>
      </trkpt>
      <trkpt lat="46.19905" lon="5.89697">
        <ele>1166</ele>
        <time>2019-05-05T14:11:40Z</time>
      </trkpt>
      <trkpt lat="46.19891" lon="5.89677">
        <ele>1167</ele>
        <time>2019-05-05T14:11:54Z</time>
      </trkpt>
      <trkpt lat="46.19878" lon="5.89658">
        <ele>1168</ele>
        <time>2019-05-05T14:12:08Z</time>
      </trkpt>
      <trkpt lat="46.19863" lon="5.89641">
        <ele>1168</ele>
        <time>2019-05-05T14:12:22Z</time>
      </trkpt>
      <trkpt lat="46.19848" lon="5.89624">
        <ele>1168</ele>
        <time>2019-05-05T14:12:35Z</time>
      </trkpt>
      <trkpt lat="46.19838" lon="5.89613">
        <ele>1168</ele>
        <time>2019-05-05T14:12:44Z</time>
      </trkpt>
      <trkpt lat="46.19822" lon="5.89595">
        <ele>1168</ele>
        <time>2019-05-05T14:12:59Z</time>
      </trkpt>
      <trkpt lat="46.19809" lon="5.89573">
        <ele>1169</ele>
        <time>2019-05-05T14:13:14Z</time>
      </trkpt>
      <trkpt lat="46.19796" lon="5.89551">
        <ele>1171</ele>
        <time>2019-05-05T14:13:28Z</time>
      </trkpt>
      <trkpt lat="46.19783" lon="5.89532">
        <ele>1172</ele>
        <time>2019-05-05T14:13:41Z</time>
      </trkpt>
      <trkpt lat="46.19767" lon="5.89516">
        <ele>1172</ele>
        <time>2019-05-05T14:13:56Z</time>
      </trkpt>
      <trkpt lat="46.19751" lon="5.89502">
        <ele>1171</ele>
        <time>2019-05-05T14:14:09Z</time>
      </trkpt>
      <trkpt lat="46.19734" lon="5.8949">
        <ele>1170</ele>
        <time>2019-05-05T14:14:23Z</time>
      </trkpt>
      <trkpt lat="46.19717" lon="5.89479">
        <ele>1168</ele>
        <time>2019-05-05T14:14:36Z</time>
      </trkpt>
      <trkpt lat="46.19714" lon="5.89478">
        <ele>1167</ele>
        <time>2019-05-05T14:14:39Z</time>
      </trkpt>
      <trkpt lat="46.19704" lon="5.89472">
        <ele>1166</ele>
        <time>2019-05-05T14:14:47Z</time>
      </trkpt>
      <trkpt lat="46.19689" lon="5.89452">
        <ele>1166</ele>
        <time>2019-05-05T14:15:02Z</time>
      </trkpt>
      <trkpt lat="46.19678" lon="5.89431">
        <ele>1168</ele>
        <time>2019-05-05T14:15:15Z</time>
      </trkpt>
      <trkpt lat="46.19667" lon="5.8941">
        <ele>1169</ele>
        <time>2019-05-05T14:15:28Z</time>
      </trkpt>
      <trkpt lat="46.19663" lon="5.89403">
        <ele>1169</ele>
        <time>2019-05-05T14:15:33Z</time>
      </trkpt>
      <trkpt lat="46.19649" lon="5.8938">
        <ele>1170</ele>
        <time>2019-05-05T14:15:48Z</time>
      </trkpt>
      <trkpt lat="46.19634" lon="5.89361">
        <ele>1169</ele>
        <time>2019-05-05T14:16:02Z</time>
      </trkpt>
      <trkpt lat="46.19616" lon="5.89347">
        <ele>1165</ele>
        <time>2019-05-05T14:16:18Z</time>
      </trkpt>
      <trkpt lat="46.19602" lon="5.89331">
        <ele>1164</ele>
        <time>2019-05-05T14:16:30Z</time>
      </trkpt>
      <trkpt lat="46.19587" lon="5.89311">
        <ele>1164</ele>
        <time>2019-05-05T14:16:45Z</time>
      </trkpt>
      <trkpt lat="46.19576" lon="5.8929">
        <ele>1166</ele>
        <time>2019-05-05T14:16:58Z</time>
      </trkpt>
      <trkpt lat="46.19563" lon="5.89268">
        <ele>1168</ele>
        <time>2019-05-05T14:17:13Z</time>
      </trkpt>
      <trkpt lat="46.1955" lon="5.89249">
        <ele>1168</ele>
        <time>2019-05-05T14:17:26Z</time>
      </trkpt>
      <trkpt lat="46.19537" lon="5.89227">
        <ele>1171</ele>
        <time>2019-05-05T14:17:41Z</time>
      </trkpt>
      <trkpt lat="46.19524" lon="5.89206">
        <ele>1174</ele>
        <time>2019-05-05T14:17:55Z</time>
      </trkpt>
      <trkpt lat="46.19509" lon="5.89189">
        <ele>1175</ele>
        <time>2019-05-05T14:18:09Z</time>
      </trkpt>
      <trkpt lat="46.19503" lon="5.89185">
        <ele>1174</ele>
        <time>2019-05-05T14:18:13Z</time>
      </trkpt>
      <trkpt lat="46.19487" lon="5.89171">
        <ele>1174</ele>
        <time>2019-05-05T14:18:27Z</time>
      </trkpt>
      <trkpt lat="46.1947" lon="5.89154">
        <ele>1174</ele>
        <time>2019-05-05T14:18:42Z</time>
      </trkpt>
      <trkpt lat="46.19462" lon="5.89145">
        <ele>1174</ele>
        <time>2019-05-05T14:18:50Z</time>
      </trkpt>
      <trkpt lat="46.19449" lon="5.89122">
        <ele>1178</ele>
        <time>2019-05-05T14:19:04Z</time>
      </trkpt>
      <trkpt lat="46.19432" lon="5.89106">
        <ele>1177</ele>
        <time>2019-05-05T14:19:19Z</time>
      </trkpt>
      <trkpt lat="46.19416" lon="5.89089">
        <ele>1179</ele>
        <time>2019-05-05T14:19:33Z</time>
      </trkpt>
      <trkpt lat="46.19398" lon="5.89079">
        <ele>1178</ele>
        <time>2019-05-05T14:19:48Z</time>
      </trkpt>
      <trkpt lat="46.19381" lon="5.89069">
        <ele>1177</ele>
        <time>2019-05-05T14:20:01Z</time>
      </trkpt>
      <trkpt lat="46.19364" lon="5.89054">
        <ele>1179</ele>
        <time>2019-05-05T14:20:15Z</time>
      </trkpt>
      <trkpt lat="46.19347" lon="5.8904">
        <ele>1179</ele>
        <time>2019-05-05T14:20:29Z</time>
      </trkpt>
      <trkpt lat="46.19331" lon="5.89027">
        <ele>1180</ele>
        <time>2019-05-05T14:20:43Z</time>
      </trkpt>
      <trkpt lat="46.19314" lon="5.89012">
        <ele>1181</ele>
        <time>2019-05-05T14:20:57Z</time>
      </trkpt>
      <trkpt lat="46.19298" lon="5.88997">
        <ele>1181</ele>
        <time>2019-05-05T14:21:11Z</time>
      </trkpt>
      <trkpt lat="46.19281" lon="5.88982">
        <ele>1181</ele>
        <time>2019-05-05T14:21:25Z</time>
      </trkpt>
      <trkpt lat="46.19275" lon="5.88972">
        <ele>1182</ele>
        <time>2019-05-05T14:21:32Z</time>
      </trkpt>
      <trkpt lat="46.19259" lon="5.88958">
        <ele>1181</ele>
        <time>2019-05-05T14:21:45Z</time>
      </trkpt>
      <trkpt lat="46.19241" lon="5.88945">
        <ele>1180</ele>
        <time>2019-05-05T14:22:00Z</time>
      </trkpt>
      <trkpt lat="46.19223" lon="5.88934">
        <ele>1178</ele>
        <time>2019-05-05T14:22:14Z</time>
      </trkpt>
      <trkpt lat="46.19205" lon="5.88921">
        <ele>1176</ele>
        <time>2019-05-05T14:22:28Z</time>
      </trkpt>
      <trkpt lat="46.19187" lon="5.8891">
        <ele>1174</ele>
        <time>2019-05-05T14:22:43Z</time>
      </trkpt>
      <trkpt lat="46.19181" lon="5.88906">
        <ele>1174</ele>
        <time>2019-05-05T14:22:47Z</time>
      </trkpt>
      <trkpt lat="46.19162" lon="5.889">
        <ele>1173</ele>
        <time>2019-05-05T14:23:02Z</time>
      </trkpt>
      <trkpt lat="46.19155" lon="5.88901">
        <ele>1172</ele>
        <time>2019-05-05T14:23:07Z</time>
      </trkpt>
      <trkpt lat="46.19153" lon="5.88905">
        <ele>1170</ele>
        <time>2019-05-05T14:23:09Z</time>
      </trkpt>
      <trkpt lat="46.19158" lon="5.88909">
        <ele>1170</ele>
        <time>2019-05-05T14:23:13Z</time>
      </trkpt>
      <trkpt lat="46.19153" lon="5.88904">
        <ele>1171</ele>
        <time>2019-05-05T14:23:18Z</time>
      </trkpt>
      <trkpt lat="46.19148" lon="5.88902">
        <ele>1170</ele>
        <time>2019-05-05T14:23:21Z</time>
      </trkpt>
      <trkpt lat="46.19144" lon="5.88898">
        <ele>1171</ele>
        <time>2019-05-05T14:23:25Z</time>
      </trkpt>
      <trkpt lat="46.19137" lon="5.88895">
        <ele>1171</ele>
        <time>2019-05-05T14:23:30Z</time>
      </trkpt>
      <trkpt lat="46.19119" lon="5.88883">
        <ele>1171</ele>
        <time>2019-05-05T14:23:44Z</time>
      </trkpt>
      <trkpt lat="46.19116" lon="5.88878">
        <ele>1172</ele>
        <time>2019-05-05T14:23:48Z</time>
      </trkpt>
      <trkpt lat="46.19114" lon="5.88876">
        <ele>1172</ele>
        <time>2019-05-05T14:23:49Z</time>
      </trkpt>
      <trkpt lat="46.19113" lon="5.88874">
        <ele>1173</ele>
        <time>2019-05-05T14:23:51Z</time>
      </trkpt>
      <trkpt lat="46.19104" lon="5.88865">
        <ele>1174</ele>
        <time>2019-05-05T14:23:59Z</time>
      </trkpt>
      <trkpt lat="46.19101" lon="5.88862">
        <ele>1174</ele>
        <time>2019-05-05T14:24:02Z</time>
      </trkpt>
      <trkpt lat="46.19092" lon="5.88855">
        <ele>1174</ele>
        <time>2019-05-05T14:24:09Z</time>
      </trkpt>
      <trkpt lat="46.19089" lon="5.88855">
        <ele>1173</ele>
        <time>2019-05-05T14:24:11Z</time>
      </trkpt>
      <trkpt lat="46.19087" lon="5.8885">
        <ele>1174</ele>
        <time>2019-05-05T14:24:14Z</time>
      </trkpt>
      <trkpt lat="46.19083" lon="5.88845">
        <ele>1175</ele>
        <time>2019-05-05T14:24:18Z</time>
      </trkpt>
      <trkpt lat="46.19082" lon="5.88842">
        <ele>1176</ele>
        <time>2019-05-05T14:24:20Z</time>
      </trkpt>
      <trkpt lat="46.19076" lon="5.88836">
        <ele>1176</ele>
        <time>2019-05-05T14:24:25Z</time>
      </trkpt>
      <trkpt lat="46.19074" lon="5.88836">
        <ele>1176</ele>
        <time>2019-05-05T14:24:27Z</time>
      </trkpt>
      <trkpt lat="46.1907" lon="5.88831">
        <ele>1176</ele>
        <time>2019-05-05T14:24:30Z</time>
      </trkpt>
      <trkpt lat="46.19067" lon="5.88828">
        <ele>1176</ele>
        <time>2019-05-05T14:24:33Z</time>
      </trkpt>
      <trkpt lat="46.19066" lon="5.88829">
        <ele>1176</ele>
        <time>2019-05-05T14:24:33Z</time>
      </trkpt>
      <trkpt lat="46.19064" lon="5.88828">
        <ele>1176</ele>
        <time>2019-05-05T14:24:35Z</time>
      </trkpt>
      <trkpt lat="46.1906" lon="5.88824">
        <ele>1176</ele>
        <time>2019-05-05T14:24:39Z</time>
      </trkpt>
      <trkpt lat="46.19054" lon="5.88818">
        <ele>1177</ele>
        <time>2019-05-05T14:24:44Z</time>
      </trkpt>
      <trkpt lat="46.19041" lon="5.88799">
        <ele>1180</ele>
        <time>2019-05-05T14:24:57Z</time>
      </trkpt>
      <trkpt lat="46.19022" lon="5.88795">
        <ele>1177</ele>
        <time>2019-05-05T14:25:11Z</time>
      </trkpt>
      <trkpt lat="46.19015" lon="5.88794">
        <ele>1176</ele>
        <time>2019-05-05T14:25:16Z</time>
      </trkpt>
      <trkpt lat="46.19014" lon="5.88793">
        <ele>1175</ele>
        <time>2019-05-05T14:25:18Z</time>
      </trkpt>
      <trkpt lat="46.1901" lon="5.88798">
        <ele>1173</ele>
        <time>2019-05-05T14:25:22Z</time>
      </trkpt>
      <trkpt lat="46.19006" lon="5.88786">
        <ele>1176</ele>
        <time>2019-05-05T14:25:29Z</time>
      </trkpt>
      <trkpt lat="46.19001" lon="5.88783">
        <ele>1175</ele>
        <time>2019-05-05T14:25:32Z</time>
      </trkpt>
      <trkpt lat="46.18999" lon="5.88785">
        <ele>1174</ele>
        <time>2019-05-05T14:25:34Z</time>
      </trkpt>
      <trkpt lat="46.18999" lon="5.88783">
        <ele>1175</ele>
        <time>2019-05-05T14:25:35Z</time>
      </trkpt>
      <trkpt lat="46.18998" lon="5.88782">
        <ele>1175</ele>
        <time>2019-05-05T14:25:36Z</time>
      </trkpt>
      <trkpt lat="46.18992" lon="5.88778">
        <ele>1175</ele>
        <time>2019-05-05T14:25:41Z</time>
      </trkpt>
      <trkpt lat="46.1899" lon="5.88777">
        <ele>1174</ele>
        <time>2019-05-05T14:25:43Z</time>
      </trkpt>
      <trkpt lat="46.18988" lon="5.88777">
        <ele>1174</ele>
        <time>2019-05-05T14:25:44Z</time>
      </trkpt>
      <trkpt lat="46.18987" lon="5.88778">
        <ele>1174</ele>
        <time>2019-05-05T14:25:45Z</time>
      </trkpt>
      <trkpt lat="46.18986" lon="5.88779">
        <ele>1173</ele>
        <time>2019-05-05T14:25:46Z</time>
      </trkpt>
      <trkpt lat="46.18985" lon="5.88779">
        <ele>1173</ele>
        <time>2019-05-05T14:25:47Z</time>
      </trkpt>
      <trkpt lat="46.18982" lon="5.88779">
        <ele>1172</ele>
        <time>2019-05-05T14:25:49Z</time>
      </trkpt>
      <trkpt lat="46.18979" lon="5.88779">
        <ele>1172</ele>
        <time>2019-05-05T14:25:51Z</time>
      </trkpt>
      <trkpt lat="46.18977" lon="5.88778">
        <ele>1171</ele>
        <time>2019-05-05T14:25:53Z</time>
      </trkpt>
      <trkpt lat="46.18965" lon="5.88775">
        <ele>1169</ele>
        <time>2019-05-05T14:26:02Z</time>
      </trkpt>
      <trkpt lat="46.18965" lon="5.8877">
        <ele>1171</ele>
        <time>2019-05-05T14:26:05Z</time>
      </trkpt>
      <trkpt lat="46.18959" lon="5.88764">
        <ele>1172</ele>
        <time>2019-05-05T14:26:10Z</time>
      </trkpt>
      <trkpt lat="46.18957" lon="5.88762">
        <ele>1171</ele>
        <time>2019-05-05T14:26:12Z</time>
      </trkpt>
      <trkpt lat="46.18949" lon="5.8876">
        <ele>1170</ele>
        <time>2019-05-05T14:26:18Z</time>
      </trkpt>
      <trkpt lat="46.18933" lon="5.88745">
        <ele>1170</ele>
        <time>2019-05-05T14:26:32Z</time>
      </trkpt>
      <trkpt lat="46.18915" lon="5.88731">
        <ele>1168</ele>
        <time>2019-05-05T14:26:46Z</time>
      </trkpt>
      <trkpt lat="46.18899" lon="5.8872">
        <ele>1166</ele>
        <time>2019-05-05T14:27:00Z</time>
      </trkpt>
      <trkpt lat="46.18883" lon="5.88705">
        <ele>1166</ele>
        <time>2019-05-05T14:27:13Z</time>
      </trkpt>
      <trkpt lat="46.18875" lon="5.88698">
        <ele>1165</ele>
        <time>2019-05-05T14:27:20Z</time>
      </trkpt>
      <trkpt lat="46.18866" lon="5.8869">
        <ele>1165</ele>
        <time>2019-05-05T14:27:27Z</time>
      </trkpt>
      <trkpt lat="46.1885" lon="5.88677">
        <ele>1164</ele>
        <time>2019-05-05T14:27:41Z</time>
      </trkpt>
      <trkpt lat="46.18843" lon="5.88667">
        <ele>1165</ele>
        <time>2019-05-05T14:27:48Z</time>
      </trkpt>
      <trkpt lat="46.18827" lon="5.8865">
        <ele>1165</ele>
        <time>2019-05-05T14:28:02Z</time>
      </trkpt>
      <trkpt lat="46.18825" lon="5.88648">
        <ele>1165</ele>
        <time>2019-05-05T14:28:04Z</time>
      </trkpt>
      <trkpt lat="46.1881" lon="5.88629">
        <ele>1166</ele>
        <time>2019-05-05T14:28:19Z</time>
      </trkpt>
      <trkpt lat="46.188" lon="5.88621">
        <ele>1166</ele>
        <time>2019-05-05T14:28:26Z</time>
      </trkpt>
      <trkpt lat="46.18788" lon="5.8861">
        <ele>1165</ele>
        <time>2019-05-05T14:28:37Z</time>
      </trkpt>
      <trkpt lat="46.18772" lon="5.88594">
        <ele>1164</ele>
        <time>2019-05-05T14:28:51Z</time>
      </trkpt>
      <trkpt lat="46.18757" lon="5.88577">
        <ele>1164</ele>
        <time>2019-05-05T14:29:05Z</time>
      </trkpt>
      <trkpt lat="46.18748" lon="5.88569">
        <ele>1163</ele>
        <time>2019-05-05T14:29:13Z</time>
      </trkpt>
      <trkpt lat="46.1873" lon="5.88552">
        <ele>1162</ele>
        <time>2019-05-05T14:29:28Z</time>
      </trkpt>
      <trkpt lat="46.18714" lon="5.88537">
        <ele>1160</ele>
        <time>2019-05-05T14:29:42Z</time>
      </trkpt>
      <trkpt lat="46.18712" lon="5.88534">
        <ele>1160</ele>
        <time>2019-05-05T14:29:44Z</time>
      </trkpt>
      <trkpt lat="46.18696" lon="5.88519">
        <ele>1159</ele>
        <time>2019-05-05T14:29:58Z</time>
      </trkpt>
      <trkpt lat="46.1868" lon="5.88501">
        <ele>1159</ele>
        <time>2019-05-05T14:30:12Z</time>
      </trkpt>
      <trkpt lat="46.18679" lon="5.88498">
        <ele>1159</ele>
        <time>2019-05-05T14:30:14Z</time>
      </trkpt>
      <trkpt lat="46.18664" lon="5.8848">
        <ele>1160</ele>
        <time>2019-05-05T14:30:28Z</time>
      </trkpt>
      <trkpt lat="46.18649" lon="5.88466">
        <ele>1160</ele>
        <time>2019-05-05T14:30:41Z</time>
      </trkpt>
      <trkpt lat="46.18645" lon="5.88461">
        <ele>1160</ele>
        <time>2019-05-05T14:30:45Z</time>
      </trkpt>
      <trkpt lat="46.18633" lon="5.88444">
        <ele>1161</ele>
        <time>2019-05-05T14:30:57Z</time>
      </trkpt>
      <trkpt lat="46.18622" lon="5.88423">
        <ele>1163</ele>
        <time>2019-05-05T14:31:10Z</time>
      </trkpt>
      <trkpt lat="46.1861" lon="5.88404">
        <ele>1164</ele>
        <time>2019-05-05T14:31:23Z</time>
      </trkpt>
      <trkpt lat="46.18596" lon="5.88383">
        <ele>1165</ele>
        <time>2019-05-05T14:31:38Z</time>
      </trkpt>
      <trkpt lat="46.18579" lon="5.88368">
        <ele>1164</ele>
        <time>2019-05-05T14:31:52Z</time>
      </trkpt>
      <trkpt lat="46.18561" lon="5.88357">
        <ele>1163</ele>
        <time>2019-05-05T14:32:06Z</time>
      </trkpt>
      <trkpt lat="46.18542" lon="5.88346">
        <ele>1162</ele>
        <time>2019-05-05T14:32:21Z</time>
      </trkpt>
      <trkpt lat="46.18537" lon="5.88342">
        <ele>1161</ele>
        <time>2019-05-05T14:32:25Z</time>
      </trkpt>
      <trkpt lat="46.1852" lon="5.88331">
        <ele>1160</ele>
        <time>2019-05-05T14:32:39Z</time>
      </trkpt>
      <trkpt lat="46.18515" lon="5.88328">
        <ele>1160</ele>
        <time>2019-05-05T14:32:42Z</time>
      </trkpt>
      <trkpt lat="46.18499" lon="5.88316">
        <ele>1159</ele>
        <time>2019-05-05T14:32:56Z</time>
      </trkpt>
      <trkpt lat="46.18484" lon="5.88312">
        <ele>1157</ele>
        <time>2019-05-05T14:33:07Z</time>
      </trkpt>
      <trkpt lat="46.18467" lon="5.883">
        <ele>1157</ele>
        <time>2019-05-05T14:33:21Z</time>
      </trkpt>
      <trkpt lat="46.18452" lon="5.88285">
        <ele>1157</ele>
        <time>2019-05-05T14:33:34Z</time>
      </trkpt>
      <trkpt lat="46.18443" lon="5.88278">
        <ele>1157</ele>
        <time>2019-05-05T14:33:41Z</time>
      </trkpt>
      <trkpt lat="46.18427" lon="5.88264">
        <ele>1156</ele>
        <time>2019-05-05T14:33:55Z</time>
      </trkpt>
      <trkpt lat="46.18422" lon="5.88259">
        <ele>1156</ele>
        <time>2019-05-05T14:33:59Z</time>
      </trkpt>
      <trkpt lat="46.18407" lon="5.88244">
        <ele>1155</ele>
        <time>2019-05-05T14:34:12Z</time>
      </trkpt>
      <trkpt lat="46.1839" lon="5.88231">
        <ele>1154</ele>
        <time>2019-05-05T14:34:26Z</time>
      </trkpt>
      <trkpt lat="46.18382" lon="5.88225">
        <ele>1153</ele>
        <time>2019-05-05T14:34:33Z</time>
      </trkpt>
      <trkpt lat="46.18365" lon="5.88214">
        <ele>1152</ele>
        <time>2019-05-05T14:34:46Z</time>
      </trkpt>
      <trkpt lat="46.18349" lon="5.88198">
        <ele>1151</ele>
        <time>2019-05-05T14:35:00Z</time>
      </trkpt>
      <trkpt lat="46.18347" lon="5.88195">
        <ele>1151</ele>
        <time>2019-05-05T14:35:02Z</time>
      </trkpt>
      <trkpt lat="46.18332" lon="5.8818">
        <ele>1150</ele>
        <time>2019-05-05T14:35:16Z</time>
      </trkpt>
      <trkpt lat="46.18313" lon="5.88171">
        <ele>1148</ele>
        <time>2019-05-05T14:35:30Z</time>
      </trkpt>
      <trkpt lat="46.18297" lon="5.88159">
        <ele>1147</ele>
        <time>2019-05-05T14:35:43Z</time>
      </trkpt>
      <trkpt lat="46.18286" lon="5.88149">
        <ele>1147</ele>
        <time>2019-05-05T14:35:52Z</time>
      </trkpt>
      <trkpt lat="46.18272" lon="5.88135">
        <ele>1147</ele>
        <time>2019-05-05T14:36:04Z</time>
      </trkpt>
      <trkpt lat="46.18257" lon="5.88122">
        <ele>1147</ele>
        <time>2019-05-05T14:36:17Z</time>
      </trkpt>
      <trkpt lat="46.18252" lon="5.88118">
        <ele>1147</ele>
        <time>2019-05-05T14:36:21Z</time>
      </trkpt>
      <trkpt lat="46.18234" lon="5.88107">
        <ele>1146</ele>
        <time>2019-05-05T14:36:36Z</time>
      </trkpt>
      <trkpt lat="46.18217" lon="5.88094">
        <ele>1146</ele>
        <time>2019-05-05T14:36:49Z</time>
      </trkpt>
      <trkpt lat="46.18212" lon="5.88092">
        <ele>1146</ele>
        <time>2019-05-05T14:36:53Z</time>
      </trkpt>
      <trkpt lat="46.18208" lon="5.88091">
        <ele>1146</ele>
        <time>2019-05-05T14:36:56Z</time>
      </trkpt>
      <trkpt lat="46.18206" lon="5.8809">
        <ele>1146</ele>
        <time>2019-05-05T14:36:58Z</time>
      </trkpt>
      <trkpt lat="46.18203" lon="5.88089">
        <ele>1146</ele>
        <time>2019-05-05T14:37:00Z</time>
      </trkpt>
      <trkpt lat="46.18199" lon="5.88086">
        <ele>1146</ele>
        <time>2019-05-05T14:37:03Z</time>
      </trkpt>
      <trkpt lat="46.18197" lon="5.88083">
        <ele>1146</ele>
        <time>2019-05-05T14:37:05Z</time>
      </trkpt>
      <trkpt lat="46.18193" lon="5.88081">
        <ele>1146</ele>
        <time>2019-05-05T14:37:08Z</time>
      </trkpt>
      <trkpt lat="46.18189" lon="5.88079">
        <ele>1146</ele>
        <time>2019-05-05T14:37:11Z</time>
      </trkpt>
      <trkpt lat="46.18184" lon="5.88081">
        <ele>1145</ele>
        <time>2019-05-05T14:37:15Z</time>
      </trkpt>
      <trkpt lat="46.18185" lon="5.8808">
        <ele>1145</ele>
        <time>2019-05-05T14:37:16Z</time>
      </trkpt>
      <trkpt lat="46.18192" lon="5.88075">
        <ele>1147</ele>
        <time>2019-05-05T14:37:22Z</time>
      </trkpt>
      <trkpt lat="46.18194" lon="5.88075">
        <ele>1147</ele>
        <time>2019-05-05T14:37:23Z</time>
      </trkpt>
      <trkpt lat="46.18196" lon="5.88075">
        <ele>1147</ele>
        <time>2019-05-05T14:37:25Z</time>
      </trkpt>
      <trkpt lat="46.18194" lon="5.88084">
        <ele>1146</ele>
        <time>2019-05-05T14:37:29Z</time>
      </trkpt>
      <trkpt lat="46.18192" lon="5.88088">
        <ele>1145</ele>
        <time>2019-05-05T14:37:32Z</time>
      </trkpt>
      <trkpt lat="46.18192" lon="5.88091">
        <ele>1144</ele>
        <time>2019-05-05T14:37:34Z</time>
      </trkpt>
      <trkpt lat="46.18195" lon="5.88085">
        <ele>1145</ele>
        <time>2019-05-05T14:37:37Z</time>
      </trkpt>
      <trkpt lat="46.18196" lon="5.88082">
        <ele>1146</ele>
        <time>2019-05-05T14:37:39Z</time>
      </trkpt>
      <trkpt lat="46.18198" lon="5.8807">
        <ele>1148</ele>
        <time>2019-05-05T14:37:45Z</time>
      </trkpt>
      <trkpt lat="46.18197" lon="5.88069">
        <ele>1149</ele>
        <time>2019-05-05T14:37:46Z</time>
      </trkpt>
      <trkpt lat="46.18202" lon="5.88066">
        <ele>1150</ele>
        <time>2019-05-05T14:37:50Z</time>
      </trkpt>
      <trkpt lat="46.18204" lon="5.88066">
        <ele>1150</ele>
        <time>2019-05-05T14:37:52Z</time>
      </trkpt>
      <trkpt lat="46.18209" lon="5.88069">
        <ele>1150</ele>
        <time>2019-05-05T14:37:56Z</time>
      </trkpt>
      <trkpt lat="46.18216" lon="5.88076">
        <ele>1149</ele>
        <time>2019-05-05T14:38:02Z</time>
      </trkpt>
      <trkpt lat="46.18218" lon="5.8808">
        <ele>1149</ele>
        <time>2019-05-05T14:38:04Z</time>
      </trkpt>
      <trkpt lat="46.18219" lon="5.88081">
        <ele>1149</ele>
        <time>2019-05-05T14:38:05Z</time>
      </trkpt>
      <trkpt lat="46.18236" lon="5.8809">
        <ele>1149</ele>
        <time>2019-05-05T14:38:18Z</time>
      </trkpt>
      <trkpt lat="46.18238" lon="5.88091">
        <ele>1149</ele>
        <time>2019-05-05T14:38:19Z</time>
      </trkpt>
      <trkpt lat="46.18253" lon="5.88099">
        <ele>1150</ele>
        <time>2019-05-05T14:38:31Z</time>
      </trkpt>
      <trkpt lat="46.18263" lon="5.88102">
        <ele>1151</ele>
        <time>2019-05-05T14:38:38Z</time>
      </trkpt>
      <trkpt lat="46.1827" lon="5.8811">
        <ele>1150</ele>
        <time>2019-05-05T14:38:45Z</time>
      </trkpt>
      <trkpt lat="46.18279" lon="5.88118">
        <ele>1151</ele>
        <time>2019-05-05T14:38:53Z</time>
      </trkpt>
      <trkpt lat="46.18281" lon="5.88122">
        <ele>1150</ele>
        <time>2019-05-05T14:38:55Z</time>
      </trkpt>
      <trkpt lat="46.18289" lon="5.88129">
        <ele>1151</ele>
        <time>2019-05-05T14:39:02Z</time>
      </trkpt>
      <trkpt lat="46.18292" lon="5.88131">
        <ele>1151</ele>
        <time>2019-05-05T14:39:05Z</time>
      </trkpt>
      <trkpt lat="46.18293" lon="5.88133">
        <ele>1151</ele>
        <time>2019-05-05T14:39:06Z</time>
      </trkpt>
      <trkpt lat="46.18306" lon="5.88138">
        <ele>1152</ele>
        <time>2019-05-05T14:39:15Z</time>
      </trkpt>
      <trkpt lat="46.18308" lon="5.88138">
        <ele>1153</ele>
        <time>2019-05-05T14:39:16Z</time>
      </trkpt>
      <trkpt lat="46.1831" lon="5.88138">
        <ele>1153</ele>
        <time>2019-05-05T14:39:18Z</time>
      </trkpt>
      <trkpt lat="46.18318" lon="5.88145">
        <ele>1153</ele>
        <time>2019-05-05T14:39:25Z</time>
      </trkpt>
      <trkpt lat="46.18322" lon="5.88145">
        <ele>1154</ele>
        <time>2019-05-05T14:39:28Z</time>
      </trkpt>
      <trkpt lat="46.18341" lon="5.88152">
        <ele>1156</ele>
        <time>2019-05-05T14:39:42Z</time>
      </trkpt>
      <trkpt lat="46.18343" lon="5.88152">
        <ele>1157</ele>
        <time>2019-05-05T14:39:44Z</time>
      </trkpt>
      <trkpt lat="46.18346" lon="5.88152">
        <ele>1157</ele>
        <time>2019-05-05T14:39:46Z</time>
      </trkpt>
      <trkpt lat="46.18344" lon="5.88147">
        <ele>1158</ele>
        <time>2019-05-05T14:39:49Z</time>
      </trkpt>
      <trkpt lat="46.1836" lon="5.88139">
        <ele>1162</ele>
        <time>2019-05-05T14:40:02Z</time>
      </trkpt>
      <trkpt lat="46.18362" lon="5.88136">
        <ele>1163</ele>
        <time>2019-05-05T14:40:04Z</time>
      </trkpt>
      <trkpt lat="46.18363" lon="5.88124">
        <ele>1165</ele>
        <time>2019-05-05T14:40:10Z</time>
      </trkpt>
      <trkpt lat="46.18361" lon="5.88121">
        <ele>1165</ele>
        <time>2019-05-05T14:40:12Z</time>
      </trkpt>
      <trkpt lat="46.18356" lon="5.88114">
        <ele>1165</ele>
        <time>2019-05-05T14:40:17Z</time>
      </trkpt>
      <trkpt lat="46.18355" lon="5.88112">
        <ele>1165</ele>
        <time>2019-05-05T14:40:18Z</time>
      </trkpt>
      <trkpt lat="46.18354" lon="5.88111">
        <ele>1165</ele>
        <time>2019-05-05T14:40:19Z</time>
      </trkpt>
      <trkpt lat="46.18351" lon="5.88111">
        <ele>1165</ele>
        <time>2019-05-05T14:40:21Z</time>
      </trkpt>
      <trkpt lat="46.18348" lon="5.88114">
        <ele>1164</ele>
        <time>2019-05-05T14:40:24Z</time>
      </trkpt>
      <trkpt lat="46.18345" lon="5.88118">
        <ele>1162</ele>
        <time>2019-05-05T14:40:27Z</time>
      </trkpt>
      <trkpt lat="46.18342" lon="5.88122">
        <ele>1161</ele>
        <time>2019-05-05T14:40:30Z</time>
      </trkpt>
      <trkpt lat="46.18339" lon="5.88122">
        <ele>1161</ele>
        <time>2019-05-05T14:40:32Z</time>
      </trkpt>
      <trkpt lat="46.18338" lon="5.88121">
        <ele>1161</ele>
        <time>2019-05-05T14:40:33Z</time>
      </trkpt>
      <trkpt lat="46.18331" lon="5.88117">
        <ele>1160</ele>
        <time>2019-05-05T14:40:38Z</time>
      </trkpt>
      <trkpt lat="46.18327" lon="5.88116">
        <ele>1160</ele>
        <time>2019-05-05T14:40:41Z</time>
      </trkpt>
      <trkpt lat="46.18324" lon="5.88116">
        <ele>1159</ele>
        <time>2019-05-05T14:40:44Z</time>
      </trkpt>
      <trkpt lat="46.18321" lon="5.88116">
        <ele>1158</ele>
        <time>2019-05-05T14:40:46Z</time>
      </trkpt>
      <trkpt lat="46.18319" lon="5.88115">
        <ele>1158</ele>
        <time>2019-05-05T14:40:47Z</time>
      </trkpt>
      <trkpt lat="46.18316" lon="5.88115">
        <ele>1158</ele>
        <time>2019-05-05T14:40:50Z</time>
      </trkpt>
      <trkpt lat="46.18312" lon="5.88114">
        <ele>1157</ele>
        <time>2019-05-05T14:40:53Z</time>
      </trkpt>
      <trkpt lat="46.1831" lon="5.88111">
        <ele>1157</ele>
        <time>2019-05-05T14:40:55Z</time>
      </trkpt>
      <trkpt lat="46.18302" lon="5.88105">
        <ele>1157</ele>
        <time>2019-05-05T14:41:01Z</time>
      </trkpt>
      <trkpt lat="46.183" lon="5.88104">
        <ele>1156</ele>
        <time>2019-05-05T14:41:03Z</time>
      </trkpt>
      <trkpt lat="46.18299" lon="5.88103">
        <ele>1156</ele>
        <time>2019-05-05T14:41:04Z</time>
      </trkpt>
      <trkpt lat="46.18299" lon="5.88103">
        <ele>1156</ele>
        <time>2019-05-05T14:41:04Z</time>
      </trkpt>
      <trkpt lat="46.18291" lon="5.88096">
        <ele>1156</ele>
        <time>2019-05-05T14:41:10Z</time>
      </trkpt>
      <trkpt lat="46.18282" lon="5.88082">
        <ele>1157</ele>
        <time>2019-05-05T14:41:21Z</time>
      </trkpt>
      <trkpt lat="46.18272" lon="5.88057">
        <ele>1159</ele>
        <time>2019-05-05T14:41:35Z</time>
      </trkpt>
      <trkpt lat="46.1826" lon="5.88036">
        <ele>1161</ele>
        <time>2019-05-05T14:41:48Z</time>
      </trkpt>
      <trkpt lat="46.18253" lon="5.8803">
        <ele>1161</ele>
        <time>2019-05-05T14:41:54Z</time>
      </trkpt>
      <trkpt lat="46.18251" lon="5.8803">
        <ele>1161</ele>
        <time>2019-05-05T14:41:56Z</time>
      </trkpt>
      <trkpt lat="46.18244" lon="5.88027">
        <ele>1161</ele>
        <time>2019-05-05T14:42:01Z</time>
      </trkpt>
      <trkpt lat="46.18239" lon="5.88023">
        <ele>1161</ele>
        <time>2019-05-05T14:42:05Z</time>
      </trkpt>
      <trkpt lat="46.18235" lon="5.8802">
        <ele>1161</ele>
        <time>2019-05-05T14:42:09Z</time>
      </trkpt>
      <trkpt lat="46.18217" lon="5.8801">
        <ele>1161</ele>
        <time>2019-05-05T14:42:22Z</time>
      </trkpt>
      <trkpt lat="46.18201" lon="5.87996">
        <ele>1161</ele>
        <time>2019-05-05T14:42:36Z</time>
      </trkpt>
      <trkpt lat="46.18194" lon="5.87992">
        <ele>1161</ele>
        <time>2019-05-05T14:42:41Z</time>
      </trkpt>
      <trkpt lat="46.18194" lon="5.87991">
        <ele>1162</ele>
        <time>2019-05-05T14:42:42Z</time>
      </trkpt>
      <trkpt lat="46.18188" lon="5.87989">
        <ele>1161</ele>
        <time>2019-05-05T14:42:47Z</time>
      </trkpt>
      <trkpt lat="46.18186" lon="5.87987">
        <ele>1161</ele>
        <time>2019-05-05T14:42:48Z</time>
      </trkpt>
      <trkpt lat="46.1819" lon="5.87991">
        <ele>1161</ele>
        <time>2019-05-05T14:42:51Z</time>
      </trkpt>
      <trkpt lat="46.18193" lon="5.87995">
        <ele>1161</ele>
        <time>2019-05-05T14:42:54Z</time>
      </trkpt>
      <trkpt lat="46.18184" lon="5.87989">
        <ele>1161</ele>
        <time>2019-05-05T14:43:01Z</time>
      </trkpt>
      <trkpt lat="46.18177" lon="5.8798">
        <ele>1161</ele>
        <time>2019-05-05T14:43:08Z</time>
      </trkpt>
      <trkpt lat="46.18176" lon="5.87978">
        <ele>1161</ele>
        <time>2019-05-05T14:43:09Z</time>
      </trkpt>
      <trkpt lat="46.18174" lon="5.87978">
        <ele>1161</ele>
        <time>2019-05-05T14:43:11Z</time>
      </trkpt>
      <trkpt lat="46.18169" lon="5.87968">
        <ele>1161</ele>
        <time>2019-05-05T14:43:17Z</time>
      </trkpt>
      <trkpt lat="46.18166" lon="5.87967">
        <ele>1161</ele>
        <time>2019-05-05T14:43:19Z</time>
      </trkpt>
      <trkpt lat="46.18165" lon="5.87965">
        <ele>1161</ele>
        <time>2019-05-05T14:43:20Z</time>
      </trkpt>
      <trkpt lat="46.18162" lon="5.87963">
        <ele>1161</ele>
        <time>2019-05-05T14:43:22Z</time>
      </trkpt>
      <trkpt lat="46.18159" lon="5.87962">
        <ele>1160</ele>
        <time>2019-05-05T14:43:25Z</time>
      </trkpt>
      <trkpt lat="46.18154" lon="5.87955">
        <ele>1160</ele>
        <time>2019-05-05T14:43:30Z</time>
      </trkpt>
      <trkpt lat="46.18144" lon="5.87937">
        <ele>1161</ele>
        <time>2019-05-05T14:43:41Z</time>
      </trkpt>
      <trkpt lat="46.18141" lon="5.87933">
        <ele>1161</ele>
        <time>2019-05-05T14:43:44Z</time>
      </trkpt>
      <trkpt lat="46.18139" lon="5.87923">
        <ele>1162</ele>
        <time>2019-05-05T14:43:50Z</time>
      </trkpt>
      <trkpt lat="46.18139" lon="5.87917">
        <ele>1163</ele>
        <time>2019-05-05T14:43:53Z</time>
      </trkpt>
      <trkpt lat="46.18138" lon="5.87914">
        <ele>1164</ele>
        <time>2019-05-05T14:43:54Z</time>
      </trkpt>
      <trkpt lat="46.18136" lon="5.87909">
        <ele>1164</ele>
        <time>2019-05-05T14:43:57Z</time>
      </trkpt>
      <trkpt lat="46.18136" lon="5.87907">
        <ele>1165</ele>
        <time>2019-05-05T14:43:59Z</time>
      </trkpt>
      <trkpt lat="46.18133" lon="5.87912">
        <ele>1163</ele>
        <time>2019-05-05T14:44:02Z</time>
      </trkpt>
      <trkpt lat="46.18122" lon="5.87899">
        <ele>1163</ele>
        <time>2019-05-05T14:44:13Z</time>
      </trkpt>
      <trkpt lat="46.18119" lon="5.8789">
        <ele>1164</ele>
        <time>2019-05-05T14:44:18Z</time>
      </trkpt>
      <trkpt lat="46.1811" lon="5.87866">
        <ele>1166</ele>
        <time>2019-05-05T14:44:31Z</time>
      </trkpt>
      <trkpt lat="46.18105" lon="5.87859">
        <ele>1167</ele>
        <time>2019-05-05T14:44:36Z</time>
      </trkpt>
      <trkpt lat="46.18103" lon="5.87854">
        <ele>1167</ele>
        <time>2019-05-05T14:44:39Z</time>
      </trkpt>
      <trkpt lat="46.1809" lon="5.87835">
        <ele>1168</ele>
        <time>2019-05-05T14:44:53Z</time>
      </trkpt>
      <trkpt lat="46.18086" lon="5.8783">
        <ele>1169</ele>
        <time>2019-05-05T14:44:57Z</time>
      </trkpt>
      <trkpt lat="46.18086" lon="5.87828">
        <ele>1169</ele>
        <time>2019-05-05T14:44:58Z</time>
      </trkpt>
      <trkpt lat="46.18085" lon="5.87826">
        <ele>1169</ele>
        <time>2019-05-05T14:44:59Z</time>
      </trkpt>
      <trkpt lat="46.18084" lon="5.87824">
        <ele>1169</ele>
        <time>2019-05-05T14:45:00Z</time>
      </trkpt>
      <trkpt lat="46.18082" lon="5.87823">
        <ele>1169</ele>
        <time>2019-05-05T14:45:01Z</time>
      </trkpt>
      <trkpt lat="46.18081" lon="5.87821">
        <ele>1170</ele>
        <time>2019-05-05T14:45:02Z</time>
      </trkpt>
      <trkpt lat="46.18073" lon="5.8781">
        <ele>1170</ele>
        <time>2019-05-05T14:45:11Z</time>
      </trkpt>
      <trkpt lat="46.18068" lon="5.87809">
        <ele>1170</ele>
        <time>2019-05-05T14:45:14Z</time>
      </trkpt>
      <trkpt lat="46.18066" lon="5.87808">
        <ele>1169</ele>
        <time>2019-05-05T14:45:16Z</time>
      </trkpt>
      <trkpt lat="46.18061" lon="5.87804">
        <ele>1169</ele>
        <time>2019-05-05T14:45:20Z</time>
      </trkpt>
      <trkpt lat="46.1806" lon="5.87801">
        <ele>1170</ele>
        <time>2019-05-05T14:45:22Z</time>
      </trkpt>
      <trkpt lat="46.18057" lon="5.87795">
        <ele>1170</ele>
        <time>2019-05-05T14:45:25Z</time>
      </trkpt>
      <trkpt lat="46.18052" lon="5.87781">
        <ele>1172</ele>
        <time>2019-05-05T14:45:34Z</time>
      </trkpt>
      <trkpt lat="46.1805" lon="5.87778">
        <ele>1172</ele>
        <time>2019-05-05T14:45:35Z</time>
      </trkpt>
      <trkpt lat="46.1805" lon="5.87776">
        <ele>1172</ele>
        <time>2019-05-05T14:45:37Z</time>
      </trkpt>
      <trkpt lat="46.18049" lon="5.87774">
        <ele>1172</ele>
        <time>2019-05-05T14:45:37Z</time>
      </trkpt>
      <trkpt lat="46.18049" lon="5.87773">
        <ele>1172</ele>
        <time>2019-05-05T14:45:38Z</time>
      </trkpt>
      <trkpt lat="46.18046" lon="5.87764">
        <ele>1174</ele>
        <time>2019-05-05T14:45:44Z</time>
      </trkpt>
      <trkpt lat="46.18045" lon="5.87763">
        <ele>1174</ele>
        <time>2019-05-05T14:45:45Z</time>
      </trkpt>
      <trkpt lat="46.18042" lon="5.87759">
        <ele>1174</ele>
        <time>2019-05-05T14:45:47Z</time>
      </trkpt>
      <trkpt lat="46.18042" lon="5.87755">
        <ele>1174</ele>
        <time>2019-05-05T14:45:49Z</time>
      </trkpt>
      <trkpt lat="46.18029" lon="5.87736">
        <ele>1176</ele>
        <time>2019-05-05T14:46:02Z</time>
      </trkpt>
      <trkpt lat="46.18027" lon="5.87732">
        <ele>1176</ele>
        <time>2019-05-05T14:46:05Z</time>
      </trkpt>
      <trkpt lat="46.18025" lon="5.87731">
        <ele>1176</ele>
        <time>2019-05-05T14:46:06Z</time>
      </trkpt>
      <trkpt lat="46.18024" lon="5.87728">
        <ele>1177</ele>
        <time>2019-05-05T14:46:08Z</time>
      </trkpt>
      <trkpt lat="46.18022" lon="5.87722">
        <ele>1178</ele>
        <time>2019-05-05T14:46:11Z</time>
      </trkpt>
      <trkpt lat="46.18013" lon="5.87708">
        <ele>1179</ele>
        <time>2019-05-05T14:46:21Z</time>
      </trkpt>
      <trkpt lat="46.18004" lon="5.87701">
        <ele>1179</ele>
        <time>2019-05-05T14:46:29Z</time>
      </trkpt>
      <trkpt lat="46.17994" lon="5.87685">
        <ele>1181</ele>
        <time>2019-05-05T14:46:40Z</time>
      </trkpt>
      <trkpt lat="46.17983" lon="5.87672">
        <ele>1182</ele>
        <time>2019-05-05T14:46:50Z</time>
      </trkpt>
      <trkpt lat="46.17981" lon="5.87667">
        <ele>1183</ele>
        <time>2019-05-05T14:46:53Z</time>
      </trkpt>
      <trkpt lat="46.17973" lon="5.87661">
        <ele>1183</ele>
        <time>2019-05-05T14:46:59Z</time>
      </trkpt>
      <trkpt lat="46.17964" lon="5.87654">
        <ele>1183</ele>
        <time>2019-05-05T14:47:07Z</time>
      </trkpt>
      <trkpt lat="46.17952" lon="5.87645">
        <ele>1183</ele>
        <time>2019-05-05T14:47:17Z</time>
      </trkpt>
      <trkpt lat="46.17945" lon="5.87638">
        <ele>1183</ele>
        <time>2019-05-05T14:47:23Z</time>
      </trkpt>
      <trkpt lat="46.17939" lon="5.87633">
        <ele>1184</ele>
        <time>2019-05-05T14:47:27Z</time>
      </trkpt>
      <trkpt lat="46.17938" lon="5.87632">
        <ele>1184</ele>
        <time>2019-05-05T14:47:28Z</time>
      </trkpt>
      <trkpt lat="46.17937" lon="5.87633">
        <ele>1183</ele>
        <time>2019-05-05T14:47:29Z</time>
      </trkpt>
      <trkpt lat="46.17938" lon="5.87629">
        <ele>1184</ele>
        <time>2019-05-05T14:47:31Z</time>
      </trkpt>
      <trkpt lat="46.17931" lon="5.87622">
        <ele>1185</ele>
        <time>2019-05-05T14:47:38Z</time>
      </trkpt>
      <trkpt lat="46.17926" lon="5.87621">
        <ele>1184</ele>
        <time>2019-05-05T14:47:41Z</time>
      </trkpt>
      <trkpt lat="46.17925" lon="5.87621">
        <ele>1184</ele>
        <time>2019-05-05T14:47:42Z</time>
      </trkpt>
      <trkpt lat="46.17915" lon="5.8761">
        <ele>1185</ele>
        <time>2019-05-05T14:47:52Z</time>
      </trkpt>
      <trkpt lat="46.17907" lon="5.87602">
        <ele>1186</ele>
        <time>2019-05-05T14:47:59Z</time>
      </trkpt>
      <trkpt lat="46.17898" lon="5.87591">
        <ele>1187</ele>
        <time>2019-05-05T14:48:07Z</time>
      </trkpt>
      <trkpt lat="46.17898" lon="5.8759">
        <ele>1187</ele>
        <time>2019-05-05T14:48:08Z</time>
      </trkpt>
      <trkpt lat="46.17898" lon="5.87589">
        <ele>1187</ele>
        <time>2019-05-05T14:48:08Z</time>
      </trkpt>
      <trkpt lat="46.17899" lon="5.87589">
        <ele>1187</ele>
        <time>2019-05-05T14:48:09Z</time>
      </trkpt>
      <trkpt lat="46.17885" lon="5.87572">
        <ele>1190</ele>
        <time>2019-05-05T14:48:22Z</time>
      </trkpt>
      <trkpt lat="46.17884" lon="5.8757">
        <ele>1190</ele>
        <time>2019-05-05T14:48:23Z</time>
      </trkpt>
      <trkpt lat="46.17878" lon="5.8756">
        <ele>1191</ele>
        <time>2019-05-05T14:48:30Z</time>
      </trkpt>
      <trkpt lat="46.17862" lon="5.87546">
        <ele>1192</ele>
        <time>2019-05-05T14:48:43Z</time>
      </trkpt>
      <trkpt lat="46.17856" lon="5.87534">
        <ele>1194</ele>
        <time>2019-05-05T14:48:51Z</time>
      </trkpt>
      <trkpt lat="46.17854" lon="5.87529">
        <ele>1195</ele>
        <time>2019-05-05T14:48:53Z</time>
      </trkpt>
      <trkpt lat="46.17844" lon="5.87521">
        <ele>1196</ele>
        <time>2019-05-05T14:49:02Z</time>
      </trkpt>
      <trkpt lat="46.17843" lon="5.87521">
        <ele>1196</ele>
        <time>2019-05-05T14:49:02Z</time>
      </trkpt>
      <trkpt lat="46.17833" lon="5.87508">
        <ele>1198</ele>
        <time>2019-05-05T14:49:13Z</time>
      </trkpt>
      <trkpt lat="46.17824" lon="5.87501">
        <ele>1198</ele>
        <time>2019-05-05T14:49:20Z</time>
      </trkpt>
      <trkpt lat="46.17823" lon="5.875">
        <ele>1198</ele>
        <time>2019-05-05T14:49:21Z</time>
      </trkpt>
      <trkpt lat="46.17807" lon="5.87493">
        <ele>1198</ele>
        <time>2019-05-05T14:49:33Z</time>
      </trkpt>
      <trkpt lat="46.17803" lon="5.87481">
        <ele>1200</ele>
        <time>2019-05-05T14:49:40Z</time>
      </trkpt>
      <trkpt lat="46.178" lon="5.87472">
        <ele>1201</ele>
        <time>2019-05-05T14:49:45Z</time>
      </trkpt>
      <trkpt lat="46.17797" lon="5.87455">
        <ele>1204</ele>
        <time>2019-05-05T14:49:54Z</time>
      </trkpt>
      <trkpt lat="46.17796" lon="5.87453">
        <ele>1204</ele>
        <time>2019-05-05T14:49:55Z</time>
      </trkpt>
      <trkpt lat="46.17788" lon="5.8744">
        <ele>1205</ele>
        <time>2019-05-05T14:50:04Z</time>
      </trkpt>
      <trkpt lat="46.17777" lon="5.87427">
        <ele>1205</ele>
        <time>2019-05-05T14:50:14Z</time>
      </trkpt>
      <trkpt lat="46.17768" lon="5.87419">
        <ele>1205</ele>
        <time>2019-05-05T14:50:21Z</time>
      </trkpt>
      <trkpt lat="46.17763" lon="5.87413">
        <ele>1205</ele>
        <time>2019-05-05T14:50:26Z</time>
      </trkpt>
      <trkpt lat="46.17757" lon="5.87392">
        <ele>1207</ele>
        <time>2019-05-05T14:50:38Z</time>
      </trkpt>
      <trkpt lat="46.17757" lon="5.87389">
        <ele>1207</ele>
        <time>2019-05-05T14:50:39Z</time>
      </trkpt>
      <trkpt lat="46.17756" lon="5.87383">
        <ele>1207</ele>
        <time>2019-05-05T14:50:42Z</time>
      </trkpt>
      <trkpt lat="46.17757" lon="5.87359">
        <ele>1209</ele>
        <time>2019-05-05T14:50:55Z</time>
      </trkpt>
      <trkpt lat="46.17754" lon="5.87337">
        <ele>1211</ele>
        <time>2019-05-05T14:51:06Z</time>
      </trkpt>
      <trkpt lat="46.17746" lon="5.87326">
        <ele>1212</ele>
        <time>2019-05-05T14:51:13Z</time>
      </trkpt>
      <trkpt lat="46.17736" lon="5.87315">
        <ele>1212</ele>
        <time>2019-05-05T14:51:23Z</time>
      </trkpt>
      <trkpt lat="46.17731" lon="5.87302">
        <ele>1213</ele>
        <time>2019-05-05T14:51:30Z</time>
      </trkpt>
      <trkpt lat="46.17726" lon="5.87295">
        <ele>1213</ele>
        <time>2019-05-05T14:51:35Z</time>
      </trkpt>
      <trkpt lat="46.17722" lon="5.87283">
        <ele>1214</ele>
        <time>2019-05-05T14:51:42Z</time>
      </trkpt>
      <trkpt lat="46.17722" lon="5.87277">
        <ele>1215</ele>
        <time>2019-05-05T14:51:45Z</time>
      </trkpt>
      <trkpt lat="46.17713" lon="5.87264">
        <ele>1215</ele>
        <time>2019-05-05T14:51:54Z</time>
      </trkpt>
      <trkpt lat="46.177" lon="5.87242">
        <ele>1216</ele>
        <time>2019-05-05T14:52:09Z</time>
      </trkpt>
      <trkpt lat="46.17696" lon="5.87236">
        <ele>1217</ele>
        <time>2019-05-05T14:52:13Z</time>
      </trkpt>
      <trkpt lat="46.1769" lon="5.87225">
        <ele>1218</ele>
        <time>2019-05-05T14:52:20Z</time>
      </trkpt>
      <trkpt lat="46.17687" lon="5.87223">
        <ele>1218</ele>
        <time>2019-05-05T14:52:23Z</time>
      </trkpt>
      <trkpt lat="46.17686" lon="5.87223">
        <ele>1217</ele>
        <time>2019-05-05T14:52:24Z</time>
      </trkpt>
      <trkpt lat="46.17685" lon="5.87223">
        <ele>1217</ele>
        <time>2019-05-05T14:52:24Z</time>
      </trkpt>
      <trkpt lat="46.17684" lon="5.87222">
        <ele>1218</ele>
        <time>2019-05-05T14:52:25Z</time>
      </trkpt>
      <trkpt lat="46.17681" lon="5.87219">
        <ele>1218</ele>
        <time>2019-05-05T14:52:28Z</time>
      </trkpt>
      <trkpt lat="46.17671" lon="5.87203">
        <ele>1220</ele>
        <time>2019-05-05T14:52:39Z</time>
      </trkpt>
      <trkpt lat="46.17671" lon="5.87201">
        <ele>1221</ele>
        <time>2019-05-05T14:52:40Z</time>
      </trkpt>
      <trkpt lat="46.17671" lon="5.87196">
        <ele>1221</ele>
        <time>2019-05-05T14:52:43Z</time>
      </trkpt>
      <trkpt lat="46.1767" lon="5.87194">
        <ele>1221</ele>
        <time>2019-05-05T14:52:44Z</time>
      </trkpt>
      <trkpt lat="46.1767" lon="5.87193">
        <ele>1221</ele>
        <time>2019-05-05T14:52:44Z</time>
      </trkpt>
      <trkpt lat="46.17669" lon="5.87192">
        <ele>1222</ele>
        <time>2019-05-05T14:52:46Z</time>
      </trkpt>
      <trkpt lat="46.17667" lon="5.87185">
        <ele>1222</ele>
        <time>2019-05-05T14:52:49Z</time>
      </trkpt>
      <trkpt lat="46.17666" lon="5.87182">
        <ele>1223</ele>
        <time>2019-05-05T14:52:51Z</time>
      </trkpt>
      <trkpt lat="46.17665" lon="5.87181">
        <ele>1223</ele>
        <time>2019-05-05T14:52:52Z</time>
      </trkpt>
      <trkpt lat="46.17661" lon="5.87173">
        <ele>1224</ele>
        <time>2019-05-05T14:52:57Z</time>
      </trkpt>
      <trkpt lat="46.17659" lon="5.87169">
        <ele>1225</ele>
        <time>2019-05-05T14:52:59Z</time>
      </trkpt>
      <trkpt lat="46.17652" lon="5.87153">
        <ele>1227</ele>
        <time>2019-05-05T14:53:09Z</time>
      </trkpt>
      <trkpt lat="46.17648" lon="5.87147">
        <ele>1227</ele>
        <time>2019-05-05T14:53:13Z</time>
      </trkpt>
      <trkpt lat="46.17646" lon="5.87145">
        <ele>1228</ele>
        <time>2019-05-05T14:53:15Z</time>
      </trkpt>
      <trkpt lat="46.17644" lon="5.87141">
        <ele>1228</ele>
        <time>2019-05-05T14:53:17Z</time>
      </trkpt>
      <trkpt lat="46.17642" lon="5.87139">
        <ele>1228</ele>
        <time>2019-05-05T14:53:19Z</time>
      </trkpt>
      <trkpt lat="46.17638" lon="5.87137">
        <ele>1228</ele>
        <time>2019-05-05T14:53:22Z</time>
      </trkpt>
      <trkpt lat="46.17629" lon="5.8713">
        <ele>1229</ele>
        <time>2019-05-05T14:53:30Z</time>
      </trkpt>
      <trkpt lat="46.17626" lon="5.87129">
        <ele>1229</ele>
        <time>2019-05-05T14:53:32Z</time>
      </trkpt>
      <trkpt lat="46.17623" lon="5.87127">
        <ele>1229</ele>
        <time>2019-05-05T14:53:34Z</time>
      </trkpt>
      <trkpt lat="46.17619" lon="5.87125">
        <ele>1230</ele>
        <time>2019-05-05T14:53:37Z</time>
      </trkpt>
      <trkpt lat="46.17618" lon="5.87125">
        <ele>1229</ele>
        <time>2019-05-05T14:53:38Z</time>
      </trkpt>
      <trkpt lat="46.1761" lon="5.87123">
        <ele>1229</ele>
        <time>2019-05-05T14:53:45Z</time>
      </trkpt>
      <trkpt lat="46.17597" lon="5.87126">
        <ele>1229</ele>
        <time>2019-05-05T14:53:54Z</time>
      </trkpt>
      <trkpt lat="46.17596" lon="5.87124">
        <ele>1229</ele>
        <time>2019-05-05T14:53:55Z</time>
      </trkpt>
      <trkpt lat="46.17595" lon="5.87122">
        <ele>1229</ele>
        <time>2019-05-05T14:53:56Z</time>
      </trkpt>
      <trkpt lat="46.17588" lon="5.87112">
        <ele>1230</ele>
        <time>2019-05-05T14:54:03Z</time>
      </trkpt>
      <trkpt lat="46.17586" lon="5.8711">
        <ele>1230</ele>
        <time>2019-05-05T14:54:05Z</time>
      </trkpt>
      <trkpt lat="46.17582" lon="5.87108">
        <ele>1231</ele>
        <time>2019-05-05T14:54:09Z</time>
      </trkpt>
      <trkpt lat="46.17577" lon="5.87107">
        <ele>1231</ele>
        <time>2019-05-05T14:54:12Z</time>
      </trkpt>
      <trkpt lat="46.17576" lon="5.87109">
        <ele>1230</ele>
        <time>2019-05-05T14:54:14Z</time>
      </trkpt>
      <trkpt lat="46.17568" lon="5.87107">
        <ele>1231</ele>
        <time>2019-05-05T14:54:19Z</time>
      </trkpt>
      <trkpt lat="46.17563" lon="5.87105">
        <ele>1231</ele>
        <time>2019-05-05T14:54:23Z</time>
      </trkpt>
      <trkpt lat="46.17561" lon="5.87099">
        <ele>1231</ele>
        <time>2019-05-05T14:54:26Z</time>
      </trkpt>
      <trkpt lat="46.17555" lon="5.87091">
        <ele>1232</ele>
        <time>2019-05-05T14:54:32Z</time>
      </trkpt>
      <trkpt lat="46.1755" lon="5.87086">
        <ele>1233</ele>
        <time>2019-05-05T14:54:37Z</time>
      </trkpt>
      <trkpt lat="46.17538" lon="5.87076">
        <ele>1234</ele>
        <time>2019-05-05T14:54:46Z</time>
      </trkpt>
      <trkpt lat="46.17535" lon="5.87073">
        <ele>1235</ele>
        <time>2019-05-05T14:54:49Z</time>
      </trkpt>
      <trkpt lat="46.17533" lon="5.87071">
        <ele>1235</ele>
        <time>2019-05-05T14:54:51Z</time>
      </trkpt>
      <trkpt lat="46.17531" lon="5.87069">
        <ele>1235</ele>
        <time>2019-05-05T14:54:53Z</time>
      </trkpt>
      <trkpt lat="46.17522" lon="5.87063">
        <ele>1236</ele>
        <time>2019-05-05T14:55:00Z</time>
      </trkpt>
      <trkpt lat="46.1752" lon="5.87063">
        <ele>1236</ele>
        <time>2019-05-05T14:55:02Z</time>
      </trkpt>
      <trkpt lat="46.17516" lon="5.87058">
        <ele>1237</ele>
        <time>2019-05-05T14:55:05Z</time>
      </trkpt>
      <trkpt lat="46.17516" lon="5.87058">
        <ele>1237</ele>
        <time>2019-05-05T14:55:06Z</time>
      </trkpt>
      <trkpt lat="46.1751" lon="5.87058">
        <ele>1237</ele>
        <time>2019-05-05T14:55:10Z</time>
      </trkpt>
      <trkpt lat="46.17508" lon="5.87056">
        <ele>1237</ele>
        <time>2019-05-05T14:55:12Z</time>
      </trkpt>
      <trkpt lat="46.17504" lon="5.87054">
        <ele>1238</ele>
        <time>2019-05-05T14:55:15Z</time>
      </trkpt>
      <trkpt lat="46.17499" lon="5.87053">
        <ele>1238</ele>
        <time>2019-05-05T14:55:19Z</time>
      </trkpt>
      <trkpt lat="46.17496" lon="5.87054">
        <ele>1238</ele>
        <time>2019-05-05T14:55:21Z</time>
      </trkpt>
      <trkpt lat="46.17494" lon="5.87054">
        <ele>1238</ele>
        <time>2019-05-05T14:55:22Z</time>
      </trkpt>
      <trkpt lat="46.17489" lon="5.87057">
        <ele>1238</ele>
        <time>2019-05-05T14:55:26Z</time>
      </trkpt>
      <trkpt lat="46.17488" lon="5.87056">
        <ele>1238</ele>
        <time>2019-05-05T14:55:27Z</time>
      </trkpt>
      <trkpt lat="46.17489" lon="5.87056">
        <ele>1238</ele>
        <time>2019-05-05T14:55:27Z</time>
      </trkpt>
      <trkpt lat="46.17491" lon="5.87067">
        <ele>1236</ele>
        <time>2019-05-05T14:55:33Z</time>
      </trkpt>
      <trkpt lat="46.17489" lon="5.87067">
        <ele>1237</ele>
        <time>2019-05-05T14:55:35Z</time>
      </trkpt>
      <trkpt lat="46.17481" lon="5.87066">
        <ele>1237</ele>
        <time>2019-05-05T14:55:41Z</time>
      </trkpt>
      <trkpt lat="46.17476" lon="5.87066">
        <ele>1237</ele>
        <time>2019-05-05T14:55:44Z</time>
      </trkpt>
      <trkpt lat="46.17475" lon="5.87066">
        <ele>1237</ele>
        <time>2019-05-05T14:55:45Z</time>
      </trkpt>
      <trkpt lat="46.17471" lon="5.87066">
        <ele>1237</ele>
        <time>2019-05-05T14:55:48Z</time>
      </trkpt>
      <trkpt lat="46.17468" lon="5.87064">
        <ele>1238</ele>
        <time>2019-05-05T14:55:50Z</time>
      </trkpt>
      <trkpt lat="46.17469" lon="5.87062">
        <ele>1238</ele>
        <time>2019-05-05T14:55:51Z</time>
      </trkpt>
      <trkpt lat="46.17472" lon="5.8706">
        <ele>1238</ele>
        <time>2019-05-05T14:55:54Z</time>
      </trkpt>
      <trkpt lat="46.17478" lon="5.87054">
        <ele>1239</ele>
        <time>2019-05-05T14:55:59Z</time>
      </trkpt>
      <trkpt lat="46.17481" lon="5.87052">
        <ele>1239</ele>
        <time>2019-05-05T14:56:01Z</time>
      </trkpt>
      <trkpt lat="46.17482" lon="5.87052">
        <ele>1239</ele>
        <time>2019-05-05T14:56:02Z</time>
      </trkpt>
      <trkpt lat="46.17483" lon="5.87051">
        <ele>1239</ele>
        <time>2019-05-05T14:56:03Z</time>
      </trkpt>
      <trkpt lat="46.17485" lon="5.87048">
        <ele>1239</ele>
        <time>2019-05-05T14:56:05Z</time>
      </trkpt>
      <trkpt lat="46.17493" lon="5.8705">
        <ele>1239</ele>
        <time>2019-05-05T14:56:10Z</time>
      </trkpt>
      <trkpt lat="46.175" lon="5.8706">
        <ele>1237</ele>
        <time>2019-05-05T14:56:18Z</time>
      </trkpt>
      <trkpt lat="46.17492" lon="5.87065">
        <ele>1237</ele>
        <time>2019-05-05T14:56:24Z</time>
      </trkpt>
      <trkpt lat="46.17488" lon="5.87069">
        <ele>1236</ele>
        <time>2019-05-05T14:56:28Z</time>
      </trkpt>
      <trkpt lat="46.17494" lon="5.87061">
        <ele>1237</ele>
        <time>2019-05-05T14:56:33Z</time>
      </trkpt>
      <trkpt lat="46.17503" lon="5.87057">
        <ele>1237</ele>
        <time>2019-05-05T14:56:40Z</time>
      </trkpt>
      <trkpt lat="46.17496" lon="5.87071">
        <ele>1236</ele>
        <time>2019-05-05T14:56:48Z</time>
      </trkpt>
      <trkpt lat="46.17497" lon="5.87064">
        <ele>1237</ele>
        <time>2019-05-05T14:56:51Z</time>
      </trkpt>
      <trkpt lat="46.17503" lon="5.87069">
        <ele>1236</ele>
        <time>2019-05-05T14:56:56Z</time>
      </trkpt>
      <trkpt lat="46.17496" lon="5.87041">
        <ele>1240</ele>
        <time>2019-05-05T14:57:12Z</time>
      </trkpt>
      <trkpt lat="46.17496" lon="5.87039">
        <ele>1240</ele>
        <time>2019-05-05T14:57:13Z</time>
      </trkpt>
      <trkpt lat="46.17488" lon="5.87038">
        <ele>1241</ele>
        <time>2019-05-05T14:57:18Z</time>
      </trkpt>
      <trkpt lat="46.17487" lon="5.87039">
        <ele>1241</ele>
        <time>2019-05-05T14:57:20Z</time>
      </trkpt>
      <trkpt lat="46.17477" lon="5.87073">
        <ele>1236</ele>
        <time>2019-05-05T14:57:38Z</time>
      </trkpt>
      <trkpt lat="46.17488" lon="5.8708">
        <ele>1235</ele>
        <time>2019-05-05T14:57:47Z</time>
      </trkpt>
      <trkpt lat="46.17483" lon="5.87096">
        <ele>1233</ele>
        <time>2019-05-05T14:57:56Z</time>
      </trkpt>
      <trkpt lat="46.17488" lon="5.87083">
        <ele>1234</ele>
        <time>2019-05-05T14:58:04Z</time>
      </trkpt>
      <trkpt lat="46.17495" lon="5.87073">
        <ele>1235</ele>
        <time>2019-05-05T14:58:11Z</time>
      </trkpt>
      <trkpt lat="46.17488" lon="5.87073">
        <ele>1236</ele>
        <time>2019-05-05T14:58:17Z</time>
      </trkpt>
      <trkpt lat="46.17481" lon="5.87071">
        <ele>1236</ele>
        <time>2019-05-05T14:58:22Z</time>
      </trkpt>
      <trkpt lat="46.17473" lon="5.8707">
        <ele>1237</ele>
        <time>2019-05-05T14:58:27Z</time>
      </trkpt>
      <trkpt lat="46.17469" lon="5.87068">
        <ele>1237</ele>
        <time>2019-05-05T14:58:31Z</time>
      </trkpt>
      <trkpt lat="46.17464" lon="5.87065">
        <ele>1238</ele>
        <time>2019-05-05T14:58:34Z</time>
      </trkpt>
      <trkpt lat="46.17458" lon="5.87061">
        <ele>1239</ele>
        <time>2019-05-05T14:58:39Z</time>
      </trkpt>
      <trkpt lat="46.17456" lon="5.87059">
        <ele>1239</ele>
        <time>2019-05-05T14:58:41Z</time>
      </trkpt>
      <trkpt lat="46.17441" lon="5.87056">
        <ele>1240</ele>
        <time>2019-05-05T14:58:52Z</time>
      </trkpt>
      <trkpt lat="46.1743" lon="5.87047">
        <ele>1242</ele>
        <time>2019-05-05T14:59:01Z</time>
      </trkpt>
      <trkpt lat="46.17413" lon="5.87033">
        <ele>1244</ele>
        <time>2019-05-05T14:59:15Z</time>
      </trkpt>
      <trkpt lat="46.17409" lon="5.8703">
        <ele>1245</ele>
        <time>2019-05-05T14:59:19Z</time>
      </trkpt>
      <trkpt lat="46.17399" lon="5.87024">
        <ele>1246</ele>
        <time>2019-05-05T14:59:27Z</time>
      </trkpt>
      <trkpt lat="46.17387" lon="5.87023">
        <ele>1247</ele>
        <time>2019-05-05T14:59:35Z</time>
      </trkpt>
      <trkpt lat="46.17375" lon="5.87024">
        <ele>1247</ele>
        <time>2019-05-05T14:59:44Z</time>
      </trkpt>
      <trkpt lat="46.17361" lon="5.87019">
        <ele>1248</ele>
        <time>2019-05-05T14:59:54Z</time>
      </trkpt>
      <trkpt lat="46.1736" lon="5.87018">
        <ele>1248</ele>
        <time>2019-05-05T14:59:55Z</time>
      </trkpt>
      <trkpt lat="46.17347" lon="5.87006">
        <ele>1251</ele>
        <time>2019-05-05T15:00:06Z</time>
      </trkpt>
      <trkpt lat="46.17341" lon="5.86991">
        <ele>1253</ele>
        <time>2019-05-05T15:00:15Z</time>
      </trkpt>
      <trkpt lat="46.1734" lon="5.86988">
        <ele>1253</ele>
        <time>2019-05-05T15:00:17Z</time>
      </trkpt>
      <trkpt lat="46.17335" lon="5.86985">
        <ele>1254</ele>
        <time>2019-05-05T15:00:20Z</time>
      </trkpt>
      <trkpt lat="46.1733" lon="5.86982">
        <ele>1254</ele>
        <time>2019-05-05T15:00:24Z</time>
      </trkpt>
      <trkpt lat="46.1733" lon="5.86981">
        <ele>1255</ele>
        <time>2019-05-05T15:00:25Z</time>
      </trkpt>
      <trkpt lat="46.17327" lon="5.86974">
        <ele>1256</ele>
        <time>2019-05-05T15:00:29Z</time>
      </trkpt>
      <trkpt lat="46.1731" lon="5.86968">
        <ele>1257</ele>
        <time>2019-05-05T15:00:42Z</time>
      </trkpt>
      <trkpt lat="46.17309" lon="5.86967">
        <ele>1257</ele>
        <time>2019-05-05T15:00:43Z</time>
      </trkpt>
      <trkpt lat="46.17303" lon="5.86963">
        <ele>1257</ele>
        <time>2019-05-05T15:00:48Z</time>
      </trkpt>
      <trkpt lat="46.17301" lon="5.86963">
        <ele>1257</ele>
        <time>2019-05-05T15:00:49Z</time>
      </trkpt>
      <trkpt lat="46.17291" lon="5.86964">
        <ele>1257</ele>
        <time>2019-05-05T15:00:56Z</time>
      </trkpt>
      <trkpt lat="46.17292" lon="5.86966">
        <ele>1257</ele>
        <time>2019-05-05T15:00:57Z</time>
      </trkpt>
      <trkpt lat="46.17295" lon="5.86974">
        <ele>1256</ele>
        <time>2019-05-05T15:01:02Z</time>
      </trkpt>
      <trkpt lat="46.17291" lon="5.86963">
        <ele>1257</ele>
        <time>2019-05-05T15:01:09Z</time>
      </trkpt>
      <trkpt lat="46.17294" lon="5.86952">
        <ele>1259</ele>
        <time>2019-05-05T15:01:15Z</time>
      </trkpt>
      <trkpt lat="46.17297" lon="5.86948">
        <ele>1259</ele>
        <time>2019-05-05T15:01:18Z</time>
      </trkpt>
      <trkpt lat="46.17299" lon="5.86939">
        <ele>1260</ele>
        <time>2019-05-05T15:01:23Z</time>
      </trkpt>
      <trkpt lat="46.17298" lon="5.86939">
        <ele>1260</ele>
        <time>2019-05-05T15:01:23Z</time>
      </trkpt>
      <trkpt lat="46.17298" lon="5.86936">
        <ele>1261</ele>
        <time>2019-05-05T15:01:24Z</time>
      </trkpt>
      <trkpt lat="46.17297" lon="5.86933">
        <ele>1261</ele>
        <time>2019-05-05T15:01:26Z</time>
      </trkpt>
      <trkpt lat="46.17299" lon="5.86929">
        <ele>1262</ele>
        <time>2019-05-05T15:01:29Z</time>
      </trkpt>
      <trkpt lat="46.17299" lon="5.86928">
        <ele>1262</ele>
        <time>2019-05-05T15:01:29Z</time>
      </trkpt>
      <trkpt lat="46.17299" lon="5.86926">
        <ele>1262</ele>
        <time>2019-05-05T15:01:30Z</time>
      </trkpt>
      <trkpt lat="46.17299" lon="5.86924">
        <ele>1262</ele>
        <time>2019-05-05T15:01:31Z</time>
      </trkpt>
      <trkpt lat="46.17299" lon="5.8692">
        <ele>1263</ele>
        <time>2019-05-05T15:01:33Z</time>
      </trkpt>
      <trkpt lat="46.17298" lon="5.86916">
        <ele>1264</ele>
        <time>2019-05-05T15:01:35Z</time>
      </trkpt>
      <trkpt lat="46.17297" lon="5.86912">
        <ele>1264</ele>
        <time>2019-05-05T15:01:38Z</time>
      </trkpt>
      <trkpt lat="46.17295" lon="5.86908">
        <ele>1265</ele>
        <time>2019-05-05T15:01:40Z</time>
      </trkpt>
      <trkpt lat="46.17294" lon="5.86904">
        <ele>1265</ele>
        <time>2019-05-05T15:01:42Z</time>
      </trkpt>
      <trkpt lat="46.17295" lon="5.869">
        <ele>1266</ele>
        <time>2019-05-05T15:01:44Z</time>
      </trkpt>
      <trkpt lat="46.17296" lon="5.86894">
        <ele>1267</ele>
        <time>2019-05-05T15:01:47Z</time>
      </trkpt>
      <trkpt lat="46.17295" lon="5.86891">
        <ele>1267</ele>
        <time>2019-05-05T15:01:49Z</time>
      </trkpt>
      <trkpt lat="46.17294" lon="5.86889">
        <ele>1267</ele>
        <time>2019-05-05T15:01:50Z</time>
      </trkpt>
      <trkpt lat="46.17294" lon="5.86888">
        <ele>1268</ele>
        <time>2019-05-05T15:01:51Z</time>
      </trkpt>
      <trkpt lat="46.17295" lon="5.8688">
        <ele>1269</ele>
        <time>2019-05-05T15:01:55Z</time>
      </trkpt>
      <trkpt lat="46.17295" lon="5.86877">
        <ele>1269</ele>
        <time>2019-05-05T15:01:57Z</time>
      </trkpt>
      <trkpt lat="46.17295" lon="5.86875">
        <ele>1270</ele>
        <time>2019-05-05T15:01:58Z</time>
      </trkpt>
      <trkpt lat="46.17294" lon="5.8687">
        <ele>1270</ele>
        <time>2019-05-05T15:02:00Z</time>
      </trkpt>
      <trkpt lat="46.17293" lon="5.86869">
        <ele>1270</ele>
        <time>2019-05-05T15:02:01Z</time>
      </trkpt>
      <trkpt lat="46.17293" lon="5.86867">
        <ele>1271</ele>
        <time>2019-05-05T15:02:02Z</time>
      </trkpt>
      <trkpt lat="46.17292" lon="5.86863">
        <ele>1271</ele>
        <time>2019-05-05T15:02:05Z</time>
      </trkpt>
      <trkpt lat="46.17294" lon="5.86857">
        <ele>1272</ele>
        <time>2019-05-05T15:02:08Z</time>
      </trkpt>
      <trkpt lat="46.17294" lon="5.86853">
        <ele>1273</ele>
        <time>2019-05-05T15:02:10Z</time>
      </trkpt>
      <trkpt lat="46.17293" lon="5.86851">
        <ele>1273</ele>
        <time>2019-05-05T15:02:11Z</time>
      </trkpt>
      <trkpt lat="46.17293" lon="5.86849">
        <ele>1273</ele>
        <time>2019-05-05T15:02:12Z</time>
      </trkpt>
      <trkpt lat="46.17294" lon="5.86847">
        <ele>1274</ele>
        <time>2019-05-05T15:02:13Z</time>
      </trkpt>
      <trkpt lat="46.17295" lon="5.86845">
        <ele>1274</ele>
        <time>2019-05-05T15:02:14Z</time>
      </trkpt>
      <trkpt lat="46.17293" lon="5.86838">
        <ele>1275</ele>
        <time>2019-05-05T15:02:18Z</time>
      </trkpt>
      <trkpt lat="46.17292" lon="5.86837">
        <ele>1275</ele>
        <time>2019-05-05T15:02:19Z</time>
      </trkpt>
      <trkpt lat="46.17292" lon="5.86835">
        <ele>1276</ele>
        <time>2019-05-05T15:02:20Z</time>
      </trkpt>
      <trkpt lat="46.17289" lon="5.86822">
        <ele>1278</ele>
        <time>2019-05-05T15:02:27Z</time>
      </trkpt>
      <trkpt lat="46.17287" lon="5.86818">
        <ele>1279</ele>
        <time>2019-05-05T15:02:30Z</time>
      </trkpt>
      <trkpt lat="46.17281" lon="5.86812">
        <ele>1280</ele>
        <time>2019-05-05T15:02:35Z</time>
      </trkpt>
      <trkpt lat="46.17281" lon="5.86811">
        <ele>1280</ele>
        <time>2019-05-05T15:02:35Z</time>
      </trkpt>
      <trkpt lat="46.17278" lon="5.86809">
        <ele>1280</ele>
        <time>2019-05-05T15:02:38Z</time>
      </trkpt>
      <trkpt lat="46.17276" lon="5.86807">
        <ele>1280</ele>
        <time>2019-05-05T15:02:40Z</time>
      </trkpt>
      <trkpt lat="46.17274" lon="5.86801">
        <ele>1281</ele>
        <time>2019-05-05T15:02:43Z</time>
      </trkpt>
      <trkpt lat="46.17274" lon="5.868">
        <ele>1282</ele>
        <time>2019-05-05T15:02:44Z</time>
      </trkpt>
      <trkpt lat="46.17272" lon="5.86792">
        <ele>1283</ele>
        <time>2019-05-05T15:02:48Z</time>
      </trkpt>
      <trkpt lat="46.17272" lon="5.86791">
        <ele>1283</ele>
        <time>2019-05-05T15:02:48Z</time>
      </trkpt>
      <trkpt lat="46.17271" lon="5.86787">
        <ele>1284</ele>
        <time>2019-05-05T15:02:50Z</time>
      </trkpt>
      <trkpt lat="46.17272" lon="5.86782">
        <ele>1285</ele>
        <time>2019-05-05T15:02:53Z</time>
      </trkpt>
      <trkpt lat="46.17271" lon="5.86779">
        <ele>1285</ele>
        <time>2019-05-05T15:02:55Z</time>
      </trkpt>
      <trkpt lat="46.17271" lon="5.86778">
        <ele>1286</ele>
        <time>2019-05-05T15:02:56Z</time>
      </trkpt>
      <trkpt lat="46.1727" lon="5.86774">
        <ele>1286</ele>
        <time>2019-05-05T15:02:58Z</time>
      </trkpt>
      <trkpt lat="46.1727" lon="5.86772">
        <ele>1287</ele>
        <time>2019-05-05T15:02:59Z</time>
      </trkpt>
      <trkpt lat="46.17269" lon="5.86767">
        <ele>1288</ele>
        <time>2019-05-05T15:03:02Z</time>
      </trkpt>
      <trkpt lat="46.17268" lon="5.86765">
        <ele>1288</ele>
        <time>2019-05-05T15:03:03Z</time>
      </trkpt>
      <trkpt lat="46.17266" lon="5.86762">
        <ele>1289</ele>
        <time>2019-05-05T15:03:05Z</time>
      </trkpt>
      <trkpt lat="46.17266" lon="5.8676">
        <ele>1289</ele>
        <time>2019-05-05T15:03:06Z</time>
      </trkpt>
      <trkpt lat="46.17266" lon="5.86754">
        <ele>1290</ele>
        <time>2019-05-05T15:03:09Z</time>
      </trkpt>
      <trkpt lat="46.17266" lon="5.8675">
        <ele>1291</ele>
        <time>2019-05-05T15:03:11Z</time>
      </trkpt>
      <trkpt lat="46.17267" lon="5.86747">
        <ele>1292</ele>
        <time>2019-05-05T15:03:13Z</time>
      </trkpt>
      <trkpt lat="46.17267" lon="5.86743">
        <ele>1293</ele>
        <time>2019-05-05T15:03:15Z</time>
      </trkpt>
      <trkpt lat="46.17266" lon="5.86739">
        <ele>1293</ele>
        <time>2019-05-05T15:03:17Z</time>
      </trkpt>
      <trkpt lat="46.17265" lon="5.86737">
        <ele>1294</ele>
        <time>2019-05-05T15:03:18Z</time>
      </trkpt>
      <trkpt lat="46.17266" lon="5.86736">
        <ele>1294</ele>
        <time>2019-05-05T15:03:19Z</time>
      </trkpt>
      <trkpt lat="46.17266" lon="5.86731">
        <ele>1295</ele>
        <time>2019-05-05T15:03:21Z</time>
      </trkpt>
      <trkpt lat="46.17266" lon="5.86729">
        <ele>1295</ele>
        <time>2019-05-05T15:03:22Z</time>
      </trkpt>
      <trkpt lat="46.17265" lon="5.86728">
        <ele>1296</ele>
        <time>2019-05-05T15:03:23Z</time>
      </trkpt>
      <trkpt lat="46.17265" lon="5.86722">
        <ele>1297</ele>
        <time>2019-05-05T15:03:26Z</time>
      </trkpt>
      <trkpt lat="46.17265" lon="5.86721">
        <ele>1297</ele>
        <time>2019-05-05T15:03:27Z</time>
      </trkpt>
      <trkpt lat="46.17263" lon="5.86717">
        <ele>1298</ele>
        <time>2019-05-05T15:03:29Z</time>
      </trkpt>
      <trkpt lat="46.17261" lon="5.86713">
        <ele>1299</ele>
        <time>2019-05-05T15:03:32Z</time>
      </trkpt>
      <trkpt lat="46.17257" lon="5.8671">
        <ele>1299</ele>
        <time>2019-05-05T15:03:35Z</time>
      </trkpt>
      <trkpt lat="46.17255" lon="5.86707">
        <ele>1300</ele>
        <time>2019-05-05T15:03:37Z</time>
      </trkpt>
      <trkpt lat="46.17255" lon="5.86706">
        <ele>1300</ele>
        <time>2019-05-05T15:03:38Z</time>
      </trkpt>
      <trkpt lat="46.17254" lon="5.86703">
        <ele>1301</ele>
        <time>2019-05-05T15:03:40Z</time>
      </trkpt>
      <trkpt lat="46.17249" lon="5.86697">
        <ele>1302</ele>
        <time>2019-05-05T15:03:44Z</time>
      </trkpt>
      <trkpt lat="46.17242" lon="5.86691">
        <ele>1304</ele>
        <time>2019-05-05T15:03:50Z</time>
      </trkpt>
      <trkpt lat="46.17238" lon="5.86689">
        <ele>1304</ele>
        <time>2019-05-05T15:03:53Z</time>
      </trkpt>
      <trkpt lat="46.17236" lon="5.86686">
        <ele>1305</ele>
        <time>2019-05-05T15:03:55Z</time>
      </trkpt>
      <trkpt lat="46.17234" lon="5.86683">
        <ele>1305</ele>
        <time>2019-05-05T15:03:57Z</time>
      </trkpt>
      <trkpt lat="46.17229" lon="5.86679">
        <ele>1307</ele>
        <time>2019-05-05T15:04:02Z</time>
      </trkpt>
      <trkpt lat="46.17226" lon="5.86676">
        <ele>1307</ele>
        <time>2019-05-05T15:04:04Z</time>
      </trkpt>
      <trkpt lat="46.17224" lon="5.86676">
        <ele>1307</ele>
        <time>2019-05-05T15:04:06Z</time>
      </trkpt>
      <trkpt lat="46.17222" lon="5.86675">
        <ele>1307</ele>
        <time>2019-05-05T15:04:08Z</time>
      </trkpt>
      <trkpt lat="46.17217" lon="5.86672">
        <ele>1308</ele>
        <time>2019-05-05T15:04:11Z</time>
      </trkpt>
      <trkpt lat="46.17215" lon="5.86671">
        <ele>1308</ele>
        <time>2019-05-05T15:04:13Z</time>
      </trkpt>
      <trkpt lat="46.17214" lon="5.8667">
        <ele>1309</ele>
        <time>2019-05-05T15:04:15Z</time>
      </trkpt>
      <trkpt lat="46.17207" lon="5.8667">
        <ele>1309</ele>
        <time>2019-05-05T15:04:19Z</time>
      </trkpt>
      <trkpt lat="46.17206" lon="5.8667">
        <ele>1309</ele>
        <time>2019-05-05T15:04:20Z</time>
      </trkpt>
      <trkpt lat="46.17205" lon="5.86669">
        <ele>1309</ele>
        <time>2019-05-05T15:04:21Z</time>
      </trkpt>
      <trkpt lat="46.17204" lon="5.86667">
        <ele>1309</ele>
        <time>2019-05-05T15:04:22Z</time>
      </trkpt>
      <trkpt lat="46.17204" lon="5.86664">
        <ele>1310</ele>
        <time>2019-05-05T15:04:24Z</time>
      </trkpt>
      <trkpt lat="46.17202" lon="5.86663">
        <ele>1310</ele>
        <time>2019-05-05T15:04:25Z</time>
      </trkpt>
      <trkpt lat="46.172" lon="5.86659">
        <ele>1311</ele>
        <time>2019-05-05T15:04:28Z</time>
      </trkpt>
      <trkpt lat="46.17198" lon="5.86657">
        <ele>1312</ele>
        <time>2019-05-05T15:04:30Z</time>
      </trkpt>
      <trkpt lat="46.17192" lon="5.86652">
        <ele>1313</ele>
        <time>2019-05-05T15:04:35Z</time>
      </trkpt>
      <trkpt lat="46.17183" lon="5.86647">
        <ele>1314</ele>
        <time>2019-05-05T15:04:41Z</time>
      </trkpt>
      <trkpt lat="46.17182" lon="5.86646">
        <ele>1314</ele>
        <time>2019-05-05T15:04:43Z</time>
      </trkpt>
      <trkpt lat="46.17167" lon="5.86645">
        <ele>1314</ele>
        <time>2019-05-05T15:04:54Z</time>
      </trkpt>
      <trkpt lat="46.17164" lon="5.86644">
        <ele>1314</ele>
        <time>2019-05-05T15:04:55Z</time>
      </trkpt>
      <trkpt lat="46.17164" lon="5.86643">
        <ele>1314</ele>
        <time>2019-05-05T15:04:56Z</time>
      </trkpt>
      <trkpt lat="46.17161" lon="5.86641">
        <ele>1315</ele>
        <time>2019-05-05T15:04:59Z</time>
      </trkpt>
      <trkpt lat="46.17153" lon="5.8664">
        <ele>1315</ele>
        <time>2019-05-05T15:05:05Z</time>
      </trkpt>
      <trkpt lat="46.17152" lon="5.86639">
        <ele>1315</ele>
        <time>2019-05-05T15:05:06Z</time>
      </trkpt>
      <trkpt lat="46.17151" lon="5.86639">
        <ele>1315</ele>
        <time>2019-05-05T15:05:06Z</time>
      </trkpt>
      <trkpt lat="46.17148" lon="5.86636">
        <ele>1316</ele>
        <time>2019-05-05T15:05:09Z</time>
      </trkpt>
      <trkpt lat="46.17145" lon="5.86633">
        <ele>1316</ele>
        <time>2019-05-05T15:05:11Z</time>
      </trkpt>
      <trkpt lat="46.17142" lon="5.86633">
        <ele>1316</ele>
        <time>2019-05-05T15:05:13Z</time>
      </trkpt>
      <trkpt lat="46.17141" lon="5.86632">
        <ele>1316</ele>
        <time>2019-05-05T15:05:15Z</time>
      </trkpt>
      <trkpt lat="46.17137" lon="5.86627">
        <ele>1318</ele>
        <time>2019-05-05T15:05:18Z</time>
      </trkpt>
      <trkpt lat="46.17137" lon="5.86626">
        <ele>1318</ele>
        <time>2019-05-05T15:05:19Z</time>
      </trkpt>
      <trkpt lat="46.17133" lon="5.86624">
        <ele>1318</ele>
        <time>2019-05-05T15:05:22Z</time>
      </trkpt>
      <trkpt lat="46.17131" lon="5.86623">
        <ele>1318</ele>
        <time>2019-05-05T15:05:24Z</time>
      </trkpt>
      <trkpt lat="46.17128" lon="5.86619">
        <ele>1319</ele>
        <time>2019-05-05T15:05:27Z</time>
      </trkpt>
      <trkpt lat="46.17119" lon="5.86615">
        <ele>1320</ele>
        <time>2019-05-05T15:05:33Z</time>
      </trkpt>
      <trkpt lat="46.17113" lon="5.86613">
        <ele>1320</ele>
        <time>2019-05-05T15:05:38Z</time>
      </trkpt>
      <trkpt lat="46.17108" lon="5.86611">
        <ele>1321</ele>
        <time>2019-05-05T15:05:42Z</time>
      </trkpt>
      <trkpt lat="46.17101" lon="5.86608">
        <ele>1322</ele>
        <time>2019-05-05T15:05:47Z</time>
      </trkpt>
      <trkpt lat="46.17099" lon="5.86606">
        <ele>1322</ele>
        <time>2019-05-05T15:05:49Z</time>
      </trkpt>
      <trkpt lat="46.17089" lon="5.86606">
        <ele>1324</ele>
        <time>2019-05-05T15:05:56Z</time>
      </trkpt>
      <trkpt lat="46.17082" lon="5.86605">
        <ele>1324</ele>
        <time>2019-05-05T15:06:01Z</time>
      </trkpt>
      <trkpt lat="46.17078" lon="5.86605">
        <ele>1325</ele>
        <time>2019-05-05T15:06:04Z</time>
      </trkpt>
      <trkpt lat="46.17076" lon="5.86605">
        <ele>1325</ele>
        <time>2019-05-05T15:06:05Z</time>
      </trkpt>
      <trkpt lat="46.17074" lon="5.86602">
        <ele>1326</ele>
        <time>2019-05-05T15:06:08Z</time>
      </trkpt>
      <trkpt lat="46.1707" lon="5.866">
        <ele>1327</ele>
        <time>2019-05-05T15:06:10Z</time>
      </trkpt>
      <trkpt lat="46.17052" lon="5.86597">
        <ele>1330</ele>
        <time>2019-05-05T15:06:24Z</time>
      </trkpt>
      <trkpt lat="46.17037" lon="5.8659">
        <ele>1332</ele>
        <time>2019-05-05T15:06:35Z</time>
      </trkpt>
      <trkpt lat="46.17035" lon="5.86589">
        <ele>1333</ele>
        <time>2019-05-05T15:06:37Z</time>
      </trkpt>
      <trkpt lat="46.17031" lon="5.86584">
        <ele>1334</ele>
        <time>2019-05-05T15:06:40Z</time>
      </trkpt>
      <trkpt lat="46.17028" lon="5.86583">
        <ele>1334</ele>
        <time>2019-05-05T15:06:43Z</time>
      </trkpt>
      <trkpt lat="46.17028" lon="5.86583">
        <ele>1334</ele>
        <time>2019-05-05T15:06:43Z</time>
      </trkpt>
      <trkpt lat="46.17028" lon="5.86584">
        <ele>1334</ele>
        <time>2019-05-05T15:06:44Z</time>
      </trkpt>
      <trkpt lat="46.17027" lon="5.86583">
        <ele>1334</ele>
        <time>2019-05-05T15:06:44Z</time>
      </trkpt>
      <trkpt lat="46.17026" lon="5.86583">
        <ele>1335</ele>
        <time>2019-05-05T15:06:45Z</time>
      </trkpt>
      <trkpt lat="46.17023" lon="5.86583">
        <ele>1335</ele>
        <time>2019-05-05T15:06:48Z</time>
      </trkpt>
      <trkpt lat="46.17019" lon="5.86582">
        <ele>1336</ele>
        <time>2019-05-05T15:06:51Z</time>
      </trkpt>
      <trkpt lat="46.17016" lon="5.86583">
        <ele>1336</ele>
        <time>2019-05-05T15:06:53Z</time>
      </trkpt>
      <trkpt lat="46.17013" lon="5.86585">
        <ele>1336</ele>
        <time>2019-05-05T15:06:55Z</time>
      </trkpt>
      <trkpt lat="46.17009" lon="5.86586">
        <ele>1337</ele>
        <time>2019-05-05T15:06:58Z</time>
      </trkpt>
      <trkpt lat="46.17001" lon="5.86586">
        <ele>1338</ele>
        <time>2019-05-05T15:07:04Z</time>
      </trkpt>
      <trkpt lat="46.16999" lon="5.86589">
        <ele>1338</ele>
        <time>2019-05-05T15:07:06Z</time>
      </trkpt>
      <trkpt lat="46.16994" lon="5.86589">
        <ele>1339</ele>
        <time>2019-05-05T15:07:09Z</time>
      </trkpt>
      <trkpt lat="46.16992" lon="5.8659">
        <ele>1339</ele>
        <time>2019-05-05T15:07:11Z</time>
      </trkpt>
      <trkpt lat="46.16992" lon="5.8659">
        <ele>1339</ele>
        <time>2019-05-05T15:07:11Z</time>
      </trkpt>
      <trkpt lat="46.16991" lon="5.8659">
        <ele>1340</ele>
        <time>2019-05-05T15:07:12Z</time>
      </trkpt>
      <trkpt lat="46.1698" lon="5.86594">
        <ele>1341</ele>
        <time>2019-05-05T15:07:20Z</time>
      </trkpt>
      <trkpt lat="46.16977" lon="5.86593">
        <ele>1342</ele>
        <time>2019-05-05T15:07:23Z</time>
      </trkpt>
      <trkpt lat="46.16976" lon="5.86592">
        <ele>1342</ele>
        <time>2019-05-05T15:07:23Z</time>
      </trkpt>
      <trkpt lat="46.16975" lon="5.86592">
        <ele>1342</ele>
        <time>2019-05-05T15:07:24Z</time>
      </trkpt>
      <trkpt lat="46.16973" lon="5.86592">
        <ele>1343</ele>
        <time>2019-05-05T15:07:26Z</time>
      </trkpt>
      <trkpt lat="46.16966" lon="5.86592">
        <ele>1344</ele>
        <time>2019-05-05T15:07:31Z</time>
      </trkpt>
      <trkpt lat="46.16959" lon="5.86587">
        <ele>1346</ele>
        <time>2019-05-05T15:07:37Z</time>
      </trkpt>
      <trkpt lat="46.16956" lon="5.86585">
        <ele>1346</ele>
        <time>2019-05-05T15:07:39Z</time>
      </trkpt>
      <trkpt lat="46.16955" lon="5.86585">
        <ele>1347</ele>
        <time>2019-05-05T15:07:40Z</time>
      </trkpt>
      <trkpt lat="46.16952" lon="5.86586">
        <ele>1347</ele>
        <time>2019-05-05T15:07:43Z</time>
      </trkpt>
      <trkpt lat="46.16951" lon="5.86586">
        <ele>1347</ele>
        <time>2019-05-05T15:07:43Z</time>
      </trkpt>
      <trkpt lat="46.16949" lon="5.86586">
        <ele>1348</ele>
        <time>2019-05-05T15:07:45Z</time>
      </trkpt>
      <trkpt lat="46.16944" lon="5.86585">
        <ele>1349</ele>
        <time>2019-05-05T15:07:48Z</time>
      </trkpt>
      <trkpt lat="46.16943" lon="5.86585">
        <ele>1349</ele>
        <time>2019-05-05T15:07:49Z</time>
      </trkpt>
      <trkpt lat="46.16941" lon="5.86585">
        <ele>1349</ele>
        <time>2019-05-05T15:07:50Z</time>
      </trkpt>
      <trkpt lat="46.1694" lon="5.86585">
        <ele>1349</ele>
        <time>2019-05-05T15:07:52Z</time>
      </trkpt>
      <trkpt lat="46.16934" lon="5.86587">
        <ele>1350</ele>
        <time>2019-05-05T15:07:56Z</time>
      </trkpt>
      <trkpt lat="46.16932" lon="5.86587">
        <ele>1351</ele>
        <time>2019-05-05T15:07:57Z</time>
      </trkpt>
      <trkpt lat="46.1693" lon="5.86584">
        <ele>1351</ele>
        <time>2019-05-05T15:07:59Z</time>
      </trkpt>
      <trkpt lat="46.1693" lon="5.86583">
        <ele>1352</ele>
        <time>2019-05-05T15:08:00Z</time>
      </trkpt>
      <trkpt lat="46.16929" lon="5.86582">
        <ele>1352</ele>
        <time>2019-05-05T15:08:01Z</time>
      </trkpt>
      <trkpt lat="46.16928" lon="5.86581">
        <ele>1352</ele>
        <time>2019-05-05T15:08:02Z</time>
      </trkpt>
      <trkpt lat="46.16926" lon="5.8658">
        <ele>1352</ele>
        <time>2019-05-05T15:08:03Z</time>
      </trkpt>
      <trkpt lat="46.16924" lon="5.86582">
        <ele>1353</ele>
        <time>2019-05-05T15:08:05Z</time>
      </trkpt>
      <trkpt lat="46.16923" lon="5.86583">
        <ele>1353</ele>
        <time>2019-05-05T15:08:06Z</time>
      </trkpt>
      <trkpt lat="46.16922" lon="5.86582">
        <ele>1353</ele>
        <time>2019-05-05T15:08:07Z</time>
      </trkpt>
      <trkpt lat="46.16921" lon="5.86581">
        <ele>1353</ele>
        <time>2019-05-05T15:08:08Z</time>
      </trkpt>
      <trkpt lat="46.16919" lon="5.86582">
        <ele>1354</ele>
        <time>2019-05-05T15:08:10Z</time>
      </trkpt>
      <trkpt lat="46.16917" lon="5.86586">
        <ele>1354</ele>
        <time>2019-05-05T15:08:12Z</time>
      </trkpt>
      <trkpt lat="46.16914" lon="5.86588">
        <ele>1354</ele>
        <time>2019-05-05T15:08:14Z</time>
      </trkpt>
      <trkpt lat="46.1691" lon="5.86589">
        <ele>1355</ele>
        <time>2019-05-05T15:08:17Z</time>
      </trkpt>
      <trkpt lat="46.16908" lon="5.8659">
        <ele>1355</ele>
        <time>2019-05-05T15:08:19Z</time>
      </trkpt>
      <trkpt lat="46.16908" lon="5.86591">
        <ele>1355</ele>
        <time>2019-05-05T15:08:19Z</time>
      </trkpt>
      <trkpt lat="46.16905" lon="5.86591">
        <ele>1356</ele>
        <time>2019-05-05T15:08:22Z</time>
      </trkpt>
      <trkpt lat="46.16904" lon="5.86591">
        <ele>1356</ele>
        <time>2019-05-05T15:08:23Z</time>
      </trkpt>
      <trkpt lat="46.16903" lon="5.86591">
        <ele>1357</ele>
        <time>2019-05-05T15:08:23Z</time>
      </trkpt>
      <trkpt lat="46.16903" lon="5.86591">
        <ele>1356</ele>
        <time>2019-05-05T15:08:24Z</time>
      </trkpt>
      <trkpt lat="46.16903" lon="5.86592">
        <ele>1357</ele>
        <time>2019-05-05T15:08:25Z</time>
      </trkpt>
      <trkpt lat="46.16902" lon="5.86592">
        <ele>1357</ele>
        <time>2019-05-05T15:08:25Z</time>
      </trkpt>
      <trkpt lat="46.169" lon="5.86593">
        <ele>1357</ele>
        <time>2019-05-05T15:08:27Z</time>
      </trkpt>
      <trkpt lat="46.16899" lon="5.86593">
        <ele>1357</ele>
        <time>2019-05-05T15:08:28Z</time>
      </trkpt>
      <trkpt lat="46.16898" lon="5.86593">
        <ele>1357</ele>
        <time>2019-05-05T15:08:28Z</time>
      </trkpt>
      <trkpt lat="46.16897" lon="5.86594">
        <ele>1358</ele>
        <time>2019-05-05T15:08:29Z</time>
      </trkpt>
      <trkpt lat="46.16896" lon="5.86594">
        <ele>1358</ele>
        <time>2019-05-05T15:08:30Z</time>
      </trkpt>
      <trkpt lat="46.16893" lon="5.86594">
        <ele>1358</ele>
        <time>2019-05-05T15:08:32Z</time>
      </trkpt>
      <trkpt lat="46.16893" lon="5.86594">
        <ele>1359</ele>
        <time>2019-05-05T15:08:33Z</time>
      </trkpt>
      <trkpt lat="46.16892" lon="5.86595">
        <ele>1359</ele>
        <time>2019-05-05T15:08:34Z</time>
      </trkpt>
      <trkpt lat="46.16889" lon="5.86596">
        <ele>1359</ele>
        <time>2019-05-05T15:08:36Z</time>
      </trkpt>
      <trkpt lat="46.16885" lon="5.86601">
        <ele>1359</ele>
        <time>2019-05-05T15:08:39Z</time>
      </trkpt>
      <trkpt lat="46.16884" lon="5.86602">
        <ele>1359</ele>
        <time>2019-05-05T15:08:40Z</time>
      </trkpt>
      <trkpt lat="46.16883" lon="5.86602">
        <ele>1359</ele>
        <time>2019-05-05T15:08:41Z</time>
      </trkpt>
      <trkpt lat="46.16882" lon="5.86603">
        <ele>1359</ele>
        <time>2019-05-05T15:08:42Z</time>
      </trkpt>
      <trkpt lat="46.16881" lon="5.86601">
        <ele>1360</ele>
        <time>2019-05-05T15:08:43Z</time>
      </trkpt>
      <trkpt lat="46.16878" lon="5.86599">
        <ele>1361</ele>
        <time>2019-05-05T15:08:45Z</time>
      </trkpt>
      <trkpt lat="46.16872" lon="5.866">
        <ele>1362</ele>
        <time>2019-05-05T15:08:50Z</time>
      </trkpt>
      <trkpt lat="46.1687" lon="5.86601">
        <ele>1363</ele>
        <time>2019-05-05T15:08:52Z</time>
      </trkpt>
      <trkpt lat="46.16866" lon="5.86602">
        <ele>1363</ele>
        <time>2019-05-05T15:08:55Z</time>
      </trkpt>
      <trkpt lat="46.16863" lon="5.86602">
        <ele>1364</ele>
        <time>2019-05-05T15:08:57Z</time>
      </trkpt>
      <trkpt lat="46.16863" lon="5.86603">
        <ele>1364</ele>
        <time>2019-05-05T15:08:57Z</time>
      </trkpt>
      <trkpt lat="46.1686" lon="5.86607">
        <ele>1363</ele>
        <time>2019-05-05T15:09:00Z</time>
      </trkpt>
      <trkpt lat="46.16859" lon="5.86608">
        <ele>1363</ele>
        <time>2019-05-05T15:09:01Z</time>
      </trkpt>
      <trkpt lat="46.16858" lon="5.86609">
        <ele>1363</ele>
        <time>2019-05-05T15:09:02Z</time>
      </trkpt>
      <trkpt lat="46.16853" lon="5.86614">
        <ele>1363</ele>
        <time>2019-05-05T15:09:06Z</time>
      </trkpt>
      <trkpt lat="46.16852" lon="5.86614">
        <ele>1363</ele>
        <time>2019-05-05T15:09:07Z</time>
      </trkpt>
      <trkpt lat="46.1685" lon="5.86616">
        <ele>1363</ele>
        <time>2019-05-05T15:09:09Z</time>
      </trkpt>
      <trkpt lat="46.16847" lon="5.86617">
        <ele>1363</ele>
        <time>2019-05-05T15:09:11Z</time>
      </trkpt>
      <trkpt lat="46.16844" lon="5.86618">
        <ele>1364</ele>
        <time>2019-05-05T15:09:13Z</time>
      </trkpt>
      <trkpt lat="46.16841" lon="5.86621">
        <ele>1364</ele>
        <time>2019-05-05T15:09:16Z</time>
      </trkpt>
      <trkpt lat="46.16839" lon="5.8662">
        <ele>1364</ele>
        <time>2019-05-05T15:09:17Z</time>
      </trkpt>
      <trkpt lat="46.16836" lon="5.86618">
        <ele>1365</ele>
        <time>2019-05-05T15:09:20Z</time>
      </trkpt>
      <trkpt lat="46.16834" lon="5.86619">
        <ele>1365</ele>
        <time>2019-05-05T15:09:21Z</time>
      </trkpt>
      <trkpt lat="46.16833" lon="5.86618">
        <ele>1366</ele>
        <time>2019-05-05T15:09:23Z</time>
      </trkpt>
      <trkpt lat="46.16828" lon="5.86618">
        <ele>1367</ele>
        <time>2019-05-05T15:09:26Z</time>
      </trkpt>
      <trkpt lat="46.16825" lon="5.86618">
        <ele>1367</ele>
        <time>2019-05-05T15:09:29Z</time>
      </trkpt>
      <trkpt lat="46.16824" lon="5.86618">
        <ele>1367</ele>
        <time>2019-05-05T15:09:29Z</time>
      </trkpt>
      <trkpt lat="46.16821" lon="5.86618">
        <ele>1368</ele>
        <time>2019-05-05T15:09:31Z</time>
      </trkpt>
      <trkpt lat="46.16819" lon="5.86618">
        <ele>1369</ele>
        <time>2019-05-05T15:09:33Z</time>
      </trkpt>
      <trkpt lat="46.16815" lon="5.8662">
        <ele>1369</ele>
        <time>2019-05-05T15:09:36Z</time>
      </trkpt>
      <trkpt lat="46.16814" lon="5.86621">
        <ele>1369</ele>
        <time>2019-05-05T15:09:37Z</time>
      </trkpt>
      <trkpt lat="46.16813" lon="5.86621">
        <ele>1369</ele>
        <time>2019-05-05T15:09:38Z</time>
      </trkpt>
      <trkpt lat="46.16812" lon="5.86622">
        <ele>1369</ele>
        <time>2019-05-05T15:09:39Z</time>
      </trkpt>
      <trkpt lat="46.16811" lon="5.86622">
        <ele>1369</ele>
        <time>2019-05-05T15:09:39Z</time>
      </trkpt>
      <trkpt lat="46.16808" lon="5.86622">
        <ele>1370</ele>
        <time>2019-05-05T15:09:41Z</time>
      </trkpt>
      <trkpt lat="46.16804" lon="5.86622">
        <ele>1370</ele>
        <time>2019-05-05T15:09:44Z</time>
      </trkpt>
      <trkpt lat="46.16803" lon="5.86622">
        <ele>1371</ele>
        <time>2019-05-05T15:09:46Z</time>
      </trkpt>
      <trkpt lat="46.168" lon="5.86622">
        <ele>1371</ele>
        <time>2019-05-05T15:09:48Z</time>
      </trkpt>
      <trkpt lat="46.16798" lon="5.86622">
        <ele>1372</ele>
        <time>2019-05-05T15:09:49Z</time>
      </trkpt>
      <trkpt lat="46.16793" lon="5.8662">
        <ele>1373</ele>
        <time>2019-05-05T15:09:53Z</time>
      </trkpt>
      <trkpt lat="46.1679" lon="5.86619">
        <ele>1374</ele>
        <time>2019-05-05T15:09:55Z</time>
      </trkpt>
      <trkpt lat="46.16789" lon="5.86618">
        <ele>1374</ele>
        <time>2019-05-05T15:09:56Z</time>
      </trkpt>
      <trkpt lat="46.16786" lon="5.86613">
        <ele>1375</ele>
        <time>2019-05-05T15:09:59Z</time>
      </trkpt>
      <trkpt lat="46.1678" lon="5.86609">
        <ele>1377</ele>
        <time>2019-05-05T15:10:04Z</time>
      </trkpt>
      <trkpt lat="46.16778" lon="5.86608">
        <ele>1377</ele>
        <time>2019-05-05T15:10:06Z</time>
      </trkpt>
      <trkpt lat="46.16776" lon="5.86609">
        <ele>1378</ele>
        <time>2019-05-05T15:10:08Z</time>
      </trkpt>
      <trkpt lat="46.16773" lon="5.86613">
        <ele>1378</ele>
        <time>2019-05-05T15:10:11Z</time>
      </trkpt>
      <trkpt lat="46.16771" lon="5.86613">
        <ele>1378</ele>
        <time>2019-05-05T15:10:12Z</time>
      </trkpt>
      <trkpt lat="46.16768" lon="5.86616">
        <ele>1378</ele>
        <time>2019-05-05T15:10:15Z</time>
      </trkpt>
      <trkpt lat="46.16768" lon="5.86616">
        <ele>1378</ele>
        <time>2019-05-05T15:10:15Z</time>
      </trkpt>
      <trkpt lat="46.16767" lon="5.86617">
        <ele>1378</ele>
        <time>2019-05-05T15:10:16Z</time>
      </trkpt>
      <trkpt lat="46.16765" lon="5.86617">
        <ele>1378</ele>
        <time>2019-05-05T15:10:17Z</time>
      </trkpt>
      <trkpt lat="46.16763" lon="5.86617">
        <ele>1379</ele>
        <time>2019-05-05T15:10:19Z</time>
      </trkpt>
      <trkpt lat="46.16759" lon="5.86619">
        <ele>1379</ele>
        <time>2019-05-05T15:10:21Z</time>
      </trkpt>
      <trkpt lat="46.16757" lon="5.8662">
        <ele>1379</ele>
        <time>2019-05-05T15:10:23Z</time>
      </trkpt>
      <trkpt lat="46.16754" lon="5.8662">
        <ele>1379</ele>
        <time>2019-05-05T15:10:25Z</time>
      </trkpt>
      <trkpt lat="46.16746" lon="5.86621">
        <ele>1380</ele>
        <time>2019-05-05T15:10:31Z</time>
      </trkpt>
      <trkpt lat="46.16739" lon="5.86622">
        <ele>1381</ele>
        <time>2019-05-05T15:10:36Z</time>
      </trkpt>
      <trkpt lat="46.16735" lon="5.86623">
        <ele>1382</ele>
        <time>2019-05-05T15:10:39Z</time>
      </trkpt>
      <trkpt lat="46.16734" lon="5.86622">
        <ele>1382</ele>
        <time>2019-05-05T15:10:40Z</time>
      </trkpt>
      <trkpt lat="46.16729" lon="5.86622">
        <ele>1382</ele>
        <time>2019-05-05T15:10:44Z</time>
      </trkpt>
      <trkpt lat="46.16728" lon="5.86622">
        <ele>1383</ele>
        <time>2019-05-05T15:10:45Z</time>
      </trkpt>
      <trkpt lat="46.16721" lon="5.86621">
        <ele>1383</ele>
        <time>2019-05-05T15:10:49Z</time>
      </trkpt>
      <trkpt lat="46.16716" lon="5.86621">
        <ele>1384</ele>
        <time>2019-05-05T15:10:54Z</time>
      </trkpt>
      <trkpt lat="46.16714" lon="5.8662">
        <ele>1385</ele>
        <time>2019-05-05T15:10:55Z</time>
      </trkpt>
      <trkpt lat="46.16708" lon="5.86622">
        <ele>1385</ele>
        <time>2019-05-05T15:10:59Z</time>
      </trkpt>
      <trkpt lat="46.16709" lon="5.86622">
        <ele>1385</ele>
        <time>2019-05-05T15:10:59Z</time>
      </trkpt>
      <trkpt lat="46.16707" lon="5.86623">
        <ele>1385</ele>
        <time>2019-05-05T15:11:01Z</time>
      </trkpt>
      <trkpt lat="46.16706" lon="5.86624">
        <ele>1385</ele>
        <time>2019-05-05T15:11:02Z</time>
      </trkpt>
      <trkpt lat="46.16705" lon="5.86626">
        <ele>1385</ele>
        <time>2019-05-05T15:11:03Z</time>
      </trkpt>
      <trkpt lat="46.16704" lon="5.86626">
        <ele>1385</ele>
        <time>2019-05-05T15:11:04Z</time>
      </trkpt>
      <trkpt lat="46.16698" lon="5.86627">
        <ele>1386</ele>
        <time>2019-05-05T15:11:08Z</time>
      </trkpt>
      <trkpt lat="46.16694" lon="5.86626">
        <ele>1387</ele>
        <time>2019-05-05T15:11:11Z</time>
      </trkpt>
      <trkpt lat="46.1669" lon="5.86626">
        <ele>1387</ele>
        <time>2019-05-05T15:11:14Z</time>
      </trkpt>
      <trkpt lat="46.16673" lon="5.86629">
        <ele>1388</ele>
        <time>2019-05-05T15:11:26Z</time>
      </trkpt>
      <trkpt lat="46.16664" lon="5.86631">
        <ele>1389</ele>
        <time>2019-05-05T15:11:33Z</time>
      </trkpt>
      <trkpt lat="46.16646" lon="5.86639">
        <ele>1389</ele>
        <time>2019-05-05T15:11:46Z</time>
      </trkpt>
      <trkpt lat="46.16641" lon="5.86639">
        <ele>1389</ele>
        <time>2019-05-05T15:11:50Z</time>
      </trkpt>
      <trkpt lat="46.16637" lon="5.86641">
        <ele>1390</ele>
        <time>2019-05-05T15:11:53Z</time>
      </trkpt>
      <trkpt lat="46.16633" lon="5.86642">
        <ele>1390</ele>
        <time>2019-05-05T15:11:56Z</time>
      </trkpt>
      <trkpt lat="46.16632" lon="5.86643">
        <ele>1390</ele>
        <time>2019-05-05T15:11:57Z</time>
      </trkpt>
      <trkpt lat="46.16626" lon="5.86648">
        <ele>1390</ele>
        <time>2019-05-05T15:12:02Z</time>
      </trkpt>
      <trkpt lat="46.16623" lon="5.86648">
        <ele>1390</ele>
        <time>2019-05-05T15:12:04Z</time>
      </trkpt>
      <trkpt lat="46.16614" lon="5.86647">
        <ele>1391</ele>
        <time>2019-05-05T15:12:11Z</time>
      </trkpt>
      <trkpt lat="46.16599" lon="5.86643">
        <ele>1392</ele>
        <time>2019-05-05T15:12:22Z</time>
      </trkpt>
      <trkpt lat="46.16597" lon="5.86642">
        <ele>1392</ele>
        <time>2019-05-05T15:12:23Z</time>
      </trkpt>
      <trkpt lat="46.16591" lon="5.86639">
        <ele>1392</ele>
        <time>2019-05-05T15:12:28Z</time>
      </trkpt>
      <trkpt lat="46.16589" lon="5.86638">
        <ele>1393</ele>
        <time>2019-05-05T15:12:29Z</time>
      </trkpt>
      <trkpt lat="46.16585" lon="5.86637">
        <ele>1393</ele>
        <time>2019-05-05T15:12:32Z</time>
      </trkpt>
      <trkpt lat="46.16576" lon="5.86635">
        <ele>1393</ele>
        <time>2019-05-05T15:12:39Z</time>
      </trkpt>
      <trkpt lat="46.16566" lon="5.86641">
        <ele>1393</ele>
        <time>2019-05-05T15:12:47Z</time>
      </trkpt>
      <trkpt lat="46.1656" lon="5.86645">
        <ele>1393</ele>
        <time>2019-05-05T15:12:51Z</time>
      </trkpt>
      <trkpt lat="46.16557" lon="5.86648">
        <ele>1394</ele>
        <time>2019-05-05T15:12:54Z</time>
      </trkpt>
      <trkpt lat="46.16555" lon="5.86649">
        <ele>1394</ele>
        <time>2019-05-05T15:12:56Z</time>
      </trkpt>
      <trkpt lat="46.16553" lon="5.86649">
        <ele>1394</ele>
        <time>2019-05-05T15:12:57Z</time>
      </trkpt>
      <trkpt lat="46.16542" lon="5.86652">
        <ele>1394</ele>
        <time>2019-05-05T15:13:06Z</time>
      </trkpt>
      <trkpt lat="46.16536" lon="5.86654">
        <ele>1394</ele>
        <time>2019-05-05T15:13:10Z</time>
      </trkpt>
      <trkpt lat="46.1653" lon="5.86657">
        <ele>1395</ele>
        <time>2019-05-05T15:13:15Z</time>
      </trkpt>
      <trkpt lat="46.16528" lon="5.86658">
        <ele>1395</ele>
        <time>2019-05-05T15:13:16Z</time>
      </trkpt>
      <trkpt lat="46.16524" lon="5.86656">
        <ele>1395</ele>
        <time>2019-05-05T15:13:19Z</time>
      </trkpt>
      <trkpt lat="46.16521" lon="5.86655">
        <ele>1395</ele>
        <time>2019-05-05T15:13:21Z</time>
      </trkpt>
      <trkpt lat="46.16521" lon="5.86655">
        <ele>1395</ele>
        <time>2019-05-05T15:13:22Z</time>
      </trkpt>
      <trkpt lat="46.16518" lon="5.86654">
        <ele>1395</ele>
        <time>2019-05-05T15:13:23Z</time>
      </trkpt>
      <trkpt lat="46.16516" lon="5.86655">
        <ele>1395</ele>
        <time>2019-05-05T15:13:25Z</time>
      </trkpt>
      <trkpt lat="46.16513" lon="5.86658">
        <ele>1395</ele>
        <time>2019-05-05T15:13:28Z</time>
      </trkpt>
      <trkpt lat="46.16508" lon="5.86661">
        <ele>1395</ele>
        <time>2019-05-05T15:13:32Z</time>
      </trkpt>
      <trkpt lat="46.16504" lon="5.86662">
        <ele>1395</ele>
        <time>2019-05-05T15:13:34Z</time>
      </trkpt>
      <trkpt lat="46.16503" lon="5.86662">
        <ele>1395</ele>
        <time>2019-05-05T15:13:36Z</time>
      </trkpt>
      <trkpt lat="46.16502" lon="5.86664">
        <ele>1395</ele>
        <time>2019-05-05T15:13:36Z</time>
      </trkpt>
      <trkpt lat="46.16499" lon="5.86665">
        <ele>1395</ele>
        <time>2019-05-05T15:13:38Z</time>
      </trkpt>
      <trkpt lat="46.16496" lon="5.86666">
        <ele>1395</ele>
        <time>2019-05-05T15:13:41Z</time>
      </trkpt>
      <trkpt lat="46.16492" lon="5.86667">
        <ele>1395</ele>
        <time>2019-05-05T15:13:44Z</time>
      </trkpt>
      <trkpt lat="46.16488" lon="5.86667">
        <ele>1394</ele>
        <time>2019-05-05T15:13:47Z</time>
      </trkpt>
      <trkpt lat="46.16478" lon="5.86668">
        <ele>1394</ele>
        <time>2019-05-05T15:13:54Z</time>
      </trkpt>
      <trkpt lat="46.16465" lon="5.86672">
        <ele>1395</ele>
        <time>2019-05-05T15:14:04Z</time>
      </trkpt>
      <trkpt lat="46.1646" lon="5.86672">
        <ele>1395</ele>
        <time>2019-05-05T15:14:07Z</time>
      </trkpt>
      <trkpt lat="46.16442" lon="5.86677">
        <ele>1395</ele>
        <time>2019-05-05T15:14:20Z</time>
      </trkpt>
      <trkpt lat="46.16424" lon="5.86684">
        <ele>1394</ele>
        <time>2019-05-05T15:14:34Z</time>
      </trkpt>
      <trkpt lat="46.16422" lon="5.86686">
        <ele>1393</ele>
        <time>2019-05-05T15:14:35Z</time>
      </trkpt>
      <trkpt lat="46.16421" lon="5.86686">
        <ele>1393</ele>
        <time>2019-05-05T15:14:37Z</time>
      </trkpt>
      <trkpt lat="46.16417" lon="5.86689">
        <ele>1392</ele>
        <time>2019-05-05T15:14:40Z</time>
      </trkpt>
      <trkpt lat="46.16412" lon="5.86696">
        <ele>1390</ele>
        <time>2019-05-05T15:14:45Z</time>
      </trkpt>
      <trkpt lat="46.16402" lon="5.86711">
        <ele>1387</ele>
        <time>2019-05-05T15:14:55Z</time>
      </trkpt>
      <trkpt lat="46.16387" lon="5.86718">
        <ele>1385</ele>
        <time>2019-05-05T15:15:07Z</time>
      </trkpt>
      <trkpt lat="46.16384" lon="5.8672">
        <ele>1385</ele>
        <time>2019-05-05T15:15:10Z</time>
      </trkpt>
      <trkpt lat="46.16373" lon="5.86726">
        <ele>1384</ele>
        <time>2019-05-05T15:15:18Z</time>
      </trkpt>
      <trkpt lat="46.16361" lon="5.8674">
        <ele>1382</ele>
        <time>2019-05-05T15:15:29Z</time>
      </trkpt>
      <trkpt lat="46.16356" lon="5.86748">
        <ele>1382</ele>
        <time>2019-05-05T15:15:34Z</time>
      </trkpt>
      <trkpt lat="46.16343" lon="5.86763">
        <ele>1381</ele>
        <time>2019-05-05T15:15:46Z</time>
      </trkpt>
      <trkpt lat="46.16325" lon="5.86766">
        <ele>1380</ele>
        <time>2019-05-05T15:16:00Z</time>
      </trkpt>
      <trkpt lat="46.16305" lon="5.86769">
        <ele>1379</ele>
        <time>2019-05-05T15:16:15Z</time>
      </trkpt>
      <trkpt lat="46.16299" lon="5.86743">
        <ele>1379</ele>
        <time>2019-05-05T15:16:28Z</time>
      </trkpt>
      <trkpt lat="46.16295" lon="5.86721">
        <ele>1378</ele>
        <time>2019-05-05T15:16:40Z</time>
      </trkpt>
      <trkpt lat="46.16292" lon="5.86717">
        <ele>1378</ele>
        <time>2019-05-05T15:16:43Z</time>
      </trkpt>
      <trkpt lat="46.16275" lon="5.86719">
        <ele>1377</ele>
        <time>2019-05-05T15:16:55Z</time>
      </trkpt>
      <trkpt lat="46.16264" lon="5.86731">
        <ele>1377</ele>
        <time>2019-05-05T15:17:05Z</time>
      </trkpt>
      <trkpt lat="46.16249" lon="5.8674">
        <ele>1378</ele>
        <time>2019-05-05T15:17:16Z</time>
      </trkpt>
      <trkpt lat="46.16248" lon="5.8674">
        <ele>1378</ele>
        <time>2019-05-05T15:17:17Z</time>
      </trkpt>
      <trkpt lat="46.16246" lon="5.86737">
        <ele>1378</ele>
        <time>2019-05-05T15:17:19Z</time>
      </trkpt>
      <trkpt lat="46.16239" lon="5.86722">
        <ele>1378</ele>
        <time>2019-05-05T15:17:28Z</time>
      </trkpt>
      <trkpt lat="46.16234" lon="5.86715">
        <ele>1378</ele>
        <time>2019-05-05T15:17:33Z</time>
      </trkpt>
      <trkpt lat="46.1623" lon="5.86709">
        <ele>1379</ele>
        <time>2019-05-05T15:17:37Z</time>
      </trkpt>
      <trkpt lat="46.16215" lon="5.86691">
        <ele>1380</ele>
        <time>2019-05-05T15:17:51Z</time>
      </trkpt>
      <trkpt lat="46.16199" lon="5.8668">
        <ele>1382</ele>
        <time>2019-05-05T15:18:05Z</time>
      </trkpt>
      <trkpt lat="46.16186" lon="5.86673">
        <ele>1382</ele>
        <time>2019-05-05T15:18:14Z</time>
      </trkpt>
      <trkpt lat="46.16174" lon="5.86664">
        <ele>1382</ele>
        <time>2019-05-05T15:18:25Z</time>
      </trkpt>
      <trkpt lat="46.16165" lon="5.86667">
        <ele>1384</ele>
        <time>2019-05-05T15:18:31Z</time>
      </trkpt>
      <trkpt lat="46.16156" lon="5.86672">
        <ele>1386</ele>
        <time>2019-05-05T15:18:38Z</time>
      </trkpt>
      <trkpt lat="46.16155" lon="5.8667">
        <ele>1386</ele>
        <time>2019-05-05T15:18:39Z</time>
      </trkpt>
      <trkpt lat="46.16152" lon="5.8667">
        <ele>1387</ele>
        <time>2019-05-05T15:18:41Z</time>
      </trkpt>
      <trkpt lat="46.16148" lon="5.86668">
        <ele>1387</ele>
        <time>2019-05-05T15:18:45Z</time>
      </trkpt>
      <trkpt lat="46.16139" lon="5.86654">
        <ele>1387</ele>
        <time>2019-05-05T15:18:54Z</time>
      </trkpt>
      <trkpt lat="46.16133" lon="5.86646">
        <ele>1387</ele>
        <time>2019-05-05T15:19:00Z</time>
      </trkpt>
      <trkpt lat="46.16116" lon="5.86634">
        <ele>1389</ele>
        <time>2019-05-05T15:19:14Z</time>
      </trkpt>
      <trkpt lat="46.16112" lon="5.86634">
        <ele>1389</ele>
        <time>2019-05-05T15:19:17Z</time>
      </trkpt>
      <trkpt lat="46.16097" lon="5.86633">
        <ele>1393</ele>
        <time>2019-05-05T15:19:28Z</time>
      </trkpt>
      <trkpt lat="46.16096" lon="5.8663">
        <ele>1393</ele>
        <time>2019-05-05T15:19:30Z</time>
      </trkpt>
      <trkpt lat="46.16094" lon="5.8663">
        <ele>1393</ele>
        <time>2019-05-05T15:19:31Z</time>
      </trkpt>
      <trkpt lat="46.16091" lon="5.8663">
        <ele>1394</ele>
        <time>2019-05-05T15:19:33Z</time>
      </trkpt>
      <trkpt lat="46.1609" lon="5.86631">
        <ele>1395</ele>
        <time>2019-05-05T15:19:34Z</time>
      </trkpt>
      <trkpt lat="46.16089" lon="5.86632">
        <ele>1395</ele>
        <time>2019-05-05T15:19:35Z</time>
      </trkpt>
      <trkpt lat="46.16085" lon="5.86635">
        <ele>1396</ele>
        <time>2019-05-05T15:19:38Z</time>
      </trkpt>
      <trkpt lat="46.16082" lon="5.86636">
        <ele>1398</ele>
        <time>2019-05-05T15:19:41Z</time>
      </trkpt>
      <trkpt lat="46.16081" lon="5.86637">
        <ele>1398</ele>
        <time>2019-05-05T15:19:42Z</time>
      </trkpt>
      <trkpt lat="46.16068" lon="5.86656">
        <ele>1403</ele>
        <time>2019-05-05T15:19:56Z</time>
      </trkpt>
      <trkpt lat="46.16065" lon="5.86662">
        <ele>1404</ele>
        <time>2019-05-05T15:20:00Z</time>
      </trkpt>
      <trkpt lat="46.16062" lon="5.86667">
        <ele>1405</ele>
        <time>2019-05-05T15:20:03Z</time>
      </trkpt>
      <trkpt lat="46.16058" lon="5.8667">
        <ele>1406</ele>
        <time>2019-05-05T15:20:06Z</time>
      </trkpt>
      <trkpt lat="46.16055" lon="5.86675">
        <ele>1407</ele>
        <time>2019-05-05T15:20:10Z</time>
      </trkpt>
      <trkpt lat="46.16051" lon="5.86678">
        <ele>1408</ele>
        <time>2019-05-05T15:20:13Z</time>
      </trkpt>
      <trkpt lat="46.1605" lon="5.86679">
        <ele>1408</ele>
        <time>2019-05-05T15:20:14Z</time>
      </trkpt>
      <trkpt lat="46.16047" lon="5.86681">
        <ele>1409</ele>
        <time>2019-05-05T15:20:16Z</time>
      </trkpt>
      <trkpt lat="46.16045" lon="5.86683">
        <ele>1409</ele>
        <time>2019-05-05T15:20:18Z</time>
      </trkpt>
      <trkpt lat="46.16044" lon="5.86684">
        <ele>1409</ele>
        <time>2019-05-05T15:20:19Z</time>
      </trkpt>
      <trkpt lat="46.16042" lon="5.86686">
        <ele>1410</ele>
        <time>2019-05-05T15:20:21Z</time>
      </trkpt>
      <trkpt lat="46.1604" lon="5.86687">
        <ele>1410</ele>
        <time>2019-05-05T15:20:23Z</time>
      </trkpt>
      <trkpt lat="46.16039" lon="5.86687">
        <ele>1411</ele>
        <time>2019-05-05T15:20:24Z</time>
      </trkpt>
      <trkpt lat="46.16035" lon="5.86689">
        <ele>1411</ele>
        <time>2019-05-05T15:20:26Z</time>
      </trkpt>
      <trkpt lat="46.16034" lon="5.8669">
        <ele>1411</ele>
        <time>2019-05-05T15:20:27Z</time>
      </trkpt>
      <trkpt lat="46.16033" lon="5.86691">
        <ele>1412</ele>
        <time>2019-05-05T15:20:29Z</time>
      </trkpt>
      <trkpt lat="46.16032" lon="5.86693">
        <ele>1412</ele>
        <time>2019-05-05T15:20:30Z</time>
      </trkpt>
      <trkpt lat="46.1603" lon="5.86695">
        <ele>1412</ele>
        <time>2019-05-05T15:20:31Z</time>
      </trkpt>
      <trkpt lat="46.1603" lon="5.86695">
        <ele>1412</ele>
        <time>2019-05-05T15:20:31Z</time>
      </trkpt>
      <trkpt lat="46.16021" lon="5.867">
        <ele>1413</ele>
        <time>2019-05-05T15:20:38Z</time>
      </trkpt>
      <trkpt lat="46.16019" lon="5.867">
        <ele>1414</ele>
        <time>2019-05-05T15:20:40Z</time>
      </trkpt>
      <trkpt lat="46.16017" lon="5.86704">
        <ele>1414</ele>
        <time>2019-05-05T15:20:42Z</time>
      </trkpt>
      <trkpt lat="46.16016" lon="5.86705">
        <ele>1414</ele>
        <time>2019-05-05T15:20:43Z</time>
      </trkpt>
      <trkpt lat="46.16009" lon="5.86712">
        <ele>1416</ele>
        <time>2019-05-05T15:20:50Z</time>
      </trkpt>
      <trkpt lat="46.16006" lon="5.86716">
        <ele>1417</ele>
        <time>2019-05-05T15:20:52Z</time>
      </trkpt>
      <trkpt lat="46.16004" lon="5.86723">
        <ele>1417</ele>
        <time>2019-05-05T15:20:57Z</time>
      </trkpt>
      <trkpt lat="46.16004" lon="5.86731">
        <ele>1416</ele>
        <time>2019-05-05T15:21:00Z</time>
      </trkpt>
      <trkpt lat="46.15999" lon="5.86743">
        <ele>1416</ele>
        <time>2019-05-05T15:21:07Z</time>
      </trkpt>
      <trkpt lat="46.15993" lon="5.86749">
        <ele>1417</ele>
        <time>2019-05-05T15:21:13Z</time>
      </trkpt>
      <trkpt lat="46.15991" lon="5.8675">
        <ele>1418</ele>
        <time>2019-05-05T15:21:14Z</time>
      </trkpt>
      <trkpt lat="46.1599" lon="5.86751">
        <ele>1418</ele>
        <time>2019-05-05T15:21:15Z</time>
      </trkpt>
      <trkpt lat="46.15988" lon="5.86752">
        <ele>1418</ele>
        <time>2019-05-05T15:21:17Z</time>
      </trkpt>
      <trkpt lat="46.15987" lon="5.86753">
        <ele>1419</ele>
        <time>2019-05-05T15:21:18Z</time>
      </trkpt>
      <trkpt lat="46.15982" lon="5.86755">
        <ele>1420</ele>
        <time>2019-05-05T15:21:22Z</time>
      </trkpt>
      <trkpt lat="46.15981" lon="5.86755">
        <ele>1420</ele>
        <time>2019-05-05T15:21:23Z</time>
      </trkpt>
      <trkpt lat="46.15978" lon="5.86755">
        <ele>1421</ele>
        <time>2019-05-05T15:21:25Z</time>
      </trkpt>
      <trkpt lat="46.15977" lon="5.86755">
        <ele>1422</ele>
        <time>2019-05-05T15:21:26Z</time>
      </trkpt>
      <trkpt lat="46.15973" lon="5.86757">
        <ele>1423</ele>
        <time>2019-05-05T15:21:28Z</time>
      </trkpt>
      <trkpt lat="46.15971" lon="5.86756">
        <ele>1424</ele>
        <time>2019-05-05T15:21:30Z</time>
      </trkpt>
      <trkpt lat="46.15968" lon="5.86758">
        <ele>1424</ele>
        <time>2019-05-05T15:21:32Z</time>
      </trkpt>
      <trkpt lat="46.15965" lon="5.8676">
        <ele>1425</ele>
        <time>2019-05-05T15:21:35Z</time>
      </trkpt>
      <trkpt lat="46.15959" lon="5.86752">
        <ele>1429</ele>
        <time>2019-05-05T15:21:41Z</time>
      </trkpt>
      <trkpt lat="46.15955" lon="5.86751">
        <ele>1430</ele>
        <time>2019-05-05T15:21:44Z</time>
      </trkpt>
      <trkpt lat="46.15951" lon="5.86751">
        <ele>1431</ele>
        <time>2019-05-05T15:21:47Z</time>
      </trkpt>
      <trkpt lat="46.15948" lon="5.8675">
        <ele>1433</ele>
        <time>2019-05-05T15:21:50Z</time>
      </trkpt>
      <trkpt lat="46.15943" lon="5.86747">
        <ele>1435</ele>
        <time>2019-05-05T15:21:54Z</time>
      </trkpt>
      <trkpt lat="46.15942" lon="5.86746">
        <ele>1436</ele>
        <time>2019-05-05T15:21:55Z</time>
      </trkpt>
      <trkpt lat="46.15937" lon="5.86745">
        <ele>1438</ele>
        <time>2019-05-05T15:21:59Z</time>
      </trkpt>
      <trkpt lat="46.15932" lon="5.86745">
        <ele>1439</ele>
        <time>2019-05-05T15:22:02Z</time>
      </trkpt>
      <trkpt lat="46.15924" lon="5.86747">
        <ele>1441</ele>
        <time>2019-05-05T15:22:09Z</time>
      </trkpt>
      <trkpt lat="46.15921" lon="5.86745">
        <ele>1442</ele>
        <time>2019-05-05T15:22:11Z</time>
      </trkpt>
      <trkpt lat="46.15919" lon="5.86744">
        <ele>1443</ele>
        <time>2019-05-05T15:22:12Z</time>
      </trkpt>
      <trkpt lat="46.15917" lon="5.86743">
        <ele>1444</ele>
        <time>2019-05-05T15:22:14Z</time>
      </trkpt>
      <trkpt lat="46.15915" lon="5.86744">
        <ele>1444</ele>
        <time>2019-05-05T15:22:16Z</time>
      </trkpt>
      <trkpt lat="46.15913" lon="5.86742">
        <ele>1445</ele>
        <time>2019-05-05T15:22:17Z</time>
      </trkpt>
      <trkpt lat="46.15912" lon="5.86741">
        <ele>1446</ele>
        <time>2019-05-05T15:22:19Z</time>
      </trkpt>
      <trkpt lat="46.1591" lon="5.86743">
        <ele>1446</ele>
        <time>2019-05-05T15:22:21Z</time>
      </trkpt>
      <trkpt lat="46.15905" lon="5.86744">
        <ele>1447</ele>
        <time>2019-05-05T15:22:24Z</time>
      </trkpt>
      <trkpt lat="46.15902" lon="5.86746">
        <ele>1447</ele>
        <time>2019-05-05T15:22:27Z</time>
      </trkpt>
      <trkpt lat="46.15897" lon="5.8675">
        <ele>1448</ele>
        <time>2019-05-05T15:22:31Z</time>
      </trkpt>
      <trkpt lat="46.15892" lon="5.86751">
        <ele>1449</ele>
        <time>2019-05-05T15:22:34Z</time>
      </trkpt>
      <trkpt lat="46.15886" lon="5.86762">
        <ele>1448</ele>
        <time>2019-05-05T15:22:42Z</time>
      </trkpt>
      <trkpt lat="46.15885" lon="5.86762">
        <ele>1449</ele>
        <time>2019-05-05T15:22:42Z</time>
      </trkpt>
      <trkpt lat="46.1588" lon="5.86766">
        <ele>1449</ele>
        <time>2019-05-05T15:22:46Z</time>
      </trkpt>
      <trkpt lat="46.15879" lon="5.86767">
        <ele>1449</ele>
        <time>2019-05-05T15:22:47Z</time>
      </trkpt>
      <trkpt lat="46.15877" lon="5.8677">
        <ele>1449</ele>
        <time>2019-05-05T15:22:49Z</time>
      </trkpt>
      <trkpt lat="46.15875" lon="5.86772">
        <ele>1449</ele>
        <time>2019-05-05T15:22:51Z</time>
      </trkpt>
      <trkpt lat="46.15873" lon="5.86777">
        <ele>1449</ele>
        <time>2019-05-05T15:22:54Z</time>
      </trkpt>
      <trkpt lat="46.1587" lon="5.86781">
        <ele>1449</ele>
        <time>2019-05-05T15:22:57Z</time>
      </trkpt>
      <trkpt lat="46.15868" lon="5.86786">
        <ele>1449</ele>
        <time>2019-05-05T15:23:00Z</time>
      </trkpt>
      <trkpt lat="46.15863" lon="5.86789">
        <ele>1450</ele>
        <time>2019-05-05T15:23:04Z</time>
      </trkpt>
      <trkpt lat="46.15862" lon="5.8679">
        <ele>1450</ele>
        <time>2019-05-05T15:23:05Z</time>
      </trkpt>
      <trkpt lat="46.1586" lon="5.868">
        <ele>1449</ele>
        <time>2019-05-05T15:23:10Z</time>
      </trkpt>
      <trkpt lat="46.15859" lon="5.86803">
        <ele>1448</ele>
        <time>2019-05-05T15:23:12Z</time>
      </trkpt>
      <trkpt lat="46.15858" lon="5.86804">
        <ele>1448</ele>
        <time>2019-05-05T15:23:13Z</time>
      </trkpt>
      <trkpt lat="46.15857" lon="5.86804">
        <ele>1448</ele>
        <time>2019-05-05T15:23:13Z</time>
      </trkpt>
      <trkpt lat="46.15851" lon="5.86805">
        <ele>1450</ele>
        <time>2019-05-05T15:23:18Z</time>
      </trkpt>
      <trkpt lat="46.15848" lon="5.86808">
        <ele>1450</ele>
        <time>2019-05-05T15:23:20Z</time>
      </trkpt>
      <trkpt lat="46.15844" lon="5.86811">
        <ele>1451</ele>
        <time>2019-05-05T15:23:24Z</time>
      </trkpt>
      <trkpt lat="46.15843" lon="5.86811">
        <ele>1451</ele>
        <time>2019-05-05T15:23:25Z</time>
      </trkpt>
      <trkpt lat="46.15841" lon="5.86811">
        <ele>1452</ele>
        <time>2019-05-05T15:23:26Z</time>
      </trkpt>
      <trkpt lat="46.15839" lon="5.86812">
        <ele>1452</ele>
        <time>2019-05-05T15:23:28Z</time>
      </trkpt>
      <trkpt lat="46.15834" lon="5.86814">
        <ele>1453</ele>
        <time>2019-05-05T15:23:31Z</time>
      </trkpt>
      <trkpt lat="46.15833" lon="5.86815">
        <ele>1453</ele>
        <time>2019-05-05T15:23:33Z</time>
      </trkpt>
      <trkpt lat="46.15831" lon="5.86817">
        <ele>1453</ele>
        <time>2019-05-05T15:23:34Z</time>
      </trkpt>
      <trkpt lat="46.15831" lon="5.86817">
        <ele>1453</ele>
        <time>2019-05-05T15:23:34Z</time>
      </trkpt>
      <trkpt lat="46.15829" lon="5.86819">
        <ele>1453</ele>
        <time>2019-05-05T15:23:36Z</time>
      </trkpt>
      <trkpt lat="46.15827" lon="5.86821">
        <ele>1453</ele>
        <time>2019-05-05T15:23:37Z</time>
      </trkpt>
      <trkpt lat="46.15822" lon="5.86828">
        <ele>1453</ele>
        <time>2019-05-05T15:23:42Z</time>
      </trkpt>
      <trkpt lat="46.15814" lon="5.86831">
        <ele>1455</ele>
        <time>2019-05-05T15:23:49Z</time>
      </trkpt>
      <trkpt lat="46.15811" lon="5.86846">
        <ele>1453</ele>
        <time>2019-05-05T15:23:57Z</time>
      </trkpt>
      <trkpt lat="46.15811" lon="5.86849">
        <ele>1453</ele>
        <time>2019-05-05T15:23:59Z</time>
      </trkpt>
      <trkpt lat="46.15807" lon="5.86853">
        <ele>1454</ele>
        <time>2019-05-05T15:24:02Z</time>
      </trkpt>
      <trkpt lat="46.15806" lon="5.86858">
        <ele>1454</ele>
        <time>2019-05-05T15:24:04Z</time>
      </trkpt>
      <trkpt lat="46.15806" lon="5.86859">
        <ele>1454</ele>
        <time>2019-05-05T15:24:05Z</time>
      </trkpt>
      <trkpt lat="46.15802" lon="5.86864">
        <ele>1454</ele>
        <time>2019-05-05T15:24:09Z</time>
      </trkpt>
      <trkpt lat="46.15801" lon="5.86866">
        <ele>1454</ele>
        <time>2019-05-05T15:24:10Z</time>
      </trkpt>
      <trkpt lat="46.158" lon="5.86866">
        <ele>1455</ele>
        <time>2019-05-05T15:24:11Z</time>
      </trkpt>
      <trkpt lat="46.15798" lon="5.86868">
        <ele>1455</ele>
        <time>2019-05-05T15:24:13Z</time>
      </trkpt>
      <trkpt lat="46.15794" lon="5.86869">
        <ele>1456</ele>
        <time>2019-05-05T15:24:16Z</time>
      </trkpt>
      <trkpt lat="46.15792" lon="5.86872">
        <ele>1456</ele>
        <time>2019-05-05T15:24:17Z</time>
      </trkpt>
      <trkpt lat="46.15786" lon="5.86884">
        <ele>1456</ele>
        <time>2019-05-05T15:24:25Z</time>
      </trkpt>
      <trkpt lat="46.15785" lon="5.86888">
        <ele>1456</ele>
        <time>2019-05-05T15:24:27Z</time>
      </trkpt>
      <trkpt lat="46.15782" lon="5.86892">
        <ele>1457</ele>
        <time>2019-05-05T15:24:30Z</time>
      </trkpt>
      <trkpt lat="46.15781" lon="5.86893">
        <ele>1457</ele>
        <time>2019-05-05T15:24:31Z</time>
      </trkpt>
      <trkpt lat="46.1578" lon="5.86892">
        <ele>1457</ele>
        <time>2019-05-05T15:24:32Z</time>
      </trkpt>
      <trkpt lat="46.15777" lon="5.86896">
        <ele>1458</ele>
        <time>2019-05-05T15:24:35Z</time>
      </trkpt>
      <trkpt lat="46.15771" lon="5.86901">
        <ele>1458</ele>
        <time>2019-05-05T15:24:40Z</time>
      </trkpt>
      <trkpt lat="46.15771" lon="5.86902">
        <ele>1458</ele>
        <time>2019-05-05T15:24:41Z</time>
      </trkpt>
      <trkpt lat="46.1577" lon="5.86902">
        <ele>1458</ele>
        <time>2019-05-05T15:24:41Z</time>
      </trkpt>
      <trkpt lat="46.15769" lon="5.86903">
        <ele>1458</ele>
        <time>2019-05-05T15:24:42Z</time>
      </trkpt>
      <trkpt lat="46.15768" lon="5.86903">
        <ele>1458</ele>
        <time>2019-05-05T15:24:43Z</time>
      </trkpt>
      <trkpt lat="46.15766" lon="5.86905">
        <ele>1458</ele>
        <time>2019-05-05T15:24:44Z</time>
      </trkpt>
      <trkpt lat="46.15764" lon="5.86907">
        <ele>1458</ele>
        <time>2019-05-05T15:24:46Z</time>
      </trkpt>
      <trkpt lat="46.15758" lon="5.86912">
        <ele>1458</ele>
        <time>2019-05-05T15:24:51Z</time>
      </trkpt>
      <trkpt lat="46.15751" lon="5.86913">
        <ele>1458</ele>
        <time>2019-05-05T15:24:56Z</time>
      </trkpt>
      <trkpt lat="46.1575" lon="5.86913">
        <ele>1458</ele>
        <time>2019-05-05T15:24:57Z</time>
      </trkpt>
      <trkpt lat="46.15748" lon="5.86913">
        <ele>1458</ele>
        <time>2019-05-05T15:24:59Z</time>
      </trkpt>
      <trkpt lat="46.15746" lon="5.86913">
        <ele>1458</ele>
        <time>2019-05-05T15:24:59Z</time>
      </trkpt>
      <trkpt lat="46.15742" lon="5.86915">
        <ele>1458</ele>
        <time>2019-05-05T15:25:03Z</time>
      </trkpt>
      <trkpt lat="46.15741" lon="5.86915">
        <ele>1458</ele>
        <time>2019-05-05T15:25:03Z</time>
      </trkpt>
      <trkpt lat="46.15733" lon="5.86916">
        <ele>1459</ele>
        <time>2019-05-05T15:25:09Z</time>
      </trkpt>
      <trkpt lat="46.15731" lon="5.86917">
        <ele>1459</ele>
        <time>2019-05-05T15:25:11Z</time>
      </trkpt>
      <trkpt lat="46.15718" lon="5.86919">
        <ele>1459</ele>
        <time>2019-05-05T15:25:20Z</time>
      </trkpt>
      <trkpt lat="46.15711" lon="5.8692">
        <ele>1460</ele>
        <time>2019-05-05T15:25:25Z</time>
      </trkpt>
      <trkpt lat="46.15702" lon="5.8692">
        <ele>1460</ele>
        <time>2019-05-05T15:25:32Z</time>
      </trkpt>
      <trkpt lat="46.15702" lon="5.8692">
        <ele>1460</ele>
        <time>2019-05-05T15:25:32Z</time>
      </trkpt>
      <trkpt lat="46.15701" lon="5.8692">
        <ele>1460</ele>
        <time>2019-05-05T15:25:33Z</time>
      </trkpt>
      <trkpt lat="46.15695" lon="5.86916">
        <ele>1461</ele>
        <time>2019-05-05T15:25:37Z</time>
      </trkpt>
      <trkpt lat="46.15688" lon="5.86907">
        <ele>1462</ele>
        <time>2019-05-05T15:25:45Z</time>
      </trkpt>
      <trkpt lat="46.15676" lon="5.86894">
        <ele>1463</ele>
        <time>2019-05-05T15:25:55Z</time>
      </trkpt>
      <trkpt lat="46.15661" lon="5.86876">
        <ele>1465</ele>
        <time>2019-05-05T15:26:09Z</time>
      </trkpt>
      <trkpt lat="46.15653" lon="5.86864">
        <ele>1465</ele>
        <time>2019-05-05T15:26:18Z</time>
      </trkpt>
      <trkpt lat="46.15651" lon="5.86861">
        <ele>1465</ele>
        <time>2019-05-05T15:26:20Z</time>
      </trkpt>
      <trkpt lat="46.15647" lon="5.86861">
        <ele>1465</ele>
        <time>2019-05-05T15:26:22Z</time>
      </trkpt>
      <trkpt lat="46.15643" lon="5.86861">
        <ele>1465</ele>
        <time>2019-05-05T15:26:25Z</time>
      </trkpt>
      <trkpt lat="46.15637" lon="5.86856">
        <ele>1465</ele>
        <time>2019-05-05T15:26:30Z</time>
      </trkpt>
      <trkpt lat="46.15633" lon="5.86854">
        <ele>1466</ele>
        <time>2019-05-05T15:26:33Z</time>
      </trkpt>
      <trkpt lat="46.15629" lon="5.86849">
        <ele>1466</ele>
        <time>2019-05-05T15:26:37Z</time>
      </trkpt>
      <trkpt lat="46.15627" lon="5.86845">
        <ele>1466</ele>
        <time>2019-05-05T15:26:40Z</time>
      </trkpt>
      <trkpt lat="46.15626" lon="5.86839">
        <ele>1467</ele>
        <time>2019-05-05T15:26:43Z</time>
      </trkpt>
      <trkpt lat="46.15626" lon="5.86839">
        <ele>1467</ele>
        <time>2019-05-05T15:26:43Z</time>
      </trkpt>
      <trkpt lat="46.15626" lon="5.86833">
        <ele>1467</ele>
        <time>2019-05-05T15:26:46Z</time>
      </trkpt>
      <trkpt lat="46.15627" lon="5.86831">
        <ele>1468</ele>
        <time>2019-05-05T15:26:47Z</time>
      </trkpt>
      <trkpt lat="46.15628" lon="5.86828">
        <ele>1468</ele>
        <time>2019-05-05T15:26:49Z</time>
      </trkpt>
      <trkpt lat="46.15628" lon="5.86824">
        <ele>1469</ele>
        <time>2019-05-05T15:26:51Z</time>
      </trkpt>
      <trkpt lat="46.15629" lon="5.86823">
        <ele>1469</ele>
        <time>2019-05-05T15:26:52Z</time>
      </trkpt>
      <trkpt lat="46.15638" lon="5.86808">
        <ele>1471</ele>
        <time>2019-05-05T15:27:02Z</time>
      </trkpt>
      <trkpt lat="46.15642" lon="5.86805">
        <ele>1471</ele>
        <time>2019-05-05T15:27:05Z</time>
      </trkpt>
      <trkpt lat="46.15643" lon="5.86804">
        <ele>1472</ele>
        <time>2019-05-05T15:27:06Z</time>
      </trkpt>
      <trkpt lat="46.15645" lon="5.868">
        <ele>1472</ele>
        <time>2019-05-05T15:27:09Z</time>
      </trkpt>
      <trkpt lat="46.15646" lon="5.86793">
        <ele>1473</ele>
        <time>2019-05-05T15:27:13Z</time>
      </trkpt>
      <trkpt lat="46.15646" lon="5.86788">
        <ele>1474</ele>
        <time>2019-05-05T15:27:15Z</time>
      </trkpt>
      <trkpt lat="46.15647" lon="5.86785">
        <ele>1474</ele>
        <time>2019-05-05T15:27:16Z</time>
      </trkpt>
      <trkpt lat="46.15646" lon="5.86777">
        <ele>1475</ele>
        <time>2019-05-05T15:27:21Z</time>
      </trkpt>
      <trkpt lat="46.15645" lon="5.86772">
        <ele>1476</ele>
        <time>2019-05-05T15:27:23Z</time>
      </trkpt>
      <trkpt lat="46.15644" lon="5.86767">
        <ele>1476</ele>
        <time>2019-05-05T15:27:26Z</time>
      </trkpt>
      <trkpt lat="46.15639" lon="5.8674">
        <ele>1482</ele>
        <time>2019-05-05T15:27:40Z</time>
      </trkpt>
      <trkpt lat="46.15639" lon="5.86737">
        <ele>1483</ele>
        <time>2019-05-05T15:27:42Z</time>
      </trkpt>
      <trkpt lat="46.15637" lon="5.86726">
        <ele>1486</ele>
        <time>2019-05-05T15:27:48Z</time>
      </trkpt>
      <trkpt lat="46.15636" lon="5.86725">
        <ele>1486</ele>
        <time>2019-05-05T15:27:49Z</time>
      </trkpt>
      <trkpt lat="46.15636" lon="5.8672">
        <ele>1487</ele>
        <time>2019-05-05T15:27:51Z</time>
      </trkpt>
      <trkpt lat="46.15635" lon="5.86713">
        <ele>1489</ele>
        <time>2019-05-05T15:27:55Z</time>
      </trkpt>
      <trkpt lat="46.15634" lon="5.86706">
        <ele>1490</ele>
        <time>2019-05-05T15:27:59Z</time>
      </trkpt>
      <trkpt lat="46.15633" lon="5.86701">
        <ele>1492</ele>
        <time>2019-05-05T15:28:02Z</time>
      </trkpt>
      <trkpt lat="46.15634" lon="5.86697">
        <ele>1492</ele>
        <time>2019-05-05T15:28:04Z</time>
      </trkpt>
      <trkpt lat="46.15635" lon="5.86694">
        <ele>1493</ele>
        <time>2019-05-05T15:28:06Z</time>
      </trkpt>
      <trkpt lat="46.15636" lon="5.8669">
        <ele>1494</ele>
        <time>2019-05-05T15:28:08Z</time>
      </trkpt>
      <trkpt lat="46.15636" lon="5.8669">
        <ele>1494</ele>
        <time>2019-05-05T15:28:08Z</time>
      </trkpt>
      <trkpt lat="46.15636" lon="5.86688">
        <ele>1495</ele>
        <time>2019-05-05T15:28:10Z</time>
      </trkpt>
      <trkpt lat="46.15636" lon="5.86685">
        <ele>1495</ele>
        <time>2019-05-05T15:28:11Z</time>
      </trkpt>
      <trkpt lat="46.15635" lon="5.86683">
        <ele>1496</ele>
        <time>2019-05-05T15:28:12Z</time>
      </trkpt>
      <trkpt lat="46.15633" lon="5.86681">
        <ele>1496</ele>
        <time>2019-05-05T15:28:14Z</time>
      </trkpt>
      <trkpt lat="46.15632" lon="5.86681">
        <ele>1496</ele>
        <time>2019-05-05T15:28:15Z</time>
      </trkpt>
      <trkpt lat="46.15631" lon="5.86678">
        <ele>1496</ele>
        <time>2019-05-05T15:28:16Z</time>
      </trkpt>
      <trkpt lat="46.15629" lon="5.86673">
        <ele>1497</ele>
        <time>2019-05-05T15:28:19Z</time>
      </trkpt>
      <trkpt lat="46.15627" lon="5.8667">
        <ele>1497</ele>
        <time>2019-05-05T15:28:21Z</time>
      </trkpt>
      <trkpt lat="46.15626" lon="5.86669">
        <ele>1497</ele>
        <time>2019-05-05T15:28:22Z</time>
      </trkpt>
      <trkpt lat="46.15625" lon="5.86665">
        <ele>1497</ele>
        <time>2019-05-05T15:28:24Z</time>
      </trkpt>
      <trkpt lat="46.15623" lon="5.86662">
        <ele>1498</ele>
        <time>2019-05-05T15:28:26Z</time>
      </trkpt>
      <trkpt lat="46.15623" lon="5.86659">
        <ele>1498</ele>
        <time>2019-05-05T15:28:28Z</time>
      </trkpt>
      <trkpt lat="46.15622" lon="5.86657">
        <ele>1498</ele>
        <time>2019-05-05T15:28:29Z</time>
      </trkpt>
      <trkpt lat="46.15622" lon="5.86653">
        <ele>1499</ele>
        <time>2019-05-05T15:28:31Z</time>
      </trkpt>
      <trkpt lat="46.15622" lon="5.86653">
        <ele>1498</ele>
        <time>2019-05-05T15:28:32Z</time>
      </trkpt>
      <trkpt lat="46.1562" lon="5.8665">
        <ele>1499</ele>
        <time>2019-05-05T15:28:34Z</time>
      </trkpt>
      <trkpt lat="46.15619" lon="5.86645">
        <ele>1499</ele>
        <time>2019-05-05T15:28:37Z</time>
      </trkpt>
      <trkpt lat="46.15617" lon="5.86641">
        <ele>1499</ele>
        <time>2019-05-05T15:28:39Z</time>
      </trkpt>
      <trkpt lat="46.15616" lon="5.86639">
        <ele>1499</ele>
        <time>2019-05-05T15:28:40Z</time>
      </trkpt>
      <trkpt lat="46.15616" lon="5.86639">
        <ele>1499</ele>
        <time>2019-05-05T15:28:40Z</time>
      </trkpt>
      <trkpt lat="46.15617" lon="5.86632">
        <ele>1500</ele>
        <time>2019-05-05T15:28:44Z</time>
      </trkpt>
      <trkpt lat="46.15616" lon="5.86626">
        <ele>1501</ele>
        <time>2019-05-05T15:28:47Z</time>
      </trkpt>
      <trkpt lat="46.15617" lon="5.86613">
        <ele>1502</ele>
        <time>2019-05-05T15:28:53Z</time>
      </trkpt>
      <trkpt lat="46.15617" lon="5.86608">
        <ele>1503</ele>
        <time>2019-05-05T15:28:56Z</time>
      </trkpt>
      <trkpt lat="46.15617" lon="5.86604">
        <ele>1503</ele>
        <time>2019-05-05T15:28:58Z</time>
      </trkpt>
      <trkpt lat="46.15618" lon="5.866">
        <ele>1504</ele>
        <time>2019-05-05T15:29:00Z</time>
      </trkpt>
      <trkpt lat="46.15618" lon="5.86596">
        <ele>1504</ele>
        <time>2019-05-05T15:29:02Z</time>
      </trkpt>
      <trkpt lat="46.15619" lon="5.86592">
        <ele>1505</ele>
        <time>2019-05-05T15:29:04Z</time>
      </trkpt>
      <trkpt lat="46.15622" lon="5.86583">
        <ele>1506</ele>
        <time>2019-05-05T15:29:10Z</time>
      </trkpt>
      <trkpt lat="46.15622" lon="5.86576">
        <ele>1507</ele>
        <time>2019-05-05T15:29:13Z</time>
      </trkpt>
      <trkpt lat="46.15622" lon="5.86564">
        <ele>1508</ele>
        <time>2019-05-05T15:29:19Z</time>
      </trkpt>
      <trkpt lat="46.15621" lon="5.86552">
        <ele>1509</ele>
        <time>2019-05-05T15:29:25Z</time>
      </trkpt>
      <trkpt lat="46.15621" lon="5.86547">
        <ele>1509</ele>
        <time>2019-05-05T15:29:28Z</time>
      </trkpt>
      <trkpt lat="46.1562" lon="5.86542">
        <ele>1509</ele>
        <time>2019-05-05T15:29:30Z</time>
      </trkpt>
      <trkpt lat="46.15619" lon="5.86539">
        <ele>1509</ele>
        <time>2019-05-05T15:29:32Z</time>
      </trkpt>
      <trkpt lat="46.15619" lon="5.86538">
        <ele>1509</ele>
        <time>2019-05-05T15:29:32Z</time>
      </trkpt>
      <trkpt lat="46.15618" lon="5.86535">
        <ele>1510</ele>
        <time>2019-05-05T15:29:34Z</time>
      </trkpt>
      <trkpt lat="46.15616" lon="5.8653">
        <ele>1510</ele>
        <time>2019-05-05T15:29:37Z</time>
      </trkpt>
      <trkpt lat="46.15615" lon="5.86524">
        <ele>1510</ele>
        <time>2019-05-05T15:29:40Z</time>
      </trkpt>
      <trkpt lat="46.15614" lon="5.86515">
        <ele>1511</ele>
        <time>2019-05-05T15:29:45Z</time>
      </trkpt>
      <trkpt lat="46.15614" lon="5.86515">
        <ele>1511</ele>
        <time>2019-05-05T15:29:45Z</time>
      </trkpt>
      <trkpt lat="46.15614" lon="5.86512">
        <ele>1511</ele>
        <time>2019-05-05T15:29:46Z</time>
      </trkpt>
      <trkpt lat="46.15611" lon="5.86509">
        <ele>1511</ele>
        <time>2019-05-05T15:29:49Z</time>
      </trkpt>
      <trkpt lat="46.15608" lon="5.86509">
        <ele>1510</ele>
        <time>2019-05-05T15:29:51Z</time>
      </trkpt>
      <trkpt lat="46.15598" lon="5.86508">
        <ele>1510</ele>
        <time>2019-05-05T15:29:58Z</time>
      </trkpt>
      <trkpt lat="46.15593" lon="5.86509">
        <ele>1510</ele>
        <time>2019-05-05T15:30:02Z</time>
      </trkpt>
      <trkpt lat="46.15587" lon="5.86508">
        <ele>1511</ele>
        <time>2019-05-05T15:30:07Z</time>
      </trkpt>
      <trkpt lat="46.1558" lon="5.86507">
        <ele>1512</ele>
        <time>2019-05-05T15:30:11Z</time>
      </trkpt>
      <trkpt lat="46.15574" lon="5.86505">
        <ele>1513</ele>
        <time>2019-05-05T15:30:16Z</time>
      </trkpt>
      <trkpt lat="46.1557" lon="5.86504">
        <ele>1513</ele>
        <time>2019-05-05T15:30:19Z</time>
      </trkpt>
      <trkpt lat="46.15552" lon="5.86499">
        <ele>1516</ele>
        <time>2019-05-05T15:30:32Z</time>
      </trkpt>
      <trkpt lat="46.15548" lon="5.86498">
        <ele>1517</ele>
        <time>2019-05-05T15:30:35Z</time>
      </trkpt>
      <trkpt lat="46.15547" lon="5.86498">
        <ele>1517</ele>
        <time>2019-05-05T15:30:36Z</time>
      </trkpt>
      <trkpt lat="46.15544" lon="5.86499">
        <ele>1517</ele>
        <time>2019-05-05T15:30:38Z</time>
      </trkpt>
      <trkpt lat="46.15542" lon="5.86498">
        <ele>1517</ele>
        <time>2019-05-05T15:30:40Z</time>
      </trkpt>
      <trkpt lat="46.1554" lon="5.86498">
        <ele>1518</ele>
        <time>2019-05-05T15:30:41Z</time>
      </trkpt>
      <trkpt lat="46.15536" lon="5.86497">
        <ele>1518</ele>
        <time>2019-05-05T15:30:44Z</time>
      </trkpt>
      <trkpt lat="46.15533" lon="5.86496">
        <ele>1519</ele>
        <time>2019-05-05T15:30:47Z</time>
      </trkpt>
      <trkpt lat="46.1553" lon="5.86495">
        <ele>1519</ele>
        <time>2019-05-05T15:30:49Z</time>
      </trkpt>
      <trkpt lat="46.15528" lon="5.86493">
        <ele>1520</ele>
        <time>2019-05-05T15:30:51Z</time>
      </trkpt>
      <trkpt lat="46.15526" lon="5.86491">
        <ele>1520</ele>
        <time>2019-05-05T15:30:52Z</time>
      </trkpt>
      <trkpt lat="46.15524" lon="5.8649">
        <ele>1521</ele>
        <time>2019-05-05T15:30:54Z</time>
      </trkpt>
      <trkpt lat="46.15522" lon="5.86489">
        <ele>1521</ele>
        <time>2019-05-05T15:30:55Z</time>
      </trkpt>
      <trkpt lat="46.1552" lon="5.86488">
        <ele>1521</ele>
        <time>2019-05-05T15:30:57Z</time>
      </trkpt>
      <trkpt lat="46.15518" lon="5.86486">
        <ele>1522</ele>
        <time>2019-05-05T15:30:59Z</time>
      </trkpt>
      <trkpt lat="46.15516" lon="5.86484">
        <ele>1523</ele>
        <time>2019-05-05T15:31:01Z</time>
      </trkpt>
      <trkpt lat="46.15517" lon="5.86477">
        <ele>1524</ele>
        <time>2019-05-05T15:31:05Z</time>
      </trkpt>
      <trkpt lat="46.15518" lon="5.86456">
        <ele>1526</ele>
        <time>2019-05-05T15:31:15Z</time>
      </trkpt>
      <trkpt lat="46.15515" lon="5.86453">
        <ele>1527</ele>
        <time>2019-05-05T15:31:18Z</time>
      </trkpt>
      <trkpt lat="46.15514" lon="5.86451">
        <ele>1528</ele>
        <time>2019-05-05T15:31:19Z</time>
      </trkpt>
      <trkpt lat="46.15511" lon="5.86446">
        <ele>1529</ele>
        <time>2019-05-05T15:31:23Z</time>
      </trkpt>
      <trkpt lat="46.15508" lon="5.86445">
        <ele>1530</ele>
        <time>2019-05-05T15:31:25Z</time>
      </trkpt>
      <trkpt lat="46.15507" lon="5.86444">
        <ele>1530</ele>
        <time>2019-05-05T15:31:25Z</time>
      </trkpt>
      <trkpt lat="46.15504" lon="5.86441">
        <ele>1531</ele>
        <time>2019-05-05T15:31:28Z</time>
      </trkpt>
      <trkpt lat="46.15504" lon="5.86441">
        <ele>1531</ele>
        <time>2019-05-05T15:31:29Z</time>
      </trkpt>
      <trkpt lat="46.15502" lon="5.8644">
        <ele>1532</ele>
        <time>2019-05-05T15:31:30Z</time>
      </trkpt>
      <trkpt lat="46.15501" lon="5.8644">
        <ele>1532</ele>
        <time>2019-05-05T15:31:31Z</time>
      </trkpt>
      <trkpt lat="46.155" lon="5.8644">
        <ele>1532</ele>
        <time>2019-05-05T15:31:31Z</time>
      </trkpt>
      <trkpt lat="46.15499" lon="5.86439">
        <ele>1533</ele>
        <time>2019-05-05T15:31:33Z</time>
      </trkpt>
      <trkpt lat="46.15497" lon="5.86437">
        <ele>1533</ele>
        <time>2019-05-05T15:31:34Z</time>
      </trkpt>
      <trkpt lat="46.15495" lon="5.86437">
        <ele>1534</ele>
        <time>2019-05-05T15:31:36Z</time>
      </trkpt>
      <trkpt lat="46.15494" lon="5.86437">
        <ele>1534</ele>
        <time>2019-05-05T15:31:37Z</time>
      </trkpt>
      <trkpt lat="46.15493" lon="5.86436">
        <ele>1534</ele>
        <time>2019-05-05T15:31:37Z</time>
      </trkpt>
      <trkpt lat="46.15489" lon="5.86434">
        <ele>1536</ele>
        <time>2019-05-05T15:31:41Z</time>
      </trkpt>
      <trkpt lat="46.15488" lon="5.86434">
        <ele>1536</ele>
        <time>2019-05-05T15:31:41Z</time>
      </trkpt>
      <trkpt lat="46.15483" lon="5.86434">
        <ele>1537</ele>
        <time>2019-05-05T15:31:45Z</time>
      </trkpt>
      <trkpt lat="46.15481" lon="5.86435">
        <ele>1537</ele>
        <time>2019-05-05T15:31:47Z</time>
      </trkpt>
      <trkpt lat="46.15479" lon="5.86436">
        <ele>1537</ele>
        <time>2019-05-05T15:31:48Z</time>
      </trkpt>
      <trkpt lat="46.15478" lon="5.86437">
        <ele>1538</ele>
        <time>2019-05-05T15:31:49Z</time>
      </trkpt>
      <trkpt lat="46.15476" lon="5.86438">
        <ele>1538</ele>
        <time>2019-05-05T15:31:51Z</time>
      </trkpt>
      <trkpt lat="46.15475" lon="5.86438">
        <ele>1538</ele>
        <time>2019-05-05T15:31:52Z</time>
      </trkpt>
      <trkpt lat="46.15473" lon="5.86438">
        <ele>1538</ele>
        <time>2019-05-05T15:31:53Z</time>
      </trkpt>
      <trkpt lat="46.1547" lon="5.86439">
        <ele>1539</ele>
        <time>2019-05-05T15:31:55Z</time>
      </trkpt>
      <trkpt lat="46.15467" lon="5.8644">
        <ele>1540</ele>
        <time>2019-05-05T15:31:57Z</time>
      </trkpt>
      <trkpt lat="46.15466" lon="5.8644">
        <ele>1540</ele>
        <time>2019-05-05T15:31:58Z</time>
      </trkpt>
      <trkpt lat="46.15463" lon="5.8644">
        <ele>1540</ele>
        <time>2019-05-05T15:32:00Z</time>
      </trkpt>
      <trkpt lat="46.15456" lon="5.86439">
        <ele>1542</ele>
        <time>2019-05-05T15:32:06Z</time>
      </trkpt>
      <trkpt lat="46.15454" lon="5.86439">
        <ele>1543</ele>
        <time>2019-05-05T15:32:07Z</time>
      </trkpt>
      <trkpt lat="46.15453" lon="5.8644">
        <ele>1543</ele>
        <time>2019-05-05T15:32:08Z</time>
      </trkpt>
      <trkpt lat="46.15452" lon="5.86441">
        <ele>1543</ele>
        <time>2019-05-05T15:32:09Z</time>
      </trkpt>
      <trkpt lat="46.1545" lon="5.86441">
        <ele>1543</ele>
        <time>2019-05-05T15:32:10Z</time>
      </trkpt>
      <trkpt lat="46.15449" lon="5.86441">
        <ele>1543</ele>
        <time>2019-05-05T15:32:11Z</time>
      </trkpt>
      <trkpt lat="46.15448" lon="5.86441">
        <ele>1544</ele>
        <time>2019-05-05T15:32:12Z</time>
      </trkpt>
      <trkpt lat="46.15446" lon="5.86438">
        <ele>1545</ele>
        <time>2019-05-05T15:32:14Z</time>
      </trkpt>
      <trkpt lat="46.15446" lon="5.86438">
        <ele>1545</ele>
        <time>2019-05-05T15:32:15Z</time>
      </trkpt>
      <trkpt lat="46.15446" lon="5.86437">
        <ele>1545</ele>
        <time>2019-05-05T15:32:15Z</time>
      </trkpt>
      <trkpt lat="46.15445" lon="5.86437">
        <ele>1545</ele>
        <time>2019-05-05T15:32:16Z</time>
      </trkpt>
      <trkpt lat="46.15442" lon="5.86439">
        <ele>1545</ele>
        <time>2019-05-05T15:32:18Z</time>
      </trkpt>
      <trkpt lat="46.1544" lon="5.86439">
        <ele>1546</ele>
        <time>2019-05-05T15:32:20Z</time>
      </trkpt>
      <trkpt lat="46.15435" lon="5.86438">
        <ele>1547</ele>
        <time>2019-05-05T15:32:24Z</time>
      </trkpt>
      <trkpt lat="46.15432" lon="5.86438">
        <ele>1548</ele>
        <time>2019-05-05T15:32:25Z</time>
      </trkpt>
      <trkpt lat="46.1543" lon="5.86438">
        <ele>1548</ele>
        <time>2019-05-05T15:32:27Z</time>
      </trkpt>
      <trkpt lat="46.15426" lon="5.86435">
        <ele>1549</ele>
        <time>2019-05-05T15:32:30Z</time>
      </trkpt>
      <trkpt lat="46.15424" lon="5.86433">
        <ele>1549</ele>
        <time>2019-05-05T15:32:32Z</time>
      </trkpt>
      <trkpt lat="46.15422" lon="5.86429">
        <ele>1550</ele>
        <time>2019-05-05T15:32:35Z</time>
      </trkpt>
      <trkpt lat="46.15421" lon="5.86427">
        <ele>1551</ele>
        <time>2019-05-05T15:32:36Z</time>
      </trkpt>
      <trkpt lat="46.1542" lon="5.86424">
        <ele>1551</ele>
        <time>2019-05-05T15:32:38Z</time>
      </trkpt>
      <trkpt lat="46.1542" lon="5.86423">
        <ele>1551</ele>
        <time>2019-05-05T15:32:38Z</time>
      </trkpt>
      <trkpt lat="46.15415" lon="5.86418">
        <ele>1553</ele>
        <time>2019-05-05T15:32:42Z</time>
      </trkpt>
      <trkpt lat="46.154" lon="5.86418">
        <ele>1555</ele>
        <time>2019-05-05T15:32:54Z</time>
      </trkpt>
      <trkpt lat="46.15394" lon="5.86415">
        <ele>1556</ele>
        <time>2019-05-05T15:32:58Z</time>
      </trkpt>
      <trkpt lat="46.15388" lon="5.86412">
        <ele>1558</ele>
        <time>2019-05-05T15:33:03Z</time>
      </trkpt>
      <trkpt lat="46.15385" lon="5.86408">
        <ele>1559</ele>
        <time>2019-05-05T15:33:06Z</time>
      </trkpt>
      <trkpt lat="46.15384" lon="5.86406">
        <ele>1559</ele>
        <time>2019-05-05T15:33:08Z</time>
      </trkpt>
      <trkpt lat="46.15383" lon="5.86404">
        <ele>1560</ele>
        <time>2019-05-05T15:33:09Z</time>
      </trkpt>
      <trkpt lat="46.15381" lon="5.86402">
        <ele>1560</ele>
        <time>2019-05-05T15:33:10Z</time>
      </trkpt>
      <trkpt lat="46.15376" lon="5.86397">
        <ele>1562</ele>
        <time>2019-05-05T15:33:15Z</time>
      </trkpt>
      <trkpt lat="46.1537" lon="5.86393">
        <ele>1564</ele>
        <time>2019-05-05T15:33:20Z</time>
      </trkpt>
      <trkpt lat="46.15369" lon="5.86392">
        <ele>1564</ele>
        <time>2019-05-05T15:33:21Z</time>
      </trkpt>
      <trkpt lat="46.15367" lon="5.86391">
        <ele>1564</ele>
        <time>2019-05-05T15:33:22Z</time>
      </trkpt>
      <trkpt lat="46.15359" lon="5.86384">
        <ele>1567</ele>
        <time>2019-05-05T15:33:29Z</time>
      </trkpt>
      <trkpt lat="46.15355" lon="5.86382">
        <ele>1568</ele>
        <time>2019-05-05T15:33:33Z</time>
      </trkpt>
      <trkpt lat="46.15352" lon="5.8638">
        <ele>1569</ele>
        <time>2019-05-05T15:33:35Z</time>
      </trkpt>
      <trkpt lat="46.15349" lon="5.86377">
        <ele>1570</ele>
        <time>2019-05-05T15:33:38Z</time>
      </trkpt>
      <trkpt lat="46.15347" lon="5.86376">
        <ele>1570</ele>
        <time>2019-05-05T15:33:39Z</time>
      </trkpt>
      <trkpt lat="46.15344" lon="5.86373">
        <ele>1571</ele>
        <time>2019-05-05T15:33:42Z</time>
      </trkpt>
      <trkpt lat="46.15341" lon="5.86371">
        <ele>1572</ele>
        <time>2019-05-05T15:33:44Z</time>
      </trkpt>
      <trkpt lat="46.15338" lon="5.86369">
        <ele>1572</ele>
        <time>2019-05-05T15:33:47Z</time>
      </trkpt>
      <trkpt lat="46.15326" lon="5.86357">
        <ele>1576</ele>
        <time>2019-05-05T15:33:58Z</time>
      </trkpt>
      <trkpt lat="46.15322" lon="5.86354">
        <ele>1577</ele>
        <time>2019-05-05T15:34:01Z</time>
      </trkpt>
      <trkpt lat="46.15317" lon="5.8635">
        <ele>1578</ele>
        <time>2019-05-05T15:34:06Z</time>
      </trkpt>
      <trkpt lat="46.15313" lon="5.86345">
        <ele>1579</ele>
        <time>2019-05-05T15:34:09Z</time>
      </trkpt>
      <trkpt lat="46.15308" lon="5.86338">
        <ele>1579</ele>
        <time>2019-05-05T15:34:14Z</time>
      </trkpt>
      <trkpt lat="46.15304" lon="5.86336">
        <ele>1580</ele>
        <time>2019-05-05T15:34:17Z</time>
      </trkpt>
      <trkpt lat="46.15302" lon="5.86333">
        <ele>1580</ele>
        <time>2019-05-05T15:34:19Z</time>
      </trkpt>
      <trkpt lat="46.15293" lon="5.86325">
        <ele>1581</ele>
        <time>2019-05-05T15:34:27Z</time>
      </trkpt>
      <trkpt lat="46.15289" lon="5.86326">
        <ele>1581</ele>
        <time>2019-05-05T15:34:30Z</time>
      </trkpt>
      <trkpt lat="46.15284" lon="5.8633">
        <ele>1582</ele>
        <time>2019-05-05T15:34:34Z</time>
      </trkpt>
      <trkpt lat="46.1527" lon="5.86338">
        <ele>1584</ele>
        <time>2019-05-05T15:34:45Z</time>
      </trkpt>
      <trkpt lat="46.15268" lon="5.86339">
        <ele>1584</ele>
        <time>2019-05-05T15:34:47Z</time>
      </trkpt>
      <trkpt lat="46.15264" lon="5.8634">
        <ele>1585</ele>
        <time>2019-05-05T15:34:50Z</time>
      </trkpt>
      <trkpt lat="46.15262" lon="5.86341">
        <ele>1585</ele>
        <time>2019-05-05T15:34:51Z</time>
      </trkpt>
      <trkpt lat="46.15261" lon="5.86342">
        <ele>1586</ele>
        <time>2019-05-05T15:34:52Z</time>
      </trkpt>
      <trkpt lat="46.15243" lon="5.86348">
        <ele>1590</ele>
        <time>2019-05-05T15:35:05Z</time>
      </trkpt>
      <trkpt lat="46.15244" lon="5.8635">
        <ele>1590</ele>
        <time>2019-05-05T15:35:06Z</time>
      </trkpt>
      <trkpt lat="46.15242" lon="5.86349">
        <ele>1590</ele>
        <time>2019-05-05T15:35:08Z</time>
      </trkpt>
      <trkpt lat="46.15241" lon="5.86349">
        <ele>1591</ele>
        <time>2019-05-05T15:35:09Z</time>
      </trkpt>
      <trkpt lat="46.15239" lon="5.86349">
        <ele>1591</ele>
        <time>2019-05-05T15:35:10Z</time>
      </trkpt>
      <trkpt lat="46.15238" lon="5.86349">
        <ele>1591</ele>
        <time>2019-05-05T15:35:11Z</time>
      </trkpt>
      <trkpt lat="46.15237" lon="5.8635">
        <ele>1592</ele>
        <time>2019-05-05T15:35:12Z</time>
      </trkpt>
      <trkpt lat="46.15227" lon="5.86354">
        <ele>1594</ele>
        <time>2019-05-05T15:35:20Z</time>
      </trkpt>
      <trkpt lat="46.15225" lon="5.86355">
        <ele>1594</ele>
        <time>2019-05-05T15:35:21Z</time>
      </trkpt>
      <trkpt lat="46.15221" lon="5.86357">
        <ele>1595</ele>
        <time>2019-05-05T15:35:24Z</time>
      </trkpt>
      <trkpt lat="46.15218" lon="5.8636">
        <ele>1595</ele>
        <time>2019-05-05T15:35:27Z</time>
      </trkpt>
      <trkpt lat="46.15216" lon="5.86362">
        <ele>1596</ele>
        <time>2019-05-05T15:35:29Z</time>
      </trkpt>
      <trkpt lat="46.15211" lon="5.86364">
        <ele>1597</ele>
        <time>2019-05-05T15:35:33Z</time>
      </trkpt>
      <trkpt lat="46.15209" lon="5.86363">
        <ele>1597</ele>
        <time>2019-05-05T15:35:34Z</time>
      </trkpt>
      <trkpt lat="46.15208" lon="5.86363">
        <ele>1598</ele>
        <time>2019-05-05T15:35:35Z</time>
      </trkpt>
      <trkpt lat="46.15201" lon="5.86363">
        <ele>1599</ele>
        <time>2019-05-05T15:35:40Z</time>
      </trkpt>
      <trkpt lat="46.15201" lon="5.86363">
        <ele>1599</ele>
        <time>2019-05-05T15:35:40Z</time>
      </trkpt>
      <trkpt lat="46.15195" lon="5.86364">
        <ele>1601</ele>
        <time>2019-05-05T15:35:44Z</time>
      </trkpt>
      <trkpt lat="46.15191" lon="5.86362">
        <ele>1602</ele>
        <time>2019-05-05T15:35:48Z</time>
      </trkpt>
      <trkpt lat="46.1519" lon="5.86362">
        <ele>1602</ele>
        <time>2019-05-05T15:35:49Z</time>
      </trkpt>
      <trkpt lat="46.15189" lon="5.86361">
        <ele>1603</ele>
        <time>2019-05-05T15:35:50Z</time>
      </trkpt>
      <trkpt lat="46.15189" lon="5.86364">
        <ele>1602</ele>
        <time>2019-05-05T15:35:51Z</time>
      </trkpt>
      <trkpt lat="46.15188" lon="5.86363">
        <ele>1603</ele>
        <time>2019-05-05T15:35:52Z</time>
      </trkpt>
      <trkpt lat="46.15187" lon="5.86363">
        <ele>1603</ele>
        <time>2019-05-05T15:35:53Z</time>
      </trkpt>
      <trkpt lat="46.15187" lon="5.86363">
        <ele>1603</ele>
        <time>2019-05-05T15:35:53Z</time>
      </trkpt>
      <trkpt lat="46.15186" lon="5.86362">
        <ele>1603</ele>
        <time>2019-05-05T15:35:54Z</time>
      </trkpt>
      <trkpt lat="46.15186" lon="5.86361">
        <ele>1603</ele>
        <time>2019-05-05T15:35:54Z</time>
      </trkpt>
      <trkpt lat="46.15181" lon="5.86362">
        <ele>1603</ele>
        <time>2019-05-05T15:35:58Z</time>
      </trkpt>
      <trkpt lat="46.15179" lon="5.86364">
        <ele>1603</ele>
        <time>2019-05-05T15:36:00Z</time>
      </trkpt>
      <trkpt lat="46.15177" lon="5.86364">
        <ele>1603</ele>
        <time>2019-05-05T15:36:01Z</time>
      </trkpt>
      <trkpt lat="46.15176" lon="5.86362">
        <ele>1604</ele>
        <time>2019-05-05T15:36:02Z</time>
      </trkpt>
      <trkpt lat="46.15175" lon="5.86362">
        <ele>1604</ele>
        <time>2019-05-05T15:36:03Z</time>
      </trkpt>
      <trkpt lat="46.15173" lon="5.86362">
        <ele>1604</ele>
        <time>2019-05-05T15:36:05Z</time>
      </trkpt>
      <trkpt lat="46.15169" lon="5.8636">
        <ele>1604</ele>
        <time>2019-05-05T15:36:08Z</time>
      </trkpt>
      <trkpt lat="46.15154" lon="5.86362">
        <ele>1605</ele>
        <time>2019-05-05T15:36:18Z</time>
      </trkpt>
      <trkpt lat="46.15144" lon="5.86363">
        <ele>1605</ele>
        <time>2019-05-05T15:36:25Z</time>
      </trkpt>
      <trkpt lat="46.15139" lon="5.86363">
        <ele>1605</ele>
        <time>2019-05-05T15:36:29Z</time>
      </trkpt>
      <trkpt lat="46.15136" lon="5.86363">
        <ele>1605</ele>
        <time>2019-05-05T15:36:31Z</time>
      </trkpt>
      <trkpt lat="46.1512" lon="5.86367">
        <ele>1606</ele>
        <time>2019-05-05T15:36:43Z</time>
      </trkpt>
      <trkpt lat="46.15107" lon="5.86374">
        <ele>1607</ele>
        <time>2019-05-05T15:36:53Z</time>
      </trkpt>
      <trkpt lat="46.15102" lon="5.86375">
        <ele>1607</ele>
        <time>2019-05-05T15:36:56Z</time>
      </trkpt>
      <trkpt lat="46.15096" lon="5.86375">
        <ele>1606</ele>
        <time>2019-05-05T15:37:01Z</time>
      </trkpt>
      <trkpt lat="46.15091" lon="5.8637">
        <ele>1606</ele>
        <time>2019-05-05T15:37:05Z</time>
      </trkpt>
      <trkpt lat="46.15087" lon="5.86369">
        <ele>1605</ele>
        <time>2019-05-05T15:37:09Z</time>
      </trkpt>
      <trkpt lat="46.15068" lon="5.86372">
        <ele>1603</ele>
        <time>2019-05-05T15:37:22Z</time>
      </trkpt>
      <trkpt lat="46.15062" lon="5.86372">
        <ele>1602</ele>
        <time>2019-05-05T15:37:26Z</time>
      </trkpt>
      <trkpt lat="46.15059" lon="5.86372">
        <ele>1602</ele>
        <time>2019-05-05T15:37:29Z</time>
      </trkpt>
      <trkpt lat="46.15057" lon="5.86372">
        <ele>1602</ele>
        <time>2019-05-05T15:37:30Z</time>
      </trkpt>
      <trkpt lat="46.15053" lon="5.86372">
        <ele>1601</ele>
        <time>2019-05-05T15:37:33Z</time>
      </trkpt>
      <trkpt lat="46.15047" lon="5.86374">
        <ele>1601</ele>
        <time>2019-05-05T15:37:38Z</time>
      </trkpt>
      <trkpt lat="46.15047" lon="5.86374">
        <ele>1601</ele>
        <time>2019-05-05T15:37:38Z</time>
      </trkpt>
      <trkpt lat="46.15048" lon="5.86375">
        <ele>1601</ele>
        <time>2019-05-05T15:37:39Z</time>
      </trkpt>
      <trkpt lat="46.15049" lon="5.86376">
        <ele>1601</ele>
        <time>2019-05-05T15:37:40Z</time>
      </trkpt>
      <trkpt lat="46.15049" lon="5.8638">
        <ele>1601</ele>
        <time>2019-05-05T15:37:42Z</time>
      </trkpt>
      <trkpt lat="46.15046" lon="5.8638">
        <ele>1601</ele>
        <time>2019-05-05T15:37:43Z</time>
      </trkpt>
      <trkpt lat="46.15045" lon="5.8638">
        <ele>1600</ele>
        <time>2019-05-05T15:37:44Z</time>
      </trkpt>
      <trkpt lat="46.15043" lon="5.8638">
        <ele>1600</ele>
        <time>2019-05-05T15:37:46Z</time>
      </trkpt>
      <trkpt lat="46.15043" lon="5.8638">
        <ele>1600</ele>
        <time>2019-05-05T15:37:46Z</time>
      </trkpt>
      <trkpt lat="46.15042" lon="5.8638">
        <ele>1600</ele>
        <time>2019-05-05T15:37:47Z</time>
      </trkpt>
      <trkpt lat="46.15042" lon="5.86378">
        <ele>1600</ele>
        <time>2019-05-05T15:37:47Z</time>
      </trkpt>
      <trkpt lat="46.15042" lon="5.86377">
        <ele>1600</ele>
        <time>2019-05-05T15:37:48Z</time>
      </trkpt>
      <trkpt lat="46.15041" lon="5.86377">
        <ele>1600</ele>
        <time>2019-05-05T15:37:49Z</time>
      </trkpt>
      <trkpt lat="46.15043" lon="5.86377">
        <ele>1600</ele>
        <time>2019-05-05T15:37:50Z</time>
      </trkpt>
      <trkpt lat="46.15043" lon="5.86379">
        <ele>1600</ele>
        <time>2019-05-05T15:37:51Z</time>
      </trkpt>
      <trkpt lat="46.15036" lon="5.86373">
        <ele>1599</ele>
        <time>2019-05-05T15:37:57Z</time>
      </trkpt>
      <trkpt lat="46.15036" lon="5.86376">
        <ele>1599</ele>
        <time>2019-05-05T15:37:59Z</time>
      </trkpt>
      <trkpt lat="46.15034" lon="5.86377">
        <ele>1599</ele>
        <time>2019-05-05T15:38:01Z</time>
      </trkpt>
      <trkpt lat="46.15031" lon="5.86379">
        <ele>1599</ele>
        <time>2019-05-05T15:38:03Z</time>
      </trkpt>
      <trkpt lat="46.15029" lon="5.8638">
        <ele>1599</ele>
        <time>2019-05-05T15:38:04Z</time>
      </trkpt>
      <trkpt lat="46.15028" lon="5.86379">
        <ele>1598</ele>
        <time>2019-05-05T15:38:05Z</time>
      </trkpt>
      <trkpt lat="46.15027" lon="5.86379">
        <ele>1598</ele>
        <time>2019-05-05T15:38:06Z</time>
      </trkpt>
      <trkpt lat="46.15024" lon="5.86382">
        <ele>1598</ele>
        <time>2019-05-05T15:38:08Z</time>
      </trkpt>
      <trkpt lat="46.15023" lon="5.86381">
        <ele>1598</ele>
        <time>2019-05-05T15:38:09Z</time>
      </trkpt>
      <trkpt lat="46.1502" lon="5.86382">
        <ele>1598</ele>
        <time>2019-05-05T15:38:11Z</time>
      </trkpt>
      <trkpt lat="46.15018" lon="5.86385">
        <ele>1597</ele>
        <time>2019-05-05T15:38:14Z</time>
      </trkpt>
      <trkpt lat="46.15012" lon="5.86391">
        <ele>1595</ele>
        <time>2019-05-05T15:38:19Z</time>
      </trkpt>
      <trkpt lat="46.1501" lon="5.86392">
        <ele>1594</ele>
        <time>2019-05-05T15:38:20Z</time>
      </trkpt>
      <trkpt lat="46.15008" lon="5.86393">
        <ele>1594</ele>
        <time>2019-05-05T15:38:22Z</time>
      </trkpt>
      <trkpt lat="46.15007" lon="5.86394">
        <ele>1593</ele>
        <time>2019-05-05T15:38:23Z</time>
      </trkpt>
      <trkpt lat="46.15003" lon="5.86395">
        <ele>1592</ele>
        <time>2019-05-05T15:38:26Z</time>
      </trkpt>
      <trkpt lat="46.14999" lon="5.86398">
        <ele>1591</ele>
        <time>2019-05-05T15:38:29Z</time>
      </trkpt>
      <trkpt lat="46.14994" lon="5.86402">
        <ele>1589</ele>
        <time>2019-05-05T15:38:34Z</time>
      </trkpt>
      <trkpt lat="46.14993" lon="5.86403">
        <ele>1589</ele>
        <time>2019-05-05T15:38:35Z</time>
      </trkpt>
      <trkpt lat="46.14991" lon="5.86406">
        <ele>1588</ele>
        <time>2019-05-05T15:38:37Z</time>
      </trkpt>
      <trkpt lat="46.14989" lon="5.86408">
        <ele>1588</ele>
        <time>2019-05-05T15:38:38Z</time>
      </trkpt>
      <trkpt lat="46.14986" lon="5.86409">
        <ele>1587</ele>
        <time>2019-05-05T15:38:41Z</time>
      </trkpt>
      <trkpt lat="46.14985" lon="5.86411">
        <ele>1586</ele>
        <time>2019-05-05T15:38:42Z</time>
      </trkpt>
      <trkpt lat="46.14984" lon="5.86412">
        <ele>1586</ele>
        <time>2019-05-05T15:38:43Z</time>
      </trkpt>
      <trkpt lat="46.14982" lon="5.86414">
        <ele>1585</ele>
        <time>2019-05-05T15:38:45Z</time>
      </trkpt>
      <trkpt lat="46.14981" lon="5.86414">
        <ele>1585</ele>
        <time>2019-05-05T15:38:46Z</time>
      </trkpt>
      <trkpt lat="46.1498" lon="5.86415">
        <ele>1585</ele>
        <time>2019-05-05T15:38:46Z</time>
      </trkpt>
      <trkpt lat="46.14978" lon="5.86415">
        <ele>1584</ele>
        <time>2019-05-05T15:38:48Z</time>
      </trkpt>
      <trkpt lat="46.14977" lon="5.86416">
        <ele>1584</ele>
        <time>2019-05-05T15:38:49Z</time>
      </trkpt>
      <trkpt lat="46.14977" lon="5.86417">
        <ele>1584</ele>
        <time>2019-05-05T15:38:49Z</time>
      </trkpt>
      <trkpt lat="46.14977" lon="5.86421">
        <ele>1584</ele>
        <time>2019-05-05T15:38:51Z</time>
      </trkpt>
      <trkpt lat="46.14977" lon="5.86421">
        <ele>1584</ele>
        <time>2019-05-05T15:38:51Z</time>
      </trkpt>
      <trkpt lat="46.14976" lon="5.86422">
        <ele>1584</ele>
        <time>2019-05-05T15:38:52Z</time>
      </trkpt>
      <trkpt lat="46.14974" lon="5.86422">
        <ele>1583</ele>
        <time>2019-05-05T15:38:53Z</time>
      </trkpt>
      <trkpt lat="46.14973" lon="5.86423">
        <ele>1583</ele>
        <time>2019-05-05T15:38:54Z</time>
      </trkpt>
      <trkpt lat="46.14971" lon="5.86426">
        <ele>1582</ele>
        <time>2019-05-05T15:38:57Z</time>
      </trkpt>
      <trkpt lat="46.14967" lon="5.86442">
        <ele>1580</ele>
        <time>2019-05-05T15:39:05Z</time>
      </trkpt>
      <trkpt lat="46.14965" lon="5.86444">
        <ele>1579</ele>
        <time>2019-05-05T15:39:07Z</time>
      </trkpt>
      <trkpt lat="46.14964" lon="5.86445">
        <ele>1579</ele>
        <time>2019-05-05T15:39:08Z</time>
      </trkpt>
      <trkpt lat="46.14962" lon="5.86447">
        <ele>1578</ele>
        <time>2019-05-05T15:39:10Z</time>
      </trkpt>
      <trkpt lat="46.1496" lon="5.86452">
        <ele>1577</ele>
        <time>2019-05-05T15:39:13Z</time>
      </trkpt>
      <trkpt lat="46.14958" lon="5.86455">
        <ele>1576</ele>
        <time>2019-05-05T15:39:15Z</time>
      </trkpt>
      <trkpt lat="46.14957" lon="5.86455">
        <ele>1576</ele>
        <time>2019-05-05T15:39:16Z</time>
      </trkpt>
      <trkpt lat="46.14955" lon="5.86457">
        <ele>1575</ele>
        <time>2019-05-05T15:39:17Z</time>
      </trkpt>
      <trkpt lat="46.14951" lon="5.86458">
        <ele>1574</ele>
        <time>2019-05-05T15:39:20Z</time>
      </trkpt>
      <trkpt lat="46.14947" lon="5.86462">
        <ele>1572</ele>
        <time>2019-05-05T15:39:24Z</time>
      </trkpt>
      <trkpt lat="46.14945" lon="5.86463">
        <ele>1572</ele>
        <time>2019-05-05T15:39:26Z</time>
      </trkpt>
      <trkpt lat="46.14944" lon="5.86465">
        <ele>1571</ele>
        <time>2019-05-05T15:39:27Z</time>
      </trkpt>
      <trkpt lat="46.14944" lon="5.86467">
        <ele>1571</ele>
        <time>2019-05-05T15:39:28Z</time>
      </trkpt>
      <trkpt lat="46.14944" lon="5.86468">
        <ele>1571</ele>
        <time>2019-05-05T15:39:29Z</time>
      </trkpt>
      <trkpt lat="46.14944" lon="5.86469">
        <ele>1571</ele>
        <time>2019-05-05T15:39:29Z</time>
      </trkpt>
      <trkpt lat="46.14945" lon="5.8647">
        <ele>1571</ele>
        <time>2019-05-05T15:39:30Z</time>
      </trkpt>
      <trkpt lat="46.14946" lon="5.86471">
        <ele>1571</ele>
        <time>2019-05-05T15:39:31Z</time>
      </trkpt>
      <trkpt lat="46.14946" lon="5.86476">
        <ele>1571</ele>
        <time>2019-05-05T15:39:33Z</time>
      </trkpt>
      <trkpt lat="46.14946" lon="5.86477">
        <ele>1571</ele>
        <time>2019-05-05T15:39:33Z</time>
      </trkpt>
      <trkpt lat="46.14945" lon="5.86478">
        <ele>1571</ele>
        <time>2019-05-05T15:39:34Z</time>
      </trkpt>
      <trkpt lat="46.14945" lon="5.86479">
        <ele>1571</ele>
        <time>2019-05-05T15:39:35Z</time>
      </trkpt>
      <trkpt lat="46.14945" lon="5.86481">
        <ele>1571</ele>
        <time>2019-05-05T15:39:36Z</time>
      </trkpt>
      <trkpt lat="46.14944" lon="5.86483">
        <ele>1570</ele>
        <time>2019-05-05T15:39:37Z</time>
      </trkpt>
      <trkpt lat="46.14946" lon="5.86485">
        <ele>1570</ele>
        <time>2019-05-05T15:39:38Z</time>
      </trkpt>
      <trkpt lat="46.14947" lon="5.86487">
        <ele>1571</ele>
        <time>2019-05-05T15:39:40Z</time>
      </trkpt>
      <trkpt lat="46.14946" lon="5.86489">
        <ele>1570</ele>
        <time>2019-05-05T15:39:41Z</time>
      </trkpt>
      <trkpt lat="46.14944" lon="5.86491">
        <ele>1570</ele>
        <time>2019-05-05T15:39:43Z</time>
      </trkpt>
      <trkpt lat="46.14942" lon="5.8649">
        <ele>1569</ele>
        <time>2019-05-05T15:39:45Z</time>
      </trkpt>
      <trkpt lat="46.14936" lon="5.86492">
        <ele>1568</ele>
        <time>2019-05-05T15:39:49Z</time>
      </trkpt>
      <trkpt lat="46.14933" lon="5.86492">
        <ele>1568</ele>
        <time>2019-05-05T15:39:51Z</time>
      </trkpt>
      <trkpt lat="46.14933" lon="5.86492">
        <ele>1567</ele>
        <time>2019-05-05T15:39:52Z</time>
      </trkpt>
      <trkpt lat="46.14932" lon="5.86493">
        <ele>1567</ele>
        <time>2019-05-05T15:39:52Z</time>
      </trkpt>
      <trkpt lat="46.14931" lon="5.86493">
        <ele>1567</ele>
        <time>2019-05-05T15:39:53Z</time>
      </trkpt>
      <trkpt lat="46.1493" lon="5.86497">
        <ele>1567</ele>
        <time>2019-05-05T15:39:55Z</time>
      </trkpt>
      <trkpt lat="46.14931" lon="5.86499">
        <ele>1567</ele>
        <time>2019-05-05T15:39:56Z</time>
      </trkpt>
      <trkpt lat="46.14931" lon="5.86504">
        <ele>1566</ele>
        <time>2019-05-05T15:39:59Z</time>
      </trkpt>
      <trkpt lat="46.1493" lon="5.86506">
        <ele>1566</ele>
        <time>2019-05-05T15:40:00Z</time>
      </trkpt>
      <trkpt lat="46.14929" lon="5.86508">
        <ele>1566</ele>
        <time>2019-05-05T15:40:01Z</time>
      </trkpt>
      <trkpt lat="46.14928" lon="5.8651">
        <ele>1566</ele>
        <time>2019-05-05T15:40:03Z</time>
      </trkpt>
      <trkpt lat="46.14926" lon="5.86514">
        <ele>1565</ele>
        <time>2019-05-05T15:40:05Z</time>
      </trkpt>
      <trkpt lat="46.14924" lon="5.86518">
        <ele>1564</ele>
        <time>2019-05-05T15:40:08Z</time>
      </trkpt>
      <trkpt lat="46.14922" lon="5.86523">
        <ele>1563</ele>
        <time>2019-05-05T15:40:11Z</time>
      </trkpt>
      <trkpt lat="46.14919" lon="5.86531">
        <ele>1561</ele>
        <time>2019-05-05T15:40:15Z</time>
      </trkpt>
      <trkpt lat="46.14916" lon="5.86538">
        <ele>1559</ele>
        <time>2019-05-05T15:40:20Z</time>
      </trkpt>
      <trkpt lat="46.14913" lon="5.86545">
        <ele>1558</ele>
        <time>2019-05-05T15:40:24Z</time>
      </trkpt>
      <trkpt lat="46.14911" lon="5.8655">
        <ele>1557</ele>
        <time>2019-05-05T15:40:27Z</time>
      </trkpt>
      <trkpt lat="46.14909" lon="5.86565">
        <ele>1555</ele>
        <time>2019-05-05T15:40:35Z</time>
      </trkpt>
      <trkpt lat="46.14908" lon="5.86568">
        <ele>1554</ele>
        <time>2019-05-05T15:40:36Z</time>
      </trkpt>
      <trkpt lat="46.14907" lon="5.86574">
        <ele>1553</ele>
        <time>2019-05-05T15:40:40Z</time>
      </trkpt>
      <trkpt lat="46.14902" lon="5.86587">
        <ele>1551</ele>
        <time>2019-05-05T15:40:47Z</time>
      </trkpt>
      <trkpt lat="46.14899" lon="5.86594">
        <ele>1550</ele>
        <time>2019-05-05T15:40:51Z</time>
      </trkpt>
      <trkpt lat="46.14892" lon="5.8661">
        <ele>1548</ele>
        <time>2019-05-05T15:41:01Z</time>
      </trkpt>
      <trkpt lat="46.14888" lon="5.86622">
        <ele>1547</ele>
        <time>2019-05-05T15:41:07Z</time>
      </trkpt>
      <trkpt lat="46.14885" lon="5.86633">
        <ele>1546</ele>
        <time>2019-05-05T15:41:13Z</time>
      </trkpt>
      <trkpt lat="46.14882" lon="5.86642">
        <ele>1545</ele>
        <time>2019-05-05T15:41:19Z</time>
      </trkpt>
      <trkpt lat="46.14877" lon="5.86648">
        <ele>1545</ele>
        <time>2019-05-05T15:41:23Z</time>
      </trkpt>
      <trkpt lat="46.14874" lon="5.86649">
        <ele>1545</ele>
        <time>2019-05-05T15:41:25Z</time>
      </trkpt>
      <trkpt lat="46.14868" lon="5.86651">
        <ele>1545</ele>
        <time>2019-05-05T15:41:30Z</time>
      </trkpt>
      <trkpt lat="46.14864" lon="5.86658">
        <ele>1545</ele>
        <time>2019-05-05T15:41:34Z</time>
      </trkpt>
      <trkpt lat="46.14863" lon="5.8666">
        <ele>1545</ele>
        <time>2019-05-05T15:41:35Z</time>
      </trkpt>
      <trkpt lat="46.14862" lon="5.86661">
        <ele>1545</ele>
        <time>2019-05-05T15:41:36Z</time>
      </trkpt>
      <trkpt lat="46.14861" lon="5.86662">
        <ele>1545</ele>
        <time>2019-05-05T15:41:37Z</time>
      </trkpt>
      <trkpt lat="46.1486" lon="5.86664">
        <ele>1545</ele>
        <time>2019-05-05T15:41:39Z</time>
      </trkpt>
      <trkpt lat="46.14857" lon="5.86671">
        <ele>1546</ele>
        <time>2019-05-05T15:41:43Z</time>
      </trkpt>
      <trkpt lat="46.14854" lon="5.86675">
        <ele>1546</ele>
        <time>2019-05-05T15:41:45Z</time>
      </trkpt>
      <trkpt lat="46.1485" lon="5.86679">
        <ele>1546</ele>
        <time>2019-05-05T15:41:49Z</time>
      </trkpt>
      <trkpt lat="46.14847" lon="5.86685">
        <ele>1547</ele>
        <time>2019-05-05T15:41:53Z</time>
      </trkpt>
      <trkpt lat="46.14845" lon="5.86692">
        <ele>1546</ele>
        <time>2019-05-05T15:41:56Z</time>
      </trkpt>
      <trkpt lat="46.14844" lon="5.86698">
        <ele>1546</ele>
        <time>2019-05-05T15:41:59Z</time>
      </trkpt>
      <trkpt lat="46.14843" lon="5.86701">
        <ele>1546</ele>
        <time>2019-05-05T15:42:01Z</time>
      </trkpt>
      <trkpt lat="46.1484" lon="5.86719">
        <ele>1546</ele>
        <time>2019-05-05T15:42:11Z</time>
      </trkpt>
      <trkpt lat="46.14831" lon="5.86744">
        <ele>1546</ele>
        <time>2019-05-05T15:42:25Z</time>
      </trkpt>
      <trkpt lat="46.14828" lon="5.86753">
        <ele>1545</ele>
        <time>2019-05-05T15:42:30Z</time>
      </trkpt>
      <trkpt lat="46.14826" lon="5.86758">
        <ele>1545</ele>
        <time>2019-05-05T15:42:32Z</time>
      </trkpt>
      <trkpt lat="46.14814" lon="5.86778">
        <ele>1545</ele>
        <time>2019-05-05T15:42:46Z</time>
      </trkpt>
      <trkpt lat="46.14801" lon="5.86796">
        <ele>1545</ele>
        <time>2019-05-05T15:42:59Z</time>
      </trkpt>
      <trkpt lat="46.14794" lon="5.86799">
        <ele>1545</ele>
        <time>2019-05-05T15:43:04Z</time>
      </trkpt>
      <trkpt lat="46.14781" lon="5.86804">
        <ele>1545</ele>
        <time>2019-05-05T15:43:14Z</time>
      </trkpt>
      <trkpt lat="46.14775" lon="5.86808">
        <ele>1545</ele>
        <time>2019-05-05T15:43:19Z</time>
      </trkpt>
      <trkpt lat="46.14758" lon="5.86819">
        <ele>1544</ele>
        <time>2019-05-05T15:43:32Z</time>
      </trkpt>
      <trkpt lat="46.1475" lon="5.86825">
        <ele>1543</ele>
        <time>2019-05-05T15:43:39Z</time>
      </trkpt>
      <trkpt lat="46.14733" lon="5.86815">
        <ele>1546</ele>
        <time>2019-05-05T15:43:52Z</time>
      </trkpt>
      <trkpt lat="46.14725" lon="5.86815">
        <ele>1546</ele>
        <time>2019-05-05T15:43:58Z</time>
      </trkpt>
      <trkpt lat="46.14722" lon="5.86814">
        <ele>1547</ele>
        <time>2019-05-05T15:44:00Z</time>
      </trkpt>
      <trkpt lat="46.14712" lon="5.86811">
        <ele>1548</ele>
        <time>2019-05-05T15:44:08Z</time>
      </trkpt>
      <trkpt lat="46.14707" lon="5.86811">
        <ele>1548</ele>
        <time>2019-05-05T15:44:11Z</time>
      </trkpt>
      <trkpt lat="46.14689" lon="5.86815">
        <ele>1548</ele>
        <time>2019-05-05T15:44:24Z</time>
      </trkpt>
      <trkpt lat="46.14684" lon="5.8681">
        <ele>1549</ele>
        <time>2019-05-05T15:44:29Z</time>
      </trkpt>
      <trkpt lat="46.14683" lon="5.86808">
        <ele>1550</ele>
        <time>2019-05-05T15:44:30Z</time>
      </trkpt>
      <trkpt lat="46.14683" lon="5.86808">
        <ele>1550</ele>
        <time>2019-05-05T15:44:30Z</time>
      </trkpt>
      <trkpt lat="46.14683" lon="5.86809">
        <ele>1550</ele>
        <time>2019-05-05T15:44:31Z</time>
      </trkpt>
      <trkpt lat="46.1468" lon="5.86812">
        <ele>1549</ele>
        <time>2019-05-05T15:44:33Z</time>
      </trkpt>
      <trkpt lat="46.14676" lon="5.86815">
        <ele>1548</ele>
        <time>2019-05-05T15:44:36Z</time>
      </trkpt>
      <trkpt lat="46.1467" lon="5.86822">
        <ele>1547</ele>
        <time>2019-05-05T15:44:42Z</time>
      </trkpt>
      <trkpt lat="46.14668" lon="5.86822">
        <ele>1547</ele>
        <time>2019-05-05T15:44:44Z</time>
      </trkpt>
      <trkpt lat="46.14664" lon="5.86823">
        <ele>1547</ele>
        <time>2019-05-05T15:44:46Z</time>
      </trkpt>
      <trkpt lat="46.14655" lon="5.8682">
        <ele>1548</ele>
        <time>2019-05-05T15:44:53Z</time>
      </trkpt>
      <trkpt lat="46.14653" lon="5.8682">
        <ele>1548</ele>
        <time>2019-05-05T15:44:55Z</time>
      </trkpt>
      <trkpt lat="46.1465" lon="5.8682">
        <ele>1548</ele>
        <time>2019-05-05T15:44:57Z</time>
      </trkpt>
      <trkpt lat="46.14648" lon="5.8682">
        <ele>1548</ele>
        <time>2019-05-05T15:44:58Z</time>
      </trkpt>
      <trkpt lat="46.14646" lon="5.86818">
        <ele>1549</ele>
        <time>2019-05-05T15:45:00Z</time>
      </trkpt>
      <trkpt lat="46.14643" lon="5.86814">
        <ele>1550</ele>
        <time>2019-05-05T15:45:03Z</time>
      </trkpt>
      <trkpt lat="46.14642" lon="5.86814">
        <ele>1550</ele>
        <time>2019-05-05T15:45:04Z</time>
      </trkpt>
      <trkpt lat="46.14636" lon="5.86812">
        <ele>1551</ele>
        <time>2019-05-05T15:45:09Z</time>
      </trkpt>
      <trkpt lat="46.14631" lon="5.86817">
        <ele>1550</ele>
        <time>2019-05-05T15:45:12Z</time>
      </trkpt>
      <trkpt lat="46.1463" lon="5.86817">
        <ele>1550</ele>
        <time>2019-05-05T15:45:14Z</time>
      </trkpt>
      <trkpt lat="46.14628" lon="5.86819">
        <ele>1549</ele>
        <time>2019-05-05T15:45:15Z</time>
      </trkpt>
      <trkpt lat="46.14627" lon="5.86821">
        <ele>1549</ele>
        <time>2019-05-05T15:45:17Z</time>
      </trkpt>
      <trkpt lat="46.14622" lon="5.86824">
        <ele>1548</ele>
        <time>2019-05-05T15:45:20Z</time>
      </trkpt>
      <trkpt lat="46.14605" lon="5.86831">
        <ele>1547</ele>
        <time>2019-05-05T15:45:33Z</time>
      </trkpt>
      <trkpt lat="46.14603" lon="5.86832">
        <ele>1547</ele>
        <time>2019-05-05T15:45:35Z</time>
      </trkpt>
      <trkpt lat="46.14601" lon="5.86834">
        <ele>1547</ele>
        <time>2019-05-05T15:45:36Z</time>
      </trkpt>
      <trkpt lat="46.14592" lon="5.86837">
        <ele>1546</ele>
        <time>2019-05-05T15:45:43Z</time>
      </trkpt>
      <trkpt lat="46.14586" lon="5.86837">
        <ele>1546</ele>
        <time>2019-05-05T15:45:47Z</time>
      </trkpt>
      <trkpt lat="46.14583" lon="5.86838">
        <ele>1546</ele>
        <time>2019-05-05T15:45:49Z</time>
      </trkpt>
      <trkpt lat="46.14579" lon="5.86839">
        <ele>1546</ele>
        <time>2019-05-05T15:45:53Z</time>
      </trkpt>
      <trkpt lat="46.14576" lon="5.86839">
        <ele>1546</ele>
        <time>2019-05-05T15:45:55Z</time>
      </trkpt>
      <trkpt lat="46.14557" lon="5.86832">
        <ele>1546</ele>
        <time>2019-05-05T15:46:09Z</time>
      </trkpt>
      <trkpt lat="46.14549" lon="5.8683">
        <ele>1547</ele>
        <time>2019-05-05T15:46:15Z</time>
      </trkpt>
      <trkpt lat="46.14547" lon="5.86829">
        <ele>1547</ele>
        <time>2019-05-05T15:46:16Z</time>
      </trkpt>
      <trkpt lat="46.14528" lon="5.86821">
        <ele>1548</ele>
        <time>2019-05-05T15:46:31Z</time>
      </trkpt>
      <trkpt lat="46.14522" lon="5.8682">
        <ele>1548</ele>
        <time>2019-05-05T15:46:35Z</time>
      </trkpt>
      <trkpt lat="46.1451" lon="5.86813">
        <ele>1548</ele>
        <time>2019-05-05T15:46:44Z</time>
      </trkpt>
      <trkpt lat="46.14491" lon="5.86806">
        <ele>1548</ele>
        <time>2019-05-05T15:46:58Z</time>
      </trkpt>
      <trkpt lat="46.14488" lon="5.86805">
        <ele>1547</ele>
        <time>2019-05-05T15:47:01Z</time>
      </trkpt>
      <trkpt lat="46.14474" lon="5.86797">
        <ele>1547</ele>
        <time>2019-05-05T15:47:11Z</time>
      </trkpt>
      <trkpt lat="46.1447" lon="5.86796">
        <ele>1547</ele>
        <time>2019-05-05T15:47:15Z</time>
      </trkpt>
      <trkpt lat="46.14469" lon="5.86795">
        <ele>1546</ele>
        <time>2019-05-05T15:47:16Z</time>
      </trkpt>
      <trkpt lat="46.14465" lon="5.86792">
        <ele>1546</ele>
        <time>2019-05-05T15:47:18Z</time>
      </trkpt>
      <trkpt lat="46.14458" lon="5.86789">
        <ele>1546</ele>
        <time>2019-05-05T15:47:24Z</time>
      </trkpt>
      <trkpt lat="46.14447" lon="5.86786">
        <ele>1544</ele>
        <time>2019-05-05T15:47:32Z</time>
      </trkpt>
      <trkpt lat="46.14445" lon="5.86785">
        <ele>1544</ele>
        <time>2019-05-05T15:47:34Z</time>
      </trkpt>
      <trkpt lat="46.1444" lon="5.86779">
        <ele>1544</ele>
        <time>2019-05-05T15:47:39Z</time>
      </trkpt>
      <trkpt lat="46.14429" lon="5.86776">
        <ele>1543</ele>
        <time>2019-05-05T15:47:46Z</time>
      </trkpt>
      <trkpt lat="46.14422" lon="5.86772">
        <ele>1542</ele>
        <time>2019-05-05T15:47:52Z</time>
      </trkpt>
      <trkpt lat="46.14421" lon="5.86772">
        <ele>1542</ele>
        <time>2019-05-05T15:47:53Z</time>
      </trkpt>
      <trkpt lat="46.14409" lon="5.86767">
        <ele>1541</ele>
        <time>2019-05-05T15:48:02Z</time>
      </trkpt>
      <trkpt lat="46.14398" lon="5.86765">
        <ele>1540</ele>
        <time>2019-05-05T15:48:10Z</time>
      </trkpt>
      <trkpt lat="46.14393" lon="5.86764">
        <ele>1539</ele>
        <time>2019-05-05T15:48:13Z</time>
      </trkpt>
      <trkpt lat="46.14389" lon="5.86763">
        <ele>1539</ele>
        <time>2019-05-05T15:48:16Z</time>
      </trkpt>
      <trkpt lat="46.14385" lon="5.86762">
        <ele>1539</ele>
        <time>2019-05-05T15:48:19Z</time>
      </trkpt>
      <trkpt lat="46.14373" lon="5.86758">
        <ele>1538</ele>
        <time>2019-05-05T15:48:28Z</time>
      </trkpt>
      <trkpt lat="46.14368" lon="5.86758">
        <ele>1537</ele>
        <time>2019-05-05T15:48:32Z</time>
      </trkpt>
      <trkpt lat="46.14362" lon="5.86756">
        <ele>1536</ele>
        <time>2019-05-05T15:48:37Z</time>
      </trkpt>
      <trkpt lat="46.14356" lon="5.86754">
        <ele>1536</ele>
        <time>2019-05-05T15:48:41Z</time>
      </trkpt>
      <trkpt lat="46.14339" lon="5.86743">
        <ele>1534</ele>
        <time>2019-05-05T15:48:54Z</time>
      </trkpt>
      <trkpt lat="46.14338" lon="5.86743">
        <ele>1533</ele>
        <time>2019-05-05T15:48:56Z</time>
      </trkpt>
      <trkpt lat="46.14332" lon="5.86742">
        <ele>1533</ele>
        <time>2019-05-05T15:49:00Z</time>
      </trkpt>
      <trkpt lat="46.14329" lon="5.86742">
        <ele>1532</ele>
        <time>2019-05-05T15:49:02Z</time>
      </trkpt>
      <trkpt lat="46.14326" lon="5.86742">
        <ele>1532</ele>
        <time>2019-05-05T15:49:04Z</time>
      </trkpt>
      <trkpt lat="46.14319" lon="5.86744">
        <ele>1531</ele>
        <time>2019-05-05T15:49:09Z</time>
      </trkpt>
      <trkpt lat="46.14312" lon="5.86744">
        <ele>1531</ele>
        <time>2019-05-05T15:49:14Z</time>
      </trkpt>
      <trkpt lat="46.14307" lon="5.86743">
        <ele>1530</ele>
        <time>2019-05-05T15:49:18Z</time>
      </trkpt>
      <trkpt lat="46.14301" lon="5.86741">
        <ele>1529</ele>
        <time>2019-05-05T15:49:22Z</time>
      </trkpt>
      <trkpt lat="46.14297" lon="5.86739">
        <ele>1529</ele>
        <time>2019-05-05T15:49:25Z</time>
      </trkpt>
      <trkpt lat="46.14295" lon="5.86738">
        <ele>1528</ele>
        <time>2019-05-05T15:49:27Z</time>
      </trkpt>
      <trkpt lat="46.14285" lon="5.86744">
        <ele>1528</ele>
        <time>2019-05-05T15:49:35Z</time>
      </trkpt>
      <trkpt lat="46.14281" lon="5.86746">
        <ele>1528</ele>
        <time>2019-05-05T15:49:38Z</time>
      </trkpt>
      <trkpt lat="46.14277" lon="5.86746">
        <ele>1527</ele>
        <time>2019-05-05T15:49:41Z</time>
      </trkpt>
      <trkpt lat="46.14274" lon="5.86747">
        <ele>1527</ele>
        <time>2019-05-05T15:49:44Z</time>
      </trkpt>
      <trkpt lat="46.14268" lon="5.86747">
        <ele>1526</ele>
        <time>2019-05-05T15:49:48Z</time>
      </trkpt>
      <trkpt lat="46.14249" lon="5.86744">
        <ele>1524</ele>
        <time>2019-05-05T15:50:02Z</time>
      </trkpt>
      <trkpt lat="46.14242" lon="5.86744">
        <ele>1524</ele>
        <time>2019-05-05T15:50:07Z</time>
      </trkpt>
      <trkpt lat="46.14237" lon="5.86743">
        <ele>1523</ele>
        <time>2019-05-05T15:50:10Z</time>
      </trkpt>
      <trkpt lat="46.14231" lon="5.8674">
        <ele>1522</ele>
        <time>2019-05-05T15:50:15Z</time>
      </trkpt>
      <trkpt lat="46.14225" lon="5.8673">
        <ele>1521</ele>
        <time>2019-05-05T15:50:22Z</time>
      </trkpt>
      <trkpt lat="46.14217" lon="5.86724">
        <ele>1520</ele>
        <time>2019-05-05T15:50:28Z</time>
      </trkpt>
      <trkpt lat="46.14213" lon="5.86725">
        <ele>1519</ele>
        <time>2019-05-05T15:50:31Z</time>
      </trkpt>
      <trkpt lat="46.14206" lon="5.86722">
        <ele>1519</ele>
        <time>2019-05-05T15:50:36Z</time>
      </trkpt>
      <trkpt lat="46.14203" lon="5.8672">
        <ele>1518</ele>
        <time>2019-05-05T15:50:39Z</time>
      </trkpt>
      <trkpt lat="46.14201" lon="5.86719">
        <ele>1518</ele>
        <time>2019-05-05T15:50:41Z</time>
      </trkpt>
      <trkpt lat="46.14199" lon="5.86717">
        <ele>1518</ele>
        <time>2019-05-05T15:50:42Z</time>
      </trkpt>
      <trkpt lat="46.14197" lon="5.86716">
        <ele>1517</ele>
        <time>2019-05-05T15:50:44Z</time>
      </trkpt>
      <trkpt lat="46.14194" lon="5.86714">
        <ele>1517</ele>
        <time>2019-05-05T15:50:46Z</time>
      </trkpt>
      <trkpt lat="46.14192" lon="5.86713">
        <ele>1517</ele>
        <time>2019-05-05T15:50:48Z</time>
      </trkpt>
      <trkpt lat="46.14191" lon="5.86714">
        <ele>1517</ele>
        <time>2019-05-05T15:50:49Z</time>
      </trkpt>
      <trkpt lat="46.14174" lon="5.86704">
        <ele>1516</ele>
        <time>2019-05-05T15:51:02Z</time>
      </trkpt>
      <trkpt lat="46.14172" lon="5.86702">
        <ele>1516</ele>
        <time>2019-05-05T15:51:03Z</time>
      </trkpt>
      <trkpt lat="46.14169" lon="5.86698">
        <ele>1516</ele>
        <time>2019-05-05T15:51:06Z</time>
      </trkpt>
      <trkpt lat="46.14166" lon="5.86693">
        <ele>1515</ele>
        <time>2019-05-05T15:51:10Z</time>
      </trkpt>
      <trkpt lat="46.14162" lon="5.86673">
        <ele>1514</ele>
        <time>2019-05-05T15:51:20Z</time>
      </trkpt>
      <trkpt lat="46.14156" lon="5.86652">
        <ele>1513</ele>
        <time>2019-05-05T15:51:32Z</time>
      </trkpt>
      <trkpt lat="46.14153" lon="5.8665">
        <ele>1513</ele>
        <time>2019-05-05T15:51:34Z</time>
      </trkpt>
      <trkpt lat="46.1415" lon="5.8665">
        <ele>1513</ele>
        <time>2019-05-05T15:51:36Z</time>
      </trkpt>
      <trkpt lat="46.14149" lon="5.8665">
        <ele>1513</ele>
        <time>2019-05-05T15:51:37Z</time>
      </trkpt>
      <trkpt lat="46.14138" lon="5.86643">
        <ele>1513</ele>
        <time>2019-05-05T15:51:46Z</time>
      </trkpt>
      <trkpt lat="46.14128" lon="5.86634">
        <ele>1513</ele>
        <time>2019-05-05T15:51:54Z</time>
      </trkpt>
      <trkpt lat="46.14117" lon="5.86623">
        <ele>1514</ele>
        <time>2019-05-05T15:52:04Z</time>
      </trkpt>
      <trkpt lat="46.14107" lon="5.86615">
        <ele>1514</ele>
        <time>2019-05-05T15:52:12Z</time>
      </trkpt>
      <trkpt lat="46.1409" lon="5.86604">
        <ele>1515</ele>
        <time>2019-05-05T15:52:25Z</time>
      </trkpt>
      <trkpt lat="46.14076" lon="5.86593">
        <ele>1514</ele>
        <time>2019-05-05T15:52:37Z</time>
      </trkpt>
      <trkpt lat="46.14072" lon="5.86587">
        <ele>1514</ele>
        <time>2019-05-05T15:52:41Z</time>
      </trkpt>
      <trkpt lat="46.14067" lon="5.86578">
        <ele>1513</ele>
        <time>2019-05-05T15:52:47Z</time>
      </trkpt>
      <trkpt lat="46.14067" lon="5.86578">
        <ele>1513</ele>
        <time>2019-05-05T15:52:47Z</time>
      </trkpt>
      <trkpt lat="46.14062" lon="5.86573">
        <ele>1513</ele>
        <time>2019-05-05T15:52:52Z</time>
      </trkpt>
      <trkpt lat="46.14045" lon="5.86561">
        <ele>1513</ele>
        <time>2019-05-05T15:53:06Z</time>
      </trkpt>
      <trkpt lat="46.14028" lon="5.86558">
        <ele>1513</ele>
        <time>2019-05-05T15:53:18Z</time>
      </trkpt>
      <trkpt lat="46.14022" lon="5.8656">
        <ele>1513</ele>
        <time>2019-05-05T15:53:23Z</time>
      </trkpt>
      <trkpt lat="46.14016" lon="5.86562">
        <ele>1513</ele>
        <time>2019-05-05T15:53:27Z</time>
      </trkpt>
      <trkpt lat="46.14007" lon="5.86568">
        <ele>1514</ele>
        <time>2019-05-05T15:53:34Z</time>
      </trkpt>
      <trkpt lat="46.14002" lon="5.86567">
        <ele>1514</ele>
        <time>2019-05-05T15:53:37Z</time>
      </trkpt>
      <trkpt lat="46.13993" lon="5.86568">
        <ele>1514</ele>
        <time>2019-05-05T15:53:44Z</time>
      </trkpt>
      <trkpt lat="46.13982" lon="5.86561">
        <ele>1513</ele>
        <time>2019-05-05T15:53:53Z</time>
      </trkpt>
      <trkpt lat="46.13978" lon="5.86559">
        <ele>1513</ele>
        <time>2019-05-05T15:53:56Z</time>
      </trkpt>
      <trkpt lat="46.13975" lon="5.86558">
        <ele>1513</ele>
        <time>2019-05-05T15:53:58Z</time>
      </trkpt>
      <trkpt lat="46.1396" lon="5.8655">
        <ele>1512</ele>
        <time>2019-05-05T15:54:10Z</time>
      </trkpt>
      <trkpt lat="46.13953" lon="5.86545">
        <ele>1511</ele>
        <time>2019-05-05T15:54:15Z</time>
      </trkpt>
      <trkpt lat="46.13949" lon="5.86541">
        <ele>1510</ele>
        <time>2019-05-05T15:54:19Z</time>
      </trkpt>
      <trkpt lat="46.13944" lon="5.86535">
        <ele>1510</ele>
        <time>2019-05-05T15:54:24Z</time>
      </trkpt>
      <trkpt lat="46.13935" lon="5.8653">
        <ele>1509</ele>
        <time>2019-05-05T15:54:30Z</time>
      </trkpt>
      <trkpt lat="46.13924" lon="5.86524">
        <ele>1507</ele>
        <time>2019-05-05T15:54:39Z</time>
      </trkpt>
      <trkpt lat="46.1391" lon="5.86518">
        <ele>1506</ele>
        <time>2019-05-05T15:54:50Z</time>
      </trkpt>
      <trkpt lat="46.1391" lon="5.86518">
        <ele>1506</ele>
        <time>2019-05-05T15:54:50Z</time>
      </trkpt>
      <trkpt lat="46.1391" lon="5.86518">
        <ele>1506</ele>
        <time>2019-05-05T15:54:50Z</time>
      </trkpt>
      <trkpt lat="46.1391" lon="5.86518">
        <ele>1506</ele>
        <time>2019-05-05T15:54:50Z</time>
      </trkpt>
      <trkpt lat="46.13906" lon="5.86517">
        <ele>1505</ele>
        <time>2019-05-05T15:54:53Z</time>
      </trkpt>
      <trkpt lat="46.13892" lon="5.86509">
        <ele>1504</ele>
        <time>2019-05-05T15:55:04Z</time>
      </trkpt>
      <trkpt lat="46.13882" lon="5.86505">
        <ele>1503</ele>
        <time>2019-05-05T15:55:12Z</time>
      </trkpt>
      <trkpt lat="46.13872" lon="5.86501">
        <ele>1501</ele>
        <time>2019-05-05T15:55:19Z</time>
      </trkpt>
      <trkpt lat="46.13854" lon="5.86489">
        <ele>1499</ele>
        <time>2019-05-05T15:55:34Z</time>
      </trkpt>
      <trkpt lat="46.13841" lon="5.86474">
        <ele>1496</ele>
        <time>2019-05-05T15:55:46Z</time>
      </trkpt>
      <trkpt lat="46.13837" lon="5.8647">
        <ele>1495</ele>
        <time>2019-05-05T15:55:50Z</time>
      </trkpt>
      <trkpt lat="46.13836" lon="5.86468">
        <ele>1495</ele>
        <time>2019-05-05T15:55:51Z</time>
      </trkpt>
      <trkpt lat="46.13836" lon="5.86468">
        <ele>1495</ele>
        <time>2019-05-05T15:55:51Z</time>
      </trkpt>
      <trkpt lat="46.13834" lon="5.86466">
        <ele>1494</ele>
        <time>2019-05-05T15:55:53Z</time>
      </trkpt>
      <trkpt lat="46.13832" lon="5.86465">
        <ele>1494</ele>
        <time>2019-05-05T15:55:54Z</time>
      </trkpt>
      <trkpt lat="46.1383" lon="5.86463">
        <ele>1494</ele>
        <time>2019-05-05T15:55:56Z</time>
      </trkpt>
      <trkpt lat="46.13829" lon="5.86462">
        <ele>1493</ele>
        <time>2019-05-05T15:55:57Z</time>
      </trkpt>
      <trkpt lat="46.13828" lon="5.86461">
        <ele>1493</ele>
        <time>2019-05-05T15:55:58Z</time>
      </trkpt>
      <trkpt lat="46.13821" lon="5.86455">
        <ele>1491</ele>
        <time>2019-05-05T15:56:04Z</time>
      </trkpt>
      <trkpt lat="46.13818" lon="5.86449">
        <ele>1490</ele>
        <time>2019-05-05T15:56:08Z</time>
      </trkpt>
      <trkpt lat="46.13816" lon="5.86446">
        <ele>1490</ele>
        <time>2019-05-05T15:56:10Z</time>
      </trkpt>
      <trkpt lat="46.13816" lon="5.86445">
        <ele>1489</ele>
        <time>2019-05-05T15:56:11Z</time>
      </trkpt>
      <trkpt lat="46.13813" lon="5.86444">
        <ele>1489</ele>
        <time>2019-05-05T15:56:13Z</time>
      </trkpt>
      <trkpt lat="46.13809" lon="5.86442">
        <ele>1488</ele>
        <time>2019-05-05T15:56:16Z</time>
      </trkpt>
      <trkpt lat="46.13805" lon="5.86441">
        <ele>1487</ele>
        <time>2019-05-05T15:56:19Z</time>
      </trkpt>
      <trkpt lat="46.13799" lon="5.86438">
        <ele>1486</ele>
        <time>2019-05-05T15:56:24Z</time>
      </trkpt>
      <trkpt lat="46.1379" lon="5.86437">
        <ele>1484</ele>
        <time>2019-05-05T15:56:30Z</time>
      </trkpt>
      <trkpt lat="46.13785" lon="5.86437">
        <ele>1484</ele>
        <time>2019-05-05T15:56:34Z</time>
      </trkpt>
      <trkpt lat="46.1378" lon="5.86436">
        <ele>1483</ele>
        <time>2019-05-05T15:56:37Z</time>
      </trkpt>
      <trkpt lat="46.13761" lon="5.86442">
        <ele>1481</ele>
        <time>2019-05-05T15:56:51Z</time>
      </trkpt>
      <trkpt lat="46.13755" lon="5.86445">
        <ele>1480</ele>
        <time>2019-05-05T15:56:56Z</time>
      </trkpt>
      <trkpt lat="46.13751" lon="5.86446">
        <ele>1480</ele>
        <time>2019-05-05T15:56:59Z</time>
      </trkpt>
      <trkpt lat="46.13745" lon="5.86445">
        <ele>1478</ele>
        <time>2019-05-05T15:57:04Z</time>
      </trkpt>
      <trkpt lat="46.13739" lon="5.86444">
        <ele>1477</ele>
        <time>2019-05-05T15:57:08Z</time>
      </trkpt>
      <trkpt lat="46.13736" lon="5.86443">
        <ele>1476</ele>
        <time>2019-05-05T15:57:10Z</time>
      </trkpt>
      <trkpt lat="46.13731" lon="5.86442">
        <ele>1475</ele>
        <time>2019-05-05T15:57:14Z</time>
      </trkpt>
      <trkpt lat="46.1373" lon="5.86442">
        <ele>1475</ele>
        <time>2019-05-05T15:57:15Z</time>
      </trkpt>
      <trkpt lat="46.13725" lon="5.86441">
        <ele>1474</ele>
        <time>2019-05-05T15:57:18Z</time>
      </trkpt>
      <trkpt lat="46.13724" lon="5.8644">
        <ele>1473</ele>
        <time>2019-05-05T15:57:19Z</time>
      </trkpt>
      <trkpt lat="46.13721" lon="5.8644">
        <ele>1473</ele>
        <time>2019-05-05T15:57:22Z</time>
      </trkpt>
      <trkpt lat="46.13716" lon="5.86441">
        <ele>1472</ele>
        <time>2019-05-05T15:57:25Z</time>
      </trkpt>
      <trkpt lat="46.13715" lon="5.86441">
        <ele>1471</ele>
        <time>2019-05-05T15:57:26Z</time>
      </trkpt>
      <trkpt lat="46.13708" lon="5.8644">
        <ele>1470</ele>
        <time>2019-05-05T15:57:31Z</time>
      </trkpt>
      <trkpt lat="46.13703" lon="5.86437">
        <ele>1468</ele>
        <time>2019-05-05T15:57:35Z</time>
      </trkpt>
      <trkpt lat="46.13701" lon="5.86436">
        <ele>1468</ele>
        <time>2019-05-05T15:57:37Z</time>
      </trkpt>
      <trkpt lat="46.137" lon="5.86436">
        <ele>1467</ele>
        <time>2019-05-05T15:57:38Z</time>
      </trkpt>
      <trkpt lat="46.13699" lon="5.86436">
        <ele>1467</ele>
        <time>2019-05-05T15:57:39Z</time>
      </trkpt>
      <trkpt lat="46.13698" lon="5.86435">
        <ele>1467</ele>
        <time>2019-05-05T15:57:39Z</time>
      </trkpt>
      <trkpt lat="46.13695" lon="5.86434">
        <ele>1466</ele>
        <time>2019-05-05T15:57:42Z</time>
      </trkpt>
      <trkpt lat="46.1369" lon="5.86431">
        <ele>1464</ele>
        <time>2019-05-05T15:57:46Z</time>
      </trkpt>
      <trkpt lat="46.13684" lon="5.86429">
        <ele>1462</ele>
        <time>2019-05-05T15:57:50Z</time>
      </trkpt>
      <trkpt lat="46.13672" lon="5.86422">
        <ele>1460</ele>
        <time>2019-05-05T15:58:00Z</time>
      </trkpt>
      <trkpt lat="46.13669" lon="5.86421">
        <ele>1459</ele>
        <time>2019-05-05T15:58:02Z</time>
      </trkpt>
      <trkpt lat="46.13667" lon="5.86419">
        <ele>1459</ele>
        <time>2019-05-05T15:58:04Z</time>
      </trkpt>
      <trkpt lat="46.13664" lon="5.86417">
        <ele>1458</ele>
        <time>2019-05-05T15:58:07Z</time>
      </trkpt>
      <trkpt lat="46.1366" lon="5.86413">
        <ele>1457</ele>
        <time>2019-05-05T15:58:10Z</time>
      </trkpt>
      <trkpt lat="46.13655" lon="5.8641">
        <ele>1455</ele>
        <time>2019-05-05T15:58:14Z</time>
      </trkpt>
      <trkpt lat="46.13651" lon="5.86408">
        <ele>1454</ele>
        <time>2019-05-05T15:58:17Z</time>
      </trkpt>
      <trkpt lat="46.13648" lon="5.86405">
        <ele>1453</ele>
        <time>2019-05-05T15:58:20Z</time>
      </trkpt>
      <trkpt lat="46.13638" lon="5.86395">
        <ele>1450</ele>
        <time>2019-05-05T15:58:29Z</time>
      </trkpt>
      <trkpt lat="46.13632" lon="5.86391">
        <ele>1448</ele>
        <time>2019-05-05T15:58:34Z</time>
      </trkpt>
      <trkpt lat="46.13627" lon="5.86385">
        <ele>1446</ele>
        <time>2019-05-05T15:58:39Z</time>
      </trkpt>
      <trkpt lat="46.13624" lon="5.86381">
        <ele>1444</ele>
        <time>2019-05-05T15:58:42Z</time>
      </trkpt>
      <trkpt lat="46.13621" lon="5.86377">
        <ele>1443</ele>
        <time>2019-05-05T15:58:45Z</time>
      </trkpt>
      <trkpt lat="46.13617" lon="5.86372">
        <ele>1441</ele>
        <time>2019-05-05T15:58:49Z</time>
      </trkpt>
      <trkpt lat="46.13611" lon="5.86362">
        <ele>1438</ele>
        <time>2019-05-05T15:58:56Z</time>
      </trkpt>
      <trkpt lat="46.13611" lon="5.8636">
        <ele>1437</ele>
        <time>2019-05-05T15:58:57Z</time>
      </trkpt>
      <trkpt lat="46.13613" lon="5.86358">
        <ele>1437</ele>
        <time>2019-05-05T15:58:59Z</time>
      </trkpt>
      <trkpt lat="46.13612" lon="5.86361">
        <ele>1437</ele>
        <time>2019-05-05T15:59:00Z</time>
      </trkpt>
      <trkpt lat="46.13607" lon="5.86356">
        <ele>1435</ele>
        <time>2019-05-05T15:59:05Z</time>
      </trkpt>
      <trkpt lat="46.13604" lon="5.86356">
        <ele>1434</ele>
        <time>2019-05-05T15:59:07Z</time>
      </trkpt>
      <trkpt lat="46.13601" lon="5.86355">
        <ele>1434</ele>
        <time>2019-05-05T15:59:09Z</time>
      </trkpt>
      <trkpt lat="46.13599" lon="5.86353">
        <ele>1433</ele>
        <time>2019-05-05T15:59:11Z</time>
      </trkpt>
      <trkpt lat="46.13598" lon="5.86351">
        <ele>1432</ele>
        <time>2019-05-05T15:59:13Z</time>
      </trkpt>
      <trkpt lat="46.13596" lon="5.86349">
        <ele>1431</ele>
        <time>2019-05-05T15:59:14Z</time>
      </trkpt>
      <trkpt lat="46.13595" lon="5.86349">
        <ele>1431</ele>
        <time>2019-05-05T15:59:15Z</time>
      </trkpt>
      <trkpt lat="46.13588" lon="5.86346">
        <ele>1429</ele>
        <time>2019-05-05T15:59:20Z</time>
      </trkpt>
      <trkpt lat="46.13585" lon="5.86345">
        <ele>1428</ele>
        <time>2019-05-05T15:59:23Z</time>
      </trkpt>
      <trkpt lat="46.13581" lon="5.86343">
        <ele>1427</ele>
        <time>2019-05-05T15:59:26Z</time>
      </trkpt>
      <trkpt lat="46.13578" lon="5.86341">
        <ele>1426</ele>
        <time>2019-05-05T15:59:28Z</time>
      </trkpt>
      <trkpt lat="46.13576" lon="5.86338">
        <ele>1425</ele>
        <time>2019-05-05T15:59:30Z</time>
      </trkpt>
      <trkpt lat="46.13574" lon="5.86335">
        <ele>1424</ele>
        <time>2019-05-05T15:59:33Z</time>
      </trkpt>
      <trkpt lat="46.13573" lon="5.86334">
        <ele>1424</ele>
        <time>2019-05-05T15:59:34Z</time>
      </trkpt>
      <trkpt lat="46.13571" lon="5.86333">
        <ele>1424</ele>
        <time>2019-05-05T15:59:35Z</time>
      </trkpt>
      <trkpt lat="46.1357" lon="5.86332">
        <ele>1423</ele>
        <time>2019-05-05T15:59:36Z</time>
      </trkpt>
      <trkpt lat="46.13568" lon="5.86329">
        <ele>1422</ele>
        <time>2019-05-05T15:59:38Z</time>
      </trkpt>
      <trkpt lat="46.13566" lon="5.86325">
        <ele>1421</ele>
        <time>2019-05-05T15:59:41Z</time>
      </trkpt>
      <trkpt lat="46.13565" lon="5.86323">
        <ele>1421</ele>
        <time>2019-05-05T15:59:42Z</time>
      </trkpt>
      <trkpt lat="46.13563" lon="5.86321">
        <ele>1420</ele>
        <time>2019-05-05T15:59:44Z</time>
      </trkpt>
      <trkpt lat="46.13562" lon="5.86319">
        <ele>1419</ele>
        <time>2019-05-05T15:59:45Z</time>
      </trkpt>
      <trkpt lat="46.1356" lon="5.86317">
        <ele>1419</ele>
        <time>2019-05-05T15:59:47Z</time>
      </trkpt>
      <trkpt lat="46.1356" lon="5.86316">
        <ele>1419</ele>
        <time>2019-05-05T15:59:48Z</time>
      </trkpt>
      <trkpt lat="46.1356" lon="5.86306">
        <ele>1417</ele>
        <time>2019-05-05T15:59:53Z</time>
      </trkpt>
      <trkpt lat="46.13558" lon="5.86301">
        <ele>1416</ele>
        <time>2019-05-05T15:59:56Z</time>
      </trkpt>
      <trkpt lat="46.13556" lon="5.863">
        <ele>1415</ele>
        <time>2019-05-05T15:59:57Z</time>
      </trkpt>
      <trkpt lat="46.13554" lon="5.86298">
        <ele>1414</ele>
        <time>2019-05-05T15:59:59Z</time>
      </trkpt>
      <trkpt lat="46.1355" lon="5.86295">
        <ele>1413</ele>
        <time>2019-05-05T16:00:02Z</time>
      </trkpt>
      <trkpt lat="46.13547" lon="5.86293">
        <ele>1412</ele>
        <time>2019-05-05T16:00:05Z</time>
      </trkpt>
      <trkpt lat="46.13542" lon="5.8629">
        <ele>1411</ele>
        <time>2019-05-05T16:00:09Z</time>
      </trkpt>
      <trkpt lat="46.13537" lon="5.86289">
        <ele>1410</ele>
        <time>2019-05-05T16:00:12Z</time>
      </trkpt>
      <trkpt lat="46.13529" lon="5.86292">
        <ele>1409</ele>
        <time>2019-05-05T16:00:19Z</time>
      </trkpt>
      <trkpt lat="46.13524" lon="5.86294">
        <ele>1408</ele>
        <time>2019-05-05T16:00:22Z</time>
      </trkpt>
      <trkpt lat="46.13524" lon="5.86295">
        <ele>1408</ele>
        <time>2019-05-05T16:00:23Z</time>
      </trkpt>
      <trkpt lat="46.13523" lon="5.86297">
        <ele>1408</ele>
        <time>2019-05-05T16:00:24Z</time>
      </trkpt>
      <trkpt lat="46.13522" lon="5.86296">
        <ele>1408</ele>
        <time>2019-05-05T16:00:25Z</time>
      </trkpt>
      <trkpt lat="46.13522" lon="5.863">
        <ele>1408</ele>
        <time>2019-05-05T16:00:27Z</time>
      </trkpt>
      <trkpt lat="46.13521" lon="5.86298">
        <ele>1408</ele>
        <time>2019-05-05T16:00:28Z</time>
      </trkpt>
      <trkpt lat="46.13518" lon="5.86296">
        <ele>1407</ele>
        <time>2019-05-05T16:00:30Z</time>
      </trkpt>
      <trkpt lat="46.13521" lon="5.86289">
        <ele>1406</ele>
        <time>2019-05-05T16:00:34Z</time>
      </trkpt>
      <trkpt lat="46.13527" lon="5.8628">
        <ele>1406</ele>
        <time>2019-05-05T16:00:40Z</time>
      </trkpt>
      <trkpt lat="46.13528" lon="5.86281">
        <ele>1406</ele>
        <time>2019-05-05T16:00:41Z</time>
      </trkpt>
      <trkpt lat="46.13529" lon="5.86287">
        <ele>1408</ele>
        <time>2019-05-05T16:00:44Z</time>
      </trkpt>
      <trkpt lat="46.13528" lon="5.86289">
        <ele>1408</ele>
        <time>2019-05-05T16:00:45Z</time>
      </trkpt>
      <trkpt lat="46.13526" lon="5.86294">
        <ele>1408</ele>
        <time>2019-05-05T16:00:48Z</time>
      </trkpt>
      <trkpt lat="46.13525" lon="5.86295">
        <ele>1408</ele>
        <time>2019-05-05T16:00:49Z</time>
      </trkpt>
      <trkpt lat="46.13523" lon="5.86297">
        <ele>1408</ele>
        <time>2019-05-05T16:00:51Z</time>
      </trkpt>
      <trkpt lat="46.13519" lon="5.86296">
        <ele>1407</ele>
        <time>2019-05-05T16:00:54Z</time>
      </trkpt>
      <trkpt lat="46.13518" lon="5.86292">
        <ele>1406</ele>
        <time>2019-05-05T16:00:56Z</time>
      </trkpt>
      <trkpt lat="46.13514" lon="5.8629">
        <ele>1405</ele>
        <time>2019-05-05T16:01:00Z</time>
      </trkpt>
      <trkpt lat="46.13517" lon="5.86299">
        <ele>1407</ele>
        <time>2019-05-05T16:01:05Z</time>
      </trkpt>
      <trkpt lat="46.13515" lon="5.86305">
        <ele>1407</ele>
        <time>2019-05-05T16:01:08Z</time>
      </trkpt>
      <trkpt lat="46.13509" lon="5.86313">
        <ele>1407</ele>
        <time>2019-05-05T16:01:14Z</time>
      </trkpt>
      <trkpt lat="46.13498" lon="5.86325">
        <ele>1405</ele>
        <time>2019-05-05T16:01:24Z</time>
      </trkpt>
      <trkpt lat="46.13491" lon="5.86333">
        <ele>1404</ele>
        <time>2019-05-05T16:01:30Z</time>
      </trkpt>
      <trkpt lat="46.13477" lon="5.86344">
        <ele>1402</ele>
        <time>2019-05-05T16:01:42Z</time>
      </trkpt>
      <trkpt lat="46.13474" lon="5.86346">
        <ele>1401</ele>
        <time>2019-05-05T16:01:44Z</time>
      </trkpt>
      <trkpt lat="46.13473" lon="5.86346">
        <ele>1401</ele>
        <time>2019-05-05T16:01:45Z</time>
      </trkpt>
      <trkpt lat="46.13471" lon="5.86347">
        <ele>1400</ele>
        <time>2019-05-05T16:01:47Z</time>
      </trkpt>
      <trkpt lat="46.13467" lon="5.86349">
        <ele>1400</ele>
        <time>2019-05-05T16:01:50Z</time>
      </trkpt>
      <trkpt lat="46.13464" lon="5.8635">
        <ele>1399</ele>
        <time>2019-05-05T16:01:52Z</time>
      </trkpt>
      <trkpt lat="46.13455" lon="5.86354">
        <ele>1398</ele>
        <time>2019-05-05T16:01:59Z</time>
      </trkpt>
      <trkpt lat="46.13448" lon="5.86362">
        <ele>1397</ele>
        <time>2019-05-05T16:02:06Z</time>
      </trkpt>
      <trkpt lat="46.13443" lon="5.86364">
        <ele>1397</ele>
        <time>2019-05-05T16:02:09Z</time>
      </trkpt>
      <trkpt lat="46.13433" lon="5.86369">
        <ele>1395</ele>
        <time>2019-05-05T16:02:17Z</time>
      </trkpt>
      <trkpt lat="46.13423" lon="5.86377">
        <ele>1395</ele>
        <time>2019-05-05T16:02:25Z</time>
      </trkpt>
      <trkpt lat="46.13414" lon="5.86379">
        <ele>1394</ele>
        <time>2019-05-05T16:02:32Z</time>
      </trkpt>
      <trkpt lat="46.13409" lon="5.86381">
        <ele>1393</ele>
        <time>2019-05-05T16:02:35Z</time>
      </trkpt>
      <trkpt lat="46.13397" lon="5.86385">
        <ele>1392</ele>
        <time>2019-05-05T16:02:44Z</time>
      </trkpt>
      <trkpt lat="46.13393" lon="5.86385">
        <ele>1391</ele>
        <time>2019-05-05T16:02:48Z</time>
      </trkpt>
      <trkpt lat="46.13384" lon="5.86387">
        <ele>1389</ele>
        <time>2019-05-05T16:02:54Z</time>
      </trkpt>
      <trkpt lat="46.13381" lon="5.86388">
        <ele>1389</ele>
        <time>2019-05-05T16:02:57Z</time>
      </trkpt>
      <trkpt lat="46.13377" lon="5.86389">
        <ele>1388</ele>
        <time>2019-05-05T16:02:59Z</time>
      </trkpt>
      <trkpt lat="46.13373" lon="5.86393">
        <ele>1388</ele>
        <time>2019-05-05T16:03:03Z</time>
      </trkpt>
      <trkpt lat="46.13368" lon="5.86394">
        <ele>1387</ele>
        <time>2019-05-05T16:03:07Z</time>
      </trkpt>
      <trkpt lat="46.13358" lon="5.86398">
        <ele>1386</ele>
        <time>2019-05-05T16:03:14Z</time>
      </trkpt>
      <trkpt lat="46.13351" lon="5.86399">
        <ele>1385</ele>
        <time>2019-05-05T16:03:19Z</time>
      </trkpt>
      <trkpt lat="46.13347" lon="5.86399">
        <ele>1383</ele>
        <time>2019-05-05T16:03:22Z</time>
      </trkpt>
      <trkpt lat="46.13344" lon="5.86398">
        <ele>1382</ele>
        <time>2019-05-05T16:03:25Z</time>
      </trkpt>
      <trkpt lat="46.13337" lon="5.86398">
        <ele>1380</ele>
        <time>2019-05-05T16:03:30Z</time>
      </trkpt>
      <trkpt lat="46.13326" lon="5.86398">
        <ele>1376</ele>
        <time>2019-05-05T16:03:38Z</time>
      </trkpt>
      <trkpt lat="46.13324" lon="5.864">
        <ele>1376</ele>
        <time>2019-05-05T16:03:40Z</time>
      </trkpt>
      <trkpt lat="46.13322" lon="5.86401">
        <ele>1376</ele>
        <time>2019-05-05T16:03:42Z</time>
      </trkpt>
      <trkpt lat="46.1332" lon="5.86401">
        <ele>1375</ele>
        <time>2019-05-05T16:03:43Z</time>
      </trkpt>
      <trkpt lat="46.13318" lon="5.864">
        <ele>1375</ele>
        <time>2019-05-05T16:03:44Z</time>
      </trkpt>
      <trkpt lat="46.13305" lon="5.86404">
        <ele>1371</ele>
        <time>2019-05-05T16:03:55Z</time>
      </trkpt>
      <trkpt lat="46.133" lon="5.86404">
        <ele>1370</ele>
        <time>2019-05-05T16:03:58Z</time>
      </trkpt>
      <trkpt lat="46.13293" lon="5.86404">
        <ele>1368</ele>
        <time>2019-05-05T16:04:03Z</time>
      </trkpt>
      <trkpt lat="46.13283" lon="5.86405">
        <ele>1365</ele>
        <time>2019-05-05T16:04:11Z</time>
      </trkpt>
      <trkpt lat="46.13279" lon="5.86406">
        <ele>1364</ele>
        <time>2019-05-05T16:04:14Z</time>
      </trkpt>
      <trkpt lat="46.13271" lon="5.86408">
        <ele>1362</ele>
        <time>2019-05-05T16:04:19Z</time>
      </trkpt>
      <trkpt lat="46.13264" lon="5.86412">
        <ele>1361</ele>
        <time>2019-05-05T16:04:25Z</time>
      </trkpt>
      <trkpt lat="46.13258" lon="5.86417">
        <ele>1361</ele>
        <time>2019-05-05T16:04:30Z</time>
      </trkpt>
      <trkpt lat="46.13254" lon="5.8642">
        <ele>1361</ele>
        <time>2019-05-05T16:04:33Z</time>
      </trkpt>
      <trkpt lat="46.13253" lon="5.8642">
        <ele>1360</ele>
        <time>2019-05-05T16:04:35Z</time>
      </trkpt>
      <trkpt lat="46.13248" lon="5.86421">
        <ele>1359</ele>
        <time>2019-05-05T16:04:38Z</time>
      </trkpt>
      <trkpt lat="46.13241" lon="5.86424">
        <ele>1358</ele>
        <time>2019-05-05T16:04:43Z</time>
      </trkpt>
      <trkpt lat="46.13234" lon="5.86427">
        <ele>1357</ele>
        <time>2019-05-05T16:04:48Z</time>
      </trkpt>
      <trkpt lat="46.13227" lon="5.86428">
        <ele>1356</ele>
        <time>2019-05-05T16:04:53Z</time>
      </trkpt>
      <trkpt lat="46.13222" lon="5.8643">
        <ele>1355</ele>
        <time>2019-05-05T16:04:58Z</time>
      </trkpt>
      <trkpt lat="46.13217" lon="5.86431">
        <ele>1354</ele>
        <time>2019-05-05T16:05:01Z</time>
      </trkpt>
      <trkpt lat="46.13204" lon="5.86435">
        <ele>1351</ele>
        <time>2019-05-05T16:05:11Z</time>
      </trkpt>
      <trkpt lat="46.132" lon="5.86436">
        <ele>1350</ele>
        <time>2019-05-05T16:05:14Z</time>
      </trkpt>
      <trkpt lat="46.13195" lon="5.86437">
        <ele>1349</ele>
        <time>2019-05-05T16:05:18Z</time>
      </trkpt>
      <trkpt lat="46.13191" lon="5.86439">
        <ele>1349</ele>
        <time>2019-05-05T16:05:21Z</time>
      </trkpt>
      <trkpt lat="46.13181" lon="5.86444">
        <ele>1348</ele>
        <time>2019-05-05T16:05:28Z</time>
      </trkpt>
      <trkpt lat="46.13179" lon="5.86446">
        <ele>1348</ele>
        <time>2019-05-05T16:05:30Z</time>
      </trkpt>
      <trkpt lat="46.13175" lon="5.86448">
        <ele>1347</ele>
        <time>2019-05-05T16:05:33Z</time>
      </trkpt>
      <trkpt lat="46.13173" lon="5.86449">
        <ele>1347</ele>
        <time>2019-05-05T16:05:35Z</time>
      </trkpt>
      <trkpt lat="46.13173" lon="5.86449">
        <ele>1347</ele>
        <time>2019-05-05T16:05:35Z</time>
      </trkpt>
      <trkpt lat="46.13172" lon="5.86449">
        <ele>1347</ele>
        <time>2019-05-05T16:05:36Z</time>
      </trkpt>
      <trkpt lat="46.1317" lon="5.86462">
        <ele>1350</ele>
        <time>2019-05-05T16:05:43Z</time>
      </trkpt>
      <trkpt lat="46.13169" lon="5.86464">
        <ele>1350</ele>
        <time>2019-05-05T16:05:44Z</time>
      </trkpt>
      <trkpt lat="46.1316" lon="5.86467">
        <ele>1349</ele>
        <time>2019-05-05T16:05:51Z</time>
      </trkpt>
      <trkpt lat="46.13155" lon="5.86468">
        <ele>1348</ele>
        <time>2019-05-05T16:05:54Z</time>
      </trkpt>
      <trkpt lat="46.13149" lon="5.86469">
        <ele>1346</ele>
        <time>2019-05-05T16:05:59Z</time>
      </trkpt>
      <trkpt lat="46.1314" lon="5.86469">
        <ele>1345</ele>
        <time>2019-05-05T16:06:05Z</time>
      </trkpt>
      <trkpt lat="46.13137" lon="5.8647">
        <ele>1344</ele>
        <time>2019-05-05T16:06:07Z</time>
      </trkpt>
      <trkpt lat="46.13132" lon="5.86468">
        <ele>1342</ele>
        <time>2019-05-05T16:06:11Z</time>
      </trkpt>
      <trkpt lat="46.13127" lon="5.86467">
        <ele>1341</ele>
        <time>2019-05-05T16:06:15Z</time>
      </trkpt>
      <trkpt lat="46.13124" lon="5.86467">
        <ele>1340</ele>
        <time>2019-05-05T16:06:17Z</time>
      </trkpt>
      <trkpt lat="46.13119" lon="5.86465">
        <ele>1338</ele>
        <time>2019-05-05T16:06:21Z</time>
      </trkpt>
      <trkpt lat="46.13113" lon="5.86463">
        <ele>1336</ele>
        <time>2019-05-05T16:06:26Z</time>
      </trkpt>
      <trkpt lat="46.13104" lon="5.86461">
        <ele>1333</ele>
        <time>2019-05-05T16:06:33Z</time>
      </trkpt>
      <trkpt lat="46.13094" lon="5.86461">
        <ele>1331</ele>
        <time>2019-05-05T16:06:40Z</time>
      </trkpt>
      <trkpt lat="46.13086" lon="5.86461">
        <ele>1330</ele>
        <time>2019-05-05T16:06:46Z</time>
      </trkpt>
      <trkpt lat="46.13079" lon="5.86461">
        <ele>1329</ele>
        <time>2019-05-05T16:06:51Z</time>
      </trkpt>
      <trkpt lat="46.13075" lon="5.8646">
        <ele>1327</ele>
        <time>2019-05-05T16:06:54Z</time>
      </trkpt>
      <trkpt lat="46.13074" lon="5.8646">
        <ele>1327</ele>
        <time>2019-05-05T16:06:55Z</time>
      </trkpt>
      <trkpt lat="46.13074" lon="5.8646">
        <ele>1327</ele>
        <time>2019-05-05T16:06:55Z</time>
      </trkpt>
      <trkpt lat="46.13072" lon="5.8646">
        <ele>1327</ele>
        <time>2019-05-05T16:06:57Z</time>
      </trkpt>
      <trkpt lat="46.1307" lon="5.8646">
        <ele>1326</ele>
        <time>2019-05-05T16:06:58Z</time>
      </trkpt>
      <trkpt lat="46.13062" lon="5.86463">
        <ele>1326</ele>
        <time>2019-05-05T16:07:04Z</time>
      </trkpt>
      <trkpt lat="46.13053" lon="5.86465">
        <ele>1325</ele>
        <time>2019-05-05T16:07:10Z</time>
      </trkpt>
      <trkpt lat="46.13047" lon="5.86469">
        <ele>1325</ele>
        <time>2019-05-05T16:07:15Z</time>
      </trkpt>
      <trkpt lat="46.1304" lon="5.86471">
        <ele>1324</ele>
        <time>2019-05-05T16:07:21Z</time>
      </trkpt>
      <trkpt lat="46.13035" lon="5.86472">
        <ele>1323</ele>
        <time>2019-05-05T16:07:25Z</time>
      </trkpt>
      <trkpt lat="46.13027" lon="5.86471">
        <ele>1321</ele>
        <time>2019-05-05T16:07:30Z</time>
      </trkpt>
      <trkpt lat="46.13019" lon="5.86476">
        <ele>1321</ele>
        <time>2019-05-05T16:07:37Z</time>
      </trkpt>
      <trkpt lat="46.13014" lon="5.86476">
        <ele>1320</ele>
        <time>2019-05-05T16:07:41Z</time>
      </trkpt>
      <trkpt lat="46.13012" lon="5.86476">
        <ele>1319</ele>
        <time>2019-05-05T16:07:42Z</time>
      </trkpt>
      <trkpt lat="46.13009" lon="5.86476">
        <ele>1319</ele>
        <time>2019-05-05T16:07:44Z</time>
      </trkpt>
      <trkpt lat="46.13002" lon="5.86477">
        <ele>1317</ele>
        <time>2019-05-05T16:07:49Z</time>
      </trkpt>
      <trkpt lat="46.12995" lon="5.86479">
        <ele>1316</ele>
        <time>2019-05-05T16:07:54Z</time>
      </trkpt>
      <trkpt lat="46.12993" lon="5.86481">
        <ele>1316</ele>
        <time>2019-05-05T16:07:56Z</time>
      </trkpt>
      <trkpt lat="46.12988" lon="5.86479">
        <ele>1315</ele>
        <time>2019-05-05T16:08:00Z</time>
      </trkpt>
      <trkpt lat="46.12986" lon="5.86478">
        <ele>1314</ele>
        <time>2019-05-05T16:08:02Z</time>
      </trkpt>
      <trkpt lat="46.12985" lon="5.86478">
        <ele>1314</ele>
        <time>2019-05-05T16:08:02Z</time>
      </trkpt>
      <trkpt lat="46.12981" lon="5.86479">
        <ele>1313</ele>
        <time>2019-05-05T16:08:05Z</time>
      </trkpt>
      <trkpt lat="46.12974" lon="5.86477">
        <ele>1311</ele>
        <time>2019-05-05T16:08:10Z</time>
      </trkpt>
      <trkpt lat="46.1297" lon="5.86477">
        <ele>1310</ele>
        <time>2019-05-05T16:08:13Z</time>
      </trkpt>
      <trkpt lat="46.12966" lon="5.86481">
        <ele>1310</ele>
        <time>2019-05-05T16:08:17Z</time>
      </trkpt>
      <trkpt lat="46.12964" lon="5.8648">
        <ele>1309</ele>
        <time>2019-05-05T16:08:18Z</time>
      </trkpt>
      <trkpt lat="46.12963" lon="5.8648">
        <ele>1309</ele>
        <time>2019-05-05T16:08:20Z</time>
      </trkpt>
      <trkpt lat="46.1296" lon="5.8648">
        <ele>1308</ele>
        <time>2019-05-05T16:08:22Z</time>
      </trkpt>
      <trkpt lat="46.12958" lon="5.86479">
        <ele>1308</ele>
        <time>2019-05-05T16:08:23Z</time>
      </trkpt>
      <trkpt lat="46.12953" lon="5.8648">
        <ele>1307</ele>
        <time>2019-05-05T16:08:27Z</time>
      </trkpt>
      <trkpt lat="46.12949" lon="5.8648">
        <ele>1305</ele>
        <time>2019-05-05T16:08:30Z</time>
      </trkpt>
      <trkpt lat="46.12946" lon="5.86481">
        <ele>1305</ele>
        <time>2019-05-05T16:08:32Z</time>
      </trkpt>
      <trkpt lat="46.12946" lon="5.86481">
        <ele>1305</ele>
        <time>2019-05-05T16:08:32Z</time>
      </trkpt>
      <trkpt lat="46.12944" lon="5.86482">
        <ele>1305</ele>
        <time>2019-05-05T16:08:34Z</time>
      </trkpt>
      <trkpt lat="46.1294" lon="5.86486">
        <ele>1305</ele>
        <time>2019-05-05T16:08:37Z</time>
      </trkpt>
      <trkpt lat="46.12939" lon="5.86485">
        <ele>1305</ele>
        <time>2019-05-05T16:08:39Z</time>
      </trkpt>
      <trkpt lat="46.12934" lon="5.86486">
        <ele>1304</ele>
        <time>2019-05-05T16:08:42Z</time>
      </trkpt>
      <trkpt lat="46.12933" lon="5.86486">
        <ele>1304</ele>
        <time>2019-05-05T16:08:43Z</time>
      </trkpt>
      <trkpt lat="46.1293" lon="5.86486">
        <ele>1303</ele>
        <time>2019-05-05T16:08:45Z</time>
      </trkpt>
      <trkpt lat="46.12925" lon="5.86495">
        <ele>1304</ele>
        <time>2019-05-05T16:08:51Z</time>
      </trkpt>
      <trkpt lat="46.12918" lon="5.865">
        <ele>1304</ele>
        <time>2019-05-05T16:08:56Z</time>
      </trkpt>
      <trkpt lat="46.12916" lon="5.865">
        <ele>1304</ele>
        <time>2019-05-05T16:08:58Z</time>
      </trkpt>
      <trkpt lat="46.1291" lon="5.865">
        <ele>1303</ele>
        <time>2019-05-05T16:09:02Z</time>
      </trkpt>
      <trkpt lat="46.12902" lon="5.86501">
        <ele>1302</ele>
        <time>2019-05-05T16:09:08Z</time>
      </trkpt>
      <trkpt lat="46.129" lon="5.86501">
        <ele>1301</ele>
        <time>2019-05-05T16:09:10Z</time>
      </trkpt>
      <trkpt lat="46.12896" lon="5.86502">
        <ele>1301</ele>
        <time>2019-05-05T16:09:13Z</time>
      </trkpt>
      <trkpt lat="46.1289" lon="5.86504">
        <ele>1300</ele>
        <time>2019-05-05T16:09:17Z</time>
      </trkpt>
      <trkpt lat="46.12877" lon="5.86511">
        <ele>1300</ele>
        <time>2019-05-05T16:09:27Z</time>
      </trkpt>
      <trkpt lat="46.12872" lon="5.86513">
        <ele>1300</ele>
        <time>2019-05-05T16:09:31Z</time>
      </trkpt>
      <trkpt lat="46.12867" lon="5.86515">
        <ele>1299</ele>
        <time>2019-05-05T16:09:35Z</time>
      </trkpt>
      <trkpt lat="46.12854" lon="5.86519">
        <ele>1298</ele>
        <time>2019-05-05T16:09:44Z</time>
      </trkpt>
      <trkpt lat="46.12851" lon="5.8652">
        <ele>1297</ele>
        <time>2019-05-05T16:09:47Z</time>
      </trkpt>
      <trkpt lat="46.12849" lon="5.86518">
        <ele>1296</ele>
        <time>2019-05-05T16:09:49Z</time>
      </trkpt>
      <trkpt lat="46.12848" lon="5.86517">
        <ele>1296</ele>
        <time>2019-05-05T16:09:49Z</time>
      </trkpt>
      <trkpt lat="46.12847" lon="5.86517">
        <ele>1296</ele>
        <time>2019-05-05T16:09:50Z</time>
      </trkpt>
      <trkpt lat="46.12845" lon="5.86506">
        <ele>1292</ele>
        <time>2019-05-05T16:09:56Z</time>
      </trkpt>
      <trkpt lat="46.12845" lon="5.86503">
        <ele>1292</ele>
        <time>2019-05-05T16:09:57Z</time>
      </trkpt>
      <trkpt lat="46.12845" lon="5.865">
        <ele>1291</ele>
        <time>2019-05-05T16:09:59Z</time>
      </trkpt>
      <trkpt lat="46.12846" lon="5.86494">
        <ele>1289</ele>
        <time>2019-05-05T16:10:03Z</time>
      </trkpt>
      <trkpt lat="46.12846" lon="5.86489">
        <ele>1287</ele>
        <time>2019-05-05T16:10:05Z</time>
      </trkpt>
      <trkpt lat="46.12849" lon="5.86488">
        <ele>1287</ele>
        <time>2019-05-05T16:10:08Z</time>
      </trkpt>
      <trkpt lat="46.1285" lon="5.86486">
        <ele>1287</ele>
        <time>2019-05-05T16:10:08Z</time>
      </trkpt>
      <trkpt lat="46.12853" lon="5.86484">
        <ele>1287</ele>
        <time>2019-05-05T16:10:11Z</time>
      </trkpt>
      <trkpt lat="46.12855" lon="5.86477">
        <ele>1285</ele>
        <time>2019-05-05T16:10:15Z</time>
      </trkpt>
      <trkpt lat="46.12857" lon="5.86477">
        <ele>1285</ele>
        <time>2019-05-05T16:10:16Z</time>
      </trkpt>
      <trkpt lat="46.12859" lon="5.86473">
        <ele>1285</ele>
        <time>2019-05-05T16:10:19Z</time>
      </trkpt>
      <trkpt lat="46.12862" lon="5.86467">
        <ele>1283</ele>
        <time>2019-05-05T16:10:23Z</time>
      </trkpt>
      <trkpt lat="46.12863" lon="5.86464">
        <ele>1283</ele>
        <time>2019-05-05T16:10:25Z</time>
      </trkpt>
      <trkpt lat="46.12864" lon="5.86461">
        <ele>1282</ele>
        <time>2019-05-05T16:10:26Z</time>
      </trkpt>
      <trkpt lat="46.12866" lon="5.86458">
        <ele>1281</ele>
        <time>2019-05-05T16:10:28Z</time>
      </trkpt>
      <trkpt lat="46.12869" lon="5.86454">
        <ele>1281</ele>
        <time>2019-05-05T16:10:31Z</time>
      </trkpt>
      <trkpt lat="46.1287" lon="5.86449">
        <ele>1280</ele>
        <time>2019-05-05T16:10:34Z</time>
      </trkpt>
      <trkpt lat="46.1287" lon="5.86441">
        <ele>1277</ele>
        <time>2019-05-05T16:10:38Z</time>
      </trkpt>
      <trkpt lat="46.12871" lon="5.86435">
        <ele>1275</ele>
        <time>2019-05-05T16:10:42Z</time>
      </trkpt>
      <trkpt lat="46.12871" lon="5.8643">
        <ele>1274</ele>
        <time>2019-05-05T16:10:44Z</time>
      </trkpt>
      <trkpt lat="46.12871" lon="5.86426">
        <ele>1273</ele>
        <time>2019-05-05T16:10:46Z</time>
      </trkpt>
      <trkpt lat="46.1287" lon="5.86424">
        <ele>1273</ele>
        <time>2019-05-05T16:10:47Z</time>
      </trkpt>
      <trkpt lat="46.12865" lon="5.86425">
        <ele>1272</ele>
        <time>2019-05-05T16:10:51Z</time>
      </trkpt>
      <trkpt lat="46.12863" lon="5.86426">
        <ele>1271</ele>
        <time>2019-05-05T16:10:53Z</time>
      </trkpt>
      <trkpt lat="46.12862" lon="5.86426">
        <ele>1271</ele>
        <time>2019-05-05T16:10:53Z</time>
      </trkpt>
      <trkpt lat="46.12855" lon="5.86425">
        <ele>1270</ele>
        <time>2019-05-05T16:10:58Z</time>
      </trkpt>
      <trkpt lat="46.12854" lon="5.86424">
        <ele>1269</ele>
        <time>2019-05-05T16:11:00Z</time>
      </trkpt>
      <trkpt lat="46.12851" lon="5.86425">
        <ele>1269</ele>
        <time>2019-05-05T16:11:01Z</time>
      </trkpt>
      <trkpt lat="46.12848" lon="5.86425">
        <ele>1268</ele>
        <time>2019-05-05T16:11:04Z</time>
      </trkpt>
      <trkpt lat="46.12847" lon="5.86425">
        <ele>1268</ele>
        <time>2019-05-05T16:11:04Z</time>
      </trkpt>
      <trkpt lat="46.12846" lon="5.86425">
        <ele>1268</ele>
        <time>2019-05-05T16:11:05Z</time>
      </trkpt>
      <trkpt lat="46.12838" lon="5.86425">
        <ele>1267</ele>
        <time>2019-05-05T16:11:11Z</time>
      </trkpt>
      <trkpt lat="46.12835" lon="5.86425">
        <ele>1267</ele>
        <time>2019-05-05T16:11:13Z</time>
      </trkpt>
      <trkpt lat="46.12826" lon="5.86424">
        <ele>1265</ele>
        <time>2019-05-05T16:11:20Z</time>
      </trkpt>
      <trkpt lat="46.12821" lon="5.86424">
        <ele>1265</ele>
        <time>2019-05-05T16:11:23Z</time>
      </trkpt>
      <trkpt lat="46.12821" lon="5.86423">
        <ele>1265</ele>
        <time>2019-05-05T16:11:24Z</time>
      </trkpt>
      <trkpt lat="46.12819" lon="5.86424">
        <ele>1264</ele>
        <time>2019-05-05T16:11:25Z</time>
      </trkpt>
      <trkpt lat="46.12818" lon="5.86422">
        <ele>1264</ele>
        <time>2019-05-05T16:11:26Z</time>
      </trkpt>
      <trkpt lat="46.12818" lon="5.8642">
        <ele>1264</ele>
        <time>2019-05-05T16:11:27Z</time>
      </trkpt>
      <trkpt lat="46.1282" lon="5.86422">
        <ele>1264</ele>
        <time>2019-05-05T16:11:29Z</time>
      </trkpt>
      <trkpt lat="46.12818" lon="5.86422">
        <ele>1264</ele>
        <time>2019-05-05T16:11:30Z</time>
      </trkpt>
      <trkpt lat="46.12803" lon="5.8642">
        <ele>1262</ele>
        <time>2019-05-05T16:11:41Z</time>
      </trkpt>
      <trkpt lat="46.12793" lon="5.86416">
        <ele>1260</ele>
        <time>2019-05-05T16:11:48Z</time>
      </trkpt>
      <trkpt lat="46.12784" lon="5.86412">
        <ele>1258</ele>
        <time>2019-05-05T16:11:56Z</time>
      </trkpt>
      <trkpt lat="46.12767" lon="5.86407">
        <ele>1255</ele>
        <time>2019-05-05T16:12:08Z</time>
      </trkpt>
      <trkpt lat="46.1276" lon="5.86403">
        <ele>1253</ele>
        <time>2019-05-05T16:12:13Z</time>
      </trkpt>
      <trkpt lat="46.1275" lon="5.86397">
        <ele>1250</ele>
        <time>2019-05-05T16:12:22Z</time>
      </trkpt>
      <trkpt lat="46.12741" lon="5.86389">
        <ele>1248</ele>
        <time>2019-05-05T16:12:29Z</time>
      </trkpt>
      <trkpt lat="46.12724" lon="5.86378">
        <ele>1243</ele>
        <time>2019-05-05T16:12:43Z</time>
      </trkpt>
      <trkpt lat="46.12721" lon="5.86378">
        <ele>1242</ele>
        <time>2019-05-05T16:12:46Z</time>
      </trkpt>
      <trkpt lat="46.12702" lon="5.86385">
        <ele>1241</ele>
        <time>2019-05-05T16:13:00Z</time>
      </trkpt>
      <trkpt lat="46.127" lon="5.86386">
        <ele>1241</ele>
        <time>2019-05-05T16:13:02Z</time>
      </trkpt>
      <trkpt lat="46.12681" lon="5.86392">
        <ele>1239</ele>
        <time>2019-05-05T16:13:15Z</time>
      </trkpt>
      <trkpt lat="46.12676" lon="5.86393">
        <ele>1239</ele>
        <time>2019-05-05T16:13:19Z</time>
      </trkpt>
      <trkpt lat="46.12671" lon="5.86395">
        <ele>1238</ele>
        <time>2019-05-05T16:13:23Z</time>
      </trkpt>
      <trkpt lat="46.12668" lon="5.86395">
        <ele>1238</ele>
        <time>2019-05-05T16:13:25Z</time>
      </trkpt>
      <trkpt lat="46.12667" lon="5.86397">
        <ele>1238</ele>
        <time>2019-05-05T16:13:26Z</time>
      </trkpt>
      <trkpt lat="46.12666" lon="5.86397">
        <ele>1238</ele>
        <time>2019-05-05T16:13:27Z</time>
      </trkpt>
      <trkpt lat="46.12665" lon="5.86398">
        <ele>1238</ele>
        <time>2019-05-05T16:13:28Z</time>
      </trkpt>
      <trkpt lat="46.12662" lon="5.864">
        <ele>1238</ele>
        <time>2019-05-05T16:13:30Z</time>
      </trkpt>
      <trkpt lat="46.12657" lon="5.86403">
        <ele>1238</ele>
        <time>2019-05-05T16:13:34Z</time>
      </trkpt>
      <trkpt lat="46.12652" lon="5.86406">
        <ele>1237</ele>
        <time>2019-05-05T16:13:38Z</time>
      </trkpt>
      <trkpt lat="46.12646" lon="5.86409">
        <ele>1237</ele>
        <time>2019-05-05T16:13:42Z</time>
      </trkpt>
      <trkpt lat="46.12638" lon="5.86414">
        <ele>1236</ele>
        <time>2019-05-05T16:13:49Z</time>
      </trkpt>
      <trkpt lat="46.12628" lon="5.86418">
        <ele>1235</ele>
        <time>2019-05-05T16:13:57Z</time>
      </trkpt>
      <trkpt lat="46.12616" lon="5.86423">
        <ele>1234</ele>
        <time>2019-05-05T16:14:06Z</time>
      </trkpt>
      <trkpt lat="46.12605" lon="5.86427">
        <ele>1233</ele>
        <time>2019-05-05T16:14:14Z</time>
      </trkpt>
      <trkpt lat="46.12598" lon="5.86432">
        <ele>1233</ele>
        <time>2019-05-05T16:14:20Z</time>
      </trkpt>
      <trkpt lat="46.12595" lon="5.86435">
        <ele>1233</ele>
        <time>2019-05-05T16:14:22Z</time>
      </trkpt>
      <trkpt lat="46.12592" lon="5.86441">
        <ele>1234</ele>
        <time>2019-05-05T16:14:26Z</time>
      </trkpt>
      <trkpt lat="46.12586" lon="5.86451">
        <ele>1235</ele>
        <time>2019-05-05T16:14:32Z</time>
      </trkpt>
      <trkpt lat="46.1257" lon="5.86465">
        <ele>1235</ele>
        <time>2019-05-05T16:14:46Z</time>
      </trkpt>
      <trkpt lat="46.12561" lon="5.86473">
        <ele>1235</ele>
        <time>2019-05-05T16:14:53Z</time>
      </trkpt>
      <trkpt lat="46.12545" lon="5.86487">
        <ele>1235</ele>
        <time>2019-05-05T16:15:07Z</time>
      </trkpt>
      <trkpt lat="46.12539" lon="5.86495">
        <ele>1236</ele>
        <time>2019-05-05T16:15:13Z</time>
      </trkpt>
      <trkpt lat="46.12537" lon="5.86496">
        <ele>1236</ele>
        <time>2019-05-05T16:15:15Z</time>
      </trkpt>
      <trkpt lat="46.1252" lon="5.86506">
        <ele>1235</ele>
        <time>2019-05-05T16:15:28Z</time>
      </trkpt>
      <trkpt lat="46.12516" lon="5.86515">
        <ele>1236</ele>
        <time>2019-05-05T16:15:33Z</time>
      </trkpt>
      <trkpt lat="46.12514" lon="5.86518">
        <ele>1236</ele>
        <time>2019-05-05T16:15:35Z</time>
      </trkpt>
      <trkpt lat="46.12512" lon="5.86518">
        <ele>1236</ele>
        <time>2019-05-05T16:15:36Z</time>
      </trkpt>
      <trkpt lat="46.12509" lon="5.86519">
        <ele>1235</ele>
        <time>2019-05-05T16:15:39Z</time>
      </trkpt>
      <trkpt lat="46.12506" lon="5.86519">
        <ele>1235</ele>
        <time>2019-05-05T16:15:41Z</time>
      </trkpt>
      <trkpt lat="46.12503" lon="5.8652">
        <ele>1234</ele>
        <time>2019-05-05T16:15:43Z</time>
      </trkpt>
      <trkpt lat="46.12498" lon="5.86521">
        <ele>1234</ele>
        <time>2019-05-05T16:15:47Z</time>
      </trkpt>
      <trkpt lat="46.12494" lon="5.8652">
        <ele>1233</ele>
        <time>2019-05-05T16:15:50Z</time>
      </trkpt>
      <trkpt lat="46.12475" lon="5.86511">
        <ele>1229</ele>
        <time>2019-05-05T16:16:05Z</time>
      </trkpt>
      <trkpt lat="46.12469" lon="5.86507">
        <ele>1227</ele>
        <time>2019-05-05T16:16:10Z</time>
      </trkpt>
      <trkpt lat="46.12463" lon="5.86503">
        <ele>1226</ele>
        <time>2019-05-05T16:16:15Z</time>
      </trkpt>
      <trkpt lat="46.12457" lon="5.86501">
        <ele>1225</ele>
        <time>2019-05-05T16:16:19Z</time>
      </trkpt>
      <trkpt lat="46.12454" lon="5.86502">
        <ele>1224</ele>
        <time>2019-05-05T16:16:22Z</time>
      </trkpt>
      <trkpt lat="46.12447" lon="5.86504">
        <ele>1223</ele>
        <time>2019-05-05T16:16:27Z</time>
      </trkpt>
      <trkpt lat="46.12429" lon="5.86508">
        <ele>1221</ele>
        <time>2019-05-05T16:16:40Z</time>
      </trkpt>
      <trkpt lat="46.12421" lon="5.86509">
        <ele>1220</ele>
        <time>2019-05-05T16:16:46Z</time>
      </trkpt>
      <trkpt lat="46.12412" lon="5.86511">
        <ele>1218</ele>
        <time>2019-05-05T16:16:52Z</time>
      </trkpt>
      <trkpt lat="46.12408" lon="5.86512">
        <ele>1218</ele>
        <time>2019-05-05T16:16:55Z</time>
      </trkpt>
      <trkpt lat="46.12407" lon="5.86513">
        <ele>1217</ele>
        <time>2019-05-05T16:16:56Z</time>
      </trkpt>
      <trkpt lat="46.12403" lon="5.86513">
        <ele>1217</ele>
        <time>2019-05-05T16:16:59Z</time>
      </trkpt>
      <trkpt lat="46.124" lon="5.86512">
        <ele>1216</ele>
        <time>2019-05-05T16:17:02Z</time>
      </trkpt>
      <trkpt lat="46.12396" lon="5.86512">
        <ele>1215</ele>
        <time>2019-05-05T16:17:05Z</time>
      </trkpt>
      <trkpt lat="46.12392" lon="5.8651">
        <ele>1214</ele>
        <time>2019-05-05T16:17:08Z</time>
      </trkpt>
      <trkpt lat="46.12388" lon="5.86507">
        <ele>1213</ele>
        <time>2019-05-05T16:17:11Z</time>
      </trkpt>
      <trkpt lat="46.12383" lon="5.86507">
        <ele>1212</ele>
        <time>2019-05-05T16:17:14Z</time>
      </trkpt>
      <trkpt lat="46.12379" lon="5.86509">
        <ele>1212</ele>
        <time>2019-05-05T16:17:18Z</time>
      </trkpt>
      <trkpt lat="46.12361" lon="5.86511">
        <ele>1208</ele>
        <time>2019-05-05T16:17:31Z</time>
      </trkpt>
      <trkpt lat="46.12349" lon="5.86509">
        <ele>1206</ele>
        <time>2019-05-05T16:17:40Z</time>
      </trkpt>
      <trkpt lat="46.12346" lon="5.86511">
        <ele>1205</ele>
        <time>2019-05-05T16:17:42Z</time>
      </trkpt>
      <trkpt lat="46.12342" lon="5.86512">
        <ele>1205</ele>
        <time>2019-05-05T16:17:45Z</time>
      </trkpt>
      <trkpt lat="46.1234" lon="5.86512">
        <ele>1204</ele>
        <time>2019-05-05T16:17:47Z</time>
      </trkpt>
      <trkpt lat="46.12335" lon="5.86513">
        <ele>1203</ele>
        <time>2019-05-05T16:17:51Z</time>
      </trkpt>
      <trkpt lat="46.12331" lon="5.86515">
        <ele>1202</ele>
        <time>2019-05-05T16:17:54Z</time>
      </trkpt>
      <trkpt lat="46.12326" lon="5.86518">
        <ele>1202</ele>
        <time>2019-05-05T16:17:57Z</time>
      </trkpt>
      <trkpt lat="46.1232" lon="5.86525">
        <ele>1201</ele>
        <time>2019-05-05T16:18:03Z</time>
      </trkpt>
      <trkpt lat="46.12314" lon="5.86526">
        <ele>1200</ele>
        <time>2019-05-05T16:18:07Z</time>
      </trkpt>
      <trkpt lat="46.12308" lon="5.86528">
        <ele>1199</ele>
        <time>2019-05-05T16:18:12Z</time>
      </trkpt>
      <trkpt lat="46.12301" lon="5.86534">
        <ele>1198</ele>
        <time>2019-05-05T16:18:18Z</time>
      </trkpt>
      <trkpt lat="46.12297" lon="5.86537">
        <ele>1197</ele>
        <time>2019-05-05T16:18:21Z</time>
      </trkpt>
      <trkpt lat="46.12284" lon="5.86544">
        <ele>1195</ele>
        <time>2019-05-05T16:18:31Z</time>
      </trkpt>
      <trkpt lat="46.12281" lon="5.86545">
        <ele>1194</ele>
        <time>2019-05-05T16:18:34Z</time>
      </trkpt>
      <trkpt lat="46.12279" lon="5.86546">
        <ele>1194</ele>
        <time>2019-05-05T16:18:35Z</time>
      </trkpt>
      <trkpt lat="46.12276" lon="5.86548">
        <ele>1194</ele>
        <time>2019-05-05T16:18:38Z</time>
      </trkpt>
      <trkpt lat="46.12269" lon="5.86549">
        <ele>1193</ele>
        <time>2019-05-05T16:18:42Z</time>
      </trkpt>
      <trkpt lat="46.12263" lon="5.8655">
        <ele>1191</ele>
        <time>2019-05-05T16:18:47Z</time>
      </trkpt>
      <trkpt lat="46.12259" lon="5.86548">
        <ele>1190</ele>
        <time>2019-05-05T16:18:50Z</time>
      </trkpt>
      <trkpt lat="46.12259" lon="5.86548">
        <ele>1190</ele>
        <time>2019-05-05T16:18:51Z</time>
      </trkpt>
      <trkpt lat="46.12257" lon="5.86549">
        <ele>1190</ele>
        <time>2019-05-05T16:18:52Z</time>
      </trkpt>
      <trkpt lat="46.12252" lon="5.86551">
        <ele>1189</ele>
        <time>2019-05-05T16:18:56Z</time>
      </trkpt>
      <trkpt lat="46.12246" lon="5.86553">
        <ele>1188</ele>
        <time>2019-05-05T16:19:00Z</time>
      </trkpt>
      <trkpt lat="46.12238" lon="5.86551">
        <ele>1186</ele>
        <time>2019-05-05T16:19:06Z</time>
      </trkpt>
      <trkpt lat="46.12231" lon="5.86543">
        <ele>1184</ele>
        <time>2019-05-05T16:19:13Z</time>
      </trkpt>
      <trkpt lat="46.12226" lon="5.86537">
        <ele>1182</ele>
        <time>2019-05-05T16:19:17Z</time>
      </trkpt>
      <trkpt lat="46.1222" lon="5.86532">
        <ele>1181</ele>
        <time>2019-05-05T16:19:23Z</time>
      </trkpt>
      <trkpt lat="46.12215" lon="5.86528">
        <ele>1179</ele>
        <time>2019-05-05T16:19:27Z</time>
      </trkpt>
      <trkpt lat="46.12211" lon="5.86525">
        <ele>1178</ele>
        <time>2019-05-05T16:19:30Z</time>
      </trkpt>
      <trkpt lat="46.12208" lon="5.86525">
        <ele>1178</ele>
        <time>2019-05-05T16:19:32Z</time>
      </trkpt>
      <trkpt lat="46.12203" lon="5.86522">
        <ele>1176</ele>
        <time>2019-05-05T16:19:36Z</time>
      </trkpt>
      <trkpt lat="46.12201" lon="5.86523">
        <ele>1176</ele>
        <time>2019-05-05T16:19:38Z</time>
      </trkpt>
      <trkpt lat="46.12198" lon="5.86524">
        <ele>1175</ele>
        <time>2019-05-05T16:19:40Z</time>
      </trkpt>
      <trkpt lat="46.12193" lon="5.86524">
        <ele>1174</ele>
        <time>2019-05-05T16:19:44Z</time>
      </trkpt>
      <trkpt lat="46.12191" lon="5.86523">
        <ele>1174</ele>
        <time>2019-05-05T16:19:45Z</time>
      </trkpt>
      <trkpt lat="46.1219" lon="5.86522">
        <ele>1174</ele>
        <time>2019-05-05T16:19:46Z</time>
      </trkpt>
      <trkpt lat="46.12188" lon="5.86523">
        <ele>1173</ele>
        <time>2019-05-05T16:19:48Z</time>
      </trkpt>
      <trkpt lat="46.12187" lon="5.86524">
        <ele>1173</ele>
        <time>2019-05-05T16:19:49Z</time>
      </trkpt>
      <trkpt lat="46.12184" lon="5.86526">
        <ele>1173</ele>
        <time>2019-05-05T16:19:51Z</time>
      </trkpt>
      <trkpt lat="46.1218" lon="5.86527">
        <ele>1172</ele>
        <time>2019-05-05T16:19:54Z</time>
      </trkpt>
      <trkpt lat="46.12173" lon="5.86524">
        <ele>1170</ele>
        <time>2019-05-05T16:19:59Z</time>
      </trkpt>
      <trkpt lat="46.12168" lon="5.8652">
        <ele>1168</ele>
        <time>2019-05-05T16:20:04Z</time>
      </trkpt>
      <trkpt lat="46.12163" lon="5.86516">
        <ele>1166</ele>
        <time>2019-05-05T16:20:08Z</time>
      </trkpt>
      <trkpt lat="46.12158" lon="5.86514">
        <ele>1164</ele>
        <time>2019-05-05T16:20:12Z</time>
      </trkpt>
      <trkpt lat="46.12154" lon="5.86512">
        <ele>1163</ele>
        <time>2019-05-05T16:20:15Z</time>
      </trkpt>
      <trkpt lat="46.1215" lon="5.86509">
        <ele>1161</ele>
        <time>2019-05-05T16:20:19Z</time>
      </trkpt>
      <trkpt lat="46.12145" lon="5.86504">
        <ele>1159</ele>
        <time>2019-05-05T16:20:23Z</time>
      </trkpt>
      <trkpt lat="46.1214" lon="5.86502">
        <ele>1157</ele>
        <time>2019-05-05T16:20:27Z</time>
      </trkpt>
      <trkpt lat="46.1213" lon="5.865">
        <ele>1154</ele>
        <time>2019-05-05T16:20:35Z</time>
      </trkpt>
      <trkpt lat="46.12123" lon="5.865">
        <ele>1152</ele>
        <time>2019-05-05T16:20:40Z</time>
      </trkpt>
      <trkpt lat="46.12117" lon="5.865">
        <ele>1150</ele>
        <time>2019-05-05T16:20:45Z</time>
      </trkpt>
      <trkpt lat="46.12106" lon="5.86499">
        <ele>1147</ele>
        <time>2019-05-05T16:20:53Z</time>
      </trkpt>
      <trkpt lat="46.121" lon="5.86499">
        <ele>1145</ele>
        <time>2019-05-05T16:20:57Z</time>
      </trkpt>
      <trkpt lat="46.121" lon="5.86499">
        <ele>1145</ele>
        <time>2019-05-05T16:20:58Z</time>
      </trkpt>
      <trkpt lat="46.12097" lon="5.865">
        <ele>1144</ele>
        <time>2019-05-05T16:21:00Z</time>
      </trkpt>
      <trkpt lat="46.12094" lon="5.86501">
        <ele>1143</ele>
        <time>2019-05-05T16:21:02Z</time>
      </trkpt>
      <trkpt lat="46.12092" lon="5.86502">
        <ele>1142</ele>
        <time>2019-05-05T16:21:04Z</time>
      </trkpt>
      <trkpt lat="46.12091" lon="5.86503">
        <ele>1142</ele>
        <time>2019-05-05T16:21:05Z</time>
      </trkpt>
      <trkpt lat="46.12089" lon="5.86509">
        <ele>1143</ele>
        <time>2019-05-05T16:21:08Z</time>
      </trkpt>
      <trkpt lat="46.12085" lon="5.86515">
        <ele>1143</ele>
        <time>2019-05-05T16:21:12Z</time>
      </trkpt>
      <trkpt lat="46.12076" lon="5.86516">
        <ele>1140</ele>
        <time>2019-05-05T16:21:19Z</time>
      </trkpt>
      <trkpt lat="46.12072" lon="5.86516">
        <ele>1138</ele>
        <time>2019-05-05T16:21:22Z</time>
      </trkpt>
      <trkpt lat="46.12069" lon="5.86514">
        <ele>1137</ele>
        <time>2019-05-05T16:21:25Z</time>
      </trkpt>
      <trkpt lat="46.12065" lon="5.86513">
        <ele>1135</ele>
        <time>2019-05-05T16:21:28Z</time>
      </trkpt>
      <trkpt lat="46.12057" lon="5.86514">
        <ele>1132</ele>
        <time>2019-05-05T16:21:34Z</time>
      </trkpt>
      <trkpt lat="46.1205" lon="5.86515">
        <ele>1130</ele>
        <time>2019-05-05T16:21:39Z</time>
      </trkpt>
      <trkpt lat="46.12044" lon="5.86515">
        <ele>1128</ele>
        <time>2019-05-05T16:21:43Z</time>
      </trkpt>
      <trkpt lat="46.1204" lon="5.86515">
        <ele>1127</ele>
        <time>2019-05-05T16:21:47Z</time>
      </trkpt>
      <trkpt lat="46.12037" lon="5.86516">
        <ele>1126</ele>
        <time>2019-05-05T16:21:49Z</time>
      </trkpt>
      <trkpt lat="46.12034" lon="5.86517">
        <ele>1125</ele>
        <time>2019-05-05T16:21:51Z</time>
      </trkpt>
      <trkpt lat="46.12034" lon="5.86518">
        <ele>1125</ele>
        <time>2019-05-05T16:21:52Z</time>
      </trkpt>
      <trkpt lat="46.12031" lon="5.86521">
        <ele>1125</ele>
        <time>2019-05-05T16:21:55Z</time>
      </trkpt>
      <trkpt lat="46.1202" lon="5.86521">
        <ele>1121</ele>
        <time>2019-05-05T16:22:03Z</time>
      </trkpt>
      <trkpt lat="46.12014" lon="5.86521">
        <ele>1119</ele>
        <time>2019-05-05T16:22:07Z</time>
      </trkpt>
      <trkpt lat="46.1201" lon="5.86527">
        <ele>1118</ele>
        <time>2019-05-05T16:22:12Z</time>
      </trkpt>
      <trkpt lat="46.12009" lon="5.86528">
        <ele>1118</ele>
        <time>2019-05-05T16:22:13Z</time>
      </trkpt>
      <trkpt lat="46.12006" lon="5.86531">
        <ele>1118</ele>
        <time>2019-05-05T16:22:15Z</time>
      </trkpt>
      <trkpt lat="46.12003" lon="5.86534">
        <ele>1117</ele>
        <time>2019-05-05T16:22:18Z</time>
      </trkpt>
      <trkpt lat="46.11998" lon="5.86538">
        <ele>1117</ele>
        <time>2019-05-05T16:22:22Z</time>
      </trkpt>
      <trkpt lat="46.11995" lon="5.86542">
        <ele>1116</ele>
        <time>2019-05-05T16:22:25Z</time>
      </trkpt>
      <trkpt lat="46.11992" lon="5.86544">
        <ele>1116</ele>
        <time>2019-05-05T16:22:28Z</time>
      </trkpt>
      <trkpt lat="46.11989" lon="5.86545">
        <ele>1115</ele>
        <time>2019-05-05T16:22:29Z</time>
      </trkpt>
      <trkpt lat="46.11988" lon="5.86547">
        <ele>1115</ele>
        <time>2019-05-05T16:22:31Z</time>
      </trkpt>
      <trkpt lat="46.11985" lon="5.86549">
        <ele>1115</ele>
        <time>2019-05-05T16:22:33Z</time>
      </trkpt>
      <trkpt lat="46.11984" lon="5.8655">
        <ele>1114</ele>
        <time>2019-05-05T16:22:35Z</time>
      </trkpt>
      <trkpt lat="46.11983" lon="5.86551">
        <ele>1114</ele>
        <time>2019-05-05T16:22:35Z</time>
      </trkpt>
      <trkpt lat="46.11978" lon="5.86556">
        <ele>1114</ele>
        <time>2019-05-05T16:22:40Z</time>
      </trkpt>
      <trkpt lat="46.11977" lon="5.86557">
        <ele>1114</ele>
        <time>2019-05-05T16:22:41Z</time>
      </trkpt>
      <trkpt lat="46.11974" lon="5.86562">
        <ele>1114</ele>
        <time>2019-05-05T16:22:44Z</time>
      </trkpt>
      <trkpt lat="46.11974" lon="5.86563">
        <ele>1114</ele>
        <time>2019-05-05T16:22:44Z</time>
      </trkpt>
      <trkpt lat="46.11973" lon="5.86565">
        <ele>1115</ele>
        <time>2019-05-05T16:22:46Z</time>
      </trkpt>
      <trkpt lat="46.11971" lon="5.86567">
        <ele>1115</ele>
        <time>2019-05-05T16:22:47Z</time>
      </trkpt>
      <trkpt lat="46.11968" lon="5.86568">
        <ele>1114</ele>
        <time>2019-05-05T16:22:49Z</time>
      </trkpt>
      <trkpt lat="46.11967" lon="5.86568">
        <ele>1113</ele>
        <time>2019-05-05T16:22:51Z</time>
      </trkpt>
      <trkpt lat="46.11966" lon="5.8657">
        <ele>1113</ele>
        <time>2019-05-05T16:22:52Z</time>
      </trkpt>
      <trkpt lat="46.11965" lon="5.86572">
        <ele>1114</ele>
        <time>2019-05-05T16:22:53Z</time>
      </trkpt>
      <trkpt lat="46.11963" lon="5.86575">
        <ele>1114</ele>
        <time>2019-05-05T16:22:56Z</time>
      </trkpt>
      <trkpt lat="46.11959" lon="5.86576">
        <ele>1113</ele>
        <time>2019-05-05T16:22:58Z</time>
      </trkpt>
      <trkpt lat="46.11956" lon="5.86577">
        <ele>1112</ele>
        <time>2019-05-05T16:23:01Z</time>
      </trkpt>
      <trkpt lat="46.11952" lon="5.86576">
        <ele>1110</ele>
        <time>2019-05-05T16:23:04Z</time>
      </trkpt>
      <trkpt lat="46.11948" lon="5.86576">
        <ele>1109</ele>
        <time>2019-05-05T16:23:07Z</time>
      </trkpt>
      <trkpt lat="46.11945" lon="5.86574">
        <ele>1107</ele>
        <time>2019-05-05T16:23:10Z</time>
      </trkpt>
      <trkpt lat="46.11943" lon="5.86574">
        <ele>1106</ele>
        <time>2019-05-05T16:23:11Z</time>
      </trkpt>
      <trkpt lat="46.11941" lon="5.86573">
        <ele>1105</ele>
        <time>2019-05-05T16:23:13Z</time>
      </trkpt>
      <trkpt lat="46.11935" lon="5.86574">
        <ele>1103</ele>
        <time>2019-05-05T16:23:17Z</time>
      </trkpt>
      <trkpt lat="46.11933" lon="5.86576">
        <ele>1103</ele>
        <time>2019-05-05T16:23:19Z</time>
      </trkpt>
      <trkpt lat="46.11928" lon="5.86578">
        <ele>1102</ele>
        <time>2019-05-05T16:23:23Z</time>
      </trkpt>
      <trkpt lat="46.11924" lon="5.86578">
        <ele>1100</ele>
        <time>2019-05-05T16:23:26Z</time>
      </trkpt>
      <trkpt lat="46.11923" lon="5.86579">
        <ele>1100</ele>
        <time>2019-05-05T16:23:27Z</time>
      </trkpt>
      <trkpt lat="46.1192" lon="5.8658">
        <ele>1099</ele>
        <time>2019-05-05T16:23:29Z</time>
      </trkpt>
      <trkpt lat="46.11919" lon="5.8658">
        <ele>1099</ele>
        <time>2019-05-05T16:23:30Z</time>
      </trkpt>
      <trkpt lat="46.11918" lon="5.86581">
        <ele>1099</ele>
        <time>2019-05-05T16:23:31Z</time>
      </trkpt>
      <trkpt lat="46.11915" lon="5.86582">
        <ele>1098</ele>
        <time>2019-05-05T16:23:33Z</time>
      </trkpt>
      <trkpt lat="46.11913" lon="5.86582">
        <ele>1097</ele>
        <time>2019-05-05T16:23:35Z</time>
      </trkpt>
      <trkpt lat="46.11911" lon="5.86584">
        <ele>1097</ele>
        <time>2019-05-05T16:23:37Z</time>
      </trkpt>
      <trkpt lat="46.11909" lon="5.86584">
        <ele>1096</ele>
        <time>2019-05-05T16:23:38Z</time>
      </trkpt>
      <trkpt lat="46.11906" lon="5.86584">
        <ele>1095</ele>
        <time>2019-05-05T16:23:41Z</time>
      </trkpt>
      <trkpt lat="46.11904" lon="5.86584">
        <ele>1094</ele>
        <time>2019-05-05T16:23:42Z</time>
      </trkpt>
      <trkpt lat="46.119" lon="5.86584">
        <ele>1093</ele>
        <time>2019-05-05T16:23:45Z</time>
      </trkpt>
      <trkpt lat="46.11896" lon="5.86584">
        <ele>1092</ele>
        <time>2019-05-05T16:23:48Z</time>
      </trkpt>
      <trkpt lat="46.11886" lon="5.86585">
        <ele>1088</ele>
        <time>2019-05-05T16:23:56Z</time>
      </trkpt>
      <trkpt lat="46.11883" lon="5.86584">
        <ele>1087</ele>
        <time>2019-05-05T16:23:58Z</time>
      </trkpt>
      <trkpt lat="46.11882" lon="5.86584">
        <ele>1086</ele>
        <time>2019-05-05T16:23:59Z</time>
      </trkpt>
      <trkpt lat="46.11878" lon="5.86584">
        <ele>1084</ele>
        <time>2019-05-05T16:24:02Z</time>
      </trkpt>
      <trkpt lat="46.11876" lon="5.86584">
        <ele>1084</ele>
        <time>2019-05-05T16:24:03Z</time>
      </trkpt>
      <trkpt lat="46.11875" lon="5.86585">
        <ele>1084</ele>
        <time>2019-05-05T16:24:04Z</time>
      </trkpt>
      <trkpt lat="46.11874" lon="5.86586">
        <ele>1083</ele>
        <time>2019-05-05T16:24:06Z</time>
      </trkpt>
      <trkpt lat="46.11873" lon="5.86586">
        <ele>1083</ele>
        <time>2019-05-05T16:24:06Z</time>
      </trkpt>
      <trkpt lat="46.11872" lon="5.86586">
        <ele>1083</ele>
        <time>2019-05-05T16:24:07Z</time>
      </trkpt>
      <trkpt lat="46.11872" lon="5.86586">
        <ele>1083</ele>
        <time>2019-05-05T16:24:07Z</time>
      </trkpt>
      <trkpt lat="46.11872" lon="5.86586">
        <ele>1083</ele>
        <time>2019-05-05T16:24:07Z</time>
      </trkpt>
      <trkpt lat="46.11872" lon="5.86586">
        <ele>1083</ele>
        <time>2019-05-05T16:24:07Z</time>
      </trkpt>
      <trkpt lat="46.11871" lon="5.86586">
        <ele>1083</ele>
        <time>2019-05-05T16:24:07Z</time>
      </trkpt>
      <trkpt lat="46.11871" lon="5.86586">
        <ele>1083</ele>
        <time>2019-05-05T16:24:08Z</time>
      </trkpt>
      <trkpt lat="46.11861" lon="5.86586">
        <ele>1079</ele>
        <time>2019-05-05T16:24:15Z</time>
      </trkpt>
      <trkpt lat="46.1186" lon="5.86586">
        <ele>1078</ele>
        <time>2019-05-05T16:24:16Z</time>
      </trkpt>
      <trkpt lat="46.11858" lon="5.86586">
        <ele>1077</ele>
        <time>2019-05-05T16:24:18Z</time>
      </trkpt>
      <trkpt lat="46.11856" lon="5.86587">
        <ele>1077</ele>
        <time>2019-05-05T16:24:20Z</time>
      </trkpt>
      <trkpt lat="46.11853" lon="5.86588">
        <ele>1076</ele>
        <time>2019-05-05T16:24:22Z</time>
      </trkpt>
      <trkpt lat="46.11852" lon="5.86589">
        <ele>1076</ele>
        <time>2019-05-05T16:24:23Z</time>
      </trkpt>
      <trkpt lat="46.11848" lon="5.86589">
        <ele>1074</ele>
        <time>2019-05-05T16:24:26Z</time>
      </trkpt>
      <trkpt lat="46.11846" lon="5.8659">
        <ele>1073</ele>
        <time>2019-05-05T16:24:28Z</time>
      </trkpt>
      <trkpt lat="46.11844" lon="5.8659">
        <ele>1072</ele>
        <time>2019-05-05T16:24:29Z</time>
      </trkpt>
      <trkpt lat="46.11842" lon="5.8659">
        <ele>1071</ele>
        <time>2019-05-05T16:24:30Z</time>
      </trkpt>
      <trkpt lat="46.11842" lon="5.86591">
        <ele>1071</ele>
        <time>2019-05-05T16:24:31Z</time>
      </trkpt>
      <trkpt lat="46.1184" lon="5.86591">
        <ele>1070</ele>
        <time>2019-05-05T16:24:33Z</time>
      </trkpt>
      <trkpt lat="46.11836" lon="5.86591">
        <ele>1068</ele>
        <time>2019-05-05T16:24:35Z</time>
      </trkpt>
      <trkpt lat="46.11835" lon="5.86591">
        <ele>1068</ele>
        <time>2019-05-05T16:24:36Z</time>
      </trkpt>
      <trkpt lat="46.11834" lon="5.86592">
        <ele>1067</ele>
        <time>2019-05-05T16:24:37Z</time>
      </trkpt>
      <trkpt lat="46.11833" lon="5.86592">
        <ele>1067</ele>
        <time>2019-05-05T16:24:38Z</time>
      </trkpt>
      <trkpt lat="46.11824" lon="5.86595">
        <ele>1063</ele>
        <time>2019-05-05T16:24:45Z</time>
      </trkpt>
      <trkpt lat="46.11821" lon="5.86597">
        <ele>1061</ele>
        <time>2019-05-05T16:24:48Z</time>
      </trkpt>
      <trkpt lat="46.11817" lon="5.86604">
        <ele>1061</ele>
        <time>2019-05-05T16:24:53Z</time>
      </trkpt>
      <trkpt lat="46.11816" lon="5.86606">
        <ele>1061</ele>
        <time>2019-05-05T16:24:54Z</time>
      </trkpt>
      <trkpt lat="46.11814" lon="5.86607">
        <ele>1060</ele>
        <time>2019-05-05T16:24:55Z</time>
      </trkpt>
      <trkpt lat="46.11813" lon="5.86609">
        <ele>1060</ele>
        <time>2019-05-05T16:24:57Z</time>
      </trkpt>
      <trkpt lat="46.11811" lon="5.8661">
        <ele>1059</ele>
        <time>2019-05-05T16:24:59Z</time>
      </trkpt>
      <trkpt lat="46.11808" lon="5.86612">
        <ele>1057</ele>
        <time>2019-05-05T16:25:01Z</time>
      </trkpt>
      <trkpt lat="46.11807" lon="5.86612">
        <ele>1057</ele>
        <time>2019-05-05T16:25:02Z</time>
      </trkpt>
      <trkpt lat="46.11801" lon="5.86615">
        <ele>1054</ele>
        <time>2019-05-05T16:25:07Z</time>
      </trkpt>
      <trkpt lat="46.11798" lon="5.86616">
        <ele>1053</ele>
        <time>2019-05-05T16:25:09Z</time>
      </trkpt>
      <trkpt lat="46.11796" lon="5.86616">
        <ele>1052</ele>
        <time>2019-05-05T16:25:11Z</time>
      </trkpt>
      <trkpt lat="46.11796" lon="5.86616">
        <ele>1052</ele>
        <time>2019-05-05T16:25:11Z</time>
      </trkpt>
      <trkpt lat="46.11794" lon="5.86614">
        <ele>1050</ele>
        <time>2019-05-05T16:25:13Z</time>
      </trkpt>
      <trkpt lat="46.11794" lon="5.86611">
        <ele>1050</ele>
        <time>2019-05-05T16:25:14Z</time>
      </trkpt>
      <trkpt lat="46.11793" lon="5.86608">
        <ele>1049</ele>
        <time>2019-05-05T16:25:16Z</time>
      </trkpt>
      <trkpt lat="46.11793" lon="5.86606">
        <ele>1048</ele>
        <time>2019-05-05T16:25:17Z</time>
      </trkpt>
      <trkpt lat="46.11791" lon="5.86601">
        <ele>1046</ele>
        <time>2019-05-05T16:25:20Z</time>
      </trkpt>
      <trkpt lat="46.11791" lon="5.866">
        <ele>1046</ele>
        <time>2019-05-05T16:25:21Z</time>
      </trkpt>
      <trkpt lat="46.11791" lon="5.86597">
        <ele>1045</ele>
        <time>2019-05-05T16:25:23Z</time>
      </trkpt>
      <trkpt lat="46.11791" lon="5.86594">
        <ele>1044</ele>
        <time>2019-05-05T16:25:24Z</time>
      </trkpt>
      <trkpt lat="46.11792" lon="5.86589">
        <ele>1043</ele>
        <time>2019-05-05T16:25:26Z</time>
      </trkpt>
      <trkpt lat="46.11792" lon="5.86585">
        <ele>1042</ele>
        <time>2019-05-05T16:25:29Z</time>
      </trkpt>
      <trkpt lat="46.11792" lon="5.86582">
        <ele>1041</ele>
        <time>2019-05-05T16:25:30Z</time>
      </trkpt>
      <trkpt lat="46.11792" lon="5.86581">
        <ele>1041</ele>
        <time>2019-05-05T16:25:31Z</time>
      </trkpt>
      <trkpt lat="46.11792" lon="5.8658">
        <ele>1041</ele>
        <time>2019-05-05T16:25:32Z</time>
      </trkpt>
      <trkpt lat="46.11793" lon="5.86577">
        <ele>1041</ele>
        <time>2019-05-05T16:25:33Z</time>
      </trkpt>
      <trkpt lat="46.11794" lon="5.86573">
        <ele>1040</ele>
        <time>2019-05-05T16:25:35Z</time>
      </trkpt>
      <trkpt lat="46.11794" lon="5.86569">
        <ele>1040</ele>
        <time>2019-05-05T16:25:38Z</time>
      </trkpt>
      <trkpt lat="46.11795" lon="5.8656">
        <ele>1038</ele>
        <time>2019-05-05T16:25:42Z</time>
      </trkpt>
      <trkpt lat="46.11796" lon="5.86554">
        <ele>1036</ele>
        <time>2019-05-05T16:25:46Z</time>
      </trkpt>
      <trkpt lat="46.11796" lon="5.86551">
        <ele>1036</ele>
        <time>2019-05-05T16:25:47Z</time>
      </trkpt>
      <trkpt lat="46.11796" lon="5.8655">
        <ele>1035</ele>
        <time>2019-05-05T16:25:48Z</time>
      </trkpt>
      <trkpt lat="46.11796" lon="5.86546">
        <ele>1035</ele>
        <time>2019-05-05T16:25:50Z</time>
      </trkpt>
      <trkpt lat="46.11796" lon="5.86543">
        <ele>1034</ele>
        <time>2019-05-05T16:25:51Z</time>
      </trkpt>
      <trkpt lat="46.11797" lon="5.8654">
        <ele>1033</ele>
        <time>2019-05-05T16:25:53Z</time>
      </trkpt>
      <trkpt lat="46.11796" lon="5.86538">
        <ele>1033</ele>
        <time>2019-05-05T16:25:54Z</time>
      </trkpt>
      <trkpt lat="46.11797" lon="5.86537">
        <ele>1032</ele>
        <time>2019-05-05T16:25:55Z</time>
      </trkpt>
      <trkpt lat="46.11797" lon="5.86535">
        <ele>1032</ele>
        <time>2019-05-05T16:25:56Z</time>
      </trkpt>
      <trkpt lat="46.11799" lon="5.86532">
        <ele>1032</ele>
        <time>2019-05-05T16:25:58Z</time>
      </trkpt>
      <trkpt lat="46.11799" lon="5.86529">
        <ele>1032</ele>
        <time>2019-05-05T16:25:59Z</time>
      </trkpt>
      <trkpt lat="46.11801" lon="5.86526">
        <ele>1031</ele>
        <time>2019-05-05T16:26:02Z</time>
      </trkpt>
      <trkpt lat="46.11802" lon="5.86522">
        <ele>1031</ele>
        <time>2019-05-05T16:26:04Z</time>
      </trkpt>
      <trkpt lat="46.11802" lon="5.86518">
        <ele>1030</ele>
        <time>2019-05-05T16:26:05Z</time>
      </trkpt>
      <trkpt lat="46.11802" lon="5.86517">
        <ele>1030</ele>
        <time>2019-05-05T16:26:06Z</time>
      </trkpt>
      <trkpt lat="46.11802" lon="5.86516">
        <ele>1029</ele>
        <time>2019-05-05T16:26:07Z</time>
      </trkpt>
      <trkpt lat="46.11803" lon="5.86515">
        <ele>1029</ele>
        <time>2019-05-05T16:26:07Z</time>
      </trkpt>
      <trkpt lat="46.11802" lon="5.86513">
        <ele>1028</ele>
        <time>2019-05-05T16:26:09Z</time>
      </trkpt>
      <trkpt lat="46.11801" lon="5.8651">
        <ele>1027</ele>
        <time>2019-05-05T16:26:11Z</time>
      </trkpt>
      <trkpt lat="46.11801" lon="5.86508">
        <ele>1026</ele>
        <time>2019-05-05T16:26:12Z</time>
      </trkpt>
      <trkpt lat="46.11802" lon="5.86506">
        <ele>1025</ele>
        <time>2019-05-05T16:26:13Z</time>
      </trkpt>
      <trkpt lat="46.11803" lon="5.86503">
        <ele>1024</ele>
        <time>2019-05-05T16:26:15Z</time>
      </trkpt>
      <trkpt lat="46.11804" lon="5.865">
        <ele>1024</ele>
        <time>2019-05-05T16:26:17Z</time>
      </trkpt>
      <trkpt lat="46.11807" lon="5.86494">
        <ele>1022</ele>
        <time>2019-05-05T16:26:21Z</time>
      </trkpt>
      <trkpt lat="46.11809" lon="5.8649">
        <ele>1021</ele>
        <time>2019-05-05T16:26:23Z</time>
      </trkpt>
      <trkpt lat="46.11811" lon="5.86486">
        <ele>1021</ele>
        <time>2019-05-05T16:26:25Z</time>
      </trkpt>
      <trkpt lat="46.11812" lon="5.86484">
        <ele>1020</ele>
        <time>2019-05-05T16:26:27Z</time>
      </trkpt>
      <trkpt lat="46.11813" lon="5.86481">
        <ele>1020</ele>
        <time>2019-05-05T16:26:29Z</time>
      </trkpt>
      <trkpt lat="46.11814" lon="5.8648">
        <ele>1019</ele>
        <time>2019-05-05T16:26:30Z</time>
      </trkpt>
      <trkpt lat="46.11814" lon="5.86479">
        <ele>1019</ele>
        <time>2019-05-05T16:26:30Z</time>
      </trkpt>
      <trkpt lat="46.11817" lon="5.86474">
        <ele>1018</ele>
        <time>2019-05-05T16:26:34Z</time>
      </trkpt>
      <trkpt lat="46.11818" lon="5.86472">
        <ele>1018</ele>
        <time>2019-05-05T16:26:35Z</time>
      </trkpt>
      <trkpt lat="46.1182" lon="5.86469">
        <ele>1017</ele>
        <time>2019-05-05T16:26:37Z</time>
      </trkpt>
      <trkpt lat="46.11821" lon="5.86467">
        <ele>1017</ele>
        <time>2019-05-05T16:26:38Z</time>
      </trkpt>
      <trkpt lat="46.11822" lon="5.86465">
        <ele>1017</ele>
        <time>2019-05-05T16:26:39Z</time>
      </trkpt>
      <trkpt lat="46.11825" lon="5.86459">
        <ele>1016</ele>
        <time>2019-05-05T16:26:43Z</time>
      </trkpt>
      <trkpt lat="46.11828" lon="5.86457">
        <ele>1016</ele>
        <time>2019-05-05T16:26:45Z</time>
      </trkpt>
      <trkpt lat="46.11829" lon="5.86457">
        <ele>1017</ele>
        <time>2019-05-05T16:26:47Z</time>
      </trkpt>
      <trkpt lat="46.11832" lon="5.86452">
        <ele>1015</ele>
        <time>2019-05-05T16:26:50Z</time>
      </trkpt>
      <trkpt lat="46.11833" lon="5.8645">
        <ele>1015</ele>
        <time>2019-05-05T16:26:51Z</time>
      </trkpt>
      <trkpt lat="46.11833" lon="5.86448">
        <ele>1015</ele>
        <time>2019-05-05T16:26:52Z</time>
      </trkpt>
      <trkpt lat="46.11834" lon="5.86445">
        <ele>1014</ele>
        <time>2019-05-05T16:26:54Z</time>
      </trkpt>
      <trkpt lat="46.11834" lon="5.86443">
        <ele>1013</ele>
        <time>2019-05-05T16:26:55Z</time>
      </trkpt>
      <trkpt lat="46.11834" lon="5.86441">
        <ele>1012</ele>
        <time>2019-05-05T16:26:56Z</time>
      </trkpt>
      <trkpt lat="46.11835" lon="5.86436">
        <ele>1010</ele>
        <time>2019-05-05T16:26:59Z</time>
      </trkpt>
      <trkpt lat="46.11835" lon="5.86435">
        <ele>1010</ele>
        <time>2019-05-05T16:27:00Z</time>
      </trkpt>
      <trkpt lat="46.11835" lon="5.8643">
        <ele>1008</ele>
        <time>2019-05-05T16:27:03Z</time>
      </trkpt>
      <trkpt lat="46.11836" lon="5.86428">
        <ele>1007</ele>
        <time>2019-05-05T16:27:04Z</time>
      </trkpt>
      <trkpt lat="46.11837" lon="5.86426">
        <ele>1008</ele>
        <time>2019-05-05T16:27:05Z</time>
      </trkpt>
      <trkpt lat="46.1184" lon="5.86425">
        <ele>1008</ele>
        <time>2019-05-05T16:27:08Z</time>
      </trkpt>
      <trkpt lat="46.11841" lon="5.86424">
        <ele>1008</ele>
        <time>2019-05-05T16:27:08Z</time>
      </trkpt>
      <trkpt lat="46.11841" lon="5.86422">
        <ele>1008</ele>
        <time>2019-05-05T16:27:09Z</time>
      </trkpt>
      <trkpt lat="46.11842" lon="5.86419">
        <ele>1007</ele>
        <time>2019-05-05T16:27:11Z</time>
      </trkpt>
      <trkpt lat="46.11842" lon="5.86417">
        <ele>1007</ele>
        <time>2019-05-05T16:27:12Z</time>
      </trkpt>
      <trkpt lat="46.11843" lon="5.86417">
        <ele>1007</ele>
        <time>2019-05-05T16:27:12Z</time>
      </trkpt>
      <trkpt lat="46.11844" lon="5.86413">
        <ele>1006</ele>
        <time>2019-05-05T16:27:14Z</time>
      </trkpt>
      <trkpt lat="46.11845" lon="5.8641">
        <ele>1005</ele>
        <time>2019-05-05T16:27:16Z</time>
      </trkpt>
      <trkpt lat="46.11845" lon="5.86409">
        <ele>1005</ele>
        <time>2019-05-05T16:27:17Z</time>
      </trkpt>
      <trkpt lat="46.11846" lon="5.86407">
        <ele>1005</ele>
        <time>2019-05-05T16:27:18Z</time>
      </trkpt>
      <trkpt lat="46.11846" lon="5.86405">
        <ele>1004</ele>
        <time>2019-05-05T16:27:19Z</time>
      </trkpt>
      <trkpt lat="46.11847" lon="5.864">
        <ele>1003</ele>
        <time>2019-05-05T16:27:22Z</time>
      </trkpt>
      <trkpt lat="46.11848" lon="5.86397">
        <ele>1002</ele>
        <time>2019-05-05T16:27:24Z</time>
      </trkpt>
      <trkpt lat="46.11848" lon="5.86395">
        <ele>1002</ele>
        <time>2019-05-05T16:27:25Z</time>
      </trkpt>
      <trkpt lat="46.11849" lon="5.86393">
        <ele>1001</ele>
        <time>2019-05-05T16:27:26Z</time>
      </trkpt>
      <trkpt lat="46.1185" lon="5.86389">
        <ele>1001</ele>
        <time>2019-05-05T16:27:28Z</time>
      </trkpt>
      <trkpt lat="46.11851" lon="5.86387">
        <ele>1000</ele>
        <time>2019-05-05T16:27:30Z</time>
      </trkpt>
      <trkpt lat="46.11852" lon="5.86385">
        <ele>1000</ele>
        <time>2019-05-05T16:27:30Z</time>
      </trkpt>
      <trkpt lat="46.11854" lon="5.86382">
        <ele>1000</ele>
        <time>2019-05-05T16:27:33Z</time>
      </trkpt>
      <trkpt lat="46.11857" lon="5.8638">
        <ele>1000</ele>
        <time>2019-05-05T16:27:35Z</time>
      </trkpt>
      <trkpt lat="46.11857" lon="5.86378">
        <ele>1000</ele>
        <time>2019-05-05T16:27:36Z</time>
      </trkpt>
      <trkpt lat="46.11859" lon="5.86376">
        <ele>999</ele>
        <time>2019-05-05T16:27:38Z</time>
      </trkpt>
      <trkpt lat="46.11859" lon="5.86375">
        <ele>999</ele>
        <time>2019-05-05T16:27:39Z</time>
      </trkpt>
      <trkpt lat="46.11859" lon="5.86372">
        <ele>999</ele>
        <time>2019-05-05T16:27:40Z</time>
      </trkpt>
      <trkpt lat="46.11861" lon="5.86368">
        <ele>998</ele>
        <time>2019-05-05T16:27:43Z</time>
      </trkpt>
      <trkpt lat="46.11862" lon="5.86367">
        <ele>998</ele>
        <time>2019-05-05T16:27:44Z</time>
      </trkpt>
      <trkpt lat="46.11864" lon="5.86361">
        <ele>996</ele>
        <time>2019-05-05T16:27:47Z</time>
      </trkpt>
      <trkpt lat="46.11864" lon="5.86359">
        <ele>996</ele>
        <time>2019-05-05T16:27:48Z</time>
      </trkpt>
      <trkpt lat="46.11865" lon="5.86358">
        <ele>996</ele>
        <time>2019-05-05T16:27:49Z</time>
      </trkpt>
      <trkpt lat="46.11866" lon="5.86357">
        <ele>996</ele>
        <time>2019-05-05T16:27:50Z</time>
      </trkpt>
      <trkpt lat="46.11867" lon="5.86355">
        <ele>996</ele>
        <time>2019-05-05T16:27:51Z</time>
      </trkpt>
      <trkpt lat="46.11869" lon="5.8635">
        <ele>995</ele>
        <time>2019-05-05T16:27:54Z</time>
      </trkpt>
      <trkpt lat="46.11871" lon="5.86344">
        <ele>994</ele>
        <time>2019-05-05T16:27:57Z</time>
      </trkpt>
      <trkpt lat="46.11872" lon="5.86342">
        <ele>993</ele>
        <time>2019-05-05T16:27:59Z</time>
      </trkpt>
      <trkpt lat="46.11873" lon="5.86339">
        <ele>993</ele>
        <time>2019-05-05T16:28:00Z</time>
      </trkpt>
      <trkpt lat="46.11875" lon="5.86336">
        <ele>993</ele>
        <time>2019-05-05T16:28:02Z</time>
      </trkpt>
      <trkpt lat="46.11876" lon="5.86334">
        <ele>993</ele>
        <time>2019-05-05T16:28:04Z</time>
      </trkpt>
      <trkpt lat="46.11879" lon="5.86327">
        <ele>991</ele>
        <time>2019-05-05T16:28:08Z</time>
      </trkpt>
      <trkpt lat="46.11879" lon="5.86319">
        <ele>989</ele>
        <time>2019-05-05T16:28:12Z</time>
      </trkpt>
      <trkpt lat="46.11879" lon="5.86312">
        <ele>987</ele>
        <time>2019-05-05T16:28:16Z</time>
      </trkpt>
      <trkpt lat="46.11879" lon="5.86309">
        <ele>986</ele>
        <time>2019-05-05T16:28:18Z</time>
      </trkpt>
      <trkpt lat="46.1188" lon="5.86305">
        <ele>985</ele>
        <time>2019-05-05T16:28:20Z</time>
      </trkpt>
      <trkpt lat="46.11881" lon="5.86299">
        <ele>983</ele>
        <time>2019-05-05T16:28:23Z</time>
      </trkpt>
      <trkpt lat="46.11883" lon="5.86296">
        <ele>983</ele>
        <time>2019-05-05T16:28:25Z</time>
      </trkpt>
      <trkpt lat="46.11883" lon="5.86294">
        <ele>982</ele>
        <time>2019-05-05T16:28:27Z</time>
      </trkpt>
      <trkpt lat="46.11883" lon="5.86292">
        <ele>982</ele>
        <time>2019-05-05T16:28:27Z</time>
      </trkpt>
      <trkpt lat="46.11884" lon="5.8629">
        <ele>981</ele>
        <time>2019-05-05T16:28:29Z</time>
      </trkpt>
      <trkpt lat="46.11886" lon="5.86289">
        <ele>982</ele>
        <time>2019-05-05T16:28:31Z</time>
      </trkpt>
      <trkpt lat="46.11888" lon="5.86287">
        <ele>982</ele>
        <time>2019-05-05T16:28:32Z</time>
      </trkpt>
      <trkpt lat="46.1189" lon="5.86284">
        <ele>982</ele>
        <time>2019-05-05T16:28:34Z</time>
      </trkpt>
      <trkpt lat="46.1189" lon="5.86283">
        <ele>981</ele>
        <time>2019-05-05T16:28:35Z</time>
      </trkpt>
      <trkpt lat="46.11892" lon="5.86281">
        <ele>981</ele>
        <time>2019-05-05T16:28:37Z</time>
      </trkpt>
      <trkpt lat="46.11893" lon="5.86277">
        <ele>980</ele>
        <time>2019-05-05T16:28:39Z</time>
      </trkpt>
      <trkpt lat="46.11892" lon="5.86272">
        <ele>979</ele>
        <time>2019-05-05T16:28:42Z</time>
      </trkpt>
      <trkpt lat="46.11891" lon="5.86269">
        <ele>977</ele>
        <time>2019-05-05T16:28:44Z</time>
      </trkpt>
      <trkpt lat="46.1189" lon="5.86268">
        <ele>976</ele>
        <time>2019-05-05T16:28:45Z</time>
      </trkpt>
      <trkpt lat="46.11887" lon="5.86269">
        <ele>976</ele>
        <time>2019-05-05T16:28:47Z</time>
      </trkpt>
      <trkpt lat="46.11885" lon="5.86269">
        <ele>975</ele>
        <time>2019-05-05T16:28:49Z</time>
      </trkpt>
      <trkpt lat="46.11884" lon="5.8627">
        <ele>975</ele>
        <time>2019-05-05T16:28:50Z</time>
      </trkpt>
      <trkpt lat="46.11882" lon="5.86271">
        <ele>974</ele>
        <time>2019-05-05T16:28:51Z</time>
      </trkpt>
      <trkpt lat="46.11881" lon="5.86271">
        <ele>974</ele>
        <time>2019-05-05T16:28:52Z</time>
      </trkpt>
      <trkpt lat="46.11881" lon="5.86271">
        <ele>974</ele>
        <time>2019-05-05T16:28:52Z</time>
      </trkpt>
      <trkpt lat="46.11878" lon="5.86272">
        <ele>973</ele>
        <time>2019-05-05T16:28:54Z</time>
      </trkpt>
      <trkpt lat="46.11877" lon="5.86272">
        <ele>973</ele>
        <time>2019-05-05T16:28:55Z</time>
      </trkpt>
      <trkpt lat="46.11876" lon="5.86274">
        <ele>973</ele>
        <time>2019-05-05T16:28:56Z</time>
      </trkpt>
      <trkpt lat="46.11874" lon="5.86276">
        <ele>973</ele>
        <time>2019-05-05T16:28:58Z</time>
      </trkpt>
      <trkpt lat="46.11872" lon="5.86278">
        <ele>973</ele>
        <time>2019-05-05T16:29:00Z</time>
      </trkpt>
      <trkpt lat="46.11868" lon="5.8628">
        <ele>972</ele>
        <time>2019-05-05T16:29:03Z</time>
      </trkpt>
      <trkpt lat="46.11866" lon="5.86281">
        <ele>971</ele>
        <time>2019-05-05T16:29:05Z</time>
      </trkpt>
      <trkpt lat="46.11864" lon="5.86282">
        <ele>971</ele>
        <time>2019-05-05T16:29:06Z</time>
      </trkpt>
      <trkpt lat="46.11862" lon="5.86283">
        <ele>971</ele>
        <time>2019-05-05T16:29:08Z</time>
      </trkpt>
      <trkpt lat="46.1186" lon="5.86284">
        <ele>970</ele>
        <time>2019-05-05T16:29:09Z</time>
      </trkpt>
      <trkpt lat="46.11857" lon="5.86285">
        <ele>969</ele>
        <time>2019-05-05T16:29:12Z</time>
      </trkpt>
      <trkpt lat="46.11855" lon="5.86283">
        <ele>968</ele>
        <time>2019-05-05T16:29:14Z</time>
      </trkpt>
      <trkpt lat="46.11853" lon="5.86282">
        <ele>967</ele>
        <time>2019-05-05T16:29:15Z</time>
      </trkpt>
      <trkpt lat="46.11849" lon="5.86283">
        <ele>966</ele>
        <time>2019-05-05T16:29:18Z</time>
      </trkpt>
      <trkpt lat="46.11844" lon="5.86284">
        <ele>964</ele>
        <time>2019-05-05T16:29:22Z</time>
      </trkpt>
      <trkpt lat="46.11843" lon="5.86283">
        <ele>964</ele>
        <time>2019-05-05T16:29:23Z</time>
      </trkpt>
      <trkpt lat="46.1184" lon="5.86282">
        <ele>962</ele>
        <time>2019-05-05T16:29:25Z</time>
      </trkpt>
      <trkpt lat="46.11837" lon="5.86282">
        <ele>961</ele>
        <time>2019-05-05T16:29:27Z</time>
      </trkpt>
      <trkpt lat="46.11834" lon="5.86282">
        <ele>960</ele>
        <time>2019-05-05T16:29:30Z</time>
      </trkpt>
      <trkpt lat="46.1183" lon="5.86279">
        <ele>958</ele>
        <time>2019-05-05T16:29:33Z</time>
      </trkpt>
      <trkpt lat="46.11828" lon="5.86277">
        <ele>957</ele>
        <time>2019-05-05T16:29:35Z</time>
      </trkpt>
      <trkpt lat="46.11827" lon="5.86276">
        <ele>956</ele>
        <time>2019-05-05T16:29:36Z</time>
      </trkpt>
      <trkpt lat="46.11825" lon="5.86275">
        <ele>955</ele>
        <time>2019-05-05T16:29:38Z</time>
      </trkpt>
      <trkpt lat="46.11824" lon="5.86275">
        <ele>955</ele>
        <time>2019-05-05T16:29:39Z</time>
      </trkpt>
      <trkpt lat="46.11822" lon="5.86275">
        <ele>954</ele>
        <time>2019-05-05T16:29:40Z</time>
      </trkpt>
      <trkpt lat="46.11823" lon="5.86275">
        <ele>954</ele>
        <time>2019-05-05T16:29:40Z</time>
      </trkpt>
      <trkpt lat="46.11823" lon="5.86274">
        <ele>954</ele>
        <time>2019-05-05T16:29:41Z</time>
      </trkpt>
      <trkpt lat="46.11826" lon="5.86268">
        <ele>953</ele>
        <time>2019-05-05T16:29:45Z</time>
      </trkpt>
      <trkpt lat="46.11827" lon="5.86265">
        <ele>953</ele>
        <time>2019-05-05T16:29:46Z</time>
      </trkpt>
      <trkpt lat="46.11826" lon="5.86264">
        <ele>952</ele>
        <time>2019-05-05T16:29:47Z</time>
      </trkpt>
      <trkpt lat="46.11828" lon="5.8626">
        <ele>952</ele>
        <time>2019-05-05T16:29:49Z</time>
      </trkpt>
      <trkpt lat="46.11829" lon="5.86255">
        <ele>951</ele>
        <time>2019-05-05T16:29:52Z</time>
      </trkpt>
      <trkpt lat="46.11829" lon="5.86252">
        <ele>950</ele>
        <time>2019-05-05T16:29:54Z</time>
      </trkpt>
      <trkpt lat="46.11829" lon="5.86247">
        <ele>949</ele>
        <time>2019-05-05T16:29:56Z</time>
      </trkpt>
      <trkpt lat="46.11829" lon="5.86244">
        <ele>949</ele>
        <time>2019-05-05T16:29:58Z</time>
      </trkpt>
      <trkpt lat="46.11829" lon="5.86241">
        <ele>948</ele>
        <time>2019-05-05T16:30:00Z</time>
      </trkpt>
      <trkpt lat="46.11825" lon="5.86229">
        <ele>944</ele>
        <time>2019-05-05T16:30:07Z</time>
      </trkpt>
      <trkpt lat="46.11824" lon="5.86228">
        <ele>944</ele>
        <time>2019-05-05T16:30:07Z</time>
      </trkpt>
      <trkpt lat="46.11824" lon="5.86227">
        <ele>944</ele>
        <time>2019-05-05T16:30:08Z</time>
      </trkpt>
      <trkpt lat="46.11823" lon="5.86226">
        <ele>943</ele>
        <time>2019-05-05T16:30:09Z</time>
      </trkpt>
      <trkpt lat="46.11822" lon="5.86226">
        <ele>943</ele>
        <time>2019-05-05T16:30:10Z</time>
      </trkpt>
      <trkpt lat="46.1182" lon="5.86226">
        <ele>942</ele>
        <time>2019-05-05T16:30:11Z</time>
      </trkpt>
      <trkpt lat="46.11818" lon="5.86225">
        <ele>941</ele>
        <time>2019-05-05T16:30:13Z</time>
      </trkpt>
      <trkpt lat="46.11814" lon="5.86223">
        <ele>940</ele>
        <time>2019-05-05T16:30:16Z</time>
      </trkpt>
      <trkpt lat="46.11812" lon="5.86222">
        <ele>939</ele>
        <time>2019-05-05T16:30:18Z</time>
      </trkpt>
      <trkpt lat="46.11809" lon="5.86224">
        <ele>938</ele>
        <time>2019-05-05T16:30:20Z</time>
      </trkpt>
      <trkpt lat="46.11806" lon="5.86223">
        <ele>937</ele>
        <time>2019-05-05T16:30:22Z</time>
      </trkpt>
      <trkpt lat="46.11805" lon="5.86222">
        <ele>937</ele>
        <time>2019-05-05T16:30:23Z</time>
      </trkpt>
      <trkpt lat="46.11804" lon="5.86222">
        <ele>937</ele>
        <time>2019-05-05T16:30:24Z</time>
      </trkpt>
      <trkpt lat="46.118" lon="5.86222">
        <ele>936</ele>
        <time>2019-05-05T16:30:27Z</time>
      </trkpt>
      <trkpt lat="46.11799" lon="5.86223">
        <ele>936</ele>
        <time>2019-05-05T16:30:27Z</time>
      </trkpt>
      <trkpt lat="46.11799" lon="5.86223">
        <ele>935</ele>
        <time>2019-05-05T16:30:28Z</time>
      </trkpt>
      <trkpt lat="46.11797" lon="5.86224">
        <ele>935</ele>
        <time>2019-05-05T16:30:29Z</time>
      </trkpt>
      <trkpt lat="46.11796" lon="5.86223">
        <ele>935</ele>
        <time>2019-05-05T16:30:30Z</time>
      </trkpt>
      <trkpt lat="46.11796" lon="5.86223">
        <ele>934</ele>
        <time>2019-05-05T16:30:31Z</time>
      </trkpt>
      <trkpt lat="46.11795" lon="5.86222">
        <ele>934</ele>
        <time>2019-05-05T16:30:31Z</time>
      </trkpt>
      <trkpt lat="46.11791" lon="5.86218">
        <ele>932</ele>
        <time>2019-05-05T16:30:35Z</time>
      </trkpt>
      <trkpt lat="46.11788" lon="5.86214">
        <ele>931</ele>
        <time>2019-05-05T16:30:38Z</time>
      </trkpt>
      <trkpt lat="46.11784" lon="5.86208">
        <ele>928</ele>
        <time>2019-05-05T16:30:43Z</time>
      </trkpt>
      <trkpt lat="46.11782" lon="5.86205">
        <ele>927</ele>
        <time>2019-05-05T16:30:45Z</time>
      </trkpt>
      <trkpt lat="46.11781" lon="5.86205">
        <ele>927</ele>
        <time>2019-05-05T16:30:46Z</time>
      </trkpt>
      <trkpt lat="46.1178" lon="5.86206">
        <ele>927</ele>
        <time>2019-05-05T16:30:46Z</time>
      </trkpt>
      <trkpt lat="46.11781" lon="5.86203">
        <ele>927</ele>
        <time>2019-05-05T16:30:48Z</time>
      </trkpt>
      <trkpt lat="46.11779" lon="5.86197">
        <ele>925</ele>
        <time>2019-05-05T16:30:52Z</time>
      </trkpt>
      <trkpt lat="46.11776" lon="5.86193">
        <ele>924</ele>
        <time>2019-05-05T16:30:55Z</time>
      </trkpt>
      <trkpt lat="46.11775" lon="5.86191">
        <ele>923</ele>
        <time>2019-05-05T16:30:56Z</time>
      </trkpt>
      <trkpt lat="46.11773" lon="5.86187">
        <ele>922</ele>
        <time>2019-05-05T16:30:59Z</time>
      </trkpt>
      <trkpt lat="46.11773" lon="5.86184">
        <ele>921</ele>
        <time>2019-05-05T16:31:00Z</time>
      </trkpt>
      <trkpt lat="46.11772" lon="5.86181">
        <ele>921</ele>
        <time>2019-05-05T16:31:02Z</time>
      </trkpt>
      <trkpt lat="46.11772" lon="5.86179">
        <ele>920</ele>
        <time>2019-05-05T16:31:03Z</time>
      </trkpt>
      <trkpt lat="46.11772" lon="5.86177">
        <ele>920</ele>
        <time>2019-05-05T16:31:04Z</time>
      </trkpt>
      <trkpt lat="46.11771" lon="5.86172">
        <ele>919</ele>
        <time>2019-05-05T16:31:07Z</time>
      </trkpt>
      <trkpt lat="46.11772" lon="5.86168">
        <ele>918</ele>
        <time>2019-05-05T16:31:09Z</time>
      </trkpt>
      <trkpt lat="46.11772" lon="5.86165">
        <ele>918</ele>
        <time>2019-05-05T16:31:10Z</time>
      </trkpt>
      <trkpt lat="46.11772" lon="5.86161">
        <ele>917</ele>
        <time>2019-05-05T16:31:13Z</time>
      </trkpt>
      <trkpt lat="46.11772" lon="5.8616">
        <ele>917</ele>
        <time>2019-05-05T16:31:13Z</time>
      </trkpt>
      <trkpt lat="46.11773" lon="5.86157">
        <ele>917</ele>
        <time>2019-05-05T16:31:15Z</time>
      </trkpt>
      <trkpt lat="46.11772" lon="5.86152">
        <ele>916</ele>
        <time>2019-05-05T16:31:17Z</time>
      </trkpt>
      <trkpt lat="46.11772" lon="5.86152">
        <ele>915</ele>
        <time>2019-05-05T16:31:18Z</time>
      </trkpt>
      <trkpt lat="46.11772" lon="5.8615">
        <ele>915</ele>
        <time>2019-05-05T16:31:19Z</time>
      </trkpt>
      <trkpt lat="46.11769" lon="5.86147">
        <ele>914</ele>
        <time>2019-05-05T16:31:22Z</time>
      </trkpt>
      <trkpt lat="46.11768" lon="5.86145">
        <ele>913</ele>
        <time>2019-05-05T16:31:23Z</time>
      </trkpt>
      <trkpt lat="46.11766" lon="5.86143">
        <ele>912</ele>
        <time>2019-05-05T16:31:25Z</time>
      </trkpt>
      <trkpt lat="46.11767" lon="5.86142">
        <ele>912</ele>
        <time>2019-05-05T16:31:25Z</time>
      </trkpt>
      <trkpt lat="46.11767" lon="5.8614">
        <ele>912</ele>
        <time>2019-05-05T16:31:26Z</time>
      </trkpt>
      <trkpt lat="46.11765" lon="5.86132">
        <ele>910</ele>
        <time>2019-05-05T16:31:30Z</time>
      </trkpt>
      <trkpt lat="46.11764" lon="5.86131">
        <ele>910</ele>
        <time>2019-05-05T16:31:32Z</time>
      </trkpt>
      <trkpt lat="46.11763" lon="5.86128">
        <ele>909</ele>
        <time>2019-05-05T16:31:33Z</time>
      </trkpt>
      <trkpt lat="46.11764" lon="5.86126">
        <ele>909</ele>
        <time>2019-05-05T16:31:34Z</time>
      </trkpt>
      <trkpt lat="46.11764" lon="5.86121">
        <ele>908</ele>
        <time>2019-05-05T16:31:36Z</time>
      </trkpt>
      <trkpt lat="46.11764" lon="5.86118">
        <ele>908</ele>
        <time>2019-05-05T16:31:38Z</time>
      </trkpt>
      <trkpt lat="46.11764" lon="5.86114">
        <ele>907</ele>
        <time>2019-05-05T16:31:40Z</time>
      </trkpt>
      <trkpt lat="46.11764" lon="5.86109">
        <ele>906</ele>
        <time>2019-05-05T16:31:43Z</time>
      </trkpt>
      <trkpt lat="46.11764" lon="5.86105">
        <ele>905</ele>
        <time>2019-05-05T16:31:45Z</time>
      </trkpt>
      <trkpt lat="46.11765" lon="5.86104">
        <ele>905</ele>
        <time>2019-05-05T16:31:46Z</time>
      </trkpt>
      <trkpt lat="46.11765" lon="5.86101">
        <ele>905</ele>
        <time>2019-05-05T16:31:47Z</time>
      </trkpt>
      <trkpt lat="46.11766" lon="5.86095">
        <ele>904</ele>
        <time>2019-05-05T16:31:50Z</time>
      </trkpt>
      <trkpt lat="46.11764" lon="5.86087">
        <ele>902</ele>
        <time>2019-05-05T16:31:55Z</time>
      </trkpt>
      <trkpt lat="46.11763" lon="5.86083">
        <ele>901</ele>
        <time>2019-05-05T16:31:57Z</time>
      </trkpt>
      <trkpt lat="46.11764" lon="5.8608">
        <ele>900</ele>
        <time>2019-05-05T16:31:58Z</time>
      </trkpt>
      <trkpt lat="46.11764" lon="5.86079">
        <ele>900</ele>
        <time>2019-05-05T16:31:59Z</time>
      </trkpt>
      <trkpt lat="46.11765" lon="5.86072">
        <ele>899</ele>
        <time>2019-05-05T16:32:03Z</time>
      </trkpt>
      <trkpt lat="46.11765" lon="5.8607">
        <ele>899</ele>
        <time>2019-05-05T16:32:04Z</time>
      </trkpt>
      <trkpt lat="46.11767" lon="5.86065">
        <ele>898</ele>
        <time>2019-05-05T16:32:06Z</time>
      </trkpt>
      <trkpt lat="46.11767" lon="5.86062">
        <ele>897</ele>
        <time>2019-05-05T16:32:08Z</time>
      </trkpt>
      <trkpt lat="46.11766" lon="5.86061">
        <ele>897</ele>
        <time>2019-05-05T16:32:09Z</time>
      </trkpt>
      <trkpt lat="46.11763" lon="5.86055">
        <ele>895</ele>
        <time>2019-05-05T16:32:13Z</time>
      </trkpt>
      <trkpt lat="46.11763" lon="5.86053">
        <ele>894</ele>
        <time>2019-05-05T16:32:14Z</time>
      </trkpt>
      <trkpt lat="46.11763" lon="5.8605">
        <ele>894</ele>
        <time>2019-05-05T16:32:15Z</time>
      </trkpt>
      <trkpt lat="46.11763" lon="5.86046">
        <ele>893</ele>
        <time>2019-05-05T16:32:17Z</time>
      </trkpt>
      <trkpt lat="46.11763" lon="5.86039">
        <ele>891</ele>
        <time>2019-05-05T16:32:21Z</time>
      </trkpt>
      <trkpt lat="46.11763" lon="5.86035">
        <ele>891</ele>
        <time>2019-05-05T16:32:23Z</time>
      </trkpt>
      <trkpt lat="46.11761" lon="5.86016">
        <ele>886</ele>
        <time>2019-05-05T16:32:34Z</time>
      </trkpt>
      <trkpt lat="46.1176" lon="5.86009">
        <ele>885</ele>
        <time>2019-05-05T16:32:37Z</time>
      </trkpt>
      <trkpt lat="46.1176" lon="5.86">
        <ele>883</ele>
        <time>2019-05-05T16:32:42Z</time>
      </trkpt>
      <trkpt lat="46.1176" lon="5.85995">
        <ele>881</ele>
        <time>2019-05-05T16:32:45Z</time>
      </trkpt>
      <trkpt lat="46.1176" lon="5.8599">
        <ele>880</ele>
        <time>2019-05-05T16:32:47Z</time>
      </trkpt>
      <trkpt lat="46.11758" lon="5.85986">
        <ele>879</ele>
        <time>2019-05-05T16:32:50Z</time>
      </trkpt>
      <trkpt lat="46.11757" lon="5.85981">
        <ele>877</ele>
        <time>2019-05-05T16:32:53Z</time>
      </trkpt>
      <trkpt lat="46.11757" lon="5.85976">
        <ele>876</ele>
        <time>2019-05-05T16:32:55Z</time>
      </trkpt>
      <trkpt lat="46.11755" lon="5.8597">
        <ele>874</ele>
        <time>2019-05-05T16:32:59Z</time>
      </trkpt>
      <trkpt lat="46.11753" lon="5.85961">
        <ele>872</ele>
        <time>2019-05-05T16:33:04Z</time>
      </trkpt>
      <trkpt lat="46.11751" lon="5.85957">
        <ele>870</ele>
        <time>2019-05-05T16:33:06Z</time>
      </trkpt>
      <trkpt lat="46.11751" lon="5.85954">
        <ele>870</ele>
        <time>2019-05-05T16:33:08Z</time>
      </trkpt>
      <trkpt lat="46.11751" lon="5.85952">
        <ele>869</ele>
        <time>2019-05-05T16:33:09Z</time>
      </trkpt>
      <trkpt lat="46.11751" lon="5.85947">
        <ele>868</ele>
        <time>2019-05-05T16:33:12Z</time>
      </trkpt>
      <trkpt lat="46.11752" lon="5.85941">
        <ele>867</ele>
        <time>2019-05-05T16:33:14Z</time>
      </trkpt>
      <trkpt lat="46.11754" lon="5.85935">
        <ele>866</ele>
        <time>2019-05-05T16:33:18Z</time>
      </trkpt>
      <trkpt lat="46.11756" lon="5.8593">
        <ele>866</ele>
        <time>2019-05-05T16:33:21Z</time>
      </trkpt>
      <trkpt lat="46.11757" lon="5.85925">
        <ele>865</ele>
        <time>2019-05-05T16:33:24Z</time>
      </trkpt>
      <trkpt lat="46.1176" lon="5.85916">
        <ele>864</ele>
        <time>2019-05-05T16:33:28Z</time>
      </trkpt>
      <trkpt lat="46.11763" lon="5.8591">
        <ele>864</ele>
        <time>2019-05-05T16:33:32Z</time>
      </trkpt>
      <trkpt lat="46.11767" lon="5.85904">
        <ele>864</ele>
        <time>2019-05-05T16:33:36Z</time>
      </trkpt>
      <trkpt lat="46.11771" lon="5.85896">
        <ele>863</ele>
        <time>2019-05-05T16:33:41Z</time>
      </trkpt>
      <trkpt lat="46.11773" lon="5.85884">
        <ele>862</ele>
        <time>2019-05-05T16:33:48Z</time>
      </trkpt>
      <trkpt lat="46.11776" lon="5.85879">
        <ele>861</ele>
        <time>2019-05-05T16:33:51Z</time>
      </trkpt>
      <trkpt lat="46.1178" lon="5.85863">
        <ele>859</ele>
        <time>2019-05-05T16:34:00Z</time>
      </trkpt>
      <trkpt lat="46.11782" lon="5.85856">
        <ele>858</ele>
        <time>2019-05-05T16:34:03Z</time>
      </trkpt>
      <trkpt lat="46.11784" lon="5.85851">
        <ele>857</ele>
        <time>2019-05-05T16:34:06Z</time>
      </trkpt>
      <trkpt lat="46.11788" lon="5.85842">
        <ele>856</ele>
        <time>2019-05-05T16:34:12Z</time>
      </trkpt>
      <trkpt lat="46.11789" lon="5.8584">
        <ele>856</ele>
        <time>2019-05-05T16:34:13Z</time>
      </trkpt>
      <trkpt lat="46.11793" lon="5.85835">
        <ele>856</ele>
        <time>2019-05-05T16:34:17Z</time>
      </trkpt>
      <trkpt lat="46.11796" lon="5.8583">
        <ele>855</ele>
        <time>2019-05-05T16:34:20Z</time>
      </trkpt>
      <trkpt lat="46.11799" lon="5.85822">
        <ele>854</ele>
        <time>2019-05-05T16:34:25Z</time>
      </trkpt>
      <trkpt lat="46.11801" lon="5.85813">
        <ele>853</ele>
        <time>2019-05-05T16:34:30Z</time>
      </trkpt>
      <trkpt lat="46.11801" lon="5.85808">
        <ele>852</ele>
        <time>2019-05-05T16:34:32Z</time>
      </trkpt>
      <trkpt lat="46.11802" lon="5.85805">
        <ele>852</ele>
        <time>2019-05-05T16:34:34Z</time>
      </trkpt>
      <trkpt lat="46.11803" lon="5.858">
        <ele>851</ele>
        <time>2019-05-05T16:34:36Z</time>
      </trkpt>
      <trkpt lat="46.11809" lon="5.85793">
        <ele>850</ele>
        <time>2019-05-05T16:34:42Z</time>
      </trkpt>
      <trkpt lat="46.1181" lon="5.85792">
        <ele>850</ele>
        <time>2019-05-05T16:34:43Z</time>
      </trkpt>
      <trkpt lat="46.11812" lon="5.85791">
        <ele>850</ele>
        <time>2019-05-05T16:34:45Z</time>
      </trkpt>
      <trkpt lat="46.11813" lon="5.85791">
        <ele>850</ele>
        <time>2019-05-05T16:34:46Z</time>
      </trkpt>
      <trkpt lat="46.11815" lon="5.8579">
        <ele>850</ele>
        <time>2019-05-05T16:34:47Z</time>
      </trkpt>
      <trkpt lat="46.11817" lon="5.85788">
        <ele>850</ele>
        <time>2019-05-05T16:34:49Z</time>
      </trkpt>
      <trkpt lat="46.11817" lon="5.85786">
        <ele>850</ele>
        <time>2019-05-05T16:34:50Z</time>
      </trkpt>
      <trkpt lat="46.11821" lon="5.85775">
        <ele>848</ele>
        <time>2019-05-05T16:34:56Z</time>
      </trkpt>
      <trkpt lat="46.11826" lon="5.85764">
        <ele>847</ele>
        <time>2019-05-05T16:35:02Z</time>
      </trkpt>
      <trkpt lat="46.11831" lon="5.8575">
        <ele>845</ele>
        <time>2019-05-05T16:35:11Z</time>
      </trkpt>
      <trkpt lat="46.11833" lon="5.85746">
        <ele>844</ele>
        <time>2019-05-05T16:35:13Z</time>
      </trkpt>
      <trkpt lat="46.11835" lon="5.85741">
        <ele>843</ele>
        <time>2019-05-05T16:35:16Z</time>
      </trkpt>
      <trkpt lat="46.11835" lon="5.8574">
        <ele>843</ele>
        <time>2019-05-05T16:35:17Z</time>
      </trkpt>
      <trkpt lat="46.11836" lon="5.85739">
        <ele>843</ele>
        <time>2019-05-05T16:35:17Z</time>
      </trkpt>
      <trkpt lat="46.11837" lon="5.85738">
        <ele>843</ele>
        <time>2019-05-05T16:35:18Z</time>
      </trkpt>
      <trkpt lat="46.11838" lon="5.85737">
        <ele>842</ele>
        <time>2019-05-05T16:35:19Z</time>
      </trkpt>
      <trkpt lat="46.11839" lon="5.85735">
        <ele>842</ele>
        <time>2019-05-05T16:35:21Z</time>
      </trkpt>
      <trkpt lat="46.1184" lon="5.85734">
        <ele>842</ele>
        <time>2019-05-05T16:35:22Z</time>
      </trkpt>
      <trkpt lat="46.11842" lon="5.85729">
        <ele>841</ele>
        <time>2019-05-05T16:35:25Z</time>
      </trkpt>
      <trkpt lat="46.11846" lon="5.85722">
        <ele>840</ele>
        <time>2019-05-05T16:35:29Z</time>
      </trkpt>
      <trkpt lat="46.11852" lon="5.85714">
        <ele>839</ele>
        <time>2019-05-05T16:35:35Z</time>
      </trkpt>
      <trkpt lat="46.11854" lon="5.8571">
        <ele>838</ele>
        <time>2019-05-05T16:35:38Z</time>
      </trkpt>
      <trkpt lat="46.11856" lon="5.85707">
        <ele>838</ele>
        <time>2019-05-05T16:35:40Z</time>
      </trkpt>
      <trkpt lat="46.11857" lon="5.85703">
        <ele>837</ele>
        <time>2019-05-05T16:35:42Z</time>
      </trkpt>
      <trkpt lat="46.11859" lon="5.85698">
        <ele>836</ele>
        <time>2019-05-05T16:35:45Z</time>
      </trkpt>
      <trkpt lat="46.1186" lon="5.85696">
        <ele>836</ele>
        <time>2019-05-05T16:35:46Z</time>
      </trkpt>
      <trkpt lat="46.1186" lon="5.85694">
        <ele>835</ele>
        <time>2019-05-05T16:35:47Z</time>
      </trkpt>
      <trkpt lat="46.11861" lon="5.85693">
        <ele>835</ele>
        <time>2019-05-05T16:35:48Z</time>
      </trkpt>
      <trkpt lat="46.11861" lon="5.85693">
        <ele>835</ele>
        <time>2019-05-05T16:35:48Z</time>
      </trkpt>
      <trkpt lat="46.11865" lon="5.85691">
        <ele>835</ele>
        <time>2019-05-05T16:35:51Z</time>
      </trkpt>
      <trkpt lat="46.11865" lon="5.8569">
        <ele>835</ele>
        <time>2019-05-05T16:35:52Z</time>
      </trkpt>
      <trkpt lat="46.11867" lon="5.85687">
        <ele>834</ele>
        <time>2019-05-05T16:35:53Z</time>
      </trkpt>
      <trkpt lat="46.11867" lon="5.85685">
        <ele>833</ele>
        <time>2019-05-05T16:35:55Z</time>
      </trkpt>
      <trkpt lat="46.11868" lon="5.8568">
        <ele>832</ele>
        <time>2019-05-05T16:35:58Z</time>
      </trkpt>
      <trkpt lat="46.11868" lon="5.85677">
        <ele>832</ele>
        <time>2019-05-05T16:35:59Z</time>
      </trkpt>
      <trkpt lat="46.11867" lon="5.85675">
        <ele>831</ele>
        <time>2019-05-05T16:36:00Z</time>
      </trkpt>
      <trkpt lat="46.11866" lon="5.85671">
        <ele>830</ele>
        <time>2019-05-05T16:36:02Z</time>
      </trkpt>
      <trkpt lat="46.11865" lon="5.85667">
        <ele>829</ele>
        <time>2019-05-05T16:36:05Z</time>
      </trkpt>
      <trkpt lat="46.11865" lon="5.85665">
        <ele>828</ele>
        <time>2019-05-05T16:36:06Z</time>
      </trkpt>
      <trkpt lat="46.11865" lon="5.85661">
        <ele>827</ele>
        <time>2019-05-05T16:36:08Z</time>
      </trkpt>
      <trkpt lat="46.11863" lon="5.85656">
        <ele>826</ele>
        <time>2019-05-05T16:36:11Z</time>
      </trkpt>
      <trkpt lat="46.11861" lon="5.85652">
        <ele>825</ele>
        <time>2019-05-05T16:36:14Z</time>
      </trkpt>
      <trkpt lat="46.11861" lon="5.8565">
        <ele>825</ele>
        <time>2019-05-05T16:36:14Z</time>
      </trkpt>
      <trkpt lat="46.11859" lon="5.85644">
        <ele>823</ele>
        <time>2019-05-05T16:36:18Z</time>
      </trkpt>
      <trkpt lat="46.11858" lon="5.85643">
        <ele>823</ele>
        <time>2019-05-05T16:36:19Z</time>
      </trkpt>
      <trkpt lat="46.11857" lon="5.85643">
        <ele>823</ele>
        <time>2019-05-05T16:36:20Z</time>
      </trkpt>
      <trkpt lat="46.11857" lon="5.85643">
        <ele>823</ele>
        <time>2019-05-05T16:36:20Z</time>
      </trkpt>
      <trkpt lat="46.11858" lon="5.85636">
        <ele>821</ele>
        <time>2019-05-05T16:36:24Z</time>
      </trkpt>
      <trkpt lat="46.11858" lon="5.85633">
        <ele>820</ele>
        <time>2019-05-05T16:36:25Z</time>
      </trkpt>
      <trkpt lat="46.11855" lon="5.85624">
        <ele>818</ele>
        <time>2019-05-05T16:36:31Z</time>
      </trkpt>
      <trkpt lat="46.11855" lon="5.8562">
        <ele>817</ele>
        <time>2019-05-05T16:36:33Z</time>
      </trkpt>
      <trkpt lat="46.11855" lon="5.85617">
        <ele>816</ele>
        <time>2019-05-05T16:36:34Z</time>
      </trkpt>
      <trkpt lat="46.11857" lon="5.85611">
        <ele>815</ele>
        <time>2019-05-05T16:36:37Z</time>
      </trkpt>
      <trkpt lat="46.11858" lon="5.85605">
        <ele>813</ele>
        <time>2019-05-05T16:36:41Z</time>
      </trkpt>
      <trkpt lat="46.11859" lon="5.856">
        <ele>812</ele>
        <time>2019-05-05T16:36:44Z</time>
      </trkpt>
      <trkpt lat="46.1186" lon="5.8559">
        <ele>810</ele>
        <time>2019-05-05T16:36:49Z</time>
      </trkpt>
      <trkpt lat="46.11861" lon="5.85587">
        <ele>810</ele>
        <time>2019-05-05T16:36:51Z</time>
      </trkpt>
      <trkpt lat="46.11862" lon="5.85585">
        <ele>809</ele>
        <time>2019-05-05T16:36:52Z</time>
      </trkpt>
      <trkpt lat="46.11863" lon="5.8558">
        <ele>809</ele>
        <time>2019-05-05T16:36:55Z</time>
      </trkpt>
      <trkpt lat="46.11863" lon="5.85572">
        <ele>807</ele>
        <time>2019-05-05T16:36:59Z</time>
      </trkpt>
      <trkpt lat="46.11863" lon="5.85569">
        <ele>807</ele>
        <time>2019-05-05T16:37:00Z</time>
      </trkpt>
      <trkpt lat="46.11863" lon="5.85553">
        <ele>804</ele>
        <time>2019-05-05T16:37:08Z</time>
      </trkpt>
      <trkpt lat="46.11863" lon="5.85551">
        <ele>804</ele>
        <time>2019-05-05T16:37:09Z</time>
      </trkpt>
      <trkpt lat="46.11863" lon="5.8555">
        <ele>803</ele>
        <time>2019-05-05T16:37:10Z</time>
      </trkpt>
      <trkpt lat="46.11862" lon="5.85549">
        <ele>803</ele>
        <time>2019-05-05T16:37:11Z</time>
      </trkpt>
      <trkpt lat="46.11861" lon="5.85549">
        <ele>803</ele>
        <time>2019-05-05T16:37:12Z</time>
      </trkpt>
      <trkpt lat="46.11859" lon="5.85548">
        <ele>803</ele>
        <time>2019-05-05T16:37:13Z</time>
      </trkpt>
      <trkpt lat="46.11859" lon="5.85548">
        <ele>803</ele>
        <time>2019-05-05T16:37:14Z</time>
      </trkpt>
      <trkpt lat="46.11859" lon="5.85548">
        <ele>803</ele>
        <time>2019-05-05T16:37:14Z</time>
      </trkpt>
      <trkpt lat="46.1186" lon="5.85553">
        <ele>804</ele>
        <time>2019-05-05T16:37:16Z</time>
      </trkpt>
      <trkpt lat="46.11862" lon="5.85548">
        <ele>803</ele>
        <time>2019-05-05T16:37:19Z</time>
      </trkpt>
      <trkpt lat="46.11864" lon="5.85546">
        <ele>803</ele>
        <time>2019-05-05T16:37:21Z</time>
      </trkpt>
      <trkpt lat="46.1186" lon="5.85548">
        <ele>803</ele>
        <time>2019-05-05T16:37:24Z</time>
      </trkpt>
      <trkpt lat="46.11854" lon="5.85552">
        <ele>803</ele>
        <time>2019-05-05T16:37:28Z</time>
      </trkpt>
      <trkpt lat="46.11851" lon="5.85555">
        <ele>803</ele>
        <time>2019-05-05T16:37:31Z</time>
      </trkpt>
      <trkpt lat="46.11846" lon="5.85558">
        <ele>803</ele>
        <time>2019-05-05T16:37:35Z</time>
      </trkpt>
      <trkpt lat="46.1184" lon="5.85559">
        <ele>803</ele>
        <time>2019-05-05T16:37:39Z</time>
      </trkpt>
      <trkpt lat="46.11839" lon="5.8556">
        <ele>803</ele>
        <time>2019-05-05T16:37:40Z</time>
      </trkpt>
      <trkpt lat="46.11831" lon="5.85562">
        <ele>802</ele>
        <time>2019-05-05T16:37:46Z</time>
      </trkpt>
      <trkpt lat="46.11825" lon="5.85564">
        <ele>801</ele>
        <time>2019-05-05T16:37:51Z</time>
      </trkpt>
      <trkpt lat="46.11821" lon="5.85567">
        <ele>801</ele>
        <time>2019-05-05T16:37:54Z</time>
      </trkpt>
      <trkpt lat="46.11811" lon="5.85573">
        <ele>801</ele>
        <time>2019-05-05T16:38:02Z</time>
      </trkpt>
      <trkpt lat="46.11811" lon="5.85573">
        <ele>801</ele>
        <time>2019-05-05T16:38:02Z</time>
      </trkpt>
      <trkpt lat="46.1181" lon="5.85574">
        <ele>801</ele>
        <time>2019-05-05T16:38:03Z</time>
      </trkpt>
      <trkpt lat="46.11806" lon="5.85573">
        <ele>800</ele>
        <time>2019-05-05T16:38:06Z</time>
      </trkpt>
      <trkpt lat="46.11799" lon="5.85575">
        <ele>799</ele>
        <time>2019-05-05T16:38:11Z</time>
      </trkpt>
      <trkpt lat="46.11797" lon="5.85576">
        <ele>799</ele>
        <time>2019-05-05T16:38:12Z</time>
      </trkpt>
      <trkpt lat="46.11791" lon="5.85577">
        <ele>798</ele>
        <time>2019-05-05T16:38:17Z</time>
      </trkpt>
      <trkpt lat="46.11788" lon="5.85577">
        <ele>798</ele>
        <time>2019-05-05T16:38:19Z</time>
      </trkpt>
      <trkpt lat="46.11786" lon="5.85577">
        <ele>798</ele>
        <time>2019-05-05T16:38:20Z</time>
      </trkpt>
      <trkpt lat="46.11785" lon="5.85577">
        <ele>798</ele>
        <time>2019-05-05T16:38:21Z</time>
      </trkpt>
      <trkpt lat="46.11769" lon="5.85576">
        <ele>795</ele>
        <time>2019-05-05T16:38:33Z</time>
      </trkpt>
      <trkpt lat="46.11757" lon="5.85577">
        <ele>794</ele>
        <time>2019-05-05T16:38:42Z</time>
      </trkpt>
      <trkpt lat="46.11754" lon="5.85576">
        <ele>793</ele>
        <time>2019-05-05T16:38:44Z</time>
      </trkpt>
      <trkpt lat="46.11752" lon="5.85577">
        <ele>793</ele>
        <time>2019-05-05T16:38:45Z</time>
      </trkpt>
      <trkpt lat="46.11747" lon="5.85577">
        <ele>793</ele>
        <time>2019-05-05T16:38:49Z</time>
      </trkpt>
      <trkpt lat="46.11738" lon="5.85575">
        <ele>791</ele>
        <time>2019-05-05T16:38:56Z</time>
      </trkpt>
      <trkpt lat="46.11737" lon="5.85575">
        <ele>791</ele>
        <time>2019-05-05T16:38:56Z</time>
      </trkpt>
      <trkpt lat="46.11735" lon="5.85575">
        <ele>791</ele>
        <time>2019-05-05T16:38:58Z</time>
      </trkpt>
      <trkpt lat="46.11733" lon="5.85574">
        <ele>791</ele>
        <time>2019-05-05T16:38:59Z</time>
      </trkpt>
      <trkpt lat="46.11729" lon="5.85575">
        <ele>790</ele>
        <time>2019-05-05T16:39:02Z</time>
      </trkpt>
      <trkpt lat="46.11728" lon="5.85575">
        <ele>790</ele>
        <time>2019-05-05T16:39:03Z</time>
      </trkpt>
      <trkpt lat="46.11726" lon="5.85575">
        <ele>790</ele>
        <time>2019-05-05T16:39:04Z</time>
      </trkpt>
      <trkpt lat="46.11722" lon="5.85575">
        <ele>789</ele>
        <time>2019-05-05T16:39:08Z</time>
      </trkpt>
      <trkpt lat="46.11717" lon="5.85574">
        <ele>789</ele>
        <time>2019-05-05T16:39:11Z</time>
      </trkpt>
      <trkpt lat="46.11716" lon="5.85574">
        <ele>788</ele>
        <time>2019-05-05T16:39:12Z</time>
      </trkpt>
      <trkpt lat="46.11711" lon="5.85572">
        <ele>788</ele>
        <time>2019-05-05T16:39:15Z</time>
      </trkpt>
      <trkpt lat="46.11707" lon="5.85572">
        <ele>787</ele>
        <time>2019-05-05T16:39:18Z</time>
      </trkpt>
      <trkpt lat="46.11704" lon="5.85572">
        <ele>787</ele>
        <time>2019-05-05T16:39:21Z</time>
      </trkpt>
      <trkpt lat="46.11701" lon="5.85573">
        <ele>787</ele>
        <time>2019-05-05T16:39:23Z</time>
      </trkpt>
      <trkpt lat="46.11697" lon="5.85571">
        <ele>786</ele>
        <time>2019-05-05T16:39:26Z</time>
      </trkpt>
      <trkpt lat="46.11693" lon="5.85571">
        <ele>786</ele>
        <time>2019-05-05T16:39:29Z</time>
      </trkpt>
      <trkpt lat="46.11683" lon="5.85564">
        <ele>784</ele>
        <time>2019-05-05T16:39:37Z</time>
      </trkpt>
      <trkpt lat="46.11679" lon="5.85556">
        <ele>784</ele>
        <time>2019-05-05T16:39:41Z</time>
      </trkpt>
      <trkpt lat="46.11676" lon="5.8555">
        <ele>783</ele>
        <time>2019-05-05T16:39:45Z</time>
      </trkpt>
      <trkpt lat="46.11668" lon="5.85544">
        <ele>782</ele>
        <time>2019-05-05T16:39:52Z</time>
      </trkpt>
      <trkpt lat="46.11666" lon="5.85541">
        <ele>781</ele>
        <time>2019-05-05T16:39:54Z</time>
      </trkpt>
      <trkpt lat="46.11665" lon="5.8554">
        <ele>781</ele>
        <time>2019-05-05T16:39:55Z</time>
      </trkpt>
      <trkpt lat="46.11663" lon="5.85538">
        <ele>781</ele>
        <time>2019-05-05T16:39:57Z</time>
      </trkpt>
      <trkpt lat="46.11659" lon="5.85531">
        <ele>780</ele>
        <time>2019-05-05T16:40:01Z</time>
      </trkpt>
      <trkpt lat="46.11652" lon="5.85527">
        <ele>779</ele>
        <time>2019-05-05T16:40:07Z</time>
      </trkpt>
      <trkpt lat="46.11637" lon="5.8553">
        <ele>776</ele>
        <time>2019-05-05T16:40:18Z</time>
      </trkpt>
      <trkpt lat="46.1162" lon="5.85536">
        <ele>774</ele>
        <time>2019-05-05T16:40:30Z</time>
      </trkpt>
      <trkpt lat="46.11617" lon="5.85537">
        <ele>773</ele>
        <time>2019-05-05T16:40:33Z</time>
      </trkpt>
      <trkpt lat="46.11616" lon="5.85537">
        <ele>773</ele>
        <time>2019-05-05T16:40:34Z</time>
      </trkpt>
      <trkpt lat="46.11614" lon="5.85539">
        <ele>773</ele>
        <time>2019-05-05T16:40:36Z</time>
      </trkpt>
      <trkpt lat="46.11612" lon="5.8554">
        <ele>772</ele>
        <time>2019-05-05T16:40:37Z</time>
      </trkpt>
      <trkpt lat="46.11604" lon="5.85542">
        <ele>771</ele>
        <time>2019-05-05T16:40:43Z</time>
      </trkpt>
      <trkpt lat="46.11602" lon="5.85543">
        <ele>771</ele>
        <time>2019-05-05T16:40:45Z</time>
      </trkpt>
      <trkpt lat="46.11601" lon="5.85543">
        <ele>771</ele>
        <time>2019-05-05T16:40:46Z</time>
      </trkpt>
      <trkpt lat="46.11599" lon="5.85543">
        <ele>770</ele>
        <time>2019-05-05T16:40:47Z</time>
      </trkpt>
      <trkpt lat="46.11594" lon="5.85543">
        <ele>770</ele>
        <time>2019-05-05T16:40:51Z</time>
      </trkpt>
      <trkpt lat="46.11587" lon="5.85546">
        <ele>769</ele>
        <time>2019-05-05T16:40:56Z</time>
      </trkpt>
      <trkpt lat="46.11584" lon="5.85547">
        <ele>769</ele>
        <time>2019-05-05T16:40:58Z</time>
      </trkpt>
      <trkpt lat="46.11581" lon="5.85549">
        <ele>769</ele>
        <time>2019-05-05T16:41:01Z</time>
      </trkpt>
      <trkpt lat="46.11578" lon="5.8555">
        <ele>768</ele>
        <time>2019-05-05T16:41:03Z</time>
      </trkpt>
      <trkpt lat="46.11575" lon="5.85551">
        <ele>768</ele>
        <time>2019-05-05T16:41:05Z</time>
      </trkpt>
      <trkpt lat="46.11574" lon="5.8555">
        <ele>768</ele>
        <time>2019-05-05T16:41:06Z</time>
      </trkpt>
      <trkpt lat="46.11574" lon="5.8555">
        <ele>768</ele>
        <time>2019-05-05T16:41:06Z</time>
      </trkpt>
      <trkpt lat="46.11571" lon="5.85553">
        <ele>768</ele>
        <time>2019-05-05T16:41:09Z</time>
      </trkpt>
      <trkpt lat="46.11566" lon="5.85558">
        <ele>768</ele>
        <time>2019-05-05T16:41:12Z</time>
      </trkpt>
      <trkpt lat="46.11561" lon="5.85564">
        <ele>767</ele>
        <time>2019-05-05T16:41:18Z</time>
      </trkpt>
      <trkpt lat="46.11555" lon="5.85569">
        <ele>767</ele>
        <time>2019-05-05T16:41:23Z</time>
      </trkpt>
      <trkpt lat="46.11553" lon="5.8557">
        <ele>767</ele>
        <time>2019-05-05T16:41:24Z</time>
      </trkpt>
      <trkpt lat="46.11548" lon="5.85571">
        <ele>767</ele>
        <time>2019-05-05T16:41:28Z</time>
      </trkpt>
      <trkpt lat="46.11546" lon="5.85572">
        <ele>767</ele>
        <time>2019-05-05T16:41:29Z</time>
      </trkpt>
      <trkpt lat="46.11541" lon="5.85572">
        <ele>766</ele>
        <time>2019-05-05T16:41:33Z</time>
      </trkpt>
      <trkpt lat="46.11539" lon="5.85573">
        <ele>766</ele>
        <time>2019-05-05T16:41:35Z</time>
      </trkpt>
      <trkpt lat="46.11532" lon="5.85572">
        <ele>766</ele>
        <time>2019-05-05T16:41:40Z</time>
      </trkpt>
      <trkpt lat="46.11525" lon="5.8557">
        <ele>765</ele>
        <time>2019-05-05T16:41:44Z</time>
      </trkpt>
      <trkpt lat="46.11516" lon="5.85567">
        <ele>764</ele>
        <time>2019-05-05T16:41:51Z</time>
      </trkpt>
      <trkpt lat="46.11507" lon="5.85555">
        <ele>762</ele>
        <time>2019-05-05T16:42:00Z</time>
      </trkpt>
      <trkpt lat="46.11505" lon="5.85552">
        <ele>762</ele>
        <time>2019-05-05T16:42:03Z</time>
      </trkpt>
      <trkpt lat="46.11502" lon="5.85552">
        <ele>761</ele>
        <time>2019-05-05T16:42:04Z</time>
      </trkpt>
      <trkpt lat="46.11502" lon="5.85549">
        <ele>761</ele>
        <time>2019-05-05T16:42:06Z</time>
      </trkpt>
      <trkpt lat="46.11502" lon="5.85545">
        <ele>761</ele>
        <time>2019-05-05T16:42:08Z</time>
      </trkpt>
      <trkpt lat="46.11504" lon="5.8554">
        <ele>760</ele>
        <time>2019-05-05T16:42:11Z</time>
      </trkpt>
      <trkpt lat="46.11511" lon="5.85533">
        <ele>761</ele>
        <time>2019-05-05T16:42:17Z</time>
      </trkpt>
      <trkpt lat="46.11513" lon="5.8553">
        <ele>761</ele>
        <time>2019-05-05T16:42:19Z</time>
      </trkpt>
      <trkpt lat="46.11517" lon="5.85525">
        <ele>761</ele>
        <time>2019-05-05T16:42:23Z</time>
      </trkpt>
      <trkpt lat="46.11518" lon="5.85522">
        <ele>761</ele>
        <time>2019-05-05T16:42:24Z</time>
      </trkpt>
      <trkpt lat="46.11521" lon="5.8552">
        <ele>761</ele>
        <time>2019-05-05T16:42:26Z</time>
      </trkpt>
      <trkpt lat="46.1152" lon="5.85519">
        <ele>761</ele>
        <time>2019-05-05T16:42:27Z</time>
      </trkpt>
      <trkpt lat="46.11522" lon="5.85507">
        <ele>760</ele>
        <time>2019-05-05T16:42:33Z</time>
      </trkpt>
      <trkpt lat="46.11528" lon="5.855">
        <ele>759</ele>
        <time>2019-05-05T16:42:39Z</time>
      </trkpt>
      <trkpt lat="46.1153" lon="5.85493">
        <ele>759</ele>
        <time>2019-05-05T16:42:42Z</time>
      </trkpt>
      <trkpt lat="46.11533" lon="5.85489">
        <ele>759</ele>
        <time>2019-05-05T16:42:45Z</time>
      </trkpt>
      <trkpt lat="46.11534" lon="5.85483">
        <ele>758</ele>
        <time>2019-05-05T16:42:48Z</time>
      </trkpt>
      <trkpt lat="46.11534" lon="5.8548">
        <ele>758</ele>
        <time>2019-05-05T16:42:50Z</time>
      </trkpt>
      <trkpt lat="46.11541" lon="5.85469">
        <ele>757</ele>
        <time>2019-05-05T16:42:57Z</time>
      </trkpt>
      <trkpt lat="46.11544" lon="5.85466">
        <ele>757</ele>
        <time>2019-05-05T16:43:00Z</time>
      </trkpt>
      <trkpt lat="46.11546" lon="5.85462">
        <ele>757</ele>
        <time>2019-05-05T16:43:03Z</time>
      </trkpt>
      <trkpt lat="46.11549" lon="5.85457">
        <ele>757</ele>
        <time>2019-05-05T16:43:06Z</time>
      </trkpt>
      <trkpt lat="46.11551" lon="5.85452">
        <ele>757</ele>
        <time>2019-05-05T16:43:09Z</time>
      </trkpt>
      <trkpt lat="46.11555" lon="5.85445">
        <ele>757</ele>
        <time>2019-05-05T16:43:13Z</time>
      </trkpt>
      <trkpt lat="46.11557" lon="5.85438">
        <ele>756</ele>
        <time>2019-05-05T16:43:17Z</time>
      </trkpt>
      <trkpt lat="46.1156" lon="5.85435">
        <ele>756</ele>
        <time>2019-05-05T16:43:20Z</time>
      </trkpt>
      <trkpt lat="46.11563" lon="5.85432">
        <ele>757</ele>
        <time>2019-05-05T16:43:23Z</time>
      </trkpt>
      <trkpt lat="46.11568" lon="5.85427">
        <ele>757</ele>
        <time>2019-05-05T16:43:27Z</time>
      </trkpt>
      <trkpt lat="46.1157" lon="5.85424">
        <ele>757</ele>
        <time>2019-05-05T16:43:29Z</time>
      </trkpt>
      <trkpt lat="46.11572" lon="5.85422">
        <ele>757</ele>
        <time>2019-05-05T16:43:31Z</time>
      </trkpt>
      <trkpt lat="46.11573" lon="5.8542">
        <ele>757</ele>
        <time>2019-05-05T16:43:32Z</time>
      </trkpt>
      <trkpt lat="46.11576" lon="5.85414">
        <ele>757</ele>
        <time>2019-05-05T16:43:36Z</time>
      </trkpt>
      <trkpt lat="46.11579" lon="5.85409">
        <ele>757</ele>
        <time>2019-05-05T16:43:39Z</time>
      </trkpt>
      <trkpt lat="46.11584" lon="5.85399">
        <ele>757</ele>
        <time>2019-05-05T16:43:45Z</time>
      </trkpt>
      <trkpt lat="46.11585" lon="5.85397">
        <ele>757</ele>
        <time>2019-05-05T16:43:47Z</time>
      </trkpt>
      <trkpt lat="46.11589" lon="5.8539">
        <ele>757</ele>
        <time>2019-05-05T16:43:51Z</time>
      </trkpt>
      <trkpt lat="46.11588" lon="5.85378">
        <ele>755</ele>
        <time>2019-05-05T16:43:57Z</time>
      </trkpt>
      <trkpt lat="46.1159" lon="5.85374">
        <ele>755</ele>
        <time>2019-05-05T16:44:00Z</time>
      </trkpt>
      <trkpt lat="46.11592" lon="5.85372">
        <ele>755</ele>
        <time>2019-05-05T16:44:01Z</time>
      </trkpt>
      <trkpt lat="46.11593" lon="5.85369">
        <ele>755</ele>
        <time>2019-05-05T16:44:03Z</time>
      </trkpt>
      <trkpt lat="46.11592" lon="5.85366">
        <ele>755</ele>
        <time>2019-05-05T16:44:04Z</time>
      </trkpt>
      <trkpt lat="46.11594" lon="5.85364">
        <ele>755</ele>
        <time>2019-05-05T16:44:06Z</time>
      </trkpt>
      <trkpt lat="46.11595" lon="5.85362">
        <ele>754</ele>
        <time>2019-05-05T16:44:07Z</time>
      </trkpt>
      <trkpt lat="46.116" lon="5.85343">
        <ele>753</ele>
        <time>2019-05-05T16:44:17Z</time>
      </trkpt>
      <trkpt lat="46.11602" lon="5.85338">
        <ele>753</ele>
        <time>2019-05-05T16:44:20Z</time>
      </trkpt>
      <trkpt lat="46.11602" lon="5.85336">
        <ele>753</ele>
        <time>2019-05-05T16:44:21Z</time>
      </trkpt>
      <trkpt lat="46.1161" lon="5.85311">
        <ele>751</ele>
        <time>2019-05-05T16:44:35Z</time>
      </trkpt>
      <trkpt lat="46.11614" lon="5.85306">
        <ele>750</ele>
        <time>2019-05-05T16:44:39Z</time>
      </trkpt>
      <trkpt lat="46.11615" lon="5.85304">
        <ele>750</ele>
        <time>2019-05-05T16:44:40Z</time>
      </trkpt>
      <trkpt lat="46.11621" lon="5.853">
        <ele>750</ele>
        <time>2019-05-05T16:44:45Z</time>
      </trkpt>
      <trkpt lat="46.11637" lon="5.85285">
        <ele>748</ele>
        <time>2019-05-05T16:44:59Z</time>
      </trkpt>
      <trkpt lat="46.11641" lon="5.85282">
        <ele>748</ele>
        <time>2019-05-05T16:45:02Z</time>
      </trkpt>
      <trkpt lat="46.11643" lon="5.85281">
        <ele>747</ele>
        <time>2019-05-05T16:45:04Z</time>
      </trkpt>
      <trkpt lat="46.11645" lon="5.85282">
        <ele>747</ele>
        <time>2019-05-05T16:45:05Z</time>
      </trkpt>
      <trkpt lat="46.11658" lon="5.85271">
        <ele>746</ele>
        <time>2019-05-05T16:45:16Z</time>
      </trkpt>
      <trkpt lat="46.11659" lon="5.85267">
        <ele>745</ele>
        <time>2019-05-05T16:45:18Z</time>
      </trkpt>
      <trkpt lat="46.1166" lon="5.85265">
        <ele>745</ele>
        <time>2019-05-05T16:45:19Z</time>
      </trkpt>
      <trkpt lat="46.11661" lon="5.85266">
        <ele>745</ele>
        <time>2019-05-05T16:45:20Z</time>
      </trkpt>
      <trkpt lat="46.11665" lon="5.85273">
        <ele>746</ele>
        <time>2019-05-05T16:45:24Z</time>
      </trkpt>
      <trkpt lat="46.11666" lon="5.85275">
        <ele>746</ele>
        <time>2019-05-05T16:45:26Z</time>
      </trkpt>
      <trkpt lat="46.11668" lon="5.85275">
        <ele>746</ele>
        <time>2019-05-05T16:45:27Z</time>
      </trkpt>
      <trkpt lat="46.11671" lon="5.85273">
        <ele>746</ele>
        <time>2019-05-05T16:45:29Z</time>
      </trkpt>
      <trkpt lat="46.11673" lon="5.85273">
        <ele>746</ele>
        <time>2019-05-05T16:45:31Z</time>
      </trkpt>
      <trkpt lat="46.11678" lon="5.85272">
        <ele>745</ele>
        <time>2019-05-05T16:45:35Z</time>
      </trkpt>
      <trkpt lat="46.11695" lon="5.85263">
        <ele>744</ele>
        <time>2019-05-05T16:45:48Z</time>
      </trkpt>
      <trkpt lat="46.11698" lon="5.85261">
        <ele>743</ele>
        <time>2019-05-05T16:45:50Z</time>
      </trkpt>
      <trkpt lat="46.117" lon="5.85259">
        <ele>743</ele>
        <time>2019-05-05T16:45:52Z</time>
      </trkpt>
      <trkpt lat="46.1171" lon="5.85255">
        <ele>742</ele>
        <time>2019-05-05T16:46:00Z</time>
      </trkpt>
      <trkpt lat="46.11711" lon="5.85254">
        <ele>742</ele>
        <time>2019-05-05T16:46:00Z</time>
      </trkpt>
      <trkpt lat="46.11712" lon="5.85254">
        <ele>742</ele>
        <time>2019-05-05T16:46:01Z</time>
      </trkpt>
      <trkpt lat="46.11716" lon="5.85253">
        <ele>742</ele>
        <time>2019-05-05T16:46:04Z</time>
      </trkpt>
      <trkpt lat="46.11723" lon="5.8525">
        <ele>742</ele>
        <time>2019-05-05T16:46:09Z</time>
      </trkpt>
      <trkpt lat="46.11725" lon="5.85248">
        <ele>741</ele>
        <time>2019-05-05T16:46:11Z</time>
      </trkpt>
      <trkpt lat="46.11727" lon="5.85247">
        <ele>741</ele>
        <time>2019-05-05T16:46:12Z</time>
      </trkpt>
      <trkpt lat="46.11729" lon="5.85243">
        <ele>740</ele>
        <time>2019-05-05T16:46:15Z</time>
      </trkpt>
      <trkpt lat="46.11738" lon="5.85242">
        <ele>740</ele>
        <time>2019-05-05T16:46:21Z</time>
      </trkpt>
      <trkpt lat="46.11738" lon="5.85242">
        <ele>740</ele>
        <time>2019-05-05T16:46:22Z</time>
      </trkpt>
      <trkpt lat="46.11741" lon="5.85245">
        <ele>740</ele>
        <time>2019-05-05T16:46:24Z</time>
      </trkpt>
      <trkpt lat="46.11743" lon="5.85237">
        <ele>739</ele>
        <time>2019-05-05T16:46:28Z</time>
      </trkpt>
      <trkpt lat="46.11744" lon="5.85237">
        <ele>739</ele>
        <time>2019-05-05T16:46:29Z</time>
      </trkpt>
      <trkpt lat="46.11747" lon="5.85237">
        <ele>739</ele>
        <time>2019-05-05T16:46:31Z</time>
      </trkpt>
      <trkpt lat="46.11759" lon="5.85227">
        <ele>737</ele>
        <time>2019-05-05T16:46:42Z</time>
      </trkpt>
      <trkpt lat="46.11763" lon="5.8522">
        <ele>735</ele>
        <time>2019-05-05T16:46:46Z</time>
      </trkpt>
      <trkpt lat="46.11768" lon="5.85212">
        <ele>733</ele>
        <time>2019-05-05T16:46:52Z</time>
      </trkpt>
      <trkpt lat="46.1177" lon="5.85212">
        <ele>733</ele>
        <time>2019-05-05T16:46:54Z</time>
      </trkpt>
      <trkpt lat="46.11773" lon="5.85212">
        <ele>733</ele>
        <time>2019-05-05T16:46:55Z</time>
      </trkpt>
      <trkpt lat="46.11775" lon="5.85212">
        <ele>733</ele>
        <time>2019-05-05T16:46:57Z</time>
      </trkpt>
      <trkpt lat="46.11777" lon="5.85213">
        <ele>733</ele>
        <time>2019-05-05T16:46:58Z</time>
      </trkpt>
      <trkpt lat="46.1178" lon="5.85214">
        <ele>734</ele>
        <time>2019-05-05T16:47:01Z</time>
      </trkpt>
      <trkpt lat="46.11783" lon="5.85212">
        <ele>733</ele>
        <time>2019-05-05T16:47:03Z</time>
      </trkpt>
      <trkpt lat="46.11792" lon="5.85216">
        <ele>734</ele>
        <time>2019-05-05T16:47:10Z</time>
      </trkpt>
      <trkpt lat="46.11796" lon="5.85217">
        <ele>735</ele>
        <time>2019-05-05T16:47:13Z</time>
      </trkpt>
      <trkpt lat="46.11807" lon="5.85218">
        <ele>735</ele>
        <time>2019-05-05T16:47:21Z</time>
      </trkpt>
      <trkpt lat="46.11808" lon="5.85217">
        <ele>735</ele>
        <time>2019-05-05T16:47:22Z</time>
      </trkpt>
      <trkpt lat="46.11815" lon="5.85213">
        <ele>734</ele>
        <time>2019-05-05T16:47:27Z</time>
      </trkpt>
      <trkpt lat="46.11822" lon="5.85212">
        <ele>733</ele>
        <time>2019-05-05T16:47:32Z</time>
      </trkpt>
      <trkpt lat="46.11829" lon="5.85209">
        <ele>733</ele>
        <time>2019-05-05T16:47:38Z</time>
      </trkpt>
      <trkpt lat="46.11831" lon="5.85207">
        <ele>732</ele>
        <time>2019-05-05T16:47:40Z</time>
      </trkpt>
      <trkpt lat="46.11838" lon="5.85204">
        <ele>732</ele>
        <time>2019-05-05T16:47:44Z</time>
      </trkpt>
      <trkpt lat="46.1185" lon="5.85195">
        <ele>729</ele>
        <time>2019-05-05T16:47:54Z</time>
      </trkpt>
      <trkpt lat="46.11855" lon="5.85192">
        <ele>729</ele>
        <time>2019-05-05T16:47:59Z</time>
      </trkpt>
      <trkpt lat="46.11865" lon="5.85188">
        <ele>728</ele>
        <time>2019-05-05T16:48:06Z</time>
      </trkpt>
      <trkpt lat="46.11868" lon="5.85188">
        <ele>728</ele>
        <time>2019-05-05T16:48:08Z</time>
      </trkpt>
      <trkpt lat="46.11871" lon="5.85187">
        <ele>728</ele>
        <time>2019-05-05T16:48:11Z</time>
      </trkpt>
      <trkpt lat="46.11878" lon="5.85184">
        <ele>728</ele>
        <time>2019-05-05T16:48:16Z</time>
      </trkpt>
      <trkpt lat="46.11885" lon="5.85179">
        <ele>727</ele>
        <time>2019-05-05T16:48:21Z</time>
      </trkpt>
      <trkpt lat="46.11891" lon="5.85174">
        <ele>726</ele>
        <time>2019-05-05T16:48:26Z</time>
      </trkpt>
      <trkpt lat="46.11894" lon="5.85168">
        <ele>724</ele>
        <time>2019-05-05T16:48:30Z</time>
      </trkpt>
      <trkpt lat="46.11896" lon="5.85166">
        <ele>724</ele>
        <time>2019-05-05T16:48:32Z</time>
      </trkpt>
      <trkpt lat="46.119" lon="5.85161">
        <ele>723</ele>
        <time>2019-05-05T16:48:36Z</time>
      </trkpt>
      <trkpt lat="46.11906" lon="5.85157">
        <ele>722</ele>
        <time>2019-05-05T16:48:41Z</time>
      </trkpt>
      <trkpt lat="46.11908" lon="5.85152">
        <ele>721</ele>
        <time>2019-05-05T16:48:44Z</time>
      </trkpt>
      <trkpt lat="46.11912" lon="5.85145">
        <ele>720</ele>
        <time>2019-05-05T16:48:49Z</time>
      </trkpt>
      <trkpt lat="46.11918" lon="5.85142">
        <ele>719</ele>
        <time>2019-05-05T16:48:53Z</time>
      </trkpt>
      <trkpt lat="46.11934" lon="5.85131">
        <ele>717</ele>
        <time>2019-05-05T16:49:06Z</time>
      </trkpt>
      <trkpt lat="46.11935" lon="5.8513">
        <ele>717</ele>
        <time>2019-05-05T16:49:07Z</time>
      </trkpt>
      <trkpt lat="46.11939" lon="5.85127">
        <ele>716</ele>
        <time>2019-05-05T16:49:10Z</time>
      </trkpt>
      <trkpt lat="46.11941" lon="5.85124">
        <ele>716</ele>
        <time>2019-05-05T16:49:12Z</time>
      </trkpt>
      <trkpt lat="46.11946" lon="5.85123">
        <ele>716</ele>
        <time>2019-05-05T16:49:15Z</time>
      </trkpt>
      <trkpt lat="46.11951" lon="5.8512">
        <ele>715</ele>
        <time>2019-05-05T16:49:19Z</time>
      </trkpt>
      <trkpt lat="46.1196" lon="5.8511">
        <ele>713</ele>
        <time>2019-05-05T16:49:28Z</time>
      </trkpt>
      <trkpt lat="46.11961" lon="5.85109">
        <ele>713</ele>
        <time>2019-05-05T16:49:29Z</time>
      </trkpt>
      <trkpt lat="46.11964" lon="5.85109">
        <ele>712</ele>
        <time>2019-05-05T16:49:31Z</time>
      </trkpt>
      <trkpt lat="46.11968" lon="5.85109">
        <ele>713</ele>
        <time>2019-05-05T16:49:34Z</time>
      </trkpt>
      <trkpt lat="46.1197" lon="5.85108">
        <ele>712</ele>
        <time>2019-05-05T16:49:36Z</time>
      </trkpt>
      <trkpt lat="46.11979" lon="5.85103">
        <ele>712</ele>
        <time>2019-05-05T16:49:42Z</time>
      </trkpt>
      <trkpt lat="46.11987" lon="5.85102">
        <ele>711</ele>
        <time>2019-05-05T16:49:48Z</time>
      </trkpt>
      <trkpt lat="46.11991" lon="5.851">
        <ele>711</ele>
        <time>2019-05-05T16:49:52Z</time>
      </trkpt>
      <trkpt lat="46.12001" lon="5.85099">
        <ele>711</ele>
        <time>2019-05-05T16:49:59Z</time>
      </trkpt>
      <trkpt lat="46.12014" lon="5.85096">
        <ele>711</ele>
        <time>2019-05-05T16:50:09Z</time>
      </trkpt>
      <trkpt lat="46.1203" lon="5.85099">
        <ele>712</ele>
        <time>2019-05-05T16:50:20Z</time>
      </trkpt>
      <trkpt lat="46.12043" lon="5.85098">
        <ele>713</ele>
        <time>2019-05-05T16:50:30Z</time>
      </trkpt>
      <trkpt lat="46.1206" lon="5.85092">
        <ele>713</ele>
        <time>2019-05-05T16:50:42Z</time>
      </trkpt>
      <trkpt lat="46.12078" lon="5.85081">
        <ele>713</ele>
        <time>2019-05-05T16:50:56Z</time>
      </trkpt>
      <trkpt lat="46.12091" lon="5.85074">
        <ele>713</ele>
        <time>2019-05-05T16:51:06Z</time>
      </trkpt>
      <trkpt lat="46.12105" lon="5.85074">
        <ele>713</ele>
        <time>2019-05-05T16:51:16Z</time>
      </trkpt>
      <trkpt lat="46.12107" lon="5.8507">
        <ele>713</ele>
        <time>2019-05-05T16:51:18Z</time>
      </trkpt>
      <trkpt lat="46.12109" lon="5.85068">
        <ele>712</ele>
        <time>2019-05-05T16:51:21Z</time>
      </trkpt>
      <trkpt lat="46.1211" lon="5.85066">
        <ele>712</ele>
        <time>2019-05-05T16:51:21Z</time>
      </trkpt>
      <trkpt lat="46.1211" lon="5.85065">
        <ele>712</ele>
        <time>2019-05-05T16:51:22Z</time>
      </trkpt>
      <trkpt lat="46.12111" lon="5.85062">
        <ele>711</ele>
        <time>2019-05-05T16:51:24Z</time>
      </trkpt>
      <trkpt lat="46.12112" lon="5.85057">
        <ele>711</ele>
        <time>2019-05-05T16:51:27Z</time>
      </trkpt>
      <trkpt lat="46.12113" lon="5.85054">
        <ele>711</ele>
        <time>2019-05-05T16:51:28Z</time>
      </trkpt>
      <trkpt lat="46.12113" lon="5.8505">
        <ele>710</ele>
        <time>2019-05-05T16:51:31Z</time>
      </trkpt>
      <trkpt lat="46.12114" lon="5.85043">
        <ele>709</ele>
        <time>2019-05-05T16:51:34Z</time>
      </trkpt>
      <trkpt lat="46.12114" lon="5.85042">
        <ele>709</ele>
        <time>2019-05-05T16:51:35Z</time>
      </trkpt>
      <trkpt lat="46.12114" lon="5.85039">
        <ele>709</ele>
        <time>2019-05-05T16:51:36Z</time>
      </trkpt>
      <trkpt lat="46.12114" lon="5.85032">
        <ele>708</ele>
        <time>2019-05-05T16:51:40Z</time>
      </trkpt>
      <trkpt lat="46.12111" lon="5.85022">
        <ele>708</ele>
        <time>2019-05-05T16:51:45Z</time>
      </trkpt>
      <trkpt lat="46.12108" lon="5.85007">
        <ele>707</ele>
        <time>2019-05-05T16:51:53Z</time>
      </trkpt>
      <trkpt lat="46.1211" lon="5.84999">
        <ele>707</ele>
        <time>2019-05-05T16:51:57Z</time>
      </trkpt>
      <trkpt lat="46.12114" lon="5.84994">
        <ele>707</ele>
        <time>2019-05-05T16:52:01Z</time>
      </trkpt>
      <trkpt lat="46.12116" lon="5.84993">
        <ele>706</ele>
        <time>2019-05-05T16:52:03Z</time>
      </trkpt>
      <trkpt lat="46.12117" lon="5.84993">
        <ele>706</ele>
        <time>2019-05-05T16:52:03Z</time>
      </trkpt>
      <trkpt lat="46.12125" lon="5.84997">
        <ele>705</ele>
        <time>2019-05-05T16:52:09Z</time>
      </trkpt>
      <trkpt lat="46.12125" lon="5.84996">
        <ele>705</ele>
        <time>2019-05-05T16:52:10Z</time>
      </trkpt>
      <trkpt lat="46.12124" lon="5.84994">
        <ele>705</ele>
        <time>2019-05-05T16:52:11Z</time>
      </trkpt>
      <trkpt lat="46.12124" lon="5.84995">
        <ele>705</ele>
        <time>2019-05-05T16:52:11Z</time>
      </trkpt>
      <trkpt lat="46.12124" lon="5.84994">
        <ele>705</ele>
        <time>2019-05-05T16:52:12Z</time>
      </trkpt>
      <trkpt lat="46.12128" lon="5.84995">
        <ele>705</ele>
        <time>2019-05-05T16:52:15Z</time>
      </trkpt>
      <trkpt lat="46.12131" lon="5.84993">
        <ele>704</ele>
        <time>2019-05-05T16:52:17Z</time>
      </trkpt>
      <trkpt lat="46.12133" lon="5.84993">
        <ele>704</ele>
        <time>2019-05-05T16:52:18Z</time>
      </trkpt>
      <trkpt lat="46.12133" lon="5.84991">
        <ele>704</ele>
        <time>2019-05-05T16:52:19Z</time>
      </trkpt>
      <trkpt lat="46.12135" lon="5.8499">
        <ele>704</ele>
        <time>2019-05-05T16:52:21Z</time>
      </trkpt>
      <trkpt lat="46.12136" lon="5.84988">
        <ele>704</ele>
        <time>2019-05-05T16:52:22Z</time>
      </trkpt>
      <trkpt lat="46.12137" lon="5.84987">
        <ele>703</ele>
        <time>2019-05-05T16:52:23Z</time>
      </trkpt>
      <trkpt lat="46.12139" lon="5.84984">
        <ele>703</ele>
        <time>2019-05-05T16:52:25Z</time>
      </trkpt>
      <trkpt lat="46.1214" lon="5.84983">
        <ele>703</ele>
        <time>2019-05-05T16:52:26Z</time>
      </trkpt>
      <trkpt lat="46.12141" lon="5.84979">
        <ele>703</ele>
        <time>2019-05-05T16:52:28Z</time>
      </trkpt>
      <trkpt lat="46.12145" lon="5.8498">
        <ele>702</ele>
        <time>2019-05-05T16:52:31Z</time>
      </trkpt>
      <trkpt lat="46.12153" lon="5.84977">
        <ele>701</ele>
        <time>2019-05-05T16:52:37Z</time>
      </trkpt>
      <trkpt lat="46.12161" lon="5.84976">
        <ele>700</ele>
        <time>2019-05-05T16:52:43Z</time>
      </trkpt>
      <trkpt lat="46.12163" lon="5.84974">
        <ele>699</ele>
        <time>2019-05-05T16:52:45Z</time>
      </trkpt>
      <trkpt lat="46.12168" lon="5.8497">
        <ele>698</ele>
        <time>2019-05-05T16:52:49Z</time>
      </trkpt>
      <trkpt lat="46.12173" lon="5.84966">
        <ele>697</ele>
        <time>2019-05-05T16:52:53Z</time>
      </trkpt>
      <trkpt lat="46.12175" lon="5.84966">
        <ele>697</ele>
        <time>2019-05-05T16:52:54Z</time>
      </trkpt>
      <trkpt lat="46.12175" lon="5.84966">
        <ele>697</ele>
        <time>2019-05-05T16:52:55Z</time>
      </trkpt>
      <trkpt lat="46.12181" lon="5.84966">
        <ele>696</ele>
        <time>2019-05-05T16:52:59Z</time>
      </trkpt>
      <trkpt lat="46.12182" lon="5.84965">
        <ele>696</ele>
        <time>2019-05-05T16:53:00Z</time>
      </trkpt>
      <trkpt lat="46.12187" lon="5.84961">
        <ele>695</ele>
        <time>2019-05-05T16:53:04Z</time>
      </trkpt>
      <trkpt lat="46.12187" lon="5.8496">
        <ele>695</ele>
        <time>2019-05-05T16:53:04Z</time>
      </trkpt>
      <trkpt lat="46.12188" lon="5.84958">
        <ele>694</ele>
        <time>2019-05-05T16:53:06Z</time>
      </trkpt>
      <trkpt lat="46.12188" lon="5.84958">
        <ele>694</ele>
        <time>2019-05-05T16:53:06Z</time>
      </trkpt>
      <trkpt lat="46.12189" lon="5.84957">
        <ele>694</ele>
        <time>2019-05-05T16:53:06Z</time>
      </trkpt>
      <trkpt lat="46.1219" lon="5.84956">
        <ele>694</ele>
        <time>2019-05-05T16:53:07Z</time>
      </trkpt>
      <trkpt lat="46.12191" lon="5.84955">
        <ele>693</ele>
        <time>2019-05-05T16:53:08Z</time>
      </trkpt>
      <trkpt lat="46.12191" lon="5.84954">
        <ele>693</ele>
        <time>2019-05-05T16:53:09Z</time>
      </trkpt>
      <trkpt lat="46.12192" lon="5.84952">
        <ele>693</ele>
        <time>2019-05-05T16:53:10Z</time>
      </trkpt>
      <trkpt lat="46.12192" lon="5.84952">
        <ele>693</ele>
        <time>2019-05-05T16:53:11Z</time>
      </trkpt>
      <trkpt lat="46.12193" lon="5.8495">
        <ele>692</ele>
        <time>2019-05-05T16:53:12Z</time>
      </trkpt>
      <trkpt lat="46.12196" lon="5.84948">
        <ele>691</ele>
        <time>2019-05-05T16:53:14Z</time>
      </trkpt>
      <trkpt lat="46.12197" lon="5.84948">
        <ele>691</ele>
        <time>2019-05-05T16:53:15Z</time>
      </trkpt>
      <trkpt lat="46.122" lon="5.84943">
        <ele>689</ele>
        <time>2019-05-05T16:53:19Z</time>
      </trkpt>
      <trkpt lat="46.12201" lon="5.84942">
        <ele>689</ele>
        <time>2019-05-05T16:53:20Z</time>
      </trkpt>
      <trkpt lat="46.12202" lon="5.84942">
        <ele>689</ele>
        <time>2019-05-05T16:53:20Z</time>
      </trkpt>
      <trkpt lat="46.12204" lon="5.84942">
        <ele>688</ele>
        <time>2019-05-05T16:53:22Z</time>
      </trkpt>
      <trkpt lat="46.12203" lon="5.8494">
        <ele>688</ele>
        <time>2019-05-05T16:53:22Z</time>
      </trkpt>
      <trkpt lat="46.12205" lon="5.84939">
        <ele>688</ele>
        <time>2019-05-05T16:53:24Z</time>
      </trkpt>
      <trkpt lat="46.12207" lon="5.84938">
        <ele>687</ele>
        <time>2019-05-05T16:53:26Z</time>
      </trkpt>
      <trkpt lat="46.12212" lon="5.84934">
        <ele>685</ele>
        <time>2019-05-05T16:53:29Z</time>
      </trkpt>
      <trkpt lat="46.12212" lon="5.84933">
        <ele>685</ele>
        <time>2019-05-05T16:53:30Z</time>
      </trkpt>
      <trkpt lat="46.12214" lon="5.84931">
        <ele>684</ele>
        <time>2019-05-05T16:53:32Z</time>
      </trkpt>
      <trkpt lat="46.12216" lon="5.84926">
        <ele>684</ele>
        <time>2019-05-05T16:53:35Z</time>
      </trkpt>
      <trkpt lat="46.12217" lon="5.84925">
        <ele>683</ele>
        <time>2019-05-05T16:53:36Z</time>
      </trkpt>
      <trkpt lat="46.12221" lon="5.84918">
        <ele>682</ele>
        <time>2019-05-05T16:53:40Z</time>
      </trkpt>
      <trkpt lat="46.12222" lon="5.84916">
        <ele>682</ele>
        <time>2019-05-05T16:53:41Z</time>
      </trkpt>
      <trkpt lat="46.12223" lon="5.84914">
        <ele>681</ele>
        <time>2019-05-05T16:53:43Z</time>
      </trkpt>
      <trkpt lat="46.12225" lon="5.84912">
        <ele>681</ele>
        <time>2019-05-05T16:53:45Z</time>
      </trkpt>
      <trkpt lat="46.12227" lon="5.84911">
        <ele>680</ele>
        <time>2019-05-05T16:53:46Z</time>
      </trkpt>
      <trkpt lat="46.12229" lon="5.84907">
        <ele>680</ele>
        <time>2019-05-05T16:53:49Z</time>
      </trkpt>
      <trkpt lat="46.12229" lon="5.84906">
        <ele>679</ele>
        <time>2019-05-05T16:53:49Z</time>
      </trkpt>
      <trkpt lat="46.1223" lon="5.84906">
        <ele>679</ele>
        <time>2019-05-05T16:53:50Z</time>
      </trkpt>
      <trkpt lat="46.12231" lon="5.84906">
        <ele>679</ele>
        <time>2019-05-05T16:53:51Z</time>
      </trkpt>
      <trkpt lat="46.12233" lon="5.84907">
        <ele>678</ele>
        <time>2019-05-05T16:53:53Z</time>
      </trkpt>
      <trkpt lat="46.12233" lon="5.84906">
        <ele>678</ele>
        <time>2019-05-05T16:53:53Z</time>
      </trkpt>
      <trkpt lat="46.12235" lon="5.84905">
        <ele>678</ele>
        <time>2019-05-05T16:53:54Z</time>
      </trkpt>
      <trkpt lat="46.12236" lon="5.84904">
        <ele>677</ele>
        <time>2019-05-05T16:53:55Z</time>
      </trkpt>
      <trkpt lat="46.1224" lon="5.84903">
        <ele>676</ele>
        <time>2019-05-05T16:53:58Z</time>
      </trkpt>
      <trkpt lat="46.12243" lon="5.84902">
        <ele>675</ele>
        <time>2019-05-05T16:54:01Z</time>
      </trkpt>
      <trkpt lat="46.12249" lon="5.84899">
        <ele>673</ele>
        <time>2019-05-05T16:54:05Z</time>
      </trkpt>
      <trkpt lat="46.12252" lon="5.84898">
        <ele>672</ele>
        <time>2019-05-05T16:54:08Z</time>
      </trkpt>
      <trkpt lat="46.12254" lon="5.84897">
        <ele>671</ele>
        <time>2019-05-05T16:54:09Z</time>
      </trkpt>
      <trkpt lat="46.12258" lon="5.84899">
        <ele>670</ele>
        <time>2019-05-05T16:54:13Z</time>
      </trkpt>
      <trkpt lat="46.12263" lon="5.84905">
        <ele>669</ele>
        <time>2019-05-05T16:54:17Z</time>
      </trkpt>
      <trkpt lat="46.12265" lon="5.84905">
        <ele>668</ele>
        <time>2019-05-05T16:54:19Z</time>
      </trkpt>
      <trkpt lat="46.12265" lon="5.84906">
        <ele>668</ele>
        <time>2019-05-05T16:54:19Z</time>
      </trkpt>
      <trkpt lat="46.12266" lon="5.84907">
        <ele>668</ele>
        <time>2019-05-05T16:54:20Z</time>
      </trkpt>
      <trkpt lat="46.12263" lon="5.84906">
        <ele>669</ele>
        <time>2019-05-05T16:54:22Z</time>
      </trkpt>
      <trkpt lat="46.12262" lon="5.84901">
        <ele>669</ele>
        <time>2019-05-05T16:54:24Z</time>
      </trkpt>
      <trkpt lat="46.12262" lon="5.849">
        <ele>669</ele>
        <time>2019-05-05T16:54:25Z</time>
      </trkpt>
      <trkpt lat="46.12262" lon="5.84899">
        <ele>669</ele>
        <time>2019-05-05T16:54:25Z</time>
      </trkpt>
      <trkpt lat="46.12262" lon="5.84898">
        <ele>669</ele>
        <time>2019-05-05T16:54:26Z</time>
      </trkpt>
      <trkpt lat="46.12263" lon="5.84895">
        <ele>669</ele>
        <time>2019-05-05T16:54:27Z</time>
      </trkpt>
      <trkpt lat="46.12263" lon="5.84892">
        <ele>668</ele>
        <time>2019-05-05T16:54:29Z</time>
      </trkpt>
      <trkpt lat="46.12263" lon="5.84892">
        <ele>668</ele>
        <time>2019-05-05T16:54:29Z</time>
      </trkpt>
      <trkpt lat="46.12264" lon="5.8489">
        <ele>668</ele>
        <time>2019-05-05T16:54:30Z</time>
      </trkpt>
      <trkpt lat="46.12264" lon="5.84889">
        <ele>668</ele>
        <time>2019-05-05T16:54:31Z</time>
      </trkpt>
      <trkpt lat="46.12265" lon="5.84887">
        <ele>668</ele>
        <time>2019-05-05T16:54:32Z</time>
      </trkpt>
      <trkpt lat="46.12266" lon="5.84884">
        <ele>667</ele>
        <time>2019-05-05T16:54:34Z</time>
      </trkpt>
      <trkpt lat="46.12268" lon="5.84883">
        <ele>666</ele>
        <time>2019-05-05T16:54:36Z</time>
      </trkpt>
      <trkpt lat="46.12269" lon="5.84882">
        <ele>666</ele>
        <time>2019-05-05T16:54:36Z</time>
      </trkpt>
      <trkpt lat="46.1227" lon="5.8488">
        <ele>666</ele>
        <time>2019-05-05T16:54:38Z</time>
      </trkpt>
      <trkpt lat="46.12271" lon="5.84878">
        <ele>665</ele>
        <time>2019-05-05T16:54:39Z</time>
      </trkpt>
      <trkpt lat="46.12274" lon="5.84873">
        <ele>664</ele>
        <time>2019-05-05T16:54:42Z</time>
      </trkpt>
      <trkpt lat="46.12275" lon="5.84872">
        <ele>664</ele>
        <time>2019-05-05T16:54:43Z</time>
      </trkpt>
      <trkpt lat="46.12276" lon="5.84871">
        <ele>663</ele>
        <time>2019-05-05T16:54:44Z</time>
      </trkpt>
      <trkpt lat="46.12277" lon="5.8487">
        <ele>663</ele>
        <time>2019-05-05T16:54:45Z</time>
      </trkpt>
      <trkpt lat="46.12279" lon="5.84868">
        <ele>662</ele>
        <time>2019-05-05T16:54:47Z</time>
      </trkpt>
      <trkpt lat="46.12282" lon="5.84865">
        <ele>660</ele>
        <time>2019-05-05T16:54:50Z</time>
      </trkpt>
      <trkpt lat="46.12285" lon="5.84862">
        <ele>659</ele>
        <time>2019-05-05T16:54:53Z</time>
      </trkpt>
      <trkpt lat="46.12286" lon="5.84861">
        <ele>659</ele>
        <time>2019-05-05T16:54:54Z</time>
      </trkpt>
      <trkpt lat="46.12287" lon="5.84859">
        <ele>658</ele>
        <time>2019-05-05T16:54:55Z</time>
      </trkpt>
      <trkpt lat="46.12289" lon="5.84857">
        <ele>657</ele>
        <time>2019-05-05T16:54:57Z</time>
      </trkpt>
      <trkpt lat="46.12293" lon="5.84855">
        <ele>656</ele>
        <time>2019-05-05T16:55:00Z</time>
      </trkpt>
      <trkpt lat="46.12295" lon="5.84853">
        <ele>655</ele>
        <time>2019-05-05T16:55:02Z</time>
      </trkpt>
      <trkpt lat="46.12296" lon="5.84851">
        <ele>655</ele>
        <time>2019-05-05T16:55:03Z</time>
      </trkpt>
      <trkpt lat="46.12297" lon="5.84849">
        <ele>654</ele>
        <time>2019-05-05T16:55:04Z</time>
      </trkpt>
      <trkpt lat="46.12298" lon="5.84844">
        <ele>653</ele>
        <time>2019-05-05T16:55:07Z</time>
      </trkpt>
      <trkpt lat="46.12299" lon="5.84842">
        <ele>653</ele>
        <time>2019-05-05T16:55:08Z</time>
      </trkpt>
      <trkpt lat="46.12302" lon="5.8484">
        <ele>651</ele>
        <time>2019-05-05T16:55:11Z</time>
      </trkpt>
      <trkpt lat="46.12306" lon="5.84837">
        <ele>650</ele>
        <time>2019-05-05T16:55:14Z</time>
      </trkpt>
      <trkpt lat="46.12308" lon="5.84834">
        <ele>649</ele>
        <time>2019-05-05T16:55:17Z</time>
      </trkpt>
      <trkpt lat="46.12312" lon="5.84831">
        <ele>647</ele>
        <time>2019-05-05T16:55:20Z</time>
      </trkpt>
      <trkpt lat="46.12315" lon="5.84826">
        <ele>645</ele>
        <time>2019-05-05T16:55:24Z</time>
      </trkpt>
      <trkpt lat="46.12316" lon="5.84823">
        <ele>645</ele>
        <time>2019-05-05T16:55:25Z</time>
      </trkpt>
      <trkpt lat="46.1232" lon="5.84819">
        <ele>643</ele>
        <time>2019-05-05T16:55:29Z</time>
      </trkpt>
      <trkpt lat="46.1232" lon="5.84818">
        <ele>643</ele>
        <time>2019-05-05T16:55:29Z</time>
      </trkpt>
      <trkpt lat="46.12322" lon="5.84816">
        <ele>642</ele>
        <time>2019-05-05T16:55:31Z</time>
      </trkpt>
      <trkpt lat="46.12324" lon="5.84811">
        <ele>640</ele>
        <time>2019-05-05T16:55:34Z</time>
      </trkpt>
      <trkpt lat="46.12327" lon="5.84803">
        <ele>639</ele>
        <time>2019-05-05T16:55:39Z</time>
      </trkpt>
      <trkpt lat="46.12329" lon="5.848">
        <ele>638</ele>
        <time>2019-05-05T16:55:41Z</time>
      </trkpt>
      <trkpt lat="46.12329" lon="5.84799">
        <ele>637</ele>
        <time>2019-05-05T16:55:42Z</time>
      </trkpt>
      <trkpt lat="46.12329" lon="5.84792">
        <ele>637</ele>
        <time>2019-05-05T16:55:45Z</time>
      </trkpt>
      <trkpt lat="46.1233" lon="5.84794">
        <ele>636</ele>
        <time>2019-05-05T16:55:47Z</time>
      </trkpt>
      <trkpt lat="46.12333" lon="5.84797">
        <ele>635</ele>
        <time>2019-05-05T16:55:50Z</time>
      </trkpt>
      <trkpt lat="46.12337" lon="5.84778">
        <ele>632</ele>
        <time>2019-05-05T16:56:00Z</time>
      </trkpt>
      <trkpt lat="46.1235" lon="5.84774">
        <ele>625</ele>
        <time>2019-05-05T16:56:11Z</time>
      </trkpt>
      <trkpt lat="46.12354" lon="5.84776">
        <ele>624</ele>
        <time>2019-05-05T16:56:14Z</time>
      </trkpt>
      <trkpt lat="46.12346" lon="5.84777">
        <ele>627</ele>
        <time>2019-05-05T16:56:20Z</time>
      </trkpt>
      <trkpt lat="46.12327" lon="5.8478">
        <ele>637</ele>
        <time>2019-05-05T16:56:35Z</time>
      </trkpt>
      <trkpt lat="46.12331" lon="5.84771">
        <ele>634</ele>
        <time>2019-05-05T16:56:41Z</time>
      </trkpt>
      <trkpt lat="46.12319" lon="5.84768">
        <ele>640</ele>
        <time>2019-05-05T16:56:51Z</time>
      </trkpt>
      <trkpt lat="46.12318" lon="5.84768">
        <ele>640</ele>
        <time>2019-05-05T16:56:51Z</time>
      </trkpt>
      <trkpt lat="46.12316" lon="5.84779">
        <ele>642</ele>
        <time>2019-05-05T16:56:57Z</time>
      </trkpt>
      <trkpt lat="46.12329" lon="5.84786">
        <ele>636</ele>
        <time>2019-05-05T16:57:08Z</time>
      </trkpt>
      <trkpt lat="46.12335" lon="5.84777">
        <ele>633</ele>
        <time>2019-05-05T16:57:14Z</time>
      </trkpt>
      <trkpt lat="46.12331" lon="5.8478">
        <ele>635</ele>
        <time>2019-05-05T16:57:18Z</time>
      </trkpt>
      <trkpt lat="46.12332" lon="5.84783">
        <ele>635</ele>
        <time>2019-05-05T16:57:19Z</time>
      </trkpt>
      <trkpt lat="46.12332" lon="5.84782">
        <ele>635</ele>
        <time>2019-05-05T16:57:20Z</time>
      </trkpt>
      <trkpt lat="46.12332" lon="5.8478">
        <ele>634</ele>
        <time>2019-05-05T16:57:21Z</time>
      </trkpt>
      <trkpt lat="46.12335" lon="5.8478">
        <ele>633</ele>
        <time>2019-05-05T16:57:23Z</time>
      </trkpt>
      <trkpt lat="46.12333" lon="5.84784">
        <ele>634</ele>
        <time>2019-05-05T16:57:26Z</time>
      </trkpt>
      <trkpt lat="46.12333" lon="5.84787">
        <ele>635</ele>
        <time>2019-05-05T16:57:27Z</time>
      </trkpt>
      <trkpt lat="46.12333" lon="5.84789">
        <ele>635</ele>
        <time>2019-05-05T16:57:28Z</time>
      </trkpt>
      <trkpt lat="46.12331" lon="5.84789">
        <ele>636</ele>
        <time>2019-05-05T16:57:30Z</time>
      </trkpt>
      <trkpt lat="46.12332" lon="5.84791">
        <ele>636</ele>
        <time>2019-05-05T16:57:30Z</time>
      </trkpt>
      <trkpt lat="46.12331" lon="5.84791">
        <ele>636</ele>
        <time>2019-05-05T16:57:31Z</time>
      </trkpt>
      <trkpt lat="46.12327" lon="5.84781">
        <ele>637</ele>
        <time>2019-05-05T16:57:36Z</time>
      </trkpt>
      <trkpt lat="46.12323" lon="5.84783">
        <ele>639</ele>
        <time>2019-05-05T16:57:40Z</time>
      </trkpt>
      <trkpt lat="46.1233" lon="5.84803">
        <ele>637</ele>
        <time>2019-05-05T16:57:51Z</time>
      </trkpt>
      <trkpt lat="46.12325" lon="5.84797">
        <ele>639</ele>
        <time>2019-05-05T16:57:56Z</time>
      </trkpt>
      <trkpt lat="46.12311" lon="5.84795">
        <ele>645</ele>
        <time>2019-05-05T16:58:07Z</time>
      </trkpt>
      <trkpt lat="46.12318" lon="5.848">
        <ele>643</ele>
        <time>2019-05-05T16:58:13Z</time>
      </trkpt>
      <trkpt lat="46.12326" lon="5.848">
        <ele>639</ele>
        <time>2019-05-05T16:58:19Z</time>
      </trkpt>
      <trkpt lat="46.12327" lon="5.84804">
        <ele>639</ele>
        <time>2019-05-05T16:58:21Z</time>
      </trkpt>
      <trkpt lat="46.12329" lon="5.84795">
        <ele>637</ele>
        <time>2019-05-05T16:58:26Z</time>
      </trkpt>
      <trkpt lat="46.1233" lon="5.84792">
        <ele>636</ele>
        <time>2019-05-05T16:58:28Z</time>
      </trkpt>
      <trkpt lat="46.12329" lon="5.84788">
        <ele>636</ele>
        <time>2019-05-05T16:58:31Z</time>
      </trkpt>
      <trkpt lat="46.12329" lon="5.84785">
        <ele>636</ele>
        <time>2019-05-05T16:58:32Z</time>
      </trkpt>
      <trkpt lat="46.12329" lon="5.84783">
        <ele>636</ele>
        <time>2019-05-05T16:58:33Z</time>
      </trkpt>
      <trkpt lat="46.12329" lon="5.8478">
        <ele>636</ele>
        <time>2019-05-05T16:58:34Z</time>
      </trkpt>
      <trkpt lat="46.1233" lon="5.84775">
        <ele>635</ele>
        <time>2019-05-05T16:58:37Z</time>
      </trkpt>
      <trkpt lat="46.1233" lon="5.84771">
        <ele>635</ele>
        <time>2019-05-05T16:58:39Z</time>
      </trkpt>
      <trkpt lat="46.1233" lon="5.84768">
        <ele>635</ele>
        <time>2019-05-05T16:58:41Z</time>
      </trkpt>
      <trkpt lat="46.1233" lon="5.84759">
        <ele>634</ele>
        <time>2019-05-05T16:58:45Z</time>
      </trkpt>
      <trkpt lat="46.12331" lon="5.84758">
        <ele>633</ele>
        <time>2019-05-05T16:58:46Z</time>
      </trkpt>
      <trkpt lat="46.12331" lon="5.84752">
        <ele>632</ele>
        <time>2019-05-05T16:58:49Z</time>
      </trkpt>
      <trkpt lat="46.12332" lon="5.84752">
        <ele>632</ele>
        <time>2019-05-05T16:58:50Z</time>
      </trkpt>
      <trkpt lat="46.12332" lon="5.84751">
        <ele>632</ele>
        <time>2019-05-05T16:58:50Z</time>
      </trkpt>
      <trkpt lat="46.12333" lon="5.84749">
        <ele>631</ele>
        <time>2019-05-05T16:58:51Z</time>
      </trkpt>
      <trkpt lat="46.12332" lon="5.84747">
        <ele>631</ele>
        <time>2019-05-05T16:58:53Z</time>
      </trkpt>
      <trkpt lat="46.12329" lon="5.84744">
        <ele>632</ele>
        <time>2019-05-05T16:58:55Z</time>
      </trkpt>
      <trkpt lat="46.12326" lon="5.84743">
        <ele>634</ele>
        <time>2019-05-05T16:58:58Z</time>
      </trkpt>
      <trkpt lat="46.12324" lon="5.8474">
        <ele>635</ele>
        <time>2019-05-05T16:59:00Z</time>
      </trkpt>
      <trkpt lat="46.12323" lon="5.84736">
        <ele>635</ele>
        <time>2019-05-05T16:59:02Z</time>
      </trkpt>
      <trkpt lat="46.12324" lon="5.84732">
        <ele>634</ele>
        <time>2019-05-05T16:59:04Z</time>
      </trkpt>
      <trkpt lat="46.12331" lon="5.8472">
        <ele>629</ele>
        <time>2019-05-05T16:59:13Z</time>
      </trkpt>
      <trkpt lat="46.12331" lon="5.84718">
        <ele>629</ele>
        <time>2019-05-05T16:59:14Z</time>
      </trkpt>
      <trkpt lat="46.12332" lon="5.8471">
        <ele>628</ele>
        <time>2019-05-05T16:59:18Z</time>
      </trkpt>
      <trkpt lat="46.12332" lon="5.84703">
        <ele>627</ele>
        <time>2019-05-05T16:59:21Z</time>
      </trkpt>
      <trkpt lat="46.12332" lon="5.847">
        <ele>627</ele>
        <time>2019-05-05T16:59:23Z</time>
      </trkpt>
      <trkpt lat="46.12331" lon="5.84694">
        <ele>626</ele>
        <time>2019-05-05T16:59:26Z</time>
      </trkpt>
      <trkpt lat="46.1233" lon="5.8469">
        <ele>627</ele>
        <time>2019-05-05T16:59:29Z</time>
      </trkpt>
      <trkpt lat="46.12328" lon="5.84685">
        <ele>627</ele>
        <time>2019-05-05T16:59:31Z</time>
      </trkpt>
      <trkpt lat="46.12327" lon="5.84683">
        <ele>627</ele>
        <time>2019-05-05T16:59:33Z</time>
      </trkpt>
      <trkpt lat="46.12325" lon="5.84679">
        <ele>628</ele>
        <time>2019-05-05T16:59:35Z</time>
      </trkpt>
      <trkpt lat="46.12322" lon="5.84677">
        <ele>629</ele>
        <time>2019-05-05T16:59:38Z</time>
      </trkpt>
      <trkpt lat="46.12321" lon="5.84673">
        <ele>629</ele>
        <time>2019-05-05T16:59:40Z</time>
      </trkpt>
      <trkpt lat="46.1232" lon="5.84671">
        <ele>629</ele>
        <time>2019-05-05T16:59:41Z</time>
      </trkpt>
      <trkpt lat="46.12319" lon="5.84669">
        <ele>630</ele>
        <time>2019-05-05T16:59:43Z</time>
      </trkpt>
      <trkpt lat="46.12318" lon="5.84666">
        <ele>630</ele>
        <time>2019-05-05T16:59:44Z</time>
      </trkpt>
      <trkpt lat="46.12319" lon="5.84665">
        <ele>629</ele>
        <time>2019-05-05T16:59:45Z</time>
      </trkpt>
      <trkpt lat="46.12323" lon="5.84658">
        <ele>626</ele>
        <time>2019-05-05T16:59:50Z</time>
      </trkpt>
      <trkpt lat="46.12324" lon="5.84656">
        <ele>626</ele>
        <time>2019-05-05T16:59:51Z</time>
      </trkpt>
      <trkpt lat="46.12325" lon="5.84649">
        <ele>625</ele>
        <time>2019-05-05T16:59:55Z</time>
      </trkpt>
      <trkpt lat="46.12324" lon="5.84645">
        <ele>625</ele>
        <time>2019-05-05T16:59:57Z</time>
      </trkpt>
      <trkpt lat="46.12325" lon="5.84643">
        <ele>624</ele>
        <time>2019-05-05T16:59:58Z</time>
      </trkpt>
      <trkpt lat="46.12325" lon="5.84643">
        <ele>624</ele>
        <time>2019-05-05T16:59:58Z</time>
      </trkpt>
      <trkpt lat="46.12326" lon="5.84642">
        <ele>623</ele>
        <time>2019-05-05T17:00:00Z</time>
      </trkpt>
      <trkpt lat="46.12329" lon="5.84631">
        <ele>621</ele>
        <time>2019-05-05T17:00:06Z</time>
      </trkpt>
      <trkpt lat="46.12328" lon="5.84616">
        <ele>620</ele>
        <time>2019-05-05T17:00:13Z</time>
      </trkpt>
      <trkpt lat="46.12327" lon="5.84613">
        <ele>619</ele>
        <time>2019-05-05T17:00:15Z</time>
      </trkpt>
      <trkpt lat="46.12327" lon="5.8461">
        <ele>619</ele>
        <time>2019-05-05T17:00:16Z</time>
      </trkpt>
      <trkpt lat="46.12325" lon="5.84604">
        <ele>619</ele>
        <time>2019-05-05T17:00:20Z</time>
      </trkpt>
      <trkpt lat="46.12326" lon="5.846">
        <ele>619</ele>
        <time>2019-05-05T17:00:21Z</time>
      </trkpt>
      <trkpt lat="46.12326" lon="5.84599">
        <ele>618</ele>
        <time>2019-05-05T17:00:22Z</time>
      </trkpt>
      <trkpt lat="46.12324" lon="5.846">
        <ele>620</ele>
        <time>2019-05-05T17:00:24Z</time>
      </trkpt>
      <trkpt lat="46.12323" lon="5.84601">
        <ele>620</ele>
        <time>2019-05-05T17:00:25Z</time>
      </trkpt>
      <trkpt lat="46.12322" lon="5.846">
        <ele>620</ele>
        <time>2019-05-05T17:00:26Z</time>
      </trkpt>
      <trkpt lat="46.12322" lon="5.84599">
        <ele>620</ele>
        <time>2019-05-05T17:00:27Z</time>
      </trkpt>
      <trkpt lat="46.12322" lon="5.84587">
        <ele>620</ele>
        <time>2019-05-05T17:00:33Z</time>
      </trkpt>
      <trkpt lat="46.12322" lon="5.84585">
        <ele>620</ele>
        <time>2019-05-05T17:00:34Z</time>
      </trkpt>
      <trkpt lat="46.12325" lon="5.84573">
        <ele>618</ele>
        <time>2019-05-05T17:00:40Z</time>
      </trkpt>
      <trkpt lat="46.12327" lon="5.84569">
        <ele>617</ele>
        <time>2019-05-05T17:00:43Z</time>
      </trkpt>
      <trkpt lat="46.12332" lon="5.8456">
        <ele>614</ele>
        <time>2019-05-05T17:00:49Z</time>
      </trkpt>
      <trkpt lat="46.12334" lon="5.84551">
        <ele>612</ele>
        <time>2019-05-05T17:00:54Z</time>
      </trkpt>
      <trkpt lat="46.12337" lon="5.84536">
        <ele>610</ele>
        <time>2019-05-05T17:01:02Z</time>
      </trkpt>
      <trkpt lat="46.12338" lon="5.84534">
        <ele>609</ele>
        <time>2019-05-05T17:01:03Z</time>
      </trkpt>
      <trkpt lat="46.12342" lon="5.84523">
        <ele>607</ele>
        <time>2019-05-05T17:01:10Z</time>
      </trkpt>
      <trkpt lat="46.12343" lon="5.84522">
        <ele>606</ele>
        <time>2019-05-05T17:01:11Z</time>
      </trkpt>
      <trkpt lat="46.12347" lon="5.84516">
        <ele>604</ele>
        <time>2019-05-05T17:01:15Z</time>
      </trkpt>
      <trkpt lat="46.12347" lon="5.84514">
        <ele>603</ele>
        <time>2019-05-05T17:01:16Z</time>
      </trkpt>
      <trkpt lat="46.1235" lon="5.84502">
        <ele>603</ele>
        <time>2019-05-05T17:01:23Z</time>
      </trkpt>
      <trkpt lat="46.12351" lon="5.84494">
        <ele>602</ele>
        <time>2019-05-05T17:01:27Z</time>
      </trkpt>
      <trkpt lat="46.12352" lon="5.8449">
        <ele>602</ele>
        <time>2019-05-05T17:01:29Z</time>
      </trkpt>
      <trkpt lat="46.12352" lon="5.84488">
        <ele>602</ele>
        <time>2019-05-05T17:01:30Z</time>
      </trkpt>
      <trkpt lat="46.12355" lon="5.84483">
        <ele>601</ele>
        <time>2019-05-05T17:01:33Z</time>
      </trkpt>
      <trkpt lat="46.12358" lon="5.84473">
        <ele>600</ele>
        <time>2019-05-05T17:01:39Z</time>
      </trkpt>
      <trkpt lat="46.1236" lon="5.84471">
        <ele>600</ele>
        <time>2019-05-05T17:01:41Z</time>
      </trkpt>
      <trkpt lat="46.12363" lon="5.84467">
        <ele>599</ele>
        <time>2019-05-05T17:01:43Z</time>
      </trkpt>
      <trkpt lat="46.12374" lon="5.8445">
        <ele>596</ele>
        <time>2019-05-05T17:01:55Z</time>
      </trkpt>
      <trkpt lat="46.12378" lon="5.84447">
        <ele>594</ele>
        <time>2019-05-05T17:01:59Z</time>
      </trkpt>
      <trkpt lat="46.12383" lon="5.84441">
        <ele>592</ele>
        <time>2019-05-05T17:02:03Z</time>
      </trkpt>
      <trkpt lat="46.12389" lon="5.84435">
        <ele>590</ele>
        <time>2019-05-05T17:02:09Z</time>
      </trkpt>
      <trkpt lat="46.12402" lon="5.84421">
        <ele>585</ele>
        <time>2019-05-05T17:02:21Z</time>
      </trkpt>
      <trkpt lat="46.12403" lon="5.84419">
        <ele>585</ele>
        <time>2019-05-05T17:02:23Z</time>
      </trkpt>
      <trkpt lat="46.12405" lon="5.84415">
        <ele>585</ele>
        <time>2019-05-05T17:02:25Z</time>
      </trkpt>
      <trkpt lat="46.12406" lon="5.84414">
        <ele>584</ele>
        <time>2019-05-05T17:02:26Z</time>
      </trkpt>
      <trkpt lat="46.12407" lon="5.84413">
        <ele>584</ele>
        <time>2019-05-05T17:02:27Z</time>
      </trkpt>
      <trkpt lat="46.1241" lon="5.8441">
        <ele>583</ele>
        <time>2019-05-05T17:02:30Z</time>
      </trkpt>
      <trkpt lat="46.12414" lon="5.84404">
        <ele>582</ele>
        <time>2019-05-05T17:02:34Z</time>
      </trkpt>
      <trkpt lat="46.12415" lon="5.84403">
        <ele>581</ele>
        <time>2019-05-05T17:02:35Z</time>
      </trkpt>
      <trkpt lat="46.12417" lon="5.844">
        <ele>581</ele>
        <time>2019-05-05T17:02:37Z</time>
      </trkpt>
      <trkpt lat="46.12418" lon="5.84397">
        <ele>581</ele>
        <time>2019-05-05T17:02:39Z</time>
      </trkpt>
      <trkpt lat="46.12419" lon="5.84393">
        <ele>580</ele>
        <time>2019-05-05T17:02:41Z</time>
      </trkpt>
      <trkpt lat="46.1242" lon="5.84389">
        <ele>580</ele>
        <time>2019-05-05T17:02:43Z</time>
      </trkpt>
      <trkpt lat="46.12422" lon="5.84383">
        <ele>579</ele>
        <time>2019-05-05T17:02:46Z</time>
      </trkpt>
      <trkpt lat="46.12423" lon="5.84383">
        <ele>579</ele>
        <time>2019-05-05T17:02:47Z</time>
      </trkpt>
      <trkpt lat="46.12428" lon="5.84378">
        <ele>577</ele>
        <time>2019-05-05T17:02:51Z</time>
      </trkpt>
      <trkpt lat="46.12434" lon="5.84374">
        <ele>575</ele>
        <time>2019-05-05T17:02:56Z</time>
      </trkpt>
      <trkpt lat="46.12437" lon="5.84365">
        <ele>574</ele>
        <time>2019-05-05T17:03:01Z</time>
      </trkpt>
      <trkpt lat="46.12437" lon="5.84362">
        <ele>575</ele>
        <time>2019-05-05T17:03:03Z</time>
      </trkpt>
      <trkpt lat="46.12437" lon="5.8436">
        <ele>575</ele>
        <time>2019-05-05T17:03:04Z</time>
      </trkpt>
      <trkpt lat="46.12436" lon="5.84358">
        <ele>575</ele>
        <time>2019-05-05T17:03:05Z</time>
      </trkpt>
      <trkpt lat="46.12429" lon="5.84332">
        <ele>577</ele>
        <time>2019-05-05T17:03:19Z</time>
      </trkpt>
      <trkpt lat="46.12433" lon="5.84326">
        <ele>575</ele>
        <time>2019-05-05T17:03:23Z</time>
      </trkpt>
      <trkpt lat="46.12433" lon="5.84322">
        <ele>575</ele>
        <time>2019-05-05T17:03:25Z</time>
      </trkpt>
      <trkpt lat="46.12433" lon="5.84315">
        <ele>574</ele>
        <time>2019-05-05T17:03:29Z</time>
      </trkpt>
      <trkpt lat="46.12434" lon="5.8431">
        <ele>573</ele>
        <time>2019-05-05T17:03:32Z</time>
      </trkpt>
      <trkpt lat="46.12434" lon="5.84295">
        <ele>572</ele>
        <time>2019-05-05T17:03:39Z</time>
      </trkpt>
      <trkpt lat="46.12436" lon="5.84291">
        <ele>572</ele>
        <time>2019-05-05T17:03:41Z</time>
      </trkpt>
      <trkpt lat="46.12437" lon="5.84288">
        <ele>571</ele>
        <time>2019-05-05T17:03:43Z</time>
      </trkpt>
      <trkpt lat="46.12439" lon="5.84285">
        <ele>571</ele>
        <time>2019-05-05T17:03:45Z</time>
      </trkpt>
      <trkpt lat="46.1244" lon="5.84282">
        <ele>570</ele>
        <time>2019-05-05T17:03:48Z</time>
      </trkpt>
      <trkpt lat="46.12441" lon="5.84273">
        <ele>570</ele>
        <time>2019-05-05T17:03:52Z</time>
      </trkpt>
      <trkpt lat="46.12442" lon="5.8427">
        <ele>569</ele>
        <time>2019-05-05T17:03:54Z</time>
      </trkpt>
      <trkpt lat="46.12441" lon="5.84266">
        <ele>569</ele>
        <time>2019-05-05T17:03:56Z</time>
      </trkpt>
      <trkpt lat="46.12442" lon="5.84261">
        <ele>569</ele>
        <time>2019-05-05T17:03:59Z</time>
      </trkpt>
      <trkpt lat="46.12444" lon="5.84254">
        <ele>567</ele>
        <time>2019-05-05T17:04:02Z</time>
      </trkpt>
      <trkpt lat="46.12443" lon="5.8425">
        <ele>567</ele>
        <time>2019-05-05T17:04:04Z</time>
      </trkpt>
      <trkpt lat="46.12443" lon="5.84247">
        <ele>566</ele>
        <time>2019-05-05T17:04:06Z</time>
      </trkpt>
      <trkpt lat="46.12442" lon="5.84243">
        <ele>566</ele>
        <time>2019-05-05T17:04:08Z</time>
      </trkpt>
      <trkpt lat="46.12442" lon="5.8424">
        <ele>565</ele>
        <time>2019-05-05T17:04:10Z</time>
      </trkpt>
      <trkpt lat="46.12442" lon="5.84237">
        <ele>565</ele>
        <time>2019-05-05T17:04:11Z</time>
      </trkpt>
      <trkpt lat="46.12442" lon="5.8423">
        <ele>563</ele>
        <time>2019-05-05T17:04:15Z</time>
      </trkpt>
      <trkpt lat="46.12443" lon="5.84226">
        <ele>563</ele>
        <time>2019-05-05T17:04:17Z</time>
      </trkpt>
      <trkpt lat="46.12444" lon="5.8422">
        <ele>562</ele>
        <time>2019-05-05T17:04:20Z</time>
      </trkpt>
      <trkpt lat="46.12443" lon="5.84213">
        <ele>561</ele>
        <time>2019-05-05T17:04:24Z</time>
      </trkpt>
      <trkpt lat="46.12438" lon="5.84201">
        <ele>559</ele>
        <time>2019-05-05T17:04:31Z</time>
      </trkpt>
      <trkpt lat="46.12432" lon="5.84189">
        <ele>559</ele>
        <time>2019-05-05T17:04:39Z</time>
      </trkpt>
      <trkpt lat="46.12432" lon="5.84189">
        <ele>559</ele>
        <time>2019-05-05T17:04:39Z</time>
      </trkpt>
      <trkpt lat="46.12421" lon="5.84169">
        <ele>559</ele>
        <time>2019-05-05T17:04:51Z</time>
      </trkpt>
      <trkpt lat="46.12418" lon="5.84161">
        <ele>558</ele>
        <time>2019-05-05T17:04:56Z</time>
      </trkpt>
      <trkpt lat="46.12413" lon="5.84149">
        <ele>558</ele>
        <time>2019-05-05T17:05:03Z</time>
      </trkpt>
      <trkpt lat="46.12409" lon="5.8414">
        <ele>557</ele>
        <time>2019-05-05T17:05:08Z</time>
      </trkpt>
      <trkpt lat="46.12406" lon="5.84137">
        <ele>557</ele>
        <time>2019-05-05T17:05:11Z</time>
      </trkpt>
      <trkpt lat="46.12405" lon="5.84134">
        <ele>557</ele>
        <time>2019-05-05T17:05:12Z</time>
      </trkpt>
      <trkpt lat="46.12401" lon="5.8413">
        <ele>557</ele>
        <time>2019-05-05T17:05:16Z</time>
      </trkpt>
      <trkpt lat="46.12401" lon="5.84128">
        <ele>557</ele>
        <time>2019-05-05T17:05:17Z</time>
      </trkpt>
      <trkpt lat="46.12399" lon="5.84123">
        <ele>557</ele>
        <time>2019-05-05T17:05:19Z</time>
      </trkpt>
      <trkpt lat="46.12399" lon="5.84121">
        <ele>556</ele>
        <time>2019-05-05T17:05:21Z</time>
      </trkpt>
      <trkpt lat="46.12398" lon="5.84119">
        <ele>556</ele>
        <time>2019-05-05T17:05:22Z</time>
      </trkpt>
      <trkpt lat="46.12394" lon="5.84115">
        <ele>557</ele>
        <time>2019-05-05T17:05:26Z</time>
      </trkpt>
      <trkpt lat="46.12392" lon="5.84111">
        <ele>556</ele>
        <time>2019-05-05T17:05:28Z</time>
      </trkpt>
      <trkpt lat="46.12389" lon="5.84103">
        <ele>556</ele>
        <time>2019-05-05T17:05:32Z</time>
      </trkpt>
      <trkpt lat="46.12387" lon="5.84098">
        <ele>555</ele>
        <time>2019-05-05T17:05:35Z</time>
      </trkpt>
      <trkpt lat="46.12386" lon="5.84093">
        <ele>554</ele>
        <time>2019-05-05T17:05:38Z</time>
      </trkpt>
      <trkpt lat="46.12384" lon="5.8409">
        <ele>554</ele>
        <time>2019-05-05T17:05:40Z</time>
      </trkpt>
      <trkpt lat="46.12384" lon="5.84086">
        <ele>553</ele>
        <time>2019-05-05T17:05:42Z</time>
      </trkpt>
      <trkpt lat="46.12381" lon="5.84079">
        <ele>552</ele>
        <time>2019-05-05T17:05:46Z</time>
      </trkpt>
      <trkpt lat="46.12381" lon="5.84076">
        <ele>552</ele>
        <time>2019-05-05T17:05:47Z</time>
      </trkpt>
      <trkpt lat="46.12378" lon="5.84069">
        <ele>551</ele>
        <time>2019-05-05T17:05:52Z</time>
      </trkpt>
      <trkpt lat="46.12376" lon="5.84068">
        <ele>551</ele>
        <time>2019-05-05T17:05:53Z</time>
      </trkpt>
      <trkpt lat="46.12371" lon="5.84064">
        <ele>551</ele>
        <time>2019-05-05T17:05:58Z</time>
      </trkpt>
      <trkpt lat="46.12369" lon="5.84058">
        <ele>550</ele>
        <time>2019-05-05T17:06:01Z</time>
      </trkpt>
      <trkpt lat="46.12368" lon="5.84058">
        <ele>550</ele>
        <time>2019-05-05T17:06:01Z</time>
      </trkpt>
      <trkpt lat="46.12367" lon="5.84054">
        <ele>549</ele>
        <time>2019-05-05T17:06:04Z</time>
      </trkpt>
      <trkpt lat="46.12364" lon="5.8405">
        <ele>549</ele>
        <time>2019-05-05T17:06:06Z</time>
      </trkpt>
      <trkpt lat="46.12363" lon="5.84048">
        <ele>549</ele>
        <time>2019-05-05T17:06:08Z</time>
      </trkpt>
      <trkpt lat="46.12355" lon="5.84034">
        <ele>546</ele>
        <time>2019-05-05T17:06:17Z</time>
      </trkpt>
      <trkpt lat="46.12352" lon="5.84031">
        <ele>546</ele>
        <time>2019-05-05T17:06:20Z</time>
      </trkpt>
      <trkpt lat="46.12347" lon="5.84027">
        <ele>546</ele>
        <time>2019-05-05T17:06:24Z</time>
      </trkpt>
      <trkpt lat="46.12337" lon="5.84019">
        <ele>546</ele>
        <time>2019-05-05T17:06:32Z</time>
      </trkpt>
      <trkpt lat="46.12331" lon="5.84012">
        <ele>545</ele>
        <time>2019-05-05T17:06:38Z</time>
      </trkpt>
      <trkpt lat="46.12331" lon="5.8401">
        <ele>545</ele>
        <time>2019-05-05T17:06:38Z</time>
      </trkpt>
      <trkpt lat="46.12321" lon="5.83997">
        <ele>544</ele>
        <time>2019-05-05T17:06:48Z</time>
      </trkpt>
      <trkpt lat="46.12314" lon="5.83985">
        <ele>543</ele>
        <time>2019-05-05T17:06:56Z</time>
      </trkpt>
      <trkpt lat="46.12311" lon="5.8398">
        <ele>543</ele>
        <time>2019-05-05T17:07:00Z</time>
      </trkpt>
      <trkpt lat="46.12309" lon="5.83977">
        <ele>543</ele>
        <time>2019-05-05T17:07:02Z</time>
      </trkpt>
      <trkpt lat="46.12308" lon="5.83975">
        <ele>543</ele>
        <time>2019-05-05T17:07:03Z</time>
      </trkpt>
      <trkpt lat="46.12304" lon="5.8397">
        <ele>542</ele>
        <time>2019-05-05T17:07:06Z</time>
      </trkpt>
      <trkpt lat="46.12301" lon="5.83961">
        <ele>541</ele>
        <time>2019-05-05T17:07:11Z</time>
      </trkpt>
      <trkpt lat="46.12301" lon="5.83953">
        <ele>539</ele>
        <time>2019-05-05T17:07:15Z</time>
      </trkpt>
      <trkpt lat="46.12298" lon="5.83942">
        <ele>537</ele>
        <time>2019-05-05T17:07:22Z</time>
      </trkpt>
      <trkpt lat="46.12296" lon="5.83938">
        <ele>537</ele>
        <time>2019-05-05T17:07:24Z</time>
      </trkpt>
      <trkpt lat="46.12295" lon="5.83934">
        <ele>536</ele>
        <time>2019-05-05T17:07:26Z</time>
      </trkpt>
      <trkpt lat="46.12286" lon="5.83909">
        <ele>533</ele>
        <time>2019-05-05T17:07:41Z</time>
      </trkpt>
      <trkpt lat="46.12283" lon="5.83901">
        <ele>532</ele>
        <time>2019-05-05T17:07:45Z</time>
      </trkpt>
      <trkpt lat="46.12279" lon="5.83895">
        <ele>532</ele>
        <time>2019-05-05T17:07:50Z</time>
      </trkpt>
      <trkpt lat="46.12275" lon="5.83885">
        <ele>531</ele>
        <time>2019-05-05T17:07:55Z</time>
      </trkpt>
      <trkpt lat="46.12274" lon="5.83878">
        <ele>530</ele>
        <time>2019-05-05T17:07:59Z</time>
      </trkpt>
      <trkpt lat="46.12273" lon="5.83875">
        <ele>530</ele>
        <time>2019-05-05T17:08:01Z</time>
      </trkpt>
      <trkpt lat="46.12266" lon="5.83855">
        <ele>527</ele>
        <time>2019-05-05T17:08:12Z</time>
      </trkpt>
      <trkpt lat="46.12262" lon="5.83827">
        <ele>524</ele>
        <time>2019-05-05T17:08:27Z</time>
      </trkpt>
      <trkpt lat="46.12262" lon="5.83825">
        <ele>524</ele>
        <time>2019-05-05T17:08:28Z</time>
      </trkpt>
      <trkpt lat="46.12263" lon="5.83813">
        <ele>523</ele>
        <time>2019-05-05T17:08:34Z</time>
      </trkpt>
      <trkpt lat="46.12263" lon="5.838">
        <ele>522</ele>
        <time>2019-05-05T17:08:40Z</time>
      </trkpt>
      <trkpt lat="46.12263" lon="5.83794">
        <ele>521</ele>
        <time>2019-05-05T17:08:44Z</time>
      </trkpt>
      <trkpt lat="46.12263" lon="5.83789">
        <ele>521</ele>
        <time>2019-05-05T17:08:46Z</time>
      </trkpt>
      <trkpt lat="46.12263" lon="5.83785">
        <ele>521</ele>
        <time>2019-05-05T17:08:48Z</time>
      </trkpt>
      <trkpt lat="46.12263" lon="5.83784">
        <ele>521</ele>
        <time>2019-05-05T17:08:48Z</time>
      </trkpt>
      <trkpt lat="46.12263" lon="5.83781">
        <ele>520</ele>
        <time>2019-05-05T17:08:50Z</time>
      </trkpt>
      <trkpt lat="46.12263" lon="5.83777">
        <ele>520</ele>
        <time>2019-05-05T17:08:52Z</time>
      </trkpt>
      <trkpt lat="46.12263" lon="5.83774">
        <ele>520</ele>
        <time>2019-05-05T17:08:53Z</time>
      </trkpt>
      <trkpt lat="46.12262" lon="5.83766">
        <ele>519</ele>
        <time>2019-05-05T17:08:58Z</time>
      </trkpt>
      <trkpt lat="46.12257" lon="5.83756">
        <ele>518</ele>
        <time>2019-05-05T17:09:04Z</time>
      </trkpt>
      <trkpt lat="46.12255" lon="5.83751">
        <ele>518</ele>
        <time>2019-05-05T17:09:06Z</time>
      </trkpt>
      <trkpt lat="46.12255" lon="5.83745">
        <ele>517</ele>
        <time>2019-05-05T17:09:10Z</time>
      </trkpt>
      <trkpt lat="46.12255" lon="5.83737">
        <ele>516</ele>
        <time>2019-05-05T17:09:14Z</time>
      </trkpt>
      <trkpt lat="46.12247" lon="5.83714">
        <ele>515</ele>
        <time>2019-05-05T17:09:27Z</time>
      </trkpt>
      <trkpt lat="46.12245" lon="5.83702">
        <ele>514</ele>
        <time>2019-05-05T17:09:33Z</time>
      </trkpt>
      <trkpt lat="46.12232" lon="5.83682">
        <ele>512</ele>
        <time>2019-05-05T17:09:46Z</time>
      </trkpt>
      <trkpt lat="46.12232" lon="5.8368">
        <ele>512</ele>
        <time>2019-05-05T17:09:47Z</time>
      </trkpt>
      <trkpt lat="46.12222" lon="5.83672">
        <ele>512</ele>
        <time>2019-05-05T17:09:55Z</time>
      </trkpt>
      <trkpt lat="46.1221" lon="5.83664">
        <ele>512</ele>
        <time>2019-05-05T17:10:05Z</time>
      </trkpt>
      <trkpt lat="46.12198" lon="5.83658">
        <ele>513</ele>
        <time>2019-05-05T17:10:14Z</time>
      </trkpt>
      <trkpt lat="46.12185" lon="5.8365">
        <ele>513</ele>
        <time>2019-05-05T17:10:24Z</time>
      </trkpt>
      <trkpt lat="46.12182" lon="5.83651">
        <ele>512</ele>
        <time>2019-05-05T17:10:27Z</time>
      </trkpt>
      <trkpt lat="46.1218" lon="5.83651">
        <ele>512</ele>
        <time>2019-05-05T17:10:28Z</time>
      </trkpt>
      <trkpt lat="46.1218" lon="5.83655">
        <ele>513</ele>
        <time>2019-05-05T17:10:30Z</time>
      </trkpt>
      <trkpt lat="46.12182" lon="5.83659">
        <ele>513</ele>
        <time>2019-05-05T17:10:33Z</time>
      </trkpt>
      <trkpt lat="46.12183" lon="5.83661">
        <ele>513</ele>
        <time>2019-05-05T17:10:34Z</time>
      </trkpt>
      <trkpt lat="46.12178" lon="5.83652">
        <ele>512</ele>
        <time>2019-05-05T17:10:39Z</time>
      </trkpt>
      <trkpt lat="46.12167" lon="5.83629">
        <ele>510</ele>
        <time>2019-05-05T17:10:53Z</time>
      </trkpt>
      <trkpt lat="46.12162" lon="5.8362">
        <ele>510</ele>
        <time>2019-05-05T17:10:59Z</time>
      </trkpt>
      <trkpt lat="46.1216" lon="5.83613">
        <ele>509</ele>
        <time>2019-05-05T17:11:03Z</time>
      </trkpt>
      <trkpt lat="46.12151" lon="5.83595">
        <ele>507</ele>
        <time>2019-05-05T17:11:14Z</time>
      </trkpt>
      <trkpt lat="46.12144" lon="5.8358">
        <ele>505</ele>
        <time>2019-05-05T17:11:23Z</time>
      </trkpt>
      <trkpt lat="46.12142" lon="5.83577">
        <ele>505</ele>
        <time>2019-05-05T17:11:25Z</time>
      </trkpt>
      <trkpt lat="46.1214" lon="5.83572">
        <ele>504</ele>
        <time>2019-05-05T17:11:28Z</time>
      </trkpt>
      <trkpt lat="46.12131" lon="5.83558">
        <ele>502</ele>
        <time>2019-05-05T17:11:38Z</time>
      </trkpt>
      <trkpt lat="46.12129" lon="5.83556">
        <ele>502</ele>
        <time>2019-05-05T17:11:40Z</time>
      </trkpt>
      <trkpt lat="46.12122" lon="5.83544">
        <ele>500</ele>
        <time>2019-05-05T17:11:48Z</time>
      </trkpt>
      <trkpt lat="46.12117" lon="5.83535">
        <ele>498</ele>
        <time>2019-05-05T17:11:54Z</time>
      </trkpt>
      <trkpt lat="46.12114" lon="5.83529">
        <ele>498</ele>
        <time>2019-05-05T17:11:57Z</time>
      </trkpt>
      <trkpt lat="46.1211" lon="5.83528">
        <ele>497</ele>
        <time>2019-05-05T17:12:00Z</time>
      </trkpt>
      <trkpt lat="46.12106" lon="5.83531">
        <ele>497</ele>
        <time>2019-05-05T17:12:04Z</time>
      </trkpt>
      <trkpt lat="46.12105" lon="5.83532">
        <ele>497</ele>
        <time>2019-05-05T17:12:04Z</time>
      </trkpt>
      <trkpt lat="46.12101" lon="5.83537">
        <ele>497</ele>
        <time>2019-05-05T17:12:08Z</time>
      </trkpt>
      <trkpt lat="46.12101" lon="5.83538">
        <ele>497</ele>
        <time>2019-05-05T17:12:09Z</time>
      </trkpt>
      <trkpt lat="46.12097" lon="5.83542">
        <ele>497</ele>
        <time>2019-05-05T17:12:12Z</time>
      </trkpt>
      <trkpt lat="46.12091" lon="5.83549">
        <ele>498</ele>
        <time>2019-05-05T17:12:18Z</time>
      </trkpt>
      <trkpt lat="46.12079" lon="5.83567">
        <ele>498</ele>
        <time>2019-05-05T17:12:30Z</time>
      </trkpt>
      <trkpt lat="46.12073" lon="5.83576">
        <ele>499</ele>
        <time>2019-05-05T17:12:37Z</time>
      </trkpt>
      <trkpt lat="46.12072" lon="5.83579">
        <ele>499</ele>
        <time>2019-05-05T17:12:38Z</time>
      </trkpt>
      <trkpt lat="46.12064" lon="5.83582">
        <ele>498</ele>
        <time>2019-05-05T17:12:44Z</time>
      </trkpt>
      <trkpt lat="46.12061" lon="5.83584">
        <ele>498</ele>
        <time>2019-05-05T17:12:46Z</time>
      </trkpt>
      <trkpt lat="46.12053" lon="5.83593">
        <ele>498</ele>
        <time>2019-05-05T17:12:54Z</time>
      </trkpt>
      <trkpt lat="46.12047" lon="5.83591">
        <ele>497</ele>
        <time>2019-05-05T17:12:59Z</time>
      </trkpt>
      <trkpt lat="46.12038" lon="5.83579">
        <ele>495</ele>
        <time>2019-05-05T17:13:08Z</time>
      </trkpt>
      <trkpt lat="46.12033" lon="5.83572">
        <ele>494</ele>
        <time>2019-05-05T17:13:13Z</time>
      </trkpt>
      <trkpt lat="46.1203" lon="5.83563">
        <ele>493</ele>
        <time>2019-05-05T17:13:18Z</time>
      </trkpt>
      <trkpt lat="46.12029" lon="5.83562">
        <ele>492</ele>
        <time>2019-05-05T17:13:19Z</time>
      </trkpt>
      <trkpt lat="46.12025" lon="5.83554">
        <ele>491</ele>
        <time>2019-05-05T17:13:24Z</time>
      </trkpt>
      <trkpt lat="46.12017" lon="5.8355">
        <ele>490</ele>
        <time>2019-05-05T17:13:30Z</time>
      </trkpt>
      <trkpt lat="46.12009" lon="5.83555">
        <ele>491</ele>
        <time>2019-05-05T17:13:36Z</time>
      </trkpt>
      <trkpt lat="46.12009" lon="5.83555">
        <ele>491</ele>
        <time>2019-05-05T17:13:36Z</time>
      </trkpt>
      <trkpt lat="46.12006" lon="5.83554">
        <ele>491</ele>
        <time>2019-05-05T17:13:38Z</time>
      </trkpt>
      <trkpt lat="46.12004" lon="5.83554">
        <ele>491</ele>
        <time>2019-05-05T17:13:40Z</time>
      </trkpt>
      <trkpt lat="46.12002" lon="5.83554">
        <ele>492</ele>
        <time>2019-05-05T17:13:42Z</time>
      </trkpt>
      <trkpt lat="46.11998" lon="5.83555">
        <ele>492</ele>
        <time>2019-05-05T17:13:44Z</time>
      </trkpt>
      <trkpt lat="46.11993" lon="5.83557">
        <ele>493</ele>
        <time>2019-05-05T17:13:48Z</time>
      </trkpt>
      <trkpt lat="46.11974" lon="5.83559">
        <ele>494</ele>
        <time>2019-05-05T17:14:02Z</time>
      </trkpt>
      <trkpt lat="46.11956" lon="5.83554">
        <ele>495</ele>
        <time>2019-05-05T17:14:15Z</time>
      </trkpt>
      <trkpt lat="46.11937" lon="5.83552">
        <ele>497</ele>
        <time>2019-05-05T17:14:29Z</time>
      </trkpt>
      <trkpt lat="46.11933" lon="5.83551">
        <ele>497</ele>
        <time>2019-05-05T17:14:32Z</time>
      </trkpt>
      <trkpt lat="46.11922" lon="5.8355">
        <ele>499</ele>
        <time>2019-05-05T17:14:40Z</time>
      </trkpt>
      <trkpt lat="46.1192" lon="5.8355">
        <ele>499</ele>
        <time>2019-05-05T17:14:41Z</time>
      </trkpt>
      <trkpt lat="46.11915" lon="5.8355">
        <ele>500</ele>
        <time>2019-05-05T17:14:45Z</time>
      </trkpt>
      <trkpt lat="46.11913" lon="5.83551">
        <ele>500</ele>
        <time>2019-05-05T17:14:46Z</time>
      </trkpt>
      <trkpt lat="46.11911" lon="5.8355">
        <ele>500</ele>
        <time>2019-05-05T17:14:48Z</time>
      </trkpt>
      <trkpt lat="46.11901" lon="5.8355">
        <ele>502</ele>
        <time>2019-05-05T17:14:56Z</time>
      </trkpt>
      <trkpt lat="46.119" lon="5.83549">
        <ele>502</ele>
        <time>2019-05-05T17:14:57Z</time>
      </trkpt>
      <trkpt lat="46.11897" lon="5.83546">
        <ele>503</ele>
        <time>2019-05-05T17:14:59Z</time>
      </trkpt>
      <trkpt lat="46.11896" lon="5.83544">
        <ele>503</ele>
        <time>2019-05-05T17:15:00Z</time>
      </trkpt>
      <trkpt lat="46.11895" lon="5.83537">
        <ele>503</ele>
        <time>2019-05-05T17:15:04Z</time>
      </trkpt>
      <trkpt lat="46.11894" lon="5.83527">
        <ele>504</ele>
        <time>2019-05-05T17:15:09Z</time>
      </trkpt>
      <trkpt lat="46.11893" lon="5.83521">
        <ele>504</ele>
        <time>2019-05-05T17:15:12Z</time>
      </trkpt>
      <trkpt lat="46.11891" lon="5.83516">
        <ele>504</ele>
        <time>2019-05-05T17:15:15Z</time>
      </trkpt>
      <trkpt lat="46.11891" lon="5.83511">
        <ele>504</ele>
        <time>2019-05-05T17:15:18Z</time>
      </trkpt>
      <trkpt lat="46.1189" lon="5.83509">
        <ele>505</ele>
        <time>2019-05-05T17:15:19Z</time>
      </trkpt>
      <trkpt lat="46.1189" lon="5.83504">
        <ele>504</ele>
        <time>2019-05-05T17:15:22Z</time>
      </trkpt>
      <trkpt lat="46.11891" lon="5.83501">
        <ele>504</ele>
        <time>2019-05-05T17:15:23Z</time>
      </trkpt>
      <trkpt lat="46.1189" lon="5.83497">
        <ele>504</ele>
        <time>2019-05-05T17:15:25Z</time>
      </trkpt>
      <trkpt lat="46.1189" lon="5.83491">
        <ele>505</ele>
        <time>2019-05-05T17:15:28Z</time>
      </trkpt>
      <trkpt lat="46.1189" lon="5.83477">
        <ele>504</ele>
        <time>2019-05-05T17:15:35Z</time>
      </trkpt>
      <trkpt lat="46.1189" lon="5.83474">
        <ele>504</ele>
        <time>2019-05-05T17:15:37Z</time>
      </trkpt>
      <trkpt lat="46.11889" lon="5.83466">
        <ele>504</ele>
        <time>2019-05-05T17:15:41Z</time>
      </trkpt>
      <trkpt lat="46.11889" lon="5.83465">
        <ele>505</ele>
        <time>2019-05-05T17:15:42Z</time>
      </trkpt>
      <trkpt lat="46.11887" lon="5.83457">
        <ele>505</ele>
        <time>2019-05-05T17:15:46Z</time>
      </trkpt>
      <trkpt lat="46.11887" lon="5.83455">
        <ele>505</ele>
        <time>2019-05-05T17:15:47Z</time>
      </trkpt>
      <trkpt lat="46.11886" lon="5.83454">
        <ele>505</ele>
        <time>2019-05-05T17:15:48Z</time>
      </trkpt>
      <trkpt lat="46.11879" lon="5.83442">
        <ele>506</ele>
        <time>2019-05-05T17:15:56Z</time>
      </trkpt>
      <trkpt lat="46.11874" lon="5.83434">
        <ele>507</ele>
        <time>2019-05-05T17:16:01Z</time>
      </trkpt>
      <trkpt lat="46.11871" lon="5.8343">
        <ele>507</ele>
        <time>2019-05-05T17:16:04Z</time>
      </trkpt>
      <trkpt lat="46.11869" lon="5.83428">
        <ele>507</ele>
        <time>2019-05-05T17:16:06Z</time>
      </trkpt>
      <trkpt lat="46.11869" lon="5.83427">
        <ele>507</ele>
        <time>2019-05-05T17:16:06Z</time>
      </trkpt>
      <trkpt lat="46.11867" lon="5.83425">
        <ele>507</ele>
        <time>2019-05-05T17:16:08Z</time>
      </trkpt>
      <trkpt lat="46.11865" lon="5.8342">
        <ele>507</ele>
        <time>2019-05-05T17:16:11Z</time>
      </trkpt>
      <trkpt lat="46.11861" lon="5.83415">
        <ele>508</ele>
        <time>2019-05-05T17:16:15Z</time>
      </trkpt>
      <trkpt lat="46.11857" lon="5.83408">
        <ele>508</ele>
        <time>2019-05-05T17:16:19Z</time>
      </trkpt>
      <trkpt lat="46.11842" lon="5.83394">
        <ele>509</ele>
        <time>2019-05-05T17:16:32Z</time>
      </trkpt>
      <trkpt lat="46.11825" lon="5.83386">
        <ele>509</ele>
        <time>2019-05-05T17:16:45Z</time>
      </trkpt>
      <trkpt lat="46.11818" lon="5.83386">
        <ele>509</ele>
        <time>2019-05-05T17:16:50Z</time>
      </trkpt>
      <trkpt lat="46.11808" lon="5.83392">
        <ele>509</ele>
        <time>2019-05-05T17:16:58Z</time>
      </trkpt>
      <trkpt lat="46.11805" lon="5.83395">
        <ele>510</ele>
        <time>2019-05-05T17:17:01Z</time>
      </trkpt>
      <trkpt lat="46.11801" lon="5.83399">
        <ele>510</ele>
        <time>2019-05-05T17:17:05Z</time>
      </trkpt>
      <trkpt lat="46.11798" lon="5.83402">
        <ele>510</ele>
        <time>2019-05-05T17:17:07Z</time>
      </trkpt>
      <trkpt lat="46.1178" lon="5.83411">
        <ele>511</ele>
        <time>2019-05-05T17:17:21Z</time>
      </trkpt>
      <trkpt lat="46.11777" lon="5.8341">
        <ele>511</ele>
        <time>2019-05-05T17:17:23Z</time>
      </trkpt>
      <trkpt lat="46.11766" lon="5.83393">
        <ele>510</ele>
        <time>2019-05-05T17:17:35Z</time>
      </trkpt>
      <trkpt lat="46.11764" lon="5.8339">
        <ele>510</ele>
        <time>2019-05-05T17:17:37Z</time>
      </trkpt>
      <trkpt lat="46.11764" lon="5.83388">
        <ele>510</ele>
        <time>2019-05-05T17:17:38Z</time>
      </trkpt>
      <trkpt lat="46.11764" lon="5.83395">
        <ele>510</ele>
        <time>2019-05-05T17:17:41Z</time>
      </trkpt>
      <trkpt lat="46.11765" lon="5.83399">
        <ele>510</ele>
        <time>2019-05-05T17:17:43Z</time>
      </trkpt>
      <trkpt lat="46.11767" lon="5.83412">
        <ele>511</ele>
        <time>2019-05-05T17:17:50Z</time>
      </trkpt>
      <trkpt lat="46.11758" lon="5.83432">
        <ele>509</ele>
        <time>2019-05-05T17:18:02Z</time>
      </trkpt>
      <trkpt lat="46.11757" lon="5.83433">
        <ele>509</ele>
        <time>2019-05-05T17:18:03Z</time>
      </trkpt>
      <trkpt lat="46.11743" lon="5.83453">
        <ele>508</ele>
        <time>2019-05-05T17:18:17Z</time>
      </trkpt>
      <trkpt lat="46.11737" lon="5.83462">
        <ele>508</ele>
        <time>2019-05-05T17:18:24Z</time>
      </trkpt>
      <trkpt lat="46.11733" lon="5.83474">
        <ele>508</ele>
        <time>2019-05-05T17:18:30Z</time>
      </trkpt>
      <trkpt lat="46.1172" lon="5.83494">
        <ele>508</ele>
        <time>2019-05-05T17:18:44Z</time>
      </trkpt>
      <trkpt lat="46.11718" lon="5.83497">
        <ele>508</ele>
        <time>2019-05-05T17:18:46Z</time>
      </trkpt>
      <trkpt lat="46.11705" lon="5.83519">
        <ele>509</ele>
        <time>2019-05-05T17:19:01Z</time>
      </trkpt>
      <trkpt lat="46.11697" lon="5.83521">
        <ele>508</ele>
        <time>2019-05-05T17:19:06Z</time>
      </trkpt>
      <trkpt lat="46.117" lon="5.8352">
        <ele>509</ele>
        <time>2019-05-05T17:19:09Z</time>
      </trkpt>
      <trkpt lat="46.11703" lon="5.83518">
        <ele>509</ele>
        <time>2019-05-05T17:19:11Z</time>
      </trkpt>
      <trkpt lat="46.11706" lon="5.83517">
        <ele>509</ele>
        <time>2019-05-05T17:19:13Z</time>
      </trkpt>
      <trkpt lat="46.11699" lon="5.83493">
        <ele>506</ele>
        <time>2019-05-05T17:19:25Z</time>
      </trkpt>
      <trkpt lat="46.11697" lon="5.83487">
        <ele>505</ele>
        <time>2019-05-05T17:19:29Z</time>
      </trkpt>
      <trkpt lat="46.11695" lon="5.83473">
        <ele>504</ele>
        <time>2019-05-05T17:19:36Z</time>
      </trkpt>
      <trkpt lat="46.11694" lon="5.83472">
        <ele>503</ele>
        <time>2019-05-05T17:19:37Z</time>
      </trkpt>
      <trkpt lat="46.11694" lon="5.83463">
        <ele>503</ele>
        <time>2019-05-05T17:19:42Z</time>
      </trkpt>
      <trkpt lat="46.11694" lon="5.83462">
        <ele>502</ele>
        <time>2019-05-05T17:19:43Z</time>
      </trkpt>
      <trkpt lat="46.11694" lon="5.83457">
        <ele>502</ele>
        <time>2019-05-05T17:19:45Z</time>
      </trkpt>
      <trkpt lat="46.11694" lon="5.83455">
        <ele>502</ele>
        <time>2019-05-05T17:19:46Z</time>
      </trkpt>
      <trkpt lat="46.11695" lon="5.83453">
        <ele>502</ele>
        <time>2019-05-05T17:19:47Z</time>
      </trkpt>
      <trkpt lat="46.11694" lon="5.83451">
        <ele>501</ele>
        <time>2019-05-05T17:19:48Z</time>
      </trkpt>
      <trkpt lat="46.11694" lon="5.83447">
        <ele>501</ele>
        <time>2019-05-05T17:19:51Z</time>
      </trkpt>
      <trkpt lat="46.1169" lon="5.83437">
        <ele>499</ele>
        <time>2019-05-05T17:19:56Z</time>
      </trkpt>
      <trkpt lat="46.11687" lon="5.83434">
        <ele>499</ele>
        <time>2019-05-05T17:19:59Z</time>
      </trkpt>
      <trkpt lat="46.11683" lon="5.83428">
        <ele>498</ele>
        <time>2019-05-05T17:20:03Z</time>
      </trkpt>
      <trkpt lat="46.11679" lon="5.83423">
        <ele>498</ele>
        <time>2019-05-05T17:20:07Z</time>
      </trkpt>
      <trkpt lat="46.11675" lon="5.83417">
        <ele>498</ele>
        <time>2019-05-05T17:20:11Z</time>
      </trkpt>
      <trkpt lat="46.11674" lon="5.83416">
        <ele>497</ele>
        <time>2019-05-05T17:20:12Z</time>
      </trkpt>
      <trkpt lat="46.11673" lon="5.83413">
        <ele>497</ele>
        <time>2019-05-05T17:20:14Z</time>
      </trkpt>
      <trkpt lat="46.11669" lon="5.83407">
        <ele>497</ele>
        <time>2019-05-05T17:20:18Z</time>
      </trkpt>
      <trkpt lat="46.11667" lon="5.83402">
        <ele>497</ele>
        <time>2019-05-05T17:20:21Z</time>
      </trkpt>
      <trkpt lat="46.11667" lon="5.83402">
        <ele>497</ele>
        <time>2019-05-05T17:20:21Z</time>
      </trkpt>
      <trkpt lat="46.11664" lon="5.83396">
        <ele>497</ele>
        <time>2019-05-05T17:20:25Z</time>
      </trkpt>
      <trkpt lat="46.11661" lon="5.8339">
        <ele>496</ele>
        <time>2019-05-05T17:20:29Z</time>
      </trkpt>
      <trkpt lat="46.11657" lon="5.83387">
        <ele>496</ele>
        <time>2019-05-05T17:20:31Z</time>
      </trkpt>
      <trkpt lat="46.11652" lon="5.83378">
        <ele>495</ele>
        <time>2019-05-05T17:20:37Z</time>
      </trkpt>
      <trkpt lat="46.11648" lon="5.83374">
        <ele>495</ele>
        <time>2019-05-05T17:20:41Z</time>
      </trkpt>
      <trkpt lat="46.11642" lon="5.83366">
        <ele>494</ele>
        <time>2019-05-05T17:20:47Z</time>
      </trkpt>
      <trkpt lat="46.11631" lon="5.83352">
        <ele>492</ele>
        <time>2019-05-05T17:20:57Z</time>
      </trkpt>
      <trkpt lat="46.11628" lon="5.83347">
        <ele>492</ele>
        <time>2019-05-05T17:21:01Z</time>
      </trkpt>
      <trkpt lat="46.11624" lon="5.83337">
        <ele>491</ele>
        <time>2019-05-05T17:21:07Z</time>
      </trkpt>
      <trkpt lat="46.11617" lon="5.83328">
        <ele>489</ele>
        <time>2019-05-05T17:21:14Z</time>
      </trkpt>
      <trkpt lat="46.11606" lon="5.83314">
        <ele>486</ele>
        <time>2019-05-05T17:21:25Z</time>
      </trkpt>
      <trkpt lat="46.11602" lon="5.83303">
        <ele>485</ele>
        <time>2019-05-05T17:21:31Z</time>
      </trkpt>
      <trkpt lat="46.11599" lon="5.83284">
        <ele>483</ele>
        <time>2019-05-05T17:21:41Z</time>
      </trkpt>
      <trkpt lat="46.11598" lon="5.83276">
        <ele>482</ele>
        <time>2019-05-05T17:21:45Z</time>
      </trkpt>
      <trkpt lat="46.11593" lon="5.8326">
        <ele>480</ele>
        <time>2019-05-05T17:21:53Z</time>
      </trkpt>
      <trkpt lat="46.11592" lon="5.83253">
        <ele>480</ele>
        <time>2019-05-05T17:21:57Z</time>
      </trkpt>
      <trkpt lat="46.11591" lon="5.83247">
        <ele>479</ele>
        <time>2019-05-05T17:22:00Z</time>
      </trkpt>
      <trkpt lat="46.1159" lon="5.83242">
        <ele>479</ele>
        <time>2019-05-05T17:22:03Z</time>
      </trkpt>
      <trkpt lat="46.11589" lon="5.83242">
        <ele>479</ele>
        <time>2019-05-05T17:22:03Z</time>
      </trkpt>
      <trkpt lat="46.1159" lon="5.8324">
        <ele>479</ele>
        <time>2019-05-05T17:22:04Z</time>
      </trkpt>
      <trkpt lat="46.11589" lon="5.83234">
        <ele>478</ele>
        <time>2019-05-05T17:22:07Z</time>
      </trkpt>
      <trkpt lat="46.11589" lon="5.83232">
        <ele>478</ele>
        <time>2019-05-05T17:22:08Z</time>
      </trkpt>
      <trkpt lat="46.11589" lon="5.83231">
        <ele>478</ele>
        <time>2019-05-05T17:22:09Z</time>
      </trkpt>
      <trkpt lat="46.11589" lon="5.83228">
        <ele>478</ele>
        <time>2019-05-05T17:22:10Z</time>
      </trkpt>
      <trkpt lat="46.11589" lon="5.83221">
        <ele>477</ele>
        <time>2019-05-05T17:22:14Z</time>
      </trkpt>
      <trkpt lat="46.11587" lon="5.83211">
        <ele>476</ele>
        <time>2019-05-05T17:22:19Z</time>
      </trkpt>
      <trkpt lat="46.11588" lon="5.83209">
        <ele>476</ele>
        <time>2019-05-05T17:22:20Z</time>
      </trkpt>
      <trkpt lat="46.11588" lon="5.83206">
        <ele>476</ele>
        <time>2019-05-05T17:22:22Z</time>
      </trkpt>
      <trkpt lat="46.11585" lon="5.832">
        <ele>475</ele>
        <time>2019-05-05T17:22:25Z</time>
      </trkpt>
      <trkpt lat="46.11584" lon="5.83197">
        <ele>475</ele>
        <time>2019-05-05T17:22:27Z</time>
      </trkpt>
      <trkpt lat="46.11583" lon="5.83195">
        <ele>474</ele>
        <time>2019-05-05T17:22:29Z</time>
      </trkpt>
      <trkpt lat="46.11582" lon="5.83192">
        <ele>474</ele>
        <time>2019-05-05T17:22:30Z</time>
      </trkpt>
      <trkpt lat="46.1158" lon="5.83192">
        <ele>474</ele>
        <time>2019-05-05T17:22:31Z</time>
      </trkpt>
      <trkpt lat="46.11578" lon="5.83186">
        <ele>473</ele>
        <time>2019-05-05T17:22:35Z</time>
      </trkpt>
      <trkpt lat="46.11575" lon="5.8318">
        <ele>472</ele>
        <time>2019-05-05T17:22:39Z</time>
      </trkpt>
      <trkpt lat="46.11574" lon="5.83176">
        <ele>472</ele>
        <time>2019-05-05T17:22:41Z</time>
      </trkpt>
      <trkpt lat="46.11572" lon="5.83173">
        <ele>471</ele>
        <time>2019-05-05T17:22:43Z</time>
      </trkpt>
      <trkpt lat="46.1157" lon="5.83169">
        <ele>470</ele>
        <time>2019-05-05T17:22:45Z</time>
      </trkpt>
      <trkpt lat="46.11568" lon="5.83166">
        <ele>470</ele>
        <time>2019-05-05T17:22:47Z</time>
      </trkpt>
      <trkpt lat="46.11567" lon="5.83162">
        <ele>469</ele>
        <time>2019-05-05T17:22:49Z</time>
      </trkpt>
      <trkpt lat="46.11565" lon="5.83156">
        <ele>468</ele>
        <time>2019-05-05T17:22:53Z</time>
      </trkpt>
      <trkpt lat="46.11563" lon="5.83153">
        <ele>468</ele>
        <time>2019-05-05T17:22:55Z</time>
      </trkpt>
      <trkpt lat="46.11562" lon="5.83152">
        <ele>467</ele>
        <time>2019-05-05T17:22:56Z</time>
      </trkpt>
      <trkpt lat="46.11562" lon="5.83151">
        <ele>467</ele>
        <time>2019-05-05T17:22:57Z</time>
      </trkpt>
      <trkpt lat="46.1156" lon="5.83147">
        <ele>466</ele>
        <time>2019-05-05T17:22:59Z</time>
      </trkpt>
      <trkpt lat="46.11557" lon="5.83143">
        <ele>465</ele>
        <time>2019-05-05T17:23:02Z</time>
      </trkpt>
      <trkpt lat="46.11556" lon="5.83141">
        <ele>465</ele>
        <time>2019-05-05T17:23:03Z</time>
      </trkpt>
      <trkpt lat="46.11555" lon="5.83139">
        <ele>465</ele>
        <time>2019-05-05T17:23:05Z</time>
      </trkpt>
      <trkpt lat="46.11553" lon="5.83137">
        <ele>464</ele>
        <time>2019-05-05T17:23:06Z</time>
      </trkpt>
      <trkpt lat="46.11552" lon="5.83135">
        <ele>464</ele>
        <time>2019-05-05T17:23:07Z</time>
      </trkpt>
      <trkpt lat="46.11552" lon="5.8313">
        <ele>463</ele>
        <time>2019-05-05T17:23:10Z</time>
      </trkpt>
      <trkpt lat="46.11552" lon="5.83129">
        <ele>463</ele>
        <time>2019-05-05T17:23:11Z</time>
      </trkpt>
      <trkpt lat="46.11551" lon="5.83127">
        <ele>462</ele>
        <time>2019-05-05T17:23:12Z</time>
      </trkpt>
      <trkpt lat="46.11549" lon="5.83123">
        <ele>461</ele>
        <time>2019-05-05T17:23:15Z</time>
      </trkpt>
      <trkpt lat="46.11546" lon="5.83118">
        <ele>460</ele>
        <time>2019-05-05T17:23:18Z</time>
      </trkpt>
      <trkpt lat="46.11545" lon="5.83117">
        <ele>460</ele>
        <time>2019-05-05T17:23:19Z</time>
      </trkpt>
      <trkpt lat="46.11545" lon="5.83115">
        <ele>459</ele>
        <time>2019-05-05T17:23:20Z</time>
      </trkpt>
      <trkpt lat="46.11541" lon="5.83108">
        <ele>458</ele>
        <time>2019-05-05T17:23:25Z</time>
      </trkpt>
      <trkpt lat="46.11538" lon="5.83105">
        <ele>457</ele>
        <time>2019-05-05T17:23:27Z</time>
      </trkpt>
      <trkpt lat="46.11535" lon="5.83097">
        <ele>455</ele>
        <time>2019-05-05T17:23:32Z</time>
      </trkpt>
      <trkpt lat="46.11533" lon="5.83095">
        <ele>454</ele>
        <time>2019-05-05T17:23:34Z</time>
      </trkpt>
      <trkpt lat="46.11531" lon="5.83089">
        <ele>453</ele>
        <time>2019-05-05T17:23:37Z</time>
      </trkpt>
      <trkpt lat="46.1153" lon="5.83087">
        <ele>452</ele>
        <time>2019-05-05T17:23:39Z</time>
      </trkpt>
      <trkpt lat="46.11526" lon="5.8308">
        <ele>450</ele>
        <time>2019-05-05T17:23:43Z</time>
      </trkpt>
      <trkpt lat="46.11525" lon="5.83078">
        <ele>450</ele>
        <time>2019-05-05T17:23:44Z</time>
      </trkpt>
      <trkpt lat="46.11524" lon="5.83075">
        <ele>449</ele>
        <time>2019-05-05T17:23:46Z</time>
      </trkpt>
      <trkpt lat="46.11523" lon="5.83067">
        <ele>447</ele>
        <time>2019-05-05T17:23:50Z</time>
      </trkpt>
      <trkpt lat="46.11522" lon="5.83063">
        <ele>446</ele>
        <time>2019-05-05T17:23:53Z</time>
      </trkpt>
      <trkpt lat="46.11523" lon="5.8306">
        <ele>446</ele>
        <time>2019-05-05T17:23:54Z</time>
      </trkpt>
      <trkpt lat="46.11522" lon="5.83055">
        <ele>445</ele>
        <time>2019-05-05T17:23:57Z</time>
      </trkpt>
      <trkpt lat="46.11522" lon="5.83049">
        <ele>443</ele>
        <time>2019-05-05T17:24:00Z</time>
      </trkpt>
      <trkpt lat="46.11521" lon="5.8304">
        <ele>441</ele>
        <time>2019-05-05T17:24:05Z</time>
      </trkpt>
      <trkpt lat="46.1152" lon="5.8303">
        <ele>439</ele>
        <time>2019-05-05T17:24:10Z</time>
      </trkpt>
      <trkpt lat="46.11517" lon="5.83025">
        <ele>438</ele>
        <time>2019-05-05T17:24:14Z</time>
      </trkpt>
      <trkpt lat="46.11516" lon="5.83024">
        <ele>438</ele>
        <time>2019-05-05T17:24:14Z</time>
      </trkpt>
      <trkpt lat="46.11514" lon="5.83022">
        <ele>437</ele>
        <time>2019-05-05T17:24:16Z</time>
      </trkpt>
      <trkpt lat="46.1151" lon="5.83018">
        <ele>436</ele>
        <time>2019-05-05T17:24:20Z</time>
      </trkpt>
      <trkpt lat="46.11505" lon="5.83012">
        <ele>435</ele>
        <time>2019-05-05T17:24:24Z</time>
      </trkpt>
      <trkpt lat="46.11503" lon="5.83002">
        <ele>433</ele>
        <time>2019-05-05T17:24:30Z</time>
      </trkpt>
      <trkpt lat="46.11502" lon="5.82999">
        <ele>432</ele>
        <time>2019-05-05T17:24:32Z</time>
      </trkpt>
      <trkpt lat="46.11501" lon="5.8299">
        <ele>430</ele>
        <time>2019-05-05T17:24:36Z</time>
      </trkpt>
      <trkpt lat="46.11499" lon="5.82984">
        <ele>429</ele>
        <time>2019-05-05T17:24:40Z</time>
      </trkpt>
      <trkpt lat="46.11497" lon="5.82979">
        <ele>428</ele>
        <time>2019-05-05T17:24:43Z</time>
      </trkpt>
      <trkpt lat="46.11497" lon="5.82973">
        <ele>426</ele>
        <time>2019-05-05T17:24:46Z</time>
      </trkpt>
      <trkpt lat="46.11496" lon="5.82968">
        <ele>425</ele>
        <time>2019-05-05T17:24:49Z</time>
      </trkpt>
      <trkpt lat="46.11495" lon="5.82963">
        <ele>424</ele>
        <time>2019-05-05T17:24:51Z</time>
      </trkpt>
      <trkpt lat="46.11493" lon="5.82956">
        <ele>423</ele>
        <time>2019-05-05T17:24:55Z</time>
      </trkpt>
      <trkpt lat="46.11492" lon="5.82947">
        <ele>421</ele>
        <time>2019-05-05T17:25:00Z</time>
      </trkpt>
      <trkpt lat="46.11491" lon="5.82942">
        <ele>420</ele>
        <time>2019-05-05T17:25:02Z</time>
      </trkpt>
      <trkpt lat="46.11488" lon="5.82939">
        <ele>419</ele>
        <time>2019-05-05T17:25:05Z</time>
      </trkpt>
      <trkpt lat="46.11485" lon="5.82936">
        <ele>418</ele>
        <time>2019-05-05T17:25:08Z</time>
      </trkpt>
      <trkpt lat="46.11483" lon="5.82933">
        <ele>417</ele>
        <time>2019-05-05T17:25:10Z</time>
      </trkpt>
      <trkpt lat="46.11483" lon="5.82933">
        <ele>417</ele>
        <time>2019-05-05T17:25:11Z</time>
      </trkpt>
      <trkpt lat="46.11481" lon="5.82931">
        <ele>416</ele>
        <time>2019-05-05T17:25:12Z</time>
      </trkpt>
      <trkpt lat="46.11479" lon="5.82927">
        <ele>415</ele>
        <time>2019-05-05T17:25:15Z</time>
      </trkpt>
      <trkpt lat="46.11478" lon="5.82926">
        <ele>415</ele>
        <time>2019-05-05T17:25:15Z</time>
      </trkpt>
      <trkpt lat="46.11476" lon="5.82923">
        <ele>414</ele>
        <time>2019-05-05T17:25:18Z</time>
      </trkpt>
      <trkpt lat="46.11474" lon="5.82918">
        <ele>412</ele>
        <time>2019-05-05T17:25:21Z</time>
      </trkpt>
      <trkpt lat="46.11473" lon="5.82917">
        <ele>412</ele>
        <time>2019-05-05T17:25:22Z</time>
      </trkpt>
      <trkpt lat="46.11472" lon="5.82916">
        <ele>412</ele>
        <time>2019-05-05T17:25:23Z</time>
      </trkpt>
      <trkpt lat="46.11471" lon="5.82915">
        <ele>411</ele>
        <time>2019-05-05T17:25:24Z</time>
      </trkpt>
      <trkpt lat="46.1147" lon="5.82914">
        <ele>411</ele>
        <time>2019-05-05T17:25:25Z</time>
      </trkpt>
      <trkpt lat="46.11468" lon="5.82912">
        <ele>410</ele>
        <time>2019-05-05T17:25:27Z</time>
      </trkpt>
      <trkpt lat="46.11467" lon="5.82911">
        <ele>410</ele>
        <time>2019-05-05T17:25:28Z</time>
      </trkpt>
      <trkpt lat="46.11464" lon="5.82907">
        <ele>409</ele>
        <time>2019-05-05T17:25:30Z</time>
      </trkpt>
      <trkpt lat="46.11461" lon="5.82904">
        <ele>408</ele>
        <time>2019-05-05T17:25:33Z</time>
      </trkpt>
      <trkpt lat="46.11459" lon="5.82902">
        <ele>407</ele>
        <time>2019-05-05T17:25:35Z</time>
      </trkpt>
      <trkpt lat="46.11458" lon="5.82901">
        <ele>407</ele>
        <time>2019-05-05T17:25:36Z</time>
      </trkpt>
      <trkpt lat="46.11457" lon="5.829">
        <ele>406</ele>
        <time>2019-05-05T17:25:37Z</time>
      </trkpt>
      <trkpt lat="46.11456" lon="5.82899">
        <ele>406</ele>
        <time>2019-05-05T17:25:38Z</time>
      </trkpt>
      <trkpt lat="46.11449" lon="5.8289">
        <ele>403</ele>
        <time>2019-05-05T17:25:45Z</time>
      </trkpt>
      <trkpt lat="46.11447" lon="5.82889">
        <ele>403</ele>
        <time>2019-05-05T17:25:47Z</time>
      </trkpt>
      <trkpt lat="46.11446" lon="5.82887">
        <ele>402</ele>
        <time>2019-05-05T17:25:48Z</time>
      </trkpt>
      <trkpt lat="46.11445" lon="5.82885">
        <ele>402</ele>
        <time>2019-05-05T17:25:49Z</time>
      </trkpt>
      <trkpt lat="46.11445" lon="5.82884">
        <ele>402</ele>
        <time>2019-05-05T17:25:50Z</time>
      </trkpt>
      <trkpt lat="46.11445" lon="5.82875">
        <ele>399</ele>
        <time>2019-05-05T17:25:55Z</time>
      </trkpt>
      <trkpt lat="46.11445" lon="5.82865">
        <ele>397</ele>
        <time>2019-05-05T17:26:00Z</time>
      </trkpt>
      <trkpt lat="46.11446" lon="5.82861">
        <ele>396</ele>
        <time>2019-05-05T17:26:02Z</time>
      </trkpt>
      <trkpt lat="46.11447" lon="5.82846">
        <ele>393</ele>
        <time>2019-05-05T17:26:10Z</time>
      </trkpt>
      <trkpt lat="46.11455" lon="5.82834">
        <ele>391</ele>
        <time>2019-05-05T17:26:18Z</time>
      </trkpt>
      <trkpt lat="46.1146" lon="5.82828">
        <ele>390</ele>
        <time>2019-05-05T17:26:23Z</time>
      </trkpt>
      <trkpt lat="46.11464" lon="5.82825">
        <ele>390</ele>
        <time>2019-05-05T17:26:26Z</time>
      </trkpt>
      <trkpt lat="46.11471" lon="5.82821">
        <ele>390</ele>
        <time>2019-05-05T17:26:31Z</time>
      </trkpt>
      <trkpt lat="46.11476" lon="5.82817">
        <ele>390</ele>
        <time>2019-05-05T17:26:36Z</time>
      </trkpt>
      <trkpt lat="46.1148" lon="5.82815">
        <ele>391</ele>
        <time>2019-05-05T17:26:39Z</time>
      </trkpt>
      <trkpt lat="46.11481" lon="5.82815">
        <ele>391</ele>
        <time>2019-05-05T17:26:40Z</time>
      </trkpt>
      <trkpt lat="46.11492" lon="5.82811">
        <ele>392</ele>
        <time>2019-05-05T17:26:48Z</time>
      </trkpt>
      <trkpt lat="46.11493" lon="5.82809">
        <ele>392</ele>
        <time>2019-05-05T17:26:49Z</time>
      </trkpt>
      <trkpt lat="46.11495" lon="5.82804">
        <ele>391</ele>
        <time>2019-05-05T17:26:52Z</time>
      </trkpt>
      <trkpt lat="46.11496" lon="5.82803">
        <ele>391</ele>
        <time>2019-05-05T17:26:53Z</time>
      </trkpt>
      <trkpt lat="46.11503" lon="5.82791">
        <ele>391</ele>
        <time>2019-05-05T17:27:01Z</time>
      </trkpt>
      <trkpt lat="46.11506" lon="5.82786">
        <ele>390</ele>
        <time>2019-05-05T17:27:04Z</time>
      </trkpt>
      <trkpt lat="46.11506" lon="5.82783">
        <ele>390</ele>
        <time>2019-05-05T17:27:05Z</time>
      </trkpt>
      <trkpt lat="46.11505" lon="5.82773">
        <ele>388</ele>
        <time>2019-05-05T17:27:10Z</time>
      </trkpt>
      <trkpt lat="46.11505" lon="5.82766">
        <ele>387</ele>
        <time>2019-05-05T17:27:14Z</time>
      </trkpt>
      <trkpt lat="46.11504" lon="5.82761">
        <ele>386</ele>
        <time>2019-05-05T17:27:17Z</time>
      </trkpt>
      <trkpt lat="46.11504" lon="5.82759">
        <ele>386</ele>
        <time>2019-05-05T17:27:18Z</time>
      </trkpt>
      <trkpt lat="46.11506" lon="5.82756">
        <ele>386</ele>
        <time>2019-05-05T17:27:20Z</time>
      </trkpt>
      <trkpt lat="46.11507" lon="5.82753">
        <ele>386</ele>
        <time>2019-05-05T17:27:21Z</time>
      </trkpt>
      <trkpt lat="46.11508" lon="5.8275">
        <ele>386</ele>
        <time>2019-05-05T17:27:23Z</time>
      </trkpt>
      <trkpt lat="46.11508" lon="5.82745">
        <ele>385</ele>
        <time>2019-05-05T17:27:26Z</time>
      </trkpt>
      <trkpt lat="46.11508" lon="5.82742">
        <ele>385</ele>
        <time>2019-05-05T17:27:27Z</time>
      </trkpt>
      <trkpt lat="46.11507" lon="5.82739">
        <ele>384</ele>
        <time>2019-05-05T17:27:29Z</time>
      </trkpt>
      <trkpt lat="46.11504" lon="5.82734">
        <ele>383</ele>
        <time>2019-05-05T17:27:32Z</time>
      </trkpt>
      <trkpt lat="46.11502" lon="5.82723">
        <ele>381</ele>
        <time>2019-05-05T17:27:38Z</time>
      </trkpt>
      <trkpt lat="46.11502" lon="5.82717">
        <ele>381</ele>
        <time>2019-05-05T17:27:41Z</time>
      </trkpt>
      <trkpt lat="46.11505" lon="5.82691">
        <ele>379</ele>
        <time>2019-05-05T17:27:55Z</time>
      </trkpt>
      <trkpt lat="46.11505" lon="5.82686">
        <ele>378</ele>
        <time>2019-05-05T17:27:57Z</time>
      </trkpt>
      <trkpt lat="46.11515" lon="5.82663">
        <ele>379</ele>
        <time>2019-05-05T17:28:11Z</time>
      </trkpt>
      <trkpt lat="46.11517" lon="5.82658">
        <ele>379</ele>
        <time>2019-05-05T17:28:14Z</time>
      </trkpt>
      <trkpt lat="46.11521" lon="5.8265">
        <ele>379</ele>
        <time>2019-05-05T17:28:19Z</time>
      </trkpt>
      <trkpt lat="46.11526" lon="5.8264">
        <ele>379</ele>
        <time>2019-05-05T17:28:25Z</time>
      </trkpt>
      <trkpt lat="46.11527" lon="5.82639">
        <ele>379</ele>
        <time>2019-05-05T17:28:25Z</time>
      </trkpt>
      <trkpt lat="46.11528" lon="5.82638">
        <ele>379</ele>
        <time>2019-05-05T17:28:26Z</time>
      </trkpt>
      <trkpt lat="46.1153" lon="5.82636">
        <ele>379</ele>
        <time>2019-05-05T17:28:28Z</time>
      </trkpt>
      <trkpt lat="46.11532" lon="5.82629">
        <ele>378</ele>
        <time>2019-05-05T17:28:32Z</time>
      </trkpt>
      <trkpt lat="46.11533" lon="5.82619">
        <ele>377</ele>
        <time>2019-05-05T17:28:37Z</time>
      </trkpt>
      <trkpt lat="46.11536" lon="5.82611">
        <ele>377</ele>
        <time>2019-05-05T17:28:42Z</time>
      </trkpt>
      <trkpt lat="46.11539" lon="5.82606">
        <ele>377</ele>
        <time>2019-05-05T17:28:45Z</time>
      </trkpt>
      <trkpt lat="46.11542" lon="5.82596">
        <ele>376</ele>
        <time>2019-05-05T17:28:51Z</time>
      </trkpt>
      <trkpt lat="46.11539" lon="5.82591">
        <ele>374</ele>
        <time>2019-05-05T17:28:54Z</time>
      </trkpt>
      <trkpt lat="46.11535" lon="5.82582">
        <ele>372</ele>
        <time>2019-05-05T17:29:00Z</time>
      </trkpt>
      <trkpt lat="46.11535" lon="5.82578">
        <ele>371</ele>
        <time>2019-05-05T17:29:02Z</time>
      </trkpt>
      <trkpt lat="46.11535" lon="5.82569">
        <ele>370</ele>
        <time>2019-05-05T17:29:06Z</time>
      </trkpt>
      <trkpt lat="46.11534" lon="5.82566">
        <ele>369</ele>
        <time>2019-05-05T17:29:08Z</time>
      </trkpt>
      <trkpt lat="46.11533" lon="5.82565">
        <ele>369</ele>
        <time>2019-05-05T17:29:09Z</time>
      </trkpt>
      <trkpt lat="46.11529" lon="5.82562">
        <ele>367</ele>
        <time>2019-05-05T17:29:13Z</time>
      </trkpt>
      <trkpt lat="46.11515" lon="5.82546">
        <ele>363</ele>
        <time>2019-05-05T17:29:26Z</time>
      </trkpt>
      <trkpt lat="46.11499" lon="5.82533">
        <ele>363</ele>
        <time>2019-05-05T17:29:39Z</time>
      </trkpt>
      <trkpt lat="46.11495" lon="5.8253">
        <ele>363</ele>
        <time>2019-05-05T17:29:42Z</time>
      </trkpt>
      <trkpt lat="46.1148" lon="5.82514">
        <ele>365</ele>
        <time>2019-05-05T17:29:56Z</time>
      </trkpt>
      <trkpt lat="46.11467" lon="5.82496">
        <ele>369</ele>
        <time>2019-05-05T17:30:10Z</time>
      </trkpt>
      <trkpt lat="46.11451" lon="5.8248">
        <ele>374</ele>
        <time>2019-05-05T17:30:24Z</time>
      </trkpt>
      <trkpt lat="46.11436" lon="5.82464">
        <ele>379</ele>
        <time>2019-05-05T17:30:38Z</time>
      </trkpt>
      <trkpt lat="46.1142" lon="5.8245">
        <ele>383</ele>
        <time>2019-05-05T17:30:51Z</time>
      </trkpt>
      <trkpt lat="46.1141" lon="5.82448">
        <ele>385</ele>
        <time>2019-05-05T17:30:59Z</time>
      </trkpt>
      <trkpt lat="46.1141" lon="5.82447">
        <ele>385</ele>
        <time>2019-05-05T17:30:59Z</time>
      </trkpt>
      <trkpt lat="46.11407" lon="5.82449">
        <ele>385</ele>
        <time>2019-05-05T17:31:01Z</time>
      </trkpt>
      <trkpt lat="46.11407" lon="5.82454">
        <ele>384</ele>
        <time>2019-05-05T17:31:04Z</time>
      </trkpt>
      <trkpt lat="46.11403" lon="5.82461">
        <ele>384</ele>
        <time>2019-05-05T17:31:08Z</time>
      </trkpt>
      <trkpt lat="46.11397" lon="5.82472">
        <ele>384</ele>
        <time>2019-05-05T17:31:15Z</time>
      </trkpt>
      <trkpt lat="46.11396" lon="5.8247">
        <ele>384</ele>
        <time>2019-05-05T17:31:17Z</time>
      </trkpt>
      <trkpt lat="46.11393" lon="5.82472">
        <ele>384</ele>
        <time>2019-05-05T17:31:19Z</time>
      </trkpt>
      <trkpt lat="46.1139" lon="5.82479">
        <ele>384</ele>
        <time>2019-05-05T17:31:23Z</time>
      </trkpt>
      <trkpt lat="46.11376" lon="5.825">
        <ele>383</ele>
        <time>2019-05-05T17:31:38Z</time>
      </trkpt>
      <trkpt lat="46.11372" lon="5.82503">
        <ele>383</ele>
        <time>2019-05-05T17:31:41Z</time>
      </trkpt>
      <trkpt lat="46.11354" lon="5.82515">
        <ele>384</ele>
        <time>2019-05-05T17:31:55Z</time>
      </trkpt>
      <trkpt lat="46.1135" lon="5.82518">
        <ele>384</ele>
        <time>2019-05-05T17:31:59Z</time>
      </trkpt>
      <trkpt lat="46.11343" lon="5.82524">
        <ele>383</ele>
        <time>2019-05-05T17:32:05Z</time>
      </trkpt>
      <trkpt lat="46.11333" lon="5.82535">
        <ele>382</ele>
        <time>2019-05-05T17:32:14Z</time>
      </trkpt>
      <trkpt lat="46.11332" lon="5.82536">
        <ele>382</ele>
        <time>2019-05-05T17:32:14Z</time>
      </trkpt>
      <trkpt lat="46.11323" lon="5.82547">
        <ele>381</ele>
        <time>2019-05-05T17:32:23Z</time>
      </trkpt>
      <trkpt lat="46.11317" lon="5.8255">
        <ele>381</ele>
        <time>2019-05-05T17:32:28Z</time>
      </trkpt>
      <trkpt lat="46.11314" lon="5.82554">
        <ele>381</ele>
        <time>2019-05-05T17:32:31Z</time>
      </trkpt>
      <trkpt lat="46.11311" lon="5.82558">
        <ele>381</ele>
        <time>2019-05-05T17:32:34Z</time>
      </trkpt>
      <trkpt lat="46.11308" lon="5.82563">
        <ele>380</ele>
        <time>2019-05-05T17:32:37Z</time>
      </trkpt>
      <trkpt lat="46.11304" lon="5.8257">
        <ele>380</ele>
        <time>2019-05-05T17:32:42Z</time>
      </trkpt>
      <trkpt lat="46.11299" lon="5.82581">
        <ele>379</ele>
        <time>2019-05-05T17:32:48Z</time>
      </trkpt>
      <trkpt lat="46.11288" lon="5.82589">
        <ele>379</ele>
        <time>2019-05-05T17:32:57Z</time>
      </trkpt>
      <trkpt lat="46.11276" lon="5.82606">
        <ele>378</ele>
        <time>2019-05-05T17:33:09Z</time>
      </trkpt>
      <trkpt lat="46.1127" lon="5.82604">
        <ele>379</ele>
        <time>2019-05-05T17:33:14Z</time>
      </trkpt>
      <trkpt lat="46.11268" lon="5.82602">
        <ele>379</ele>
        <time>2019-05-05T17:33:15Z</time>
      </trkpt>
      <trkpt lat="46.11264" lon="5.82603">
        <ele>379</ele>
        <time>2019-05-05T17:33:18Z</time>
      </trkpt>
      <trkpt lat="46.1126" lon="5.82607">
        <ele>379</ele>
        <time>2019-05-05T17:33:22Z</time>
      </trkpt>
      <trkpt lat="46.11257" lon="5.82616">
        <ele>378</ele>
        <time>2019-05-05T17:33:27Z</time>
      </trkpt>
      <trkpt lat="46.11257" lon="5.82627">
        <ele>377</ele>
        <time>2019-05-05T17:33:32Z</time>
      </trkpt>
      <trkpt lat="46.11257" lon="5.82635">
        <ele>376</ele>
        <time>2019-05-05T17:33:37Z</time>
      </trkpt>
      <trkpt lat="46.11243" lon="5.82654">
        <ele>374</ele>
        <time>2019-05-05T17:33:51Z</time>
      </trkpt>
      <trkpt lat="46.11232" lon="5.82676">
        <ele>372</ele>
        <time>2019-05-05T17:34:04Z</time>
      </trkpt>
      <trkpt lat="46.11226" lon="5.82682">
        <ele>372</ele>
        <time>2019-05-05T17:34:09Z</time>
      </trkpt>
      <trkpt lat="46.11225" lon="5.82684">
        <ele>372</ele>
        <time>2019-05-05T17:34:11Z</time>
      </trkpt>
      <trkpt lat="46.11211" lon="5.82701">
        <ele>371</ele>
        <time>2019-05-05T17:34:24Z</time>
      </trkpt>
      <trkpt lat="46.1121" lon="5.82696">
        <ele>372</ele>
        <time>2019-05-05T17:34:27Z</time>
      </trkpt>
      <trkpt lat="46.11201" lon="5.82706">
        <ele>371</ele>
        <time>2019-05-05T17:34:35Z</time>
      </trkpt>
      <trkpt lat="46.11196" lon="5.82708">
        <ele>371</ele>
        <time>2019-05-05T17:34:38Z</time>
      </trkpt>
      <trkpt lat="46.11193" lon="5.82714">
        <ele>371</ele>
        <time>2019-05-05T17:34:42Z</time>
      </trkpt>
      <trkpt lat="46.11191" lon="5.82722">
        <ele>370</ele>
        <time>2019-05-05T17:34:47Z</time>
      </trkpt>
      <trkpt lat="46.11187" lon="5.82723">
        <ele>370</ele>
        <time>2019-05-05T17:34:49Z</time>
      </trkpt>
      <trkpt lat="46.11185" lon="5.82722">
        <ele>370</ele>
        <time>2019-05-05T17:34:50Z</time>
      </trkpt>
      <trkpt lat="46.11178" lon="5.82717">
        <ele>371</ele>
        <time>2019-05-05T17:34:56Z</time>
      </trkpt>
      <trkpt lat="46.11163" lon="5.8272">
        <ele>371</ele>
        <time>2019-05-05T17:35:08Z</time>
      </trkpt>
      <trkpt lat="46.11161" lon="5.82717">
        <ele>371</ele>
        <time>2019-05-05T17:35:09Z</time>
      </trkpt>
      <trkpt lat="46.11161" lon="5.82703">
        <ele>372</ele>
        <time>2019-05-05T17:35:16Z</time>
      </trkpt>
      <trkpt lat="46.1116" lon="5.82707">
        <ele>372</ele>
        <time>2019-05-05T17:35:19Z</time>
      </trkpt>
    </trkseg>
  </trk>
</gpx>